<?xml version="1.0" encoding="UTF-8"?>
<gpx creator="Garmin Connect" version="1.1"
  xsi:schemaLocation="http://www.topografix.com/GPX/1/1 http://www.topografix.com/GPX/11.xsd"
  xmlns:ns3="http://www.garmin.com/xmlschemas/TrackPointExtension/v1"
  xmlns="http://www.topografix.com/GPX/1/1"
  xmlns:xsi="http://www.w3.org/2001/XMLSchema-instance" xmlns:ns2="http://www.garmin.com/xmlschemas/GpxExtensions/v3">
  <metadata>
    <link href="connect.garmin.com">
      <text>Garmin Connect</text>
    </link>
    <time>2026-09-01T06:18:44.000Z</time>
  </metadata>
  <trk>
    <name>Ettal Trail Run</name>
    <type>trail_running</type>
    <trkseg>
      <trkpt lat="47.57085501216351985931396484375" lon="11.02271337993443012237548828125">
        <ele>866</ele>
        <time>2026-09-01T06:18:44.000Z</time>
        <extensions>
          <ns3:TrackPointExtension>
            <ns3:hr>49</ns3:hr>
            <ns3:cad>0</ns3:cad>
          </ns3:TrackPointExtension>
        </extensions>
      </trkpt>
      <trkpt lat="47.57086674682796001434326171875" lon="11.02271505631506443023681640625">
        <ele>866</ele>
        <time>2026-09-01T06:18:45.000Z</time>
        <extensions>
          <ns3:TrackPointExtension>
            <ns3:hr>49</ns3:hr>
            <ns3:cad>0</ns3:cad>
          </ns3:TrackPointExtension>
        </extensions>
      </trkpt>
      <trkpt lat="47.570879571139812469482421875" lon="11.02272779680788516998291015625">
        <ele>865.5999755859375</ele>
        <time>2026-09-01T06:18:46.000Z</time>
        <extensions>
          <ns3:TrackPointExtension>
            <ns3:hr>49</ns3:hr>
            <ns3:cad>0</ns3:cad>
          </ns3:TrackPointExtension>
        </extensions>
      </trkpt>
      <trkpt lat="47.5709323771297931671142578125" lon="11.02275378070771694183349609375">
        <ele>865.4000244140625</ele>
        <time>2026-09-01T06:18:47.000Z</time>
        <extensions>
          <ns3:TrackPointExtension>
            <ns3:hr>50</ns3:hr>
            <ns3:cad>0</ns3:cad>
          </ns3:TrackPointExtension>
        </extensions>
      </trkpt>
      <trkpt lat="47.570974789559841156005859375" lon="11.0227952711284160614013671875">
        <ele>865.20001220703125</ele>
        <time>2026-09-01T06:18:48.000Z</time>
        <extensions>
          <ns3:TrackPointExtension>
            <ns3:hr>52</ns3:hr>
            <ns3:cad>0</ns3:cad>
          </ns3:TrackPointExtension>
        </extensions>
      </trkpt>
      <trkpt lat="47.5710113346576690673828125" lon="11.02282552979886531829833984375">
        <ele>865</ele>
        <time>2026-09-01T06:18:49.000Z</time>
        <extensions>
          <ns3:TrackPointExtension>
            <ns3:hr>53</ns3:hr>
            <ns3:cad>94</ns3:cad>
          </ns3:TrackPointExtension>
        </extensions>
      </trkpt>
      <trkpt lat="47.57104058749973773956298828125" lon="11.02285268716514110565185546875">
        <ele>865</ele>
        <time>2026-09-01T06:18:50.000Z</time>
        <extensions>
          <ns3:TrackPointExtension>
            <ns3:hr>54</ns3:hr>
            <ns3:cad>94</ns3:cad>
          </ns3:TrackPointExtension>
        </extensions>
      </trkpt>
      <trkpt lat="47.57106958888471126556396484375" lon="11.02287548594176769256591796875">
        <ele>865</ele>
        <time>2026-09-01T06:18:51.000Z</time>
        <extensions>
          <ns3:TrackPointExtension>
            <ns3:hr>55</ns3:hr>
            <ns3:cad>95</ns3:cad>
          </ns3:TrackPointExtension>
        </extensions>
      </trkpt>
      <trkpt lat="47.57109649479389190673828125" lon="11.0229013860225677490234375">
        <ele>865</ele>
        <time>2026-09-01T06:18:52.000Z</time>
        <extensions>
          <ns3:TrackPointExtension>
            <ns3:hr>56</ns3:hr>
            <ns3:cad>95</ns3:cad>
          </ns3:TrackPointExtension>
        </extensions>
      </trkpt>
      <trkpt lat="47.57113111205399036407470703125" lon="11.0229508392512798309326171875">
        <ele>865.20001220703125</ele>
        <time>2026-09-01T06:18:53.000Z</time>
        <extensions>
          <ns3:TrackPointExtension>
            <ns3:hr>56</ns3:hr>
            <ns3:cad>95</ns3:cad>
          </ns3:TrackPointExtension>
        </extensions>
      </trkpt>
      <trkpt lat="47.5711647234857082366943359375" lon="11.02298612706363201141357421875">
        <ele>865.20001220703125</ele>
        <time>2026-09-01T06:18:54.000Z</time>
        <extensions>
          <ns3:TrackPointExtension>
            <ns3:hr>58</ns3:hr>
            <ns3:cad>93</ns3:cad>
          </ns3:TrackPointExtension>
        </extensions>
      </trkpt>
      <trkpt lat="47.57121174596250057220458984375" lon="11.02302552200853824615478515625">
        <ele>864.79998779296875</ele>
        <time>2026-09-01T06:18:55.000Z</time>
        <extensions>
          <ns3:TrackPointExtension>
            <ns3:hr>60</ns3:hr>
            <ns3:cad>93</ns3:cad>
          </ns3:TrackPointExtension>
        </extensions>
      </trkpt>
      <trkpt lat="47.5712545774877071380615234375" lon="11.023047901690006256103515625">
        <ele>864.5999755859375</ele>
        <time>2026-09-01T06:18:56.000Z</time>
        <extensions>
          <ns3:TrackPointExtension>
            <ns3:hr>61</ns3:hr>
            <ns3:cad>93</ns3:cad>
          </ns3:TrackPointExtension>
        </extensions>
      </trkpt>
      <trkpt lat="47.5713105686008930206298828125" lon="11.023072041571140289306640625">
        <ele>864.5999755859375</ele>
        <time>2026-09-01T06:18:57.000Z</time>
        <extensions>
          <ns3:TrackPointExtension>
            <ns3:hr>62</ns3:hr>
            <ns3:cad>93</ns3:cad>
          </ns3:TrackPointExtension>
        </extensions>
      </trkpt>
      <trkpt lat="47.5713600218296051025390625" lon="11.02308117784559726715087890625">
        <ele>865</ele>
        <time>2026-09-01T06:18:58.000Z</time>
        <extensions>
          <ns3:TrackPointExtension>
            <ns3:hr>63</ns3:hr>
            <ns3:cad>92</ns3:cad>
          </ns3:TrackPointExtension>
        </extensions>
      </trkpt>
      <trkpt lat="47.5714148394763469696044921875" lon="11.02309626527130603790283203125">
        <ele>865.20001220703125</ele>
        <time>2026-09-01T06:18:59.000Z</time>
        <extensions>
          <ns3:TrackPointExtension>
            <ns3:hr>63</ns3:hr>
            <ns3:cad>92</ns3:cad>
          </ns3:TrackPointExtension>
        </extensions>
      </trkpt>
      <trkpt lat="47.57146772928535938262939453125" lon="11.0230986960232257843017578125">
        <ele>865.4000244140625</ele>
        <time>2026-09-01T06:19:00.000Z</time>
        <extensions>
          <ns3:TrackPointExtension>
            <ns3:hr>63</ns3:hr>
            <ns3:cad>94</ns3:cad>
          </ns3:TrackPointExtension>
        </extensions>
      </trkpt>
      <trkpt lat="47.571515254676342010498046875" lon="11.0230826027691364288330078125">
        <ele>865.5999755859375</ele>
        <time>2026-09-01T06:19:01.000Z</time>
        <extensions>
          <ns3:TrackPointExtension>
            <ns3:hr>64</ns3:hr>
            <ns3:cad>94</ns3:cad>
          </ns3:TrackPointExtension>
        </extensions>
      </trkpt>
      <trkpt lat="47.57157250307500362396240234375" lon="11.02306365966796875">
        <ele>865.5999755859375</ele>
        <time>2026-09-01T06:19:02.000Z</time>
        <extensions>
          <ns3:TrackPointExtension>
            <ns3:hr>65</ns3:hr>
            <ns3:cad>95</ns3:cad>
          </ns3:TrackPointExtension>
        </extensions>
      </trkpt>
      <trkpt lat="47.57161743007600307464599609375" lon="11.023039519786834716796875">
        <ele>865.5999755859375</ele>
        <time>2026-09-01T06:19:03.000Z</time>
        <extensions>
          <ns3:TrackPointExtension>
            <ns3:hr>67</ns3:hr>
            <ns3:cad>95</ns3:cad>
          </ns3:TrackPointExtension>
        </extensions>
      </trkpt>
      <trkpt lat="47.5716711580753326416015625" lon="11.02300724945962429046630859375">
        <ele>865.79998779296875</ele>
        <time>2026-09-01T06:19:04.000Z</time>
        <extensions>
          <ns3:TrackPointExtension>
            <ns3:hr>69</ns3:hr>
            <ns3:cad>95</ns3:cad>
          </ns3:TrackPointExtension>
        </extensions>
      </trkpt>
      <trkpt lat="47.5717118941247463226318359375" lon="11.0229820199310779571533203125">
        <ele>865.79998779296875</ele>
        <time>2026-09-01T06:19:05.000Z</time>
        <extensions>
          <ns3:TrackPointExtension>
            <ns3:hr>71</ns3:hr>
            <ns3:cad>95</ns3:cad>
          </ns3:TrackPointExtension>
        </extensions>
      </trkpt>
      <trkpt lat="47.57175472564995288848876953125" lon="11.0229401104152202606201171875">
        <ele>866</ele>
        <time>2026-09-01T06:19:06.000Z</time>
        <extensions>
          <ns3:TrackPointExtension>
            <ns3:hr>72</ns3:hr>
            <ns3:cad>93</ns3:cad>
          </ns3:TrackPointExtension>
        </extensions>
      </trkpt>
      <trkpt lat="47.57179076783359050750732421875" lon="11.02289426140487194061279296875">
        <ele>866.20001220703125</ele>
        <time>2026-09-01T06:19:07.000Z</time>
        <extensions>
          <ns3:TrackPointExtension>
            <ns3:hr>74</ns3:hr>
            <ns3:cad>93</ns3:cad>
          </ns3:TrackPointExtension>
        </extensions>
      </trkpt>
      <trkpt lat="47.5718265585601329803466796875" lon="11.02286006323993206024169921875">
        <ele>866.20001220703125</ele>
        <time>2026-09-01T06:19:08.000Z</time>
        <extensions>
          <ns3:TrackPointExtension>
            <ns3:hr>76</ns3:hr>
            <ns3:cad>93</ns3:cad>
          </ns3:TrackPointExtension>
        </extensions>
      </trkpt>
      <trkpt lat="47.5718627683818340301513671875" lon="11.0228230990469455718994140625">
        <ele>866.5999755859375</ele>
        <time>2026-09-01T06:19:09.000Z</time>
        <extensions>
          <ns3:TrackPointExtension>
            <ns3:hr>78</ns3:hr>
            <ns3:cad>93</ns3:cad>
          </ns3:TrackPointExtension>
        </extensions>
      </trkpt>
      <trkpt lat="47.57189621217548847198486328125" lon="11.0227972827851772308349609375">
        <ele>866.79998779296875</ele>
        <time>2026-09-01T06:19:10.000Z</time>
        <extensions>
          <ns3:TrackPointExtension>
            <ns3:hr>80</ns3:hr>
            <ns3:cad>92</ns3:cad>
          </ns3:TrackPointExtension>
        </extensions>
      </trkpt>
      <trkpt lat="47.57194046862423419952392578125" lon="11.0227751545608043670654296875">
        <ele>867</ele>
        <time>2026-09-01T06:19:11.000Z</time>
        <extensions>
          <ns3:TrackPointExtension>
            <ns3:hr>82</ns3:hr>
            <ns3:cad>92</ns3:cad>
          </ns3:TrackPointExtension>
        </extensions>
      </trkpt>
      <trkpt lat="47.57197818718850612640380859375" lon="11.0227533616125583648681640625">
        <ele>867.4000244140625</ele>
        <time>2026-09-01T06:19:12.000Z</time>
        <extensions>
          <ns3:TrackPointExtension>
            <ns3:hr>85</ns3:hr>
            <ns3:cad>92</ns3:cad>
          </ns3:TrackPointExtension>
        </extensions>
      </trkpt>
      <trkpt lat="47.5720247067511081695556640625" lon="11.022745482623577117919921875">
        <ele>867.4000244140625</ele>
        <time>2026-09-01T06:19:13.000Z</time>
        <extensions>
          <ns3:TrackPointExtension>
            <ns3:hr>86</ns3:hr>
            <ns3:cad>92</ns3:cad>
          </ns3:TrackPointExtension>
        </extensions>
      </trkpt>
      <trkpt lat="47.57206435315310955047607421875" lon="11.02274472825229167938232421875">
        <ele>867.4000244140625</ele>
        <time>2026-09-01T06:19:14.000Z</time>
        <extensions>
          <ns3:TrackPointExtension>
            <ns3:hr>87</ns3:hr>
            <ns3:cad>92</ns3:cad>
          </ns3:TrackPointExtension>
        </extensions>
      </trkpt>
      <trkpt lat="47.5721137225627899169921875" lon="11.0227607376873493194580078125">
        <ele>867.4000244140625</ele>
        <time>2026-09-01T06:19:15.000Z</time>
        <extensions>
          <ns3:TrackPointExtension>
            <ns3:hr>88</ns3:hr>
            <ns3:cad>92</ns3:cad>
          </ns3:TrackPointExtension>
        </extensions>
      </trkpt>
      <trkpt lat="47.57215353660285472869873046875" lon="11.02278110571205615997314453125">
        <ele>867.5999755859375</ele>
        <time>2026-09-01T06:19:16.000Z</time>
        <extensions>
          <ns3:TrackPointExtension>
            <ns3:hr>89</ns3:hr>
            <ns3:cad>92</ns3:cad>
          </ns3:TrackPointExtension>
        </extensions>
      </trkpt>
      <trkpt lat="47.57219812832772731781005859375" lon="11.0228110291063785552978515625">
        <ele>867.5999755859375</ele>
        <time>2026-09-01T06:19:17.000Z</time>
        <extensions>
          <ns3:TrackPointExtension>
            <ns3:hr>90</ns3:hr>
            <ns3:cad>92</ns3:cad>
          </ns3:TrackPointExtension>
        </extensions>
      </trkpt>
      <trkpt lat="47.57222847081720829010009765625" lon="11.02284648455679416656494140625">
        <ele>867.5999755859375</ele>
        <time>2026-09-01T06:19:18.000Z</time>
        <extensions>
          <ns3:TrackPointExtension>
            <ns3:hr>91</ns3:hr>
            <ns3:cad>92</ns3:cad>
          </ns3:TrackPointExtension>
        </extensions>
      </trkpt>
      <trkpt lat="47.5722500123083591461181640625" lon="11.02289744652807712554931640625">
        <ele>867.5999755859375</ele>
        <time>2026-09-01T06:19:19.000Z</time>
        <extensions>
          <ns3:TrackPointExtension>
            <ns3:hr>92</ns3:hr>
            <ns3:cad>90</ns3:cad>
          </ns3:TrackPointExtension>
        </extensions>
      </trkpt>
      <trkpt lat="47.57225763984024524688720703125" lon="11.022956036031246185302734375">
        <ele>867.79998779296875</ele>
        <time>2026-09-01T06:19:20.000Z</time>
        <extensions>
          <ns3:TrackPointExtension>
            <ns3:hr>93</ns3:hr>
            <ns3:cad>90</ns3:cad>
          </ns3:TrackPointExtension>
        </extensions>
      </trkpt>
      <trkpt lat="47.572265602648258209228515625" lon="11.0230262763798236846923828125">
        <ele>867.79998779296875</ele>
        <time>2026-09-01T06:19:21.000Z</time>
        <extensions>
          <ns3:TrackPointExtension>
            <ns3:hr>95</ns3:hr>
            <ns3:cad>90</ns3:cad>
          </ns3:TrackPointExtension>
        </extensions>
      </trkpt>
      <trkpt lat="47.5722728110849857330322265625" lon="11.023085452616214752197265625">
        <ele>868</ele>
        <time>2026-09-01T06:19:22.000Z</time>
        <extensions>
          <ns3:TrackPointExtension>
            <ns3:hr>96</ns3:hr>
            <ns3:cad>90</ns3:cad>
          </ns3:TrackPointExtension>
        </extensions>
      </trkpt>
      <trkpt lat="47.5722811929881572723388671875" lon="11.02316734381020069122314453125">
        <ele>868.20001220703125</ele>
        <time>2026-09-01T06:19:23.000Z</time>
        <extensions>
          <ns3:TrackPointExtension>
            <ns3:hr>97</ns3:hr>
            <ns3:cad>89</ns3:cad>
          </ns3:TrackPointExtension>
        </extensions>
      </trkpt>
      <trkpt lat="47.5722880661487579345703125" lon="11.023225598037242889404296875">
        <ele>868.20001220703125</ele>
        <time>2026-09-01T06:19:24.000Z</time>
        <extensions>
          <ns3:TrackPointExtension>
            <ns3:hr>98</ns3:hr>
            <ns3:cad>89</ns3:cad>
          </ns3:TrackPointExtension>
        </extensions>
      </trkpt>
      <trkpt lat="47.57229686714708805084228515625" lon="11.02330564521253108978271484375">
        <ele>868.4000244140625</ele>
        <time>2026-09-01T06:19:25.000Z</time>
        <extensions>
          <ns3:TrackPointExtension>
            <ns3:hr>99</ns3:hr>
            <ns3:cad>89</ns3:cad>
          </ns3:TrackPointExtension>
        </extensions>
      </trkpt>
      <trkpt lat="47.572298459708690643310546875" lon="11.02336012758314609527587890625">
        <ele>868.4000244140625</ele>
        <time>2026-09-01T06:19:26.000Z</time>
        <extensions>
          <ns3:TrackPointExtension>
            <ns3:hr>101</ns3:hr>
            <ns3:cad>90</ns3:cad>
          </ns3:TrackPointExtension>
        </extensions>
      </trkpt>
      <trkpt lat="47.57229703478515148162841796875" lon="11.0234346427023410797119140625">
        <ele>868.4000244140625</ele>
        <time>2026-09-01T06:19:27.000Z</time>
        <extensions>
          <ns3:TrackPointExtension>
            <ns3:hr>103</ns3:hr>
            <ns3:cad>90</ns3:cad>
          </ns3:TrackPointExtension>
        </extensions>
      </trkpt>
      <trkpt lat="47.57229544222354888916015625" lon="11.02349138818681240081787109375">
        <ele>868.5999755859375</ele>
        <time>2026-09-01T06:19:28.000Z</time>
        <extensions>
          <ns3:TrackPointExtension>
            <ns3:hr>105</ns3:hr>
            <ns3:cad>90</ns3:cad>
          </ns3:TrackPointExtension>
        </extensions>
      </trkpt>
      <trkpt lat="47.5722979567945003509521484375" lon="11.02355794049799442291259765625">
        <ele>868.5999755859375</ele>
        <time>2026-09-01T06:19:29.000Z</time>
        <extensions>
          <ns3:TrackPointExtension>
            <ns3:hr>106</ns3:hr>
            <ns3:cad>90</ns3:cad>
          </ns3:TrackPointExtension>
        </extensions>
      </trkpt>
      <trkpt lat="47.5722962804138660430908203125" lon="11.0236183740198612213134765625">
        <ele>868.79998779296875</ele>
        <time>2026-09-01T06:19:30.000Z</time>
        <extensions>
          <ns3:TrackPointExtension>
            <ns3:hr>108</ns3:hr>
            <ns3:cad>90</ns3:cad>
          </ns3:TrackPointExtension>
        </extensions>
      </trkpt>
      <trkpt lat="47.57229552604258060455322265625" lon="11.02366916835308074951171875">
        <ele>868.79998779296875</ele>
        <time>2026-09-01T06:19:31.000Z</time>
        <extensions>
          <ns3:TrackPointExtension>
            <ns3:hr>110</ns3:hr>
            <ns3:cad>90</ns3:cad>
          </ns3:TrackPointExtension>
        </extensions>
      </trkpt>
      <trkpt lat="47.5722922571003437042236328125" lon="11.0237397439777851104736328125">
        <ele>868.79998779296875</ele>
        <time>2026-09-01T06:19:32.000Z</time>
        <extensions>
          <ns3:TrackPointExtension>
            <ns3:hr>111</ns3:hr>
            <ns3:cad>90</ns3:cad>
          </ns3:TrackPointExtension>
        </extensions>
      </trkpt>
      <trkpt lat="47.5722858868539333343505859375" lon="11.023796908557415008544921875">
        <ele>869</ele>
        <time>2026-09-01T06:19:33.000Z</time>
        <extensions>
          <ns3:TrackPointExtension>
            <ns3:hr>113</ns3:hr>
            <ns3:cad>90</ns3:cad>
          </ns3:TrackPointExtension>
        </extensions>
      </trkpt>
      <trkpt lat="47.57228194735944271087646484375" lon="11.0238671489059925079345703125">
        <ele>869</ele>
        <time>2026-09-01T06:19:34.000Z</time>
        <extensions>
          <ns3:TrackPointExtension>
            <ns3:hr>116</ns3:hr>
            <ns3:cad>88</ns3:cad>
          </ns3:TrackPointExtension>
        </extensions>
      </trkpt>
      <trkpt lat="47.572281360626220703125" lon="11.02391383610665798187255859375">
        <ele>869</ele>
        <time>2026-09-01T06:19:35.000Z</time>
        <extensions>
          <ns3:TrackPointExtension>
            <ns3:hr>119</ns3:hr>
            <ns3:cad>87</ns3:cad>
          </ns3:TrackPointExtension>
        </extensions>
      </trkpt>
      <trkpt lat="47.5722754932940006256103515625" lon="11.02398776449263095855712890625">
        <ele>869</ele>
        <time>2026-09-01T06:19:36.000Z</time>
        <extensions>
          <ns3:TrackPointExtension>
            <ns3:hr>122</ns3:hr>
            <ns3:cad>87</ns3:cad>
          </ns3:TrackPointExtension>
        </extensions>
      </trkpt>
      <trkpt lat="47.57227155379951000213623046875" lon="11.0240321047604084014892578125">
        <ele>869.20001220703125</ele>
        <time>2026-09-01T06:19:37.000Z</time>
        <extensions>
          <ns3:TrackPointExtension>
            <ns3:hr>125</ns3:hr>
            <ns3:cad>88</ns3:cad>
          </ns3:TrackPointExtension>
        </extensions>
      </trkpt>
      <trkpt lat="47.572262249886989593505859375" lon="11.024094633758068084716796875">
        <ele>869.4000244140625</ele>
        <time>2026-09-01T06:19:38.000Z</time>
        <extensions>
          <ns3:TrackPointExtension>
            <ns3:hr>127</ns3:hr>
            <ns3:cad>88</ns3:cad>
          </ns3:TrackPointExtension>
        </extensions>
      </trkpt>
      <trkpt lat="47.57225923240184783935546875" lon="11.024131514132022857666015625">
        <ele>869.79998779296875</ele>
        <time>2026-09-01T06:19:39.000Z</time>
        <extensions>
          <ns3:TrackPointExtension>
            <ns3:hr>129</ns3:hr>
            <ns3:cad>88</ns3:cad>
          </ns3:TrackPointExtension>
        </extensions>
      </trkpt>
      <trkpt lat="47.57225227542221546173095703125" lon="11.02419965900480747222900390625">
        <ele>869.79998779296875</ele>
        <time>2026-09-01T06:19:40.000Z</time>
        <extensions>
          <ns3:TrackPointExtension>
            <ns3:hr>131</ns3:hr>
            <ns3:cad>88</ns3:cad>
          </ns3:TrackPointExtension>
        </extensions>
      </trkpt>
      <trkpt lat="47.5722491741180419921875" lon="11.02423519827425479888916015625">
        <ele>869.79998779296875</ele>
        <time>2026-09-01T06:19:41.000Z</time>
        <extensions>
          <ns3:TrackPointExtension>
            <ns3:hr>133</ns3:hr>
            <ns3:cad>88</ns3:cad>
          </ns3:TrackPointExtension>
        </extensions>
      </trkpt>
      <trkpt lat="47.5722379423677921295166015625" lon="11.02429680526256561279296875">
        <ele>870.20001220703125</ele>
        <time>2026-09-01T06:19:42.000Z</time>
        <extensions>
          <ns3:TrackPointExtension>
            <ns3:hr>135</ns3:hr>
            <ns3:cad>87</ns3:cad>
          </ns3:TrackPointExtension>
        </extensions>
      </trkpt>
      <trkpt lat="47.5722322426736354827880859375" lon="11.0243395529687404632568359375">
        <ele>870.20001220703125</ele>
        <time>2026-09-01T06:19:43.000Z</time>
        <extensions>
          <ns3:TrackPointExtension>
            <ns3:hr>136</ns3:hr>
            <ns3:cad>87</ns3:cad>
          </ns3:TrackPointExtension>
        </extensions>
      </trkpt>
      <trkpt lat="47.5722225196659564971923828125" lon="11.02439110167324542999267578125">
        <ele>870.20001220703125</ele>
        <time>2026-09-01T06:19:44.000Z</time>
        <extensions>
          <ns3:TrackPointExtension>
            <ns3:hr>138</ns3:hr>
            <ns3:cad>87</ns3:cad>
          </ns3:TrackPointExtension>
        </extensions>
      </trkpt>
      <trkpt lat="47.57221573032438755035400390625" lon="11.02444407530128955841064453125">
        <ele>870.4000244140625</ele>
        <time>2026-09-01T06:19:45.000Z</time>
        <extensions>
          <ns3:TrackPointExtension>
            <ns3:hr>140</ns3:hr>
            <ns3:cad>87</ns3:cad>
          </ns3:TrackPointExtension>
        </extensions>
      </trkpt>
      <trkpt lat="47.5722049176692962646484375" lon="11.02450073696672916412353515625">
        <ele>870.4000244140625</ele>
        <time>2026-09-01T06:19:46.000Z</time>
        <extensions>
          <ns3:TrackPointExtension>
            <ns3:hr>143</ns3:hr>
            <ns3:cad>88</ns3:cad>
          </ns3:TrackPointExtension>
        </extensions>
      </trkpt>
      <trkpt lat="47.5721983797848224639892578125" lon="11.024560667574405670166015625">
        <ele>870.5999755859375</ele>
        <time>2026-09-01T06:19:47.000Z</time>
        <extensions>
          <ns3:TrackPointExtension>
            <ns3:hr>145</ns3:hr>
            <ns3:cad>88</ns3:cad>
          </ns3:TrackPointExtension>
        </extensions>
      </trkpt>
      <trkpt lat="47.57219016551971435546875" lon="11.0246154852211475372314453125">
        <ele>870.79998779296875</ele>
        <time>2026-09-01T06:19:48.000Z</time>
        <extensions>
          <ns3:TrackPointExtension>
            <ns3:hr>147</ns3:hr>
            <ns3:cad>88</ns3:cad>
          </ns3:TrackPointExtension>
        </extensions>
      </trkpt>
      <trkpt lat="47.57217767648398876190185546875" lon="11.0246771760284900665283203125">
        <ele>871</ele>
        <time>2026-09-01T06:19:49.000Z</time>
        <extensions>
          <ns3:TrackPointExtension>
            <ns3:hr>149</ns3:hr>
            <ns3:cad>88</ns3:cad>
          </ns3:TrackPointExtension>
        </extensions>
      </trkpt>
      <trkpt lat="47.57216845639050006866455078125" lon="11.02472922764718532562255859375">
        <ele>871</ele>
        <time>2026-09-01T06:19:50.000Z</time>
        <extensions>
          <ns3:TrackPointExtension>
            <ns3:hr>151</ns3:hr>
            <ns3:cad>88</ns3:cad>
          </ns3:TrackPointExtension>
        </extensions>
      </trkpt>
      <trkpt lat="47.5721574760973453521728515625" lon="11.02479577995836734771728515625">
        <ele>871</ele>
        <time>2026-09-01T06:19:51.000Z</time>
        <extensions>
          <ns3:TrackPointExtension>
            <ns3:hr>153</ns3:hr>
            <ns3:cad>88</ns3:cad>
          </ns3:TrackPointExtension>
        </extensions>
      </trkpt>
      <trkpt lat="47.572153620421886444091796875" lon="11.024841628968715667724609375">
        <ele>871.20001220703125</ele>
        <time>2026-09-01T06:19:52.000Z</time>
        <extensions>
          <ns3:TrackPointExtension>
            <ns3:hr>155</ns3:hr>
            <ns3:cad>88</ns3:cad>
          </ns3:TrackPointExtension>
        </extensions>
      </trkpt>
      <trkpt lat="47.5721407122910022735595703125" lon="11.0249048285186290740966796875">
        <ele>871.4000244140625</ele>
        <time>2026-09-01T06:19:53.000Z</time>
        <extensions>
          <ns3:TrackPointExtension>
            <ns3:hr>157</ns3:hr>
            <ns3:cad>88</ns3:cad>
          </ns3:TrackPointExtension>
        </extensions>
      </trkpt>
      <trkpt lat="47.5721356831490993499755859375" lon="11.02495260536670684814453125">
        <ele>871.5999755859375</ele>
        <time>2026-09-01T06:19:54.000Z</time>
        <extensions>
          <ns3:TrackPointExtension>
            <ns3:hr>159</ns3:hr>
            <ns3:cad>87</ns3:cad>
          </ns3:TrackPointExtension>
        </extensions>
      </trkpt>
      <trkpt lat="47.57212688215076923370361328125" lon="11.025015972554683685302734375">
        <ele>871.5999755859375</ele>
        <time>2026-09-01T06:19:55.000Z</time>
        <extensions>
          <ns3:TrackPointExtension>
            <ns3:hr>161</ns3:hr>
            <ns3:cad>87</ns3:cad>
          </ns3:TrackPointExtension>
        </extensions>
      </trkpt>
      <trkpt lat="47.57212587632238864898681640625" lon="11.02507104165852069854736328125">
        <ele>871.5999755859375</ele>
        <time>2026-09-01T06:19:56.000Z</time>
        <extensions>
          <ns3:TrackPointExtension>
            <ns3:hr>163</ns3:hr>
            <ns3:cad>87</ns3:cad>
          </ns3:TrackPointExtension>
        </extensions>
      </trkpt>
      <trkpt lat="47.57212185300886631011962890625" lon="11.025130636990070343017578125">
        <ele>871.79998779296875</ele>
        <time>2026-09-01T06:19:57.000Z</time>
        <extensions>
          <ns3:TrackPointExtension>
            <ns3:hr>165</ns3:hr>
            <ns3:cad>87</ns3:cad>
          </ns3:TrackPointExtension>
        </extensions>
      </trkpt>
      <trkpt lat="47.57211766205728054046630859375" lon="11.02518671192228794097900390625">
        <ele>871.79998779296875</ele>
        <time>2026-09-01T06:19:58.000Z</time>
        <extensions>
          <ns3:TrackPointExtension>
            <ns3:hr>166</ns3:hr>
            <ns3:cad>87</ns3:cad>
          </ns3:TrackPointExtension>
        </extensions>
      </trkpt>
      <trkpt lat="47.5721110403537750244140625" lon="11.0252360813319683074951171875">
        <ele>871.79998779296875</ele>
        <time>2026-09-01T06:19:59.000Z</time>
        <extensions>
          <ns3:TrackPointExtension>
            <ns3:hr>168</ns3:hr>
            <ns3:cad>87</ns3:cad>
          </ns3:TrackPointExtension>
        </extensions>
      </trkpt>
      <trkpt lat="47.57210609503090381622314453125" lon="11.02529995143413543701171875">
        <ele>871.79998779296875</ele>
        <time>2026-09-01T06:20:00.000Z</time>
        <extensions>
          <ns3:TrackPointExtension>
            <ns3:hr>169</ns3:hr>
            <ns3:cad>87</ns3:cad>
          </ns3:TrackPointExtension>
        </extensions>
      </trkpt>
      <trkpt lat="47.57210089825093746185302734375" lon="11.025351583957672119140625">
        <ele>871.79998779296875</ele>
        <time>2026-09-01T06:20:01.000Z</time>
        <extensions>
          <ns3:TrackPointExtension>
            <ns3:hr>171</ns3:hr>
            <ns3:cad>87</ns3:cad>
          </ns3:TrackPointExtension>
        </extensions>
      </trkpt>
      <trkpt lat="47.5720914267003536224365234375" lon="11.025420315563678741455078125">
        <ele>871.5999755859375</ele>
        <time>2026-09-01T06:20:02.000Z</time>
        <extensions>
          <ns3:TrackPointExtension>
            <ns3:hr>172</ns3:hr>
            <ns3:cad>87</ns3:cad>
          </ns3:TrackPointExtension>
        </extensions>
      </trkpt>
      <trkpt lat="47.572087235748767852783203125" lon="11.02546599693596363067626953125">
        <ele>871.5999755859375</ele>
        <time>2026-09-01T06:20:03.000Z</time>
        <extensions>
          <ns3:TrackPointExtension>
            <ns3:hr>173</ns3:hr>
            <ns3:cad>87</ns3:cad>
          </ns3:TrackPointExtension>
        </extensions>
      </trkpt>
      <trkpt lat="47.5720780156552791595458984375" lon="11.02552785538136959075927734375">
        <ele>871.4000244140625</ele>
        <time>2026-09-01T06:20:04.000Z</time>
        <extensions>
          <ns3:TrackPointExtension>
            <ns3:hr>174</ns3:hr>
            <ns3:cad>87</ns3:cad>
          </ns3:TrackPointExtension>
        </extensions>
      </trkpt>
      <trkpt lat="47.57207147777080535888671875" lon="11.02558024227619171142578125">
        <ele>871.4000244140625</ele>
        <time>2026-09-01T06:20:05.000Z</time>
        <extensions>
          <ns3:TrackPointExtension>
            <ns3:hr>175</ns3:hr>
            <ns3:cad>87</ns3:cad>
          </ns3:TrackPointExtension>
        </extensions>
      </trkpt>
      <trkpt lat="47.57206250913441181182861328125" lon="11.02563849650323390960693359375">
        <ele>871.4000244140625</ele>
        <time>2026-09-01T06:20:06.000Z</time>
        <extensions>
          <ns3:TrackPointExtension>
            <ns3:hr>176</ns3:hr>
            <ns3:cad>87</ns3:cad>
          </ns3:TrackPointExtension>
        </extensions>
      </trkpt>
      <trkpt lat="47.57206209003925323486328125" lon="11.0257007740437984466552734375">
        <ele>871.4000244140625</ele>
        <time>2026-09-01T06:20:07.000Z</time>
        <extensions>
          <ns3:TrackPointExtension>
            <ns3:hr>177</ns3:hr>
            <ns3:cad>86</ns3:cad>
          </ns3:TrackPointExtension>
        </extensions>
      </trkpt>
      <trkpt lat="47.5720602460205554962158203125" lon="11.025745533406734466552734375">
        <ele>871.5999755859375</ele>
        <time>2026-09-01T06:20:08.000Z</time>
        <extensions>
          <ns3:TrackPointExtension>
            <ns3:hr>178</ns3:hr>
            <ns3:cad>86</ns3:cad>
          </ns3:TrackPointExtension>
        </extensions>
      </trkpt>
      <trkpt lat="47.57205714471638202667236328125" lon="11.02580613456666469573974609375">
        <ele>871.5999755859375</ele>
        <time>2026-09-01T06:20:09.000Z</time>
        <extensions>
          <ns3:TrackPointExtension>
            <ns3:hr>178</ns3:hr>
            <ns3:cad>87</ns3:cad>
          </ns3:TrackPointExtension>
        </extensions>
      </trkpt>
      <trkpt lat="47.5720635987818241119384765625" lon="11.02586044929921627044677734375">
        <ele>871.5999755859375</ele>
        <time>2026-09-01T06:20:10.000Z</time>
        <extensions>
          <ns3:TrackPointExtension>
            <ns3:hr>179</ns3:hr>
            <ns3:cad>87</ns3:cad>
          </ns3:TrackPointExtension>
        </extensions>
      </trkpt>
      <trkpt lat="47.572055719792842864990234375" lon="11.0259284265339374542236328125">
        <ele>871.4000244140625</ele>
        <time>2026-09-01T06:20:11.000Z</time>
        <extensions>
          <ns3:TrackPointExtension>
            <ns3:hr>179</ns3:hr>
            <ns3:cad>86</ns3:cad>
          </ns3:TrackPointExtension>
        </extensions>
      </trkpt>
      <trkpt lat="47.57205831818282604217529296875" lon="11.02598450146615505218505859375">
        <ele>871.5999755859375</ele>
        <time>2026-09-01T06:20:12.000Z</time>
        <extensions>
          <ns3:TrackPointExtension>
            <ns3:hr>180</ns3:hr>
            <ns3:cad>86</ns3:cad>
          </ns3:TrackPointExtension>
        </extensions>
      </trkpt>
      <trkpt lat="47.57205546833574771881103515625" lon="11.0260578431189060211181640625">
        <ele>871.4000244140625</ele>
        <time>2026-09-01T06:20:13.000Z</time>
        <extensions>
          <ns3:TrackPointExtension>
            <ns3:hr>180</ns3:hr>
            <ns3:cad>87</ns3:cad>
          </ns3:TrackPointExtension>
        </extensions>
      </trkpt>
      <trkpt lat="47.57205069065093994140625" lon="11.02610520087182521820068359375">
        <ele>871.5999755859375</ele>
        <time>2026-09-01T06:20:14.000Z</time>
        <extensions>
          <ns3:TrackPointExtension>
            <ns3:hr>181</ns3:hr>
            <ns3:cad>87</ns3:cad>
          </ns3:TrackPointExtension>
        </extensions>
      </trkpt>
      <trkpt lat="47.57204733788967132568359375" lon="11.02616353891789913177490234375">
        <ele>871.5999755859375</ele>
        <time>2026-09-01T06:20:15.000Z</time>
        <extensions>
          <ns3:TrackPointExtension>
            <ns3:hr>182</ns3:hr>
            <ns3:cad>87</ns3:cad>
          </ns3:TrackPointExtension>
        </extensions>
      </trkpt>
      <trkpt lat="47.57204256020486354827880859375" lon="11.02622338570654392242431640625">
        <ele>871.5999755859375</ele>
        <time>2026-09-01T06:20:16.000Z</time>
        <extensions>
          <ns3:TrackPointExtension>
            <ns3:hr>182</ns3:hr>
            <ns3:cad>86</ns3:cad>
          </ns3:TrackPointExtension>
        </extensions>
      </trkpt>
      <trkpt lat="47.5720397941768169403076171875" lon="11.02627501823008060455322265625">
        <ele>871.4000244140625</ele>
        <time>2026-09-01T06:20:17.000Z</time>
        <extensions>
          <ns3:TrackPointExtension>
            <ns3:hr>183</ns3:hr>
            <ns3:cad>86</ns3:cad>
          </ns3:TrackPointExtension>
        </extensions>
      </trkpt>
      <trkpt lat="47.5720387883484363555908203125" lon="11.02633570320904254913330078125">
        <ele>871.4000244140625</ele>
        <time>2026-09-01T06:20:18.000Z</time>
        <extensions>
          <ns3:TrackPointExtension>
            <ns3:hr>183</ns3:hr>
            <ns3:cad>87</ns3:cad>
          </ns3:TrackPointExtension>
        </extensions>
      </trkpt>
      <trkpt lat="47.57203652523458003997802734375" lon="11.02637576870620250701904296875">
        <ele>871.4000244140625</ele>
        <time>2026-09-01T06:20:19.000Z</time>
        <extensions>
          <ns3:TrackPointExtension>
            <ns3:hr>183</ns3:hr>
            <ns3:cad>87</ns3:cad>
          </ns3:TrackPointExtension>
        </extensions>
      </trkpt>
      <trkpt lat="47.57203149609267711639404296875" lon="11.0264343582093715667724609375">
        <ele>871.20001220703125</ele>
        <time>2026-09-01T06:20:20.000Z</time>
        <extensions>
          <ns3:TrackPointExtension>
            <ns3:hr>184</ns3:hr>
            <ns3:cad>86</ns3:cad>
          </ns3:TrackPointExtension>
        </extensions>
      </trkpt>
      <trkpt lat="47.57203015498816967010498046875" lon="11.0264742560684680938720703125">
        <ele>871.20001220703125</ele>
        <time>2026-09-01T06:20:21.000Z</time>
        <extensions>
          <ns3:TrackPointExtension>
            <ns3:hr>184</ns3:hr>
            <ns3:cad>86</ns3:cad>
          </ns3:TrackPointExtension>
        </extensions>
      </trkpt>
      <trkpt lat="47.572032921016216278076171875" lon="11.026526056230068206787109375">
        <ele>871.4000244140625</ele>
        <time>2026-09-01T06:20:22.000Z</time>
        <extensions>
          <ns3:TrackPointExtension>
            <ns3:hr>184</ns3:hr>
            <ns3:cad>86</ns3:cad>
          </ns3:TrackPointExtension>
        </extensions>
      </trkpt>
      <trkpt lat="47.57203065790235996246337890625" lon="11.02658447809517383575439453125">
        <ele>871.4000244140625</ele>
        <time>2026-09-01T06:20:23.000Z</time>
        <extensions>
          <ns3:TrackPointExtension>
            <ns3:hr>184</ns3:hr>
            <ns3:cad>86</ns3:cad>
          </ns3:TrackPointExtension>
        </extensions>
      </trkpt>
      <trkpt lat="47.572034262120723724365234375" lon="11.02662990801036357879638671875">
        <ele>871.4000244140625</ele>
        <time>2026-09-01T06:20:24.000Z</time>
        <extensions>
          <ns3:TrackPointExtension>
            <ns3:hr>184</ns3:hr>
            <ns3:cad>86</ns3:cad>
          </ns3:TrackPointExtension>
        </extensions>
      </trkpt>
      <trkpt lat="47.5720354355871677398681640625" lon="11.02669914253056049346923828125">
        <ele>871.5999755859375</ele>
        <time>2026-09-01T06:20:25.000Z</time>
        <extensions>
          <ns3:TrackPointExtension>
            <ns3:hr>185</ns3:hr>
            <ns3:cad>87</ns3:cad>
          </ns3:TrackPointExtension>
        </extensions>
      </trkpt>
      <trkpt lat="47.57203535176813602447509765625" lon="11.0267515294253826141357421875">
        <ele>871.79998779296875</ele>
        <time>2026-09-01T06:20:26.000Z</time>
        <extensions>
          <ns3:TrackPointExtension>
            <ns3:hr>185</ns3:hr>
            <ns3:cad>87</ns3:cad>
          </ns3:TrackPointExtension>
        </extensions>
      </trkpt>
      <trkpt lat="47.572032250463962554931640625" lon="11.0268169082701206207275390625">
        <ele>871.79998779296875</ele>
        <time>2026-09-01T06:20:27.000Z</time>
        <extensions>
          <ns3:TrackPointExtension>
            <ns3:hr>185</ns3:hr>
            <ns3:cad>86</ns3:cad>
          </ns3:TrackPointExtension>
        </extensions>
      </trkpt>
      <trkpt lat="47.57203149609267711639404296875" lon="11.02686728350818157196044921875">
        <ele>871.79998779296875</ele>
        <time>2026-09-01T06:20:28.000Z</time>
        <extensions>
          <ns3:TrackPointExtension>
            <ns3:hr>185</ns3:hr>
            <ns3:cad>86</ns3:cad>
          </ns3:TrackPointExtension>
        </extensions>
      </trkpt>
      <trkpt lat="47.57202981971204280853271484375" lon="11.02692310698330402374267578125">
        <ele>872</ele>
        <time>2026-09-01T06:20:29.000Z</time>
        <extensions>
          <ns3:TrackPointExtension>
            <ns3:hr>185</ns3:hr>
            <ns3:cad>85</ns3:cad>
          </ns3:TrackPointExtension>
        </extensions>
      </trkpt>
      <trkpt lat="47.5720257125794887542724609375" lon="11.02698647417128086090087890625">
        <ele>871.79998779296875</ele>
        <time>2026-09-01T06:20:30.000Z</time>
        <extensions>
          <ns3:TrackPointExtension>
            <ns3:hr>185</ns3:hr>
            <ns3:cad>85</ns3:cad>
          </ns3:TrackPointExtension>
        </extensions>
      </trkpt>
      <trkpt lat="47.5720278918743133544921875" lon="11.02703223936259746551513671875">
        <ele>871.79998779296875</ele>
        <time>2026-09-01T06:20:31.000Z</time>
        <extensions>
          <ns3:TrackPointExtension>
            <ns3:hr>185</ns3:hr>
            <ns3:cad>85</ns3:cad>
          </ns3:TrackPointExtension>
        </extensions>
      </trkpt>
      <trkpt lat="47.57202797569334506988525390625" lon="11.02709610946476459503173828125">
        <ele>871.79998779296875</ele>
        <time>2026-09-01T06:20:32.000Z</time>
        <extensions>
          <ns3:TrackPointExtension>
            <ns3:hr>185</ns3:hr>
            <ns3:cad>85</ns3:cad>
          </ns3:TrackPointExtension>
        </extensions>
      </trkpt>
      <trkpt lat="47.57203199900686740875244140625" lon="11.02713860571384429931640625">
        <ele>871.79998779296875</ele>
        <time>2026-09-01T06:20:33.000Z</time>
        <extensions>
          <ns3:TrackPointExtension>
            <ns3:hr>185</ns3:hr>
            <ns3:cad>85</ns3:cad>
          </ns3:TrackPointExtension>
        </extensions>
      </trkpt>
      <trkpt lat="47.57203686051070690155029296875" lon="11.0271981172263622283935546875">
        <ele>871.5999755859375</ele>
        <time>2026-09-01T06:20:34.000Z</time>
        <extensions>
          <ns3:TrackPointExtension>
            <ns3:hr>186</ns3:hr>
            <ns3:cad>85</ns3:cad>
          </ns3:TrackPointExtension>
        </extensions>
      </trkpt>
      <trkpt lat="47.57204188965260982513427734375" lon="11.02725603617727756500244140625">
        <ele>871.79998779296875</ele>
        <time>2026-09-01T06:20:35.000Z</time>
        <extensions>
          <ns3:TrackPointExtension>
            <ns3:hr>186</ns3:hr>
            <ns3:cad>86</ns3:cad>
          </ns3:TrackPointExtension>
        </extensions>
      </trkpt>
      <trkpt lat="47.57204658351838588714599609375" lon="11.0273111052811145782470703125">
        <ele>872</ele>
        <time>2026-09-01T06:20:36.000Z</time>
        <extensions>
          <ns3:TrackPointExtension>
            <ns3:hr>186</ns3:hr>
            <ns3:cad>86</ns3:cad>
          </ns3:TrackPointExtension>
        </extensions>
      </trkpt>
      <trkpt lat="47.57205161266028881072998046875" lon="11.02737287990748882293701171875">
        <ele>872</ele>
        <time>2026-09-01T06:20:37.000Z</time>
        <extensions>
          <ns3:TrackPointExtension>
            <ns3:hr>185</ns3:hr>
            <ns3:cad>86</ns3:cad>
          </ns3:TrackPointExtension>
        </extensions>
      </trkpt>
      <trkpt lat="47.57205597124993801116943359375" lon="11.027425937354564666748046875">
        <ele>872</ele>
        <time>2026-09-01T06:20:38.000Z</time>
        <extensions>
          <ns3:TrackPointExtension>
            <ns3:hr>186</ns3:hr>
            <ns3:cad>86</ns3:cad>
          </ns3:TrackPointExtension>
        </extensions>
      </trkpt>
      <trkpt lat="47.572064101696014404296875" lon="11.0274867899715900421142578125">
        <ele>872</ele>
        <time>2026-09-01T06:20:39.000Z</time>
        <extensions>
          <ns3:TrackPointExtension>
            <ns3:hr>186</ns3:hr>
            <ns3:cad>86</ns3:cad>
          </ns3:TrackPointExtension>
        </extensions>
      </trkpt>
      <trkpt lat="47.57207139395177364349365234375" lon="11.027536578476428985595703125">
        <ele>872</ele>
        <time>2026-09-01T06:20:40.000Z</time>
        <extensions>
          <ns3:TrackPointExtension>
            <ns3:hr>186</ns3:hr>
            <ns3:cad>86</ns3:cad>
          </ns3:TrackPointExtension>
        </extensions>
      </trkpt>
      <trkpt lat="47.57207860238850116729736328125" lon="11.0276004485785961151123046875">
        <ele>872</ele>
        <time>2026-09-01T06:20:41.000Z</time>
        <extensions>
          <ns3:TrackPointExtension>
            <ns3:hr>187</ns3:hr>
            <ns3:cad>86</ns3:cad>
          </ns3:TrackPointExtension>
        </extensions>
      </trkpt>
      <trkpt lat="47.57208597846329212188720703125" lon="11.02765333838760852813720703125">
        <ele>872</ele>
        <time>2026-09-01T06:20:42.000Z</time>
        <extensions>
          <ns3:TrackPointExtension>
            <ns3:hr>187</ns3:hr>
            <ns3:cad>86</ns3:cad>
          </ns3:TrackPointExtension>
        </extensions>
      </trkpt>
      <trkpt lat="47.5720977969467639923095703125" lon="11.0277030430734157562255859375">
        <ele>872.20001220703125</ele>
        <time>2026-09-01T06:20:43.000Z</time>
        <extensions>
          <ns3:TrackPointExtension>
            <ns3:hr>188</ns3:hr>
            <ns3:cad>86</ns3:cad>
          </ns3:TrackPointExtension>
        </extensions>
      </trkpt>
      <trkpt lat="47.57210944779217243194580078125" lon="11.02776632644236087799072265625">
        <ele>872.20001220703125</ele>
        <time>2026-09-01T06:20:44.000Z</time>
        <extensions>
          <ns3:TrackPointExtension>
            <ns3:hr>188</ns3:hr>
            <ns3:cad>86</ns3:cad>
          </ns3:TrackPointExtension>
        </extensions>
      </trkpt>
      <trkpt lat="47.57212285883724689483642578125" lon="11.0278140194714069366455078125">
        <ele>872.20001220703125</ele>
        <time>2026-09-01T06:20:45.000Z</time>
        <extensions>
          <ns3:TrackPointExtension>
            <ns3:hr>188</ns3:hr>
            <ns3:cad>86</ns3:cad>
          </ns3:TrackPointExtension>
        </extensions>
      </trkpt>
      <trkpt lat="47.5721383653581142425537109375" lon="11.02787344716489315032958984375">
        <ele>872.4000244140625</ele>
        <time>2026-09-01T06:20:46.000Z</time>
        <extensions>
          <ns3:TrackPointExtension>
            <ns3:hr>189</ns3:hr>
            <ns3:cad>86</ns3:cad>
          </ns3:TrackPointExtension>
        </extensions>
      </trkpt>
      <trkpt lat="47.572150267660617828369140625" lon="11.027927510440349578857421875">
        <ele>872.5999755859375</ele>
        <time>2026-09-01T06:20:47.000Z</time>
        <extensions>
          <ns3:TrackPointExtension>
            <ns3:hr>189</ns3:hr>
            <ns3:cad>86</ns3:cad>
          </ns3:TrackPointExtension>
        </extensions>
      </trkpt>
      <trkpt lat="47.57216443307697772979736328125" lon="11.0279900394380092620849609375">
        <ele>872.5999755859375</ele>
        <time>2026-09-01T06:20:48.000Z</time>
        <extensions>
          <ns3:TrackPointExtension>
            <ns3:hr>189</ns3:hr>
            <ns3:cad>86</ns3:cad>
          </ns3:TrackPointExtension>
        </extensions>
      </trkpt>
      <trkpt lat="47.57217315025627613067626953125" lon="11.02804644964635372161865234375">
        <ele>872.5999755859375</ele>
        <time>2026-09-01T06:20:49.000Z</time>
        <extensions>
          <ns3:TrackPointExtension>
            <ns3:hr>189</ns3:hr>
            <ns3:cad>86</ns3:cad>
          </ns3:TrackPointExtension>
        </extensions>
      </trkpt>
      <trkpt lat="47.572179101407527923583984375" lon="11.0281000100076198577880859375">
        <ele>872.79998779296875</ele>
        <time>2026-09-01T06:20:50.000Z</time>
        <extensions>
          <ns3:TrackPointExtension>
            <ns3:hr>189</ns3:hr>
            <ns3:cad>86</ns3:cad>
          </ns3:TrackPointExtension>
        </extensions>
      </trkpt>
      <trkpt lat="47.57217130623757839202880859375" lon="11.02815792895853519439697265625">
        <ele>872.79998779296875</ele>
        <time>2026-09-01T06:20:51.000Z</time>
        <extensions>
          <ns3:TrackPointExtension>
            <ns3:hr>189</ns3:hr>
            <ns3:cad>86</ns3:cad>
          </ns3:TrackPointExtension>
        </extensions>
      </trkpt>
      <trkpt lat="47.572164349257946014404296875" lon="11.0281935520470142364501953125">
        <ele>872.79998779296875</ele>
        <time>2026-09-01T06:20:52.000Z</time>
        <extensions>
          <ns3:TrackPointExtension>
            <ns3:hr>190</ns3:hr>
            <ns3:cad>85</ns3:cad>
          </ns3:TrackPointExtension>
        </extensions>
      </trkpt>
      <trkpt lat="47.57214314304292201995849609375" lon="11.0282478667795658111572265625">
        <ele>872.79998779296875</ele>
        <time>2026-09-01T06:20:53.000Z</time>
        <extensions>
          <ns3:TrackPointExtension>
            <ns3:hr>190</ns3:hr>
            <ns3:cad>85</ns3:cad>
          </ns3:TrackPointExtension>
        </extensions>
      </trkpt>
      <trkpt lat="47.5721303187310695648193359375" lon="11.0282817296683788299560546875">
        <ele>873</ele>
        <time>2026-09-01T06:20:54.000Z</time>
        <extensions>
          <ns3:TrackPointExtension>
            <ns3:hr>190</ns3:hr>
            <ns3:cad>85</ns3:cad>
          </ns3:TrackPointExtension>
        </extensions>
      </trkpt>
      <trkpt lat="47.5721112079918384552001953125" lon="11.02831986732780933380126953125">
        <ele>873</ele>
        <time>2026-09-01T06:20:55.000Z</time>
        <extensions>
          <ns3:TrackPointExtension>
            <ns3:hr>190</ns3:hr>
            <ns3:cad>85</ns3:cad>
          </ns3:TrackPointExtension>
        </extensions>
      </trkpt>
      <trkpt lat="47.572091259062290191650390625" lon="11.0283524729311466217041015625">
        <ele>873.20001220703125</ele>
        <time>2026-09-01T06:20:56.000Z</time>
        <extensions>
          <ns3:TrackPointExtension>
            <ns3:hr>190</ns3:hr>
            <ns3:cad>85</ns3:cad>
          </ns3:TrackPointExtension>
        </extensions>
      </trkpt>
      <trkpt lat="47.57207877002656459808349609375" lon="11.028385497629642486572265625">
        <ele>873.5999755859375</ele>
        <time>2026-09-01T06:20:57.000Z</time>
        <extensions>
          <ns3:TrackPointExtension>
            <ns3:hr>190</ns3:hr>
            <ns3:cad>85</ns3:cad>
          </ns3:TrackPointExtension>
        </extensions>
      </trkpt>
      <trkpt lat="47.57206183858215808868408203125" lon="11.02842045016586780548095703125">
        <ele>874.20001220703125</ele>
        <time>2026-09-01T06:20:58.000Z</time>
        <extensions>
          <ns3:TrackPointExtension>
            <ns3:hr>190</ns3:hr>
            <ns3:cad>85</ns3:cad>
          </ns3:TrackPointExtension>
        </extensions>
      </trkpt>
      <trkpt lat="47.572044990956783294677734375" lon="11.02844207547605037689208984375">
        <ele>874.4000244140625</ele>
        <time>2026-09-01T06:20:59.000Z</time>
        <extensions>
          <ns3:TrackPointExtension>
            <ns3:hr>191</ns3:hr>
            <ns3:cad>85</ns3:cad>
          </ns3:TrackPointExtension>
        </extensions>
      </trkpt>
      <trkpt lat="47.57201842032372951507568359375" lon="11.02848079986870288848876953125">
        <ele>874.5999755859375</ele>
        <time>2026-09-01T06:21:00.000Z</time>
        <extensions>
          <ns3:TrackPointExtension>
            <ns3:hr>191</ns3:hr>
            <ns3:cad>85</ns3:cad>
          </ns3:TrackPointExtension>
        </extensions>
      </trkpt>
      <trkpt lat="47.5720010697841644287109375" lon="11.02850829251110553741455078125">
        <ele>874.79998779296875</ele>
        <time>2026-09-01T06:21:01.000Z</time>
        <extensions>
          <ns3:TrackPointExtension>
            <ns3:hr>191</ns3:hr>
            <ns3:cad>85</ns3:cad>
          </ns3:TrackPointExtension>
        </extensions>
      </trkpt>
      <trkpt lat="47.57197416387498378753662109375" lon="11.0285459272563457489013671875">
        <ele>875.20001220703125</ele>
        <time>2026-09-01T06:21:02.000Z</time>
        <extensions>
          <ns3:TrackPointExtension>
            <ns3:hr>191</ns3:hr>
            <ns3:cad>84</ns3:cad>
          </ns3:TrackPointExtension>
        </extensions>
      </trkpt>
      <trkpt lat="47.57194885052740573883056640625" lon="11.02859102189540863037109375">
        <ele>875.79998779296875</ele>
        <time>2026-09-01T06:21:03.000Z</time>
        <extensions>
          <ns3:TrackPointExtension>
            <ns3:hr>190</ns3:hr>
            <ns3:cad>84</ns3:cad>
          </ns3:TrackPointExtension>
        </extensions>
      </trkpt>
      <trkpt lat="47.571933008730411529541015625" lon="11.0286216996610164642333984375">
        <ele>876</ele>
        <time>2026-09-01T06:21:04.000Z</time>
        <extensions>
          <ns3:TrackPointExtension>
            <ns3:hr>191</ns3:hr>
            <ns3:cad>84</ns3:cad>
          </ns3:TrackPointExtension>
        </extensions>
      </trkpt>
      <trkpt lat="47.57190811447799205780029296875" lon="11.02866335771977901458740234375">
        <ele>876.20001220703125</ele>
        <time>2026-09-01T06:21:05.000Z</time>
        <extensions>
          <ns3:TrackPointExtension>
            <ns3:hr>191</ns3:hr>
            <ns3:cad>84</ns3:cad>
          </ns3:TrackPointExtension>
        </extensions>
      </trkpt>
      <trkpt lat="47.57188850082457065582275390625" lon="11.02870208211243152618408203125">
        <ele>876.4000244140625</ele>
        <time>2026-09-01T06:21:06.000Z</time>
        <extensions>
          <ns3:TrackPointExtension>
            <ns3:hr>191</ns3:hr>
            <ns3:cad>85</ns3:cad>
          </ns3:TrackPointExtension>
        </extensions>
      </trkpt>
      <trkpt lat="47.57187106646597385406494140625" lon="11.0287306644022464752197265625">
        <ele>876.4000244140625</ele>
        <time>2026-09-01T06:21:07.000Z</time>
        <extensions>
          <ns3:TrackPointExtension>
            <ns3:hr>192</ns3:hr>
            <ns3:cad>84</ns3:cad>
          </ns3:TrackPointExtension>
        </extensions>
      </trkpt>
      <trkpt lat="47.5718490220606327056884765625" lon="11.02877416647970676422119140625">
        <ele>876.5999755859375</ele>
        <time>2026-09-01T06:21:08.000Z</time>
        <extensions>
          <ns3:TrackPointExtension>
            <ns3:hr>193</ns3:hr>
            <ns3:cad>84</ns3:cad>
          </ns3:TrackPointExtension>
        </extensions>
      </trkpt>
      <trkpt lat="47.5718346051871776580810546875" lon="11.028800569474697113037109375">
        <ele>876.5999755859375</ele>
        <time>2026-09-01T06:21:09.000Z</time>
        <extensions>
          <ns3:TrackPointExtension>
            <ns3:hr>196</ns3:hr>
            <ns3:cad>84</ns3:cad>
          </ns3:TrackPointExtension>
        </extensions>
      </trkpt>
      <trkpt lat="47.571808956563472747802734375" lon="11.02884440682828426361083984375">
        <ele>876.4000244140625</ele>
        <time>2026-09-01T06:21:10.000Z</time>
        <extensions>
          <ns3:TrackPointExtension>
            <ns3:hr>197</ns3:hr>
            <ns3:cad>83</ns3:cad>
          </ns3:TrackPointExtension>
        </extensions>
      </trkpt>
      <trkpt lat="47.571788169443607330322265625" lon="11.028876006603240966796875">
        <ele>876.4000244140625</ele>
        <time>2026-09-01T06:21:11.000Z</time>
        <extensions>
          <ns3:TrackPointExtension>
            <ns3:hr>198</ns3:hr>
            <ns3:cad>83</ns3:cad>
          </ns3:TrackPointExtension>
        </extensions>
      </trkpt>
      <trkpt lat="47.571765370666980743408203125" lon="11.0289150662720203399658203125">
        <ele>876.20001220703125</ele>
        <time>2026-09-01T06:21:12.000Z</time>
        <extensions>
          <ns3:TrackPointExtension>
            <ns3:hr>198</ns3:hr>
            <ns3:cad>83</ns3:cad>
          </ns3:TrackPointExtension>
        </extensions>
      </trkpt>
      <trkpt lat="47.57173444144427776336669921875" lon="11.02895990945398807525634765625">
        <ele>875.5999755859375</ele>
        <time>2026-09-01T06:21:13.000Z</time>
        <extensions>
          <ns3:TrackPointExtension>
            <ns3:hr>198</ns3:hr>
            <ns3:cad>83</ns3:cad>
          </ns3:TrackPointExtension>
        </extensions>
      </trkpt>
      <trkpt lat="47.5717065297067165374755859375" lon="11.02899511344730854034423828125">
        <ele>875.4000244140625</ele>
        <time>2026-09-01T06:21:14.000Z</time>
        <extensions>
          <ns3:TrackPointExtension>
            <ns3:hr>198</ns3:hr>
            <ns3:cad>85</ns3:cad>
          </ns3:TrackPointExtension>
        </extensions>
      </trkpt>
      <trkpt lat="47.57167057134211063385009765625" lon="11.02903802879154682159423828125">
        <ele>875.4000244140625</ele>
        <time>2026-09-01T06:21:15.000Z</time>
        <extensions>
          <ns3:TrackPointExtension>
            <ns3:hr>198</ns3:hr>
            <ns3:cad>85</ns3:cad>
          </ns3:TrackPointExtension>
        </extensions>
      </trkpt>
      <trkpt lat="47.57164425216615200042724609375" lon="11.02906552143394947052001953125">
        <ele>875.20001220703125</ele>
        <time>2026-09-01T06:21:16.000Z</time>
        <extensions>
          <ns3:TrackPointExtension>
            <ns3:hr>198</ns3:hr>
            <ns3:cad>85</ns3:cad>
          </ns3:TrackPointExtension>
        </extensions>
      </trkpt>
      <trkpt lat="47.57160343229770660400390625" lon="11.0291004739701747894287109375">
        <ele>874.5999755859375</ele>
        <time>2026-09-01T06:21:17.000Z</time>
        <extensions>
          <ns3:TrackPointExtension>
            <ns3:hr>197</ns3:hr>
            <ns3:cad>85</ns3:cad>
          </ns3:TrackPointExtension>
        </extensions>
      </trkpt>
      <trkpt lat="47.57157283835113048553466796875" lon="11.0291192494332790374755859375">
        <ele>874.4000244140625</ele>
        <time>2026-09-01T06:21:18.000Z</time>
        <extensions>
          <ns3:TrackPointExtension>
            <ns3:hr>198</ns3:hr>
            <ns3:cad>85</ns3:cad>
          </ns3:TrackPointExtension>
        </extensions>
      </trkpt>
      <trkpt lat="47.5715382210910320281982421875" lon="11.02914313785731792449951171875">
        <ele>874.5999755859375</ele>
        <time>2026-09-01T06:21:19.000Z</time>
        <extensions>
          <ns3:TrackPointExtension>
            <ns3:hr>198</ns3:hr>
            <ns3:cad>85</ns3:cad>
          </ns3:TrackPointExtension>
        </extensions>
      </trkpt>
      <trkpt lat="47.571499161422252655029296875" lon="11.0291628353297710418701171875">
        <ele>874.4000244140625</ele>
        <time>2026-09-01T06:21:20.000Z</time>
        <extensions>
          <ns3:TrackPointExtension>
            <ns3:hr>198</ns3:hr>
            <ns3:cad>86</ns3:cad>
          </ns3:TrackPointExtension>
        </extensions>
      </trkpt>
      <trkpt lat="47.571468316018581390380859375" lon="11.02917532436549663543701171875">
        <ele>874.4000244140625</ele>
        <time>2026-09-01T06:21:21.000Z</time>
        <extensions>
          <ns3:TrackPointExtension>
            <ns3:hr>198</ns3:hr>
            <ns3:cad>86</ns3:cad>
          </ns3:TrackPointExtension>
        </extensions>
      </trkpt>
      <trkpt lat="47.571422047913074493408203125" lon="11.029191501438617706298828125">
        <ele>874.20001220703125</ele>
        <time>2026-09-01T06:21:22.000Z</time>
        <extensions>
          <ns3:TrackPointExtension>
            <ns3:hr>198</ns3:hr>
            <ns3:cad>86</ns3:cad>
          </ns3:TrackPointExtension>
        </extensions>
      </trkpt>
      <trkpt lat="47.57138810120522975921630859375" lon="11.029202900826930999755859375">
        <ele>874.20001220703125</ele>
        <time>2026-09-01T06:21:23.000Z</time>
        <extensions>
          <ns3:TrackPointExtension>
            <ns3:hr>197</ns3:hr>
            <ns3:cad>86</ns3:cad>
          </ns3:TrackPointExtension>
        </extensions>
      </trkpt>
      <trkpt lat="47.57134862244129180908203125" lon="11.0292201675474643707275390625">
        <ele>874.20001220703125</ele>
        <time>2026-09-01T06:21:24.000Z</time>
        <extensions>
          <ns3:TrackPointExtension>
            <ns3:hr>197</ns3:hr>
            <ns3:cad>86</ns3:cad>
          </ns3:TrackPointExtension>
        </extensions>
      </trkpt>
      <trkpt lat="47.57132071070373058319091796875" lon="11.0292248614132404327392578125">
        <ele>874</ele>
        <time>2026-09-01T06:21:25.000Z</time>
        <extensions>
          <ns3:TrackPointExtension>
            <ns3:hr>197</ns3:hr>
            <ns3:cad>85</ns3:cad>
          </ns3:TrackPointExtension>
        </extensions>
      </trkpt>
      <trkpt lat="47.5712783820927143096923828125" lon="11.02924036793410778045654296875">
        <ele>874.20001220703125</ele>
        <time>2026-09-01T06:21:26.000Z</time>
        <extensions>
          <ns3:TrackPointExtension>
            <ns3:hr>197</ns3:hr>
            <ns3:cad>84</ns3:cad>
          </ns3:TrackPointExtension>
        </extensions>
      </trkpt>
      <trkpt lat="47.571237646043300628662109375" lon="11.029255874454975128173828125">
        <ele>874.4000244140625</ele>
        <time>2026-09-01T06:21:27.000Z</time>
        <extensions>
          <ns3:TrackPointExtension>
            <ns3:hr>197</ns3:hr>
            <ns3:cad>84</ns3:cad>
          </ns3:TrackPointExtension>
        </extensions>
      </trkpt>
      <trkpt lat="47.5712022744119167327880859375" lon="11.02926484309136867523193359375">
        <ele>874.4000244140625</ele>
        <time>2026-09-01T06:21:28.000Z</time>
        <extensions>
          <ns3:TrackPointExtension>
            <ns3:hr>196</ns3:hr>
            <ns3:cad>84</ns3:cad>
          </ns3:TrackPointExtension>
        </extensions>
      </trkpt>
      <trkpt lat="47.57115684449672698974609375" lon="11.02929015643894672393798828125">
        <ele>874.4000244140625</ele>
        <time>2026-09-01T06:21:29.000Z</time>
        <extensions>
          <ns3:TrackPointExtension>
            <ns3:hr>196</ns3:hr>
            <ns3:cad>84</ns3:cad>
          </ns3:TrackPointExtension>
        </extensions>
      </trkpt>
      <trkpt lat="47.571138404309749603271484375" lon="11.02929837070405483245849609375">
        <ele>874.5999755859375</ele>
        <time>2026-09-01T06:21:30.000Z</time>
        <extensions>
          <ns3:TrackPointExtension>
            <ns3:hr>196</ns3:hr>
            <ns3:cad>84</ns3:cad>
          </ns3:TrackPointExtension>
        </extensions>
      </trkpt>
      <trkpt lat="47.571095488965511322021484375" lon="11.02930826134979724884033203125">
        <ele>874.5999755859375</ele>
        <time>2026-09-01T06:21:31.000Z</time>
        <extensions>
          <ns3:TrackPointExtension>
            <ns3:hr>196</ns3:hr>
            <ns3:cad>86</ns3:cad>
          </ns3:TrackPointExtension>
        </extensions>
      </trkpt>
      <trkpt lat="47.57106338627636432647705078125" lon="11.02931731380522251129150390625">
        <ele>874.4000244140625</ele>
        <time>2026-09-01T06:21:32.000Z</time>
        <extensions>
          <ns3:TrackPointExtension>
            <ns3:hr>196</ns3:hr>
            <ns3:cad>86</ns3:cad>
          </ns3:TrackPointExtension>
        </extensions>
      </trkpt>
      <trkpt lat="47.57102784700691699981689453125" lon="11.02932904846966266632080078125">
        <ele>874.4000244140625</ele>
        <time>2026-09-01T06:21:33.000Z</time>
        <extensions>
          <ns3:TrackPointExtension>
            <ns3:hr>196</ns3:hr>
            <ns3:cad>85</ns3:cad>
          </ns3:TrackPointExtension>
        </extensions>
      </trkpt>
      <trkpt lat="47.5709887035191059112548828125" lon="11.0293452255427837371826171875">
        <ele>874.4000244140625</ele>
        <time>2026-09-01T06:21:34.000Z</time>
        <extensions>
          <ns3:TrackPointExtension>
            <ns3:hr>196</ns3:hr>
            <ns3:cad>85</ns3:cad>
          </ns3:TrackPointExtension>
        </extensions>
      </trkpt>
      <trkpt lat="47.570959366858005523681640625" lon="11.02935402654111385345458984375">
        <ele>874.5999755859375</ele>
        <time>2026-09-01T06:21:35.000Z</time>
        <extensions>
          <ns3:TrackPointExtension>
            <ns3:hr>195</ns3:hr>
            <ns3:cad>84</ns3:cad>
          </ns3:TrackPointExtension>
        </extensions>
      </trkpt>
      <trkpt lat="47.57092072628438472747802734375" lon="11.0293790884315967559814453125">
        <ele>874.4000244140625</ele>
        <time>2026-09-01T06:21:36.000Z</time>
        <extensions>
          <ns3:TrackPointExtension>
            <ns3:hr>195</ns3:hr>
            <ns3:cad>84</ns3:cad>
          </ns3:TrackPointExtension>
        </extensions>
      </trkpt>
      <trkpt lat="47.5708891265094280242919921875" lon="11.029385291039943695068359375">
        <ele>874.4000244140625</ele>
        <time>2026-09-01T06:21:37.000Z</time>
        <extensions>
          <ns3:TrackPointExtension>
            <ns3:hr>195</ns3:hr>
            <ns3:cad>84</ns3:cad>
          </ns3:TrackPointExtension>
        </extensions>
      </trkpt>
      <trkpt lat="47.5708544254302978515625" lon="11.02940834127366542816162109375">
        <ele>874.5999755859375</ele>
        <time>2026-09-01T06:21:38.000Z</time>
        <extensions>
          <ns3:TrackPointExtension>
            <ns3:hr>195</ns3:hr>
            <ns3:cad>84</ns3:cad>
          </ns3:TrackPointExtension>
        </extensions>
      </trkpt>
      <trkpt lat="47.57081259973347187042236328125" lon="11.02943080477416515350341796875">
        <ele>875</ele>
        <time>2026-09-01T06:21:39.000Z</time>
        <extensions>
          <ns3:TrackPointExtension>
            <ns3:hr>194</ns3:hr>
            <ns3:cad>84</ns3:cad>
          </ns3:TrackPointExtension>
        </extensions>
      </trkpt>
      <trkpt lat="47.57079072296619415283203125" lon="11.0294498316943645477294921875">
        <ele>874.79998779296875</ele>
        <time>2026-09-01T06:21:40.000Z</time>
        <extensions>
          <ns3:TrackPointExtension>
            <ns3:hr>194</ns3:hr>
            <ns3:cad>84</ns3:cad>
          </ns3:TrackPointExtension>
        </extensions>
      </trkpt>
      <trkpt lat="47.5707459636032581329345703125" lon="11.02948880754411220550537109375">
        <ele>874.79998779296875</ele>
        <time>2026-09-01T06:21:41.000Z</time>
        <extensions>
          <ns3:TrackPointExtension>
            <ns3:hr>194</ns3:hr>
            <ns3:cad>84</ns3:cad>
          </ns3:TrackPointExtension>
        </extensions>
      </trkpt>
      <trkpt lat="47.570719309151172637939453125" lon="11.029512025415897369384765625">
        <ele>875</ele>
        <time>2026-09-01T06:21:42.000Z</time>
        <extensions>
          <ns3:TrackPointExtension>
            <ns3:hr>194</ns3:hr>
            <ns3:cad>84</ns3:cad>
          </ns3:TrackPointExtension>
        </extensions>
      </trkpt>
      <trkpt lat="47.5706866197288036346435546875" lon="11.0295393504202365875244140625">
        <ele>875.20001220703125</ele>
        <time>2026-09-01T06:21:43.000Z</time>
        <extensions>
          <ns3:TrackPointExtension>
            <ns3:hr>194</ns3:hr>
            <ns3:cad>84</ns3:cad>
          </ns3:TrackPointExtension>
        </extensions>
      </trkpt>
      <trkpt lat="47.570650242269039154052734375" lon="11.0295715369284152984619140625">
        <ele>875.20001220703125</ele>
        <time>2026-09-01T06:21:44.000Z</time>
        <extensions>
          <ns3:TrackPointExtension>
            <ns3:hr>194</ns3:hr>
            <ns3:cad>84</ns3:cad>
          </ns3:TrackPointExtension>
        </extensions>
      </trkpt>
      <trkpt lat="47.57062149234116077423095703125" lon="11.02960162796080112457275390625">
        <ele>875.20001220703125</ele>
        <time>2026-09-01T06:21:45.000Z</time>
        <extensions>
          <ns3:TrackPointExtension>
            <ns3:hr>193</ns3:hr>
            <ns3:cad>84</ns3:cad>
          </ns3:TrackPointExtension>
        </extensions>
      </trkpt>
      <trkpt lat="47.57058762945234775543212890625" lon="11.02962995879352092742919921875">
        <ele>875.20001220703125</ele>
        <time>2026-09-01T06:21:46.000Z</time>
        <extensions>
          <ns3:TrackPointExtension>
            <ns3:hr>193</ns3:hr>
            <ns3:cad>84</ns3:cad>
          </ns3:TrackPointExtension>
        </extensions>
      </trkpt>
      <trkpt lat="47.57056734524667263031005859375" lon="11.029658876359462738037109375">
        <ele>875.4000244140625</ele>
        <time>2026-09-01T06:21:47.000Z</time>
        <extensions>
          <ns3:TrackPointExtension>
            <ns3:hr>193</ns3:hr>
            <ns3:cad>85</ns3:cad>
          </ns3:TrackPointExtension>
        </extensions>
      </trkpt>
      <trkpt lat="47.57053264416754245758056640625" lon="11.02969164960086345672607421875">
        <ele>875.20001220703125</ele>
        <time>2026-09-01T06:21:48.000Z</time>
        <extensions>
          <ns3:TrackPointExtension>
            <ns3:hr>193</ns3:hr>
            <ns3:cad>85</ns3:cad>
          </ns3:TrackPointExtension>
        </extensions>
      </trkpt>
      <trkpt lat="47.57050029002130031585693359375" lon="11.02973305620253086090087890625">
        <ele>875</ele>
        <time>2026-09-01T06:21:49.000Z</time>
        <extensions>
          <ns3:TrackPointExtension>
            <ns3:hr>193</ns3:hr>
            <ns3:cad>85</ns3:cad>
          </ns3:TrackPointExtension>
        </extensions>
      </trkpt>
      <trkpt lat="47.57047665305435657501220703125" lon="11.02976071648299694061279296875">
        <ele>875</ele>
        <time>2026-09-01T06:21:50.000Z</time>
        <extensions>
          <ns3:TrackPointExtension>
            <ns3:hr>193</ns3:hr>
            <ns3:cad>85</ns3:cad>
          </ns3:TrackPointExtension>
        </extensions>
      </trkpt>
      <trkpt lat="47.57045167498290538787841796875" lon="11.02980648167431354522705078125">
        <ele>875.20001220703125</ele>
        <time>2026-09-01T06:21:51.000Z</time>
        <extensions>
          <ns3:TrackPointExtension>
            <ns3:hr>193</ns3:hr>
            <ns3:cad>85</ns3:cad>
          </ns3:TrackPointExtension>
        </extensions>
      </trkpt>
      <trkpt lat="47.57042233832180500030517578125" lon="11.0298384167253971099853515625">
        <ele>875</ele>
        <time>2026-09-01T06:21:52.000Z</time>
        <extensions>
          <ns3:TrackPointExtension>
            <ns3:hr>192</ns3:hr>
            <ns3:cad>85</ns3:cad>
          </ns3:TrackPointExtension>
        </extensions>
      </trkpt>
      <trkpt lat="47.5703939236700534820556640625" lon="11.0298877023160457611083984375">
        <ele>875.20001220703125</ele>
        <time>2026-09-01T06:21:53.000Z</time>
        <extensions>
          <ns3:TrackPointExtension>
            <ns3:hr>192</ns3:hr>
            <ns3:cad>85</ns3:cad>
          </ns3:TrackPointExtension>
        </extensions>
      </trkpt>
      <trkpt lat="47.57037674076855182647705078125" lon="11.02992475032806396484375">
        <ele>875.4000244140625</ele>
        <time>2026-09-01T06:21:54.000Z</time>
        <extensions>
          <ns3:TrackPointExtension>
            <ns3:hr>192</ns3:hr>
            <ns3:cad>85</ns3:cad>
          </ns3:TrackPointExtension>
        </extensions>
      </trkpt>
      <trkpt lat="47.5703530199825763702392578125" lon="11.02996774949133396148681640625">
        <ele>875.4000244140625</ele>
        <time>2026-09-01T06:21:55.000Z</time>
        <extensions>
          <ns3:TrackPointExtension>
            <ns3:hr>192</ns3:hr>
            <ns3:cad>85</ns3:cad>
          </ns3:TrackPointExtension>
        </extensions>
      </trkpt>
      <trkpt lat="47.5703272037208080291748046875" lon="11.03000664152204990386962890625">
        <ele>875.5999755859375</ele>
        <time>2026-09-01T06:21:56.000Z</time>
        <extensions>
          <ns3:TrackPointExtension>
            <ns3:hr>192</ns3:hr>
            <ns3:cad>86</ns3:cad>
          </ns3:TrackPointExtension>
        </extensions>
      </trkpt>
      <trkpt lat="47.57030381821095943450927734375" lon="11.0300429351627826690673828125">
        <ele>875.5999755859375</ele>
        <time>2026-09-01T06:21:57.000Z</time>
        <extensions>
          <ns3:TrackPointExtension>
            <ns3:hr>191</ns3:hr>
            <ns3:cad>86</ns3:cad>
          </ns3:TrackPointExtension>
        </extensions>
      </trkpt>
      <trkpt lat="47.57027515210211277008056640625" lon="11.0300942324101924896240234375">
        <ele>875.5999755859375</ele>
        <time>2026-09-01T06:21:58.000Z</time>
        <extensions>
          <ns3:TrackPointExtension>
            <ns3:hr>192</ns3:hr>
            <ns3:cad>86</ns3:cad>
          </ns3:TrackPointExtension>
        </extensions>
      </trkpt>
      <trkpt lat="47.57025503553450107574462890625" lon="11.0301314480602741241455078125">
        <ele>875.4000244140625</ele>
        <time>2026-09-01T06:21:59.000Z</time>
        <extensions>
          <ns3:TrackPointExtension>
            <ns3:hr>192</ns3:hr>
            <ns3:cad>85</ns3:cad>
          </ns3:TrackPointExtension>
        </extensions>
      </trkpt>
      <trkpt lat="47.57023005746304988861083984375" lon="11.0301827453076839447021484375">
        <ele>875.20001220703125</ele>
        <time>2026-09-01T06:22:00.000Z</time>
        <extensions>
          <ns3:TrackPointExtension>
            <ns3:hr>191</ns3:hr>
            <ns3:cad>85</ns3:cad>
          </ns3:TrackPointExtension>
        </extensions>
      </trkpt>
      <trkpt lat="47.5702115334570407867431640625" lon="11.03022322990000247955322265625">
        <ele>875.20001220703125</ele>
        <time>2026-09-01T06:22:01.000Z</time>
        <extensions>
          <ns3:TrackPointExtension>
            <ns3:hr>192</ns3:hr>
            <ns3:cad>85</ns3:cad>
          </ns3:TrackPointExtension>
        </extensions>
      </trkpt>
      <trkpt lat="47.57019066251814365386962890625" lon="11.03026597760617733001708984375">
        <ele>875</ele>
        <time>2026-09-01T06:22:02.000Z</time>
        <extensions>
          <ns3:TrackPointExtension>
            <ns3:hr>192</ns3:hr>
            <ns3:cad>85</ns3:cad>
          </ns3:TrackPointExtension>
        </extensions>
      </trkpt>
      <trkpt lat="47.5701664388179779052734375" lon="11.03031526319682598114013671875">
        <ele>874.79998779296875</ele>
        <time>2026-09-01T06:22:03.000Z</time>
        <extensions>
          <ns3:TrackPointExtension>
            <ns3:hr>191</ns3:hr>
            <ns3:cad>85</ns3:cad>
          </ns3:TrackPointExtension>
        </extensions>
      </trkpt>
      <trkpt lat="47.5701463222503662109375" lon="11.03035323321819305419921875">
        <ele>874.79998779296875</ele>
        <time>2026-09-01T06:22:04.000Z</time>
        <extensions>
          <ns3:TrackPointExtension>
            <ns3:hr>191</ns3:hr>
            <ns3:cad>85</ns3:cad>
          </ns3:TrackPointExtension>
        </extensions>
      </trkpt>
      <trkpt lat="47.57012411020696163177490234375" lon="11.03040411137044429779052734375">
        <ele>874.5999755859375</ele>
        <time>2026-09-01T06:22:05.000Z</time>
        <extensions>
          <ns3:TrackPointExtension>
            <ns3:hr>191</ns3:hr>
            <ns3:cad>85</ns3:cad>
          </ns3:TrackPointExtension>
        </extensions>
      </trkpt>
      <trkpt lat="47.570108436048030853271484375" lon="11.03044266812503337860107421875">
        <ele>874.5999755859375</ele>
        <time>2026-09-01T06:22:06.000Z</time>
        <extensions>
          <ns3:TrackPointExtension>
            <ns3:hr>192</ns3:hr>
            <ns3:cad>85</ns3:cad>
          </ns3:TrackPointExtension>
        </extensions>
      </trkpt>
      <trkpt lat="47.57008555345237255096435546875" lon="11.030493713915348052978515625">
        <ele>874.4000244140625</ele>
        <time>2026-09-01T06:22:07.000Z</time>
        <extensions>
          <ns3:TrackPointExtension>
            <ns3:hr>191</ns3:hr>
            <ns3:cad>85</ns3:cad>
          </ns3:TrackPointExtension>
        </extensions>
      </trkpt>
      <trkpt lat="47.57006585597991943359375" lon="11.0305349528789520263671875">
        <ele>874.4000244140625</ele>
        <time>2026-09-01T06:22:08.000Z</time>
        <extensions>
          <ns3:TrackPointExtension>
            <ns3:hr>191</ns3:hr>
            <ns3:cad>85</ns3:cad>
          </ns3:TrackPointExtension>
        </extensions>
      </trkpt>
      <trkpt lat="47.57004867307841777801513671875" lon="11.03057744912803173065185546875">
        <ele>874.4000244140625</ele>
        <time>2026-09-01T06:22:09.000Z</time>
        <extensions>
          <ns3:TrackPointExtension>
            <ns3:hr>191</ns3:hr>
            <ns3:cad>85</ns3:cad>
          </ns3:TrackPointExtension>
        </extensions>
      </trkpt>
      <trkpt lat="47.57002738304436206817626953125" lon="11.03062841109931468963623046875">
        <ele>874.20001220703125</ele>
        <time>2026-09-01T06:22:10.000Z</time>
        <extensions>
          <ns3:TrackPointExtension>
            <ns3:hr>191</ns3:hr>
            <ns3:cad>85</ns3:cad>
          </ns3:TrackPointExtension>
        </extensions>
      </trkpt>
      <trkpt lat="47.570012547075748443603515625" lon="11.03066696785390377044677734375">
        <ele>874.20001220703125</ele>
        <time>2026-09-01T06:22:11.000Z</time>
        <extensions>
          <ns3:TrackPointExtension>
            <ns3:hr>191</ns3:hr>
            <ns3:cad>85</ns3:cad>
          </ns3:TrackPointExtension>
        </extensions>
      </trkpt>
      <trkpt lat="47.56998966448009014129638671875" lon="11.0307181812822818756103515625">
        <ele>874.20001220703125</ele>
        <time>2026-09-01T06:22:12.000Z</time>
        <extensions>
          <ns3:TrackPointExtension>
            <ns3:hr>191</ns3:hr>
            <ns3:cad>85</ns3:cad>
          </ns3:TrackPointExtension>
        </extensions>
      </trkpt>
      <trkpt lat="47.56997206248342990875244140625" lon="11.03075481019914150238037109375">
        <ele>874.20001220703125</ele>
        <time>2026-09-01T06:22:13.000Z</time>
        <extensions>
          <ns3:TrackPointExtension>
            <ns3:hr>191</ns3:hr>
            <ns3:cad>85</ns3:cad>
          </ns3:TrackPointExtension>
        </extensions>
      </trkpt>
      <trkpt lat="47.56994792260229587554931640625" lon="11.030803509056568145751953125">
        <ele>874.20001220703125</ele>
        <time>2026-09-01T06:22:14.000Z</time>
        <extensions>
          <ns3:TrackPointExtension>
            <ns3:hr>191</ns3:hr>
            <ns3:cad>85</ns3:cad>
          </ns3:TrackPointExtension>
        </extensions>
      </trkpt>
      <trkpt lat="47.56992830894887447357177734375" lon="11.03085623122751712799072265625">
        <ele>874.20001220703125</ele>
        <time>2026-09-01T06:22:15.000Z</time>
        <extensions>
          <ns3:TrackPointExtension>
            <ns3:hr>191</ns3:hr>
            <ns3:cad>85</ns3:cad>
          </ns3:TrackPointExtension>
        </extensions>
      </trkpt>
      <trkpt lat="47.5699116289615631103515625" lon="11.03089579381048679351806640625">
        <ele>874.20001220703125</ele>
        <time>2026-09-01T06:22:16.000Z</time>
        <extensions>
          <ns3:TrackPointExtension>
            <ns3:hr>191</ns3:hr>
            <ns3:cad>85</ns3:cad>
          </ns3:TrackPointExtension>
        </extensions>
      </trkpt>
      <trkpt lat="47.569888494908809661865234375" lon="11.0309491865336894989013671875">
        <ele>874.20001220703125</ele>
        <time>2026-09-01T06:22:17.000Z</time>
        <extensions>
          <ns3:TrackPointExtension>
            <ns3:hr>190</ns3:hr>
            <ns3:cad>85</ns3:cad>
          </ns3:TrackPointExtension>
        </extensions>
      </trkpt>
      <trkpt lat="47.56986980326473712921142578125" lon="11.03098950348794460296630859375">
        <ele>874.20001220703125</ele>
        <time>2026-09-01T06:22:18.000Z</time>
        <extensions>
          <ns3:TrackPointExtension>
            <ns3:hr>190</ns3:hr>
            <ns3:cad>84</ns3:cad>
          </ns3:TrackPointExtension>
        </extensions>
      </trkpt>
      <trkpt lat="47.56984599865972995758056640625" lon="11.0310460813343524932861328125">
        <ele>874.20001220703125</ele>
        <time>2026-09-01T06:22:19.000Z</time>
        <extensions>
          <ns3:TrackPointExtension>
            <ns3:hr>190</ns3:hr>
            <ns3:cad>84</ns3:cad>
          </ns3:TrackPointExtension>
        </extensions>
      </trkpt>
      <trkpt lat="47.56982638500630855560302734375" lon="11.03108958341181278228759765625">
        <ele>874.20001220703125</ele>
        <time>2026-09-01T06:22:20.000Z</time>
        <extensions>
          <ns3:TrackPointExtension>
            <ns3:hr>189</ns3:hr>
            <ns3:cad>84</ns3:cad>
          </ns3:TrackPointExtension>
        </extensions>
      </trkpt>
      <trkpt lat="47.569805346429347991943359375" lon="11.03113048709928989410400390625">
        <ele>874.20001220703125</ele>
        <time>2026-09-01T06:22:21.000Z</time>
        <extensions>
          <ns3:TrackPointExtension>
            <ns3:hr>189</ns3:hr>
            <ns3:cad>84</ns3:cad>
          </ns3:TrackPointExtension>
        </extensions>
      </trkpt>
      <trkpt lat="47.56978221237659454345703125" lon="11.03118161670863628387451171875">
        <ele>874</ele>
        <time>2026-09-01T06:22:22.000Z</time>
        <extensions>
          <ns3:TrackPointExtension>
            <ns3:hr>189</ns3:hr>
            <ns3:cad>85</ns3:cad>
          </ns3:TrackPointExtension>
        </extensions>
      </trkpt>
      <trkpt lat="47.56976653821766376495361328125" lon="11.0312180779874324798583984375">
        <ele>874</ele>
        <time>2026-09-01T06:22:23.000Z</time>
        <extensions>
          <ns3:TrackPointExtension>
            <ns3:hr>189</ns3:hr>
            <ns3:cad>85</ns3:cad>
          </ns3:TrackPointExtension>
        </extensions>
      </trkpt>
      <trkpt lat="47.56974239833652973175048828125" lon="11.0312673635780811309814453125">
        <ele>874</ele>
        <time>2026-09-01T06:22:24.000Z</time>
        <extensions>
          <ns3:TrackPointExtension>
            <ns3:hr>189</ns3:hr>
            <ns3:cad>85</ns3:cad>
          </ns3:TrackPointExtension>
        </extensions>
      </trkpt>
      <trkpt lat="47.56972412578761577606201171875" lon="11.03129963390529155731201171875">
        <ele>874.20001220703125</ele>
        <time>2026-09-01T06:22:25.000Z</time>
        <extensions>
          <ns3:TrackPointExtension>
            <ns3:hr>189</ns3:hr>
            <ns3:cad>85</ns3:cad>
          </ns3:TrackPointExtension>
        </extensions>
      </trkpt>
      <trkpt lat="47.56970300339162349700927734375" lon="11.0313371010124683380126953125">
        <ele>874.20001220703125</ele>
        <time>2026-09-01T06:22:26.000Z</time>
        <extensions>
          <ns3:TrackPointExtension>
            <ns3:hr>189</ns3:hr>
            <ns3:cad>85</ns3:cad>
          </ns3:TrackPointExtension>
        </extensions>
      </trkpt>
      <trkpt lat="47.5696828030049800872802734375" lon="11.03137641213834285736083984375">
        <ele>874</ele>
        <time>2026-09-01T06:22:27.000Z</time>
        <extensions>
          <ns3:TrackPointExtension>
            <ns3:hr>189</ns3:hr>
            <ns3:cad>85</ns3:cad>
          </ns3:TrackPointExtension>
        </extensions>
      </trkpt>
      <trkpt lat="47.56966796703636646270751953125" lon="11.03141161613166332244873046875">
        <ele>874</ele>
        <time>2026-09-01T06:22:28.000Z</time>
        <extensions>
          <ns3:TrackPointExtension>
            <ns3:hr>189</ns3:hr>
            <ns3:cad>85</ns3:cad>
          </ns3:TrackPointExtension>
        </extensions>
      </trkpt>
      <trkpt lat="47.5696429051458835601806640625" lon="11.0314581356942653656005859375">
        <ele>874.20001220703125</ele>
        <time>2026-09-01T06:22:29.000Z</time>
        <extensions>
          <ns3:TrackPointExtension>
            <ns3:hr>189</ns3:hr>
            <ns3:cad>85</ns3:cad>
          </ns3:TrackPointExtension>
        </extensions>
      </trkpt>
      <trkpt lat="47.569621615111827850341796875" lon="11.03149577043950557708740234375">
        <ele>874.20001220703125</ele>
        <time>2026-09-01T06:22:30.000Z</time>
        <extensions>
          <ns3:TrackPointExtension>
            <ns3:hr>189</ns3:hr>
            <ns3:cad>85</ns3:cad>
          </ns3:TrackPointExtension>
        </extensions>
      </trkpt>
      <trkpt lat="47.56960057653486728668212890625" lon="11.03153072297573089599609375">
        <ele>874.20001220703125</ele>
        <time>2026-09-01T06:22:31.000Z</time>
        <extensions>
          <ns3:TrackPointExtension>
            <ns3:hr>189</ns3:hr>
            <ns3:cad>85</ns3:cad>
          </ns3:TrackPointExtension>
        </extensions>
      </trkpt>
      <trkpt lat="47.56957459263503551483154296875" lon="11.03156953118741512298583984375">
        <ele>874.4000244140625</ele>
        <time>2026-09-01T06:22:32.000Z</time>
        <extensions>
          <ns3:TrackPointExtension>
            <ns3:hr>189</ns3:hr>
            <ns3:cad>85</ns3:cad>
          </ns3:TrackPointExtension>
        </extensions>
      </trkpt>
      <trkpt lat="47.56955548189580440521240234375" lon="11.03160138241946697235107421875">
        <ele>874.4000244140625</ele>
        <time>2026-09-01T06:22:33.000Z</time>
        <extensions>
          <ns3:TrackPointExtension>
            <ns3:hr>189</ns3:hr>
            <ns3:cad>84</ns3:cad>
          </ns3:TrackPointExtension>
        </extensions>
      </trkpt>
      <trkpt lat="47.56952279247343540191650390625" lon="11.0316442139446735382080078125">
        <ele>874.5999755859375</ele>
        <time>2026-09-01T06:22:34.000Z</time>
        <extensions>
          <ns3:TrackPointExtension>
            <ns3:hr>189</ns3:hr>
            <ns3:cad>84</ns3:cad>
          </ns3:TrackPointExtension>
        </extensions>
      </trkpt>
      <trkpt lat="47.5695014186203479766845703125" lon="11.0316790826618671417236328125">
        <ele>874.5999755859375</ele>
        <time>2026-09-01T06:22:35.000Z</time>
        <extensions>
          <ns3:TrackPointExtension>
            <ns3:hr>188</ns3:hr>
            <ns3:cad>84</ns3:cad>
          </ns3:TrackPointExtension>
        </extensions>
      </trkpt>
      <trkpt lat="47.56947333924472332000732421875" lon="11.03172459639608860015869140625">
        <ele>874.5999755859375</ele>
        <time>2026-09-01T06:22:36.000Z</time>
        <extensions>
          <ns3:TrackPointExtension>
            <ns3:hr>188</ns3:hr>
            <ns3:cad>84</ns3:cad>
          </ns3:TrackPointExtension>
        </extensions>
      </trkpt>
      <trkpt lat="47.56944534368813037872314453125" lon="11.031769104301929473876953125">
        <ele>874.5999755859375</ele>
        <time>2026-09-01T06:22:37.000Z</time>
        <extensions>
          <ns3:TrackPointExtension>
            <ns3:hr>188</ns3:hr>
            <ns3:cad>84</ns3:cad>
          </ns3:TrackPointExtension>
        </extensions>
      </trkpt>
      <trkpt lat="47.569419108331203460693359375" lon="11.0318034701049327850341796875">
        <ele>874.79998779296875</ele>
        <time>2026-09-01T06:22:38.000Z</time>
        <extensions>
          <ns3:TrackPointExtension>
            <ns3:hr>188</ns3:hr>
            <ns3:cad>84</ns3:cad>
          </ns3:TrackPointExtension>
        </extensions>
      </trkpt>
      <trkpt lat="47.56939086131751537322998046875" lon="11.031847558915615081787109375">
        <ele>874.79998779296875</ele>
        <time>2026-09-01T06:22:39.000Z</time>
        <extensions>
          <ns3:TrackPointExtension>
            <ns3:hr>187</ns3:hr>
            <ns3:cad>84</ns3:cad>
          </ns3:TrackPointExtension>
        </extensions>
      </trkpt>
      <trkpt lat="47.569365799427032470703125" lon="11.031881086528301239013671875">
        <ele>874.79998779296875</ele>
        <time>2026-09-01T06:22:40.000Z</time>
        <extensions>
          <ns3:TrackPointExtension>
            <ns3:hr>188</ns3:hr>
            <ns3:cad>85</ns3:cad>
          </ns3:TrackPointExtension>
        </extensions>
      </trkpt>
      <trkpt lat="47.5693334452807903289794921875" lon="11.031927354633808135986328125">
        <ele>875</ele>
        <time>2026-09-01T06:22:41.000Z</time>
        <extensions>
          <ns3:TrackPointExtension>
            <ns3:hr>188</ns3:hr>
            <ns3:cad>85</ns3:cad>
          </ns3:TrackPointExtension>
        </extensions>
      </trkpt>
      <trkpt lat="47.569309808313846588134765625" lon="11.03196532465517520904541015625">
        <ele>875</ele>
        <time>2026-09-01T06:22:42.000Z</time>
        <extensions>
          <ns3:TrackPointExtension>
            <ns3:hr>187</ns3:hr>
            <ns3:cad>85</ns3:cad>
          </ns3:TrackPointExtension>
        </extensions>
      </trkpt>
      <trkpt lat="47.56928466260433197021484375" lon="11.0320101678371429443359375">
        <ele>874.79998779296875</ele>
        <time>2026-09-01T06:22:43.000Z</time>
        <extensions>
          <ns3:TrackPointExtension>
            <ns3:hr>188</ns3:hr>
            <ns3:cad>85</ns3:cad>
          </ns3:TrackPointExtension>
        </extensions>
      </trkpt>
      <trkpt lat="47.56925490684807300567626953125" lon="11.03205886669456958770751953125">
        <ele>874.79998779296875</ele>
        <time>2026-09-01T06:22:44.000Z</time>
        <extensions>
          <ns3:TrackPointExtension>
            <ns3:hr>187</ns3:hr>
            <ns3:cad>85</ns3:cad>
          </ns3:TrackPointExtension>
        </extensions>
      </trkpt>
      <trkpt lat="47.56922624073922634124755859375" lon="11.03208887390792369842529296875">
        <ele>874.5999755859375</ele>
        <time>2026-09-01T06:22:45.000Z</time>
        <extensions>
          <ns3:TrackPointExtension>
            <ns3:hr>187</ns3:hr>
            <ns3:cad>85</ns3:cad>
          </ns3:TrackPointExtension>
        </extensions>
      </trkpt>
      <trkpt lat="47.56919078528881072998046875" lon="11.03212743066251277923583984375">
        <ele>874.4000244140625</ele>
        <time>2026-09-01T06:22:46.000Z</time>
        <extensions>
          <ns3:TrackPointExtension>
            <ns3:hr>188</ns3:hr>
            <ns3:cad>85</ns3:cad>
          </ns3:TrackPointExtension>
        </extensions>
      </trkpt>
      <trkpt lat="47.56917058490216732025146484375" lon="11.0321605391800403594970703125">
        <ele>874.20001220703125</ele>
        <time>2026-09-01T06:22:47.000Z</time>
        <extensions>
          <ns3:TrackPointExtension>
            <ns3:hr>188</ns3:hr>
            <ns3:cad>85</ns3:cad>
          </ns3:TrackPointExtension>
        </extensions>
      </trkpt>
      <trkpt lat="47.56913655437529087066650390625" lon="11.032197587192058563232421875">
        <ele>874.20001220703125</ele>
        <time>2026-09-01T06:22:48.000Z</time>
        <extensions>
          <ns3:TrackPointExtension>
            <ns3:hr>189</ns3:hr>
            <ns3:cad>85</ns3:cad>
          </ns3:TrackPointExtension>
        </extensions>
      </trkpt>
      <trkpt lat="47.5691111572086811065673828125" lon="11.03223103098571300506591796875">
        <ele>874</ele>
        <time>2026-09-01T06:22:49.000Z</time>
        <extensions>
          <ns3:TrackPointExtension>
            <ns3:hr>189</ns3:hr>
            <ns3:cad>85</ns3:cad>
          </ns3:TrackPointExtension>
        </extensions>
      </trkpt>
      <trkpt lat="47.5690850056707859039306640625" lon="11.03226254694163799285888671875">
        <ele>874.20001220703125</ele>
        <time>2026-09-01T06:22:50.000Z</time>
        <extensions>
          <ns3:TrackPointExtension>
            <ns3:hr>189</ns3:hr>
            <ns3:cad>85</ns3:cad>
          </ns3:TrackPointExtension>
        </extensions>
      </trkpt>
      <trkpt lat="47.56905734539031982421875" lon="11.03229741565883159637451171875">
        <ele>874</ele>
        <time>2026-09-01T06:22:51.000Z</time>
        <extensions>
          <ns3:TrackPointExtension>
            <ns3:hr>189</ns3:hr>
            <ns3:cad>85</ns3:cad>
          </ns3:TrackPointExtension>
        </extensions>
      </trkpt>
      <trkpt lat="47.5690373964607715606689453125" lon="11.032327674329280853271484375">
        <ele>874.20001220703125</ele>
        <time>2026-09-01T06:22:52.000Z</time>
        <extensions>
          <ns3:TrackPointExtension>
            <ns3:hr>190</ns3:hr>
            <ns3:cad>85</ns3:cad>
          </ns3:TrackPointExtension>
        </extensions>
      </trkpt>
      <trkpt lat="47.569007389247417449951171875" lon="11.03236799128353595733642578125">
        <ele>874.20001220703125</ele>
        <time>2026-09-01T06:22:53.000Z</time>
        <extensions>
          <ns3:TrackPointExtension>
            <ns3:hr>190</ns3:hr>
            <ns3:cad>85</ns3:cad>
          </ns3:TrackPointExtension>
        </extensions>
      </trkpt>
      <trkpt lat="47.56898568011820316314697265625" lon="11.03240051306784152984619140625">
        <ele>874.4000244140625</ele>
        <time>2026-09-01T06:22:54.000Z</time>
        <extensions>
          <ns3:TrackPointExtension>
            <ns3:hr>190</ns3:hr>
            <ns3:cad>84</ns3:cad>
          </ns3:TrackPointExtension>
        </extensions>
      </trkpt>
      <trkpt lat="47.56896288134157657623291015625" lon="11.03242867626249790191650390625">
        <ele>874.4000244140625</ele>
        <time>2026-09-01T06:22:55.000Z</time>
        <extensions>
          <ns3:TrackPointExtension>
            <ns3:hr>190</ns3:hr>
            <ns3:cad>84</ns3:cad>
          </ns3:TrackPointExtension>
        </extensions>
      </trkpt>
      <trkpt lat="47.56893790327012538909912109375" lon="11.03246547281742095947265625">
        <ele>874.4000244140625</ele>
        <time>2026-09-01T06:22:56.000Z</time>
        <extensions>
          <ns3:TrackPointExtension>
            <ns3:hr>190</ns3:hr>
            <ns3:cad>84</ns3:cad>
          </ns3:TrackPointExtension>
        </extensions>
      </trkpt>
      <trkpt lat="47.56890890188515186309814453125" lon="11.032493971288204193115234375">
        <ele>874.5999755859375</ele>
        <time>2026-09-01T06:22:57.000Z</time>
        <extensions>
          <ns3:TrackPointExtension>
            <ns3:hr>190</ns3:hr>
            <ns3:cad>84</ns3:cad>
          </ns3:TrackPointExtension>
        </extensions>
      </trkpt>
      <trkpt lat="47.568875961005687713623046875" lon="11.032529175281524658203125">
        <ele>874.5999755859375</ele>
        <time>2026-09-01T06:22:58.000Z</time>
        <extensions>
          <ns3:TrackPointExtension>
            <ns3:hr>190</ns3:hr>
            <ns3:cad>84</ns3:cad>
          </ns3:TrackPointExtension>
        </extensions>
      </trkpt>
      <trkpt lat="47.56884570233523845672607421875" lon="11.0325585119426250457763671875">
        <ele>874.5999755859375</ele>
        <time>2026-09-01T06:22:59.000Z</time>
        <extensions>
          <ns3:TrackPointExtension>
            <ns3:hr>190</ns3:hr>
            <ns3:cad>84</ns3:cad>
          </ns3:TrackPointExtension>
        </extensions>
      </trkpt>
      <trkpt lat="47.568820975720882415771484375" lon="11.032592542469501495361328125">
        <ele>874.5999755859375</ele>
        <time>2026-09-01T06:23:00.000Z</time>
        <extensions>
          <ns3:TrackPointExtension>
            <ns3:hr>190</ns3:hr>
            <ns3:cad>84</ns3:cad>
          </ns3:TrackPointExtension>
        </extensions>
      </trkpt>
      <trkpt lat="47.56879054941236972808837890625" lon="11.03263671509921550750732421875">
        <ele>874.79998779296875</ele>
        <time>2026-09-01T06:23:01.000Z</time>
        <extensions>
          <ns3:TrackPointExtension>
            <ns3:hr>190</ns3:hr>
            <ns3:cad>84</ns3:cad>
          </ns3:TrackPointExtension>
        </extensions>
      </trkpt>
      <trkpt lat="47.5687721930444240570068359375" lon="11.03266605176031589508056640625">
        <ele>874.79998779296875</ele>
        <time>2026-09-01T06:23:02.000Z</time>
        <extensions>
          <ns3:TrackPointExtension>
            <ns3:hr>190</ns3:hr>
            <ns3:cad>84</ns3:cad>
          </ns3:TrackPointExtension>
        </extensions>
      </trkpt>
      <trkpt lat="47.5687426887452602386474609375" lon="11.0327075421810150146484375">
        <ele>874.79998779296875</ele>
        <time>2026-09-01T06:23:03.000Z</time>
        <extensions>
          <ns3:TrackPointExtension>
            <ns3:hr>190</ns3:hr>
            <ns3:cad>84</ns3:cad>
          </ns3:TrackPointExtension>
        </extensions>
      </trkpt>
      <trkpt lat="47.56871729157865047454833984375" lon="11.03274400345981121063232421875">
        <ele>874.79998779296875</ele>
        <time>2026-09-01T06:23:04.000Z</time>
        <extensions>
          <ns3:TrackPointExtension>
            <ns3:hr>190</ns3:hr>
            <ns3:cad>83</ns3:cad>
          </ns3:TrackPointExtension>
        </extensions>
      </trkpt>
      <trkpt lat="47.56869348697364330291748046875" lon="11.03277987800538539886474609375">
        <ele>874.79998779296875</ele>
        <time>2026-09-01T06:23:05.000Z</time>
        <extensions>
          <ns3:TrackPointExtension>
            <ns3:hr>190</ns3:hr>
            <ns3:cad>83</ns3:cad>
          </ns3:TrackPointExtension>
        </extensions>
      </trkpt>
      <trkpt lat="47.56866834126412868499755859375" lon="11.03283226490020751953125">
        <ele>874.79998779296875</ele>
        <time>2026-09-01T06:23:06.000Z</time>
        <extensions>
          <ns3:TrackPointExtension>
            <ns3:hr>190</ns3:hr>
            <ns3:cad>83</ns3:cad>
          </ns3:TrackPointExtension>
        </extensions>
      </trkpt>
      <trkpt lat="47.5686521641910076141357421875" lon="11.03286671452224254608154296875">
        <ele>874.79998779296875</ele>
        <time>2026-09-01T06:23:07.000Z</time>
        <extensions>
          <ns3:TrackPointExtension>
            <ns3:hr>190</ns3:hr>
            <ns3:cad>83</ns3:cad>
          </ns3:TrackPointExtension>
        </extensions>
      </trkpt>
      <trkpt lat="47.56862710230052471160888671875" lon="11.03291667066514492034912109375">
        <ele>874.79998779296875</ele>
        <time>2026-09-01T06:23:08.000Z</time>
        <extensions>
          <ns3:TrackPointExtension>
            <ns3:hr>191</ns3:hr>
            <ns3:cad>84</ns3:cad>
          </ns3:TrackPointExtension>
        </extensions>
      </trkpt>
      <trkpt lat="47.568608410656452178955078125" lon="11.0329568199813365936279296875">
        <ele>874.79998779296875</ele>
        <time>2026-09-01T06:23:09.000Z</time>
        <extensions>
          <ns3:TrackPointExtension>
            <ns3:hr>191</ns3:hr>
            <ns3:cad>84</ns3:cad>
          </ns3:TrackPointExtension>
        </extensions>
      </trkpt>
      <trkpt lat="47.56859122775495052337646484375" lon="11.03299981914460659027099609375">
        <ele>875</ele>
        <time>2026-09-01T06:23:10.000Z</time>
        <extensions>
          <ns3:TrackPointExtension>
            <ns3:hr>191</ns3:hr>
            <ns3:cad>84</ns3:cad>
          </ns3:TrackPointExtension>
        </extensions>
      </trkpt>
      <trkpt lat="47.56856289692223072052001953125" lon="11.03305631317198276519775390625">
        <ele>874.79998779296875</ele>
        <time>2026-09-01T06:23:11.000Z</time>
        <extensions>
          <ns3:TrackPointExtension>
            <ns3:hr>191</ns3:hr>
            <ns3:cad>83</ns3:cad>
          </ns3:TrackPointExtension>
        </extensions>
      </trkpt>
      <trkpt lat="47.5685488991439342498779296875" lon="11.03309134952723979949951171875">
        <ele>875</ele>
        <time>2026-09-01T06:23:12.000Z</time>
        <extensions>
          <ns3:TrackPointExtension>
            <ns3:hr>191</ns3:hr>
            <ns3:cad>83</ns3:cad>
          </ns3:TrackPointExtension>
        </extensions>
      </trkpt>
      <trkpt lat="47.5685267709195613861083984375" lon="11.03314130567014217376708984375">
        <ele>875</ele>
        <time>2026-09-01T06:23:13.000Z</time>
        <extensions>
          <ns3:TrackPointExtension>
            <ns3:hr>191</ns3:hr>
            <ns3:cad>83</ns3:cad>
          </ns3:TrackPointExtension>
        </extensions>
      </trkpt>
      <trkpt lat="47.56851009093225002288818359375" lon="11.0331777669489383697509765625">
        <ele>875</ele>
        <time>2026-09-01T06:23:14.000Z</time>
        <extensions>
          <ns3:TrackPointExtension>
            <ns3:hr>191</ns3:hr>
            <ns3:cad>85</ns3:cad>
          </ns3:TrackPointExtension>
        </extensions>
      </trkpt>
      <trkpt lat="47.56849047727882862091064453125" lon="11.03321322239935398101806640625">
        <ele>875.20001220703125</ele>
        <time>2026-09-01T06:23:15.000Z</time>
        <extensions>
          <ns3:TrackPointExtension>
            <ns3:hr>191</ns3:hr>
            <ns3:cad>85</ns3:cad>
          </ns3:TrackPointExtension>
        </extensions>
      </trkpt>
      <trkpt lat="47.56846700794994831085205078125" lon="11.0332520306110382080078125">
        <ele>875.20001220703125</ele>
        <time>2026-09-01T06:23:16.000Z</time>
        <extensions>
          <ns3:TrackPointExtension>
            <ns3:hr>191</ns3:hr>
            <ns3:cad>84</ns3:cad>
          </ns3:TrackPointExtension>
        </extensions>
      </trkpt>
      <trkpt lat="47.56844923831522464752197265625" lon="11.03328614495694637298583984375">
        <ele>875.4000244140625</ele>
        <time>2026-09-01T06:23:17.000Z</time>
        <extensions>
          <ns3:TrackPointExtension>
            <ns3:hr>191</ns3:hr>
            <ns3:cad>83</ns3:cad>
          </ns3:TrackPointExtension>
        </extensions>
      </trkpt>
      <trkpt lat="47.56842392496764659881591796875" lon="11.03333492763340473175048828125">
        <ele>875.4000244140625</ele>
        <time>2026-09-01T06:23:18.000Z</time>
        <extensions>
          <ns3:TrackPointExtension>
            <ns3:hr>191</ns3:hr>
            <ns3:cad>83</ns3:cad>
          </ns3:TrackPointExtension>
        </extensions>
      </trkpt>
      <trkpt lat="47.5684037245810031890869140625" lon="11.033369041979312896728515625">
        <ele>875.5999755859375</ele>
        <time>2026-09-01T06:23:19.000Z</time>
        <extensions>
          <ns3:TrackPointExtension>
            <ns3:hr>191</ns3:hr>
            <ns3:cad>84</ns3:cad>
          </ns3:TrackPointExtension>
        </extensions>
      </trkpt>
      <trkpt lat="47.56838285364210605621337890625" lon="11.0334107838571071624755859375">
        <ele>875.5999755859375</ele>
        <time>2026-09-01T06:23:20.000Z</time>
        <extensions>
          <ns3:TrackPointExtension>
            <ns3:hr>191</ns3:hr>
            <ns3:cad>84</ns3:cad>
          </ns3:TrackPointExtension>
        </extensions>
      </trkpt>
      <trkpt lat="47.56836474873125553131103515625" lon="11.0334573872387409210205078125">
        <ele>875.5999755859375</ele>
        <time>2026-09-01T06:23:21.000Z</time>
        <extensions>
          <ns3:TrackPointExtension>
            <ns3:hr>191</ns3:hr>
            <ns3:cad>84</ns3:cad>
          </ns3:TrackPointExtension>
        </extensions>
      </trkpt>
      <trkpt lat="47.56834832020103931427001953125" lon="11.03349653072655200958251953125">
        <ele>875.5999755859375</ele>
        <time>2026-09-01T06:23:22.000Z</time>
        <extensions>
          <ns3:TrackPointExtension>
            <ns3:hr>191</ns3:hr>
            <ns3:cad>84</ns3:cad>
          </ns3:TrackPointExtension>
        </extensions>
      </trkpt>
      <trkpt lat="47.5683302991092205047607421875" lon="11.03355034254491329193115234375">
        <ele>875.5999755859375</ele>
        <time>2026-09-01T06:23:23.000Z</time>
        <extensions>
          <ns3:TrackPointExtension>
            <ns3:hr>191</ns3:hr>
            <ns3:cad>84</ns3:cad>
          </ns3:TrackPointExtension>
        </extensions>
      </trkpt>
      <trkpt lat="47.56830959580838680267333984375" lon="11.03358336724340915679931640625">
        <ele>875.5999755859375</ele>
        <time>2026-09-01T06:23:24.000Z</time>
        <extensions>
          <ns3:TrackPointExtension>
            <ns3:hr>191</ns3:hr>
            <ns3:cad>84</ns3:cad>
          </ns3:TrackPointExtension>
        </extensions>
      </trkpt>
      <trkpt lat="47.56828553974628448486328125" lon="11.03362577967345714569091796875">
        <ele>875.79998779296875</ele>
        <time>2026-09-01T06:23:25.000Z</time>
        <extensions>
          <ns3:TrackPointExtension>
            <ns3:hr>192</ns3:hr>
            <ns3:cad>84</ns3:cad>
          </ns3:TrackPointExtension>
        </extensions>
      </trkpt>
      <trkpt lat="47.5682669319212436676025390625" lon="11.03365813381969928741455078125">
        <ele>875.79998779296875</ele>
        <time>2026-09-01T06:23:26.000Z</time>
        <extensions>
          <ns3:TrackPointExtension>
            <ns3:hr>192</ns3:hr>
            <ns3:cad>84</ns3:cad>
          </ns3:TrackPointExtension>
        </extensions>
      </trkpt>
      <trkpt lat="47.5682431273162364959716796875" lon="11.03368964977562427520751953125">
        <ele>876</ele>
        <time>2026-09-01T06:23:27.000Z</time>
        <extensions>
          <ns3:TrackPointExtension>
            <ns3:hr>192</ns3:hr>
            <ns3:cad>85</ns3:cad>
          </ns3:TrackPointExtension>
        </extensions>
      </trkpt>
      <trkpt lat="47.5682166405022144317626953125" lon="11.03373172692954540252685546875">
        <ele>876.20001220703125</ele>
        <time>2026-09-01T06:23:28.000Z</time>
        <extensions>
          <ns3:TrackPointExtension>
            <ns3:hr>191</ns3:hr>
            <ns3:cad>86</ns3:cad>
          </ns3:TrackPointExtension>
        </extensions>
      </trkpt>
      <trkpt lat="47.568198032677173614501953125" lon="11.03376860730350017547607421875">
        <ele>876.5999755859375</ele>
        <time>2026-09-01T06:23:29.000Z</time>
        <extensions>
          <ns3:TrackPointExtension>
            <ns3:hr>192</ns3:hr>
            <ns3:cad>87</ns3:cad>
          </ns3:TrackPointExtension>
        </extensions>
      </trkpt>
      <trkpt lat="47.5681743957102298736572265625" lon="11.03382040746510028839111328125">
        <ele>876.79998779296875</ele>
        <time>2026-09-01T06:23:30.000Z</time>
        <extensions>
          <ns3:TrackPointExtension>
            <ns3:hr>192</ns3:hr>
            <ns3:cad>87</ns3:cad>
          </ns3:TrackPointExtension>
        </extensions>
      </trkpt>
      <trkpt lat="47.56815503351390361785888671875" lon="11.03385091759264469146728515625">
        <ele>877.20001220703125</ele>
        <time>2026-09-01T06:23:31.000Z</time>
        <extensions>
          <ns3:TrackPointExtension>
            <ns3:hr>191</ns3:hr>
            <ns3:cad>85</ns3:cad>
          </ns3:TrackPointExtension>
        </extensions>
      </trkpt>
      <trkpt lat="47.5681308098137378692626953125" lon="11.03389668278396129608154296875">
        <ele>877.20001220703125</ele>
        <time>2026-09-01T06:23:32.000Z</time>
        <extensions>
          <ns3:TrackPointExtension>
            <ns3:hr>192</ns3:hr>
            <ns3:cad>85</ns3:cad>
          </ns3:TrackPointExtension>
        </extensions>
      </trkpt>
      <trkpt lat="47.5681083463132381439208984375" lon="11.03393272496759891510009765625">
        <ele>877.20001220703125</ele>
        <time>2026-09-01T06:23:33.000Z</time>
        <extensions>
          <ns3:TrackPointExtension>
            <ns3:hr>192</ns3:hr>
            <ns3:cad>85</ns3:cad>
          </ns3:TrackPointExtension>
        </extensions>
      </trkpt>
      <trkpt lat="47.5680895708501338958740234375" lon="11.0339626483619213104248046875">
        <ele>877.5999755859375</ele>
        <time>2026-09-01T06:23:34.000Z</time>
        <extensions>
          <ns3:TrackPointExtension>
            <ns3:hr>191</ns3:hr>
            <ns3:cad>85</ns3:cad>
          </ns3:TrackPointExtension>
        </extensions>
      </trkpt>
      <trkpt lat="47.56806735880672931671142578125" lon="11.03400506079196929931640625">
        <ele>878</ele>
        <time>2026-09-01T06:23:35.000Z</time>
        <extensions>
          <ns3:TrackPointExtension>
            <ns3:hr>192</ns3:hr>
            <ns3:cad>84</ns3:cad>
          </ns3:TrackPointExtension>
        </extensions>
      </trkpt>
      <trkpt lat="47.56805646233260631561279296875" lon="11.03403230197727680206298828125">
        <ele>878</ele>
        <time>2026-09-01T06:23:36.000Z</time>
        <extensions>
          <ns3:TrackPointExtension>
            <ns3:hr>192</ns3:hr>
            <ns3:cad>84</ns3:cad>
          </ns3:TrackPointExtension>
        </extensions>
      </trkpt>
      <trkpt lat="47.56804020144045352935791015625" lon="11.0340756364166736602783203125">
        <ele>878</ele>
        <time>2026-09-01T06:23:37.000Z</time>
        <extensions>
          <ns3:TrackPointExtension>
            <ns3:hr>191</ns3:hr>
            <ns3:cad>85</ns3:cad>
          </ns3:TrackPointExtension>
        </extensions>
      </trkpt>
      <trkpt lat="47.5680258683860301971435546875" lon="11.03409885428845882415771484375">
        <ele>878.4000244140625</ele>
        <time>2026-09-01T06:23:38.000Z</time>
        <extensions>
          <ns3:TrackPointExtension>
            <ns3:hr>192</ns3:hr>
            <ns3:cad>85</ns3:cad>
          </ns3:TrackPointExtension>
        </extensions>
      </trkpt>
      <trkpt lat="47.5680107809603214263916015625" lon="11.03412869386374950408935546875">
        <ele>878.5999755859375</ele>
        <time>2026-09-01T06:23:39.000Z</time>
        <extensions>
          <ns3:TrackPointExtension>
            <ns3:hr>192</ns3:hr>
            <ns3:cad>84</ns3:cad>
          </ns3:TrackPointExtension>
        </extensions>
      </trkpt>
      <trkpt lat="47.5679911673069000244140625" lon="11.03417244739830493927001953125">
        <ele>879</ele>
        <time>2026-09-01T06:23:40.000Z</time>
        <extensions>
          <ns3:TrackPointExtension>
            <ns3:hr>192</ns3:hr>
            <ns3:cad>84</ns3:cad>
          </ns3:TrackPointExtension>
        </extensions>
      </trkpt>
      <trkpt lat="47.567978091537952423095703125" lon="11.03420061059296131134033203125">
        <ele>879</ele>
        <time>2026-09-01T06:23:41.000Z</time>
        <extensions>
          <ns3:TrackPointExtension>
            <ns3:hr>191</ns3:hr>
            <ns3:cad>84</ns3:cad>
          </ns3:TrackPointExtension>
        </extensions>
      </trkpt>
      <trkpt lat="47.56795671768486499786376953125" lon="11.034240424633026123046875">
        <ele>879.20001220703125</ele>
        <time>2026-09-01T06:23:42.000Z</time>
        <extensions>
          <ns3:TrackPointExtension>
            <ns3:hr>192</ns3:hr>
            <ns3:cad>84</ns3:cad>
          </ns3:TrackPointExtension>
        </extensions>
      </trkpt>
      <trkpt lat="47.56794221699237823486328125" lon="11.0342680849134922027587890625">
        <ele>879.5999755859375</ele>
        <time>2026-09-01T06:23:43.000Z</time>
        <extensions>
          <ns3:TrackPointExtension>
            <ns3:hr>192</ns3:hr>
            <ns3:cad>84</ns3:cad>
          </ns3:TrackPointExtension>
        </extensions>
      </trkpt>
      <trkpt lat="47.56792553700506687164306640625" lon="11.034299768507480621337890625">
        <ele>879.79998779296875</ele>
        <time>2026-09-01T06:23:44.000Z</time>
        <extensions>
          <ns3:TrackPointExtension>
            <ns3:hr>192</ns3:hr>
            <ns3:cad>84</ns3:cad>
          </ns3:TrackPointExtension>
        </extensions>
      </trkpt>
      <trkpt lat="47.56790609098970890045166015625" lon="11.03434310294687747955322265625">
        <ele>880</ele>
        <time>2026-09-01T06:23:45.000Z</time>
        <extensions>
          <ns3:TrackPointExtension>
            <ns3:hr>192</ns3:hr>
            <ns3:cad>84</ns3:cad>
          </ns3:TrackPointExtension>
        </extensions>
      </trkpt>
      <trkpt lat="47.56789066828787326812744140625" lon="11.034375540912151336669921875">
        <ele>880.4000244140625</ele>
        <time>2026-09-01T06:23:46.000Z</time>
        <extensions>
          <ns3:TrackPointExtension>
            <ns3:hr>191</ns3:hr>
            <ns3:cad>85</ns3:cad>
          </ns3:TrackPointExtension>
        </extensions>
      </trkpt>
      <trkpt lat="47.56787004880607128143310546875" lon="11.0344186238944530487060546875">
        <ele>880.79998779296875</ele>
        <time>2026-09-01T06:23:47.000Z</time>
        <extensions>
          <ns3:TrackPointExtension>
            <ns3:hr>192</ns3:hr>
            <ns3:cad>85</ns3:cad>
          </ns3:TrackPointExtension>
        </extensions>
      </trkpt>
      <trkpt lat="47.567853033542633056640625" lon="11.03444318287074565887451171875">
        <ele>881</ele>
        <time>2026-09-01T06:23:48.000Z</time>
        <extensions>
          <ns3:TrackPointExtension>
            <ns3:hr>192</ns3:hr>
            <ns3:cad>85</ns3:cad>
          </ns3:TrackPointExtension>
        </extensions>
      </trkpt>
      <trkpt lat="47.5678317435085773468017578125" lon="11.03448517620563507080078125">
        <ele>881.20001220703125</ele>
        <time>2026-09-01T06:23:49.000Z</time>
        <extensions>
          <ns3:TrackPointExtension>
            <ns3:hr>192</ns3:hr>
            <ns3:cad>85</ns3:cad>
          </ns3:TrackPointExtension>
        </extensions>
      </trkpt>
      <trkpt lat="47.56781338714063167572021484375" lon="11.0345212183892726898193359375">
        <ele>881.4000244140625</ele>
        <time>2026-09-01T06:23:50.000Z</time>
        <extensions>
          <ns3:TrackPointExtension>
            <ns3:hr>192</ns3:hr>
            <ns3:cad>85</ns3:cad>
          </ns3:TrackPointExtension>
        </extensions>
      </trkpt>
      <trkpt lat="47.5677982158958911895751953125" lon="11.034555919468402862548828125">
        <ele>881.5999755859375</ele>
        <time>2026-09-01T06:23:51.000Z</time>
        <extensions>
          <ns3:TrackPointExtension>
            <ns3:hr>192</ns3:hr>
            <ns3:cad>84</ns3:cad>
          </ns3:TrackPointExtension>
        </extensions>
      </trkpt>
      <trkpt lat="47.567776255309581756591796875" lon="11.03459908626973628997802734375">
        <ele>881.5999755859375</ele>
        <time>2026-09-01T06:23:52.000Z</time>
        <extensions>
          <ns3:TrackPointExtension>
            <ns3:hr>192</ns3:hr>
            <ns3:cad>84</ns3:cad>
          </ns3:TrackPointExtension>
        </extensions>
      </trkpt>
      <trkpt lat="47.56776728667318820953369140625" lon="11.0346199572086334228515625">
        <ele>881.5999755859375</ele>
        <time>2026-09-01T06:23:53.000Z</time>
        <extensions>
          <ns3:TrackPointExtension>
            <ns3:hr>192</ns3:hr>
            <ns3:cad>84</ns3:cad>
          </ns3:TrackPointExtension>
        </extensions>
      </trkpt>
      <trkpt lat="47.5677499361336231231689453125" lon="11.03465792723000049591064453125">
        <ele>881.79998779296875</ele>
        <time>2026-09-01T06:23:54.000Z</time>
        <extensions>
          <ns3:TrackPointExtension>
            <ns3:hr>192</ns3:hr>
            <ns3:cad>84</ns3:cad>
          </ns3:TrackPointExtension>
        </extensions>
      </trkpt>
      <trkpt lat="47.5677405484020709991455078125" lon="11.03468659333884716033935546875">
        <ele>882</ele>
        <time>2026-09-01T06:23:55.000Z</time>
        <extensions>
          <ns3:TrackPointExtension>
            <ns3:hr>192</ns3:hr>
            <ns3:cad>84</ns3:cad>
          </ns3:TrackPointExtension>
        </extensions>
      </trkpt>
      <trkpt lat="47.5677227787673473358154296875" lon="11.03471710346639156341552734375">
        <ele>882.20001220703125</ele>
        <time>2026-09-01T06:23:56.000Z</time>
        <extensions>
          <ns3:TrackPointExtension>
            <ns3:hr>192</ns3:hr>
            <ns3:cad>84</ns3:cad>
          </ns3:TrackPointExtension>
        </extensions>
      </trkpt>
      <trkpt lat="47.5677076913416385650634765625" lon="11.03475146926939487457275390625">
        <ele>882.4000244140625</ele>
        <time>2026-09-01T06:23:57.000Z</time>
        <extensions>
          <ns3:TrackPointExtension>
            <ns3:hr>192</ns3:hr>
            <ns3:cad>84</ns3:cad>
          </ns3:TrackPointExtension>
        </extensions>
      </trkpt>
      <trkpt lat="47.567687071859836578369140625" lon="11.034775860607624053955078125">
        <ele>882.5999755859375</ele>
        <time>2026-09-01T06:23:58.000Z</time>
        <extensions>
          <ns3:TrackPointExtension>
            <ns3:hr>192</ns3:hr>
            <ns3:cad>84</ns3:cad>
          </ns3:TrackPointExtension>
        </extensions>
      </trkpt>
      <trkpt lat="47.5676644407212734222412109375" lon="11.0348122380673885345458984375">
        <ele>883</ele>
        <time>2026-09-01T06:23:59.000Z</time>
        <extensions>
          <ns3:TrackPointExtension>
            <ns3:hr>192</ns3:hr>
            <ns3:cad>84</ns3:cad>
          </ns3:TrackPointExtension>
        </extensions>
      </trkpt>
      <trkpt lat="47.567652203142642974853515625" lon="11.03483512066304683685302734375">
        <ele>883.4000244140625</ele>
        <time>2026-09-01T06:24:00.000Z</time>
        <extensions>
          <ns3:TrackPointExtension>
            <ns3:hr>191</ns3:hr>
            <ns3:cad>83</ns3:cad>
          </ns3:TrackPointExtension>
        </extensions>
      </trkpt>
      <trkpt lat="47.567630074918270111083984375" lon="11.03486328385770320892333984375">
        <ele>883.4000244140625</ele>
        <time>2026-09-01T06:24:01.000Z</time>
        <extensions>
          <ns3:TrackPointExtension>
            <ns3:hr>192</ns3:hr>
            <ns3:cad>83</ns3:cad>
          </ns3:TrackPointExtension>
        </extensions>
      </trkpt>
      <trkpt lat="47.5676064379513263702392578125" lon="11.0348962247371673583984375">
        <ele>883.79998779296875</ele>
        <time>2026-09-01T06:24:02.000Z</time>
        <extensions>
          <ns3:TrackPointExtension>
            <ns3:hr>192</ns3:hr>
            <ns3:cad>84</ns3:cad>
          </ns3:TrackPointExtension>
        </extensions>
      </trkpt>
      <trkpt lat="47.56758556701242923736572265625" lon="11.034910976886749267578125">
        <ele>884</ele>
        <time>2026-09-01T06:24:03.000Z</time>
        <extensions>
          <ns3:TrackPointExtension>
            <ns3:hr>191</ns3:hr>
            <ns3:cad>84</ns3:cad>
          </ns3:TrackPointExtension>
        </extensions>
      </trkpt>
      <trkpt lat="47.56755874492228031158447265625" lon="11.034932434558868408203125">
        <ele>884</ele>
        <time>2026-09-01T06:24:04.000Z</time>
        <extensions>
          <ns3:TrackPointExtension>
            <ns3:hr>192</ns3:hr>
            <ns3:cad>84</ns3:cad>
          </ns3:TrackPointExtension>
        </extensions>
      </trkpt>
      <trkpt lat="47.56753385066986083984375" lon="11.03494743816554546356201171875">
        <ele>884.20001220703125</ele>
        <time>2026-09-01T06:24:05.000Z</time>
        <extensions>
          <ns3:TrackPointExtension>
            <ns3:hr>192</ns3:hr>
            <ns3:cad>84</ns3:cad>
          </ns3:TrackPointExtension>
        </extensions>
      </trkpt>
      <trkpt lat="47.5675139017403125762939453125" lon="11.03495833463966846466064453125">
        <ele>884.4000244140625</ele>
        <time>2026-09-01T06:24:06.000Z</time>
        <extensions>
          <ns3:TrackPointExtension>
            <ns3:hr>192</ns3:hr>
            <ns3:cad>84</ns3:cad>
          </ns3:TrackPointExtension>
        </extensions>
      </trkpt>
      <trkpt lat="47.56748196668922901153564453125" lon="11.03496956638991832733154296875">
        <ele>884.5999755859375</ele>
        <time>2026-09-01T06:24:07.000Z</time>
        <extensions>
          <ns3:TrackPointExtension>
            <ns3:hr>192</ns3:hr>
            <ns3:cad>84</ns3:cad>
          </ns3:TrackPointExtension>
        </extensions>
      </trkpt>
      <trkpt lat="47.56745263002812862396240234375" lon="11.03497761301696300506591796875">
        <ele>884.5999755859375</ele>
        <time>2026-09-01T06:24:08.000Z</time>
        <extensions>
          <ns3:TrackPointExtension>
            <ns3:hr>193</ns3:hr>
            <ns3:cad>84</ns3:cad>
          </ns3:TrackPointExtension>
        </extensions>
      </trkpt>
      <trkpt lat="47.56741960532963275909423828125" lon="11.03498197160661220550537109375">
        <ele>884.79998779296875</ele>
        <time>2026-09-01T06:24:09.000Z</time>
        <extensions>
          <ns3:TrackPointExtension>
            <ns3:hr>193</ns3:hr>
            <ns3:cad>83</ns3:cad>
          </ns3:TrackPointExtension>
        </extensions>
      </trkpt>
      <trkpt lat="47.5673942081630229949951171875" lon="11.0349895991384983062744140625">
        <ele>885.20001220703125</ele>
        <time>2026-09-01T06:24:10.000Z</time>
        <extensions>
          <ns3:TrackPointExtension>
            <ns3:hr>193</ns3:hr>
            <ns3:cad>83</ns3:cad>
          </ns3:TrackPointExtension>
        </extensions>
      </trkpt>
      <trkpt lat="47.56736160255968570709228515625" lon="11.03499605320394039154052734375">
        <ele>885.5999755859375</ele>
        <time>2026-09-01T06:24:11.000Z</time>
        <extensions>
          <ns3:TrackPointExtension>
            <ns3:hr>193</ns3:hr>
            <ns3:cad>83</ns3:cad>
          </ns3:TrackPointExtension>
        </extensions>
      </trkpt>
      <trkpt lat="47.567336373031139373779296875" lon="11.03500418365001678466796875">
        <ele>885.79998779296875</ele>
        <time>2026-09-01T06:24:12.000Z</time>
        <extensions>
          <ns3:TrackPointExtension>
            <ns3:hr>194</ns3:hr>
            <ns3:cad>84</ns3:cad>
          </ns3:TrackPointExtension>
        </extensions>
      </trkpt>
      <trkpt lat="47.56731533445417881011962890625" lon="11.03501482866704463958740234375">
        <ele>886</ele>
        <time>2026-09-01T06:24:13.000Z</time>
        <extensions>
          <ns3:TrackPointExtension>
            <ns3:hr>193</ns3:hr>
            <ns3:cad>85</ns3:cad>
          </ns3:TrackPointExtension>
        </extensions>
      </trkpt>
      <trkpt lat="47.567288763821125030517578125" lon="11.03502237237989902496337890625">
        <ele>886.20001220703125</ele>
        <time>2026-09-01T06:24:14.000Z</time>
        <extensions>
          <ns3:TrackPointExtension>
            <ns3:hr>193</ns3:hr>
            <ns3:cad>84</ns3:cad>
          </ns3:TrackPointExtension>
        </extensions>
      </trkpt>
      <trkpt lat="47.56726202555000782012939453125" lon="11.03503460995852947235107421875">
        <ele>886.4000244140625</ele>
        <time>2026-09-01T06:24:15.000Z</time>
        <extensions>
          <ns3:TrackPointExtension>
            <ns3:hr>193</ns3:hr>
            <ns3:cad>84</ns3:cad>
          </ns3:TrackPointExtension>
        </extensions>
      </trkpt>
      <trkpt lat="47.56723436526954174041748046875" lon="11.035050787031650543212890625">
        <ele>886.5999755859375</ele>
        <time>2026-09-01T06:24:16.000Z</time>
        <extensions>
          <ns3:TrackPointExtension>
            <ns3:hr>194</ns3:hr>
            <ns3:cad>84</ns3:cad>
          </ns3:TrackPointExtension>
        </extensions>
      </trkpt>
      <trkpt lat="47.5671987421810626983642578125" lon="11.0350693948566913604736328125">
        <ele>887</ele>
        <time>2026-09-01T06:24:17.000Z</time>
        <extensions>
          <ns3:TrackPointExtension>
            <ns3:hr>193</ns3:hr>
            <ns3:cad>84</ns3:cad>
          </ns3:TrackPointExtension>
        </extensions>
      </trkpt>
      <trkpt lat="47.56717233918607234954833984375" lon="11.03508221916854381561279296875">
        <ele>887.20001220703125</ele>
        <time>2026-09-01T06:24:18.000Z</time>
        <extensions>
          <ns3:TrackPointExtension>
            <ns3:hr>193</ns3:hr>
            <ns3:cad>84</ns3:cad>
          </ns3:TrackPointExtension>
        </extensions>
      </trkpt>
      <trkpt lat="47.56714534945785999298095703125" lon="11.03510367684066295623779296875">
        <ele>887.4000244140625</ele>
        <time>2026-09-01T06:24:19.000Z</time>
        <extensions>
          <ns3:TrackPointExtension>
            <ns3:hr>193</ns3:hr>
            <ns3:cad>84</ns3:cad>
          </ns3:TrackPointExtension>
        </extensions>
      </trkpt>
      <trkpt lat="47.5671229697763919830322265625" lon="11.03511750698089599609375">
        <ele>887.5999755859375</ele>
        <time>2026-09-01T06:24:20.000Z</time>
        <extensions>
          <ns3:TrackPointExtension>
            <ns3:hr>193</ns3:hr>
            <ns3:cad>84</ns3:cad>
          </ns3:TrackPointExtension>
        </extensions>
      </trkpt>
      <trkpt lat="47.56710025481879711151123046875" lon="11.03513292968273162841796875">
        <ele>887.5999755859375</ele>
        <time>2026-09-01T06:24:21.000Z</time>
        <extensions>
          <ns3:TrackPointExtension>
            <ns3:hr>193</ns3:hr>
            <ns3:cad>84</ns3:cad>
          </ns3:TrackPointExtension>
        </extensions>
      </trkpt>
      <trkpt lat="47.5670726783573627471923828125" lon="11.03514173068106174468994140625">
        <ele>888</ele>
        <time>2026-09-01T06:24:22.000Z</time>
        <extensions>
          <ns3:TrackPointExtension>
            <ns3:hr>193</ns3:hr>
            <ns3:cad>85</ns3:cad>
          </ns3:TrackPointExtension>
        </extensions>
      </trkpt>
      <trkpt lat="47.56704770028591156005859375" lon="11.03515380062162876129150390625">
        <ele>888.4000244140625</ele>
        <time>2026-09-01T06:24:23.000Z</time>
        <extensions>
          <ns3:TrackPointExtension>
            <ns3:hr>193</ns3:hr>
            <ns3:cad>85</ns3:cad>
          </ns3:TrackPointExtension>
        </extensions>
      </trkpt>
      <trkpt lat="47.56701660342514514923095703125" lon="11.0351626016199588775634765625">
        <ele>888.79998779296875</ele>
        <time>2026-09-01T06:24:24.000Z</time>
        <extensions>
          <ns3:TrackPointExtension>
            <ns3:hr>193</ns3:hr>
            <ns3:cad>85</ns3:cad>
          </ns3:TrackPointExtension>
        </extensions>
      </trkpt>
      <trkpt lat="47.56698693148791790008544921875" lon="11.0351683013141155242919921875">
        <ele>889</ele>
        <time>2026-09-01T06:24:25.000Z</time>
        <extensions>
          <ns3:TrackPointExtension>
            <ns3:hr>193</ns3:hr>
            <ns3:cad>85</ns3:cad>
          </ns3:TrackPointExtension>
        </extensions>
      </trkpt>
      <trkpt lat="47.56696228869259357452392578125" lon="11.03517048060894012451171875">
        <ele>889.20001220703125</ele>
        <time>2026-09-01T06:24:26.000Z</time>
        <extensions>
          <ns3:TrackPointExtension>
            <ns3:hr>193</ns3:hr>
            <ns3:cad>84</ns3:cad>
          </ns3:TrackPointExtension>
        </extensions>
      </trkpt>
      <trkpt lat="47.5669370591640472412109375" lon="11.035178191959857940673828125">
        <ele>889.5999755859375</ele>
        <time>2026-09-01T06:24:27.000Z</time>
        <extensions>
          <ns3:TrackPointExtension>
            <ns3:hr>193</ns3:hr>
            <ns3:cad>84</ns3:cad>
          </ns3:TrackPointExtension>
        </extensions>
      </trkpt>
      <trkpt lat="47.56690847687423229217529296875" lon="11.03518682532012462615966796875">
        <ele>889.79998779296875</ele>
        <time>2026-09-01T06:24:28.000Z</time>
        <extensions>
          <ns3:TrackPointExtension>
            <ns3:hr>193</ns3:hr>
            <ns3:cad>83</ns3:cad>
          </ns3:TrackPointExtension>
        </extensions>
      </trkpt>
      <trkpt lat="47.56687830202281475067138671875" lon="11.0351967997848987579345703125">
        <ele>890</ele>
        <time>2026-09-01T06:24:29.000Z</time>
        <extensions>
          <ns3:TrackPointExtension>
            <ns3:hr>194</ns3:hr>
            <ns3:cad>83</ns3:cad>
          </ns3:TrackPointExtension>
        </extensions>
      </trkpt>
      <trkpt lat="47.56685533560812473297119140625" lon="11.0352031700313091278076171875">
        <ele>890.20001220703125</ele>
        <time>2026-09-01T06:24:30.000Z</time>
        <extensions>
          <ns3:TrackPointExtension>
            <ns3:hr>193</ns3:hr>
            <ns3:cad>84</ns3:cad>
          </ns3:TrackPointExtension>
        </extensions>
      </trkpt>
      <trkpt lat="47.56682432256639003753662109375" lon="11.03521733544766902923583984375">
        <ele>890.4000244140625</ele>
        <time>2026-09-01T06:24:31.000Z</time>
        <extensions>
          <ns3:TrackPointExtension>
            <ns3:hr>193</ns3:hr>
            <ns3:cad>84</ns3:cad>
          </ns3:TrackPointExtension>
        </extensions>
      </trkpt>
      <trkpt lat="47.56679247133433818817138671875" lon="11.03522823192179203033447265625">
        <ele>890.5999755859375</ele>
        <time>2026-09-01T06:24:32.000Z</time>
        <extensions>
          <ns3:TrackPointExtension>
            <ns3:hr>194</ns3:hr>
            <ns3:cad>84</ns3:cad>
          </ns3:TrackPointExtension>
        </extensions>
      </trkpt>
      <trkpt lat="47.5667635537683963775634765625" lon="11.03524021804332733154296875">
        <ele>890.79998779296875</ele>
        <time>2026-09-01T06:24:33.000Z</time>
        <extensions>
          <ns3:TrackPointExtension>
            <ns3:hr>194</ns3:hr>
            <ns3:cad>84</ns3:cad>
          </ns3:TrackPointExtension>
        </extensions>
      </trkpt>
      <trkpt lat="47.56673212163150310516357421875" lon="11.03525689803063869476318359375">
        <ele>891</ele>
        <time>2026-09-01T06:24:34.000Z</time>
        <extensions>
          <ns3:TrackPointExtension>
            <ns3:hr>193</ns3:hr>
            <ns3:cad>83</ns3:cad>
          </ns3:TrackPointExtension>
        </extensions>
      </trkpt>
      <trkpt lat="47.566711418330669403076171875" lon="11.035270728170871734619140625">
        <ele>891.20001220703125</ele>
        <time>2026-09-01T06:24:35.000Z</time>
        <extensions>
          <ns3:TrackPointExtension>
            <ns3:hr>193</ns3:hr>
            <ns3:cad>83</ns3:cad>
          </ns3:TrackPointExtension>
        </extensions>
      </trkpt>
      <trkpt lat="47.5666817463934421539306640625" lon="11.0352772660553455352783203125">
        <ele>891.4000244140625</ele>
        <time>2026-09-01T06:24:36.000Z</time>
        <extensions>
          <ns3:TrackPointExtension>
            <ns3:hr>193</ns3:hr>
            <ns3:cad>83</ns3:cad>
          </ns3:TrackPointExtension>
        </extensions>
      </trkpt>
      <trkpt lat="47.5666549243032932281494140625" lon="11.03528623469173908233642578125">
        <ele>891.5999755859375</ele>
        <time>2026-09-01T06:24:37.000Z</time>
        <extensions>
          <ns3:TrackPointExtension>
            <ns3:hr>194</ns3:hr>
            <ns3:cad>83</ns3:cad>
          </ns3:TrackPointExtension>
        </extensions>
      </trkpt>
      <trkpt lat="47.56663254462182521820068359375" lon="11.03529922664165496826171875">
        <ele>891.79998779296875</ele>
        <time>2026-09-01T06:24:38.000Z</time>
        <extensions>
          <ns3:TrackPointExtension>
            <ns3:hr>193</ns3:hr>
            <ns3:cad>83</ns3:cad>
          </ns3:TrackPointExtension>
        </extensions>
      </trkpt>
      <trkpt lat="47.56661142222583293914794921875" lon="11.03531607426702976226806640625">
        <ele>892</ele>
        <time>2026-09-01T06:24:39.000Z</time>
        <extensions>
          <ns3:TrackPointExtension>
            <ns3:hr>193</ns3:hr>
            <ns3:cad>84</ns3:cad>
          </ns3:TrackPointExtension>
        </extensions>
      </trkpt>
      <trkpt lat="47.5665918923914432525634765625" lon="11.03532345034182071685791015625">
        <ele>892.20001220703125</ele>
        <time>2026-09-01T06:24:40.000Z</time>
        <extensions>
          <ns3:TrackPointExtension>
            <ns3:hr>193</ns3:hr>
            <ns3:cad>84</ns3:cad>
          </ns3:TrackPointExtension>
        </extensions>
      </trkpt>
      <trkpt lat="47.56657135672867298126220703125" lon="11.03533568792045116424560546875">
        <ele>892.4000244140625</ele>
        <time>2026-09-01T06:24:41.000Z</time>
        <extensions>
          <ns3:TrackPointExtension>
            <ns3:hr>193</ns3:hr>
            <ns3:cad>83</ns3:cad>
          </ns3:TrackPointExtension>
        </extensions>
      </trkpt>
      <trkpt lat="47.56654872559010982513427734375" lon="11.035345830023288726806640625">
        <ele>892.5999755859375</ele>
        <time>2026-09-01T06:24:42.000Z</time>
        <extensions>
          <ns3:TrackPointExtension>
            <ns3:hr>193</ns3:hr>
            <ns3:cad>83</ns3:cad>
          </ns3:TrackPointExtension>
        </extensions>
      </trkpt>
      <trkpt lat="47.56652726791799068450927734375" lon="11.0353543795645236968994140625">
        <ele>892.5999755859375</ele>
        <time>2026-09-01T06:24:43.000Z</time>
        <extensions>
          <ns3:TrackPointExtension>
            <ns3:hr>193</ns3:hr>
            <ns3:cad>83</ns3:cad>
          </ns3:TrackPointExtension>
        </extensions>
      </trkpt>
      <trkpt lat="47.56650312803685665130615234375" lon="11.03536896407604217529296875">
        <ele>892.79998779296875</ele>
        <time>2026-09-01T06:24:44.000Z</time>
        <extensions>
          <ns3:TrackPointExtension>
            <ns3:hr>193</ns3:hr>
            <ns3:cad>83</ns3:cad>
          </ns3:TrackPointExtension>
        </extensions>
      </trkpt>
      <trkpt lat="47.56648452021181583404541015625" lon="11.035379357635974884033203125">
        <ele>893</ele>
        <time>2026-09-01T06:24:45.000Z</time>
        <extensions>
          <ns3:TrackPointExtension>
            <ns3:hr>193</ns3:hr>
            <ns3:cad>83</ns3:cad>
          </ns3:TrackPointExtension>
        </extensions>
      </trkpt>
      <trkpt lat="47.56645652465522289276123046875" lon="11.03539578616619110107421875">
        <ele>893.20001220703125</ele>
        <time>2026-09-01T06:24:46.000Z</time>
        <extensions>
          <ns3:TrackPointExtension>
            <ns3:hr>193</ns3:hr>
            <ns3:cad>83</ns3:cad>
          </ns3:TrackPointExtension>
        </extensions>
      </trkpt>
      <trkpt lat="47.56642919965088367462158203125" lon="11.0354140587151050567626953125">
        <ele>893.4000244140625</ele>
        <time>2026-09-01T06:24:47.000Z</time>
        <extensions>
          <ns3:TrackPointExtension>
            <ns3:hr>193</ns3:hr>
            <ns3:cad>84</ns3:cad>
          </ns3:TrackPointExtension>
        </extensions>
      </trkpt>
      <trkpt lat="47.5663987733423709869384765625" lon="11.03542939759790897369384765625">
        <ele>893.4000244140625</ele>
        <time>2026-09-01T06:24:48.000Z</time>
        <extensions>
          <ns3:TrackPointExtension>
            <ns3:hr>193</ns3:hr>
            <ns3:cad>84</ns3:cad>
          </ns3:TrackPointExtension>
        </extensions>
      </trkpt>
      <trkpt lat="47.56637102924287319183349609375" lon="11.03544901125133037567138671875">
        <ele>893.4000244140625</ele>
        <time>2026-09-01T06:24:49.000Z</time>
        <extensions>
          <ns3:TrackPointExtension>
            <ns3:hr>193</ns3:hr>
            <ns3:cad>84</ns3:cad>
          </ns3:TrackPointExtension>
        </extensions>
      </trkpt>
      <trkpt lat="47.56635166704654693603515625" lon="11.03546309284865856170654296875">
        <ele>893.4000244140625</ele>
        <time>2026-09-01T06:24:50.000Z</time>
        <extensions>
          <ns3:TrackPointExtension>
            <ns3:hr>193</ns3:hr>
            <ns3:cad>84</ns3:cad>
          </ns3:TrackPointExtension>
        </extensions>
      </trkpt>
      <trkpt lat="47.5663223303854465484619140625" lon="11.03548270650207996368408203125">
        <ele>893.5999755859375</ele>
        <time>2026-09-01T06:24:51.000Z</time>
        <extensions>
          <ns3:TrackPointExtension>
            <ns3:hr>192</ns3:hr>
            <ns3:cad>84</ns3:cad>
          </ns3:TrackPointExtension>
        </extensions>
      </trkpt>
      <trkpt lat="47.5662941671907901763916015625" lon="11.0354965366423130035400390625">
        <ele>894</ele>
        <time>2026-09-01T06:24:52.000Z</time>
        <extensions>
          <ns3:TrackPointExtension>
            <ns3:hr>192</ns3:hr>
            <ns3:cad>84</ns3:cad>
          </ns3:TrackPointExtension>
        </extensions>
      </trkpt>
      <trkpt lat="47.56626659072935581207275390625" lon="11.0355122946202754974365234375">
        <ele>894.20001220703125</ele>
        <time>2026-09-01T06:24:53.000Z</time>
        <extensions>
          <ns3:TrackPointExtension>
            <ns3:hr>192</ns3:hr>
            <ns3:cad>84</ns3:cad>
          </ns3:TrackPointExtension>
        </extensions>
      </trkpt>
      <trkpt lat="47.5662442110478878021240234375" lon="11.035524867475032806396484375">
        <ele>894.20001220703125</ele>
        <time>2026-09-01T06:24:54.000Z</time>
        <extensions>
          <ns3:TrackPointExtension>
            <ns3:hr>192</ns3:hr>
            <ns3:cad>84</ns3:cad>
          </ns3:TrackPointExtension>
        </extensions>
      </trkpt>
      <trkpt lat="47.5662200711667537689208984375" lon="11.03554121218621730804443359375">
        <ele>894.4000244140625</ele>
        <time>2026-09-01T06:24:55.000Z</time>
        <extensions>
          <ns3:TrackPointExtension>
            <ns3:hr>192</ns3:hr>
            <ns3:cad>84</ns3:cad>
          </ns3:TrackPointExtension>
        </extensions>
      </trkpt>
      <trkpt lat="47.56619567982852458953857421875" lon="11.035558395087718963623046875">
        <ele>894.5999755859375</ele>
        <time>2026-09-01T06:24:56.000Z</time>
        <extensions>
          <ns3:TrackPointExtension>
            <ns3:hr>191</ns3:hr>
            <ns3:cad>84</ns3:cad>
          </ns3:TrackPointExtension>
        </extensions>
      </trkpt>
      <trkpt lat="47.56617640145123004913330078125" lon="11.0355729795992374420166015625">
        <ele>894.5999755859375</ele>
        <time>2026-09-01T06:24:57.000Z</time>
        <extensions>
          <ns3:TrackPointExtension>
            <ns3:hr>191</ns3:hr>
            <ns3:cad>84</ns3:cad>
          </ns3:TrackPointExtension>
        </extensions>
      </trkpt>
      <trkpt lat="47.5661503337323665618896484375" lon="11.03559301234781742095947265625">
        <ele>894.79998779296875</ele>
        <time>2026-09-01T06:24:58.000Z</time>
        <extensions>
          <ns3:TrackPointExtension>
            <ns3:hr>191</ns3:hr>
            <ns3:cad>84</ns3:cad>
          </ns3:TrackPointExtension>
        </extensions>
      </trkpt>
      <trkpt lat="47.56613709032535552978515625" lon="11.0356056690216064453125">
        <ele>895</ele>
        <time>2026-09-01T06:24:59.000Z</time>
        <extensions>
          <ns3:TrackPointExtension>
            <ns3:hr>191</ns3:hr>
            <ns3:cad>84</ns3:cad>
          </ns3:TrackPointExtension>
        </extensions>
      </trkpt>
      <trkpt lat="47.56611404009163379669189453125" lon="11.0356229357421398162841796875">
        <ele>895.4000244140625</ele>
        <time>2026-09-01T06:25:00.000Z</time>
        <extensions>
          <ns3:TrackPointExtension>
            <ns3:hr>191</ns3:hr>
            <ns3:cad>85</ns3:cad>
          </ns3:TrackPointExtension>
        </extensions>
      </trkpt>
      <trkpt lat="47.56609124131500720977783203125" lon="11.0356390289962291717529296875">
        <ele>895.5999755859375</ele>
        <time>2026-09-01T06:25:01.000Z</time>
        <extensions>
          <ns3:TrackPointExtension>
            <ns3:hr>190</ns3:hr>
            <ns3:cad>85</ns3:cad>
          </ns3:TrackPointExtension>
        </extensions>
      </trkpt>
      <trkpt lat="47.5660671852529048919677734375" lon="11.03564967401325702667236328125">
        <ele>895.79998779296875</ele>
        <time>2026-09-01T06:25:02.000Z</time>
        <extensions>
          <ns3:TrackPointExtension>
            <ns3:hr>190</ns3:hr>
            <ns3:cad>86</ns3:cad>
          </ns3:TrackPointExtension>
        </extensions>
      </trkpt>
      <trkpt lat="47.5660396926105022430419921875" lon="11.03565855883061885833740234375">
        <ele>896</ele>
        <time>2026-09-01T06:25:03.000Z</time>
        <extensions>
          <ns3:TrackPointExtension>
            <ns3:hr>190</ns3:hr>
            <ns3:cad>86</ns3:cad>
          </ns3:TrackPointExtension>
        </extensions>
      </trkpt>
      <trkpt lat="47.56601798348128795623779296875" lon="11.03567029349505901336669921875">
        <ele>896.4000244140625</ele>
        <time>2026-09-01T06:25:04.000Z</time>
        <extensions>
          <ns3:TrackPointExtension>
            <ns3:hr>189</ns3:hr>
            <ns3:cad>86</ns3:cad>
          </ns3:TrackPointExtension>
        </extensions>
      </trkpt>
      <trkpt lat="47.56598998792469501495361328125" lon="11.03569124825298786163330078125">
        <ele>896.5999755859375</ele>
        <time>2026-09-01T06:25:05.000Z</time>
        <extensions>
          <ns3:TrackPointExtension>
            <ns3:hr>189</ns3:hr>
            <ns3:cad>84</ns3:cad>
          </ns3:TrackPointExtension>
        </extensions>
      </trkpt>
      <trkpt lat="47.56596886552870273590087890625" lon="11.0357137955725193023681640625">
        <ele>896.79998779296875</ele>
        <time>2026-09-01T06:25:06.000Z</time>
        <extensions>
          <ns3:TrackPointExtension>
            <ns3:hr>189</ns3:hr>
            <ns3:cad>84</ns3:cad>
          </ns3:TrackPointExtension>
        </extensions>
      </trkpt>
      <trkpt lat="47.5659461505711078643798828125" lon="11.0357305593788623809814453125">
        <ele>897</ele>
        <time>2026-09-01T06:25:07.000Z</time>
        <extensions>
          <ns3:TrackPointExtension>
            <ns3:hr>189</ns3:hr>
            <ns3:cad>84</ns3:cad>
          </ns3:TrackPointExtension>
        </extensions>
      </trkpt>
      <trkpt lat="47.56591974757611751556396484375" lon="11.03575461544096469879150390625">
        <ele>897.20001220703125</ele>
        <time>2026-09-01T06:25:08.000Z</time>
        <extensions>
          <ns3:TrackPointExtension>
            <ns3:hr>189</ns3:hr>
            <ns3:cad>84</ns3:cad>
          </ns3:TrackPointExtension>
        </extensions>
      </trkpt>
      <trkpt lat="47.5659012235701084136962890625" lon="11.03576165623962879180908203125">
        <ele>897.4000244140625</ele>
        <time>2026-09-01T06:25:09.000Z</time>
        <extensions>
          <ns3:TrackPointExtension>
            <ns3:hr>189</ns3:hr>
            <ns3:cad>84</ns3:cad>
          </ns3:TrackPointExtension>
        </extensions>
      </trkpt>
      <trkpt lat="47.565872557461261749267578125" lon="11.03578294627368450164794921875">
        <ele>897.4000244140625</ele>
        <time>2026-09-01T06:25:10.000Z</time>
        <extensions>
          <ns3:TrackPointExtension>
            <ns3:hr>188</ns3:hr>
            <ns3:cad>84</ns3:cad>
          </ns3:TrackPointExtension>
        </extensions>
      </trkpt>
      <trkpt lat="47.56585151888430118560791015625" lon="11.03578680194914340972900390625">
        <ele>897.5999755859375</ele>
        <time>2026-09-01T06:25:11.000Z</time>
        <extensions>
          <ns3:TrackPointExtension>
            <ns3:hr>189</ns3:hr>
            <ns3:cad>84</ns3:cad>
          </ns3:TrackPointExtension>
        </extensions>
      </trkpt>
      <trkpt lat="47.56582184694707393646240234375" lon="11.035803817212581634521484375">
        <ele>898</ele>
        <time>2026-09-01T06:25:12.000Z</time>
        <extensions>
          <ns3:TrackPointExtension>
            <ns3:hr>189</ns3:hr>
            <ns3:cad>85</ns3:cad>
          </ns3:TrackPointExtension>
        </extensions>
      </trkpt>
      <trkpt lat="47.56579183973371982574462890625" lon="11.03582100011408329010009765625">
        <ele>898</ele>
        <time>2026-09-01T06:25:13.000Z</time>
        <extensions>
          <ns3:TrackPointExtension>
            <ns3:hr>188</ns3:hr>
            <ns3:cad>85</ns3:cad>
          </ns3:TrackPointExtension>
        </extensions>
      </trkpt>
      <trkpt lat="47.56577122025191783905029296875" lon="11.03582921437919139862060546875">
        <ele>898.20001220703125</ele>
        <time>2026-09-01T06:25:14.000Z</time>
        <extensions>
          <ns3:TrackPointExtension>
            <ns3:hr>189</ns3:hr>
            <ns3:cad>85</ns3:cad>
          </ns3:TrackPointExtension>
        </extensions>
      </trkpt>
      <trkpt lat="47.565744817256927490234375" lon="11.03583843447268009185791015625">
        <ele>898.4000244140625</ele>
        <time>2026-09-01T06:25:15.000Z</time>
        <extensions>
          <ns3:TrackPointExtension>
            <ns3:hr>189</ns3:hr>
            <ns3:cad>85</ns3:cad>
          </ns3:TrackPointExtension>
        </extensions>
      </trkpt>
      <trkpt lat="47.56571154110133647918701171875" lon="11.03585000149905681610107421875">
        <ele>898.79998779296875</ele>
        <time>2026-09-01T06:25:16.000Z</time>
        <extensions>
          <ns3:TrackPointExtension>
            <ns3:hr>189</ns3:hr>
            <ns3:cad>85</ns3:cad>
          </ns3:TrackPointExtension>
        </extensions>
      </trkpt>
      <trkpt lat="47.5656856410205364227294921875" lon="11.03585846722126007080078125">
        <ele>899</ele>
        <time>2026-09-01T06:25:17.000Z</time>
        <extensions>
          <ns3:TrackPointExtension>
            <ns3:hr>188</ns3:hr>
            <ns3:cad>86</ns3:cad>
          </ns3:TrackPointExtension>
        </extensions>
      </trkpt>
      <trkpt lat="47.56565957330167293548583984375" lon="11.03586810640990734100341796875">
        <ele>899.20001220703125</ele>
        <time>2026-09-01T06:25:18.000Z</time>
        <extensions>
          <ns3:TrackPointExtension>
            <ns3:hr>189</ns3:hr>
            <ns3:cad>86</ns3:cad>
          </ns3:TrackPointExtension>
        </extensions>
      </trkpt>
      <trkpt lat="47.56563551723957061767578125" lon="11.03587347082793712615966796875">
        <ele>899.5999755859375</ele>
        <time>2026-09-01T06:25:19.000Z</time>
        <extensions>
          <ns3:TrackPointExtension>
            <ns3:hr>189</ns3:hr>
            <ns3:cad>85</ns3:cad>
          </ns3:TrackPointExtension>
        </extensions>
      </trkpt>
      <trkpt lat="47.565606348216533660888671875" lon="11.03589291684329509735107421875">
        <ele>899.79998779296875</ele>
        <time>2026-09-01T06:25:20.000Z</time>
        <extensions>
          <ns3:TrackPointExtension>
            <ns3:hr>189</ns3:hr>
            <ns3:cad>85</ns3:cad>
          </ns3:TrackPointExtension>
        </extensions>
      </trkpt>
      <trkpt lat="47.56557508371770381927490234375" lon="11.0358985327184200286865234375">
        <ele>900</ele>
        <time>2026-09-01T06:25:21.000Z</time>
        <extensions>
          <ns3:TrackPointExtension>
            <ns3:hr>188</ns3:hr>
            <ns3:cad>85</ns3:cad>
          </ns3:TrackPointExtension>
        </extensions>
      </trkpt>
      <trkpt lat="47.56554356776177883148193359375" lon="11.03590783663094043731689453125">
        <ele>900.20001220703125</ele>
        <time>2026-09-01T06:25:22.000Z</time>
        <extensions>
          <ns3:TrackPointExtension>
            <ns3:hr>189</ns3:hr>
            <ns3:cad>85</ns3:cad>
          </ns3:TrackPointExtension>
        </extensions>
      </trkpt>
      <trkpt lat="47.56551238708198070526123046875" lon="11.03591077029705047607421875">
        <ele>900.4000244140625</ele>
        <time>2026-09-01T06:25:23.000Z</time>
        <extensions>
          <ns3:TrackPointExtension>
            <ns3:hr>189</ns3:hr>
            <ns3:cad>85</ns3:cad>
          </ns3:TrackPointExtension>
        </extensions>
      </trkpt>
      <trkpt lat="47.5654725730419158935546875" lon="11.03591538034379482269287109375">
        <ele>900.5999755859375</ele>
        <time>2026-09-01T06:25:24.000Z</time>
        <extensions>
          <ns3:TrackPointExtension>
            <ns3:hr>188</ns3:hr>
            <ns3:cad>85</ns3:cad>
          </ns3:TrackPointExtension>
        </extensions>
      </trkpt>
      <trkpt lat="47.5654445774853229522705078125" lon="11.03592644445598125457763671875">
        <ele>900.5999755859375</ele>
        <time>2026-09-01T06:25:25.000Z</time>
        <extensions>
          <ns3:TrackPointExtension>
            <ns3:hr>189</ns3:hr>
            <ns3:cad>85</ns3:cad>
          </ns3:TrackPointExtension>
        </extensions>
      </trkpt>
      <trkpt lat="47.56541314534842967987060546875" lon="11.0359307192265987396240234375">
        <ele>900.5999755859375</ele>
        <time>2026-09-01T06:25:26.000Z</time>
        <extensions>
          <ns3:TrackPointExtension>
            <ns3:hr>189</ns3:hr>
            <ns3:cad>84</ns3:cad>
          </ns3:TrackPointExtension>
        </extensions>
      </trkpt>
      <trkpt lat="47.5653644464910030364990234375" lon="11.0359545238316059112548828125">
        <ele>900.79998779296875</ele>
        <time>2026-09-01T06:25:27.000Z</time>
        <extensions>
          <ns3:TrackPointExtension>
            <ns3:hr>189</ns3:hr>
            <ns3:cad>84</ns3:cad>
          </ns3:TrackPointExtension>
        </extensions>
      </trkpt>
      <trkpt lat="47.56533066742122173309326171875" lon="11.0359575413167476654052734375">
        <ele>901</ele>
        <time>2026-09-01T06:25:28.000Z</time>
        <extensions>
          <ns3:TrackPointExtension>
            <ns3:hr>188</ns3:hr>
            <ns3:cad>84</ns3:cad>
          </ns3:TrackPointExtension>
        </extensions>
      </trkpt>
      <trkpt lat="47.56529831327497959136962890625" lon="11.03596332482993602752685546875">
        <ele>901</ele>
        <time>2026-09-01T06:25:29.000Z</time>
        <extensions>
          <ns3:TrackPointExtension>
            <ns3:hr>189</ns3:hr>
            <ns3:cad>84</ns3:cad>
          </ns3:TrackPointExtension>
        </extensions>
      </trkpt>
      <trkpt lat="47.56527299992740154266357421875" lon="11.0359672643244266510009765625">
        <ele>901</ele>
        <time>2026-09-01T06:25:30.000Z</time>
        <extensions>
          <ns3:TrackPointExtension>
            <ns3:hr>189</ns3:hr>
            <ns3:cad>84</ns3:cad>
          </ns3:TrackPointExtension>
        </extensions>
      </trkpt>
      <trkpt lat="47.56524257361888885498046875" lon="11.0359717905521392822265625">
        <ele>901.20001220703125</ele>
        <time>2026-09-01T06:25:31.000Z</time>
        <extensions>
          <ns3:TrackPointExtension>
            <ns3:hr>189</ns3:hr>
            <ns3:cad>85</ns3:cad>
          </ns3:TrackPointExtension>
        </extensions>
      </trkpt>
      <trkpt lat="47.5652149133384227752685546875" lon="11.0359776578843593597412109375">
        <ele>901.5999755859375</ele>
        <time>2026-09-01T06:25:32.000Z</time>
        <extensions>
          <ns3:TrackPointExtension>
            <ns3:hr>188</ns3:hr>
            <ns3:cad>85</ns3:cad>
          </ns3:TrackPointExtension>
        </extensions>
      </trkpt>
      <trkpt lat="47.56518498994410037994384765625" lon="11.035982184112071990966796875">
        <ele>901.5999755859375</ele>
        <time>2026-09-01T06:25:33.000Z</time>
        <extensions>
          <ns3:TrackPointExtension>
            <ns3:hr>189</ns3:hr>
            <ns3:cad>85</ns3:cad>
          </ns3:TrackPointExtension>
        </extensions>
      </trkpt>
      <trkpt lat="47.56514676846563816070556640625" lon="11.035980172455310821533203125">
        <ele>901.79998779296875</ele>
        <time>2026-09-01T06:25:34.000Z</time>
        <extensions>
          <ns3:TrackPointExtension>
            <ns3:hr>189</ns3:hr>
            <ns3:cad>85</ns3:cad>
          </ns3:TrackPointExtension>
        </extensions>
      </trkpt>
      <trkpt lat="47.5651131570339202880859375" lon="11.0359877161681652069091796875">
        <ele>902</ele>
        <time>2026-09-01T06:25:35.000Z</time>
        <extensions>
          <ns3:TrackPointExtension>
            <ns3:hr>189</ns3:hr>
            <ns3:cad>85</ns3:cad>
          </ns3:TrackPointExtension>
        </extensions>
      </trkpt>
      <trkpt lat="47.565080635249614715576171875" lon="11.03599852882325649261474609375">
        <ele>902.4000244140625</ele>
        <time>2026-09-01T06:25:36.000Z</time>
        <extensions>
          <ns3:TrackPointExtension>
            <ns3:hr>190</ns3:hr>
            <ns3:cad>84</ns3:cad>
          </ns3:TrackPointExtension>
        </extensions>
      </trkpt>
      <trkpt lat="47.56505171768367290496826171875" lon="11.03600892238318920135498046875">
        <ele>902.5999755859375</ele>
        <time>2026-09-01T06:25:37.000Z</time>
        <extensions>
          <ns3:TrackPointExtension>
            <ns3:hr>190</ns3:hr>
            <ns3:cad>84</ns3:cad>
          </ns3:TrackPointExtension>
        </extensions>
      </trkpt>
      <trkpt lat="47.56502774544060230255126953125" lon="11.0360133647918701171875">
        <ele>902.79998779296875</ele>
        <time>2026-09-01T06:25:38.000Z</time>
        <extensions>
          <ns3:TrackPointExtension>
            <ns3:hr>190</ns3:hr>
            <ns3:cad>84</ns3:cad>
          </ns3:TrackPointExtension>
        </extensions>
      </trkpt>
      <trkpt lat="47.5649983249604701995849609375" lon="11.03602468036115169525146484375">
        <ele>903</ele>
        <time>2026-09-01T06:25:39.000Z</time>
        <extensions>
          <ns3:TrackPointExtension>
            <ns3:hr>190</ns3:hr>
            <ns3:cad>84</ns3:cad>
          </ns3:TrackPointExtension>
        </extensions>
      </trkpt>
      <trkpt lat="47.5649704970419406890869140625" lon="11.036033146083354949951171875">
        <ele>903.20001220703125</ele>
        <time>2026-09-01T06:25:40.000Z</time>
        <extensions>
          <ns3:TrackPointExtension>
            <ns3:hr>190</ns3:hr>
            <ns3:cad>84</ns3:cad>
          </ns3:TrackPointExtension>
        </extensions>
      </trkpt>
      <trkpt lat="47.56494057364761829376220703125" lon="11.03603607974946498870849609375">
        <ele>903.4000244140625</ele>
        <time>2026-09-01T06:25:41.000Z</time>
        <extensions>
          <ns3:TrackPointExtension>
            <ns3:hr>191</ns3:hr>
            <ns3:cad>84</ns3:cad>
          </ns3:TrackPointExtension>
        </extensions>
      </trkpt>
      <trkpt lat="47.56490729749202728271484375" lon="11.0360495746135711669921875">
        <ele>903.5999755859375</ele>
        <time>2026-09-01T06:25:42.000Z</time>
        <extensions>
          <ns3:TrackPointExtension>
            <ns3:hr>191</ns3:hr>
            <ns3:cad>84</ns3:cad>
          </ns3:TrackPointExtension>
        </extensions>
      </trkpt>
      <trkpt lat="47.564879469573497772216796875" lon="11.03605485521256923675537109375">
        <ele>903.79998779296875</ele>
        <time>2026-09-01T06:25:43.000Z</time>
        <extensions>
          <ns3:TrackPointExtension>
            <ns3:hr>191</ns3:hr>
            <ns3:cad>84</ns3:cad>
          </ns3:TrackPointExtension>
        </extensions>
      </trkpt>
      <trkpt lat="47.56484485231339931488037109375" lon="11.03606239892542362213134765625">
        <ele>904</ele>
        <time>2026-09-01T06:25:44.000Z</time>
        <extensions>
          <ns3:TrackPointExtension>
            <ns3:hr>191</ns3:hr>
            <ns3:cad>84</ns3:cad>
          </ns3:TrackPointExtension>
        </extensions>
      </trkpt>
      <trkpt lat="47.564816772937774658203125" lon="11.03606499731540679931640625">
        <ele>904.20001220703125</ele>
        <time>2026-09-01T06:25:45.000Z</time>
        <extensions>
          <ns3:TrackPointExtension>
            <ns3:hr>191</ns3:hr>
            <ns3:cad>84</ns3:cad>
          </ns3:TrackPointExtension>
        </extensions>
      </trkpt>
      <trkpt lat="47.56478383205831050872802734375" lon="11.036080084741115570068359375">
        <ele>904.4000244140625</ele>
        <time>2026-09-01T06:25:46.000Z</time>
        <extensions>
          <ns3:TrackPointExtension>
            <ns3:hr>191</ns3:hr>
            <ns3:cad>84</ns3:cad>
          </ns3:TrackPointExtension>
        </extensions>
      </trkpt>
      <trkpt lat="47.56475449539721012115478515625" lon="11.036086119711399078369140625">
        <ele>904.4000244140625</ele>
        <time>2026-09-01T06:25:47.000Z</time>
        <extensions>
          <ns3:TrackPointExtension>
            <ns3:hr>191</ns3:hr>
            <ns3:cad>84</ns3:cad>
          </ns3:TrackPointExtension>
        </extensions>
      </trkpt>
      <trkpt lat="47.564730606973171234130859375" lon="11.03609441779553890228271484375">
        <ele>904.5999755859375</ele>
        <time>2026-09-01T06:25:48.000Z</time>
        <extensions>
          <ns3:TrackPointExtension>
            <ns3:hr>191</ns3:hr>
            <ns3:cad>84</ns3:cad>
          </ns3:TrackPointExtension>
        </extensions>
      </trkpt>
      <trkpt lat="47.56470956839621067047119140625" lon="11.03609559126198291778564453125">
        <ele>904.79998779296875</ele>
        <time>2026-09-01T06:25:49.000Z</time>
        <extensions>
          <ns3:TrackPointExtension>
            <ns3:hr>191</ns3:hr>
            <ns3:cad>84</ns3:cad>
          </ns3:TrackPointExtension>
        </extensions>
      </trkpt>
      <trkpt lat="47.564704455435276031494140625" lon="11.03609316051006317138671875">
        <ele>904.79998779296875</ele>
        <time>2026-09-01T06:25:50.000Z</time>
        <extensions>
          <ns3:TrackPointExtension>
            <ns3:hr>191</ns3:hr>
            <ns3:cad>84</ns3:cad>
          </ns3:TrackPointExtension>
        </extensions>
      </trkpt>
      <trkpt lat="47.5646746158599853515625" lon="11.0360514186322689056396484375">
        <ele>904.79998779296875</ele>
        <time>2026-09-01T06:25:51.000Z</time>
        <extensions>
          <ns3:TrackPointExtension>
            <ns3:hr>191</ns3:hr>
            <ns3:cad>84</ns3:cad>
          </ns3:TrackPointExtension>
        </extensions>
      </trkpt>
      <trkpt lat="47.56465374492108821868896484375" lon="11.0360235907137393951416015625">
        <ele>905</ele>
        <time>2026-09-01T06:25:52.000Z</time>
        <extensions>
          <ns3:TrackPointExtension>
            <ns3:hr>192</ns3:hr>
            <ns3:cad>84</ns3:cad>
          </ns3:TrackPointExtension>
        </extensions>
      </trkpt>
      <trkpt lat="47.5646544992923736572265625" lon="11.03600054048001766204833984375">
        <ele>905</ele>
        <time>2026-09-01T06:25:53.000Z</time>
        <extensions>
          <ns3:TrackPointExtension>
            <ns3:hr>192</ns3:hr>
            <ns3:cad>84</ns3:cad>
          </ns3:TrackPointExtension>
        </extensions>
      </trkpt>
      <trkpt lat="47.564642764627933502197265625" lon="11.0359602235257625579833984375">
        <ele>904.79998779296875</ele>
        <time>2026-09-01T06:25:54.000Z</time>
        <extensions>
          <ns3:TrackPointExtension>
            <ns3:hr>191</ns3:hr>
            <ns3:cad>84</ns3:cad>
          </ns3:TrackPointExtension>
        </extensions>
      </trkpt>
      <trkpt lat="47.5646303594112396240234375" lon="11.03592954576015472412109375">
        <ele>904.79998779296875</ele>
        <time>2026-09-01T06:25:55.000Z</time>
        <extensions>
          <ns3:TrackPointExtension>
            <ns3:hr>191</ns3:hr>
            <ns3:cad>84</ns3:cad>
          </ns3:TrackPointExtension>
        </extensions>
      </trkpt>
      <trkpt lat="47.5646157748997211456298828125" lon="11.035893000662326812744140625">
        <ele>904.5999755859375</ele>
        <time>2026-09-01T06:25:56.000Z</time>
        <extensions>
          <ns3:TrackPointExtension>
            <ns3:hr>190</ns3:hr>
            <ns3:cad>84</ns3:cad>
          </ns3:TrackPointExtension>
        </extensions>
      </trkpt>
      <trkpt lat="47.56461049430072307586669921875" lon="11.035860478878021240234375">
        <ele>904.5999755859375</ele>
        <time>2026-09-01T06:25:57.000Z</time>
        <extensions>
          <ns3:TrackPointExtension>
            <ns3:hr>189</ns3:hr>
            <ns3:cad>81</ns3:cad>
          </ns3:TrackPointExtension>
        </extensions>
      </trkpt>
      <trkpt lat="47.56460630334913730621337890625" lon="11.03582988493144512176513671875">
        <ele>905</ele>
        <time>2026-09-01T06:25:58.000Z</time>
        <extensions>
          <ns3:TrackPointExtension>
            <ns3:hr>188</ns3:hr>
            <ns3:cad>81</ns3:cad>
          </ns3:TrackPointExtension>
        </extensions>
      </trkpt>
      <trkpt lat="47.56461787037551403045654296875" lon="11.03578814305365085601806640625">
        <ele>905.4000244140625</ele>
        <time>2026-09-01T06:25:59.000Z</time>
        <extensions>
          <ns3:TrackPointExtension>
            <ns3:hr>187</ns3:hr>
            <ns3:cad>81</ns3:cad>
          </ns3:TrackPointExtension>
        </extensions>
      </trkpt>
      <trkpt lat="47.5646201334893703460693359375" lon="11.035743467509746551513671875">
        <ele>905.79998779296875</ele>
        <time>2026-09-01T06:26:00.000Z</time>
        <extensions>
          <ns3:TrackPointExtension>
            <ns3:hr>187</ns3:hr>
            <ns3:cad>81</ns3:cad>
          </ns3:TrackPointExtension>
        </extensions>
      </trkpt>
      <trkpt lat="47.56462759338319301605224609375" lon="11.03571589104831218719482421875">
        <ele>906.20001220703125</ele>
        <time>2026-09-01T06:26:01.000Z</time>
        <extensions>
          <ns3:TrackPointExtension>
            <ns3:hr>186</ns3:hr>
            <ns3:cad>82</ns3:cad>
          </ns3:TrackPointExtension>
        </extensions>
      </trkpt>
      <trkpt lat="47.564626000821590423583984375" lon="11.0356722213327884674072265625">
        <ele>906.5999755859375</ele>
        <time>2026-09-01T06:26:02.000Z</time>
        <extensions>
          <ns3:TrackPointExtension>
            <ns3:hr>186</ns3:hr>
            <ns3:cad>82</ns3:cad>
          </ns3:TrackPointExtension>
        </extensions>
      </trkpt>
      <trkpt lat="47.564632706344127655029296875" lon="11.0356552898883819580078125">
        <ele>907</ele>
        <time>2026-09-01T06:26:03.000Z</time>
        <extensions>
          <ns3:TrackPointExtension>
            <ns3:hr>186</ns3:hr>
            <ns3:cad>81</ns3:cad>
          </ns3:TrackPointExtension>
        </extensions>
      </trkpt>
      <trkpt lat="47.56463681347668170928955078125" lon="11.035634838044643402099609375">
        <ele>907.4000244140625</ele>
        <time>2026-09-01T06:26:04.000Z</time>
        <extensions>
          <ns3:TrackPointExtension>
            <ns3:hr>185</ns3:hr>
            <ns3:cad>81</ns3:cad>
          </ns3:TrackPointExtension>
        </extensions>
      </trkpt>
      <trkpt lat="47.564642094075679779052734375" lon="11.03561363182961940765380859375">
        <ele>907.79998779296875</ele>
        <time>2026-09-01T06:26:05.000Z</time>
        <extensions>
          <ns3:TrackPointExtension>
            <ns3:hr>184</ns3:hr>
            <ns3:cad>81</ns3:cad>
          </ns3:TrackPointExtension>
        </extensions>
      </trkpt>
      <trkpt lat="47.564652822911739349365234375" lon="11.0355887375771999359130859375">
        <ele>908.4000244140625</ele>
        <time>2026-09-01T06:26:06.000Z</time>
        <extensions>
          <ns3:TrackPointExtension>
            <ns3:hr>184</ns3:hr>
            <ns3:cad>81</ns3:cad>
          </ns3:TrackPointExtension>
        </extensions>
      </trkpt>
      <trkpt lat="47.564661540091037750244140625" lon="11.03556149639189243316650390625">
        <ele>908.79998779296875</ele>
        <time>2026-09-01T06:26:07.000Z</time>
        <extensions>
          <ns3:TrackPointExtension>
            <ns3:hr>184</ns3:hr>
            <ns3:cad>80</ns3:cad>
          </ns3:TrackPointExtension>
        </extensions>
      </trkpt>
      <trkpt lat="47.56466782651841640472412109375" lon="11.03553526103496551513671875">
        <ele>909.20001220703125</ele>
        <time>2026-09-01T06:26:08.000Z</time>
        <extensions>
          <ns3:TrackPointExtension>
            <ns3:hr>184</ns3:hr>
            <ns3:cad>78</ns3:cad>
          </ns3:TrackPointExtension>
        </extensions>
      </trkpt>
      <trkpt lat="47.56468274630606174468994140625" lon="11.03550173342227935791015625">
        <ele>909.4000244140625</ele>
        <time>2026-09-01T06:26:09.000Z</time>
        <extensions>
          <ns3:TrackPointExtension>
            <ns3:hr>184</ns3:hr>
            <ns3:cad>77</ns3:cad>
          </ns3:TrackPointExtension>
        </extensions>
      </trkpt>
      <trkpt lat="47.56469967775046825408935546875" lon="11.03547264821827411651611328125">
        <ele>909.79998779296875</ele>
        <time>2026-09-01T06:26:10.000Z</time>
        <extensions>
          <ns3:TrackPointExtension>
            <ns3:hr>183</ns3:hr>
            <ns3:cad>77</ns3:cad>
          </ns3:TrackPointExtension>
        </extensions>
      </trkpt>
      <trkpt lat="47.56471627391874790191650390625" lon="11.03544381447136402130126953125">
        <ele>910</ele>
        <time>2026-09-01T06:26:11.000Z</time>
        <extensions>
          <ns3:TrackPointExtension>
            <ns3:hr>183</ns3:hr>
            <ns3:cad>81</ns3:cad>
          </ns3:TrackPointExtension>
        </extensions>
      </trkpt>
      <trkpt lat="47.564730606973171234130859375" lon="11.035413555800914764404296875">
        <ele>910.20001220703125</ele>
        <time>2026-09-01T06:26:12.000Z</time>
        <extensions>
          <ns3:TrackPointExtension>
            <ns3:hr>183</ns3:hr>
            <ns3:cad>81</ns3:cad>
          </ns3:TrackPointExtension>
        </extensions>
      </trkpt>
      <trkpt lat="47.5647384859621524810791015625" lon="11.035375334322452545166015625">
        <ele>910.4000244140625</ele>
        <time>2026-09-01T06:26:13.000Z</time>
        <extensions>
          <ns3:TrackPointExtension>
            <ns3:hr>184</ns3:hr>
            <ns3:cad>80</ns3:cad>
          </ns3:TrackPointExtension>
        </extensions>
      </trkpt>
      <trkpt lat="47.5647456943988800048828125" lon="11.035333760082721710205078125">
        <ele>910.4000244140625</ele>
        <time>2026-09-01T06:26:14.000Z</time>
        <extensions>
          <ns3:TrackPointExtension>
            <ns3:hr>184</ns3:hr>
            <ns3:cad>80</ns3:cad>
          </ns3:TrackPointExtension>
        </extensions>
      </trkpt>
      <trkpt lat="47.56476354785263538360595703125" lon="11.03529310785233974456787109375">
        <ele>910.4000244140625</ele>
        <time>2026-09-01T06:26:15.000Z</time>
        <extensions>
          <ns3:TrackPointExtension>
            <ns3:hr>184</ns3:hr>
            <ns3:cad>80</ns3:cad>
          </ns3:TrackPointExtension>
        </extensions>
      </trkpt>
      <trkpt lat="47.56477779708802700042724609375" lon="11.0352591611444950103759765625">
        <ele>910.4000244140625</ele>
        <time>2026-09-01T06:26:16.000Z</time>
        <extensions>
          <ns3:TrackPointExtension>
            <ns3:hr>184</ns3:hr>
            <ns3:cad>80</ns3:cad>
          </ns3:TrackPointExtension>
        </extensions>
      </trkpt>
      <trkpt lat="47.5647944770753383636474609375" lon="11.0352259688079357147216796875">
        <ele>910.4000244140625</ele>
        <time>2026-09-01T06:26:17.000Z</time>
        <extensions>
          <ns3:TrackPointExtension>
            <ns3:hr>184</ns3:hr>
            <ns3:cad>81</ns3:cad>
          </ns3:TrackPointExtension>
        </extensions>
      </trkpt>
      <trkpt lat="47.56481149233877658843994140625" lon="11.03519101627171039581298828125">
        <ele>910.4000244140625</ele>
        <time>2026-09-01T06:26:18.000Z</time>
        <extensions>
          <ns3:TrackPointExtension>
            <ns3:hr>184</ns3:hr>
            <ns3:cad>81</ns3:cad>
          </ns3:TrackPointExtension>
        </extensions>
      </trkpt>
      <trkpt lat="47.56482289172708988189697265625" lon="11.03515145368874073028564453125">
        <ele>910.4000244140625</ele>
        <time>2026-09-01T06:26:19.000Z</time>
        <extensions>
          <ns3:TrackPointExtension>
            <ns3:hr>185</ns3:hr>
            <ns3:cad>81</ns3:cad>
          </ns3:TrackPointExtension>
        </extensions>
      </trkpt>
      <trkpt lat="47.5648261606693267822265625" lon="11.03510837070643901824951171875">
        <ele>910.5999755859375</ele>
        <time>2026-09-01T06:26:20.000Z</time>
        <extensions>
          <ns3:TrackPointExtension>
            <ns3:hr>185</ns3:hr>
            <ns3:cad>81</ns3:cad>
          </ns3:TrackPointExtension>
        </extensions>
      </trkpt>
      <trkpt lat="47.56483010016381740570068359375" lon="11.0350697301328182220458984375">
        <ele>911.20001220703125</ele>
        <time>2026-09-01T06:26:21.000Z</time>
        <extensions>
          <ns3:TrackPointExtension>
            <ns3:hr>185</ns3:hr>
            <ns3:cad>81</ns3:cad>
          </ns3:TrackPointExtension>
        </extensions>
      </trkpt>
      <trkpt lat="47.56483764387667179107666015625" lon="11.035027317702770233154296875">
        <ele>911.79998779296875</ele>
        <time>2026-09-01T06:26:22.000Z</time>
        <extensions>
          <ns3:TrackPointExtension>
            <ns3:hr>185</ns3:hr>
            <ns3:cad>81</ns3:cad>
          </ns3:TrackPointExtension>
        </extensions>
      </trkpt>
      <trkpt lat="47.564840577542781829833984375" lon="11.0349798761308193206787109375">
        <ele>912.20001220703125</ele>
        <time>2026-09-01T06:26:23.000Z</time>
        <extensions>
          <ns3:TrackPointExtension>
            <ns3:hr>185</ns3:hr>
            <ns3:cad>81</ns3:cad>
          </ns3:TrackPointExtension>
        </extensions>
      </trkpt>
      <trkpt lat="47.56485071964561939239501953125" lon="11.03494659997522830963134765625">
        <ele>912.79998779296875</ele>
        <time>2026-09-01T06:26:24.000Z</time>
        <extensions>
          <ns3:TrackPointExtension>
            <ns3:hr>186</ns3:hr>
            <ns3:cad>80</ns3:cad>
          </ns3:TrackPointExtension>
        </extensions>
      </trkpt>
      <trkpt lat="47.564839236438274383544921875" lon="11.03489161469042301177978515625">
        <ele>913</ele>
        <time>2026-09-01T06:26:25.000Z</time>
        <extensions>
          <ns3:TrackPointExtension>
            <ns3:hr>185</ns3:hr>
            <ns3:cad>80</ns3:cad>
          </ns3:TrackPointExtension>
        </extensions>
      </trkpt>
      <trkpt lat="47.56483546458184719085693359375" lon="11.034845598042011260986328125">
        <ele>913.4000244140625</ele>
        <time>2026-09-01T06:26:26.000Z</time>
        <extensions>
          <ns3:TrackPointExtension>
            <ns3:hr>186</ns3:hr>
            <ns3:cad>79</ns3:cad>
          </ns3:TrackPointExtension>
        </extensions>
      </trkpt>
      <trkpt lat="47.56483295001089572906494140625" lon="11.03480796329677104949951171875">
        <ele>913.79998779296875</ele>
        <time>2026-09-01T06:26:27.000Z</time>
        <extensions>
          <ns3:TrackPointExtension>
            <ns3:hr>185</ns3:hr>
            <ns3:cad>77</ns3:cad>
          </ns3:TrackPointExtension>
        </extensions>
      </trkpt>
      <trkpt lat="47.56483194418251514434814453125" lon="11.03478684090077877044677734375">
        <ele>914</ele>
        <time>2026-09-01T06:26:28.000Z</time>
        <extensions>
          <ns3:TrackPointExtension>
            <ns3:hr>185</ns3:hr>
            <ns3:cad>77</ns3:cad>
          </ns3:TrackPointExtension>
        </extensions>
      </trkpt>
      <trkpt lat="47.564805708825588226318359375" lon="11.03477644734084606170654296875">
        <ele>914.20001220703125</ele>
        <time>2026-09-01T06:26:29.000Z</time>
        <extensions>
          <ns3:TrackPointExtension>
            <ns3:hr>185</ns3:hr>
            <ns3:cad>77</ns3:cad>
          </ns3:TrackPointExtension>
        </extensions>
      </trkpt>
      <trkpt lat="47.5647981651127338409423828125" lon="11.0347676463425159454345703125">
        <ele>914.5999755859375</ele>
        <time>2026-09-01T06:26:30.000Z</time>
        <extensions>
          <ns3:TrackPointExtension>
            <ns3:hr>185</ns3:hr>
            <ns3:cad>77</ns3:cad>
          </ns3:TrackPointExtension>
        </extensions>
      </trkpt>
      <trkpt lat="47.564778216183185577392578125" lon="11.03474442847073078155517578125">
        <ele>915</ele>
        <time>2026-09-01T06:26:31.000Z</time>
        <extensions>
          <ns3:TrackPointExtension>
            <ns3:hr>184</ns3:hr>
            <ns3:cad>80</ns3:cad>
          </ns3:TrackPointExtension>
        </extensions>
      </trkpt>
      <trkpt lat="47.5647639669477939605712890625" lon="11.03472665883600711822509765625">
        <ele>915.20001220703125</ele>
        <time>2026-09-01T06:26:32.000Z</time>
        <extensions>
          <ns3:TrackPointExtension>
            <ns3:hr>184</ns3:hr>
            <ns3:cad>80</ns3:cad>
          </ns3:TrackPointExtension>
        </extensions>
      </trkpt>
      <trkpt lat="47.5647508911788463592529296875" lon="11.03471911512315273284912109375">
        <ele>915.79998779296875</ele>
        <time>2026-09-01T06:26:33.000Z</time>
        <extensions>
          <ns3:TrackPointExtension>
            <ns3:hr>184</ns3:hr>
            <ns3:cad>0</ns3:cad>
          </ns3:TrackPointExtension>
        </extensions>
      </trkpt>
      <trkpt lat="47.5647428445518016815185546875" lon="11.03472397662699222564697265625">
        <ele>916.4000244140625</ele>
        <time>2026-09-01T06:26:34.000Z</time>
        <extensions>
          <ns3:TrackPointExtension>
            <ns3:hr>183</ns3:hr>
            <ns3:cad>0</ns3:cad>
          </ns3:TrackPointExtension>
        </extensions>
      </trkpt>
      <trkpt lat="47.56471929140388965606689453125" lon="11.03470704518258571624755859375">
        <ele>917</ele>
        <time>2026-09-01T06:26:35.000Z</time>
        <extensions>
          <ns3:TrackPointExtension>
            <ns3:hr>183</ns3:hr>
            <ns3:cad>0</ns3:cad>
          </ns3:TrackPointExtension>
        </extensions>
      </trkpt>
      <trkpt lat="47.5647106580436229705810546875" lon="11.0347079671919345855712890625">
        <ele>917.4000244140625</ele>
        <time>2026-09-01T06:26:36.000Z</time>
        <extensions>
          <ns3:TrackPointExtension>
            <ns3:hr>183</ns3:hr>
            <ns3:cad>0</ns3:cad>
          </ns3:TrackPointExtension>
        </extensions>
      </trkpt>
      <trkpt lat="47.5647022761404514312744140625" lon="11.03469748981297016143798828125">
        <ele>917.79998779296875</ele>
        <time>2026-09-01T06:26:37.000Z</time>
        <extensions>
          <ns3:TrackPointExtension>
            <ns3:hr>183</ns3:hr>
            <ns3:cad>0</ns3:cad>
          </ns3:TrackPointExtension>
        </extensions>
      </trkpt>
      <trkpt lat="47.5646871887147426605224609375" lon="11.03467837907373905181884765625">
        <ele>918</ele>
        <time>2026-09-01T06:26:38.000Z</time>
        <extensions>
          <ns3:TrackPointExtension>
            <ns3:hr>182</ns3:hr>
            <ns3:cad>0</ns3:cad>
          </ns3:TrackPointExtension>
        </extensions>
      </trkpt>
      <trkpt lat="47.5646831654012203216552734375" lon="11.034669242799282073974609375">
        <ele>918.20001220703125</ele>
        <time>2026-09-01T06:26:39.000Z</time>
        <extensions>
          <ns3:TrackPointExtension>
            <ns3:hr>180</ns3:hr>
            <ns3:cad>0</ns3:cad>
          </ns3:TrackPointExtension>
        </extensions>
      </trkpt>
      <trkpt lat="47.56466723978519439697265625" lon="11.0346508026123046875">
        <ele>918.4000244140625</ele>
        <time>2026-09-01T06:26:40.000Z</time>
        <extensions>
          <ns3:TrackPointExtension>
            <ns3:hr>179</ns3:hr>
            <ns3:cad>0</ns3:cad>
          </ns3:TrackPointExtension>
        </extensions>
      </trkpt>
      <trkpt lat="47.56465676240622997283935546875" lon="11.0346387326717376708984375">
        <ele>918.5999755859375</ele>
        <time>2026-09-01T06:26:41.000Z</time>
        <extensions>
          <ns3:TrackPointExtension>
            <ns3:hr>177</ns3:hr>
            <ns3:cad>0</ns3:cad>
          </ns3:TrackPointExtension>
        </extensions>
      </trkpt>
      <trkpt lat="47.56464117206633090972900390625" lon="11.0346207953989505767822265625">
        <ele>918.79998779296875</ele>
        <time>2026-09-01T06:26:42.000Z</time>
        <extensions>
          <ns3:TrackPointExtension>
            <ns3:hr>176</ns3:hr>
            <ns3:cad>79</ns3:cad>
          </ns3:TrackPointExtension>
        </extensions>
      </trkpt>
      <trkpt lat="47.56462105549871921539306640625" lon="11.03460176847875118255615234375">
        <ele>918.79998779296875</ele>
        <time>2026-09-01T06:26:43.000Z</time>
        <extensions>
          <ns3:TrackPointExtension>
            <ns3:hr>175</ns3:hr>
            <ns3:cad>79</ns3:cad>
          </ns3:TrackPointExtension>
        </extensions>
      </trkpt>
      <trkpt lat="47.564608566462993621826171875" lon="11.03458031080663204193115234375">
        <ele>919</ele>
        <time>2026-09-01T06:26:44.000Z</time>
        <extensions>
          <ns3:TrackPointExtension>
            <ns3:hr>174</ns3:hr>
            <ns3:cad>79</ns3:cad>
          </ns3:TrackPointExtension>
        </extensions>
      </trkpt>
      <trkpt lat="47.56459590978920459747314453125" lon="11.03456740267574787139892578125">
        <ele>919.20001220703125</ele>
        <time>2026-09-01T06:26:45.000Z</time>
        <extensions>
          <ns3:TrackPointExtension>
            <ns3:hr>173</ns3:hr>
            <ns3:cad>79</ns3:cad>
          </ns3:TrackPointExtension>
        </extensions>
      </trkpt>
      <trkpt lat="47.56458015181124210357666015625" lon="11.03455080650746822357177734375">
        <ele>919.5999755859375</ele>
        <time>2026-09-01T06:26:46.000Z</time>
        <extensions>
          <ns3:TrackPointExtension>
            <ns3:hr>173</ns3:hr>
            <ns3:cad>79</ns3:cad>
          </ns3:TrackPointExtension>
        </extensions>
      </trkpt>
      <trkpt lat="47.56457394920289516448974609375" lon="11.0345376469194889068603515625">
        <ele>920</ele>
        <time>2026-09-01T06:26:47.000Z</time>
        <extensions>
          <ns3:TrackPointExtension>
            <ns3:hr>173</ns3:hr>
            <ns3:cad>0</ns3:cad>
          </ns3:TrackPointExtension>
        </extensions>
      </trkpt>
      <trkpt lat="47.5645661540329456329345703125" lon="11.03452985174953937530517578125">
        <ele>920.5999755859375</ele>
        <time>2026-09-01T06:26:48.000Z</time>
        <extensions>
          <ns3:TrackPointExtension>
            <ns3:hr>173</ns3:hr>
            <ns3:cad>0</ns3:cad>
          </ns3:TrackPointExtension>
        </extensions>
      </trkpt>
      <trkpt lat="47.56455550901591777801513671875" lon="11.03451258502900600433349609375">
        <ele>921</ele>
        <time>2026-09-01T06:26:49.000Z</time>
        <extensions>
          <ns3:TrackPointExtension>
            <ns3:hr>173</ns3:hr>
            <ns3:cad>0</ns3:cad>
          </ns3:TrackPointExtension>
        </extensions>
      </trkpt>
      <trkpt lat="47.564546205103397369384765625" lon="11.03450085036456584930419921875">
        <ele>921.4000244140625</ele>
        <time>2026-09-01T06:26:50.000Z</time>
        <extensions>
          <ns3:TrackPointExtension>
            <ns3:hr>173</ns3:hr>
            <ns3:cad>0</ns3:cad>
          </ns3:TrackPointExtension>
        </extensions>
      </trkpt>
      <trkpt lat="47.5645376555621623992919921875" lon="11.03449548594653606414794921875">
        <ele>921.79998779296875</ele>
        <time>2026-09-01T06:26:51.000Z</time>
        <extensions>
          <ns3:TrackPointExtension>
            <ns3:hr>173</ns3:hr>
            <ns3:cad>0</ns3:cad>
          </ns3:TrackPointExtension>
        </extensions>
      </trkpt>
      <trkpt lat="47.56452868692576885223388671875" lon="11.03448928333818912506103515625">
        <ele>922.20001220703125</ele>
        <time>2026-09-01T06:26:52.000Z</time>
        <extensions>
          <ns3:TrackPointExtension>
            <ns3:hr>172</ns3:hr>
            <ns3:cad>0</ns3:cad>
          </ns3:TrackPointExtension>
        </extensions>
      </trkpt>
      <trkpt lat="47.56452030502259731292724609375" lon="11.03447939269244670867919921875">
        <ele>922.5999755859375</ele>
        <time>2026-09-01T06:26:53.000Z</time>
        <extensions>
          <ns3:TrackPointExtension>
            <ns3:hr>171</ns3:hr>
            <ns3:cad>0</ns3:cad>
          </ns3:TrackPointExtension>
        </extensions>
      </trkpt>
      <trkpt lat="47.56450991146266460418701171875" lon="11.03445927612483501434326171875">
        <ele>922.79998779296875</ele>
        <time>2026-09-01T06:26:54.000Z</time>
        <extensions>
          <ns3:TrackPointExtension>
            <ns3:hr>170</ns3:hr>
            <ns3:cad>0</ns3:cad>
          </ns3:TrackPointExtension>
        </extensions>
      </trkpt>
      <trkpt lat="47.564482502639293670654296875" lon="11.0344296880066394805908203125">
        <ele>923.20001220703125</ele>
        <time>2026-09-01T06:26:55.000Z</time>
        <extensions>
          <ns3:TrackPointExtension>
            <ns3:hr>169</ns3:hr>
            <ns3:cad>0</ns3:cad>
          </ns3:TrackPointExtension>
        </extensions>
      </trkpt>
      <trkpt lat="47.56446582265198230743408203125" lon="11.03440915234386920928955078125">
        <ele>923.4000244140625</ele>
        <time>2026-09-01T06:26:56.000Z</time>
        <extensions>
          <ns3:TrackPointExtension>
            <ns3:hr>167</ns3:hr>
            <ns3:cad>75</ns3:cad>
          </ns3:TrackPointExtension>
        </extensions>
      </trkpt>
      <trkpt lat="47.56445291452109813690185546875" lon="11.03439205326139926910400390625">
        <ele>923.79998779296875</ele>
        <time>2026-09-01T06:26:57.000Z</time>
        <extensions>
          <ns3:TrackPointExtension>
            <ns3:hr>166</ns3:hr>
            <ns3:cad>75</ns3:cad>
          </ns3:TrackPointExtension>
        </extensions>
      </trkpt>
      <trkpt lat="47.564442269504070281982421875" lon="11.034376211464405059814453125">
        <ele>924.20001220703125</ele>
        <time>2026-09-01T06:26:58.000Z</time>
        <extensions>
          <ns3:TrackPointExtension>
            <ns3:hr>166</ns3:hr>
            <ns3:cad>75</ns3:cad>
          </ns3:TrackPointExtension>
        </extensions>
      </trkpt>
      <trkpt lat="47.56443246267735958099365234375" lon="11.03436506353318691253662109375">
        <ele>924.5999755859375</ele>
        <time>2026-09-01T06:26:59.000Z</time>
        <extensions>
          <ns3:TrackPointExtension>
            <ns3:hr>167</ns3:hr>
            <ns3:cad>74</ns3:cad>
          </ns3:TrackPointExtension>
        </extensions>
      </trkpt>
      <trkpt lat="47.5644209794700145721435546875" lon="11.034353412687778472900390625">
        <ele>924.79998779296875</ele>
        <time>2026-09-01T06:27:00.000Z</time>
        <extensions>
          <ns3:TrackPointExtension>
            <ns3:hr>167</ns3:hr>
            <ns3:cad>74</ns3:cad>
          </ns3:TrackPointExtension>
        </extensions>
      </trkpt>
      <trkpt lat="47.56439625285565853118896484375" lon="11.03433388285338878631591796875">
        <ele>925.20001220703125</ele>
        <time>2026-09-01T06:27:01.000Z</time>
        <extensions>
          <ns3:TrackPointExtension>
            <ns3:hr>167</ns3:hr>
            <ns3:cad>72</ns3:cad>
          </ns3:TrackPointExtension>
        </extensions>
      </trkpt>
      <trkpt lat="47.5643824227154254913330078125" lon="11.03431846015155315399169921875">
        <ele>925.5999755859375</ele>
        <time>2026-09-01T06:27:02.000Z</time>
        <extensions>
          <ns3:TrackPointExtension>
            <ns3:hr>166</ns3:hr>
            <ns3:cad>71</ns3:cad>
          </ns3:TrackPointExtension>
        </extensions>
      </trkpt>
      <trkpt lat="47.56437110714614391326904296875" lon="11.03430706076323986053466796875">
        <ele>925.79998779296875</ele>
        <time>2026-09-01T06:27:03.000Z</time>
        <extensions>
          <ns3:TrackPointExtension>
            <ns3:hr>167</ns3:hr>
            <ns3:cad>71</ns3:cad>
          </ns3:TrackPointExtension>
        </extensions>
      </trkpt>
      <trkpt lat="47.5643532536923885345458984375" lon="11.034289710223674774169921875">
        <ele>926.20001220703125</ele>
        <time>2026-09-01T06:27:04.000Z</time>
        <extensions>
          <ns3:TrackPointExtension>
            <ns3:hr>167</ns3:hr>
            <ns3:cad>72</ns3:cad>
          </ns3:TrackPointExtension>
        </extensions>
      </trkpt>
      <trkpt lat="47.5643465481698513031005859375" lon="11.0342739522457122802734375">
        <ele>926.4000244140625</ele>
        <time>2026-09-01T06:27:05.000Z</time>
        <extensions>
          <ns3:TrackPointExtension>
            <ns3:hr>167</ns3:hr>
            <ns3:cad>74</ns3:cad>
          </ns3:TrackPointExtension>
        </extensions>
      </trkpt>
      <trkpt lat="47.56433657370507717132568359375" lon="11.03425190784037113189697265625">
        <ele>926.79998779296875</ele>
        <time>2026-09-01T06:27:06.000Z</time>
        <extensions>
          <ns3:TrackPointExtension>
            <ns3:hr>167</ns3:hr>
            <ns3:cad>74</ns3:cad>
          </ns3:TrackPointExtension>
        </extensions>
      </trkpt>
      <trkpt lat="47.56432550959289073944091796875" lon="11.03423975408077239990234375">
        <ele>927</ele>
        <time>2026-09-01T06:27:07.000Z</time>
        <extensions>
          <ns3:TrackPointExtension>
            <ns3:hr>167</ns3:hr>
            <ns3:cad>75</ns3:cad>
          </ns3:TrackPointExtension>
        </extensions>
      </trkpt>
      <trkpt lat="47.5643177144229412078857421875" lon="11.0342337191104888916015625">
        <ele>927.4000244140625</ele>
        <time>2026-09-01T06:27:08.000Z</time>
        <extensions>
          <ns3:TrackPointExtension>
            <ns3:hr>167</ns3:hr>
            <ns3:cad>75</ns3:cad>
          </ns3:TrackPointExtension>
        </extensions>
      </trkpt>
      <trkpt lat="47.5643079914152622222900390625" lon="11.034221313893795013427734375">
        <ele>927.79998779296875</ele>
        <time>2026-09-01T06:27:09.000Z</time>
        <extensions>
          <ns3:TrackPointExtension>
            <ns3:hr>167</ns3:hr>
            <ns3:cad>75</ns3:cad>
          </ns3:TrackPointExtension>
        </extensions>
      </trkpt>
      <trkpt lat="47.56430639885365962982177734375" lon="11.0342194698750972747802734375">
        <ele>928</ele>
        <time>2026-09-01T06:27:10.000Z</time>
        <extensions>
          <ns3:TrackPointExtension>
            <ns3:hr>167</ns3:hr>
            <ns3:cad>75</ns3:cad>
          </ns3:TrackPointExtension>
        </extensions>
      </trkpt>
      <trkpt lat="47.5643016211688518524169921875" lon="11.03421351872384548187255859375">
        <ele>928.4000244140625</ele>
        <time>2026-09-01T06:27:11.000Z</time>
        <extensions>
          <ns3:TrackPointExtension>
            <ns3:hr>166</ns3:hr>
            <ns3:cad>75</ns3:cad>
          </ns3:TrackPointExtension>
        </extensions>
      </trkpt>
      <trkpt lat="47.5642922334372997283935546875" lon="11.03420530445873737335205078125">
        <ele>928.79998779296875</ele>
        <time>2026-09-01T06:27:12.000Z</time>
        <extensions>
          <ns3:TrackPointExtension>
            <ns3:hr>166</ns3:hr>
            <ns3:cad>75</ns3:cad>
          </ns3:TrackPointExtension>
        </extensions>
      </trkpt>
      <trkpt lat="47.56428561173379421234130859375" lon="11.03419943712651729583740234375">
        <ele>929</ele>
        <time>2026-09-01T06:27:13.000Z</time>
        <extensions>
          <ns3:TrackPointExtension>
            <ns3:hr>166</ns3:hr>
            <ns3:cad>75</ns3:cad>
          </ns3:TrackPointExtension>
        </extensions>
      </trkpt>
      <trkpt lat="47.56428100168704986572265625" lon="11.03419415652751922607421875">
        <ele>929.4000244140625</ele>
        <time>2026-09-01T06:27:14.000Z</time>
        <extensions>
          <ns3:TrackPointExtension>
            <ns3:hr>167</ns3:hr>
            <ns3:cad>75</ns3:cad>
          </ns3:TrackPointExtension>
        </extensions>
      </trkpt>
      <trkpt lat="47.56427790038287639617919921875" lon="11.03418284095823764801025390625">
        <ele>929.79998779296875</ele>
        <time>2026-09-01T06:27:15.000Z</time>
        <extensions>
          <ns3:TrackPointExtension>
            <ns3:hr>168</ns3:hr>
            <ns3:cad>0</ns3:cad>
          </ns3:TrackPointExtension>
        </extensions>
      </trkpt>
      <trkpt lat="47.5642717815935611724853515625" lon="11.03417135775089263916015625">
        <ele>930</ele>
        <time>2026-09-01T06:27:16.000Z</time>
        <extensions>
          <ns3:TrackPointExtension>
            <ns3:hr>167</ns3:hr>
            <ns3:cad>0</ns3:cad>
          </ns3:TrackPointExtension>
        </extensions>
      </trkpt>
      <trkpt lat="47.56426155567169189453125" lon="11.03415794670581817626953125">
        <ele>930.5999755859375</ele>
        <time>2026-09-01T06:27:17.000Z</time>
        <extensions>
          <ns3:TrackPointExtension>
            <ns3:hr>167</ns3:hr>
            <ns3:cad>0</ns3:cad>
          </ns3:TrackPointExtension>
        </extensions>
      </trkpt>
      <trkpt lat="47.5642509944736957550048828125" lon="11.0341465473175048828125">
        <ele>931</ele>
        <time>2026-09-01T06:27:18.000Z</time>
        <extensions>
          <ns3:TrackPointExtension>
            <ns3:hr>166</ns3:hr>
            <ns3:cad>0</ns3:cad>
          </ns3:TrackPointExtension>
        </extensions>
      </trkpt>
      <trkpt lat="47.56423263810575008392333984375" lon="11.034126766026020050048828125">
        <ele>931.4000244140625</ele>
        <time>2026-09-01T06:27:19.000Z</time>
        <extensions>
          <ns3:TrackPointExtension>
            <ns3:hr>166</ns3:hr>
            <ns3:cad>0</ns3:cad>
          </ns3:TrackPointExtension>
        </extensions>
      </trkpt>
      <trkpt lat="47.564229033887386322021484375" lon="11.0341130197048187255859375">
        <ele>931.79998779296875</ele>
        <time>2026-09-01T06:27:20.000Z</time>
        <extensions>
          <ns3:TrackPointExtension>
            <ns3:hr>165</ns3:hr>
            <ns3:cad>0</ns3:cad>
          </ns3:TrackPointExtension>
        </extensions>
      </trkpt>
      <trkpt lat="47.56422157399356365203857421875" lon="11.034102626144886016845703125">
        <ele>932.20001220703125</ele>
        <time>2026-09-01T06:27:21.000Z</time>
        <extensions>
          <ns3:TrackPointExtension>
            <ns3:hr>165</ns3:hr>
            <ns3:cad>0</ns3:cad>
          </ns3:TrackPointExtension>
        </extensions>
      </trkpt>
      <trkpt lat="47.56421235390007495880126953125" lon="11.03408577851951122283935546875">
        <ele>932.5999755859375</ele>
        <time>2026-09-01T06:27:22.000Z</time>
        <extensions>
          <ns3:TrackPointExtension>
            <ns3:hr>165</ns3:hr>
            <ns3:cad>0</ns3:cad>
          </ns3:TrackPointExtension>
        </extensions>
      </trkpt>
      <trkpt lat="47.56421604193747043609619140625" lon="11.0340821743011474609375">
        <ele>933</ele>
        <time>2026-09-01T06:27:23.000Z</time>
        <extensions>
          <ns3:TrackPointExtension>
            <ns3:hr>164</ns3:hr>
            <ns3:cad>0</ns3:cad>
          </ns3:TrackPointExtension>
        </extensions>
      </trkpt>
      <trkpt lat="47.56420866586267948150634765625" lon="11.03407211601734161376953125">
        <ele>933.4000244140625</ele>
        <time>2026-09-01T06:27:24.000Z</time>
        <extensions>
          <ns3:TrackPointExtension>
            <ns3:hr>164</ns3:hr>
            <ns3:cad>0</ns3:cad>
          </ns3:TrackPointExtension>
        </extensions>
      </trkpt>
      <trkpt lat="47.56420346908271312713623046875" lon="11.03406599722802639007568359375">
        <ele>933.5999755859375</ele>
        <time>2026-09-01T06:27:25.000Z</time>
        <extensions>
          <ns3:TrackPointExtension>
            <ns3:hr>164</ns3:hr>
            <ns3:cad>0</ns3:cad>
          </ns3:TrackPointExtension>
        </extensions>
      </trkpt>
      <trkpt lat="47.56417999975383281707763671875" lon="11.03403900749981403350830078125">
        <ele>933.79998779296875</ele>
        <time>2026-09-01T06:27:26.000Z</time>
        <extensions>
          <ns3:TrackPointExtension>
            <ns3:hr>164</ns3:hr>
            <ns3:cad>0</ns3:cad>
          </ns3:TrackPointExtension>
        </extensions>
      </trkpt>
      <trkpt lat="47.564168684184551239013671875" lon="11.034022830426692962646484375">
        <ele>933.79998779296875</ele>
        <time>2026-09-01T06:27:27.000Z</time>
        <extensions>
          <ns3:TrackPointExtension>
            <ns3:hr>163</ns3:hr>
            <ns3:cad>0</ns3:cad>
          </ns3:TrackPointExtension>
        </extensions>
      </trkpt>
      <trkpt lat="47.56415904499590396881103515625" lon="11.0340001992881298065185546875">
        <ele>934</ele>
        <time>2026-09-01T06:27:28.000Z</time>
        <extensions>
          <ns3:TrackPointExtension>
            <ns3:hr>163</ns3:hr>
            <ns3:cad>0</ns3:cad>
          </ns3:TrackPointExtension>
        </extensions>
      </trkpt>
      <trkpt lat="47.5641343183815479278564453125" lon="11.03398905135691165924072265625">
        <ele>934</ele>
        <time>2026-09-01T06:27:29.000Z</time>
        <extensions>
          <ns3:TrackPointExtension>
            <ns3:hr>163</ns3:hr>
            <ns3:cad>0</ns3:cad>
          </ns3:TrackPointExtension>
        </extensions>
      </trkpt>
      <trkpt lat="47.564114034175872802734375" lon="11.03398184292018413543701171875">
        <ele>934</ele>
        <time>2026-09-01T06:27:30.000Z</time>
        <extensions>
          <ns3:TrackPointExtension>
            <ns3:hr>162</ns3:hr>
            <ns3:cad>0</ns3:cad>
          </ns3:TrackPointExtension>
        </extensions>
      </trkpt>
      <trkpt lat="47.5640960969030857086181640625" lon="11.03396155871450901031494140625">
        <ele>934.20001220703125</ele>
        <time>2026-09-01T06:27:31.000Z</time>
        <extensions>
          <ns3:TrackPointExtension>
            <ns3:hr>162</ns3:hr>
            <ns3:cad>74</ns3:cad>
          </ns3:TrackPointExtension>
        </extensions>
      </trkpt>
      <trkpt lat="47.564081847667694091796875" lon="11.033947058022022247314453125">
        <ele>934.4000244140625</ele>
        <time>2026-09-01T06:27:32.000Z</time>
        <extensions>
          <ns3:TrackPointExtension>
            <ns3:hr>162</ns3:hr>
            <ns3:cad>75</ns3:cad>
          </ns3:TrackPointExtension>
        </extensions>
      </trkpt>
      <trkpt lat="47.564067430794239044189453125" lon="11.033945046365261077880859375">
        <ele>934.79998779296875</ele>
        <time>2026-09-01T06:27:33.000Z</time>
        <extensions>
          <ns3:TrackPointExtension>
            <ns3:hr>162</ns3:hr>
            <ns3:cad>75</ns3:cad>
          </ns3:TrackPointExtension>
        </extensions>
      </trkpt>
      <trkpt lat="47.564058043062686920166015625" lon="11.03394412435591220855712890625">
        <ele>935</ele>
        <time>2026-09-01T06:27:34.000Z</time>
        <extensions>
          <ns3:TrackPointExtension>
            <ns3:hr>161</ns3:hr>
            <ns3:cad>75</ns3:cad>
          </ns3:TrackPointExtension>
        </extensions>
      </trkpt>
      <trkpt lat="47.564048655331134796142578125" lon="11.0339442081749439239501953125">
        <ele>935.4000244140625</ele>
        <time>2026-09-01T06:27:35.000Z</time>
        <extensions>
          <ns3:TrackPointExtension>
            <ns3:hr>161</ns3:hr>
            <ns3:cad>76</ns3:cad>
          </ns3:TrackPointExtension>
        </extensions>
      </trkpt>
      <trkpt lat="47.564033567905426025390625" lon="11.03394026868045330047607421875">
        <ele>935.5999755859375</ele>
        <time>2026-09-01T06:27:36.000Z</time>
        <extensions>
          <ns3:TrackPointExtension>
            <ns3:hr>161</ns3:hr>
            <ns3:cad>76</ns3:cad>
          </ns3:TrackPointExtension>
        </extensions>
      </trkpt>
      <trkpt lat="47.564031891524791717529296875" lon="11.0339418612420558929443359375">
        <ele>935.79998779296875</ele>
        <time>2026-09-01T06:27:37.000Z</time>
        <extensions>
          <ns3:TrackPointExtension>
            <ns3:hr>161</ns3:hr>
            <ns3:cad>76</ns3:cad>
          </ns3:TrackPointExtension>
        </extensions>
      </trkpt>
      <trkpt lat="47.56401621736586093902587890625" lon="11.03393540717661380767822265625">
        <ele>936</ele>
        <time>2026-09-01T06:27:38.000Z</time>
        <extensions>
          <ns3:TrackPointExtension>
            <ns3:hr>161</ns3:hr>
            <ns3:cad>76</ns3:cad>
          </ns3:TrackPointExtension>
        </extensions>
      </trkpt>
      <trkpt lat="47.56400397978723049163818359375" lon="11.03392937220633029937744140625">
        <ele>936.20001220703125</ele>
        <time>2026-09-01T06:27:39.000Z</time>
        <extensions>
          <ns3:TrackPointExtension>
            <ns3:hr>161</ns3:hr>
            <ns3:cad>76</ns3:cad>
          </ns3:TrackPointExtension>
        </extensions>
      </trkpt>
      <trkpt lat="47.56399760954082012176513671875" lon="11.03392568416893482208251953125">
        <ele>936.4000244140625</ele>
        <time>2026-09-01T06:27:40.000Z</time>
        <extensions>
          <ns3:TrackPointExtension>
            <ns3:hr>161</ns3:hr>
            <ns3:cad>76</ns3:cad>
          </ns3:TrackPointExtension>
        </extensions>
      </trkpt>
      <trkpt lat="47.563980929553508758544921875" lon="11.03391646407544612884521484375">
        <ele>936.79998779296875</ele>
        <time>2026-09-01T06:27:41.000Z</time>
        <extensions>
          <ns3:TrackPointExtension>
            <ns3:hr>161</ns3:hr>
            <ns3:cad>76</ns3:cad>
          </ns3:TrackPointExtension>
        </extensions>
      </trkpt>
      <trkpt lat="47.56396626122295856475830078125" lon="11.03391042910516262054443359375">
        <ele>937</ele>
        <time>2026-09-01T06:27:42.000Z</time>
        <extensions>
          <ns3:TrackPointExtension>
            <ns3:hr>161</ns3:hr>
            <ns3:cad>76</ns3:cad>
          </ns3:TrackPointExtension>
        </extensions>
      </trkpt>
      <trkpt lat="47.56397414021193981170654296875" lon="11.033888049423694610595703125">
        <ele>937.4000244140625</ele>
        <time>2026-09-01T06:27:43.000Z</time>
        <extensions>
          <ns3:TrackPointExtension>
            <ns3:hr>161</ns3:hr>
            <ns3:cad>76</ns3:cad>
          </ns3:TrackPointExtension>
        </extensions>
      </trkpt>
      <trkpt lat="47.5639636628329753875732421875" lon="11.033882014453411102294921875">
        <ele>937.79998779296875</ele>
        <time>2026-09-01T06:27:44.000Z</time>
        <extensions>
          <ns3:TrackPointExtension>
            <ns3:hr>161</ns3:hr>
            <ns3:cad>0</ns3:cad>
          </ns3:TrackPointExtension>
        </extensions>
      </trkpt>
      <trkpt lat="47.5639522634446620941162109375" lon="11.0338831879198551177978515625">
        <ele>938.20001220703125</ele>
        <time>2026-09-01T06:27:45.000Z</time>
        <extensions>
          <ns3:TrackPointExtension>
            <ns3:hr>161</ns3:hr>
            <ns3:cad>0</ns3:cad>
          </ns3:TrackPointExtension>
        </extensions>
      </trkpt>
      <trkpt lat="47.56394631229341030120849609375" lon="11.0338850319385528564453125">
        <ele>938.5999755859375</ele>
        <time>2026-09-01T06:27:46.000Z</time>
        <extensions>
          <ns3:TrackPointExtension>
            <ns3:hr>160</ns3:hr>
            <ns3:cad>0</ns3:cad>
          </ns3:TrackPointExtension>
        </extensions>
      </trkpt>
      <trkpt lat="47.56393826566636562347412109375" lon="11.03388595394790172576904296875">
        <ele>938.79998779296875</ele>
        <time>2026-09-01T06:27:47.000Z</time>
        <extensions>
          <ns3:TrackPointExtension>
            <ns3:hr>160</ns3:hr>
            <ns3:cad>0</ns3:cad>
          </ns3:TrackPointExtension>
        </extensions>
      </trkpt>
      <trkpt lat="47.56393323652446269989013671875" lon="11.03388545103371143341064453125">
        <ele>939.20001220703125</ele>
        <time>2026-09-01T06:27:48.000Z</time>
        <extensions>
          <ns3:TrackPointExtension>
            <ns3:hr>160</ns3:hr>
            <ns3:cad>0</ns3:cad>
          </ns3:TrackPointExtension>
        </extensions>
      </trkpt>
      <trkpt lat="47.56392787210643291473388671875" lon="11.0338788293302059173583984375">
        <ele>939.4000244140625</ele>
        <time>2026-09-01T06:27:49.000Z</time>
        <extensions>
          <ns3:TrackPointExtension>
            <ns3:hr>158</ns3:hr>
            <ns3:cad>0</ns3:cad>
          </ns3:TrackPointExtension>
        </extensions>
      </trkpt>
      <trkpt lat="47.56392921321094036102294921875" lon="11.03387539274990558624267578125">
        <ele>939.79998779296875</ele>
        <time>2026-09-01T06:27:50.000Z</time>
        <extensions>
          <ns3:TrackPointExtension>
            <ns3:hr>155</ns3:hr>
            <ns3:cad>0</ns3:cad>
          </ns3:TrackPointExtension>
        </extensions>
      </trkpt>
      <trkpt lat="47.56393172778189182281494140625" lon="11.0338781587779521942138671875">
        <ele>940</ele>
        <time>2026-09-01T06:27:51.000Z</time>
        <extensions>
          <ns3:TrackPointExtension>
            <ns3:hr>154</ns3:hr>
            <ns3:cad>0</ns3:cad>
          </ns3:TrackPointExtension>
        </extensions>
      </trkpt>
      <trkpt lat="47.56392334587872028350830078125" lon="11.03386483155190944671630859375">
        <ele>940.4000244140625</ele>
        <time>2026-09-01T06:27:52.000Z</time>
        <extensions>
          <ns3:TrackPointExtension>
            <ns3:hr>153</ns3:hr>
            <ns3:cad>0</ns3:cad>
          </ns3:TrackPointExtension>
        </extensions>
      </trkpt>
      <trkpt lat="47.56390993483364582061767578125" lon="11.03385292924940586090087890625">
        <ele>940.79998779296875</ele>
        <time>2026-09-01T06:27:53.000Z</time>
        <extensions>
          <ns3:TrackPointExtension>
            <ns3:hr>152</ns3:hr>
            <ns3:cad>0</ns3:cad>
          </ns3:TrackPointExtension>
        </extensions>
      </trkpt>
      <trkpt lat="47.56390624679625034332275390625" lon="11.03384203277528285980224609375">
        <ele>941</ele>
        <time>2026-09-01T06:27:54.000Z</time>
        <extensions>
          <ns3:TrackPointExtension>
            <ns3:hr>152</ns3:hr>
            <ns3:cad>0</ns3:cad>
          </ns3:TrackPointExtension>
        </extensions>
      </trkpt>
      <trkpt lat="47.56388093344867229461669921875" lon="11.03382057510316371917724609375">
        <ele>941.4000244140625</ele>
        <time>2026-09-01T06:27:55.000Z</time>
        <extensions>
          <ns3:TrackPointExtension>
            <ns3:hr>152</ns3:hr>
            <ns3:cad>0</ns3:cad>
          </ns3:TrackPointExtension>
        </extensions>
      </trkpt>
      <trkpt lat="47.5638630799949169158935546875" lon="11.03378889150917530059814453125">
        <ele>941.79998779296875</ele>
        <time>2026-09-01T06:27:56.000Z</time>
        <extensions>
          <ns3:TrackPointExtension>
            <ns3:hr>152</ns3:hr>
            <ns3:cad>0</ns3:cad>
          </ns3:TrackPointExtension>
        </extensions>
      </trkpt>
      <trkpt lat="47.5638510100543498992919921875" lon="11.03377380408346652984619140625">
        <ele>942.20001220703125</ele>
        <time>2026-09-01T06:27:57.000Z</time>
        <extensions>
          <ns3:TrackPointExtension>
            <ns3:hr>153</ns3:hr>
            <ns3:cad>0</ns3:cad>
          </ns3:TrackPointExtension>
        </extensions>
      </trkpt>
      <trkpt lat="47.56383969448506832122802734375" lon="11.03375385515391826629638671875">
        <ele>942.5999755859375</ele>
        <time>2026-09-01T06:27:58.000Z</time>
        <extensions>
          <ns3:TrackPointExtension>
            <ns3:hr>154</ns3:hr>
            <ns3:cad>0</ns3:cad>
          </ns3:TrackPointExtension>
        </extensions>
      </trkpt>
      <trkpt lat="47.56381832063198089599609375" lon="11.0337306372821331024169921875">
        <ele>942.79998779296875</ele>
        <time>2026-09-01T06:27:59.000Z</time>
        <extensions>
          <ns3:TrackPointExtension>
            <ns3:hr>158</ns3:hr>
            <ns3:cad>0</ns3:cad>
          </ns3:TrackPointExtension>
        </extensions>
      </trkpt>
      <trkpt lat="47.56379677914083003997802734375" lon="11.0337053239345550537109375">
        <ele>943.20001220703125</ele>
        <time>2026-09-01T06:28:00.000Z</time>
        <extensions>
          <ns3:TrackPointExtension>
            <ns3:hr>159</ns3:hr>
            <ns3:cad>0</ns3:cad>
          </ns3:TrackPointExtension>
        </extensions>
      </trkpt>
      <trkpt lat="47.5637903250753879547119140625" lon="11.03368897922337055206298828125">
        <ele>943.4000244140625</ele>
        <time>2026-09-01T06:28:01.000Z</time>
        <extensions>
          <ns3:TrackPointExtension>
            <ns3:hr>160</ns3:hr>
            <ns3:cad>0</ns3:cad>
          </ns3:TrackPointExtension>
        </extensions>
      </trkpt>
      <trkpt lat="47.56378345191478729248046875" lon="11.03368059732019901275634765625">
        <ele>943.4000244140625</ele>
        <time>2026-09-01T06:28:02.000Z</time>
        <extensions>
          <ns3:TrackPointExtension>
            <ns3:hr>160</ns3:hr>
            <ns3:cad>0</ns3:cad>
          </ns3:TrackPointExtension>
        </extensions>
      </trkpt>
      <trkpt lat="47.5637732259929180145263671875" lon="11.03367506526410579681396484375">
        <ele>943.5999755859375</ele>
        <time>2026-09-01T06:28:03.000Z</time>
        <extensions>
          <ns3:TrackPointExtension>
            <ns3:hr>161</ns3:hr>
            <ns3:cad>0</ns3:cad>
          </ns3:TrackPointExtension>
        </extensions>
      </trkpt>
      <trkpt lat="47.56375956349074840545654296875" lon="11.0336702875792980194091796875">
        <ele>943.79998779296875</ele>
        <time>2026-09-01T06:28:04.000Z</time>
        <extensions>
          <ns3:TrackPointExtension>
            <ns3:hr>162</ns3:hr>
            <ns3:cad>0</ns3:cad>
          </ns3:TrackPointExtension>
        </extensions>
      </trkpt>
      <trkpt lat="47.5637464039027690887451171875" lon="11.0336811840534210205078125">
        <ele>944</ele>
        <time>2026-09-01T06:28:05.000Z</time>
        <extensions>
          <ns3:TrackPointExtension>
            <ns3:hr>162</ns3:hr>
            <ns3:cad>0</ns3:cad>
          </ns3:TrackPointExtension>
        </extensions>
      </trkpt>
      <trkpt lat="47.56373207084834575653076171875" lon="11.03369518183171749114990234375">
        <ele>944.4000244140625</ele>
        <time>2026-09-01T06:28:06.000Z</time>
        <extensions>
          <ns3:TrackPointExtension>
            <ns3:hr>162</ns3:hr>
            <ns3:cad>0</ns3:cad>
          </ns3:TrackPointExtension>
        </extensions>
      </trkpt>
      <trkpt lat="47.5637105293571949005126953125" lon="11.03369400836527347564697265625">
        <ele>944.79998779296875</ele>
        <time>2026-09-01T06:28:07.000Z</time>
        <extensions>
          <ns3:TrackPointExtension>
            <ns3:hr>162</ns3:hr>
            <ns3:cad>0</ns3:cad>
          </ns3:TrackPointExtension>
        </extensions>
      </trkpt>
      <trkpt lat="47.56369435228407382965087890625" lon="11.03369970805943012237548828125">
        <ele>945.20001220703125</ele>
        <time>2026-09-01T06:28:08.000Z</time>
        <extensions>
          <ns3:TrackPointExtension>
            <ns3:hr>162</ns3:hr>
            <ns3:cad>0</ns3:cad>
          </ns3:TrackPointExtension>
        </extensions>
      </trkpt>
      <trkpt lat="47.563680522143840789794921875" lon="11.0337001271545886993408203125">
        <ele>945.5999755859375</ele>
        <time>2026-09-01T06:28:09.000Z</time>
        <extensions>
          <ns3:TrackPointExtension>
            <ns3:hr>161</ns3:hr>
            <ns3:cad>0</ns3:cad>
          </ns3:TrackPointExtension>
        </extensions>
      </trkpt>
      <trkpt lat="47.5636625848710536956787109375" lon="11.0336919128894805908203125">
        <ele>946</ele>
        <time>2026-09-01T06:28:10.000Z</time>
        <extensions>
          <ns3:TrackPointExtension>
            <ns3:hr>162</ns3:hr>
            <ns3:cad>0</ns3:cad>
          </ns3:TrackPointExtension>
        </extensions>
      </trkpt>
      <trkpt lat="47.5636535324156284332275390625" lon="11.03369149379432201385498046875">
        <ele>946.20001220703125</ele>
        <time>2026-09-01T06:28:11.000Z</time>
        <extensions>
          <ns3:TrackPointExtension>
            <ns3:hr>162</ns3:hr>
            <ns3:cad>0</ns3:cad>
          </ns3:TrackPointExtension>
        </extensions>
      </trkpt>
      <trkpt lat="47.56363819353282451629638671875" lon="11.03368411771953105926513671875">
        <ele>946.5999755859375</ele>
        <time>2026-09-01T06:28:12.000Z</time>
        <extensions>
          <ns3:TrackPointExtension>
            <ns3:hr>162</ns3:hr>
            <ns3:cad>0</ns3:cad>
          </ns3:TrackPointExtension>
        </extensions>
      </trkpt>
      <trkpt lat="47.563633583486080169677734375" lon="11.03367959149181842803955078125">
        <ele>946.79998779296875</ele>
        <time>2026-09-01T06:28:13.000Z</time>
        <extensions>
          <ns3:TrackPointExtension>
            <ns3:hr>163</ns3:hr>
            <ns3:cad>0</ns3:cad>
          </ns3:TrackPointExtension>
        </extensions>
      </trkpt>
      <trkpt lat="47.563631236553192138671875" lon="11.033672802150249481201171875">
        <ele>947.20001220703125</ele>
        <time>2026-09-01T06:28:14.000Z</time>
        <extensions>
          <ns3:TrackPointExtension>
            <ns3:hr>162</ns3:hr>
            <ns3:cad>0</ns3:cad>
          </ns3:TrackPointExtension>
        </extensions>
      </trkpt>
      <trkpt lat="47.56362746469676494598388671875" lon="11.0336689464747905731201171875">
        <ele>947.5999755859375</ele>
        <time>2026-09-01T06:28:15.000Z</time>
        <extensions>
          <ns3:TrackPointExtension>
            <ns3:hr>162</ns3:hr>
            <ns3:cad>0</ns3:cad>
          </ns3:TrackPointExtension>
        </extensions>
      </trkpt>
      <trkpt lat="47.56362763233482837677001953125" lon="11.03366433642804622650146484375">
        <ele>948</ele>
        <time>2026-09-01T06:28:16.000Z</time>
        <extensions>
          <ns3:TrackPointExtension>
            <ns3:hr>163</ns3:hr>
            <ns3:cad>43</ns3:cad>
          </ns3:TrackPointExtension>
        </extensions>
      </trkpt>
      <trkpt lat="47.5636287219822406768798828125" lon="11.0336585529148578643798828125">
        <ele>948.20001220703125</ele>
        <time>2026-09-01T06:28:17.000Z</time>
        <extensions>
          <ns3:TrackPointExtension>
            <ns3:hr>164</ns3:hr>
            <ns3:cad>43</ns3:cad>
          </ns3:TrackPointExtension>
        </extensions>
      </trkpt>
      <trkpt lat="47.56362629123032093048095703125" lon="11.03365142829716205596923828125">
        <ele>948.5999755859375</ele>
        <time>2026-09-01T06:28:18.000Z</time>
        <extensions>
          <ns3:TrackPointExtension>
            <ns3:hr>165</ns3:hr>
            <ns3:cad>43</ns3:cad>
          </ns3:TrackPointExtension>
        </extensions>
      </trkpt>
      <trkpt lat="47.5636325776576995849609375" lon="11.0336407832801342010498046875">
        <ele>949</ele>
        <time>2026-09-01T06:28:19.000Z</time>
        <extensions>
          <ns3:TrackPointExtension>
            <ns3:hr>165</ns3:hr>
            <ns3:cad>43</ns3:cad>
          </ns3:TrackPointExtension>
        </extensions>
      </trkpt>
      <trkpt lat="47.56364263594150543212890625" lon="11.03363147936761379241943359375">
        <ele>949.4000244140625</ele>
        <time>2026-09-01T06:28:20.000Z</time>
        <extensions>
          <ns3:TrackPointExtension>
            <ns3:hr>165</ns3:hr>
            <ns3:cad>43</ns3:cad>
          </ns3:TrackPointExtension>
        </extensions>
      </trkpt>
      <trkpt lat="47.5636645965278148651123046875" lon="11.0336223430931568145751953125">
        <ele>949.5999755859375</ele>
        <time>2026-09-01T06:28:21.000Z</time>
        <extensions>
          <ns3:TrackPointExtension>
            <ns3:hr>165</ns3:hr>
            <ns3:cad>53</ns3:cad>
          </ns3:TrackPointExtension>
        </extensions>
      </trkpt>
      <trkpt lat="47.56368664093315601348876953125" lon="11.03361203335225582122802734375">
        <ele>950</ele>
        <time>2026-09-01T06:28:22.000Z</time>
        <extensions>
          <ns3:TrackPointExtension>
            <ns3:hr>164</ns3:hr>
            <ns3:cad>53</ns3:cad>
          </ns3:TrackPointExtension>
        </extensions>
      </trkpt>
      <trkpt lat="47.56370541639626026153564453125" lon="11.03360331617295742034912109375">
        <ele>950.20001220703125</ele>
        <time>2026-09-01T06:28:23.000Z</time>
        <extensions>
          <ns3:TrackPointExtension>
            <ns3:hr>165</ns3:hr>
            <ns3:cad>0</ns3:cad>
          </ns3:TrackPointExtension>
        </extensions>
      </trkpt>
      <trkpt lat="47.5637195818126201629638671875" lon="11.0335985384881496429443359375">
        <ele>950.4000244140625</ele>
        <time>2026-09-01T06:28:24.000Z</time>
        <extensions>
          <ns3:TrackPointExtension>
            <ns3:hr>165</ns3:hr>
            <ns3:cad>0</ns3:cad>
          </ns3:TrackPointExtension>
        </extensions>
      </trkpt>
      <trkpt lat="47.56372176110744476318359375" lon="11.03358688764274120330810546875">
        <ele>950.79998779296875</ele>
        <time>2026-09-01T06:28:25.000Z</time>
        <extensions>
          <ns3:TrackPointExtension>
            <ns3:hr>165</ns3:hr>
            <ns3:cad>0</ns3:cad>
          </ns3:TrackPointExtension>
        </extensions>
      </trkpt>
      <trkpt lat="47.563712708652019500732421875" lon="11.033567525446414947509765625">
        <ele>951.20001220703125</ele>
        <time>2026-09-01T06:28:26.000Z</time>
        <extensions>
          <ns3:TrackPointExtension>
            <ns3:hr>164</ns3:hr>
            <ns3:cad>0</ns3:cad>
          </ns3:TrackPointExtension>
        </extensions>
      </trkpt>
      <trkpt lat="47.5636981241405010223388671875" lon="11.033558137714862823486328125">
        <ele>951.5999755859375</ele>
        <time>2026-09-01T06:28:27.000Z</time>
        <extensions>
          <ns3:TrackPointExtension>
            <ns3:hr>165</ns3:hr>
            <ns3:cad>0</ns3:cad>
          </ns3:TrackPointExtension>
        </extensions>
      </trkpt>
      <trkpt lat="47.5636957772076129913330078125" lon="11.03355352766811847686767578125">
        <ele>952</ele>
        <time>2026-09-01T06:28:28.000Z</time>
        <extensions>
          <ns3:TrackPointExtension>
            <ns3:hr>165</ns3:hr>
            <ns3:cad>73</ns3:cad>
          </ns3:TrackPointExtension>
        </extensions>
      </trkpt>
      <trkpt lat="47.56368781439960002899169921875" lon="11.0335470736026763916015625">
        <ele>952.4000244140625</ele>
        <time>2026-09-01T06:28:29.000Z</time>
        <extensions>
          <ns3:TrackPointExtension>
            <ns3:hr>165</ns3:hr>
            <ns3:cad>73</ns3:cad>
          </ns3:TrackPointExtension>
        </extensions>
      </trkpt>
      <trkpt lat="47.56367591209709644317626953125" lon="11.03353743441402912139892578125">
        <ele>952.5999755859375</ele>
        <time>2026-09-01T06:28:30.000Z</time>
        <extensions>
          <ns3:TrackPointExtension>
            <ns3:hr>164</ns3:hr>
            <ns3:cad>73</ns3:cad>
          </ns3:TrackPointExtension>
        </extensions>
      </trkpt>
      <trkpt lat="47.56365881301462650299072265625" lon="11.03352494537830352783203125">
        <ele>953</ele>
        <time>2026-09-01T06:28:31.000Z</time>
        <extensions>
          <ns3:TrackPointExtension>
            <ns3:hr>164</ns3:hr>
            <ns3:cad>73</ns3:cad>
          </ns3:TrackPointExtension>
        </extensions>
      </trkpt>
      <trkpt lat="47.563650347292423248291015625" lon="11.03352301754057407379150390625">
        <ele>953.20001220703125</ele>
        <time>2026-09-01T06:28:32.000Z</time>
        <extensions>
          <ns3:TrackPointExtension>
            <ns3:hr>164</ns3:hr>
            <ns3:cad>0</ns3:cad>
          </ns3:TrackPointExtension>
        </extensions>
      </trkpt>
      <trkpt lat="47.56364489905536174774169921875" lon="11.03351446799933910369873046875">
        <ele>953.4000244140625</ele>
        <time>2026-09-01T06:28:33.000Z</time>
        <extensions>
          <ns3:TrackPointExtension>
            <ns3:hr>165</ns3:hr>
            <ns3:cad>0</ns3:cad>
          </ns3:TrackPointExtension>
        </extensions>
      </trkpt>
      <trkpt lat="47.5636330805718898773193359375" lon="11.03350860066711902618408203125">
        <ele>953.79998779296875</ele>
        <time>2026-09-01T06:28:34.000Z</time>
        <extensions>
          <ns3:TrackPointExtension>
            <ns3:hr>164</ns3:hr>
            <ns3:cad>0</ns3:cad>
          </ns3:TrackPointExtension>
        </extensions>
      </trkpt>
      <trkpt lat="47.56362612359225749969482421875" lon="11.03350122459232807159423828125">
        <ele>954</ele>
        <time>2026-09-01T06:28:35.000Z</time>
        <extensions>
          <ns3:TrackPointExtension>
            <ns3:hr>164</ns3:hr>
            <ns3:cad>0</ns3:cad>
          </ns3:TrackPointExtension>
        </extensions>
      </trkpt>
      <trkpt lat="47.56360785104334354400634765625" lon="11.033485047519207000732421875">
        <ele>954.20001220703125</ele>
        <time>2026-09-01T06:28:36.000Z</time>
        <extensions>
          <ns3:TrackPointExtension>
            <ns3:hr>165</ns3:hr>
            <ns3:cad>0</ns3:cad>
          </ns3:TrackPointExtension>
        </extensions>
      </trkpt>
      <trkpt lat="47.5635975413024425506591796875" lon="11.03347356431186199188232421875">
        <ele>954.4000244140625</ele>
        <time>2026-09-01T06:28:37.000Z</time>
        <extensions>
          <ns3:TrackPointExtension>
            <ns3:hr>164</ns3:hr>
            <ns3:cad>0</ns3:cad>
          </ns3:TrackPointExtension>
        </extensions>
      </trkpt>
      <trkpt lat="47.56358823738992214202880859375" lon="11.03345529176294803619384765625">
        <ele>954.5999755859375</ele>
        <time>2026-09-01T06:28:38.000Z</time>
        <extensions>
          <ns3:TrackPointExtension>
            <ns3:hr>164</ns3:hr>
            <ns3:cad>71</ns3:cad>
          </ns3:TrackPointExtension>
        </extensions>
      </trkpt>
      <trkpt lat="47.56357884965837001800537109375" lon="11.03344154544174671173095703125">
        <ele>954.79998779296875</ele>
        <time>2026-09-01T06:28:39.000Z</time>
        <extensions>
          <ns3:TrackPointExtension>
            <ns3:hr>164</ns3:hr>
            <ns3:cad>71</ns3:cad>
          </ns3:TrackPointExtension>
        </extensions>
      </trkpt>
      <trkpt lat="47.5635673664510250091552734375" lon="11.03343299590051174163818359375">
        <ele>955.20001220703125</ele>
        <time>2026-09-01T06:28:40.000Z</time>
        <extensions>
          <ns3:TrackPointExtension>
            <ns3:hr>165</ns3:hr>
            <ns3:cad>74</ns3:cad>
          </ns3:TrackPointExtension>
        </extensions>
      </trkpt>
      <trkpt lat="47.5635549612343311309814453125" lon="11.03342763148248195648193359375">
        <ele>955.4000244140625</ele>
        <time>2026-09-01T06:28:41.000Z</time>
        <extensions>
          <ns3:TrackPointExtension>
            <ns3:hr>164</ns3:hr>
            <ns3:cad>74</ns3:cad>
          </ns3:TrackPointExtension>
        </extensions>
      </trkpt>
      <trkpt lat="47.56354180164635181427001953125" lon="11.03342008776962757110595703125">
        <ele>955.79998779296875</ele>
        <time>2026-09-01T06:28:42.000Z</time>
        <extensions>
          <ns3:TrackPointExtension>
            <ns3:hr>164</ns3:hr>
            <ns3:cad>72</ns3:cad>
          </ns3:TrackPointExtension>
        </extensions>
      </trkpt>
      <trkpt lat="47.5635378621518611907958984375" lon="11.03340969420969486236572265625">
        <ele>956.20001220703125</ele>
        <time>2026-09-01T06:28:43.000Z</time>
        <extensions>
          <ns3:TrackPointExtension>
            <ns3:hr>165</ns3:hr>
            <ns3:cad>72</ns3:cad>
          </ns3:TrackPointExtension>
        </extensions>
      </trkpt>
      <trkpt lat="47.56353677250444889068603515625" lon="11.03340181522071361541748046875">
        <ele>956.4000244140625</ele>
        <time>2026-09-01T06:28:44.000Z</time>
        <extensions>
          <ns3:TrackPointExtension>
            <ns3:hr>164</ns3:hr>
            <ns3:cad>72</ns3:cad>
          </ns3:TrackPointExtension>
        </extensions>
      </trkpt>
      <trkpt lat="47.56353559903800487518310546875" lon="11.03339326567947864532470703125">
        <ele>956.79998779296875</ele>
        <time>2026-09-01T06:28:45.000Z</time>
        <extensions>
          <ns3:TrackPointExtension>
            <ns3:hr>164</ns3:hr>
            <ns3:cad>0</ns3:cad>
          </ns3:TrackPointExtension>
        </extensions>
      </trkpt>
      <trkpt lat="47.56354280747473239898681640625" lon="11.033377759158611297607421875">
        <ele>957.20001220703125</ele>
        <time>2026-09-01T06:28:46.000Z</time>
        <extensions>
          <ns3:TrackPointExtension>
            <ns3:hr>164</ns3:hr>
            <ns3:cad>0</ns3:cad>
          </ns3:TrackPointExtension>
        </extensions>
      </trkpt>
      <trkpt lat="47.5635324977338314056396484375" lon="11.03336560539901256561279296875">
        <ele>957.5999755859375</ele>
        <time>2026-09-01T06:28:47.000Z</time>
        <extensions>
          <ns3:TrackPointExtension>
            <ns3:hr>163</ns3:hr>
            <ns3:cad>0</ns3:cad>
          </ns3:TrackPointExtension>
        </extensions>
      </trkpt>
      <trkpt lat="47.56352730095386505126953125" lon="11.03335806168615818023681640625">
        <ele>958</ele>
        <time>2026-09-01T06:28:48.000Z</time>
        <extensions>
          <ns3:TrackPointExtension>
            <ns3:hr>163</ns3:hr>
            <ns3:cad>0</ns3:cad>
          </ns3:TrackPointExtension>
        </extensions>
      </trkpt>
      <trkpt lat="47.56352595984935760498046875" lon="11.03334750048816204071044921875">
        <ele>958.20001220703125</ele>
        <time>2026-09-01T06:28:49.000Z</time>
        <extensions>
          <ns3:TrackPointExtension>
            <ns3:hr>162</ns3:hr>
            <ns3:cad>0</ns3:cad>
          </ns3:TrackPointExtension>
        </extensions>
      </trkpt>
      <trkpt lat="47.56352839060127735137939453125" lon="11.0333360172808170318603515625">
        <ele>958.5999755859375</ele>
        <time>2026-09-01T06:28:50.000Z</time>
        <extensions>
          <ns3:TrackPointExtension>
            <ns3:hr>162</ns3:hr>
            <ns3:cad>0</ns3:cad>
          </ns3:TrackPointExtension>
        </extensions>
      </trkpt>
      <trkpt lat="47.563526965677738189697265625" lon="11.03332486934959888458251953125">
        <ele>959</ele>
        <time>2026-09-01T06:28:51.000Z</time>
        <extensions>
          <ns3:TrackPointExtension>
            <ns3:hr>161</ns3:hr>
            <ns3:cad>0</ns3:cad>
          </ns3:TrackPointExtension>
        </extensions>
      </trkpt>
      <trkpt lat="47.5635231100022792816162109375" lon="11.03331548161804676055908203125">
        <ele>959.4000244140625</ele>
        <time>2026-09-01T06:28:52.000Z</time>
        <extensions>
          <ns3:TrackPointExtension>
            <ns3:hr>161</ns3:hr>
            <ns3:cad>0</ns3:cad>
          </ns3:TrackPointExtension>
        </extensions>
      </trkpt>
      <trkpt lat="47.56352537311613559722900390625" lon="11.03330676443874835968017578125">
        <ele>960</ele>
        <time>2026-09-01T06:28:53.000Z</time>
        <extensions>
          <ns3:TrackPointExtension>
            <ns3:hr>161</ns3:hr>
            <ns3:cad>0</ns3:cad>
          </ns3:TrackPointExtension>
        </extensions>
      </trkpt>
      <trkpt lat="47.563533671200275421142578125" lon="11.03328949771821498870849609375">
        <ele>960.20001220703125</ele>
        <time>2026-09-01T06:28:54.000Z</time>
        <extensions>
          <ns3:TrackPointExtension>
            <ns3:hr>161</ns3:hr>
            <ns3:cad>0</ns3:cad>
          </ns3:TrackPointExtension>
        </extensions>
      </trkpt>
      <trkpt lat="47.56352654658257961273193359375" lon="11.03326032869517803192138671875">
        <ele>960.79998779296875</ele>
        <time>2026-09-01T06:28:55.000Z</time>
        <extensions>
          <ns3:TrackPointExtension>
            <ns3:hr>165</ns3:hr>
            <ns3:cad>0</ns3:cad>
          </ns3:TrackPointExtension>
        </extensions>
      </trkpt>
      <trkpt lat="47.56352034397423267364501953125" lon="11.03323124349117279052734375">
        <ele>961</ele>
        <time>2026-09-01T06:28:56.000Z</time>
        <extensions>
          <ns3:TrackPointExtension>
            <ns3:hr>176</ns3:hr>
            <ns3:cad>0</ns3:cad>
          </ns3:TrackPointExtension>
        </extensions>
      </trkpt>
      <trkpt lat="47.5635237805545330047607421875" lon="11.03320978581905364990234375">
        <ele>961.4000244140625</ele>
        <time>2026-09-01T06:28:57.000Z</time>
        <extensions>
          <ns3:TrackPointExtension>
            <ns3:hr>178</ns3:hr>
            <ns3:cad>0</ns3:cad>
          </ns3:TrackPointExtension>
        </extensions>
      </trkpt>
      <trkpt lat="47.563512884080410003662109375" lon="11.03318388573825359344482421875">
        <ele>961.5999755859375</ele>
        <time>2026-09-01T06:28:58.000Z</time>
        <extensions>
          <ns3:TrackPointExtension>
            <ns3:hr>178</ns3:hr>
            <ns3:cad>0</ns3:cad>
          </ns3:TrackPointExtension>
        </extensions>
      </trkpt>
      <trkpt lat="47.56350575946271419525146484375" lon="11.03316963650286197662353515625">
        <ele>961.79998779296875</ele>
        <time>2026-09-01T06:28:59.000Z</time>
        <extensions>
          <ns3:TrackPointExtension>
            <ns3:hr>179</ns3:hr>
            <ns3:cad>0</ns3:cad>
          </ns3:TrackPointExtension>
        </extensions>
      </trkpt>
      <trkpt lat="47.56350207142531871795654296875" lon="11.033153794705867767333984375">
        <ele>962</ele>
        <time>2026-09-01T06:29:00.000Z</time>
        <extensions>
          <ns3:TrackPointExtension>
            <ns3:hr>180</ns3:hr>
            <ns3:cad>0</ns3:cad>
          </ns3:TrackPointExtension>
        </extensions>
      </trkpt>
      <trkpt lat="47.563500814139842987060546875" lon="11.03314180858433246612548828125">
        <ele>962.20001220703125</ele>
        <time>2026-09-01T06:29:01.000Z</time>
        <extensions>
          <ns3:TrackPointExtension>
            <ns3:hr>180</ns3:hr>
            <ns3:cad>0</ns3:cad>
          </ns3:TrackPointExtension>
        </extensions>
      </trkpt>
      <trkpt lat="47.563492767512798309326171875" lon="11.03312253020703792572021484375">
        <ele>962.5999755859375</ele>
        <time>2026-09-01T06:29:02.000Z</time>
        <extensions>
          <ns3:TrackPointExtension>
            <ns3:hr>180</ns3:hr>
            <ns3:cad>0</ns3:cad>
          </ns3:TrackPointExtension>
        </extensions>
      </trkpt>
      <trkpt lat="47.56348036229610443115234375" lon="11.0331033356487751007080078125">
        <ele>962.79998779296875</ele>
        <time>2026-09-01T06:29:03.000Z</time>
        <extensions>
          <ns3:TrackPointExtension>
            <ns3:hr>180</ns3:hr>
            <ns3:cad>0</ns3:cad>
          </ns3:TrackPointExtension>
        </extensions>
      </trkpt>
      <trkpt lat="47.56346762180328369140625" lon="11.03308145888149738311767578125">
        <ele>963.20001220703125</ele>
        <time>2026-09-01T06:29:04.000Z</time>
        <extensions>
          <ns3:TrackPointExtension>
            <ns3:hr>180</ns3:hr>
            <ns3:cad>0</ns3:cad>
          </ns3:TrackPointExtension>
        </extensions>
      </trkpt>
      <trkpt lat="47.5634584017097949981689453125" lon="11.0330610908567905426025390625">
        <ele>963.5999755859375</ele>
        <time>2026-09-01T06:29:05.000Z</time>
        <extensions>
          <ns3:TrackPointExtension>
            <ns3:hr>180</ns3:hr>
            <ns3:cad>0</ns3:cad>
          </ns3:TrackPointExtension>
        </extensions>
      </trkpt>
      <trkpt lat="47.5634557195007801055908203125" lon="11.03303401730954647064208984375">
        <ele>964</ele>
        <time>2026-09-01T06:29:06.000Z</time>
        <extensions>
          <ns3:TrackPointExtension>
            <ns3:hr>180</ns3:hr>
            <ns3:cad>0</ns3:cad>
          </ns3:TrackPointExtension>
        </extensions>
      </trkpt>
      <trkpt lat="47.56345664151012897491455078125" lon="11.03301809169352054595947265625">
        <ele>964.4000244140625</ele>
        <time>2026-09-01T06:29:07.000Z</time>
        <extensions>
          <ns3:TrackPointExtension>
            <ns3:hr>180</ns3:hr>
            <ns3:cad>0</ns3:cad>
          </ns3:TrackPointExtension>
        </extensions>
      </trkpt>
      <trkpt lat="47.56345412693917751312255859375" lon="11.0329906828701496124267578125">
        <ele>964.5999755859375</ele>
        <time>2026-09-01T06:29:08.000Z</time>
        <extensions>
          <ns3:TrackPointExtension>
            <ns3:hr>180</ns3:hr>
            <ns3:cad>0</ns3:cad>
          </ns3:TrackPointExtension>
        </extensions>
      </trkpt>
      <trkpt lat="47.56345781497657299041748046875" lon="11.0329816304147243499755859375">
        <ele>964.79998779296875</ele>
        <time>2026-09-01T06:29:09.000Z</time>
        <extensions>
          <ns3:TrackPointExtension>
            <ns3:hr>180</ns3:hr>
            <ns3:cad>0</ns3:cad>
          </ns3:TrackPointExtension>
        </extensions>
      </trkpt>
      <trkpt lat="47.56345530040562152862548828125" lon="11.03296595625579357147216796875">
        <ele>965.20001220703125</ele>
        <time>2026-09-01T06:29:10.000Z</time>
        <extensions>
          <ns3:TrackPointExtension>
            <ns3:hr>180</ns3:hr>
            <ns3:cad>0</ns3:cad>
          </ns3:TrackPointExtension>
        </extensions>
      </trkpt>
      <trkpt lat="47.563453875482082366943359375" lon="11.032955981791019439697265625">
        <ele>965.4000244140625</ele>
        <time>2026-09-01T06:29:11.000Z</time>
        <extensions>
          <ns3:TrackPointExtension>
            <ns3:hr>180</ns3:hr>
            <ns3:cad>0</ns3:cad>
          </ns3:TrackPointExtension>
        </extensions>
      </trkpt>
      <trkpt lat="47.56344725377857685089111328125" lon="11.0329236276447772979736328125">
        <ele>965.79998779296875</ele>
        <time>2026-09-01T06:29:12.000Z</time>
        <extensions>
          <ns3:TrackPointExtension>
            <ns3:hr>179</ns3:hr>
            <ns3:cad>0</ns3:cad>
          </ns3:TrackPointExtension>
        </extensions>
      </trkpt>
      <trkpt lat="47.56343551911413669586181640625" lon="11.03290476836264133453369140625">
        <ele>966</ele>
        <time>2026-09-01T06:29:13.000Z</time>
        <extensions>
          <ns3:TrackPointExtension>
            <ns3:hr>180</ns3:hr>
            <ns3:cad>0</ns3:cad>
          </ns3:TrackPointExtension>
        </extensions>
      </trkpt>
      <trkpt lat="47.563423700630664825439453125" lon="11.0328845679759979248046875">
        <ele>966.4000244140625</ele>
        <time>2026-09-01T06:29:14.000Z</time>
        <extensions>
          <ns3:TrackPointExtension>
            <ns3:hr>180</ns3:hr>
            <ns3:cad>0</ns3:cad>
          </ns3:TrackPointExtension>
        </extensions>
      </trkpt>
      <trkpt lat="47.563419006764888763427734375" lon="11.03287073783576488494873046875">
        <ele>966.79998779296875</ele>
        <time>2026-09-01T06:29:15.000Z</time>
        <extensions>
          <ns3:TrackPointExtension>
            <ns3:hr>179</ns3:hr>
            <ns3:cad>0</ns3:cad>
          </ns3:TrackPointExtension>
        </extensions>
      </trkpt>
      <trkpt lat="47.56341992877423763275146484375" lon="11.032856740057468414306640625">
        <ele>967.4000244140625</ele>
        <time>2026-09-01T06:29:16.000Z</time>
        <extensions>
          <ns3:TrackPointExtension>
            <ns3:hr>180</ns3:hr>
            <ns3:cad>0</ns3:cad>
          </ns3:TrackPointExtension>
        </extensions>
      </trkpt>
      <trkpt lat="47.56341397762298583984375" lon="11.03283352218568325042724609375">
        <ele>967.79998779296875</ele>
        <time>2026-09-01T06:29:17.000Z</time>
        <extensions>
          <ns3:TrackPointExtension>
            <ns3:hr>179</ns3:hr>
            <ns3:cad>0</ns3:cad>
          </ns3:TrackPointExtension>
        </extensions>
      </trkpt>
      <trkpt lat="47.563415654003620147705078125" lon="11.032824553549289703369140625">
        <ele>968</ele>
        <time>2026-09-01T06:29:18.000Z</time>
        <extensions>
          <ns3:TrackPointExtension>
            <ns3:hr>179</ns3:hr>
            <ns3:cad>0</ns3:cad>
          </ns3:TrackPointExtension>
        </extensions>
      </trkpt>
      <trkpt lat="47.5634174980223178863525390625" lon="11.0328079573810100555419921875">
        <ele>968.4000244140625</ele>
        <time>2026-09-01T06:29:19.000Z</time>
        <extensions>
          <ns3:TrackPointExtension>
            <ns3:hr>179</ns3:hr>
            <ns3:cad>0</ns3:cad>
          </ns3:TrackPointExtension>
        </extensions>
      </trkpt>
      <trkpt lat="47.56341959349811077117919921875" lon="11.0327995754778385162353515625">
        <ele>968.79998779296875</ele>
        <time>2026-09-01T06:29:20.000Z</time>
        <extensions>
          <ns3:TrackPointExtension>
            <ns3:hr>178</ns3:hr>
            <ns3:cad>0</ns3:cad>
          </ns3:TrackPointExtension>
        </extensions>
      </trkpt>
      <trkpt lat="47.56342344917356967926025390625" lon="11.03278691880404949188232421875">
        <ele>969</ele>
        <time>2026-09-01T06:29:21.000Z</time>
        <extensions>
          <ns3:TrackPointExtension>
            <ns3:hr>178</ns3:hr>
            <ns3:cad>0</ns3:cad>
          </ns3:TrackPointExtension>
        </extensions>
      </trkpt>
      <trkpt lat="47.56342462264001369476318359375" lon="11.0327772796154022216796875">
        <ele>969.4000244140625</ele>
        <time>2026-09-01T06:29:22.000Z</time>
        <extensions>
          <ns3:TrackPointExtension>
            <ns3:hr>178</ns3:hr>
            <ns3:cad>0</ns3:cad>
          </ns3:TrackPointExtension>
        </extensions>
      </trkpt>
      <trkpt lat="47.56341733038425445556640625" lon="11.03276051580905914306640625">
        <ele>969.79998779296875</ele>
        <time>2026-09-01T06:29:23.000Z</time>
        <extensions>
          <ns3:TrackPointExtension>
            <ns3:hr>178</ns3:hr>
            <ns3:cad>0</ns3:cad>
          </ns3:TrackPointExtension>
        </extensions>
      </trkpt>
      <trkpt lat="47.5634228624403476715087890625" lon="11.03274987079203128814697265625">
        <ele>970.4000244140625</ele>
        <time>2026-09-01T06:29:24.000Z</time>
        <extensions>
          <ns3:TrackPointExtension>
            <ns3:hr>178</ns3:hr>
            <ns3:cad>0</ns3:cad>
          </ns3:TrackPointExtension>
        </extensions>
      </trkpt>
      <trkpt lat="47.56342059932649135589599609375" lon="11.032745428383350372314453125">
        <ele>970.79998779296875</ele>
        <time>2026-09-01T06:29:25.000Z</time>
        <extensions>
          <ns3:TrackPointExtension>
            <ns3:hr>177</ns3:hr>
            <ns3:cad>0</ns3:cad>
          </ns3:TrackPointExtension>
        </extensions>
      </trkpt>
      <trkpt lat="47.56341422908008098602294921875" lon="11.03272506035864353179931640625">
        <ele>971.20001220703125</ele>
        <time>2026-09-01T06:29:26.000Z</time>
        <extensions>
          <ns3:TrackPointExtension>
            <ns3:hr>177</ns3:hr>
            <ns3:cad>0</ns3:cad>
          </ns3:TrackPointExtension>
        </extensions>
      </trkpt>
      <trkpt lat="47.56341557018458843231201171875" lon="11.0327289998531341552734375">
        <ele>971.5999755859375</ele>
        <time>2026-09-01T06:29:27.000Z</time>
        <extensions>
          <ns3:TrackPointExtension>
            <ns3:hr>176</ns3:hr>
            <ns3:cad>0</ns3:cad>
          </ns3:TrackPointExtension>
        </extensions>
      </trkpt>
      <trkpt lat="47.563417665660381317138671875" lon="11.03271625936031341552734375">
        <ele>972</ele>
        <time>2026-09-01T06:29:28.000Z</time>
        <extensions>
          <ns3:TrackPointExtension>
            <ns3:hr>176</ns3:hr>
            <ns3:cad>0</ns3:cad>
          </ns3:TrackPointExtension>
        </extensions>
      </trkpt>
      <trkpt lat="47.56342001259326934814453125" lon="11.03270745836198329925537109375">
        <ele>972.4000244140625</ele>
        <time>2026-09-01T06:29:29.000Z</time>
        <extensions>
          <ns3:TrackPointExtension>
            <ns3:hr>175</ns3:hr>
            <ns3:cad>0</ns3:cad>
          </ns3:TrackPointExtension>
        </extensions>
      </trkpt>
      <trkpt lat="47.56340852938592433929443359375" lon="11.0326926223933696746826171875">
        <ele>972.5999755859375</ele>
        <time>2026-09-01T06:29:30.000Z</time>
        <extensions>
          <ns3:TrackPointExtension>
            <ns3:hr>174</ns3:hr>
            <ns3:cad>0</ns3:cad>
          </ns3:TrackPointExtension>
        </extensions>
      </trkpt>
      <trkpt lat="47.56340836174786090850830078125" lon="11.03268465958535671234130859375">
        <ele>973</ele>
        <time>2026-09-01T06:29:31.000Z</time>
        <extensions>
          <ns3:TrackPointExtension>
            <ns3:hr>174</ns3:hr>
            <ns3:cad>0</ns3:cad>
          </ns3:TrackPointExtension>
        </extensions>
      </trkpt>
      <trkpt lat="47.56340467371046543121337890625" lon="11.03267828933894634246826171875">
        <ele>973.20001220703125</ele>
        <time>2026-09-01T06:29:32.000Z</time>
        <extensions>
          <ns3:TrackPointExtension>
            <ns3:hr>173</ns3:hr>
            <ns3:cad>0</ns3:cad>
          </ns3:TrackPointExtension>
        </extensions>
      </trkpt>
      <trkpt lat="47.56339377723634243011474609375" lon="11.03266605176031589508056640625">
        <ele>973.5999755859375</ele>
        <time>2026-09-01T06:29:33.000Z</time>
        <extensions>
          <ns3:TrackPointExtension>
            <ns3:hr>172</ns3:hr>
            <ns3:cad>0</ns3:cad>
          </ns3:TrackPointExtension>
        </extensions>
      </trkpt>
      <trkpt lat="47.56338858045637607574462890625" lon="11.03265934623777866363525390625">
        <ele>974</ele>
        <time>2026-09-01T06:29:34.000Z</time>
        <extensions>
          <ns3:TrackPointExtension>
            <ns3:hr>172</ns3:hr>
            <ns3:cad>0</ns3:cad>
          </ns3:TrackPointExtension>
        </extensions>
      </trkpt>
      <trkpt lat="47.56338740698993206024169921875" lon="11.0326404869556427001953125">
        <ele>974.4000244140625</ele>
        <time>2026-09-01T06:29:35.000Z</time>
        <extensions>
          <ns3:TrackPointExtension>
            <ns3:hr>172</ns3:hr>
            <ns3:cad>0</ns3:cad>
          </ns3:TrackPointExtension>
        </extensions>
      </trkpt>
      <trkpt lat="47.56338489241898059844970703125" lon="11.03263218887150287628173828125">
        <ele>974.79998779296875</ele>
        <time>2026-09-01T06:29:36.000Z</time>
        <extensions>
          <ns3:TrackPointExtension>
            <ns3:hr>172</ns3:hr>
            <ns3:cad>0</ns3:cad>
          </ns3:TrackPointExtension>
        </extensions>
      </trkpt>
      <trkpt lat="47.56338179111480712890625" lon="11.0326195321977138519287109375">
        <ele>975.20001220703125</ele>
        <time>2026-09-01T06:29:37.000Z</time>
        <extensions>
          <ns3:TrackPointExtension>
            <ns3:hr>172</ns3:hr>
            <ns3:cad>0</ns3:cad>
          </ns3:TrackPointExtension>
        </extensions>
      </trkpt>
      <trkpt lat="47.563375420868396759033203125" lon="11.0326054506003856658935546875">
        <ele>975.5999755859375</ele>
        <time>2026-09-01T06:29:38.000Z</time>
        <extensions>
          <ns3:TrackPointExtension>
            <ns3:hr>172</ns3:hr>
            <ns3:cad>0</ns3:cad>
          </ns3:TrackPointExtension>
        </extensions>
      </trkpt>
      <trkpt lat="47.5633742474019527435302734375" lon="11.03259363211691379547119140625">
        <ele>976.20001220703125</ele>
        <time>2026-09-01T06:29:39.000Z</time>
        <extensions>
          <ns3:TrackPointExtension>
            <ns3:hr>172</ns3:hr>
            <ns3:cad>0</ns3:cad>
          </ns3:TrackPointExtension>
        </extensions>
      </trkpt>
      <trkpt lat="47.56336393766105175018310546875" lon="11.032573767006397247314453125">
        <ele>976.5999755859375</ele>
        <time>2026-09-01T06:29:40.000Z</time>
        <extensions>
          <ns3:TrackPointExtension>
            <ns3:hr>172</ns3:hr>
            <ns3:cad>0</ns3:cad>
          </ns3:TrackPointExtension>
        </extensions>
      </trkpt>
      <trkpt lat="47.5633662007749080657958984375" lon="11.03255390189588069915771484375">
        <ele>976.79998779296875</ele>
        <time>2026-09-01T06:29:41.000Z</time>
        <extensions>
          <ns3:TrackPointExtension>
            <ns3:hr>172</ns3:hr>
            <ns3:cad>0</ns3:cad>
          </ns3:TrackPointExtension>
        </extensions>
      </trkpt>
      <trkpt lat="47.56336259655654430389404296875" lon="11.0325394012033939361572265625">
        <ele>977.20001220703125</ele>
        <time>2026-09-01T06:29:42.000Z</time>
        <extensions>
          <ns3:TrackPointExtension>
            <ns3:hr>172</ns3:hr>
            <ns3:cad>0</ns3:cad>
          </ns3:TrackPointExtension>
        </extensions>
      </trkpt>
      <trkpt lat="47.5633554719388484954833984375" lon="11.0325286723673343658447265625">
        <ele>977.4000244140625</ele>
        <time>2026-09-01T06:29:43.000Z</time>
        <extensions>
          <ns3:TrackPointExtension>
            <ns3:hr>172</ns3:hr>
            <ns3:cad>0</ns3:cad>
          </ns3:TrackPointExtension>
        </extensions>
      </trkpt>
      <trkpt lat="47.5633551366627216339111328125" lon="11.03251115418970584869384765625">
        <ele>978</ele>
        <time>2026-09-01T06:29:44.000Z</time>
        <extensions>
          <ns3:TrackPointExtension>
            <ns3:hr>172</ns3:hr>
            <ns3:cad>0</ns3:cad>
          </ns3:TrackPointExtension>
        </extensions>
      </trkpt>
      <trkpt lat="47.56334901787340641021728515625" lon="11.03249137289822101593017578125">
        <ele>978.4000244140625</ele>
        <time>2026-09-01T06:29:45.000Z</time>
        <extensions>
          <ns3:TrackPointExtension>
            <ns3:hr>172</ns3:hr>
            <ns3:cad>0</ns3:cad>
          </ns3:TrackPointExtension>
        </extensions>
      </trkpt>
      <trkpt lat="47.563346587121486663818359375" lon="11.0324753634631633758544921875">
        <ele>979</ele>
        <time>2026-09-01T06:29:46.000Z</time>
        <extensions>
          <ns3:TrackPointExtension>
            <ns3:hr>171</ns3:hr>
            <ns3:cad>0</ns3:cad>
          </ns3:TrackPointExtension>
        </extensions>
      </trkpt>
      <trkpt lat="47.5633455812931060791015625" lon="11.03246337734162807464599609375">
        <ele>979.20001220703125</ele>
        <time>2026-09-01T06:29:47.000Z</time>
        <extensions>
          <ns3:TrackPointExtension>
            <ns3:hr>172</ns3:hr>
            <ns3:cad>0</ns3:cad>
          </ns3:TrackPointExtension>
        </extensions>
      </trkpt>
      <trkpt lat="47.5633457489311695098876953125" lon="11.03245667181909084320068359375">
        <ele>979.79998779296875</ele>
        <time>2026-09-01T06:29:48.000Z</time>
        <extensions>
          <ns3:TrackPointExtension>
            <ns3:hr>172</ns3:hr>
            <ns3:cad>0</ns3:cad>
          </ns3:TrackPointExtension>
        </extensions>
      </trkpt>
      <trkpt lat="47.56333879195153713226318359375" lon="11.032447032630443572998046875">
        <ele>980</ele>
        <time>2026-09-01T06:29:49.000Z</time>
        <extensions>
          <ns3:TrackPointExtension>
            <ns3:hr>172</ns3:hr>
            <ns3:cad>0</ns3:cad>
          </ns3:TrackPointExtension>
        </extensions>
      </trkpt>
      <trkpt lat="47.56333963014185428619384765625" lon="11.032439656555652618408203125">
        <ele>980.4000244140625</ele>
        <time>2026-09-01T06:29:50.000Z</time>
        <extensions>
          <ns3:TrackPointExtension>
            <ns3:hr>172</ns3:hr>
            <ns3:cad>0</ns3:cad>
          </ns3:TrackPointExtension>
        </extensions>
      </trkpt>
      <trkpt lat="47.56334625184535980224609375" lon="11.03243253193795680999755859375">
        <ele>980.79998779296875</ele>
        <time>2026-09-01T06:29:51.000Z</time>
        <extensions>
          <ns3:TrackPointExtension>
            <ns3:hr>171</ns3:hr>
            <ns3:cad>0</ns3:cad>
          </ns3:TrackPointExtension>
        </extensions>
      </trkpt>
      <trkpt lat="47.5633460842072963714599609375" lon="11.032422222197055816650390625">
        <ele>981</ele>
        <time>2026-09-01T06:29:52.000Z</time>
        <extensions>
          <ns3:TrackPointExtension>
            <ns3:hr>172</ns3:hr>
            <ns3:cad>0</ns3:cad>
          </ns3:TrackPointExtension>
        </extensions>
      </trkpt>
      <trkpt lat="47.5633527897298336029052734375" lon="11.03241174481809139251708984375">
        <ele>981.4000244140625</ele>
        <time>2026-09-01T06:29:53.000Z</time>
        <extensions>
          <ns3:TrackPointExtension>
            <ns3:hr>172</ns3:hr>
            <ns3:cad>0</ns3:cad>
          </ns3:TrackPointExtension>
        </extensions>
      </trkpt>
      <trkpt lat="47.56334717385470867156982421875" lon="11.03238810785114765167236328125">
        <ele>981.5999755859375</ele>
        <time>2026-09-01T06:29:54.000Z</time>
        <extensions>
          <ns3:TrackPointExtension>
            <ns3:hr>172</ns3:hr>
            <ns3:cad>0</ns3:cad>
          </ns3:TrackPointExtension>
        </extensions>
      </trkpt>
      <trkpt lat="47.56335119716823101043701171875" lon="11.032371930778026580810546875">
        <ele>981.79998779296875</ele>
        <time>2026-09-01T06:29:55.000Z</time>
        <extensions>
          <ns3:TrackPointExtension>
            <ns3:hr>172</ns3:hr>
            <ns3:cad>0</ns3:cad>
          </ns3:TrackPointExtension>
        </extensions>
      </trkpt>
      <trkpt lat="47.5633581541478633880615234375" lon="11.03234611451625823974609375">
        <ele>982.20001220703125</ele>
        <time>2026-09-01T06:29:56.000Z</time>
        <extensions>
          <ns3:TrackPointExtension>
            <ns3:hr>172</ns3:hr>
            <ns3:cad>55</ns3:cad>
          </ns3:TrackPointExtension>
        </extensions>
      </trkpt>
      <trkpt lat="47.56336175836622714996337890625" lon="11.03233764879405498504638671875">
        <ele>982.4000244140625</ele>
        <time>2026-09-01T06:29:57.000Z</time>
        <extensions>
          <ns3:TrackPointExtension>
            <ns3:hr>171</ns3:hr>
            <ns3:cad>55</ns3:cad>
          </ns3:TrackPointExtension>
        </extensions>
      </trkpt>
      <trkpt lat="47.56336377002298831939697265625" lon="11.03232004679739475250244140625">
        <ele>982.5999755859375</ele>
        <time>2026-09-01T06:29:58.000Z</time>
        <extensions>
          <ns3:TrackPointExtension>
            <ns3:hr>171</ns3:hr>
            <ns3:cad>55</ns3:cad>
          </ns3:TrackPointExtension>
        </extensions>
      </trkpt>
      <trkpt lat="47.5633682124316692352294921875" lon="11.03231032378971576690673828125">
        <ele>982.79998779296875</ele>
        <time>2026-09-01T06:29:59.000Z</time>
        <extensions>
          <ns3:TrackPointExtension>
            <ns3:hr>171</ns3:hr>
            <ns3:cad>55</ns3:cad>
          </ns3:TrackPointExtension>
        </extensions>
      </trkpt>
      <trkpt lat="47.56337382830679416656494140625" lon="11.03229272179305553436279296875">
        <ele>983.20001220703125</ele>
        <time>2026-09-01T06:30:00.000Z</time>
        <extensions>
          <ns3:TrackPointExtension>
            <ns3:hr>172</ns3:hr>
            <ns3:cad>55</ns3:cad>
          </ns3:TrackPointExtension>
        </extensions>
      </trkpt>
      <trkpt lat="47.56337651051580905914306640625" lon="11.03227327577769756317138671875">
        <ele>983.5999755859375</ele>
        <time>2026-09-01T06:30:01.000Z</time>
        <extensions>
          <ns3:TrackPointExtension>
            <ns3:hr>171</ns3:hr>
            <ns3:cad>0</ns3:cad>
          </ns3:TrackPointExtension>
        </extensions>
      </trkpt>
      <trkpt lat="47.5633802823722362518310546875" lon="11.03226221166551113128662109375">
        <ele>984</ele>
        <time>2026-09-01T06:30:02.000Z</time>
        <extensions>
          <ns3:TrackPointExtension>
            <ns3:hr>172</ns3:hr>
            <ns3:cad>0</ns3:cad>
          </ns3:TrackPointExtension>
        </extensions>
      </trkpt>
      <trkpt lat="47.56339453160762786865234375" lon="11.03224628604948520660400390625">
        <ele>984.4000244140625</ele>
        <time>2026-09-01T06:30:03.000Z</time>
        <extensions>
          <ns3:TrackPointExtension>
            <ns3:hr>172</ns3:hr>
            <ns3:cad>0</ns3:cad>
          </ns3:TrackPointExtension>
        </extensions>
      </trkpt>
      <trkpt lat="47.56339578889310359954833984375" lon="11.03223086334764957427978515625">
        <ele>984.5999755859375</ele>
        <time>2026-09-01T06:30:04.000Z</time>
        <extensions>
          <ns3:TrackPointExtension>
            <ns3:hr>172</ns3:hr>
            <ns3:cad>0</ns3:cad>
          </ns3:TrackPointExtension>
        </extensions>
      </trkpt>
      <trkpt lat="47.563388831913471221923828125" lon="11.0322131775319576263427734375">
        <ele>985</ele>
        <time>2026-09-01T06:30:05.000Z</time>
        <extensions>
          <ns3:TrackPointExtension>
            <ns3:hr>171</ns3:hr>
            <ns3:cad>0</ns3:cad>
          </ns3:TrackPointExtension>
        </extensions>
      </trkpt>
      <trkpt lat="47.56338782608509063720703125" lon="11.032202281057834625244140625">
        <ele>985.4000244140625</ele>
        <time>2026-09-01T06:30:06.000Z</time>
        <extensions>
          <ns3:TrackPointExtension>
            <ns3:hr>172</ns3:hr>
            <ns3:cad>0</ns3:cad>
          </ns3:TrackPointExtension>
        </extensions>
      </trkpt>
      <trkpt lat="47.5633876584470272064208984375" lon="11.032183170318603515625">
        <ele>985.79998779296875</ele>
        <time>2026-09-01T06:30:07.000Z</time>
        <extensions>
          <ns3:TrackPointExtension>
            <ns3:hr>172</ns3:hr>
            <ns3:cad>0</ns3:cad>
          </ns3:TrackPointExtension>
        </extensions>
      </trkpt>
      <trkpt lat="47.5633900053799152374267578125" lon="11.0321737825870513916015625">
        <ele>986</ele>
        <time>2026-09-01T06:30:08.000Z</time>
        <extensions>
          <ns3:TrackPointExtension>
            <ns3:hr>171</ns3:hr>
            <ns3:cad>0</ns3:cad>
          </ns3:TrackPointExtension>
        </extensions>
      </trkpt>
      <trkpt lat="47.56338254548609256744384765625" lon="11.03216640651226043701171875">
        <ele>986.4000244140625</ele>
        <time>2026-09-01T06:30:09.000Z</time>
        <extensions>
          <ns3:TrackPointExtension>
            <ns3:hr>172</ns3:hr>
            <ns3:cad>0</ns3:cad>
          </ns3:TrackPointExtension>
        </extensions>
      </trkpt>
      <trkpt lat="47.56337709724903106689453125" lon="11.03215240873396396636962890625">
        <ele>986.79998779296875</ele>
        <time>2026-09-01T06:30:10.000Z</time>
        <extensions>
          <ns3:TrackPointExtension>
            <ns3:hr>172</ns3:hr>
            <ns3:cad>41</ns3:cad>
          </ns3:TrackPointExtension>
        </extensions>
      </trkpt>
      <trkpt lat="47.563384473323822021484375" lon="11.03215240873396396636962890625">
        <ele>987</ele>
        <time>2026-09-01T06:30:11.000Z</time>
        <extensions>
          <ns3:TrackPointExtension>
            <ns3:hr>172</ns3:hr>
            <ns3:cad>41</ns3:cad>
          </ns3:TrackPointExtension>
        </extensions>
      </trkpt>
      <trkpt lat="47.563388831913471221923828125" lon="11.03215089999139308929443359375">
        <ele>987.4000244140625</ele>
        <time>2026-09-01T06:30:12.000Z</time>
        <extensions>
          <ns3:TrackPointExtension>
            <ns3:hr>173</ns3:hr>
            <ns3:cad>41</ns3:cad>
          </ns3:TrackPointExtension>
        </extensions>
      </trkpt>
      <trkpt lat="47.56339310668408870697021484375" lon="11.0321491397917270660400390625">
        <ele>988</ele>
        <time>2026-09-01T06:30:13.000Z</time>
        <extensions>
          <ns3:TrackPointExtension>
            <ns3:hr>174</ns3:hr>
            <ns3:cad>41</ns3:cad>
          </ns3:TrackPointExtension>
        </extensions>
      </trkpt>
      <trkpt lat="47.5633950345218181610107421875" lon="11.03214385919272899627685546875">
        <ele>988.4000244140625</ele>
        <time>2026-09-01T06:30:14.000Z</time>
        <extensions>
          <ns3:TrackPointExtension>
            <ns3:hr>175</ns3:hr>
            <ns3:cad>41</ns3:cad>
          </ns3:TrackPointExtension>
        </extensions>
      </trkpt>
      <trkpt lat="47.56339796818792819976806640625" lon="11.0321327112615108489990234375">
        <ele>988.79998779296875</ele>
        <time>2026-09-01T06:30:15.000Z</time>
        <extensions>
          <ns3:TrackPointExtension>
            <ns3:hr>175</ns3:hr>
            <ns3:cad>0</ns3:cad>
          </ns3:TrackPointExtension>
        </extensions>
      </trkpt>
      <trkpt lat="47.56339914165437221527099609375" lon="11.03212458081543445587158203125">
        <ele>989.4000244140625</ele>
        <time>2026-09-01T06:30:16.000Z</time>
        <extensions>
          <ns3:TrackPointExtension>
            <ns3:hr>176</ns3:hr>
            <ns3:cad>0</ns3:cad>
          </ns3:TrackPointExtension>
        </extensions>
      </trkpt>
      <trkpt lat="47.563400566577911376953125" lon="11.03211184032261371612548828125">
        <ele>989.5999755859375</ele>
        <time>2026-09-01T06:30:17.000Z</time>
        <extensions>
          <ns3:TrackPointExtension>
            <ns3:hr>177</ns3:hr>
            <ns3:cad>0</ns3:cad>
          </ns3:TrackPointExtension>
        </extensions>
      </trkpt>
      <trkpt lat="47.5633997283875942230224609375" lon="11.03209624998271465301513671875">
        <ele>990</ele>
        <time>2026-09-01T06:30:18.000Z</time>
        <extensions>
          <ns3:TrackPointExtension>
            <ns3:hr>177</ns3:hr>
            <ns3:cad>0</ns3:cad>
          </ns3:TrackPointExtension>
        </extensions>
      </trkpt>
      <trkpt lat="47.5633993931114673614501953125" lon="11.03208686225116252899169921875">
        <ele>990.4000244140625</ele>
        <time>2026-09-01T06:30:19.000Z</time>
        <extensions>
          <ns3:TrackPointExtension>
            <ns3:hr>177</ns3:hr>
            <ns3:cad>0</ns3:cad>
          </ns3:TrackPointExtension>
        </extensions>
      </trkpt>
      <trkpt lat="47.56339997984468936920166015625" lon="11.0320733673870563507080078125">
        <ele>990.5999755859375</ele>
        <time>2026-09-01T06:30:20.000Z</time>
        <extensions>
          <ns3:TrackPointExtension>
            <ns3:hr>177</ns3:hr>
            <ns3:cad>0</ns3:cad>
          </ns3:TrackPointExtension>
        </extensions>
      </trkpt>
      <trkpt lat="47.56340031512081623077392578125" lon="11.03206439875066280364990234375">
        <ele>991</ele>
        <time>2026-09-01T06:30:21.000Z</time>
        <extensions>
          <ns3:TrackPointExtension>
            <ns3:hr>177</ns3:hr>
            <ns3:cad>0</ns3:cad>
          </ns3:TrackPointExtension>
        </extensions>
      </trkpt>
      <trkpt lat="47.5634014047682285308837890625" lon="11.03206004016101360321044921875">
        <ele>991.4000244140625</ele>
        <time>2026-09-01T06:30:22.000Z</time>
        <extensions>
          <ns3:TrackPointExtension>
            <ns3:hr>177</ns3:hr>
            <ns3:cad>0</ns3:cad>
          </ns3:TrackPointExtension>
        </extensions>
      </trkpt>
      <trkpt lat="47.56341204978525638580322265625" lon="11.03205366991460323333740234375">
        <ele>991.5999755859375</ele>
        <time>2026-09-01T06:30:23.000Z</time>
        <extensions>
          <ns3:TrackPointExtension>
            <ns3:hr>177</ns3:hr>
            <ns3:cad>0</ns3:cad>
          </ns3:TrackPointExtension>
        </extensions>
      </trkpt>
      <trkpt lat="47.563419677317142486572265625" lon="11.03204704821109771728515625">
        <ele>992</ele>
        <time>2026-09-01T06:30:24.000Z</time>
        <extensions>
          <ns3:TrackPointExtension>
            <ns3:hr>177</ns3:hr>
            <ns3:cad>0</ns3:cad>
          </ns3:TrackPointExtension>
        </extensions>
      </trkpt>
      <trkpt lat="47.56341724656522274017333984375" lon="11.03204746730625629425048828125">
        <ele>992.4000244140625</ele>
        <time>2026-09-01T06:30:25.000Z</time>
        <extensions>
          <ns3:TrackPointExtension>
            <ns3:hr>177</ns3:hr>
            <ns3:cad>0</ns3:cad>
          </ns3:TrackPointExtension>
        </extensions>
      </trkpt>
      <trkpt lat="47.5634205155074596405029296875" lon="11.0320421867072582244873046875">
        <ele>993</ele>
        <time>2026-09-01T06:30:26.000Z</time>
        <extensions>
          <ns3:TrackPointExtension>
            <ns3:hr>176</ns3:hr>
            <ns3:cad>0</ns3:cad>
          </ns3:TrackPointExtension>
        </extensions>
      </trkpt>
      <trkpt lat="47.56341238506138324737548828125" lon="11.0320289433002471923828125">
        <ele>993.4000244140625</ele>
        <time>2026-09-01T06:30:27.000Z</time>
        <extensions>
          <ns3:TrackPointExtension>
            <ns3:hr>176</ns3:hr>
            <ns3:cad>0</ns3:cad>
          </ns3:TrackPointExtension>
        </extensions>
      </trkpt>
      <trkpt lat="47.56341573782265186309814453125" lon="11.03202433325350284576416015625">
        <ele>993.79998779296875</ele>
        <time>2026-09-01T06:30:28.000Z</time>
        <extensions>
          <ns3:TrackPointExtension>
            <ns3:hr>176</ns3:hr>
            <ns3:cad>0</ns3:cad>
          </ns3:TrackPointExtension>
        </extensions>
      </trkpt>
      <trkpt lat="47.56342126987874507904052734375" lon="11.032021231949329376220703125">
        <ele>994.20001220703125</ele>
        <time>2026-09-01T06:30:29.000Z</time>
        <extensions>
          <ns3:TrackPointExtension>
            <ns3:hr>176</ns3:hr>
            <ns3:cad>0</ns3:cad>
          </ns3:TrackPointExtension>
        </extensions>
      </trkpt>
      <trkpt lat="47.563425041735172271728515625" lon="11.03201662190258502960205078125">
        <ele>994.4000244140625</ele>
        <time>2026-09-01T06:30:30.000Z</time>
        <extensions>
          <ns3:TrackPointExtension>
            <ns3:hr>176</ns3:hr>
            <ns3:cad>0</ns3:cad>
          </ns3:TrackPointExtension>
        </extensions>
      </trkpt>
      <trkpt lat="47.5634258799254894256591796875" lon="11.03201243095099925994873046875">
        <ele>994.5999755859375</ele>
        <time>2026-09-01T06:30:31.000Z</time>
        <extensions>
          <ns3:TrackPointExtension>
            <ns3:hr>176</ns3:hr>
            <ns3:cad>0</ns3:cad>
          </ns3:TrackPointExtension>
        </extensions>
      </trkpt>
      <trkpt lat="47.56342135369777679443359375" lon="11.0320110060274600982666015625">
        <ele>994.79998779296875</ele>
        <time>2026-09-01T06:30:32.000Z</time>
        <extensions>
          <ns3:TrackPointExtension>
            <ns3:hr>176</ns3:hr>
            <ns3:cad>0</ns3:cad>
          </ns3:TrackPointExtension>
        </extensions>
      </trkpt>
      <trkpt lat="47.56343568675220012664794921875" lon="11.0320002771914005279541015625">
        <ele>995.20001220703125</ele>
        <time>2026-09-01T06:30:33.000Z</time>
        <extensions>
          <ns3:TrackPointExtension>
            <ns3:hr>176</ns3:hr>
            <ns3:cad>0</ns3:cad>
          </ns3:TrackPointExtension>
        </extensions>
      </trkpt>
      <trkpt lat="47.56344255991280078887939453125" lon="11.0319918952882289886474609375">
        <ele>995.20001220703125</ele>
        <time>2026-09-01T06:30:34.000Z</time>
        <extensions>
          <ns3:TrackPointExtension>
            <ns3:hr>175</ns3:hr>
            <ns3:cad>0</ns3:cad>
          </ns3:TrackPointExtension>
        </extensions>
      </trkpt>
      <trkpt lat="47.563460581004619598388671875" lon="11.03198125027120113372802734375">
        <ele>995</ele>
        <time>2026-09-01T06:30:35.000Z</time>
        <extensions>
          <ns3:TrackPointExtension>
            <ns3:hr>175</ns3:hr>
            <ns3:cad>0</ns3:cad>
          </ns3:TrackPointExtension>
        </extensions>
      </trkpt>
      <trkpt lat="47.56346686743199825286865234375" lon="11.0319664143025875091552734375">
        <ele>995</ele>
        <time>2026-09-01T06:30:36.000Z</time>
        <extensions>
          <ns3:TrackPointExtension>
            <ns3:hr>175</ns3:hr>
            <ns3:cad>0</ns3:cad>
          </ns3:TrackPointExtension>
        </extensions>
      </trkpt>
      <trkpt lat="47.5634718127548694610595703125" lon="11.03194889612495899200439453125">
        <ele>994.79998779296875</ele>
        <time>2026-09-01T06:30:37.000Z</time>
        <extensions>
          <ns3:TrackPointExtension>
            <ns3:hr>175</ns3:hr>
            <ns3:cad>0</ns3:cad>
          </ns3:TrackPointExtension>
        </extensions>
      </trkpt>
      <trkpt lat="47.56347457878291606903076171875" lon="11.031924001872539520263671875">
        <ele>994.5999755859375</ele>
        <time>2026-09-01T06:30:38.000Z</time>
        <extensions>
          <ns3:TrackPointExtension>
            <ns3:hr>175</ns3:hr>
            <ns3:cad>0</ns3:cad>
          </ns3:TrackPointExtension>
        </extensions>
      </trkpt>
      <trkpt lat="47.56349050439894199371337890625" lon="11.03189810179173946380615234375">
        <ele>994.4000244140625</ele>
        <time>2026-09-01T06:30:39.000Z</time>
        <extensions>
          <ns3:TrackPointExtension>
            <ns3:hr>175</ns3:hr>
            <ns3:cad>0</ns3:cad>
          </ns3:TrackPointExtension>
        </extensions>
      </trkpt>
      <trkpt lat="47.563507854938507080078125" lon="11.0318779014050960540771484375">
        <ele>994.4000244140625</ele>
        <time>2026-09-01T06:30:40.000Z</time>
        <extensions>
          <ns3:TrackPointExtension>
            <ns3:hr>175</ns3:hr>
            <ns3:cad>77</ns3:cad>
          </ns3:TrackPointExtension>
        </extensions>
      </trkpt>
      <trkpt lat="47.56352185271680355072021484375" lon="11.03185803629457950592041015625">
        <ele>994.5999755859375</ele>
        <time>2026-09-01T06:30:41.000Z</time>
        <extensions>
          <ns3:TrackPointExtension>
            <ns3:hr>174</ns3:hr>
            <ns3:cad>78</ns3:cad>
          </ns3:TrackPointExtension>
        </extensions>
      </trkpt>
      <trkpt lat="47.563533671200275421142578125" lon="11.03184076957404613494873046875">
        <ele>994.79998779296875</ele>
        <time>2026-09-01T06:30:42.000Z</time>
        <extensions>
          <ns3:TrackPointExtension>
            <ns3:hr>174</ns3:hr>
            <ns3:cad>78</ns3:cad>
          </ns3:TrackPointExtension>
        </extensions>
      </trkpt>
      <trkpt lat="47.56354683078825473785400390625" lon="11.0318235866725444793701171875">
        <ele>995</ele>
        <time>2026-09-01T06:30:43.000Z</time>
        <extensions>
          <ns3:TrackPointExtension>
            <ns3:hr>173</ns3:hr>
            <ns3:cad>77</ns3:cad>
          </ns3:TrackPointExtension>
        </extensions>
      </trkpt>
      <trkpt lat="47.56355420686304569244384765625" lon="11.031815372407436370849609375">
        <ele>995.20001220703125</ele>
        <time>2026-09-01T06:30:44.000Z</time>
        <extensions>
          <ns3:TrackPointExtension>
            <ns3:hr>173</ns3:hr>
            <ns3:cad>77</ns3:cad>
          </ns3:TrackPointExtension>
        </extensions>
      </trkpt>
      <trkpt lat="47.56356812082231044769287109375" lon="11.03182350285351276397705078125">
        <ele>995.4000244140625</ele>
        <time>2026-09-01T06:30:45.000Z</time>
        <extensions>
          <ns3:TrackPointExtension>
            <ns3:hr>174</ns3:hr>
            <ns3:cad>76</ns3:cad>
          </ns3:TrackPointExtension>
        </extensions>
      </trkpt>
      <trkpt lat="47.56357331760227680206298828125" lon="11.03181512095034122467041015625">
        <ele>995.5999755859375</ele>
        <time>2026-09-01T06:30:46.000Z</time>
        <extensions>
          <ns3:TrackPointExtension>
            <ns3:hr>174</ns3:hr>
            <ns3:cad>75</ns3:cad>
          </ns3:TrackPointExtension>
        </extensions>
      </trkpt>
      <trkpt lat="47.563578598201274871826171875" lon="11.03179902769625186920166015625">
        <ele>996</ele>
        <time>2026-09-01T06:30:47.000Z</time>
        <extensions>
          <ns3:TrackPointExtension>
            <ns3:hr>174</ns3:hr>
            <ns3:cad>75</ns3:cad>
          </ns3:TrackPointExtension>
        </extensions>
      </trkpt>
      <trkpt lat="47.56358957849442958831787109375" lon="11.0317826829850673675537109375">
        <ele>996.20001220703125</ele>
        <time>2026-09-01T06:30:48.000Z</time>
        <extensions>
          <ns3:TrackPointExtension>
            <ns3:hr>173</ns3:hr>
            <ns3:cad>75</ns3:cad>
          </ns3:TrackPointExtension>
        </extensions>
      </trkpt>
      <trkpt lat="47.5635945238173007965087890625" lon="11.03177438490092754364013671875">
        <ele>996.4000244140625</ele>
        <time>2026-09-01T06:30:49.000Z</time>
        <extensions>
          <ns3:TrackPointExtension>
            <ns3:hr>173</ns3:hr>
            <ns3:cad>75</ns3:cad>
          </ns3:TrackPointExtension>
        </extensions>
      </trkpt>
      <trkpt lat="47.563624866306781768798828125" lon="11.03175577707588672637939453125">
        <ele>996.79998779296875</ele>
        <time>2026-09-01T06:30:50.000Z</time>
        <extensions>
          <ns3:TrackPointExtension>
            <ns3:hr>173</ns3:hr>
            <ns3:cad>75</ns3:cad>
          </ns3:TrackPointExtension>
        </extensions>
      </trkpt>
      <trkpt lat="47.56363282911479473114013671875" lon="11.03175393305718898773193359375">
        <ele>997.20001220703125</ele>
        <time>2026-09-01T06:30:51.000Z</time>
        <extensions>
          <ns3:TrackPointExtension>
            <ns3:hr>173</ns3:hr>
            <ns3:cad>75</ns3:cad>
          </ns3:TrackPointExtension>
        </extensions>
      </trkpt>
      <trkpt lat="47.56364305503666400909423828125" lon="11.03174404241144657135009765625">
        <ele>997.4000244140625</ele>
        <time>2026-09-01T06:30:52.000Z</time>
        <extensions>
          <ns3:TrackPointExtension>
            <ns3:hr>173</ns3:hr>
            <ns3:cad>75</ns3:cad>
          </ns3:TrackPointExtension>
        </extensions>
      </trkpt>
      <trkpt lat="47.56365210749208927154541015625" lon="11.0317310504615306854248046875">
        <ele>997.79998779296875</ele>
        <time>2026-09-01T06:30:53.000Z</time>
        <extensions>
          <ns3:TrackPointExtension>
            <ns3:hr>173</ns3:hr>
            <ns3:cad>75</ns3:cad>
          </ns3:TrackPointExtension>
        </extensions>
      </trkpt>
      <trkpt lat="47.56364774890244007110595703125" lon="11.03171319700777530670166015625">
        <ele>998</ele>
        <time>2026-09-01T06:30:54.000Z</time>
        <extensions>
          <ns3:TrackPointExtension>
            <ns3:hr>172</ns3:hr>
            <ns3:cad>0</ns3:cad>
          </ns3:TrackPointExtension>
        </extensions>
      </trkpt>
      <trkpt lat="47.56364992819726467132568359375" lon="11.03169743902981281280517578125">
        <ele>998.4000244140625</ele>
        <time>2026-09-01T06:30:55.000Z</time>
        <extensions>
          <ns3:TrackPointExtension>
            <ns3:hr>172</ns3:hr>
            <ns3:cad>0</ns3:cad>
          </ns3:TrackPointExtension>
        </extensions>
      </trkpt>
      <trkpt lat="47.56364808417856693267822265625" lon="11.03168553672730922698974609375">
        <ele>998.5999755859375</ele>
        <time>2026-09-01T06:30:56.000Z</time>
        <extensions>
          <ns3:TrackPointExtension>
            <ns3:hr>171</ns3:hr>
            <ns3:cad>0</ns3:cad>
          </ns3:TrackPointExtension>
        </extensions>
      </trkpt>
      <trkpt lat="47.56364624015986919403076171875" lon="11.03167346678674221038818359375">
        <ele>999</ele>
        <time>2026-09-01T06:30:57.000Z</time>
        <extensions>
          <ns3:TrackPointExtension>
            <ns3:hr>171</ns3:hr>
            <ns3:cad>0</ns3:cad>
          </ns3:TrackPointExtension>
        </extensions>
      </trkpt>
      <trkpt lat="47.563649676740169525146484375" lon="11.031649746000766754150390625">
        <ele>999.4000244140625</ele>
        <time>2026-09-01T06:30:58.000Z</time>
        <extensions>
          <ns3:TrackPointExtension>
            <ns3:hr>171</ns3:hr>
            <ns3:cad>0</ns3:cad>
          </ns3:TrackPointExtension>
        </extensions>
      </trkpt>
      <trkpt lat="47.5636525265872478485107421875" lon="11.03163323365151882171630859375">
        <ele>1000</ele>
        <time>2026-09-01T06:30:59.000Z</time>
        <extensions>
          <ns3:TrackPointExtension>
            <ns3:hr>171</ns3:hr>
            <ns3:cad>0</ns3:cad>
          </ns3:TrackPointExtension>
        </extensions>
      </trkpt>
      <trkpt lat="47.5636538676917552947998046875" lon="11.031617559492588043212890625">
        <ele>1000.5999755859375</ele>
        <time>2026-09-01T06:31:00.000Z</time>
        <extensions>
          <ns3:TrackPointExtension>
            <ns3:hr>171</ns3:hr>
            <ns3:cad>0</ns3:cad>
          </ns3:TrackPointExtension>
        </extensions>
      </trkpt>
      <trkpt lat="47.56365797482430934906005859375" lon="11.031596101820468902587890625">
        <ele>1001</ele>
        <time>2026-09-01T06:31:01.000Z</time>
        <extensions>
          <ns3:TrackPointExtension>
            <ns3:hr>172</ns3:hr>
            <ns3:cad>0</ns3:cad>
          </ns3:TrackPointExtension>
        </extensions>
      </trkpt>
      <trkpt lat="47.563657723367214202880859375" lon="11.03158210404217243194580078125">
        <ele>1001.4000244140625</ele>
        <time>2026-09-01T06:31:02.000Z</time>
        <extensions>
          <ns3:TrackPointExtension>
            <ns3:hr>173</ns3:hr>
            <ns3:cad>0</ns3:cad>
          </ns3:TrackPointExtension>
        </extensions>
      </trkpt>
      <trkpt lat="47.5636572204530239105224609375" lon="11.03157070465385913848876953125">
        <ele>1001.5999755859375</ele>
        <time>2026-09-01T06:31:03.000Z</time>
        <extensions>
          <ns3:TrackPointExtension>
            <ns3:hr>175</ns3:hr>
            <ns3:cad>0</ns3:cad>
          </ns3:TrackPointExtension>
        </extensions>
      </trkpt>
      <trkpt lat="47.56365395151078701019287109375" lon="11.03156156837940216064453125">
        <ele>1001.79998779296875</ele>
        <time>2026-09-01T06:31:04.000Z</time>
        <extensions>
          <ns3:TrackPointExtension>
            <ns3:hr>176</ns3:hr>
            <ns3:cad>0</ns3:cad>
          </ns3:TrackPointExtension>
        </extensions>
      </trkpt>
      <trkpt lat="47.56365261040627956390380859375" lon="11.0315434634685516357421875">
        <ele>1002</ele>
        <time>2026-09-01T06:31:05.000Z</time>
        <extensions>
          <ns3:TrackPointExtension>
            <ns3:hr>177</ns3:hr>
            <ns3:cad>0</ns3:cad>
          </ns3:TrackPointExtension>
        </extensions>
      </trkpt>
      <trkpt lat="47.56365277804434299468994140625" lon="11.03153583593666553497314453125">
        <ele>1002.4000244140625</ele>
        <time>2026-09-01T06:31:06.000Z</time>
        <extensions>
          <ns3:TrackPointExtension>
            <ns3:hr>177</ns3:hr>
            <ns3:cad>0</ns3:cad>
          </ns3:TrackPointExtension>
        </extensions>
      </trkpt>
      <trkpt lat="47.56364707835018634796142578125" lon="11.0315248556435108184814453125">
        <ele>1002.79998779296875</ele>
        <time>2026-09-01T06:31:07.000Z</time>
        <extensions>
          <ns3:TrackPointExtension>
            <ns3:hr>178</ns3:hr>
            <ns3:cad>0</ns3:cad>
          </ns3:TrackPointExtension>
        </extensions>
      </trkpt>
      <trkpt lat="47.56363869644701480865478515625" lon="11.031512953341007232666015625">
        <ele>1003.20001220703125</ele>
        <time>2026-09-01T06:31:08.000Z</time>
        <extensions>
          <ns3:TrackPointExtension>
            <ns3:hr>178</ns3:hr>
            <ns3:cad>0</ns3:cad>
          </ns3:TrackPointExtension>
        </extensions>
      </trkpt>
      <trkpt lat="47.56362729705870151519775390625" lon="11.03150314651429653167724609375">
        <ele>1003.5999755859375</ele>
        <time>2026-09-01T06:31:09.000Z</time>
        <extensions>
          <ns3:TrackPointExtension>
            <ns3:hr>179</ns3:hr>
            <ns3:cad>0</ns3:cad>
          </ns3:TrackPointExtension>
        </extensions>
      </trkpt>
      <trkpt lat="47.5636193342506885528564453125" lon="11.03148805908858776092529296875">
        <ele>1004</ele>
        <time>2026-09-01T06:31:10.000Z</time>
        <extensions>
          <ns3:TrackPointExtension>
            <ns3:hr>179</ns3:hr>
            <ns3:cad>0</ns3:cad>
          </ns3:TrackPointExtension>
        </extensions>
      </trkpt>
      <trkpt lat="47.563610114157199859619140625" lon="11.03147707879543304443359375">
        <ele>1004.4000244140625</ele>
        <time>2026-09-01T06:31:11.000Z</time>
        <extensions>
          <ns3:TrackPointExtension>
            <ns3:hr>180</ns3:hr>
            <ns3:cad>0</ns3:cad>
          </ns3:TrackPointExtension>
        </extensions>
      </trkpt>
      <trkpt lat="47.56359779275953769683837890625" lon="11.03146727196872234344482421875">
        <ele>1004.5999755859375</ele>
        <time>2026-09-01T06:31:12.000Z</time>
        <extensions>
          <ns3:TrackPointExtension>
            <ns3:hr>181</ns3:hr>
            <ns3:cad>0</ns3:cad>
          </ns3:TrackPointExtension>
        </extensions>
      </trkpt>
      <trkpt lat="47.56358756683766841888427734375" lon="11.03146140463650226593017578125">
        <ele>1005</ele>
        <time>2026-09-01T06:31:13.000Z</time>
        <extensions>
          <ns3:TrackPointExtension>
            <ns3:hr>183</ns3:hr>
            <ns3:cad>0</ns3:cad>
          </ns3:TrackPointExtension>
        </extensions>
      </trkpt>
      <trkpt lat="47.5635797716677188873291015625" lon="11.03145897388458251953125">
        <ele>1005.4000244140625</ele>
        <time>2026-09-01T06:31:14.000Z</time>
        <extensions>
          <ns3:TrackPointExtension>
            <ns3:hr>184</ns3:hr>
            <ns3:cad>0</ns3:cad>
          </ns3:TrackPointExtension>
        </extensions>
      </trkpt>
      <trkpt lat="47.5635682046413421630859375" lon="11.03145428001880645751953125">
        <ele>1005.79998779296875</ele>
        <time>2026-09-01T06:31:15.000Z</time>
        <extensions>
          <ns3:TrackPointExtension>
            <ns3:hr>184</ns3:hr>
            <ns3:cad>0</ns3:cad>
          </ns3:TrackPointExtension>
        </extensions>
      </trkpt>
      <trkpt lat="47.56356275640428066253662109375" lon="11.0314541123807430267333984375">
        <ele>1006.20001220703125</ele>
        <time>2026-09-01T06:31:16.000Z</time>
        <extensions>
          <ns3:TrackPointExtension>
            <ns3:hr>184</ns3:hr>
            <ns3:cad>0</ns3:cad>
          </ns3:TrackPointExtension>
        </extensions>
      </trkpt>
      <trkpt lat="47.56355135701596736907958984375" lon="11.03145536966621875762939453125">
        <ele>1006.20001220703125</ele>
        <time>2026-09-01T06:31:17.000Z</time>
        <extensions>
          <ns3:TrackPointExtension>
            <ns3:hr>185</ns3:hr>
            <ns3:cad>0</ns3:cad>
          </ns3:TrackPointExtension>
        </extensions>
      </trkpt>
      <trkpt lat="47.56354046054184436798095703125" lon="11.03145604021847248077392578125">
        <ele>1006.4000244140625</ele>
        <time>2026-09-01T06:31:18.000Z</time>
        <extensions>
          <ns3:TrackPointExtension>
            <ns3:hr>185</ns3:hr>
            <ns3:cad>0</ns3:cad>
          </ns3:TrackPointExtension>
        </extensions>
      </trkpt>
      <trkpt lat="47.563530988991260528564453125" lon="11.031461656093597412109375">
        <ele>1006.5999755859375</ele>
        <time>2026-09-01T06:31:19.000Z</time>
        <extensions>
          <ns3:TrackPointExtension>
            <ns3:hr>185</ns3:hr>
            <ns3:cad>0</ns3:cad>
          </ns3:TrackPointExtension>
        </extensions>
      </trkpt>
      <trkpt lat="47.5635063461959362030029296875" lon="11.03146341629326343536376953125">
        <ele>1006.79998779296875</ele>
        <time>2026-09-01T06:31:20.000Z</time>
        <extensions>
          <ns3:TrackPointExtension>
            <ns3:hr>185</ns3:hr>
            <ns3:cad>0</ns3:cad>
          </ns3:TrackPointExtension>
        </extensions>
      </trkpt>
      <trkpt lat="47.563497461378574371337890625" lon="11.0314656794071197509765625">
        <ele>1006.79998779296875</ele>
        <time>2026-09-01T06:31:21.000Z</time>
        <extensions>
          <ns3:TrackPointExtension>
            <ns3:hr>185</ns3:hr>
            <ns3:cad>71</ns3:cad>
          </ns3:TrackPointExtension>
        </extensions>
      </trkpt>
      <trkpt lat="47.5634889118373394012451171875" lon="11.0314698703587055206298828125">
        <ele>1007</ele>
        <time>2026-09-01T06:31:22.000Z</time>
        <extensions>
          <ns3:TrackPointExtension>
            <ns3:hr>185</ns3:hr>
            <ns3:cad>71</ns3:cad>
          </ns3:TrackPointExtension>
        </extensions>
      </trkpt>
      <trkpt lat="47.56347499787807464599609375" lon="11.0314732231199741363525390625">
        <ele>1007.20001220703125</ele>
        <time>2026-09-01T06:31:23.000Z</time>
        <extensions>
          <ns3:TrackPointExtension>
            <ns3:hr>185</ns3:hr>
            <ns3:cad>71</ns3:cad>
          </ns3:TrackPointExtension>
        </extensions>
      </trkpt>
      <trkpt lat="47.5634641014039516448974609375" lon="11.03147883899509906768798828125">
        <ele>1007.4000244140625</ele>
        <time>2026-09-01T06:31:24.000Z</time>
        <extensions>
          <ns3:TrackPointExtension>
            <ns3:hr>185</ns3:hr>
            <ns3:cad>71</ns3:cad>
          </ns3:TrackPointExtension>
        </extensions>
      </trkpt>
      <trkpt lat="47.56345747970044612884521484375" lon="11.03147967718541622161865234375">
        <ele>1007.5999755859375</ele>
        <time>2026-09-01T06:31:25.000Z</time>
        <extensions>
          <ns3:TrackPointExtension>
            <ns3:hr>186</ns3:hr>
            <ns3:cad>71</ns3:cad>
          </ns3:TrackPointExtension>
        </extensions>
      </trkpt>
      <trkpt lat="47.56345094181597232818603515625" lon="11.03148034773766994476318359375">
        <ele>1008</ele>
        <time>2026-09-01T06:31:26.000Z</time>
        <extensions>
          <ns3:TrackPointExtension>
            <ns3:hr>186</ns3:hr>
            <ns3:cad>71</ns3:cad>
          </ns3:TrackPointExtension>
        </extensions>
      </trkpt>
      <trkpt lat="47.56344222463667392730712890625" lon="11.03148110210895538330078125">
        <ele>1008.20001220703125</ele>
        <time>2026-09-01T06:31:27.000Z</time>
        <extensions>
          <ns3:TrackPointExtension>
            <ns3:hr>186</ns3:hr>
            <ns3:cad>71</ns3:cad>
          </ns3:TrackPointExtension>
        </extensions>
      </trkpt>
      <trkpt lat="47.5634356029331684112548828125" lon="11.03147841989994049072265625">
        <ele>1008.5999755859375</ele>
        <time>2026-09-01T06:31:28.000Z</time>
        <extensions>
          <ns3:TrackPointExtension>
            <ns3:hr>186</ns3:hr>
            <ns3:cad>71</ns3:cad>
          </ns3:TrackPointExtension>
        </extensions>
      </trkpt>
      <trkpt lat="47.5634345971047878265380859375" lon="11.03148051537573337554931640625">
        <ele>1008.79998779296875</ele>
        <time>2026-09-01T06:31:29.000Z</time>
        <extensions>
          <ns3:TrackPointExtension>
            <ns3:hr>186</ns3:hr>
            <ns3:cad>71</ns3:cad>
          </ns3:TrackPointExtension>
        </extensions>
      </trkpt>
      <trkpt lat="47.56341741420328617095947265625" lon="11.03147414512932300567626953125">
        <ele>1009</ele>
        <time>2026-09-01T06:31:30.000Z</time>
        <extensions>
          <ns3:TrackPointExtension>
            <ns3:hr>187</ns3:hr>
            <ns3:cad>71</ns3:cad>
          </ns3:TrackPointExtension>
        </extensions>
      </trkpt>
      <trkpt lat="47.56340601481497287750244140625" lon="11.03147833608090877532958984375">
        <ele>1009.20001220703125</ele>
        <time>2026-09-01T06:31:31.000Z</time>
        <extensions>
          <ns3:TrackPointExtension>
            <ns3:hr>187</ns3:hr>
            <ns3:cad>71</ns3:cad>
          </ns3:TrackPointExtension>
        </extensions>
      </trkpt>
      <trkpt lat="47.56339587271213531494140625" lon="11.03148386813700199127197265625">
        <ele>1009.4000244140625</ele>
        <time>2026-09-01T06:31:32.000Z</time>
        <extensions>
          <ns3:TrackPointExtension>
            <ns3:hr>187</ns3:hr>
            <ns3:cad>71</ns3:cad>
          </ns3:TrackPointExtension>
        </extensions>
      </trkpt>
      <trkpt lat="47.563383467495441436767578125" lon="11.0314896516501903533935546875">
        <ele>1009.4000244140625</ele>
        <time>2026-09-01T06:31:33.000Z</time>
        <extensions>
          <ns3:TrackPointExtension>
            <ns3:hr>187</ns3:hr>
            <ns3:cad>71</ns3:cad>
          </ns3:TrackPointExtension>
        </extensions>
      </trkpt>
      <trkpt lat="47.56336770951747894287109375" lon="11.031495518982410430908203125">
        <ele>1009.5999755859375</ele>
        <time>2026-09-01T06:31:34.000Z</time>
        <extensions>
          <ns3:TrackPointExtension>
            <ns3:hr>186</ns3:hr>
            <ns3:cad>71</ns3:cad>
          </ns3:TrackPointExtension>
        </extensions>
      </trkpt>
      <trkpt lat="47.56335287354886531829833984375" lon="11.0314970277249813079833984375">
        <ele>1009.79998779296875</ele>
        <time>2026-09-01T06:31:35.000Z</time>
        <extensions>
          <ns3:TrackPointExtension>
            <ns3:hr>187</ns3:hr>
            <ns3:cad>71</ns3:cad>
          </ns3:TrackPointExtension>
        </extensions>
      </trkpt>
      <trkpt lat="47.56333963014185428619384765625" lon="11.03150415234267711639404296875">
        <ele>1010</ele>
        <time>2026-09-01T06:31:36.000Z</time>
        <extensions>
          <ns3:TrackPointExtension>
            <ns3:hr>187</ns3:hr>
            <ns3:cad>77</ns3:cad>
          </ns3:TrackPointExtension>
        </extensions>
      </trkpt>
      <trkpt lat="47.5633279792964458465576171875" lon="11.03150934912264347076416015625">
        <ele>1010.20001220703125</ele>
        <time>2026-09-01T06:31:37.000Z</time>
        <extensions>
          <ns3:TrackPointExtension>
            <ns3:hr>187</ns3:hr>
            <ns3:cad>77</ns3:cad>
          </ns3:TrackPointExtension>
        </extensions>
      </trkpt>
      <trkpt lat="47.56331297568976879119873046875" lon="11.0315111093223094940185546875">
        <ele>1010.5999755859375</ele>
        <time>2026-09-01T06:31:38.000Z</time>
        <extensions>
          <ns3:TrackPointExtension>
            <ns3:hr>187</ns3:hr>
            <ns3:cad>77</ns3:cad>
          </ns3:TrackPointExtension>
        </extensions>
      </trkpt>
      <trkpt lat="47.5632917694747447967529296875" lon="11.031511612236499786376953125">
        <ele>1011</ele>
        <time>2026-09-01T06:31:39.000Z</time>
        <extensions>
          <ns3:TrackPointExtension>
            <ns3:hr>187</ns3:hr>
            <ns3:cad>76</ns3:cad>
          </ns3:TrackPointExtension>
        </extensions>
      </trkpt>
      <trkpt lat="47.563274167478084564208984375" lon="11.03150666691362857818603515625">
        <ele>1011.20001220703125</ele>
        <time>2026-09-01T06:31:40.000Z</time>
        <extensions>
          <ns3:TrackPointExtension>
            <ns3:hr>186</ns3:hr>
            <ns3:cad>76</ns3:cad>
          </ns3:TrackPointExtension>
        </extensions>
      </trkpt>
      <trkpt lat="47.56325564347207546234130859375" lon="11.031500212848186492919921875">
        <ele>1011.4000244140625</ele>
        <time>2026-09-01T06:31:41.000Z</time>
        <extensions>
          <ns3:TrackPointExtension>
            <ns3:hr>187</ns3:hr>
            <ns3:cad>76</ns3:cad>
          </ns3:TrackPointExtension>
        </extensions>
      </trkpt>
      <trkpt lat="47.56323368288576602935791015625" lon="11.03149627335369586944580078125">
        <ele>1011.79998779296875</ele>
        <time>2026-09-01T06:31:42.000Z</time>
        <extensions>
          <ns3:TrackPointExtension>
            <ns3:hr>187</ns3:hr>
            <ns3:cad>76</ns3:cad>
          </ns3:TrackPointExtension>
        </extensions>
      </trkpt>
      <trkpt lat="47.56321742199361324310302734375" lon="11.03149493224918842315673828125">
        <ele>1012.20001220703125</ele>
        <time>2026-09-01T06:31:43.000Z</time>
        <extensions>
          <ns3:TrackPointExtension>
            <ns3:hr>187</ns3:hr>
            <ns3:cad>75</ns3:cad>
          </ns3:TrackPointExtension>
        </extensions>
      </trkpt>
      <trkpt lat="47.56320275366306304931640625" lon="11.03149292059242725372314453125">
        <ele>1012.5999755859375</ele>
        <time>2026-09-01T06:31:44.000Z</time>
        <extensions>
          <ns3:TrackPointExtension>
            <ns3:hr>186</ns3:hr>
            <ns3:cad>75</ns3:cad>
          </ns3:TrackPointExtension>
        </extensions>
      </trkpt>
      <trkpt lat="47.56320434622466564178466796875" lon="11.0314816050231456756591796875">
        <ele>1012.79998779296875</ele>
        <time>2026-09-01T06:31:45.000Z</time>
        <extensions>
          <ns3:TrackPointExtension>
            <ns3:hr>187</ns3:hr>
            <ns3:cad>75</ns3:cad>
          </ns3:TrackPointExtension>
        </extensions>
      </trkpt>
      <trkpt lat="47.5631999038159847259521484375" lon="11.03148034773766994476318359375">
        <ele>1013.20001220703125</ele>
        <time>2026-09-01T06:31:46.000Z</time>
        <extensions>
          <ns3:TrackPointExtension>
            <ns3:hr>186</ns3:hr>
            <ns3:cad>75</ns3:cad>
          </ns3:TrackPointExtension>
        </extensions>
      </trkpt>
      <trkpt lat="47.56319814361631870269775390625" lon="11.0314732231199741363525390625">
        <ele>1013.5999755859375</ele>
        <time>2026-09-01T06:31:47.000Z</time>
        <extensions>
          <ns3:TrackPointExtension>
            <ns3:hr>187</ns3:hr>
            <ns3:cad>68</ns3:cad>
          </ns3:TrackPointExtension>
        </extensions>
      </trkpt>
      <trkpt lat="47.56319814361631870269775390625" lon="11.03147096000611782073974609375">
        <ele>1014</ele>
        <time>2026-09-01T06:31:48.000Z</time>
        <extensions>
          <ns3:TrackPointExtension>
            <ns3:hr>188</ns3:hr>
            <ns3:cad>68</ns3:cad>
          </ns3:TrackPointExtension>
        </extensions>
      </trkpt>
      <trkpt lat="47.56319898180663585662841796875" lon="11.0314698703587055206298828125">
        <ele>1014.4000244140625</ele>
        <time>2026-09-01T06:31:49.000Z</time>
        <extensions>
          <ns3:TrackPointExtension>
            <ns3:hr>188</ns3:hr>
            <ns3:cad>68</ns3:cad>
          </ns3:TrackPointExtension>
        </extensions>
      </trkpt>
      <trkpt lat="47.56319764070212841033935546875" lon="11.03146676905453205108642578125">
        <ele>1014.79998779296875</ele>
        <time>2026-09-01T06:31:50.000Z</time>
        <extensions>
          <ns3:TrackPointExtension>
            <ns3:hr>188</ns3:hr>
            <ns3:cad>68</ns3:cad>
          </ns3:TrackPointExtension>
        </extensions>
      </trkpt>
      <trkpt lat="47.56319680251181125640869140625" lon="11.03146140463650226593017578125">
        <ele>1015.20001220703125</ele>
        <time>2026-09-01T06:31:51.000Z</time>
        <extensions>
          <ns3:TrackPointExtension>
            <ns3:hr>189</ns3:hr>
            <ns3:cad>68</ns3:cad>
          </ns3:TrackPointExtension>
        </extensions>
      </trkpt>
      <trkpt lat="47.56318171508610248565673828125" lon="11.03146257810294628143310546875">
        <ele>1015.5999755859375</ele>
        <time>2026-09-01T06:31:52.000Z</time>
        <extensions>
          <ns3:TrackPointExtension>
            <ns3:hr>189</ns3:hr>
            <ns3:cad>68</ns3:cad>
          </ns3:TrackPointExtension>
        </extensions>
      </trkpt>
      <trkpt lat="47.56317467428743839263916015625" lon="11.03145855478942394256591796875">
        <ele>1015.79998779296875</ele>
        <time>2026-09-01T06:31:53.000Z</time>
        <extensions>
          <ns3:TrackPointExtension>
            <ns3:hr>189</ns3:hr>
            <ns3:cad>68</ns3:cad>
          </ns3:TrackPointExtension>
        </extensions>
      </trkpt>
      <trkpt lat="47.5631725788116455078125" lon="11.0314614884555339813232421875">
        <ele>1016.20001220703125</ele>
        <time>2026-09-01T06:31:54.000Z</time>
        <extensions>
          <ns3:TrackPointExtension>
            <ns3:hr>188</ns3:hr>
            <ns3:cad>68</ns3:cad>
          </ns3:TrackPointExtension>
        </extensions>
      </trkpt>
      <trkpt lat="47.5631737522780895233154296875" lon="11.03144899941980838775634765625">
        <ele>1016.4000244140625</ele>
        <time>2026-09-01T06:31:55.000Z</time>
        <extensions>
          <ns3:TrackPointExtension>
            <ns3:hr>189</ns3:hr>
            <ns3:cad>68</ns3:cad>
          </ns3:TrackPointExtension>
        </extensions>
      </trkpt>
      <trkpt lat="47.5631784461438655853271484375" lon="11.03143173269927501678466796875">
        <ele>1016.79998779296875</ele>
        <time>2026-09-01T06:31:56.000Z</time>
        <extensions>
          <ns3:TrackPointExtension>
            <ns3:hr>188</ns3:hr>
            <ns3:cad>68</ns3:cad>
          </ns3:TrackPointExtension>
        </extensions>
      </trkpt>
      <trkpt lat="47.56318339146673679351806640625" lon="11.031415723264217376708984375">
        <ele>1017</ele>
        <time>2026-09-01T06:31:57.000Z</time>
        <extensions>
          <ns3:TrackPointExtension>
            <ns3:hr>188</ns3:hr>
            <ns3:cad>68</ns3:cad>
          </ns3:TrackPointExtension>
        </extensions>
      </trkpt>
      <trkpt lat="47.56318925879895687103271484375" lon="11.0313940979540348052978515625">
        <ele>1017.20001220703125</ele>
        <time>2026-09-01T06:31:58.000Z</time>
        <extensions>
          <ns3:TrackPointExtension>
            <ns3:hr>188</ns3:hr>
            <ns3:cad>0</ns3:cad>
          </ns3:TrackPointExtension>
        </extensions>
      </trkpt>
      <trkpt lat="47.56319143809378147125244140625" lon="11.031368784606456756591796875">
        <ele>1017.4000244140625</ele>
        <time>2026-09-01T06:31:59.000Z</time>
        <extensions>
          <ns3:TrackPointExtension>
            <ns3:hr>188</ns3:hr>
            <ns3:cad>0</ns3:cad>
          </ns3:TrackPointExtension>
        </extensions>
      </trkpt>
      <trkpt lat="47.56319747306406497955322265625" lon="11.03134305216372013092041015625">
        <ele>1017.5999755859375</ele>
        <time>2026-09-01T06:32:00.000Z</time>
        <extensions>
          <ns3:TrackPointExtension>
            <ns3:hr>188</ns3:hr>
            <ns3:cad>72</ns3:cad>
          </ns3:TrackPointExtension>
        </extensions>
      </trkpt>
      <trkpt lat="47.56320384331047534942626953125" lon="11.03131673298776149749755859375">
        <ele>1017.5999755859375</ele>
        <time>2026-09-01T06:32:01.000Z</time>
        <extensions>
          <ns3:TrackPointExtension>
            <ns3:hr>188</ns3:hr>
            <ns3:cad>75</ns3:cad>
          </ns3:TrackPointExtension>
        </extensions>
      </trkpt>
      <trkpt lat="47.5632076151669025421142578125" lon="11.03129376657307147979736328125">
        <ele>1017.79998779296875</ele>
        <time>2026-09-01T06:32:02.000Z</time>
        <extensions>
          <ns3:TrackPointExtension>
            <ns3:hr>188</ns3:hr>
            <ns3:cad>75</ns3:cad>
          </ns3:TrackPointExtension>
        </extensions>
      </trkpt>
      <trkpt lat="47.56322085857391357421875" lon="11.031282283365726470947265625">
        <ele>1017.79998779296875</ele>
        <time>2026-09-01T06:32:03.000Z</time>
        <extensions>
          <ns3:TrackPointExtension>
            <ns3:hr>188</ns3:hr>
            <ns3:cad>75</ns3:cad>
          </ns3:TrackPointExtension>
        </extensions>
      </trkpt>
      <trkpt lat="47.563226222991943359375" lon="11.031272225081920623779296875">
        <ele>1018</ele>
        <time>2026-09-01T06:32:04.000Z</time>
        <extensions>
          <ns3:TrackPointExtension>
            <ns3:hr>188</ns3:hr>
            <ns3:cad>75</ns3:cad>
          </ns3:TrackPointExtension>
        </extensions>
      </trkpt>
      <trkpt lat="47.5632369518280029296875" lon="11.0312576405704021453857421875">
        <ele>1018</ele>
        <time>2026-09-01T06:32:05.000Z</time>
        <extensions>
          <ns3:TrackPointExtension>
            <ns3:hr>189</ns3:hr>
            <ns3:cad>75</ns3:cad>
          </ns3:TrackPointExtension>
        </extensions>
      </trkpt>
      <trkpt lat="47.56325061433017253875732421875" lon="11.0312455706298351287841796875">
        <ele>1018.4000244140625</ele>
        <time>2026-09-01T06:32:06.000Z</time>
        <extensions>
          <ns3:TrackPointExtension>
            <ns3:hr>188</ns3:hr>
            <ns3:cad>77</ns3:cad>
          </ns3:TrackPointExtension>
        </extensions>
      </trkpt>
      <trkpt lat="47.56325631402432918548583984375" lon="11.03123442269861698150634765625">
        <ele>1018.5999755859375</ele>
        <time>2026-09-01T06:32:07.000Z</time>
        <extensions>
          <ns3:TrackPointExtension>
            <ns3:hr>188</ns3:hr>
            <ns3:cad>77</ns3:cad>
          </ns3:TrackPointExtension>
        </extensions>
      </trkpt>
      <trkpt lat="47.56326176226139068603515625" lon="11.03119603358209133148193359375">
        <ele>1018.79998779296875</ele>
        <time>2026-09-01T06:32:08.000Z</time>
        <extensions>
          <ns3:TrackPointExtension>
            <ns3:hr>188</ns3:hr>
            <ns3:cad>77</ns3:cad>
          </ns3:TrackPointExtension>
        </extensions>
      </trkpt>
      <trkpt lat="47.56326268427073955535888671875" lon="11.03117239661514759063720703125">
        <ele>1019.20001220703125</ele>
        <time>2026-09-01T06:32:09.000Z</time>
        <extensions>
          <ns3:TrackPointExtension>
            <ns3:hr>189</ns3:hr>
            <ns3:cad>77</ns3:cad>
          </ns3:TrackPointExtension>
        </extensions>
      </trkpt>
      <trkpt lat="47.5632677972316741943359375" lon="11.03115177713334560394287109375">
        <ele>1019.4000244140625</ele>
        <time>2026-09-01T06:32:10.000Z</time>
        <extensions>
          <ns3:TrackPointExtension>
            <ns3:hr>188</ns3:hr>
            <ns3:cad>77</ns3:cad>
          </ns3:TrackPointExtension>
        </extensions>
      </trkpt>
      <trkpt lat="47.56326586939394474029541015625" lon="11.03112780489027500152587890625">
        <ele>1019.5999755859375</ele>
        <time>2026-09-01T06:32:11.000Z</time>
        <extensions>
          <ns3:TrackPointExtension>
            <ns3:hr>188</ns3:hr>
            <ns3:cad>77</ns3:cad>
          </ns3:TrackPointExtension>
        </extensions>
      </trkpt>
      <trkpt lat="47.563256733119487762451171875" lon="11.03110467083752155303955078125">
        <ele>1019.79998779296875</ele>
        <time>2026-09-01T06:32:12.000Z</time>
        <extensions>
          <ns3:TrackPointExtension>
            <ns3:hr>189</ns3:hr>
            <ns3:cad>57</ns3:cad>
          </ns3:TrackPointExtension>
        </extensions>
      </trkpt>
      <trkpt lat="47.56325581111013889312744140625" lon="11.03108958341181278228759765625">
        <ele>1020.20001220703125</ele>
        <time>2026-09-01T06:32:13.000Z</time>
        <extensions>
          <ns3:TrackPointExtension>
            <ns3:hr>188</ns3:hr>
            <ns3:cad>57</ns3:cad>
          </ns3:TrackPointExtension>
        </extensions>
      </trkpt>
      <trkpt lat="47.56324701011180877685546875" lon="11.031072400510311126708984375">
        <ele>1020.4000244140625</ele>
        <time>2026-09-01T06:32:14.000Z</time>
        <extensions>
          <ns3:TrackPointExtension>
            <ns3:hr>187</ns3:hr>
            <ns3:cad>57</ns3:cad>
          </ns3:TrackPointExtension>
        </extensions>
      </trkpt>
      <trkpt lat="47.56324105896055698394775390625" lon="11.03106628172099590301513671875">
        <ele>1020.79998779296875</ele>
        <time>2026-09-01T06:32:15.000Z</time>
        <extensions>
          <ns3:TrackPointExtension>
            <ns3:hr>187</ns3:hr>
            <ns3:cad>57</ns3:cad>
          </ns3:TrackPointExtension>
        </extensions>
      </trkpt>
      <trkpt lat="47.5632421486079692840576171875" lon="11.03105387650430202484130859375">
        <ele>1021.20001220703125</ele>
        <time>2026-09-01T06:32:16.000Z</time>
        <extensions>
          <ns3:TrackPointExtension>
            <ns3:hr>187</ns3:hr>
            <ns3:cad>0</ns3:cad>
          </ns3:TrackPointExtension>
        </extensions>
      </trkpt>
      <trkpt lat="47.5632382929325103759765625" lon="11.03104666806757450103759765625">
        <ele>1021.4000244140625</ele>
        <time>2026-09-01T06:32:17.000Z</time>
        <extensions>
          <ns3:TrackPointExtension>
            <ns3:hr>186</ns3:hr>
            <ns3:cad>0</ns3:cad>
          </ns3:TrackPointExtension>
        </extensions>
      </trkpt>
      <trkpt lat="47.56323485635221004486083984375" lon="11.03103677742183208465576171875">
        <ele>1021.79998779296875</ele>
        <time>2026-09-01T06:32:18.000Z</time>
        <extensions>
          <ns3:TrackPointExtension>
            <ns3:hr>187</ns3:hr>
            <ns3:cad>0</ns3:cad>
          </ns3:TrackPointExtension>
        </extensions>
      </trkpt>
      <trkpt lat="47.563231922686100006103515625" lon="11.03102386929094791412353515625">
        <ele>1022.20001220703125</ele>
        <time>2026-09-01T06:32:19.000Z</time>
        <extensions>
          <ns3:TrackPointExtension>
            <ns3:hr>187</ns3:hr>
            <ns3:cad>0</ns3:cad>
          </ns3:TrackPointExtension>
        </extensions>
      </trkpt>
      <trkpt lat="47.56322982721030712127685546875" lon="11.0310123860836029052734375">
        <ele>1022.4000244140625</ele>
        <time>2026-09-01T06:32:20.000Z</time>
        <extensions>
          <ns3:TrackPointExtension>
            <ns3:hr>187</ns3:hr>
            <ns3:cad>0</ns3:cad>
          </ns3:TrackPointExtension>
        </extensions>
      </trkpt>
      <trkpt lat="47.56322647444903850555419921875" lon="11.0309998132288455963134765625">
        <ele>1022.79998779296875</ele>
        <time>2026-09-01T06:32:21.000Z</time>
        <extensions>
          <ns3:TrackPointExtension>
            <ns3:hr>187</ns3:hr>
            <ns3:cad>0</ns3:cad>
          </ns3:TrackPointExtension>
        </extensions>
      </trkpt>
      <trkpt lat="47.5632221996784210205078125" lon="11.03098799474537372589111328125">
        <ele>1023.4000244140625</ele>
        <time>2026-09-01T06:32:22.000Z</time>
        <extensions>
          <ns3:TrackPointExtension>
            <ns3:hr>186</ns3:hr>
            <ns3:cad>0</ns3:cad>
          </ns3:TrackPointExtension>
        </extensions>
      </trkpt>
      <trkpt lat="47.56321926601231098175048828125" lon="11.030973494052886962890625">
        <ele>1023.79998779296875</ele>
        <time>2026-09-01T06:32:23.000Z</time>
        <extensions>
          <ns3:TrackPointExtension>
            <ns3:hr>187</ns3:hr>
            <ns3:cad>55</ns3:cad>
          </ns3:TrackPointExtension>
        </extensions>
      </trkpt>
      <trkpt lat="47.56321541033685207366943359375" lon="11.0309582389891147613525390625">
        <ele>1024.199951171875</ele>
        <time>2026-09-01T06:32:24.000Z</time>
        <extensions>
          <ns3:TrackPointExtension>
            <ns3:hr>187</ns3:hr>
            <ns3:cad>55</ns3:cad>
          </ns3:TrackPointExtension>
        </extensions>
      </trkpt>
      <trkpt lat="47.56320786662399768829345703125" lon="11.0309428162872791290283203125">
        <ele>1024.5999755859375</ele>
        <time>2026-09-01T06:32:25.000Z</time>
        <extensions>
          <ns3:TrackPointExtension>
            <ns3:hr>187</ns3:hr>
            <ns3:cad>55</ns3:cad>
          </ns3:TrackPointExtension>
        </extensions>
      </trkpt>
      <trkpt lat="47.563199736177921295166015625" lon="11.03092077188193798065185546875">
        <ele>1025.199951171875</ele>
        <time>2026-09-01T06:32:26.000Z</time>
        <extensions>
          <ns3:TrackPointExtension>
            <ns3:hr>188</ns3:hr>
            <ns3:cad>55</ns3:cad>
          </ns3:TrackPointExtension>
        </extensions>
      </trkpt>
      <trkpt lat="47.5631931982934474945068359375" lon="11.0309049300849437713623046875">
        <ele>1025.4000244140625</ele>
        <time>2026-09-01T06:32:27.000Z</time>
        <extensions>
          <ns3:TrackPointExtension>
            <ns3:hr>187</ns3:hr>
            <ns3:cad>55</ns3:cad>
          </ns3:TrackPointExtension>
        </extensions>
      </trkpt>
      <trkpt lat="47.5631955452263355255126953125" lon="11.03089529089629650115966796875">
        <ele>1025.800048828125</ele>
        <time>2026-09-01T06:32:28.000Z</time>
        <extensions>
          <ns3:TrackPointExtension>
            <ns3:hr>188</ns3:hr>
            <ns3:cad>40</ns3:cad>
          </ns3:TrackPointExtension>
        </extensions>
      </trkpt>
      <trkpt lat="47.5631881691515445709228515625" lon="11.03087919764220714569091796875">
        <ele>1026.199951171875</ele>
        <time>2026-09-01T06:32:29.000Z</time>
        <extensions>
          <ns3:TrackPointExtension>
            <ns3:hr>188</ns3:hr>
            <ns3:cad>40</ns3:cad>
          </ns3:TrackPointExtension>
        </extensions>
      </trkpt>
      <trkpt lat="47.5631873309612274169921875" lon="11.030867211520671844482421875">
        <ele>1026.4000244140625</ele>
        <time>2026-09-01T06:32:30.000Z</time>
        <extensions>
          <ns3:TrackPointExtension>
            <ns3:hr>188</ns3:hr>
            <ns3:cad>0</ns3:cad>
          </ns3:TrackPointExtension>
        </extensions>
      </trkpt>
      <trkpt lat="47.56318925879895687103271484375" lon="11.03085069917142391204833984375">
        <ele>1026.800048828125</ele>
        <time>2026-09-01T06:32:31.000Z</time>
        <extensions>
          <ns3:TrackPointExtension>
            <ns3:hr>188</ns3:hr>
            <ns3:cad>0</ns3:cad>
          </ns3:TrackPointExtension>
        </extensions>
      </trkpt>
      <trkpt lat="47.56318531930446624755859375" lon="11.0308422334492206573486328125">
        <ele>1027.199951171875</ele>
        <time>2026-09-01T06:32:32.000Z</time>
        <extensions>
          <ns3:TrackPointExtension>
            <ns3:hr>189</ns3:hr>
            <ns3:cad>0</ns3:cad>
          </ns3:TrackPointExtension>
        </extensions>
      </trkpt>
      <trkpt lat="47.563178278505802154541015625" lon="11.0308288224041461944580078125">
        <ele>1027.5999755859375</ele>
        <time>2026-09-01T06:32:33.000Z</time>
        <extensions>
          <ns3:TrackPointExtension>
            <ns3:hr>189</ns3:hr>
            <ns3:cad>0</ns3:cad>
          </ns3:TrackPointExtension>
        </extensions>
      </trkpt>
      <trkpt lat="47.56317350082099437713623046875" lon="11.0308165848255157470703125">
        <ele>1027.800048828125</ele>
        <time>2026-09-01T06:32:34.000Z</time>
        <extensions>
          <ns3:TrackPointExtension>
            <ns3:hr>189</ns3:hr>
            <ns3:cad>0</ns3:cad>
          </ns3:TrackPointExtension>
        </extensions>
      </trkpt>
      <trkpt lat="47.56316780112683773040771484375" lon="11.030807532370090484619140625">
        <ele>1028.199951171875</ele>
        <time>2026-09-01T06:32:35.000Z</time>
        <extensions>
          <ns3:TrackPointExtension>
            <ns3:hr>189</ns3:hr>
            <ns3:cad>0</ns3:cad>
          </ns3:TrackPointExtension>
        </extensions>
      </trkpt>
      <trkpt lat="47.56316117942333221435546875" lon="11.03079755790531635284423828125">
        <ele>1028.5999755859375</ele>
        <time>2026-09-01T06:32:36.000Z</time>
        <extensions>
          <ns3:TrackPointExtension>
            <ns3:hr>189</ns3:hr>
            <ns3:cad>0</ns3:cad>
          </ns3:TrackPointExtension>
        </extensions>
      </trkpt>
      <trkpt lat="47.56315539591014385223388671875" lon="11.03078582324087619781494140625">
        <ele>1029</ele>
        <time>2026-09-01T06:32:37.000Z</time>
        <extensions>
          <ns3:TrackPointExtension>
            <ns3:hr>189</ns3:hr>
            <ns3:cad>0</ns3:cad>
          </ns3:TrackPointExtension>
        </extensions>
      </trkpt>
      <trkpt lat="47.56313578225672245025634765625" lon="11.0307441651821136474609375">
        <ele>1029.5999755859375</ele>
        <time>2026-09-01T06:32:38.000Z</time>
        <extensions>
          <ns3:TrackPointExtension>
            <ns3:hr>188</ns3:hr>
            <ns3:cad>0</ns3:cad>
          </ns3:TrackPointExtension>
        </extensions>
      </trkpt>
      <trkpt lat="47.5631261430680751800537109375" lon="11.03072480298578739166259765625">
        <ele>1030</ele>
        <time>2026-09-01T06:32:39.000Z</time>
        <extensions>
          <ns3:TrackPointExtension>
            <ns3:hr>188</ns3:hr>
            <ns3:cad>0</ns3:cad>
          </ns3:TrackPointExtension>
        </extensions>
      </trkpt>
      <trkpt lat="47.5631229579448699951171875" lon="11.03070451878011226654052734375">
        <ele>1030.4000244140625</ele>
        <time>2026-09-01T06:32:40.000Z</time>
        <extensions>
          <ns3:TrackPointExtension>
            <ns3:hr>187</ns3:hr>
            <ns3:cad>0</ns3:cad>
          </ns3:TrackPointExtension>
        </extensions>
      </trkpt>
      <trkpt lat="47.56311264820396900177001953125" lon="11.03067954070866107940673828125">
        <ele>1030.800048828125</ele>
        <time>2026-09-01T06:32:41.000Z</time>
        <extensions>
          <ns3:TrackPointExtension>
            <ns3:hr>186</ns3:hr>
            <ns3:cad>0</ns3:cad>
          </ns3:TrackPointExtension>
        </extensions>
      </trkpt>
      <trkpt lat="47.563108541071414947509765625" lon="11.03066193871200084686279296875">
        <ele>1031.199951171875</ele>
        <time>2026-09-01T06:32:42.000Z</time>
        <extensions>
          <ns3:TrackPointExtension>
            <ns3:hr>185</ns3:hr>
            <ns3:cad>0</ns3:cad>
          </ns3:TrackPointExtension>
        </extensions>
      </trkpt>
      <trkpt lat="47.5631016679108142852783203125" lon="11.03063360787928104400634765625">
        <ele>1031.5999755859375</ele>
        <time>2026-09-01T06:32:43.000Z</time>
        <extensions>
          <ns3:TrackPointExtension>
            <ns3:hr>184</ns3:hr>
            <ns3:cad>0</ns3:cad>
          </ns3:TrackPointExtension>
        </extensions>
      </trkpt>
      <trkpt lat="47.563109882175922393798828125" lon="11.03061047382652759552001953125">
        <ele>1031.800048828125</ele>
        <time>2026-09-01T06:32:44.000Z</time>
        <extensions>
          <ns3:TrackPointExtension>
            <ns3:hr>184</ns3:hr>
            <ns3:cad>0</ns3:cad>
          </ns3:TrackPointExtension>
        </extensions>
      </trkpt>
      <trkpt lat="47.5631077028810977935791015625" lon="11.03058029897511005401611328125">
        <ele>1032</ele>
        <time>2026-09-01T06:32:45.000Z</time>
        <extensions>
          <ns3:TrackPointExtension>
            <ns3:hr>183</ns3:hr>
            <ns3:cad>0</ns3:cad>
          </ns3:TrackPointExtension>
        </extensions>
      </trkpt>
      <trkpt lat="47.563102506101131439208984375" lon="11.03055573999881744384765625">
        <ele>1032.4000244140625</ele>
        <time>2026-09-01T06:32:46.000Z</time>
        <extensions>
          <ns3:TrackPointExtension>
            <ns3:hr>183</ns3:hr>
            <ns3:cad>0</ns3:cad>
          </ns3:TrackPointExtension>
        </extensions>
      </trkpt>
      <trkpt lat="47.5630919449031352996826171875" lon="11.03052749298512935638427734375">
        <ele>1032.5999755859375</ele>
        <time>2026-09-01T06:32:47.000Z</time>
        <extensions>
          <ns3:TrackPointExtension>
            <ns3:hr>182</ns3:hr>
            <ns3:cad>72</ns3:cad>
          </ns3:TrackPointExtension>
        </extensions>
      </trkpt>
      <trkpt lat="47.56308917887508869171142578125" lon="11.03048734366893768310546875">
        <ele>1032.800048828125</ele>
        <time>2026-09-01T06:32:48.000Z</time>
        <extensions>
          <ns3:TrackPointExtension>
            <ns3:hr>182</ns3:hr>
            <ns3:cad>72</ns3:cad>
          </ns3:TrackPointExtension>
        </extensions>
      </trkpt>
      <trkpt lat="47.56308079697191715240478515625" lon="11.0304556600749492645263671875">
        <ele>1033</ele>
        <time>2026-09-01T06:32:49.000Z</time>
        <extensions>
          <ns3:TrackPointExtension>
            <ns3:hr>182</ns3:hr>
            <ns3:cad>79</ns3:cad>
          </ns3:TrackPointExtension>
        </extensions>
      </trkpt>
      <trkpt lat="47.56307090632617473602294921875" lon="11.030421964824199676513671875">
        <ele>1033</ele>
        <time>2026-09-01T06:32:50.000Z</time>
        <extensions>
          <ns3:TrackPointExtension>
            <ns3:hr>182</ns3:hr>
            <ns3:cad>79</ns3:cad>
          </ns3:TrackPointExtension>
        </extensions>
      </trkpt>
      <trkpt lat="47.56306059658527374267578125" lon="11.03038282133638858795166015625">
        <ele>1033</ele>
        <time>2026-09-01T06:32:51.000Z</time>
        <extensions>
          <ns3:TrackPointExtension>
            <ns3:hr>182</ns3:hr>
            <ns3:cad>78</ns3:cad>
          </ns3:TrackPointExtension>
        </extensions>
      </trkpt>
      <trkpt lat="47.56305229850113391876220703125" lon="11.03036035783588886260986328125">
        <ele>1032.800048828125</ele>
        <time>2026-09-01T06:32:52.000Z</time>
        <extensions>
          <ns3:TrackPointExtension>
            <ns3:hr>182</ns3:hr>
            <ns3:cad>77</ns3:cad>
          </ns3:TrackPointExtension>
        </extensions>
      </trkpt>
      <trkpt lat="47.56304844282567501068115234375" lon="11.0303272493183612823486328125">
        <ele>1032.5999755859375</ele>
        <time>2026-09-01T06:32:53.000Z</time>
        <extensions>
          <ns3:TrackPointExtension>
            <ns3:hr>183</ns3:hr>
            <ns3:cad>77</ns3:cad>
          </ns3:TrackPointExtension>
        </extensions>
      </trkpt>
      <trkpt lat="47.56304978393018245697021484375" lon="11.03029447607696056365966796875">
        <ele>1032.4000244140625</ele>
        <time>2026-09-01T06:32:54.000Z</time>
        <extensions>
          <ns3:TrackPointExtension>
            <ns3:hr>183</ns3:hr>
            <ns3:cad>78</ns3:cad>
          </ns3:TrackPointExtension>
        </extensions>
      </trkpt>
      <trkpt lat="47.5630476884543895721435546875" lon="11.03025910444557666778564453125">
        <ele>1032.199951171875</ele>
        <time>2026-09-01T06:32:55.000Z</time>
        <extensions>
          <ns3:TrackPointExtension>
            <ns3:hr>184</ns3:hr>
            <ns3:cad>78</ns3:cad>
          </ns3:TrackPointExtension>
        </extensions>
      </trkpt>
      <trkpt lat="47.5630559027194976806640625" lon="11.03023647330701351165771484375">
        <ele>1032.199951171875</ele>
        <time>2026-09-01T06:32:56.000Z</time>
        <extensions>
          <ns3:TrackPointExtension>
            <ns3:hr>185</ns3:hr>
            <ns3:cad>79</ns3:cad>
          </ns3:TrackPointExtension>
        </extensions>
      </trkpt>
      <trkpt lat="47.56306285969913005828857421875" lon="11.03022138588130474090576171875">
        <ele>1032.199951171875</ele>
        <time>2026-09-01T06:32:57.000Z</time>
        <extensions>
          <ns3:TrackPointExtension>
            <ns3:hr>185</ns3:hr>
            <ns3:cad>80</ns3:cad>
          </ns3:TrackPointExtension>
        </extensions>
      </trkpt>
      <trkpt lat="47.56306973285973072052001953125" lon="11.03019766509532928466796875">
        <ele>1032.4000244140625</ele>
        <time>2026-09-01T06:32:58.000Z</time>
        <extensions>
          <ns3:TrackPointExtension>
            <ns3:hr>186</ns3:hr>
            <ns3:cad>80</ns3:cad>
          </ns3:TrackPointExtension>
        </extensions>
      </trkpt>
      <trkpt lat="47.56307065486907958984375" lon="11.0301753692328929901123046875">
        <ele>1032.800048828125</ele>
        <time>2026-09-01T06:32:59.000Z</time>
        <extensions>
          <ns3:TrackPointExtension>
            <ns3:hr>186</ns3:hr>
            <ns3:cad>80</ns3:cad>
          </ns3:TrackPointExtension>
        </extensions>
      </trkpt>
      <trkpt lat="47.5630855746567249298095703125" lon="11.03016455657780170440673828125">
        <ele>1033.199951171875</ele>
        <time>2026-09-01T06:33:00.000Z</time>
        <extensions>
          <ns3:TrackPointExtension>
            <ns3:hr>187</ns3:hr>
            <ns3:cad>80</ns3:cad>
          </ns3:TrackPointExtension>
        </extensions>
      </trkpt>
      <trkpt lat="47.56309655494987964630126953125" lon="11.03013220243155956268310546875">
        <ele>1033.5999755859375</ele>
        <time>2026-09-01T06:33:01.000Z</time>
        <extensions>
          <ns3:TrackPointExtension>
            <ns3:hr>187</ns3:hr>
            <ns3:cad>80</ns3:cad>
          </ns3:TrackPointExtension>
        </extensions>
      </trkpt>
      <trkpt lat="47.56310577504336833953857421875" lon="11.03010915219783782958984375">
        <ele>1034.199951171875</ele>
        <time>2026-09-01T06:33:02.000Z</time>
        <extensions>
          <ns3:TrackPointExtension>
            <ns3:hr>188</ns3:hr>
            <ns3:cad>80</ns3:cad>
          </ns3:TrackPointExtension>
        </extensions>
      </trkpt>
      <trkpt lat="47.56310828961431980133056640625" lon="11.0300955735146999359130859375">
        <ele>1034.5999755859375</ele>
        <time>2026-09-01T06:33:03.000Z</time>
        <extensions>
          <ns3:TrackPointExtension>
            <ns3:hr>194</ns3:hr>
            <ns3:cad>80</ns3:cad>
          </ns3:TrackPointExtension>
        </extensions>
      </trkpt>
      <trkpt lat="47.5631095468997955322265625" lon="11.0300808213651180267333984375">
        <ele>1035</ele>
        <time>2026-09-01T06:33:04.000Z</time>
        <extensions>
          <ns3:TrackPointExtension>
            <ns3:hr>196</ns3:hr>
            <ns3:cad>80</ns3:cad>
          </ns3:TrackPointExtension>
        </extensions>
      </trkpt>
      <trkpt lat="47.56311021745204925537109375" lon="11.03006749413907527923583984375">
        <ele>1035.5999755859375</ele>
        <time>2026-09-01T06:33:05.000Z</time>
        <extensions>
          <ns3:TrackPointExtension>
            <ns3:hr>195</ns3:hr>
            <ns3:cad>0</ns3:cad>
          </ns3:TrackPointExtension>
        </extensions>
      </trkpt>
      <trkpt lat="47.5631127320230007171630859375" lon="11.03005324490368366241455078125">
        <ele>1036</ele>
        <time>2026-09-01T06:33:06.000Z</time>
        <extensions>
          <ns3:TrackPointExtension>
            <ns3:hr>195</ns3:hr>
            <ns3:cad>0</ns3:cad>
          </ns3:TrackPointExtension>
        </extensions>
      </trkpt>
      <trkpt lat="47.563103847205638885498046875" lon="11.03003430180251598358154296875">
        <ele>1036.4000244140625</ele>
        <time>2026-09-01T06:33:07.000Z</time>
        <extensions>
          <ns3:TrackPointExtension>
            <ns3:hr>194</ns3:hr>
            <ns3:cad>0</ns3:cad>
          </ns3:TrackPointExtension>
        </extensions>
      </trkpt>
      <trkpt lat="47.563103847205638885498046875" lon="11.03001787327229976654052734375">
        <ele>1036.800048828125</ele>
        <time>2026-09-01T06:33:08.000Z</time>
        <extensions>
          <ns3:TrackPointExtension>
            <ns3:hr>194</ns3:hr>
            <ns3:cad>0</ns3:cad>
          </ns3:TrackPointExtension>
        </extensions>
      </trkpt>
      <trkpt lat="47.563104517757892608642578125" lon="11.03000563569366931915283203125">
        <ele>1037</ele>
        <time>2026-09-01T06:33:09.000Z</time>
        <extensions>
          <ns3:TrackPointExtension>
            <ns3:hr>194</ns3:hr>
            <ns3:cad>0</ns3:cad>
          </ns3:TrackPointExtension>
        </extensions>
      </trkpt>
      <trkpt lat="47.5631030090153217315673828125" lon="11.0299812443554401397705078125">
        <ele>1037.5999755859375</ele>
        <time>2026-09-01T06:33:10.000Z</time>
        <extensions>
          <ns3:TrackPointExtension>
            <ns3:hr>193</ns3:hr>
            <ns3:cad>0</ns3:cad>
          </ns3:TrackPointExtension>
        </extensions>
      </trkpt>
      <trkpt lat="47.5630932860076427459716796875" lon="11.02995366789400577545166015625">
        <ele>1038</ele>
        <time>2026-09-01T06:33:11.000Z</time>
        <extensions>
          <ns3:TrackPointExtension>
            <ns3:hr>194</ns3:hr>
            <ns3:cad>0</ns3:cad>
          </ns3:TrackPointExtension>
        </extensions>
      </trkpt>
      <trkpt lat="47.56309219636023044586181640625" lon="11.0299359820783138275146484375">
        <ele>1038.4000244140625</ele>
        <time>2026-09-01T06:33:12.000Z</time>
        <extensions>
          <ns3:TrackPointExtension>
            <ns3:hr>194</ns3:hr>
            <ns3:cad>76</ns3:cad>
          </ns3:TrackPointExtension>
        </extensions>
      </trkpt>
      <trkpt lat="47.5630946271121501922607421875" lon="11.0299185477197170257568359375">
        <ele>1038.800048828125</ele>
        <time>2026-09-01T06:33:13.000Z</time>
        <extensions>
          <ns3:TrackPointExtension>
            <ns3:hr>195</ns3:hr>
            <ns3:cad>76</ns3:cad>
          </ns3:TrackPointExtension>
        </extensions>
      </trkpt>
      <trkpt lat="47.563095130026340484619140625" lon="11.02988560684025287628173828125">
        <ele>1039</ele>
        <time>2026-09-01T06:33:14.000Z</time>
        <extensions>
          <ns3:TrackPointExtension>
            <ns3:hr>195</ns3:hr>
            <ns3:cad>77</ns3:cad>
          </ns3:TrackPointExtension>
        </extensions>
      </trkpt>
      <trkpt lat="47.56309454329311847686767578125" lon="11.0298625566065311431884765625">
        <ele>1039.199951171875</ele>
        <time>2026-09-01T06:33:15.000Z</time>
        <extensions>
          <ns3:TrackPointExtension>
            <ns3:hr>195</ns3:hr>
            <ns3:cad>77</ns3:cad>
          </ns3:TrackPointExtension>
        </extensions>
      </trkpt>
      <trkpt lat="47.5630952976644039154052734375" lon="11.0298313759267330169677734375">
        <ele>1039.199951171875</ele>
        <time>2026-09-01T06:33:16.000Z</time>
        <extensions>
          <ns3:TrackPointExtension>
            <ns3:hr>195</ns3:hr>
            <ns3:cad>77</ns3:cad>
          </ns3:TrackPointExtension>
        </extensions>
      </trkpt>
      <trkpt lat="47.56309370510280132293701171875" lon="11.02979508228600025177001953125">
        <ele>1039.4000244140625</ele>
        <time>2026-09-01T06:33:17.000Z</time>
        <extensions>
          <ns3:TrackPointExtension>
            <ns3:hr>195</ns3:hr>
            <ns3:cad>77</ns3:cad>
          </ns3:TrackPointExtension>
        </extensions>
      </trkpt>
      <trkpt lat="47.56309546530246734619140625" lon="11.02975652553141117095947265625">
        <ele>1039.800048828125</ele>
        <time>2026-09-01T06:33:18.000Z</time>
        <extensions>
          <ns3:TrackPointExtension>
            <ns3:hr>195</ns3:hr>
            <ns3:cad>77</ns3:cad>
          </ns3:TrackPointExtension>
        </extensions>
      </trkpt>
      <trkpt lat="47.563105523586273193359375" lon="11.029731296002864837646484375">
        <ele>1040</ele>
        <time>2026-09-01T06:33:19.000Z</time>
        <extensions>
          <ns3:TrackPointExtension>
            <ns3:hr>194</ns3:hr>
            <ns3:cad>77</ns3:cad>
          </ns3:TrackPointExtension>
        </extensions>
      </trkpt>
      <trkpt lat="47.56310753524303436279296875" lon="11.0297061502933502197265625">
        <ele>1040.199951171875</ele>
        <time>2026-09-01T06:33:20.000Z</time>
        <extensions>
          <ns3:TrackPointExtension>
            <ns3:hr>195</ns3:hr>
            <ns3:cad>77</ns3:cad>
          </ns3:TrackPointExtension>
        </extensions>
      </trkpt>
      <trkpt lat="47.5631107203662395477294921875" lon="11.02967488579452037811279296875">
        <ele>1040.5999755859375</ele>
        <time>2026-09-01T06:33:21.000Z</time>
        <extensions>
          <ns3:TrackPointExtension>
            <ns3:hr>195</ns3:hr>
            <ns3:cad>77</ns3:cad>
          </ns3:TrackPointExtension>
        </extensions>
      </trkpt>
      <trkpt lat="47.5631127320230007171630859375" lon="11.02964035235345363616943359375">
        <ele>1040.800048828125</ele>
        <time>2026-09-01T06:33:22.000Z</time>
        <extensions>
          <ns3:TrackPointExtension>
            <ns3:hr>195</ns3:hr>
            <ns3:cad>77</ns3:cad>
          </ns3:TrackPointExtension>
        </extensions>
      </trkpt>
      <trkpt lat="47.5631149113178253173828125" lon="11.029615290462970733642578125">
        <ele>1041.199951171875</ele>
        <time>2026-09-01T06:33:23.000Z</time>
        <extensions>
          <ns3:TrackPointExtension>
            <ns3:hr>195</ns3:hr>
            <ns3:cad>77</ns3:cad>
          </ns3:TrackPointExtension>
        </extensions>
      </trkpt>
      <trkpt lat="47.5631149113178253173828125" lon="11.02959509007632732391357421875">
        <ele>1041.4000244140625</ele>
        <time>2026-09-01T06:33:24.000Z</time>
        <extensions>
          <ns3:TrackPointExtension>
            <ns3:hr>196</ns3:hr>
            <ns3:cad>77</ns3:cad>
          </ns3:TrackPointExtension>
        </extensions>
      </trkpt>
      <trkpt lat="47.56311818026006221771240234375" lon="11.0295738838613033294677734375">
        <ele>1041.5999755859375</ele>
        <time>2026-09-01T06:33:25.000Z</time>
        <extensions>
          <ns3:TrackPointExtension>
            <ns3:hr>196</ns3:hr>
            <ns3:cad>77</ns3:cad>
          </ns3:TrackPointExtension>
        </extensions>
      </trkpt>
      <trkpt lat="47.56312086246907711029052734375" lon="11.0295530967414379119873046875">
        <ele>1041.800048828125</ele>
        <time>2026-09-01T06:33:26.000Z</time>
        <extensions>
          <ns3:TrackPointExtension>
            <ns3:hr>196</ns3:hr>
            <ns3:cad>77</ns3:cad>
          </ns3:TrackPointExtension>
        </extensions>
      </trkpt>
      <trkpt lat="47.56312287412583827972412109375" lon="11.02953440509736537933349609375">
        <ele>1042</ele>
        <time>2026-09-01T06:33:27.000Z</time>
        <extensions>
          <ns3:TrackPointExtension>
            <ns3:hr>196</ns3:hr>
            <ns3:cad>77</ns3:cad>
          </ns3:TrackPointExtension>
        </extensions>
      </trkpt>
      <trkpt lat="47.56312773562967777252197265625" lon="11.0295209102332592010498046875">
        <ele>1042</ele>
        <time>2026-09-01T06:33:28.000Z</time>
        <extensions>
          <ns3:TrackPointExtension>
            <ns3:hr>197</ns3:hr>
            <ns3:cad>77</ns3:cad>
          </ns3:TrackPointExtension>
        </extensions>
      </trkpt>
      <trkpt lat="47.56313242949545383453369140625" lon="11.0295091755688190460205078125">
        <ele>1042.199951171875</ele>
        <time>2026-09-01T06:33:29.000Z</time>
        <extensions>
          <ns3:TrackPointExtension>
            <ns3:hr>196</ns3:hr>
            <ns3:cad>59</ns3:cad>
          </ns3:TrackPointExtension>
        </extensions>
      </trkpt>
      <trkpt lat="47.5631336867809295654296875" lon="11.0294914059340953826904296875">
        <ele>1042.4000244140625</ele>
        <time>2026-09-01T06:33:30.000Z</time>
        <extensions>
          <ns3:TrackPointExtension>
            <ns3:hr>195</ns3:hr>
            <ns3:cad>59</ns3:cad>
          </ns3:TrackPointExtension>
        </extensions>
      </trkpt>
      <trkpt lat="47.563147433102130889892578125" lon="11.0294756479561328887939453125">
        <ele>1042.5999755859375</ele>
        <time>2026-09-01T06:33:31.000Z</time>
        <extensions>
          <ns3:TrackPointExtension>
            <ns3:hr>194</ns3:hr>
            <ns3:cad>59</ns3:cad>
          </ns3:TrackPointExtension>
        </extensions>
      </trkpt>
      <trkpt lat="47.56315036676824092864990234375" lon="11.02946181781589984893798828125">
        <ele>1043</ele>
        <time>2026-09-01T06:33:32.000Z</time>
        <extensions>
          <ns3:TrackPointExtension>
            <ns3:hr>192</ns3:hr>
            <ns3:cad>59</ns3:cad>
          </ns3:TrackPointExtension>
        </extensions>
      </trkpt>
      <trkpt lat="47.56315187551081180572509765625" lon="11.02944890968501567840576171875">
        <ele>1043.4000244140625</ele>
        <time>2026-09-01T06:33:33.000Z</time>
        <extensions>
          <ns3:TrackPointExtension>
            <ns3:hr>192</ns3:hr>
            <ns3:cad>57</ns3:cad>
          </ns3:TrackPointExtension>
        </extensions>
      </trkpt>
      <trkpt lat="47.56316126324236392974853515625" lon="11.02941806428134441375732421875">
        <ele>1044</ele>
        <time>2026-09-01T06:33:34.000Z</time>
        <extensions>
          <ns3:TrackPointExtension>
            <ns3:hr>192</ns3:hr>
            <ns3:cad>56</ns3:cad>
          </ns3:TrackPointExtension>
        </extensions>
      </trkpt>
      <trkpt lat="47.56316930986940860748291015625" lon="11.02939224801957607269287109375">
        <ele>1044.199951171875</ele>
        <time>2026-09-01T06:33:35.000Z</time>
        <extensions>
          <ns3:TrackPointExtension>
            <ns3:hr>192</ns3:hr>
            <ns3:cad>56</ns3:cad>
          </ns3:TrackPointExtension>
        </extensions>
      </trkpt>
      <trkpt lat="47.5631760992109775543212890625" lon="11.0293713770806789398193359375">
        <ele>1044.5999755859375</ele>
        <time>2026-09-01T06:33:36.000Z</time>
        <extensions>
          <ns3:TrackPointExtension>
            <ns3:hr>191</ns3:hr>
            <ns3:cad>56</ns3:cad>
          </ns3:TrackPointExtension>
        </extensions>
      </trkpt>
      <trkpt lat="47.5631720758974552154541015625" lon="11.02934815920889377593994140625">
        <ele>1044.800048828125</ele>
        <time>2026-09-01T06:33:37.000Z</time>
        <extensions>
          <ns3:TrackPointExtension>
            <ns3:hr>186</ns3:hr>
            <ns3:cad>56</ns3:cad>
          </ns3:TrackPointExtension>
        </extensions>
      </trkpt>
      <trkpt lat="47.56316746585071086883544921875" lon="11.0293252766132354736328125">
        <ele>1045</ele>
        <time>2026-09-01T06:33:38.000Z</time>
        <extensions>
          <ns3:TrackPointExtension>
            <ns3:hr>183</ns3:hr>
            <ns3:cad>0</ns3:cad>
          </ns3:TrackPointExtension>
        </extensions>
      </trkpt>
      <trkpt lat="47.56316679529845714569091796875" lon="11.02929803542792797088623046875">
        <ele>1045</ele>
        <time>2026-09-01T06:33:39.000Z</time>
        <extensions>
          <ns3:TrackPointExtension>
            <ns3:hr>181</ns3:hr>
            <ns3:cad>0</ns3:cad>
          </ns3:TrackPointExtension>
        </extensions>
      </trkpt>
      <trkpt lat="47.56316495127975940704345703125" lon="11.0292716324329376220703125">
        <ele>1045.4000244140625</ele>
        <time>2026-09-01T06:33:40.000Z</time>
        <extensions>
          <ns3:TrackPointExtension>
            <ns3:hr>178</ns3:hr>
            <ns3:cad>0</ns3:cad>
          </ns3:TrackPointExtension>
        </extensions>
      </trkpt>
      <trkpt lat="47.5631616823375225067138671875" lon="11.02924690581858158111572265625">
        <ele>1045.800048828125</ele>
        <time>2026-09-01T06:33:41.000Z</time>
        <extensions>
          <ns3:TrackPointExtension>
            <ns3:hr>178</ns3:hr>
            <ns3:cad>0</ns3:cad>
          </ns3:TrackPointExtension>
        </extensions>
      </trkpt>
      <trkpt lat="47.56315958686172962188720703125" lon="11.0292241908609867095947265625">
        <ele>1046</ele>
        <time>2026-09-01T06:33:42.000Z</time>
        <extensions>
          <ns3:TrackPointExtension>
            <ns3:hr>178</ns3:hr>
            <ns3:cad>0</ns3:cad>
          </ns3:TrackPointExtension>
        </extensions>
      </trkpt>
      <trkpt lat="47.563158161938190460205078125" lon="11.0291869752109050750732421875">
        <ele>1046.4000244140625</ele>
        <time>2026-09-01T06:33:43.000Z</time>
        <extensions>
          <ns3:TrackPointExtension>
            <ns3:hr>178</ns3:hr>
            <ns3:cad>0</ns3:cad>
          </ns3:TrackPointExtension>
        </extensions>
      </trkpt>
      <trkpt lat="47.56315355189144611358642578125" lon="11.02914498187601566314697265625">
        <ele>1046.800048828125</ele>
        <time>2026-09-01T06:33:44.000Z</time>
        <extensions>
          <ns3:TrackPointExtension>
            <ns3:hr>178</ns3:hr>
            <ns3:cad>0</ns3:cad>
          </ns3:TrackPointExtension>
        </extensions>
      </trkpt>
      <trkpt lat="47.56315103732049465179443359375" lon="11.02911631576716899871826171875">
        <ele>1047</ele>
        <time>2026-09-01T06:33:45.000Z</time>
        <extensions>
          <ns3:TrackPointExtension>
            <ns3:hr>178</ns3:hr>
            <ns3:cad>0</ns3:cad>
          </ns3:TrackPointExtension>
        </extensions>
      </trkpt>
      <trkpt lat="47.56314584054052829742431640625" lon="11.02907960303127765655517578125">
        <ele>1047.199951171875</ele>
        <time>2026-09-01T06:33:46.000Z</time>
        <extensions>
          <ns3:TrackPointExtension>
            <ns3:hr>179</ns3:hr>
            <ns3:cad>79</ns3:cad>
          </ns3:TrackPointExtension>
        </extensions>
      </trkpt>
      <trkpt lat="47.56313662044703960418701171875" lon="11.0290387831628322601318359375">
        <ele>1047.4000244140625</ele>
        <time>2026-09-01T06:33:47.000Z</time>
        <extensions>
          <ns3:TrackPointExtension>
            <ns3:hr>179</ns3:hr>
            <ns3:cad>79</ns3:cad>
          </ns3:TrackPointExtension>
        </extensions>
      </trkpt>
      <trkpt lat="47.56313259713351726531982421875" lon="11.02900651283562183380126953125">
        <ele>1047.5999755859375</ele>
        <time>2026-09-01T06:33:48.000Z</time>
        <extensions>
          <ns3:TrackPointExtension>
            <ns3:hr>179</ns3:hr>
            <ns3:cad>79</ns3:cad>
          </ns3:TrackPointExtension>
        </extensions>
      </trkpt>
      <trkpt lat="47.56312957964837551116943359375" lon="11.02896845899522304534912109375">
        <ele>1047.5999755859375</ele>
        <time>2026-09-01T06:33:49.000Z</time>
        <extensions>
          <ns3:TrackPointExtension>
            <ns3:hr>180</ns3:hr>
            <ns3:cad>79</ns3:cad>
          </ns3:TrackPointExtension>
        </extensions>
      </trkpt>
      <trkpt lat="47.56311885081231594085693359375" lon="11.02893727831542491912841796875">
        <ele>1047.800048828125</ele>
        <time>2026-09-01T06:33:50.000Z</time>
        <extensions>
          <ns3:TrackPointExtension>
            <ns3:hr>180</ns3:hr>
            <ns3:cad>79</ns3:cad>
          </ns3:TrackPointExtension>
        </extensions>
      </trkpt>
      <trkpt lat="47.563121616840362548828125" lon="11.02890442125499248504638671875">
        <ele>1048</ele>
        <time>2026-09-01T06:33:51.000Z</time>
        <extensions>
          <ns3:TrackPointExtension>
            <ns3:hr>181</ns3:hr>
            <ns3:cad>79</ns3:cad>
          </ns3:TrackPointExtension>
        </extensions>
      </trkpt>
      <trkpt lat="47.56312387995421886444091796875" lon="11.02887793444097042083740234375">
        <ele>1048.199951171875</ele>
        <time>2026-09-01T06:33:52.000Z</time>
        <extensions>
          <ns3:TrackPointExtension>
            <ns3:hr>181</ns3:hr>
            <ns3:cad>80</ns3:cad>
          </ns3:TrackPointExtension>
        </extensions>
      </trkpt>
      <trkpt lat="47.5631278194487094879150390625" lon="11.02884851396083831787109375">
        <ele>1048.5999755859375</ele>
        <time>2026-09-01T06:33:53.000Z</time>
        <extensions>
          <ns3:TrackPointExtension>
            <ns3:hr>182</ns3:hr>
            <ns3:cad>80</ns3:cad>
          </ns3:TrackPointExtension>
        </extensions>
      </trkpt>
      <trkpt lat="47.56312622688710689544677734375" lon="11.02883049286901950836181640625">
        <ele>1048.800048828125</ele>
        <time>2026-09-01T06:33:54.000Z</time>
        <extensions>
          <ns3:TrackPointExtension>
            <ns3:hr>182</ns3:hr>
            <ns3:cad>81</ns3:cad>
          </ns3:TrackPointExtension>
        </extensions>
      </trkpt>
      <trkpt lat="47.56312488578259944915771484375" lon="11.028811298310756683349609375">
        <ele>1049.199951171875</ele>
        <time>2026-09-01T06:33:55.000Z</time>
        <extensions>
          <ns3:TrackPointExtension>
            <ns3:hr>183</ns3:hr>
            <ns3:cad>81</ns3:cad>
          </ns3:TrackPointExtension>
        </extensions>
      </trkpt>
      <trkpt lat="47.56312362849712371826171875" lon="11.028789840638637542724609375">
        <ele>1049.5999755859375</ele>
        <time>2026-09-01T06:33:56.000Z</time>
        <extensions>
          <ns3:TrackPointExtension>
            <ns3:hr>183</ns3:hr>
            <ns3:cad>78</ns3:cad>
          </ns3:TrackPointExtension>
        </extensions>
      </trkpt>
      <trkpt lat="47.5631130672991275787353515625" lon="11.02875773794949054718017578125">
        <ele>1050</ele>
        <time>2026-09-01T06:33:57.000Z</time>
        <extensions>
          <ns3:TrackPointExtension>
            <ns3:hr>184</ns3:hr>
            <ns3:cad>78</ns3:cad>
          </ns3:TrackPointExtension>
        </extensions>
      </trkpt>
      <trkpt lat="47.5631080381572246551513671875" lon="11.02873225696384906768798828125">
        <ele>1050.4000244140625</ele>
        <time>2026-09-01T06:33:58.000Z</time>
        <extensions>
          <ns3:TrackPointExtension>
            <ns3:hr>184</ns3:hr>
            <ns3:cad>77</ns3:cad>
          </ns3:TrackPointExtension>
        </extensions>
      </trkpt>
      <trkpt lat="47.5630989857017993927001953125" lon="11.02869655005633831024169921875">
        <ele>1051</ele>
        <time>2026-09-01T06:33:59.000Z</time>
        <extensions>
          <ns3:TrackPointExtension>
            <ns3:hr>185</ns3:hr>
            <ns3:cad>77</ns3:cad>
          </ns3:TrackPointExtension>
        </extensions>
      </trkpt>
      <trkpt lat="47.563092447817325592041015625" lon="11.028664447367191314697265625">
        <ele>1051.4000244140625</ele>
        <time>2026-09-01T06:34:00.000Z</time>
        <extensions>
          <ns3:TrackPointExtension>
            <ns3:hr>186</ns3:hr>
            <ns3:cad>0</ns3:cad>
          </ns3:TrackPointExtension>
        </extensions>
      </trkpt>
      <trkpt lat="47.56309269927442073822021484375" lon="11.02862966246902942657470703125">
        <ele>1052</ele>
        <time>2026-09-01T06:34:01.000Z</time>
        <extensions>
          <ns3:TrackPointExtension>
            <ns3:hr>186</ns3:hr>
            <ns3:cad>0</ns3:cad>
          </ns3:TrackPointExtension>
        </extensions>
      </trkpt>
      <trkpt lat="47.56309085525572299957275390625" lon="11.02859244681894779205322265625">
        <ele>1052.4000244140625</ele>
        <time>2026-09-01T06:34:02.000Z</time>
        <extensions>
          <ns3:TrackPointExtension>
            <ns3:hr>187</ns3:hr>
            <ns3:cad>0</ns3:cad>
          </ns3:TrackPointExtension>
        </extensions>
      </trkpt>
      <trkpt lat="47.56307878531515598297119140625" lon="11.02855690754950046539306640625">
        <ele>1052.4000244140625</ele>
        <time>2026-09-01T06:34:03.000Z</time>
        <extensions>
          <ns3:TrackPointExtension>
            <ns3:hr>187</ns3:hr>
            <ns3:cad>0</ns3:cad>
          </ns3:TrackPointExtension>
        </extensions>
      </trkpt>
      <trkpt lat="47.56307643838226795196533203125" lon="11.0285254754126071929931640625">
        <ele>1052.199951171875</ele>
        <time>2026-09-01T06:34:04.000Z</time>
        <extensions>
          <ns3:TrackPointExtension>
            <ns3:hr>188</ns3:hr>
            <ns3:cad>0</ns3:cad>
          </ns3:TrackPointExtension>
        </extensions>
      </trkpt>
      <trkpt lat="47.56306068040430545806884765625" lon="11.02848079986870288848876953125">
        <ele>1052</ele>
        <time>2026-09-01T06:34:05.000Z</time>
        <extensions>
          <ns3:TrackPointExtension>
            <ns3:hr>188</ns3:hr>
            <ns3:cad>75</ns3:cad>
          </ns3:TrackPointExtension>
        </extensions>
      </trkpt>
      <trkpt lat="47.56305598653852939605712890625" lon="11.02844811044633388519287109375">
        <ele>1052</ele>
        <time>2026-09-01T06:34:06.000Z</time>
        <extensions>
          <ns3:TrackPointExtension>
            <ns3:hr>188</ns3:hr>
            <ns3:cad>76</ns3:cad>
          </ns3:TrackPointExtension>
        </extensions>
      </trkpt>
      <trkpt lat="47.5630470179021358489990234375" lon="11.0284173488616943359375">
        <ele>1051.800048828125</ele>
        <time>2026-09-01T06:34:07.000Z</time>
        <extensions>
          <ns3:TrackPointExtension>
            <ns3:hr>187</ns3:hr>
            <ns3:cad>76</ns3:cad>
          </ns3:TrackPointExtension>
        </extensions>
      </trkpt>
      <trkpt lat="47.56304408423602581024169921875" lon="11.02838977240025997161865234375">
        <ele>1052</ele>
        <time>2026-09-01T06:34:08.000Z</time>
        <extensions>
          <ns3:TrackPointExtension>
            <ns3:hr>187</ns3:hr>
            <ns3:cad>77</ns3:cad>
          </ns3:TrackPointExtension>
        </extensions>
      </trkpt>
      <trkpt lat="47.56304048001766204833984375" lon="11.028370074927806854248046875">
        <ele>1052.199951171875</ele>
        <time>2026-09-01T06:34:09.000Z</time>
        <extensions>
          <ns3:TrackPointExtension>
            <ns3:hr>187</ns3:hr>
            <ns3:cad>77</ns3:cad>
          </ns3:TrackPointExtension>
        </extensions>
      </trkpt>
      <trkpt lat="47.5630352832376956939697265625" lon="11.0283521376550197601318359375">
        <ele>1052.5999755859375</ele>
        <time>2026-09-01T06:34:10.000Z</time>
        <extensions>
          <ns3:TrackPointExtension>
            <ns3:hr>187</ns3:hr>
            <ns3:cad>41</ns3:cad>
          </ns3:TrackPointExtension>
        </extensions>
      </trkpt>
      <trkpt lat="47.563028074800968170166015625" lon="11.028331182897090911865234375">
        <ele>1053</ele>
        <time>2026-09-01T06:34:11.000Z</time>
        <extensions>
          <ns3:TrackPointExtension>
            <ns3:hr>186</ns3:hr>
            <ns3:cad>41</ns3:cad>
          </ns3:TrackPointExtension>
        </extensions>
      </trkpt>
      <trkpt lat="47.5630315952003002166748046875" lon="11.0283015109598636627197265625">
        <ele>1053.5999755859375</ele>
        <time>2026-09-01T06:34:12.000Z</time>
        <extensions>
          <ns3:TrackPointExtension>
            <ns3:hr>185</ns3:hr>
            <ns3:cad>41</ns3:cad>
          </ns3:TrackPointExtension>
        </extensions>
      </trkpt>
      <trkpt lat="47.563036791980266571044921875" lon="11.02828248403966426849365234375">
        <ele>1054</ele>
        <time>2026-09-01T06:34:13.000Z</time>
        <extensions>
          <ns3:TrackPointExtension>
            <ns3:hr>184</ns3:hr>
            <ns3:cad>41</ns3:cad>
          </ns3:TrackPointExtension>
        </extensions>
      </trkpt>
      <trkpt lat="47.56303335539996623992919921875" lon="11.0282693244516849517822265625">
        <ele>1054.5999755859375</ele>
        <time>2026-09-01T06:34:14.000Z</time>
        <extensions>
          <ns3:TrackPointExtension>
            <ns3:hr>184</ns3:hr>
            <ns3:cad>41</ns3:cad>
          </ns3:TrackPointExtension>
        </extensions>
      </trkpt>
      <trkpt lat="47.5630282424390316009521484375" lon="11.0282523930072784423828125">
        <ele>1055</ele>
        <time>2026-09-01T06:34:15.000Z</time>
        <extensions>
          <ns3:TrackPointExtension>
            <ns3:hr>185</ns3:hr>
            <ns3:cad>41</ns3:cad>
          </ns3:TrackPointExtension>
        </extensions>
      </trkpt>
      <trkpt lat="47.563031427562236785888671875" lon="11.028237976133823394775390625">
        <ele>1055.4000244140625</ele>
        <time>2026-09-01T06:34:16.000Z</time>
        <extensions>
          <ns3:TrackPointExtension>
            <ns3:hr>186</ns3:hr>
            <ns3:cad>0</ns3:cad>
          </ns3:TrackPointExtension>
        </extensions>
      </trkpt>
      <trkpt lat="47.563025392591953277587890625" lon="11.0282257385551929473876953125">
        <ele>1055.800048828125</ele>
        <time>2026-09-01T06:34:17.000Z</time>
        <extensions>
          <ns3:TrackPointExtension>
            <ns3:hr>186</ns3:hr>
            <ns3:cad>0</ns3:cad>
          </ns3:TrackPointExtension>
        </extensions>
      </trkpt>
      <trkpt lat="47.56301960907876491546630859375" lon="11.0282041132450103759765625">
        <ele>1056.199951171875</ele>
        <time>2026-09-01T06:34:18.000Z</time>
        <extensions>
          <ns3:TrackPointExtension>
            <ns3:hr>187</ns3:hr>
            <ns3:cad>0</ns3:cad>
          </ns3:TrackPointExtension>
        </extensions>
      </trkpt>
      <trkpt lat="47.56301390938460826873779296875" lon="11.02818978019058704376220703125">
        <ele>1056.5999755859375</ele>
        <time>2026-09-01T06:34:19.000Z</time>
        <extensions>
          <ns3:TrackPointExtension>
            <ns3:hr>187</ns3:hr>
            <ns3:cad>0</ns3:cad>
          </ns3:TrackPointExtension>
        </extensions>
      </trkpt>
      <trkpt lat="47.56300703622400760650634765625" lon="11.02816279046237468719482421875">
        <ele>1056.800048828125</ele>
        <time>2026-09-01T06:34:20.000Z</time>
        <extensions>
          <ns3:TrackPointExtension>
            <ns3:hr>187</ns3:hr>
            <ns3:cad>0</ns3:cad>
          </ns3:TrackPointExtension>
        </extensions>
      </trkpt>
      <trkpt lat="47.56299982778728008270263671875" lon="11.0281429253518581390380859375">
        <ele>1057.199951171875</ele>
        <time>2026-09-01T06:34:21.000Z</time>
        <extensions>
          <ns3:TrackPointExtension>
            <ns3:hr>187</ns3:hr>
            <ns3:cad>0</ns3:cad>
          </ns3:TrackPointExtension>
        </extensions>
      </trkpt>
      <trkpt lat="47.5629968941211700439453125" lon="11.0281295143067836761474609375">
        <ele>1057.4000244140625</ele>
        <time>2026-09-01T06:34:22.000Z</time>
        <extensions>
          <ns3:TrackPointExtension>
            <ns3:hr>186</ns3:hr>
            <ns3:cad>0</ns3:cad>
          </ns3:TrackPointExtension>
        </extensions>
      </trkpt>
      <trkpt lat="47.56298557855188846588134765625" lon="11.028096489608287811279296875">
        <ele>1057.4000244140625</ele>
        <time>2026-09-01T06:34:23.000Z</time>
        <extensions>
          <ns3:TrackPointExtension>
            <ns3:hr>186</ns3:hr>
            <ns3:cad>55</ns3:cad>
          </ns3:TrackPointExtension>
        </extensions>
      </trkpt>
      <trkpt lat="47.56297451443970203399658203125" lon="11.02805952541530132293701171875">
        <ele>1057.5999755859375</ele>
        <time>2026-09-01T06:34:24.000Z</time>
        <extensions>
          <ns3:TrackPointExtension>
            <ns3:hr>186</ns3:hr>
            <ns3:cad>55</ns3:cad>
          </ns3:TrackPointExtension>
        </extensions>
      </trkpt>
      <trkpt lat="47.56298138760030269622802734375" lon="11.0280369780957698822021484375">
        <ele>1057.5999755859375</ele>
        <time>2026-09-01T06:34:25.000Z</time>
        <extensions>
          <ns3:TrackPointExtension>
            <ns3:hr>184</ns3:hr>
            <ns3:cad>55</ns3:cad>
          </ns3:TrackPointExtension>
        </extensions>
      </trkpt>
      <trkpt lat="47.56296537816524505615234375" lon="11.0280235670506954193115234375">
        <ele>1057.4000244140625</ele>
        <time>2026-09-01T06:34:26.000Z</time>
        <extensions>
          <ns3:TrackPointExtension>
            <ns3:hr>183</ns3:hr>
            <ns3:cad>56</ns3:cad>
          </ns3:TrackPointExtension>
        </extensions>
      </trkpt>
      <trkpt lat="47.56295355968177318572998046875" lon="11.02802046574652194976806640625">
        <ele>1057.4000244140625</ele>
        <time>2026-09-01T06:34:27.000Z</time>
        <extensions>
          <ns3:TrackPointExtension>
            <ns3:hr>178</ns3:hr>
            <ns3:cad>57</ns3:cad>
          </ns3:TrackPointExtension>
        </extensions>
      </trkpt>
      <trkpt lat="47.56294618360698223114013671875" lon="11.02802230976521968841552734375">
        <ele>1057.4000244140625</ele>
        <time>2026-09-01T06:34:28.000Z</time>
        <extensions>
          <ns3:TrackPointExtension>
            <ns3:hr>172</ns3:hr>
            <ns3:cad>58</ns3:cad>
          </ns3:TrackPointExtension>
        </extensions>
      </trkpt>
      <trkpt lat="47.562938891351222991943359375" lon="11.0280309431254863739013671875">
        <ele>1057.4000244140625</ele>
        <time>2026-09-01T06:34:29.000Z</time>
        <extensions>
          <ns3:TrackPointExtension>
            <ns3:hr>171</ns3:hr>
            <ns3:cad>58</ns3:cad>
          </ns3:TrackPointExtension>
        </extensions>
      </trkpt>
      <trkpt lat="47.56292925216257572174072265625" lon="11.02803521789610385894775390625">
        <ele>1057.4000244140625</ele>
        <time>2026-09-01T06:34:30.000Z</time>
        <extensions>
          <ns3:TrackPointExtension>
            <ns3:hr>171</ns3:hr>
            <ns3:cad>58</ns3:cad>
          </ns3:TrackPointExtension>
        </extensions>
      </trkpt>
      <trkpt lat="47.5629219599068164825439453125" lon="11.02804779075086116790771484375">
        <ele>1057.5999755859375</ele>
        <time>2026-09-01T06:34:31.000Z</time>
        <extensions>
          <ns3:TrackPointExtension>
            <ns3:hr>171</ns3:hr>
            <ns3:cad>57</ns3:cad>
          </ns3:TrackPointExtension>
        </extensions>
      </trkpt>
      <trkpt lat="47.56291097961366176605224609375" lon="11.02804519236087799072265625">
        <ele>1057.5999755859375</ele>
        <time>2026-09-01T06:34:32.000Z</time>
        <extensions>
          <ns3:TrackPointExtension>
            <ns3:hr>171</ns3:hr>
            <ns3:cad>56</ns3:cad>
          </ns3:TrackPointExtension>
        </extensions>
      </trkpt>
      <trkpt lat="47.56291936151683330535888671875" lon="11.02803119458258152008056640625">
        <ele>1057.800048828125</ele>
        <time>2026-09-01T06:34:33.000Z</time>
        <extensions>
          <ns3:TrackPointExtension>
            <ns3:hr>171</ns3:hr>
            <ns3:cad>56</ns3:cad>
          </ns3:TrackPointExtension>
        </extensions>
      </trkpt>
      <trkpt lat="47.56292422302067279815673828125" lon="11.0280175320804119110107421875">
        <ele>1058</ele>
        <time>2026-09-01T06:34:34.000Z</time>
        <extensions>
          <ns3:TrackPointExtension>
            <ns3:hr>172</ns3:hr>
            <ns3:cad>55</ns3:cad>
          </ns3:TrackPointExtension>
        </extensions>
      </trkpt>
      <trkpt lat="47.56293411366641521453857421875" lon="11.027996242046356201171875">
        <ele>1058</ele>
        <time>2026-09-01T06:34:35.000Z</time>
        <extensions>
          <ns3:TrackPointExtension>
            <ns3:hr>171</ns3:hr>
            <ns3:cad>55</ns3:cad>
          </ns3:TrackPointExtension>
        </extensions>
      </trkpt>
      <trkpt lat="47.56293713115155696868896484375" lon="11.02797788567841053009033203125">
        <ele>1058</ele>
        <time>2026-09-01T06:34:36.000Z</time>
        <extensions>
          <ns3:TrackPointExtension>
            <ns3:hr>171</ns3:hr>
            <ns3:cad>55</ns3:cad>
          </ns3:TrackPointExtension>
        </extensions>
      </trkpt>
      <trkpt lat="47.562943585216999053955078125" lon="11.02796397171914577484130859375">
        <ele>1057.800048828125</ele>
        <time>2026-09-01T06:34:37.000Z</time>
        <extensions>
          <ns3:TrackPointExtension>
            <ns3:hr>170</ns3:hr>
            <ns3:cad>55</ns3:cad>
          </ns3:TrackPointExtension>
        </extensions>
      </trkpt>
      <trkpt lat="47.56293428130447864532470703125" lon="11.02798643521964550018310546875">
        <ele>1057.800048828125</ele>
        <time>2026-09-01T06:34:38.000Z</time>
        <extensions>
          <ns3:TrackPointExtension>
            <ns3:hr>170</ns3:hr>
            <ns3:cad>55</ns3:cad>
          </ns3:TrackPointExtension>
        </extensions>
      </trkpt>
      <trkpt lat="47.56291399709880352020263671875" lon="11.02801208384335041046142578125">
        <ele>1057.5999755859375</ele>
        <time>2026-09-01T06:34:39.000Z</time>
        <extensions>
          <ns3:TrackPointExtension>
            <ns3:hr>170</ns3:hr>
            <ns3:cad>55</ns3:cad>
          </ns3:TrackPointExtension>
        </extensions>
      </trkpt>
      <trkpt lat="47.56290410645306110382080078125" lon="11.0280389897525310516357421875">
        <ele>1057.5999755859375</ele>
        <time>2026-09-01T06:34:40.000Z</time>
        <extensions>
          <ns3:TrackPointExtension>
            <ns3:hr>169</ns3:hr>
            <ns3:cad>55</ns3:cad>
          </ns3:TrackPointExtension>
        </extensions>
      </trkpt>
      <trkpt lat="47.56290092132985591888427734375" lon="11.02806639857590198516845703125">
        <ele>1057.800048828125</ele>
        <time>2026-09-01T06:34:41.000Z</time>
        <extensions>
          <ns3:TrackPointExtension>
            <ns3:hr>168</ns3:hr>
            <ns3:cad>55</ns3:cad>
          </ns3:TrackPointExtension>
        </extensions>
      </trkpt>
      <trkpt lat="47.56289153359830379486083984375" lon="11.02808601222932338714599609375">
        <ele>1057.800048828125</ele>
        <time>2026-09-01T06:34:42.000Z</time>
        <extensions>
          <ns3:TrackPointExtension>
            <ns3:hr>167</ns3:hr>
            <ns3:cad>0</ns3:cad>
          </ns3:TrackPointExtension>
        </extensions>
      </trkpt>
      <trkpt lat="47.56288759410381317138671875" lon="11.02811015211045742034912109375">
        <ele>1057.800048828125</ele>
        <time>2026-09-01T06:34:43.000Z</time>
        <extensions>
          <ns3:TrackPointExtension>
            <ns3:hr>166</ns3:hr>
            <ns3:cad>0</ns3:cad>
          </ns3:TrackPointExtension>
        </extensions>
      </trkpt>
      <trkpt lat="47.56288248114287853240966796875" lon="11.028126664459705352783203125">
        <ele>1058</ele>
        <time>2026-09-01T06:34:44.000Z</time>
        <extensions>
          <ns3:TrackPointExtension>
            <ns3:hr>166</ns3:hr>
            <ns3:cad>77</ns3:cad>
          </ns3:TrackPointExtension>
        </extensions>
      </trkpt>
      <trkpt lat="47.56288063712418079376220703125" lon="11.02813479490578174591064453125">
        <ele>1058</ele>
        <time>2026-09-01T06:34:45.000Z</time>
        <extensions>
          <ns3:TrackPointExtension>
            <ns3:hr>166</ns3:hr>
            <ns3:cad>77</ns3:cad>
          </ns3:TrackPointExtension>
        </extensions>
      </trkpt>
      <trkpt lat="47.56288700737059116363525390625" lon="11.02812406606972217559814453125">
        <ele>1058</ele>
        <time>2026-09-01T06:34:46.000Z</time>
        <extensions>
          <ns3:TrackPointExtension>
            <ns3:hr>166</ns3:hr>
            <ns3:cad>0</ns3:cad>
          </ns3:TrackPointExtension>
        </extensions>
      </trkpt>
      <trkpt lat="47.56290008313953876495361328125" lon="11.0281030274927616119384765625">
        <ele>1057.800048828125</ele>
        <time>2026-09-01T06:34:47.000Z</time>
        <extensions>
          <ns3:TrackPointExtension>
            <ns3:hr>166</ns3:hr>
            <ns3:cad>0</ns3:cad>
          </ns3:TrackPointExtension>
        </extensions>
      </trkpt>
      <trkpt lat="47.562917768955230712890625" lon="11.02806338109076023101806640625">
        <ele>1057.800048828125</ele>
        <time>2026-09-01T06:34:48.000Z</time>
        <extensions>
          <ns3:TrackPointExtension>
            <ns3:hr>166</ns3:hr>
            <ns3:cad>78</ns3:cad>
          </ns3:TrackPointExtension>
        </extensions>
      </trkpt>
      <trkpt lat="47.56293025799095630645751953125" lon="11.028028093278408050537109375">
        <ele>1057.5999755859375</ele>
        <time>2026-09-01T06:34:49.000Z</time>
        <extensions>
          <ns3:TrackPointExtension>
            <ns3:hr>165</ns3:hr>
            <ns3:cad>79</ns3:cad>
          </ns3:TrackPointExtension>
        </extensions>
      </trkpt>
      <trkpt lat="47.56293855607509613037109375" lon="11.027997918426990509033203125">
        <ele>1057.5999755859375</ele>
        <time>2026-09-01T06:34:50.000Z</time>
        <extensions>
          <ns3:TrackPointExtension>
            <ns3:hr>166</ns3:hr>
            <ns3:cad>79</ns3:cad>
          </ns3:TrackPointExtension>
        </extensions>
      </trkpt>
      <trkpt lat="47.5629593431949615478515625" lon="11.0279464535415172576904296875">
        <ele>1057.4000244140625</ele>
        <time>2026-09-01T06:34:51.000Z</time>
        <extensions>
          <ns3:TrackPointExtension>
            <ns3:hr>165</ns3:hr>
            <ns3:cad>79</ns3:cad>
          </ns3:TrackPointExtension>
        </extensions>
      </trkpt>
      <trkpt lat="47.56297283805906772613525390625" lon="11.0279055498540401458740234375">
        <ele>1057</ele>
        <time>2026-09-01T06:34:52.000Z</time>
        <extensions>
          <ns3:TrackPointExtension>
            <ns3:hr>165</ns3:hr>
            <ns3:cad>79</ns3:cad>
          </ns3:TrackPointExtension>
        </extensions>
      </trkpt>
      <trkpt lat="47.56297652609646320343017578125" lon="11.02786682546138763427734375">
        <ele>1056.800048828125</ele>
        <time>2026-09-01T06:34:53.000Z</time>
        <extensions>
          <ns3:TrackPointExtension>
            <ns3:hr>164</ns3:hr>
            <ns3:cad>81</ns3:cad>
          </ns3:TrackPointExtension>
        </extensions>
      </trkpt>
      <trkpt lat="47.56297367624938488006591796875" lon="11.02783061563968658447265625">
        <ele>1056.5999755859375</ele>
        <time>2026-09-01T06:34:54.000Z</time>
        <extensions>
          <ns3:TrackPointExtension>
            <ns3:hr>163</ns3:hr>
            <ns3:cad>81</ns3:cad>
          </ns3:TrackPointExtension>
        </extensions>
      </trkpt>
      <trkpt lat="47.56296277977526187896728515625" lon="11.02781142108142375946044921875">
        <ele>1056</ele>
        <time>2026-09-01T06:34:55.000Z</time>
        <extensions>
          <ns3:TrackPointExtension>
            <ns3:hr>163</ns3:hr>
            <ns3:cad>81</ns3:cad>
          </ns3:TrackPointExtension>
        </extensions>
      </trkpt>
      <trkpt lat="47.56294853053987026214599609375" lon="11.027799434959888458251953125">
        <ele>1056</ele>
        <time>2026-09-01T06:34:56.000Z</time>
        <extensions>
          <ns3:TrackPointExtension>
            <ns3:hr>164</ns3:hr>
            <ns3:cad>81</ns3:cad>
          </ns3:TrackPointExtension>
        </extensions>
      </trkpt>
      <trkpt lat="47.56292690522968769073486328125" lon="11.02778694592416286468505859375">
        <ele>1056.5999755859375</ele>
        <time>2026-09-01T06:34:57.000Z</time>
        <extensions>
          <ns3:TrackPointExtension>
            <ns3:hr>164</ns3:hr>
            <ns3:cad>81</ns3:cad>
          </ns3:TrackPointExtension>
        </extensions>
      </trkpt>
      <trkpt lat="47.56290997378528118133544921875" lon="11.02777772583067417144775390625">
        <ele>1057.199951171875</ele>
        <time>2026-09-01T06:34:58.000Z</time>
        <extensions>
          <ns3:TrackPointExtension>
            <ns3:hr>164</ns3:hr>
            <ns3:cad>82</ns3:cad>
          </ns3:TrackPointExtension>
        </extensions>
      </trkpt>
      <trkpt lat="47.56289119832217693328857421875" lon="11.027773953974246978759765625">
        <ele>1057.5999755859375</ele>
        <time>2026-09-01T06:34:59.000Z</time>
        <extensions>
          <ns3:TrackPointExtension>
            <ns3:hr>163</ns3:hr>
            <ns3:cad>83</ns3:cad>
          </ns3:TrackPointExtension>
        </extensions>
      </trkpt>
      <trkpt lat="47.5628708302974700927734375" lon="11.0277667455375194549560546875">
        <ele>1058.199951171875</ele>
        <time>2026-09-01T06:35:00.000Z</time>
        <extensions>
          <ns3:TrackPointExtension>
            <ns3:hr>163</ns3:hr>
            <ns3:cad>83</ns3:cad>
          </ns3:TrackPointExtension>
        </extensions>
      </trkpt>
      <trkpt lat="47.56284778006374835968017578125" lon="11.02774939499795436859130859375">
        <ele>1059</ele>
        <time>2026-09-01T06:35:01.000Z</time>
        <extensions>
          <ns3:TrackPointExtension>
            <ns3:hr>163</ns3:hr>
            <ns3:cad>83</ns3:cad>
          </ns3:TrackPointExtension>
        </extensions>
      </trkpt>
      <trkpt lat="47.56284006871283054351806640625" lon="11.02774118073284626007080078125">
        <ele>1059.5999755859375</ele>
        <time>2026-09-01T06:35:02.000Z</time>
        <extensions>
          <ns3:TrackPointExtension>
            <ns3:hr>162</ns3:hr>
            <ns3:cad>80</ns3:cad>
          </ns3:TrackPointExtension>
        </extensions>
      </trkpt>
      <trkpt lat="47.56282866932451725006103515625" lon="11.02772944606840610504150390625">
        <ele>1060.4000244140625</ele>
        <time>2026-09-01T06:35:03.000Z</time>
        <extensions>
          <ns3:TrackPointExtension>
            <ns3:hr>162</ns3:hr>
            <ns3:cad>80</ns3:cad>
          </ns3:TrackPointExtension>
        </extensions>
      </trkpt>
      <trkpt lat="47.56281157024204730987548828125" lon="11.02771553210914134979248046875">
        <ele>1060.800048828125</ele>
        <time>2026-09-01T06:35:04.000Z</time>
        <extensions>
          <ns3:TrackPointExtension>
            <ns3:hr>162</ns3:hr>
            <ns3:cad>80</ns3:cad>
          </ns3:TrackPointExtension>
        </extensions>
      </trkpt>
      <trkpt lat="47.56280000321567058563232421875" lon="11.0277006961405277252197265625">
        <ele>1061.4000244140625</ele>
        <time>2026-09-01T06:35:05.000Z</time>
        <extensions>
          <ns3:TrackPointExtension>
            <ns3:hr>162</ns3:hr>
            <ns3:cad>80</ns3:cad>
          </ns3:TrackPointExtension>
        </extensions>
      </trkpt>
      <trkpt lat="47.5627930462360382080078125" lon="11.027687452733516693115234375">
        <ele>1061.800048828125</ele>
        <time>2026-09-01T06:35:06.000Z</time>
        <extensions>
          <ns3:TrackPointExtension>
            <ns3:hr>162</ns3:hr>
            <ns3:cad>0</ns3:cad>
          </ns3:TrackPointExtension>
        </extensions>
      </trkpt>
      <trkpt lat="47.5627898611128330230712890625" lon="11.0276792384684085845947265625">
        <ele>1062.199951171875</ele>
        <time>2026-09-01T06:35:07.000Z</time>
        <extensions>
          <ns3:TrackPointExtension>
            <ns3:hr>162</ns3:hr>
            <ns3:cad>0</ns3:cad>
          </ns3:TrackPointExtension>
        </extensions>
      </trkpt>
      <trkpt lat="47.5627849996089935302734375" lon="11.0276718623936176300048828125">
        <ele>1062.5999755859375</ele>
        <time>2026-09-01T06:35:08.000Z</time>
        <extensions>
          <ns3:TrackPointExtension>
            <ns3:hr>162</ns3:hr>
            <ns3:cad>0</ns3:cad>
          </ns3:TrackPointExtension>
        </extensions>
      </trkpt>
      <trkpt lat="47.56277049891650676727294921875" lon="11.027653925120830535888671875">
        <ele>1063</ele>
        <time>2026-09-01T06:35:09.000Z</time>
        <extensions>
          <ns3:TrackPointExtension>
            <ns3:hr>162</ns3:hr>
            <ns3:cad>0</ns3:cad>
          </ns3:TrackPointExtension>
        </extensions>
      </trkpt>
      <trkpt lat="47.562756836414337158203125" lon="11.02763372473418712615966796875">
        <ele>1063.199951171875</ele>
        <time>2026-09-01T06:35:10.000Z</time>
        <extensions>
          <ns3:TrackPointExtension>
            <ns3:hr>163</ns3:hr>
            <ns3:cad>0</ns3:cad>
          </ns3:TrackPointExtension>
        </extensions>
      </trkpt>
      <trkpt lat="47.56275071762502193450927734375" lon="11.027615703642368316650390625">
        <ele>1063.5999755859375</ele>
        <time>2026-09-01T06:35:11.000Z</time>
        <extensions>
          <ns3:TrackPointExtension>
            <ns3:hr>162</ns3:hr>
            <ns3:cad>0</ns3:cad>
          </ns3:TrackPointExtension>
        </extensions>
      </trkpt>
      <trkpt lat="47.56274803541600704193115234375" lon="11.02759617380797863006591796875">
        <ele>1063.800048828125</ele>
        <time>2026-09-01T06:35:12.000Z</time>
        <extensions>
          <ns3:TrackPointExtension>
            <ns3:hr>162</ns3:hr>
            <ns3:cad>79</ns3:cad>
          </ns3:TrackPointExtension>
        </extensions>
      </trkpt>
      <trkpt lat="47.56273596547544002532958984375" lon="11.02757656015455722808837890625">
        <ele>1064</ele>
        <time>2026-09-01T06:35:13.000Z</time>
        <extensions>
          <ns3:TrackPointExtension>
            <ns3:hr>162</ns3:hr>
            <ns3:cad>79</ns3:cad>
          </ns3:TrackPointExtension>
        </extensions>
      </trkpt>
      <trkpt lat="47.5627301819622516632080078125" lon="11.02755895815789699554443359375">
        <ele>1064.4000244140625</ele>
        <time>2026-09-01T06:35:14.000Z</time>
        <extensions>
          <ns3:TrackPointExtension>
            <ns3:hr>163</ns3:hr>
            <ns3:cad>79</ns3:cad>
          </ns3:TrackPointExtension>
        </extensions>
      </trkpt>
      <trkpt lat="47.5627221353352069854736328125" lon="11.0275496542453765869140625">
        <ele>1064.5999755859375</ele>
        <time>2026-09-01T06:35:15.000Z</time>
        <extensions>
          <ns3:TrackPointExtension>
            <ns3:hr>163</ns3:hr>
            <ns3:cad>79</ns3:cad>
          </ns3:TrackPointExtension>
        </extensions>
      </trkpt>
      <trkpt lat="47.5627181120216846466064453125" lon="11.0275481455028057098388671875">
        <ele>1065</ele>
        <time>2026-09-01T06:35:16.000Z</time>
        <extensions>
          <ns3:TrackPointExtension>
            <ns3:hr>164</ns3:hr>
            <ns3:cad>79</ns3:cad>
          </ns3:TrackPointExtension>
        </extensions>
      </trkpt>
      <trkpt lat="47.56271366961300373077392578125" lon="11.027561388909816741943359375">
        <ele>1065.4000244140625</ele>
        <time>2026-09-01T06:35:17.000Z</time>
        <extensions>
          <ns3:TrackPointExtension>
            <ns3:hr>164</ns3:hr>
            <ns3:cad>79</ns3:cad>
          </ns3:TrackPointExtension>
        </extensions>
      </trkpt>
      <trkpt lat="47.5627098977565765380859375" lon="11.02756935171782970428466796875">
        <ele>1065.800048828125</ele>
        <time>2026-09-01T06:35:18.000Z</time>
        <extensions>
          <ns3:TrackPointExtension>
            <ns3:hr>165</ns3:hr>
            <ns3:cad>79</ns3:cad>
          </ns3:TrackPointExtension>
        </extensions>
      </trkpt>
      <trkpt lat="47.5627114064991474151611328125" lon="11.02758460678160190582275390625">
        <ele>1066.4000244140625</ele>
        <time>2026-09-01T06:35:19.000Z</time>
        <extensions>
          <ns3:TrackPointExtension>
            <ns3:hr>165</ns3:hr>
            <ns3:cad>79</ns3:cad>
          </ns3:TrackPointExtension>
        </extensions>
      </trkpt>
      <trkpt lat="47.56270796991884708404541015625" lon="11.0275925695896148681640625">
        <ele>1066.800048828125</ele>
        <time>2026-09-01T06:35:20.000Z</time>
        <extensions>
          <ns3:TrackPointExtension>
            <ns3:hr>166</ns3:hr>
            <ns3:cad>79</ns3:cad>
          </ns3:TrackPointExtension>
        </extensions>
      </trkpt>
      <trkpt lat="47.5627063773572444915771484375" lon="11.02760271169245243072509765625">
        <ele>1067.199951171875</ele>
        <time>2026-09-01T06:35:21.000Z</time>
        <extensions>
          <ns3:TrackPointExtension>
            <ns3:hr>166</ns3:hr>
            <ns3:cad>79</ns3:cad>
          </ns3:TrackPointExtension>
        </extensions>
      </trkpt>
      <trkpt lat="47.562701515853404998779296875" lon="11.02760874666273593902587890625">
        <ele>1067.5999755859375</ele>
        <time>2026-09-01T06:35:22.000Z</time>
        <extensions>
          <ns3:TrackPointExtension>
            <ns3:hr>166</ns3:hr>
            <ns3:cad>0</ns3:cad>
          </ns3:TrackPointExtension>
        </extensions>
      </trkpt>
      <trkpt lat="47.56270444951951503753662109375" lon="11.0276252590119838714599609375">
        <ele>1068.199951171875</ele>
        <time>2026-09-01T06:35:23.000Z</time>
        <extensions>
          <ns3:TrackPointExtension>
            <ns3:hr>166</ns3:hr>
            <ns3:cad>0</ns3:cad>
          </ns3:TrackPointExtension>
        </extensions>
      </trkpt>
      <trkpt lat="47.56270922720432281494140625" lon="11.02763238362967967987060546875">
        <ele>1068.4000244140625</ele>
        <time>2026-09-01T06:35:24.000Z</time>
        <extensions>
          <ns3:TrackPointExtension>
            <ns3:hr>165</ns3:hr>
            <ns3:cad>0</ns3:cad>
          </ns3:TrackPointExtension>
        </extensions>
      </trkpt>
      <trkpt lat="47.5627060420811176300048828125" lon="11.02764948271214962005615234375">
        <ele>1068.800048828125</ele>
        <time>2026-09-01T06:35:25.000Z</time>
        <extensions>
          <ns3:TrackPointExtension>
            <ns3:hr>164</ns3:hr>
            <ns3:cad>0</ns3:cad>
          </ns3:TrackPointExtension>
        </extensions>
      </trkpt>
      <trkpt lat="47.56269724108278751373291015625" lon="11.02765149436891078948974609375">
        <ele>1069</ele>
        <time>2026-09-01T06:35:26.000Z</time>
        <extensions>
          <ns3:TrackPointExtension>
            <ns3:hr>164</ns3:hr>
            <ns3:cad>0</ns3:cad>
          </ns3:TrackPointExtension>
        </extensions>
      </trkpt>
      <trkpt lat="47.56269606761634349822998046875" lon="11.02765702642500400543212890625">
        <ele>1069.4000244140625</ele>
        <time>2026-09-01T06:35:27.000Z</time>
        <extensions>
          <ns3:TrackPointExtension>
            <ns3:hr>164</ns3:hr>
            <ns3:cad>0</ns3:cad>
          </ns3:TrackPointExtension>
        </extensions>
      </trkpt>
      <trkpt lat="47.56268642842769622802734375" lon="11.02766423486173152923583984375">
        <ele>1069.5999755859375</ele>
        <time>2026-09-01T06:35:28.000Z</time>
        <extensions>
          <ns3:TrackPointExtension>
            <ns3:hr>164</ns3:hr>
            <ns3:cad>0</ns3:cad>
          </ns3:TrackPointExtension>
        </extensions>
      </trkpt>
      <trkpt lat="47.5626812316477298736572265625" lon="11.02767446078360080718994140625">
        <ele>1070.199951171875</ele>
        <time>2026-09-01T06:35:29.000Z</time>
        <extensions>
          <ns3:TrackPointExtension>
            <ns3:hr>165</ns3:hr>
            <ns3:cad>0</ns3:cad>
          </ns3:TrackPointExtension>
        </extensions>
      </trkpt>
      <trkpt lat="47.56267611868679523468017578125" lon="11.0276815854012966156005859375">
        <ele>1070.800048828125</ele>
        <time>2026-09-01T06:35:30.000Z</time>
        <extensions>
          <ns3:TrackPointExtension>
            <ns3:hr>165</ns3:hr>
            <ns3:cad>0</ns3:cad>
          </ns3:TrackPointExtension>
        </extensions>
      </trkpt>
      <trkpt lat="47.5626741908490657806396484375" lon="11.02768736891448497772216796875">
        <ele>1071.199951171875</ele>
        <time>2026-09-01T06:35:31.000Z</time>
        <extensions>
          <ns3:TrackPointExtension>
            <ns3:hr>165</ns3:hr>
            <ns3:cad>0</ns3:cad>
          </ns3:TrackPointExtension>
        </extensions>
      </trkpt>
      <trkpt lat="47.56267092190682888031005859375" lon="11.02770145051181316375732421875">
        <ele>1071.800048828125</ele>
        <time>2026-09-01T06:35:32.000Z</time>
        <extensions>
          <ns3:TrackPointExtension>
            <ns3:hr>165</ns3:hr>
            <ns3:cad>0</ns3:cad>
          </ns3:TrackPointExtension>
        </extensions>
      </trkpt>
      <trkpt lat="47.56266622804105281829833984375" lon="11.02771100588142871856689453125">
        <ele>1072</ele>
        <time>2026-09-01T06:35:33.000Z</time>
        <extensions>
          <ns3:TrackPointExtension>
            <ns3:hr>166</ns3:hr>
            <ns3:cad>0</ns3:cad>
          </ns3:TrackPointExtension>
        </extensions>
      </trkpt>
      <trkpt lat="47.56266505457460880279541015625" lon="11.0277241654694080352783203125">
        <ele>1072.4000244140625</ele>
        <time>2026-09-01T06:35:34.000Z</time>
        <extensions>
          <ns3:TrackPointExtension>
            <ns3:hr>165</ns3:hr>
            <ns3:cad>0</ns3:cad>
          </ns3:TrackPointExtension>
        </extensions>
      </trkpt>
      <trkpt lat="47.56266019307076930999755859375" lon="11.02774143218994140625">
        <ele>1073</ele>
        <time>2026-09-01T06:35:35.000Z</time>
        <extensions>
          <ns3:TrackPointExtension>
            <ns3:hr>165</ns3:hr>
            <ns3:cad>0</ns3:cad>
          </ns3:TrackPointExtension>
        </extensions>
      </trkpt>
      <trkpt lat="47.5626567564904689788818359375" lon="11.02775643579661846160888671875">
        <ele>1073.4000244140625</ele>
        <time>2026-09-01T06:35:36.000Z</time>
        <extensions>
          <ns3:TrackPointExtension>
            <ns3:hr>165</ns3:hr>
            <ns3:cad>0</ns3:cad>
          </ns3:TrackPointExtension>
        </extensions>
      </trkpt>
      <trkpt lat="47.562651224434375762939453125" lon="11.02777420543134212493896484375">
        <ele>1073.800048828125</ele>
        <time>2026-09-01T06:35:37.000Z</time>
        <extensions>
          <ns3:TrackPointExtension>
            <ns3:hr>164</ns3:hr>
            <ns3:cad>0</ns3:cad>
          </ns3:TrackPointExtension>
        </extensions>
      </trkpt>
      <trkpt lat="47.56264862604439258575439453125" lon="11.02778241969645023345947265625">
        <ele>1074</ele>
        <time>2026-09-01T06:35:38.000Z</time>
        <extensions>
          <ns3:TrackPointExtension>
            <ns3:hr>164</ns3:hr>
            <ns3:cad>75</ns3:cad>
          </ns3:TrackPointExtension>
        </extensions>
      </trkpt>
      <trkpt lat="47.56265248171985149383544921875" lon="11.02779398672282695770263671875">
        <ele>1074.4000244140625</ele>
        <time>2026-09-01T06:35:39.000Z</time>
        <extensions>
          <ns3:TrackPointExtension>
            <ns3:hr>164</ns3:hr>
            <ns3:cad>75</ns3:cad>
          </ns3:TrackPointExtension>
        </extensions>
      </trkpt>
      <trkpt lat="47.5626513920724391937255859375" lon="11.02780488319694995880126953125">
        <ele>1074.5999755859375</ele>
        <time>2026-09-01T06:35:40.000Z</time>
        <extensions>
          <ns3:TrackPointExtension>
            <ns3:hr>164</ns3:hr>
            <ns3:cad>75</ns3:cad>
          </ns3:TrackPointExtension>
        </extensions>
      </trkpt>
      <trkpt lat="47.56265231408178806304931640625" lon="11.02781091816723346710205078125">
        <ele>1074.800048828125</ele>
        <time>2026-09-01T06:35:41.000Z</time>
        <extensions>
          <ns3:TrackPointExtension>
            <ns3:hr>165</ns3:hr>
            <ns3:cad>75</ns3:cad>
          </ns3:TrackPointExtension>
        </extensions>
      </trkpt>
      <trkpt lat="47.5626550801098346710205078125" lon="11.02782432921230792999267578125">
        <ele>1075.199951171875</ele>
        <time>2026-09-01T06:35:42.000Z</time>
        <extensions>
          <ns3:TrackPointExtension>
            <ns3:hr>165</ns3:hr>
            <ns3:cad>75</ns3:cad>
          </ns3:TrackPointExtension>
        </extensions>
      </trkpt>
      <trkpt lat="47.5626594386994838714599609375" lon="11.02783740498125553131103515625">
        <ele>1075.4000244140625</ele>
        <time>2026-09-01T06:35:43.000Z</time>
        <extensions>
          <ns3:TrackPointExtension>
            <ns3:hr>166</ns3:hr>
            <ns3:cad>0</ns3:cad>
          </ns3:TrackPointExtension>
        </extensions>
      </trkpt>
      <trkpt lat="47.5626644678413867950439453125" lon="11.02785282768309116363525390625">
        <ele>1076</ele>
        <time>2026-09-01T06:35:44.000Z</time>
        <extensions>
          <ns3:TrackPointExtension>
            <ns3:hr>166</ns3:hr>
            <ns3:cad>0</ns3:cad>
          </ns3:TrackPointExtension>
        </extensions>
      </trkpt>
      <trkpt lat="47.56267041899263858795166015625" lon="11.02788350544869899749755859375">
        <ele>1076.4000244140625</ele>
        <time>2026-09-01T06:35:45.000Z</time>
        <extensions>
          <ns3:TrackPointExtension>
            <ns3:hr>166</ns3:hr>
            <ns3:cad>0</ns3:cad>
          </ns3:TrackPointExtension>
        </extensions>
      </trkpt>
      <trkpt lat="47.5626748614013195037841796875" lon="11.02790177799761295318603515625">
        <ele>1076.800048828125</ele>
        <time>2026-09-01T06:35:46.000Z</time>
        <extensions>
          <ns3:TrackPointExtension>
            <ns3:hr>166</ns3:hr>
            <ns3:cad>0</ns3:cad>
          </ns3:TrackPointExtension>
        </extensions>
      </trkpt>
      <trkpt lat="47.56267142482101917266845703125" lon="11.02791669778525829315185546875">
        <ele>1077.199951171875</ele>
        <time>2026-09-01T06:35:47.000Z</time>
        <extensions>
          <ns3:TrackPointExtension>
            <ns3:hr>166</ns3:hr>
            <ns3:cad>0</ns3:cad>
          </ns3:TrackPointExtension>
        </extensions>
      </trkpt>
      <trkpt lat="47.56267947144806385040283203125" lon="11.027938909828662872314453125">
        <ele>1077.4000244140625</ele>
        <time>2026-09-01T06:35:48.000Z</time>
        <extensions>
          <ns3:TrackPointExtension>
            <ns3:hr>166</ns3:hr>
            <ns3:cad>0</ns3:cad>
          </ns3:TrackPointExtension>
        </extensions>
      </trkpt>
      <trkpt lat="47.56267427466809749603271484375" lon="11.02795223705470561981201171875">
        <ele>1077.800048828125</ele>
        <time>2026-09-01T06:35:49.000Z</time>
        <extensions>
          <ns3:TrackPointExtension>
            <ns3:hr>166</ns3:hr>
            <ns3:cad>0</ns3:cad>
          </ns3:TrackPointExtension>
        </extensions>
      </trkpt>
      <trkpt lat="47.5626750290393829345703125" lon="11.027974449098110198974609375">
        <ele>1078.199951171875</ele>
        <time>2026-09-01T06:35:50.000Z</time>
        <extensions>
          <ns3:TrackPointExtension>
            <ns3:hr>167</ns3:hr>
            <ns3:cad>0</ns3:cad>
          </ns3:TrackPointExtension>
        </extensions>
      </trkpt>
      <trkpt lat="47.56267628632485866546630859375" lon="11.02798593230545520782470703125">
        <ele>1078.4000244140625</ele>
        <time>2026-09-01T06:35:51.000Z</time>
        <extensions>
          <ns3:TrackPointExtension>
            <ns3:hr>167</ns3:hr>
            <ns3:cad>0</ns3:cad>
          </ns3:TrackPointExtension>
        </extensions>
      </trkpt>
      <trkpt lat="47.56267796270549297332763671875" lon="11.02800906635820865631103515625">
        <ele>1078.800048828125</ele>
        <time>2026-09-01T06:35:52.000Z</time>
        <extensions>
          <ns3:TrackPointExtension>
            <ns3:hr>168</ns3:hr>
            <ns3:cad>0</ns3:cad>
          </ns3:TrackPointExtension>
        </extensions>
      </trkpt>
      <trkpt lat="47.56267745979130268096923828125" lon="11.02802381850779056549072265625">
        <ele>1079.199951171875</ele>
        <time>2026-09-01T06:35:53.000Z</time>
        <extensions>
          <ns3:TrackPointExtension>
            <ns3:hr>168</ns3:hr>
            <ns3:cad>0</ns3:cad>
          </ns3:TrackPointExtension>
        </extensions>
      </trkpt>
      <trkpt lat="47.562672011554241180419921875" lon="11.02804292924702167510986328125">
        <ele>1079.5999755859375</ele>
        <time>2026-09-01T06:35:54.000Z</time>
        <extensions>
          <ns3:TrackPointExtension>
            <ns3:hr>168</ns3:hr>
            <ns3:cad>79</ns3:cad>
          </ns3:TrackPointExtension>
        </extensions>
      </trkpt>
      <trkpt lat="47.56266488693654537200927734375" lon="11.028061620891094207763671875">
        <ele>1079.800048828125</ele>
        <time>2026-09-01T06:35:55.000Z</time>
        <extensions>
          <ns3:TrackPointExtension>
            <ns3:hr>169</ns3:hr>
            <ns3:cad>79</ns3:cad>
          </ns3:TrackPointExtension>
        </extensions>
      </trkpt>
      <trkpt lat="47.56265851669013500213623046875" lon="11.028082072734832763671875">
        <ele>1080.199951171875</ele>
        <time>2026-09-01T06:35:56.000Z</time>
        <extensions>
          <ns3:TrackPointExtension>
            <ns3:hr>170</ns3:hr>
            <ns3:cad>79</ns3:cad>
          </ns3:TrackPointExtension>
        </extensions>
      </trkpt>
      <trkpt lat="47.56265248171985149383544921875" lon="11.02809975855052471160888671875">
        <ele>1080.5999755859375</ele>
        <time>2026-09-01T06:35:57.000Z</time>
        <extensions>
          <ns3:TrackPointExtension>
            <ns3:hr>171</ns3:hr>
            <ns3:cad>79</ns3:cad>
          </ns3:TrackPointExtension>
        </extensions>
      </trkpt>
      <trkpt lat="47.5626487098634243011474609375" lon="11.02811266668140888214111328125">
        <ele>1081</ele>
        <time>2026-09-01T06:35:58.000Z</time>
        <extensions>
          <ns3:TrackPointExtension>
            <ns3:hr>172</ns3:hr>
            <ns3:cad>0</ns3:cad>
          </ns3:TrackPointExtension>
        </extensions>
      </trkpt>
      <trkpt lat="47.56264124996960163116455078125" lon="11.0281382314860820770263671875">
        <ele>1081.199951171875</ele>
        <time>2026-09-01T06:35:59.000Z</time>
        <extensions>
          <ns3:TrackPointExtension>
            <ns3:hr>174</ns3:hr>
            <ns3:cad>0</ns3:cad>
          </ns3:TrackPointExtension>
        </extensions>
      </trkpt>
      <trkpt lat="47.562634460628032684326171875" lon="11.0281573422253131866455078125">
        <ele>1081.5999755859375</ele>
        <time>2026-09-01T06:36:00.000Z</time>
        <extensions>
          <ns3:TrackPointExtension>
            <ns3:hr>176</ns3:hr>
            <ns3:cad>0</ns3:cad>
          </ns3:TrackPointExtension>
        </extensions>
      </trkpt>
      <trkpt lat="47.56263102404773235321044921875" lon="11.02818290702998638153076171875">
        <ele>1082</ele>
        <time>2026-09-01T06:36:01.000Z</time>
        <extensions>
          <ns3:TrackPointExtension>
            <ns3:hr>178</ns3:hr>
            <ns3:cad>0</ns3:cad>
          </ns3:TrackPointExtension>
        </extensions>
      </trkpt>
      <trkpt lat="47.56261157803237438201904296875" lon="11.02821148931980133056640625">
        <ele>1082.199951171875</ele>
        <time>2026-09-01T06:36:02.000Z</time>
        <extensions>
          <ns3:TrackPointExtension>
            <ns3:hr>179</ns3:hr>
            <ns3:cad>0</ns3:cad>
          </ns3:TrackPointExtension>
        </extensions>
      </trkpt>
      <trkpt lat="47.56260554306209087371826171875" lon="11.02824174799025058746337890625">
        <ele>1082.5999755859375</ele>
        <time>2026-09-01T06:36:03.000Z</time>
        <extensions>
          <ns3:TrackPointExtension>
            <ns3:hr>179</ns3:hr>
            <ns3:cad>0</ns3:cad>
          </ns3:TrackPointExtension>
        </extensions>
      </trkpt>
      <trkpt lat="47.56260403431951999664306640625" lon="11.0282629542052745819091796875">
        <ele>1082.800048828125</ele>
        <time>2026-09-01T06:36:04.000Z</time>
        <extensions>
          <ns3:TrackPointExtension>
            <ns3:hr>179</ns3:hr>
            <ns3:cad>0</ns3:cad>
          </ns3:TrackPointExtension>
        </extensions>
      </trkpt>
      <trkpt lat="47.5625930540263652801513671875" lon="11.02827661670744419097900390625">
        <ele>1083.199951171875</ele>
        <time>2026-09-01T06:36:05.000Z</time>
        <extensions>
          <ns3:TrackPointExtension>
            <ns3:hr>179</ns3:hr>
            <ns3:cad>0</ns3:cad>
          </ns3:TrackPointExtension>
        </extensions>
      </trkpt>
      <trkpt lat="47.56259121000766754150390625" lon="11.0282824002206325531005859375">
        <ele>1083.4000244140625</ele>
        <time>2026-09-01T06:36:06.000Z</time>
        <extensions>
          <ns3:TrackPointExtension>
            <ns3:hr>179</ns3:hr>
            <ns3:cad>0</ns3:cad>
          </ns3:TrackPointExtension>
        </extensions>
      </trkpt>
      <trkpt lat="47.5625819899141788482666015625" lon="11.028303690254688262939453125">
        <ele>1083.800048828125</ele>
        <time>2026-09-01T06:36:07.000Z</time>
        <extensions>
          <ns3:TrackPointExtension>
            <ns3:hr>180</ns3:hr>
            <ns3:cad>0</ns3:cad>
          </ns3:TrackPointExtension>
        </extensions>
      </trkpt>
      <trkpt lat="47.5625838339328765869140625" lon="11.0283192805945873260498046875">
        <ele>1084</ele>
        <time>2026-09-01T06:36:08.000Z</time>
        <extensions>
          <ns3:TrackPointExtension>
            <ns3:hr>180</ns3:hr>
            <ns3:cad>0</ns3:cad>
          </ns3:TrackPointExtension>
        </extensions>
      </trkpt>
      <trkpt lat="47.5625816546380519866943359375" lon="11.0283330269157886505126953125">
        <ele>1084.199951171875</ele>
        <time>2026-09-01T06:36:09.000Z</time>
        <extensions>
          <ns3:TrackPointExtension>
            <ns3:hr>180</ns3:hr>
            <ns3:cad>0</ns3:cad>
          </ns3:TrackPointExtension>
        </extensions>
      </trkpt>
      <trkpt lat="47.56257687695324420928955078125" lon="11.0283447615802288055419921875">
        <ele>1084.4000244140625</ele>
        <time>2026-09-01T06:36:10.000Z</time>
        <extensions>
          <ns3:TrackPointExtension>
            <ns3:hr>180</ns3:hr>
            <ns3:cad>0</ns3:cad>
          </ns3:TrackPointExtension>
        </extensions>
      </trkpt>
      <trkpt lat="47.56257503293454647064208984375" lon="11.0283628664910793304443359375">
        <ele>1084.5999755859375</ele>
        <time>2026-09-01T06:36:11.000Z</time>
        <extensions>
          <ns3:TrackPointExtension>
            <ns3:hr>180</ns3:hr>
            <ns3:cad>0</ns3:cad>
          </ns3:TrackPointExtension>
        </extensions>
      </trkpt>
      <trkpt lat="47.5625742785632610321044921875" lon="11.02838273160159587860107421875">
        <ele>1084.800048828125</ele>
        <time>2026-09-01T06:36:12.000Z</time>
        <extensions>
          <ns3:TrackPointExtension>
            <ns3:hr>180</ns3:hr>
            <ns3:cad>0</ns3:cad>
          </ns3:TrackPointExtension>
        </extensions>
      </trkpt>
      <trkpt lat="47.562566734850406646728515625" lon="11.02840192615985870361328125">
        <ele>1085</ele>
        <time>2026-09-01T06:36:13.000Z</time>
        <extensions>
          <ns3:TrackPointExtension>
            <ns3:hr>179</ns3:hr>
            <ns3:cad>0</ns3:cad>
          </ns3:TrackPointExtension>
        </extensions>
      </trkpt>
      <trkpt lat="47.562568746507167816162109375" lon="11.02841994725167751312255859375">
        <ele>1085.199951171875</ele>
        <time>2026-09-01T06:36:14.000Z</time>
        <extensions>
          <ns3:TrackPointExtension>
            <ns3:hr>180</ns3:hr>
            <ns3:cad>0</ns3:cad>
          </ns3:TrackPointExtension>
        </extensions>
      </trkpt>
      <trkpt lat="47.5625658966600894927978515625" lon="11.0284269042313098907470703125">
        <ele>1085.5999755859375</ele>
        <time>2026-09-01T06:36:15.000Z</time>
        <extensions>
          <ns3:TrackPointExtension>
            <ns3:hr>180</ns3:hr>
            <ns3:cad>0</ns3:cad>
          </ns3:TrackPointExtension>
        </extensions>
      </trkpt>
      <trkpt lat="47.56256279535591602325439453125" lon="11.02844274602830410003662109375">
        <ele>1085.800048828125</ele>
        <time>2026-09-01T06:36:16.000Z</time>
        <extensions>
          <ns3:TrackPointExtension>
            <ns3:hr>179</ns3:hr>
            <ns3:cad>0</ns3:cad>
          </ns3:TrackPointExtension>
        </extensions>
      </trkpt>
      <trkpt lat="47.56255022250115871429443359375" lon="11.028463281691074371337890625">
        <ele>1086</ele>
        <time>2026-09-01T06:36:17.000Z</time>
        <extensions>
          <ns3:TrackPointExtension>
            <ns3:hr>180</ns3:hr>
            <ns3:cad>53</ns3:cad>
          </ns3:TrackPointExtension>
        </extensions>
      </trkpt>
      <trkpt lat="47.56254586391150951385498046875" lon="11.0284701548516750335693359375">
        <ele>1086.4000244140625</ele>
        <time>2026-09-01T06:36:18.000Z</time>
        <extensions>
          <ns3:TrackPointExtension>
            <ns3:hr>180</ns3:hr>
            <ns3:cad>53</ns3:cad>
          </ns3:TrackPointExtension>
        </extensions>
      </trkpt>
      <trkpt lat="47.56253915838897228240966796875" lon="11.02848214097321033477783203125">
        <ele>1086.5999755859375</ele>
        <time>2026-09-01T06:36:19.000Z</time>
        <extensions>
          <ns3:TrackPointExtension>
            <ns3:hr>180</ns3:hr>
            <ns3:cad>53</ns3:cad>
          </ns3:TrackPointExtension>
        </extensions>
      </trkpt>
      <trkpt lat="47.56253488361835479736328125" lon="11.0284912772476673126220703125">
        <ele>1087</ele>
        <time>2026-09-01T06:36:20.000Z</time>
        <extensions>
          <ns3:TrackPointExtension>
            <ns3:hr>179</ns3:hr>
            <ns3:cad>53</ns3:cad>
          </ns3:TrackPointExtension>
        </extensions>
      </trkpt>
      <trkpt lat="47.5625213049352169036865234375" lon="11.02850812487304210662841796875">
        <ele>1087.199951171875</ele>
        <time>2026-09-01T06:36:21.000Z</time>
        <extensions>
          <ns3:TrackPointExtension>
            <ns3:hr>179</ns3:hr>
            <ns3:cad>53</ns3:cad>
          </ns3:TrackPointExtension>
        </extensions>
      </trkpt>
      <trkpt lat="47.56251317448914051055908203125" lon="11.0285187698900699615478515625">
        <ele>1087.5999755859375</ele>
        <time>2026-09-01T06:36:22.000Z</time>
        <extensions>
          <ns3:TrackPointExtension>
            <ns3:hr>179</ns3:hr>
            <ns3:cad>53</ns3:cad>
          </ns3:TrackPointExtension>
        </extensions>
      </trkpt>
      <trkpt lat="47.56251342594623565673828125" lon="11.0285264812409877777099609375">
        <ele>1087.800048828125</ele>
        <time>2026-09-01T06:36:23.000Z</time>
        <extensions>
          <ns3:TrackPointExtension>
            <ns3:hr>179</ns3:hr>
            <ns3:cad>53</ns3:cad>
          </ns3:TrackPointExtension>
        </extensions>
      </trkpt>
      <trkpt lat="47.56250227801501750946044921875" lon="11.02853930555284023284912109375">
        <ele>1088.199951171875</ele>
        <time>2026-09-01T06:36:24.000Z</time>
        <extensions>
          <ns3:TrackPointExtension>
            <ns3:hr>179</ns3:hr>
            <ns3:cad>53</ns3:cad>
          </ns3:TrackPointExtension>
        </extensions>
      </trkpt>
      <trkpt lat="47.5624985061585903167724609375" lon="11.02854668162763118743896484375">
        <ele>1088.5999755859375</ele>
        <time>2026-09-01T06:36:25.000Z</time>
        <extensions>
          <ns3:TrackPointExtension>
            <ns3:hr>180</ns3:hr>
            <ns3:cad>69</ns3:cad>
          </ns3:TrackPointExtension>
        </extensions>
      </trkpt>
      <trkpt lat="47.5624904595315456390380859375" lon="11.02856797166168689727783203125">
        <ele>1089</ele>
        <time>2026-09-01T06:36:26.000Z</time>
        <extensions>
          <ns3:TrackPointExtension>
            <ns3:hr>180</ns3:hr>
            <ns3:cad>69</ns3:cad>
          </ns3:TrackPointExtension>
        </extensions>
      </trkpt>
      <trkpt lat="47.562484927475452423095703125" lon="11.02858356200158596038818359375">
        <ele>1089.4000244140625</ele>
        <time>2026-09-01T06:36:27.000Z</time>
        <extensions>
          <ns3:TrackPointExtension>
            <ns3:hr>180</ns3:hr>
            <ns3:cad>0</ns3:cad>
          </ns3:TrackPointExtension>
        </extensions>
      </trkpt>
      <trkpt lat="47.562467493116855621337890625" lon="11.02860015816986560821533203125">
        <ele>1090</ele>
        <time>2026-09-01T06:36:28.000Z</time>
        <extensions>
          <ns3:TrackPointExtension>
            <ns3:hr>181</ns3:hr>
            <ns3:cad>0</ns3:cad>
          </ns3:TrackPointExtension>
        </extensions>
      </trkpt>
      <trkpt lat="47.56246187724173069000244140625" lon="11.02860786952078342437744140625">
        <ele>1090.4000244140625</ele>
        <time>2026-09-01T06:36:29.000Z</time>
        <extensions>
          <ns3:TrackPointExtension>
            <ns3:hr>180</ns3:hr>
            <ns3:cad>0</ns3:cad>
          </ns3:TrackPointExtension>
        </extensions>
      </trkpt>
      <trkpt lat="47.56245617754757404327392578125" lon="11.028618849813938140869140625">
        <ele>1090.5999755859375</ele>
        <time>2026-09-01T06:36:30.000Z</time>
        <extensions>
          <ns3:TrackPointExtension>
            <ns3:hr>180</ns3:hr>
            <ns3:cad>0</ns3:cad>
          </ns3:TrackPointExtension>
        </extensions>
      </trkpt>
      <trkpt lat="47.5624525733292102813720703125" lon="11.0286260582506656646728515625">
        <ele>1091</ele>
        <time>2026-09-01T06:36:31.000Z</time>
        <extensions>
          <ns3:TrackPointExtension>
            <ns3:hr>180</ns3:hr>
            <ns3:cad>45</ns3:cad>
          </ns3:TrackPointExtension>
        </extensions>
      </trkpt>
      <trkpt lat="47.5624549202620983123779296875" lon="11.02863770909607410430908203125">
        <ele>1091.199951171875</ele>
        <time>2026-09-01T06:36:32.000Z</time>
        <extensions>
          <ns3:TrackPointExtension>
            <ns3:hr>180</ns3:hr>
            <ns3:cad>45</ns3:cad>
          </ns3:TrackPointExtension>
        </extensions>
      </trkpt>
      <trkpt lat="47.562454752624034881591796875" lon="11.02865807712078094482421875">
        <ele>1091.5999755859375</ele>
        <time>2026-09-01T06:36:33.000Z</time>
        <extensions>
          <ns3:TrackPointExtension>
            <ns3:hr>180</ns3:hr>
            <ns3:cad>45</ns3:cad>
          </ns3:TrackPointExtension>
        </extensions>
      </trkpt>
      <trkpt lat="47.56245114840567111968994140625" lon="11.02865941822528839111328125">
        <ele>1092</ele>
        <time>2026-09-01T06:36:34.000Z</time>
        <extensions>
          <ns3:TrackPointExtension>
            <ns3:hr>180</ns3:hr>
            <ns3:cad>45</ns3:cad>
          </ns3:TrackPointExtension>
        </extensions>
      </trkpt>
      <trkpt lat="47.56244905292987823486328125" lon="11.02866536937654018402099609375">
        <ele>1092.4000244140625</ele>
        <time>2026-09-01T06:36:35.000Z</time>
        <extensions>
          <ns3:TrackPointExtension>
            <ns3:hr>180</ns3:hr>
            <ns3:cad>45</ns3:cad>
          </ns3:TrackPointExtension>
        </extensions>
      </trkpt>
      <trkpt lat="47.5624470412731170654296875" lon="11.0286736674606800079345703125">
        <ele>1092.800048828125</ele>
        <time>2026-09-01T06:36:36.000Z</time>
        <extensions>
          <ns3:TrackPointExtension>
            <ns3:hr>180</ns3:hr>
            <ns3:cad>45</ns3:cad>
          </ns3:TrackPointExtension>
        </extensions>
      </trkpt>
      <trkpt lat="47.56243270821869373321533203125" lon="11.0286887548863887786865234375">
        <ele>1093</ele>
        <time>2026-09-01T06:36:37.000Z</time>
        <extensions>
          <ns3:TrackPointExtension>
            <ns3:hr>180</ns3:hr>
            <ns3:cad>45</ns3:cad>
          </ns3:TrackPointExtension>
        </extensions>
      </trkpt>
      <trkpt lat="47.56243027746677398681640625" lon="11.02869051508605480194091796875">
        <ele>1093.4000244140625</ele>
        <time>2026-09-01T06:36:38.000Z</time>
        <extensions>
          <ns3:TrackPointExtension>
            <ns3:hr>180</ns3:hr>
            <ns3:cad>45</ns3:cad>
          </ns3:TrackPointExtension>
        </extensions>
      </trkpt>
      <trkpt lat="47.56242717616260051727294921875" lon="11.0286949574947357177734375">
        <ele>1093.800048828125</ele>
        <time>2026-09-01T06:36:39.000Z</time>
        <extensions>
          <ns3:TrackPointExtension>
            <ns3:hr>180</ns3:hr>
            <ns3:cad>0</ns3:cad>
          </ns3:TrackPointExtension>
        </extensions>
      </trkpt>
      <trkpt lat="47.56241493858397006988525390625" lon="11.02870543487370014190673828125">
        <ele>1094.199951171875</ele>
        <time>2026-09-01T06:36:40.000Z</time>
        <extensions>
          <ns3:TrackPointExtension>
            <ns3:hr>180</ns3:hr>
            <ns3:cad>0</ns3:cad>
          </ns3:TrackPointExtension>
        </extensions>
      </trkpt>
      <trkpt lat="47.562415860593318939208984375" lon="11.02869923226535320281982421875">
        <ele>1094.5999755859375</ele>
        <time>2026-09-01T06:36:41.000Z</time>
        <extensions>
          <ns3:TrackPointExtension>
            <ns3:hr>180</ns3:hr>
            <ns3:cad>0</ns3:cad>
          </ns3:TrackPointExtension>
        </extensions>
      </trkpt>
      <trkpt lat="47.56240303628146648406982421875" lon="11.0287149064242839813232421875">
        <ele>1095</ele>
        <time>2026-09-01T06:36:42.000Z</time>
        <extensions>
          <ns3:TrackPointExtension>
            <ns3:hr>180</ns3:hr>
            <ns3:cad>0</ns3:cad>
          </ns3:TrackPointExtension>
        </extensions>
      </trkpt>
      <trkpt lat="47.562405131757259368896484375" lon="11.0287172533571720123291015625">
        <ele>1095.4000244140625</ele>
        <time>2026-09-01T06:36:43.000Z</time>
        <extensions>
          <ns3:TrackPointExtension>
            <ns3:hr>180</ns3:hr>
            <ns3:cad>0</ns3:cad>
          </ns3:TrackPointExtension>
        </extensions>
      </trkpt>
      <trkpt lat="47.5623952411115169525146484375" lon="11.0287175886332988739013671875">
        <ele>1095.5999755859375</ele>
        <time>2026-09-01T06:36:44.000Z</time>
        <extensions>
          <ns3:TrackPointExtension>
            <ns3:hr>180</ns3:hr>
            <ns3:cad>0</ns3:cad>
          </ns3:TrackPointExtension>
        </extensions>
      </trkpt>
      <trkpt lat="47.56238459609448909759521484375" lon="11.02872538380324840545654296875">
        <ele>1096</ele>
        <time>2026-09-01T06:36:45.000Z</time>
        <extensions>
          <ns3:TrackPointExtension>
            <ns3:hr>180</ns3:hr>
            <ns3:cad>0</ns3:cad>
          </ns3:TrackPointExtension>
        </extensions>
      </trkpt>
      <trkpt lat="47.5623798184096813201904296875" lon="11.0287298262119293212890625">
        <ele>1096.199951171875</ele>
        <time>2026-09-01T06:36:46.000Z</time>
        <extensions>
          <ns3:TrackPointExtension>
            <ns3:hr>180</ns3:hr>
            <ns3:cad>0</ns3:cad>
          </ns3:TrackPointExtension>
        </extensions>
      </trkpt>
      <trkpt lat="47.5623724423348903656005859375" lon="11.02873393334448337554931640625">
        <ele>1096.5999755859375</ele>
        <time>2026-09-01T06:36:47.000Z</time>
        <extensions>
          <ns3:TrackPointExtension>
            <ns3:hr>180</ns3:hr>
            <ns3:cad>75</ns3:cad>
          </ns3:TrackPointExtension>
        </extensions>
      </trkpt>
      <trkpt lat="47.56236380897462368011474609375" lon="11.0287467576563358306884765625">
        <ele>1097</ele>
        <time>2026-09-01T06:36:48.000Z</time>
        <extensions>
          <ns3:TrackPointExtension>
            <ns3:hr>179</ns3:hr>
            <ns3:cad>75</ns3:cad>
          </ns3:TrackPointExtension>
        </extensions>
      </trkpt>
      <trkpt lat="47.56236012093722820281982421875" lon="11.02875773794949054718017578125">
        <ele>1097.4000244140625</ele>
        <time>2026-09-01T06:36:49.000Z</time>
        <extensions>
          <ns3:TrackPointExtension>
            <ns3:hr>180</ns3:hr>
            <ns3:cad>0</ns3:cad>
          </ns3:TrackPointExtension>
        </extensions>
      </trkpt>
      <trkpt lat="47.5623476319015026092529296875" lon="11.02876947261393070220947265625">
        <ele>1097.800048828125</ele>
        <time>2026-09-01T06:36:50.000Z</time>
        <extensions>
          <ns3:TrackPointExtension>
            <ns3:hr>180</ns3:hr>
            <ns3:cad>0</ns3:cad>
          </ns3:TrackPointExtension>
        </extensions>
      </trkpt>
      <trkpt lat="47.56233832798898220062255859375" lon="11.0287754237651824951171875">
        <ele>1098.199951171875</ele>
        <time>2026-09-01T06:36:51.000Z</time>
        <extensions>
          <ns3:TrackPointExtension>
            <ns3:hr>179</ns3:hr>
            <ns3:cad>0</ns3:cad>
          </ns3:TrackPointExtension>
        </extensions>
      </trkpt>
      <trkpt lat="47.56233095191419124603271484375" lon="11.02878556586802005767822265625">
        <ele>1098.5999755859375</ele>
        <time>2026-09-01T06:36:52.000Z</time>
        <extensions>
          <ns3:TrackPointExtension>
            <ns3:hr>180</ns3:hr>
            <ns3:cad>0</ns3:cad>
          </ns3:TrackPointExtension>
        </extensions>
      </trkpt>
      <trkpt lat="47.5623157806694507598876953125" lon="11.02879746817052364349365234375">
        <ele>1099</ele>
        <time>2026-09-01T06:36:53.000Z</time>
        <extensions>
          <ns3:TrackPointExtension>
            <ns3:hr>180</ns3:hr>
            <ns3:cad>0</ns3:cad>
          </ns3:TrackPointExtension>
        </extensions>
      </trkpt>
      <trkpt lat="47.56230429746210575103759765625" lon="11.0288111306726932525634765625">
        <ele>1099.199951171875</ele>
        <time>2026-09-01T06:36:54.000Z</time>
        <extensions>
          <ns3:TrackPointExtension>
            <ns3:hr>180</ns3:hr>
            <ns3:cad>0</ns3:cad>
          </ns3:TrackPointExtension>
        </extensions>
      </trkpt>
      <trkpt lat="47.56229080259799957275390625" lon="11.0288265533745288848876953125">
        <ele>1099.5999755859375</ele>
        <time>2026-09-01T06:36:55.000Z</time>
        <extensions>
          <ns3:TrackPointExtension>
            <ns3:hr>180</ns3:hr>
            <ns3:cad>74</ns3:cad>
          </ns3:TrackPointExtension>
        </extensions>
      </trkpt>
      <trkpt lat="47.5622815825045108795166015625" lon="11.02883619256317615509033203125">
        <ele>1100</ele>
        <time>2026-09-01T06:36:56.000Z</time>
        <extensions>
          <ns3:TrackPointExtension>
            <ns3:hr>179</ns3:hr>
            <ns3:cad>74</ns3:cad>
          </ns3:TrackPointExtension>
        </extensions>
      </trkpt>
      <trkpt lat="47.5622735358774662017822265625" lon="11.0288451611995697021484375">
        <ele>1100.4000244140625</ele>
        <time>2026-09-01T06:36:57.000Z</time>
        <extensions>
          <ns3:TrackPointExtension>
            <ns3:hr>180</ns3:hr>
            <ns3:cad>74</ns3:cad>
          </ns3:TrackPointExtension>
        </extensions>
      </trkpt>
      <trkpt lat="47.56226708181202411651611328125" lon="11.0288516990840435028076171875">
        <ele>1101</ele>
        <time>2026-09-01T06:36:58.000Z</time>
        <extensions>
          <ns3:TrackPointExtension>
            <ns3:hr>180</ns3:hr>
            <ns3:cad>0</ns3:cad>
          </ns3:TrackPointExtension>
        </extensions>
      </trkpt>
      <trkpt lat="47.562258280813694000244140625" lon="11.02885915897786617279052734375">
        <ele>1101.199951171875</ele>
        <time>2026-09-01T06:36:59.000Z</time>
        <extensions>
          <ns3:TrackPointExtension>
            <ns3:hr>180</ns3:hr>
            <ns3:cad>0</ns3:cad>
          </ns3:TrackPointExtension>
        </extensions>
      </trkpt>
      <trkpt lat="47.56225098855793476104736328125" lon="11.02886469103395938873291015625">
        <ele>1101.5999755859375</ele>
        <time>2026-09-01T06:37:00.000Z</time>
        <extensions>
          <ns3:TrackPointExtension>
            <ns3:hr>180</ns3:hr>
            <ns3:cad>0</ns3:cad>
          </ns3:TrackPointExtension>
        </extensions>
      </trkpt>
      <trkpt lat="47.56224512122571468353271484375" lon="11.028870977461338043212890625">
        <ele>1102</ele>
        <time>2026-09-01T06:37:01.000Z</time>
        <extensions>
          <ns3:TrackPointExtension>
            <ns3:hr>178</ns3:hr>
            <ns3:cad>0</ns3:cad>
          </ns3:TrackPointExtension>
        </extensions>
      </trkpt>
      <trkpt lat="47.56224160082638263702392578125" lon="11.0288785211741924285888671875">
        <ele>1102.199951171875</ele>
        <time>2026-09-01T06:37:02.000Z</time>
        <extensions>
          <ns3:TrackPointExtension>
            <ns3:hr>172</ns3:hr>
            <ns3:cad>0</ns3:cad>
          </ns3:TrackPointExtension>
        </extensions>
      </trkpt>
      <trkpt lat="47.5622393377125263214111328125" lon="11.02889101020991802215576171875">
        <ele>1102.199951171875</ele>
        <time>2026-09-01T06:37:03.000Z</time>
        <extensions>
          <ns3:TrackPointExtension>
            <ns3:hr>169</ns3:hr>
            <ns3:cad>0</ns3:cad>
          </ns3:TrackPointExtension>
        </extensions>
      </trkpt>
      <trkpt lat="47.56223187781870365142822265625" lon="11.0289041697978973388671875">
        <ele>1102.4000244140625</ele>
        <time>2026-09-01T06:37:04.000Z</time>
        <extensions>
          <ns3:TrackPointExtension>
            <ns3:hr>168</ns3:hr>
            <ns3:cad>0</ns3:cad>
          </ns3:TrackPointExtension>
        </extensions>
      </trkpt>
      <trkpt lat="47.56223154254257678985595703125" lon="11.0289229452610015869140625">
        <ele>1102.4000244140625</ele>
        <time>2026-09-01T06:37:05.000Z</time>
        <extensions>
          <ns3:TrackPointExtension>
            <ns3:hr>168</ns3:hr>
            <ns3:cad>0</ns3:cad>
          </ns3:TrackPointExtension>
        </extensions>
      </trkpt>
      <trkpt lat="47.5622235797345638275146484375" lon="11.028939373791217803955078125">
        <ele>1102.4000244140625</ele>
        <time>2026-09-01T06:37:06.000Z</time>
        <extensions>
          <ns3:TrackPointExtension>
            <ns3:hr>168</ns3:hr>
            <ns3:cad>0</ns3:cad>
          </ns3:TrackPointExtension>
        </extensions>
      </trkpt>
      <trkpt lat="47.56221259944140911102294921875" lon="11.02895672433078289031982421875">
        <ele>1102.4000244140625</ele>
        <time>2026-09-01T06:37:07.000Z</time>
        <extensions>
          <ns3:TrackPointExtension>
            <ns3:hr>168</ns3:hr>
            <ns3:cad>0</ns3:cad>
          </ns3:TrackPointExtension>
        </extensions>
      </trkpt>
      <trkpt lat="47.56220765411853790283203125" lon="11.02897164411842823028564453125">
        <ele>1102.5999755859375</ele>
        <time>2026-09-01T06:37:08.000Z</time>
        <extensions>
          <ns3:TrackPointExtension>
            <ns3:hr>169</ns3:hr>
            <ns3:cad>0</ns3:cad>
          </ns3:TrackPointExtension>
        </extensions>
      </trkpt>
      <trkpt lat="47.5622135214507579803466796875" lon="11.02899326942861080169677734375">
        <ele>1102.800048828125</ele>
        <time>2026-09-01T06:37:09.000Z</time>
        <extensions>
          <ns3:TrackPointExtension>
            <ns3:hr>169</ns3:hr>
            <ns3:cad>52</ns3:cad>
          </ns3:TrackPointExtension>
        </extensions>
      </trkpt>
      <trkpt lat="47.5622091628611087799072265625" lon="11.029007099568843841552734375">
        <ele>1103</ele>
        <time>2026-09-01T06:37:10.000Z</time>
        <extensions>
          <ns3:TrackPointExtension>
            <ns3:hr>169</ns3:hr>
            <ns3:cad>52</ns3:cad>
          </ns3:TrackPointExtension>
        </extensions>
      </trkpt>
      <trkpt lat="47.5622037984430789947509765625" lon="11.02901875041425228118896484375">
        <ele>1103.199951171875</ele>
        <time>2026-09-01T06:37:11.000Z</time>
        <extensions>
          <ns3:TrackPointExtension>
            <ns3:hr>169</ns3:hr>
            <ns3:cad>52</ns3:cad>
          </ns3:TrackPointExtension>
        </extensions>
      </trkpt>
      <trkpt lat="47.56219550035893917083740234375" lon="11.0290324129164218902587890625">
        <ele>1103.4000244140625</ele>
        <time>2026-09-01T06:37:12.000Z</time>
        <extensions>
          <ns3:TrackPointExtension>
            <ns3:hr>168</ns3:hr>
            <ns3:cad>53</ns3:cad>
          </ns3:TrackPointExtension>
        </extensions>
      </trkpt>
      <trkpt lat="47.562189213931560516357421875" lon="11.0290404595434665679931640625">
        <ele>1103.800048828125</ele>
        <time>2026-09-01T06:37:13.000Z</time>
        <extensions>
          <ns3:TrackPointExtension>
            <ns3:hr>169</ns3:hr>
            <ns3:cad>53</ns3:cad>
          </ns3:TrackPointExtension>
        </extensions>
      </trkpt>
      <trkpt lat="47.56217991001904010772705078125" lon="11.02905395440757274627685546875">
        <ele>1104.199951171875</ele>
        <time>2026-09-01T06:37:14.000Z</time>
        <extensions>
          <ns3:TrackPointExtension>
            <ns3:hr>171</ns3:hr>
            <ns3:cad>53</ns3:cad>
          </ns3:TrackPointExtension>
        </extensions>
      </trkpt>
      <trkpt lat="47.5621706061065196990966796875" lon="11.02906418032944202423095703125">
        <ele>1104.4000244140625</ele>
        <time>2026-09-01T06:37:15.000Z</time>
        <extensions>
          <ns3:TrackPointExtension>
            <ns3:hr>171</ns3:hr>
            <ns3:cad>53</ns3:cad>
          </ns3:TrackPointExtension>
        </extensions>
      </trkpt>
      <trkpt lat="47.5621632300317287445068359375" lon="11.02907038293778896331787109375">
        <ele>1104.800048828125</ele>
        <time>2026-09-01T06:37:16.000Z</time>
        <extensions>
          <ns3:TrackPointExtension>
            <ns3:hr>172</ns3:hr>
            <ns3:cad>53</ns3:cad>
          </ns3:TrackPointExtension>
        </extensions>
      </trkpt>
      <trkpt lat="47.5621592067182064056396484375" lon="11.0290689580142498016357421875">
        <ele>1105</ele>
        <time>2026-09-01T06:37:17.000Z</time>
        <extensions>
          <ns3:TrackPointExtension>
            <ns3:hr>171</ns3:hr>
            <ns3:cad>53</ns3:cad>
          </ns3:TrackPointExtension>
        </extensions>
      </trkpt>
      <trkpt lat="47.5621531717479228973388671875" lon="11.02906669490039348602294921875">
        <ele>1105.4000244140625</ele>
        <time>2026-09-01T06:37:18.000Z</time>
        <extensions>
          <ns3:TrackPointExtension>
            <ns3:hr>171</ns3:hr>
            <ns3:cad>53</ns3:cad>
          </ns3:TrackPointExtension>
        </extensions>
      </trkpt>
      <trkpt lat="47.56214789114892482757568359375" lon="11.02905831299722194671630859375">
        <ele>1105.5999755859375</ele>
        <time>2026-09-01T06:37:19.000Z</time>
        <extensions>
          <ns3:TrackPointExtension>
            <ns3:hr>171</ns3:hr>
            <ns3:cad>53</ns3:cad>
          </ns3:TrackPointExtension>
        </extensions>
      </trkpt>
      <trkpt lat="47.56214328110218048095703125" lon="11.029054038226604461669921875">
        <ele>1105.800048828125</ele>
        <time>2026-09-01T06:37:20.000Z</time>
        <extensions>
          <ns3:TrackPointExtension>
            <ns3:hr>170</ns3:hr>
            <ns3:cad>53</ns3:cad>
          </ns3:TrackPointExtension>
        </extensions>
      </trkpt>
      <trkpt lat="47.5621343962848186492919921875" lon="11.02904641069471836090087890625">
        <ele>1106.199951171875</ele>
        <time>2026-09-01T06:37:21.000Z</time>
        <extensions>
          <ns3:TrackPointExtension>
            <ns3:hr>170</ns3:hr>
            <ns3:cad>0</ns3:cad>
          </ns3:TrackPointExtension>
        </extensions>
      </trkpt>
      <trkpt lat="47.5621307082474231719970703125" lon="11.0290382802486419677734375">
        <ele>1106.5999755859375</ele>
        <time>2026-09-01T06:37:22.000Z</time>
        <extensions>
          <ns3:TrackPointExtension>
            <ns3:hr>170</ns3:hr>
            <ns3:cad>0</ns3:cad>
          </ns3:TrackPointExtension>
        </extensions>
      </trkpt>
      <trkpt lat="47.56212894804775714874267578125" lon="11.02902897633612155914306640625">
        <ele>1106.800048828125</ele>
        <time>2026-09-01T06:37:23.000Z</time>
        <extensions>
          <ns3:TrackPointExtension>
            <ns3:hr>170</ns3:hr>
            <ns3:cad>0</ns3:cad>
          </ns3:TrackPointExtension>
        </extensions>
      </trkpt>
      <trkpt lat="47.56211972795426845550537109375" lon="11.0290186665952205657958984375">
        <ele>1107</ele>
        <time>2026-09-01T06:37:24.000Z</time>
        <extensions>
          <ns3:TrackPointExtension>
            <ns3:hr>170</ns3:hr>
            <ns3:cad>0</ns3:cad>
          </ns3:TrackPointExtension>
        </extensions>
      </trkpt>
      <trkpt lat="47.5621159560978412628173828125" lon="11.02901137433946132659912109375">
        <ele>1107.199951171875</ele>
        <time>2026-09-01T06:37:25.000Z</time>
        <extensions>
          <ns3:TrackPointExtension>
            <ns3:hr>170</ns3:hr>
            <ns3:cad>0</ns3:cad>
          </ns3:TrackPointExtension>
        </extensions>
      </trkpt>
      <trkpt lat="47.56210396997630596160888671875" lon="11.0289985500276088714599609375">
        <ele>1107.4000244140625</ele>
        <time>2026-09-01T06:37:26.000Z</time>
        <extensions>
          <ns3:TrackPointExtension>
            <ns3:hr>171</ns3:hr>
            <ns3:cad>0</ns3:cad>
          </ns3:TrackPointExtension>
        </extensions>
      </trkpt>
      <trkpt lat="47.56209474988281726837158203125" lon="11.0289894975721836090087890625">
        <ele>1107.4000244140625</ele>
        <time>2026-09-01T06:37:27.000Z</time>
        <extensions>
          <ns3:TrackPointExtension>
            <ns3:hr>171</ns3:hr>
            <ns3:cad>0</ns3:cad>
          </ns3:TrackPointExtension>
        </extensions>
      </trkpt>
      <trkpt lat="47.56208837963640689849853515625" lon="11.0289765894412994384765625">
        <ele>1107.5999755859375</ele>
        <time>2026-09-01T06:37:28.000Z</time>
        <extensions>
          <ns3:TrackPointExtension>
            <ns3:hr>171</ns3:hr>
            <ns3:cad>0</ns3:cad>
          </ns3:TrackPointExtension>
        </extensions>
      </trkpt>
      <trkpt lat="47.5620847754180431365966796875" lon="11.0289703868329524993896484375">
        <ele>1107.800048828125</ele>
        <time>2026-09-01T06:37:29.000Z</time>
        <extensions>
          <ns3:TrackPointExtension>
            <ns3:hr>172</ns3:hr>
            <ns3:cad>0</ns3:cad>
          </ns3:TrackPointExtension>
        </extensions>
      </trkpt>
      <trkpt lat="47.56209692917764186859130859375" lon="11.02895580232143402099609375">
        <ele>1108</ele>
        <time>2026-09-01T06:37:30.000Z</time>
        <extensions>
          <ns3:TrackPointExtension>
            <ns3:hr>173</ns3:hr>
            <ns3:cad>0</ns3:cad>
          </ns3:TrackPointExtension>
        </extensions>
      </trkpt>
      <trkpt lat="47.5620968453586101531982421875" lon="11.02894465439021587371826171875">
        <ele>1108.4000244140625</ele>
        <time>2026-09-01T06:37:31.000Z</time>
        <extensions>
          <ns3:TrackPointExtension>
            <ns3:hr>174</ns3:hr>
            <ns3:cad>0</ns3:cad>
          </ns3:TrackPointExtension>
        </extensions>
      </trkpt>
      <trkpt lat="47.56209910847246646881103515625" lon="11.02892898023128509521484375">
        <ele>1108.5999755859375</ele>
        <time>2026-09-01T06:37:32.000Z</time>
        <extensions>
          <ns3:TrackPointExtension>
            <ns3:hr>175</ns3:hr>
            <ns3:cad>0</ns3:cad>
          </ns3:TrackPointExtension>
        </extensions>
      </trkpt>
      <trkpt lat="47.56209625862538814544677734375" lon="11.02890894748270511627197265625">
        <ele>1109</ele>
        <time>2026-09-01T06:37:33.000Z</time>
        <extensions>
          <ns3:TrackPointExtension>
            <ns3:hr>176</ns3:hr>
            <ns3:cad>0</ns3:cad>
          </ns3:TrackPointExtension>
        </extensions>
      </trkpt>
      <trkpt lat="47.56209290586411952972412109375" lon="11.02889972738921642303466796875">
        <ele>1109.199951171875</ele>
        <time>2026-09-01T06:37:34.000Z</time>
        <extensions>
          <ns3:TrackPointExtension>
            <ns3:hr>176</ns3:hr>
            <ns3:cad>0</ns3:cad>
          </ns3:TrackPointExtension>
        </extensions>
      </trkpt>
      <trkpt lat="47.56208972074091434478759765625" lon="11.02888950146734714508056640625">
        <ele>1109.5999755859375</ele>
        <time>2026-09-01T06:37:35.000Z</time>
        <extensions>
          <ns3:TrackPointExtension>
            <ns3:hr>177</ns3:hr>
            <ns3:cad>0</ns3:cad>
          </ns3:TrackPointExtension>
        </extensions>
      </trkpt>
      <trkpt lat="47.5620822608470916748046875" lon="11.02887927554547786712646484375">
        <ele>1109.800048828125</ele>
        <time>2026-09-01T06:37:36.000Z</time>
        <extensions>
          <ns3:TrackPointExtension>
            <ns3:hr>177</ns3:hr>
            <ns3:cad>0</ns3:cad>
          </ns3:TrackPointExtension>
        </extensions>
      </trkpt>
      <trkpt lat="47.56207278929650783538818359375" lon="11.02886972017586231231689453125">
        <ele>1110</ele>
        <time>2026-09-01T06:37:37.000Z</time>
        <extensions>
          <ns3:TrackPointExtension>
            <ns3:hr>177</ns3:hr>
            <ns3:cad>0</ns3:cad>
          </ns3:TrackPointExtension>
        </extensions>
      </trkpt>
      <trkpt lat="47.56206491030752658843994140625" lon="11.0288585722446441650390625">
        <ele>1110.4000244140625</ele>
        <time>2026-09-01T06:37:38.000Z</time>
        <extensions>
          <ns3:TrackPointExtension>
            <ns3:hr>177</ns3:hr>
            <ns3:cad>0</ns3:cad>
          </ns3:TrackPointExtension>
        </extensions>
      </trkpt>
      <trkpt lat="47.56205267272889614105224609375" lon="11.02883988060057163238525390625">
        <ele>1110.800048828125</ele>
        <time>2026-09-01T06:37:39.000Z</time>
        <extensions>
          <ns3:TrackPointExtension>
            <ns3:hr>177</ns3:hr>
            <ns3:cad>0</ns3:cad>
          </ns3:TrackPointExtension>
        </extensions>
      </trkpt>
      <trkpt lat="47.56205468438565731048583984375" lon="11.02882646955549716949462890625">
        <ele>1111.199951171875</ele>
        <time>2026-09-01T06:37:40.000Z</time>
        <extensions>
          <ns3:TrackPointExtension>
            <ns3:hr>177</ns3:hr>
            <ns3:cad>0</ns3:cad>
          </ns3:TrackPointExtension>
        </extensions>
      </trkpt>
      <trkpt lat="47.5620643235743045806884765625" lon="11.02880501188337802886962890625">
        <ele>1111.5999755859375</ele>
        <time>2026-09-01T06:37:41.000Z</time>
        <extensions>
          <ns3:TrackPointExtension>
            <ns3:hr>176</ns3:hr>
            <ns3:cad>0</ns3:cad>
          </ns3:TrackPointExtension>
        </extensions>
      </trkpt>
      <trkpt lat="47.5620542652904987335205078125" lon="11.028784476220607757568359375">
        <ele>1112</ele>
        <time>2026-09-01T06:37:42.000Z</time>
        <extensions>
          <ns3:TrackPointExtension>
            <ns3:hr>176</ns3:hr>
            <ns3:cad>0</ns3:cad>
          </ns3:TrackPointExtension>
        </extensions>
      </trkpt>
      <trkpt lat="47.56205166690051555633544921875" lon="11.02876729331910610198974609375">
        <ele>1112.199951171875</ele>
        <time>2026-09-01T06:37:43.000Z</time>
        <extensions>
          <ns3:TrackPointExtension>
            <ns3:hr>175</ns3:hr>
            <ns3:cad>0</ns3:cad>
          </ns3:TrackPointExtension>
        </extensions>
      </trkpt>
      <trkpt lat="47.5620554387569427490234375" lon="11.02874566800892353057861328125">
        <ele>1112.4000244140625</ele>
        <time>2026-09-01T06:37:44.000Z</time>
        <extensions>
          <ns3:TrackPointExtension>
            <ns3:hr>176</ns3:hr>
            <ns3:cad>0</ns3:cad>
          </ns3:TrackPointExtension>
        </extensions>
      </trkpt>
      <trkpt lat="47.56206876598298549652099609375" lon="11.0287316702306270599365234375">
        <ele>1112.4000244140625</ele>
        <time>2026-09-01T06:37:45.000Z</time>
        <extensions>
          <ns3:TrackPointExtension>
            <ns3:hr>176</ns3:hr>
            <ns3:cad>0</ns3:cad>
          </ns3:TrackPointExtension>
        </extensions>
      </trkpt>
      <trkpt lat="47.5620706938207149505615234375" lon="11.0287118889391422271728515625">
        <ele>1112.5999755859375</ele>
        <time>2026-09-01T06:37:46.000Z</time>
        <extensions>
          <ns3:TrackPointExtension>
            <ns3:hr>176</ns3:hr>
            <ns3:cad>75</ns3:cad>
          </ns3:TrackPointExtension>
        </extensions>
      </trkpt>
      <trkpt lat="47.56207597441971302032470703125" lon="11.0286947898566722869873046875">
        <ele>1112.800048828125</ele>
        <time>2026-09-01T06:37:47.000Z</time>
        <extensions>
          <ns3:TrackPointExtension>
            <ns3:hr>176</ns3:hr>
            <ns3:cad>75</ns3:cad>
          </ns3:TrackPointExtension>
        </extensions>
      </trkpt>
      <trkpt lat="47.56207890808582305908203125" lon="11.02867609821259975433349609375">
        <ele>1113</ele>
        <time>2026-09-01T06:37:48.000Z</time>
        <extensions>
          <ns3:TrackPointExtension>
            <ns3:hr>176</ns3:hr>
            <ns3:cad>74</ns3:cad>
          </ns3:TrackPointExtension>
        </extensions>
      </trkpt>
      <trkpt lat="47.56208267994225025177001953125" lon="11.028656400740146636962890625">
        <ele>1113.4000244140625</ele>
        <time>2026-09-01T06:37:49.000Z</time>
        <extensions>
          <ns3:TrackPointExtension>
            <ns3:hr>176</ns3:hr>
            <ns3:cad>74</ns3:cad>
          </ns3:TrackPointExtension>
        </extensions>
      </trkpt>
      <trkpt lat="47.56208150647580623626708984375" lon="11.02864198386669158935546875">
        <ele>1113.5999755859375</ele>
        <time>2026-09-01T06:37:50.000Z</time>
        <extensions>
          <ns3:TrackPointExtension>
            <ns3:hr>176</ns3:hr>
            <ns3:cad>74</ns3:cad>
          </ns3:TrackPointExtension>
        </extensions>
      </trkpt>
      <trkpt lat="47.56206189282238483428955078125" lon="11.02862345986068248748779296875">
        <ele>1114</ele>
        <time>2026-09-01T06:37:51.000Z</time>
        <extensions>
          <ns3:TrackPointExtension>
            <ns3:hr>176</ns3:hr>
            <ns3:cad>74</ns3:cad>
          </ns3:TrackPointExtension>
        </extensions>
      </trkpt>
      <trkpt lat="47.5620492361485958099365234375" lon="11.0286046005785465240478515625">
        <ele>1114.4000244140625</ele>
        <time>2026-09-01T06:37:52.000Z</time>
        <extensions>
          <ns3:TrackPointExtension>
            <ns3:hr>176</ns3:hr>
            <ns3:cad>0</ns3:cad>
          </ns3:TrackPointExtension>
        </extensions>
      </trkpt>
      <trkpt lat="47.56203942932188510894775390625" lon="11.028588004410266876220703125">
        <ele>1114.5999755859375</ele>
        <time>2026-09-01T06:37:53.000Z</time>
        <extensions>
          <ns3:TrackPointExtension>
            <ns3:hr>176</ns3:hr>
            <ns3:cad>0</ns3:cad>
          </ns3:TrackPointExtension>
        </extensions>
      </trkpt>
      <trkpt lat="47.56203331053256988525390625" lon="11.0285769402980804443359375">
        <ele>1115</ele>
        <time>2026-09-01T06:37:54.000Z</time>
        <extensions>
          <ns3:TrackPointExtension>
            <ns3:hr>177</ns3:hr>
            <ns3:cad>0</ns3:cad>
          </ns3:TrackPointExtension>
        </extensions>
      </trkpt>
      <trkpt lat="47.56203020922839641571044921875" lon="11.02855204604566097259521484375">
        <ele>1115.199951171875</ele>
        <time>2026-09-01T06:37:55.000Z</time>
        <extensions>
          <ns3:TrackPointExtension>
            <ns3:hr>177</ns3:hr>
            <ns3:cad>0</ns3:cad>
          </ns3:TrackPointExtension>
        </extensions>
      </trkpt>
      <trkpt lat="47.562024593353271484375" lon="11.0285341925919055938720703125">
        <ele>1115.5999755859375</ele>
        <time>2026-09-01T06:37:56.000Z</time>
        <extensions>
          <ns3:TrackPointExtension>
            <ns3:hr>177</ns3:hr>
            <ns3:cad>0</ns3:cad>
          </ns3:TrackPointExtension>
        </extensions>
      </trkpt>
      <trkpt lat="47.5620163790881633758544921875" lon="11.02852036245167255401611328125">
        <ele>1116.199951171875</ele>
        <time>2026-09-01T06:37:57.000Z</time>
        <extensions>
          <ns3:TrackPointExtension>
            <ns3:hr>177</ns3:hr>
            <ns3:cad>0</ns3:cad>
          </ns3:TrackPointExtension>
        </extensions>
      </trkpt>
      <trkpt lat="47.56201143376529216766357421875" lon="11.028508208692073822021484375">
        <ele>1116.5999755859375</ele>
        <time>2026-09-01T06:37:58.000Z</time>
        <extensions>
          <ns3:TrackPointExtension>
            <ns3:hr>177</ns3:hr>
            <ns3:cad>0</ns3:cad>
          </ns3:TrackPointExtension>
        </extensions>
      </trkpt>
      <trkpt lat="47.56200606934726238250732421875" lon="11.02849739603698253631591796875">
        <ele>1117.199951171875</ele>
        <time>2026-09-01T06:37:59.000Z</time>
        <extensions>
          <ns3:TrackPointExtension>
            <ns3:hr>176</ns3:hr>
            <ns3:cad>0</ns3:cad>
          </ns3:TrackPointExtension>
        </extensions>
      </trkpt>
      <trkpt lat="47.5620130263268947601318359375" lon="11.02850108407437801361083984375">
        <ele>1117.4000244140625</ele>
        <time>2026-09-01T06:38:00.000Z</time>
        <extensions>
          <ns3:TrackPointExtension>
            <ns3:hr>177</ns3:hr>
            <ns3:cad>50</ns3:cad>
          </ns3:TrackPointExtension>
        </extensions>
      </trkpt>
      <trkpt lat="47.56199986673891544342041015625" lon="11.028473675251007080078125">
        <ele>1117.800048828125</ele>
        <time>2026-09-01T06:38:01.000Z</time>
        <extensions>
          <ns3:TrackPointExtension>
            <ns3:hr>177</ns3:hr>
            <ns3:cad>50</ns3:cad>
          </ns3:TrackPointExtension>
        </extensions>
      </trkpt>
      <trkpt lat="47.56199902854859828948974609375" lon="11.028463952243328094482421875">
        <ele>1118.199951171875</ele>
        <time>2026-09-01T06:38:02.000Z</time>
        <extensions>
          <ns3:TrackPointExtension>
            <ns3:hr>178</ns3:hr>
            <ns3:cad>0</ns3:cad>
          </ns3:TrackPointExtension>
        </extensions>
      </trkpt>
      <trkpt lat="47.56198042072355747222900390625" lon="11.02845431305468082427978515625">
        <ele>1118.4000244140625</ele>
        <time>2026-09-01T06:38:03.000Z</time>
        <extensions>
          <ns3:TrackPointExtension>
            <ns3:hr>178</ns3:hr>
            <ns3:cad>0</ns3:cad>
          </ns3:TrackPointExtension>
        </extensions>
      </trkpt>
      <trkpt lat="47.56197220645844936370849609375" lon="11.02844484150409698486328125">
        <ele>1118.800048828125</ele>
        <time>2026-09-01T06:38:04.000Z</time>
        <extensions>
          <ns3:TrackPointExtension>
            <ns3:hr>178</ns3:hr>
            <ns3:cad>0</ns3:cad>
          </ns3:TrackPointExtension>
        </extensions>
      </trkpt>
      <trkpt lat="47.56195661611855030059814453125" lon="11.028430424630641937255859375">
        <ele>1119</ele>
        <time>2026-09-01T06:38:05.000Z</time>
        <extensions>
          <ns3:TrackPointExtension>
            <ns3:hr>177</ns3:hr>
            <ns3:cad>0</ns3:cad>
          </ns3:TrackPointExtension>
        </extensions>
      </trkpt>
      <trkpt lat="47.56194404326379299163818359375" lon="11.0284213721752166748046875">
        <ele>1119.199951171875</ele>
        <time>2026-09-01T06:38:06.000Z</time>
        <extensions>
          <ns3:TrackPointExtension>
            <ns3:hr>175</ns3:hr>
            <ns3:cad>0</ns3:cad>
          </ns3:TrackPointExtension>
        </extensions>
      </trkpt>
      <trkpt lat="47.56193649955093860626220703125" lon="11.02841936051845550537109375">
        <ele>1119.4000244140625</ele>
        <time>2026-09-01T06:38:07.000Z</time>
        <extensions>
          <ns3:TrackPointExtension>
            <ns3:hr>174</ns3:hr>
            <ns3:cad>0</ns3:cad>
          </ns3:TrackPointExtension>
        </extensions>
      </trkpt>
      <trkpt lat="47.56193163804709911346435546875" lon="11.0284155048429965972900390625">
        <ele>1119.5999755859375</ele>
        <time>2026-09-01T06:38:08.000Z</time>
        <extensions>
          <ns3:TrackPointExtension>
            <ns3:hr>174</ns3:hr>
            <ns3:cad>0</ns3:cad>
          </ns3:TrackPointExtension>
        </extensions>
      </trkpt>
      <trkpt lat="47.5619178079068660736083984375" lon="11.02840603329241275787353515625">
        <ele>1120</ele>
        <time>2026-09-01T06:38:09.000Z</time>
        <extensions>
          <ns3:TrackPointExtension>
            <ns3:hr>173</ns3:hr>
            <ns3:cad>0</ns3:cad>
          </ns3:TrackPointExtension>
        </extensions>
      </trkpt>
      <trkpt lat="47.5619132816791534423828125" lon="11.028402931988239288330078125">
        <ele>1120.4000244140625</ele>
        <time>2026-09-01T06:38:10.000Z</time>
        <extensions>
          <ns3:TrackPointExtension>
            <ns3:hr>173</ns3:hr>
            <ns3:cad>0</ns3:cad>
          </ns3:TrackPointExtension>
        </extensions>
      </trkpt>
      <trkpt lat="47.56191420368850231170654296875" lon="11.028401590883731842041015625">
        <ele>1120.5999755859375</ele>
        <time>2026-09-01T06:38:11.000Z</time>
        <extensions>
          <ns3:TrackPointExtension>
            <ns3:hr>173</ns3:hr>
            <ns3:cad>0</ns3:cad>
          </ns3:TrackPointExtension>
        </extensions>
      </trkpt>
      <trkpt lat="47.56190766580402851104736328125" lon="11.028398908674716949462890625">
        <ele>1120.800048828125</ele>
        <time>2026-09-01T06:38:12.000Z</time>
        <extensions>
          <ns3:TrackPointExtension>
            <ns3:hr>172</ns3:hr>
            <ns3:cad>51</ns3:cad>
          </ns3:TrackPointExtension>
        </extensions>
      </trkpt>
      <trkpt lat="47.56190347485244274139404296875" lon="11.02839899249374866485595703125">
        <ele>1121.199951171875</ele>
        <time>2026-09-01T06:38:13.000Z</time>
        <extensions>
          <ns3:TrackPointExtension>
            <ns3:hr>172</ns3:hr>
            <ns3:cad>51</ns3:cad>
          </ns3:TrackPointExtension>
        </extensions>
      </trkpt>
      <trkpt lat="47.56189911626279354095458984375" lon="11.02839396335184574127197265625">
        <ele>1121.199951171875</ele>
        <time>2026-09-01T06:38:14.000Z</time>
        <extensions>
          <ns3:TrackPointExtension>
            <ns3:hr>172</ns3:hr>
            <ns3:cad>51</ns3:cad>
          </ns3:TrackPointExtension>
        </extensions>
      </trkpt>
      <trkpt lat="47.5618929974734783172607421875" lon="11.028386168181896209716796875">
        <ele>1121.4000244140625</ele>
        <time>2026-09-01T06:38:15.000Z</time>
        <extensions>
          <ns3:TrackPointExtension>
            <ns3:hr>171</ns3:hr>
            <ns3:cad>51</ns3:cad>
          </ns3:TrackPointExtension>
        </extensions>
      </trkpt>
      <trkpt lat="47.56187531165778636932373046875" lon="11.02836906909942626953125">
        <ele>1121.4000244140625</ele>
        <time>2026-09-01T06:38:16.000Z</time>
        <extensions>
          <ns3:TrackPointExtension>
            <ns3:hr>170</ns3:hr>
            <ns3:cad>51</ns3:cad>
          </ns3:TrackPointExtension>
        </extensions>
      </trkpt>
      <trkpt lat="47.56186827085912227630615234375" lon="11.02835808880627155303955078125">
        <ele>1121.5999755859375</ele>
        <time>2026-09-01T06:38:17.000Z</time>
        <extensions>
          <ns3:TrackPointExtension>
            <ns3:hr>169</ns3:hr>
            <ns3:cad>65</ns3:cad>
          </ns3:TrackPointExtension>
        </extensions>
      </trkpt>
      <trkpt lat="47.56185553036630153656005859375" lon="11.02834400720894336700439453125">
        <ele>1121.5999755859375</ele>
        <time>2026-09-01T06:38:18.000Z</time>
        <extensions>
          <ns3:TrackPointExtension>
            <ns3:hr>169</ns3:hr>
            <ns3:cad>65</ns3:cad>
          </ns3:TrackPointExtension>
        </extensions>
      </trkpt>
      <trkpt lat="47.5618480704724788665771484375" lon="11.0283246450126171112060546875">
        <ele>1122</ele>
        <time>2026-09-01T06:38:19.000Z</time>
        <extensions>
          <ns3:TrackPointExtension>
            <ns3:hr>169</ns3:hr>
            <ns3:cad>65</ns3:cad>
          </ns3:TrackPointExtension>
        </extensions>
      </trkpt>
      <trkpt lat="47.56183926947414875030517578125" lon="11.02831232361495494842529296875">
        <ele>1122.4000244140625</ele>
        <time>2026-09-01T06:38:20.000Z</time>
        <extensions>
          <ns3:TrackPointExtension>
            <ns3:hr>169</ns3:hr>
            <ns3:cad>65</ns3:cad>
          </ns3:TrackPointExtension>
        </extensions>
      </trkpt>
      <trkpt lat="47.561828792095184326171875" lon="11.02830109186470508575439453125">
        <ele>1123</ele>
        <time>2026-09-01T06:38:21.000Z</time>
        <extensions>
          <ns3:TrackPointExtension>
            <ns3:hr>170</ns3:hr>
            <ns3:cad>65</ns3:cad>
          </ns3:TrackPointExtension>
        </extensions>
      </trkpt>
      <trkpt lat="47.56182820536196231842041015625" lon="11.02829002775251865386962890625">
        <ele>1123.5999755859375</ele>
        <time>2026-09-01T06:38:22.000Z</time>
        <extensions>
          <ns3:TrackPointExtension>
            <ns3:hr>170</ns3:hr>
            <ns3:cad>0</ns3:cad>
          </ns3:TrackPointExtension>
        </extensions>
      </trkpt>
      <trkpt lat="47.5618225894868373870849609375" lon="11.0282894410192966461181640625">
        <ele>1124.4000244140625</ele>
        <time>2026-09-01T06:38:23.000Z</time>
        <extensions>
          <ns3:TrackPointExtension>
            <ns3:hr>171</ns3:hr>
            <ns3:cad>0</ns3:cad>
          </ns3:TrackPointExtension>
        </extensions>
      </trkpt>
      <trkpt lat="47.5618189014494419097900390625" lon="11.02828080765902996063232421875">
        <ele>1124.800048828125</ele>
        <time>2026-09-01T06:38:24.000Z</time>
        <extensions>
          <ns3:TrackPointExtension>
            <ns3:hr>171</ns3:hr>
            <ns3:cad>0</ns3:cad>
          </ns3:TrackPointExtension>
        </extensions>
      </trkpt>
      <trkpt lat="47.56180892698466777801513671875" lon="11.028268150985240936279296875">
        <ele>1125.199951171875</ele>
        <time>2026-09-01T06:38:25.000Z</time>
        <extensions>
          <ns3:TrackPointExtension>
            <ns3:hr>170</ns3:hr>
            <ns3:cad>0</ns3:cad>
          </ns3:TrackPointExtension>
        </extensions>
      </trkpt>
      <trkpt lat="47.56180004216730594635009765625" lon="11.02825012989342212677001953125">
        <ele>1125.5999755859375</ele>
        <time>2026-09-01T06:38:26.000Z</time>
        <extensions>
          <ns3:TrackPointExtension>
            <ns3:hr>170</ns3:hr>
            <ns3:cad>0</ns3:cad>
          </ns3:TrackPointExtension>
        </extensions>
      </trkpt>
      <trkpt lat="47.56179702468216419219970703125" lon="11.0282362997531890869140625">
        <ele>1125.800048828125</ele>
        <time>2026-09-01T06:38:27.000Z</time>
        <extensions>
          <ns3:TrackPointExtension>
            <ns3:hr>169</ns3:hr>
            <ns3:cad>0</ns3:cad>
          </ns3:TrackPointExtension>
        </extensions>
      </trkpt>
      <trkpt lat="47.56178746931254863739013671875" lon="11.02821760810911655426025390625">
        <ele>1126.199951171875</ele>
        <time>2026-09-01T06:38:28.000Z</time>
        <extensions>
          <ns3:TrackPointExtension>
            <ns3:hr>168</ns3:hr>
            <ns3:cad>0</ns3:cad>
          </ns3:TrackPointExtension>
        </extensions>
      </trkpt>
      <trkpt lat="47.56177690811455249786376953125" lon="11.02820486761629581451416015625">
        <ele>1126.5999755859375</ele>
        <time>2026-09-01T06:38:29.000Z</time>
        <extensions>
          <ns3:TrackPointExtension>
            <ns3:hr>167</ns3:hr>
            <ns3:cad>0</ns3:cad>
          </ns3:TrackPointExtension>
        </extensions>
      </trkpt>
      <trkpt lat="47.5617736391723155975341796875" lon="11.028191037476062774658203125">
        <ele>1127</ele>
        <time>2026-09-01T06:38:30.000Z</time>
        <extensions>
          <ns3:TrackPointExtension>
            <ns3:hr>167</ns3:hr>
            <ns3:cad>0</ns3:cad>
          </ns3:TrackPointExtension>
        </extensions>
      </trkpt>
      <trkpt lat="47.5617684423923492431640625" lon="11.0281821526587009429931640625">
        <ele>1127.5999755859375</ele>
        <time>2026-09-01T06:38:31.000Z</time>
        <extensions>
          <ns3:TrackPointExtension>
            <ns3:hr>166</ns3:hr>
            <ns3:cad>0</ns3:cad>
          </ns3:TrackPointExtension>
        </extensions>
      </trkpt>
      <trkpt lat="47.56175100803375244140625" lon="11.02817393839359283447265625">
        <ele>1128</ele>
        <time>2026-09-01T06:38:32.000Z</time>
        <extensions>
          <ns3:TrackPointExtension>
            <ns3:hr>165</ns3:hr>
            <ns3:cad>0</ns3:cad>
          </ns3:TrackPointExtension>
        </extensions>
      </trkpt>
      <trkpt lat="47.5617437995970249176025390625" lon="11.02816513739526271820068359375">
        <ele>1128.4000244140625</ele>
        <time>2026-09-01T06:38:33.000Z</time>
        <extensions>
          <ns3:TrackPointExtension>
            <ns3:hr>165</ns3:hr>
            <ns3:cad>0</ns3:cad>
          </ns3:TrackPointExtension>
        </extensions>
      </trkpt>
      <trkpt lat="47.56173181347548961639404296875" lon="11.02815373800694942474365234375">
        <ele>1128.800048828125</ele>
        <time>2026-09-01T06:38:34.000Z</time>
        <extensions>
          <ns3:TrackPointExtension>
            <ns3:hr>164</ns3:hr>
            <ns3:cad>0</ns3:cad>
          </ns3:TrackPointExtension>
        </extensions>
      </trkpt>
      <trkpt lat="47.561723850667476654052734375" lon="11.02814711630344390869140625">
        <ele>1129</ele>
        <time>2026-09-01T06:38:35.000Z</time>
        <extensions>
          <ns3:TrackPointExtension>
            <ns3:hr>164</ns3:hr>
            <ns3:cad>0</ns3:cad>
          </ns3:TrackPointExtension>
        </extensions>
      </trkpt>
      <trkpt lat="47.5617116130888462066650390625" lon="11.02813228033483028411865234375">
        <ele>1129.199951171875</ele>
        <time>2026-09-01T06:38:36.000Z</time>
        <extensions>
          <ns3:TrackPointExtension>
            <ns3:hr>163</ns3:hr>
            <ns3:cad>0</ns3:cad>
          </ns3:TrackPointExtension>
        </extensions>
      </trkpt>
      <trkpt lat="47.56170951761305332183837890625" lon="11.02813194505870342254638671875">
        <ele>1129.5999755859375</ele>
        <time>2026-09-01T06:38:37.000Z</time>
        <extensions>
          <ns3:TrackPointExtension>
            <ns3:hr>164</ns3:hr>
            <ns3:cad>0</ns3:cad>
          </ns3:TrackPointExtension>
        </extensions>
      </trkpt>
      <trkpt lat="47.561703734099864959716796875" lon="11.028125993907451629638671875">
        <ele>1129.800048828125</ele>
        <time>2026-09-01T06:38:38.000Z</time>
        <extensions>
          <ns3:TrackPointExtension>
            <ns3:hr>164</ns3:hr>
            <ns3:cad>0</ns3:cad>
          </ns3:TrackPointExtension>
        </extensions>
      </trkpt>
      <trkpt lat="47.56169107742607593536376953125" lon="11.028119623661041259765625">
        <ele>1130</ele>
        <time>2026-09-01T06:38:39.000Z</time>
        <extensions>
          <ns3:TrackPointExtension>
            <ns3:hr>164</ns3:hr>
            <ns3:cad>0</ns3:cad>
          </ns3:TrackPointExtension>
        </extensions>
      </trkpt>
      <trkpt lat="47.56168671883642673492431640625" lon="11.02811585180461406707763671875">
        <ele>1130.4000244140625</ele>
        <time>2026-09-01T06:38:40.000Z</time>
        <extensions>
          <ns3:TrackPointExtension>
            <ns3:hr>164</ns3:hr>
            <ns3:cad>0</ns3:cad>
          </ns3:TrackPointExtension>
        </extensions>
      </trkpt>
      <trkpt lat="47.56167925894260406494140625" lon="11.028107888996601104736328125">
        <ele>1130.5999755859375</ele>
        <time>2026-09-01T06:38:41.000Z</time>
        <extensions>
          <ns3:TrackPointExtension>
            <ns3:hr>165</ns3:hr>
            <ns3:cad>0</ns3:cad>
          </ns3:TrackPointExtension>
        </extensions>
      </trkpt>
      <trkpt lat="47.56166811101138591766357421875" lon="11.02809456177055835723876953125">
        <ele>1130.800048828125</ele>
        <time>2026-09-01T06:38:42.000Z</time>
        <extensions>
          <ns3:TrackPointExtension>
            <ns3:hr>164</ns3:hr>
            <ns3:cad>0</ns3:cad>
          </ns3:TrackPointExtension>
        </extensions>
      </trkpt>
      <trkpt lat="47.5616583041846752166748046875" lon="11.02808919735252857208251953125">
        <ele>1131</ele>
        <time>2026-09-01T06:38:43.000Z</time>
        <extensions>
          <ns3:TrackPointExtension>
            <ns3:hr>162</ns3:hr>
            <ns3:cad>0</ns3:cad>
          </ns3:TrackPointExtension>
        </extensions>
      </trkpt>
      <trkpt lat="47.56166224367916584014892578125" lon="11.0280916281044483184814453125">
        <ele>1131.199951171875</ele>
        <time>2026-09-01T06:38:44.000Z</time>
        <extensions>
          <ns3:TrackPointExtension>
            <ns3:hr>163</ns3:hr>
            <ns3:cad>0</ns3:cad>
          </ns3:TrackPointExtension>
        </extensions>
      </trkpt>
      <trkpt lat="47.5616566278040409088134765625" lon="11.0280860960483551025390625">
        <ele>1131.4000244140625</ele>
        <time>2026-09-01T06:38:45.000Z</time>
        <extensions>
          <ns3:TrackPointExtension>
            <ns3:hr>163</ns3:hr>
            <ns3:cad>0</ns3:cad>
          </ns3:TrackPointExtension>
        </extensions>
      </trkpt>
      <trkpt lat="47.56165939383208751678466796875" lon="11.02808006107807159423828125">
        <ele>1131.5999755859375</ele>
        <time>2026-09-01T06:38:46.000Z</time>
        <extensions>
          <ns3:TrackPointExtension>
            <ns3:hr>163</ns3:hr>
            <ns3:cad>0</ns3:cad>
          </ns3:TrackPointExtension>
        </extensions>
      </trkpt>
      <trkpt lat="47.56165671162307262420654296875" lon="11.028058268129825592041015625">
        <ele>1131.800048828125</ele>
        <time>2026-09-01T06:38:47.000Z</time>
        <extensions>
          <ns3:TrackPointExtension>
            <ns3:hr>167</ns3:hr>
            <ns3:cad>0</ns3:cad>
          </ns3:TrackPointExtension>
        </extensions>
      </trkpt>
      <trkpt lat="47.5616633333265781402587890625" lon="11.02805634029209613800048828125">
        <ele>1132.199951171875</ele>
        <time>2026-09-01T06:38:48.000Z</time>
        <extensions>
          <ns3:TrackPointExtension>
            <ns3:hr>167</ns3:hr>
            <ns3:cad>0</ns3:cad>
          </ns3:TrackPointExtension>
        </extensions>
      </trkpt>
      <trkpt lat="47.56166274659335613250732421875" lon="11.0280416719615459442138671875">
        <ele>1132.5999755859375</ele>
        <time>2026-09-01T06:38:49.000Z</time>
        <extensions>
          <ns3:TrackPointExtension>
            <ns3:hr>167</ns3:hr>
            <ns3:cad>0</ns3:cad>
          </ns3:TrackPointExtension>
        </extensions>
      </trkpt>
      <trkpt lat="47.56166425533592700958251953125" lon="11.02804058231413364410400390625">
        <ele>1132.800048828125</ele>
        <time>2026-09-01T06:38:50.000Z</time>
        <extensions>
          <ns3:TrackPointExtension>
            <ns3:hr>168</ns3:hr>
            <ns3:cad>0</ns3:cad>
          </ns3:TrackPointExtension>
        </extensions>
      </trkpt>
      <trkpt lat="47.561656795442104339599609375" lon="11.0280316136777400970458984375">
        <ele>1133.199951171875</ele>
        <time>2026-09-01T06:38:51.000Z</time>
        <extensions>
          <ns3:TrackPointExtension>
            <ns3:hr>168</ns3:hr>
            <ns3:cad>51</ns3:cad>
          </ns3:TrackPointExtension>
        </extensions>
      </trkpt>
      <trkpt lat="47.561652101576328277587890625" lon="11.0280351340770721435546875">
        <ele>1133.4000244140625</ele>
        <time>2026-09-01T06:38:52.000Z</time>
        <extensions>
          <ns3:TrackPointExtension>
            <ns3:hr>169</ns3:hr>
            <ns3:cad>51</ns3:cad>
          </ns3:TrackPointExtension>
        </extensions>
      </trkpt>
      <trkpt lat="47.56164841353893280029296875" lon="11.02804058231413364410400390625">
        <ele>1133.5999755859375</ele>
        <time>2026-09-01T06:38:53.000Z</time>
        <extensions>
          <ns3:TrackPointExtension>
            <ns3:hr>169</ns3:hr>
            <ns3:cad>51</ns3:cad>
          </ns3:TrackPointExtension>
        </extensions>
      </trkpt>
      <trkpt lat="47.56164162419736385345458984375" lon="11.02803312242031097412109375">
        <ele>1133.800048828125</ele>
        <time>2026-09-01T06:38:54.000Z</time>
        <extensions>
          <ns3:TrackPointExtension>
            <ns3:hr>170</ns3:hr>
            <ns3:cad>51</ns3:cad>
          </ns3:TrackPointExtension>
        </extensions>
      </trkpt>
      <trkpt lat="47.56164045073091983795166015625" lon="11.02804108522832393646240234375">
        <ele>1134</ele>
        <time>2026-09-01T06:38:55.000Z</time>
        <extensions>
          <ns3:TrackPointExtension>
            <ns3:hr>170</ns3:hr>
            <ns3:cad>0</ns3:cad>
          </ns3:TrackPointExtension>
        </extensions>
      </trkpt>
      <trkpt lat="47.5616343319416046142578125" lon="11.02804544381797313690185546875">
        <ele>1134.4000244140625</ele>
        <time>2026-09-01T06:38:56.000Z</time>
        <extensions>
          <ns3:TrackPointExtension>
            <ns3:hr>170</ns3:hr>
            <ns3:cad>0</ns3:cad>
          </ns3:TrackPointExtension>
        </extensions>
      </trkpt>
      <trkpt lat="47.56162603385746479034423828125" lon="11.02805055677890777587890625">
        <ele>1134.800048828125</ele>
        <time>2026-09-01T06:38:57.000Z</time>
        <extensions>
          <ns3:TrackPointExtension>
            <ns3:hr>169</ns3:hr>
            <ns3:cad>0</ns3:cad>
          </ns3:TrackPointExtension>
        </extensions>
      </trkpt>
      <trkpt lat="47.5616204179823398590087890625" lon="11.028053574264049530029296875">
        <ele>1135.199951171875</ele>
        <time>2026-09-01T06:38:58.000Z</time>
        <extensions>
          <ns3:TrackPointExtension>
            <ns3:hr>168</ns3:hr>
            <ns3:cad>0</ns3:cad>
          </ns3:TrackPointExtension>
        </extensions>
      </trkpt>
      <trkpt lat="47.561621256172657012939453125" lon="11.02804779075086116790771484375">
        <ele>1135.4000244140625</ele>
        <time>2026-09-01T06:38:59.000Z</time>
        <extensions>
          <ns3:TrackPointExtension>
            <ns3:hr>168</ns3:hr>
            <ns3:cad>0</ns3:cad>
          </ns3:TrackPointExtension>
        </extensions>
      </trkpt>
      <trkpt lat="47.5616147182881832122802734375" lon="11.02803312242031097412109375">
        <ele>1135.5999755859375</ele>
        <time>2026-09-01T06:39:00.000Z</time>
        <extensions>
          <ns3:TrackPointExtension>
            <ns3:hr>167</ns3:hr>
            <ns3:cad>0</ns3:cad>
          </ns3:TrackPointExtension>
        </extensions>
      </trkpt>
      <trkpt lat="47.5616113655269145965576171875" lon="11.02802465669810771942138671875">
        <ele>1135.800048828125</ele>
        <time>2026-09-01T06:39:01.000Z</time>
        <extensions>
          <ns3:TrackPointExtension>
            <ns3:hr>166</ns3:hr>
            <ns3:cad>0</ns3:cad>
          </ns3:TrackPointExtension>
        </extensions>
      </trkpt>
      <trkpt lat="47.56161153316497802734375" lon="11.028004623949527740478515625">
        <ele>1136</ele>
        <time>2026-09-01T06:39:02.000Z</time>
        <extensions>
          <ns3:TrackPointExtension>
            <ns3:hr>165</ns3:hr>
            <ns3:cad>0</ns3:cad>
          </ns3:TrackPointExtension>
        </extensions>
      </trkpt>
      <trkpt lat="47.5615959428250789642333984375" lon="11.02797537110745906829833984375">
        <ele>1136.199951171875</ele>
        <time>2026-09-01T06:39:03.000Z</time>
        <extensions>
          <ns3:TrackPointExtension>
            <ns3:hr>165</ns3:hr>
            <ns3:cad>0</ns3:cad>
          </ns3:TrackPointExtension>
        </extensions>
      </trkpt>
      <trkpt lat="47.56159736774861812591552734375" lon="11.02796338498592376708984375">
        <ele>1136.800048828125</ele>
        <time>2026-09-01T06:39:04.000Z</time>
        <extensions>
          <ns3:TrackPointExtension>
            <ns3:hr>165</ns3:hr>
            <ns3:cad>0</ns3:cad>
          </ns3:TrackPointExtension>
        </extensions>
      </trkpt>
      <trkpt lat="47.561582364141941070556640625" lon="11.0279437713325023651123046875">
        <ele>1137</ele>
        <time>2026-09-01T06:39:05.000Z</time>
        <extensions>
          <ns3:TrackPointExtension>
            <ns3:hr>164</ns3:hr>
            <ns3:cad>0</ns3:cad>
          </ns3:TrackPointExtension>
        </extensions>
      </trkpt>
      <trkpt lat="47.56156987510621547698974609375" lon="11.02792809717357158660888671875">
        <ele>1137.4000244140625</ele>
        <time>2026-09-01T06:39:06.000Z</time>
        <extensions>
          <ns3:TrackPointExtension>
            <ns3:hr>164</ns3:hr>
            <ns3:cad>0</ns3:cad>
          </ns3:TrackPointExtension>
        </extensions>
      </trkpt>
      <trkpt lat="47.561556212604045867919921875" lon="11.0279273428022861480712890625">
        <ele>1137.800048828125</ele>
        <time>2026-09-01T06:39:07.000Z</time>
        <extensions>
          <ns3:TrackPointExtension>
            <ns3:hr>164</ns3:hr>
            <ns3:cad>0</ns3:cad>
          </ns3:TrackPointExtension>
        </extensions>
      </trkpt>
      <trkpt lat="47.56154472939670085906982421875" lon="11.02793815545737743377685546875">
        <ele>1138.199951171875</ele>
        <time>2026-09-01T06:39:08.000Z</time>
        <extensions>
          <ns3:TrackPointExtension>
            <ns3:hr>164</ns3:hr>
            <ns3:cad>0</ns3:cad>
          </ns3:TrackPointExtension>
        </extensions>
      </trkpt>
      <trkpt lat="47.56153844296932220458984375" lon="11.02794419042766094207763671875">
        <ele>1138.4000244140625</ele>
        <time>2026-09-01T06:39:09.000Z</time>
        <extensions>
          <ns3:TrackPointExtension>
            <ns3:hr>163</ns3:hr>
            <ns3:cad>0</ns3:cad>
          </ns3:TrackPointExtension>
        </extensions>
      </trkpt>
      <trkpt lat="47.56152369081974029541015625" lon="11.0279293544590473175048828125">
        <ele>1138.4000244140625</ele>
        <time>2026-09-01T06:39:10.000Z</time>
        <extensions>
          <ns3:TrackPointExtension>
            <ns3:hr>163</ns3:hr>
            <ns3:cad>0</ns3:cad>
          </ns3:TrackPointExtension>
        </extensions>
      </trkpt>
      <trkpt lat="47.56151271052658557891845703125" lon="11.02791552431881427764892578125">
        <ele>1138.800048828125</ele>
        <time>2026-09-01T06:39:11.000Z</time>
        <extensions>
          <ns3:TrackPointExtension>
            <ns3:hr>163</ns3:hr>
            <ns3:cad>0</ns3:cad>
          </ns3:TrackPointExtension>
        </extensions>
      </trkpt>
      <trkpt lat="47.561495192348957061767578125" lon="11.02791720069944858551025390625">
        <ele>1138.800048828125</ele>
        <time>2026-09-01T06:39:12.000Z</time>
        <extensions>
          <ns3:TrackPointExtension>
            <ns3:hr>163</ns3:hr>
            <ns3:cad>48</ns3:cad>
          </ns3:TrackPointExtension>
        </extensions>
      </trkpt>
      <trkpt lat="47.56148303858935832977294921875" lon="11.027916111052036285400390625">
        <ele>1139</ele>
        <time>2026-09-01T06:39:13.000Z</time>
        <extensions>
          <ns3:TrackPointExtension>
            <ns3:hr>163</ns3:hr>
            <ns3:cad>48</ns3:cad>
          </ns3:TrackPointExtension>
        </extensions>
      </trkpt>
      <trkpt lat="47.5614749081432819366455078125" lon="11.0279172845184803009033203125">
        <ele>1139.4000244140625</ele>
        <time>2026-09-01T06:39:14.000Z</time>
        <extensions>
          <ns3:TrackPointExtension>
            <ns3:hr>163</ns3:hr>
            <ns3:cad>48</ns3:cad>
          </ns3:TrackPointExtension>
        </extensions>
      </trkpt>
      <trkpt lat="47.5614626705646514892578125" lon="11.02792055346071720123291015625">
        <ele>1139.800048828125</ele>
        <time>2026-09-01T06:39:15.000Z</time>
        <extensions>
          <ns3:TrackPointExtension>
            <ns3:hr>164</ns3:hr>
            <ns3:cad>48</ns3:cad>
          </ns3:TrackPointExtension>
        </extensions>
      </trkpt>
      <trkpt lat="47.561453282833099365234375" lon="11.02792273275554180145263671875">
        <ele>1140.199951171875</ele>
        <time>2026-09-01T06:39:16.000Z</time>
        <extensions>
          <ns3:TrackPointExtension>
            <ns3:hr>164</ns3:hr>
            <ns3:cad>48</ns3:cad>
          </ns3:TrackPointExtension>
        </extensions>
      </trkpt>
      <trkpt lat="47.56144330836832523345947265625" lon="11.0279270075261592864990234375">
        <ele>1140.5999755859375</ele>
        <time>2026-09-01T06:39:17.000Z</time>
        <extensions>
          <ns3:TrackPointExtension>
            <ns3:hr>164</ns3:hr>
            <ns3:cad>49</ns3:cad>
          </ns3:TrackPointExtension>
        </extensions>
      </trkpt>
      <trkpt lat="47.56143375299870967864990234375" lon="11.02792256511747837066650390625">
        <ele>1141</ele>
        <time>2026-09-01T06:39:18.000Z</time>
        <extensions>
          <ns3:TrackPointExtension>
            <ns3:hr>164</ns3:hr>
            <ns3:cad>49</ns3:cad>
          </ns3:TrackPointExtension>
        </extensions>
      </trkpt>
      <trkpt lat="47.5614224374294281005859375" lon="11.02792876772582530975341796875">
        <ele>1141.4000244140625</ele>
        <time>2026-09-01T06:39:19.000Z</time>
        <extensions>
          <ns3:TrackPointExtension>
            <ns3:hr>164</ns3:hr>
            <ns3:cad>49</ns3:cad>
          </ns3:TrackPointExtension>
        </extensions>
      </trkpt>
      <trkpt lat="47.56141313351690769195556640625" lon="11.02793522179126739501953125">
        <ele>1141.800048828125</ele>
        <time>2026-09-01T06:39:20.000Z</time>
        <extensions>
          <ns3:TrackPointExtension>
            <ns3:hr>165</ns3:hr>
            <ns3:cad>49</ns3:cad>
          </ns3:TrackPointExtension>
        </extensions>
      </trkpt>
      <trkpt lat="47.5614101998507976531982421875" lon="11.02795156650245189666748046875">
        <ele>1142</ele>
        <time>2026-09-01T06:39:21.000Z</time>
        <extensions>
          <ns3:TrackPointExtension>
            <ns3:hr>165</ns3:hr>
            <ns3:cad>49</ns3:cad>
          </ns3:TrackPointExtension>
        </extensions>
      </trkpt>
      <trkpt lat="47.5614011473953723907470703125" lon="11.02797000668942928314208984375">
        <ele>1142.4000244140625</ele>
        <time>2026-09-01T06:39:22.000Z</time>
        <extensions>
          <ns3:TrackPointExtension>
            <ns3:hr>166</ns3:hr>
            <ns3:cad>49</ns3:cad>
          </ns3:TrackPointExtension>
        </extensions>
      </trkpt>
      <trkpt lat="47.56139360368251800537109375" lon="11.02798744104802608489990234375">
        <ele>1142.5999755859375</ele>
        <time>2026-09-01T06:39:23.000Z</time>
        <extensions>
          <ns3:TrackPointExtension>
            <ns3:hr>166</ns3:hr>
            <ns3:cad>49</ns3:cad>
          </ns3:TrackPointExtension>
        </extensions>
      </trkpt>
      <trkpt lat="47.56138346157968044281005859375" lon="11.0280007682740688323974609375">
        <ele>1142.5999755859375</ele>
        <time>2026-09-01T06:39:24.000Z</time>
        <extensions>
          <ns3:TrackPointExtension>
            <ns3:hr>166</ns3:hr>
            <ns3:cad>49</ns3:cad>
          </ns3:TrackPointExtension>
        </extensions>
      </trkpt>
      <trkpt lat="47.56137977354228496551513671875" lon="11.028016023337841033935546875">
        <ele>1142.800048828125</ele>
        <time>2026-09-01T06:39:25.000Z</time>
        <extensions>
          <ns3:TrackPointExtension>
            <ns3:hr>166</ns3:hr>
            <ns3:cad>49</ns3:cad>
          </ns3:TrackPointExtension>
        </extensions>
      </trkpt>
      <trkpt lat="47.56137591786682605743408203125" lon="11.02803505025804042816162109375">
        <ele>1143.199951171875</ele>
        <time>2026-09-01T06:39:26.000Z</time>
        <extensions>
          <ns3:TrackPointExtension>
            <ns3:hr>167</ns3:hr>
            <ns3:cad>49</ns3:cad>
          </ns3:TrackPointExtension>
        </extensions>
      </trkpt>
      <trkpt lat="47.5613713078200817108154296875" lon="11.028042845427989959716796875">
        <ele>1143.4000244140625</ele>
        <time>2026-09-01T06:39:27.000Z</time>
        <extensions>
          <ns3:TrackPointExtension>
            <ns3:hr>167</ns3:hr>
            <ns3:cad>49</ns3:cad>
          </ns3:TrackPointExtension>
        </extensions>
      </trkpt>
      <trkpt lat="47.5613592378795146942138671875" lon="11.02805734612047672271728515625">
        <ele>1143.800048828125</ele>
        <time>2026-09-01T06:39:28.000Z</time>
        <extensions>
          <ns3:TrackPointExtension>
            <ns3:hr>167</ns3:hr>
            <ns3:cad>49</ns3:cad>
          </ns3:TrackPointExtension>
        </extensions>
      </trkpt>
      <trkpt lat="47.5613454915583133697509765625" lon="11.02807025425136089324951171875">
        <ele>1144.199951171875</ele>
        <time>2026-09-01T06:39:29.000Z</time>
        <extensions>
          <ns3:TrackPointExtension>
            <ns3:hr>167</ns3:hr>
            <ns3:cad>49</ns3:cad>
          </ns3:TrackPointExtension>
        </extensions>
      </trkpt>
      <trkpt lat="47.561342976987361907958984375" lon="11.0280740261077880859375">
        <ele>1144.4000244140625</ele>
        <time>2026-09-01T06:39:30.000Z</time>
        <extensions>
          <ns3:TrackPointExtension>
            <ns3:hr>168</ns3:hr>
            <ns3:cad>49</ns3:cad>
          </ns3:TrackPointExtension>
        </extensions>
      </trkpt>
      <trkpt lat="47.56133384071290493011474609375" lon="11.0280798934400081634521484375">
        <ele>1144.4000244140625</ele>
        <time>2026-09-01T06:39:31.000Z</time>
        <extensions>
          <ns3:TrackPointExtension>
            <ns3:hr>168</ns3:hr>
            <ns3:cad>49</ns3:cad>
          </ns3:TrackPointExtension>
        </extensions>
      </trkpt>
      <trkpt lat="47.56133325397968292236328125" lon="11.0280919633805751800537109375">
        <ele>1144.5999755859375</ele>
        <time>2026-09-01T06:39:32.000Z</time>
        <extensions>
          <ns3:TrackPointExtension>
            <ns3:hr>170</ns3:hr>
            <ns3:cad>49</ns3:cad>
          </ns3:TrackPointExtension>
        </extensions>
      </trkpt>
      <trkpt lat="47.56132931448519229888916015625" lon="11.02809808216989040374755859375">
        <ele>1145</ele>
        <time>2026-09-01T06:39:33.000Z</time>
        <extensions>
          <ns3:TrackPointExtension>
            <ns3:hr>172</ns3:hr>
            <ns3:cad>49</ns3:cad>
          </ns3:TrackPointExtension>
        </extensions>
      </trkpt>
      <trkpt lat="47.561324536800384521484375" lon="11.02810227312147617340087890625">
        <ele>1145.199951171875</ele>
        <time>2026-09-01T06:39:34.000Z</time>
        <extensions>
          <ns3:TrackPointExtension>
            <ns3:hr>174</ns3:hr>
            <ns3:cad>49</ns3:cad>
          </ns3:TrackPointExtension>
        </extensions>
      </trkpt>
      <trkpt lat="47.56131707690656185150146484375" lon="11.0281090624630451202392578125">
        <ele>1145.4000244140625</ele>
        <time>2026-09-01T06:39:35.000Z</time>
        <extensions>
          <ns3:TrackPointExtension>
            <ns3:hr>177</ns3:hr>
            <ns3:cad>49</ns3:cad>
          </ns3:TrackPointExtension>
        </extensions>
      </trkpt>
      <trkpt lat="47.56130802445113658905029296875" lon="11.02811627089977264404296875">
        <ele>1145.800048828125</ele>
        <time>2026-09-01T06:39:36.000Z</time>
        <extensions>
          <ns3:TrackPointExtension>
            <ns3:hr>178</ns3:hr>
            <ns3:cad>49</ns3:cad>
          </ns3:TrackPointExtension>
        </extensions>
      </trkpt>
      <trkpt lat="47.56129846908152103424072265625" lon="11.02812775410711765289306640625">
        <ele>1146.199951171875</ele>
        <time>2026-09-01T06:39:37.000Z</time>
        <extensions>
          <ns3:TrackPointExtension>
            <ns3:hr>178</ns3:hr>
            <ns3:cad>50</ns3:cad>
          </ns3:TrackPointExtension>
        </extensions>
      </trkpt>
      <trkpt lat="47.56128556095063686370849609375" lon="11.02814468555152416229248046875">
        <ele>1146.5999755859375</ele>
        <time>2026-09-01T06:39:38.000Z</time>
        <extensions>
          <ns3:TrackPointExtension>
            <ns3:hr>179</ns3:hr>
            <ns3:cad>50</ns3:cad>
          </ns3:TrackPointExtension>
        </extensions>
      </trkpt>
      <trkpt lat="47.56128354929387569427490234375" lon="11.0281482897698879241943359375">
        <ele>1147</ele>
        <time>2026-09-01T06:39:39.000Z</time>
        <extensions>
          <ns3:TrackPointExtension>
            <ns3:hr>179</ns3:hr>
            <ns3:cad>50</ns3:cad>
          </ns3:TrackPointExtension>
        </extensions>
      </trkpt>
      <trkpt lat="47.56127667613327503204345703125" lon="11.02816245518624782562255859375">
        <ele>1147.199951171875</ele>
        <time>2026-09-01T06:39:40.000Z</time>
        <extensions>
          <ns3:TrackPointExtension>
            <ns3:hr>178</ns3:hr>
            <ns3:cad>50</ns3:cad>
          </ns3:TrackPointExtension>
        </extensions>
      </trkpt>
      <trkpt lat="47.56126544438302516937255859375" lon="11.02817662060260772705078125">
        <ele>1147.4000244140625</ele>
        <time>2026-09-01T06:39:41.000Z</time>
        <extensions>
          <ns3:TrackPointExtension>
            <ns3:hr>178</ns3:hr>
            <ns3:cad>52</ns3:cad>
          </ns3:TrackPointExtension>
        </extensions>
      </trkpt>
      <trkpt lat="47.56125681102275848388671875" lon="11.0281851701438426971435546875">
        <ele>1147.5999755859375</ele>
        <time>2026-09-01T06:39:42.000Z</time>
        <extensions>
          <ns3:TrackPointExtension>
            <ns3:hr>178</ns3:hr>
            <ns3:cad>52</ns3:cad>
          </ns3:TrackPointExtension>
        </extensions>
      </trkpt>
      <trkpt lat="47.5612480938434600830078125" lon="11.02820084430277347564697265625">
        <ele>1147.5999755859375</ele>
        <time>2026-09-01T06:39:43.000Z</time>
        <extensions>
          <ns3:TrackPointExtension>
            <ns3:hr>177</ns3:hr>
            <ns3:cad>52</ns3:cad>
          </ns3:TrackPointExtension>
        </extensions>
      </trkpt>
      <trkpt lat="47.56124046631157398223876953125" lon="11.02821123786270618438720703125">
        <ele>1147.800048828125</ele>
        <time>2026-09-01T06:39:44.000Z</time>
        <extensions>
          <ns3:TrackPointExtension>
            <ns3:hr>177</ns3:hr>
            <ns3:cad>52</ns3:cad>
          </ns3:TrackPointExtension>
        </extensions>
      </trkpt>
      <trkpt lat="47.5612291507422924041748046875" lon="11.02822599001228809356689453125">
        <ele>1147.800048828125</ele>
        <time>2026-09-01T06:39:45.000Z</time>
        <extensions>
          <ns3:TrackPointExtension>
            <ns3:hr>177</ns3:hr>
            <ns3:cad>52</ns3:cad>
          </ns3:TrackPointExtension>
        </extensions>
      </trkpt>
      <trkpt lat="47.56122588180005550384521484375" lon="11.02823487482964992523193359375">
        <ele>1147.800048828125</ele>
        <time>2026-09-01T06:39:46.000Z</time>
        <extensions>
          <ns3:TrackPointExtension>
            <ns3:hr>177</ns3:hr>
            <ns3:cad>52</ns3:cad>
          </ns3:TrackPointExtension>
        </extensions>
      </trkpt>
      <trkpt lat="47.5612132251262664794921875" lon="11.0282542370259761810302734375">
        <ele>1147.800048828125</ele>
        <time>2026-09-01T06:39:47.000Z</time>
        <extensions>
          <ns3:TrackPointExtension>
            <ns3:hr>177</ns3:hr>
            <ns3:cad>52</ns3:cad>
          </ns3:TrackPointExtension>
        </extensions>
      </trkpt>
      <trkpt lat="47.56120760925114154815673828125" lon="11.02826647460460662841796875">
        <ele>1147.800048828125</ele>
        <time>2026-09-01T06:39:48.000Z</time>
        <extensions>
          <ns3:TrackPointExtension>
            <ns3:hr>176</ns3:hr>
            <ns3:cad>50</ns3:cad>
          </ns3:TrackPointExtension>
        </extensions>
      </trkpt>
      <trkpt lat="47.56119637750089168548583984375" lon="11.02828181348741054534912109375">
        <ele>1148</ele>
        <time>2026-09-01T06:39:49.000Z</time>
        <extensions>
          <ns3:TrackPointExtension>
            <ns3:hr>174</ns3:hr>
            <ns3:cad>49</ns3:cad>
          </ns3:TrackPointExtension>
        </extensions>
      </trkpt>
      <trkpt lat="47.56118950434029102325439453125" lon="11.0282941348850727081298828125">
        <ele>1148.4000244140625</ele>
        <time>2026-09-01T06:39:50.000Z</time>
        <extensions>
          <ns3:TrackPointExtension>
            <ns3:hr>174</ns3:hr>
            <ns3:cad>49</ns3:cad>
          </ns3:TrackPointExtension>
        </extensions>
      </trkpt>
      <trkpt lat="47.56118129007518291473388671875" lon="11.0283139161765575408935546875">
        <ele>1148.800048828125</ele>
        <time>2026-09-01T06:39:51.000Z</time>
        <extensions>
          <ns3:TrackPointExtension>
            <ns3:hr>173</ns3:hr>
            <ns3:cad>49</ns3:cad>
          </ns3:TrackPointExtension>
        </extensions>
      </trkpt>
      <trkpt lat="47.56117575801908969879150390625" lon="11.02832623757421970367431640625">
        <ele>1149.4000244140625</ele>
        <time>2026-09-01T06:39:52.000Z</time>
        <extensions>
          <ns3:TrackPointExtension>
            <ns3:hr>173</ns3:hr>
            <ns3:cad>49</ns3:cad>
          </ns3:TrackPointExtension>
        </extensions>
      </trkpt>
      <trkpt lat="47.56116972304880619049072265625" lon="11.02834157645702362060546875">
        <ele>1149.800048828125</ele>
        <time>2026-09-01T06:39:53.000Z</time>
        <extensions>
          <ns3:TrackPointExtension>
            <ns3:hr>172</ns3:hr>
            <ns3:cad>49</ns3:cad>
          </ns3:TrackPointExtension>
        </extensions>
      </trkpt>
      <trkpt lat="47.56116427481174468994140625" lon="11.02835205383598804473876953125">
        <ele>1150.199951171875</ele>
        <time>2026-09-01T06:39:54.000Z</time>
        <extensions>
          <ns3:TrackPointExtension>
            <ns3:hr>171</ns3:hr>
            <ns3:cad>45</ns3:cad>
          </ns3:TrackPointExtension>
        </extensions>
      </trkpt>
      <trkpt lat="47.56115966476500034332275390625" lon="11.02836647070944309234619140625">
        <ele>1150.5999755859375</ele>
        <time>2026-09-01T06:39:55.000Z</time>
        <extensions>
          <ns3:TrackPointExtension>
            <ns3:hr>170</ns3:hr>
            <ns3:cad>45</ns3:cad>
          </ns3:TrackPointExtension>
        </extensions>
      </trkpt>
      <trkpt lat="47.56115564145147800445556640625" lon="11.028380803763866424560546875">
        <ele>1151</ele>
        <time>2026-09-01T06:39:56.000Z</time>
        <extensions>
          <ns3:TrackPointExtension>
            <ns3:hr>170</ns3:hr>
            <ns3:cad>0</ns3:cad>
          </ns3:TrackPointExtension>
        </extensions>
      </trkpt>
      <trkpt lat="47.561151869595050811767578125" lon="11.0283900238573551177978515625">
        <ele>1151.4000244140625</ele>
        <time>2026-09-01T06:39:57.000Z</time>
        <extensions>
          <ns3:TrackPointExtension>
            <ns3:hr>169</ns3:hr>
            <ns3:cad>0</ns3:cad>
          </ns3:TrackPointExtension>
        </extensions>
      </trkpt>
      <trkpt lat="47.5611436553299427032470703125" lon="11.02840988896787166595458984375">
        <ele>1151.800048828125</ele>
        <time>2026-09-01T06:39:58.000Z</time>
        <extensions>
          <ns3:TrackPointExtension>
            <ns3:hr>169</ns3:hr>
            <ns3:cad>0</ns3:cad>
          </ns3:TrackPointExtension>
        </extensions>
      </trkpt>
      <trkpt lat="47.56113938055932521820068359375" lon="11.02841776795685291290283203125">
        <ele>1152.199951171875</ele>
        <time>2026-09-01T06:39:59.000Z</time>
        <extensions>
          <ns3:TrackPointExtension>
            <ns3:hr>169</ns3:hr>
            <ns3:cad>0</ns3:cad>
          </ns3:TrackPointExtension>
        </extensions>
      </trkpt>
      <trkpt lat="47.561134435236454010009765625" lon="11.02843553759157657623291015625">
        <ele>1152.5999755859375</ele>
        <time>2026-09-01T06:40:00.000Z</time>
        <extensions>
          <ns3:TrackPointExtension>
            <ns3:hr>169</ns3:hr>
            <ns3:cad>0</ns3:cad>
          </ns3:TrackPointExtension>
        </extensions>
      </trkpt>
      <trkpt lat="47.5611273944377899169921875" lon="11.02845582179725170135498046875">
        <ele>1153</ele>
        <time>2026-09-01T06:40:01.000Z</time>
        <extensions>
          <ns3:TrackPointExtension>
            <ns3:hr>169</ns3:hr>
            <ns3:cad>0</ns3:cad>
          </ns3:TrackPointExtension>
        </extensions>
      </trkpt>
      <trkpt lat="47.56111255846917629241943359375" lon="11.02848373353481292724609375">
        <ele>1153.199951171875</ele>
        <time>2026-09-01T06:40:02.000Z</time>
        <extensions>
          <ns3:TrackPointExtension>
            <ns3:hr>170</ns3:hr>
            <ns3:cad>0</ns3:cad>
          </ns3:TrackPointExtension>
        </extensions>
      </trkpt>
      <trkpt lat="47.56110635586082935333251953125" lon="11.02849722839891910552978515625">
        <ele>1153.5999755859375</ele>
        <time>2026-09-01T06:40:03.000Z</time>
        <extensions>
          <ns3:TrackPointExtension>
            <ns3:hr>169</ns3:hr>
            <ns3:cad>0</ns3:cad>
          </ns3:TrackPointExtension>
        </extensions>
      </trkpt>
      <trkpt lat="47.56110501475632190704345703125" lon="11.02850946597754955291748046875">
        <ele>1154</ele>
        <time>2026-09-01T06:40:04.000Z</time>
        <extensions>
          <ns3:TrackPointExtension>
            <ns3:hr>169</ns3:hr>
            <ns3:cad>0</ns3:cad>
          </ns3:TrackPointExtension>
        </extensions>
      </trkpt>
      <trkpt lat="47.561095543205738067626953125" lon="11.02853075601160526275634765625">
        <ele>1154.4000244140625</ele>
        <time>2026-09-01T06:40:05.000Z</time>
        <extensions>
          <ns3:TrackPointExtension>
            <ns3:hr>170</ns3:hr>
            <ns3:cad>0</ns3:cad>
          </ns3:TrackPointExtension>
        </extensions>
      </trkpt>
      <trkpt lat="47.56109009496867656707763671875" lon="11.02854567579925060272216796875">
        <ele>1154.5999755859375</ele>
        <time>2026-09-01T06:40:06.000Z</time>
        <extensions>
          <ns3:TrackPointExtension>
            <ns3:hr>169</ns3:hr>
            <ns3:cad>0</ns3:cad>
          </ns3:TrackPointExtension>
        </extensions>
      </trkpt>
      <trkpt lat="47.56108607165515422821044921875" lon="11.028554141521453857421875">
        <ele>1155</ele>
        <time>2026-09-01T06:40:07.000Z</time>
        <extensions>
          <ns3:TrackPointExtension>
            <ns3:hr>169</ns3:hr>
            <ns3:cad>0</ns3:cad>
          </ns3:TrackPointExtension>
        </extensions>
      </trkpt>
      <trkpt lat="47.561077773571014404296875" lon="11.02857065387070178985595703125">
        <ele>1155.199951171875</ele>
        <time>2026-09-01T06:40:08.000Z</time>
        <extensions>
          <ns3:TrackPointExtension>
            <ns3:hr>168</ns3:hr>
            <ns3:cad>0</ns3:cad>
          </ns3:TrackPointExtension>
        </extensions>
      </trkpt>
      <trkpt lat="47.56107634864747524261474609375" lon="11.0285881720483303070068359375">
        <ele>1155.5999755859375</ele>
        <time>2026-09-01T06:40:09.000Z</time>
        <extensions>
          <ns3:TrackPointExtension>
            <ns3:hr>168</ns3:hr>
            <ns3:cad>0</ns3:cad>
          </ns3:TrackPointExtension>
        </extensions>
      </trkpt>
      <trkpt lat="47.56106813438236713409423828125" lon="11.02860619314014911651611328125">
        <ele>1156</ele>
        <time>2026-09-01T06:40:10.000Z</time>
        <extensions>
          <ns3:TrackPointExtension>
            <ns3:hr>168</ns3:hr>
            <ns3:cad>0</ns3:cad>
          </ns3:TrackPointExtension>
        </extensions>
      </trkpt>
      <trkpt lat="47.56106293760240077972412109375" lon="11.0286136530339717864990234375">
        <ele>1156.199951171875</ele>
        <time>2026-09-01T06:40:11.000Z</time>
        <extensions>
          <ns3:TrackPointExtension>
            <ns3:hr>168</ns3:hr>
            <ns3:cad>0</ns3:cad>
          </ns3:TrackPointExtension>
        </extensions>
      </trkpt>
      <trkpt lat="47.5610578246414661407470703125" lon="11.02862052619457244873046875">
        <ele>1156.800048828125</ele>
        <time>2026-09-01T06:40:12.000Z</time>
        <extensions>
          <ns3:TrackPointExtension>
            <ns3:hr>169</ns3:hr>
            <ns3:cad>0</ns3:cad>
          </ns3:TrackPointExtension>
        </extensions>
      </trkpt>
      <trkpt lat="47.5610561482608318328857421875" lon="11.0286270640790462493896484375">
        <ele>1157</ele>
        <time>2026-09-01T06:40:13.000Z</time>
        <extensions>
          <ns3:TrackPointExtension>
            <ns3:hr>168</ns3:hr>
            <ns3:cad>0</ns3:cad>
          </ns3:TrackPointExtension>
        </extensions>
      </trkpt>
      <trkpt lat="47.56104835309088230133056640625" lon="11.0286374576389789581298828125">
        <ele>1157.199951171875</ele>
        <time>2026-09-01T06:40:14.000Z</time>
        <extensions>
          <ns3:TrackPointExtension>
            <ns3:hr>168</ns3:hr>
            <ns3:cad>0</ns3:cad>
          </ns3:TrackPointExtension>
        </extensions>
      </trkpt>
      <trkpt lat="47.5610457547008991241455078125" lon="11.028647683560848236083984375">
        <ele>1157.4000244140625</ele>
        <time>2026-09-01T06:40:15.000Z</time>
        <extensions>
          <ns3:TrackPointExtension>
            <ns3:hr>168</ns3:hr>
            <ns3:cad>0</ns3:cad>
          </ns3:TrackPointExtension>
        </extensions>
      </trkpt>
      <trkpt lat="47.56104131229221820831298828125" lon="11.02865564636886119842529296875">
        <ele>1157.5999755859375</ele>
        <time>2026-09-01T06:40:16.000Z</time>
        <extensions>
          <ns3:TrackPointExtension>
            <ns3:hr>167</ns3:hr>
            <ns3:cad>0</ns3:cad>
          </ns3:TrackPointExtension>
        </extensions>
      </trkpt>
      <trkpt lat="47.5610296614468097686767578125" lon="11.02866075932979583740234375">
        <ele>1157.800048828125</ele>
        <time>2026-09-01T06:40:17.000Z</time>
        <extensions>
          <ns3:TrackPointExtension>
            <ns3:hr>167</ns3:hr>
            <ns3:cad>52</ns3:cad>
          </ns3:TrackPointExtension>
        </extensions>
      </trkpt>
      <trkpt lat="47.5610249675810337066650390625" lon="11.02866805158555507659912109375">
        <ele>1158</ele>
        <time>2026-09-01T06:40:18.000Z</time>
        <extensions>
          <ns3:TrackPointExtension>
            <ns3:hr>167</ns3:hr>
            <ns3:cad>52</ns3:cad>
          </ns3:TrackPointExtension>
        </extensions>
      </trkpt>
      <trkpt lat="47.56101968698203563690185546875" lon="11.028678528964519500732421875">
        <ele>1158.4000244140625</ele>
        <time>2026-09-01T06:40:19.000Z</time>
        <extensions>
          <ns3:TrackPointExtension>
            <ns3:hr>167</ns3:hr>
            <ns3:cad>0</ns3:cad>
          </ns3:TrackPointExtension>
        </extensions>
      </trkpt>
      <trkpt lat="47.561014406383037567138671875" lon="11.02868900634348392486572265625">
        <ele>1158.800048828125</ele>
        <time>2026-09-01T06:40:20.000Z</time>
        <extensions>
          <ns3:TrackPointExtension>
            <ns3:hr>167</ns3:hr>
            <ns3:cad>0</ns3:cad>
          </ns3:TrackPointExtension>
        </extensions>
      </trkpt>
      <trkpt lat="47.56100527010858058929443359375" lon="11.02869470603764057159423828125">
        <ele>1159.199951171875</ele>
        <time>2026-09-01T06:40:21.000Z</time>
        <extensions>
          <ns3:TrackPointExtension>
            <ns3:hr>167</ns3:hr>
            <ns3:cad>0</ns3:cad>
          </ns3:TrackPointExtension>
        </extensions>
      </trkpt>
      <trkpt lat="47.56099990569055080413818359375" lon="11.0287055186927318572998046875">
        <ele>1159.800048828125</ele>
        <time>2026-09-01T06:40:22.000Z</time>
        <extensions>
          <ns3:TrackPointExtension>
            <ns3:hr>167</ns3:hr>
            <ns3:cad>45</ns3:cad>
          </ns3:TrackPointExtension>
        </extensions>
      </trkpt>
      <trkpt lat="47.56099269725382328033447265625" lon="11.02871666662395000457763671875">
        <ele>1160.199951171875</ele>
        <time>2026-09-01T06:40:23.000Z</time>
        <extensions>
          <ns3:TrackPointExtension>
            <ns3:hr>167</ns3:hr>
            <ns3:cad>45</ns3:cad>
          </ns3:TrackPointExtension>
        </extensions>
      </trkpt>
      <trkpt lat="47.56098347716033458709716796875" lon="11.0287249647080898284912109375">
        <ele>1160.5999755859375</ele>
        <time>2026-09-01T06:40:24.000Z</time>
        <extensions>
          <ns3:TrackPointExtension>
            <ns3:hr>168</ns3:hr>
            <ns3:cad>45</ns3:cad>
          </ns3:TrackPointExtension>
        </extensions>
      </trkpt>
      <trkpt lat="47.560975849628448486328125" lon="11.02873158641159534454345703125">
        <ele>1161</ele>
        <time>2026-09-01T06:40:25.000Z</time>
        <extensions>
          <ns3:TrackPointExtension>
            <ns3:hr>169</ns3:hr>
            <ns3:cad>45</ns3:cad>
          </ns3:TrackPointExtension>
        </extensions>
      </trkpt>
      <trkpt lat="47.5609706528484821319580078125" lon="11.02874130941927433013916015625">
        <ele>1161.4000244140625</ele>
        <time>2026-09-01T06:40:26.000Z</time>
        <extensions>
          <ns3:TrackPointExtension>
            <ns3:hr>169</ns3:hr>
            <ns3:cad>45</ns3:cad>
          </ns3:TrackPointExtension>
        </extensions>
      </trkpt>
      <trkpt lat="47.56096755154430866241455078125" lon="11.02874533273279666900634765625">
        <ele>1161.5999755859375</ele>
        <time>2026-09-01T06:40:27.000Z</time>
        <extensions>
          <ns3:TrackPointExtension>
            <ns3:hr>169</ns3:hr>
            <ns3:cad>45</ns3:cad>
          </ns3:TrackPointExtension>
        </extensions>
      </trkpt>
      <trkpt lat="47.5609609298408031463623046875" lon="11.02875254116952419281005859375">
        <ele>1162</ele>
        <time>2026-09-01T06:40:28.000Z</time>
        <extensions>
          <ns3:TrackPointExtension>
            <ns3:hr>170</ns3:hr>
            <ns3:cad>45</ns3:cad>
          </ns3:TrackPointExtension>
        </extensions>
      </trkpt>
      <trkpt lat="47.5609552301466464996337890625" lon="11.0287672095000743865966796875">
        <ele>1162.4000244140625</ele>
        <time>2026-09-01T06:40:29.000Z</time>
        <extensions>
          <ns3:TrackPointExtension>
            <ns3:hr>170</ns3:hr>
            <ns3:cad>45</ns3:cad>
          </ns3:TrackPointExtension>
        </extensions>
      </trkpt>
      <trkpt lat="47.56095103919506072998046875" lon="11.0287816263735294342041015625">
        <ele>1162.800048828125</ele>
        <time>2026-09-01T06:40:30.000Z</time>
        <extensions>
          <ns3:TrackPointExtension>
            <ns3:hr>170</ns3:hr>
            <ns3:cad>45</ns3:cad>
          </ns3:TrackPointExtension>
        </extensions>
      </trkpt>
      <trkpt lat="47.560951709747314453125" lon="11.028794534504413604736328125">
        <ele>1163.4000244140625</ele>
        <time>2026-09-01T06:40:31.000Z</time>
        <extensions>
          <ns3:TrackPointExtension>
            <ns3:hr>170</ns3:hr>
            <ns3:cad>45</ns3:cad>
          </ns3:TrackPointExtension>
        </extensions>
      </trkpt>
      <trkpt lat="47.560951709747314453125" lon="11.02880157530307769775390625">
        <ele>1163.5999755859375</ele>
        <time>2026-09-01T06:40:32.000Z</time>
        <extensions>
          <ns3:TrackPointExtension>
            <ns3:hr>170</ns3:hr>
            <ns3:cad>45</ns3:cad>
          </ns3:TrackPointExtension>
        </extensions>
      </trkpt>
      <trkpt lat="47.5609461776912212371826171875" lon="11.02880752645432949066162109375">
        <ele>1164</ele>
        <time>2026-09-01T06:40:33.000Z</time>
        <extensions>
          <ns3:TrackPointExtension>
            <ns3:hr>170</ns3:hr>
            <ns3:cad>45</ns3:cad>
          </ns3:TrackPointExtension>
        </extensions>
      </trkpt>
      <trkpt lat="47.56094140000641345977783203125" lon="11.0288185067474842071533203125">
        <ele>1164.4000244140625</ele>
        <time>2026-09-01T06:40:34.000Z</time>
        <extensions>
          <ns3:TrackPointExtension>
            <ns3:hr>170</ns3:hr>
            <ns3:cad>45</ns3:cad>
          </ns3:TrackPointExtension>
        </extensions>
      </trkpt>
      <trkpt lat="47.5609334371984004974365234375" lon="11.028836779296398162841796875">
        <ele>1164.800048828125</ele>
        <time>2026-09-01T06:40:35.000Z</time>
        <extensions>
          <ns3:TrackPointExtension>
            <ns3:hr>170</ns3:hr>
            <ns3:cad>45</ns3:cad>
          </ns3:TrackPointExtension>
        </extensions>
      </trkpt>
      <trkpt lat="47.560923211276531219482421875" lon="11.02885312400758266448974609375">
        <ele>1164.800048828125</ele>
        <time>2026-09-01T06:40:36.000Z</time>
        <extensions>
          <ns3:TrackPointExtension>
            <ns3:hr>169</ns3:hr>
            <ns3:cad>45</ns3:cad>
          </ns3:TrackPointExtension>
        </extensions>
      </trkpt>
      <trkpt lat="47.56091751158237457275390625" lon="11.028870977461338043212890625">
        <ele>1165.199951171875</ele>
        <time>2026-09-01T06:40:37.000Z</time>
        <extensions>
          <ns3:TrackPointExtension>
            <ns3:hr>170</ns3:hr>
            <ns3:cad>45</ns3:cad>
          </ns3:TrackPointExtension>
        </extensions>
      </trkpt>
      <trkpt lat="47.56091424264013767242431640625" lon="11.02888405323028564453125">
        <ele>1165.5999755859375</ele>
        <time>2026-09-01T06:40:38.000Z</time>
        <extensions>
          <ns3:TrackPointExtension>
            <ns3:hr>169</ns3:hr>
            <ns3:cad>45</ns3:cad>
          </ns3:TrackPointExtension>
        </extensions>
      </trkpt>
      <trkpt lat="47.560915835201740264892578125" lon="11.02888363413512706756591796875">
        <ele>1165.800048828125</ele>
        <time>2026-09-01T06:40:39.000Z</time>
        <extensions>
          <ns3:TrackPointExtension>
            <ns3:hr>169</ns3:hr>
            <ns3:cad>45</ns3:cad>
          </ns3:TrackPointExtension>
        </extensions>
      </trkpt>
      <trkpt lat="47.560912482440471649169921875" lon="11.0288865678012371063232421875">
        <ele>1166</ele>
        <time>2026-09-01T06:40:40.000Z</time>
        <extensions>
          <ns3:TrackPointExtension>
            <ns3:hr>170</ns3:hr>
            <ns3:cad>45</ns3:cad>
          </ns3:TrackPointExtension>
        </extensions>
      </trkpt>
      <trkpt lat="47.56090669892728328704833984375" lon="11.02888866327702999114990234375">
        <ele>1166.4000244140625</ele>
        <time>2026-09-01T06:40:41.000Z</time>
        <extensions>
          <ns3:TrackPointExtension>
            <ns3:hr>170</ns3:hr>
            <ns3:cad>45</ns3:cad>
          </ns3:TrackPointExtension>
        </extensions>
      </trkpt>
      <trkpt lat="47.56091407500207424163818359375" lon="11.02889453060925006866455078125">
        <ele>1166.4000244140625</ele>
        <time>2026-09-01T06:40:42.000Z</time>
        <extensions>
          <ns3:TrackPointExtension>
            <ns3:hr>171</ns3:hr>
            <ns3:cad>45</ns3:cad>
          </ns3:TrackPointExtension>
        </extensions>
      </trkpt>
      <trkpt lat="47.56090569309890270233154296875" lon="11.02889687754213809967041015625">
        <ele>1166.800048828125</ele>
        <time>2026-09-01T06:40:43.000Z</time>
        <extensions>
          <ns3:TrackPointExtension>
            <ns3:hr>170</ns3:hr>
            <ns3:cad>45</ns3:cad>
          </ns3:TrackPointExtension>
        </extensions>
      </trkpt>
      <trkpt lat="47.56089865230023860931396484375" lon="11.02890207432210445404052734375">
        <ele>1167</ele>
        <time>2026-09-01T06:40:44.000Z</time>
        <extensions>
          <ns3:TrackPointExtension>
            <ns3:hr>171</ns3:hr>
            <ns3:cad>0</ns3:cad>
          </ns3:TrackPointExtension>
        </extensions>
      </trkpt>
      <trkpt lat="47.56089027039706707000732421875" lon="11.0289050079882144927978515625">
        <ele>1167.4000244140625</ele>
        <time>2026-09-01T06:40:45.000Z</time>
        <extensions>
          <ns3:TrackPointExtension>
            <ns3:hr>176</ns3:hr>
            <ns3:cad>0</ns3:cad>
          </ns3:TrackPointExtension>
        </extensions>
      </trkpt>
      <trkpt lat="47.56088532507419586181640625" lon="11.02890911512076854705810546875">
        <ele>1168</ele>
        <time>2026-09-01T06:40:46.000Z</time>
        <extensions>
          <ns3:TrackPointExtension>
            <ns3:hr>178</ns3:hr>
            <ns3:cad>0</ns3:cad>
          </ns3:TrackPointExtension>
        </extensions>
      </trkpt>
      <trkpt lat="47.56088473834097385406494140625" lon="11.0289175808429718017578125">
        <ele>1168.5999755859375</ele>
        <time>2026-09-01T06:40:47.000Z</time>
        <extensions>
          <ns3:TrackPointExtension>
            <ns3:hr>178</ns3:hr>
            <ns3:cad>0</ns3:cad>
          </ns3:TrackPointExtension>
        </extensions>
      </trkpt>
      <trkpt lat="47.56087216548621654510498046875" lon="11.02892671711742877960205078125">
        <ele>1169</ele>
        <time>2026-09-01T06:40:48.000Z</time>
        <extensions>
          <ns3:TrackPointExtension>
            <ns3:hr>178</ns3:hr>
            <ns3:cad>0</ns3:cad>
          </ns3:TrackPointExtension>
        </extensions>
      </trkpt>
      <trkpt lat="47.5608714111149311065673828125" lon="11.02893090806901454925537109375">
        <ele>1169.4000244140625</ele>
        <time>2026-09-01T06:40:49.000Z</time>
        <extensions>
          <ns3:TrackPointExtension>
            <ns3:hr>178</ns3:hr>
            <ns3:cad>0</ns3:cad>
          </ns3:TrackPointExtension>
        </extensions>
      </trkpt>
      <trkpt lat="47.560869567096233367919921875" lon="11.02892755530774593353271484375">
        <ele>1169.800048828125</ele>
        <time>2026-09-01T06:40:50.000Z</time>
        <extensions>
          <ns3:TrackPointExtension>
            <ns3:hr>178</ns3:hr>
            <ns3:cad>0</ns3:cad>
          </ns3:TrackPointExtension>
        </extensions>
      </trkpt>
      <trkpt lat="47.5608645379543304443359375" lon="11.028929315507411956787109375">
        <ele>1170</ele>
        <time>2026-09-01T06:40:51.000Z</time>
        <extensions>
          <ns3:TrackPointExtension>
            <ns3:hr>178</ns3:hr>
            <ns3:cad>0</ns3:cad>
          </ns3:TrackPointExtension>
        </extensions>
      </trkpt>
      <trkpt lat="47.56085892207920551300048828125" lon="11.02891079150140285491943359375">
        <ele>1170.199951171875</ele>
        <time>2026-09-01T06:40:52.000Z</time>
        <extensions>
          <ns3:TrackPointExtension>
            <ns3:hr>177</ns3:hr>
            <ns3:cad>0</ns3:cad>
          </ns3:TrackPointExtension>
        </extensions>
      </trkpt>
      <trkpt lat="47.5608529709279537200927734375" lon="11.0289073549211025238037109375">
        <ele>1170.5999755859375</ele>
        <time>2026-09-01T06:40:53.000Z</time>
        <extensions>
          <ns3:TrackPointExtension>
            <ns3:hr>178</ns3:hr>
            <ns3:cad>0</ns3:cad>
          </ns3:TrackPointExtension>
        </extensions>
      </trkpt>
      <trkpt lat="47.56085372529923915863037109375" lon="11.02890777401626110076904296875">
        <ele>1170.800048828125</ele>
        <time>2026-09-01T06:40:54.000Z</time>
        <extensions>
          <ns3:TrackPointExtension>
            <ns3:hr>178</ns3:hr>
            <ns3:cad>0</ns3:cad>
          </ns3:TrackPointExtension>
        </extensions>
      </trkpt>
      <trkpt lat="47.56085171364247798919677734375" lon="11.0288989730179309844970703125">
        <ele>1171.199951171875</ele>
        <time>2026-09-01T06:40:55.000Z</time>
        <extensions>
          <ns3:TrackPointExtension>
            <ns3:hr>179</ns3:hr>
            <ns3:cad>0</ns3:cad>
          </ns3:TrackPointExtension>
        </extensions>
      </trkpt>
      <trkpt lat="47.5608496181666851043701171875" lon="11.02889235131442546844482421875">
        <ele>1171.5999755859375</ele>
        <time>2026-09-01T06:40:56.000Z</time>
        <extensions>
          <ns3:TrackPointExtension>
            <ns3:hr>180</ns3:hr>
            <ns3:cad>0</ns3:cad>
          </ns3:TrackPointExtension>
        </extensions>
      </trkpt>
      <trkpt lat="47.5608523003756999969482421875" lon="11.02888212539255619049072265625">
        <ele>1172</ele>
        <time>2026-09-01T06:40:57.000Z</time>
        <extensions>
          <ns3:TrackPointExtension>
            <ns3:hr>180</ns3:hr>
            <ns3:cad>0</ns3:cad>
          </ns3:TrackPointExtension>
        </extensions>
      </trkpt>
      <trkpt lat="47.56085188128054141998291015625" lon="11.02887625806033611297607421875">
        <ele>1172.4000244140625</ele>
        <time>2026-09-01T06:40:58.000Z</time>
        <extensions>
          <ns3:TrackPointExtension>
            <ns3:hr>180</ns3:hr>
            <ns3:cad>0</ns3:cad>
          </ns3:TrackPointExtension>
        </extensions>
      </trkpt>
      <trkpt lat="47.56086009554564952850341796875" lon="11.02886653505265712738037109375">
        <ele>1172.5999755859375</ele>
        <time>2026-09-01T06:40:59.000Z</time>
        <extensions>
          <ns3:TrackPointExtension>
            <ns3:hr>179</ns3:hr>
            <ns3:cad>0</ns3:cad>
          </ns3:TrackPointExtension>
        </extensions>
      </trkpt>
      <trkpt lat="47.5608618557453155517578125" lon="11.02886150591075420379638671875">
        <ele>1172.800048828125</ele>
        <time>2026-09-01T06:41:00.000Z</time>
        <extensions>
          <ns3:TrackPointExtension>
            <ns3:hr>178</ns3:hr>
            <ns3:cad>0</ns3:cad>
          </ns3:TrackPointExtension>
        </extensions>
      </trkpt>
      <trkpt lat="47.56086495704948902130126953125" lon="11.0288607515394687652587890625">
        <ele>1173</ele>
        <time>2026-09-01T06:41:01.000Z</time>
        <extensions>
          <ns3:TrackPointExtension>
            <ns3:hr>178</ns3:hr>
            <ns3:cad>0</ns3:cad>
          </ns3:TrackPointExtension>
        </extensions>
      </trkpt>
      <trkpt lat="47.56086965091526508331298828125" lon="11.02884926833212375640869140625">
        <ele>1173.199951171875</ele>
        <time>2026-09-01T06:41:02.000Z</time>
        <extensions>
          <ns3:TrackPointExtension>
            <ns3:hr>178</ns3:hr>
            <ns3:cad>0</ns3:cad>
          </ns3:TrackPointExtension>
        </extensions>
      </trkpt>
      <trkpt lat="47.56086914800107479095458984375" lon="11.0288423113524913787841796875">
        <ele>1173.4000244140625</ele>
        <time>2026-09-01T06:41:03.000Z</time>
        <extensions>
          <ns3:TrackPointExtension>
            <ns3:hr>178</ns3:hr>
            <ns3:cad>0</ns3:cad>
          </ns3:TrackPointExtension>
        </extensions>
      </trkpt>
      <trkpt lat="47.56087132729589939117431640625" lon="11.02881892584264278411865234375">
        <ele>1173.5999755859375</ele>
        <time>2026-09-01T06:41:04.000Z</time>
        <extensions>
          <ns3:TrackPointExtension>
            <ns3:hr>178</ns3:hr>
            <ns3:cad>0</ns3:cad>
          </ns3:TrackPointExtension>
        </extensions>
      </trkpt>
      <trkpt lat="47.56086386740207672119140625" lon="11.0287980549037456512451171875">
        <ele>1174</ele>
        <time>2026-09-01T06:41:05.000Z</time>
        <extensions>
          <ns3:TrackPointExtension>
            <ns3:hr>178</ns3:hr>
            <ns3:cad>0</ns3:cad>
          </ns3:TrackPointExtension>
        </extensions>
      </trkpt>
      <trkpt lat="47.560858167707920074462890625" lon="11.0287819616496562957763671875">
        <ele>1174.4000244140625</ele>
        <time>2026-09-01T06:41:06.000Z</time>
        <extensions>
          <ns3:TrackPointExtension>
            <ns3:hr>177</ns3:hr>
            <ns3:cad>0</ns3:cad>
          </ns3:TrackPointExtension>
        </extensions>
      </trkpt>
      <trkpt lat="47.5608559884130954742431640625" lon="11.0287673771381378173828125">
        <ele>1174.800048828125</ele>
        <time>2026-09-01T06:41:07.000Z</time>
        <extensions>
          <ns3:TrackPointExtension>
            <ns3:hr>177</ns3:hr>
            <ns3:cad>0</ns3:cad>
          </ns3:TrackPointExtension>
        </extensions>
      </trkpt>
      <trkpt lat="47.56085313856601715087890625" lon="11.028760336339473724365234375">
        <ele>1175.199951171875</ele>
        <time>2026-09-01T06:41:08.000Z</time>
        <extensions>
          <ns3:TrackPointExtension>
            <ns3:hr>176</ns3:hr>
            <ns3:cad>0</ns3:cad>
          </ns3:TrackPointExtension>
        </extensions>
      </trkpt>
      <trkpt lat="47.5608419068157672882080078125" lon="11.0287437401711940765380859375">
        <ele>1175.5999755859375</ele>
        <time>2026-09-01T06:41:09.000Z</time>
        <extensions>
          <ns3:TrackPointExtension>
            <ns3:hr>176</ns3:hr>
            <ns3:cad>0</ns3:cad>
          </ns3:TrackPointExtension>
        </extensions>
      </trkpt>
      <trkpt lat="47.5608348660171031951904296875" lon="11.028731502592563629150390625">
        <ele>1176</ele>
        <time>2026-09-01T06:41:10.000Z</time>
        <extensions>
          <ns3:TrackPointExtension>
            <ns3:hr>176</ns3:hr>
            <ns3:cad>0</ns3:cad>
          </ns3:TrackPointExtension>
        </extensions>
      </trkpt>
      <trkpt lat="47.560832016170024871826171875" lon="11.028722785413265228271484375">
        <ele>1176.4000244140625</ele>
        <time>2026-09-01T06:41:11.000Z</time>
        <extensions>
          <ns3:TrackPointExtension>
            <ns3:hr>176</ns3:hr>
            <ns3:cad>0</ns3:cad>
          </ns3:TrackPointExtension>
        </extensions>
      </trkpt>
      <trkpt lat="47.56083008833229541778564453125" lon="11.0287244617938995361328125">
        <ele>1176.5999755859375</ele>
        <time>2026-09-01T06:41:12.000Z</time>
        <extensions>
          <ns3:TrackPointExtension>
            <ns3:hr>176</ns3:hr>
            <ns3:cad>0</ns3:cad>
          </ns3:TrackPointExtension>
        </extensions>
      </trkpt>
      <trkpt lat="47.56082254461944103240966796875" lon="11.02871130220592021942138671875">
        <ele>1177</ele>
        <time>2026-09-01T06:41:13.000Z</time>
        <extensions>
          <ns3:TrackPointExtension>
            <ns3:hr>177</ns3:hr>
            <ns3:cad>0</ns3:cad>
          </ns3:TrackPointExtension>
        </extensions>
      </trkpt>
      <trkpt lat="47.5608204491436481475830078125" lon="11.02871381677687168121337890625">
        <ele>1177.4000244140625</ele>
        <time>2026-09-01T06:41:14.000Z</time>
        <extensions>
          <ns3:TrackPointExtension>
            <ns3:hr>179</ns3:hr>
            <ns3:cad>0</ns3:cad>
          </ns3:TrackPointExtension>
        </extensions>
      </trkpt>
      <trkpt lat="47.560806535184383392333984375" lon="11.0286964662373065948486328125">
        <ele>1177.5999755859375</ele>
        <time>2026-09-01T06:41:15.000Z</time>
        <extensions>
          <ns3:TrackPointExtension>
            <ns3:hr>180</ns3:hr>
            <ns3:cad>0</ns3:cad>
          </ns3:TrackPointExtension>
        </extensions>
      </trkpt>
      <trkpt lat="47.56080527789890766143798828125" lon="11.02868950925767421722412109375">
        <ele>1178</ele>
        <time>2026-09-01T06:41:16.000Z</time>
        <extensions>
          <ns3:TrackPointExtension>
            <ns3:hr>181</ns3:hr>
            <ns3:cad>0</ns3:cad>
          </ns3:TrackPointExtension>
        </extensions>
      </trkpt>
      <trkpt lat="47.56079605780541896820068359375" lon="11.0286766849458217620849609375">
        <ele>1178.199951171875</ele>
        <time>2026-09-01T06:41:17.000Z</time>
        <extensions>
          <ns3:TrackPointExtension>
            <ns3:hr>182</ns3:hr>
            <ns3:cad>0</ns3:cad>
          </ns3:TrackPointExtension>
        </extensions>
      </trkpt>
      <trkpt lat="47.560789100825786590576171875" lon="11.0286656208336353302001953125">
        <ele>1178.5999755859375</ele>
        <time>2026-09-01T06:41:18.000Z</time>
        <extensions>
          <ns3:TrackPointExtension>
            <ns3:hr>182</ns3:hr>
            <ns3:cad>0</ns3:cad>
          </ns3:TrackPointExtension>
        </extensions>
      </trkpt>
      <trkpt lat="47.560785077512264251708984375" lon="11.02865003049373626708984375">
        <ele>1179</ele>
        <time>2026-09-01T06:41:19.000Z</time>
        <extensions>
          <ns3:TrackPointExtension>
            <ns3:hr>183</ns3:hr>
            <ns3:cad>0</ns3:cad>
          </ns3:TrackPointExtension>
        </extensions>
      </trkpt>
      <trkpt lat="47.56077862344682216644287109375" lon="11.0286468453705310821533203125">
        <ele>1179.4000244140625</ele>
        <time>2026-09-01T06:41:20.000Z</time>
        <extensions>
          <ns3:TrackPointExtension>
            <ns3:hr>183</ns3:hr>
            <ns3:cad>0</ns3:cad>
          </ns3:TrackPointExtension>
        </extensions>
      </trkpt>
      <trkpt lat="47.56077560596168041229248046875" lon="11.02864055894315242767333984375">
        <ele>1179.5999755859375</ele>
        <time>2026-09-01T06:41:21.000Z</time>
        <extensions>
          <ns3:TrackPointExtension>
            <ns3:hr>183</ns3:hr>
            <ns3:cad>0</ns3:cad>
          </ns3:TrackPointExtension>
        </extensions>
      </trkpt>
      <trkpt lat="47.5607684813439846038818359375" lon="11.02862932719290256500244140625">
        <ele>1180</ele>
        <time>2026-09-01T06:41:22.000Z</time>
        <extensions>
          <ns3:TrackPointExtension>
            <ns3:hr>183</ns3:hr>
            <ns3:cad>0</ns3:cad>
          </ns3:TrackPointExtension>
        </extensions>
      </trkpt>
      <trkpt lat="47.5607587583363056182861328125" lon="11.02860175073146820068359375">
        <ele>1180.199951171875</ele>
        <time>2026-09-01T06:41:23.000Z</time>
        <extensions>
          <ns3:TrackPointExtension>
            <ns3:hr>183</ns3:hr>
            <ns3:cad>0</ns3:cad>
          </ns3:TrackPointExtension>
        </extensions>
      </trkpt>
      <trkpt lat="47.5607537291944026947021484375" lon="11.028577275574207305908203125">
        <ele>1180.199951171875</ele>
        <time>2026-09-01T06:41:24.000Z</time>
        <extensions>
          <ns3:TrackPointExtension>
            <ns3:hr>184</ns3:hr>
            <ns3:cad>0</ns3:cad>
          </ns3:TrackPointExtension>
        </extensions>
      </trkpt>
      <trkpt lat="47.5607530586421489715576171875" lon="11.028558500111103057861328125">
        <ele>1180.4000244140625</ele>
        <time>2026-09-01T06:41:25.000Z</time>
        <extensions>
          <ns3:TrackPointExtension>
            <ns3:hr>183</ns3:hr>
            <ns3:cad>0</ns3:cad>
          </ns3:TrackPointExtension>
        </extensions>
      </trkpt>
      <trkpt lat="47.56075297482311725616455078125" lon="11.02854316122829914093017578125">
        <ele>1180.4000244140625</ele>
        <time>2026-09-01T06:41:26.000Z</time>
        <extensions>
          <ns3:TrackPointExtension>
            <ns3:hr>183</ns3:hr>
            <ns3:cad>0</ns3:cad>
          </ns3:TrackPointExtension>
        </extensions>
      </trkpt>
      <trkpt lat="47.5607507117092609405517578125" lon="11.02852874435484409332275390625">
        <ele>1180.5999755859375</ele>
        <time>2026-09-01T06:41:27.000Z</time>
        <extensions>
          <ns3:TrackPointExtension>
            <ns3:hr>183</ns3:hr>
            <ns3:cad>0</ns3:cad>
          </ns3:TrackPointExtension>
        </extensions>
      </trkpt>
      <trkpt lat="47.56074911914765834808349609375" lon="11.02852120064198970794677734375">
        <ele>1181</ele>
        <time>2026-09-01T06:41:28.000Z</time>
        <extensions>
          <ns3:TrackPointExtension>
            <ns3:hr>183</ns3:hr>
            <ns3:cad>0</ns3:cad>
          </ns3:TrackPointExtension>
        </extensions>
      </trkpt>
      <trkpt lat="47.56074777804315090179443359375" lon="11.02850846014916896820068359375">
        <ele>1181</ele>
        <time>2026-09-01T06:41:29.000Z</time>
        <extensions>
          <ns3:TrackPointExtension>
            <ns3:hr>184</ns3:hr>
            <ns3:cad>0</ns3:cad>
          </ns3:TrackPointExtension>
        </extensions>
      </trkpt>
      <trkpt lat="47.56074274890124797821044921875" lon="11.028493456542491912841796875">
        <ele>1181</ele>
        <time>2026-09-01T06:41:30.000Z</time>
        <extensions>
          <ns3:TrackPointExtension>
            <ns3:hr>183</ns3:hr>
            <ns3:cad>0</ns3:cad>
          </ns3:TrackPointExtension>
        </extensions>
      </trkpt>
      <trkpt lat="47.560750208795070648193359375" lon="11.02848934940993785858154296875">
        <ele>1181</ele>
        <time>2026-09-01T06:41:31.000Z</time>
        <extensions>
          <ns3:TrackPointExtension>
            <ns3:hr>183</ns3:hr>
            <ns3:cad>0</ns3:cad>
          </ns3:TrackPointExtension>
        </extensions>
      </trkpt>
      <trkpt lat="47.56075213663280010223388671875" lon="11.0284765250980854034423828125">
        <ele>1180.800048828125</ele>
        <time>2026-09-01T06:41:32.000Z</time>
        <extensions>
          <ns3:TrackPointExtension>
            <ns3:hr>183</ns3:hr>
            <ns3:cad>0</ns3:cad>
          </ns3:TrackPointExtension>
        </extensions>
      </trkpt>
      <trkpt lat="47.56075833924114704132080078125" lon="11.028469987213611602783203125">
        <ele>1180.4000244140625</ele>
        <time>2026-09-01T06:41:33.000Z</time>
        <extensions>
          <ns3:TrackPointExtension>
            <ns3:hr>182</ns3:hr>
            <ns3:cad>0</ns3:cad>
          </ns3:TrackPointExtension>
        </extensions>
      </trkpt>
      <trkpt lat="47.56077091209590435028076171875" lon="11.02844928391277790069580078125">
        <ele>1180.199951171875</ele>
        <time>2026-09-01T06:41:34.000Z</time>
        <extensions>
          <ns3:TrackPointExtension>
            <ns3:hr>181</ns3:hr>
            <ns3:cad>0</ns3:cad>
          </ns3:TrackPointExtension>
        </extensions>
      </trkpt>
      <trkpt lat="47.56077426485717296600341796875" lon="11.0284356214106082916259765625">
        <ele>1179.800048828125</ele>
        <time>2026-09-01T06:41:35.000Z</time>
        <extensions>
          <ns3:TrackPointExtension>
            <ns3:hr>180</ns3:hr>
            <ns3:cad>0</ns3:cad>
          </ns3:TrackPointExtension>
        </extensions>
      </trkpt>
      <trkpt lat="47.560783065855503082275390625" lon="11.02841927669942378997802734375">
        <ele>1179.5999755859375</ele>
        <time>2026-09-01T06:41:36.000Z</time>
        <extensions>
          <ns3:TrackPointExtension>
            <ns3:hr>179</ns3:hr>
            <ns3:cad>0</ns3:cad>
          </ns3:TrackPointExtension>
        </extensions>
      </trkpt>
      <trkpt lat="47.56078541278839111328125" lon="11.02840251289308071136474609375">
        <ele>1179.199951171875</ele>
        <time>2026-09-01T06:41:37.000Z</time>
        <extensions>
          <ns3:TrackPointExtension>
            <ns3:hr>178</ns3:hr>
            <ns3:cad>0</ns3:cad>
          </ns3:TrackPointExtension>
        </extensions>
      </trkpt>
      <trkpt lat="47.56078180857002735137939453125" lon="11.02837644517421722412109375">
        <ele>1178.5999755859375</ele>
        <time>2026-09-01T06:41:38.000Z</time>
        <extensions>
          <ns3:TrackPointExtension>
            <ns3:hr>177</ns3:hr>
            <ns3:cad>0</ns3:cad>
          </ns3:TrackPointExtension>
        </extensions>
      </trkpt>
      <trkpt lat="47.56078298203647136688232421875" lon="11.0283477790653705596923828125">
        <ele>1178.4000244140625</ele>
        <time>2026-09-01T06:41:39.000Z</time>
        <extensions>
          <ns3:TrackPointExtension>
            <ns3:hr>176</ns3:hr>
            <ns3:cad>0</ns3:cad>
          </ns3:TrackPointExtension>
        </extensions>
      </trkpt>
      <trkpt lat="47.56078097037971019744873046875" lon="11.028316430747509002685546875">
        <ele>1178.199951171875</ele>
        <time>2026-09-01T06:41:40.000Z</time>
        <extensions>
          <ns3:TrackPointExtension>
            <ns3:hr>176</ns3:hr>
            <ns3:cad>0</ns3:cad>
          </ns3:TrackPointExtension>
        </extensions>
      </trkpt>
      <trkpt lat="47.5607733428478240966796875" lon="11.028292290866374969482421875">
        <ele>1178.4000244140625</ele>
        <time>2026-09-01T06:41:41.000Z</time>
        <extensions>
          <ns3:TrackPointExtension>
            <ns3:hr>175</ns3:hr>
            <ns3:cad>0</ns3:cad>
          </ns3:TrackPointExtension>
        </extensions>
      </trkpt>
      <trkpt lat="47.56077133119106292724609375" lon="11.028278209269046783447265625">
        <ele>1178.5999755859375</ele>
        <time>2026-09-01T06:41:42.000Z</time>
        <extensions>
          <ns3:TrackPointExtension>
            <ns3:hr>174</ns3:hr>
            <ns3:cad>73</ns3:cad>
          </ns3:TrackPointExtension>
        </extensions>
      </trkpt>
      <trkpt lat="47.56076906807720661163330078125" lon="11.02826152928173542022705078125">
        <ele>1179</ele>
        <time>2026-09-01T06:41:43.000Z</time>
        <extensions>
          <ns3:TrackPointExtension>
            <ns3:hr>174</ns3:hr>
            <ns3:cad>73</ns3:cad>
          </ns3:TrackPointExtension>
        </extensions>
      </trkpt>
      <trkpt lat="47.56076755933463573455810546875" lon="11.028246022760868072509765625">
        <ele>1179.4000244140625</ele>
        <time>2026-09-01T06:41:44.000Z</time>
        <extensions>
          <ns3:TrackPointExtension>
            <ns3:hr>174</ns3:hr>
            <ns3:cad>73</ns3:cad>
          </ns3:TrackPointExtension>
        </extensions>
      </trkpt>
      <trkpt lat="47.560764290392398834228515625" lon="11.02823252789676189422607421875">
        <ele>1179.800048828125</ele>
        <time>2026-09-01T06:41:45.000Z</time>
        <extensions>
          <ns3:TrackPointExtension>
            <ns3:hr>173</ns3:hr>
            <ns3:cad>47</ns3:cad>
          </ns3:TrackPointExtension>
        </extensions>
      </trkpt>
      <trkpt lat="47.56076219491660594940185546875" lon="11.02821886539459228515625">
        <ele>1180</ele>
        <time>2026-09-01T06:41:46.000Z</time>
        <extensions>
          <ns3:TrackPointExtension>
            <ns3:hr>173</ns3:hr>
            <ns3:cad>47</ns3:cad>
          </ns3:TrackPointExtension>
        </extensions>
      </trkpt>
      <trkpt lat="47.560759596526622772216796875" lon="11.0282027721405029296875">
        <ele>1180.4000244140625</ele>
        <time>2026-09-01T06:41:47.000Z</time>
        <extensions>
          <ns3:TrackPointExtension>
            <ns3:hr>172</ns3:hr>
            <ns3:cad>47</ns3:cad>
          </ns3:TrackPointExtension>
        </extensions>
      </trkpt>
      <trkpt lat="47.560758925974369049072265625" lon="11.02820905856788158416748046875">
        <ele>1180.800048828125</ele>
        <time>2026-09-01T06:41:48.000Z</time>
        <extensions>
          <ns3:TrackPointExtension>
            <ns3:hr>172</ns3:hr>
            <ns3:cad>47</ns3:cad>
          </ns3:TrackPointExtension>
        </extensions>
      </trkpt>
      <trkpt lat="47.560762278735637664794921875" lon="11.0282067954540252685546875">
        <ele>1181</ele>
        <time>2026-09-01T06:41:49.000Z</time>
        <extensions>
          <ns3:TrackPointExtension>
            <ns3:hr>172</ns3:hr>
            <ns3:cad>47</ns3:cad>
          </ns3:TrackPointExtension>
        </extensions>
      </trkpt>
      <trkpt lat="47.56076420657336711883544921875" lon="11.028201095759868621826171875">
        <ele>1181.4000244140625</ele>
        <time>2026-09-01T06:41:50.000Z</time>
        <extensions>
          <ns3:TrackPointExtension>
            <ns3:hr>171</ns3:hr>
            <ns3:cad>0</ns3:cad>
          </ns3:TrackPointExtension>
        </extensions>
      </trkpt>
      <trkpt lat="47.56076437421143054962158203125" lon="11.02818659506738185882568359375">
        <ele>1181.5999755859375</ele>
        <time>2026-09-01T06:41:51.000Z</time>
        <extensions>
          <ns3:TrackPointExtension>
            <ns3:hr>170</ns3:hr>
            <ns3:cad>0</ns3:cad>
          </ns3:TrackPointExtension>
        </extensions>
      </trkpt>
      <trkpt lat="47.5607631169259548187255859375" lon="11.02818726561963558197021484375">
        <ele>1181.800048828125</ele>
        <time>2026-09-01T06:41:52.000Z</time>
        <extensions>
          <ns3:TrackPointExtension>
            <ns3:hr>169</ns3:hr>
            <ns3:cad>0</ns3:cad>
          </ns3:TrackPointExtension>
        </extensions>
      </trkpt>
      <trkpt lat="47.56075817160308361053466796875" lon="11.02816949598491191864013671875">
        <ele>1182</ele>
        <time>2026-09-01T06:41:53.000Z</time>
        <extensions>
          <ns3:TrackPointExtension>
            <ns3:hr>169</ns3:hr>
            <ns3:cad>0</ns3:cad>
          </ns3:TrackPointExtension>
        </extensions>
      </trkpt>
      <trkpt lat="47.56075615994632244110107421875" lon="11.02815759368240833282470703125">
        <ele>1182.199951171875</ele>
        <time>2026-09-01T06:41:54.000Z</time>
        <extensions>
          <ns3:TrackPointExtension>
            <ns3:hr>168</ns3:hr>
            <ns3:cad>0</ns3:cad>
          </ns3:TrackPointExtension>
        </extensions>
      </trkpt>
      <trkpt lat="47.56075481884181499481201171875" lon="11.02814233861863613128662109375">
        <ele>1182.5999755859375</ele>
        <time>2026-09-01T06:41:55.000Z</time>
        <extensions>
          <ns3:TrackPointExtension>
            <ns3:hr>167</ns3:hr>
            <ns3:cad>0</ns3:cad>
          </ns3:TrackPointExtension>
        </extensions>
      </trkpt>
      <trkpt lat="47.56075180135667324066162109375" lon="11.02812834084033966064453125">
        <ele>1182.800048828125</ele>
        <time>2026-09-01T06:41:56.000Z</time>
        <extensions>
          <ns3:TrackPointExtension>
            <ns3:hr>166</ns3:hr>
            <ns3:cad>0</ns3:cad>
          </ns3:TrackPointExtension>
        </extensions>
      </trkpt>
      <trkpt lat="47.5607492029666900634765625" lon="11.02810881100594997406005859375">
        <ele>1183</ele>
        <time>2026-09-01T06:41:57.000Z</time>
        <extensions>
          <ns3:TrackPointExtension>
            <ns3:hr>165</ns3:hr>
            <ns3:cad>0</ns3:cad>
          </ns3:TrackPointExtension>
        </extensions>
      </trkpt>
      <trkpt lat="47.56074543111026287078857421875" lon="11.02809481322765350341796875">
        <ele>1183.199951171875</ele>
        <time>2026-09-01T06:41:58.000Z</time>
        <extensions>
          <ns3:TrackPointExtension>
            <ns3:hr>165</ns3:hr>
            <ns3:cad>0</ns3:cad>
          </ns3:TrackPointExtension>
        </extensions>
      </trkpt>
      <trkpt lat="47.560748197138309478759765625" lon="11.02807578630745410919189453125">
        <ele>1183.5999755859375</ele>
        <time>2026-09-01T06:41:59.000Z</time>
        <extensions>
          <ns3:TrackPointExtension>
            <ns3:hr>165</ns3:hr>
            <ns3:cad>48</ns3:cad>
          </ns3:TrackPointExtension>
        </extensions>
      </trkpt>
      <trkpt lat="47.5607440061867237091064453125" lon="11.02805097587406635284423828125">
        <ele>1183.800048828125</ele>
        <time>2026-09-01T06:42:00.000Z</time>
        <extensions>
          <ns3:TrackPointExtension>
            <ns3:hr>165</ns3:hr>
            <ns3:cad>48</ns3:cad>
          </ns3:TrackPointExtension>
        </extensions>
      </trkpt>
      <trkpt lat="47.5607403181493282318115234375" lon="11.02802951820194721221923828125">
        <ele>1184.199951171875</ele>
        <time>2026-09-01T06:42:01.000Z</time>
        <extensions>
          <ns3:TrackPointExtension>
            <ns3:hr>165</ns3:hr>
            <ns3:cad>48</ns3:cad>
          </ns3:TrackPointExtension>
        </extensions>
      </trkpt>
      <trkpt lat="47.560738138854503631591796875" lon="11.02801292203366756439208984375">
        <ele>1184.5999755859375</ele>
        <time>2026-09-01T06:42:02.000Z</time>
        <extensions>
          <ns3:TrackPointExtension>
            <ns3:hr>165</ns3:hr>
            <ns3:cad>48</ns3:cad>
          </ns3:TrackPointExtension>
        </extensions>
      </trkpt>
      <trkpt lat="47.5607352890074253082275390625" lon="11.02800093591213226318359375">
        <ele>1185.199951171875</ele>
        <time>2026-09-01T06:42:03.000Z</time>
        <extensions>
          <ns3:TrackPointExtension>
            <ns3:hr>165</ns3:hr>
            <ns3:cad>48</ns3:cad>
          </ns3:TrackPointExtension>
        </extensions>
      </trkpt>
      <trkpt lat="47.56073118187487125396728515625" lon="11.027986519038677215576171875">
        <ele>1185.4000244140625</ele>
        <time>2026-09-01T06:42:04.000Z</time>
        <extensions>
          <ns3:TrackPointExtension>
            <ns3:hr>166</ns3:hr>
            <ns3:cad>48</ns3:cad>
          </ns3:TrackPointExtension>
        </extensions>
      </trkpt>
      <trkpt lat="47.560728080570697784423828125" lon="11.02797143161296844482421875">
        <ele>1185.800048828125</ele>
        <time>2026-09-01T06:42:05.000Z</time>
        <extensions>
          <ns3:TrackPointExtension>
            <ns3:hr>166</ns3:hr>
            <ns3:cad>48</ns3:cad>
          </ns3:TrackPointExtension>
        </extensions>
      </trkpt>
      <trkpt lat="47.560724727809429168701171875" lon="11.027965731918811798095703125">
        <ele>1186</ele>
        <time>2026-09-01T06:42:06.000Z</time>
        <extensions>
          <ns3:TrackPointExtension>
            <ns3:hr>166</ns3:hr>
            <ns3:cad>49</ns3:cad>
          </ns3:TrackPointExtension>
        </extensions>
      </trkpt>
      <trkpt lat="47.56072305142879486083984375" lon="11.02795089595019817352294921875">
        <ele>1186</ele>
        <time>2026-09-01T06:42:07.000Z</time>
        <extensions>
          <ns3:TrackPointExtension>
            <ns3:hr>166</ns3:hr>
            <ns3:cad>50</ns3:cad>
          </ns3:TrackPointExtension>
        </extensions>
      </trkpt>
      <trkpt lat="47.56072036921977996826171875" lon="11.027932874858379364013671875">
        <ele>1186.199951171875</ele>
        <time>2026-09-01T06:42:08.000Z</time>
        <extensions>
          <ns3:TrackPointExtension>
            <ns3:hr>167</ns3:hr>
            <ns3:cad>50</ns3:cad>
          </ns3:TrackPointExtension>
        </extensions>
      </trkpt>
      <trkpt lat="47.56070972420275211334228515625" lon="11.0279125906527042388916015625">
        <ele>1186.5999755859375</ele>
        <time>2026-09-01T06:42:09.000Z</time>
        <extensions>
          <ns3:TrackPointExtension>
            <ns3:hr>166</ns3:hr>
            <ns3:cad>50</ns3:cad>
          </ns3:TrackPointExtension>
        </extensions>
      </trkpt>
      <trkpt lat="47.56070570088922977447509765625" lon="11.02790848352015018463134765625">
        <ele>1187</ele>
        <time>2026-09-01T06:42:10.000Z</time>
        <extensions>
          <ns3:TrackPointExtension>
            <ns3:hr>166</ns3:hr>
            <ns3:cad>50</ns3:cad>
          </ns3:TrackPointExtension>
        </extensions>
      </trkpt>
      <trkpt lat="47.56069899536669254302978515625" lon="11.02789708413183689117431640625">
        <ele>1187.4000244140625</ele>
        <time>2026-09-01T06:42:11.000Z</time>
        <extensions>
          <ns3:TrackPointExtension>
            <ns3:hr>166</ns3:hr>
            <ns3:cad>50</ns3:cad>
          </ns3:TrackPointExtension>
        </extensions>
      </trkpt>
      <trkpt lat="47.5606910325586795806884765625" lon="11.02788920514285564422607421875">
        <ele>1188</ele>
        <time>2026-09-01T06:42:12.000Z</time>
        <extensions>
          <ns3:TrackPointExtension>
            <ns3:hr>167</ns3:hr>
            <ns3:cad>50</ns3:cad>
          </ns3:TrackPointExtension>
        </extensions>
      </trkpt>
      <trkpt lat="47.56068550050258636474609375" lon="11.02787679992616176605224609375">
        <ele>1188.5999755859375</ele>
        <time>2026-09-01T06:42:13.000Z</time>
        <extensions>
          <ns3:TrackPointExtension>
            <ns3:hr>167</ns3:hr>
            <ns3:cad>50</ns3:cad>
          </ns3:TrackPointExtension>
        </extensions>
      </trkpt>
      <trkpt lat="47.56068591959774494171142578125" lon="11.02788132615387439727783203125">
        <ele>1188.800048828125</ele>
        <time>2026-09-01T06:42:14.000Z</time>
        <extensions>
          <ns3:TrackPointExtension>
            <ns3:hr>168</ns3:hr>
            <ns3:cad>50</ns3:cad>
          </ns3:TrackPointExtension>
        </extensions>
      </trkpt>
      <trkpt lat="47.56067837588489055633544921875" lon="11.0278659872710704803466796875">
        <ele>1189.199951171875</ele>
        <time>2026-09-01T06:42:15.000Z</time>
        <extensions>
          <ns3:TrackPointExtension>
            <ns3:hr>169</ns3:hr>
            <ns3:cad>50</ns3:cad>
          </ns3:TrackPointExtension>
        </extensions>
      </trkpt>
      <trkpt lat="47.56066999398171901702880859375" lon="11.02784377522766590118408203125">
        <ele>1189.4000244140625</ele>
        <time>2026-09-01T06:42:16.000Z</time>
        <extensions>
          <ns3:TrackPointExtension>
            <ns3:hr>170</ns3:hr>
            <ns3:cad>50</ns3:cad>
          </ns3:TrackPointExtension>
        </extensions>
      </trkpt>
      <trkpt lat="47.5606632046401500701904296875" lon="11.02783598005771636962890625">
        <ele>1189.800048828125</ele>
        <time>2026-09-01T06:42:17.000Z</time>
        <extensions>
          <ns3:TrackPointExtension>
            <ns3:hr>171</ns3:hr>
            <ns3:cad>50</ns3:cad>
          </ns3:TrackPointExtension>
        </extensions>
      </trkpt>
      <trkpt lat="47.56066538393497467041015625" lon="11.02782533504068851470947265625">
        <ele>1190</ele>
        <time>2026-09-01T06:42:18.000Z</time>
        <extensions>
          <ns3:TrackPointExtension>
            <ns3:hr>172</ns3:hr>
            <ns3:cad>41</ns3:cad>
          </ns3:TrackPointExtension>
        </extensions>
      </trkpt>
      <trkpt lat="47.560654319822788238525390625" lon="11.0278026200830936431884765625">
        <ele>1190.199951171875</ele>
        <time>2026-09-01T06:42:19.000Z</time>
        <extensions>
          <ns3:TrackPointExtension>
            <ns3:hr>173</ns3:hr>
            <ns3:cad>41</ns3:cad>
          </ns3:TrackPointExtension>
        </extensions>
      </trkpt>
      <trkpt lat="47.56064618937671184539794921875" lon="11.02778996340930461883544921875">
        <ele>1190.5999755859375</ele>
        <time>2026-09-01T06:42:20.000Z</time>
        <extensions>
          <ns3:TrackPointExtension>
            <ns3:hr>175</ns3:hr>
            <ns3:cad>41</ns3:cad>
          </ns3:TrackPointExtension>
        </extensions>
      </trkpt>
      <trkpt lat="47.56063587963581085205078125" lon="11.02777898311614990234375">
        <ele>1191</ele>
        <time>2026-09-01T06:42:21.000Z</time>
        <extensions>
          <ns3:TrackPointExtension>
            <ns3:hr>176</ns3:hr>
            <ns3:cad>41</ns3:cad>
          </ns3:TrackPointExtension>
        </extensions>
      </trkpt>
      <trkpt lat="47.560622133314609527587890625" lon="11.027763225138187408447265625">
        <ele>1191.199951171875</ele>
        <time>2026-09-01T06:42:22.000Z</time>
        <extensions>
          <ns3:TrackPointExtension>
            <ns3:hr>176</ns3:hr>
            <ns3:cad>41</ns3:cad>
          </ns3:TrackPointExtension>
        </extensions>
      </trkpt>
      <trkpt lat="47.560613416135311126708984375" lon="11.0277546755969524383544921875">
        <ele>1191.5999755859375</ele>
        <time>2026-09-01T06:42:23.000Z</time>
        <extensions>
          <ns3:TrackPointExtension>
            <ns3:hr>176</ns3:hr>
            <ns3:cad>42</ns3:cad>
          </ns3:TrackPointExtension>
        </extensions>
      </trkpt>
      <trkpt lat="47.560602687299251556396484375" lon="11.02774604223668575286865234375">
        <ele>1192</ele>
        <time>2026-09-01T06:42:24.000Z</time>
        <extensions>
          <ns3:TrackPointExtension>
            <ns3:hr>177</ns3:hr>
            <ns3:cad>42</ns3:cad>
          </ns3:TrackPointExtension>
        </extensions>
      </trkpt>
      <trkpt lat="47.5605877675116062164306640625" lon="11.02773497812449932098388671875">
        <ele>1192.199951171875</ele>
        <time>2026-09-01T06:42:25.000Z</time>
        <extensions>
          <ns3:TrackPointExtension>
            <ns3:hr>177</ns3:hr>
            <ns3:cad>43</ns3:cad>
          </ns3:TrackPointExtension>
        </extensions>
      </trkpt>
      <trkpt lat="47.5605787150561809539794921875" lon="11.0277293622493743896484375">
        <ele>1192.4000244140625</ele>
        <time>2026-09-01T06:42:26.000Z</time>
        <extensions>
          <ns3:TrackPointExtension>
            <ns3:hr>177</ns3:hr>
            <ns3:cad>43</ns3:cad>
          </ns3:TrackPointExtension>
        </extensions>
      </trkpt>
      <trkpt lat="47.5605676509439945220947265625" lon="11.0277161188423633575439453125">
        <ele>1192.5999755859375</ele>
        <time>2026-09-01T06:42:27.000Z</time>
        <extensions>
          <ns3:TrackPointExtension>
            <ns3:hr>178</ns3:hr>
            <ns3:cad>0</ns3:cad>
          </ns3:TrackPointExtension>
        </extensions>
      </trkpt>
      <trkpt lat="47.5605587661266326904296875" lon="11.0277037136256694793701171875">
        <ele>1192.800048828125</ele>
        <time>2026-09-01T06:42:28.000Z</time>
        <extensions>
          <ns3:TrackPointExtension>
            <ns3:hr>178</ns3:hr>
            <ns3:cad>0</ns3:cad>
          </ns3:TrackPointExtension>
        </extensions>
      </trkpt>
      <trkpt lat="47.5605559162795543670654296875" lon="11.02768602780997753143310546875">
        <ele>1192.800048828125</ele>
        <time>2026-09-01T06:42:29.000Z</time>
        <extensions>
          <ns3:TrackPointExtension>
            <ns3:hr>178</ns3:hr>
            <ns3:cad>0</ns3:cad>
          </ns3:TrackPointExtension>
        </extensions>
      </trkpt>
      <trkpt lat="47.56055147387087345123291015625" lon="11.0276671685278415679931640625">
        <ele>1193</ele>
        <time>2026-09-01T06:42:30.000Z</time>
        <extensions>
          <ns3:TrackPointExtension>
            <ns3:hr>179</ns3:hr>
            <ns3:cad>0</ns3:cad>
          </ns3:TrackPointExtension>
        </extensions>
      </trkpt>
      <trkpt lat="47.56054778583347797393798828125" lon="11.02764378301799297332763671875">
        <ele>1193</ele>
        <time>2026-09-01T06:42:31.000Z</time>
        <extensions>
          <ns3:TrackPointExtension>
            <ns3:hr>179</ns3:hr>
            <ns3:cad>0</ns3:cad>
          </ns3:TrackPointExtension>
        </extensions>
      </trkpt>
      <trkpt lat="47.5605445168912410736083984375" lon="11.027623750269412994384765625">
        <ele>1193.199951171875</ele>
        <time>2026-09-01T06:42:32.000Z</time>
        <extensions>
          <ns3:TrackPointExtension>
            <ns3:hr>179</ns3:hr>
            <ns3:cad>51</ns3:cad>
          </ns3:TrackPointExtension>
        </extensions>
      </trkpt>
      <trkpt lat="47.56054066121578216552734375" lon="11.0276081599295139312744140625">
        <ele>1193.5999755859375</ele>
        <time>2026-09-01T06:42:33.000Z</time>
        <extensions>
          <ns3:TrackPointExtension>
            <ns3:hr>179</ns3:hr>
            <ns3:cad>51</ns3:cad>
          </ns3:TrackPointExtension>
        </extensions>
      </trkpt>
      <trkpt lat="47.560535967350006103515625" lon="11.02759659290313720703125">
        <ele>1193.800048828125</ele>
        <time>2026-09-01T06:42:34.000Z</time>
        <extensions>
          <ns3:TrackPointExtension>
            <ns3:hr>179</ns3:hr>
            <ns3:cad>51</ns3:cad>
          </ns3:TrackPointExtension>
        </extensions>
      </trkpt>
      <trkpt lat="47.5605374760925769805908203125" lon="11.0275924019515514373779296875">
        <ele>1194.199951171875</ele>
        <time>2026-09-01T06:42:35.000Z</time>
        <extensions>
          <ns3:TrackPointExtension>
            <ns3:hr>180</ns3:hr>
            <ns3:cad>51</ns3:cad>
          </ns3:TrackPointExtension>
        </extensions>
      </trkpt>
      <trkpt lat="47.56053538061678409576416015625" lon="11.0275796614587306976318359375">
        <ele>1194.5999755859375</ele>
        <time>2026-09-01T06:42:36.000Z</time>
        <extensions>
          <ns3:TrackPointExtension>
            <ns3:hr>180</ns3:hr>
            <ns3:cad>51</ns3:cad>
          </ns3:TrackPointExtension>
        </extensions>
      </trkpt>
      <trkpt lat="47.56053471006453037261962890625" lon="11.02756507694721221923828125">
        <ele>1195</ele>
        <time>2026-09-01T06:42:37.000Z</time>
        <extensions>
          <ns3:TrackPointExtension>
            <ns3:hr>180</ns3:hr>
            <ns3:cad>51</ns3:cad>
          </ns3:TrackPointExtension>
        </extensions>
      </trkpt>
      <trkpt lat="47.56053529679775238037109375" lon="11.02755174972116947174072265625">
        <ele>1195.199951171875</ele>
        <time>2026-09-01T06:42:38.000Z</time>
        <extensions>
          <ns3:TrackPointExtension>
            <ns3:hr>181</ns3:hr>
            <ns3:cad>51</ns3:cad>
          </ns3:TrackPointExtension>
        </extensions>
      </trkpt>
      <trkpt lat="47.56053504534065723419189453125" lon="11.0275360755622386932373046875">
        <ele>1195.4000244140625</ele>
        <time>2026-09-01T06:42:39.000Z</time>
        <extensions>
          <ns3:TrackPointExtension>
            <ns3:hr>180</ns3:hr>
            <ns3:cad>0</ns3:cad>
          </ns3:TrackPointExtension>
        </extensions>
      </trkpt>
      <trkpt lat="47.560535632073879241943359375" lon="11.027513444423675537109375">
        <ele>1195.800048828125</ele>
        <time>2026-09-01T06:42:40.000Z</time>
        <extensions>
          <ns3:TrackPointExtension>
            <ns3:hr>179</ns3:hr>
            <ns3:cad>0</ns3:cad>
          </ns3:TrackPointExtension>
        </extensions>
      </trkpt>
      <trkpt lat="47.560529597103595733642578125" lon="11.0274948365986347198486328125">
        <ele>1196.199951171875</ele>
        <time>2026-09-01T06:42:41.000Z</time>
        <extensions>
          <ns3:TrackPointExtension>
            <ns3:hr>178</ns3:hr>
            <ns3:cad>60</ns3:cad>
          </ns3:TrackPointExtension>
        </extensions>
      </trkpt>
      <trkpt lat="47.56052280776202678680419921875" lon="11.02747094817459583282470703125">
        <ele>1196.5999755859375</ele>
        <time>2026-09-01T06:42:42.000Z</time>
        <extensions>
          <ns3:TrackPointExtension>
            <ns3:hr>178</ns3:hr>
            <ns3:cad>61</ns3:cad>
          </ns3:TrackPointExtension>
        </extensions>
      </trkpt>
      <trkpt lat="47.56052029319107532501220703125" lon="11.0274482332170009613037109375">
        <ele>1197</ele>
        <time>2026-09-01T06:42:43.000Z</time>
        <extensions>
          <ns3:TrackPointExtension>
            <ns3:hr>177</ns3:hr>
            <ns3:cad>61</ns3:cad>
          </ns3:TrackPointExtension>
        </extensions>
      </trkpt>
      <trkpt lat="47.56051643751561641693115234375" lon="11.0274341516196727752685546875">
        <ele>1197.5999755859375</ele>
        <time>2026-09-01T06:42:44.000Z</time>
        <extensions>
          <ns3:TrackPointExtension>
            <ns3:hr>175</ns3:hr>
            <ns3:cad>55</ns3:cad>
          </ns3:TrackPointExtension>
        </extensions>
      </trkpt>
      <trkpt lat="47.56051677279174327850341796875" lon="11.02741344831883907318115234375">
        <ele>1198</ele>
        <time>2026-09-01T06:42:45.000Z</time>
        <extensions>
          <ns3:TrackPointExtension>
            <ns3:hr>174</ns3:hr>
            <ns3:cad>55</ns3:cad>
          </ns3:TrackPointExtension>
        </extensions>
      </trkpt>
      <trkpt lat="47.560512833297252655029296875" lon="11.02739668451249599456787109375">
        <ele>1198.199951171875</ele>
        <time>2026-09-01T06:42:46.000Z</time>
        <extensions>
          <ns3:TrackPointExtension>
            <ns3:hr>173</ns3:hr>
            <ns3:cad>55</ns3:cad>
          </ns3:TrackPointExtension>
        </extensions>
      </trkpt>
      <trkpt lat="47.5605079717934131622314453125" lon="11.02738310582935810089111328125">
        <ele>1198.5999755859375</ele>
        <time>2026-09-01T06:42:47.000Z</time>
        <extensions>
          <ns3:TrackPointExtension>
            <ns3:hr>173</ns3:hr>
            <ns3:cad>0</ns3:cad>
          </ns3:TrackPointExtension>
        </extensions>
      </trkpt>
      <trkpt lat="47.56050445139408111572265625" lon="11.02737019769847393035888671875">
        <ele>1198.800048828125</ele>
        <time>2026-09-01T06:42:48.000Z</time>
        <extensions>
          <ns3:TrackPointExtension>
            <ns3:hr>172</ns3:hr>
            <ns3:cad>0</ns3:cad>
          </ns3:TrackPointExtension>
        </extensions>
      </trkpt>
      <trkpt lat="47.56050101481378078460693359375" lon="11.0273570381104946136474609375">
        <ele>1199</ele>
        <time>2026-09-01T06:42:49.000Z</time>
        <extensions>
          <ns3:TrackPointExtension>
            <ns3:hr>172</ns3:hr>
            <ns3:cad>0</ns3:cad>
          </ns3:TrackPointExtension>
        </extensions>
      </trkpt>
      <trkpt lat="47.560495398938655853271484375" lon="11.0273426212370395660400390625">
        <ele>1199.4000244140625</ele>
        <time>2026-09-01T06:42:50.000Z</time>
        <extensions>
          <ns3:TrackPointExtension>
            <ns3:hr>172</ns3:hr>
            <ns3:cad>0</ns3:cad>
          </ns3:TrackPointExtension>
        </extensions>
      </trkpt>
      <trkpt lat="47.56048877723515033721923828125" lon="11.0273285396397113800048828125">
        <ele>1199.5999755859375</ele>
        <time>2026-09-01T06:42:51.000Z</time>
        <extensions>
          <ns3:TrackPointExtension>
            <ns3:hr>172</ns3:hr>
            <ns3:cad>0</ns3:cad>
          </ns3:TrackPointExtension>
        </extensions>
      </trkpt>
      <trkpt lat="47.5604798085987567901611328125" lon="11.02730892598628997802734375">
        <ele>1200</ele>
        <time>2026-09-01T06:42:52.000Z</time>
        <extensions>
          <ns3:TrackPointExtension>
            <ns3:hr>172</ns3:hr>
            <ns3:cad>0</ns3:cad>
          </ns3:TrackPointExtension>
        </extensions>
      </trkpt>
      <trkpt lat="47.56047092378139495849609375" lon="11.02728839032351970672607421875">
        <ele>1200.4000244140625</ele>
        <time>2026-09-01T06:42:53.000Z</time>
        <extensions>
          <ns3:TrackPointExtension>
            <ns3:hr>171</ns3:hr>
            <ns3:cad>0</ns3:cad>
          </ns3:TrackPointExtension>
        </extensions>
      </trkpt>
      <trkpt lat="47.56045809946954250335693359375" lon="11.02726659737527370452880859375">
        <ele>1200.800048828125</ele>
        <time>2026-09-01T06:42:54.000Z</time>
        <extensions>
          <ns3:TrackPointExtension>
            <ns3:hr>171</ns3:hr>
            <ns3:cad>0</ns3:cad>
          </ns3:TrackPointExtension>
        </extensions>
      </trkpt>
      <trkpt lat="47.56044670008122920989990234375" lon="11.0272571258246898651123046875">
        <ele>1201.199951171875</ele>
        <time>2026-09-01T06:42:55.000Z</time>
        <extensions>
          <ns3:TrackPointExtension>
            <ns3:hr>172</ns3:hr>
            <ns3:cad>0</ns3:cad>
          </ns3:TrackPointExtension>
        </extensions>
      </trkpt>
      <trkpt lat="47.56044032983481884002685546875" lon="11.0272519290447235107421875">
        <ele>1201.5999755859375</ele>
        <time>2026-09-01T06:42:56.000Z</time>
        <extensions>
          <ns3:TrackPointExtension>
            <ns3:hr>172</ns3:hr>
            <ns3:cad>0</ns3:cad>
          </ns3:TrackPointExtension>
        </extensions>
      </trkpt>
      <trkpt lat="47.5604171119630336761474609375" lon="11.027234829962253570556640625">
        <ele>1201.800048828125</ele>
        <time>2026-09-01T06:42:57.000Z</time>
        <extensions>
          <ns3:TrackPointExtension>
            <ns3:hr>172</ns3:hr>
            <ns3:cad>0</ns3:cad>
          </ns3:TrackPointExtension>
        </extensions>
      </trkpt>
      <trkpt lat="47.5604058802127838134765625" lon="11.027231477200984954833984375">
        <ele>1202</ele>
        <time>2026-09-01T06:42:58.000Z</time>
        <extensions>
          <ns3:TrackPointExtension>
            <ns3:hr>172</ns3:hr>
            <ns3:cad>0</ns3:cad>
          </ns3:TrackPointExtension>
        </extensions>
      </trkpt>
      <trkpt lat="47.56039573810994625091552734375" lon="11.0272313095629215240478515625">
        <ele>1202.199951171875</ele>
        <time>2026-09-01T06:42:59.000Z</time>
        <extensions>
          <ns3:TrackPointExtension>
            <ns3:hr>172</ns3:hr>
            <ns3:cad>65</ns3:cad>
          </ns3:TrackPointExtension>
        </extensions>
      </trkpt>
      <trkpt lat="47.56038249470293521881103515625" lon="11.0272269509732723236083984375">
        <ele>1202.199951171875</ele>
        <time>2026-09-01T06:43:00.000Z</time>
        <extensions>
          <ns3:TrackPointExtension>
            <ns3:hr>172</ns3:hr>
            <ns3:cad>65</ns3:cad>
          </ns3:TrackPointExtension>
        </extensions>
      </trkpt>
      <trkpt lat="47.56036673672497272491455078125" lon="11.02721597068011760711669921875">
        <ele>1202.4000244140625</ele>
        <time>2026-09-01T06:43:01.000Z</time>
        <extensions>
          <ns3:TrackPointExtension>
            <ns3:hr>173</ns3:hr>
            <ns3:cad>0</ns3:cad>
          </ns3:TrackPointExtension>
        </extensions>
      </trkpt>
      <trkpt lat="47.5603550858795642852783203125" lon="11.0272071696817874908447265625">
        <ele>1202.800048828125</ele>
        <time>2026-09-01T06:43:02.000Z</time>
        <extensions>
          <ns3:TrackPointExtension>
            <ns3:hr>173</ns3:hr>
            <ns3:cad>0</ns3:cad>
          </ns3:TrackPointExtension>
        </extensions>
      </trkpt>
      <trkpt lat="47.56035231985151767730712890625" lon="11.0271991230547428131103515625">
        <ele>1203</ele>
        <time>2026-09-01T06:43:03.000Z</time>
        <extensions>
          <ns3:TrackPointExtension>
            <ns3:hr>174</ns3:hr>
            <ns3:cad>0</ns3:cad>
          </ns3:TrackPointExtension>
        </extensions>
      </trkpt>
      <trkpt lat="47.56034896709024906158447265625" lon="11.02718797512352466583251953125">
        <ele>1203.4000244140625</ele>
        <time>2026-09-01T06:43:04.000Z</time>
        <extensions>
          <ns3:TrackPointExtension>
            <ns3:hr>174</ns3:hr>
            <ns3:cad>0</ns3:cad>
          </ns3:TrackPointExtension>
        </extensions>
      </trkpt>
      <trkpt lat="47.5603456981480121612548828125" lon="11.02717791683971881866455078125">
        <ele>1203.800048828125</ele>
        <time>2026-09-01T06:43:05.000Z</time>
        <extensions>
          <ns3:TrackPointExtension>
            <ns3:hr>174</ns3:hr>
            <ns3:cad>0</ns3:cad>
          </ns3:TrackPointExtension>
        </extensions>
      </trkpt>
      <trkpt lat="47.56034578196704387664794921875" lon="11.027165092527866363525390625">
        <ele>1204</ele>
        <time>2026-09-01T06:43:06.000Z</time>
        <extensions>
          <ns3:TrackPointExtension>
            <ns3:hr>173</ns3:hr>
            <ns3:cad>0</ns3:cad>
          </ns3:TrackPointExtension>
        </extensions>
      </trkpt>
      <trkpt lat="47.5603443570435047149658203125" lon="11.02715411223471164703369140625">
        <ele>1204.4000244140625</ele>
        <time>2026-09-01T06:43:07.000Z</time>
        <extensions>
          <ns3:TrackPointExtension>
            <ns3:hr>173</ns3:hr>
            <ns3:cad>51</ns3:cad>
          </ns3:TrackPointExtension>
        </extensions>
      </trkpt>
      <trkpt lat="47.560345865786075592041015625" lon="11.02714153937995433807373046875">
        <ele>1204.5999755859375</ele>
        <time>2026-09-01T06:43:08.000Z</time>
        <extensions>
          <ns3:TrackPointExtension>
            <ns3:hr>172</ns3:hr>
            <ns3:cad>51</ns3:cad>
          </ns3:TrackPointExtension>
        </extensions>
      </trkpt>
      <trkpt lat="47.56034762598574161529541015625" lon="11.0271307267248630523681640625">
        <ele>1204.800048828125</ele>
        <time>2026-09-01T06:43:09.000Z</time>
        <extensions>
          <ns3:TrackPointExtension>
            <ns3:hr>172</ns3:hr>
            <ns3:cad>0</ns3:cad>
          </ns3:TrackPointExtension>
        </extensions>
      </trkpt>
      <trkpt lat="47.56034729070961475372314453125" lon="11.02712209336459636688232421875">
        <ele>1205.199951171875</ele>
        <time>2026-09-01T06:43:10.000Z</time>
        <extensions>
          <ns3:TrackPointExtension>
            <ns3:hr>172</ns3:hr>
            <ns3:cad>0</ns3:cad>
          </ns3:TrackPointExtension>
        </extensions>
      </trkpt>
      <trkpt lat="47.56034745834767818450927734375" lon="11.0271099396049976348876953125">
        <ele>1205.4000244140625</ele>
        <time>2026-09-01T06:43:11.000Z</time>
        <extensions>
          <ns3:TrackPointExtension>
            <ns3:hr>172</ns3:hr>
            <ns3:cad>0</ns3:cad>
          </ns3:TrackPointExtension>
        </extensions>
      </trkpt>
      <trkpt lat="47.5603493861854076385498046875" lon="11.02709476836025714874267578125">
        <ele>1205.800048828125</ele>
        <time>2026-09-01T06:43:12.000Z</time>
        <extensions>
          <ns3:TrackPointExtension>
            <ns3:hr>172</ns3:hr>
            <ns3:cad>40</ns3:cad>
          </ns3:TrackPointExtension>
        </extensions>
      </trkpt>
      <trkpt lat="47.56035064347088336944580078125" lon="11.02708454243838787078857421875">
        <ele>1206.199951171875</ele>
        <time>2026-09-01T06:43:13.000Z</time>
        <extensions>
          <ns3:TrackPointExtension>
            <ns3:hr>172</ns3:hr>
            <ns3:cad>40</ns3:cad>
          </ns3:TrackPointExtension>
        </extensions>
      </trkpt>
      <trkpt lat="47.56035299040377140045166015625" lon="11.02707901038229465484619140625">
        <ele>1206.5999755859375</ele>
        <time>2026-09-01T06:43:14.000Z</time>
        <extensions>
          <ns3:TrackPointExtension>
            <ns3:hr>172</ns3:hr>
            <ns3:cad>0</ns3:cad>
          </ns3:TrackPointExtension>
        </extensions>
      </trkpt>
      <trkpt lat="47.5603544153273105621337890625" lon="11.027067862451076507568359375">
        <ele>1206.800048828125</ele>
        <time>2026-09-01T06:43:15.000Z</time>
        <extensions>
          <ns3:TrackPointExtension>
            <ns3:hr>172</ns3:hr>
            <ns3:cad>0</ns3:cad>
          </ns3:TrackPointExtension>
        </extensions>
      </trkpt>
      <trkpt lat="47.56035634316504001617431640625" lon="11.027055121958255767822265625">
        <ele>1207.4000244140625</ele>
        <time>2026-09-01T06:43:16.000Z</time>
        <extensions>
          <ns3:TrackPointExtension>
            <ns3:hr>172</ns3:hr>
            <ns3:cad>77</ns3:cad>
          </ns3:TrackPointExtension>
        </extensions>
      </trkpt>
      <trkpt lat="47.5603577680885791778564453125" lon="11.0270373523235321044921875">
        <ele>1207.800048828125</ele>
        <time>2026-09-01T06:43:17.000Z</time>
        <extensions>
          <ns3:TrackPointExtension>
            <ns3:hr>171</ns3:hr>
            <ns3:cad>77</ns3:cad>
          </ns3:TrackPointExtension>
        </extensions>
      </trkpt>
      <trkpt lat="47.56035692989826202392578125" lon="11.02702796459197998046875">
        <ele>1208</ele>
        <time>2026-09-01T06:43:18.000Z</time>
        <extensions>
          <ns3:TrackPointExtension>
            <ns3:hr>171</ns3:hr>
            <ns3:cad>0</ns3:cad>
          </ns3:TrackPointExtension>
        </extensions>
      </trkpt>
      <trkpt lat="47.56035869009792804718017578125" lon="11.0270039923489093780517578125">
        <ele>1208.199951171875</ele>
        <time>2026-09-01T06:43:19.000Z</time>
        <extensions>
          <ns3:TrackPointExtension>
            <ns3:hr>171</ns3:hr>
            <ns3:cad>0</ns3:cad>
          </ns3:TrackPointExtension>
        </extensions>
      </trkpt>
      <trkpt lat="47.560358941555023193359375" lon="11.02699317969381809234619140625">
        <ele>1208.4000244140625</ele>
        <time>2026-09-01T06:43:20.000Z</time>
        <extensions>
          <ns3:TrackPointExtension>
            <ns3:hr>171</ns3:hr>
            <ns3:cad>0</ns3:cad>
          </ns3:TrackPointExtension>
        </extensions>
      </trkpt>
      <trkpt lat="47.5603549182415008544921875" lon="11.02696292102336883544921875">
        <ele>1208.5999755859375</ele>
        <time>2026-09-01T06:43:21.000Z</time>
        <extensions>
          <ns3:TrackPointExtension>
            <ns3:hr>171</ns3:hr>
            <ns3:cad>0</ns3:cad>
          </ns3:TrackPointExtension>
        </extensions>
      </trkpt>
      <trkpt lat="47.5603477098047733306884765625" lon="11.026942469179630279541015625">
        <ele>1208.800048828125</ele>
        <time>2026-09-01T06:43:22.000Z</time>
        <extensions>
          <ns3:TrackPointExtension>
            <ns3:hr>170</ns3:hr>
            <ns3:cad>0</ns3:cad>
          </ns3:TrackPointExtension>
        </extensions>
      </trkpt>
      <trkpt lat="47.56034485995769500732421875" lon="11.02691061794757843017578125">
        <ele>1209.199951171875</ele>
        <time>2026-09-01T06:43:23.000Z</time>
        <extensions>
          <ns3:TrackPointExtension>
            <ns3:hr>171</ns3:hr>
            <ns3:cad>0</ns3:cad>
          </ns3:TrackPointExtension>
        </extensions>
      </trkpt>
      <trkpt lat="47.56034024991095066070556640625" lon="11.02688337676227092742919921875">
        <ele>1209.5999755859375</ele>
        <time>2026-09-01T06:43:24.000Z</time>
        <extensions>
          <ns3:TrackPointExtension>
            <ns3:hr>171</ns3:hr>
            <ns3:cad>0</ns3:cad>
          </ns3:TrackPointExtension>
        </extensions>
      </trkpt>
      <trkpt lat="47.56033823825418949127197265625" lon="11.02687734179198741912841796875">
        <ele>1209.800048828125</ele>
        <time>2026-09-01T06:43:25.000Z</time>
        <extensions>
          <ns3:TrackPointExtension>
            <ns3:hr>171</ns3:hr>
            <ns3:cad>0</ns3:cad>
          </ns3:TrackPointExtension>
        </extensions>
      </trkpt>
      <trkpt lat="47.56033287383615970611572265625" lon="11.02686996571719646453857421875">
        <ele>1210</ele>
        <time>2026-09-01T06:43:26.000Z</time>
        <extensions>
          <ns3:TrackPointExtension>
            <ns3:hr>171</ns3:hr>
            <ns3:cad>0</ns3:cad>
          </ns3:TrackPointExtension>
        </extensions>
      </trkpt>
      <trkpt lat="47.5603285990655422210693359375" lon="11.0268547944724559783935546875">
        <ele>1210.199951171875</ele>
        <time>2026-09-01T06:43:27.000Z</time>
        <extensions>
          <ns3:TrackPointExtension>
            <ns3:hr>171</ns3:hr>
            <ns3:cad>0</ns3:cad>
          </ns3:TrackPointExtension>
        </extensions>
      </trkpt>
      <trkpt lat="47.56031895987689495086669921875" lon="11.02683761157095432281494140625">
        <ele>1210.4000244140625</ele>
        <time>2026-09-01T06:43:28.000Z</time>
        <extensions>
          <ns3:TrackPointExtension>
            <ns3:hr>171</ns3:hr>
            <ns3:cad>0</ns3:cad>
          </ns3:TrackPointExtension>
        </extensions>
      </trkpt>
      <trkpt lat="47.56031560711562633514404296875" lon="11.0268273018300533294677734375">
        <ele>1210.5999755859375</ele>
        <time>2026-09-01T06:43:29.000Z</time>
        <extensions>
          <ns3:TrackPointExtension>
            <ns3:hr>171</ns3:hr>
            <ns3:cad>0</ns3:cad>
          </ns3:TrackPointExtension>
        </extensions>
      </trkpt>
      <trkpt lat="47.56030688993632793426513671875" lon="11.02680441923439502716064453125">
        <ele>1211</ele>
        <time>2026-09-01T06:43:30.000Z</time>
        <extensions>
          <ns3:TrackPointExtension>
            <ns3:hr>171</ns3:hr>
            <ns3:cad>0</ns3:cad>
          </ns3:TrackPointExtension>
        </extensions>
      </trkpt>
      <trkpt lat="47.56030320189893245697021484375" lon="11.026789247989654541015625">
        <ele>1211.4000244140625</ele>
        <time>2026-09-01T06:43:31.000Z</time>
        <extensions>
          <ns3:TrackPointExtension>
            <ns3:hr>171</ns3:hr>
            <ns3:cad>0</ns3:cad>
          </ns3:TrackPointExtension>
        </extensions>
      </trkpt>
      <trkpt lat="47.560308314859867095947265625" lon="11.02677474729716777801513671875">
        <ele>1211.800048828125</ele>
        <time>2026-09-01T06:43:32.000Z</time>
        <extensions>
          <ns3:TrackPointExtension>
            <ns3:hr>171</ns3:hr>
            <ns3:cad>0</ns3:cad>
          </ns3:TrackPointExtension>
        </extensions>
      </trkpt>
      <trkpt lat="47.560303620994091033935546875" lon="11.0267543792724609375">
        <ele>1212</ele>
        <time>2026-09-01T06:43:33.000Z</time>
        <extensions>
          <ns3:TrackPointExtension>
            <ns3:hr>171</ns3:hr>
            <ns3:cad>0</ns3:cad>
          </ns3:TrackPointExtension>
        </extensions>
      </trkpt>
      <trkpt lat="47.5602974183857440948486328125" lon="11.0267377831041812896728515625">
        <ele>1212.4000244140625</ele>
        <time>2026-09-01T06:43:34.000Z</time>
        <extensions>
          <ns3:TrackPointExtension>
            <ns3:hr>171</ns3:hr>
            <ns3:cad>0</ns3:cad>
          </ns3:TrackPointExtension>
        </extensions>
      </trkpt>
      <trkpt lat="47.5603004358708858489990234375" lon="11.026724874973297119140625">
        <ele>1212.800048828125</ele>
        <time>2026-09-01T06:43:35.000Z</time>
        <extensions>
          <ns3:TrackPointExtension>
            <ns3:hr>170</ns3:hr>
            <ns3:cad>0</ns3:cad>
          </ns3:TrackPointExtension>
        </extensions>
      </trkpt>
      <trkpt lat="47.56028677336871623992919921875" lon="11.0267019085586071014404296875">
        <ele>1213.4000244140625</ele>
        <time>2026-09-01T06:43:36.000Z</time>
        <extensions>
          <ns3:TrackPointExtension>
            <ns3:hr>170</ns3:hr>
            <ns3:cad>0</ns3:cad>
          </ns3:TrackPointExtension>
        </extensions>
      </trkpt>
      <trkpt lat="47.56028375588357448577880859375" lon="11.0266962088644504547119140625">
        <ele>1214</ele>
        <time>2026-09-01T06:43:37.000Z</time>
        <extensions>
          <ns3:TrackPointExtension>
            <ns3:hr>170</ns3:hr>
            <ns3:cad>0</ns3:cad>
          </ns3:TrackPointExtension>
        </extensions>
      </trkpt>
      <trkpt lat="47.560276798903942108154296875" lon="11.02668355219066143035888671875">
        <ele>1214.4000244140625</ele>
        <time>2026-09-01T06:43:38.000Z</time>
        <extensions>
          <ns3:TrackPointExtension>
            <ns3:hr>171</ns3:hr>
            <ns3:cad>0</ns3:cad>
          </ns3:TrackPointExtension>
        </extensions>
      </trkpt>
      <trkpt lat="47.56027705036103725433349609375" lon="11.02667718194425106048583984375">
        <ele>1214.800048828125</ele>
        <time>2026-09-01T06:43:39.000Z</time>
        <extensions>
          <ns3:TrackPointExtension>
            <ns3:hr>170</ns3:hr>
            <ns3:cad>0</ns3:cad>
          </ns3:TrackPointExtension>
        </extensions>
      </trkpt>
      <trkpt lat="47.56028057076036930084228515625" lon="11.02666787803173065185546875">
        <ele>1215</ele>
        <time>2026-09-01T06:43:40.000Z</time>
        <extensions>
          <ns3:TrackPointExtension>
            <ns3:hr>170</ns3:hr>
            <ns3:cad>0</ns3:cad>
          </ns3:TrackPointExtension>
        </extensions>
      </trkpt>
      <trkpt lat="47.56027101539075374603271484375" lon="11.0266564786434173583984375">
        <ele>1215.199951171875</ele>
        <time>2026-09-01T06:43:41.000Z</time>
        <extensions>
          <ns3:TrackPointExtension>
            <ns3:hr>170</ns3:hr>
            <ns3:cad>0</ns3:cad>
          </ns3:TrackPointExtension>
        </extensions>
      </trkpt>
      <trkpt lat="47.56026799790561199188232421875" lon="11.0266492702066898345947265625">
        <ele>1215.5999755859375</ele>
        <time>2026-09-01T06:43:42.000Z</time>
        <extensions>
          <ns3:TrackPointExtension>
            <ns3:hr>170</ns3:hr>
            <ns3:cad>0</ns3:cad>
          </ns3:TrackPointExtension>
        </extensions>
      </trkpt>
      <trkpt lat="47.56027168594300746917724609375" lon="11.02664281614124774932861328125">
        <ele>1216</ele>
        <time>2026-09-01T06:43:43.000Z</time>
        <extensions>
          <ns3:TrackPointExtension>
            <ns3:hr>169</ns3:hr>
            <ns3:cad>0</ns3:cad>
          </ns3:TrackPointExtension>
        </extensions>
      </trkpt>
      <trkpt lat="47.5602726079523563385009765625" lon="11.0266321711242198944091796875">
        <ele>1216.199951171875</ele>
        <time>2026-09-01T06:43:44.000Z</time>
        <extensions>
          <ns3:TrackPointExtension>
            <ns3:hr>169</ns3:hr>
            <ns3:cad>0</ns3:cad>
          </ns3:TrackPointExtension>
        </extensions>
      </trkpt>
      <trkpt lat="47.560275457799434661865234375" lon="11.026618592441082000732421875">
        <ele>1216.5999755859375</ele>
        <time>2026-09-01T06:43:45.000Z</time>
        <extensions>
          <ns3:TrackPointExtension>
            <ns3:hr>168</ns3:hr>
            <ns3:cad>0</ns3:cad>
          </ns3:TrackPointExtension>
        </extensions>
      </trkpt>
      <trkpt lat="47.56027000956237316131591796875" lon="11.0266009904444217681884765625">
        <ele>1216.800048828125</ele>
        <time>2026-09-01T06:43:46.000Z</time>
        <extensions>
          <ns3:TrackPointExtension>
            <ns3:hr>167</ns3:hr>
            <ns3:cad>0</ns3:cad>
          </ns3:TrackPointExtension>
        </extensions>
      </trkpt>
      <trkpt lat="47.560273110866546630859375" lon="11.026585735380649566650390625">
        <ele>1217.199951171875</ele>
        <time>2026-09-01T06:43:47.000Z</time>
        <extensions>
          <ns3:TrackPointExtension>
            <ns3:hr>165</ns3:hr>
            <ns3:cad>0</ns3:cad>
          </ns3:TrackPointExtension>
        </extensions>
      </trkpt>
      <trkpt lat="47.56027855910360813140869140625" lon="11.02657659910619258880615234375">
        <ele>1217.4000244140625</ele>
        <time>2026-09-01T06:43:48.000Z</time>
        <extensions>
          <ns3:TrackPointExtension>
            <ns3:hr>163</ns3:hr>
            <ns3:cad>0</ns3:cad>
          </ns3:TrackPointExtension>
        </extensions>
      </trkpt>
      <trkpt lat="47.5602833367884159088134765625" lon="11.0265626013278961181640625">
        <ele>1217.800048828125</ele>
        <time>2026-09-01T06:43:49.000Z</time>
        <extensions>
          <ns3:TrackPointExtension>
            <ns3:hr>161</ns3:hr>
            <ns3:cad>0</ns3:cad>
          </ns3:TrackPointExtension>
        </extensions>
      </trkpt>
      <trkpt lat="47.5602873601019382476806640625" lon="11.02654122747480869293212890625">
        <ele>1218.199951171875</ele>
        <time>2026-09-01T06:43:50.000Z</time>
        <extensions>
          <ns3:TrackPointExtension>
            <ns3:hr>161</ns3:hr>
            <ns3:cad>0</ns3:cad>
          </ns3:TrackPointExtension>
        </extensions>
      </trkpt>
      <trkpt lat="47.5602927245199680328369140625" lon="11.026510298252105712890625">
        <ele>1218.4000244140625</ele>
        <time>2026-09-01T06:43:51.000Z</time>
        <extensions>
          <ns3:TrackPointExtension>
            <ns3:hr>161</ns3:hr>
            <ns3:cad>0</ns3:cad>
          </ns3:TrackPointExtension>
        </extensions>
      </trkpt>
      <trkpt lat="47.56030001677572727203369140625" lon="11.0264953784644603729248046875">
        <ele>1218.800048828125</ele>
        <time>2026-09-01T06:43:52.000Z</time>
        <extensions>
          <ns3:TrackPointExtension>
            <ns3:hr>161</ns3:hr>
            <ns3:cad>0</ns3:cad>
          </ns3:TrackPointExtension>
        </extensions>
      </trkpt>
      <trkpt lat="47.56029632873833179473876953125" lon="11.02647165767848491668701171875">
        <ele>1219.199951171875</ele>
        <time>2026-09-01T06:43:53.000Z</time>
        <extensions>
          <ns3:TrackPointExtension>
            <ns3:hr>161</ns3:hr>
            <ns3:cad>71</ns3:cad>
          </ns3:TrackPointExtension>
        </extensions>
      </trkpt>
      <trkpt lat="47.5602927245199680328369140625" lon="11.026454307138919830322265625">
        <ele>1219.5999755859375</ele>
        <time>2026-09-01T06:43:54.000Z</time>
        <extensions>
          <ns3:TrackPointExtension>
            <ns3:hr>161</ns3:hr>
            <ns3:cad>71</ns3:cad>
          </ns3:TrackPointExtension>
        </extensions>
      </trkpt>
      <trkpt lat="47.5602960772812366485595703125" lon="11.02643662132322788238525390625">
        <ele>1219.800048828125</ele>
        <time>2026-09-01T06:43:55.000Z</time>
        <extensions>
          <ns3:TrackPointExtension>
            <ns3:hr>161</ns3:hr>
            <ns3:cad>71</ns3:cad>
          </ns3:TrackPointExtension>
        </extensions>
      </trkpt>
      <trkpt lat="47.56029331125319004058837890625" lon="11.02641918696463108062744140625">
        <ele>1220.199951171875</ele>
        <time>2026-09-01T06:43:56.000Z</time>
        <extensions>
          <ns3:TrackPointExtension>
            <ns3:hr>161</ns3:hr>
            <ns3:cad>71</ns3:cad>
          </ns3:TrackPointExtension>
        </extensions>
      </trkpt>
      <trkpt lat="47.56028811447322368621826171875" lon="11.026397645473480224609375">
        <ele>1220.5999755859375</ele>
        <time>2026-09-01T06:43:57.000Z</time>
        <extensions>
          <ns3:TrackPointExtension>
            <ns3:hr>161</ns3:hr>
            <ns3:cad>71</ns3:cad>
          </ns3:TrackPointExtension>
        </extensions>
      </trkpt>
      <trkpt lat="47.56028409115970134735107421875" lon="11.026381552219390869140625">
        <ele>1220.800048828125</ele>
        <time>2026-09-01T06:43:58.000Z</time>
        <extensions>
          <ns3:TrackPointExtension>
            <ns3:hr>162</ns3:hr>
            <ns3:cad>71</ns3:cad>
          </ns3:TrackPointExtension>
        </extensions>
      </trkpt>
      <trkpt lat="47.56027621217072010040283203125" lon="11.0263636149466037750244140625">
        <ele>1221</ele>
        <time>2026-09-01T06:43:59.000Z</time>
        <extensions>
          <ns3:TrackPointExtension>
            <ns3:hr>162</ns3:hr>
            <ns3:cad>0</ns3:cad>
          </ns3:TrackPointExtension>
        </extensions>
      </trkpt>
      <trkpt lat="47.56027420051395893096923828125" lon="11.02635003626346588134765625">
        <ele>1221.4000244140625</ele>
        <time>2026-09-01T06:44:00.000Z</time>
        <extensions>
          <ns3:TrackPointExtension>
            <ns3:hr>163</ns3:hr>
            <ns3:cad>0</ns3:cad>
          </ns3:TrackPointExtension>
        </extensions>
      </trkpt>
      <trkpt lat="47.56027420051395893096923828125" lon="11.02634064853191375732421875">
        <ele>1221.5999755859375</ele>
        <time>2026-09-01T06:44:01.000Z</time>
        <extensions>
          <ns3:TrackPointExtension>
            <ns3:hr>163</ns3:hr>
            <ns3:cad>0</ns3:cad>
          </ns3:TrackPointExtension>
        </extensions>
      </trkpt>
      <trkpt lat="47.5602746196091175079345703125" lon="11.02632187306880950927734375">
        <ele>1221.800048828125</ele>
        <time>2026-09-01T06:44:02.000Z</time>
        <extensions>
          <ns3:TrackPointExtension>
            <ns3:hr>164</ns3:hr>
            <ns3:cad>0</ns3:cad>
          </ns3:TrackPointExtension>
        </extensions>
      </trkpt>
      <trkpt lat="47.560275457799434661865234375" lon="11.02630418725311756134033203125">
        <ele>1222</ele>
        <time>2026-09-01T06:44:03.000Z</time>
        <extensions>
          <ns3:TrackPointExtension>
            <ns3:hr>164</ns3:hr>
            <ns3:cad>0</ns3:cad>
          </ns3:TrackPointExtension>
        </extensions>
      </trkpt>
      <trkpt lat="47.56028040312230587005615234375" lon="11.0262942127883434295654296875">
        <ele>1222.199951171875</ele>
        <time>2026-09-01T06:44:04.000Z</time>
        <extensions>
          <ns3:TrackPointExtension>
            <ns3:hr>164</ns3:hr>
            <ns3:cad>0</ns3:cad>
          </ns3:TrackPointExtension>
        </extensions>
      </trkpt>
      <trkpt lat="47.56028124131262302398681640625" lon="11.0262774489820003509521484375">
        <ele>1222.4000244140625</ele>
        <time>2026-09-01T06:44:05.000Z</time>
        <extensions>
          <ns3:TrackPointExtension>
            <ns3:hr>164</ns3:hr>
            <ns3:cad>0</ns3:cad>
          </ns3:TrackPointExtension>
        </extensions>
      </trkpt>
      <trkpt lat="47.56028124131262302398681640625" lon="11.02626345120370388031005859375">
        <ele>1222.5999755859375</ele>
        <time>2026-09-01T06:44:06.000Z</time>
        <extensions>
          <ns3:TrackPointExtension>
            <ns3:hr>164</ns3:hr>
            <ns3:cad>0</ns3:cad>
          </ns3:TrackPointExtension>
        </extensions>
      </trkpt>
      <trkpt lat="47.56028115749359130859375" lon="11.0262506268918514251708984375">
        <ele>1222.800048828125</ele>
        <time>2026-09-01T06:44:07.000Z</time>
        <extensions>
          <ns3:TrackPointExtension>
            <ns3:hr>163</ns3:hr>
            <ns3:cad>0</ns3:cad>
          </ns3:TrackPointExtension>
        </extensions>
      </trkpt>
      <trkpt lat="47.5602752901613712310791015625" lon="11.02623411454260349273681640625">
        <ele>1223.199951171875</ele>
        <time>2026-09-01T06:44:08.000Z</time>
        <extensions>
          <ns3:TrackPointExtension>
            <ns3:hr>164</ns3:hr>
            <ns3:cad>0</ns3:cad>
          </ns3:TrackPointExtension>
        </extensions>
      </trkpt>
      <trkpt lat="47.56027000956237316131591796875" lon="11.0262248106300830841064453125">
        <ele>1223.5999755859375</ele>
        <time>2026-09-01T06:44:09.000Z</time>
        <extensions>
          <ns3:TrackPointExtension>
            <ns3:hr>165</ns3:hr>
            <ns3:cad>0</ns3:cad>
          </ns3:TrackPointExtension>
        </extensions>
      </trkpt>
      <trkpt lat="47.5602798163890838623046875" lon="11.0262264870107173919677734375">
        <ele>1223.800048828125</ele>
        <time>2026-09-01T06:44:10.000Z</time>
        <extensions>
          <ns3:TrackPointExtension>
            <ns3:hr>166</ns3:hr>
            <ns3:cad>0</ns3:cad>
          </ns3:TrackPointExtension>
        </extensions>
      </trkpt>
      <trkpt lat="47.56027470342814922332763671875" lon="11.0262120701372623443603515625">
        <ele>1224.199951171875</ele>
        <time>2026-09-01T06:44:11.000Z</time>
        <extensions>
          <ns3:TrackPointExtension>
            <ns3:hr>166</ns3:hr>
            <ns3:cad>0</ns3:cad>
          </ns3:TrackPointExtension>
        </extensions>
      </trkpt>
      <trkpt lat="47.56026430986821651458740234375" lon="11.0261889360845088958740234375">
        <ele>1224.5999755859375</ele>
        <time>2026-09-01T06:44:12.000Z</time>
        <extensions>
          <ns3:TrackPointExtension>
            <ns3:hr>167</ns3:hr>
            <ns3:cad>0</ns3:cad>
          </ns3:TrackPointExtension>
        </extensions>
      </trkpt>
      <trkpt lat="47.56026179529726505279541015625" lon="11.02618097327649593353271484375">
        <ele>1224.5999755859375</ele>
        <time>2026-09-01T06:44:13.000Z</time>
        <extensions>
          <ns3:TrackPointExtension>
            <ns3:hr>167</ns3:hr>
            <ns3:cad>0</ns3:cad>
          </ns3:TrackPointExtension>
        </extensions>
      </trkpt>
      <trkpt lat="47.56026037037372589111328125" lon="11.0261602699756622314453125">
        <ele>1224.800048828125</ele>
        <time>2026-09-01T06:44:14.000Z</time>
        <extensions>
          <ns3:TrackPointExtension>
            <ns3:hr>167</ns3:hr>
            <ns3:cad>0</ns3:cad>
          </ns3:TrackPointExtension>
        </extensions>
      </trkpt>
      <trkpt lat="47.5602491386234760284423828125" lon="11.02614962495863437652587890625">
        <ele>1225.199951171875</ele>
        <time>2026-09-01T06:44:15.000Z</time>
        <extensions>
          <ns3:TrackPointExtension>
            <ns3:hr>167</ns3:hr>
            <ns3:cad>0</ns3:cad>
          </ns3:TrackPointExtension>
        </extensions>
      </trkpt>
      <trkpt lat="47.5602420978248119354248046875" lon="11.026132442057132720947265625">
        <ele>1225.4000244140625</ele>
        <time>2026-09-01T06:44:16.000Z</time>
        <extensions>
          <ns3:TrackPointExtension>
            <ns3:hr>168</ns3:hr>
            <ns3:cad>0</ns3:cad>
          </ns3:TrackPointExtension>
        </extensions>
      </trkpt>
      <trkpt lat="47.56023933179676532745361328125" lon="11.0261108167469501495361328125">
        <ele>1225.800048828125</ele>
        <time>2026-09-01T06:44:17.000Z</time>
        <extensions>
          <ns3:TrackPointExtension>
            <ns3:hr>168</ns3:hr>
            <ns3:cad>0</ns3:cad>
          </ns3:TrackPointExtension>
        </extensions>
      </trkpt>
      <trkpt lat="47.56023732014000415802001953125" lon="11.02610469795763492584228515625">
        <ele>1226.199951171875</ele>
        <time>2026-09-01T06:44:18.000Z</time>
        <extensions>
          <ns3:TrackPointExtension>
            <ns3:hr>168</ns3:hr>
            <ns3:cad>0</ns3:cad>
          </ns3:TrackPointExtension>
        </extensions>
      </trkpt>
      <trkpt lat="47.5602317042648792266845703125" lon="11.02609455585479736328125">
        <ele>1226.5999755859375</ele>
        <time>2026-09-01T06:44:19.000Z</time>
        <extensions>
          <ns3:TrackPointExtension>
            <ns3:hr>169</ns3:hr>
            <ns3:cad>0</ns3:cad>
          </ns3:TrackPointExtension>
        </extensions>
      </trkpt>
      <trkpt lat="47.56022759713232517242431640625" lon="11.026081144809722900390625">
        <ele>1227</ele>
        <time>2026-09-01T06:44:20.000Z</time>
        <extensions>
          <ns3:TrackPointExtension>
            <ns3:hr>169</ns3:hr>
            <ns3:cad>0</ns3:cad>
          </ns3:TrackPointExtension>
        </extensions>
      </trkpt>
      <trkpt lat="47.5602261722087860107421875" lon="11.02606731466948986053466796875">
        <ele>1227.4000244140625</ele>
        <time>2026-09-01T06:44:21.000Z</time>
        <extensions>
          <ns3:TrackPointExtension>
            <ns3:hr>170</ns3:hr>
            <ns3:cad>0</ns3:cad>
          </ns3:TrackPointExtension>
        </extensions>
      </trkpt>
      <trkpt lat="47.56021955050528049468994140625" lon="11.0260625369846820831298828125">
        <ele>1227.5999755859375</ele>
        <time>2026-09-01T06:44:22.000Z</time>
        <extensions>
          <ns3:TrackPointExtension>
            <ns3:hr>171</ns3:hr>
            <ns3:cad>0</ns3:cad>
          </ns3:TrackPointExtension>
        </extensions>
      </trkpt>
      <trkpt lat="47.5602146051824092864990234375" lon="11.0260400734841823577880859375">
        <ele>1227.800048828125</ele>
        <time>2026-09-01T06:44:23.000Z</time>
        <extensions>
          <ns3:TrackPointExtension>
            <ns3:hr>171</ns3:hr>
            <ns3:cad>0</ns3:cad>
          </ns3:TrackPointExtension>
        </extensions>
      </trkpt>
      <trkpt lat="47.56021200679242610931396484375" lon="11.0260276682674884796142578125">
        <ele>1227.800048828125</ele>
        <time>2026-09-01T06:44:24.000Z</time>
        <extensions>
          <ns3:TrackPointExtension>
            <ns3:hr>171</ns3:hr>
            <ns3:cad>0</ns3:cad>
          </ns3:TrackPointExtension>
        </extensions>
      </trkpt>
      <trkpt lat="47.5602092407643795013427734375" lon="11.0260075516998767852783203125">
        <ele>1228</ele>
        <time>2026-09-01T06:44:25.000Z</time>
        <extensions>
          <ns3:TrackPointExtension>
            <ns3:hr>172</ns3:hr>
            <ns3:cad>0</ns3:cad>
          </ns3:TrackPointExtension>
        </extensions>
      </trkpt>
      <trkpt lat="47.56020043976604938507080078125" lon="11.02599187754094600677490234375">
        <ele>1228</ele>
        <time>2026-09-01T06:44:26.000Z</time>
        <extensions>
          <ns3:TrackPointExtension>
            <ns3:hr>172</ns3:hr>
            <ns3:cad>0</ns3:cad>
          </ns3:TrackPointExtension>
        </extensions>
      </trkpt>
      <trkpt lat="47.56019758991897106170654296875" lon="11.02597880177199840545654296875">
        <ele>1228</ele>
        <time>2026-09-01T06:44:27.000Z</time>
        <extensions>
          <ns3:TrackPointExtension>
            <ns3:hr>172</ns3:hr>
            <ns3:cad>0</ns3:cad>
          </ns3:TrackPointExtension>
        </extensions>
      </trkpt>
      <trkpt lat="47.56018317304551601409912109375" lon="11.02595784701406955718994140625">
        <ele>1228.4000244140625</ele>
        <time>2026-09-01T06:44:28.000Z</time>
        <extensions>
          <ns3:TrackPointExtension>
            <ns3:hr>172</ns3:hr>
            <ns3:cad>0</ns3:cad>
          </ns3:TrackPointExtension>
        </extensions>
      </trkpt>
      <trkpt lat="47.56017445586621761322021484375" lon="11.025947369635105133056640625">
        <ele>1228.800048828125</ele>
        <time>2026-09-01T06:44:29.000Z</time>
        <extensions>
          <ns3:TrackPointExtension>
            <ns3:hr>172</ns3:hr>
            <ns3:cad>48</ns3:cad>
          </ns3:TrackPointExtension>
        </extensions>
      </trkpt>
      <trkpt lat="47.56015718914568424224853515625" lon="11.0259294323623180389404296875">
        <ele>1229.4000244140625</ele>
        <time>2026-09-01T06:44:30.000Z</time>
        <extensions>
          <ns3:TrackPointExtension>
            <ns3:hr>172</ns3:hr>
            <ns3:cad>48</ns3:cad>
          </ns3:TrackPointExtension>
        </extensions>
      </trkpt>
      <trkpt lat="47.5601465441286563873291015625" lon="11.02592046372592449188232421875">
        <ele>1229.800048828125</ele>
        <time>2026-09-01T06:44:31.000Z</time>
        <extensions>
          <ns3:TrackPointExtension>
            <ns3:hr>173</ns3:hr>
            <ns3:cad>48</ns3:cad>
          </ns3:TrackPointExtension>
        </extensions>
      </trkpt>
      <trkpt lat="47.56013824604451656341552734375" lon="11.02591660805046558380126953125">
        <ele>1230.199951171875</ele>
        <time>2026-09-01T06:44:32.000Z</time>
        <extensions>
          <ns3:TrackPointExtension>
            <ns3:hr>173</ns3:hr>
            <ns3:cad>48</ns3:cad>
          </ns3:TrackPointExtension>
        </extensions>
      </trkpt>
      <trkpt lat="47.5601301155984401702880859375" lon="11.02591459639370441436767578125">
        <ele>1230.5999755859375</ele>
        <time>2026-09-01T06:44:33.000Z</time>
        <extensions>
          <ns3:TrackPointExtension>
            <ns3:hr>174</ns3:hr>
            <ns3:cad>48</ns3:cad>
          </ns3:TrackPointExtension>
        </extensions>
      </trkpt>
      <trkpt lat="47.56012517027556896209716796875" lon="11.02592096664011478424072265625">
        <ele>1230.800048828125</ele>
        <time>2026-09-01T06:44:34.000Z</time>
        <extensions>
          <ns3:TrackPointExtension>
            <ns3:hr>175</ns3:hr>
            <ns3:cad>48</ns3:cad>
          </ns3:TrackPointExtension>
        </extensions>
      </trkpt>
      <trkpt lat="47.56011997349560260772705078125" lon="11.02593203075230121612548828125">
        <ele>1231.199951171875</ele>
        <time>2026-09-01T06:44:35.000Z</time>
        <extensions>
          <ns3:TrackPointExtension>
            <ns3:hr>177</ns3:hr>
            <ns3:cad>48</ns3:cad>
          </ns3:TrackPointExtension>
        </extensions>
      </trkpt>
      <trkpt lat="47.5601358152925968170166015625" lon="11.02596187032759189605712890625">
        <ele>1231.4000244140625</ele>
        <time>2026-09-01T06:44:36.000Z</time>
        <extensions>
          <ns3:TrackPointExtension>
            <ns3:hr>178</ns3:hr>
            <ns3:cad>48</ns3:cad>
          </ns3:TrackPointExtension>
        </extensions>
      </trkpt>
      <trkpt lat="47.5601301155984401702880859375" lon="11.02597997523844242095947265625">
        <ele>1231.800048828125</ele>
        <time>2026-09-01T06:44:37.000Z</time>
        <extensions>
          <ns3:TrackPointExtension>
            <ns3:hr>178</ns3:hr>
            <ns3:cad>48</ns3:cad>
          </ns3:TrackPointExtension>
        </extensions>
      </trkpt>
      <trkpt lat="47.56012885831296443939208984375" lon="11.02598601020872592926025390625">
        <ele>1232.199951171875</ele>
        <time>2026-09-01T06:44:38.000Z</time>
        <extensions>
          <ns3:TrackPointExtension>
            <ns3:hr>178</ns3:hr>
            <ns3:cad>0</ns3:cad>
          </ns3:TrackPointExtension>
        </extensions>
      </trkpt>
      <trkpt lat="47.560113854706287384033203125" lon="11.02599757723510265350341796875">
        <ele>1232.800048828125</ele>
        <time>2026-09-01T06:44:39.000Z</time>
        <extensions>
          <ns3:TrackPointExtension>
            <ns3:hr>179</ns3:hr>
            <ns3:cad>0</ns3:cad>
          </ns3:TrackPointExtension>
        </extensions>
      </trkpt>
      <trkpt lat="47.56010480225086212158203125" lon="11.02600998245179653167724609375">
        <ele>1233.199951171875</ele>
        <time>2026-09-01T06:44:40.000Z</time>
        <extensions>
          <ns3:TrackPointExtension>
            <ns3:hr>179</ns3:hr>
            <ns3:cad>0</ns3:cad>
          </ns3:TrackPointExtension>
        </extensions>
      </trkpt>
      <trkpt lat="47.5600979290902614593505859375" lon="11.02602138184010982513427734375">
        <ele>1233.800048828125</ele>
        <time>2026-09-01T06:44:41.000Z</time>
        <extensions>
          <ns3:TrackPointExtension>
            <ns3:hr>178</ns3:hr>
            <ns3:cad>0</ns3:cad>
          </ns3:TrackPointExtension>
        </extensions>
      </trkpt>
      <trkpt lat="47.56009248085319995880126953125" lon="11.0260306857526302337646484375">
        <ele>1234</ele>
        <time>2026-09-01T06:44:42.000Z</time>
        <extensions>
          <ns3:TrackPointExtension>
            <ns3:hr>178</ns3:hr>
            <ns3:cad>0</ns3:cad>
          </ns3:TrackPointExtension>
        </extensions>
      </trkpt>
      <trkpt lat="47.5600865297019481658935546875" lon="11.02603982202708721160888671875">
        <ele>1234.5999755859375</ele>
        <time>2026-09-01T06:44:43.000Z</time>
        <extensions>
          <ns3:TrackPointExtension>
            <ns3:hr>179</ns3:hr>
            <ns3:cad>0</ns3:cad>
          </ns3:TrackPointExtension>
        </extensions>
      </trkpt>
      <trkpt lat="47.56008057855069637298583984375" lon="11.0260457731783390045166015625">
        <ele>1234.800048828125</ele>
        <time>2026-09-01T06:44:44.000Z</time>
        <extensions>
          <ns3:TrackPointExtension>
            <ns3:hr>179</ns3:hr>
            <ns3:cad>0</ns3:cad>
          </ns3:TrackPointExtension>
        </extensions>
      </trkpt>
      <trkpt lat="47.5600706040859222412109375" lon="11.0260583460330963134765625">
        <ele>1235.199951171875</ele>
        <time>2026-09-01T06:44:45.000Z</time>
        <extensions>
          <ns3:TrackPointExtension>
            <ns3:hr>178</ns3:hr>
            <ns3:cad>0</ns3:cad>
          </ns3:TrackPointExtension>
        </extensions>
      </trkpt>
      <trkpt lat="47.56006482057273387908935546875" lon="11.02606915868818759918212890625">
        <ele>1235.5999755859375</ele>
        <time>2026-09-01T06:44:46.000Z</time>
        <extensions>
          <ns3:TrackPointExtension>
            <ns3:hr>178</ns3:hr>
            <ns3:cad>0</ns3:cad>
          </ns3:TrackPointExtension>
        </extensions>
      </trkpt>
      <trkpt lat="47.56005920469760894775390625" lon="11.0260863415896892547607421875">
        <ele>1235.800048828125</ele>
        <time>2026-09-01T06:44:47.000Z</time>
        <extensions>
          <ns3:TrackPointExtension>
            <ns3:hr>178</ns3:hr>
            <ns3:cad>0</ns3:cad>
          </ns3:TrackPointExtension>
        </extensions>
      </trkpt>
      <trkpt lat="47.56005191244184970855712890625" lon="11.0260866768658161163330078125">
        <ele>1236</ele>
        <time>2026-09-01T06:44:48.000Z</time>
        <extensions>
          <ns3:TrackPointExtension>
            <ns3:hr>178</ns3:hr>
            <ns3:cad>0</ns3:cad>
          </ns3:TrackPointExtension>
        </extensions>
      </trkpt>
      <trkpt lat="47.560039423406124114990234375" lon="11.026089526712894439697265625">
        <ele>1236.199951171875</ele>
        <time>2026-09-01T06:44:49.000Z</time>
        <extensions>
          <ns3:TrackPointExtension>
            <ns3:hr>179</ns3:hr>
            <ns3:cad>0</ns3:cad>
          </ns3:TrackPointExtension>
        </extensions>
      </trkpt>
      <trkpt lat="47.56003112532198429107666015625" lon="11.0260900296270847320556640625">
        <ele>1236.5999755859375</ele>
        <time>2026-09-01T06:44:50.000Z</time>
        <extensions>
          <ns3:TrackPointExtension>
            <ns3:hr>181</ns3:hr>
            <ns3:cad>0</ns3:cad>
          </ns3:TrackPointExtension>
        </extensions>
      </trkpt>
      <trkpt lat="47.56003397516906261444091796875" lon="11.02607376873493194580078125">
        <ele>1236.800048828125</ele>
        <time>2026-09-01T06:44:51.000Z</time>
        <extensions>
          <ns3:TrackPointExtension>
            <ns3:hr>182</ns3:hr>
            <ns3:cad>0</ns3:cad>
          </ns3:TrackPointExtension>
        </extensions>
      </trkpt>
      <trkpt lat="47.5600231625139713287353515625" lon="11.0260628722608089447021484375">
        <ele>1237.199951171875</ele>
        <time>2026-09-01T06:44:52.000Z</time>
        <extensions>
          <ns3:TrackPointExtension>
            <ns3:hr>182</ns3:hr>
            <ns3:cad>0</ns3:cad>
          </ns3:TrackPointExtension>
        </extensions>
      </trkpt>
      <trkpt lat="47.5600234977900981903076171875" lon="11.026056669652462005615234375">
        <ele>1237.5999755859375</ele>
        <time>2026-09-01T06:44:53.000Z</time>
        <extensions>
          <ns3:TrackPointExtension>
            <ns3:hr>182</ns3:hr>
            <ns3:cad>0</ns3:cad>
          </ns3:TrackPointExtension>
        </extensions>
      </trkpt>
      <trkpt lat="47.5600224919617176055908203125" lon="11.02605172432959079742431640625">
        <ele>1237.800048828125</ele>
        <time>2026-09-01T06:44:54.000Z</time>
        <extensions>
          <ns3:TrackPointExtension>
            <ns3:hr>182</ns3:hr>
            <ns3:cad>0</ns3:cad>
          </ns3:TrackPointExtension>
        </extensions>
      </trkpt>
      <trkpt lat="47.56001134403049945831298828125" lon="11.02603613398969173431396484375">
        <ele>1238.199951171875</ele>
        <time>2026-09-01T06:44:55.000Z</time>
        <extensions>
          <ns3:TrackPointExtension>
            <ns3:hr>182</ns3:hr>
            <ns3:cad>0</ns3:cad>
          </ns3:TrackPointExtension>
        </extensions>
      </trkpt>
      <trkpt lat="47.56000312976539134979248046875" lon="11.02603311650454998016357421875">
        <ele>1238.5999755859375</ele>
        <time>2026-09-01T06:44:56.000Z</time>
        <extensions>
          <ns3:TrackPointExtension>
            <ns3:hr>182</ns3:hr>
            <ns3:cad>0</ns3:cad>
          </ns3:TrackPointExtension>
        </extensions>
      </trkpt>
      <trkpt lat="47.5599981844425201416015625" lon="11.0260303504765033721923828125">
        <ele>1238.800048828125</ele>
        <time>2026-09-01T06:44:57.000Z</time>
        <extensions>
          <ns3:TrackPointExtension>
            <ns3:hr>182</ns3:hr>
            <ns3:cad>0</ns3:cad>
          </ns3:TrackPointExtension>
        </extensions>
      </trkpt>
      <trkpt lat="47.5599856115877628326416015625" lon="11.02604015730321407318115234375">
        <ele>1239</ele>
        <time>2026-09-01T06:44:58.000Z</time>
        <extensions>
          <ns3:TrackPointExtension>
            <ns3:hr>182</ns3:hr>
            <ns3:cad>0</ns3:cad>
          </ns3:TrackPointExtension>
        </extensions>
      </trkpt>
      <trkpt lat="47.55997111089527606964111328125" lon="11.026048958301544189453125">
        <ele>1239.4000244140625</ele>
        <time>2026-09-01T06:44:59.000Z</time>
        <extensions>
          <ns3:TrackPointExtension>
            <ns3:hr>182</ns3:hr>
            <ns3:cad>0</ns3:cad>
          </ns3:TrackPointExtension>
        </extensions>
      </trkpt>
      <trkpt lat="47.55995887331664562225341796875" lon="11.0260449349880218505859375">
        <ele>1239.5999755859375</ele>
        <time>2026-09-01T06:45:00.000Z</time>
        <extensions>
          <ns3:TrackPointExtension>
            <ns3:hr>182</ns3:hr>
            <ns3:cad>0</ns3:cad>
          </ns3:TrackPointExtension>
        </extensions>
      </trkpt>
      <trkpt lat="47.55995267070829868316650390625" lon="11.026046611368656158447265625">
        <ele>1240</ele>
        <time>2026-09-01T06:45:01.000Z</time>
        <extensions>
          <ns3:TrackPointExtension>
            <ns3:hr>182</ns3:hr>
            <ns3:cad>0</ns3:cad>
          </ns3:TrackPointExtension>
        </extensions>
      </trkpt>
      <trkpt lat="47.5599539279937744140625" lon="11.02604166604578495025634765625">
        <ele>1240.5999755859375</ele>
        <time>2026-09-01T06:45:02.000Z</time>
        <extensions>
          <ns3:TrackPointExtension>
            <ns3:hr>183</ns3:hr>
            <ns3:cad>0</ns3:cad>
          </ns3:TrackPointExtension>
        </extensions>
      </trkpt>
      <trkpt lat="47.55995417945086956024169921875" lon="11.026032865047454833984375">
        <ele>1240.800048828125</ele>
        <time>2026-09-01T06:45:03.000Z</time>
        <extensions>
          <ns3:TrackPointExtension>
            <ns3:hr>185</ns3:hr>
            <ns3:cad>0</ns3:cad>
          </ns3:TrackPointExtension>
        </extensions>
      </trkpt>
      <trkpt lat="47.559953592717647552490234375" lon="11.02602557279169559478759765625">
        <ele>1241.199951171875</ele>
        <time>2026-09-01T06:45:04.000Z</time>
        <extensions>
          <ns3:TrackPointExtension>
            <ns3:hr>188</ns3:hr>
            <ns3:cad>0</ns3:cad>
          </ns3:TrackPointExtension>
        </extensions>
      </trkpt>
      <trkpt lat="47.55993892438709735870361328125" lon="11.02602339349687099456787109375">
        <ele>1241.800048828125</ele>
        <time>2026-09-01T06:45:05.000Z</time>
        <extensions>
          <ns3:TrackPointExtension>
            <ns3:hr>192</ns3:hr>
            <ns3:cad>0</ns3:cad>
          </ns3:TrackPointExtension>
        </extensions>
      </trkpt>
      <trkpt lat="47.55992836318910121917724609375" lon="11.0260155983269214630126953125">
        <ele>1242</ele>
        <time>2026-09-01T06:45:06.000Z</time>
        <extensions>
          <ns3:TrackPointExtension>
            <ns3:hr>195</ns3:hr>
            <ns3:cad>0</ns3:cad>
          </ns3:TrackPointExtension>
        </extensions>
      </trkpt>
      <trkpt lat="47.55992266349494457244873046875" lon="11.02601484395563602447509765625">
        <ele>1242.4000244140625</ele>
        <time>2026-09-01T06:45:07.000Z</time>
        <extensions>
          <ns3:TrackPointExtension>
            <ns3:hr>197</ns3:hr>
            <ns3:cad>0</ns3:cad>
          </ns3:TrackPointExtension>
        </extensions>
      </trkpt>
      <trkpt lat="47.55991838872432708740234375" lon="11.02602708153426647186279296875">
        <ele>1242.800048828125</ele>
        <time>2026-09-01T06:45:08.000Z</time>
        <extensions>
          <ns3:TrackPointExtension>
            <ns3:hr>197</ns3:hr>
            <ns3:cad>0</ns3:cad>
          </ns3:TrackPointExtension>
        </extensions>
      </trkpt>
      <trkpt lat="47.5599111802875995635986328125" lon="11.02603194303810596466064453125">
        <ele>1243.199951171875</ele>
        <time>2026-09-01T06:45:09.000Z</time>
        <extensions>
          <ns3:TrackPointExtension>
            <ns3:hr>198</ns3:hr>
            <ns3:cad>0</ns3:cad>
          </ns3:TrackPointExtension>
        </extensions>
      </trkpt>
      <trkpt lat="47.55990355275571346282958984375" lon="11.02603462524712085723876953125">
        <ele>1243.4000244140625</ele>
        <time>2026-09-01T06:45:10.000Z</time>
        <extensions>
          <ns3:TrackPointExtension>
            <ns3:hr>198</ns3:hr>
            <ns3:cad>0</ns3:cad>
          </ns3:TrackPointExtension>
        </extensions>
      </trkpt>
      <trkpt lat="47.5598964281380176544189453125" lon="11.02604619227349758148193359375">
        <ele>1243.5999755859375</ele>
        <time>2026-09-01T06:45:11.000Z</time>
        <extensions>
          <ns3:TrackPointExtension>
            <ns3:hr>198</ns3:hr>
            <ns3:cad>0</ns3:cad>
          </ns3:TrackPointExtension>
        </extensions>
      </trkpt>
      <trkpt lat="47.5598940812051296234130859375" lon="11.02605390362441539764404296875">
        <ele>1244</ele>
        <time>2026-09-01T06:45:12.000Z</time>
        <extensions>
          <ns3:TrackPointExtension>
            <ns3:hr>197</ns3:hr>
            <ns3:cad>0</ns3:cad>
          </ns3:TrackPointExtension>
        </extensions>
      </trkpt>
      <trkpt lat="47.5599002838134765625" lon="11.026057340204715728759765625">
        <ele>1244.199951171875</ele>
        <time>2026-09-01T06:45:13.000Z</time>
        <extensions>
          <ns3:TrackPointExtension>
            <ns3:hr>198</ns3:hr>
            <ns3:cad>0</ns3:cad>
          </ns3:TrackPointExtension>
        </extensions>
      </trkpt>
      <trkpt lat="47.559889219701290130615234375" lon="11.026049293577671051025390625">
        <ele>1244.5999755859375</ele>
        <time>2026-09-01T06:45:14.000Z</time>
        <extensions>
          <ns3:TrackPointExtension>
            <ns3:hr>198</ns3:hr>
            <ns3:cad>0</ns3:cad>
          </ns3:TrackPointExtension>
        </extensions>
      </trkpt>
      <trkpt lat="47.55988611839711666107177734375" lon="11.02604585699737071990966796875">
        <ele>1245</ele>
        <time>2026-09-01T06:45:15.000Z</time>
        <extensions>
          <ns3:TrackPointExtension>
            <ns3:hr>197</ns3:hr>
            <ns3:cad>0</ns3:cad>
          </ns3:TrackPointExtension>
        </extensions>
      </trkpt>
      <trkpt lat="47.55988041870296001434326171875" lon="11.02604669518768787384033203125">
        <ele>1245.4000244140625</ele>
        <time>2026-09-01T06:45:16.000Z</time>
        <extensions>
          <ns3:TrackPointExtension>
            <ns3:hr>197</ns3:hr>
            <ns3:cad>0</ns3:cad>
          </ns3:TrackPointExtension>
        </extensions>
      </trkpt>
      <trkpt lat="47.5598706118762493133544921875" lon="11.02605574764311313629150390625">
        <ele>1245.800048828125</ele>
        <time>2026-09-01T06:45:17.000Z</time>
        <extensions>
          <ns3:TrackPointExtension>
            <ns3:hr>196</ns3:hr>
            <ns3:cad>0</ns3:cad>
          </ns3:TrackPointExtension>
        </extensions>
      </trkpt>
      <trkpt lat="47.55986248143017292022705078125" lon="11.02606832049787044525146484375">
        <ele>1246</ele>
        <time>2026-09-01T06:45:18.000Z</time>
        <extensions>
          <ns3:TrackPointExtension>
            <ns3:hr>196</ns3:hr>
            <ns3:cad>0</ns3:cad>
          </ns3:TrackPointExtension>
        </extensions>
      </trkpt>
      <trkpt lat="47.5598488189280033111572265625" lon="11.0260829888284206390380859375">
        <ele>1246.4000244140625</ele>
        <time>2026-09-01T06:45:19.000Z</time>
        <extensions>
          <ns3:TrackPointExtension>
            <ns3:hr>195</ns3:hr>
            <ns3:cad>0</ns3:cad>
          </ns3:TrackPointExtension>
        </extensions>
      </trkpt>
      <trkpt lat="47.55983901210129261016845703125" lon="11.02609614841639995574951171875">
        <ele>1246.800048828125</ele>
        <time>2026-09-01T06:45:20.000Z</time>
        <extensions>
          <ns3:TrackPointExtension>
            <ns3:hr>195</ns3:hr>
            <ns3:cad>0</ns3:cad>
          </ns3:TrackPointExtension>
        </extensions>
      </trkpt>
      <trkpt lat="47.55982744507491588592529296875" lon="11.02610955946147441864013671875">
        <ele>1246.800048828125</ele>
        <time>2026-09-01T06:45:21.000Z</time>
        <extensions>
          <ns3:TrackPointExtension>
            <ns3:hr>194</ns3:hr>
            <ns3:cad>0</ns3:cad>
          </ns3:TrackPointExtension>
        </extensions>
      </trkpt>
      <trkpt lat="47.55981990136206150054931640625" lon="11.02612682618200778961181640625">
        <ele>1247</ele>
        <time>2026-09-01T06:45:22.000Z</time>
        <extensions>
          <ns3:TrackPointExtension>
            <ns3:hr>194</ns3:hr>
            <ns3:cad>0</ns3:cad>
          </ns3:TrackPointExtension>
        </extensions>
      </trkpt>
      <trkpt lat="47.55982643924653530120849609375" lon="11.0261440090835094451904296875">
        <ele>1247.4000244140625</ele>
        <time>2026-09-01T06:45:23.000Z</time>
        <extensions>
          <ns3:TrackPointExtension>
            <ns3:hr>193</ns3:hr>
            <ns3:cad>0</ns3:cad>
          </ns3:TrackPointExtension>
        </extensions>
      </trkpt>
      <trkpt lat="47.55982442758977413177490234375" lon="11.02616169489920139312744140625">
        <ele>1247.4000244140625</ele>
        <time>2026-09-01T06:45:24.000Z</time>
        <extensions>
          <ns3:TrackPointExtension>
            <ns3:hr>193</ns3:hr>
            <ns3:cad>0</ns3:cad>
          </ns3:TrackPointExtension>
        </extensions>
      </trkpt>
      <trkpt lat="47.55981973372399806976318359375" lon="11.02617862634360790252685546875">
        <ele>1247.800048828125</ele>
        <time>2026-09-01T06:45:25.000Z</time>
        <extensions>
          <ns3:TrackPointExtension>
            <ns3:hr>192</ns3:hr>
            <ns3:cad>0</ns3:cad>
          </ns3:TrackPointExtension>
        </extensions>
      </trkpt>
      <trkpt lat="47.5598219968378543853759765625" lon="11.02618399076163768768310546875">
        <ele>1248.199951171875</ele>
        <time>2026-09-01T06:45:26.000Z</time>
        <extensions>
          <ns3:TrackPointExtension>
            <ns3:hr>192</ns3:hr>
            <ns3:cad>0</ns3:cad>
          </ns3:TrackPointExtension>
        </extensions>
      </trkpt>
      <trkpt lat="47.55981772206723690032958984375" lon="11.0262006707489490509033203125">
        <ele>1248.4000244140625</ele>
        <time>2026-09-01T06:45:27.000Z</time>
        <extensions>
          <ns3:TrackPointExtension>
            <ns3:hr>191</ns3:hr>
            <ns3:cad>0</ns3:cad>
          </ns3:TrackPointExtension>
        </extensions>
      </trkpt>
      <trkpt lat="47.5598179735243320465087890625" lon="11.02621458470821380615234375">
        <ele>1248.800048828125</ele>
        <time>2026-09-01T06:45:28.000Z</time>
        <extensions>
          <ns3:TrackPointExtension>
            <ns3:hr>190</ns3:hr>
            <ns3:cad>0</ns3:cad>
          </ns3:TrackPointExtension>
        </extensions>
      </trkpt>
      <trkpt lat="47.55981252528727054595947265625" lon="11.02623361162841320037841796875">
        <ele>1249.199951171875</ele>
        <time>2026-09-01T06:45:29.000Z</time>
        <extensions>
          <ns3:TrackPointExtension>
            <ns3:hr>189</ns3:hr>
            <ns3:cad>0</ns3:cad>
          </ns3:TrackPointExtension>
        </extensions>
      </trkpt>
      <trkpt lat="47.55980682559311389923095703125" lon="11.02624132297933101654052734375">
        <ele>1249.5999755859375</ele>
        <time>2026-09-01T06:45:30.000Z</time>
        <extensions>
          <ns3:TrackPointExtension>
            <ns3:hr>188</ns3:hr>
            <ns3:cad>0</ns3:cad>
          </ns3:TrackPointExtension>
        </extensions>
      </trkpt>
      <trkpt lat="47.55980531685054302215576171875" lon="11.0262523032724857330322265625">
        <ele>1249.800048828125</ele>
        <time>2026-09-01T06:45:31.000Z</time>
        <extensions>
          <ns3:TrackPointExtension>
            <ns3:hr>188</ns3:hr>
            <ns3:cad>0</ns3:cad>
          </ns3:TrackPointExtension>
        </extensions>
      </trkpt>
      <trkpt lat="47.55980783142149448394775390625" lon="11.02625573985278606414794921875">
        <ele>1250.199951171875</ele>
        <time>2026-09-01T06:45:32.000Z</time>
        <extensions>
          <ns3:TrackPointExtension>
            <ns3:hr>188</ns3:hr>
            <ns3:cad>0</ns3:cad>
          </ns3:TrackPointExtension>
        </extensions>
      </trkpt>
      <trkpt lat="47.559802047908306121826171875" lon="11.02626286447048187255859375">
        <ele>1250.5999755859375</ele>
        <time>2026-09-01T06:45:33.000Z</time>
        <extensions>
          <ns3:TrackPointExtension>
            <ns3:hr>187</ns3:hr>
            <ns3:cad>0</ns3:cad>
          </ns3:TrackPointExtension>
        </extensions>
      </trkpt>
      <trkpt lat="47.55979777313768863677978515625" lon="11.02627468295395374298095703125">
        <ele>1251</ele>
        <time>2026-09-01T06:45:34.000Z</time>
        <extensions>
          <ns3:TrackPointExtension>
            <ns3:hr>188</ns3:hr>
            <ns3:cad>0</ns3:cad>
          </ns3:TrackPointExtension>
        </extensions>
      </trkpt>
      <trkpt lat="47.55979626439511775970458984375" lon="11.02628222666680812835693359375">
        <ele>1251</ele>
        <time>2026-09-01T06:45:35.000Z</time>
        <extensions>
          <ns3:TrackPointExtension>
            <ns3:hr>188</ns3:hr>
            <ns3:cad>0</ns3:cad>
          </ns3:TrackPointExtension>
        </extensions>
      </trkpt>
      <trkpt lat="47.5597941689193248748779296875" lon="11.02629530243575572967529296875">
        <ele>1251.4000244140625</ele>
        <time>2026-09-01T06:45:36.000Z</time>
        <extensions>
          <ns3:TrackPointExtension>
            <ns3:hr>188</ns3:hr>
            <ns3:cad>0</ns3:cad>
          </ns3:TrackPointExtension>
        </extensions>
      </trkpt>
      <trkpt lat="47.55978855304419994354248046875" lon="11.026304103434085845947265625">
        <ele>1251.800048828125</ele>
        <time>2026-09-01T06:45:37.000Z</time>
        <extensions>
          <ns3:TrackPointExtension>
            <ns3:hr>188</ns3:hr>
            <ns3:cad>0</ns3:cad>
          </ns3:TrackPointExtension>
        </extensions>
      </trkpt>
      <trkpt lat="47.5597911514341831207275390625" lon="11.02631919085979461669921875">
        <ele>1252.199951171875</ele>
        <time>2026-09-01T06:45:38.000Z</time>
        <extensions>
          <ns3:TrackPointExtension>
            <ns3:hr>188</ns3:hr>
            <ns3:cad>0</ns3:cad>
          </ns3:TrackPointExtension>
        </extensions>
      </trkpt>
      <trkpt lat="47.55978536792099475860595703125" lon="11.0263320989906787872314453125">
        <ele>1252.800048828125</ele>
        <time>2026-09-01T06:45:39.000Z</time>
        <extensions>
          <ns3:TrackPointExtension>
            <ns3:hr>188</ns3:hr>
            <ns3:cad>0</ns3:cad>
          </ns3:TrackPointExtension>
        </extensions>
      </trkpt>
      <trkpt lat="47.5597877986729145050048828125" lon="11.026335619390010833740234375">
        <ele>1253.199951171875</ele>
        <time>2026-09-01T06:45:40.000Z</time>
        <extensions>
          <ns3:TrackPointExtension>
            <ns3:hr>189</ns3:hr>
            <ns3:cad>42</ns3:cad>
          </ns3:TrackPointExtension>
        </extensions>
      </trkpt>
      <trkpt lat="47.55978235043585300445556640625" lon="11.02632966823875904083251953125">
        <ele>1253.4000244140625</ele>
        <time>2026-09-01T06:45:41.000Z</time>
        <extensions>
          <ns3:TrackPointExtension>
            <ns3:hr>189</ns3:hr>
            <ns3:cad>42</ns3:cad>
          </ns3:TrackPointExtension>
        </extensions>
      </trkpt>
      <trkpt lat="47.5597780756652355194091796875" lon="11.02632514201104640960693359375">
        <ele>1253.800048828125</ele>
        <time>2026-09-01T06:45:42.000Z</time>
        <extensions>
          <ns3:TrackPointExtension>
            <ns3:hr>189</ns3:hr>
            <ns3:cad>42</ns3:cad>
          </ns3:TrackPointExtension>
        </extensions>
      </trkpt>
      <trkpt lat="47.55977757275104522705078125" lon="11.0263217054307460784912109375">
        <ele>1254.4000244140625</ele>
        <time>2026-09-01T06:45:43.000Z</time>
        <extensions>
          <ns3:TrackPointExtension>
            <ns3:hr>189</ns3:hr>
            <ns3:cad>42</ns3:cad>
          </ns3:TrackPointExtension>
        </extensions>
      </trkpt>
      <trkpt lat="47.55978452973067760467529296875" lon="11.0263133235275745391845703125">
        <ele>1254.5999755859375</ele>
        <time>2026-09-01T06:45:44.000Z</time>
        <extensions>
          <ns3:TrackPointExtension>
            <ns3:hr>188</ns3:hr>
            <ns3:cad>0</ns3:cad>
          </ns3:TrackPointExtension>
        </extensions>
      </trkpt>
      <trkpt lat="47.55978167988359928131103515625" lon="11.02631156332790851593017578125">
        <ele>1255</ele>
        <time>2026-09-01T06:45:45.000Z</time>
        <extensions>
          <ns3:TrackPointExtension>
            <ns3:hr>188</ns3:hr>
            <ns3:cad>0</ns3:cad>
          </ns3:TrackPointExtension>
        </extensions>
      </trkpt>
      <trkpt lat="47.5597727112472057342529296875" lon="11.02631055749952793121337890625">
        <ele>1255.4000244140625</ele>
        <time>2026-09-01T06:45:46.000Z</time>
        <extensions>
          <ns3:TrackPointExtension>
            <ns3:hr>188</ns3:hr>
            <ns3:cad>0</ns3:cad>
          </ns3:TrackPointExtension>
        </extensions>
      </trkpt>
      <trkpt lat="47.5597693584859371185302734375" lon="11.02631189860403537750244140625">
        <ele>1255.5999755859375</ele>
        <time>2026-09-01T06:45:47.000Z</time>
        <extensions>
          <ns3:TrackPointExtension>
            <ns3:hr>187</ns3:hr>
            <ns3:cad>0</ns3:cad>
          </ns3:TrackPointExtension>
        </extensions>
      </trkpt>
      <trkpt lat="47.55977245979011058807373046875" lon="11.02630636654794216156005859375">
        <ele>1256</ele>
        <time>2026-09-01T06:45:48.000Z</time>
        <extensions>
          <ns3:TrackPointExtension>
            <ns3:hr>187</ns3:hr>
            <ns3:cad>0</ns3:cad>
          </ns3:TrackPointExtension>
        </extensions>
      </trkpt>
      <trkpt lat="47.55977547727525234222412109375" lon="11.02629840373992919921875">
        <ele>1256.4000244140625</ele>
        <time>2026-09-01T06:45:49.000Z</time>
        <extensions>
          <ns3:TrackPointExtension>
            <ns3:hr>186</ns3:hr>
            <ns3:cad>0</ns3:cad>
          </ns3:TrackPointExtension>
        </extensions>
      </trkpt>
      <trkpt lat="47.55976944230496883392333984375" lon="11.0262891836464405059814453125">
        <ele>1256.5999755859375</ele>
        <time>2026-09-01T06:45:50.000Z</time>
        <extensions>
          <ns3:TrackPointExtension>
            <ns3:hr>186</ns3:hr>
            <ns3:cad>0</ns3:cad>
          </ns3:TrackPointExtension>
        </extensions>
      </trkpt>
      <trkpt lat="47.5597666762769222259521484375" lon="11.026284992694854736328125">
        <ele>1257</ele>
        <time>2026-09-01T06:45:51.000Z</time>
        <extensions>
          <ns3:TrackPointExtension>
            <ns3:hr>185</ns3:hr>
            <ns3:cad>0</ns3:cad>
          </ns3:TrackPointExtension>
        </extensions>
      </trkpt>
      <trkpt lat="47.5597646646201610565185546875" lon="11.02628163993358612060546875">
        <ele>1257.199951171875</ele>
        <time>2026-09-01T06:45:52.000Z</time>
        <extensions>
          <ns3:TrackPointExtension>
            <ns3:hr>185</ns3:hr>
            <ns3:cad>0</ns3:cad>
          </ns3:TrackPointExtension>
        </extensions>
      </trkpt>
      <trkpt lat="47.5597608089447021484375" lon="11.026277951896190643310546875">
        <ele>1257.4000244140625</ele>
        <time>2026-09-01T06:45:53.000Z</time>
        <extensions>
          <ns3:TrackPointExtension>
            <ns3:hr>185</ns3:hr>
            <ns3:cad>0</ns3:cad>
          </ns3:TrackPointExtension>
        </extensions>
      </trkpt>
      <trkpt lat="47.55976156331598758697509765625" lon="11.02627987973392009735107421875">
        <ele>1257.5999755859375</ele>
        <time>2026-09-01T06:45:54.000Z</time>
        <extensions>
          <ns3:TrackPointExtension>
            <ns3:hr>185</ns3:hr>
            <ns3:cad>0</ns3:cad>
          </ns3:TrackPointExtension>
        </extensions>
      </trkpt>
      <trkpt lat="47.5597603060305118560791015625" lon="11.02627652697265148162841796875">
        <ele>1258</ele>
        <time>2026-09-01T06:45:55.000Z</time>
        <extensions>
          <ns3:TrackPointExtension>
            <ns3:hr>185</ns3:hr>
            <ns3:cad>0</ns3:cad>
          </ns3:TrackPointExtension>
        </extensions>
      </trkpt>
      <trkpt lat="47.55976089276373386383056640625" lon="11.02627216838300228118896484375">
        <ele>1258.199951171875</ele>
        <time>2026-09-01T06:45:56.000Z</time>
        <extensions>
          <ns3:TrackPointExtension>
            <ns3:hr>184</ns3:hr>
            <ns3:cad>0</ns3:cad>
          </ns3:TrackPointExtension>
        </extensions>
      </trkpt>
      <trkpt lat="47.5597556121647357940673828125" lon="11.02626227773725986480712890625">
        <ele>1258.5999755859375</ele>
        <time>2026-09-01T06:45:57.000Z</time>
        <extensions>
          <ns3:TrackPointExtension>
            <ns3:hr>184</ns3:hr>
            <ns3:cad>0</ns3:cad>
          </ns3:TrackPointExtension>
        </extensions>
      </trkpt>
      <trkpt lat="47.55975368432700634002685546875" lon="11.02625691331923007965087890625">
        <ele>1259</ele>
        <time>2026-09-01T06:45:58.000Z</time>
        <extensions>
          <ns3:TrackPointExtension>
            <ns3:hr>184</ns3:hr>
            <ns3:cad>0</ns3:cad>
          </ns3:TrackPointExtension>
        </extensions>
      </trkpt>
      <trkpt lat="47.5597519241273403167724609375" lon="11.02625423111021518707275390625">
        <ele>1259.4000244140625</ele>
        <time>2026-09-01T06:45:59.000Z</time>
        <extensions>
          <ns3:TrackPointExtension>
            <ns3:hr>183</ns3:hr>
            <ns3:cad>0</ns3:cad>
          </ns3:TrackPointExtension>
        </extensions>
      </trkpt>
      <trkpt lat="47.5597495771944522857666015625" lon="11.02624635212123394012451171875">
        <ele>1259.800048828125</ele>
        <time>2026-09-01T06:46:00.000Z</time>
        <extensions>
          <ns3:TrackPointExtension>
            <ns3:hr>183</ns3:hr>
            <ns3:cad>0</ns3:cad>
          </ns3:TrackPointExtension>
        </extensions>
      </trkpt>
      <trkpt lat="47.5597475655376911163330078125" lon="11.0262353718280792236328125">
        <ele>1260</ele>
        <time>2026-09-01T06:46:01.000Z</time>
        <extensions>
          <ns3:TrackPointExtension>
            <ns3:hr>183</ns3:hr>
            <ns3:cad>0</ns3:cad>
          </ns3:TrackPointExtension>
        </extensions>
      </trkpt>
      <trkpt lat="47.55974731408059597015380859375" lon="11.0262234695255756378173828125">
        <ele>1260.199951171875</ele>
        <time>2026-09-01T06:46:02.000Z</time>
        <extensions>
          <ns3:TrackPointExtension>
            <ns3:hr>183</ns3:hr>
            <ns3:cad>0</ns3:cad>
          </ns3:TrackPointExtension>
        </extensions>
      </trkpt>
      <trkpt lat="47.55974597297608852386474609375" lon="11.026215255260467529296875">
        <ele>1260.4000244140625</ele>
        <time>2026-09-01T06:46:03.000Z</time>
        <extensions>
          <ns3:TrackPointExtension>
            <ns3:hr>183</ns3:hr>
            <ns3:cad>0</ns3:cad>
          </ns3:TrackPointExtension>
        </extensions>
      </trkpt>
      <trkpt lat="47.55974479950964450836181640625" lon="11.02621366269886493682861328125">
        <ele>1260.5999755859375</ele>
        <time>2026-09-01T06:46:04.000Z</time>
        <extensions>
          <ns3:TrackPointExtension>
            <ns3:hr>183</ns3:hr>
            <ns3:cad>0</ns3:cad>
          </ns3:TrackPointExtension>
        </extensions>
      </trkpt>
      <trkpt lat="47.5597438775002956390380859375" lon="11.0262140817940235137939453125">
        <ele>1261</ele>
        <time>2026-09-01T06:46:05.000Z</time>
        <extensions>
          <ns3:TrackPointExtension>
            <ns3:hr>183</ns3:hr>
            <ns3:cad>0</ns3:cad>
          </ns3:TrackPointExtension>
        </extensions>
      </trkpt>
      <trkpt lat="47.5597395189106464385986328125" lon="11.02620427496731281280517578125">
        <ele>1261.5999755859375</ele>
        <time>2026-09-01T06:46:06.000Z</time>
        <extensions>
          <ns3:TrackPointExtension>
            <ns3:hr>183</ns3:hr>
            <ns3:cad>0</ns3:cad>
          </ns3:TrackPointExtension>
        </extensions>
      </trkpt>
      <trkpt lat="47.55974345840513706207275390625" lon="11.02620008401572704315185546875">
        <ele>1262</ele>
        <time>2026-09-01T06:46:07.000Z</time>
        <extensions>
          <ns3:TrackPointExtension>
            <ns3:hr>184</ns3:hr>
            <ns3:cad>0</ns3:cad>
          </ns3:TrackPointExtension>
        </extensions>
      </trkpt>
      <trkpt lat="47.55973599851131439208984375" lon="11.02619622834026813507080078125">
        <ele>1262.4000244140625</ele>
        <time>2026-09-01T06:46:08.000Z</time>
        <extensions>
          <ns3:TrackPointExtension>
            <ns3:hr>184</ns3:hr>
            <ns3:cad>0</ns3:cad>
          </ns3:TrackPointExtension>
        </extensions>
      </trkpt>
      <trkpt lat="47.55972803570330142974853515625" lon="11.0261932946741580963134765625">
        <ele>1262.4000244140625</ele>
        <time>2026-09-01T06:46:09.000Z</time>
        <extensions>
          <ns3:TrackPointExtension>
            <ns3:hr>184</ns3:hr>
            <ns3:cad>0</ns3:cad>
          </ns3:TrackPointExtension>
        </extensions>
      </trkpt>
      <trkpt lat="47.5597187317907810211181640625" lon="11.02618918754160404205322265625">
        <ele>1262.5999755859375</ele>
        <time>2026-09-01T06:46:10.000Z</time>
        <extensions>
          <ns3:TrackPointExtension>
            <ns3:hr>184</ns3:hr>
            <ns3:cad>0</ns3:cad>
          </ns3:TrackPointExtension>
        </extensions>
      </trkpt>
      <trkpt lat="47.55970758385956287384033203125" lon="11.02618633769452571868896484375">
        <ele>1262.800048828125</ele>
        <time>2026-09-01T06:46:11.000Z</time>
        <extensions>
          <ns3:TrackPointExtension>
            <ns3:hr>183</ns3:hr>
            <ns3:cad>0</ns3:cad>
          </ns3:TrackPointExtension>
        </extensions>
      </trkpt>
      <trkpt lat="47.559698782861232757568359375" lon="11.02617845870554447174072265625">
        <ele>1263</ele>
        <time>2026-09-01T06:46:12.000Z</time>
        <extensions>
          <ns3:TrackPointExtension>
            <ns3:hr>183</ns3:hr>
            <ns3:cad>43</ns3:cad>
          </ns3:TrackPointExtension>
        </extensions>
      </trkpt>
      <trkpt lat="47.5596949271857738494873046875" lon="11.0261738486588001251220703125">
        <ele>1263.199951171875</ele>
        <time>2026-09-01T06:46:13.000Z</time>
        <extensions>
          <ns3:TrackPointExtension>
            <ns3:hr>182</ns3:hr>
            <ns3:cad>43</ns3:cad>
          </ns3:TrackPointExtension>
        </extensions>
      </trkpt>
      <trkpt lat="47.5596895627677440643310546875" lon="11.02617024444043636322021484375">
        <ele>1263.5999755859375</ele>
        <time>2026-09-01T06:46:14.000Z</time>
        <extensions>
          <ns3:TrackPointExtension>
            <ns3:hr>182</ns3:hr>
            <ns3:cad>43</ns3:cad>
          </ns3:TrackPointExtension>
        </extensions>
      </trkpt>
      <trkpt lat="47.55968227051198482513427734375" lon="11.02616722695529460906982421875">
        <ele>1264.199951171875</ele>
        <time>2026-09-01T06:46:15.000Z</time>
        <extensions>
          <ns3:TrackPointExtension>
            <ns3:hr>181</ns3:hr>
            <ns3:cad>0</ns3:cad>
          </ns3:TrackPointExtension>
        </extensions>
      </trkpt>
      <trkpt lat="47.5596749782562255859375" lon="11.02616353891789913177490234375">
        <ele>1264.5999755859375</ele>
        <time>2026-09-01T06:46:16.000Z</time>
        <extensions>
          <ns3:TrackPointExtension>
            <ns3:hr>181</ns3:hr>
            <ns3:cad>0</ns3:cad>
          </ns3:TrackPointExtension>
        </extensions>
      </trkpt>
      <trkpt lat="47.559660561382770538330078125" lon="11.0261530615389347076416015625">
        <ele>1265</ele>
        <time>2026-09-01T06:46:17.000Z</time>
        <extensions>
          <ns3:TrackPointExtension>
            <ns3:hr>180</ns3:hr>
            <ns3:cad>0</ns3:cad>
          </ns3:TrackPointExtension>
        </extensions>
      </trkpt>
      <trkpt lat="47.55962393246591091156005859375" lon="11.0261280834674835205078125">
        <ele>1265.199951171875</ele>
        <time>2026-09-01T06:46:18.000Z</time>
        <extensions>
          <ns3:TrackPointExtension>
            <ns3:hr>180</ns3:hr>
            <ns3:cad>0</ns3:cad>
          </ns3:TrackPointExtension>
        </extensions>
      </trkpt>
      <trkpt lat="47.5596117787063121795654296875" lon="11.0261252336204051971435546875">
        <ele>1265.4000244140625</ele>
        <time>2026-09-01T06:46:19.000Z</time>
        <extensions>
          <ns3:TrackPointExtension>
            <ns3:hr>179</ns3:hr>
            <ns3:cad>0</ns3:cad>
          </ns3:TrackPointExtension>
        </extensions>
      </trkpt>
      <trkpt lat="47.55960264243185520172119140625" lon="11.02612514980137348175048828125">
        <ele>1265.4000244140625</ele>
        <time>2026-09-01T06:46:20.000Z</time>
        <extensions>
          <ns3:TrackPointExtension>
            <ns3:hr>179</ns3:hr>
            <ns3:cad>0</ns3:cad>
          </ns3:TrackPointExtension>
        </extensions>
      </trkpt>
      <trkpt lat="47.5595993734896183013916015625" lon="11.026129424571990966796875">
        <ele>1265.5999755859375</ele>
        <time>2026-09-01T06:46:21.000Z</time>
        <extensions>
          <ns3:TrackPointExtension>
            <ns3:hr>178</ns3:hr>
            <ns3:cad>0</ns3:cad>
          </ns3:TrackPointExtension>
        </extensions>
      </trkpt>
      <trkpt lat="47.5595904886722564697265625" lon="11.02614040486514568328857421875">
        <ele>1265.800048828125</ele>
        <time>2026-09-01T06:46:22.000Z</time>
        <extensions>
          <ns3:TrackPointExtension>
            <ns3:hr>178</ns3:hr>
            <ns3:cad>0</ns3:cad>
          </ns3:TrackPointExtension>
        </extensions>
      </trkpt>
      <trkpt lat="47.55958269350230693817138671875" lon="11.02614308707416057586669921875">
        <ele>1266</ele>
        <time>2026-09-01T06:46:23.000Z</time>
        <extensions>
          <ns3:TrackPointExtension>
            <ns3:hr>178</ns3:hr>
            <ns3:cad>0</ns3:cad>
          </ns3:TrackPointExtension>
        </extensions>
      </trkpt>
      <trkpt lat="47.55957850255072116851806640625" lon="11.0261540673673152923583984375">
        <ele>1266.4000244140625</ele>
        <time>2026-09-01T06:46:24.000Z</time>
        <extensions>
          <ns3:TrackPointExtension>
            <ns3:hr>177</ns3:hr>
            <ns3:cad>0</ns3:cad>
          </ns3:TrackPointExtension>
        </extensions>
      </trkpt>
      <trkpt lat="47.5595718808472156524658203125" lon="11.02616337127983570098876953125">
        <ele>1266.800048828125</ele>
        <time>2026-09-01T06:46:25.000Z</time>
        <extensions>
          <ns3:TrackPointExtension>
            <ns3:hr>178</ns3:hr>
            <ns3:cad>0</ns3:cad>
          </ns3:TrackPointExtension>
        </extensions>
      </trkpt>
      <trkpt lat="47.55957162939012050628662109375" lon="11.02617426775395870208740234375">
        <ele>1267.199951171875</ele>
        <time>2026-09-01T06:46:26.000Z</time>
        <extensions>
          <ns3:TrackPointExtension>
            <ns3:hr>178</ns3:hr>
            <ns3:cad>0</ns3:cad>
          </ns3:TrackPointExtension>
        </extensions>
      </trkpt>
      <trkpt lat="47.55955905653536319732666015625" lon="11.02618399076163768768310546875">
        <ele>1267.5999755859375</ele>
        <time>2026-09-01T06:46:27.000Z</time>
        <extensions>
          <ns3:TrackPointExtension>
            <ns3:hr>177</ns3:hr>
            <ns3:cad>0</ns3:cad>
          </ns3:TrackPointExtension>
        </extensions>
      </trkpt>
      <trkpt lat="47.559553273022174835205078125" lon="11.026196815073490142822265625">
        <ele>1268.199951171875</ele>
        <time>2026-09-01T06:46:28.000Z</time>
        <extensions>
          <ns3:TrackPointExtension>
            <ns3:hr>177</ns3:hr>
            <ns3:cad>0</ns3:cad>
          </ns3:TrackPointExtension>
        </extensions>
      </trkpt>
      <trkpt lat="47.55954966880381107330322265625" lon="11.026205532252788543701171875">
        <ele>1268.4000244140625</ele>
        <time>2026-09-01T06:46:29.000Z</time>
        <extensions>
          <ns3:TrackPointExtension>
            <ns3:hr>177</ns3:hr>
            <ns3:cad>0</ns3:cad>
          </ns3:TrackPointExtension>
        </extensions>
      </trkpt>
      <trkpt lat="47.55953642539680004119873046875" lon="11.02621500380337238311767578125">
        <ele>1268.5999755859375</ele>
        <time>2026-09-01T06:46:30.000Z</time>
        <extensions>
          <ns3:TrackPointExtension>
            <ns3:hr>177</ns3:hr>
            <ns3:cad>0</ns3:cad>
          </ns3:TrackPointExtension>
        </extensions>
      </trkpt>
      <trkpt lat="47.559531815350055694580078125" lon="11.02622372098267078399658203125">
        <ele>1269</ele>
        <time>2026-09-01T06:46:31.000Z</time>
        <extensions>
          <ns3:TrackPointExtension>
            <ns3:hr>178</ns3:hr>
            <ns3:cad>0</ns3:cad>
          </ns3:TrackPointExtension>
        </extensions>
      </trkpt>
      <trkpt lat="47.55951899103820323944091796875" lon="11.026230342686176300048828125">
        <ele>1269.199951171875</ele>
        <time>2026-09-01T06:46:32.000Z</time>
        <extensions>
          <ns3:TrackPointExtension>
            <ns3:hr>178</ns3:hr>
            <ns3:cad>0</ns3:cad>
          </ns3:TrackPointExtension>
        </extensions>
      </trkpt>
      <trkpt lat="47.559511698782444000244140625" lon="11.02624098770320415496826171875">
        <ele>1269.5999755859375</ele>
        <time>2026-09-01T06:46:33.000Z</time>
        <extensions>
          <ns3:TrackPointExtension>
            <ns3:hr>178</ns3:hr>
            <ns3:cad>0</ns3:cad>
          </ns3:TrackPointExtension>
        </extensions>
      </trkpt>
      <trkpt lat="47.55950574763119220733642578125" lon="11.02623763494193553924560546875">
        <ele>1270</ele>
        <time>2026-09-01T06:46:34.000Z</time>
        <extensions>
          <ns3:TrackPointExtension>
            <ns3:hr>179</ns3:hr>
            <ns3:cad>0</ns3:cad>
          </ns3:TrackPointExtension>
        </extensions>
      </trkpt>
      <trkpt lat="47.55950340069830417633056640625" lon="11.0262331925332546234130859375">
        <ele>1270.199951171875</ele>
        <time>2026-09-01T06:46:35.000Z</time>
        <extensions>
          <ns3:TrackPointExtension>
            <ns3:hr>179</ns3:hr>
            <ns3:cad>0</ns3:cad>
          </ns3:TrackPointExtension>
        </extensions>
      </trkpt>
      <trkpt lat="47.55950055085122585296630859375" lon="11.02623143233358860015869140625">
        <ele>1270.5999755859375</ele>
        <time>2026-09-01T06:46:36.000Z</time>
        <extensions>
          <ns3:TrackPointExtension>
            <ns3:hr>179</ns3:hr>
            <ns3:cad>0</ns3:cad>
          </ns3:TrackPointExtension>
        </extensions>
      </trkpt>
      <trkpt lat="47.55949686281383037567138671875" lon="11.0262326896190643310546875">
        <ele>1270.800048828125</ele>
        <time>2026-09-01T06:46:37.000Z</time>
        <extensions>
          <ns3:TrackPointExtension>
            <ns3:hr>180</ns3:hr>
            <ns3:cad>0</ns3:cad>
          </ns3:TrackPointExtension>
        </extensions>
      </trkpt>
      <trkpt lat="47.559495270252227783203125" lon="11.0262301750481128692626953125">
        <ele>1271.199951171875</ele>
        <time>2026-09-01T06:46:38.000Z</time>
        <extensions>
          <ns3:TrackPointExtension>
            <ns3:hr>180</ns3:hr>
            <ns3:cad>0</ns3:cad>
          </ns3:TrackPointExtension>
        </extensions>
      </trkpt>
      <trkpt lat="47.55948663689196109771728515625" lon="11.0262315161526203155517578125">
        <ele>1271.800048828125</ele>
        <time>2026-09-01T06:46:39.000Z</time>
        <extensions>
          <ns3:TrackPointExtension>
            <ns3:hr>181</ns3:hr>
            <ns3:cad>20</ns3:cad>
          </ns3:TrackPointExtension>
        </extensions>
      </trkpt>
      <trkpt lat="47.559482194483280181884765625" lon="11.026230342686176300048828125">
        <ele>1272.4000244140625</ele>
        <time>2026-09-01T06:46:40.000Z</time>
        <extensions>
          <ns3:TrackPointExtension>
            <ns3:hr>183</ns3:hr>
            <ns3:cad>66</ns3:cad>
          </ns3:TrackPointExtension>
        </extensions>
      </trkpt>
      <trkpt lat="47.559477500617504119873046875" lon="11.0262301750481128692626953125">
        <ele>1273</ele>
        <time>2026-09-01T06:46:41.000Z</time>
        <extensions>
          <ns3:TrackPointExtension>
            <ns3:hr>185</ns3:hr>
            <ns3:cad>66</ns3:cad>
          </ns3:TrackPointExtension>
        </extensions>
      </trkpt>
      <trkpt lat="47.559471465647220611572265625" lon="11.02623310871422290802001953125">
        <ele>1273.4000244140625</ele>
        <time>2026-09-01T06:46:42.000Z</time>
        <extensions>
          <ns3:TrackPointExtension>
            <ns3:hr>187</ns3:hr>
            <ns3:cad>0</ns3:cad>
          </ns3:TrackPointExtension>
        </extensions>
      </trkpt>
      <trkpt lat="47.55946735851466655731201171875" lon="11.0262385569512844085693359375">
        <ele>1273.5999755859375</ele>
        <time>2026-09-01T06:46:43.000Z</time>
        <extensions>
          <ns3:TrackPointExtension>
            <ns3:hr>188</ns3:hr>
            <ns3:cad>0</ns3:cad>
          </ns3:TrackPointExtension>
        </extensions>
      </trkpt>
      <trkpt lat="47.5594629161059856414794921875" lon="11.02624316699802875518798828125">
        <ele>1273.5999755859375</ele>
        <time>2026-09-01T06:46:44.000Z</time>
        <extensions>
          <ns3:TrackPointExtension>
            <ns3:hr>189</ns3:hr>
            <ns3:cad>0</ns3:cad>
          </ns3:TrackPointExtension>
        </extensions>
      </trkpt>
      <trkpt lat="47.55946065299212932586669921875" lon="11.0262472741305828094482421875">
        <ele>1273.800048828125</ele>
        <time>2026-09-01T06:46:45.000Z</time>
        <extensions>
          <ns3:TrackPointExtension>
            <ns3:hr>190</ns3:hr>
            <ns3:cad>0</ns3:cad>
          </ns3:TrackPointExtension>
        </extensions>
      </trkpt>
      <trkpt lat="47.55945562385022640228271484375" lon="11.02625607512891292572021484375">
        <ele>1274.199951171875</ele>
        <time>2026-09-01T06:46:46.000Z</time>
        <extensions>
          <ns3:TrackPointExtension>
            <ns3:hr>189</ns3:hr>
            <ns3:cad>0</ns3:cad>
          </ns3:TrackPointExtension>
        </extensions>
      </trkpt>
      <trkpt lat="47.55944321863353252410888671875" lon="11.0262697376310825347900390625">
        <ele>1274.4000244140625</ele>
        <time>2026-09-01T06:46:47.000Z</time>
        <extensions>
          <ns3:TrackPointExtension>
            <ns3:hr>186</ns3:hr>
            <ns3:cad>0</ns3:cad>
          </ns3:TrackPointExtension>
        </extensions>
      </trkpt>
      <trkpt lat="47.55942712537944316864013671875" lon="11.0262891836464405059814453125">
        <ele>1274.5999755859375</ele>
        <time>2026-09-01T06:46:48.000Z</time>
        <extensions>
          <ns3:TrackPointExtension>
            <ns3:hr>182</ns3:hr>
            <ns3:cad>0</ns3:cad>
          </ns3:TrackPointExtension>
        </extensions>
      </trkpt>
      <trkpt lat="47.55941949784755706787109375" lon="11.0263077914714813232421875">
        <ele>1274.800048828125</ele>
        <time>2026-09-01T06:46:49.000Z</time>
        <extensions>
          <ns3:TrackPointExtension>
            <ns3:hr>172</ns3:hr>
            <ns3:cad>0</ns3:cad>
          </ns3:TrackPointExtension>
        </extensions>
      </trkpt>
      <trkpt lat="47.55942092277109622955322265625" lon="11.0263213701546192169189453125">
        <ele>1275</ele>
        <time>2026-09-01T06:46:50.000Z</time>
        <extensions>
          <ns3:TrackPointExtension>
            <ns3:hr>167</ns3:hr>
            <ns3:cad>0</ns3:cad>
          </ns3:TrackPointExtension>
        </extensions>
      </trkpt>
      <trkpt lat="47.55940248258411884307861328125" lon="11.02634157054126262664794921875">
        <ele>1275</ele>
        <time>2026-09-01T06:46:51.000Z</time>
        <extensions>
          <ns3:TrackPointExtension>
            <ns3:hr>165</ns3:hr>
            <ns3:cad>0</ns3:cad>
          </ns3:TrackPointExtension>
        </extensions>
      </trkpt>
      <trkpt lat="47.55939804017543792724609375" lon="11.02635816670954227447509765625">
        <ele>1275.199951171875</ele>
        <time>2026-09-01T06:46:52.000Z</time>
        <extensions>
          <ns3:TrackPointExtension>
            <ns3:hr>165</ns3:hr>
            <ns3:cad>0</ns3:cad>
          </ns3:TrackPointExtension>
        </extensions>
      </trkpt>
      <trkpt lat="47.55940114147961139678955078125" lon="11.026370823383331298828125">
        <ele>1275.199951171875</ele>
        <time>2026-09-01T06:46:53.000Z</time>
        <extensions>
          <ns3:TrackPointExtension>
            <ns3:hr>165</ns3:hr>
            <ns3:cad>0</ns3:cad>
          </ns3:TrackPointExtension>
        </extensions>
      </trkpt>
      <trkpt lat="47.5594035722315311431884765625" lon="11.02638901211321353912353515625">
        <ele>1275.4000244140625</ele>
        <time>2026-09-01T06:46:54.000Z</time>
        <extensions>
          <ns3:TrackPointExtension>
            <ns3:hr>165</ns3:hr>
            <ns3:cad>0</ns3:cad>
          </ns3:TrackPointExtension>
        </extensions>
      </trkpt>
      <trkpt lat="47.55940030328929424285888671875" lon="11.026408709585666656494140625">
        <ele>1275.5999755859375</ele>
        <time>2026-09-01T06:46:55.000Z</time>
        <extensions>
          <ns3:TrackPointExtension>
            <ns3:hr>166</ns3:hr>
            <ns3:cad>0</ns3:cad>
          </ns3:TrackPointExtension>
        </extensions>
      </trkpt>
      <trkpt lat="47.55939980037510395050048828125" lon="11.02641767822206020355224609375">
        <ele>1276</ele>
        <time>2026-09-01T06:46:56.000Z</time>
        <extensions>
          <ns3:TrackPointExtension>
            <ns3:hr>166</ns3:hr>
            <ns3:cad>0</ns3:cad>
          </ns3:TrackPointExtension>
        </extensions>
      </trkpt>
      <trkpt lat="47.55939938127994537353515625" lon="11.0264232940971851348876953125">
        <ele>1276.199951171875</ele>
        <time>2026-09-01T06:46:57.000Z</time>
        <extensions>
          <ns3:TrackPointExtension>
            <ns3:hr>166</ns3:hr>
            <ns3:cad>0</ns3:cad>
          </ns3:TrackPointExtension>
        </extensions>
      </trkpt>
      <trkpt lat="47.559397704899311065673828125" lon="11.026436202228069305419921875">
        <ele>1276.4000244140625</ele>
        <time>2026-09-01T06:46:58.000Z</time>
        <extensions>
          <ns3:TrackPointExtension>
            <ns3:hr>167</ns3:hr>
            <ns3:cad>0</ns3:cad>
          </ns3:TrackPointExtension>
        </extensions>
      </trkpt>
      <trkpt lat="47.55939594469964504241943359375" lon="11.02644567377865314483642578125">
        <ele>1276.5999755859375</ele>
        <time>2026-09-01T06:46:59.000Z</time>
        <extensions>
          <ns3:TrackPointExtension>
            <ns3:hr>167</ns3:hr>
            <ns3:cad>60</ns3:cad>
          </ns3:TrackPointExtension>
        </extensions>
      </trkpt>
      <trkpt lat="47.55939745344221591949462890625" lon="11.02645874954760074615478515625">
        <ele>1276.800048828125</ele>
        <time>2026-09-01T06:47:00.000Z</time>
        <extensions>
          <ns3:TrackPointExtension>
            <ns3:hr>167</ns3:hr>
            <ns3:cad>60</ns3:cad>
          </ns3:TrackPointExtension>
        </extensions>
      </trkpt>
      <trkpt lat="47.55939527414739131927490234375" lon="11.0264687240123748779296875">
        <ele>1277</ele>
        <time>2026-09-01T06:47:01.000Z</time>
        <extensions>
          <ns3:TrackPointExtension>
            <ns3:hr>167</ns3:hr>
            <ns3:cad>60</ns3:cad>
          </ns3:TrackPointExtension>
        </extensions>
      </trkpt>
      <trkpt lat="47.5593941844999790191650390625" lon="11.02647878229618072509765625">
        <ele>1277.4000244140625</ele>
        <time>2026-09-01T06:47:02.000Z</time>
        <extensions>
          <ns3:TrackPointExtension>
            <ns3:hr>167</ns3:hr>
            <ns3:cad>51</ns3:cad>
          </ns3:TrackPointExtension>
        </extensions>
      </trkpt>
      <trkpt lat="47.55939326249063014984130859375" lon="11.02649278007447719573974609375">
        <ele>1277.800048828125</ele>
        <time>2026-09-01T06:47:03.000Z</time>
        <extensions>
          <ns3:TrackPointExtension>
            <ns3:hr>167</ns3:hr>
            <ns3:cad>46</ns3:cad>
          </ns3:TrackPointExtension>
        </extensions>
      </trkpt>
      <trkpt lat="47.559392340481281280517578125" lon="11.026505939662456512451171875">
        <ele>1278</ele>
        <time>2026-09-01T06:47:04.000Z</time>
        <extensions>
          <ns3:TrackPointExtension>
            <ns3:hr>167</ns3:hr>
            <ns3:cad>46</ns3:cad>
          </ns3:TrackPointExtension>
        </extensions>
      </trkpt>
      <trkpt lat="47.55939133465290069580078125" lon="11.0265215300023555755615234375">
        <ele>1278</ele>
        <time>2026-09-01T06:47:05.000Z</time>
        <extensions>
          <ns3:TrackPointExtension>
            <ns3:hr>168</ns3:hr>
            <ns3:cad>47</ns3:cad>
          </ns3:TrackPointExtension>
        </extensions>
      </trkpt>
      <trkpt lat="47.55939510650932788848876953125" lon="11.02653284557163715362548828125">
        <ele>1277.800048828125</ele>
        <time>2026-09-01T06:47:06.000Z</time>
        <extensions>
          <ns3:TrackPointExtension>
            <ns3:hr>168</ns3:hr>
            <ns3:cad>47</ns3:cad>
          </ns3:TrackPointExtension>
        </extensions>
      </trkpt>
      <trkpt lat="47.55939242430031299591064453125" lon="11.02655111812055110931396484375">
        <ele>1277.5999755859375</ele>
        <time>2026-09-01T06:47:07.000Z</time>
        <extensions>
          <ns3:TrackPointExtension>
            <ns3:hr>168</ns3:hr>
            <ns3:cad>47</ns3:cad>
          </ns3:TrackPointExtension>
        </extensions>
      </trkpt>
      <trkpt lat="47.5594005547463893890380859375" lon="11.0265641100704669952392578125">
        <ele>1277.5999755859375</ele>
        <time>2026-09-01T06:47:08.000Z</time>
        <extensions>
          <ns3:TrackPointExtension>
            <ns3:hr>168</ns3:hr>
            <ns3:cad>47</ns3:cad>
          </ns3:TrackPointExtension>
        </extensions>
      </trkpt>
      <trkpt lat="47.5594045780599117279052734375" lon="11.0265786945819854736328125">
        <ele>1277.800048828125</ele>
        <time>2026-09-01T06:47:09.000Z</time>
        <extensions>
          <ns3:TrackPointExtension>
            <ns3:hr>168</ns3:hr>
            <ns3:cad>44</ns3:cad>
          </ns3:TrackPointExtension>
        </extensions>
      </trkpt>
      <trkpt lat="47.5594320707023143768310546875" lon="11.02661012671887874603271484375">
        <ele>1278</ele>
        <time>2026-09-01T06:47:10.000Z</time>
        <extensions>
          <ns3:TrackPointExtension>
            <ns3:hr>169</ns3:hr>
            <ns3:cad>44</ns3:cad>
          </ns3:TrackPointExtension>
        </extensions>
      </trkpt>
      <trkpt lat="47.559446990489959716796875" lon="11.02663544006645679473876953125">
        <ele>1278.199951171875</ele>
        <time>2026-09-01T06:47:11.000Z</time>
        <extensions>
          <ns3:TrackPointExtension>
            <ns3:hr>169</ns3:hr>
            <ns3:cad>0</ns3:cad>
          </ns3:TrackPointExtension>
        </extensions>
      </trkpt>
      <trkpt lat="47.55944891832768917083740234375" lon="11.02665622718632221221923828125">
        <ele>1278.4000244140625</ele>
        <time>2026-09-01T06:47:12.000Z</time>
        <extensions>
          <ns3:TrackPointExtension>
            <ns3:hr>169</ns3:hr>
            <ns3:cad>0</ns3:cad>
          </ns3:TrackPointExtension>
        </extensions>
      </trkpt>
      <trkpt lat="47.55945377983152866363525390625" lon="11.0266740806400775909423828125">
        <ele>1278.4000244140625</ele>
        <time>2026-09-01T06:47:13.000Z</time>
        <extensions>
          <ns3:TrackPointExtension>
            <ns3:hr>169</ns3:hr>
            <ns3:cad>0</ns3:cad>
          </ns3:TrackPointExtension>
        </extensions>
      </trkpt>
      <trkpt lat="47.559450007975101470947265625" lon="11.02669679559767246246337890625">
        <ele>1278.800048828125</ele>
        <time>2026-09-01T06:47:14.000Z</time>
        <extensions>
          <ns3:TrackPointExtension>
            <ns3:hr>169</ns3:hr>
            <ns3:cad>0</ns3:cad>
          </ns3:TrackPointExtension>
        </extensions>
      </trkpt>
      <trkpt lat="47.55944724194705486297607421875" lon="11.02670769207179546356201171875">
        <ele>1279.199951171875</ele>
        <time>2026-09-01T06:47:15.000Z</time>
        <extensions>
          <ns3:TrackPointExtension>
            <ns3:hr>170</ns3:hr>
            <ns3:cad>0</ns3:cad>
          </ns3:TrackPointExtension>
        </extensions>
      </trkpt>
      <trkpt lat="47.5594461522996425628662109375" lon="11.02671322412788867950439453125">
        <ele>1279.5999755859375</ele>
        <time>2026-09-01T06:47:16.000Z</time>
        <extensions>
          <ns3:TrackPointExtension>
            <ns3:hr>172</ns3:hr>
            <ns3:cad>0</ns3:cad>
          </ns3:TrackPointExtension>
        </extensions>
      </trkpt>
      <trkpt lat="47.559440620243549346923828125" lon="11.026723198592662811279296875">
        <ele>1280</ele>
        <time>2026-09-01T06:47:17.000Z</time>
        <extensions>
          <ns3:TrackPointExtension>
            <ns3:hr>172</ns3:hr>
            <ns3:cad>0</ns3:cad>
          </ns3:TrackPointExtension>
        </extensions>
      </trkpt>
      <trkpt lat="47.55943500436842441558837890625" lon="11.02672780863940715789794921875">
        <ele>1280.4000244140625</ele>
        <time>2026-09-01T06:47:18.000Z</time>
        <extensions>
          <ns3:TrackPointExtension>
            <ns3:hr>173</ns3:hr>
            <ns3:cad>0</ns3:cad>
          </ns3:TrackPointExtension>
        </extensions>
      </trkpt>
      <trkpt lat="47.55943181924521923065185546875" lon="11.02673401124775409698486328125">
        <ele>1281</ele>
        <time>2026-09-01T06:47:19.000Z</time>
        <extensions>
          <ns3:TrackPointExtension>
            <ns3:hr>173</ns3:hr>
            <ns3:cad>0</ns3:cad>
          </ns3:TrackPointExtension>
        </extensions>
      </trkpt>
      <trkpt lat="47.55942544899880886077880859375" lon="11.0267449915409088134765625">
        <ele>1281.4000244140625</ele>
        <time>2026-09-01T06:47:20.000Z</time>
        <extensions>
          <ns3:TrackPointExtension>
            <ns3:hr>173</ns3:hr>
            <ns3:cad>0</ns3:cad>
          </ns3:TrackPointExtension>
        </extensions>
      </trkpt>
      <trkpt lat="47.55942025221884250640869140625" lon="11.0267501883208751678466796875">
        <ele>1282</ele>
        <time>2026-09-01T06:47:21.000Z</time>
        <extensions>
          <ns3:TrackPointExtension>
            <ns3:hr>172</ns3:hr>
            <ns3:cad>0</ns3:cad>
          </ns3:TrackPointExtension>
        </extensions>
      </trkpt>
      <trkpt lat="47.55941438488662242889404296875" lon="11.026754043996334075927734375">
        <ele>1282.5999755859375</ele>
        <time>2026-09-01T06:47:22.000Z</time>
        <extensions>
          <ns3:TrackPointExtension>
            <ns3:hr>172</ns3:hr>
            <ns3:cad>0</ns3:cad>
          </ns3:TrackPointExtension>
        </extensions>
      </trkpt>
      <trkpt lat="47.55940197966992855072021484375" lon="11.0267548821866512298583984375">
        <ele>1283</ele>
        <time>2026-09-01T06:47:23.000Z</time>
        <extensions>
          <ns3:TrackPointExtension>
            <ns3:hr>171</ns3:hr>
            <ns3:cad>0</ns3:cad>
          </ns3:TrackPointExtension>
        </extensions>
      </trkpt>
      <trkpt lat="47.55939862690865993499755859375" lon="11.0267488472163677215576171875">
        <ele>1283.199951171875</ele>
        <time>2026-09-01T06:47:24.000Z</time>
        <extensions>
          <ns3:TrackPointExtension>
            <ns3:hr>171</ns3:hr>
            <ns3:cad>0</ns3:cad>
          </ns3:TrackPointExtension>
        </extensions>
      </trkpt>
      <trkpt lat="47.55939074791967868804931640625" lon="11.02674725465476512908935546875">
        <ele>1283.5999755859375</ele>
        <time>2026-09-01T06:47:25.000Z</time>
        <extensions>
          <ns3:TrackPointExtension>
            <ns3:hr>170</ns3:hr>
            <ns3:cad>0</ns3:cad>
          </ns3:TrackPointExtension>
        </extensions>
      </trkpt>
      <trkpt lat="47.55938940681517124176025390625" lon="11.02674876339733600616455078125">
        <ele>1283.800048828125</ele>
        <time>2026-09-01T06:47:26.000Z</time>
        <extensions>
          <ns3:TrackPointExtension>
            <ns3:hr>170</ns3:hr>
            <ns3:cad>0</ns3:cad>
          </ns3:TrackPointExtension>
        </extensions>
      </trkpt>
      <trkpt lat="47.55938136018812656402587890625" lon="11.02674507535994052886962890625">
        <ele>1284</ele>
        <time>2026-09-01T06:47:27.000Z</time>
        <extensions>
          <ns3:TrackPointExtension>
            <ns3:hr>169</ns3:hr>
            <ns3:cad>0</ns3:cad>
          </ns3:TrackPointExtension>
        </extensions>
      </trkpt>
      <trkpt lat="47.5593804381787776947021484375" lon="11.02674901485443115234375">
        <ele>1284.199951171875</ele>
        <time>2026-09-01T06:47:28.000Z</time>
        <extensions>
          <ns3:TrackPointExtension>
            <ns3:hr>169</ns3:hr>
            <ns3:cad>0</ns3:cad>
          </ns3:TrackPointExtension>
        </extensions>
      </trkpt>
      <trkpt lat="47.55937390029430389404296875" lon="11.0267545469105243682861328125">
        <ele>1284.5999755859375</ele>
        <time>2026-09-01T06:47:29.000Z</time>
        <extensions>
          <ns3:TrackPointExtension>
            <ns3:hr>168</ns3:hr>
            <ns3:cad>0</ns3:cad>
          </ns3:TrackPointExtension>
        </extensions>
      </trkpt>
      <trkpt lat="47.55936828441917896270751953125" lon="11.02676401846110820770263671875">
        <ele>1285</ele>
        <time>2026-09-01T06:47:30.000Z</time>
        <extensions>
          <ns3:TrackPointExtension>
            <ns3:hr>167</ns3:hr>
            <ns3:cad>0</ns3:cad>
          </ns3:TrackPointExtension>
        </extensions>
      </trkpt>
      <trkpt lat="47.55938035435974597930908203125" lon="11.0267729870975017547607421875">
        <ele>1285.4000244140625</ele>
        <time>2026-09-01T06:47:31.000Z</time>
        <extensions>
          <ns3:TrackPointExtension>
            <ns3:hr>166</ns3:hr>
            <ns3:cad>0</ns3:cad>
          </ns3:TrackPointExtension>
        </extensions>
      </trkpt>
      <trkpt lat="47.55937281064689159393310546875" lon="11.0267798602581024169921875">
        <ele>1285.5999755859375</ele>
        <time>2026-09-01T06:47:32.000Z</time>
        <extensions>
          <ns3:TrackPointExtension>
            <ns3:hr>165</ns3:hr>
            <ns3:cad>0</ns3:cad>
          </ns3:TrackPointExtension>
        </extensions>
      </trkpt>
      <trkpt lat="47.55936920642852783203125" lon="11.02678815834224224090576171875">
        <ele>1286</ele>
        <time>2026-09-01T06:47:33.000Z</time>
        <extensions>
          <ns3:TrackPointExtension>
            <ns3:hr>165</ns3:hr>
            <ns3:cad>0</ns3:cad>
          </ns3:TrackPointExtension>
        </extensions>
      </trkpt>
      <trkpt lat="47.559365518391132354736328125" lon="11.02679134346544742584228515625">
        <ele>1286.199951171875</ele>
        <time>2026-09-01T06:47:34.000Z</time>
        <extensions>
          <ns3:TrackPointExtension>
            <ns3:hr>165</ns3:hr>
            <ns3:cad>0</ns3:cad>
          </ns3:TrackPointExtension>
        </extensions>
      </trkpt>
      <trkpt lat="47.55936493165791034698486328125" lon="11.026800312101840972900390625">
        <ele>1286.199951171875</ele>
        <time>2026-09-01T06:47:35.000Z</time>
        <extensions>
          <ns3:TrackPointExtension>
            <ns3:hr>164</ns3:hr>
            <ns3:cad>0</ns3:cad>
          </ns3:TrackPointExtension>
        </extensions>
      </trkpt>
      <trkpt lat="47.55936493165791034698486328125" lon="11.02680576033890247344970703125">
        <ele>1286.4000244140625</ele>
        <time>2026-09-01T06:47:36.000Z</time>
        <extensions>
          <ns3:TrackPointExtension>
            <ns3:hr>164</ns3:hr>
            <ns3:cad>0</ns3:cad>
          </ns3:TrackPointExtension>
        </extensions>
      </trkpt>
      <trkpt lat="47.559361495077610015869140625" lon="11.02680995129048824310302734375">
        <ele>1286.5999755859375</ele>
        <time>2026-09-01T06:47:37.000Z</time>
        <extensions>
          <ns3:TrackPointExtension>
            <ns3:hr>163</ns3:hr>
            <ns3:cad>0</ns3:cad>
          </ns3:TrackPointExtension>
        </extensions>
      </trkpt>
      <trkpt lat="47.55936585366725921630859375" lon="11.026811711490154266357421875">
        <ele>1286.800048828125</ele>
        <time>2026-09-01T06:47:38.000Z</time>
        <extensions>
          <ns3:TrackPointExtension>
            <ns3:hr>163</ns3:hr>
            <ns3:cad>0</ns3:cad>
          </ns3:TrackPointExtension>
        </extensions>
      </trkpt>
      <trkpt lat="47.55936585366725921630859375" lon="11.02680961601436138153076171875">
        <ele>1287</ele>
        <time>2026-09-01T06:47:39.000Z</time>
        <extensions>
          <ns3:TrackPointExtension>
            <ns3:hr>163</ns3:hr>
            <ns3:cad>0</ns3:cad>
          </ns3:TrackPointExtension>
        </extensions>
      </trkpt>
      <trkpt lat="47.55935872904956340789794921875" lon="11.02679930627346038818359375">
        <ele>1287.4000244140625</ele>
        <time>2026-09-01T06:47:40.000Z</time>
        <extensions>
          <ns3:TrackPointExtension>
            <ns3:hr>164</ns3:hr>
            <ns3:cad>0</ns3:cad>
          </ns3:TrackPointExtension>
        </extensions>
      </trkpt>
      <trkpt lat="47.55936292000114917755126953125" lon="11.0267932713031768798828125">
        <ele>1287.5999755859375</ele>
        <time>2026-09-01T06:47:41.000Z</time>
        <extensions>
          <ns3:TrackPointExtension>
            <ns3:hr>164</ns3:hr>
            <ns3:cad>0</ns3:cad>
          </ns3:TrackPointExtension>
        </extensions>
      </trkpt>
      <trkpt lat="47.559364177286624908447265625" lon="11.026789583265781402587890625">
        <ele>1287.800048828125</ele>
        <time>2026-09-01T06:47:42.000Z</time>
        <extensions>
          <ns3:TrackPointExtension>
            <ns3:hr>164</ns3:hr>
            <ns3:cad>71</ns3:cad>
          </ns3:TrackPointExtension>
        </extensions>
      </trkpt>
      <trkpt lat="47.55936124362051486968994140625" lon="11.02678053081035614013671875">
        <ele>1288.199951171875</ele>
        <time>2026-09-01T06:47:43.000Z</time>
        <extensions>
          <ns3:TrackPointExtension>
            <ns3:hr>164</ns3:hr>
            <ns3:cad>71</ns3:cad>
          </ns3:TrackPointExtension>
        </extensions>
      </trkpt>
      <trkpt lat="47.559359483420848846435546875" lon="11.02677742950618267059326171875">
        <ele>1288.4000244140625</ele>
        <time>2026-09-01T06:47:44.000Z</time>
        <extensions>
          <ns3:TrackPointExtension>
            <ns3:hr>164</ns3:hr>
            <ns3:cad>71</ns3:cad>
          </ns3:TrackPointExtension>
        </extensions>
      </trkpt>
      <trkpt lat="47.5593579746782779693603515625" lon="11.02677558548748493194580078125">
        <ele>1288.5999755859375</ele>
        <time>2026-09-01T06:47:45.000Z</time>
        <extensions>
          <ns3:TrackPointExtension>
            <ns3:hr>164</ns3:hr>
            <ns3:cad>71</ns3:cad>
          </ns3:TrackPointExtension>
        </extensions>
      </trkpt>
      <trkpt lat="47.5593556277453899383544921875" lon="11.02678027935326099395751953125">
        <ele>1289</ele>
        <time>2026-09-01T06:47:46.000Z</time>
        <extensions>
          <ns3:TrackPointExtension>
            <ns3:hr>164</ns3:hr>
            <ns3:cad>71</ns3:cad>
          </ns3:TrackPointExtension>
        </extensions>
      </trkpt>
      <trkpt lat="47.55936174653470516204833984375" lon="11.02678698487579822540283203125">
        <ele>1289.199951171875</ele>
        <time>2026-09-01T06:47:47.000Z</time>
        <extensions>
          <ns3:TrackPointExtension>
            <ns3:hr>163</ns3:hr>
            <ns3:cad>71</ns3:cad>
          </ns3:TrackPointExtension>
        </extensions>
      </trkpt>
      <trkpt lat="47.55937431938946247100830078125" lon="11.02679955773055553436279296875">
        <ele>1289.5999755859375</ele>
        <time>2026-09-01T06:47:48.000Z</time>
        <extensions>
          <ns3:TrackPointExtension>
            <ns3:hr>163</ns3:hr>
            <ns3:cad>71</ns3:cad>
          </ns3:TrackPointExtension>
        </extensions>
      </trkpt>
      <trkpt lat="47.5593812763690948486328125" lon="11.02680693380534648895263671875">
        <ele>1289.800048828125</ele>
        <time>2026-09-01T06:47:49.000Z</time>
        <extensions>
          <ns3:TrackPointExtension>
            <ns3:hr>162</ns3:hr>
            <ns3:cad>71</ns3:cad>
          </ns3:TrackPointExtension>
        </extensions>
      </trkpt>
      <trkpt lat="47.559385634958744049072265625" lon="11.026817746460437774658203125">
        <ele>1290.199951171875</ele>
        <time>2026-09-01T06:47:50.000Z</time>
        <extensions>
          <ns3:TrackPointExtension>
            <ns3:hr>161</ns3:hr>
            <ns3:cad>71</ns3:cad>
          </ns3:TrackPointExtension>
        </extensions>
      </trkpt>
      <trkpt lat="47.55939267575740814208984375" lon="11.02683157660067081451416015625">
        <ele>1290.4000244140625</ele>
        <time>2026-09-01T06:47:51.000Z</time>
        <extensions>
          <ns3:TrackPointExtension>
            <ns3:hr>160</ns3:hr>
            <ns3:cad>0</ns3:cad>
          </ns3:TrackPointExtension>
        </extensions>
      </trkpt>
      <trkpt lat="47.55938622169196605682373046875" lon="11.026834510266780853271484375">
        <ele>1290.5999755859375</ele>
        <time>2026-09-01T06:47:52.000Z</time>
        <extensions>
          <ns3:TrackPointExtension>
            <ns3:hr>160</ns3:hr>
            <ns3:cad>0</ns3:cad>
          </ns3:TrackPointExtension>
        </extensions>
      </trkpt>
      <trkpt lat="47.5593858025968074798583984375" lon="11.02685588411986827850341796875">
        <ele>1290.800048828125</ele>
        <time>2026-09-01T06:47:53.000Z</time>
        <extensions>
          <ns3:TrackPointExtension>
            <ns3:hr>160</ns3:hr>
            <ns3:cad>0</ns3:cad>
          </ns3:TrackPointExtension>
        </extensions>
      </trkpt>
      <trkpt lat="47.55938605405390262603759765625" lon="11.02687382139265537261962890625">
        <ele>1290.800048828125</ele>
        <time>2026-09-01T06:47:54.000Z</time>
        <extensions>
          <ns3:TrackPointExtension>
            <ns3:hr>160</ns3:hr>
            <ns3:cad>0</ns3:cad>
          </ns3:TrackPointExtension>
        </extensions>
      </trkpt>
      <trkpt lat="47.5593858025968074798583984375" lon="11.02689611725509166717529296875">
        <ele>1291</ele>
        <time>2026-09-01T06:47:55.000Z</time>
        <extensions>
          <ns3:TrackPointExtension>
            <ns3:hr>160</ns3:hr>
            <ns3:cad>0</ns3:cad>
          </ns3:TrackPointExtension>
        </extensions>
      </trkpt>
      <trkpt lat="47.5593864731490612030029296875" lon="11.02690869010984897613525390625">
        <ele>1291</ele>
        <time>2026-09-01T06:47:56.000Z</time>
        <extensions>
          <ns3:TrackPointExtension>
            <ns3:hr>159</ns3:hr>
            <ns3:cad>0</ns3:cad>
          </ns3:TrackPointExtension>
        </extensions>
      </trkpt>
      <trkpt lat="47.559385634958744049072265625" lon="11.02692578919231891632080078125">
        <ele>1291.199951171875</ele>
        <time>2026-09-01T06:47:57.000Z</time>
        <extensions>
          <ns3:TrackPointExtension>
            <ns3:hr>158</ns3:hr>
            <ns3:cad>0</ns3:cad>
          </ns3:TrackPointExtension>
        </extensions>
      </trkpt>
      <trkpt lat="47.55938119255006313323974609375" lon="11.02693400345742702484130859375">
        <ele>1291.4000244140625</ele>
        <time>2026-09-01T06:47:58.000Z</time>
        <extensions>
          <ns3:TrackPointExtension>
            <ns3:hr>157</ns3:hr>
            <ns3:cad>57</ns3:cad>
          </ns3:TrackPointExtension>
        </extensions>
      </trkpt>
      <trkpt lat="47.5593784265220165252685546875" lon="11.026943139731884002685546875">
        <ele>1291.5999755859375</ele>
        <time>2026-09-01T06:47:59.000Z</time>
        <extensions>
          <ns3:TrackPointExtension>
            <ns3:hr>157</ns3:hr>
            <ns3:cad>57</ns3:cad>
          </ns3:TrackPointExtension>
        </extensions>
      </trkpt>
      <trkpt lat="47.55937616340816020965576171875" lon="11.0269488394260406494140625">
        <ele>1291.800048828125</ele>
        <time>2026-09-01T06:48:00.000Z</time>
        <extensions>
          <ns3:TrackPointExtension>
            <ns3:hr>158</ns3:hr>
            <ns3:cad>0</ns3:cad>
          </ns3:TrackPointExtension>
        </extensions>
      </trkpt>
      <trkpt lat="47.5593747384846210479736328125" lon="11.0269573889672756195068359375">
        <ele>1292.199951171875</ele>
        <time>2026-09-01T06:48:01.000Z</time>
        <extensions>
          <ns3:TrackPointExtension>
            <ns3:hr>158</ns3:hr>
            <ns3:cad>0</ns3:cad>
          </ns3:TrackPointExtension>
        </extensions>
      </trkpt>
      <trkpt lat="47.55937264300882816314697265625" lon="11.02696719579398632049560546875">
        <ele>1292.5999755859375</ele>
        <time>2026-09-01T06:48:02.000Z</time>
        <extensions>
          <ns3:TrackPointExtension>
            <ns3:hr>159</ns3:hr>
            <ns3:cad>0</ns3:cad>
          </ns3:TrackPointExtension>
        </extensions>
      </trkpt>
      <trkpt lat="47.55937264300882816314697265625" lon="11.026979349553585052490234375">
        <ele>1293</ele>
        <time>2026-09-01T06:48:03.000Z</time>
        <extensions>
          <ns3:TrackPointExtension>
            <ns3:hr>160</ns3:hr>
            <ns3:cad>0</ns3:cad>
          </ns3:TrackPointExtension>
        </extensions>
      </trkpt>
      <trkpt lat="47.55937214009463787078857421875" lon="11.02699083276093006134033203125">
        <ele>1293.199951171875</ele>
        <time>2026-09-01T06:48:04.000Z</time>
        <extensions>
          <ns3:TrackPointExtension>
            <ns3:hr>160</ns3:hr>
            <ns3:cad>0</ns3:cad>
          </ns3:TrackPointExtension>
        </extensions>
      </trkpt>
      <trkpt lat="47.55937264300882816314697265625" lon="11.0270103625953197479248046875">
        <ele>1293.199951171875</ele>
        <time>2026-09-01T06:48:05.000Z</time>
        <extensions>
          <ns3:TrackPointExtension>
            <ns3:hr>160</ns3:hr>
            <ns3:cad>52</ns3:cad>
          </ns3:TrackPointExtension>
        </extensions>
      </trkpt>
      <trkpt lat="47.55937012843787670135498046875" lon="11.02703123353421688079833984375">
        <ele>1293</ele>
        <time>2026-09-01T06:48:06.000Z</time>
        <extensions>
          <ns3:TrackPointExtension>
            <ns3:hr>161</ns3:hr>
            <ns3:cad>58</ns3:cad>
          </ns3:TrackPointExtension>
        </extensions>
      </trkpt>
      <trkpt lat="47.55937348119914531707763671875" lon="11.02705118246376514434814453125">
        <ele>1293</ele>
        <time>2026-09-01T06:48:07.000Z</time>
        <extensions>
          <ns3:TrackPointExtension>
            <ns3:hr>161</ns3:hr>
            <ns3:cad>58</ns3:cad>
          </ns3:TrackPointExtension>
        </extensions>
      </trkpt>
      <trkpt lat="47.559378929436206817626953125" lon="11.027076244354248046875">
        <ele>1293</ele>
        <time>2026-09-01T06:48:08.000Z</time>
        <extensions>
          <ns3:TrackPointExtension>
            <ns3:hr>162</ns3:hr>
            <ns3:cad>0</ns3:cad>
          </ns3:TrackPointExtension>
        </extensions>
      </trkpt>
      <trkpt lat="47.5593852996826171875" lon="11.02709795348346233367919921875">
        <ele>1293</ele>
        <time>2026-09-01T06:48:09.000Z</time>
        <extensions>
          <ns3:TrackPointExtension>
            <ns3:hr>163</ns3:hr>
            <ns3:cad>0</ns3:cad>
          </ns3:TrackPointExtension>
        </extensions>
      </trkpt>
      <trkpt lat="47.55938907153904438018798828125" lon="11.0271213389933109283447265625">
        <ele>1293.199951171875</ele>
        <time>2026-09-01T06:48:10.000Z</time>
        <extensions>
          <ns3:TrackPointExtension>
            <ns3:hr>163</ns3:hr>
            <ns3:cad>0</ns3:cad>
          </ns3:TrackPointExtension>
        </extensions>
      </trkpt>
      <trkpt lat="47.55938806571066379547119140625" lon="11.02713902480900287628173828125">
        <ele>1293.4000244140625</ele>
        <time>2026-09-01T06:48:11.000Z</time>
        <extensions>
          <ns3:TrackPointExtension>
            <ns3:hr>165</ns3:hr>
            <ns3:cad>0</ns3:cad>
          </ns3:TrackPointExtension>
        </extensions>
      </trkpt>
      <trkpt lat="47.55939074791967868804931640625" lon="11.02715780027210712432861328125">
        <ele>1293.800048828125</ele>
        <time>2026-09-01T06:48:12.000Z</time>
        <extensions>
          <ns3:TrackPointExtension>
            <ns3:hr>165</ns3:hr>
            <ns3:cad>0</ns3:cad>
          </ns3:TrackPointExtension>
        </extensions>
      </trkpt>
      <trkpt lat="47.5593904964625835418701171875" lon="11.02717439644038677215576171875">
        <ele>1294.199951171875</ele>
        <time>2026-09-01T06:48:13.000Z</time>
        <extensions>
          <ns3:TrackPointExtension>
            <ns3:hr>165</ns3:hr>
            <ns3:cad>0</ns3:cad>
          </ns3:TrackPointExtension>
        </extensions>
      </trkpt>
      <trkpt lat="47.55938990972936153411865234375" lon="11.02719090878963470458984375">
        <ele>1294.4000244140625</ele>
        <time>2026-09-01T06:48:14.000Z</time>
        <extensions>
          <ns3:TrackPointExtension>
            <ns3:hr>165</ns3:hr>
            <ns3:cad>0</ns3:cad>
          </ns3:TrackPointExtension>
        </extensions>
      </trkpt>
      <trkpt lat="47.55938773043453693389892578125" lon="11.02721345610916614532470703125">
        <ele>1294.800048828125</ele>
        <time>2026-09-01T06:48:15.000Z</time>
        <extensions>
          <ns3:TrackPointExtension>
            <ns3:hr>166</ns3:hr>
            <ns3:cad>0</ns3:cad>
          </ns3:TrackPointExtension>
        </extensions>
      </trkpt>
      <trkpt lat="47.55938689224421977996826171875" lon="11.02723826654255390167236328125">
        <ele>1294.800048828125</ele>
        <time>2026-09-01T06:48:16.000Z</time>
        <extensions>
          <ns3:TrackPointExtension>
            <ns3:hr>167</ns3:hr>
            <ns3:cad>0</ns3:cad>
          </ns3:TrackPointExtension>
        </extensions>
      </trkpt>
      <trkpt lat="47.5593707151710987091064453125" lon="11.0272681899368762969970703125">
        <ele>1295</ele>
        <time>2026-09-01T06:48:17.000Z</time>
        <extensions>
          <ns3:TrackPointExtension>
            <ns3:hr>170</ns3:hr>
            <ns3:cad>0</ns3:cad>
          </ns3:TrackPointExtension>
        </extensions>
      </trkpt>
      <trkpt lat="47.55936208181083202362060546875" lon="11.02728738449513912200927734375">
        <ele>1295.199951171875</ele>
        <time>2026-09-01T06:48:18.000Z</time>
        <extensions>
          <ns3:TrackPointExtension>
            <ns3:hr>176</ns3:hr>
            <ns3:cad>0</ns3:cad>
          </ns3:TrackPointExtension>
        </extensions>
      </trkpt>
      <trkpt lat="47.559356130659580230712890625" lon="11.027308590710163116455078125">
        <ele>1295.4000244140625</ele>
        <time>2026-09-01T06:48:19.000Z</time>
        <extensions>
          <ns3:TrackPointExtension>
            <ns3:hr>180</ns3:hr>
            <ns3:cad>0</ns3:cad>
          </ns3:TrackPointExtension>
        </extensions>
      </trkpt>
      <trkpt lat="47.55935286171734333038330078125" lon="11.02732392959296703338623046875">
        <ele>1295.4000244140625</ele>
        <time>2026-09-01T06:48:20.000Z</time>
        <extensions>
          <ns3:TrackPointExtension>
            <ns3:hr>181</ns3:hr>
            <ns3:cad>0</ns3:cad>
          </ns3:TrackPointExtension>
        </extensions>
      </trkpt>
      <trkpt lat="47.5593475811183452606201171875" lon="11.0273355804383754730224609375">
        <ele>1296</ele>
        <time>2026-09-01T06:48:21.000Z</time>
        <extensions>
          <ns3:TrackPointExtension>
            <ns3:hr>181</ns3:hr>
            <ns3:cad>0</ns3:cad>
          </ns3:TrackPointExtension>
        </extensions>
      </trkpt>
      <trkpt lat="47.55935286171734333038330078125" lon="11.02734706364572048187255859375">
        <ele>1296.4000244140625</ele>
        <time>2026-09-01T06:48:22.000Z</time>
        <extensions>
          <ns3:TrackPointExtension>
            <ns3:hr>181</ns3:hr>
            <ns3:cad>0</ns3:cad>
          </ns3:TrackPointExtension>
        </extensions>
      </trkpt>
      <trkpt lat="47.55934565328061580657958984375" lon="11.02736064232885837554931640625">
        <ele>1296.5999755859375</ele>
        <time>2026-09-01T06:48:23.000Z</time>
        <extensions>
          <ns3:TrackPointExtension>
            <ns3:hr>181</ns3:hr>
            <ns3:cad>0</ns3:cad>
          </ns3:TrackPointExtension>
        </extensions>
      </trkpt>
      <trkpt lat="47.5593448989093303680419921875" lon="11.02736868895590305328369140625">
        <ele>1297.199951171875</ele>
        <time>2026-09-01T06:48:24.000Z</time>
        <extensions>
          <ns3:TrackPointExtension>
            <ns3:hr>182</ns3:hr>
            <ns3:cad>0</ns3:cad>
          </ns3:TrackPointExtension>
        </extensions>
      </trkpt>
      <trkpt lat="47.55933894775807857513427734375" lon="11.0273833572864532470703125">
        <ele>1297.5999755859375</ele>
        <time>2026-09-01T06:48:25.000Z</time>
        <extensions>
          <ns3:TrackPointExtension>
            <ns3:hr>182</ns3:hr>
            <ns3:cad>0</ns3:cad>
          </ns3:TrackPointExtension>
        </extensions>
      </trkpt>
      <trkpt lat="47.55933123640716075897216796875" lon="11.0273949243128299713134765625">
        <ele>1298</ele>
        <time>2026-09-01T06:48:26.000Z</time>
        <extensions>
          <ns3:TrackPointExtension>
            <ns3:hr>182</ns3:hr>
            <ns3:cad>0</ns3:cad>
          </ns3:TrackPointExtension>
        </extensions>
      </trkpt>
      <trkpt lat="47.55932436324656009674072265625" lon="11.027399785816669464111328125">
        <ele>1298.4000244140625</ele>
        <time>2026-09-01T06:48:27.000Z</time>
        <extensions>
          <ns3:TrackPointExtension>
            <ns3:hr>181</ns3:hr>
            <ns3:cad>0</ns3:cad>
          </ns3:TrackPointExtension>
        </extensions>
      </trkpt>
      <trkpt lat="47.5593234412372112274169921875" lon="11.0274093411862850189208984375">
        <ele>1298.800048828125</ele>
        <time>2026-09-01T06:48:28.000Z</time>
        <extensions>
          <ns3:TrackPointExtension>
            <ns3:hr>181</ns3:hr>
            <ns3:cad>0</ns3:cad>
          </ns3:TrackPointExtension>
        </extensions>
      </trkpt>
      <trkpt lat="47.55932033993303775787353515625" lon="11.02742216549813747406005859375">
        <ele>1299</ele>
        <time>2026-09-01T06:48:29.000Z</time>
        <extensions>
          <ns3:TrackPointExtension>
            <ns3:hr>181</ns3:hr>
            <ns3:cad>0</ns3:cad>
          </ns3:TrackPointExtension>
        </extensions>
      </trkpt>
      <trkpt lat="47.55932335741817951202392578125" lon="11.0274281166493892669677734375">
        <ele>1299.199951171875</ele>
        <time>2026-09-01T06:48:30.000Z</time>
        <extensions>
          <ns3:TrackPointExtension>
            <ns3:hr>181</ns3:hr>
            <ns3:cad>0</ns3:cad>
          </ns3:TrackPointExtension>
        </extensions>
      </trkpt>
      <trkpt lat="47.5593127124011516571044921875" lon="11.02744144387543201446533203125">
        <ele>1299.4000244140625</ele>
        <time>2026-09-01T06:48:31.000Z</time>
        <extensions>
          <ns3:TrackPointExtension>
            <ns3:hr>181</ns3:hr>
            <ns3:cad>0</ns3:cad>
          </ns3:TrackPointExtension>
        </extensions>
      </trkpt>
      <trkpt lat="47.55930818617343902587890625" lon="11.027447395026683807373046875">
        <ele>1299.800048828125</ele>
        <time>2026-09-01T06:48:32.000Z</time>
        <extensions>
          <ns3:TrackPointExtension>
            <ns3:hr>181</ns3:hr>
            <ns3:cad>0</ns3:cad>
          </ns3:TrackPointExtension>
        </extensions>
      </trkpt>
      <trkpt lat="47.55930273793637752532958984375" lon="11.02745200507342815399169921875">
        <ele>1300</ele>
        <time>2026-09-01T06:48:33.000Z</time>
        <extensions>
          <ns3:TrackPointExtension>
            <ns3:hr>180</ns3:hr>
            <ns3:cad>0</ns3:cad>
          </ns3:TrackPointExtension>
        </extensions>
      </trkpt>
      <trkpt lat="47.5592882372438907623291015625" lon="11.02746373973786830902099609375">
        <ele>1300.199951171875</ele>
        <time>2026-09-01T06:48:34.000Z</time>
        <extensions>
          <ns3:TrackPointExtension>
            <ns3:hr>180</ns3:hr>
            <ns3:cad>0</ns3:cad>
          </ns3:TrackPointExtension>
        </extensions>
      </trkpt>
      <trkpt lat="47.55928211845457553863525390625" lon="11.02747245691716670989990234375">
        <ele>1300.4000244140625</ele>
        <time>2026-09-01T06:48:35.000Z</time>
        <extensions>
          <ns3:TrackPointExtension>
            <ns3:hr>180</ns3:hr>
            <ns3:cad>0</ns3:cad>
          </ns3:TrackPointExtension>
        </extensions>
      </trkpt>
      <trkpt lat="47.55926686339080333709716796875" lon="11.027480252087116241455078125">
        <ele>1300.800048828125</ele>
        <time>2026-09-01T06:48:36.000Z</time>
        <extensions>
          <ns3:TrackPointExtension>
            <ns3:hr>179</ns3:hr>
            <ns3:cad>0</ns3:cad>
          </ns3:TrackPointExtension>
        </extensions>
      </trkpt>
      <trkpt lat="47.55925563164055347442626953125" lon="11.0274928249418735504150390625">
        <ele>1301</ele>
        <time>2026-09-01T06:48:37.000Z</time>
        <extensions>
          <ns3:TrackPointExtension>
            <ns3:hr>179</ns3:hr>
            <ns3:cad>0</ns3:cad>
          </ns3:TrackPointExtension>
        </extensions>
      </trkpt>
      <trkpt lat="47.5592506863176822662353515625" lon="11.027506403625011444091796875">
        <ele>1301.4000244140625</ele>
        <time>2026-09-01T06:48:38.000Z</time>
        <extensions>
          <ns3:TrackPointExtension>
            <ns3:hr>176</ns3:hr>
            <ns3:cad>0</ns3:cad>
          </ns3:TrackPointExtension>
        </extensions>
      </trkpt>
      <trkpt lat="47.559250183403491973876953125" lon="11.02752375416457653045654296875">
        <ele>1301.5999755859375</ele>
        <time>2026-09-01T06:48:39.000Z</time>
        <extensions>
          <ns3:TrackPointExtension>
            <ns3:hr>174</ns3:hr>
            <ns3:cad>47</ns3:cad>
          </ns3:TrackPointExtension>
        </extensions>
      </trkpt>
      <trkpt lat="47.55924515426158905029296875" lon="11.02754655294120311737060546875">
        <ele>1302</ele>
        <time>2026-09-01T06:48:40.000Z</time>
        <extensions>
          <ns3:TrackPointExtension>
            <ns3:hr>174</ns3:hr>
            <ns3:cad>47</ns3:cad>
          </ns3:TrackPointExtension>
        </extensions>
      </trkpt>
      <trkpt lat="47.55924372933804988861083984375" lon="11.027567088603973388671875">
        <ele>1302.4000244140625</ele>
        <time>2026-09-01T06:48:41.000Z</time>
        <extensions>
          <ns3:TrackPointExtension>
            <ns3:hr>174</ns3:hr>
            <ns3:cad>0</ns3:cad>
          </ns3:TrackPointExtension>
        </extensions>
      </trkpt>
      <trkpt lat="47.5592412985861301422119140625" lon="11.02759181521832942962646484375">
        <ele>1302.4000244140625</ele>
        <time>2026-09-01T06:48:42.000Z</time>
        <extensions>
          <ns3:TrackPointExtension>
            <ns3:hr>174</ns3:hr>
            <ns3:cad>0</ns3:cad>
          </ns3:TrackPointExtension>
        </extensions>
      </trkpt>
      <trkpt lat="47.5592382811009883880615234375" lon="11.0276064835488796234130859375">
        <ele>1302.4000244140625</ele>
        <time>2026-09-01T06:48:43.000Z</time>
        <extensions>
          <ns3:TrackPointExtension>
            <ns3:hr>174</ns3:hr>
            <ns3:cad>0</ns3:cad>
          </ns3:TrackPointExtension>
        </extensions>
      </trkpt>
      <trkpt lat="47.55923283286392688751220703125" lon="11.02762685157358646392822265625">
        <ele>1302.5999755859375</ele>
        <time>2026-09-01T06:48:44.000Z</time>
        <extensions>
          <ns3:TrackPointExtension>
            <ns3:hr>175</ns3:hr>
            <ns3:cad>0</ns3:cad>
          </ns3:TrackPointExtension>
        </extensions>
      </trkpt>
      <trkpt lat="47.55922948010265827178955078125" lon="11.0276447050273418426513671875">
        <ele>1302.5999755859375</ele>
        <time>2026-09-01T06:48:45.000Z</time>
        <extensions>
          <ns3:TrackPointExtension>
            <ns3:hr>174</ns3:hr>
            <ns3:cad>49</ns3:cad>
          </ns3:TrackPointExtension>
        </extensions>
      </trkpt>
      <trkpt lat="47.559226043522357940673828125" lon="11.0276587866246700286865234375">
        <ele>1302.800048828125</ele>
        <time>2026-09-01T06:48:46.000Z</time>
        <extensions>
          <ns3:TrackPointExtension>
            <ns3:hr>175</ns3:hr>
            <ns3:cad>49</ns3:cad>
          </ns3:TrackPointExtension>
        </extensions>
      </trkpt>
      <trkpt lat="47.559223361313343048095703125" lon="11.02767311967909336090087890625">
        <ele>1302.800048828125</ele>
        <time>2026-09-01T06:48:47.000Z</time>
        <extensions>
          <ns3:TrackPointExtension>
            <ns3:hr>175</ns3:hr>
            <ns3:cad>49</ns3:cad>
          </ns3:TrackPointExtension>
        </extensions>
      </trkpt>
      <trkpt lat="47.5592225231230258941650390625" lon="11.02768468670547008514404296875">
        <ele>1303</ele>
        <time>2026-09-01T06:48:48.000Z</time>
        <extensions>
          <ns3:TrackPointExtension>
            <ns3:hr>175</ns3:hr>
            <ns3:cad>49</ns3:cad>
          </ns3:TrackPointExtension>
        </extensions>
      </trkpt>
      <trkpt lat="47.5592228583991527557373046875" lon="11.02769893594086170196533203125">
        <ele>1303.199951171875</ele>
        <time>2026-09-01T06:48:49.000Z</time>
        <extensions>
          <ns3:TrackPointExtension>
            <ns3:hr>175</ns3:hr>
            <ns3:cad>49</ns3:cad>
          </ns3:TrackPointExtension>
        </extensions>
      </trkpt>
      <trkpt lat="47.55922193638980388641357421875" lon="11.027714945375919342041015625">
        <ele>1303.199951171875</ele>
        <time>2026-09-01T06:48:50.000Z</time>
        <extensions>
          <ns3:TrackPointExtension>
            <ns3:hr>175</ns3:hr>
            <ns3:cad>51</ns3:cad>
          </ns3:TrackPointExtension>
        </extensions>
      </trkpt>
      <trkpt lat="47.5592203438282012939453125" lon="11.02773313410580158233642578125">
        <ele>1303.4000244140625</ele>
        <time>2026-09-01T06:48:51.000Z</time>
        <extensions>
          <ns3:TrackPointExtension>
            <ns3:hr>175</ns3:hr>
            <ns3:cad>51</ns3:cad>
          </ns3:TrackPointExtension>
        </extensions>
      </trkpt>
      <trkpt lat="47.55921757780015468597412109375" lon="11.0277462936937808990478515625">
        <ele>1303.5999755859375</ele>
        <time>2026-09-01T06:48:52.000Z</time>
        <extensions>
          <ns3:TrackPointExtension>
            <ns3:hr>172</ns3:hr>
            <ns3:cad>51</ns3:cad>
          </ns3:TrackPointExtension>
        </extensions>
      </trkpt>
      <trkpt lat="47.55921430885791778564453125" lon="11.02775509469211101531982421875">
        <ele>1303.800048828125</ele>
        <time>2026-09-01T06:48:53.000Z</time>
        <extensions>
          <ns3:TrackPointExtension>
            <ns3:hr>171</ns3:hr>
            <ns3:cad>51</ns3:cad>
          </ns3:TrackPointExtension>
        </extensions>
      </trkpt>
      <trkpt lat="47.55921472795307636260986328125" lon="11.02776867337524890899658203125">
        <ele>1304</ele>
        <time>2026-09-01T06:48:54.000Z</time>
        <extensions>
          <ns3:TrackPointExtension>
            <ns3:hr>170</ns3:hr>
            <ns3:cad>51</ns3:cad>
          </ns3:TrackPointExtension>
        </extensions>
      </trkpt>
      <trkpt lat="47.55921271629631519317626953125" lon="11.02777940221130847930908203125">
        <ele>1304</ele>
        <time>2026-09-01T06:48:55.000Z</time>
        <extensions>
          <ns3:TrackPointExtension>
            <ns3:hr>169</ns3:hr>
            <ns3:cad>51</ns3:cad>
          </ns3:TrackPointExtension>
        </extensions>
      </trkpt>
      <trkpt lat="47.559210956096649169921875" lon="11.02778904139995574951171875">
        <ele>1304</ele>
        <time>2026-09-01T06:48:56.000Z</time>
        <extensions>
          <ns3:TrackPointExtension>
            <ns3:hr>169</ns3:hr>
            <ns3:cad>51</ns3:cad>
          </ns3:TrackPointExtension>
        </extensions>
      </trkpt>
      <trkpt lat="47.5592134706676006317138671875" lon="11.02780790068209171295166015625">
        <ele>1304</ele>
        <time>2026-09-01T06:48:57.000Z</time>
        <extensions>
          <ns3:TrackPointExtension>
            <ns3:hr>168</ns3:hr>
            <ns3:cad>51</ns3:cad>
          </ns3:TrackPointExtension>
        </extensions>
      </trkpt>
      <trkpt lat="47.5592228583991527557373046875" lon="11.02783187292516231536865234375">
        <ele>1304.199951171875</ele>
        <time>2026-09-01T06:48:58.000Z</time>
        <extensions>
          <ns3:TrackPointExtension>
            <ns3:hr>168</ns3:hr>
            <ns3:cad>51</ns3:cad>
          </ns3:TrackPointExtension>
        </extensions>
      </trkpt>
      <trkpt lat="47.55922595970332622528076171875" lon="11.02785467170178890228271484375">
        <ele>1304.199951171875</ele>
        <time>2026-09-01T06:48:59.000Z</time>
        <extensions>
          <ns3:TrackPointExtension>
            <ns3:hr>168</ns3:hr>
            <ns3:cad>0</ns3:cad>
          </ns3:TrackPointExtension>
        </extensions>
      </trkpt>
      <trkpt lat="47.5592272169888019561767578125" lon="11.02787755429744720458984375">
        <ele>1304.199951171875</ele>
        <time>2026-09-01T06:49:00.000Z</time>
        <extensions>
          <ns3:TrackPointExtension>
            <ns3:hr>168</ns3:hr>
            <ns3:cad>0</ns3:cad>
          </ns3:TrackPointExtension>
        </extensions>
      </trkpt>
      <trkpt lat="47.55922948010265827178955078125" lon="11.0278995148837566375732421875">
        <ele>1304.4000244140625</ele>
        <time>2026-09-01T06:49:01.000Z</time>
        <extensions>
          <ns3:TrackPointExtension>
            <ns3:hr>167</ns3:hr>
            <ns3:cad>0</ns3:cad>
          </ns3:TrackPointExtension>
        </extensions>
      </trkpt>
      <trkpt lat="47.55923082120716571807861328125" lon="11.0279196314513683319091796875">
        <ele>1304.5999755859375</ele>
        <time>2026-09-01T06:49:02.000Z</time>
        <extensions>
          <ns3:TrackPointExtension>
            <ns3:hr>167</ns3:hr>
            <ns3:cad>0</ns3:cad>
          </ns3:TrackPointExtension>
        </extensions>
      </trkpt>
      <trkpt lat="47.559232749044895172119140625" lon="11.02792692370712757110595703125">
        <ele>1304.5999755859375</ele>
        <time>2026-09-01T06:49:03.000Z</time>
        <extensions>
          <ns3:TrackPointExtension>
            <ns3:hr>167</ns3:hr>
            <ns3:cad>0</ns3:cad>
          </ns3:TrackPointExtension>
        </extensions>
      </trkpt>
      <trkpt lat="47.55923165939748287200927734375" lon="11.0279350541532039642333984375">
        <ele>1304.800048828125</ele>
        <time>2026-09-01T06:49:04.000Z</time>
        <extensions>
          <ns3:TrackPointExtension>
            <ns3:hr>167</ns3:hr>
            <ns3:cad>0</ns3:cad>
          </ns3:TrackPointExtension>
        </extensions>
      </trkpt>
      <trkpt lat="47.55923065356910228729248046875" lon="11.0279390774667263031005859375">
        <ele>1305.199951171875</ele>
        <time>2026-09-01T06:49:05.000Z</time>
        <extensions>
          <ns3:TrackPointExtension>
            <ns3:hr>167</ns3:hr>
            <ns3:cad>0</ns3:cad>
          </ns3:TrackPointExtension>
        </extensions>
      </trkpt>
      <trkpt lat="47.55922780372202396392822265625" lon="11.02794737555086612701416015625">
        <ele>1305.199951171875</ele>
        <time>2026-09-01T06:49:06.000Z</time>
        <extensions>
          <ns3:TrackPointExtension>
            <ns3:hr>167</ns3:hr>
            <ns3:cad>0</ns3:cad>
          </ns3:TrackPointExtension>
        </extensions>
      </trkpt>
      <trkpt lat="47.55922411568462848663330078125" lon="11.0279558412730693817138671875">
        <ele>1305</ele>
        <time>2026-09-01T06:49:07.000Z</time>
        <extensions>
          <ns3:TrackPointExtension>
            <ns3:hr>169</ns3:hr>
            <ns3:cad>0</ns3:cad>
          </ns3:TrackPointExtension>
        </extensions>
      </trkpt>
      <trkpt lat="47.559204585850238800048828125" lon="11.02797537110745906829833984375">
        <ele>1305.199951171875</ele>
        <time>2026-09-01T06:49:08.000Z</time>
        <extensions>
          <ns3:TrackPointExtension>
            <ns3:hr>169</ns3:hr>
            <ns3:cad>0</ns3:cad>
          </ns3:TrackPointExtension>
        </extensions>
      </trkpt>
      <trkpt lat="47.5592007301747798919677734375" lon="11.02798492647707462310791015625">
        <ele>1305.4000244140625</ele>
        <time>2026-09-01T06:49:09.000Z</time>
        <extensions>
          <ns3:TrackPointExtension>
            <ns3:hr>170</ns3:hr>
            <ns3:cad>0</ns3:cad>
          </ns3:TrackPointExtension>
        </extensions>
      </trkpt>
      <trkpt lat="47.55919863469898700714111328125" lon="11.0280061326920986175537109375">
        <ele>1305.800048828125</ele>
        <time>2026-09-01T06:49:10.000Z</time>
        <extensions>
          <ns3:TrackPointExtension>
            <ns3:hr>172</ns3:hr>
            <ns3:cad>0</ns3:cad>
          </ns3:TrackPointExtension>
        </extensions>
      </trkpt>
      <trkpt lat="47.559197209775447845458984375" lon="11.02801409550011157989501953125">
        <ele>1306.4000244140625</ele>
        <time>2026-09-01T06:49:11.000Z</time>
        <extensions>
          <ns3:TrackPointExtension>
            <ns3:hr>173</ns3:hr>
            <ns3:cad>0</ns3:cad>
          </ns3:TrackPointExtension>
        </extensions>
      </trkpt>
      <trkpt lat="47.55919511429965496063232421875" lon="11.02802230976521968841552734375">
        <ele>1307</ele>
        <time>2026-09-01T06:49:12.000Z</time>
        <extensions>
          <ns3:TrackPointExtension>
            <ns3:hr>175</ns3:hr>
            <ns3:cad>0</ns3:cad>
          </ns3:TrackPointExtension>
        </extensions>
      </trkpt>
      <trkpt lat="47.5591970421373844146728515625" lon="11.0280205495655536651611328125">
        <ele>1307.199951171875</ele>
        <time>2026-09-01T06:49:13.000Z</time>
        <extensions>
          <ns3:TrackPointExtension>
            <ns3:hr>176</ns3:hr>
            <ns3:cad>0</ns3:cad>
          </ns3:TrackPointExtension>
        </extensions>
      </trkpt>
      <trkpt lat="47.5591935217380523681640625" lon="11.028026752173900604248046875">
        <ele>1307.4000244140625</ele>
        <time>2026-09-01T06:49:14.000Z</time>
        <extensions>
          <ns3:TrackPointExtension>
            <ns3:hr>176</ns3:hr>
            <ns3:cad>0</ns3:cad>
          </ns3:TrackPointExtension>
        </extensions>
      </trkpt>
      <trkpt lat="47.5591916777193546295166015625" lon="11.02803236804902553558349609375">
        <ele>1307.5999755859375</ele>
        <time>2026-09-01T06:49:15.000Z</time>
        <extensions>
          <ns3:TrackPointExtension>
            <ns3:hr>176</ns3:hr>
            <ns3:cad>0</ns3:cad>
          </ns3:TrackPointExtension>
        </extensions>
      </trkpt>
      <trkpt lat="47.55918723531067371368408203125" lon="11.02804158814251422882080078125">
        <ele>1307.800048828125</ele>
        <time>2026-09-01T06:49:16.000Z</time>
        <extensions>
          <ns3:TrackPointExtension>
            <ns3:hr>176</ns3:hr>
            <ns3:cad>0</ns3:cad>
          </ns3:TrackPointExtension>
        </extensions>
      </trkpt>
      <trkpt lat="47.55918706767261028289794921875" lon="11.02804058231413364410400390625">
        <ele>1308.199951171875</ele>
        <time>2026-09-01T06:49:17.000Z</time>
        <extensions>
          <ns3:TrackPointExtension>
            <ns3:hr>176</ns3:hr>
            <ns3:cad>0</ns3:cad>
          </ns3:TrackPointExtension>
        </extensions>
      </trkpt>
      <trkpt lat="47.5591816194355487823486328125" lon="11.028039492666721343994140625">
        <ele>1308.5999755859375</ele>
        <time>2026-09-01T06:49:18.000Z</time>
        <extensions>
          <ns3:TrackPointExtension>
            <ns3:hr>175</ns3:hr>
            <ns3:cad>0</ns3:cad>
          </ns3:TrackPointExtension>
        </extensions>
      </trkpt>
      <trkpt lat="47.5591782666742801666259765625" lon="11.0280423425137996673583984375">
        <ele>1309.199951171875</ele>
        <time>2026-09-01T06:49:19.000Z</time>
        <extensions>
          <ns3:TrackPointExtension>
            <ns3:hr>174</ns3:hr>
            <ns3:cad>0</ns3:cad>
          </ns3:TrackPointExtension>
        </extensions>
      </trkpt>
      <trkpt lat="47.559175752103328704833984375" lon="11.02804510854184627532958984375">
        <ele>1309.800048828125</ele>
        <time>2026-09-01T06:49:20.000Z</time>
        <extensions>
          <ns3:TrackPointExtension>
            <ns3:hr>174</ns3:hr>
            <ns3:cad>0</ns3:cad>
          </ns3:TrackPointExtension>
        </extensions>
      </trkpt>
      <trkpt lat="47.55916468799114227294921875" lon="11.0280525684356689453125">
        <ele>1310.199951171875</ele>
        <time>2026-09-01T06:49:21.000Z</time>
        <extensions>
          <ns3:TrackPointExtension>
            <ns3:hr>173</ns3:hr>
            <ns3:cad>0</ns3:cad>
          </ns3:TrackPointExtension>
        </extensions>
      </trkpt>
      <trkpt lat="47.55916343070566654205322265625" lon="11.0280493833124637603759765625">
        <ele>1310.5999755859375</ele>
        <time>2026-09-01T06:49:22.000Z</time>
        <extensions>
          <ns3:TrackPointExtension>
            <ns3:hr>173</ns3:hr>
            <ns3:cad>0</ns3:cad>
          </ns3:TrackPointExtension>
        </extensions>
      </trkpt>
      <trkpt lat="47.55915789864957332611083984375" lon="11.02805323898792266845703125">
        <ele>1310.800048828125</ele>
        <time>2026-09-01T06:49:23.000Z</time>
        <extensions>
          <ns3:TrackPointExtension>
            <ns3:hr>172</ns3:hr>
            <ns3:cad>0</ns3:cad>
          </ns3:TrackPointExtension>
        </extensions>
      </trkpt>
      <trkpt lat="47.55913174711167812347412109375" lon="11.0280346311628818511962890625">
        <ele>1310.800048828125</ele>
        <time>2026-09-01T06:49:24.000Z</time>
        <extensions>
          <ns3:TrackPointExtension>
            <ns3:hr>172</ns3:hr>
            <ns3:cad>0</ns3:cad>
          </ns3:TrackPointExtension>
        </extensions>
      </trkpt>
      <trkpt lat="47.55912252701818943023681640625" lon="11.02803102694451808929443359375">
        <ele>1311</ele>
        <time>2026-09-01T06:49:25.000Z</time>
        <extensions>
          <ns3:TrackPointExtension>
            <ns3:hr>171</ns3:hr>
            <ns3:cad>57</ns3:cad>
          </ns3:TrackPointExtension>
        </extensions>
      </trkpt>
      <trkpt lat="47.5591135583817958831787109375" lon="11.0280244052410125732421875">
        <ele>1311.4000244140625</ele>
        <time>2026-09-01T06:49:26.000Z</time>
        <extensions>
          <ns3:TrackPointExtension>
            <ns3:hr>171</ns3:hr>
            <ns3:cad>57</ns3:cad>
          </ns3:TrackPointExtension>
        </extensions>
      </trkpt>
      <trkpt lat="47.55910894833505153656005859375" lon="11.028018034994602203369140625">
        <ele>1311.4000244140625</ele>
        <time>2026-09-01T06:49:27.000Z</time>
        <extensions>
          <ns3:TrackPointExtension>
            <ns3:hr>171</ns3:hr>
            <ns3:cad>0</ns3:cad>
          </ns3:TrackPointExtension>
        </extensions>
      </trkpt>
      <trkpt lat="47.55910836160182952880859375" lon="11.0280155204236507415771484375">
        <ele>1311.800048828125</ele>
        <time>2026-09-01T06:49:28.000Z</time>
        <extensions>
          <ns3:TrackPointExtension>
            <ns3:hr>170</ns3:hr>
            <ns3:cad>0</ns3:cad>
          </ns3:TrackPointExtension>
        </extensions>
      </trkpt>
      <trkpt lat="47.55911062471568584442138671875" lon="11.02800789289176464080810546875">
        <ele>1312</ele>
        <time>2026-09-01T06:49:29.000Z</time>
        <extensions>
          <ns3:TrackPointExtension>
            <ns3:hr>169</ns3:hr>
            <ns3:cad>65</ns3:cad>
          </ns3:TrackPointExtension>
        </extensions>
      </trkpt>
      <trkpt lat="47.55911230109632015228271484375" lon="11.02799666114151477813720703125">
        <ele>1312.199951171875</ele>
        <time>2026-09-01T06:49:30.000Z</time>
        <extensions>
          <ns3:TrackPointExtension>
            <ns3:hr>169</ns3:hr>
            <ns3:cad>65</ns3:cad>
          </ns3:TrackPointExtension>
        </extensions>
      </trkpt>
      <trkpt lat="47.559110708534717559814453125" lon="11.02798878215253353118896484375">
        <ele>1312.199951171875</ele>
        <time>2026-09-01T06:49:31.000Z</time>
        <extensions>
          <ns3:TrackPointExtension>
            <ns3:hr>169</ns3:hr>
            <ns3:cad>65</ns3:cad>
          </ns3:TrackPointExtension>
        </extensions>
      </trkpt>
      <trkpt lat="47.55910777486860752105712890625" lon="11.02798241190612316131591796875">
        <ele>1312.4000244140625</ele>
        <time>2026-09-01T06:49:32.000Z</time>
        <extensions>
          <ns3:TrackPointExtension>
            <ns3:hr>169</ns3:hr>
            <ns3:cad>66</ns3:cad>
          </ns3:TrackPointExtension>
        </extensions>
      </trkpt>
      <trkpt lat="47.5591081939637660980224609375" lon="11.02798174135386943817138671875">
        <ele>1312.5999755859375</ele>
        <time>2026-09-01T06:49:33.000Z</time>
        <extensions>
          <ns3:TrackPointExtension>
            <ns3:hr>169</ns3:hr>
            <ns3:cad>66</ns3:cad>
          </ns3:TrackPointExtension>
        </extensions>
      </trkpt>
      <trkpt lat="47.55910509265959262847900390625" lon="11.027968414127826690673828125">
        <ele>1312.800048828125</ele>
        <time>2026-09-01T06:49:34.000Z</time>
        <extensions>
          <ns3:TrackPointExtension>
            <ns3:hr>169</ns3:hr>
            <ns3:cad>64</ns3:cad>
          </ns3:TrackPointExtension>
        </extensions>
      </trkpt>
      <trkpt lat="47.55910433828830718994140625" lon="11.02795793674886226654052734375">
        <ele>1313</ele>
        <time>2026-09-01T06:49:35.000Z</time>
        <extensions>
          <ns3:TrackPointExtension>
            <ns3:hr>169</ns3:hr>
            <ns3:cad>64</ns3:cad>
          </ns3:TrackPointExtension>
        </extensions>
      </trkpt>
      <trkpt lat="47.559101320803165435791015625" lon="11.02794687263667583465576171875">
        <ele>1313.199951171875</ele>
        <time>2026-09-01T06:49:36.000Z</time>
        <extensions>
          <ns3:TrackPointExtension>
            <ns3:hr>169</ns3:hr>
            <ns3:cad>64</ns3:cad>
          </ns3:TrackPointExtension>
        </extensions>
      </trkpt>
      <trkpt lat="47.559097297489643096923828125" lon="11.02793119847774505615234375">
        <ele>1313.5999755859375</ele>
        <time>2026-09-01T06:49:37.000Z</time>
        <extensions>
          <ns3:TrackPointExtension>
            <ns3:hr>169</ns3:hr>
            <ns3:cad>64</ns3:cad>
          </ns3:TrackPointExtension>
        </extensions>
      </trkpt>
      <trkpt lat="47.55909469909965991973876953125" lon="11.027917452156543731689453125">
        <ele>1313.5999755859375</ele>
        <time>2026-09-01T06:49:38.000Z</time>
        <extensions>
          <ns3:TrackPointExtension>
            <ns3:hr>168</ns3:hr>
            <ns3:cad>64</ns3:cad>
          </ns3:TrackPointExtension>
        </extensions>
      </trkpt>
      <trkpt lat="47.559089250862598419189453125" lon="11.02789507247507572174072265625">
        <ele>1313.800048828125</ele>
        <time>2026-09-01T06:49:39.000Z</time>
        <extensions>
          <ns3:TrackPointExtension>
            <ns3:hr>167</ns3:hr>
            <ns3:cad>64</ns3:cad>
          </ns3:TrackPointExtension>
        </extensions>
      </trkpt>
      <trkpt lat="47.55908598192036151885986328125" lon="11.0278743691742420196533203125">
        <ele>1313.800048828125</ele>
        <time>2026-09-01T06:49:40.000Z</time>
        <extensions>
          <ns3:TrackPointExtension>
            <ns3:hr>165</ns3:hr>
            <ns3:cad>64</ns3:cad>
          </ns3:TrackPointExtension>
        </extensions>
      </trkpt>
      <trkpt lat="47.55908195860683917999267578125" lon="11.0278552584350109100341796875">
        <ele>1314</ele>
        <time>2026-09-01T06:49:41.000Z</time>
        <extensions>
          <ns3:TrackPointExtension>
            <ns3:hr>164</ns3:hr>
            <ns3:cad>64</ns3:cad>
          </ns3:TrackPointExtension>
        </extensions>
      </trkpt>
      <trkpt lat="47.5590790249407291412353515625" lon="11.027842350304126739501953125">
        <ele>1314.4000244140625</ele>
        <time>2026-09-01T06:49:42.000Z</time>
        <extensions>
          <ns3:TrackPointExtension>
            <ns3:hr>164</ns3:hr>
            <ns3:cad>64</ns3:cad>
          </ns3:TrackPointExtension>
        </extensions>
      </trkpt>
      <trkpt lat="47.55907692946493625640869140625" lon="11.0278395004570484161376953125">
        <ele>1314.5999755859375</ele>
        <time>2026-09-01T06:49:43.000Z</time>
        <extensions>
          <ns3:TrackPointExtension>
            <ns3:hr>163</ns3:hr>
            <ns3:cad>64</ns3:cad>
          </ns3:TrackPointExtension>
        </extensions>
      </trkpt>
      <trkpt lat="47.55907223559916019439697265625" lon="11.02783405221998691558837890625">
        <ele>1315</ele>
        <time>2026-09-01T06:49:44.000Z</time>
        <extensions>
          <ns3:TrackPointExtension>
            <ns3:hr>163</ns3:hr>
            <ns3:cad>0</ns3:cad>
          </ns3:TrackPointExtension>
        </extensions>
      </trkpt>
      <trkpt lat="47.55907349288463592529296875" lon="11.02782919071614742279052734375">
        <ele>1315.5999755859375</ele>
        <time>2026-09-01T06:49:45.000Z</time>
        <extensions>
          <ns3:TrackPointExtension>
            <ns3:hr>163</ns3:hr>
            <ns3:cad>0</ns3:cad>
          </ns3:TrackPointExtension>
        </extensions>
      </trkpt>
      <trkpt lat="47.5590736605226993560791015625" lon="11.027827598154544830322265625">
        <ele>1315.800048828125</ele>
        <time>2026-09-01T06:49:46.000Z</time>
        <extensions>
          <ns3:TrackPointExtension>
            <ns3:hr>163</ns3:hr>
            <ns3:cad>0</ns3:cad>
          </ns3:TrackPointExtension>
        </extensions>
      </trkpt>
      <trkpt lat="47.5590739957988262176513671875" lon="11.027819551527500152587890625">
        <ele>1315.800048828125</ele>
        <time>2026-09-01T06:49:47.000Z</time>
        <extensions>
          <ns3:TrackPointExtension>
            <ns3:hr>164</ns3:hr>
            <ns3:cad>0</ns3:cad>
          </ns3:TrackPointExtension>
        </extensions>
      </trkpt>
      <trkpt lat="47.5590753369033336639404296875" lon="11.027812175452709197998046875">
        <ele>1316</ele>
        <time>2026-09-01T06:49:48.000Z</time>
        <extensions>
          <ns3:TrackPointExtension>
            <ns3:hr>164</ns3:hr>
            <ns3:cad>0</ns3:cad>
          </ns3:TrackPointExtension>
        </extensions>
      </trkpt>
      <trkpt lat="47.55907994695007801055908203125" lon="11.0278056375682353973388671875">
        <ele>1316.199951171875</ele>
        <time>2026-09-01T06:49:49.000Z</time>
        <extensions>
          <ns3:TrackPointExtension>
            <ns3:hr>163</ns3:hr>
            <ns3:cad>0</ns3:cad>
          </ns3:TrackPointExtension>
        </extensions>
      </trkpt>
      <trkpt lat="47.55908489227294921875" lon="11.02779264561831951141357421875">
        <ele>1316.4000244140625</ele>
        <time>2026-09-01T06:49:50.000Z</time>
        <extensions>
          <ns3:TrackPointExtension>
            <ns3:hr>163</ns3:hr>
            <ns3:cad>0</ns3:cad>
          </ns3:TrackPointExtension>
        </extensions>
      </trkpt>
      <trkpt lat="47.559084556996822357177734375" lon="11.0277731157839298248291015625">
        <ele>1316.800048828125</ele>
        <time>2026-09-01T06:49:51.000Z</time>
        <extensions>
          <ns3:TrackPointExtension>
            <ns3:hr>162</ns3:hr>
            <ns3:cad>0</ns3:cad>
          </ns3:TrackPointExtension>
        </extensions>
      </trkpt>
      <trkpt lat="47.55906972102820873260498046875" lon="11.0277566872537136077880859375">
        <ele>1317.199951171875</ele>
        <time>2026-09-01T06:49:52.000Z</time>
        <extensions>
          <ns3:TrackPointExtension>
            <ns3:hr>162</ns3:hr>
            <ns3:cad>0</ns3:cad>
          </ns3:TrackPointExtension>
        </extensions>
      </trkpt>
      <trkpt lat="47.5590669550001621246337890625" lon="11.0277523286640644073486328125">
        <ele>1317.4000244140625</ele>
        <time>2026-09-01T06:49:53.000Z</time>
        <extensions>
          <ns3:TrackPointExtension>
            <ns3:hr>163</ns3:hr>
            <ns3:cad>0</ns3:cad>
          </ns3:TrackPointExtension>
        </extensions>
      </trkpt>
      <trkpt lat="47.5590495206415653228759765625" lon="11.0277422703802585601806640625">
        <ele>1317.800048828125</ele>
        <time>2026-09-01T06:49:54.000Z</time>
        <extensions>
          <ns3:TrackPointExtension>
            <ns3:hr>163</ns3:hr>
            <ns3:cad>0</ns3:cad>
          </ns3:TrackPointExtension>
        </extensions>
      </trkpt>
      <trkpt lat="47.55904088728129863739013671875" lon="11.0277422703802585601806640625">
        <ele>1318.199951171875</ele>
        <time>2026-09-01T06:49:55.000Z</time>
        <extensions>
          <ns3:TrackPointExtension>
            <ns3:hr>163</ns3:hr>
            <ns3:cad>0</ns3:cad>
          </ns3:TrackPointExtension>
        </extensions>
      </trkpt>
      <trkpt lat="47.55903367884457111358642578125" lon="11.0277395881712436676025390625">
        <ele>1318.4000244140625</ele>
        <time>2026-09-01T06:49:56.000Z</time>
        <extensions>
          <ns3:TrackPointExtension>
            <ns3:hr>163</ns3:hr>
            <ns3:cad>0</ns3:cad>
          </ns3:TrackPointExtension>
        </extensions>
      </trkpt>
      <trkpt lat="47.55901926197111606597900390625" lon="11.027729697525501251220703125">
        <ele>1318.5999755859375</ele>
        <time>2026-09-01T06:49:57.000Z</time>
        <extensions>
          <ns3:TrackPointExtension>
            <ns3:hr>164</ns3:hr>
            <ns3:cad>0</ns3:cad>
          </ns3:TrackPointExtension>
        </extensions>
      </trkpt>
      <trkpt lat="47.55901456810534000396728515625" lon="11.02772324346005916595458984375">
        <ele>1318.800048828125</ele>
        <time>2026-09-01T06:49:58.000Z</time>
        <extensions>
          <ns3:TrackPointExtension>
            <ns3:hr>164</ns3:hr>
            <ns3:cad>0</ns3:cad>
          </ns3:TrackPointExtension>
        </extensions>
      </trkpt>
      <trkpt lat="47.55901725031435489654541015625" lon="11.02770865894854068756103515625">
        <ele>1319</ele>
        <time>2026-09-01T06:49:59.000Z</time>
        <extensions>
          <ns3:TrackPointExtension>
            <ns3:hr>164</ns3:hr>
            <ns3:cad>0</ns3:cad>
          </ns3:TrackPointExtension>
        </extensions>
      </trkpt>
      <trkpt lat="47.55902060307562351226806640625" lon="11.027694828808307647705078125">
        <ele>1319</ele>
        <time>2026-09-01T06:50:00.000Z</time>
        <extensions>
          <ns3:TrackPointExtension>
            <ns3:hr>164</ns3:hr>
            <ns3:cad>0</ns3:cad>
          </ns3:TrackPointExtension>
        </extensions>
      </trkpt>
      <trkpt lat="47.559020854532718658447265625" lon="11.02768753655254840850830078125">
        <ele>1319.4000244140625</ele>
        <time>2026-09-01T06:50:01.000Z</time>
        <extensions>
          <ns3:TrackPointExtension>
            <ns3:hr>163</ns3:hr>
            <ns3:cad>0</ns3:cad>
          </ns3:TrackPointExtension>
        </extensions>
      </trkpt>
      <trkpt lat="47.5590226985514163970947265625" lon="11.0276701860129833221435546875">
        <ele>1319.5999755859375</ele>
        <time>2026-09-01T06:50:02.000Z</time>
        <extensions>
          <ns3:TrackPointExtension>
            <ns3:hr>164</ns3:hr>
            <ns3:cad>0</ns3:cad>
          </ns3:TrackPointExtension>
        </extensions>
      </trkpt>
      <trkpt lat="47.5590190105140209197998046875" lon="11.0276497341692447662353515625">
        <ele>1319.800048828125</ele>
        <time>2026-09-01T06:50:03.000Z</time>
        <extensions>
          <ns3:TrackPointExtension>
            <ns3:hr>164</ns3:hr>
            <ns3:cad>0</ns3:cad>
          </ns3:TrackPointExtension>
        </extensions>
      </trkpt>
      <trkpt lat="47.55901071242988109588623046875" lon="11.02764017879962921142578125">
        <ele>1320</ele>
        <time>2026-09-01T06:50:04.000Z</time>
        <extensions>
          <ns3:TrackPointExtension>
            <ns3:hr>164</ns3:hr>
            <ns3:cad>0</ns3:cad>
          </ns3:TrackPointExtension>
        </extensions>
      </trkpt>
      <trkpt lat="47.55900182761251926422119140625" lon="11.02762383408844470977783203125">
        <ele>1320.199951171875</ele>
        <time>2026-09-01T06:50:05.000Z</time>
        <extensions>
          <ns3:TrackPointExtension>
            <ns3:hr>166</ns3:hr>
            <ns3:cad>0</ns3:cad>
          </ns3:TrackPointExtension>
        </extensions>
      </trkpt>
      <trkpt lat="47.558996044099330902099609375" lon="11.02761075831949710845947265625">
        <ele>1320.4000244140625</ele>
        <time>2026-09-01T06:50:06.000Z</time>
        <extensions>
          <ns3:TrackPointExtension>
            <ns3:hr>168</ns3:hr>
            <ns3:cad>0</ns3:cad>
          </ns3:TrackPointExtension>
        </extensions>
      </trkpt>
      <trkpt lat="47.55898858420550823211669921875" lon="11.02759701199829578399658203125">
        <ele>1320.800048828125</ele>
        <time>2026-09-01T06:50:07.000Z</time>
        <extensions>
          <ns3:TrackPointExtension>
            <ns3:hr>169</ns3:hr>
            <ns3:cad>0</ns3:cad>
          </ns3:TrackPointExtension>
        </extensions>
      </trkpt>
      <trkpt lat="47.558979280292987823486328125" lon="11.0275699384510517120361328125">
        <ele>1320.800048828125</ele>
        <time>2026-09-01T06:50:08.000Z</time>
        <extensions>
          <ns3:TrackPointExtension>
            <ns3:hr>170</ns3:hr>
            <ns3:cad>0</ns3:cad>
          </ns3:TrackPointExtension>
        </extensions>
      </trkpt>
      <trkpt lat="47.5589687190949916839599609375" lon="11.02755208499729633331298828125">
        <ele>1321.199951171875</ele>
        <time>2026-09-01T06:50:09.000Z</time>
        <extensions>
          <ns3:TrackPointExtension>
            <ns3:hr>170</ns3:hr>
            <ns3:cad>0</ns3:cad>
          </ns3:TrackPointExtension>
        </extensions>
      </trkpt>
      <trkpt lat="47.55896109156310558319091796875" lon="11.02754554711282253265380859375">
        <ele>1321.4000244140625</ele>
        <time>2026-09-01T06:50:10.000Z</time>
        <extensions>
          <ns3:TrackPointExtension>
            <ns3:hr>171</ns3:hr>
            <ns3:cad>0</ns3:cad>
          </ns3:TrackPointExtension>
        </extensions>
      </trkpt>
      <trkpt lat="47.55895338021218776702880859375" lon="11.02753699757158756256103515625">
        <ele>1321.5999755859375</ele>
        <time>2026-09-01T06:50:11.000Z</time>
        <extensions>
          <ns3:TrackPointExtension>
            <ns3:hr>171</ns3:hr>
            <ns3:cad>0</ns3:cad>
          </ns3:TrackPointExtension>
        </extensions>
      </trkpt>
      <trkpt lat="47.558953128755092620849609375" lon="11.0275313816964626312255859375">
        <ele>1321.800048828125</ele>
        <time>2026-09-01T06:50:12.000Z</time>
        <extensions>
          <ns3:TrackPointExtension>
            <ns3:hr>171</ns3:hr>
            <ns3:cad>50</ns3:cad>
          </ns3:TrackPointExtension>
        </extensions>
      </trkpt>
      <trkpt lat="47.5589499436318874359130859375" lon="11.02752484381198883056640625">
        <ele>1322</ele>
        <time>2026-09-01T06:50:13.000Z</time>
        <extensions>
          <ns3:TrackPointExtension>
            <ns3:hr>171</ns3:hr>
            <ns3:cad>50</ns3:cad>
          </ns3:TrackPointExtension>
        </extensions>
      </trkpt>
      <trkpt lat="47.55894851870834827423095703125" lon="11.0275156237185001373291015625">
        <ele>1322.199951171875</ele>
        <time>2026-09-01T06:50:14.000Z</time>
        <extensions>
          <ns3:TrackPointExtension>
            <ns3:hr>172</ns3:hr>
            <ns3:cad>50</ns3:cad>
          </ns3:TrackPointExtension>
        </extensions>
      </trkpt>
      <trkpt lat="47.5589532963931560516357421875" lon="11.02750179357826709747314453125">
        <ele>1322.4000244140625</ele>
        <time>2026-09-01T06:50:15.000Z</time>
        <extensions>
          <ns3:TrackPointExtension>
            <ns3:hr>172</ns3:hr>
            <ns3:cad>50</ns3:cad>
          </ns3:TrackPointExtension>
        </extensions>
      </trkpt>
      <trkpt lat="47.55895815789699554443359375" lon="11.02748486213386058807373046875">
        <ele>1322.5999755859375</ele>
        <time>2026-09-01T06:50:16.000Z</time>
        <extensions>
          <ns3:TrackPointExtension>
            <ns3:hr>172</ns3:hr>
            <ns3:cad>50</ns3:cad>
          </ns3:TrackPointExtension>
        </extensions>
      </trkpt>
      <trkpt lat="47.558961845934391021728515625" lon="11.0274656675755977630615234375">
        <ele>1322.800048828125</ele>
        <time>2026-09-01T06:50:17.000Z</time>
        <extensions>
          <ns3:TrackPointExtension>
            <ns3:hr>172</ns3:hr>
            <ns3:cad>53</ns3:cad>
          </ns3:TrackPointExtension>
        </extensions>
      </trkpt>
      <trkpt lat="47.55895706824958324432373046875" lon="11.02744144387543201446533203125">
        <ele>1323</ele>
        <time>2026-09-01T06:50:18.000Z</time>
        <extensions>
          <ns3:TrackPointExtension>
            <ns3:hr>171</ns3:hr>
            <ns3:cad>53</ns3:cad>
          </ns3:TrackPointExtension>
        </extensions>
      </trkpt>
      <trkpt lat="47.55895472131669521331787109375" lon="11.02742468006908893585205078125">
        <ele>1323.199951171875</ele>
        <time>2026-09-01T06:50:19.000Z</time>
        <extensions>
          <ns3:TrackPointExtension>
            <ns3:hr>171</ns3:hr>
            <ns3:cad>53</ns3:cad>
          </ns3:TrackPointExtension>
        </extensions>
      </trkpt>
      <trkpt lat="47.55895086564123630523681640625" lon="11.02740607224404811859130859375">
        <ele>1323.4000244140625</ele>
        <time>2026-09-01T06:50:20.000Z</time>
        <extensions>
          <ns3:TrackPointExtension>
            <ns3:hr>169</ns3:hr>
            <ns3:cad>53</ns3:cad>
          </ns3:TrackPointExtension>
        </extensions>
      </trkpt>
      <trkpt lat="47.55895371548831462860107421875" lon="11.0273935832083225250244140625">
        <ele>1323.4000244140625</ele>
        <time>2026-09-01T06:50:21.000Z</time>
        <extensions>
          <ns3:TrackPointExtension>
            <ns3:hr>169</ns3:hr>
            <ns3:cad>56</ns3:cad>
          </ns3:TrackPointExtension>
        </extensions>
      </trkpt>
      <trkpt lat="47.55895170383155345916748046875" lon="11.027370952069759368896484375">
        <ele>1323.4000244140625</ele>
        <time>2026-09-01T06:50:22.000Z</time>
        <extensions>
          <ns3:TrackPointExtension>
            <ns3:hr>168</ns3:hr>
            <ns3:cad>56</ns3:cad>
          </ns3:TrackPointExtension>
        </extensions>
      </trkpt>
      <trkpt lat="47.55894902162253856658935546875" lon="11.0273503325879573822021484375">
        <ele>1323.4000244140625</ele>
        <time>2026-09-01T06:50:23.000Z</time>
        <extensions>
          <ns3:TrackPointExtension>
            <ns3:hr>168</ns3:hr>
            <ns3:cad>56</ns3:cad>
          </ns3:TrackPointExtension>
        </extensions>
      </trkpt>
      <trkpt lat="47.55894332192838191986083984375" lon="11.02733097039163112640380859375">
        <ele>1323.5999755859375</ele>
        <time>2026-09-01T06:50:24.000Z</time>
        <extensions>
          <ns3:TrackPointExtension>
            <ns3:hr>168</ns3:hr>
            <ns3:cad>56</ns3:cad>
          </ns3:TrackPointExtension>
        </extensions>
      </trkpt>
      <trkpt lat="47.55893896333873271942138671875" lon="11.02732996456325054168701171875">
        <ele>1323.800048828125</ele>
        <time>2026-09-01T06:50:25.000Z</time>
        <extensions>
          <ns3:TrackPointExtension>
            <ns3:hr>167</ns3:hr>
            <ns3:cad>52</ns3:cad>
          </ns3:TrackPointExtension>
        </extensions>
      </trkpt>
      <trkpt lat="47.5589335151016712188720703125" lon="11.0273258574306964874267578125">
        <ele>1324</ele>
        <time>2026-09-01T06:50:26.000Z</time>
        <extensions>
          <ns3:TrackPointExtension>
            <ns3:hr>167</ns3:hr>
            <ns3:cad>52</ns3:cad>
          </ns3:TrackPointExtension>
        </extensions>
      </trkpt>
      <trkpt lat="47.55892756395041942596435546875" lon="11.027322672307491302490234375">
        <ele>1324.4000244140625</ele>
        <time>2026-09-01T06:50:27.000Z</time>
        <extensions>
          <ns3:TrackPointExtension>
            <ns3:hr>168</ns3:hr>
            <ns3:cad>52</ns3:cad>
          </ns3:TrackPointExtension>
        </extensions>
      </trkpt>
      <trkpt lat="47.55892186425626277923583984375" lon="11.02732007391750812530517578125">
        <ele>1324.800048828125</ele>
        <time>2026-09-01T06:50:28.000Z</time>
        <extensions>
          <ns3:TrackPointExtension>
            <ns3:hr>168</ns3:hr>
            <ns3:cad>52</ns3:cad>
          </ns3:TrackPointExtension>
        </extensions>
      </trkpt>
      <trkpt lat="47.55891348235309123992919921875" lon="11.0273157991468906402587890625">
        <ele>1325.4000244140625</ele>
        <time>2026-09-01T06:50:29.000Z</time>
        <extensions>
          <ns3:TrackPointExtension>
            <ns3:hr>168</ns3:hr>
            <ns3:cad>52</ns3:cad>
          </ns3:TrackPointExtension>
        </extensions>
      </trkpt>
      <trkpt lat="47.5589070282876491546630859375" lon="11.02731454186141490936279296875">
        <ele>1325.5999755859375</ele>
        <time>2026-09-01T06:50:30.000Z</time>
        <extensions>
          <ns3:TrackPointExtension>
            <ns3:hr>170</ns3:hr>
            <ns3:cad>52</ns3:cad>
          </ns3:TrackPointExtension>
        </extensions>
      </trkpt>
      <trkpt lat="47.5588989816606044769287109375" lon="11.0273117758333683013916015625">
        <ele>1326</ele>
        <time>2026-09-01T06:50:31.000Z</time>
        <extensions>
          <ns3:TrackPointExtension>
            <ns3:hr>171</ns3:hr>
            <ns3:cad>52</ns3:cad>
          </ns3:TrackPointExtension>
        </extensions>
      </trkpt>
      <trkpt lat="47.5588969700038433074951171875" lon="11.0273087583482265472412109375">
        <ele>1326.4000244140625</ele>
        <time>2026-09-01T06:50:32.000Z</time>
        <extensions>
          <ns3:TrackPointExtension>
            <ns3:hr>171</ns3:hr>
            <ns3:cad>52</ns3:cad>
          </ns3:TrackPointExtension>
        </extensions>
      </trkpt>
      <trkpt lat="47.55889219231903553009033203125" lon="11.02730280719697475433349609375">
        <ele>1326.5999755859375</ele>
        <time>2026-09-01T06:50:33.000Z</time>
        <extensions>
          <ns3:TrackPointExtension>
            <ns3:hr>171</ns3:hr>
            <ns3:cad>52</ns3:cad>
          </ns3:TrackPointExtension>
        </extensions>
      </trkpt>
      <trkpt lat="47.558890767395496368408203125" lon="11.02729409001767635345458984375">
        <ele>1326.800048828125</ele>
        <time>2026-09-01T06:50:34.000Z</time>
        <extensions>
          <ns3:TrackPointExtension>
            <ns3:hr>172</ns3:hr>
            <ns3:cad>52</ns3:cad>
          </ns3:TrackPointExtension>
        </extensions>
      </trkpt>
      <trkpt lat="47.5588879175484180450439453125" lon="11.0272896476089954376220703125">
        <ele>1327</ele>
        <time>2026-09-01T06:50:35.000Z</time>
        <extensions>
          <ns3:TrackPointExtension>
            <ns3:hr>172</ns3:hr>
            <ns3:cad>52</ns3:cad>
          </ns3:TrackPointExtension>
        </extensions>
      </trkpt>
      <trkpt lat="47.5588823854923248291015625" lon="11.02728419937193393707275390625">
        <ele>1327.4000244140625</ele>
        <time>2026-09-01T06:50:36.000Z</time>
        <extensions>
          <ns3:TrackPointExtension>
            <ns3:hr>172</ns3:hr>
            <ns3:cad>75</ns3:cad>
          </ns3:TrackPointExtension>
        </extensions>
      </trkpt>
      <trkpt lat="47.55888816900551319122314453125" lon="11.02728855796158313751220703125">
        <ele>1327.5999755859375</ele>
        <time>2026-09-01T06:50:37.000Z</time>
        <extensions>
          <ns3:TrackPointExtension>
            <ns3:hr>172</ns3:hr>
            <ns3:cad>75</ns3:cad>
          </ns3:TrackPointExtension>
        </extensions>
      </trkpt>
      <trkpt lat="47.5588778592646121978759765625" lon="11.027291826903820037841796875">
        <ele>1328</ele>
        <time>2026-09-01T06:50:38.000Z</time>
        <extensions>
          <ns3:TrackPointExtension>
            <ns3:hr>171</ns3:hr>
            <ns3:cad>75</ns3:cad>
          </ns3:TrackPointExtension>
        </extensions>
      </trkpt>
      <trkpt lat="47.55886989645659923553466796875" lon="11.02729409001767635345458984375">
        <ele>1328.199951171875</ele>
        <time>2026-09-01T06:50:39.000Z</time>
        <extensions>
          <ns3:TrackPointExtension>
            <ns3:hr>172</ns3:hr>
            <ns3:cad>75</ns3:cad>
          </ns3:TrackPointExtension>
        </extensions>
      </trkpt>
      <trkpt lat="47.5588503666222095489501953125" lon="11.02728486992418766021728515625">
        <ele>1328.5999755859375</ele>
        <time>2026-09-01T06:50:40.000Z</time>
        <extensions>
          <ns3:TrackPointExtension>
            <ns3:hr>172</ns3:hr>
            <ns3:cad>0</ns3:cad>
          </ns3:TrackPointExtension>
        </extensions>
      </trkpt>
      <trkpt lat="47.55883888341486454010009765625" lon="11.02727699093520641326904296875">
        <ele>1328.800048828125</ele>
        <time>2026-09-01T06:50:41.000Z</time>
        <extensions>
          <ns3:TrackPointExtension>
            <ns3:hr>172</ns3:hr>
            <ns3:cad>0</ns3:cad>
          </ns3:TrackPointExtension>
        </extensions>
      </trkpt>
      <trkpt lat="47.558827064931392669677734375" lon="11.02727045305073261260986328125">
        <ele>1329.199951171875</ele>
        <time>2026-09-01T06:50:42.000Z</time>
        <extensions>
          <ns3:TrackPointExtension>
            <ns3:hr>172</ns3:hr>
            <ns3:cad>0</ns3:cad>
          </ns3:TrackPointExtension>
        </extensions>
      </trkpt>
      <trkpt lat="47.55881759338080883026123046875" lon="11.0272685252130031585693359375">
        <ele>1329.5999755859375</ele>
        <time>2026-09-01T06:50:43.000Z</time>
        <extensions>
          <ns3:TrackPointExtension>
            <ns3:hr>172</ns3:hr>
            <ns3:cad>0</ns3:cad>
          </ns3:TrackPointExtension>
        </extensions>
      </trkpt>
      <trkpt lat="47.55881139077246189117431640625" lon="11.02726810611784458160400390625">
        <ele>1329.800048828125</ele>
        <time>2026-09-01T06:50:44.000Z</time>
        <extensions>
          <ns3:TrackPointExtension>
            <ns3:hr>172</ns3:hr>
            <ns3:cad>0</ns3:cad>
          </ns3:TrackPointExtension>
        </extensions>
      </trkpt>
      <trkpt lat="47.5588051043450832366943359375" lon="11.02726391516625881195068359375">
        <ele>1330</ele>
        <time>2026-09-01T06:50:45.000Z</time>
        <extensions>
          <ns3:TrackPointExtension>
            <ns3:hr>173</ns3:hr>
            <ns3:cad>0</ns3:cad>
          </ns3:TrackPointExtension>
        </extensions>
      </trkpt>
      <trkpt lat="47.55880233831703662872314453125" lon="11.02725989185273647308349609375">
        <ele>1330.4000244140625</ele>
        <time>2026-09-01T06:50:46.000Z</time>
        <extensions>
          <ns3:TrackPointExtension>
            <ns3:hr>173</ns3:hr>
            <ns3:cad>0</ns3:cad>
          </ns3:TrackPointExtension>
        </extensions>
      </trkpt>
      <trkpt lat="47.5587990693747997283935546875" lon="11.02725687436759471893310546875">
        <ele>1330.5999755859375</ele>
        <time>2026-09-01T06:50:47.000Z</time>
        <extensions>
          <ns3:TrackPointExtension>
            <ns3:hr>173</ns3:hr>
            <ns3:cad>0</ns3:cad>
          </ns3:TrackPointExtension>
        </extensions>
      </trkpt>
      <trkpt lat="47.55880032666027545928955078125" lon="11.027255617082118988037109375">
        <ele>1331</ele>
        <time>2026-09-01T06:50:48.000Z</time>
        <extensions>
          <ns3:TrackPointExtension>
            <ns3:hr>173</ns3:hr>
            <ns3:cad>0</ns3:cad>
          </ns3:TrackPointExtension>
        </extensions>
      </trkpt>
      <trkpt lat="47.5587886758148670196533203125" lon="11.02723994292318820953369140625">
        <ele>1331.199951171875</ele>
        <time>2026-09-01T06:50:49.000Z</time>
        <extensions>
          <ns3:TrackPointExtension>
            <ns3:hr>175</ns3:hr>
            <ns3:cad>0</ns3:cad>
          </ns3:TrackPointExtension>
        </extensions>
      </trkpt>
      <trkpt lat="47.55878389813005924224853515625" lon="11.02722971700131893157958984375">
        <ele>1331.4000244140625</ele>
        <time>2026-09-01T06:50:50.000Z</time>
        <extensions>
          <ns3:TrackPointExtension>
            <ns3:hr>176</ns3:hr>
            <ns3:cad>0</ns3:cad>
          </ns3:TrackPointExtension>
        </extensions>
      </trkpt>
      <trkpt lat="47.558782808482646942138671875" lon="11.02721773087978363037109375">
        <ele>1331.5999755859375</ele>
        <time>2026-09-01T06:50:51.000Z</time>
        <extensions>
          <ns3:TrackPointExtension>
            <ns3:hr>178</ns3:hr>
            <ns3:cad>0</ns3:cad>
          </ns3:TrackPointExtension>
        </extensions>
      </trkpt>
      <trkpt lat="47.55879177711904048919677734375" lon="11.02720968425273895263671875">
        <ele>1331.800048828125</ele>
        <time>2026-09-01T06:50:52.000Z</time>
        <extensions>
          <ns3:TrackPointExtension>
            <ns3:hr>178</ns3:hr>
            <ns3:cad>0</ns3:cad>
          </ns3:TrackPointExtension>
        </extensions>
      </trkpt>
      <trkpt lat="47.5587930344045162200927734375" lon="11.02719048969447612762451171875">
        <ele>1332.199951171875</ele>
        <time>2026-09-01T06:50:53.000Z</time>
        <extensions>
          <ns3:TrackPointExtension>
            <ns3:hr>178</ns3:hr>
            <ns3:cad>0</ns3:cad>
          </ns3:TrackPointExtension>
        </extensions>
      </trkpt>
      <trkpt lat="47.55879395641386508941650390625" lon="11.0271766595542430877685546875">
        <ele>1332.5999755859375</ele>
        <time>2026-09-01T06:50:54.000Z</time>
        <extensions>
          <ns3:TrackPointExtension>
            <ns3:hr>178</ns3:hr>
            <ns3:cad>0</ns3:cad>
          </ns3:TrackPointExtension>
        </extensions>
      </trkpt>
      <trkpt lat="47.55879496224224567413330078125" lon="11.02716165594756603240966796875">
        <ele>1332.800048828125</ele>
        <time>2026-09-01T06:50:55.000Z</time>
        <extensions>
          <ns3:TrackPointExtension>
            <ns3:hr>177</ns3:hr>
            <ns3:cad>0</ns3:cad>
          </ns3:TrackPointExtension>
        </extensions>
      </trkpt>
      <trkpt lat="47.55880049429833889007568359375" lon="11.027144305408000946044921875">
        <ele>1333</ele>
        <time>2026-09-01T06:50:56.000Z</time>
        <extensions>
          <ns3:TrackPointExtension>
            <ns3:hr>178</ns3:hr>
            <ns3:cad>0</ns3:cad>
          </ns3:TrackPointExtension>
        </extensions>
      </trkpt>
      <trkpt lat="47.5588000752031803131103515625" lon="11.02712812833487987518310546875">
        <ele>1333.199951171875</ele>
        <time>2026-09-01T06:50:57.000Z</time>
        <extensions>
          <ns3:TrackPointExtension>
            <ns3:hr>178</ns3:hr>
            <ns3:cad>0</ns3:cad>
          </ns3:TrackPointExtension>
        </extensions>
      </trkpt>
      <trkpt lat="47.5588014163076877593994140625" lon="11.02709895931184291839599609375">
        <ele>1333.4000244140625</ele>
        <time>2026-09-01T06:50:58.000Z</time>
        <extensions>
          <ns3:TrackPointExtension>
            <ns3:hr>179</ns3:hr>
            <ns3:cad>0</ns3:cad>
          </ns3:TrackPointExtension>
        </extensions>
      </trkpt>
      <trkpt lat="47.55879613570868968963623046875" lon="11.02709434926509857177734375">
        <ele>1333.5999755859375</ele>
        <time>2026-09-01T06:50:59.000Z</time>
        <extensions>
          <ns3:TrackPointExtension>
            <ns3:hr>178</ns3:hr>
            <ns3:cad>0</ns3:cad>
          </ns3:TrackPointExtension>
        </extensions>
      </trkpt>
      <trkpt lat="47.55878607742488384246826171875" lon="11.02708186022937297821044921875">
        <ele>1333.800048828125</ele>
        <time>2026-09-01T06:51:00.000Z</time>
        <extensions>
          <ns3:TrackPointExtension>
            <ns3:hr>178</ns3:hr>
            <ns3:cad>0</ns3:cad>
          </ns3:TrackPointExtension>
        </extensions>
      </trkpt>
      <trkpt lat="47.5587826408445835113525390625" lon="11.0270784236490726470947265625">
        <ele>1334.199951171875</ele>
        <time>2026-09-01T06:51:01.000Z</time>
        <extensions>
          <ns3:TrackPointExtension>
            <ns3:hr>178</ns3:hr>
            <ns3:cad>0</ns3:cad>
          </ns3:TrackPointExtension>
        </extensions>
      </trkpt>
      <trkpt lat="47.55877685733139514923095703125" lon="11.02706509642302989959716796875">
        <ele>1334.5999755859375</ele>
        <time>2026-09-01T06:51:02.000Z</time>
        <extensions>
          <ns3:TrackPointExtension>
            <ns3:hr>178</ns3:hr>
            <ns3:cad>0</ns3:cad>
          </ns3:TrackPointExtension>
        </extensions>
      </trkpt>
      <trkpt lat="47.558773420751094818115234375" lon="11.02706207893788814544677734375">
        <ele>1334.800048828125</ele>
        <time>2026-09-01T06:51:03.000Z</time>
        <extensions>
          <ns3:TrackPointExtension>
            <ns3:hr>177</ns3:hr>
            <ns3:cad>0</ns3:cad>
          </ns3:TrackPointExtension>
        </extensions>
      </trkpt>
      <trkpt lat="47.55877618677914142608642578125" lon="11.0270596481859683990478515625">
        <ele>1335.199951171875</ele>
        <time>2026-09-01T06:51:04.000Z</time>
        <extensions>
          <ns3:TrackPointExtension>
            <ns3:hr>177</ns3:hr>
            <ns3:cad>0</ns3:cad>
          </ns3:TrackPointExtension>
        </extensions>
      </trkpt>
      <trkpt lat="47.5587779469788074493408203125" lon="11.02704967372119426727294921875">
        <ele>1335.4000244140625</ele>
        <time>2026-09-01T06:51:05.000Z</time>
        <extensions>
          <ns3:TrackPointExtension>
            <ns3:hr>177</ns3:hr>
            <ns3:cad>0</ns3:cad>
          </ns3:TrackPointExtension>
        </extensions>
      </trkpt>
      <trkpt lat="47.55878021009266376495361328125" lon="11.02703668177127838134765625">
        <ele>1335.5999755859375</ele>
        <time>2026-09-01T06:51:06.000Z</time>
        <extensions>
          <ns3:TrackPointExtension>
            <ns3:hr>177</ns3:hr>
            <ns3:cad>0</ns3:cad>
          </ns3:TrackPointExtension>
        </extensions>
      </trkpt>
      <trkpt lat="47.5587762705981731414794921875" lon="11.02701882831752300262451171875">
        <ele>1336</ele>
        <time>2026-09-01T06:51:07.000Z</time>
        <extensions>
          <ns3:TrackPointExtension>
            <ns3:hr>177</ns3:hr>
            <ns3:cad>0</ns3:cad>
          </ns3:TrackPointExtension>
        </extensions>
      </trkpt>
      <trkpt lat="47.5587762705981731414794921875" lon="11.0270321555435657501220703125">
        <ele>1336.4000244140625</ele>
        <time>2026-09-01T06:51:08.000Z</time>
        <extensions>
          <ns3:TrackPointExtension>
            <ns3:hr>177</ns3:hr>
            <ns3:cad>0</ns3:cad>
          </ns3:TrackPointExtension>
        </extensions>
      </trkpt>
      <trkpt lat="47.55876931361854076385498046875" lon="11.02701790630817413330078125">
        <ele>1336.800048828125</ele>
        <time>2026-09-01T06:51:09.000Z</time>
        <extensions>
          <ns3:TrackPointExtension>
            <ns3:hr>177</ns3:hr>
            <ns3:cad>0</ns3:cad>
          </ns3:TrackPointExtension>
        </extensions>
      </trkpt>
      <trkpt lat="47.55877065472304821014404296875" lon="11.02699871174991130828857421875">
        <ele>1337.199951171875</ele>
        <time>2026-09-01T06:51:10.000Z</time>
        <extensions>
          <ns3:TrackPointExtension>
            <ns3:hr>178</ns3:hr>
            <ns3:cad>0</ns3:cad>
          </ns3:TrackPointExtension>
        </extensions>
      </trkpt>
      <trkpt lat="47.55876864306628704071044921875" lon="11.0269781760871410369873046875">
        <ele>1337.4000244140625</ele>
        <time>2026-09-01T06:51:11.000Z</time>
        <extensions>
          <ns3:TrackPointExtension>
            <ns3:hr>177</ns3:hr>
            <ns3:cad>0</ns3:cad>
          </ns3:TrackPointExtension>
        </extensions>
      </trkpt>
      <trkpt lat="47.55877199582755565643310546875" lon="11.0269600711762905120849609375">
        <ele>1337.4000244140625</ele>
        <time>2026-09-01T06:51:12.000Z</time>
        <extensions>
          <ns3:TrackPointExtension>
            <ns3:hr>177</ns3:hr>
            <ns3:cad>0</ns3:cad>
          </ns3:TrackPointExtension>
        </extensions>
      </trkpt>
      <trkpt lat="47.5587692297995090484619140625" lon="11.02694506756961345672607421875">
        <ele>1337.5999755859375</ele>
        <time>2026-09-01T06:51:13.000Z</time>
        <extensions>
          <ns3:TrackPointExtension>
            <ns3:hr>175</ns3:hr>
            <ns3:cad>0</ns3:cad>
          </ns3:TrackPointExtension>
        </extensions>
      </trkpt>
      <trkpt lat="47.55876881070435047149658203125" lon="11.02693031542003154754638671875">
        <ele>1337.5999755859375</ele>
        <time>2026-09-01T06:51:14.000Z</time>
        <extensions>
          <ns3:TrackPointExtension>
            <ns3:hr>173</ns3:hr>
            <ns3:cad>0</ns3:cad>
          </ns3:TrackPointExtension>
        </extensions>
      </trkpt>
      <trkpt lat="47.5587558187544345855712890625" lon="11.026908271014690399169921875">
        <ele>1337.5999755859375</ele>
        <time>2026-09-01T06:51:15.000Z</time>
        <extensions>
          <ns3:TrackPointExtension>
            <ns3:hr>172</ns3:hr>
            <ns3:cad>0</ns3:cad>
          </ns3:TrackPointExtension>
        </extensions>
      </trkpt>
      <trkpt lat="47.55875003524124622344970703125" lon="11.02688513696193695068359375">
        <ele>1337.800048828125</ele>
        <time>2026-09-01T06:51:16.000Z</time>
        <extensions>
          <ns3:TrackPointExtension>
            <ns3:hr>172</ns3:hr>
            <ns3:cad>0</ns3:cad>
          </ns3:TrackPointExtension>
        </extensions>
      </trkpt>
      <trkpt lat="47.55874492228031158447265625" lon="11.02686627767980098724365234375">
        <ele>1338.199951171875</ele>
        <time>2026-09-01T06:51:17.000Z</time>
        <extensions>
          <ns3:TrackPointExtension>
            <ns3:hr>172</ns3:hr>
            <ns3:cad>47</ns3:cad>
          </ns3:TrackPointExtension>
        </extensions>
      </trkpt>
      <trkpt lat="47.5587336905300617218017578125" lon="11.02685051970183849334716796875">
        <ele>1338.5999755859375</ele>
        <time>2026-09-01T06:51:18.000Z</time>
        <extensions>
          <ns3:TrackPointExtension>
            <ns3:hr>172</ns3:hr>
            <ns3:cad>48</ns3:cad>
          </ns3:TrackPointExtension>
        </extensions>
      </trkpt>
      <trkpt lat="47.55872220732271671295166015625" lon="11.02682973258197307586669921875">
        <ele>1339</ele>
        <time>2026-09-01T06:51:19.000Z</time>
        <extensions>
          <ns3:TrackPointExtension>
            <ns3:hr>173</ns3:hr>
            <ns3:cad>47</ns3:cad>
          </ns3:TrackPointExtension>
        </extensions>
      </trkpt>
      <trkpt lat="47.5587129034101963043212890625" lon="11.02681699208915233612060546875">
        <ele>1339.4000244140625</ele>
        <time>2026-09-01T06:51:20.000Z</time>
        <extensions>
          <ns3:TrackPointExtension>
            <ns3:hr>173</ns3:hr>
            <ns3:cad>44</ns3:cad>
          </ns3:TrackPointExtension>
        </extensions>
      </trkpt>
      <trkpt lat="47.5587058626115322113037109375" lon="11.02681095711886882781982421875">
        <ele>1339.5999755859375</ele>
        <time>2026-09-01T06:51:21.000Z</time>
        <extensions>
          <ns3:TrackPointExtension>
            <ns3:hr>173</ns3:hr>
            <ns3:cad>0</ns3:cad>
          </ns3:TrackPointExtension>
        </extensions>
      </trkpt>
      <trkpt lat="47.55869806744158267974853515625" lon="11.0268065147101879119873046875">
        <ele>1339.5999755859375</ele>
        <time>2026-09-01T06:51:22.000Z</time>
        <extensions>
          <ns3:TrackPointExtension>
            <ns3:hr>173</ns3:hr>
            <ns3:cad>0</ns3:cad>
          </ns3:TrackPointExtension>
        </extensions>
      </trkpt>
      <trkpt lat="47.55868733860552310943603515625" lon="11.02680190466344356536865234375">
        <ele>1339.5999755859375</ele>
        <time>2026-09-01T06:51:23.000Z</time>
        <extensions>
          <ns3:TrackPointExtension>
            <ns3:hr>173</ns3:hr>
            <ns3:cad>0</ns3:cad>
          </ns3:TrackPointExtension>
        </extensions>
      </trkpt>
      <trkpt lat="47.55867744795978069305419921875" lon="11.02680006064474582672119140625">
        <ele>1339.5999755859375</ele>
        <time>2026-09-01T06:51:24.000Z</time>
        <extensions>
          <ns3:TrackPointExtension>
            <ns3:hr>173</ns3:hr>
            <ns3:cad>57</ns3:cad>
          </ns3:TrackPointExtension>
        </extensions>
      </trkpt>
      <trkpt lat="47.5586622767150402069091796875" lon="11.026802994310855865478515625">
        <ele>1339.800048828125</ele>
        <time>2026-09-01T06:51:25.000Z</time>
        <extensions>
          <ns3:TrackPointExtension>
            <ns3:hr>173</ns3:hr>
            <ns3:cad>61</ns3:cad>
          </ns3:TrackPointExtension>
        </extensions>
      </trkpt>
      <trkpt lat="47.55865112878382205963134765625" lon="11.02680441923439502716064453125">
        <ele>1340</ele>
        <time>2026-09-01T06:51:26.000Z</time>
        <extensions>
          <ns3:TrackPointExtension>
            <ns3:hr>172</ns3:hr>
            <ns3:cad>61</ns3:cad>
          </ns3:TrackPointExtension>
        </extensions>
      </trkpt>
      <trkpt lat="47.55863922648131847381591796875" lon="11.02680693380534648895263671875">
        <ele>1340.4000244140625</ele>
        <time>2026-09-01T06:51:27.000Z</time>
        <extensions>
          <ns3:TrackPointExtension>
            <ns3:hr>171</ns3:hr>
            <ns3:cad>61</ns3:cad>
          </ns3:TrackPointExtension>
        </extensions>
      </trkpt>
      <trkpt lat="47.55862900055944919586181640625" lon="11.02681011892855167388916015625">
        <ele>1340.800048828125</ele>
        <time>2026-09-01T06:51:28.000Z</time>
        <extensions>
          <ns3:TrackPointExtension>
            <ns3:hr>170</ns3:hr>
            <ns3:cad>61</ns3:cad>
          </ns3:TrackPointExtension>
        </extensions>
      </trkpt>
      <trkpt lat="47.5586180202662944793701171875" lon="11.0268147289752960205078125">
        <ele>1341</ele>
        <time>2026-09-01T06:51:29.000Z</time>
        <extensions>
          <ns3:TrackPointExtension>
            <ns3:hr>169</ns3:hr>
            <ns3:cad>0</ns3:cad>
          </ns3:TrackPointExtension>
        </extensions>
      </trkpt>
      <trkpt lat="47.55860972218215465545654296875" lon="11.026817746460437774658203125">
        <ele>1341.4000244140625</ele>
        <time>2026-09-01T06:51:30.000Z</time>
        <extensions>
          <ns3:TrackPointExtension>
            <ns3:hr>169</ns3:hr>
            <ns3:cad>0</ns3:cad>
          </ns3:TrackPointExtension>
        </extensions>
      </trkpt>
      <trkpt lat="47.55860703997313976287841796875" lon="11.02681850083172321319580078125">
        <ele>1341.800048828125</ele>
        <time>2026-09-01T06:51:31.000Z</time>
        <extensions>
          <ns3:TrackPointExtension>
            <ns3:hr>169</ns3:hr>
            <ns3:cad>0</ns3:cad>
          </ns3:TrackPointExtension>
        </extensions>
      </trkpt>
      <trkpt lat="47.55860008299350738525390625" lon="11.02682302705943584442138671875">
        <ele>1342.199951171875</ele>
        <time>2026-09-01T06:51:32.000Z</time>
        <extensions>
          <ns3:TrackPointExtension>
            <ns3:hr>169</ns3:hr>
            <ns3:cad>0</ns3:cad>
          </ns3:TrackPointExtension>
        </extensions>
      </trkpt>
      <trkpt lat="47.55859094671905040740966796875" lon="11.02682453580200672149658203125">
        <ele>1342.5999755859375</ele>
        <time>2026-09-01T06:51:33.000Z</time>
        <extensions>
          <ns3:TrackPointExtension>
            <ns3:hr>169</ns3:hr>
            <ns3:cad>0</ns3:cad>
          </ns3:TrackPointExtension>
        </extensions>
      </trkpt>
      <trkpt lat="47.55857887677848339080810546875" lon="11.026826463639736175537109375">
        <ele>1343</ele>
        <time>2026-09-01T06:51:34.000Z</time>
        <extensions>
          <ns3:TrackPointExtension>
            <ns3:hr>169</ns3:hr>
            <ns3:cad>0</ns3:cad>
          </ns3:TrackPointExtension>
        </extensions>
      </trkpt>
      <trkpt lat="47.55856932140886783599853515625" lon="11.0268246196210384368896484375">
        <ele>1343.199951171875</ele>
        <time>2026-09-01T06:51:35.000Z</time>
        <extensions>
          <ns3:TrackPointExtension>
            <ns3:hr>169</ns3:hr>
            <ns3:cad>0</ns3:cad>
          </ns3:TrackPointExtension>
        </extensions>
      </trkpt>
      <trkpt lat="47.5585685670375823974609375" lon="11.02682487107813358306884765625">
        <ele>1343.5999755859375</ele>
        <time>2026-09-01T06:51:36.000Z</time>
        <extensions>
          <ns3:TrackPointExtension>
            <ns3:hr>171</ns3:hr>
            <ns3:cad>0</ns3:cad>
          </ns3:TrackPointExtension>
        </extensions>
      </trkpt>
      <trkpt lat="47.558564879000186920166015625" lon="11.02682772092521190643310546875">
        <ele>1344</ele>
        <time>2026-09-01T06:51:37.000Z</time>
        <extensions>
          <ns3:TrackPointExtension>
            <ns3:hr>171</ns3:hr>
            <ns3:cad>0</ns3:cad>
          </ns3:TrackPointExtension>
        </extensions>
      </trkpt>
      <trkpt lat="47.55856999196112155914306640625" lon="11.02679519914090633392333984375">
        <ele>1344.199951171875</ele>
        <time>2026-09-01T06:51:38.000Z</time>
        <extensions>
          <ns3:TrackPointExtension>
            <ns3:hr>172</ns3:hr>
            <ns3:cad>0</ns3:cad>
          </ns3:TrackPointExtension>
        </extensions>
      </trkpt>
      <trkpt lat="47.55857988260686397552490234375" lon="11.026778854429721832275390625">
        <ele>1344.4000244140625</ele>
        <time>2026-09-01T06:51:39.000Z</time>
        <extensions>
          <ns3:TrackPointExtension>
            <ns3:hr>172</ns3:hr>
            <ns3:cad>0</ns3:cad>
          </ns3:TrackPointExtension>
        </extensions>
      </trkpt>
      <trkpt lat="47.55857921205461025238037109375" lon="11.02677407674491405487060546875">
        <ele>1344.5999755859375</ele>
        <time>2026-09-01T06:51:40.000Z</time>
        <extensions>
          <ns3:TrackPointExtension>
            <ns3:hr>173</ns3:hr>
            <ns3:cad>0</ns3:cad>
          </ns3:TrackPointExtension>
        </extensions>
      </trkpt>
      <trkpt lat="47.55857418291270732879638671875" lon="11.0267592407763004302978515625">
        <ele>1345</ele>
        <time>2026-09-01T06:51:41.000Z</time>
        <extensions>
          <ns3:TrackPointExtension>
            <ns3:hr>173</ns3:hr>
            <ns3:cad>0</ns3:cad>
          </ns3:TrackPointExtension>
        </extensions>
      </trkpt>
      <trkpt lat="47.55856982432305812835693359375" lon="11.0267461650073528289794921875">
        <ele>1345.199951171875</ele>
        <time>2026-09-01T06:51:42.000Z</time>
        <extensions>
          <ns3:TrackPointExtension>
            <ns3:hr>174</ns3:hr>
            <ns3:cad>0</ns3:cad>
          </ns3:TrackPointExtension>
        </extensions>
      </trkpt>
      <trkpt lat="47.5585623644292354583740234375" lon="11.0267431475222110748291015625">
        <ele>1345.5999755859375</ele>
        <time>2026-09-01T06:51:43.000Z</time>
        <extensions>
          <ns3:TrackPointExtension>
            <ns3:hr>174</ns3:hr>
            <ns3:cad>0</ns3:cad>
          </ns3:TrackPointExtension>
        </extensions>
      </trkpt>
      <trkpt lat="47.5585605204105377197265625" lon="11.0267404653131961822509765625">
        <ele>1345.800048828125</ele>
        <time>2026-09-01T06:51:44.000Z</time>
        <extensions>
          <ns3:TrackPointExtension>
            <ns3:hr>174</ns3:hr>
            <ns3:cad>0</ns3:cad>
          </ns3:TrackPointExtension>
        </extensions>
      </trkpt>
      <trkpt lat="47.5585445947945117950439453125" lon="11.02674968540668487548828125">
        <ele>1346.199951171875</ele>
        <time>2026-09-01T06:51:45.000Z</time>
        <extensions>
          <ns3:TrackPointExtension>
            <ns3:hr>174</ns3:hr>
            <ns3:cad>0</ns3:cad>
          </ns3:TrackPointExtension>
        </extensions>
      </trkpt>
      <trkpt lat="47.55854082293808460235595703125" lon="11.0267511941492557525634765625">
        <ele>1346.4000244140625</ele>
        <time>2026-09-01T06:51:46.000Z</time>
        <extensions>
          <ns3:TrackPointExtension>
            <ns3:hr>174</ns3:hr>
            <ns3:cad>0</ns3:cad>
          </ns3:TrackPointExtension>
        </extensions>
      </trkpt>
      <trkpt lat="47.558532021939754486083984375" lon="11.02675312198698520660400390625">
        <ele>1346.5999755859375</ele>
        <time>2026-09-01T06:51:47.000Z</time>
        <extensions>
          <ns3:TrackPointExtension>
            <ns3:hr>175</ns3:hr>
            <ns3:cad>0</ns3:cad>
          </ns3:TrackPointExtension>
        </extensions>
      </trkpt>
      <trkpt lat="47.55852305330336093902587890625" lon="11.0267491824924945831298828125">
        <ele>1346.800048828125</ele>
        <time>2026-09-01T06:51:48.000Z</time>
        <extensions>
          <ns3:TrackPointExtension>
            <ns3:hr>175</ns3:hr>
            <ns3:cad>0</ns3:cad>
          </ns3:TrackPointExtension>
        </extensions>
      </trkpt>
      <trkpt lat="47.55851550959050655364990234375" lon="11.02674658410251140594482421875">
        <ele>1347.199951171875</ele>
        <time>2026-09-01T06:51:49.000Z</time>
        <extensions>
          <ns3:TrackPointExtension>
            <ns3:hr>175</ns3:hr>
            <ns3:cad>0</ns3:cad>
          </ns3:TrackPointExtension>
        </extensions>
      </trkpt>
      <trkpt lat="47.55850712768733501434326171875" lon="11.026735939085483551025390625">
        <ele>1347.199951171875</ele>
        <time>2026-09-01T06:51:50.000Z</time>
        <extensions>
          <ns3:TrackPointExtension>
            <ns3:hr>175</ns3:hr>
            <ns3:cad>0</ns3:cad>
          </ns3:TrackPointExtension>
        </extensions>
      </trkpt>
      <trkpt lat="47.55850218236446380615234375" lon="11.02672277949750423431396484375">
        <ele>1347.5999755859375</ele>
        <time>2026-09-01T06:51:51.000Z</time>
        <extensions>
          <ns3:TrackPointExtension>
            <ns3:hr>175</ns3:hr>
            <ns3:cad>0</ns3:cad>
          </ns3:TrackPointExtension>
        </extensions>
      </trkpt>
      <trkpt lat="47.55850075744092464447021484375" lon="11.02671255357563495635986328125">
        <ele>1347.800048828125</ele>
        <time>2026-09-01T06:51:52.000Z</time>
        <extensions>
          <ns3:TrackPointExtension>
            <ns3:hr>175</ns3:hr>
            <ns3:cad>0</ns3:cad>
          </ns3:TrackPointExtension>
        </extensions>
      </trkpt>
      <trkpt lat="47.5584966503083705902099609375" lon="11.02668807841837406158447265625">
        <ele>1348.199951171875</ele>
        <time>2026-09-01T06:51:53.000Z</time>
        <extensions>
          <ns3:TrackPointExtension>
            <ns3:hr>175</ns3:hr>
            <ns3:cad>0</ns3:cad>
          </ns3:TrackPointExtension>
        </extensions>
      </trkpt>
      <trkpt lat="47.5584979914128780364990234375" lon="11.0266787745058536529541015625">
        <ele>1348.4000244140625</ele>
        <time>2026-09-01T06:51:54.000Z</time>
        <extensions>
          <ns3:TrackPointExtension>
            <ns3:hr>176</ns3:hr>
            <ns3:cad>0</ns3:cad>
          </ns3:TrackPointExtension>
        </extensions>
      </trkpt>
      <trkpt lat="47.55849815905094146728515625" lon="11.0266770981252193450927734375">
        <ele>1348.800048828125</ele>
        <time>2026-09-01T06:51:55.000Z</time>
        <extensions>
          <ns3:TrackPointExtension>
            <ns3:hr>176</ns3:hr>
            <ns3:cad>0</ns3:cad>
          </ns3:TrackPointExtension>
        </extensions>
      </trkpt>
      <trkpt lat="47.55849773995578289031982421875" lon="11.02666695602238178253173828125">
        <ele>1349</ele>
        <time>2026-09-01T06:51:56.000Z</time>
        <extensions>
          <ns3:TrackPointExtension>
            <ns3:hr>176</ns3:hr>
            <ns3:cad>0</ns3:cad>
          </ns3:TrackPointExtension>
        </extensions>
      </trkpt>
      <trkpt lat="47.55849908106029033660888671875" lon="11.02665580809116363525390625">
        <ele>1349.199951171875</ele>
        <time>2026-09-01T06:51:57.000Z</time>
        <extensions>
          <ns3:TrackPointExtension>
            <ns3:hr>176</ns3:hr>
            <ns3:cad>0</ns3:cad>
          </ns3:TrackPointExtension>
        </extensions>
      </trkpt>
      <trkpt lat="47.55849187262356281280517578125" lon="11.02664239704608917236328125">
        <ele>1349.4000244140625</ele>
        <time>2026-09-01T06:51:58.000Z</time>
        <extensions>
          <ns3:TrackPointExtension>
            <ns3:hr>176</ns3:hr>
            <ns3:cad>0</ns3:cad>
          </ns3:TrackPointExtension>
        </extensions>
      </trkpt>
      <trkpt lat="47.5584849156439304351806640625" lon="11.02664650417864322662353515625">
        <ele>1349.5999755859375</ele>
        <time>2026-09-01T06:51:59.000Z</time>
        <extensions>
          <ns3:TrackPointExtension>
            <ns3:hr>177</ns3:hr>
            <ns3:cad>0</ns3:cad>
          </ns3:TrackPointExtension>
        </extensions>
      </trkpt>
      <trkpt lat="47.5584795512259006500244140625" lon="11.02664616890251636505126953125">
        <ele>1350</ele>
        <time>2026-09-01T06:52:00.000Z</time>
        <extensions>
          <ns3:TrackPointExtension>
            <ns3:hr>177</ns3:hr>
            <ns3:cad>0</ns3:cad>
          </ns3:TrackPointExtension>
        </extensions>
      </trkpt>
      <trkpt lat="47.55847577936947345733642578125" lon="11.02663661353290081024169921875">
        <ele>1350.199951171875</ele>
        <time>2026-09-01T06:52:01.000Z</time>
        <extensions>
          <ns3:TrackPointExtension>
            <ns3:hr>177</ns3:hr>
            <ns3:cad>0</ns3:cad>
          </ns3:TrackPointExtension>
        </extensions>
      </trkpt>
      <trkpt lat="47.558473013341426849365234375" lon="11.0266341827809810638427734375">
        <ele>1350.5999755859375</ele>
        <time>2026-09-01T06:52:02.000Z</time>
        <extensions>
          <ns3:TrackPointExtension>
            <ns3:hr>177</ns3:hr>
            <ns3:cad>0</ns3:cad>
          </ns3:TrackPointExtension>
        </extensions>
      </trkpt>
      <trkpt lat="47.558458931744098663330078125" lon="11.0266090370714664459228515625">
        <ele>1350.800048828125</ele>
        <time>2026-09-01T06:52:03.000Z</time>
        <extensions>
          <ns3:TrackPointExtension>
            <ns3:hr>177</ns3:hr>
            <ns3:cad>0</ns3:cad>
          </ns3:TrackPointExtension>
        </extensions>
      </trkpt>
      <trkpt lat="47.5584544055163860321044921875" lon="11.02660107426345348358154296875">
        <ele>1351.199951171875</ele>
        <time>2026-09-01T06:52:04.000Z</time>
        <extensions>
          <ns3:TrackPointExtension>
            <ns3:hr>178</ns3:hr>
            <ns3:cad>0</ns3:cad>
          </ns3:TrackPointExtension>
        </extensions>
      </trkpt>
      <trkpt lat="47.5584540702402591705322265625" lon="11.0265909321606159210205078125">
        <ele>1351.4000244140625</ele>
        <time>2026-09-01T06:52:05.000Z</time>
        <extensions>
          <ns3:TrackPointExtension>
            <ns3:hr>178</ns3:hr>
            <ns3:cad>0</ns3:cad>
          </ns3:TrackPointExtension>
        </extensions>
      </trkpt>
      <trkpt lat="47.5584523938596248626708984375" lon="11.02657441981136798858642578125">
        <ele>1351.800048828125</ele>
        <time>2026-09-01T06:52:06.000Z</time>
        <extensions>
          <ns3:TrackPointExtension>
            <ns3:hr>178</ns3:hr>
            <ns3:cad>0</ns3:cad>
          </ns3:TrackPointExtension>
        </extensions>
      </trkpt>
      <trkpt lat="47.5584507174789905548095703125" lon="11.02656436152756214141845703125">
        <ele>1352.199951171875</ele>
        <time>2026-09-01T06:52:07.000Z</time>
        <extensions>
          <ns3:TrackPointExtension>
            <ns3:hr>178</ns3:hr>
            <ns3:cad>0</ns3:cad>
          </ns3:TrackPointExtension>
        </extensions>
      </trkpt>
      <trkpt lat="47.5584533996880054473876953125" lon="11.026559583842754364013671875">
        <ele>1352.5999755859375</ele>
        <time>2026-09-01T06:52:08.000Z</time>
        <extensions>
          <ns3:TrackPointExtension>
            <ns3:hr>178</ns3:hr>
            <ns3:cad>0</ns3:cad>
          </ns3:TrackPointExtension>
        </extensions>
      </trkpt>
      <trkpt lat="47.55844962783157825469970703125" lon="11.02653536014258861541748046875">
        <ele>1352.5999755859375</ele>
        <time>2026-09-01T06:52:09.000Z</time>
        <extensions>
          <ns3:TrackPointExtension>
            <ns3:hr>178</ns3:hr>
            <ns3:cad>0</ns3:cad>
          </ns3:TrackPointExtension>
        </extensions>
      </trkpt>
      <trkpt lat="47.55844526924192905426025390625" lon="11.0265185125172138214111328125">
        <ele>1353</ele>
        <time>2026-09-01T06:52:10.000Z</time>
        <extensions>
          <ns3:TrackPointExtension>
            <ns3:hr>178</ns3:hr>
            <ns3:cad>0</ns3:cad>
          </ns3:TrackPointExtension>
        </extensions>
      </trkpt>
      <trkpt lat="47.55844057537615299224853515625" lon="11.02651541121304035186767578125">
        <ele>1353.199951171875</ele>
        <time>2026-09-01T06:52:11.000Z</time>
        <extensions>
          <ns3:TrackPointExtension>
            <ns3:hr>178</ns3:hr>
            <ns3:cad>0</ns3:cad>
          </ns3:TrackPointExtension>
        </extensions>
      </trkpt>
      <trkpt lat="47.5584349595010280609130859375" lon="11.0265074484050273895263671875">
        <ele>1353.199951171875</ele>
        <time>2026-09-01T06:52:12.000Z</time>
        <extensions>
          <ns3:TrackPointExtension>
            <ns3:hr>178</ns3:hr>
            <ns3:cad>0</ns3:cad>
          </ns3:TrackPointExtension>
        </extensions>
      </trkpt>
      <trkpt lat="47.55843378603458404541015625" lon="11.0264926962554454803466796875">
        <ele>1353.4000244140625</ele>
        <time>2026-09-01T06:52:13.000Z</time>
        <extensions>
          <ns3:TrackPointExtension>
            <ns3:hr>179</ns3:hr>
            <ns3:cad>0</ns3:cad>
          </ns3:TrackPointExtension>
        </extensions>
      </trkpt>
      <trkpt lat="47.55842439830303192138671875" lon="11.02647048421204090118408203125">
        <ele>1353.800048828125</ele>
        <time>2026-09-01T06:52:14.000Z</time>
        <extensions>
          <ns3:TrackPointExtension>
            <ns3:hr>178</ns3:hr>
            <ns3:cad>0</ns3:cad>
          </ns3:TrackPointExtension>
        </extensions>
      </trkpt>
      <trkpt lat="47.55841878242790699005126953125" lon="11.026462353765964508056640625">
        <ele>1354</ele>
        <time>2026-09-01T06:52:15.000Z</time>
        <extensions>
          <ns3:TrackPointExtension>
            <ns3:hr>178</ns3:hr>
            <ns3:cad>0</ns3:cad>
          </ns3:TrackPointExtension>
        </extensions>
      </trkpt>
      <trkpt lat="47.55840989761054515838623046875" lon="11.02645053528249263763427734375">
        <ele>1354.199951171875</ele>
        <time>2026-09-01T06:52:16.000Z</time>
        <extensions>
          <ns3:TrackPointExtension>
            <ns3:hr>178</ns3:hr>
            <ns3:cad>0</ns3:cad>
          </ns3:TrackPointExtension>
        </extensions>
      </trkpt>
      <trkpt lat="47.55839824676513671875" lon="11.02644265629351139068603515625">
        <ele>1354.5999755859375</ele>
        <time>2026-09-01T06:52:17.000Z</time>
        <extensions>
          <ns3:TrackPointExtension>
            <ns3:hr>178</ns3:hr>
            <ns3:cad>0</ns3:cad>
          </ns3:TrackPointExtension>
        </extensions>
      </trkpt>
      <trkpt lat="47.55838894285261631011962890625" lon="11.0264588333666324615478515625">
        <ele>1355.199951171875</ele>
        <time>2026-09-01T06:52:18.000Z</time>
        <extensions>
          <ns3:TrackPointExtension>
            <ns3:hr>178</ns3:hr>
            <ns3:cad>0</ns3:cad>
          </ns3:TrackPointExtension>
        </extensions>
      </trkpt>
      <trkpt lat="47.55838341079652309417724609375" lon="11.0264655388891696929931640625">
        <ele>1355.4000244140625</ele>
        <time>2026-09-01T06:52:19.000Z</time>
        <extensions>
          <ns3:TrackPointExtension>
            <ns3:hr>177</ns3:hr>
            <ns3:cad>0</ns3:cad>
          </ns3:TrackPointExtension>
        </extensions>
      </trkpt>
      <trkpt lat="47.55837234668433666229248046875" lon="11.0264672152698040008544921875">
        <ele>1355.800048828125</ele>
        <time>2026-09-01T06:52:20.000Z</time>
        <extensions>
          <ns3:TrackPointExtension>
            <ns3:hr>178</ns3:hr>
            <ns3:cad>0</ns3:cad>
          </ns3:TrackPointExtension>
        </extensions>
      </trkpt>
      <trkpt lat="47.55836664699018001556396484375" lon="11.02646713145077228546142578125">
        <ele>1356.199951171875</ele>
        <time>2026-09-01T06:52:21.000Z</time>
        <extensions>
          <ns3:TrackPointExtension>
            <ns3:hr>177</ns3:hr>
            <ns3:cad>0</ns3:cad>
          </ns3:TrackPointExtension>
        </extensions>
      </trkpt>
      <trkpt lat="47.5583581812679767608642578125" lon="11.0264611802995204925537109375">
        <ele>1356.4000244140625</ele>
        <time>2026-09-01T06:52:22.000Z</time>
        <extensions>
          <ns3:TrackPointExtension>
            <ns3:hr>173</ns3:hr>
            <ns3:cad>0</ns3:cad>
          </ns3:TrackPointExtension>
        </extensions>
      </trkpt>
      <trkpt lat="47.55834820680320262908935546875" lon="11.02645724080502986907958984375">
        <ele>1356.5999755859375</ele>
        <time>2026-09-01T06:52:23.000Z</time>
        <extensions>
          <ns3:TrackPointExtension>
            <ns3:hr>172</ns3:hr>
            <ns3:cad>0</ns3:cad>
          </ns3:TrackPointExtension>
        </extensions>
      </trkpt>
      <trkpt lat="47.55833923816680908203125" lon="11.026452966034412384033203125">
        <ele>1356.800048828125</ele>
        <time>2026-09-01T06:52:24.000Z</time>
        <extensions>
          <ns3:TrackPointExtension>
            <ns3:hr>171</ns3:hr>
            <ns3:cad>0</ns3:cad>
          </ns3:TrackPointExtension>
        </extensions>
      </trkpt>
      <trkpt lat="47.558337561786174774169921875" lon="11.02644617669284343719482421875">
        <ele>1357</ele>
        <time>2026-09-01T06:52:25.000Z</time>
        <extensions>
          <ns3:TrackPointExtension>
            <ns3:hr>170</ns3:hr>
            <ns3:cad>0</ns3:cad>
          </ns3:TrackPointExtension>
        </extensions>
      </trkpt>
      <trkpt lat="47.55832356400787830352783203125" lon="11.0264373756945133209228515625">
        <ele>1357.4000244140625</ele>
        <time>2026-09-01T06:52:26.000Z</time>
        <extensions>
          <ns3:TrackPointExtension>
            <ns3:hr>170</ns3:hr>
            <ns3:cad>0</ns3:cad>
          </ns3:TrackPointExtension>
        </extensions>
      </trkpt>
      <trkpt lat="47.55832473747432231903076171875" lon="11.02644215337932109832763671875">
        <ele>1357.800048828125</ele>
        <time>2026-09-01T06:52:27.000Z</time>
        <extensions>
          <ns3:TrackPointExtension>
            <ns3:hr>169</ns3:hr>
            <ns3:cad>63</ns3:cad>
          </ns3:TrackPointExtension>
        </extensions>
      </trkpt>
      <trkpt lat="47.55831786431372165679931640625" lon="11.02644064463675022125244140625">
        <ele>1358</ele>
        <time>2026-09-01T06:52:28.000Z</time>
        <extensions>
          <ns3:TrackPointExtension>
            <ns3:hr>169</ns3:hr>
            <ns3:cad>63</ns3:cad>
          </ns3:TrackPointExtension>
        </extensions>
      </trkpt>
      <trkpt lat="47.5583139248192310333251953125" lon="11.02644097991287708282470703125">
        <ele>1358.199951171875</ele>
        <time>2026-09-01T06:52:29.000Z</time>
        <extensions>
          <ns3:TrackPointExtension>
            <ns3:hr>170</ns3:hr>
            <ns3:cad>63</ns3:cad>
          </ns3:TrackPointExtension>
        </extensions>
      </trkpt>
      <trkpt lat="47.558307386934757232666015625" lon="11.02644014172255992889404296875">
        <ele>1358.199951171875</ele>
        <time>2026-09-01T06:52:30.000Z</time>
        <extensions>
          <ns3:TrackPointExtension>
            <ns3:hr>171</ns3:hr>
            <ns3:cad>63</ns3:cad>
          </ns3:TrackPointExtension>
        </extensions>
      </trkpt>
      <trkpt lat="47.55829875357449054718017578125" lon="11.0264393873512744903564453125">
        <ele>1358.5999755859375</ele>
        <time>2026-09-01T06:52:31.000Z</time>
        <extensions>
          <ns3:TrackPointExtension>
            <ns3:hr>170</ns3:hr>
            <ns3:cad>62</ns3:cad>
          </ns3:TrackPointExtension>
        </extensions>
      </trkpt>
      <trkpt lat="47.5582917965948581695556640625" lon="11.02643729187548160552978515625">
        <ele>1358.800048828125</ele>
        <time>2026-09-01T06:52:32.000Z</time>
        <extensions>
          <ns3:TrackPointExtension>
            <ns3:hr>169</ns3:hr>
            <ns3:cad>0</ns3:cad>
          </ns3:TrackPointExtension>
        </extensions>
      </trkpt>
      <trkpt lat="47.55828986875712871551513671875" lon="11.0264367051422595977783203125">
        <ele>1359</ele>
        <time>2026-09-01T06:52:33.000Z</time>
        <extensions>
          <ns3:TrackPointExtension>
            <ns3:hr>169</ns3:hr>
            <ns3:cad>0</ns3:cad>
          </ns3:TrackPointExtension>
        </extensions>
      </trkpt>
      <trkpt lat="47.55828785710036754608154296875" lon="11.02643729187548160552978515625">
        <ele>1359.199951171875</ele>
        <time>2026-09-01T06:52:34.000Z</time>
        <extensions>
          <ns3:TrackPointExtension>
            <ns3:hr>168</ns3:hr>
            <ns3:cad>0</ns3:cad>
          </ns3:TrackPointExtension>
        </extensions>
      </trkpt>
      <trkpt lat="47.55828165449202060699462890625" lon="11.02643745951354503631591796875">
        <ele>1359.800048828125</ele>
        <time>2026-09-01T06:52:35.000Z</time>
        <extensions>
          <ns3:TrackPointExtension>
            <ns3:hr>168</ns3:hr>
            <ns3:cad>0</ns3:cad>
          </ns3:TrackPointExtension>
        </extensions>
      </trkpt>
      <trkpt lat="47.55827729590237140655517578125" lon="11.02644064463675022125244140625">
        <ele>1360.199951171875</ele>
        <time>2026-09-01T06:52:36.000Z</time>
        <extensions>
          <ns3:TrackPointExtension>
            <ns3:hr>167</ns3:hr>
            <ns3:cad>0</ns3:cad>
          </ns3:TrackPointExtension>
        </extensions>
      </trkpt>
      <trkpt lat="47.5582733564078807830810546875" lon="11.02644399739801883697509765625">
        <ele>1360.5999755859375</ele>
        <time>2026-09-01T06:52:37.000Z</time>
        <extensions>
          <ns3:TrackPointExtension>
            <ns3:hr>167</ns3:hr>
            <ns3:cad>0</ns3:cad>
          </ns3:TrackPointExtension>
        </extensions>
      </trkpt>
      <trkpt lat="47.5582713447511196136474609375" lon="11.02644869126379489898681640625">
        <ele>1361.199951171875</ele>
        <time>2026-09-01T06:52:38.000Z</time>
        <extensions>
          <ns3:TrackPointExtension>
            <ns3:hr>167</ns3:hr>
            <ns3:cad>0</ns3:cad>
          </ns3:TrackPointExtension>
        </extensions>
      </trkpt>
      <trkpt lat="47.55827092565596103668212890625" lon="11.026454977691173553466796875">
        <ele>1361.5999755859375</ele>
        <time>2026-09-01T06:52:39.000Z</time>
        <extensions>
          <ns3:TrackPointExtension>
            <ns3:hr>166</ns3:hr>
            <ns3:cad>0</ns3:cad>
          </ns3:TrackPointExtension>
        </extensions>
      </trkpt>
      <trkpt lat="47.5582710094749927520751953125" lon="11.0264615155756473541259765625">
        <ele>1361.800048828125</ele>
        <time>2026-09-01T06:52:40.000Z</time>
        <extensions>
          <ns3:TrackPointExtension>
            <ns3:hr>166</ns3:hr>
            <ns3:cad>0</ns3:cad>
          </ns3:TrackPointExtension>
        </extensions>
      </trkpt>
      <trkpt lat="47.5582773797214031219482421875" lon="11.026465706527233123779296875">
        <ele>1362</ele>
        <time>2026-09-01T06:52:41.000Z</time>
        <extensions>
          <ns3:TrackPointExtension>
            <ns3:hr>166</ns3:hr>
            <ns3:cad>0</ns3:cad>
          </ns3:TrackPointExtension>
        </extensions>
      </trkpt>
      <trkpt lat="47.5582757033407688140869140625" lon="11.02648087777197360992431640625">
        <ele>1362</ele>
        <time>2026-09-01T06:52:42.000Z</time>
        <extensions>
          <ns3:TrackPointExtension>
            <ns3:hr>166</ns3:hr>
            <ns3:cad>0</ns3:cad>
          </ns3:TrackPointExtension>
        </extensions>
      </trkpt>
      <trkpt lat="47.558271847665309906005859375" lon="11.02648817002773284912109375">
        <ele>1362</ele>
        <time>2026-09-01T06:52:43.000Z</time>
        <extensions>
          <ns3:TrackPointExtension>
            <ns3:hr>166</ns3:hr>
            <ns3:cad>0</ns3:cad>
          </ns3:TrackPointExtension>
        </extensions>
      </trkpt>
      <trkpt lat="47.558278553187847137451171875" lon="11.026493869721889495849609375">
        <ele>1362.4000244140625</ele>
        <time>2026-09-01T06:52:44.000Z</time>
        <extensions>
          <ns3:TrackPointExtension>
            <ns3:hr>165</ns3:hr>
            <ns3:cad>56</ns3:cad>
          </ns3:TrackPointExtension>
        </extensions>
      </trkpt>
      <trkpt lat="47.5582817383110523223876953125" lon="11.026502586901187896728515625">
        <ele>1362.5999755859375</ele>
        <time>2026-09-01T06:52:45.000Z</time>
        <extensions>
          <ns3:TrackPointExtension>
            <ns3:hr>165</ns3:hr>
            <ns3:cad>56</ns3:cad>
          </ns3:TrackPointExtension>
        </extensions>
      </trkpt>
      <trkpt lat="47.5582820735871791839599609375" lon="11.0265141539275646209716796875">
        <ele>1363</ele>
        <time>2026-09-01T06:52:46.000Z</time>
        <extensions>
          <ns3:TrackPointExtension>
            <ns3:hr>166</ns3:hr>
            <ns3:cad>56</ns3:cad>
          </ns3:TrackPointExtension>
        </extensions>
      </trkpt>
      <trkpt lat="47.55828282795846462249755859375" lon="11.02652848698198795318603515625">
        <ele>1363.4000244140625</ele>
        <time>2026-09-01T06:52:47.000Z</time>
        <extensions>
          <ns3:TrackPointExtension>
            <ns3:hr>165</ns3:hr>
            <ns3:cad>0</ns3:cad>
          </ns3:TrackPointExtension>
        </extensions>
      </trkpt>
      <trkpt lat="47.558285258710384368896484375" lon="11.0265436582267284393310546875">
        <ele>1364</ele>
        <time>2026-09-01T06:52:48.000Z</time>
        <extensions>
          <ns3:TrackPointExtension>
            <ns3:hr>164</ns3:hr>
            <ns3:cad>0</ns3:cad>
          </ns3:TrackPointExtension>
        </extensions>
      </trkpt>
      <trkpt lat="47.55829120986163616180419921875" lon="11.0265570692718029022216796875">
        <ele>1364.199951171875</ele>
        <time>2026-09-01T06:52:49.000Z</time>
        <extensions>
          <ns3:TrackPointExtension>
            <ns3:hr>162</ns3:hr>
            <ns3:cad>0</ns3:cad>
          </ns3:TrackPointExtension>
        </extensions>
      </trkpt>
      <trkpt lat="47.558299340307712554931640625" lon="11.02657156996428966522216796875">
        <ele>1364.4000244140625</ele>
        <time>2026-09-01T06:52:50.000Z</time>
        <extensions>
          <ns3:TrackPointExtension>
            <ns3:hr>160</ns3:hr>
            <ns3:cad>0</ns3:cad>
          </ns3:TrackPointExtension>
        </extensions>
      </trkpt>
      <trkpt lat="47.55829975940287113189697265625" lon="11.026578359305858612060546875">
        <ele>1364.5999755859375</ele>
        <time>2026-09-01T06:52:51.000Z</time>
        <extensions>
          <ns3:TrackPointExtension>
            <ns3:hr>159</ns3:hr>
            <ns3:cad>0</ns3:cad>
          </ns3:TrackPointExtension>
        </extensions>
      </trkpt>
      <trkpt lat="47.55829623900353908538818359375" lon="11.02658900432288646697998046875">
        <ele>1364.800048828125</ele>
        <time>2026-09-01T06:52:52.000Z</time>
        <extensions>
          <ns3:TrackPointExtension>
            <ns3:hr>158</ns3:hr>
            <ns3:cad>0</ns3:cad>
          </ns3:TrackPointExtension>
        </extensions>
      </trkpt>
      <trkpt lat="47.55829439498484134674072265625" lon="11.02659881114959716796875">
        <ele>1365.199951171875</ele>
        <time>2026-09-01T06:52:53.000Z</time>
        <extensions>
          <ns3:TrackPointExtension>
            <ns3:hr>158</ns3:hr>
            <ns3:cad>0</ns3:cad>
          </ns3:TrackPointExtension>
        </extensions>
      </trkpt>
      <trkpt lat="47.55829120986163616180419921875" lon="11.02660861797630786895751953125">
        <ele>1365.4000244140625</ele>
        <time>2026-09-01T06:52:54.000Z</time>
        <extensions>
          <ns3:TrackPointExtension>
            <ns3:hr>158</ns3:hr>
            <ns3:cad>0</ns3:cad>
          </ns3:TrackPointExtension>
        </extensions>
      </trkpt>
      <trkpt lat="47.558277547359466552734375" lon="11.0266030021011829376220703125">
        <ele>1366</ele>
        <time>2026-09-01T06:52:55.000Z</time>
        <extensions>
          <ns3:TrackPointExtension>
            <ns3:hr>158</ns3:hr>
            <ns3:cad>0</ns3:cad>
          </ns3:TrackPointExtension>
        </extensions>
      </trkpt>
      <trkpt lat="47.5582663156092166900634765625" lon="11.02659168653190135955810546875">
        <ele>1366.4000244140625</ele>
        <time>2026-09-01T06:52:56.000Z</time>
        <extensions>
          <ns3:TrackPointExtension>
            <ns3:hr>158</ns3:hr>
            <ns3:cad>46</ns3:cad>
          </ns3:TrackPointExtension>
        </extensions>
      </trkpt>
      <trkpt lat="47.5582676567137241363525390625" lon="11.02658833377063274383544921875">
        <ele>1366.800048828125</ele>
        <time>2026-09-01T06:52:57.000Z</time>
        <extensions>
          <ns3:TrackPointExtension>
            <ns3:hr>157</ns3:hr>
            <ns3:cad>46</ns3:cad>
          </ns3:TrackPointExtension>
        </extensions>
      </trkpt>
      <trkpt lat="47.5582646392285823822021484375" lon="11.02657777257263660430908203125">
        <ele>1366.800048828125</ele>
        <time>2026-09-01T06:52:58.000Z</time>
        <extensions>
          <ns3:TrackPointExtension>
            <ns3:hr>157</ns3:hr>
            <ns3:cad>46</ns3:cad>
          </ns3:TrackPointExtension>
        </extensions>
      </trkpt>
      <trkpt lat="47.55826204083859920501708984375" lon="11.026569642126560211181640625">
        <ele>1366.800048828125</ele>
        <time>2026-09-01T06:52:59.000Z</time>
        <extensions>
          <ns3:TrackPointExtension>
            <ns3:hr>157</ns3:hr>
            <ns3:cad>44</ns3:cad>
          </ns3:TrackPointExtension>
        </extensions>
      </trkpt>
      <trkpt lat="47.55825835280120372772216796875" lon="11.0265570692718029022216796875">
        <ele>1367</ele>
        <time>2026-09-01T06:53:00.000Z</time>
        <extensions>
          <ns3:TrackPointExtension>
            <ns3:hr>156</ns3:hr>
            <ns3:cad>44</ns3:cad>
          </ns3:TrackPointExtension>
        </extensions>
      </trkpt>
      <trkpt lat="47.55825676023960113525390625" lon="11.026553548872470855712890625">
        <ele>1367.199951171875</ele>
        <time>2026-09-01T06:53:01.000Z</time>
        <extensions>
          <ns3:TrackPointExtension>
            <ns3:hr>157</ns3:hr>
            <ns3:cad>44</ns3:cad>
          </ns3:TrackPointExtension>
        </extensions>
      </trkpt>
      <trkpt lat="47.5582579337060451507568359375" lon="11.0265483520925045013427734375">
        <ele>1367.4000244140625</ele>
        <time>2026-09-01T06:53:02.000Z</time>
        <extensions>
          <ns3:TrackPointExtension>
            <ns3:hr>156</ns3:hr>
            <ns3:cad>44</ns3:cad>
          </ns3:TrackPointExtension>
        </extensions>
      </trkpt>
      <trkpt lat="47.558249048888683319091796875" lon="11.0265453346073627471923828125">
        <ele>1367.5999755859375</ele>
        <time>2026-09-01T06:53:03.000Z</time>
        <extensions>
          <ns3:TrackPointExtension>
            <ns3:hr>156</ns3:hr>
            <ns3:cad>44</ns3:cad>
          </ns3:TrackPointExtension>
        </extensions>
      </trkpt>
      <trkpt lat="47.55823890678584575653076171875" lon="11.026539467275142669677734375">
        <ele>1367.800048828125</ele>
        <time>2026-09-01T06:53:04.000Z</time>
        <extensions>
          <ns3:TrackPointExtension>
            <ns3:hr>156</ns3:hr>
            <ns3:cad>44</ns3:cad>
          </ns3:TrackPointExtension>
        </extensions>
      </trkpt>
      <trkpt lat="47.55822415463626384735107421875" lon="11.02653552778065204620361328125">
        <ele>1367.800048828125</ele>
        <time>2026-09-01T06:53:05.000Z</time>
        <extensions>
          <ns3:TrackPointExtension>
            <ns3:hr>156</ns3:hr>
            <ns3:cad>44</ns3:cad>
          </ns3:TrackPointExtension>
        </extensions>
      </trkpt>
      <trkpt lat="47.55821526981890201568603515625" lon="11.0265389643609523773193359375">
        <ele>1367.800048828125</ele>
        <time>2026-09-01T06:53:06.000Z</time>
        <extensions>
          <ns3:TrackPointExtension>
            <ns3:hr>156</ns3:hr>
            <ns3:cad>44</ns3:cad>
          </ns3:TrackPointExtension>
        </extensions>
      </trkpt>
      <trkpt lat="47.5581979192793369293212890625" lon="11.0265413112938404083251953125">
        <ele>1368.199951171875</ele>
        <time>2026-09-01T06:53:07.000Z</time>
        <extensions>
          <ns3:TrackPointExtension>
            <ns3:hr>156</ns3:hr>
            <ns3:cad>44</ns3:cad>
          </ns3:TrackPointExtension>
        </extensions>
      </trkpt>
      <trkpt lat="47.5581935606896877288818359375" lon="11.026542484760284423828125">
        <ele>1368.5999755859375</ele>
        <time>2026-09-01T06:53:08.000Z</time>
        <extensions>
          <ns3:TrackPointExtension>
            <ns3:hr>157</ns3:hr>
            <ns3:cad>44</ns3:cad>
          </ns3:TrackPointExtension>
        </extensions>
      </trkpt>
      <trkpt lat="47.5581828318536281585693359375" lon="11.026541478931903839111328125">
        <ele>1369</ele>
        <time>2026-09-01T06:53:09.000Z</time>
        <extensions>
          <ns3:TrackPointExtension>
            <ns3:hr>157</ns3:hr>
            <ns3:cad>44</ns3:cad>
          </ns3:TrackPointExtension>
        </extensions>
      </trkpt>
      <trkpt lat="47.55817386321723461151123046875" lon="11.02654424495995044708251953125">
        <ele>1369.4000244140625</ele>
        <time>2026-09-01T06:53:10.000Z</time>
        <extensions>
          <ns3:TrackPointExtension>
            <ns3:hr>160</ns3:hr>
            <ns3:cad>44</ns3:cad>
          </ns3:TrackPointExtension>
        </extensions>
      </trkpt>
      <trkpt lat="47.5581664033234119415283203125" lon="11.0265518724918365478515625">
        <ele>1369.800048828125</ele>
        <time>2026-09-01T06:53:11.000Z</time>
        <extensions>
          <ns3:TrackPointExtension>
            <ns3:hr>163</ns3:hr>
            <ns3:cad>44</ns3:cad>
          </ns3:TrackPointExtension>
        </extensions>
      </trkpt>
      <trkpt lat="47.558162212371826171875" lon="11.02655790746212005615234375">
        <ele>1370</ele>
        <time>2026-09-01T06:53:12.000Z</time>
        <extensions>
          <ns3:TrackPointExtension>
            <ns3:hr>165</ns3:hr>
            <ns3:cad>44</ns3:cad>
          </ns3:TrackPointExtension>
        </extensions>
      </trkpt>
      <trkpt lat="47.55815709941089153289794921875" lon="11.0265617631375789642333984375">
        <ele>1370.199951171875</ele>
        <time>2026-09-01T06:53:13.000Z</time>
        <extensions>
          <ns3:TrackPointExtension>
            <ns3:hr>166</ns3:hr>
            <ns3:cad>48</ns3:cad>
          </ns3:TrackPointExtension>
        </extensions>
      </trkpt>
      <trkpt lat="47.55815215408802032470703125" lon="11.02656461298465728759765625">
        <ele>1370.4000244140625</ele>
        <time>2026-09-01T06:53:14.000Z</time>
        <extensions>
          <ns3:TrackPointExtension>
            <ns3:hr>167</ns3:hr>
            <ns3:cad>48</ns3:cad>
          </ns3:TrackPointExtension>
        </extensions>
      </trkpt>
      <trkpt lat="47.55814083851873874664306640625" lon="11.0265677981078624725341796875">
        <ele>1370.5999755859375</ele>
        <time>2026-09-01T06:53:15.000Z</time>
        <extensions>
          <ns3:TrackPointExtension>
            <ns3:hr>168</ns3:hr>
            <ns3:cad>45</ns3:cad>
          </ns3:TrackPointExtension>
        </extensions>
      </trkpt>
      <trkpt lat="47.558135055005550384521484375" lon="11.0265679657459259033203125">
        <ele>1370.800048828125</ele>
        <time>2026-09-01T06:53:16.000Z</time>
        <extensions>
          <ns3:TrackPointExtension>
            <ns3:hr>168</ns3:hr>
            <ns3:cad>0</ns3:cad>
          </ns3:TrackPointExtension>
        </extensions>
      </trkpt>
      <trkpt lat="47.55812860094010829925537109375" lon="11.026569306850433349609375">
        <ele>1371.199951171875</ele>
        <time>2026-09-01T06:53:17.000Z</time>
        <extensions>
          <ns3:TrackPointExtension>
            <ns3:hr>168</ns3:hr>
            <ns3:cad>0</ns3:cad>
          </ns3:TrackPointExtension>
        </extensions>
      </trkpt>
      <trkpt lat="47.55811938084661960601806640625" lon="11.02656251750886440277099609375">
        <ele>1371.4000244140625</ele>
        <time>2026-09-01T06:53:18.000Z</time>
        <extensions>
          <ns3:TrackPointExtension>
            <ns3:hr>169</ns3:hr>
            <ns3:cad>0</ns3:cad>
          </ns3:TrackPointExtension>
        </extensions>
      </trkpt>
      <trkpt lat="47.5581060536205768585205078125" lon="11.0265631042420864105224609375">
        <ele>1371.800048828125</ele>
        <time>2026-09-01T06:53:19.000Z</time>
        <extensions>
          <ns3:TrackPointExtension>
            <ns3:hr>169</ns3:hr>
            <ns3:cad>0</ns3:cad>
          </ns3:TrackPointExtension>
        </extensions>
      </trkpt>
      <trkpt lat="47.55809473805129528045654296875" lon="11.02656167931854724884033203125">
        <ele>1371.800048828125</ele>
        <time>2026-09-01T06:53:20.000Z</time>
        <extensions>
          <ns3:TrackPointExtension>
            <ns3:hr>169</ns3:hr>
            <ns3:cad>52</ns3:cad>
          </ns3:TrackPointExtension>
        </extensions>
      </trkpt>
      <trkpt lat="47.55808551795780658721923828125" lon="11.0265600867569446563720703125">
        <ele>1371.800048828125</ele>
        <time>2026-09-01T06:53:21.000Z</time>
        <extensions>
          <ns3:TrackPointExtension>
            <ns3:hr>169</ns3:hr>
            <ns3:cad>52</ns3:cad>
          </ns3:TrackPointExtension>
        </extensions>
      </trkpt>
      <trkpt lat="47.5580742023885250091552734375" lon="11.026556901633739471435546875">
        <ele>1371.5999755859375</ele>
        <time>2026-09-01T06:53:22.000Z</time>
        <extensions>
          <ns3:TrackPointExtension>
            <ns3:hr>170</ns3:hr>
            <ns3:cad>52</ns3:cad>
          </ns3:TrackPointExtension>
        </extensions>
      </trkpt>
      <trkpt lat="47.5580601207911968231201171875" lon="11.02655027993023395538330078125">
        <ele>1371.4000244140625</ele>
        <time>2026-09-01T06:53:23.000Z</time>
        <extensions>
          <ns3:TrackPointExtension>
            <ns3:hr>170</ns3:hr>
            <ns3:cad>52</ns3:cad>
          </ns3:TrackPointExtension>
        </extensions>
      </trkpt>
      <trkpt lat="47.55805131979286670684814453125" lon="11.02654491551220417022705078125">
        <ele>1371.199951171875</ele>
        <time>2026-09-01T06:53:24.000Z</time>
        <extensions>
          <ns3:TrackPointExtension>
            <ns3:hr>170</ns3:hr>
            <ns3:cad>52</ns3:cad>
          </ns3:TrackPointExtension>
        </extensions>
      </trkpt>
      <trkpt lat="47.55804092623293399810791015625" lon="11.02653787471354007720947265625">
        <ele>1371.199951171875</ele>
        <time>2026-09-01T06:53:25.000Z</time>
        <extensions>
          <ns3:TrackPointExtension>
            <ns3:hr>170</ns3:hr>
            <ns3:cad>55</ns3:cad>
          </ns3:TrackPointExtension>
        </extensions>
      </trkpt>
      <trkpt lat="47.55802567116916179656982421875" lon="11.02652614004909992218017578125">
        <ele>1371.4000244140625</ele>
        <time>2026-09-01T06:53:26.000Z</time>
        <extensions>
          <ns3:TrackPointExtension>
            <ns3:hr>170</ns3:hr>
            <ns3:cad>55</ns3:cad>
          </ns3:TrackPointExtension>
        </extensions>
      </trkpt>
      <trkpt lat="47.5580098293721675872802734375" lon="11.0265124775469303131103515625">
        <ele>1371.5999755859375</ele>
        <time>2026-09-01T06:53:27.000Z</time>
        <extensions>
          <ns3:TrackPointExtension>
            <ns3:hr>170</ns3:hr>
            <ns3:cad>53</ns3:cad>
          </ns3:TrackPointExtension>
        </extensions>
      </trkpt>
      <trkpt lat="47.55800019018352031707763671875" lon="11.02650552056729793548583984375">
        <ele>1372</ele>
        <time>2026-09-01T06:53:28.000Z</time>
        <extensions>
          <ns3:TrackPointExtension>
            <ns3:hr>169</ns3:hr>
            <ns3:cad>52</ns3:cad>
          </ns3:TrackPointExtension>
        </extensions>
      </trkpt>
      <trkpt lat="47.5579877011477947235107421875" lon="11.02649898268282413482666015625">
        <ele>1372.199951171875</ele>
        <time>2026-09-01T06:53:29.000Z</time>
        <extensions>
          <ns3:TrackPointExtension>
            <ns3:hr>167</ns3:hr>
            <ns3:cad>52</ns3:cad>
          </ns3:TrackPointExtension>
        </extensions>
      </trkpt>
      <trkpt lat="47.55797806195914745330810546875" lon="11.0264960490167140960693359375">
        <ele>1372.4000244140625</ele>
        <time>2026-09-01T06:53:30.000Z</time>
        <extensions>
          <ns3:TrackPointExtension>
            <ns3:hr>167</ns3:hr>
            <ns3:cad>52</ns3:cad>
          </ns3:TrackPointExtension>
        </extensions>
      </trkpt>
      <trkpt lat="47.557960040867328643798828125" lon="11.0264846496284008026123046875">
        <ele>1372.5999755859375</ele>
        <time>2026-09-01T06:53:31.000Z</time>
        <extensions>
          <ns3:TrackPointExtension>
            <ns3:hr>168</ns3:hr>
            <ns3:cad>53</ns3:cad>
          </ns3:TrackPointExtension>
        </extensions>
      </trkpt>
      <trkpt lat="47.5579511560499668121337890625" lon="11.0264789499342441558837890625">
        <ele>1372.800048828125</ele>
        <time>2026-09-01T06:53:32.000Z</time>
        <extensions>
          <ns3:TrackPointExtension>
            <ns3:hr>168</ns3:hr>
            <ns3:cad>53</ns3:cad>
          </ns3:TrackPointExtension>
        </extensions>
      </trkpt>
      <trkpt lat="47.55794403143227100372314453125" lon="11.0264762677252292633056640625">
        <ele>1373.199951171875</ele>
        <time>2026-09-01T06:53:33.000Z</time>
        <extensions>
          <ns3:TrackPointExtension>
            <ns3:hr>167</ns3:hr>
            <ns3:cad>53</ns3:cad>
          </ns3:TrackPointExtension>
        </extensions>
      </trkpt>
      <trkpt lat="47.55793397314846515655517578125" lon="11.02647149004042148590087890625">
        <ele>1373.4000244140625</ele>
        <time>2026-09-01T06:53:34.000Z</time>
        <extensions>
          <ns3:TrackPointExtension>
            <ns3:hr>167</ns3:hr>
            <ns3:cad>50</ns3:cad>
          </ns3:TrackPointExtension>
        </extensions>
      </trkpt>
      <trkpt lat="47.55792106501758098602294921875" lon="11.02646981365978717803955078125">
        <ele>1373.5999755859375</ele>
        <time>2026-09-01T06:53:35.000Z</time>
        <extensions>
          <ns3:TrackPointExtension>
            <ns3:hr>167</ns3:hr>
            <ns3:cad>50</ns3:cad>
          </ns3:TrackPointExtension>
        </extensions>
      </trkpt>
      <trkpt lat="47.55791201256215572357177734375" lon="11.026471070945262908935546875">
        <ele>1374</ele>
        <time>2026-09-01T06:53:36.000Z</time>
        <extensions>
          <ns3:TrackPointExtension>
            <ns3:hr>166</ns3:hr>
            <ns3:cad>51</ns3:cad>
          </ns3:TrackPointExtension>
        </extensions>
      </trkpt>
      <trkpt lat="47.55790145136415958404541015625" lon="11.026472412049770355224609375">
        <ele>1374.199951171875</ele>
        <time>2026-09-01T06:53:37.000Z</time>
        <extensions>
          <ns3:TrackPointExtension>
            <ns3:hr>167</ns3:hr>
            <ns3:cad>51</ns3:cad>
          </ns3:TrackPointExtension>
        </extensions>
      </trkpt>
      <trkpt lat="47.5578899681568145751953125" lon="11.026477105915546417236328125">
        <ele>1374.5999755859375</ele>
        <time>2026-09-01T06:53:38.000Z</time>
        <extensions>
          <ns3:TrackPointExtension>
            <ns3:hr>167</ns3:hr>
            <ns3:cad>51</ns3:cad>
          </ns3:TrackPointExtension>
        </extensions>
      </trkpt>
      <trkpt lat="47.5578827597200870513916015625" lon="11.02648012340068817138671875">
        <ele>1375</ele>
        <time>2026-09-01T06:53:39.000Z</time>
        <extensions>
          <ns3:TrackPointExtension>
            <ns3:hr>167</ns3:hr>
            <ns3:cad>49</ns3:cad>
          </ns3:TrackPointExtension>
        </extensions>
      </trkpt>
      <trkpt lat="47.55787680856883525848388671875" lon="11.02648288942873477935791015625">
        <ele>1375.5999755859375</ele>
        <time>2026-09-01T06:53:40.000Z</time>
        <extensions>
          <ns3:TrackPointExtension>
            <ns3:hr>166</ns3:hr>
            <ns3:cad>47</ns3:cad>
          </ns3:TrackPointExtension>
        </extensions>
      </trkpt>
      <trkpt lat="47.5578733719885349273681640625" lon="11.02649345062673091888427734375">
        <ele>1376.199951171875</ele>
        <time>2026-09-01T06:53:41.000Z</time>
        <extensions>
          <ns3:TrackPointExtension>
            <ns3:hr>167</ns3:hr>
            <ns3:cad>47</ns3:cad>
          </ns3:TrackPointExtension>
        </extensions>
      </trkpt>
      <trkpt lat="47.5578631460666656494140625" lon="11.02650116197764873504638671875">
        <ele>1376.800048828125</ele>
        <time>2026-09-01T06:53:42.000Z</time>
        <extensions>
          <ns3:TrackPointExtension>
            <ns3:hr>166</ns3:hr>
            <ns3:cad>47</ns3:cad>
          </ns3:TrackPointExtension>
        </extensions>
      </trkpt>
      <trkpt lat="47.5578586198389530181884765625" lon="11.02650426328182220458984375">
        <ele>1377.4000244140625</ele>
        <time>2026-09-01T06:53:43.000Z</time>
        <extensions>
          <ns3:TrackPointExtension>
            <ns3:hr>166</ns3:hr>
            <ns3:cad>46</ns3:cad>
          </ns3:TrackPointExtension>
        </extensions>
      </trkpt>
      <trkpt lat="47.55785266868770122528076171875" lon="11.026504933834075927734375">
        <ele>1377.800048828125</ele>
        <time>2026-09-01T06:53:44.000Z</time>
        <extensions>
          <ns3:TrackPointExtension>
            <ns3:hr>165</ns3:hr>
            <ns3:cad>46</ns3:cad>
          </ns3:TrackPointExtension>
        </extensions>
      </trkpt>
      <trkpt lat="47.55784613080322742462158203125" lon="11.0265061073005199432373046875">
        <ele>1378</ele>
        <time>2026-09-01T06:53:45.000Z</time>
        <extensions>
          <ns3:TrackPointExtension>
            <ns3:hr>165</ns3:hr>
            <ns3:cad>46</ns3:cad>
          </ns3:TrackPointExtension>
        </extensions>
      </trkpt>
      <trkpt lat="47.557842023670673370361328125" lon="11.0265034250915050506591796875">
        <ele>1378.199951171875</ele>
        <time>2026-09-01T06:53:46.000Z</time>
        <extensions>
          <ns3:TrackPointExtension>
            <ns3:hr>165</ns3:hr>
            <ns3:cad>46</ns3:cad>
          </ns3:TrackPointExtension>
        </extensions>
      </trkpt>
      <trkpt lat="47.55783699452877044677734375" lon="11.02649797685444355010986328125">
        <ele>1378.4000244140625</ele>
        <time>2026-09-01T06:53:47.000Z</time>
        <extensions>
          <ns3:TrackPointExtension>
            <ns3:hr>165</ns3:hr>
            <ns3:cad>46</ns3:cad>
          </ns3:TrackPointExtension>
        </extensions>
      </trkpt>
      <trkpt lat="47.55782970227301120758056640625" lon="11.02648548781871795654296875">
        <ele>1378.5999755859375</ele>
        <time>2026-09-01T06:53:48.000Z</time>
        <extensions>
          <ns3:TrackPointExtension>
            <ns3:hr>165</ns3:hr>
            <ns3:cad>48</ns3:cad>
          </ns3:TrackPointExtension>
        </extensions>
      </trkpt>
      <trkpt lat="47.5578214041888713836669921875" lon="11.02646947838366031646728515625">
        <ele>1378.5999755859375</ele>
        <time>2026-09-01T06:53:49.000Z</time>
        <extensions>
          <ns3:TrackPointExtension>
            <ns3:hr>165</ns3:hr>
            <ns3:cad>48</ns3:cad>
          </ns3:TrackPointExtension>
        </extensions>
      </trkpt>
      <trkpt lat="47.55780388601124286651611328125" lon="11.02644550614058971405029296875">
        <ele>1378.5999755859375</ele>
        <time>2026-09-01T06:53:50.000Z</time>
        <extensions>
          <ns3:TrackPointExtension>
            <ns3:hr>165</ns3:hr>
            <ns3:cad>48</ns3:cad>
          </ns3:TrackPointExtension>
        </extensions>
      </trkpt>
      <trkpt lat="47.55779801867902278900146484375" lon="11.02643310092389583587646484375">
        <ele>1378.800048828125</ele>
        <time>2026-09-01T06:53:51.000Z</time>
        <extensions>
          <ns3:TrackPointExtension>
            <ns3:hr>165</ns3:hr>
            <ns3:cad>48</ns3:cad>
          </ns3:TrackPointExtension>
        </extensions>
      </trkpt>
      <trkpt lat="47.55778879858553409576416015625" lon="11.0264186002314090728759765625">
        <ele>1378.800048828125</ele>
        <time>2026-09-01T06:53:52.000Z</time>
        <extensions>
          <ns3:TrackPointExtension>
            <ns3:hr>165</ns3:hr>
            <ns3:cad>48</ns3:cad>
          </ns3:TrackPointExtension>
        </extensions>
      </trkpt>
      <trkpt lat="47.55777656100690364837646484375" lon="11.02640309371054172515869140625">
        <ele>1379</ele>
        <time>2026-09-01T06:53:53.000Z</time>
        <extensions>
          <ns3:TrackPointExtension>
            <ns3:hr>165</ns3:hr>
            <ns3:cad>50</ns3:cad>
          </ns3:TrackPointExtension>
        </extensions>
      </trkpt>
      <trkpt lat="47.55776164121925830841064453125" lon="11.0263968072831630706787109375">
        <ele>1379.199951171875</ele>
        <time>2026-09-01T06:53:54.000Z</time>
        <extensions>
          <ns3:TrackPointExtension>
            <ns3:hr>165</ns3:hr>
            <ns3:cad>50</ns3:cad>
          </ns3:TrackPointExtension>
        </extensions>
      </trkpt>
      <trkpt lat="47.55774638615548610687255859375" lon="11.026398651301860809326171875">
        <ele>1379.4000244140625</ele>
        <time>2026-09-01T06:53:55.000Z</time>
        <extensions>
          <ns3:TrackPointExtension>
            <ns3:hr>165</ns3:hr>
            <ns3:cad>50</ns3:cad>
          </ns3:TrackPointExtension>
        </extensions>
      </trkpt>
      <trkpt lat="47.55773775279521942138671875" lon="11.026401333510875701904296875">
        <ele>1379.800048828125</ele>
        <time>2026-09-01T06:53:56.000Z</time>
        <extensions>
          <ns3:TrackPointExtension>
            <ns3:hr>165</ns3:hr>
            <ns3:cad>50</ns3:cad>
          </ns3:TrackPointExtension>
        </extensions>
      </trkpt>
      <trkpt lat="47.55773029290139675140380859375" lon="11.026404686272144317626953125">
        <ele>1380</ele>
        <time>2026-09-01T06:53:57.000Z</time>
        <extensions>
          <ns3:TrackPointExtension>
            <ns3:hr>165</ns3:hr>
            <ns3:cad>50</ns3:cad>
          </ns3:TrackPointExtension>
        </extensions>
      </trkpt>
      <trkpt lat="47.55772191099822521209716796875" lon="11.026408709585666656494140625">
        <ele>1380.4000244140625</ele>
        <time>2026-09-01T06:53:58.000Z</time>
        <extensions>
          <ns3:TrackPointExtension>
            <ns3:hr>165</ns3:hr>
            <ns3:cad>49</ns3:cad>
          </ns3:TrackPointExtension>
        </extensions>
      </trkpt>
      <trkpt lat="47.55771285854279994964599609375" lon="11.02640979923307895660400390625">
        <ele>1380.800048828125</ele>
        <time>2026-09-01T06:53:59.000Z</time>
        <extensions>
          <ns3:TrackPointExtension>
            <ns3:hr>165</ns3:hr>
            <ns3:cad>49</ns3:cad>
          </ns3:TrackPointExtension>
        </extensions>
      </trkpt>
      <trkpt lat="47.557708919048309326171875" lon="11.0264102183282375335693359375">
        <ele>1381.199951171875</ele>
        <time>2026-09-01T06:54:00.000Z</time>
        <extensions>
          <ns3:TrackPointExtension>
            <ns3:hr>164</ns3:hr>
            <ns3:cad>49</ns3:cad>
          </ns3:TrackPointExtension>
        </extensions>
      </trkpt>
      <trkpt lat="47.557703219354152679443359375" lon="11.02641365490853786468505859375">
        <ele>1381.5999755859375</ele>
        <time>2026-09-01T06:54:01.000Z</time>
        <extensions>
          <ns3:TrackPointExtension>
            <ns3:hr>164</ns3:hr>
            <ns3:cad>43</ns3:cad>
          </ns3:TrackPointExtension>
        </extensions>
      </trkpt>
      <trkpt lat="47.55769559182226657867431640625" lon="11.0264172591269016265869140625">
        <ele>1381.5999755859375</ele>
        <time>2026-09-01T06:54:02.000Z</time>
        <extensions>
          <ns3:TrackPointExtension>
            <ns3:hr>164</ns3:hr>
            <ns3:cad>43</ns3:cad>
          </ns3:TrackPointExtension>
        </extensions>
      </trkpt>
      <trkpt lat="47.5576923228800296783447265625" lon="11.026411391794681549072265625">
        <ele>1381.800048828125</ele>
        <time>2026-09-01T06:54:03.000Z</time>
        <extensions>
          <ns3:TrackPointExtension>
            <ns3:hr>164</ns3:hr>
            <ns3:cad>44</ns3:cad>
          </ns3:TrackPointExtension>
        </extensions>
      </trkpt>
      <trkpt lat="47.5576886348426342010498046875" lon="11.02640368044376373291015625">
        <ele>1382</ele>
        <time>2026-09-01T06:54:04.000Z</time>
        <extensions>
          <ns3:TrackPointExtension>
            <ns3:hr>164</ns3:hr>
            <ns3:cad>44</ns3:cad>
          </ns3:TrackPointExtension>
        </extensions>
      </trkpt>
      <trkpt lat="47.5576914846897125244140625" lon="11.026392616331577301025390625">
        <ele>1382.199951171875</ele>
        <time>2026-09-01T06:54:05.000Z</time>
        <extensions>
          <ns3:TrackPointExtension>
            <ns3:hr>163</ns3:hr>
            <ns3:cad>44</ns3:cad>
          </ns3:TrackPointExtension>
        </extensions>
      </trkpt>
      <trkpt lat="47.55769240669906139373779296875" lon="11.02638582699000835418701171875">
        <ele>1382.199951171875</ele>
        <time>2026-09-01T06:54:06.000Z</time>
        <extensions>
          <ns3:TrackPointExtension>
            <ns3:hr>164</ns3:hr>
            <ns3:cad>49</ns3:cad>
          </ns3:TrackPointExtension>
        </extensions>
      </trkpt>
      <trkpt lat="47.55769207142293453216552734375" lon="11.02638423442840576171875">
        <ele>1382.4000244140625</ele>
        <time>2026-09-01T06:54:07.000Z</time>
        <extensions>
          <ns3:TrackPointExtension>
            <ns3:hr>164</ns3:hr>
            <ns3:cad>50</ns3:cad>
          </ns3:TrackPointExtension>
        </extensions>
      </trkpt>
      <trkpt lat="47.5576956756412982940673828125" lon="11.02638549171388149261474609375">
        <ele>1382.5999755859375</ele>
        <time>2026-09-01T06:54:08.000Z</time>
        <extensions>
          <ns3:TrackPointExtension>
            <ns3:hr>164</ns3:hr>
            <ns3:cad>51</ns3:cad>
          </ns3:TrackPointExtension>
        </extensions>
      </trkpt>
      <trkpt lat="47.55769659765064716339111328125" lon="11.0263743437826633453369140625">
        <ele>1382.5999755859375</ele>
        <time>2026-09-01T06:54:09.000Z</time>
        <extensions>
          <ns3:TrackPointExtension>
            <ns3:hr>164</ns3:hr>
            <ns3:cad>52</ns3:cad>
          </ns3:TrackPointExtension>
        </extensions>
      </trkpt>
      <trkpt lat="47.55769290961325168609619140625" lon="11.0263662971556186676025390625">
        <ele>1382.800048828125</ele>
        <time>2026-09-01T06:54:10.000Z</time>
        <extensions>
          <ns3:TrackPointExtension>
            <ns3:hr>164</ns3:hr>
            <ns3:cad>52</ns3:cad>
          </ns3:TrackPointExtension>
        </extensions>
      </trkpt>
      <trkpt lat="47.55769173614680767059326171875" lon="11.02635204792022705078125">
        <ele>1382.800048828125</ele>
        <time>2026-09-01T06:54:11.000Z</time>
        <extensions>
          <ns3:TrackPointExtension>
            <ns3:hr>163</ns3:hr>
            <ns3:cad>52</ns3:cad>
          </ns3:TrackPointExtension>
        </extensions>
      </trkpt>
      <trkpt lat="47.557693161070346832275390625" lon="11.02633855305612087249755859375">
        <ele>1383</ele>
        <time>2026-09-01T06:54:12.000Z</time>
        <extensions>
          <ns3:TrackPointExtension>
            <ns3:hr>163</ns3:hr>
            <ns3:cad>52</ns3:cad>
          </ns3:TrackPointExtension>
        </extensions>
      </trkpt>
      <trkpt lat="47.55768016912043094635009765625" lon="11.02631893940269947052001953125">
        <ele>1383.199951171875</ele>
        <time>2026-09-01T06:54:13.000Z</time>
        <extensions>
          <ns3:TrackPointExtension>
            <ns3:hr>163</ns3:hr>
            <ns3:cad>50</ns3:cad>
          </ns3:TrackPointExtension>
        </extensions>
      </trkpt>
      <trkpt lat="47.557674385607242584228515625" lon="11.0263082943856716156005859375">
        <ele>1383.4000244140625</ele>
        <time>2026-09-01T06:54:14.000Z</time>
        <extensions>
          <ns3:TrackPointExtension>
            <ns3:hr>163</ns3:hr>
            <ns3:cad>50</ns3:cad>
          </ns3:TrackPointExtension>
        </extensions>
      </trkpt>
      <trkpt lat="47.5576673448085784912109375" lon="11.02629932574927806854248046875">
        <ele>1383.4000244140625</ele>
        <time>2026-09-01T06:54:15.000Z</time>
        <extensions>
          <ns3:TrackPointExtension>
            <ns3:hr>162</ns3:hr>
            <ns3:cad>50</ns3:cad>
          </ns3:TrackPointExtension>
        </extensions>
      </trkpt>
      <trkpt lat="47.55766273476183414459228515625" lon="11.02629664354026317596435546875">
        <ele>1383.5999755859375</ele>
        <time>2026-09-01T06:54:16.000Z</time>
        <extensions>
          <ns3:TrackPointExtension>
            <ns3:hr>162</ns3:hr>
            <ns3:cad>50</ns3:cad>
          </ns3:TrackPointExtension>
        </extensions>
      </trkpt>
      <trkpt lat="47.55765938200056552886962890625" lon="11.0262948833405971527099609375">
        <ele>1383.800048828125</ele>
        <time>2026-09-01T06:54:17.000Z</time>
        <extensions>
          <ns3:TrackPointExtension>
            <ns3:hr>161</ns3:hr>
            <ns3:cad>50</ns3:cad>
          </ns3:TrackPointExtension>
        </extensions>
      </trkpt>
      <trkpt lat="47.557641528546810150146484375" lon="11.02627736516296863555908203125">
        <ele>1384</ele>
        <time>2026-09-01T06:54:18.000Z</time>
        <extensions>
          <ns3:TrackPointExtension>
            <ns3:hr>160</ns3:hr>
            <ns3:cad>50</ns3:cad>
          </ns3:TrackPointExtension>
        </extensions>
      </trkpt>
      <trkpt lat="47.55762468092143535614013671875" lon="11.0262568295001983642578125">
        <ele>1384.199951171875</ele>
        <time>2026-09-01T06:54:19.000Z</time>
        <extensions>
          <ns3:TrackPointExtension>
            <ns3:hr>159</ns3:hr>
            <ns3:cad>50</ns3:cad>
          </ns3:TrackPointExtension>
        </extensions>
      </trkpt>
      <trkpt lat="47.55760456435382366180419921875" lon="11.0262286663055419921875">
        <ele>1384.4000244140625</ele>
        <time>2026-09-01T06:54:20.000Z</time>
        <extensions>
          <ns3:TrackPointExtension>
            <ns3:hr>158</ns3:hr>
            <ns3:cad>50</ns3:cad>
          </ns3:TrackPointExtension>
        </extensions>
      </trkpt>
      <trkpt lat="47.55759333260357379913330078125" lon="11.02621056139469146728515625">
        <ele>1384.4000244140625</ele>
        <time>2026-09-01T06:54:21.000Z</time>
        <extensions>
          <ns3:TrackPointExtension>
            <ns3:hr>158</ns3:hr>
            <ns3:cad>53</ns3:cad>
          </ns3:TrackPointExtension>
        </extensions>
      </trkpt>
      <trkpt lat="47.5575793348252773284912109375" lon="11.0261993296444416046142578125">
        <ele>1384.5999755859375</ele>
        <time>2026-09-01T06:54:22.000Z</time>
        <extensions>
          <ns3:TrackPointExtension>
            <ns3:hr>158</ns3:hr>
            <ns3:cad>53</ns3:cad>
          </ns3:TrackPointExtension>
        </extensions>
      </trkpt>
      <trkpt lat="47.557555027306079864501953125" lon="11.026181392371654510498046875">
        <ele>1384.800048828125</ele>
        <time>2026-09-01T06:54:23.000Z</time>
        <extensions>
          <ns3:TrackPointExtension>
            <ns3:hr>158</ns3:hr>
            <ns3:cad>55</ns3:cad>
          </ns3:TrackPointExtension>
        </extensions>
      </trkpt>
      <trkpt lat="47.55754471756517887115478515625" lon="11.02617410011589527130126953125">
        <ele>1385</ele>
        <time>2026-09-01T06:54:24.000Z</time>
        <extensions>
          <ns3:TrackPointExtension>
            <ns3:hr>158</ns3:hr>
            <ns3:cad>55</ns3:cad>
          </ns3:TrackPointExtension>
        </extensions>
      </trkpt>
      <trkpt lat="47.55753298290073871612548828125" lon="11.0261654667556285858154296875">
        <ele>1385.4000244140625</ele>
        <time>2026-09-01T06:54:25.000Z</time>
        <extensions>
          <ns3:TrackPointExtension>
            <ns3:hr>157</ns3:hr>
            <ns3:cad>55</ns3:cad>
          </ns3:TrackPointExtension>
        </extensions>
      </trkpt>
      <trkpt lat="47.55752007476985454559326171875" lon="11.026155240833759307861328125">
        <ele>1385.800048828125</ele>
        <time>2026-09-01T06:54:26.000Z</time>
        <extensions>
          <ns3:TrackPointExtension>
            <ns3:hr>158</ns3:hr>
            <ns3:cad>0</ns3:cad>
          </ns3:TrackPointExtension>
        </extensions>
      </trkpt>
      <trkpt lat="47.5575069151818752288818359375" lon="11.026144511997699737548828125">
        <ele>1386.199951171875</ele>
        <time>2026-09-01T06:54:27.000Z</time>
        <extensions>
          <ns3:TrackPointExtension>
            <ns3:hr>158</ns3:hr>
            <ns3:cad>0</ns3:cad>
          </ns3:TrackPointExtension>
        </extensions>
      </trkpt>
      <trkpt lat="47.55749526433646678924560546875" lon="11.02613537572324275970458984375">
        <ele>1386.800048828125</ele>
        <time>2026-09-01T06:54:28.000Z</time>
        <extensions>
          <ns3:TrackPointExtension>
            <ns3:hr>157</ns3:hr>
            <ns3:cad>73</ns3:cad>
          </ns3:TrackPointExtension>
        </extensions>
      </trkpt>
      <trkpt lat="47.55748252384364604949951171875" lon="11.0261255688965320587158203125">
        <ele>1387.4000244140625</ele>
        <time>2026-09-01T06:54:29.000Z</time>
        <extensions>
          <ns3:TrackPointExtension>
            <ns3:hr>158</ns3:hr>
            <ns3:cad>74</ns3:cad>
          </ns3:TrackPointExtension>
        </extensions>
      </trkpt>
      <trkpt lat="47.55746961571276187896728515625" lon="11.0261168517172336578369140625">
        <ele>1387.800048828125</ele>
        <time>2026-09-01T06:54:30.000Z</time>
        <extensions>
          <ns3:TrackPointExtension>
            <ns3:hr>158</ns3:hr>
            <ns3:cad>74</ns3:cad>
          </ns3:TrackPointExtension>
        </extensions>
      </trkpt>
      <trkpt lat="47.5574532710015773773193359375" lon="11.0261061228811740875244140625">
        <ele>1388.199951171875</ele>
        <time>2026-09-01T06:54:31.000Z</time>
        <extensions>
          <ns3:TrackPointExtension>
            <ns3:hr>158</ns3:hr>
            <ns3:cad>74</ns3:cad>
          </ns3:TrackPointExtension>
        </extensions>
      </trkpt>
      <trkpt lat="47.55744270980358123779296875" lon="11.02610318921506404876708984375">
        <ele>1388.5999755859375</ele>
        <time>2026-09-01T06:54:32.000Z</time>
        <extensions>
          <ns3:TrackPointExtension>
            <ns3:hr>157</ns3:hr>
            <ns3:cad>74</ns3:cad>
          </ns3:TrackPointExtension>
        </extensions>
      </trkpt>
      <trkpt lat="47.55743340589106082916259765625" lon="11.0260967351496219635009765625">
        <ele>1389</ele>
        <time>2026-09-01T06:54:33.000Z</time>
        <extensions>
          <ns3:TrackPointExtension>
            <ns3:hr>158</ns3:hr>
            <ns3:cad>74</ns3:cad>
          </ns3:TrackPointExtension>
        </extensions>
      </trkpt>
      <trkpt lat="47.55742301233112812042236328125" lon="11.0260903649032115936279296875">
        <ele>1389.4000244140625</ele>
        <time>2026-09-01T06:54:34.000Z</time>
        <extensions>
          <ns3:TrackPointExtension>
            <ns3:hr>158</ns3:hr>
            <ns3:cad>74</ns3:cad>
          </ns3:TrackPointExtension>
        </extensions>
      </trkpt>
      <trkpt lat="47.5574123673141002655029296875" lon="11.0260886885225772857666015625">
        <ele>1389.800048828125</ele>
        <time>2026-09-01T06:54:35.000Z</time>
        <extensions>
          <ns3:TrackPointExtension>
            <ns3:hr>158</ns3:hr>
            <ns3:cad>74</ns3:cad>
          </ns3:TrackPointExtension>
        </extensions>
      </trkpt>
      <trkpt lat="47.557406164705753326416015625" lon="11.026078797876834869384765625">
        <ele>1390.199951171875</ele>
        <time>2026-09-01T06:54:36.000Z</time>
        <extensions>
          <ns3:TrackPointExtension>
            <ns3:hr>160</ns3:hr>
            <ns3:cad>74</ns3:cad>
          </ns3:TrackPointExtension>
        </extensions>
      </trkpt>
      <trkpt lat="47.5574013032019138336181640625" lon="11.02607586421072483062744140625">
        <ele>1390.5999755859375</ele>
        <time>2026-09-01T06:54:37.000Z</time>
        <extensions>
          <ns3:TrackPointExtension>
            <ns3:hr>162</ns3:hr>
            <ns3:cad>74</ns3:cad>
          </ns3:TrackPointExtension>
        </extensions>
      </trkpt>
      <trkpt lat="47.5573996268212795257568359375" lon="11.0260732658207416534423828125">
        <ele>1391.199951171875</ele>
        <time>2026-09-01T06:54:38.000Z</time>
        <extensions>
          <ns3:TrackPointExtension>
            <ns3:hr>163</ns3:hr>
            <ns3:cad>0</ns3:cad>
          </ns3:TrackPointExtension>
        </extensions>
      </trkpt>
      <trkpt lat="47.5573982857167720794677734375" lon="11.02607184089720249176025390625">
        <ele>1391.5999755859375</ele>
        <time>2026-09-01T06:54:39.000Z</time>
        <extensions>
          <ns3:TrackPointExtension>
            <ns3:hr>163</ns3:hr>
            <ns3:cad>0</ns3:cad>
          </ns3:TrackPointExtension>
        </extensions>
      </trkpt>
      <trkpt lat="47.55740088410675525665283203125" lon="11.02607787586748600006103515625">
        <ele>1392</ele>
        <time>2026-09-01T06:54:40.000Z</time>
        <extensions>
          <ns3:TrackPointExtension>
            <ns3:hr>163</ns3:hr>
            <ns3:cad>0</ns3:cad>
          </ns3:TrackPointExtension>
        </extensions>
      </trkpt>
      <trkpt lat="47.55740138702094554901123046875" lon="11.02607938461005687713623046875">
        <ele>1392.5999755859375</ele>
        <time>2026-09-01T06:54:41.000Z</time>
        <extensions>
          <ns3:TrackPointExtension>
            <ns3:hr>163</ns3:hr>
            <ns3:cad>0</ns3:cad>
          </ns3:TrackPointExtension>
        </extensions>
      </trkpt>
      <trkpt lat="47.55740188993513584136962890625" lon="11.0260798037052154541015625">
        <ele>1393</ele>
        <time>2026-09-01T06:54:42.000Z</time>
        <extensions>
          <ns3:TrackPointExtension>
            <ns3:hr>163</ns3:hr>
            <ns3:cad>0</ns3:cad>
          </ns3:TrackPointExtension>
        </extensions>
      </trkpt>
      <trkpt lat="47.55739920772612094879150390625" lon="11.02607737295329570770263671875">
        <ele>1393.4000244140625</ele>
        <time>2026-09-01T06:54:43.000Z</time>
        <extensions>
          <ns3:TrackPointExtension>
            <ns3:hr>163</ns3:hr>
            <ns3:cad>0</ns3:cad>
          </ns3:TrackPointExtension>
        </extensions>
      </trkpt>
      <trkpt lat="47.5573964416980743408203125" lon="11.02607653476297855377197265625">
        <ele>1394</ele>
        <time>2026-09-01T06:54:44.000Z</time>
        <extensions>
          <ns3:TrackPointExtension>
            <ns3:hr>162</ns3:hr>
            <ns3:cad>0</ns3:cad>
          </ns3:TrackPointExtension>
        </extensions>
      </trkpt>
      <trkpt lat="47.55739266984164714813232421875" lon="11.02607016451656818389892578125">
        <ele>1394.4000244140625</ele>
        <time>2026-09-01T06:54:45.000Z</time>
        <extensions>
          <ns3:TrackPointExtension>
            <ns3:hr>162</ns3:hr>
            <ns3:cad>0</ns3:cad>
          </ns3:TrackPointExtension>
        </extensions>
      </trkpt>
      <trkpt lat="47.55737674422562122344970703125" lon="11.026060022413730621337890625">
        <ele>1394.800048828125</ele>
        <time>2026-09-01T06:54:46.000Z</time>
        <extensions>
          <ns3:TrackPointExtension>
            <ns3:hr>162</ns3:hr>
            <ns3:cad>0</ns3:cad>
          </ns3:TrackPointExtension>
        </extensions>
      </trkpt>
      <trkpt lat="47.55736802704632282257080078125" lon="11.0260427556931972503662109375">
        <ele>1395</ele>
        <time>2026-09-01T06:54:47.000Z</time>
        <extensions>
          <ns3:TrackPointExtension>
            <ns3:hr>161</ns3:hr>
            <ns3:cad>0</ns3:cad>
          </ns3:TrackPointExtension>
        </extensions>
      </trkpt>
      <trkpt lat="47.5573550350964069366455078125" lon="11.02602104656398296356201171875">
        <ele>1395.4000244140625</ele>
        <time>2026-09-01T06:54:48.000Z</time>
        <extensions>
          <ns3:TrackPointExtension>
            <ns3:hr>161</ns3:hr>
            <ns3:cad>0</ns3:cad>
          </ns3:TrackPointExtension>
        </extensions>
      </trkpt>
      <trkpt lat="47.557346820831298828125" lon="11.02599154226481914520263671875">
        <ele>1395.5999755859375</ele>
        <time>2026-09-01T06:54:49.000Z</time>
        <extensions>
          <ns3:TrackPointExtension>
            <ns3:hr>161</ns3:hr>
            <ns3:cad>0</ns3:cad>
          </ns3:TrackPointExtension>
        </extensions>
      </trkpt>
      <trkpt lat="47.5573439709842205047607421875" lon="11.02597109042108058929443359375">
        <ele>1395.800048828125</ele>
        <time>2026-09-01T06:54:50.000Z</time>
        <extensions>
          <ns3:TrackPointExtension>
            <ns3:hr>161</ns3:hr>
            <ns3:cad>75</ns3:cad>
          </ns3:TrackPointExtension>
        </extensions>
      </trkpt>
      <trkpt lat="47.55733952857553958892822265625" lon="11.025947034358978271484375">
        <ele>1395.800048828125</ele>
        <time>2026-09-01T06:54:51.000Z</time>
        <extensions>
          <ns3:TrackPointExtension>
            <ns3:hr>161</ns3:hr>
            <ns3:cad>75</ns3:cad>
          </ns3:TrackPointExtension>
        </extensions>
      </trkpt>
      <trkpt lat="47.55733139812946319580078125" lon="11.0259233973920345306396484375">
        <ele>1395.800048828125</ele>
        <time>2026-09-01T06:54:52.000Z</time>
        <extensions>
          <ns3:TrackPointExtension>
            <ns3:hr>161</ns3:hr>
            <ns3:cad>75</ns3:cad>
          </ns3:TrackPointExtension>
        </extensions>
      </trkpt>
      <trkpt lat="47.55732594989240169525146484375" lon="11.025902442634105682373046875">
        <ele>1395.800048828125</ele>
        <time>2026-09-01T06:54:53.000Z</time>
        <extensions>
          <ns3:TrackPointExtension>
            <ns3:hr>161</ns3:hr>
            <ns3:cad>75</ns3:cad>
          </ns3:TrackPointExtension>
        </extensions>
      </trkpt>
      <trkpt lat="47.55732201039791107177734375" lon="11.02588190697133541107177734375">
        <ele>1395.800048828125</ele>
        <time>2026-09-01T06:54:54.000Z</time>
        <extensions>
          <ns3:TrackPointExtension>
            <ns3:hr>161</ns3:hr>
            <ns3:cad>75</ns3:cad>
          </ns3:TrackPointExtension>
        </extensions>
      </trkpt>
      <trkpt lat="47.55732058547437191009521484375" lon="11.025858856737613677978515625">
        <ele>1396</ele>
        <time>2026-09-01T06:54:55.000Z</time>
        <extensions>
          <ns3:TrackPointExtension>
            <ns3:hr>162</ns3:hr>
            <ns3:cad>75</ns3:cad>
          </ns3:TrackPointExtension>
        </extensions>
      </trkpt>
      <trkpt lat="47.5573178194463253021240234375" lon="11.025833375751972198486328125">
        <ele>1396.199951171875</ele>
        <time>2026-09-01T06:54:56.000Z</time>
        <extensions>
          <ns3:TrackPointExtension>
            <ns3:hr>161</ns3:hr>
            <ns3:cad>75</ns3:cad>
          </ns3:TrackPointExtension>
        </extensions>
      </trkpt>
      <trkpt lat="47.557323686778545379638671875" lon="11.025805883109569549560546875">
        <ele>1396.199951171875</ele>
        <time>2026-09-01T06:54:57.000Z</time>
        <extensions>
          <ns3:TrackPointExtension>
            <ns3:hr>161</ns3:hr>
            <ns3:cad>75</ns3:cad>
          </ns3:TrackPointExtension>
        </extensions>
      </trkpt>
      <trkpt lat="47.5573148019611835479736328125" lon="11.02578082121908664703369140625">
        <ele>1396.4000244140625</ele>
        <time>2026-09-01T06:54:58.000Z</time>
        <extensions>
          <ns3:TrackPointExtension>
            <ns3:hr>162</ns3:hr>
            <ns3:cad>75</ns3:cad>
          </ns3:TrackPointExtension>
        </extensions>
      </trkpt>
      <trkpt lat="47.55730281583964824676513671875" lon="11.02575466968119144439697265625">
        <ele>1396.4000244140625</ele>
        <time>2026-09-01T06:54:59.000Z</time>
        <extensions>
          <ns3:TrackPointExtension>
            <ns3:hr>162</ns3:hr>
            <ns3:cad>75</ns3:cad>
          </ns3:TrackPointExtension>
        </extensions>
      </trkpt>
      <trkpt lat="47.5572891533374786376953125" lon="11.02573044598102569580078125">
        <ele>1396.4000244140625</ele>
        <time>2026-09-01T06:55:00.000Z</time>
        <extensions>
          <ns3:TrackPointExtension>
            <ns3:hr>162</ns3:hr>
            <ns3:cad>75</ns3:cad>
          </ns3:TrackPointExtension>
        </extensions>
      </trkpt>
      <trkpt lat="47.557277418673038482666015625" lon="11.025712005794048309326171875">
        <ele>1396.5999755859375</ele>
        <time>2026-09-01T06:55:01.000Z</time>
        <extensions>
          <ns3:TrackPointExtension>
            <ns3:hr>162</ns3:hr>
            <ns3:cad>76</ns3:cad>
          </ns3:TrackPointExtension>
        </extensions>
      </trkpt>
      <trkpt lat="47.55726476199924945831298828125" lon="11.02569867856800556182861328125">
        <ele>1396.5999755859375</ele>
        <time>2026-09-01T06:55:02.000Z</time>
        <extensions>
          <ns3:TrackPointExtension>
            <ns3:hr>161</ns3:hr>
            <ns3:cad>77</ns3:cad>
          </ns3:TrackPointExtension>
        </extensions>
      </trkpt>
      <trkpt lat="47.557247579097747802734375" lon="11.02568007074296474456787109375">
        <ele>1396.800048828125</ele>
        <time>2026-09-01T06:55:03.000Z</time>
        <extensions>
          <ns3:TrackPointExtension>
            <ns3:hr>161</ns3:hr>
            <ns3:cad>76</ns3:cad>
          </ns3:TrackPointExtension>
        </extensions>
      </trkpt>
      <trkpt lat="47.55723877809941768646240234375" lon="11.02565777488052845001220703125">
        <ele>1397.199951171875</ele>
        <time>2026-09-01T06:55:04.000Z</time>
        <extensions>
          <ns3:TrackPointExtension>
            <ns3:hr>161</ns3:hr>
            <ns3:cad>77</ns3:cad>
          </ns3:TrackPointExtension>
        </extensions>
      </trkpt>
      <trkpt lat="47.55722687579691410064697265625" lon="11.025637574493885040283203125">
        <ele>1397.4000244140625</ele>
        <time>2026-09-01T06:55:05.000Z</time>
        <extensions>
          <ns3:TrackPointExtension>
            <ns3:hr>161</ns3:hr>
            <ns3:cad>77</ns3:cad>
          </ns3:TrackPointExtension>
        </extensions>
      </trkpt>
      <trkpt lat="47.5572195835411548614501953125" lon="11.025617457926273345947265625">
        <ele>1397.4000244140625</ele>
        <time>2026-09-01T06:55:06.000Z</time>
        <extensions>
          <ns3:TrackPointExtension>
            <ns3:hr>161</ns3:hr>
            <ns3:cad>77</ns3:cad>
          </ns3:TrackPointExtension>
        </extensions>
      </trkpt>
      <trkpt lat="47.55721514113247394561767578125" lon="11.02559558115899562835693359375">
        <ele>1397.5999755859375</ele>
        <time>2026-09-01T06:55:07.000Z</time>
        <extensions>
          <ns3:TrackPointExtension>
            <ns3:hr>161</ns3:hr>
            <ns3:cad>77</ns3:cad>
          </ns3:TrackPointExtension>
        </extensions>
      </trkpt>
      <trkpt lat="47.557218074798583984375" lon="11.02557781152427196502685546875">
        <ele>1397.800048828125</ele>
        <time>2026-09-01T06:55:08.000Z</time>
        <extensions>
          <ns3:TrackPointExtension>
            <ns3:hr>161</ns3:hr>
            <ns3:cad>77</ns3:cad>
          </ns3:TrackPointExtension>
        </extensions>
      </trkpt>
      <trkpt lat="47.55722234956920146942138671875" lon="11.02556523866951465606689453125">
        <ele>1398.199951171875</ele>
        <time>2026-09-01T06:55:09.000Z</time>
        <extensions>
          <ns3:TrackPointExtension>
            <ns3:hr>162</ns3:hr>
            <ns3:cad>79</ns3:cad>
          </ns3:TrackPointExtension>
        </extensions>
      </trkpt>
      <trkpt lat="47.55722788162529468536376953125" lon="11.0255505703389644622802734375">
        <ele>1398.4000244140625</ele>
        <time>2026-09-01T06:55:10.000Z</time>
        <extensions>
          <ns3:TrackPointExtension>
            <ns3:hr>161</ns3:hr>
            <ns3:cad>79</ns3:cad>
          </ns3:TrackPointExtension>
        </extensions>
      </trkpt>
      <trkpt lat="47.55722679197788238525390625" lon="11.02554495446383953094482421875">
        <ele>1398.800048828125</ele>
        <time>2026-09-01T06:55:11.000Z</time>
        <extensions>
          <ns3:TrackPointExtension>
            <ns3:hr>162</ns3:hr>
            <ns3:cad>79</ns3:cad>
          </ns3:TrackPointExtension>
        </extensions>
      </trkpt>
      <trkpt lat="47.55722570233047008514404296875" lon="11.025525592267513275146484375">
        <ele>1399</ele>
        <time>2026-09-01T06:55:12.000Z</time>
        <extensions>
          <ns3:TrackPointExtension>
            <ns3:hr>162</ns3:hr>
            <ns3:cad>79</ns3:cad>
          </ns3:TrackPointExtension>
        </extensions>
      </trkpt>
      <trkpt lat="47.55722302012145519256591796875" lon="11.02550438605248928070068359375">
        <ele>1399.199951171875</ele>
        <time>2026-09-01T06:55:13.000Z</time>
        <extensions>
          <ns3:TrackPointExtension>
            <ns3:hr>162</ns3:hr>
            <ns3:cad>79</ns3:cad>
          </ns3:TrackPointExtension>
        </extensions>
      </trkpt>
      <trkpt lat="47.55722670815885066986083984375" lon="11.02548410184681415557861328125">
        <ele>1399.5999755859375</ele>
        <time>2026-09-01T06:55:14.000Z</time>
        <extensions>
          <ns3:TrackPointExtension>
            <ns3:hr>164</ns3:hr>
            <ns3:cad>79</ns3:cad>
          </ns3:TrackPointExtension>
        </extensions>
      </trkpt>
      <trkpt lat="47.55723073147237300872802734375" lon="11.02546834386885166168212890625">
        <ele>1400</ele>
        <time>2026-09-01T06:55:15.000Z</time>
        <extensions>
          <ns3:TrackPointExtension>
            <ns3:hr>164</ns3:hr>
            <ns3:cad>79</ns3:cad>
          </ns3:TrackPointExtension>
        </extensions>
      </trkpt>
      <trkpt lat="47.5572386942803859710693359375" lon="11.02544470690190792083740234375">
        <ele>1400.199951171875</ele>
        <time>2026-09-01T06:55:16.000Z</time>
        <extensions>
          <ns3:TrackPointExtension>
            <ns3:hr>165</ns3:hr>
            <ns3:cad>79</ns3:cad>
          </ns3:TrackPointExtension>
        </extensions>
      </trkpt>
      <trkpt lat="47.55724162794649600982666015625" lon="11.02541134692728519439697265625">
        <ele>1400.4000244140625</ele>
        <time>2026-09-01T06:55:17.000Z</time>
        <extensions>
          <ns3:TrackPointExtension>
            <ns3:hr>164</ns3:hr>
            <ns3:cad>79</ns3:cad>
          </ns3:TrackPointExtension>
        </extensions>
      </trkpt>
      <trkpt lat="47.55724556744098663330078125" lon="11.02538418956100940704345703125">
        <ele>1400.4000244140625</ele>
        <time>2026-09-01T06:55:18.000Z</time>
        <extensions>
          <ns3:TrackPointExtension>
            <ns3:hr>163</ns3:hr>
            <ns3:cad>75</ns3:cad>
          </ns3:TrackPointExtension>
        </extensions>
      </trkpt>
      <trkpt lat="47.55724280141294002532958984375" lon="11.025357283651828765869140625">
        <ele>1400.4000244140625</ele>
        <time>2026-09-01T06:55:19.000Z</time>
        <extensions>
          <ns3:TrackPointExtension>
            <ns3:hr>163</ns3:hr>
            <ns3:cad>75</ns3:cad>
          </ns3:TrackPointExtension>
        </extensions>
      </trkpt>
      <trkpt lat="47.5572390295565128326416015625" lon="11.02532886900007724761962890625">
        <ele>1400.4000244140625</ele>
        <time>2026-09-01T06:55:20.000Z</time>
        <extensions>
          <ns3:TrackPointExtension>
            <ns3:hr>162</ns3:hr>
            <ns3:cad>75</ns3:cad>
          </ns3:TrackPointExtension>
        </extensions>
      </trkpt>
      <trkpt lat="47.55723542533814907073974609375" lon="11.0252917371690273284912109375">
        <ele>1400.4000244140625</ele>
        <time>2026-09-01T06:55:21.000Z</time>
        <extensions>
          <ns3:TrackPointExtension>
            <ns3:hr>162</ns3:hr>
            <ns3:cad>75</ns3:cad>
          </ns3:TrackPointExtension>
        </extensions>
      </trkpt>
      <trkpt lat="47.557220421731472015380859375" lon="11.02526684291660785675048828125">
        <ele>1400.800048828125</ele>
        <time>2026-09-01T06:55:22.000Z</time>
        <extensions>
          <ns3:TrackPointExtension>
            <ns3:hr>162</ns3:hr>
            <ns3:cad>74</ns3:cad>
          </ns3:TrackPointExtension>
        </extensions>
      </trkpt>
      <trkpt lat="47.55720625631511211395263671875" lon="11.0252561978995800018310546875">
        <ele>1401</ele>
        <time>2026-09-01T06:55:23.000Z</time>
        <extensions>
          <ns3:TrackPointExtension>
            <ns3:hr>162</ns3:hr>
            <ns3:cad>74</ns3:cad>
          </ns3:TrackPointExtension>
        </extensions>
      </trkpt>
      <trkpt lat="47.5571937672793865203857421875" lon="11.02525175549089908599853515625">
        <ele>1401.4000244140625</ele>
        <time>2026-09-01T06:55:24.000Z</time>
        <extensions>
          <ns3:TrackPointExtension>
            <ns3:hr>162</ns3:hr>
            <ns3:cad>74</ns3:cad>
          </ns3:TrackPointExtension>
        </extensions>
      </trkpt>
      <trkpt lat="47.5571853853762149810791015625" lon="11.02524588815867900848388671875">
        <ele>1401.5999755859375</ele>
        <time>2026-09-01T06:55:25.000Z</time>
        <extensions>
          <ns3:TrackPointExtension>
            <ns3:hr>162</ns3:hr>
            <ns3:cad>74</ns3:cad>
          </ns3:TrackPointExtension>
        </extensions>
      </trkpt>
      <trkpt lat="47.557178176939487457275390625" lon="11.02524354122579097747802734375">
        <ele>1402</ele>
        <time>2026-09-01T06:55:26.000Z</time>
        <extensions>
          <ns3:TrackPointExtension>
            <ns3:hr>162</ns3:hr>
            <ns3:cad>74</ns3:cad>
          </ns3:TrackPointExtension>
        </extensions>
      </trkpt>
      <trkpt lat="47.55717105232179164886474609375" lon="11.02524136193096637725830078125">
        <ele>1402.4000244140625</ele>
        <time>2026-09-01T06:55:27.000Z</time>
        <extensions>
          <ns3:TrackPointExtension>
            <ns3:hr>162</ns3:hr>
            <ns3:cad>74</ns3:cad>
          </ns3:TrackPointExtension>
        </extensions>
      </trkpt>
      <trkpt lat="47.557170800864696502685546875" lon="11.02524873800575733184814453125">
        <ele>1402.5999755859375</ele>
        <time>2026-09-01T06:55:28.000Z</time>
        <extensions>
          <ns3:TrackPointExtension>
            <ns3:hr>162</ns3:hr>
            <ns3:cad>74</ns3:cad>
          </ns3:TrackPointExtension>
        </extensions>
      </trkpt>
      <trkpt lat="47.55716049112379550933837890625" lon="11.0252659209072589874267578125">
        <ele>1403.199951171875</ele>
        <time>2026-09-01T06:55:29.000Z</time>
        <extensions>
          <ns3:TrackPointExtension>
            <ns3:hr>163</ns3:hr>
            <ns3:cad>0</ns3:cad>
          </ns3:TrackPointExtension>
        </extensions>
      </trkpt>
      <trkpt lat="47.55715169012546539306640625" lon="11.02526885457336902618408203125">
        <ele>1403.5999755859375</ele>
        <time>2026-09-01T06:55:30.000Z</time>
        <extensions>
          <ns3:TrackPointExtension>
            <ns3:hr>162</ns3:hr>
            <ns3:cad>0</ns3:cad>
          </ns3:TrackPointExtension>
        </extensions>
      </trkpt>
      <trkpt lat="47.55713568069040775299072265625" lon="11.0252649150788784027099609375">
        <ele>1403.5999755859375</ele>
        <time>2026-09-01T06:55:31.000Z</time>
        <extensions>
          <ns3:TrackPointExtension>
            <ns3:hr>162</ns3:hr>
            <ns3:cad>0</ns3:cad>
          </ns3:TrackPointExtension>
        </extensions>
      </trkpt>
      <trkpt lat="47.55712025798857212066650390625" lon="11.0252592153847217559814453125">
        <ele>1403.800048828125</ele>
        <time>2026-09-01T06:55:32.000Z</time>
        <extensions>
          <ns3:TrackPointExtension>
            <ns3:hr>162</ns3:hr>
            <ns3:cad>0</ns3:cad>
          </ns3:TrackPointExtension>
        </extensions>
      </trkpt>
      <trkpt lat="47.5571086071431636810302734375" lon="11.0252568684518337249755859375">
        <ele>1404</ele>
        <time>2026-09-01T06:55:33.000Z</time>
        <extensions>
          <ns3:TrackPointExtension>
            <ns3:hr>162</ns3:hr>
            <ns3:cad>64</ns3:cad>
          </ns3:TrackPointExtension>
        </extensions>
      </trkpt>
      <trkpt lat="47.55709494464099407196044921875" lon="11.0252518393099308013916015625">
        <ele>1404.199951171875</ele>
        <time>2026-09-01T06:55:34.000Z</time>
        <extensions>
          <ns3:TrackPointExtension>
            <ns3:hr>162</ns3:hr>
            <ns3:cad>64</ns3:cad>
          </ns3:TrackPointExtension>
        </extensions>
      </trkpt>
      <trkpt lat="47.557085640728473663330078125" lon="11.02524521760642528533935546875">
        <ele>1404.4000244140625</ele>
        <time>2026-09-01T06:55:35.000Z</time>
        <extensions>
          <ns3:TrackPointExtension>
            <ns3:hr>162</ns3:hr>
            <ns3:cad>64</ns3:cad>
          </ns3:TrackPointExtension>
        </extensions>
      </trkpt>
      <trkpt lat="47.55707717500627040863037109375" lon="11.02523482404649257659912109375">
        <ele>1404.5999755859375</ele>
        <time>2026-09-01T06:55:36.000Z</time>
        <extensions>
          <ns3:TrackPointExtension>
            <ns3:hr>161</ns3:hr>
            <ns3:cad>64</ns3:cad>
          </ns3:TrackPointExtension>
        </extensions>
      </trkpt>
      <trkpt lat="47.55707214586436748504638671875" lon="11.02521956898272037506103515625">
        <ele>1404.800048828125</ele>
        <time>2026-09-01T06:55:37.000Z</time>
        <extensions>
          <ns3:TrackPointExtension>
            <ns3:hr>161</ns3:hr>
            <ns3:cad>64</ns3:cad>
          </ns3:TrackPointExtension>
        </extensions>
      </trkpt>
      <trkpt lat="47.557068876922130584716796875" lon="11.02520733140408992767333984375">
        <ele>1405.199951171875</ele>
        <time>2026-09-01T06:55:38.000Z</time>
        <extensions>
          <ns3:TrackPointExtension>
            <ns3:hr>161</ns3:hr>
            <ns3:cad>64</ns3:cad>
          </ns3:TrackPointExtension>
        </extensions>
      </trkpt>
      <trkpt lat="47.55706988275051116943359375" lon="11.025192327797412872314453125">
        <ele>1405.5999755859375</ele>
        <time>2026-09-01T06:55:39.000Z</time>
        <extensions>
          <ns3:TrackPointExtension>
            <ns3:hr>161</ns3:hr>
            <ns3:cad>68</ns3:cad>
          </ns3:TrackPointExtension>
        </extensions>
      </trkpt>
      <trkpt lat="47.5570723973214626312255859375" lon="11.02518101222813129425048828125">
        <ele>1405.800048828125</ele>
        <time>2026-09-01T06:55:40.000Z</time>
        <extensions>
          <ns3:TrackPointExtension>
            <ns3:hr>161</ns3:hr>
            <ns3:cad>69</ns3:cad>
          </ns3:TrackPointExtension>
        </extensions>
      </trkpt>
      <trkpt lat="47.5570670329034328460693359375" lon="11.02516793645918369293212890625">
        <ele>1406.199951171875</ele>
        <time>2026-09-01T06:55:41.000Z</time>
        <extensions>
          <ns3:TrackPointExtension>
            <ns3:hr>161</ns3:hr>
            <ns3:cad>69</ns3:cad>
          </ns3:TrackPointExtension>
        </extensions>
      </trkpt>
      <trkpt lat="47.5570620037615299224853515625" lon="11.02515569888055324554443359375">
        <ele>1406.4000244140625</ele>
        <time>2026-09-01T06:55:42.000Z</time>
        <extensions>
          <ns3:TrackPointExtension>
            <ns3:hr>160</ns3:hr>
            <ns3:cad>69</ns3:cad>
          </ns3:TrackPointExtension>
        </extensions>
      </trkpt>
      <trkpt lat="47.55705839954316616058349609375" lon="11.02514647878706455230712890625">
        <ele>1406.5999755859375</ele>
        <time>2026-09-01T06:55:43.000Z</time>
        <extensions>
          <ns3:TrackPointExtension>
            <ns3:hr>160</ns3:hr>
            <ns3:cad>69</ns3:cad>
          </ns3:TrackPointExtension>
        </extensions>
      </trkpt>
      <trkpt lat="47.557058818638324737548828125" lon="11.0251383483409881591796875">
        <ele>1406.800048828125</ele>
        <time>2026-09-01T06:55:44.000Z</time>
        <extensions>
          <ns3:TrackPointExtension>
            <ns3:hr>160</ns3:hr>
            <ns3:cad>69</ns3:cad>
          </ns3:TrackPointExtension>
        </extensions>
      </trkpt>
      <trkpt lat="47.5570566393435001373291015625" lon="11.02512418292462825775146484375">
        <ele>1407.199951171875</ele>
        <time>2026-09-01T06:55:45.000Z</time>
        <extensions>
          <ns3:TrackPointExtension>
            <ns3:hr>160</ns3:hr>
            <ns3:cad>69</ns3:cad>
          </ns3:TrackPointExtension>
        </extensions>
      </trkpt>
      <trkpt lat="47.55705269984900951385498046875" lon="11.025110520422458648681640625">
        <ele>1407.4000244140625</ele>
        <time>2026-09-01T06:55:46.000Z</time>
        <extensions>
          <ns3:TrackPointExtension>
            <ns3:hr>160</ns3:hr>
            <ns3:cad>75</ns3:cad>
          </ns3:TrackPointExtension>
        </extensions>
      </trkpt>
      <trkpt lat="47.55704297684133052825927734375" lon="11.0250768251717090606689453125">
        <ele>1407.5999755859375</ele>
        <time>2026-09-01T06:55:47.000Z</time>
        <extensions>
          <ns3:TrackPointExtension>
            <ns3:hr>161</ns3:hr>
            <ns3:cad>75</ns3:cad>
          </ns3:TrackPointExtension>
        </extensions>
      </trkpt>
      <trkpt lat="47.55704750306904315948486328125" lon="11.02505880407989025115966796875">
        <ele>1408</ele>
        <time>2026-09-01T06:55:48.000Z</time>
        <extensions>
          <ns3:TrackPointExtension>
            <ns3:hr>161</ns3:hr>
            <ns3:cad>75</ns3:cad>
          </ns3:TrackPointExtension>
        </extensions>
      </trkpt>
      <trkpt lat="47.5570512749254703521728515625" lon="11.02503332309424877166748046875">
        <ele>1408.4000244140625</ele>
        <time>2026-09-01T06:55:49.000Z</time>
        <extensions>
          <ns3:TrackPointExtension>
            <ns3:hr>161</ns3:hr>
            <ns3:cad>75</ns3:cad>
          </ns3:TrackPointExtension>
        </extensions>
      </trkpt>
      <trkpt lat="47.55704985000193119049072265625" lon="11.02500918321311473846435546875">
        <ele>1408.5999755859375</ele>
        <time>2026-09-01T06:55:50.000Z</time>
        <extensions>
          <ns3:TrackPointExtension>
            <ns3:hr>161</ns3:hr>
            <ns3:cad>75</ns3:cad>
          </ns3:TrackPointExtension>
        </extensions>
      </trkpt>
      <trkpt lat="47.55704381503164768218994140625" lon="11.0249852947890758514404296875">
        <ele>1408.5999755859375</ele>
        <time>2026-09-01T06:55:51.000Z</time>
        <extensions>
          <ns3:TrackPointExtension>
            <ns3:hr>161</ns3:hr>
            <ns3:cad>75</ns3:cad>
          </ns3:TrackPointExtension>
        </extensions>
      </trkpt>
      <trkpt lat="47.557038366794586181640625" lon="11.02496626786887645721435546875">
        <ele>1408.800048828125</ele>
        <time>2026-09-01T06:55:52.000Z</time>
        <extensions>
          <ns3:TrackPointExtension>
            <ns3:hr>162</ns3:hr>
            <ns3:cad>75</ns3:cad>
          </ns3:TrackPointExtension>
        </extensions>
      </trkpt>
      <trkpt lat="47.557027302682399749755859375" lon="11.02494564838707447052001953125">
        <ele>1409</ele>
        <time>2026-09-01T06:55:53.000Z</time>
        <extensions>
          <ns3:TrackPointExtension>
            <ns3:hr>163</ns3:hr>
            <ns3:cad>75</ns3:cad>
          </ns3:TrackPointExtension>
        </extensions>
      </trkpt>
      <trkpt lat="47.5570184178650379180908203125" lon="11.0249350033700466156005859375">
        <ele>1409.199951171875</ele>
        <time>2026-09-01T06:55:54.000Z</time>
        <extensions>
          <ns3:TrackPointExtension>
            <ns3:hr>163</ns3:hr>
            <ns3:cad>75</ns3:cad>
          </ns3:TrackPointExtension>
        </extensions>
      </trkpt>
      <trkpt lat="47.5570060126483440399169921875" lon="11.0249309800565242767333984375">
        <ele>1409.4000244140625</ele>
        <time>2026-09-01T06:55:55.000Z</time>
        <extensions>
          <ns3:TrackPointExtension>
            <ns3:hr>163</ns3:hr>
            <ns3:cad>59</ns3:cad>
          </ns3:TrackPointExtension>
        </extensions>
      </trkpt>
      <trkpt lat="47.5569926016032695770263671875" lon="11.0249252803623676300048828125">
        <ele>1409.800048828125</ele>
        <time>2026-09-01T06:55:56.000Z</time>
        <extensions>
          <ns3:TrackPointExtension>
            <ns3:hr>163</ns3:hr>
            <ns3:cad>57</ns3:cad>
          </ns3:TrackPointExtension>
        </extensions>
      </trkpt>
      <trkpt lat="47.55697893910109996795654296875" lon="11.0249172337353229522705078125">
        <ele>1410.199951171875</ele>
        <time>2026-09-01T06:55:57.000Z</time>
        <extensions>
          <ns3:TrackPointExtension>
            <ns3:hr>164</ns3:hr>
            <ns3:cad>54</ns3:cad>
          </ns3:TrackPointExtension>
        </extensions>
      </trkpt>
      <trkpt lat="47.55696217529475688934326171875" lon="11.02490977384150028228759765625">
        <ele>1410.5999755859375</ele>
        <time>2026-09-01T06:55:58.000Z</time>
        <extensions>
          <ns3:TrackPointExtension>
            <ns3:hr>164</ns3:hr>
            <ns3:cad>53</ns3:cad>
          </ns3:TrackPointExtension>
        </extensions>
      </trkpt>
      <trkpt lat="47.55694524385035037994384765625" lon="11.02490524761378765106201171875">
        <ele>1410.800048828125</ele>
        <time>2026-09-01T06:55:59.000Z</time>
        <extensions>
          <ns3:TrackPointExtension>
            <ns3:hr>164</ns3:hr>
            <ns3:cad>53</ns3:cad>
          </ns3:TrackPointExtension>
        </extensions>
      </trkpt>
      <trkpt lat="47.55693334154784679412841796875" lon="11.02489736862480640411376953125">
        <ele>1411</ele>
        <time>2026-09-01T06:56:00.000Z</time>
        <extensions>
          <ns3:TrackPointExtension>
            <ns3:hr>163</ns3:hr>
            <ns3:cad>53</ns3:cad>
          </ns3:TrackPointExtension>
        </extensions>
      </trkpt>
      <trkpt lat="47.55692210979759693145751953125" lon="11.02489602752029895782470703125">
        <ele>1411.199951171875</ele>
        <time>2026-09-01T06:56:01.000Z</time>
        <extensions>
          <ns3:TrackPointExtension>
            <ns3:hr>163</ns3:hr>
            <ns3:cad>0</ns3:cad>
          </ns3:TrackPointExtension>
        </extensions>
      </trkpt>
      <trkpt lat="47.55690786056220531463623046875" lon="11.02488764561712741851806640625">
        <ele>1411.4000244140625</ele>
        <time>2026-09-01T06:56:02.000Z</time>
        <extensions>
          <ns3:TrackPointExtension>
            <ns3:hr>161</ns3:hr>
            <ns3:cad>0</ns3:cad>
          </ns3:TrackPointExtension>
        </extensions>
      </trkpt>
      <trkpt lat="47.55689512006938457489013671875" lon="11.0248835384845733642578125">
        <ele>1411.5999755859375</ele>
        <time>2026-09-01T06:56:03.000Z</time>
        <extensions>
          <ns3:TrackPointExtension>
            <ns3:hr>157</ns3:hr>
            <ns3:cad>0</ns3:cad>
          </ns3:TrackPointExtension>
        </extensions>
      </trkpt>
      <trkpt lat="47.55687986500561237335205078125" lon="11.02488161064684391021728515625">
        <ele>1412</ele>
        <time>2026-09-01T06:56:04.000Z</time>
        <extensions>
          <ns3:TrackPointExtension>
            <ns3:hr>154</ns3:hr>
            <ns3:cad>0</ns3:cad>
          </ns3:TrackPointExtension>
        </extensions>
      </trkpt>
      <trkpt lat="47.55686678923666477203369140625" lon="11.02488345466554164886474609375">
        <ele>1412.199951171875</ele>
        <time>2026-09-01T06:56:05.000Z</time>
        <extensions>
          <ns3:TrackPointExtension>
            <ns3:hr>152</ns3:hr>
            <ns3:cad>0</ns3:cad>
          </ns3:TrackPointExtension>
        </extensions>
      </trkpt>
      <trkpt lat="47.55685304291546344757080078125" lon="11.0248907469213008880615234375">
        <ele>1412.5999755859375</ele>
        <time>2026-09-01T06:56:06.000Z</time>
        <extensions>
          <ns3:TrackPointExtension>
            <ns3:hr>148</ns3:hr>
            <ns3:cad>0</ns3:cad>
          </ns3:TrackPointExtension>
        </extensions>
      </trkpt>
      <trkpt lat="47.55684583447873592376708984375" lon="11.0248883999884128570556640625">
        <ele>1412.800048828125</ele>
        <time>2026-09-01T06:56:07.000Z</time>
        <extensions>
          <ns3:TrackPointExtension>
            <ns3:hr>147</ns3:hr>
            <ns3:cad>75</ns3:cad>
          </ns3:TrackPointExtension>
        </extensions>
      </trkpt>
      <trkpt lat="47.55684164352715015411376953125" lon="11.02488261647522449493408203125">
        <ele>1413</ele>
        <time>2026-09-01T06:56:08.000Z</time>
        <extensions>
          <ns3:TrackPointExtension>
            <ns3:hr>147</ns3:hr>
            <ns3:cad>75</ns3:cad>
          </ns3:TrackPointExtension>
        </extensions>
      </trkpt>
      <trkpt lat="47.55683611147105693817138671875" lon="11.02487976662814617156982421875">
        <ele>1413.199951171875</ele>
        <time>2026-09-01T06:56:09.000Z</time>
        <extensions>
          <ns3:TrackPointExtension>
            <ns3:hr>147</ns3:hr>
            <ns3:cad>74</ns3:cad>
          </ns3:TrackPointExtension>
        </extensions>
      </trkpt>
      <trkpt lat="47.55682940594851970672607421875" lon="11.02487809024751186370849609375">
        <ele>1413.4000244140625</ele>
        <time>2026-09-01T06:56:10.000Z</time>
        <extensions>
          <ns3:TrackPointExtension>
            <ns3:hr>147</ns3:hr>
            <ns3:cad>74</ns3:cad>
          </ns3:TrackPointExtension>
        </extensions>
      </trkpt>
      <trkpt lat="47.5568236224353313446044921875" lon="11.0248770006000995635986328125">
        <ele>1413.5999755859375</ele>
        <time>2026-09-01T06:56:11.000Z</time>
        <extensions>
          <ns3:TrackPointExtension>
            <ns3:hr>147</ns3:hr>
            <ns3:cad>75</ns3:cad>
          </ns3:TrackPointExtension>
        </extensions>
      </trkpt>
      <trkpt lat="47.55681331269443035125732421875" lon="11.02488278411328792572021484375">
        <ele>1413.800048828125</ele>
        <time>2026-09-01T06:56:12.000Z</time>
        <extensions>
          <ns3:TrackPointExtension>
            <ns3:hr>147</ns3:hr>
            <ns3:cad>75</ns3:cad>
          </ns3:TrackPointExtension>
        </extensions>
      </trkpt>
      <trkpt lat="47.55680761300027370452880859375" lon="11.02487641386687755584716796875">
        <ele>1414</ele>
        <time>2026-09-01T06:56:13.000Z</time>
        <extensions>
          <ns3:TrackPointExtension>
            <ns3:hr>146</ns3:hr>
            <ns3:cad>75</ns3:cad>
          </ns3:TrackPointExtension>
        </extensions>
      </trkpt>
      <trkpt lat="47.55680241622030735015869140625" lon="11.0248810239136219024658203125">
        <ele>1414.199951171875</ele>
        <time>2026-09-01T06:56:14.000Z</time>
        <extensions>
          <ns3:TrackPointExtension>
            <ns3:hr>147</ns3:hr>
            <ns3:cad>75</ns3:cad>
          </ns3:TrackPointExtension>
        </extensions>
      </trkpt>
      <trkpt lat="47.55679906345903873443603515625" lon="11.0248682834208011627197265625">
        <ele>1414.4000244140625</ele>
        <time>2026-09-01T06:56:15.000Z</time>
        <extensions>
          <ns3:TrackPointExtension>
            <ns3:hr>147</ns3:hr>
            <ns3:cad>75</ns3:cad>
          </ns3:TrackPointExtension>
        </extensions>
      </trkpt>
      <trkpt lat="47.556803338229656219482421875" lon="11.0248632542788982391357421875">
        <ele>1414.800048828125</ele>
        <time>2026-09-01T06:56:16.000Z</time>
        <extensions>
          <ns3:TrackPointExtension>
            <ns3:hr>147</ns3:hr>
            <ns3:cad>0</ns3:cad>
          </ns3:TrackPointExtension>
        </extensions>
      </trkpt>
      <trkpt lat="47.55680124275386333465576171875" lon="11.02485495619475841522216796875">
        <ele>1415</ele>
        <time>2026-09-01T06:56:17.000Z</time>
        <extensions>
          <ns3:TrackPointExtension>
            <ns3:hr>147</ns3:hr>
            <ns3:cad>0</ns3:cad>
          </ns3:TrackPointExtension>
        </extensions>
      </trkpt>
      <trkpt lat="47.5568048469722270965576171875" lon="11.02483567781746387481689453125">
        <ele>1415.4000244140625</ele>
        <time>2026-09-01T06:56:18.000Z</time>
        <extensions>
          <ns3:TrackPointExtension>
            <ns3:hr>146</ns3:hr>
            <ns3:cad>0</ns3:cad>
          </ns3:TrackPointExtension>
        </extensions>
      </trkpt>
      <trkpt lat="47.5568092055618762969970703125" lon="11.02482394315302371978759765625">
        <ele>1415.800048828125</ele>
        <time>2026-09-01T06:56:19.000Z</time>
        <extensions>
          <ns3:TrackPointExtension>
            <ns3:hr>147</ns3:hr>
            <ns3:cad>0</ns3:cad>
          </ns3:TrackPointExtension>
        </extensions>
      </trkpt>
      <trkpt lat="47.55681046284735202789306640625" lon="11.02481556124985218048095703125">
        <ele>1416</ele>
        <time>2026-09-01T06:56:20.000Z</time>
        <extensions>
          <ns3:TrackPointExtension>
            <ns3:hr>147</ns3:hr>
            <ns3:cad>0</ns3:cad>
          </ns3:TrackPointExtension>
        </extensions>
      </trkpt>
      <trkpt lat="47.5568128935992717742919921875" lon="11.02480684407055377960205078125">
        <ele>1416.4000244140625</ele>
        <time>2026-09-01T06:56:21.000Z</time>
        <extensions>
          <ns3:TrackPointExtension>
            <ns3:hr>146</ns3:hr>
            <ns3:cad>0</ns3:cad>
          </ns3:TrackPointExtension>
        </extensions>
      </trkpt>
      <trkpt lat="47.5568175874650478363037109375" lon="11.02479695342481136322021484375">
        <ele>1416.5999755859375</ele>
        <time>2026-09-01T06:56:22.000Z</time>
        <extensions>
          <ns3:TrackPointExtension>
            <ns3:hr>146</ns3:hr>
            <ns3:cad>0</ns3:cad>
          </ns3:TrackPointExtension>
        </extensions>
      </trkpt>
      <trkpt lat="47.55682052113115787506103515625" lon="11.0247915051877498626708984375">
        <ele>1417</ele>
        <time>2026-09-01T06:56:23.000Z</time>
        <extensions>
          <ns3:TrackPointExtension>
            <ns3:hr>146</ns3:hr>
            <ns3:cad>0</ns3:cad>
          </ns3:TrackPointExtension>
        </extensions>
      </trkpt>
      <trkpt lat="47.55682337097823619842529296875" lon="11.0247814469039440155029296875">
        <ele>1417.199951171875</ele>
        <time>2026-09-01T06:56:24.000Z</time>
        <extensions>
          <ns3:TrackPointExtension>
            <ns3:hr>146</ns3:hr>
            <ns3:cad>0</ns3:cad>
          </ns3:TrackPointExtension>
        </extensions>
      </trkpt>
      <trkpt lat="47.55681683309376239776611328125" lon="11.02478186599910259246826171875">
        <ele>1417.5999755859375</ele>
        <time>2026-09-01T06:56:25.000Z</time>
        <extensions>
          <ns3:TrackPointExtension>
            <ns3:hr>147</ns3:hr>
            <ns3:cad>0</ns3:cad>
          </ns3:TrackPointExtension>
        </extensions>
      </trkpt>
      <trkpt lat="47.55680845119059085845947265625" lon="11.02476694621145725250244140625">
        <ele>1418</ele>
        <time>2026-09-01T06:56:26.000Z</time>
        <extensions>
          <ns3:TrackPointExtension>
            <ns3:hr>146</ns3:hr>
            <ns3:cad>0</ns3:cad>
          </ns3:TrackPointExtension>
        </extensions>
      </trkpt>
      <trkpt lat="47.55680627189576625823974609375" lon="11.0247596539556980133056640625">
        <ele>1418.199951171875</ele>
        <time>2026-09-01T06:56:27.000Z</time>
        <extensions>
          <ns3:TrackPointExtension>
            <ns3:hr>146</ns3:hr>
            <ns3:cad>0</ns3:cad>
          </ns3:TrackPointExtension>
        </extensions>
      </trkpt>
      <trkpt lat="47.55680291913449764251708984375" lon="11.02474481798708438873291015625">
        <ele>1418.800048828125</ele>
        <time>2026-09-01T06:56:28.000Z</time>
        <extensions>
          <ns3:TrackPointExtension>
            <ns3:hr>145</ns3:hr>
            <ns3:cad>0</ns3:cad>
          </ns3:TrackPointExtension>
        </extensions>
      </trkpt>
      <trkpt lat="47.5567984767258167266845703125" lon="11.024729646742343902587890625">
        <ele>1419.199951171875</ele>
        <time>2026-09-01T06:56:29.000Z</time>
        <extensions>
          <ns3:TrackPointExtension>
            <ns3:hr>145</ns3:hr>
            <ns3:cad>0</ns3:cad>
          </ns3:TrackPointExtension>
        </extensions>
      </trkpt>
      <trkpt lat="47.5567981414496898651123046875" lon="11.02472218684852123260498046875">
        <ele>1419.4000244140625</ele>
        <time>2026-09-01T06:56:30.000Z</time>
        <extensions>
          <ns3:TrackPointExtension>
            <ns3:hr>145</ns3:hr>
            <ns3:cad>0</ns3:cad>
          </ns3:TrackPointExtension>
        </extensions>
      </trkpt>
      <trkpt lat="47.556800656020641326904296875" lon="11.02471665479242801666259765625">
        <ele>1419.800048828125</ele>
        <time>2026-09-01T06:56:31.000Z</time>
        <extensions>
          <ns3:TrackPointExtension>
            <ns3:hr>145</ns3:hr>
            <ns3:cad>0</ns3:cad>
          </ns3:TrackPointExtension>
        </extensions>
      </trkpt>
      <trkpt lat="47.55680576898157596588134765625" lon="11.02470047771930694580078125">
        <ele>1420</ele>
        <time>2026-09-01T06:56:32.000Z</time>
        <extensions>
          <ns3:TrackPointExtension>
            <ns3:hr>144</ns3:hr>
            <ns3:cad>0</ns3:cad>
          </ns3:TrackPointExtension>
        </extensions>
      </trkpt>
      <trkpt lat="47.556807696819305419921875" lon="11.02469377219676971435546875">
        <ele>1420.199951171875</ele>
        <time>2026-09-01T06:56:33.000Z</time>
        <extensions>
          <ns3:TrackPointExtension>
            <ns3:hr>144</ns3:hr>
            <ns3:cad>0</ns3:cad>
          </ns3:TrackPointExtension>
        </extensions>
      </trkpt>
      <trkpt lat="47.556814067065715789794921875" lon="11.02468111552298069000244140625">
        <ele>1420.4000244140625</ele>
        <time>2026-09-01T06:56:34.000Z</time>
        <extensions>
          <ns3:TrackPointExtension>
            <ns3:hr>144</ns3:hr>
            <ns3:cad>0</ns3:cad>
          </ns3:TrackPointExtension>
        </extensions>
      </trkpt>
      <trkpt lat="47.55681616254150867462158203125" lon="11.02467407472431659698486328125">
        <ele>1420.5999755859375</ele>
        <time>2026-09-01T06:56:35.000Z</time>
        <extensions>
          <ns3:TrackPointExtension>
            <ns3:hr>144</ns3:hr>
            <ns3:cad>0</ns3:cad>
          </ns3:TrackPointExtension>
        </extensions>
      </trkpt>
      <trkpt lat="47.55681909620761871337890625" lon="11.0246641002595424652099609375">
        <ele>1420.800048828125</ele>
        <time>2026-09-01T06:56:36.000Z</time>
        <extensions>
          <ns3:TrackPointExtension>
            <ns3:hr>143</ns3:hr>
            <ns3:cad>0</ns3:cad>
          </ns3:TrackPointExtension>
        </extensions>
      </trkpt>
      <trkpt lat="47.55681767128407955169677734375" lon="11.02465412579476833343505859375">
        <ele>1421.199951171875</ele>
        <time>2026-09-01T06:56:37.000Z</time>
        <extensions>
          <ns3:TrackPointExtension>
            <ns3:hr>143</ns3:hr>
            <ns3:cad>0</ns3:cad>
          </ns3:TrackPointExtension>
        </extensions>
      </trkpt>
      <trkpt lat="47.55681197158992290496826171875" lon="11.02463878691196441650390625">
        <ele>1421.4000244140625</ele>
        <time>2026-09-01T06:56:38.000Z</time>
        <extensions>
          <ns3:TrackPointExtension>
            <ns3:hr>145</ns3:hr>
            <ns3:cad>0</ns3:cad>
          </ns3:TrackPointExtension>
        </extensions>
      </trkpt>
      <trkpt lat="47.556810043752193450927734375" lon="11.02462646551430225372314453125">
        <ele>1421.800048828125</ele>
        <time>2026-09-01T06:56:39.000Z</time>
        <extensions>
          <ns3:TrackPointExtension>
            <ns3:hr>150</ns3:hr>
            <ns3:cad>0</ns3:cad>
          </ns3:TrackPointExtension>
        </extensions>
      </trkpt>
      <trkpt lat="47.55680912174284458160400390625" lon="11.0246126353740692138671875">
        <ele>1422.199951171875</ele>
        <time>2026-09-01T06:56:40.000Z</time>
        <extensions>
          <ns3:TrackPointExtension>
            <ns3:hr>152</ns3:hr>
            <ns3:cad>0</ns3:cad>
          </ns3:TrackPointExtension>
        </extensions>
      </trkpt>
      <trkpt lat="47.55680560134351253509521484375" lon="11.02459193207323551177978515625">
        <ele>1422.800048828125</ele>
        <time>2026-09-01T06:56:41.000Z</time>
        <extensions>
          <ns3:TrackPointExtension>
            <ns3:hr>153</ns3:hr>
            <ns3:cad>0</ns3:cad>
          </ns3:TrackPointExtension>
        </extensions>
      </trkpt>
      <trkpt lat="47.55680141039192676544189453125" lon="11.024589501321315765380859375">
        <ele>1423.4000244140625</ele>
        <time>2026-09-01T06:56:42.000Z</time>
        <extensions>
          <ns3:TrackPointExtension>
            <ns3:hr>153</ns3:hr>
            <ns3:cad>0</ns3:cad>
          </ns3:TrackPointExtension>
        </extensions>
      </trkpt>
      <trkpt lat="47.5567874126136302947998046875" lon="11.024572737514972686767578125">
        <ele>1423.800048828125</ele>
        <time>2026-09-01T06:56:43.000Z</time>
        <extensions>
          <ns3:TrackPointExtension>
            <ns3:hr>153</ns3:hr>
            <ns3:cad>0</ns3:cad>
          </ns3:TrackPointExtension>
        </extensions>
      </trkpt>
      <trkpt lat="47.55678079091012477874755859375" lon="11.02456712163984775543212890625">
        <ele>1424.4000244140625</ele>
        <time>2026-09-01T06:56:44.000Z</time>
        <extensions>
          <ns3:TrackPointExtension>
            <ns3:hr>153</ns3:hr>
            <ns3:cad>0</ns3:cad>
          </ns3:TrackPointExtension>
        </extensions>
      </trkpt>
      <trkpt lat="47.5567736662924289703369140625" lon="11.02456510998308658599853515625">
        <ele>1424.800048828125</ele>
        <time>2026-09-01T06:56:45.000Z</time>
        <extensions>
          <ns3:TrackPointExtension>
            <ns3:hr>154</ns3:hr>
            <ns3:cad>0</ns3:cad>
          </ns3:TrackPointExtension>
        </extensions>
      </trkpt>
      <trkpt lat="47.55676503293216228485107421875" lon="11.02455656044185161590576171875">
        <ele>1425</ele>
        <time>2026-09-01T06:56:46.000Z</time>
        <extensions>
          <ns3:TrackPointExtension>
            <ns3:hr>154</ns3:hr>
            <ns3:cad>0</ns3:cad>
          </ns3:TrackPointExtension>
        </extensions>
      </trkpt>
      <trkpt lat="47.5567622669041156768798828125" lon="11.02455086074769496917724609375">
        <ele>1425.4000244140625</ele>
        <time>2026-09-01T06:56:47.000Z</time>
        <extensions>
          <ns3:TrackPointExtension>
            <ns3:hr>155</ns3:hr>
            <ns3:cad>0</ns3:cad>
          </ns3:TrackPointExtension>
        </extensions>
      </trkpt>
      <trkpt lat="47.55674877204000949859619140625" lon="11.02453359402716159820556640625">
        <ele>1425.5999755859375</ele>
        <time>2026-09-01T06:56:48.000Z</time>
        <extensions>
          <ns3:TrackPointExtension>
            <ns3:hr>155</ns3:hr>
            <ns3:cad>0</ns3:cad>
          </ns3:TrackPointExtension>
        </extensions>
      </trkpt>
      <trkpt lat="47.55674743093550205230712890625" lon="11.0245249606668949127197265625">
        <ele>1426</ele>
        <time>2026-09-01T06:56:49.000Z</time>
        <extensions>
          <ns3:TrackPointExtension>
            <ns3:hr>156</ns3:hr>
            <ns3:cad>0</ns3:cad>
          </ns3:TrackPointExtension>
        </extensions>
      </trkpt>
      <trkpt lat="47.55674592219293117523193359375" lon="11.024515070021152496337890625">
        <ele>1426.4000244140625</ele>
        <time>2026-09-01T06:56:50.000Z</time>
        <extensions>
          <ns3:TrackPointExtension>
            <ns3:hr>156</ns3:hr>
            <ns3:cad>0</ns3:cad>
          </ns3:TrackPointExtension>
        </extensions>
      </trkpt>
      <trkpt lat="47.55674508400261402130126953125" lon="11.02450576610863208770751953125">
        <ele>1426.5999755859375</ele>
        <time>2026-09-01T06:56:51.000Z</time>
        <extensions>
          <ns3:TrackPointExtension>
            <ns3:hr>156</ns3:hr>
            <ns3:cad>0</ns3:cad>
          </ns3:TrackPointExtension>
        </extensions>
      </trkpt>
      <trkpt lat="47.55674558691680431365966796875" lon="11.024493612349033355712890625">
        <ele>1427</ele>
        <time>2026-09-01T06:56:52.000Z</time>
        <extensions>
          <ns3:TrackPointExtension>
            <ns3:hr>156</ns3:hr>
            <ns3:cad>0</ns3:cad>
          </ns3:TrackPointExtension>
        </extensions>
      </trkpt>
      <trkpt lat="47.5567411445081233978271484375" lon="11.024477519094944000244140625">
        <ele>1427.4000244140625</ele>
        <time>2026-09-01T06:56:53.000Z</time>
        <extensions>
          <ns3:TrackPointExtension>
            <ns3:hr>156</ns3:hr>
            <ns3:cad>0</ns3:cad>
          </ns3:TrackPointExtension>
        </extensions>
      </trkpt>
      <trkpt lat="47.556743323802947998046875" lon="11.02446503005921840667724609375">
        <ele>1427.5999755859375</ele>
        <time>2026-09-01T06:56:54.000Z</time>
        <extensions>
          <ns3:TrackPointExtension>
            <ns3:hr>156</ns3:hr>
            <ns3:cad>0</ns3:cad>
          </ns3:TrackPointExtension>
        </extensions>
      </trkpt>
      <trkpt lat="47.5567419826984405517578125" lon="11.02445430122315883636474609375">
        <ele>1427.800048828125</ele>
        <time>2026-09-01T06:56:55.000Z</time>
        <extensions>
          <ns3:TrackPointExtension>
            <ns3:hr>157</ns3:hr>
            <ns3:cad>0</ns3:cad>
          </ns3:TrackPointExtension>
        </extensions>
      </trkpt>
      <trkpt lat="47.55674189887940883636474609375" lon="11.02444541640579700469970703125">
        <ele>1428.199951171875</ele>
        <time>2026-09-01T06:56:56.000Z</time>
        <extensions>
          <ns3:TrackPointExtension>
            <ns3:hr>157</ns3:hr>
            <ns3:cad>0</ns3:cad>
          </ns3:TrackPointExtension>
        </extensions>
      </trkpt>
      <trkpt lat="47.55674843676388263702392578125" lon="11.02443217299878597259521484375">
        <ele>1428.4000244140625</ele>
        <time>2026-09-01T06:56:57.000Z</time>
        <extensions>
          <ns3:TrackPointExtension>
            <ns3:hr>157</ns3:hr>
            <ns3:cad>60</ns3:cad>
          </ns3:TrackPointExtension>
        </extensions>
      </trkpt>
      <trkpt lat="47.55674676038324832916259765625" lon="11.02441725321114063262939453125">
        <ele>1428.5999755859375</ele>
        <time>2026-09-01T06:56:58.000Z</time>
        <extensions>
          <ns3:TrackPointExtension>
            <ns3:hr>158</ns3:hr>
            <ns3:cad>60</ns3:cad>
          </ns3:TrackPointExtension>
        </extensions>
      </trkpt>
      <trkpt lat="47.55674558691680431365966796875" lon="11.024407446384429931640625">
        <ele>1429.199951171875</ele>
        <time>2026-09-01T06:56:59.000Z</time>
        <extensions>
          <ns3:TrackPointExtension>
            <ns3:hr>158</ns3:hr>
            <ns3:cad>0</ns3:cad>
          </ns3:TrackPointExtension>
        </extensions>
      </trkpt>
      <trkpt lat="47.556741647422313690185546875" lon="11.02439948357641696929931640625">
        <ele>1429.4000244140625</ele>
        <time>2026-09-01T06:57:00.000Z</time>
        <extensions>
          <ns3:TrackPointExtension>
            <ns3:hr>158</ns3:hr>
            <ns3:cad>0</ns3:cad>
          </ns3:TrackPointExtension>
        </extensions>
      </trkpt>
      <trkpt lat="47.55673636682331562042236328125" lon="11.02439227513968944549560546875">
        <ele>1429.800048828125</ele>
        <time>2026-09-01T06:57:01.000Z</time>
        <extensions>
          <ns3:TrackPointExtension>
            <ns3:hr>158</ns3:hr>
            <ns3:cad>0</ns3:cad>
          </ns3:TrackPointExtension>
        </extensions>
      </trkpt>
      <trkpt lat="47.55673385225236415863037109375" lon="11.0243841446936130523681640625">
        <ele>1430.199951171875</ele>
        <time>2026-09-01T06:57:02.000Z</time>
        <extensions>
          <ns3:TrackPointExtension>
            <ns3:hr>159</ns3:hr>
            <ns3:cad>0</ns3:cad>
          </ns3:TrackPointExtension>
        </extensions>
      </trkpt>
      <trkpt lat="47.55673334933817386627197265625" lon="11.02437727153301239013671875">
        <ele>1430.5999755859375</ele>
        <time>2026-09-01T06:57:03.000Z</time>
        <extensions>
          <ns3:TrackPointExtension>
            <ns3:hr>160</ns3:hr>
            <ns3:cad>0</ns3:cad>
          </ns3:TrackPointExtension>
        </extensions>
      </trkpt>
      <trkpt lat="47.55672924220561981201171875" lon="11.024369895458221435546875">
        <ele>1430.800048828125</ele>
        <time>2026-09-01T06:57:04.000Z</time>
        <extensions>
          <ns3:TrackPointExtension>
            <ns3:hr>160</ns3:hr>
            <ns3:cad>0</ns3:cad>
          </ns3:TrackPointExtension>
        </extensions>
      </trkpt>
      <trkpt lat="47.5567253865301609039306640625" lon="11.02436243556439876556396484375">
        <ele>1431</ele>
        <time>2026-09-01T06:57:05.000Z</time>
        <extensions>
          <ns3:TrackPointExtension>
            <ns3:hr>161</ns3:hr>
            <ns3:cad>0</ns3:cad>
          </ns3:TrackPointExtension>
        </extensions>
      </trkpt>
      <trkpt lat="47.55672161467373371124267578125" lon="11.02435623295605182647705078125">
        <ele>1431.199951171875</ele>
        <time>2026-09-01T06:57:06.000Z</time>
        <extensions>
          <ns3:TrackPointExtension>
            <ns3:hr>161</ns3:hr>
            <ns3:cad>0</ns3:cad>
          </ns3:TrackPointExtension>
        </extensions>
      </trkpt>
      <trkpt lat="47.556716501712799072265625" lon="11.02434382773935794830322265625">
        <ele>1431.4000244140625</ele>
        <time>2026-09-01T06:57:07.000Z</time>
        <extensions>
          <ns3:TrackPointExtension>
            <ns3:hr>162</ns3:hr>
            <ns3:cad>0</ns3:cad>
          </ns3:TrackPointExtension>
        </extensions>
      </trkpt>
      <trkpt lat="47.5567042641341686248779296875" lon="11.0243348591029644012451171875">
        <ele>1431.800048828125</ele>
        <time>2026-09-01T06:57:08.000Z</time>
        <extensions>
          <ns3:TrackPointExtension>
            <ns3:hr>163</ns3:hr>
            <ns3:cad>48</ns3:cad>
          </ns3:TrackPointExtension>
        </extensions>
      </trkpt>
      <trkpt lat="47.556693367660045623779296875" lon="11.0243274830281734466552734375">
        <ele>1432.199951171875</ele>
        <time>2026-09-01T06:57:09.000Z</time>
        <extensions>
          <ns3:TrackPointExtension>
            <ns3:hr>163</ns3:hr>
            <ns3:cad>48</ns3:cad>
          </ns3:TrackPointExtension>
        </extensions>
      </trkpt>
      <trkpt lat="47.55668406374752521514892578125" lon="11.02431558072566986083984375">
        <ele>1432.4000244140625</ele>
        <time>2026-09-01T06:57:10.000Z</time>
        <extensions>
          <ns3:TrackPointExtension>
            <ns3:hr>163</ns3:hr>
            <ns3:cad>0</ns3:cad>
          </ns3:TrackPointExtension>
        </extensions>
      </trkpt>
      <trkpt lat="47.5566707365214824676513671875" lon="11.02429873310029506683349609375">
        <ele>1432.800048828125</ele>
        <time>2026-09-01T06:57:11.000Z</time>
        <extensions>
          <ns3:TrackPointExtension>
            <ns3:hr>163</ns3:hr>
            <ns3:cad>0</ns3:cad>
          </ns3:TrackPointExtension>
        </extensions>
      </trkpt>
      <trkpt lat="47.55666310898959636688232421875" lon="11.0242969729006290435791015625">
        <ele>1433</ele>
        <time>2026-09-01T06:57:12.000Z</time>
        <extensions>
          <ns3:TrackPointExtension>
            <ns3:hr>164</ns3:hr>
            <ns3:cad>0</ns3:cad>
          </ns3:TrackPointExtension>
        </extensions>
      </trkpt>
      <trkpt lat="47.55665103904902935028076171875" lon="11.02429185993969440460205078125">
        <ele>1433.199951171875</ele>
        <time>2026-09-01T06:57:13.000Z</time>
        <extensions>
          <ns3:TrackPointExtension>
            <ns3:hr>164</ns3:hr>
            <ns3:cad>0</ns3:cad>
          </ns3:TrackPointExtension>
        </extensions>
      </trkpt>
      <trkpt lat="47.556639723479747772216796875" lon="11.02429035119712352752685546875">
        <ele>1433.4000244140625</ele>
        <time>2026-09-01T06:57:14.000Z</time>
        <extensions>
          <ns3:TrackPointExtension>
            <ns3:hr>164</ns3:hr>
            <ns3:cad>0</ns3:cad>
          </ns3:TrackPointExtension>
        </extensions>
      </trkpt>
      <trkpt lat="47.5566301681101322174072265625" lon="11.02428968064486980438232421875">
        <ele>1433.800048828125</ele>
        <time>2026-09-01T06:57:15.000Z</time>
        <extensions>
          <ns3:TrackPointExtension>
            <ns3:hr>164</ns3:hr>
            <ns3:cad>0</ns3:cad>
          </ns3:TrackPointExtension>
        </extensions>
      </trkpt>
      <trkpt lat="47.5566214509308338165283203125" lon="11.02428616024553775787353515625">
        <ele>1434</ele>
        <time>2026-09-01T06:57:16.000Z</time>
        <extensions>
          <ns3:TrackPointExtension>
            <ns3:hr>164</ns3:hr>
            <ns3:cad>53</ns3:cad>
          </ns3:TrackPointExtension>
        </extensions>
      </trkpt>
      <trkpt lat="47.55661122500896453857421875" lon="11.02428331039845943450927734375">
        <ele>1434.199951171875</ele>
        <time>2026-09-01T06:57:17.000Z</time>
        <extensions>
          <ns3:TrackPointExtension>
            <ns3:hr>164</ns3:hr>
            <ns3:cad>53</ns3:cad>
          </ns3:TrackPointExtension>
        </extensions>
      </trkpt>
      <trkpt lat="47.556598819792270660400390625" lon="11.02428046055138111114501953125">
        <ele>1434.4000244140625</ele>
        <time>2026-09-01T06:57:18.000Z</time>
        <extensions>
          <ns3:TrackPointExtension>
            <ns3:hr>164</ns3:hr>
            <ns3:cad>53</ns3:cad>
          </ns3:TrackPointExtension>
        </extensions>
      </trkpt>
      <trkpt lat="47.55659085698425769805908203125" lon="11.02427534759044647216796875">
        <ele>1434.5999755859375</ele>
        <time>2026-09-01T06:57:19.000Z</time>
        <extensions>
          <ns3:TrackPointExtension>
            <ns3:hr>165</ns3:hr>
            <ns3:cad>0</ns3:cad>
          </ns3:TrackPointExtension>
        </extensions>
      </trkpt>
      <trkpt lat="47.55658096633851528167724609375" lon="11.02426956407725811004638671875">
        <ele>1435</ele>
        <time>2026-09-01T06:57:20.000Z</time>
        <extensions>
          <ns3:TrackPointExtension>
            <ns3:hr>165</ns3:hr>
            <ns3:cad>0</ns3:cad>
          </ns3:TrackPointExtension>
        </extensions>
      </trkpt>
      <trkpt lat="47.556569986045360565185546875" lon="11.02426193654537200927734375">
        <ele>1435.199951171875</ele>
        <time>2026-09-01T06:57:21.000Z</time>
        <extensions>
          <ns3:TrackPointExtension>
            <ns3:hr>165</ns3:hr>
            <ns3:cad>0</ns3:cad>
          </ns3:TrackPointExtension>
        </extensions>
      </trkpt>
      <trkpt lat="47.5565624423325061798095703125" lon="11.024251878261566162109375">
        <ele>1435.5999755859375</ele>
        <time>2026-09-01T06:57:22.000Z</time>
        <extensions>
          <ns3:TrackPointExtension>
            <ns3:hr>165</ns3:hr>
            <ns3:cad>0</ns3:cad>
          </ns3:TrackPointExtension>
        </extensions>
      </trkpt>
      <trkpt lat="47.556554563343524932861328125" lon="11.0242456756532192230224609375">
        <ele>1436</ele>
        <time>2026-09-01T06:57:23.000Z</time>
        <extensions>
          <ns3:TrackPointExtension>
            <ns3:hr>165</ns3:hr>
            <ns3:cad>0</ns3:cad>
          </ns3:TrackPointExtension>
        </extensions>
      </trkpt>
      <trkpt lat="47.55654844455420970916748046875" lon="11.0242393054068088531494140625">
        <ele>1436.4000244140625</ele>
        <time>2026-09-01T06:57:24.000Z</time>
        <extensions>
          <ns3:TrackPointExtension>
            <ns3:hr>165</ns3:hr>
            <ns3:cad>0</ns3:cad>
          </ns3:TrackPointExtension>
        </extensions>
      </trkpt>
      <trkpt lat="47.5565406493842601776123046875" lon="11.02423000149428844451904296875">
        <ele>1436.5999755859375</ele>
        <time>2026-09-01T06:57:25.000Z</time>
        <extensions>
          <ns3:TrackPointExtension>
            <ns3:hr>165</ns3:hr>
            <ns3:cad>0</ns3:cad>
          </ns3:TrackPointExtension>
        </extensions>
      </trkpt>
      <trkpt lat="47.5565433315932750701904296875" lon="11.02422195486724376678466796875">
        <ele>1436.800048828125</ele>
        <time>2026-09-01T06:57:26.000Z</time>
        <extensions>
          <ns3:TrackPointExtension>
            <ns3:hr>166</ns3:hr>
            <ns3:cad>0</ns3:cad>
          </ns3:TrackPointExtension>
        </extensions>
      </trkpt>
      <trkpt lat="47.55654953420162200927734375" lon="11.0242022573947906494140625">
        <ele>1437.199951171875</ele>
        <time>2026-09-01T06:57:27.000Z</time>
        <extensions>
          <ns3:TrackPointExtension>
            <ns3:hr>166</ns3:hr>
            <ns3:cad>0</ns3:cad>
          </ns3:TrackPointExtension>
        </extensions>
      </trkpt>
      <trkpt lat="47.5565560720860958099365234375" lon="11.0241970606148242950439453125">
        <ele>1437.4000244140625</ele>
        <time>2026-09-01T06:57:28.000Z</time>
        <extensions>
          <ns3:TrackPointExtension>
            <ns3:hr>165</ns3:hr>
            <ns3:cad>0</ns3:cad>
          </ns3:TrackPointExtension>
        </extensions>
      </trkpt>
      <trkpt lat="47.55656487308442592620849609375" lon="11.0241927020251750946044921875">
        <ele>1437.5999755859375</ele>
        <time>2026-09-01T06:57:29.000Z</time>
        <extensions>
          <ns3:TrackPointExtension>
            <ns3:hr>165</ns3:hr>
            <ns3:cad>0</ns3:cad>
          </ns3:TrackPointExtension>
        </extensions>
      </trkpt>
      <trkpt lat="47.5565711595118045806884765625" lon="11.02418507449328899383544921875">
        <ele>1438</ele>
        <time>2026-09-01T06:57:30.000Z</time>
        <extensions>
          <ns3:TrackPointExtension>
            <ns3:hr>164</ns3:hr>
            <ns3:cad>0</ns3:cad>
          </ns3:TrackPointExtension>
        </extensions>
      </trkpt>
      <trkpt lat="47.55657459609210491180419921875" lon="11.02417367510497570037841796875">
        <ele>1438.4000244140625</ele>
        <time>2026-09-01T06:57:31.000Z</time>
        <extensions>
          <ns3:TrackPointExtension>
            <ns3:hr>163</ns3:hr>
            <ns3:cad>0</ns3:cad>
          </ns3:TrackPointExtension>
        </extensions>
      </trkpt>
      <trkpt lat="47.5565738417208194732666015625" lon="11.02416814304888248443603515625">
        <ele>1438.800048828125</ele>
        <time>2026-09-01T06:57:32.000Z</time>
        <extensions>
          <ns3:TrackPointExtension>
            <ns3:hr>162</ns3:hr>
            <ns3:cad>0</ns3:cad>
          </ns3:TrackPointExtension>
        </extensions>
      </trkpt>
      <trkpt lat="47.55656973458826541900634765625" lon="11.02416663430631160736083984375">
        <ele>1439.199951171875</ele>
        <time>2026-09-01T06:57:33.000Z</time>
        <extensions>
          <ns3:TrackPointExtension>
            <ns3:hr>161</ns3:hr>
            <ns3:cad>0</ns3:cad>
          </ns3:TrackPointExtension>
        </extensions>
      </trkpt>
      <trkpt lat="47.5565698184072971343994140625" lon="11.0241631977260112762451171875">
        <ele>1439.4000244140625</ele>
        <time>2026-09-01T06:57:34.000Z</time>
        <extensions>
          <ns3:TrackPointExtension>
            <ns3:hr>161</ns3:hr>
            <ns3:cad>0</ns3:cad>
          </ns3:TrackPointExtension>
        </extensions>
      </trkpt>
      <trkpt lat="47.55656294524669647216796875" lon="11.02414953522384166717529296875">
        <ele>1439.800048828125</ele>
        <time>2026-09-01T06:57:35.000Z</time>
        <extensions>
          <ns3:TrackPointExtension>
            <ns3:hr>161</ns3:hr>
            <ns3:cad>0</ns3:cad>
          </ns3:TrackPointExtension>
        </extensions>
      </trkpt>
      <trkpt lat="47.556556575000286102294921875" lon="11.02414660155773162841796875">
        <ele>1440.199951171875</ele>
        <time>2026-09-01T06:57:36.000Z</time>
        <extensions>
          <ns3:TrackPointExtension>
            <ns3:hr>160</ns3:hr>
            <ns3:cad>0</ns3:cad>
          </ns3:TrackPointExtension>
        </extensions>
      </trkpt>
      <trkpt lat="47.55654953420162200927734375" lon="11.0241420753300189971923828125">
        <ele>1440.5999755859375</ele>
        <time>2026-09-01T06:57:37.000Z</time>
        <extensions>
          <ns3:TrackPointExtension>
            <ns3:hr>160</ns3:hr>
            <ns3:cad>0</ns3:cad>
          </ns3:TrackPointExtension>
        </extensions>
      </trkpt>
      <trkpt lat="47.556545846164226531982421875" lon="11.0241326875984668731689453125">
        <ele>1441</ele>
        <time>2026-09-01T06:57:38.000Z</time>
        <extensions>
          <ns3:TrackPointExtension>
            <ns3:hr>160</ns3:hr>
            <ns3:cad>0</ns3:cad>
          </ns3:TrackPointExtension>
        </extensions>
      </trkpt>
      <trkpt lat="47.5565423257648944854736328125" lon="11.0241333581507205963134765625">
        <ele>1441.4000244140625</ele>
        <time>2026-09-01T06:57:39.000Z</time>
        <extensions>
          <ns3:TrackPointExtension>
            <ns3:hr>160</ns3:hr>
            <ns3:cad>0</ns3:cad>
          </ns3:TrackPointExtension>
        </extensions>
      </trkpt>
      <trkpt lat="47.55653344094753265380859375" lon="11.02412522770464420318603515625">
        <ele>1441.5999755859375</ele>
        <time>2026-09-01T06:57:40.000Z</time>
        <extensions>
          <ns3:TrackPointExtension>
            <ns3:hr>160</ns3:hr>
            <ns3:cad>0</ns3:cad>
          </ns3:TrackPointExtension>
        </extensions>
      </trkpt>
      <trkpt lat="47.5565295852720737457275390625" lon="11.02412656880915164947509765625">
        <ele>1442</ele>
        <time>2026-09-01T06:57:41.000Z</time>
        <extensions>
          <ns3:TrackPointExtension>
            <ns3:hr>160</ns3:hr>
            <ns3:cad>0</ns3:cad>
          </ns3:TrackPointExtension>
        </extensions>
      </trkpt>
      <trkpt lat="47.55652681924402713775634765625" lon="11.024130173027515411376953125">
        <ele>1442.4000244140625</ele>
        <time>2026-09-01T06:57:42.000Z</time>
        <extensions>
          <ns3:TrackPointExtension>
            <ns3:hr>160</ns3:hr>
            <ns3:cad>0</ns3:cad>
          </ns3:TrackPointExtension>
        </extensions>
      </trkpt>
      <trkpt lat="47.556523717939853668212890625" lon="11.0241286642849445343017578125">
        <ele>1442.5999755859375</ele>
        <time>2026-09-01T06:57:43.000Z</time>
        <extensions>
          <ns3:TrackPointExtension>
            <ns3:hr>160</ns3:hr>
            <ns3:cad>0</ns3:cad>
          </ns3:TrackPointExtension>
        </extensions>
      </trkpt>
      <trkpt lat="47.55651826970279216766357421875" lon="11.0241298377513885498046875">
        <ele>1443</ele>
        <time>2026-09-01T06:57:44.000Z</time>
        <extensions>
          <ns3:TrackPointExtension>
            <ns3:hr>159</ns3:hr>
            <ns3:cad>0</ns3:cad>
          </ns3:TrackPointExtension>
        </extensions>
      </trkpt>
      <trkpt lat="47.55651491694152355194091796875" lon="11.0241306759417057037353515625">
        <ele>1443.4000244140625</ele>
        <time>2026-09-01T06:57:45.000Z</time>
        <extensions>
          <ns3:TrackPointExtension>
            <ns3:hr>160</ns3:hr>
            <ns3:cad>0</ns3:cad>
          </ns3:TrackPointExtension>
        </extensions>
      </trkpt>
      <trkpt lat="47.5565134920179843902587890625" lon="11.02412723936140537261962890625">
        <ele>1443.5999755859375</ele>
        <time>2026-09-01T06:57:46.000Z</time>
        <extensions>
          <ns3:TrackPointExtension>
            <ns3:hr>159</ns3:hr>
            <ns3:cad>0</ns3:cad>
          </ns3:TrackPointExtension>
        </extensions>
      </trkpt>
      <trkpt lat="47.55651541985571384429931640625" lon="11.02411131374537944793701171875">
        <ele>1443.800048828125</ele>
        <time>2026-09-01T06:57:47.000Z</time>
        <extensions>
          <ns3:TrackPointExtension>
            <ns3:hr>159</ns3:hr>
            <ns3:cad>0</ns3:cad>
          </ns3:TrackPointExtension>
        </extensions>
      </trkpt>
      <trkpt lat="47.5565094687044620513916015625" lon="11.02409907616674900054931640625">
        <ele>1444.199951171875</ele>
        <time>2026-09-01T06:57:48.000Z</time>
        <extensions>
          <ns3:TrackPointExtension>
            <ns3:hr>159</ns3:hr>
            <ns3:cad>0</ns3:cad>
          </ns3:TrackPointExtension>
        </extensions>
      </trkpt>
      <trkpt lat="47.55649681203067302703857421875" lon="11.02410175837576389312744140625">
        <ele>1444.5999755859375</ele>
        <time>2026-09-01T06:57:49.000Z</time>
        <extensions>
          <ns3:TrackPointExtension>
            <ns3:hr>160</ns3:hr>
            <ns3:cad>0</ns3:cad>
          </ns3:TrackPointExtension>
        </extensions>
      </trkpt>
      <trkpt lat="47.556492872536182403564453125" lon="11.02409371174871921539306640625">
        <ele>1445</ele>
        <time>2026-09-01T06:57:50.000Z</time>
        <extensions>
          <ns3:TrackPointExtension>
            <ns3:hr>161</ns3:hr>
            <ns3:cad>0</ns3:cad>
          </ns3:TrackPointExtension>
        </extensions>
      </trkpt>
      <trkpt lat="47.55649195052683353424072265625" lon="11.024085581302642822265625">
        <ele>1445.199951171875</ele>
        <time>2026-09-01T06:57:51.000Z</time>
        <extensions>
          <ns3:TrackPointExtension>
            <ns3:hr>162</ns3:hr>
            <ns3:cad>0</ns3:cad>
          </ns3:TrackPointExtension>
        </extensions>
      </trkpt>
      <trkpt lat="47.5564913637936115264892578125" lon="11.02408214472234249114990234375">
        <ele>1445.5999755859375</ele>
        <time>2026-09-01T06:57:52.000Z</time>
        <extensions>
          <ns3:TrackPointExtension>
            <ns3:hr>163</ns3:hr>
            <ns3:cad>0</ns3:cad>
          </ns3:TrackPointExtension>
        </extensions>
      </trkpt>
      <trkpt lat="47.55649412982165813446044921875" lon="11.02407678030431270599365234375">
        <ele>1445.800048828125</ele>
        <time>2026-09-01T06:57:53.000Z</time>
        <extensions>
          <ns3:TrackPointExtension>
            <ns3:hr>163</ns3:hr>
            <ns3:cad>0</ns3:cad>
          </ns3:TrackPointExtension>
        </extensions>
      </trkpt>
      <trkpt lat="47.55649111233651638031005859375" lon="11.0240629501640796661376953125">
        <ele>1446.199951171875</ele>
        <time>2026-09-01T06:57:54.000Z</time>
        <extensions>
          <ns3:TrackPointExtension>
            <ns3:hr>163</ns3:hr>
            <ns3:cad>0</ns3:cad>
          </ns3:TrackPointExtension>
        </extensions>
      </trkpt>
      <trkpt lat="47.5564886815845966339111328125" lon="11.0240528918802738189697265625">
        <ele>1446.4000244140625</ele>
        <time>2026-09-01T06:57:55.000Z</time>
        <extensions>
          <ns3:TrackPointExtension>
            <ns3:hr>162</ns3:hr>
            <ns3:cad>0</ns3:cad>
          </ns3:TrackPointExtension>
        </extensions>
      </trkpt>
      <trkpt lat="47.556488178670406341552734375" lon="11.0240394808351993560791015625">
        <ele>1446.800048828125</ele>
        <time>2026-09-01T06:57:56.000Z</time>
        <extensions>
          <ns3:TrackPointExtension>
            <ns3:hr>162</ns3:hr>
            <ns3:cad>48</ns3:cad>
          </ns3:TrackPointExtension>
        </extensions>
      </trkpt>
      <trkpt lat="47.55648809485137462615966796875" lon="11.02403637953102588653564453125">
        <ele>1447.199951171875</ele>
        <time>2026-09-01T06:57:57.000Z</time>
        <extensions>
          <ns3:TrackPointExtension>
            <ns3:hr>161</ns3:hr>
            <ns3:cad>48</ns3:cad>
          </ns3:TrackPointExtension>
        </extensions>
      </trkpt>
      <trkpt lat="47.5564853288233280181884765625" lon="11.02403051219880580902099609375">
        <ele>1447.5999755859375</ele>
        <time>2026-09-01T06:57:58.000Z</time>
        <extensions>
          <ns3:TrackPointExtension>
            <ns3:hr>161</ns3:hr>
            <ns3:cad>48</ns3:cad>
          </ns3:TrackPointExtension>
        </extensions>
      </trkpt>
      <trkpt lat="47.5564843229949474334716796875" lon="11.0240237228572368621826171875">
        <ele>1447.800048828125</ele>
        <time>2026-09-01T06:57:59.000Z</time>
        <extensions>
          <ns3:TrackPointExtension>
            <ns3:hr>161</ns3:hr>
            <ns3:cad>48</ns3:cad>
          </ns3:TrackPointExtension>
        </extensions>
      </trkpt>
      <trkpt lat="47.55648021586239337921142578125" lon="11.0240153409540653228759765625">
        <ele>1448</ele>
        <time>2026-09-01T06:58:00.000Z</time>
        <extensions>
          <ns3:TrackPointExtension>
            <ns3:hr>162</ns3:hr>
            <ns3:cad>48</ns3:cad>
          </ns3:TrackPointExtension>
        </extensions>
      </trkpt>
      <trkpt lat="47.556480802595615386962890625" lon="11.02401115000247955322265625">
        <ele>1448.4000244140625</ele>
        <time>2026-09-01T06:58:01.000Z</time>
        <extensions>
          <ns3:TrackPointExtension>
            <ns3:hr>161</ns3:hr>
            <ns3:cad>0</ns3:cad>
          </ns3:TrackPointExtension>
        </extensions>
      </trkpt>
      <trkpt lat="47.5564777851104736328125" lon="11.02400603704154491424560546875">
        <ele>1448.5999755859375</ele>
        <time>2026-09-01T06:58:02.000Z</time>
        <extensions>
          <ns3:TrackPointExtension>
            <ns3:hr>161</ns3:hr>
            <ns3:cad>0</ns3:cad>
          </ns3:TrackPointExtension>
        </extensions>
      </trkpt>
      <trkpt lat="47.55647443234920501708984375" lon="11.02399949915707111358642578125">
        <ele>1448.800048828125</ele>
        <time>2026-09-01T06:58:03.000Z</time>
        <extensions>
          <ns3:TrackPointExtension>
            <ns3:hr>161</ns3:hr>
            <ns3:cad>0</ns3:cad>
          </ns3:TrackPointExtension>
        </extensions>
      </trkpt>
      <trkpt lat="47.556469738483428955078125" lon="11.02399262599647045135498046875">
        <ele>1449</ele>
        <time>2026-09-01T06:58:04.000Z</time>
        <extensions>
          <ns3:TrackPointExtension>
            <ns3:hr>160</ns3:hr>
            <ns3:cad>0</ns3:cad>
          </ns3:TrackPointExtension>
        </extensions>
      </trkpt>
      <trkpt lat="47.556464038789272308349609375" lon="11.02398893795907497406005859375">
        <ele>1449.199951171875</ele>
        <time>2026-09-01T06:58:05.000Z</time>
        <extensions>
          <ns3:TrackPointExtension>
            <ns3:hr>160</ns3:hr>
            <ns3:cad>0</ns3:cad>
          </ns3:TrackPointExtension>
        </extensions>
      </trkpt>
      <trkpt lat="47.5564605183899402618408203125" lon="11.0239925421774387359619140625">
        <ele>1449.5999755859375</ele>
        <time>2026-09-01T06:58:06.000Z</time>
        <extensions>
          <ns3:TrackPointExtension>
            <ns3:hr>159</ns3:hr>
            <ns3:cad>0</ns3:cad>
          </ns3:TrackPointExtension>
        </extensions>
      </trkpt>
      <trkpt lat="47.55645540542900562286376953125" lon="11.0239955596625804901123046875">
        <ele>1449.800048828125</ele>
        <time>2026-09-01T06:58:07.000Z</time>
        <extensions>
          <ns3:TrackPointExtension>
            <ns3:hr>159</ns3:hr>
            <ns3:cad>0</ns3:cad>
          </ns3:TrackPointExtension>
        </extensions>
      </trkpt>
      <trkpt lat="47.5564481131732463836669921875" lon="11.02398575283586978912353515625">
        <ele>1450.199951171875</ele>
        <time>2026-09-01T06:58:08.000Z</time>
        <extensions>
          <ns3:TrackPointExtension>
            <ns3:hr>158</ns3:hr>
            <ns3:cad>0</ns3:cad>
          </ns3:TrackPointExtension>
        </extensions>
      </trkpt>
      <trkpt lat="47.556438557803630828857421875" lon="11.02399363182485103607177734375">
        <ele>1450.199951171875</ele>
        <time>2026-09-01T06:58:09.000Z</time>
        <extensions>
          <ns3:TrackPointExtension>
            <ns3:hr>158</ns3:hr>
            <ns3:cad>0</ns3:cad>
          </ns3:TrackPointExtension>
        </extensions>
      </trkpt>
      <trkpt lat="47.5564290024340152740478515625" lon="11.0239969007670879364013671875">
        <ele>1450.4000244140625</ele>
        <time>2026-09-01T06:58:10.000Z</time>
        <extensions>
          <ns3:TrackPointExtension>
            <ns3:hr>158</ns3:hr>
            <ns3:cad>0</ns3:cad>
          </ns3:TrackPointExtension>
        </extensions>
      </trkpt>
      <trkpt lat="47.55642422474920749664306640625" lon="11.023990027606487274169921875">
        <ele>1450.4000244140625</ele>
        <time>2026-09-01T06:58:11.000Z</time>
        <extensions>
          <ns3:TrackPointExtension>
            <ns3:hr>158</ns3:hr>
            <ns3:cad>0</ns3:cad>
          </ns3:TrackPointExtension>
        </extensions>
      </trkpt>
      <trkpt lat="47.5564216263592243194580078125" lon="11.02398701012134552001953125">
        <ele>1450.199951171875</ele>
        <time>2026-09-01T06:58:12.000Z</time>
        <extensions>
          <ns3:TrackPointExtension>
            <ns3:hr>159</ns3:hr>
            <ns3:cad>0</ns3:cad>
          </ns3:TrackPointExtension>
        </extensions>
      </trkpt>
      <trkpt lat="47.556419782340526580810546875" lon="11.02398022077977657318115234375">
        <ele>1450.4000244140625</ele>
        <time>2026-09-01T06:58:13.000Z</time>
        <extensions>
          <ns3:TrackPointExtension>
            <ns3:hr>159</ns3:hr>
            <ns3:cad>0</ns3:cad>
          </ns3:TrackPointExtension>
        </extensions>
      </trkpt>
      <trkpt lat="47.55642414093017578125" lon="11.02397552691400051116943359375">
        <ele>1450.5999755859375</ele>
        <time>2026-09-01T06:58:14.000Z</time>
        <extensions>
          <ns3:TrackPointExtension>
            <ns3:hr>158</ns3:hr>
            <ns3:cad>0</ns3:cad>
          </ns3:TrackPointExtension>
        </extensions>
      </trkpt>
      <trkpt lat="47.556429170072078704833984375" lon="11.023969240486621856689453125">
        <ele>1450.800048828125</ele>
        <time>2026-09-01T06:58:15.000Z</time>
        <extensions>
          <ns3:TrackPointExtension>
            <ns3:hr>157</ns3:hr>
            <ns3:cad>0</ns3:cad>
          </ns3:TrackPointExtension>
        </extensions>
      </trkpt>
      <trkpt lat="47.55643696524202823638916015625" lon="11.02396412752568721771240234375">
        <ele>1451.199951171875</ele>
        <time>2026-09-01T06:58:16.000Z</time>
        <extensions>
          <ns3:TrackPointExtension>
            <ns3:hr>158</ns3:hr>
            <ns3:cad>0</ns3:cad>
          </ns3:TrackPointExtension>
        </extensions>
      </trkpt>
      <trkpt lat="47.55643931217491626739501953125" lon="11.02395339868962764739990234375">
        <ele>1451.4000244140625</ele>
        <time>2026-09-01T06:58:17.000Z</time>
        <extensions>
          <ns3:TrackPointExtension>
            <ns3:hr>158</ns3:hr>
            <ns3:cad>46</ns3:cad>
          </ns3:TrackPointExtension>
        </extensions>
      </trkpt>
      <trkpt lat="47.5564370490610599517822265625" lon="11.02394484914839267730712890625">
        <ele>1451.800048828125</ele>
        <time>2026-09-01T06:58:18.000Z</time>
        <extensions>
          <ns3:TrackPointExtension>
            <ns3:hr>158</ns3:hr>
            <ns3:cad>46</ns3:cad>
          </ns3:TrackPointExtension>
        </extensions>
      </trkpt>
      <trkpt lat="47.55644065327942371368408203125" lon="11.02393713779747486114501953125">
        <ele>1451.800048828125</ele>
        <time>2026-09-01T06:58:19.000Z</time>
        <extensions>
          <ns3:TrackPointExtension>
            <ns3:hr>158</ns3:hr>
            <ns3:cad>46</ns3:cad>
          </ns3:TrackPointExtension>
        </extensions>
      </trkpt>
      <trkpt lat="47.55644300021231174468994140625" lon="11.023930348455905914306640625">
        <ele>1452.199951171875</ele>
        <time>2026-09-01T06:58:20.000Z</time>
        <extensions>
          <ns3:TrackPointExtension>
            <ns3:hr>158</ns3:hr>
            <ns3:cad>46</ns3:cad>
          </ns3:TrackPointExtension>
        </extensions>
      </trkpt>
      <trkpt lat="47.556443922221660614013671875" lon="11.023924648761749267578125">
        <ele>1452.4000244140625</ele>
        <time>2026-09-01T06:58:21.000Z</time>
        <extensions>
          <ns3:TrackPointExtension>
            <ns3:hr>158</ns3:hr>
            <ns3:cad>0</ns3:cad>
          </ns3:TrackPointExtension>
        </extensions>
      </trkpt>
      <trkpt lat="47.55644165910780429840087890625" lon="11.02391886524856090545654296875">
        <ele>1452.5999755859375</ele>
        <time>2026-09-01T06:58:22.000Z</time>
        <extensions>
          <ns3:TrackPointExtension>
            <ns3:hr>159</ns3:hr>
            <ns3:cad>0</ns3:cad>
          </ns3:TrackPointExtension>
        </extensions>
      </trkpt>
      <trkpt lat="47.5564336962997913360595703125" lon="11.02391861379146575927734375">
        <ele>1452.800048828125</ele>
        <time>2026-09-01T06:58:23.000Z</time>
        <extensions>
          <ns3:TrackPointExtension>
            <ns3:hr>159</ns3:hr>
            <ns3:cad>0</ns3:cad>
          </ns3:TrackPointExtension>
        </extensions>
      </trkpt>
      <trkpt lat="47.55642757751047611236572265625" lon="11.0239179432392120361328125">
        <ele>1453.199951171875</ele>
        <time>2026-09-01T06:58:24.000Z</time>
        <extensions>
          <ns3:TrackPointExtension>
            <ns3:hr>158</ns3:hr>
            <ns3:cad>0</ns3:cad>
          </ns3:TrackPointExtension>
        </extensions>
      </trkpt>
      <trkpt lat="47.5564192794263362884521484375" lon="11.0239140875637531280517578125">
        <ele>1453.4000244140625</ele>
        <time>2026-09-01T06:58:25.000Z</time>
        <extensions>
          <ns3:TrackPointExtension>
            <ns3:hr>158</ns3:hr>
            <ns3:cad>0</ns3:cad>
          </ns3:TrackPointExtension>
        </extensions>
      </trkpt>
      <trkpt lat="47.55640880204737186431884765625" lon="11.02391215972602367401123046875">
        <ele>1453.5999755859375</ele>
        <time>2026-09-01T06:58:26.000Z</time>
        <extensions>
          <ns3:TrackPointExtension>
            <ns3:hr>157</ns3:hr>
            <ns3:cad>0</ns3:cad>
          </ns3:TrackPointExtension>
        </extensions>
      </trkpt>
      <trkpt lat="47.55640042014420032501220703125" lon="11.0239098966121673583984375">
        <ele>1454</ele>
        <time>2026-09-01T06:58:27.000Z</time>
        <extensions>
          <ns3:TrackPointExtension>
            <ns3:hr>158</ns3:hr>
            <ns3:cad>0</ns3:cad>
          </ns3:TrackPointExtension>
        </extensions>
      </trkpt>
      <trkpt lat="47.55638650618493556976318359375" lon="11.023892462253570556640625">
        <ele>1454.199951171875</ele>
        <time>2026-09-01T06:58:28.000Z</time>
        <extensions>
          <ns3:TrackPointExtension>
            <ns3:hr>158</ns3:hr>
            <ns3:cad>0</ns3:cad>
          </ns3:TrackPointExtension>
        </extensions>
      </trkpt>
      <trkpt lat="47.556379549205303192138671875" lon="11.0238938033580780029296875">
        <ele>1454.4000244140625</ele>
        <time>2026-09-01T06:58:29.000Z</time>
        <extensions>
          <ns3:TrackPointExtension>
            <ns3:hr>158</ns3:hr>
            <ns3:cad>0</ns3:cad>
          </ns3:TrackPointExtension>
        </extensions>
      </trkpt>
      <trkpt lat="47.5563726760447025299072265625" lon="11.0238929651677608489990234375">
        <ele>1454.4000244140625</ele>
        <time>2026-09-01T06:58:30.000Z</time>
        <extensions>
          <ns3:TrackPointExtension>
            <ns3:hr>159</ns3:hr>
            <ns3:cad>0</ns3:cad>
          </ns3:TrackPointExtension>
        </extensions>
      </trkpt>
      <trkpt lat="47.55636655725538730621337890625" lon="11.02389019913971424102783203125">
        <ele>1454.4000244140625</ele>
        <time>2026-09-01T06:58:31.000Z</time>
        <extensions>
          <ns3:TrackPointExtension>
            <ns3:hr>158</ns3:hr>
            <ns3:cad>0</ns3:cad>
          </ns3:TrackPointExtension>
        </extensions>
      </trkpt>
      <trkpt lat="47.55636437796056270599365234375" lon="11.0238906182348728179931640625">
        <ele>1454.5999755859375</ele>
        <time>2026-09-01T06:58:32.000Z</time>
        <extensions>
          <ns3:TrackPointExtension>
            <ns3:hr>158</ns3:hr>
            <ns3:cad>0</ns3:cad>
          </ns3:TrackPointExtension>
        </extensions>
      </trkpt>
      <trkpt lat="47.55636387504637241363525390625" lon="11.0238886065781116485595703125">
        <ele>1455</ele>
        <time>2026-09-01T06:58:33.000Z</time>
        <extensions>
          <ns3:TrackPointExtension>
            <ns3:hr>157</ns3:hr>
            <ns3:cad>0</ns3:cad>
          </ns3:TrackPointExtension>
        </extensions>
      </trkpt>
      <trkpt lat="47.5563616119325160980224609375" lon="11.0238876007497310638427734375">
        <ele>1455.4000244140625</ele>
        <time>2026-09-01T06:58:34.000Z</time>
        <extensions>
          <ns3:TrackPointExtension>
            <ns3:hr>157</ns3:hr>
            <ns3:cad>0</ns3:cad>
          </ns3:TrackPointExtension>
        </extensions>
      </trkpt>
      <trkpt lat="47.55635113455355167388916015625" lon="11.023875363171100616455078125">
        <ele>1456</ele>
        <time>2026-09-01T06:58:35.000Z</time>
        <extensions>
          <ns3:TrackPointExtension>
            <ns3:hr>157</ns3:hr>
            <ns3:cad>0</ns3:cad>
          </ns3:TrackPointExtension>
        </extensions>
      </trkpt>
      <trkpt lat="47.55633990280330181121826171875" lon="11.0238669812679290771484375">
        <ele>1456.4000244140625</ele>
        <time>2026-09-01T06:58:36.000Z</time>
        <extensions>
          <ns3:TrackPointExtension>
            <ns3:hr>155</ns3:hr>
            <ns3:cad>0</ns3:cad>
          </ns3:TrackPointExtension>
        </extensions>
      </trkpt>
      <trkpt lat="47.556335963308811187744140625" lon="11.02386136539280414581298828125">
        <ele>1456.5999755859375</ele>
        <time>2026-09-01T06:58:37.000Z</time>
        <extensions>
          <ns3:TrackPointExtension>
            <ns3:hr>155</ns3:hr>
            <ns3:cad>0</ns3:cad>
          </ns3:TrackPointExtension>
        </extensions>
      </trkpt>
      <trkpt lat="47.55633202381432056427001953125" lon="11.0238591022789478302001953125">
        <ele>1456.800048828125</ele>
        <time>2026-09-01T06:58:38.000Z</time>
        <extensions>
          <ns3:TrackPointExtension>
            <ns3:hr>155</ns3:hr>
            <ns3:cad>0</ns3:cad>
          </ns3:TrackPointExtension>
        </extensions>
      </trkpt>
      <trkpt lat="47.55632012151181697845458984375" lon="11.02385960519313812255859375">
        <ele>1457.199951171875</ele>
        <time>2026-09-01T06:58:39.000Z</time>
        <extensions>
          <ns3:TrackPointExtension>
            <ns3:hr>155</ns3:hr>
            <ns3:cad>0</ns3:cad>
          </ns3:TrackPointExtension>
        </extensions>
      </trkpt>
      <trkpt lat="47.55631391890347003936767578125" lon="11.02385885082185268402099609375">
        <ele>1457.4000244140625</ele>
        <time>2026-09-01T06:58:40.000Z</time>
        <extensions>
          <ns3:TrackPointExtension>
            <ns3:hr>156</ns3:hr>
            <ns3:cad>0</ns3:cad>
          </ns3:TrackPointExtension>
        </extensions>
      </trkpt>
      <trkpt lat="47.556301094591617584228515625" lon="11.02385734207928180694580078125">
        <ele>1457.5999755859375</ele>
        <time>2026-09-01T06:58:41.000Z</time>
        <extensions>
          <ns3:TrackPointExtension>
            <ns3:hr>155</ns3:hr>
            <ns3:cad>0</ns3:cad>
          </ns3:TrackPointExtension>
        </extensions>
      </trkpt>
      <trkpt lat="47.5562913715839385986328125" lon="11.02384678088128566741943359375">
        <ele>1457.800048828125</ele>
        <time>2026-09-01T06:58:42.000Z</time>
        <extensions>
          <ns3:TrackPointExtension>
            <ns3:hr>155</ns3:hr>
            <ns3:cad>0</ns3:cad>
          </ns3:TrackPointExtension>
        </extensions>
      </trkpt>
      <trkpt lat="47.556274943053722381591796875" lon="11.02384426631033420562744140625">
        <ele>1458.199951171875</ele>
        <time>2026-09-01T06:58:43.000Z</time>
        <extensions>
          <ns3:TrackPointExtension>
            <ns3:hr>154</ns3:hr>
            <ns3:cad>0</ns3:cad>
          </ns3:TrackPointExtension>
        </extensions>
      </trkpt>
      <trkpt lat="47.55626698024570941925048828125" lon="11.0238356329500675201416015625">
        <ele>1458.4000244140625</ele>
        <time>2026-09-01T06:58:44.000Z</time>
        <extensions>
          <ns3:TrackPointExtension>
            <ns3:hr>154</ns3:hr>
            <ns3:cad>0</ns3:cad>
          </ns3:TrackPointExtension>
        </extensions>
      </trkpt>
      <trkpt lat="47.55625373683869838714599609375" lon="11.02382046170532703399658203125">
        <ele>1458.800048828125</ele>
        <time>2026-09-01T06:58:45.000Z</time>
        <extensions>
          <ns3:TrackPointExtension>
            <ns3:hr>153</ns3:hr>
            <ns3:cad>0</ns3:cad>
          </ns3:TrackPointExtension>
        </extensions>
      </trkpt>
      <trkpt lat="47.5562472827732563018798828125" lon="11.02381040342152118682861328125">
        <ele>1459.199951171875</ele>
        <time>2026-09-01T06:58:46.000Z</time>
        <extensions>
          <ns3:TrackPointExtension>
            <ns3:hr>153</ns3:hr>
            <ns3:cad>0</ns3:cad>
          </ns3:TrackPointExtension>
        </extensions>
      </trkpt>
      <trkpt lat="47.5562457740306854248046875" lon="11.02380487136542797088623046875">
        <ele>1459.4000244140625</ele>
        <time>2026-09-01T06:58:47.000Z</time>
        <extensions>
          <ns3:TrackPointExtension>
            <ns3:hr>154</ns3:hr>
            <ns3:cad>0</ns3:cad>
          </ns3:TrackPointExtension>
        </extensions>
      </trkpt>
      <trkpt lat="47.5562452711164951324462890625" lon="11.02379657328128814697265625">
        <ele>1459.5999755859375</ele>
        <time>2026-09-01T06:58:48.000Z</time>
        <extensions>
          <ns3:TrackPointExtension>
            <ns3:hr>155</ns3:hr>
            <ns3:cad>0</ns3:cad>
          </ns3:TrackPointExtension>
        </extensions>
      </trkpt>
      <trkpt lat="47.5562576763331890106201171875" lon="11.02378441952168941497802734375">
        <ele>1460</ele>
        <time>2026-09-01T06:58:49.000Z</time>
        <extensions>
          <ns3:TrackPointExtension>
            <ns3:hr>154</ns3:hr>
            <ns3:cad>54</ns3:cad>
          </ns3:TrackPointExtension>
        </extensions>
      </trkpt>
      <trkpt lat="47.5562613643705844879150390625" lon="11.0237772949039936065673828125">
        <ele>1460</ele>
        <time>2026-09-01T06:58:50.000Z</time>
        <extensions>
          <ns3:TrackPointExtension>
            <ns3:hr>154</ns3:hr>
            <ns3:cad>54</ns3:cad>
          </ns3:TrackPointExtension>
        </extensions>
      </trkpt>
      <trkpt lat="47.55626597441732883453369140625" lon="11.0237722657620906829833984375">
        <ele>1460.4000244140625</ele>
        <time>2026-09-01T06:58:51.000Z</time>
        <extensions>
          <ns3:TrackPointExtension>
            <ns3:hr>154</ns3:hr>
            <ns3:cad>0</ns3:cad>
          </ns3:TrackPointExtension>
        </extensions>
      </trkpt>
      <trkpt lat="47.55626966245472431182861328125" lon="11.0237658955156803131103515625">
        <ele>1460.800048828125</ele>
        <time>2026-09-01T06:58:52.000Z</time>
        <extensions>
          <ns3:TrackPointExtension>
            <ns3:hr>154</ns3:hr>
            <ns3:cad>0</ns3:cad>
          </ns3:TrackPointExtension>
        </extensions>
      </trkpt>
      <trkpt lat="47.556270919740200042724609375" lon="11.02376514114439487457275390625">
        <ele>1461.199951171875</ele>
        <time>2026-09-01T06:58:53.000Z</time>
        <extensions>
          <ns3:TrackPointExtension>
            <ns3:hr>154</ns3:hr>
            <ns3:cad>0</ns3:cad>
          </ns3:TrackPointExtension>
        </extensions>
      </trkpt>
      <trkpt lat="47.556272260844707489013671875" lon="11.02376363240182399749755859375">
        <ele>1461.4000244140625</ele>
        <time>2026-09-01T06:58:54.000Z</time>
        <extensions>
          <ns3:TrackPointExtension>
            <ns3:hr>155</ns3:hr>
            <ns3:cad>0</ns3:cad>
          </ns3:TrackPointExtension>
        </extensions>
      </trkpt>
      <trkpt lat="47.55627234466373920440673828125" lon="11.02376162074506282806396484375">
        <ele>1461.5999755859375</ele>
        <time>2026-09-01T06:58:55.000Z</time>
        <extensions>
          <ns3:TrackPointExtension>
            <ns3:hr>155</ns3:hr>
            <ns3:cad>0</ns3:cad>
          </ns3:TrackPointExtension>
        </extensions>
      </trkpt>
      <trkpt lat="47.5562734343111515045166015625" lon="11.0237568430602550506591796875">
        <ele>1462</ele>
        <time>2026-09-01T06:58:56.000Z</time>
        <extensions>
          <ns3:TrackPointExtension>
            <ns3:hr>156</ns3:hr>
            <ns3:cad>0</ns3:cad>
          </ns3:TrackPointExtension>
        </extensions>
      </trkpt>
      <trkpt lat="47.55627368576824665069580078125" lon="11.0237514786422252655029296875">
        <ele>1462</ele>
        <time>2026-09-01T06:58:57.000Z</time>
        <extensions>
          <ns3:TrackPointExtension>
            <ns3:hr>158</ns3:hr>
            <ns3:cad>0</ns3:cad>
          </ns3:TrackPointExtension>
        </extensions>
      </trkpt>
      <trkpt lat="47.5562699139118194580078125" lon="11.02374217472970485687255859375">
        <ele>1462.199951171875</ele>
        <time>2026-09-01T06:58:58.000Z</time>
        <extensions>
          <ns3:TrackPointExtension>
            <ns3:hr>158</ns3:hr>
            <ns3:cad>0</ns3:cad>
          </ns3:TrackPointExtension>
        </extensions>
      </trkpt>
      <trkpt lat="47.5562573410570621490478515625" lon="11.0237382352352142333984375">
        <ele>1462.5999755859375</ele>
        <time>2026-09-01T06:58:59.000Z</time>
        <extensions>
          <ns3:TrackPointExtension>
            <ns3:hr>158</ns3:hr>
            <ns3:cad>0</ns3:cad>
          </ns3:TrackPointExtension>
        </extensions>
      </trkpt>
      <trkpt lat="47.55625926889479160308837890625" lon="11.0237306915223598480224609375">
        <ele>1462.800048828125</ele>
        <time>2026-09-01T06:59:00.000Z</time>
        <extensions>
          <ns3:TrackPointExtension>
            <ns3:hr>158</ns3:hr>
            <ns3:cad>0</ns3:cad>
          </ns3:TrackPointExtension>
        </extensions>
      </trkpt>
      <trkpt lat="47.55625809542834758758544921875" lon="11.02372859604656696319580078125">
        <ele>1463.199951171875</ele>
        <time>2026-09-01T06:59:01.000Z</time>
        <extensions>
          <ns3:TrackPointExtension>
            <ns3:hr>158</ns3:hr>
            <ns3:cad>0</ns3:cad>
          </ns3:TrackPointExtension>
        </extensions>
      </trkpt>
      <trkpt lat="47.5562576763331890106201171875" lon="11.0237259976565837860107421875">
        <ele>1463.5999755859375</ele>
        <time>2026-09-01T06:59:02.000Z</time>
        <extensions>
          <ns3:TrackPointExtension>
            <ns3:hr>158</ns3:hr>
            <ns3:cad>0</ns3:cad>
          </ns3:TrackPointExtension>
        </extensions>
      </trkpt>
      <trkpt lat="47.55626144818961620330810546875" lon="11.0237192921340465545654296875">
        <ele>1463.800048828125</ele>
        <time>2026-09-01T06:59:03.000Z</time>
        <extensions>
          <ns3:TrackPointExtension>
            <ns3:hr>157</ns3:hr>
            <ns3:cad>0</ns3:cad>
          </ns3:TrackPointExtension>
        </extensions>
      </trkpt>
      <trkpt lat="47.55627058446407318115234375" lon="11.023726165294647216796875">
        <ele>1464.199951171875</ele>
        <time>2026-09-01T06:59:04.000Z</time>
        <extensions>
          <ns3:TrackPointExtension>
            <ns3:hr>157</ns3:hr>
            <ns3:cad>0</ns3:cad>
          </ns3:TrackPointExtension>
        </extensions>
      </trkpt>
      <trkpt lat="47.55627569742500782012939453125" lon="11.02372876368463039398193359375">
        <ele>1464.800048828125</ele>
        <time>2026-09-01T06:59:05.000Z</time>
        <extensions>
          <ns3:TrackPointExtension>
            <ns3:hr>157</ns3:hr>
            <ns3:cad>0</ns3:cad>
          </ns3:TrackPointExtension>
        </extensions>
      </trkpt>
      <trkpt lat="47.55627452395856380462646484375" lon="11.0237313620746135711669921875">
        <ele>1465</ele>
        <time>2026-09-01T06:59:06.000Z</time>
        <extensions>
          <ns3:TrackPointExtension>
            <ns3:hr>157</ns3:hr>
            <ns3:cad>0</ns3:cad>
          </ns3:TrackPointExtension>
        </extensions>
      </trkpt>
      <trkpt lat="47.55627469159662723541259765625" lon="11.02372189052402973175048828125">
        <ele>1465.4000244140625</ele>
        <time>2026-09-01T06:59:07.000Z</time>
        <extensions>
          <ns3:TrackPointExtension>
            <ns3:hr>157</ns3:hr>
            <ns3:cad>0</ns3:cad>
          </ns3:TrackPointExtension>
        </extensions>
      </trkpt>
      <trkpt lat="47.55627301521599292755126953125" lon="11.023723818361759185791015625">
        <ele>1465.800048828125</ele>
        <time>2026-09-01T06:59:08.000Z</time>
        <extensions>
          <ns3:TrackPointExtension>
            <ns3:hr>157</ns3:hr>
            <ns3:cad>0</ns3:cad>
          </ns3:TrackPointExtension>
        </extensions>
      </trkpt>
      <trkpt lat="47.55627418868243694305419921875" lon="11.02371602319180965423583984375">
        <ele>1466</ele>
        <time>2026-09-01T06:59:09.000Z</time>
        <extensions>
          <ns3:TrackPointExtension>
            <ns3:hr>155</ns3:hr>
            <ns3:cad>0</ns3:cad>
          </ns3:TrackPointExtension>
        </extensions>
      </trkpt>
      <trkpt lat="47.55627670325338840484619140625" lon="11.02371049113571643829345703125">
        <ele>1466.199951171875</ele>
        <time>2026-09-01T06:59:10.000Z</time>
        <extensions>
          <ns3:TrackPointExtension>
            <ns3:hr>154</ns3:hr>
            <ns3:cad>0</ns3:cad>
          </ns3:TrackPointExtension>
        </extensions>
      </trkpt>
      <trkpt lat="47.55628340877592563629150390625" lon="11.0237152688205242156982421875">
        <ele>1466.4000244140625</ele>
        <time>2026-09-01T06:59:11.000Z</time>
        <extensions>
          <ns3:TrackPointExtension>
            <ns3:hr>153</ns3:hr>
            <ns3:cad>0</ns3:cad>
          </ns3:TrackPointExtension>
        </extensions>
      </trkpt>
      <trkpt lat="47.55629112012684345245361328125" lon="11.02371275424957275390625">
        <ele>1466.5999755859375</ele>
        <time>2026-09-01T06:59:12.000Z</time>
        <extensions>
          <ns3:TrackPointExtension>
            <ns3:hr>152</ns3:hr>
            <ns3:cad>0</ns3:cad>
          </ns3:TrackPointExtension>
        </extensions>
      </trkpt>
      <trkpt lat="47.5563026033341884613037109375" lon="11.0237139277160167694091796875">
        <ele>1466.800048828125</ele>
        <time>2026-09-01T06:59:13.000Z</time>
        <extensions>
          <ns3:TrackPointExtension>
            <ns3:hr>152</ns3:hr>
            <ns3:cad>0</ns3:cad>
          </ns3:TrackPointExtension>
        </extensions>
      </trkpt>
      <trkpt lat="47.55631559528410434722900390625" lon="11.0237152688205242156982421875">
        <ele>1467.199951171875</ele>
        <time>2026-09-01T06:59:14.000Z</time>
        <extensions>
          <ns3:TrackPointExtension>
            <ns3:hr>152</ns3:hr>
            <ns3:cad>0</ns3:cad>
          </ns3:TrackPointExtension>
        </extensions>
      </trkpt>
      <trkpt lat="47.556317187845706939697265625" lon="11.0237078927457332611083984375">
        <ele>1467.4000244140625</ele>
        <time>2026-09-01T06:59:15.000Z</time>
        <extensions>
          <ns3:TrackPointExtension>
            <ns3:hr>152</ns3:hr>
            <ns3:cad>0</ns3:cad>
          </ns3:TrackPointExtension>
        </extensions>
      </trkpt>
      <trkpt lat="47.556329257786273956298828125" lon="11.023691631853580474853515625">
        <ele>1467.5999755859375</ele>
        <time>2026-09-01T06:59:16.000Z</time>
        <extensions>
          <ns3:TrackPointExtension>
            <ns3:hr>153</ns3:hr>
            <ns3:cad>0</ns3:cad>
          </ns3:TrackPointExtension>
        </extensions>
      </trkpt>
      <trkpt lat="47.5563331134617328643798828125" lon="11.02368785999715328216552734375">
        <ele>1467.800048828125</ele>
        <time>2026-09-01T06:59:17.000Z</time>
        <extensions>
          <ns3:TrackPointExtension>
            <ns3:hr>152</ns3:hr>
            <ns3:cad>0</ns3:cad>
          </ns3:TrackPointExtension>
        </extensions>
      </trkpt>
      <trkpt lat="47.55634174682199954986572265625" lon="11.02367260493338108062744140625">
        <ele>1468.199951171875</ele>
        <time>2026-09-01T06:59:18.000Z</time>
        <extensions>
          <ns3:TrackPointExtension>
            <ns3:hr>153</ns3:hr>
            <ns3:cad>0</ns3:cad>
          </ns3:TrackPointExtension>
        </extensions>
      </trkpt>
      <trkpt lat="47.5563495419919490814208984375" lon="11.02366522885859012603759765625">
        <ele>1468.4000244140625</ele>
        <time>2026-09-01T06:59:19.000Z</time>
        <extensions>
          <ns3:TrackPointExtension>
            <ns3:hr>153</ns3:hr>
            <ns3:cad>0</ns3:cad>
          </ns3:TrackPointExtension>
        </extensions>
      </trkpt>
      <trkpt lat="47.55634861998260021209716796875" lon="11.02365701459348201751708984375">
        <ele>1468.5999755859375</ele>
        <time>2026-09-01T06:59:20.000Z</time>
        <extensions>
          <ns3:TrackPointExtension>
            <ns3:hr>153</ns3:hr>
            <ns3:cad>0</ns3:cad>
          </ns3:TrackPointExtension>
        </extensions>
      </trkpt>
      <trkpt lat="47.55635063163936138153076171875" lon="11.023649387061595916748046875">
        <ele>1469</ele>
        <time>2026-09-01T06:59:21.000Z</time>
        <extensions>
          <ns3:TrackPointExtension>
            <ns3:hr>153</ns3:hr>
            <ns3:cad>0</ns3:cad>
          </ns3:TrackPointExtension>
        </extensions>
      </trkpt>
      <trkpt lat="47.55635482259094715118408203125" lon="11.02363890968263149261474609375">
        <ele>1469.4000244140625</ele>
        <time>2026-09-01T06:59:22.000Z</time>
        <extensions>
          <ns3:TrackPointExtension>
            <ns3:hr>153</ns3:hr>
            <ns3:cad>0</ns3:cad>
          </ns3:TrackPointExtension>
        </extensions>
      </trkpt>
      <trkpt lat="47.5563579238951206207275390625" lon="11.02362868376076221466064453125">
        <ele>1469.5999755859375</ele>
        <time>2026-09-01T06:59:23.000Z</time>
        <extensions>
          <ns3:TrackPointExtension>
            <ns3:hr>154</ns3:hr>
            <ns3:cad>0</ns3:cad>
          </ns3:TrackPointExtension>
        </extensions>
      </trkpt>
      <trkpt lat="47.5563528947532176971435546875" lon="11.02361544035375118255615234375">
        <ele>1469.800048828125</ele>
        <time>2026-09-01T06:59:24.000Z</time>
        <extensions>
          <ns3:TrackPointExtension>
            <ns3:hr>155</ns3:hr>
            <ns3:cad>0</ns3:cad>
          </ns3:TrackPointExtension>
        </extensions>
      </trkpt>
      <trkpt lat="47.5563490390777587890625" lon="11.02360588498413562774658203125">
        <ele>1470.199951171875</ele>
        <time>2026-09-01T06:59:25.000Z</time>
        <extensions>
          <ns3:TrackPointExtension>
            <ns3:hr>155</ns3:hr>
            <ns3:cad>0</ns3:cad>
          </ns3:TrackPointExtension>
        </extensions>
      </trkpt>
      <trkpt lat="47.55634727887809276580810546875" lon="11.02360454387962818145751953125">
        <ele>1470.5999755859375</ele>
        <time>2026-09-01T06:59:26.000Z</time>
        <extensions>
          <ns3:TrackPointExtension>
            <ns3:hr>156</ns3:hr>
            <ns3:cad>0</ns3:cad>
          </ns3:TrackPointExtension>
        </extensions>
      </trkpt>
      <trkpt lat="47.5563396513462066650390625" lon="11.0235848464071750640869140625">
        <ele>1471</ele>
        <time>2026-09-01T06:59:27.000Z</time>
        <extensions>
          <ns3:TrackPointExtension>
            <ns3:hr>156</ns3:hr>
            <ns3:cad>0</ns3:cad>
          </ns3:TrackPointExtension>
        </extensions>
      </trkpt>
      <trkpt lat="47.55633336491882801055908203125" lon="11.02357470430433750152587890625">
        <ele>1471.4000244140625</ele>
        <time>2026-09-01T06:59:28.000Z</time>
        <extensions>
          <ns3:TrackPointExtension>
            <ns3:hr>156</ns3:hr>
            <ns3:cad>0</ns3:cad>
          </ns3:TrackPointExtension>
        </extensions>
      </trkpt>
      <trkpt lat="47.55633051507174968719482421875" lon="11.02356263436377048492431640625">
        <ele>1471.5999755859375</ele>
        <time>2026-09-01T06:59:29.000Z</time>
        <extensions>
          <ns3:TrackPointExtension>
            <ns3:hr>156</ns3:hr>
            <ns3:cad>0</ns3:cad>
          </ns3:TrackPointExtension>
        </extensions>
      </trkpt>
      <trkpt lat="47.55632917396724224090576171875" lon="11.02354872040450572967529296875">
        <ele>1471.5999755859375</ele>
        <time>2026-09-01T06:59:30.000Z</time>
        <extensions>
          <ns3:TrackPointExtension>
            <ns3:hr>156</ns3:hr>
            <ns3:cad>0</ns3:cad>
          </ns3:TrackPointExtension>
        </extensions>
      </trkpt>
      <trkpt lat="47.55632883869111537933349609375" lon="11.023533381521701812744140625">
        <ele>1471.800048828125</ele>
        <time>2026-09-01T06:59:31.000Z</time>
        <extensions>
          <ns3:TrackPointExtension>
            <ns3:hr>156</ns3:hr>
            <ns3:cad>0</ns3:cad>
          </ns3:TrackPointExtension>
        </extensions>
      </trkpt>
      <trkpt lat="47.5563208758831024169921875" lon="11.0235244967043399810791015625">
        <ele>1472</ele>
        <time>2026-09-01T06:59:32.000Z</time>
        <extensions>
          <ns3:TrackPointExtension>
            <ns3:hr>157</ns3:hr>
            <ns3:cad>0</ns3:cad>
          </ns3:TrackPointExtension>
        </extensions>
      </trkpt>
      <trkpt lat="47.556316517293453216552734375" lon="11.0235201381146907806396484375">
        <ele>1472.199951171875</ele>
        <time>2026-09-01T06:59:33.000Z</time>
        <extensions>
          <ns3:TrackPointExtension>
            <ns3:hr>157</ns3:hr>
            <ns3:cad>0</ns3:cad>
          </ns3:TrackPointExtension>
        </extensions>
      </trkpt>
      <trkpt lat="47.5563096441328525543212890625" lon="11.0235090740025043487548828125">
        <ele>1472.4000244140625</ele>
        <time>2026-09-01T06:59:34.000Z</time>
        <extensions>
          <ns3:TrackPointExtension>
            <ns3:hr>157</ns3:hr>
            <ns3:cad>0</ns3:cad>
          </ns3:TrackPointExtension>
        </extensions>
      </trkpt>
      <trkpt lat="47.5563056208193302154541015625" lon="11.02350228466093540191650390625">
        <ele>1472.800048828125</ele>
        <time>2026-09-01T06:59:35.000Z</time>
        <extensions>
          <ns3:TrackPointExtension>
            <ns3:hr>156</ns3:hr>
            <ns3:cad>0</ns3:cad>
          </ns3:TrackPointExtension>
        </extensions>
      </trkpt>
      <trkpt lat="47.55631148815155029296875" lon="11.02349658496677875518798828125">
        <ele>1473</ele>
        <time>2026-09-01T06:59:36.000Z</time>
        <extensions>
          <ns3:TrackPointExtension>
            <ns3:hr>156</ns3:hr>
            <ns3:cad>0</ns3:cad>
          </ns3:TrackPointExtension>
        </extensions>
      </trkpt>
      <trkpt lat="47.5563146732747554779052734375" lon="11.02348183281719684600830078125">
        <ele>1473.199951171875</ele>
        <time>2026-09-01T06:59:37.000Z</time>
        <extensions>
          <ns3:TrackPointExtension>
            <ns3:hr>156</ns3:hr>
            <ns3:cad>0</ns3:cad>
          </ns3:TrackPointExtension>
        </extensions>
      </trkpt>
      <trkpt lat="47.55631492473185062408447265625" lon="11.0234691761434078216552734375">
        <ele>1473.4000244140625</ele>
        <time>2026-09-01T06:59:38.000Z</time>
        <extensions>
          <ns3:TrackPointExtension>
            <ns3:hr>158</ns3:hr>
            <ns3:cad>0</ns3:cad>
          </ns3:TrackPointExtension>
        </extensions>
      </trkpt>
      <trkpt lat="47.5563150085508823394775390625" lon="11.0234768874943256378173828125">
        <ele>1473.5999755859375</ele>
        <time>2026-09-01T06:59:39.000Z</time>
        <extensions>
          <ns3:TrackPointExtension>
            <ns3:hr>158</ns3:hr>
            <ns3:cad>0</ns3:cad>
          </ns3:TrackPointExtension>
        </extensions>
      </trkpt>
      <trkpt lat="47.5563153438270092010498046875" lon="11.02347043342888355255126953125">
        <ele>1474</ele>
        <time>2026-09-01T06:59:40.000Z</time>
        <extensions>
          <ns3:TrackPointExtension>
            <ns3:hr>158</ns3:hr>
            <ns3:cad>0</ns3:cad>
          </ns3:TrackPointExtension>
        </extensions>
      </trkpt>
      <trkpt lat="47.5563186965882778167724609375" lon="11.02346288971602916717529296875">
        <ele>1474.199951171875</ele>
        <time>2026-09-01T06:59:41.000Z</time>
        <extensions>
          <ns3:TrackPointExtension>
            <ns3:hr>157</ns3:hr>
            <ns3:cad>0</ns3:cad>
          </ns3:TrackPointExtension>
        </extensions>
      </trkpt>
      <trkpt lat="47.55632263608276844024658203125" lon="11.0234514065086841583251953125">
        <ele>1474.4000244140625</ele>
        <time>2026-09-01T06:59:42.000Z</time>
        <extensions>
          <ns3:TrackPointExtension>
            <ns3:hr>156</ns3:hr>
            <ns3:cad>0</ns3:cad>
          </ns3:TrackPointExtension>
        </extensions>
      </trkpt>
      <trkpt lat="47.55632699467241764068603515625" lon="11.02343690581619739532470703125">
        <ele>1474.800048828125</ele>
        <time>2026-09-01T06:59:43.000Z</time>
        <extensions>
          <ns3:TrackPointExtension>
            <ns3:hr>156</ns3:hr>
            <ns3:cad>0</ns3:cad>
          </ns3:TrackPointExtension>
        </extensions>
      </trkpt>
      <trkpt lat="47.55633034743368625640869140625" lon="11.0234265960752964019775390625">
        <ele>1475.199951171875</ele>
        <time>2026-09-01T06:59:44.000Z</time>
        <extensions>
          <ns3:TrackPointExtension>
            <ns3:hr>155</ns3:hr>
            <ns3:cad>0</ns3:cad>
          </ns3:TrackPointExtension>
        </extensions>
      </trkpt>
      <trkpt lat="47.556327916681766510009765625" lon="11.02342232130467891693115234375">
        <ele>1475.5999755859375</ele>
        <time>2026-09-01T06:59:45.000Z</time>
        <extensions>
          <ns3:TrackPointExtension>
            <ns3:hr>154</ns3:hr>
            <ns3:cad>0</ns3:cad>
          </ns3:TrackPointExtension>
        </extensions>
      </trkpt>
      <trkpt lat="47.556333281099796295166015625" lon="11.02341092191636562347412109375">
        <ele>1476</ele>
        <time>2026-09-01T06:59:46.000Z</time>
        <extensions>
          <ns3:TrackPointExtension>
            <ns3:hr>154</ns3:hr>
            <ns3:cad>0</ns3:cad>
          </ns3:TrackPointExtension>
        </extensions>
      </trkpt>
      <trkpt lat="47.55633839406073093414306640625" lon="11.02340874262154102325439453125">
        <ele>1476.4000244140625</ele>
        <time>2026-09-01T06:59:47.000Z</time>
        <extensions>
          <ns3:TrackPointExtension>
            <ns3:hr>154</ns3:hr>
            <ns3:cad>41</ns3:cad>
          </ns3:TrackPointExtension>
        </extensions>
      </trkpt>
      <trkpt lat="47.5563431717455387115478515625" lon="11.02338979952037334442138671875">
        <ele>1476.800048828125</ele>
        <time>2026-09-01T06:59:48.000Z</time>
        <extensions>
          <ns3:TrackPointExtension>
            <ns3:hr>153</ns3:hr>
            <ns3:cad>75</ns3:cad>
          </ns3:TrackPointExtension>
        </extensions>
      </trkpt>
      <trkpt lat="47.556348703801631927490234375" lon="11.023374460637569427490234375">
        <ele>1477</ele>
        <time>2026-09-01T06:59:49.000Z</time>
        <extensions>
          <ns3:TrackPointExtension>
            <ns3:hr>152</ns3:hr>
            <ns3:cad>75</ns3:cad>
          </ns3:TrackPointExtension>
        </extensions>
      </trkpt>
      <trkpt lat="47.55634912289679050445556640625" lon="11.023363731801509857177734375">
        <ele>1477.4000244140625</ele>
        <time>2026-09-01T06:59:50.000Z</time>
        <extensions>
          <ns3:TrackPointExtension>
            <ns3:hr>152</ns3:hr>
            <ns3:cad>75</ns3:cad>
          </ns3:TrackPointExtension>
        </extensions>
      </trkpt>
      <trkpt lat="47.55635197274386882781982421875" lon="11.02335392497479915618896484375">
        <ele>1477.5999755859375</ele>
        <time>2026-09-01T06:59:51.000Z</time>
        <extensions>
          <ns3:TrackPointExtension>
            <ns3:hr>152</ns3:hr>
            <ns3:cad>75</ns3:cad>
          </ns3:TrackPointExtension>
        </extensions>
      </trkpt>
      <trkpt lat="47.55635373294353485107421875" lon="11.02334998548030853271484375">
        <ele>1477.800048828125</ele>
        <time>2026-09-01T06:59:52.000Z</time>
        <extensions>
          <ns3:TrackPointExtension>
            <ns3:hr>152</ns3:hr>
            <ns3:cad>0</ns3:cad>
          </ns3:TrackPointExtension>
        </extensions>
      </trkpt>
      <trkpt lat="47.55635381676256656646728515625" lon="11.02334327995777130126953125">
        <ele>1478.199951171875</ele>
        <time>2026-09-01T06:59:53.000Z</time>
        <extensions>
          <ns3:TrackPointExtension>
            <ns3:hr>152</ns3:hr>
            <ns3:cad>0</ns3:cad>
          </ns3:TrackPointExtension>
        </extensions>
      </trkpt>
      <trkpt lat="47.55635247565805912017822265625" lon="11.02333657443523406982421875">
        <ele>1478.5999755859375</ele>
        <time>2026-09-01T06:59:54.000Z</time>
        <extensions>
          <ns3:TrackPointExtension>
            <ns3:hr>153</ns3:hr>
            <ns3:cad>0</ns3:cad>
          </ns3:TrackPointExtension>
        </extensions>
      </trkpt>
      <trkpt lat="47.556352727115154266357421875" lon="11.023326180875301361083984375">
        <ele>1478.800048828125</ele>
        <time>2026-09-01T06:59:55.000Z</time>
        <extensions>
          <ns3:TrackPointExtension>
            <ns3:hr>153</ns3:hr>
            <ns3:cad>0</ns3:cad>
          </ns3:TrackPointExtension>
        </extensions>
      </trkpt>
      <trkpt lat="47.5563528947532176971435546875" lon="11.0233189724385738372802734375">
        <ele>1479.199951171875</ele>
        <time>2026-09-01T06:59:56.000Z</time>
        <extensions>
          <ns3:TrackPointExtension>
            <ns3:hr>153</ns3:hr>
            <ns3:cad>0</ns3:cad>
          </ns3:TrackPointExtension>
        </extensions>
      </trkpt>
      <trkpt lat="47.55635163746774196624755859375" lon="11.0233115963637828826904296875">
        <ele>1479.5999755859375</ele>
        <time>2026-09-01T06:59:57.000Z</time>
        <extensions>
          <ns3:TrackPointExtension>
            <ns3:hr>154</ns3:hr>
            <ns3:cad>0</ns3:cad>
          </ns3:TrackPointExtension>
        </extensions>
      </trkpt>
      <trkpt lat="47.5563525594770908355712890625" lon="11.02330011315643787384033203125">
        <ele>1479.800048828125</ele>
        <time>2026-09-01T06:59:58.000Z</time>
        <extensions>
          <ns3:TrackPointExtension>
            <ns3:hr>154</ns3:hr>
            <ns3:cad>0</ns3:cad>
          </ns3:TrackPointExtension>
        </extensions>
      </trkpt>
      <trkpt lat="47.55635197274386882781982421875" lon="11.0232874564826488494873046875">
        <ele>1480.199951171875</ele>
        <time>2026-09-01T06:59:59.000Z</time>
        <extensions>
          <ns3:TrackPointExtension>
            <ns3:hr>154</ns3:hr>
            <ns3:cad>0</ns3:cad>
          </ns3:TrackPointExtension>
        </extensions>
      </trkpt>
      <trkpt lat="47.5563502125442028045654296875" lon="11.02328284643590450286865234375">
        <ele>1480.5999755859375</ele>
        <time>2026-09-01T07:00:00.000Z</time>
        <extensions>
          <ns3:TrackPointExtension>
            <ns3:hr>154</ns3:hr>
            <ns3:cad>0</ns3:cad>
          </ns3:TrackPointExtension>
        </extensions>
      </trkpt>
      <trkpt lat="47.55633755587041378021240234375" lon="11.02326574735343456268310546875">
        <ele>1480.800048828125</ele>
        <time>2026-09-01T07:00:01.000Z</time>
        <extensions>
          <ns3:TrackPointExtension>
            <ns3:hr>154</ns3:hr>
            <ns3:cad>0</ns3:cad>
          </ns3:TrackPointExtension>
        </extensions>
      </trkpt>
      <trkpt lat="47.55632867105305194854736328125" lon="11.023259460926055908203125">
        <ele>1481</ele>
        <time>2026-09-01T07:00:02.000Z</time>
        <extensions>
          <ns3:TrackPointExtension>
            <ns3:hr>154</ns3:hr>
            <ns3:cad>0</ns3:cad>
          </ns3:TrackPointExtension>
        </extensions>
      </trkpt>
      <trkpt lat="47.55631810985505580902099609375" lon="11.02326675318181514739990234375">
        <ele>1481.4000244140625</ele>
        <time>2026-09-01T07:00:03.000Z</time>
        <extensions>
          <ns3:TrackPointExtension>
            <ns3:hr>153</ns3:hr>
            <ns3:cad>0</ns3:cad>
          </ns3:TrackPointExtension>
        </extensions>
      </trkpt>
      <trkpt lat="47.55631081759929656982421875" lon="11.02326675318181514739990234375">
        <ele>1481.5999755859375</ele>
        <time>2026-09-01T07:00:04.000Z</time>
        <extensions>
          <ns3:TrackPointExtension>
            <ns3:hr>152</ns3:hr>
            <ns3:cad>0</ns3:cad>
          </ns3:TrackPointExtension>
        </extensions>
      </trkpt>
      <trkpt lat="47.5562952272593975067138671875" lon="11.0232670046389102935791015625">
        <ele>1481.800048828125</ele>
        <time>2026-09-01T07:00:05.000Z</time>
        <extensions>
          <ns3:TrackPointExtension>
            <ns3:hr>152</ns3:hr>
            <ns3:cad>0</ns3:cad>
          </ns3:TrackPointExtension>
        </extensions>
      </trkpt>
      <trkpt lat="47.5562841631472110748291015625" lon="11.0232715308666229248046875">
        <ele>1482.199951171875</ele>
        <time>2026-09-01T07:00:06.000Z</time>
        <extensions>
          <ns3:TrackPointExtension>
            <ns3:hr>152</ns3:hr>
            <ns3:cad>0</ns3:cad>
          </ns3:TrackPointExtension>
        </extensions>
      </trkpt>
      <trkpt lat="47.55627728998661041259765625" lon="11.0232733748853206634521484375">
        <ele>1482.4000244140625</ele>
        <time>2026-09-01T07:00:07.000Z</time>
        <extensions>
          <ns3:TrackPointExtension>
            <ns3:hr>151</ns3:hr>
            <ns3:cad>0</ns3:cad>
          </ns3:TrackPointExtension>
        </extensions>
      </trkpt>
      <trkpt lat="47.55626614205539226531982421875" lon="11.02327446453273296356201171875">
        <ele>1482.5999755859375</ele>
        <time>2026-09-01T07:00:08.000Z</time>
        <extensions>
          <ns3:TrackPointExtension>
            <ns3:hr>151</ns3:hr>
            <ns3:cad>0</ns3:cad>
          </ns3:TrackPointExtension>
        </extensions>
      </trkpt>
      <trkpt lat="47.5562618672847747802734375" lon="11.02327127940952777862548828125">
        <ele>1483</ele>
        <time>2026-09-01T07:00:09.000Z</time>
        <extensions>
          <ns3:TrackPointExtension>
            <ns3:hr>150</ns3:hr>
            <ns3:cad>0</ns3:cad>
          </ns3:TrackPointExtension>
        </extensions>
      </trkpt>
      <trkpt lat="47.556255497038364410400390625" lon="11.02325719781219959259033203125">
        <ele>1483.4000244140625</ele>
        <time>2026-09-01T07:00:10.000Z</time>
        <extensions>
          <ns3:TrackPointExtension>
            <ns3:hr>150</ns3:hr>
            <ns3:cad>57</ns3:cad>
          </ns3:TrackPointExtension>
        </extensions>
      </trkpt>
      <trkpt lat="47.5562613643705844879150390625" lon="11.0232438705861568450927734375">
        <ele>1483.4000244140625</ele>
        <time>2026-09-01T07:00:11.000Z</time>
        <extensions>
          <ns3:TrackPointExtension>
            <ns3:hr>149</ns3:hr>
            <ns3:cad>57</ns3:cad>
          </ns3:TrackPointExtension>
        </extensions>
      </trkpt>
      <trkpt lat="47.55626429803669452667236328125" lon="11.023232638835906982421875">
        <ele>1483.5999755859375</ele>
        <time>2026-09-01T07:00:12.000Z</time>
        <extensions>
          <ns3:TrackPointExtension>
            <ns3:hr>149</ns3:hr>
            <ns3:cad>0</ns3:cad>
          </ns3:TrackPointExtension>
        </extensions>
      </trkpt>
      <trkpt lat="47.556268237531185150146484375" lon="11.02322283200919628143310546875">
        <ele>1483.5999755859375</ele>
        <time>2026-09-01T07:00:13.000Z</time>
        <extensions>
          <ns3:TrackPointExtension>
            <ns3:hr>149</ns3:hr>
            <ns3:cad>0</ns3:cad>
          </ns3:TrackPointExtension>
        </extensions>
      </trkpt>
      <trkpt lat="47.55626865662634372711181640625" lon="11.0232147015631198883056640625">
        <ele>1483.800048828125</ele>
        <time>2026-09-01T07:00:14.000Z</time>
        <extensions>
          <ns3:TrackPointExtension>
            <ns3:hr>150</ns3:hr>
            <ns3:cad>0</ns3:cad>
          </ns3:TrackPointExtension>
        </extensions>
      </trkpt>
      <trkpt lat="47.55627234466373920440673828125" lon="11.02320992387831211090087890625">
        <ele>1483.800048828125</ele>
        <time>2026-09-01T07:00:15.000Z</time>
        <extensions>
          <ns3:TrackPointExtension>
            <ns3:hr>150</ns3:hr>
            <ns3:cad>43</ns3:cad>
          </ns3:TrackPointExtension>
        </extensions>
      </trkpt>
      <trkpt lat="47.55627502687275409698486328125" lon="11.02319818921387195587158203125">
        <ele>1484</ele>
        <time>2026-09-01T07:00:16.000Z</time>
        <extensions>
          <ns3:TrackPointExtension>
            <ns3:hr>150</ns3:hr>
            <ns3:cad>43</ns3:cad>
          </ns3:TrackPointExtension>
        </extensions>
      </trkpt>
      <trkpt lat="47.5562747754156589508056640625" lon="11.0231885500252246856689453125">
        <ele>1484.4000244140625</ele>
        <time>2026-09-01T07:00:17.000Z</time>
        <extensions>
          <ns3:TrackPointExtension>
            <ns3:hr>150</ns3:hr>
            <ns3:cad>43</ns3:cad>
          </ns3:TrackPointExtension>
        </extensions>
      </trkpt>
      <trkpt lat="47.55627737380564212799072265625" lon="11.0231803357601165771484375">
        <ele>1484.5999755859375</ele>
        <time>2026-09-01T07:00:18.000Z</time>
        <extensions>
          <ns3:TrackPointExtension>
            <ns3:hr>151</ns3:hr>
            <ns3:cad>43</ns3:cad>
          </ns3:TrackPointExtension>
        </extensions>
      </trkpt>
      <trkpt lat="47.55627594888210296630859375" lon="11.02316834963858127593994140625">
        <ele>1485</ele>
        <time>2026-09-01T07:00:19.000Z</time>
        <extensions>
          <ns3:TrackPointExtension>
            <ns3:hr>151</ns3:hr>
            <ns3:cad>0</ns3:cad>
          </ns3:TrackPointExtension>
        </extensions>
      </trkpt>
      <trkpt lat="47.5562764517962932586669921875" lon="11.0231657512485980987548828125">
        <ele>1485.4000244140625</ele>
        <time>2026-09-01T07:00:20.000Z</time>
        <extensions>
          <ns3:TrackPointExtension>
            <ns3:hr>152</ns3:hr>
            <ns3:cad>0</ns3:cad>
          </ns3:TrackPointExtension>
        </extensions>
      </trkpt>
      <trkpt lat="47.55627469159662723541259765625" lon="11.02316348813474178314208984375">
        <ele>1485.5999755859375</ele>
        <time>2026-09-01T07:00:21.000Z</time>
        <extensions>
          <ns3:TrackPointExtension>
            <ns3:hr>159</ns3:hr>
            <ns3:cad>0</ns3:cad>
          </ns3:TrackPointExtension>
        </extensions>
      </trkpt>
      <trkpt lat="47.55627318285405635833740234375" lon="11.02315946482121944427490234375">
        <ele>1485.800048828125</ele>
        <time>2026-09-01T07:00:22.000Z</time>
        <extensions>
          <ns3:TrackPointExtension>
            <ns3:hr>165</ns3:hr>
            <ns3:cad>0</ns3:cad>
          </ns3:TrackPointExtension>
        </extensions>
      </trkpt>
      <trkpt lat="47.55627033300697803497314453125" lon="11.0231667570769786834716796875">
        <ele>1486.199951171875</ele>
        <time>2026-09-01T07:00:23.000Z</time>
        <extensions>
          <ns3:TrackPointExtension>
            <ns3:hr>167</ns3:hr>
            <ns3:cad>0</ns3:cad>
          </ns3:TrackPointExtension>
        </extensions>
      </trkpt>
      <trkpt lat="47.5562684051692485809326171875" lon="11.02316969074308872222900390625">
        <ele>1486.5999755859375</ele>
        <time>2026-09-01T07:00:24.000Z</time>
        <extensions>
          <ns3:TrackPointExtension>
            <ns3:hr>167</ns3:hr>
            <ns3:cad>0</ns3:cad>
          </ns3:TrackPointExtension>
        </extensions>
      </trkpt>
      <trkpt lat="47.55626312457025051116943359375" lon="11.0231737978756427764892578125">
        <ele>1486.800048828125</ele>
        <time>2026-09-01T07:00:25.000Z</time>
        <extensions>
          <ns3:TrackPointExtension>
            <ns3:hr>167</ns3:hr>
            <ns3:cad>0</ns3:cad>
          </ns3:TrackPointExtension>
        </extensions>
      </trkpt>
      <trkpt lat="47.55624937824904918670654296875" lon="11.02317287586629390716552734375">
        <ele>1487.199951171875</ele>
        <time>2026-09-01T07:00:26.000Z</time>
        <extensions>
          <ns3:TrackPointExtension>
            <ns3:hr>168</ns3:hr>
            <ns3:cad>0</ns3:cad>
          </ns3:TrackPointExtension>
        </extensions>
      </trkpt>
      <trkpt lat="47.55623412318527698516845703125" lon="11.0231630690395832061767578125">
        <ele>1487.5999755859375</ele>
        <time>2026-09-01T07:00:27.000Z</time>
        <extensions>
          <ns3:TrackPointExtension>
            <ns3:hr>168</ns3:hr>
            <ns3:cad>0</ns3:cad>
          </ns3:TrackPointExtension>
        </extensions>
      </trkpt>
      <trkpt lat="47.556228339672088623046875" lon="11.02315862663090229034423828125">
        <ele>1487.800048828125</ele>
        <time>2026-09-01T07:00:28.000Z</time>
        <extensions>
          <ns3:TrackPointExtension>
            <ns3:hr>168</ns3:hr>
            <ns3:cad>0</ns3:cad>
          </ns3:TrackPointExtension>
        </extensions>
      </trkpt>
      <trkpt lat="47.55622892640531063079833984375" lon="11.023152172565460205078125">
        <ele>1488</ele>
        <time>2026-09-01T07:00:29.000Z</time>
        <extensions>
          <ns3:TrackPointExtension>
            <ns3:hr>168</ns3:hr>
            <ns3:cad>0</ns3:cad>
          </ns3:TrackPointExtension>
        </extensions>
      </trkpt>
      <trkpt lat="47.5562338717281818389892578125" lon="11.02313851006329059600830078125">
        <ele>1488</ele>
        <time>2026-09-01T07:00:30.000Z</time>
        <extensions>
          <ns3:TrackPointExtension>
            <ns3:hr>168</ns3:hr>
            <ns3:cad>0</ns3:cad>
          </ns3:TrackPointExtension>
        </extensions>
      </trkpt>
      <trkpt lat="47.5562405772507190704345703125" lon="11.02312727831304073333740234375">
        <ele>1488.199951171875</ele>
        <time>2026-09-01T07:00:31.000Z</time>
        <extensions>
          <ns3:TrackPointExtension>
            <ns3:hr>168</ns3:hr>
            <ns3:cad>0</ns3:cad>
          </ns3:TrackPointExtension>
        </extensions>
      </trkpt>
      <trkpt lat="47.556246109306812286376953125" lon="11.0231235064566135406494140625">
        <ele>1488.4000244140625</ele>
        <time>2026-09-01T07:00:32.000Z</time>
        <extensions>
          <ns3:TrackPointExtension>
            <ns3:hr>169</ns3:hr>
            <ns3:cad>0</ns3:cad>
          </ns3:TrackPointExtension>
        </extensions>
      </trkpt>
      <trkpt lat="47.55625189282000064849853515625" lon="11.02311755530536174774169921875">
        <ele>1488.5999755859375</ele>
        <time>2026-09-01T07:00:33.000Z</time>
        <extensions>
          <ns3:TrackPointExtension>
            <ns3:hr>169</ns3:hr>
            <ns3:cad>0</ns3:cad>
          </ns3:TrackPointExtension>
        </extensions>
      </trkpt>
      <trkpt lat="47.55626144818961620330810546875" lon="11.02310590445995330810546875">
        <ele>1489</ele>
        <time>2026-09-01T07:00:34.000Z</time>
        <extensions>
          <ns3:TrackPointExtension>
            <ns3:hr>169</ns3:hr>
            <ns3:cad>0</ns3:cad>
          </ns3:TrackPointExtension>
        </extensions>
      </trkpt>
      <trkpt lat="47.556263543665409088134765625" lon="11.02310129441320896148681640625">
        <ele>1489.4000244140625</ele>
        <time>2026-09-01T07:00:35.000Z</time>
        <extensions>
          <ns3:TrackPointExtension>
            <ns3:hr>169</ns3:hr>
            <ns3:cad>0</ns3:cad>
          </ns3:TrackPointExtension>
        </extensions>
      </trkpt>
      <trkpt lat="47.55626128055155277252197265625" lon="11.02308444678783416748046875">
        <ele>1489.5999755859375</ele>
        <time>2026-09-01T07:00:36.000Z</time>
        <extensions>
          <ns3:TrackPointExtension>
            <ns3:hr>169</ns3:hr>
            <ns3:cad>0</ns3:cad>
          </ns3:TrackPointExtension>
        </extensions>
      </trkpt>
      <trkpt lat="47.5562603585422039031982421875" lon="11.0230758972465991973876953125">
        <ele>1489.800048828125</ele>
        <time>2026-09-01T07:00:37.000Z</time>
        <extensions>
          <ns3:TrackPointExtension>
            <ns3:hr>170</ns3:hr>
            <ns3:cad>0</ns3:cad>
          </ns3:TrackPointExtension>
        </extensions>
      </trkpt>
      <trkpt lat="47.55626044236123561859130859375" lon="11.023068018257617950439453125">
        <ele>1490</ele>
        <time>2026-09-01T07:00:38.000Z</time>
        <extensions>
          <ns3:TrackPointExtension>
            <ns3:hr>170</ns3:hr>
            <ns3:cad>0</ns3:cad>
          </ns3:TrackPointExtension>
        </extensions>
      </trkpt>
      <trkpt lat="47.55626480095088481903076171875" lon="11.02306156419217586517333984375">
        <ele>1490.199951171875</ele>
        <time>2026-09-01T07:00:39.000Z</time>
        <extensions>
          <ns3:TrackPointExtension>
            <ns3:hr>169</ns3:hr>
            <ns3:cad>0</ns3:cad>
          </ns3:TrackPointExtension>
        </extensions>
      </trkpt>
      <trkpt lat="47.556273601949214935302734375" lon="11.02304228581488132476806640625">
        <ele>1490.4000244140625</ele>
        <time>2026-09-01T07:00:40.000Z</time>
        <extensions>
          <ns3:TrackPointExtension>
            <ns3:hr>168</ns3:hr>
            <ns3:cad>0</ns3:cad>
          </ns3:TrackPointExtension>
        </extensions>
      </trkpt>
      <trkpt lat="47.55627636797726154327392578125" lon="11.0230393521487712860107421875">
        <ele>1490.5999755859375</ele>
        <time>2026-09-01T07:00:41.000Z</time>
        <extensions>
          <ns3:TrackPointExtension>
            <ns3:hr>168</ns3:hr>
            <ns3:cad>69</ns3:cad>
          </ns3:TrackPointExtension>
        </extensions>
      </trkpt>
      <trkpt lat="47.55627804435789585113525390625" lon="11.02302518673241138458251953125">
        <ele>1490.5999755859375</ele>
        <time>2026-09-01T07:00:42.000Z</time>
        <extensions>
          <ns3:TrackPointExtension>
            <ns3:hr>169</ns3:hr>
            <ns3:cad>69</ns3:cad>
          </ns3:TrackPointExtension>
        </extensions>
      </trkpt>
      <trkpt lat="47.55628005601465702056884765625" lon="11.023013703525066375732421875">
        <ele>1491</ele>
        <time>2026-09-01T07:00:43.000Z</time>
        <extensions>
          <ns3:TrackPointExtension>
            <ns3:hr>169</ns3:hr>
            <ns3:cad>69</ns3:cad>
          </ns3:TrackPointExtension>
        </extensions>
      </trkpt>
      <trkpt lat="47.55627955310046672821044921875" lon="11.02300272323191165924072265625">
        <ele>1491.199951171875</ele>
        <time>2026-09-01T07:00:44.000Z</time>
        <extensions>
          <ns3:TrackPointExtension>
            <ns3:hr>169</ns3:hr>
            <ns3:cad>69</ns3:cad>
          </ns3:TrackPointExtension>
        </extensions>
      </trkpt>
      <trkpt lat="47.55627854727208614349365234375" lon="11.02299082092940807342529296875">
        <ele>1491.4000244140625</ele>
        <time>2026-09-01T07:00:45.000Z</time>
        <extensions>
          <ns3:TrackPointExtension>
            <ns3:hr>168</ns3:hr>
            <ns3:cad>40</ns3:cad>
          </ns3:TrackPointExtension>
        </extensions>
      </trkpt>
      <trkpt lat="47.55627728998661041259765625" lon="11.0229759849607944488525390625">
        <ele>1491.800048828125</ele>
        <time>2026-09-01T07:00:46.000Z</time>
        <extensions>
          <ns3:TrackPointExtension>
            <ns3:hr>168</ns3:hr>
            <ns3:cad>40</ns3:cad>
          </ns3:TrackPointExtension>
        </extensions>
      </trkpt>
      <trkpt lat="47.55628265440464019775390625" lon="11.02297875098884105682373046875">
        <ele>1492</ele>
        <time>2026-09-01T07:00:47.000Z</time>
        <extensions>
          <ns3:TrackPointExtension>
            <ns3:hr>168</ns3:hr>
            <ns3:cad>40</ns3:cad>
          </ns3:TrackPointExtension>
        </extensions>
      </trkpt>
      <trkpt lat="47.55627754144370555877685546875" lon="11.0229598917067050933837890625">
        <ele>1492.4000244140625</ele>
        <time>2026-09-01T07:00:48.000Z</time>
        <extensions>
          <ns3:TrackPointExtension>
            <ns3:hr>167</ns3:hr>
            <ns3:cad>40</ns3:cad>
          </ns3:TrackPointExtension>
        </extensions>
      </trkpt>
      <trkpt lat="47.5562730990350246429443359375" lon="11.02294455282390117645263671875">
        <ele>1492.5999755859375</ele>
        <time>2026-09-01T07:00:49.000Z</time>
        <extensions>
          <ns3:TrackPointExtension>
            <ns3:hr>166</ns3:hr>
            <ns3:cad>40</ns3:cad>
          </ns3:TrackPointExtension>
        </extensions>
      </trkpt>
      <trkpt lat="47.5562751106917858123779296875" lon="11.02293491363525390625">
        <ele>1493</ele>
        <time>2026-09-01T07:00:50.000Z</time>
        <extensions>
          <ns3:TrackPointExtension>
            <ns3:hr>164</ns3:hr>
            <ns3:cad>0</ns3:cad>
          </ns3:TrackPointExtension>
        </extensions>
      </trkpt>
      <trkpt lat="47.5562737695872783660888671875" lon="11.02292745374143123626708984375">
        <ele>1493.199951171875</ele>
        <time>2026-09-01T07:00:51.000Z</time>
        <extensions>
          <ns3:TrackPointExtension>
            <ns3:hr>165</ns3:hr>
            <ns3:cad>0</ns3:cad>
          </ns3:TrackPointExtension>
        </extensions>
      </trkpt>
      <trkpt lat="47.5562687404453754425048828125" lon="11.022923178970813751220703125">
        <ele>1493.5999755859375</ele>
        <time>2026-09-01T07:00:52.000Z</time>
        <extensions>
          <ns3:TrackPointExtension>
            <ns3:hr>161</ns3:hr>
            <ns3:cad>0</ns3:cad>
          </ns3:TrackPointExtension>
        </extensions>
      </trkpt>
      <trkpt lat="47.55625859834253787994384765625" lon="11.022907756268978118896484375">
        <ele>1494</ele>
        <time>2026-09-01T07:00:53.000Z</time>
        <extensions>
          <ns3:TrackPointExtension>
            <ns3:hr>158</ns3:hr>
            <ns3:cad>0</ns3:cad>
          </ns3:TrackPointExtension>
        </extensions>
      </trkpt>
      <trkpt lat="47.55624719895422458648681640625" lon="11.0229012183845043182373046875">
        <ele>1494.199951171875</ele>
        <time>2026-09-01T07:00:54.000Z</time>
        <extensions>
          <ns3:TrackPointExtension>
            <ns3:hr>157</ns3:hr>
            <ns3:cad>0</ns3:cad>
          </ns3:TrackPointExtension>
        </extensions>
      </trkpt>
      <trkpt lat="47.55624015815556049346923828125" lon="11.02289400994777679443359375">
        <ele>1494.5999755859375</ele>
        <time>2026-09-01T07:00:55.000Z</time>
        <extensions>
          <ns3:TrackPointExtension>
            <ns3:hr>157</ns3:hr>
            <ns3:cad>0</ns3:cad>
          </ns3:TrackPointExtension>
        </extensions>
      </trkpt>
      <trkpt lat="47.55623177625238895416259765625" lon="11.02288705296814441680908203125">
        <ele>1494.800048828125</ele>
        <time>2026-09-01T07:00:56.000Z</time>
        <extensions>
          <ns3:TrackPointExtension>
            <ns3:hr>157</ns3:hr>
            <ns3:cad>0</ns3:cad>
          </ns3:TrackPointExtension>
        </extensions>
      </trkpt>
      <trkpt lat="47.55623043514788150787353515625" lon="11.02287590503692626953125">
        <ele>1495.199951171875</ele>
        <time>2026-09-01T07:00:57.000Z</time>
        <extensions>
          <ns3:TrackPointExtension>
            <ns3:hr>157</ns3:hr>
            <ns3:cad>0</ns3:cad>
          </ns3:TrackPointExtension>
        </extensions>
      </trkpt>
      <trkpt lat="47.556229345500469207763671875" lon="11.02286945097148418426513671875">
        <ele>1495.4000244140625</ele>
        <time>2026-09-01T07:00:58.000Z</time>
        <extensions>
          <ns3:TrackPointExtension>
            <ns3:hr>157</ns3:hr>
            <ns3:cad>0</ns3:cad>
          </ns3:TrackPointExtension>
        </extensions>
      </trkpt>
      <trkpt lat="47.55622792057693004608154296875" lon="11.0228640027344226837158203125">
        <ele>1495.5999755859375</ele>
        <time>2026-09-01T07:00:59.000Z</time>
        <extensions>
          <ns3:TrackPointExtension>
            <ns3:hr>157</ns3:hr>
            <ns3:cad>0</ns3:cad>
          </ns3:TrackPointExtension>
        </extensions>
      </trkpt>
      <trkpt lat="47.556225322186946868896484375" lon="11.022862158715724945068359375">
        <ele>1495.800048828125</ele>
        <time>2026-09-01T07:01:00.000Z</time>
        <extensions>
          <ns3:TrackPointExtension>
            <ns3:hr>158</ns3:hr>
            <ns3:cad>0</ns3:cad>
          </ns3:TrackPointExtension>
        </extensions>
      </trkpt>
      <trkpt lat="47.55621786229312419891357421875" lon="11.0228415392339229583740234375">
        <ele>1496.199951171875</ele>
        <time>2026-09-01T07:01:01.000Z</time>
        <extensions>
          <ns3:TrackPointExtension>
            <ns3:hr>158</ns3:hr>
            <ns3:cad>0</ns3:cad>
          </ns3:TrackPointExtension>
        </extensions>
      </trkpt>
      <trkpt lat="47.55621635355055332183837890625" lon="11.0228251107037067413330078125">
        <ele>1496.5999755859375</ele>
        <time>2026-09-01T07:01:02.000Z</time>
        <extensions>
          <ns3:TrackPointExtension>
            <ns3:hr>159</ns3:hr>
            <ns3:cad>0</ns3:cad>
          </ns3:TrackPointExtension>
        </extensions>
      </trkpt>
      <trkpt lat="47.55621970631182193756103515625" lon="11.02284011431038379669189453125">
        <ele>1496.800048828125</ele>
        <time>2026-09-01T07:01:03.000Z</time>
        <extensions>
          <ns3:TrackPointExtension>
            <ns3:hr>160</ns3:hr>
            <ns3:cad>0</ns3:cad>
          </ns3:TrackPointExtension>
        </extensions>
      </trkpt>
      <trkpt lat="47.55621501244604587554931640625" lon="11.02282837964594364166259765625">
        <ele>1497</ele>
        <time>2026-09-01T07:01:04.000Z</time>
        <extensions>
          <ns3:TrackPointExtension>
            <ns3:hr>160</ns3:hr>
            <ns3:cad>0</ns3:cad>
          </ns3:TrackPointExtension>
        </extensions>
      </trkpt>
      <trkpt lat="47.556215934455394744873046875" lon="11.0228160582482814788818359375">
        <ele>1497.199951171875</ele>
        <time>2026-09-01T07:01:05.000Z</time>
        <extensions>
          <ns3:TrackPointExtension>
            <ns3:hr>160</ns3:hr>
            <ns3:cad>0</ns3:cad>
          </ns3:TrackPointExtension>
        </extensions>
      </trkpt>
      <trkpt lat="47.556217275559902191162109375" lon="11.02280541323125362396240234375">
        <ele>1497.4000244140625</ele>
        <time>2026-09-01T07:01:06.000Z</time>
        <extensions>
          <ns3:TrackPointExtension>
            <ns3:hr>160</ns3:hr>
            <ns3:cad>0</ns3:cad>
          </ns3:TrackPointExtension>
        </extensions>
      </trkpt>
      <trkpt lat="47.55622087977826595306396484375" lon="11.02278948761522769927978515625">
        <ele>1497.5999755859375</ele>
        <time>2026-09-01T07:01:07.000Z</time>
        <extensions>
          <ns3:TrackPointExtension>
            <ns3:hr>161</ns3:hr>
            <ns3:cad>0</ns3:cad>
          </ns3:TrackPointExtension>
        </extensions>
      </trkpt>
      <trkpt lat="47.556221969425678253173828125" lon="11.02278093807399272918701171875">
        <ele>1498</ele>
        <time>2026-09-01T07:01:08.000Z</time>
        <extensions>
          <ns3:TrackPointExtension>
            <ns3:hr>161</ns3:hr>
            <ns3:cad>0</ns3:cad>
          </ns3:TrackPointExtension>
        </extensions>
      </trkpt>
      <trkpt lat="47.5562162697315216064453125" lon="11.02276258170604705810546875">
        <ele>1498.5999755859375</ele>
        <time>2026-09-01T07:01:09.000Z</time>
        <extensions>
          <ns3:TrackPointExtension>
            <ns3:hr>161</ns3:hr>
            <ns3:cad>0</ns3:cad>
          </ns3:TrackPointExtension>
        </extensions>
      </trkpt>
      <trkpt lat="47.5562135875225067138671875" lon="11.02275562472641468048095703125">
        <ele>1499.199951171875</ele>
        <time>2026-09-01T07:01:10.000Z</time>
        <extensions>
          <ns3:TrackPointExtension>
            <ns3:hr>162</ns3:hr>
            <ns3:cad>0</ns3:cad>
          </ns3:TrackPointExtension>
        </extensions>
      </trkpt>
      <trkpt lat="47.556212246417999267578125" lon="11.02273710072040557861328125">
        <ele>1499.5999755859375</ele>
        <time>2026-09-01T07:01:11.000Z</time>
        <extensions>
          <ns3:TrackPointExtension>
            <ns3:hr>163</ns3:hr>
            <ns3:cad>41</ns3:cad>
          </ns3:TrackPointExtension>
        </extensions>
      </trkpt>
      <trkpt lat="47.55621400661766529083251953125" lon="11.02273316122591495513916015625">
        <ele>1499.800048828125</ele>
        <time>2026-09-01T07:01:12.000Z</time>
        <extensions>
          <ns3:TrackPointExtension>
            <ns3:hr>163</ns3:hr>
            <ns3:cad>41</ns3:cad>
          </ns3:TrackPointExtension>
        </extensions>
      </trkpt>
      <trkpt lat="47.5562127493321895599365234375" lon="11.0227101109921932220458984375">
        <ele>1500.199951171875</ele>
        <time>2026-09-01T07:01:13.000Z</time>
        <extensions>
          <ns3:TrackPointExtension>
            <ns3:hr>163</ns3:hr>
            <ns3:cad>0</ns3:cad>
          </ns3:TrackPointExtension>
        </extensions>
      </trkpt>
      <trkpt lat="47.556204535067081451416015625" lon="11.0226940177381038665771484375">
        <ele>1500.4000244140625</ele>
        <time>2026-09-01T07:01:14.000Z</time>
        <extensions>
          <ns3:TrackPointExtension>
            <ns3:hr>163</ns3:hr>
            <ns3:cad>0</ns3:cad>
          </ns3:TrackPointExtension>
        </extensions>
      </trkpt>
      <trkpt lat="47.55620084702968597412109375" lon="11.02268622256815433502197265625">
        <ele>1500.5999755859375</ele>
        <time>2026-09-01T07:01:15.000Z</time>
        <extensions>
          <ns3:TrackPointExtension>
            <ns3:hr>163</ns3:hr>
            <ns3:cad>0</ns3:cad>
          </ns3:TrackPointExtension>
        </extensions>
      </trkpt>
      <trkpt lat="47.55618609488010406494140625" lon="11.02266962639987468719482421875">
        <ele>1500.800048828125</ele>
        <time>2026-09-01T07:01:16.000Z</time>
        <extensions>
          <ns3:TrackPointExtension>
            <ns3:hr>163</ns3:hr>
            <ns3:cad>0</ns3:cad>
          </ns3:TrackPointExtension>
        </extensions>
      </trkpt>
      <trkpt lat="47.55617997609078884124755859375" lon="11.022660993039608001708984375">
        <ele>1501.199951171875</ele>
        <time>2026-09-01T07:01:17.000Z</time>
        <extensions>
          <ns3:TrackPointExtension>
            <ns3:hr>163</ns3:hr>
            <ns3:cad>0</ns3:cad>
          </ns3:TrackPointExtension>
        </extensions>
      </trkpt>
      <trkpt lat="47.55617528222501277923583984375" lon="11.022650934755802154541015625">
        <ele>1501.5999755859375</ele>
        <time>2026-09-01T07:01:18.000Z</time>
        <extensions>
          <ns3:TrackPointExtension>
            <ns3:hr>163</ns3:hr>
            <ns3:cad>0</ns3:cad>
          </ns3:TrackPointExtension>
        </extensions>
      </trkpt>
      <trkpt lat="47.55617930553853511810302734375" lon="11.02264699526131153106689453125">
        <ele>1501.800048828125</ele>
        <time>2026-09-01T07:01:19.000Z</time>
        <extensions>
          <ns3:TrackPointExtension>
            <ns3:hr>163</ns3:hr>
            <ns3:cad>0</ns3:cad>
          </ns3:TrackPointExtension>
        </extensions>
      </trkpt>
      <trkpt lat="47.55617327056825160980224609375" lon="11.02263878099620342254638671875">
        <ele>1501.800048828125</ele>
        <time>2026-09-01T07:01:20.000Z</time>
        <extensions>
          <ns3:TrackPointExtension>
            <ns3:hr>164</ns3:hr>
            <ns3:cad>0</ns3:cad>
          </ns3:TrackPointExtension>
        </extensions>
      </trkpt>
      <trkpt lat="47.55616019479930400848388671875" lon="11.0226390324532985687255859375">
        <ele>1502</ele>
        <time>2026-09-01T07:01:21.000Z</time>
        <extensions>
          <ns3:TrackPointExtension>
            <ns3:hr>164</ns3:hr>
            <ns3:cad>0</ns3:cad>
          </ns3:TrackPointExtension>
        </extensions>
      </trkpt>
      <trkpt lat="47.55615063942968845367431640625" lon="11.02262889035046100616455078125">
        <ele>1502</ele>
        <time>2026-09-01T07:01:22.000Z</time>
        <extensions>
          <ns3:TrackPointExtension>
            <ns3:hr>166</ns3:hr>
            <ns3:cad>0</ns3:cad>
          </ns3:TrackPointExtension>
        </extensions>
      </trkpt>
      <trkpt lat="47.55614183843135833740234375" lon="11.02261531166732311248779296875">
        <ele>1502.199951171875</ele>
        <time>2026-09-01T07:01:23.000Z</time>
        <extensions>
          <ns3:TrackPointExtension>
            <ns3:hr>167</ns3:hr>
            <ns3:cad>46</ns3:cad>
          </ns3:TrackPointExtension>
        </extensions>
      </trkpt>
      <trkpt lat="47.55614242516458034515380859375" lon="11.0226098634302616119384765625">
        <ele>1502.4000244140625</ele>
        <time>2026-09-01T07:01:24.000Z</time>
        <extensions>
          <ns3:TrackPointExtension>
            <ns3:hr>169</ns3:hr>
            <ns3:cad>46</ns3:cad>
          </ns3:TrackPointExtension>
        </extensions>
      </trkpt>
      <trkpt lat="47.55613689310848712921142578125" lon="11.02259938605129718780517578125">
        <ele>1502.800048828125</ele>
        <time>2026-09-01T07:01:25.000Z</time>
        <extensions>
          <ns3:TrackPointExtension>
            <ns3:hr>169</ns3:hr>
            <ns3:cad>46</ns3:cad>
          </ns3:TrackPointExtension>
        </extensions>
      </trkpt>
      <trkpt lat="47.5561332888901233673095703125" lon="11.022592596709728240966796875">
        <ele>1503.4000244140625</ele>
        <time>2026-09-01T07:01:26.000Z</time>
        <extensions>
          <ns3:TrackPointExtension>
            <ns3:hr>168</ns3:hr>
            <ns3:cad>46</ns3:cad>
          </ns3:TrackPointExtension>
        </extensions>
      </trkpt>
      <trkpt lat="47.55612985230982303619384765625" lon="11.0225860588252544403076171875">
        <ele>1503.5999755859375</ele>
        <time>2026-09-01T07:01:27.000Z</time>
        <extensions>
          <ns3:TrackPointExtension>
            <ns3:hr>165</ns3:hr>
            <ns3:cad>46</ns3:cad>
          </ns3:TrackPointExtension>
        </extensions>
      </trkpt>
      <trkpt lat="47.5561262480914592742919921875" lon="11.0225822031497955322265625">
        <ele>1504</ele>
        <time>2026-09-01T07:01:28.000Z</time>
        <extensions>
          <ns3:TrackPointExtension>
            <ns3:hr>160</ns3:hr>
            <ns3:cad>46</ns3:cad>
          </ns3:TrackPointExtension>
        </extensions>
      </trkpt>
      <trkpt lat="47.556123398244380950927734375" lon="11.0225756652653217315673828125">
        <ele>1504.199951171875</ele>
        <time>2026-09-01T07:01:29.000Z</time>
        <extensions>
          <ns3:TrackPointExtension>
            <ns3:hr>160</ns3:hr>
            <ns3:cad>46</ns3:cad>
          </ns3:TrackPointExtension>
        </extensions>
      </trkpt>
      <trkpt lat="47.5561198778450489044189453125" lon="11.0225555486977100372314453125">
        <ele>1504.5999755859375</ele>
        <time>2026-09-01T07:01:30.000Z</time>
        <extensions>
          <ns3:TrackPointExtension>
            <ns3:hr>160</ns3:hr>
            <ns3:cad>0</ns3:cad>
          </ns3:TrackPointExtension>
        </extensions>
      </trkpt>
      <trkpt lat="47.55611979402601718902587890625" lon="11.02254473604261875152587890625">
        <ele>1504.800048828125</ele>
        <time>2026-09-01T07:01:31.000Z</time>
        <extensions>
          <ns3:TrackPointExtension>
            <ns3:hr>161</ns3:hr>
            <ns3:cad>0</ns3:cad>
          </ns3:TrackPointExtension>
        </extensions>
      </trkpt>
      <trkpt lat="47.55611501634120941162109375" lon="11.0225387848913669586181640625">
        <ele>1505</ele>
        <time>2026-09-01T07:01:32.000Z</time>
        <extensions>
          <ns3:TrackPointExtension>
            <ns3:hr>161</ns3:hr>
            <ns3:cad>0</ns3:cad>
          </ns3:TrackPointExtension>
        </extensions>
      </trkpt>
      <trkpt lat="47.55610822699964046478271484375" lon="11.02253149263560771942138671875">
        <ele>1505.199951171875</ele>
        <time>2026-09-01T07:01:33.000Z</time>
        <extensions>
          <ns3:TrackPointExtension>
            <ns3:hr>161</ns3:hr>
            <ns3:cad>0</ns3:cad>
          </ns3:TrackPointExtension>
        </extensions>
      </trkpt>
      <trkpt lat="47.5561024434864521026611328125" lon="11.022526212036609649658203125">
        <ele>1505.4000244140625</ele>
        <time>2026-09-01T07:01:34.000Z</time>
        <extensions>
          <ns3:TrackPointExtension>
            <ns3:hr>162</ns3:hr>
            <ns3:cad>0</ns3:cad>
          </ns3:TrackPointExtension>
        </extensions>
      </trkpt>
      <trkpt lat="47.5560982525348663330078125" lon="11.02251908741891384124755859375">
        <ele>1505.4000244140625</ele>
        <time>2026-09-01T07:01:35.000Z</time>
        <extensions>
          <ns3:TrackPointExtension>
            <ns3:hr>162</ns3:hr>
            <ns3:cad>0</ns3:cad>
          </ns3:TrackPointExtension>
        </extensions>
      </trkpt>
      <trkpt lat="47.55609364248812198638916015625" lon="11.022508777678012847900390625">
        <ele>1505.5999755859375</ele>
        <time>2026-09-01T07:01:36.000Z</time>
        <extensions>
          <ns3:TrackPointExtension>
            <ns3:hr>162</ns3:hr>
            <ns3:cad>0</ns3:cad>
          </ns3:TrackPointExtension>
        </extensions>
      </trkpt>
      <trkpt lat="47.55609313957393169403076171875" lon="11.02249679155647754669189453125">
        <ele>1505.5999755859375</ele>
        <time>2026-09-01T07:01:37.000Z</time>
        <extensions>
          <ns3:TrackPointExtension>
            <ns3:hr>163</ns3:hr>
            <ns3:cad>0</ns3:cad>
          </ns3:TrackPointExtension>
        </extensions>
      </trkpt>
      <trkpt lat="47.5560910440981388092041015625" lon="11.0224693827331066131591796875">
        <ele>1505.800048828125</ele>
        <time>2026-09-01T07:01:38.000Z</time>
        <extensions>
          <ns3:TrackPointExtension>
            <ns3:hr>163</ns3:hr>
            <ns3:cad>0</ns3:cad>
          </ns3:TrackPointExtension>
        </extensions>
      </trkpt>
      <trkpt lat="47.556074447929859161376953125" lon="11.02246125228703022003173828125">
        <ele>1506</ele>
        <time>2026-09-01T07:01:39.000Z</time>
        <extensions>
          <ns3:TrackPointExtension>
            <ns3:hr>163</ns3:hr>
            <ns3:cad>0</ns3:cad>
          </ns3:TrackPointExtension>
        </extensions>
      </trkpt>
      <trkpt lat="47.55606413818895816802978515625" lon="11.02246544323861598968505859375">
        <ele>1506.4000244140625</ele>
        <time>2026-09-01T07:01:40.000Z</time>
        <extensions>
          <ns3:TrackPointExtension>
            <ns3:hr>163</ns3:hr>
            <ns3:cad>55</ns3:cad>
          </ns3:TrackPointExtension>
        </extensions>
      </trkpt>
      <trkpt lat="47.55605609156191349029541015625" lon="11.02246276102960109710693359375">
        <ele>1506.800048828125</ele>
        <time>2026-09-01T07:01:41.000Z</time>
        <extensions>
          <ns3:TrackPointExtension>
            <ns3:hr>163</ns3:hr>
            <ns3:cad>55</ns3:cad>
          </ns3:TrackPointExtension>
        </extensions>
      </trkpt>
      <trkpt lat="47.5560472905635833740234375" lon="11.02246141992509365081787109375">
        <ele>1507</ele>
        <time>2026-09-01T07:01:42.000Z</time>
        <extensions>
          <ns3:TrackPointExtension>
            <ns3:hr>163</ns3:hr>
            <ns3:cad>55</ns3:cad>
          </ns3:TrackPointExtension>
        </extensions>
      </trkpt>
      <trkpt lat="47.55603731609880924224853515625" lon="11.0224616713821887969970703125">
        <ele>1507.4000244140625</ele>
        <time>2026-09-01T07:01:43.000Z</time>
        <extensions>
          <ns3:TrackPointExtension>
            <ns3:hr>163</ns3:hr>
            <ns3:cad>55</ns3:cad>
          </ns3:TrackPointExtension>
        </extensions>
      </trkpt>
      <trkpt lat="47.55602440796792507171630859375" lon="11.02246460504829883575439453125">
        <ele>1507.5999755859375</ele>
        <time>2026-09-01T07:01:44.000Z</time>
        <extensions>
          <ns3:TrackPointExtension>
            <ns3:hr>163</ns3:hr>
            <ns3:cad>55</ns3:cad>
          </ns3:TrackPointExtension>
        </extensions>
      </trkpt>
      <trkpt lat="47.5560119189321994781494140625" lon="11.02247265167534351348876953125">
        <ele>1507.5999755859375</ele>
        <time>2026-09-01T07:01:45.000Z</time>
        <extensions>
          <ns3:TrackPointExtension>
            <ns3:hr>164</ns3:hr>
            <ns3:cad>55</ns3:cad>
          </ns3:TrackPointExtension>
        </extensions>
      </trkpt>
      <trkpt lat="47.55599808879196643829345703125" lon="11.02248220704495906829833984375">
        <ele>1507.800048828125</ele>
        <time>2026-09-01T07:01:46.000Z</time>
        <extensions>
          <ns3:TrackPointExtension>
            <ns3:hr>163</ns3:hr>
            <ns3:cad>55</ns3:cad>
          </ns3:TrackPointExtension>
        </extensions>
      </trkpt>
      <trkpt lat="47.55598702467978000640869140625" lon="11.02248975075781345367431640625">
        <ele>1507.800048828125</ele>
        <time>2026-09-01T07:01:47.000Z</time>
        <extensions>
          <ns3:TrackPointExtension>
            <ns3:hr>163</ns3:hr>
            <ns3:cad>55</ns3:cad>
          </ns3:TrackPointExtension>
        </extensions>
      </trkpt>
      <trkpt lat="47.5559787265956401824951171875" lon="11.0224935226142406463623046875">
        <ele>1508.199951171875</ele>
        <time>2026-09-01T07:01:48.000Z</time>
        <extensions>
          <ns3:TrackPointExtension>
            <ns3:hr>163</ns3:hr>
            <ns3:cad>55</ns3:cad>
          </ns3:TrackPointExtension>
        </extensions>
      </trkpt>
      <trkpt lat="47.5559748709201812744140625" lon="11.0224884934723377227783203125">
        <ele>1508.4000244140625</ele>
        <time>2026-09-01T07:01:49.000Z</time>
        <extensions>
          <ns3:TrackPointExtension>
            <ns3:hr>163</ns3:hr>
            <ns3:cad>55</ns3:cad>
          </ns3:TrackPointExtension>
        </extensions>
      </trkpt>
      <trkpt lat="47.55597529001533985137939453125" lon="11.02247516624629497528076171875">
        <ele>1509</ele>
        <time>2026-09-01T07:01:50.000Z</time>
        <extensions>
          <ns3:TrackPointExtension>
            <ns3:hr>163</ns3:hr>
            <ns3:cad>57</ns3:cad>
          </ns3:TrackPointExtension>
        </extensions>
      </trkpt>
      <trkpt lat="47.55597512237727642059326171875" lon="11.02246217429637908935546875">
        <ele>1509.199951171875</ele>
        <time>2026-09-01T07:01:51.000Z</time>
        <extensions>
          <ns3:TrackPointExtension>
            <ns3:hr>163</ns3:hr>
            <ns3:cad>62</ns3:cad>
          </ns3:TrackPointExtension>
        </extensions>
      </trkpt>
      <trkpt lat="47.55597579292953014373779296875" lon="11.02244784124195575714111328125">
        <ele>1509.5999755859375</ele>
        <time>2026-09-01T07:01:52.000Z</time>
        <extensions>
          <ns3:TrackPointExtension>
            <ns3:hr>163</ns3:hr>
            <ns3:cad>62</ns3:cad>
          </ns3:TrackPointExtension>
        </extensions>
      </trkpt>
      <trkpt lat="47.555973529815673828125" lon="11.02243375964462757110595703125">
        <ele>1510</ele>
        <time>2026-09-01T07:01:53.000Z</time>
        <extensions>
          <ns3:TrackPointExtension>
            <ns3:hr>164</ns3:hr>
            <ns3:cad>62</ns3:cad>
          </ns3:TrackPointExtension>
        </extensions>
      </trkpt>
      <trkpt lat="47.555968500673770904541015625" lon="11.0224187560379505157470703125">
        <ele>1510.199951171875</ele>
        <time>2026-09-01T07:01:54.000Z</time>
        <extensions>
          <ns3:TrackPointExtension>
            <ns3:hr>163</ns3:hr>
            <ns3:cad>0</ns3:cad>
          </ns3:TrackPointExtension>
        </extensions>
      </trkpt>
      <trkpt lat="47.555962465703487396240234375" lon="11.02241112850606441497802734375">
        <ele>1510.4000244140625</ele>
        <time>2026-09-01T07:01:55.000Z</time>
        <extensions>
          <ns3:TrackPointExtension>
            <ns3:hr>163</ns3:hr>
            <ns3:cad>0</ns3:cad>
          </ns3:TrackPointExtension>
        </extensions>
      </trkpt>
      <trkpt lat="47.55595542490482330322265625" lon="11.02241121232509613037109375">
        <ele>1510.800048828125</ele>
        <time>2026-09-01T07:01:56.000Z</time>
        <extensions>
          <ns3:TrackPointExtension>
            <ns3:hr>164</ns3:hr>
            <ns3:cad>0</ns3:cad>
          </ns3:TrackPointExtension>
        </extensions>
      </trkpt>
      <trkpt lat="47.55594511516392230987548828125" lon="11.02240584790706634521484375">
        <ele>1511.4000244140625</ele>
        <time>2026-09-01T07:01:57.000Z</time>
        <extensions>
          <ns3:TrackPointExtension>
            <ns3:hr>163</ns3:hr>
            <ns3:cad>0</ns3:cad>
          </ns3:TrackPointExtension>
        </extensions>
      </trkpt>
      <trkpt lat="47.55593472160398960113525390625" lon="11.0223993100225925445556640625">
        <ele>1511.5999755859375</ele>
        <time>2026-09-01T07:01:58.000Z</time>
        <extensions>
          <ns3:TrackPointExtension>
            <ns3:hr>163</ns3:hr>
            <ns3:cad>0</ns3:cad>
          </ns3:TrackPointExtension>
        </extensions>
      </trkpt>
      <trkpt lat="47.55592726171016693115234375" lon="11.02239570580422878265380859375">
        <ele>1512</ele>
        <time>2026-09-01T07:01:59.000Z</time>
        <extensions>
          <ns3:TrackPointExtension>
            <ns3:hr>164</ns3:hr>
            <ns3:cad>0</ns3:cad>
          </ns3:TrackPointExtension>
        </extensions>
      </trkpt>
      <trkpt lat="47.55591996945440769195556640625" lon="11.02239369414746761322021484375">
        <ele>1512.4000244140625</ele>
        <time>2026-09-01T07:02:00.000Z</time>
        <extensions>
          <ns3:TrackPointExtension>
            <ns3:hr>164</ns3:hr>
            <ns3:cad>0</ns3:cad>
          </ns3:TrackPointExtension>
        </extensions>
      </trkpt>
      <trkpt lat="47.55591477267444133758544921875" lon="11.022395454347133636474609375">
        <ele>1512.4000244140625</ele>
        <time>2026-09-01T07:02:01.000Z</time>
        <extensions>
          <ns3:TrackPointExtension>
            <ns3:hr>164</ns3:hr>
            <ns3:cad>0</ns3:cad>
          </ns3:TrackPointExtension>
        </extensions>
      </trkpt>
      <trkpt lat="47.55590689368546009063720703125" lon="11.02239335887134075164794921875">
        <ele>1512.800048828125</ele>
        <time>2026-09-01T07:02:02.000Z</time>
        <extensions>
          <ns3:TrackPointExtension>
            <ns3:hr>164</ns3:hr>
            <ns3:cad>0</ns3:cad>
          </ns3:TrackPointExtension>
        </extensions>
      </trkpt>
      <trkpt lat="47.5559039600193500518798828125" lon="11.02238162420690059661865234375">
        <ele>1513</ele>
        <time>2026-09-01T07:02:03.000Z</time>
        <extensions>
          <ns3:TrackPointExtension>
            <ns3:hr>165</ns3:hr>
            <ns3:cad>0</ns3:cad>
          </ns3:TrackPointExtension>
        </extensions>
      </trkpt>
      <trkpt lat="47.555893398821353912353515625" lon="11.02238078601658344268798828125">
        <ele>1513.199951171875</ele>
        <time>2026-09-01T07:02:04.000Z</time>
        <extensions>
          <ns3:TrackPointExtension>
            <ns3:hr>165</ns3:hr>
            <ns3:cad>0</ns3:cad>
          </ns3:TrackPointExtension>
        </extensions>
      </trkpt>
      <trkpt lat="47.55588862113654613494873046875" lon="11.02238279767334461212158203125">
        <ele>1513.199951171875</ele>
        <time>2026-09-01T07:02:05.000Z</time>
        <extensions>
          <ns3:TrackPointExtension>
            <ns3:hr>165</ns3:hr>
            <ns3:cad>0</ns3:cad>
          </ns3:TrackPointExtension>
        </extensions>
      </trkpt>
      <trkpt lat="47.55587889812886714935302734375" lon="11.0223704762756824493408203125">
        <ele>1513.4000244140625</ele>
        <time>2026-09-01T07:02:06.000Z</time>
        <extensions>
          <ns3:TrackPointExtension>
            <ns3:hr>165</ns3:hr>
            <ns3:cad>0</ns3:cad>
          </ns3:TrackPointExtension>
        </extensions>
      </trkpt>
      <trkpt lat="47.5558734498918056488037109375" lon="11.02235949598252773284912109375">
        <ele>1513.800048828125</ele>
        <time>2026-09-01T07:02:07.000Z</time>
        <extensions>
          <ns3:TrackPointExtension>
            <ns3:hr>165</ns3:hr>
            <ns3:cad>75</ns3:cad>
          </ns3:TrackPointExtension>
        </extensions>
      </trkpt>
      <trkpt lat="47.55585928447544574737548828125" lon="11.022361926734447479248046875">
        <ele>1514</ele>
        <time>2026-09-01T07:02:08.000Z</time>
        <extensions>
          <ns3:TrackPointExtension>
            <ns3:hr>166</ns3:hr>
            <ns3:cad>75</ns3:cad>
          </ns3:TrackPointExtension>
        </extensions>
      </trkpt>
      <trkpt lat="47.55585039965808391571044921875" lon="11.02236025035381317138671875">
        <ele>1514.4000244140625</ele>
        <time>2026-09-01T07:02:09.000Z</time>
        <extensions>
          <ns3:TrackPointExtension>
            <ns3:hr>166</ns3:hr>
            <ns3:cad>75</ns3:cad>
          </ns3:TrackPointExtension>
        </extensions>
      </trkpt>
      <trkpt lat="47.55584402941167354583740234375" lon="11.02235681377351284027099609375">
        <ele>1515</ele>
        <time>2026-09-01T07:02:10.000Z</time>
        <extensions>
          <ns3:TrackPointExtension>
            <ns3:hr>167</ns3:hr>
            <ns3:cad>43</ns3:cad>
          </ns3:TrackPointExtension>
        </extensions>
      </trkpt>
      <trkpt lat="47.55584185011684894561767578125" lon="11.0223542153835296630859375">
        <ele>1515.4000244140625</ele>
        <time>2026-09-01T07:02:11.000Z</time>
        <extensions>
          <ns3:TrackPointExtension>
            <ns3:hr>167</ns3:hr>
            <ns3:cad>43</ns3:cad>
          </ns3:TrackPointExtension>
        </extensions>
      </trkpt>
      <trkpt lat="47.555840425193309783935546875" lon="11.02235622704029083251953125">
        <ele>1515.5999755859375</ele>
        <time>2026-09-01T07:02:12.000Z</time>
        <extensions>
          <ns3:TrackPointExtension>
            <ns3:hr>168</ns3:hr>
            <ns3:cad>43</ns3:cad>
          </ns3:TrackPointExtension>
        </extensions>
      </trkpt>
      <trkpt lat="47.5558513216674327850341796875" lon="11.02232730947434902191162109375">
        <ele>1516</ele>
        <time>2026-09-01T07:02:13.000Z</time>
        <extensions>
          <ns3:TrackPointExtension>
            <ns3:hr>172</ns3:hr>
            <ns3:cad>43</ns3:cad>
          </ns3:TrackPointExtension>
        </extensions>
      </trkpt>
      <trkpt lat="47.55584805272519588470458984375" lon="11.0223208554089069366455078125">
        <ele>1516.199951171875</ele>
        <time>2026-09-01T07:02:14.000Z</time>
        <extensions>
          <ns3:TrackPointExtension>
            <ns3:hr>175</ns3:hr>
            <ns3:cad>0</ns3:cad>
          </ns3:TrackPointExtension>
        </extensions>
      </trkpt>
      <trkpt lat="47.555845789611339569091796875" lon="11.022312641143798828125">
        <ele>1516.199951171875</ele>
        <time>2026-09-01T07:02:15.000Z</time>
        <extensions>
          <ns3:TrackPointExtension>
            <ns3:hr>175</ns3:hr>
            <ns3:cad>0</ns3:cad>
          </ns3:TrackPointExtension>
        </extensions>
      </trkpt>
      <trkpt lat="47.5558379106223583221435546875" lon="11.02230727672576904296875">
        <ele>1516.4000244140625</ele>
        <time>2026-09-01T07:02:16.000Z</time>
        <extensions>
          <ns3:TrackPointExtension>
            <ns3:hr>175</ns3:hr>
            <ns3:cad>0</ns3:cad>
          </ns3:TrackPointExtension>
        </extensions>
      </trkpt>
      <trkpt lat="47.555830366909503936767578125" lon="11.022313646972179412841796875">
        <ele>1517</ele>
        <time>2026-09-01T07:02:17.000Z</time>
        <extensions>
          <ns3:TrackPointExtension>
            <ns3:hr>175</ns3:hr>
            <ns3:cad>0</ns3:cad>
          </ns3:TrackPointExtension>
        </extensions>
      </trkpt>
      <trkpt lat="47.55582592450082302093505859375" lon="11.02231624536216259002685546875">
        <ele>1517.199951171875</ele>
        <time>2026-09-01T07:02:18.000Z</time>
        <extensions>
          <ns3:TrackPointExtension>
            <ns3:hr>175</ns3:hr>
            <ns3:cad>0</ns3:cad>
          </ns3:TrackPointExtension>
        </extensions>
      </trkpt>
      <trkpt lat="47.5558191351592540740966796875" lon="11.0223191790282726287841796875">
        <ele>1517.4000244140625</ele>
        <time>2026-09-01T07:02:19.000Z</time>
        <extensions>
          <ns3:TrackPointExtension>
            <ns3:hr>174</ns3:hr>
            <ns3:cad>0</ns3:cad>
          </ns3:TrackPointExtension>
        </extensions>
      </trkpt>
      <trkpt lat="47.5558087415993213653564453125" lon="11.02232269942760467529296875">
        <ele>1517.800048828125</ele>
        <time>2026-09-01T07:02:20.000Z</time>
        <extensions>
          <ns3:TrackPointExtension>
            <ns3:hr>173</ns3:hr>
            <ns3:cad>0</ns3:cad>
          </ns3:TrackPointExtension>
        </extensions>
      </trkpt>
      <trkpt lat="47.5558020360767841339111328125" lon="11.02232228033244609832763671875">
        <ele>1518</ele>
        <time>2026-09-01T07:02:21.000Z</time>
        <extensions>
          <ns3:TrackPointExtension>
            <ns3:hr>173</ns3:hr>
            <ns3:cad>0</ns3:cad>
          </ns3:TrackPointExtension>
        </extensions>
      </trkpt>
      <trkpt lat="47.5557909719645977020263671875" lon="11.02231021039187908172607421875">
        <ele>1518.199951171875</ele>
        <time>2026-09-01T07:02:22.000Z</time>
        <extensions>
          <ns3:TrackPointExtension>
            <ns3:hr>172</ns3:hr>
            <ns3:cad>0</ns3:cad>
          </ns3:TrackPointExtension>
        </extensions>
      </trkpt>
      <trkpt lat="47.55578351207077503204345703125" lon="11.02230685763061046600341796875">
        <ele>1518.4000244140625</ele>
        <time>2026-09-01T07:02:23.000Z</time>
        <extensions>
          <ns3:TrackPointExtension>
            <ns3:hr>172</ns3:hr>
            <ns3:cad>0</ns3:cad>
          </ns3:TrackPointExtension>
        </extensions>
      </trkpt>
      <trkpt lat="47.5557778961956501007080078125" lon="11.0223005712032318115234375">
        <ele>1518.800048828125</ele>
        <time>2026-09-01T07:02:24.000Z</time>
        <extensions>
          <ns3:TrackPointExtension>
            <ns3:hr>168</ns3:hr>
            <ns3:cad>0</ns3:cad>
          </ns3:TrackPointExtension>
        </extensions>
      </trkpt>
      <trkpt lat="47.55577060393989086151123046875" lon="11.0222940333187580108642578125">
        <ele>1519.199951171875</ele>
        <time>2026-09-01T07:02:25.000Z</time>
        <extensions>
          <ns3:TrackPointExtension>
            <ns3:hr>167</ns3:hr>
            <ns3:cad>0</ns3:cad>
          </ns3:TrackPointExtension>
        </extensions>
      </trkpt>
      <trkpt lat="47.555768676102161407470703125" lon="11.0222900100052356719970703125">
        <ele>1519.5999755859375</ele>
        <time>2026-09-01T07:02:26.000Z</time>
        <extensions>
          <ns3:TrackPointExtension>
            <ns3:hr>167</ns3:hr>
            <ns3:cad>0</ns3:cad>
          </ns3:TrackPointExtension>
        </extensions>
      </trkpt>
      <trkpt lat="47.55576431751251220703125" lon="11.02228246629238128662109375">
        <ele>1520</ele>
        <time>2026-09-01T07:02:27.000Z</time>
        <extensions>
          <ns3:TrackPointExtension>
            <ns3:hr>167</ns3:hr>
            <ns3:cad>0</ns3:cad>
          </ns3:TrackPointExtension>
        </extensions>
      </trkpt>
      <trkpt lat="47.55576205439865589141845703125" lon="11.02227869443595409393310546875">
        <ele>1520.4000244140625</ele>
        <time>2026-09-01T07:02:28.000Z</time>
        <extensions>
          <ns3:TrackPointExtension>
            <ns3:hr>167</ns3:hr>
            <ns3:cad>0</ns3:cad>
          </ns3:TrackPointExtension>
        </extensions>
      </trkpt>
      <trkpt lat="47.5557628087699413299560546875" lon="11.02227550931274890899658203125">
        <ele>1520.5999755859375</ele>
        <time>2026-09-01T07:02:29.000Z</time>
        <extensions>
          <ns3:TrackPointExtension>
            <ns3:hr>167</ns3:hr>
            <ns3:cad>0</ns3:cad>
          </ns3:TrackPointExtension>
        </extensions>
      </trkpt>
      <trkpt lat="47.55575962364673614501953125" lon="11.02225832641124725341796875">
        <ele>1521</ele>
        <time>2026-09-01T07:02:30.000Z</time>
        <extensions>
          <ns3:TrackPointExtension>
            <ns3:hr>167</ns3:hr>
            <ns3:cad>0</ns3:cad>
          </ns3:TrackPointExtension>
        </extensions>
      </trkpt>
      <trkpt lat="47.55575870163738727569580078125" lon="11.02225606329739093780517578125">
        <ele>1521.199951171875</ele>
        <time>2026-09-01T07:02:31.000Z</time>
        <extensions>
          <ns3:TrackPointExtension>
            <ns3:hr>167</ns3:hr>
            <ns3:cad>0</ns3:cad>
          </ns3:TrackPointExtension>
        </extensions>
      </trkpt>
      <trkpt lat="47.555755935609340667724609375" lon="11.0222497768700122833251953125">
        <ele>1521.4000244140625</ele>
        <time>2026-09-01T07:02:32.000Z</time>
        <extensions>
          <ns3:TrackPointExtension>
            <ns3:hr>167</ns3:hr>
            <ns3:cad>0</ns3:cad>
          </ns3:TrackPointExtension>
        </extensions>
      </trkpt>
      <trkpt lat="47.555749900639057159423828125" lon="11.02223963476717472076416015625">
        <ele>1521.800048828125</ele>
        <time>2026-09-01T07:02:33.000Z</time>
        <extensions>
          <ns3:TrackPointExtension>
            <ns3:hr>167</ns3:hr>
            <ns3:cad>0</ns3:cad>
          </ns3:TrackPointExtension>
        </extensions>
      </trkpt>
      <trkpt lat="47.5557442009449005126953125" lon="11.022245921194553375244140625">
        <ele>1522.199951171875</ele>
        <time>2026-09-01T07:02:34.000Z</time>
        <extensions>
          <ns3:TrackPointExtension>
            <ns3:hr>167</ns3:hr>
            <ns3:cad>0</ns3:cad>
          </ns3:TrackPointExtension>
        </extensions>
      </trkpt>
      <trkpt lat="47.555740177631378173828125" lon="11.0222424007952213287353515625">
        <ele>1522.5999755859375</ele>
        <time>2026-09-01T07:02:35.000Z</time>
        <extensions>
          <ns3:TrackPointExtension>
            <ns3:hr>167</ns3:hr>
            <ns3:cad>0</ns3:cad>
          </ns3:TrackPointExtension>
        </extensions>
      </trkpt>
      <trkpt lat="47.55573607049882411956787109375" lon="11.0222377069294452667236328125">
        <ele>1523</ele>
        <time>2026-09-01T07:02:36.000Z</time>
        <extensions>
          <ns3:TrackPointExtension>
            <ns3:hr>167</ns3:hr>
            <ns3:cad>0</ns3:cad>
          </ns3:TrackPointExtension>
        </extensions>
      </trkpt>
      <trkpt lat="47.5557383336126804351806640625" lon="11.022238545119762420654296875">
        <ele>1523.4000244140625</ele>
        <time>2026-09-01T07:02:37.000Z</time>
        <extensions>
          <ns3:TrackPointExtension>
            <ns3:hr>166</ns3:hr>
            <ns3:cad>0</ns3:cad>
          </ns3:TrackPointExtension>
        </extensions>
      </trkpt>
      <trkpt lat="47.55573187954723834991455078125" lon="11.022237204015254974365234375">
        <ele>1523.5999755859375</ele>
        <time>2026-09-01T07:02:38.000Z</time>
        <extensions>
          <ns3:TrackPointExtension>
            <ns3:hr>165</ns3:hr>
            <ns3:cad>0</ns3:cad>
          </ns3:TrackPointExtension>
        </extensions>
      </trkpt>
      <trkpt lat="47.55572299472987651824951171875" lon="11.0222360305488109588623046875">
        <ele>1524</ele>
        <time>2026-09-01T07:02:39.000Z</time>
        <extensions>
          <ns3:TrackPointExtension>
            <ns3:hr>165</ns3:hr>
            <ns3:cad>0</ns3:cad>
          </ns3:TrackPointExtension>
        </extensions>
      </trkpt>
      <trkpt lat="47.555719055235385894775390625" lon="11.022237874567508697509765625">
        <ele>1524.4000244140625</ele>
        <time>2026-09-01T07:02:40.000Z</time>
        <extensions>
          <ns3:TrackPointExtension>
            <ns3:hr>165</ns3:hr>
            <ns3:cad>0</ns3:cad>
          </ns3:TrackPointExtension>
        </extensions>
      </trkpt>
      <trkpt lat="47.555715031921863555908203125" lon="11.02223393507301807403564453125">
        <ele>1524.5999755859375</ele>
        <time>2026-09-01T07:02:41.000Z</time>
        <extensions>
          <ns3:TrackPointExtension>
            <ns3:hr>165</ns3:hr>
            <ns3:cad>0</ns3:cad>
          </ns3:TrackPointExtension>
        </extensions>
      </trkpt>
      <trkpt lat="47.55571528337895870208740234375" lon="11.0222259722650051116943359375">
        <ele>1525</ele>
        <time>2026-09-01T07:02:42.000Z</time>
        <extensions>
          <ns3:TrackPointExtension>
            <ns3:hr>165</ns3:hr>
            <ns3:cad>0</ns3:cad>
          </ns3:TrackPointExtension>
        </extensions>
      </trkpt>
      <trkpt lat="47.55572198890149593353271484375" lon="11.0222196020185947418212890625">
        <ele>1525.199951171875</ele>
        <time>2026-09-01T07:02:43.000Z</time>
        <extensions>
          <ns3:TrackPointExtension>
            <ns3:hr>165</ns3:hr>
            <ns3:cad>0</ns3:cad>
          </ns3:TrackPointExtension>
        </extensions>
      </trkpt>
      <trkpt lat="47.5557249225676059722900390625" lon="11.02220107801258563995361328125">
        <ele>1525.4000244140625</ele>
        <time>2026-09-01T07:02:44.000Z</time>
        <extensions>
          <ns3:TrackPointExtension>
            <ns3:hr>165</ns3:hr>
            <ns3:cad>0</ns3:cad>
          </ns3:TrackPointExtension>
        </extensions>
      </trkpt>
      <trkpt lat="47.55572970025241374969482421875" lon="11.0222021676599979400634765625">
        <ele>1525.800048828125</ele>
        <time>2026-09-01T07:02:45.000Z</time>
        <extensions>
          <ns3:TrackPointExtension>
            <ns3:hr>166</ns3:hr>
            <ns3:cad>0</ns3:cad>
          </ns3:TrackPointExtension>
        </extensions>
      </trkpt>
      <trkpt lat="47.555734477937221527099609375" lon="11.02219470776617527008056640625">
        <ele>1526.199951171875</ele>
        <time>2026-09-01T07:02:46.000Z</time>
        <extensions>
          <ns3:TrackPointExtension>
            <ns3:hr>165</ns3:hr>
            <ns3:cad>0</ns3:cad>
          </ns3:TrackPointExtension>
        </extensions>
      </trkpt>
      <trkpt lat="47.55573414266109466552734375" lon="11.022182218730449676513671875">
        <ele>1526.4000244140625</ele>
        <time>2026-09-01T07:02:47.000Z</time>
        <extensions>
          <ns3:TrackPointExtension>
            <ns3:hr>165</ns3:hr>
            <ns3:cad>0</ns3:cad>
          </ns3:TrackPointExtension>
        </extensions>
      </trkpt>
      <trkpt lat="47.55573187954723834991455078125" lon="11.02216755039989948272705078125">
        <ele>1526.5999755859375</ele>
        <time>2026-09-01T07:02:48.000Z</time>
        <extensions>
          <ns3:TrackPointExtension>
            <ns3:hr>164</ns3:hr>
            <ns3:cad>0</ns3:cad>
          </ns3:TrackPointExtension>
        </extensions>
      </trkpt>
      <trkpt lat="47.55572450347244739532470703125" lon="11.0221592523157596588134765625">
        <ele>1526.800048828125</ele>
        <time>2026-09-01T07:02:49.000Z</time>
        <extensions>
          <ns3:TrackPointExtension>
            <ns3:hr>164</ns3:hr>
            <ns3:cad>0</ns3:cad>
          </ns3:TrackPointExtension>
        </extensions>
      </trkpt>
      <trkpt lat="47.555715702474117279052734375" lon="11.02215372025966644287109375">
        <ele>1527.199951171875</ele>
        <time>2026-09-01T07:02:50.000Z</time>
        <extensions>
          <ns3:TrackPointExtension>
            <ns3:hr>164</ns3:hr>
            <ns3:cad>0</ns3:cad>
          </ns3:TrackPointExtension>
        </extensions>
      </trkpt>
      <trkpt lat="47.55571075715124607086181640625" lon="11.02215162478387355804443359375">
        <ele>1527.4000244140625</ele>
        <time>2026-09-01T07:02:51.000Z</time>
        <extensions>
          <ns3:TrackPointExtension>
            <ns3:hr>163</ns3:hr>
            <ns3:cad>0</ns3:cad>
          </ns3:TrackPointExtension>
        </extensions>
      </trkpt>
      <trkpt lat="47.5556947477161884307861328125" lon="11.02214810438454151153564453125">
        <ele>1527.800048828125</ele>
        <time>2026-09-01T07:02:52.000Z</time>
        <extensions>
          <ns3:TrackPointExtension>
            <ns3:hr>164</ns3:hr>
            <ns3:cad>0</ns3:cad>
          </ns3:TrackPointExtension>
        </extensions>
      </trkpt>
      <trkpt lat="47.5556836836040019989013671875" lon="11.02214927785098552703857421875">
        <ele>1528.199951171875</ele>
        <time>2026-09-01T07:02:53.000Z</time>
        <extensions>
          <ns3:TrackPointExtension>
            <ns3:hr>164</ns3:hr>
            <ns3:cad>0</ns3:cad>
          </ns3:TrackPointExtension>
        </extensions>
      </trkpt>
      <trkpt lat="47.55567974410951137542724609375" lon="11.022147350013256072998046875">
        <ele>1528.4000244140625</ele>
        <time>2026-09-01T07:02:54.000Z</time>
        <extensions>
          <ns3:TrackPointExtension>
            <ns3:hr>164</ns3:hr>
            <ns3:cad>0</ns3:cad>
          </ns3:TrackPointExtension>
        </extensions>
      </trkpt>
      <trkpt lat="47.5556689314544200897216796875" lon="11.0221498645842075347900390625">
        <ele>1528.5999755859375</ele>
        <time>2026-09-01T07:02:55.000Z</time>
        <extensions>
          <ns3:TrackPointExtension>
            <ns3:hr>165</ns3:hr>
            <ns3:cad>0</ns3:cad>
          </ns3:TrackPointExtension>
        </extensions>
      </trkpt>
      <trkpt lat="47.5556622259318828582763671875" lon="11.0221503674983978271484375">
        <ele>1528.800048828125</ele>
        <time>2026-09-01T07:02:56.000Z</time>
        <extensions>
          <ns3:TrackPointExtension>
            <ns3:hr>166</ns3:hr>
            <ns3:cad>0</ns3:cad>
          </ns3:TrackPointExtension>
        </extensions>
      </trkpt>
      <trkpt lat="47.5556578673422336578369140625" lon="11.0221465118229389190673828125">
        <ele>1529</ele>
        <time>2026-09-01T07:02:57.000Z</time>
        <extensions>
          <ns3:TrackPointExtension>
            <ns3:hr>167</ns3:hr>
            <ns3:cad>0</ns3:cad>
          </ns3:TrackPointExtension>
        </extensions>
      </trkpt>
      <trkpt lat="47.55564806051552295684814453125" lon="11.02214475162327289581298828125">
        <ele>1529</ele>
        <time>2026-09-01T07:02:58.000Z</time>
        <extensions>
          <ns3:TrackPointExtension>
            <ns3:hr>167</ns3:hr>
            <ns3:cad>0</ns3:cad>
          </ns3:TrackPointExtension>
        </extensions>
      </trkpt>
      <trkpt lat="47.555641271173954010009765625" lon="11.0221445001661777496337890625">
        <ele>1529.199951171875</ele>
        <time>2026-09-01T07:02:59.000Z</time>
        <extensions>
          <ns3:TrackPointExtension>
            <ns3:hr>168</ns3:hr>
            <ns3:cad>0</ns3:cad>
          </ns3:TrackPointExtension>
        </extensions>
      </trkpt>
      <trkpt lat="47.5556340627372264862060546875" lon="11.022139973938465118408203125">
        <ele>1529.199951171875</ele>
        <time>2026-09-01T07:03:00.000Z</time>
        <extensions>
          <ns3:TrackPointExtension>
            <ns3:hr>168</ns3:hr>
            <ns3:cad>45</ns3:cad>
          </ns3:TrackPointExtension>
        </extensions>
      </trkpt>
      <trkpt lat="47.55562542937695980072021484375" lon="11.02213494479656219482421875">
        <ele>1529.4000244140625</ele>
        <time>2026-09-01T07:03:01.000Z</time>
        <extensions>
          <ns3:TrackPointExtension>
            <ns3:hr>168</ns3:hr>
            <ns3:cad>45</ns3:cad>
          </ns3:TrackPointExtension>
        </extensions>
      </trkpt>
      <trkpt lat="47.55561671219766139984130859375" lon="11.02213351987302303314208984375">
        <ele>1529.800048828125</ele>
        <time>2026-09-01T07:03:02.000Z</time>
        <extensions>
          <ns3:TrackPointExtension>
            <ns3:hr>168</ns3:hr>
            <ns3:cad>45</ns3:cad>
          </ns3:TrackPointExtension>
        </extensions>
      </trkpt>
      <trkpt lat="47.55561034195125102996826171875" lon="11.02213100530207157135009765625">
        <ele>1530.4000244140625</ele>
        <time>2026-09-01T07:03:03.000Z</time>
        <extensions>
          <ns3:TrackPointExtension>
            <ns3:hr>167</ns3:hr>
            <ns3:cad>45</ns3:cad>
          </ns3:TrackPointExtension>
        </extensions>
      </trkpt>
      <trkpt lat="47.5556052289903163909912109375" lon="11.0221289098262786865234375">
        <ele>1531</ele>
        <time>2026-09-01T07:03:04.000Z</time>
        <extensions>
          <ns3:TrackPointExtension>
            <ns3:hr>167</ns3:hr>
            <ns3:cad>0</ns3:cad>
          </ns3:TrackPointExtension>
        </extensions>
      </trkpt>
      <trkpt lat="47.555600367486476898193359375" lon="11.0221262276172637939453125">
        <ele>1531.4000244140625</ele>
        <time>2026-09-01T07:03:05.000Z</time>
        <extensions>
          <ns3:TrackPointExtension>
            <ns3:hr>167</ns3:hr>
            <ns3:cad>0</ns3:cad>
          </ns3:TrackPointExtension>
        </extensions>
      </trkpt>
      <trkpt lat="47.5555961765348911285400390625" lon="11.02212312631309032440185546875">
        <ele>1531.5999755859375</ele>
        <time>2026-09-01T07:03:06.000Z</time>
        <extensions>
          <ns3:TrackPointExtension>
            <ns3:hr>166</ns3:hr>
            <ns3:cad>48</ns3:cad>
          </ns3:TrackPointExtension>
        </extensions>
      </trkpt>
      <trkpt lat="47.55559190176427364349365234375" lon="11.02212346158921718597412109375">
        <ele>1531.5999755859375</ele>
        <time>2026-09-01T07:03:07.000Z</time>
        <extensions>
          <ns3:TrackPointExtension>
            <ns3:hr>166</ns3:hr>
            <ns3:cad>48</ns3:cad>
          </ns3:TrackPointExtension>
        </extensions>
      </trkpt>
      <trkpt lat="47.55558620207011699676513671875" lon="11.0221235454082489013671875">
        <ele>1531.800048828125</ele>
        <time>2026-09-01T07:03:08.000Z</time>
        <extensions>
          <ns3:TrackPointExtension>
            <ns3:hr>166</ns3:hr>
            <ns3:cad>0</ns3:cad>
          </ns3:TrackPointExtension>
        </extensions>
      </trkpt>
      <trkpt lat="47.5555805861949920654296875" lon="11.02212027646601200103759765625">
        <ele>1531.800048828125</ele>
        <time>2026-09-01T07:03:09.000Z</time>
        <extensions>
          <ns3:TrackPointExtension>
            <ns3:hr>166</ns3:hr>
            <ns3:cad>0</ns3:cad>
          </ns3:TrackPointExtension>
        </extensions>
      </trkpt>
      <trkpt lat="47.55558192729949951171875" lon="11.02211943827569484710693359375">
        <ele>1532</ele>
        <time>2026-09-01T07:03:10.000Z</time>
        <extensions>
          <ns3:TrackPointExtension>
            <ns3:hr>166</ns3:hr>
            <ns3:cad>0</ns3:cad>
          </ns3:TrackPointExtension>
        </extensions>
      </trkpt>
      <trkpt lat="47.5555797480046749114990234375" lon="11.02211558260023593902587890625">
        <ele>1532.4000244140625</ele>
        <time>2026-09-01T07:03:11.000Z</time>
        <extensions>
          <ns3:TrackPointExtension>
            <ns3:hr>167</ns3:hr>
            <ns3:cad>0</ns3:cad>
          </ns3:TrackPointExtension>
        </extensions>
      </trkpt>
      <trkpt lat="47.5555777363479137420654296875" lon="11.02211155928671360015869140625">
        <ele>1532.800048828125</ele>
        <time>2026-09-01T07:03:12.000Z</time>
        <extensions>
          <ns3:TrackPointExtension>
            <ns3:hr>167</ns3:hr>
            <ns3:cad>0</ns3:cad>
          </ns3:TrackPointExtension>
        </extensions>
      </trkpt>
      <trkpt lat="47.55557111464440822601318359375" lon="11.0221002437174320220947265625">
        <ele>1533</ele>
        <time>2026-09-01T07:03:13.000Z</time>
        <extensions>
          <ns3:TrackPointExtension>
            <ns3:hr>168</ns3:hr>
            <ns3:cad>0</ns3:cad>
          </ns3:TrackPointExtension>
        </extensions>
      </trkpt>
      <trkpt lat="47.5555710308253765106201171875" lon="11.02210166864097118377685546875">
        <ele>1533.5999755859375</ele>
        <time>2026-09-01T07:03:14.000Z</time>
        <extensions>
          <ns3:TrackPointExtension>
            <ns3:hr>168</ns3:hr>
            <ns3:cad>0</ns3:cad>
          </ns3:TrackPointExtension>
        </extensions>
      </trkpt>
      <trkpt lat="47.55557379685342311859130859375" lon="11.0221062786877155303955078125">
        <ele>1534</ele>
        <time>2026-09-01T07:03:15.000Z</time>
        <extensions>
          <ns3:TrackPointExtension>
            <ns3:hr>167</ns3:hr>
            <ns3:cad>0</ns3:cad>
          </ns3:TrackPointExtension>
        </extensions>
      </trkpt>
      <trkpt lat="47.5555770657956600189208984375" lon="11.0221009142696857452392578125">
        <ele>1534</ele>
        <time>2026-09-01T07:03:16.000Z</time>
        <extensions>
          <ns3:TrackPointExtension>
            <ns3:hr>166</ns3:hr>
            <ns3:cad>0</ns3:cad>
          </ns3:TrackPointExtension>
        </extensions>
      </trkpt>
      <trkpt lat="47.5555804185569286346435546875" lon="11.02209739387035369873046875">
        <ele>1534.4000244140625</ele>
        <time>2026-09-01T07:03:17.000Z</time>
        <extensions>
          <ns3:TrackPointExtension>
            <ns3:hr>166</ns3:hr>
            <ns3:cad>0</ns3:cad>
          </ns3:TrackPointExtension>
        </extensions>
      </trkpt>
      <trkpt lat="47.55558636970818042755126953125" lon="11.02209278382360935211181640625">
        <ele>1534.5999755859375</ele>
        <time>2026-09-01T07:03:18.000Z</time>
        <extensions>
          <ns3:TrackPointExtension>
            <ns3:hr>166</ns3:hr>
            <ns3:cad>0</ns3:cad>
          </ns3:TrackPointExtension>
        </extensions>
      </trkpt>
      <trkpt lat="47.5555931590497493743896484375" lon="11.02208054624497890472412109375">
        <ele>1534.800048828125</ele>
        <time>2026-09-01T07:03:19.000Z</time>
        <extensions>
          <ns3:TrackPointExtension>
            <ns3:hr>166</ns3:hr>
            <ns3:cad>0</ns3:cad>
          </ns3:TrackPointExtension>
        </extensions>
      </trkpt>
      <trkpt lat="47.55559860728681087493896484375" lon="11.02206596173346042633056640625">
        <ele>1535</ele>
        <time>2026-09-01T07:03:20.000Z</time>
        <extensions>
          <ns3:TrackPointExtension>
            <ns3:hr>166</ns3:hr>
            <ns3:cad>0</ns3:cad>
          </ns3:TrackPointExtension>
        </extensions>
      </trkpt>
      <trkpt lat="47.5555975176393985748291015625" lon="11.02205506525933742523193359375">
        <ele>1535.4000244140625</ele>
        <time>2026-09-01T07:03:21.000Z</time>
        <extensions>
          <ns3:TrackPointExtension>
            <ns3:hr>167</ns3:hr>
            <ns3:cad>0</ns3:cad>
          </ns3:TrackPointExtension>
        </extensions>
      </trkpt>
      <trkpt lat="47.55559525452554225921630859375" lon="11.02204366587102413177490234375">
        <ele>1535.5999755859375</ele>
        <time>2026-09-01T07:03:22.000Z</time>
        <extensions>
          <ns3:TrackPointExtension>
            <ns3:hr>167</ns3:hr>
            <ns3:cad>0</ns3:cad>
          </ns3:TrackPointExtension>
        </extensions>
      </trkpt>
      <trkpt lat="47.5555914826691150665283203125" lon="11.0220439173281192779541015625">
        <ele>1535.800048828125</ele>
        <time>2026-09-01T07:03:23.000Z</time>
        <extensions>
          <ns3:TrackPointExtension>
            <ns3:hr>167</ns3:hr>
            <ns3:cad>0</ns3:cad>
          </ns3:TrackPointExtension>
        </extensions>
      </trkpt>
      <trkpt lat="47.55558234639465808868408203125" lon="11.02203478105366230010986328125">
        <ele>1536.199951171875</ele>
        <time>2026-09-01T07:03:24.000Z</time>
        <extensions>
          <ns3:TrackPointExtension>
            <ns3:hr>167</ns3:hr>
            <ns3:cad>0</ns3:cad>
          </ns3:TrackPointExtension>
        </extensions>
      </trkpt>
      <trkpt lat="47.55557999946177005767822265625" lon="11.02203260175883769989013671875">
        <ele>1536.4000244140625</ele>
        <time>2026-09-01T07:03:25.000Z</time>
        <extensions>
          <ns3:TrackPointExtension>
            <ns3:hr>167</ns3:hr>
            <ns3:cad>0</ns3:cad>
          </ns3:TrackPointExtension>
        </extensions>
      </trkpt>
      <trkpt lat="47.55557765252888202667236328125" lon="11.02203377522528171539306640625">
        <ele>1536.800048828125</ele>
        <time>2026-09-01T07:03:26.000Z</time>
        <extensions>
          <ns3:TrackPointExtension>
            <ns3:hr>167</ns3:hr>
            <ns3:cad>48</ns3:cad>
          </ns3:TrackPointExtension>
        </extensions>
      </trkpt>
      <trkpt lat="47.55558083765208721160888671875" lon="11.02202824316918849945068359375">
        <ele>1537</ele>
        <time>2026-09-01T07:03:27.000Z</time>
        <extensions>
          <ns3:TrackPointExtension>
            <ns3:hr>167</ns3:hr>
            <ns3:cad>48</ns3:cad>
          </ns3:TrackPointExtension>
        </extensions>
      </trkpt>
      <trkpt lat="47.5555881299078464508056640625" lon="11.0220281593501567840576171875">
        <ele>1537.199951171875</ele>
        <time>2026-09-01T07:03:28.000Z</time>
        <extensions>
          <ns3:TrackPointExtension>
            <ns3:hr>168</ns3:hr>
            <ns3:cad>0</ns3:cad>
          </ns3:TrackPointExtension>
        </extensions>
      </trkpt>
      <trkpt lat="47.55559374578297138214111328125" lon="11.02201449684798717498779296875">
        <ele>1537.4000244140625</ele>
        <time>2026-09-01T07:03:29.000Z</time>
        <extensions>
          <ns3:TrackPointExtension>
            <ns3:hr>168</ns3:hr>
            <ns3:cad>0</ns3:cad>
          </ns3:TrackPointExtension>
        </extensions>
      </trkpt>
      <trkpt lat="47.555592320859432220458984375" lon="11.0219983197748661041259765625">
        <ele>1537.4000244140625</ele>
        <time>2026-09-01T07:03:30.000Z</time>
        <extensions>
          <ns3:TrackPointExtension>
            <ns3:hr>170</ns3:hr>
            <ns3:cad>0</ns3:cad>
          </ns3:TrackPointExtension>
        </extensions>
      </trkpt>
      <trkpt lat="47.5555901415646076202392578125" lon="11.022001840174198150634765625">
        <ele>1537.5999755859375</ele>
        <time>2026-09-01T07:03:31.000Z</time>
        <extensions>
          <ns3:TrackPointExtension>
            <ns3:hr>170</ns3:hr>
            <ns3:cad>44</ns3:cad>
          </ns3:TrackPointExtension>
        </extensions>
      </trkpt>
      <trkpt lat="47.55558704026043415069580078125" lon="11.02199622429907321929931640625">
        <ele>1537.800048828125</ele>
        <time>2026-09-01T07:03:32.000Z</time>
        <extensions>
          <ns3:TrackPointExtension>
            <ns3:hr>171</ns3:hr>
            <ns3:cad>44</ns3:cad>
          </ns3:TrackPointExtension>
        </extensions>
      </trkpt>
      <trkpt lat="47.555587291717529296875" lon="11.0219947993755340576171875">
        <ele>1538</ele>
        <time>2026-09-01T07:03:33.000Z</time>
        <extensions>
          <ns3:TrackPointExtension>
            <ns3:hr>172</ns3:hr>
            <ns3:cad>0</ns3:cad>
          </ns3:TrackPointExtension>
        </extensions>
      </trkpt>
      <trkpt lat="47.55558687262237071990966796875" lon="11.02199236862361431121826171875">
        <ele>1538.4000244140625</ele>
        <time>2026-09-01T07:03:34.000Z</time>
        <extensions>
          <ns3:TrackPointExtension>
            <ns3:hr>172</ns3:hr>
            <ns3:cad>0</ns3:cad>
          </ns3:TrackPointExtension>
        </extensions>
      </trkpt>
      <trkpt lat="47.55558402277529239654541015625" lon="11.021985746920108795166015625">
        <ele>1538.5999755859375</ele>
        <time>2026-09-01T07:03:35.000Z</time>
        <extensions>
          <ns3:TrackPointExtension>
            <ns3:hr>172</ns3:hr>
            <ns3:cad>0</ns3:cad>
          </ns3:TrackPointExtension>
        </extensions>
      </trkpt>
      <trkpt lat="47.5555810891091823577880859375" lon="11.02198197506368160247802734375">
        <ele>1539</ele>
        <time>2026-09-01T07:03:36.000Z</time>
        <extensions>
          <ns3:TrackPointExtension>
            <ns3:hr>170</ns3:hr>
            <ns3:cad>0</ns3:cad>
          </ns3:TrackPointExtension>
        </extensions>
      </trkpt>
      <trkpt lat="47.55557832308113574981689453125" lon="11.021977029740810394287109375">
        <ele>1539.199951171875</ele>
        <time>2026-09-01T07:03:37.000Z</time>
        <extensions>
          <ns3:TrackPointExtension>
            <ns3:hr>169</ns3:hr>
            <ns3:cad>0</ns3:cad>
          </ns3:TrackPointExtension>
        </extensions>
      </trkpt>
      <trkpt lat="47.555566839873790740966796875" lon="11.0219718329608440399169921875">
        <ele>1539.800048828125</ele>
        <time>2026-09-01T07:03:38.000Z</time>
        <extensions>
          <ns3:TrackPointExtension>
            <ns3:hr>169</ns3:hr>
            <ns3:cad>0</ns3:cad>
          </ns3:TrackPointExtension>
        </extensions>
      </trkpt>
      <trkpt lat="47.5555606372654438018798828125" lon="11.02197191677987575531005859375">
        <ele>1540</ele>
        <time>2026-09-01T07:03:39.000Z</time>
        <extensions>
          <ns3:TrackPointExtension>
            <ns3:hr>169</ns3:hr>
            <ns3:cad>0</ns3:cad>
          </ns3:TrackPointExtension>
        </extensions>
      </trkpt>
      <trkpt lat="47.55554848350584506988525390625" lon="11.02197560481727123260498046875">
        <ele>1540.199951171875</ele>
        <time>2026-09-01T07:03:40.000Z</time>
        <extensions>
          <ns3:TrackPointExtension>
            <ns3:hr>168</ns3:hr>
            <ns3:cad>0</ns3:cad>
          </ns3:TrackPointExtension>
        </extensions>
      </trkpt>
      <trkpt lat="47.55554278381168842315673828125" lon="11.02197811938822269439697265625">
        <ele>1540.5999755859375</ele>
        <time>2026-09-01T07:03:41.000Z</time>
        <extensions>
          <ns3:TrackPointExtension>
            <ns3:hr>169</ns3:hr>
            <ns3:cad>0</ns3:cad>
          </ns3:TrackPointExtension>
        </extensions>
      </trkpt>
      <trkpt lat="47.5555368326604366302490234375" lon="11.02197627536952495574951171875">
        <ele>1540.800048828125</ele>
        <time>2026-09-01T07:03:42.000Z</time>
        <extensions>
          <ns3:TrackPointExtension>
            <ns3:hr>169</ns3:hr>
            <ns3:cad>0</ns3:cad>
          </ns3:TrackPointExtension>
        </extensions>
      </trkpt>
      <trkpt lat="47.55551998503506183624267578125" lon="11.0219664685428142547607421875">
        <ele>1541</ele>
        <time>2026-09-01T07:03:43.000Z</time>
        <extensions>
          <ns3:TrackPointExtension>
            <ns3:hr>169</ns3:hr>
            <ns3:cad>0</ns3:cad>
          </ns3:TrackPointExtension>
        </extensions>
      </trkpt>
      <trkpt lat="47.55551151931285858154296875" lon="11.02196420542895793914794921875">
        <ele>1541.4000244140625</ele>
        <time>2026-09-01T07:03:44.000Z</time>
        <extensions>
          <ns3:TrackPointExtension>
            <ns3:hr>168</ns3:hr>
            <ns3:cad>0</ns3:cad>
          </ns3:TrackPointExtension>
        </extensions>
      </trkpt>
      <trkpt lat="47.5555049814283847808837890625" lon="11.0219657979905605316162109375">
        <ele>1541.800048828125</ele>
        <time>2026-09-01T07:03:45.000Z</time>
        <extensions>
          <ns3:TrackPointExtension>
            <ns3:hr>168</ns3:hr>
            <ns3:cad>0</ns3:cad>
          </ns3:TrackPointExtension>
        </extensions>
      </trkpt>
      <trkpt lat="47.555501125752925872802734375" lon="11.0219580866396427154541015625">
        <ele>1542</ele>
        <time>2026-09-01T07:03:46.000Z</time>
        <extensions>
          <ns3:TrackPointExtension>
            <ns3:hr>167</ns3:hr>
            <ns3:cad>0</ns3:cad>
          </ns3:TrackPointExtension>
        </extensions>
      </trkpt>
      <trkpt lat="47.55548662506043910980224609375" lon="11.021947525441646575927734375">
        <ele>1542.199951171875</ele>
        <time>2026-09-01T07:03:47.000Z</time>
        <extensions>
          <ns3:TrackPointExtension>
            <ns3:hr>166</ns3:hr>
            <ns3:cad>0</ns3:cad>
          </ns3:TrackPointExtension>
        </extensions>
      </trkpt>
      <trkpt lat="47.55547975189983844757080078125" lon="11.02193738333880901336669921875">
        <ele>1542.5999755859375</ele>
        <time>2026-09-01T07:03:48.000Z</time>
        <extensions>
          <ns3:TrackPointExtension>
            <ns3:hr>166</ns3:hr>
            <ns3:cad>0</ns3:cad>
          </ns3:TrackPointExtension>
        </extensions>
      </trkpt>
      <trkpt lat="47.55548159591853618621826171875" lon="11.02193604223430156707763671875">
        <ele>1542.800048828125</ele>
        <time>2026-09-01T07:03:49.000Z</time>
        <extensions>
          <ns3:TrackPointExtension>
            <ns3:hr>165</ns3:hr>
            <ns3:cad>0</ns3:cad>
          </ns3:TrackPointExtension>
        </extensions>
      </trkpt>
      <trkpt lat="47.55548059009015560150146484375" lon="11.02192816324532032012939453125">
        <ele>1543</ele>
        <time>2026-09-01T07:03:50.000Z</time>
        <extensions>
          <ns3:TrackPointExtension>
            <ns3:hr>165</ns3:hr>
            <ns3:cad>0</ns3:cad>
          </ns3:TrackPointExtension>
        </extensions>
      </trkpt>
      <trkpt lat="47.555473633110523223876953125" lon="11.02191894315183162689208984375">
        <ele>1543.5999755859375</ele>
        <time>2026-09-01T07:03:51.000Z</time>
        <extensions>
          <ns3:TrackPointExtension>
            <ns3:hr>165</ns3:hr>
            <ns3:cad>0</ns3:cad>
          </ns3:TrackPointExtension>
        </extensions>
      </trkpt>
      <trkpt lat="47.55546902306377887725830078125" lon="11.02191039361059665679931640625">
        <ele>1544.199951171875</ele>
        <time>2026-09-01T07:03:52.000Z</time>
        <extensions>
          <ns3:TrackPointExtension>
            <ns3:hr>165</ns3:hr>
            <ns3:cad>0</ns3:cad>
          </ns3:TrackPointExtension>
        </extensions>
      </trkpt>
      <trkpt lat="47.5554687716066837310791015625" lon="11.0219044424593448638916015625">
        <ele>1544.5999755859375</ele>
        <time>2026-09-01T07:03:53.000Z</time>
        <extensions>
          <ns3:TrackPointExtension>
            <ns3:hr>164</ns3:hr>
            <ns3:cad>0</ns3:cad>
          </ns3:TrackPointExtension>
        </extensions>
      </trkpt>
      <trkpt lat="47.5554681010544300079345703125" lon="11.02190100587904453277587890625">
        <ele>1545</ele>
        <time>2026-09-01T07:03:54.000Z</time>
        <extensions>
          <ns3:TrackPointExtension>
            <ns3:hr>165</ns3:hr>
            <ns3:cad>0</ns3:cad>
          </ns3:TrackPointExtension>
        </extensions>
      </trkpt>
      <trkpt lat="47.555472292006015777587890625" lon="11.02189362980425357818603515625">
        <ele>1545.4000244140625</ele>
        <time>2026-09-01T07:03:55.000Z</time>
        <extensions>
          <ns3:TrackPointExtension>
            <ns3:hr>165</ns3:hr>
            <ns3:cad>0</ns3:cad>
          </ns3:TrackPointExtension>
        </extensions>
      </trkpt>
      <trkpt lat="47.5554758124053478240966796875" lon="11.021890528500080108642578125">
        <ele>1545.5999755859375</ele>
        <time>2026-09-01T07:03:56.000Z</time>
        <extensions>
          <ns3:TrackPointExtension>
            <ns3:hr>165</ns3:hr>
            <ns3:cad>0</ns3:cad>
          </ns3:TrackPointExtension>
        </extensions>
      </trkpt>
      <trkpt lat="47.55547472275793552398681640625" lon="11.02187954820692539215087890625">
        <ele>1545.800048828125</ele>
        <time>2026-09-01T07:03:57.000Z</time>
        <extensions>
          <ns3:TrackPointExtension>
            <ns3:hr>164</ns3:hr>
            <ns3:cad>0</ns3:cad>
          </ns3:TrackPointExtension>
        </extensions>
      </trkpt>
      <trkpt lat="47.5554704479873180389404296875" lon="11.0218796320259571075439453125">
        <ele>1546.199951171875</ele>
        <time>2026-09-01T07:03:58.000Z</time>
        <extensions>
          <ns3:TrackPointExtension>
            <ns3:hr>164</ns3:hr>
            <ns3:cad>0</ns3:cad>
          </ns3:TrackPointExtension>
        </extensions>
      </trkpt>
      <trkpt lat="47.55546055734157562255859375" lon="11.02188072167336940765380859375">
        <ele>1546.4000244140625</ele>
        <time>2026-09-01T07:03:59.000Z</time>
        <extensions>
          <ns3:TrackPointExtension>
            <ns3:hr>164</ns3:hr>
            <ns3:cad>0</ns3:cad>
          </ns3:TrackPointExtension>
        </extensions>
      </trkpt>
      <trkpt lat="47.55545653402805328369140625" lon="11.021882481873035430908203125">
        <ele>1546.800048828125</ele>
        <time>2026-09-01T07:04:00.000Z</time>
        <extensions>
          <ns3:TrackPointExtension>
            <ns3:hr>163</ns3:hr>
            <ns3:cad>0</ns3:cad>
          </ns3:TrackPointExtension>
        </extensions>
      </trkpt>
      <trkpt lat="47.55545510910451412200927734375" lon="11.021882481873035430908203125">
        <ele>1547</ele>
        <time>2026-09-01T07:04:01.000Z</time>
        <extensions>
          <ns3:TrackPointExtension>
            <ns3:hr>163</ns3:hr>
            <ns3:cad>0</ns3:cad>
          </ns3:TrackPointExtension>
        </extensions>
      </trkpt>
      <trkpt lat="47.55545158870518207550048828125" lon="11.02187535725533962249755859375">
        <ele>1547.199951171875</ele>
        <time>2026-09-01T07:04:02.000Z</time>
        <extensions>
          <ns3:TrackPointExtension>
            <ns3:hr>163</ns3:hr>
            <ns3:cad>0</ns3:cad>
          </ns3:TrackPointExtension>
        </extensions>
      </trkpt>
      <trkpt lat="47.5554516725242137908935546875" lon="11.02187653072178363800048828125">
        <ele>1547.4000244140625</ele>
        <time>2026-09-01T07:04:03.000Z</time>
        <extensions>
          <ns3:TrackPointExtension>
            <ns3:hr>163</ns3:hr>
            <ns3:cad>0</ns3:cad>
          </ns3:TrackPointExtension>
        </extensions>
      </trkpt>
      <trkpt lat="47.55544622428715229034423828125" lon="11.02186999283730983734130859375">
        <ele>1547.800048828125</ele>
        <time>2026-09-01T07:04:04.000Z</time>
        <extensions>
          <ns3:TrackPointExtension>
            <ns3:hr>163</ns3:hr>
            <ns3:cad>0</ns3:cad>
          </ns3:TrackPointExtension>
        </extensions>
      </trkpt>
      <trkpt lat="47.555444799363613128662109375" lon="11.02186613716185092926025390625">
        <ele>1548</ele>
        <time>2026-09-01T07:04:05.000Z</time>
        <extensions>
          <ns3:TrackPointExtension>
            <ns3:hr>163</ns3:hr>
            <ns3:cad>0</ns3:cad>
          </ns3:TrackPointExtension>
        </extensions>
      </trkpt>
      <trkpt lat="47.55544044077396392822265625" lon="11.02186270058155059814453125">
        <ele>1548.199951171875</ele>
        <time>2026-09-01T07:04:06.000Z</time>
        <extensions>
          <ns3:TrackPointExtension>
            <ns3:hr>164</ns3:hr>
            <ns3:cad>0</ns3:cad>
          </ns3:TrackPointExtension>
        </extensions>
      </trkpt>
      <trkpt lat="47.555439434945583343505859375" lon="11.0218601860105991363525390625">
        <ele>1548.4000244140625</ele>
        <time>2026-09-01T07:04:07.000Z</time>
        <extensions>
          <ns3:TrackPointExtension>
            <ns3:hr>165</ns3:hr>
            <ns3:cad>0</ns3:cad>
          </ns3:TrackPointExtension>
        </extensions>
      </trkpt>
      <trkpt lat="47.55543046630918979644775390625" lon="11.02184970863163471221923828125">
        <ele>1548.5999755859375</ele>
        <time>2026-09-01T07:04:08.000Z</time>
        <extensions>
          <ns3:TrackPointExtension>
            <ns3:hr>166</ns3:hr>
            <ns3:cad>0</ns3:cad>
          </ns3:TrackPointExtension>
        </extensions>
      </trkpt>
      <trkpt lat="47.5554251857101917266845703125" lon="11.0218518041074275970458984375">
        <ele>1549</ele>
        <time>2026-09-01T07:04:09.000Z</time>
        <extensions>
          <ns3:TrackPointExtension>
            <ns3:hr>167</ns3:hr>
            <ns3:cad>0</ns3:cad>
          </ns3:TrackPointExtension>
        </extensions>
      </trkpt>
      <trkpt lat="47.55541873164474964141845703125" lon="11.02185322903096675872802734375">
        <ele>1549.199951171875</ele>
        <time>2026-09-01T07:04:10.000Z</time>
        <extensions>
          <ns3:TrackPointExtension>
            <ns3:hr>167</ns3:hr>
            <ns3:cad>0</ns3:cad>
          </ns3:TrackPointExtension>
        </extensions>
      </trkpt>
      <trkpt lat="47.55542309023439884185791015625" lon="11.02184987626969814300537109375">
        <ele>1549.5999755859375</ele>
        <time>2026-09-01T07:04:11.000Z</time>
        <extensions>
          <ns3:TrackPointExtension>
            <ns3:hr>167</ns3:hr>
            <ns3:cad>0</ns3:cad>
          </ns3:TrackPointExtension>
        </extensions>
      </trkpt>
      <trkpt lat="47.55542912520468235015869140625" lon="11.02185524068772792816162109375">
        <ele>1549.5999755859375</ele>
        <time>2026-09-01T07:04:12.000Z</time>
        <extensions>
          <ns3:TrackPointExtension>
            <ns3:hr>168</ns3:hr>
            <ns3:cad>0</ns3:cad>
          </ns3:TrackPointExtension>
        </extensions>
      </trkpt>
      <trkpt lat="47.555434741079807281494140625" lon="11.02184367366135120391845703125">
        <ele>1550</ele>
        <time>2026-09-01T07:04:13.000Z</time>
        <extensions>
          <ns3:TrackPointExtension>
            <ns3:hr>168</ns3:hr>
            <ns3:cad>0</ns3:cad>
          </ns3:TrackPointExtension>
        </extensions>
      </trkpt>
      <trkpt lat="47.55543968640267848968505859375" lon="11.02183344773948192596435546875">
        <ele>1550.199951171875</ele>
        <time>2026-09-01T07:04:14.000Z</time>
        <extensions>
          <ns3:TrackPointExtension>
            <ns3:hr>168</ns3:hr>
            <ns3:cad>0</ns3:cad>
          </ns3:TrackPointExtension>
        </extensions>
      </trkpt>
      <trkpt lat="47.5554426200687885284423828125" lon="11.02183143608272075653076171875">
        <ele>1550.4000244140625</ele>
        <time>2026-09-01T07:04:15.000Z</time>
        <extensions>
          <ns3:TrackPointExtension>
            <ns3:hr>168</ns3:hr>
            <ns3:cad>0</ns3:cad>
          </ns3:TrackPointExtension>
        </extensions>
      </trkpt>
      <trkpt lat="47.555443458259105682373046875" lon="11.0218253172934055328369140625">
        <ele>1550.5999755859375</ele>
        <time>2026-09-01T07:04:16.000Z</time>
        <extensions>
          <ns3:TrackPointExtension>
            <ns3:hr>168</ns3:hr>
            <ns3:cad>0</ns3:cad>
          </ns3:TrackPointExtension>
        </extensions>
      </trkpt>
      <trkpt lat="47.55544471554458141326904296875" lon="11.021804027259349822998046875">
        <ele>1551</ele>
        <time>2026-09-01T07:04:17.000Z</time>
        <extensions>
          <ns3:TrackPointExtension>
            <ns3:hr>167</ns3:hr>
            <ns3:cad>0</ns3:cad>
          </ns3:TrackPointExtension>
        </extensions>
      </trkpt>
      <trkpt lat="47.55544312298297882080078125" lon="11.02179556153714656829833984375">
        <ele>1551.4000244140625</ele>
        <time>2026-09-01T07:04:18.000Z</time>
        <extensions>
          <ns3:TrackPointExtension>
            <ns3:hr>167</ns3:hr>
            <ns3:cad>0</ns3:cad>
          </ns3:TrackPointExtension>
        </extensions>
      </trkpt>
      <trkpt lat="47.5554389320313930511474609375" lon="11.0217894427478313446044921875">
        <ele>1551.5999755859375</ele>
        <time>2026-09-01T07:04:19.000Z</time>
        <extensions>
          <ns3:TrackPointExtension>
            <ns3:hr>167</ns3:hr>
            <ns3:cad>0</ns3:cad>
          </ns3:TrackPointExtension>
        </extensions>
      </trkpt>
      <trkpt lat="47.55543884821236133575439453125" lon="11.02178298868238925933837890625">
        <ele>1551.800048828125</ele>
        <time>2026-09-01T07:04:20.000Z</time>
        <extensions>
          <ns3:TrackPointExtension>
            <ns3:hr>166</ns3:hr>
            <ns3:cad>0</ns3:cad>
          </ns3:TrackPointExtension>
        </extensions>
      </trkpt>
      <trkpt lat="47.55544404499232769012451171875" lon="11.02177628315985202789306640625">
        <ele>1552</ele>
        <time>2026-09-01T07:04:21.000Z</time>
        <extensions>
          <ns3:TrackPointExtension>
            <ns3:hr>166</ns3:hr>
            <ns3:cad>0</ns3:cad>
          </ns3:TrackPointExtension>
        </extensions>
      </trkpt>
      <trkpt lat="47.55544035695493221282958984375" lon="11.02176404558122158050537109375">
        <ele>1552.199951171875</ele>
        <time>2026-09-01T07:04:22.000Z</time>
        <extensions>
          <ns3:TrackPointExtension>
            <ns3:hr>166</ns3:hr>
            <ns3:cad>0</ns3:cad>
          </ns3:TrackPointExtension>
        </extensions>
      </trkpt>
      <trkpt lat="47.55543666891753673553466796875" lon="11.02175985462963581085205078125">
        <ele>1552.4000244140625</ele>
        <time>2026-09-01T07:04:23.000Z</time>
        <extensions>
          <ns3:TrackPointExtension>
            <ns3:hr>166</ns3:hr>
            <ns3:cad>0</ns3:cad>
          </ns3:TrackPointExtension>
        </extensions>
      </trkpt>
      <trkpt lat="47.55542426370084285736083984375" lon="11.02175407111644744873046875">
        <ele>1552.800048828125</ele>
        <time>2026-09-01T07:04:24.000Z</time>
        <extensions>
          <ns3:TrackPointExtension>
            <ns3:hr>165</ns3:hr>
            <ns3:cad>0</ns3:cad>
          </ns3:TrackPointExtension>
        </extensions>
      </trkpt>
      <trkpt lat="47.5554137863218784332275390625" lon="11.0217542387545108795166015625">
        <ele>1553</ele>
        <time>2026-09-01T07:04:25.000Z</time>
        <extensions>
          <ns3:TrackPointExtension>
            <ns3:hr>165</ns3:hr>
            <ns3:cad>0</ns3:cad>
          </ns3:TrackPointExtension>
        </extensions>
      </trkpt>
      <trkpt lat="47.55540934391319751739501953125" lon="11.0217539034783840179443359375">
        <ele>1553.199951171875</ele>
        <time>2026-09-01T07:04:26.000Z</time>
        <extensions>
          <ns3:TrackPointExtension>
            <ns3:hr>164</ns3:hr>
            <ns3:cad>0</ns3:cad>
          </ns3:TrackPointExtension>
        </extensions>
      </trkpt>
      <trkpt lat="47.5554010458290576934814453125" lon="11.021752394735813140869140625">
        <ele>1553.4000244140625</ele>
        <time>2026-09-01T07:04:27.000Z</time>
        <extensions>
          <ns3:TrackPointExtension>
            <ns3:hr>163</ns3:hr>
            <ns3:cad>0</ns3:cad>
          </ns3:TrackPointExtension>
        </extensions>
      </trkpt>
      <trkpt lat="47.555394507944583892822265625" lon="11.02175298146903514862060546875">
        <ele>1553.5999755859375</ele>
        <time>2026-09-01T07:04:28.000Z</time>
        <extensions>
          <ns3:TrackPointExtension>
            <ns3:hr>163</ns3:hr>
            <ns3:cad>0</ns3:cad>
          </ns3:TrackPointExtension>
        </extensions>
      </trkpt>
      <trkpt lat="47.5553919933736324310302734375" lon="11.02175180800259113311767578125">
        <ele>1553.800048828125</ele>
        <time>2026-09-01T07:04:29.000Z</time>
        <extensions>
          <ns3:TrackPointExtension>
            <ns3:hr>163</ns3:hr>
            <ns3:cad>0</ns3:cad>
          </ns3:TrackPointExtension>
        </extensions>
      </trkpt>
      <trkpt lat="47.55538654513657093048095703125" lon="11.02173797786235809326171875">
        <ele>1553.800048828125</ele>
        <time>2026-09-01T07:04:30.000Z</time>
        <extensions>
          <ns3:TrackPointExtension>
            <ns3:hr>162</ns3:hr>
            <ns3:cad>0</ns3:cad>
          </ns3:TrackPointExtension>
        </extensions>
      </trkpt>
      <trkpt lat="47.55538302473723888397216796875" lon="11.02173537947237491607666015625">
        <ele>1554</ele>
        <time>2026-09-01T07:04:31.000Z</time>
        <extensions>
          <ns3:TrackPointExtension>
            <ns3:hr>162</ns3:hr>
            <ns3:cad>0</ns3:cad>
          </ns3:TrackPointExtension>
        </extensions>
      </trkpt>
      <trkpt lat="47.5553792528808116912841796875" lon="11.02173152379691600799560546875">
        <ele>1554.199951171875</ele>
        <time>2026-09-01T07:04:32.000Z</time>
        <extensions>
          <ns3:TrackPointExtension>
            <ns3:hr>161</ns3:hr>
            <ns3:cad>0</ns3:cad>
          </ns3:TrackPointExtension>
        </extensions>
      </trkpt>
      <trkpt lat="47.55537833087146282196044921875" lon="11.021734960377216339111328125">
        <ele>1554.4000244140625</ele>
        <time>2026-09-01T07:04:33.000Z</time>
        <extensions>
          <ns3:TrackPointExtension>
            <ns3:hr>162</ns3:hr>
            <ns3:cad>0</ns3:cad>
          </ns3:TrackPointExtension>
        </extensions>
      </trkpt>
      <trkpt lat="47.55536726675927639007568359375" lon="11.0217341221868991851806640625">
        <ele>1554.800048828125</ele>
        <time>2026-09-01T07:04:34.000Z</time>
        <extensions>
          <ns3:TrackPointExtension>
            <ns3:hr>162</ns3:hr>
            <ns3:cad>0</ns3:cad>
          </ns3:TrackPointExtension>
        </extensions>
      </trkpt>
      <trkpt lat="47.55535905249416828155517578125" lon="11.02173588238656520843505859375">
        <ele>1555.199951171875</ele>
        <time>2026-09-01T07:04:35.000Z</time>
        <extensions>
          <ns3:TrackPointExtension>
            <ns3:hr>162</ns3:hr>
            <ns3:cad>0</ns3:cad>
          </ns3:TrackPointExtension>
        </extensions>
      </trkpt>
      <trkpt lat="47.55535435862839221954345703125" lon="11.02174007333815097808837890625">
        <ele>1555.5999755859375</ele>
        <time>2026-09-01T07:04:36.000Z</time>
        <extensions>
          <ns3:TrackPointExtension>
            <ns3:hr>162</ns3:hr>
            <ns3:cad>0</ns3:cad>
          </ns3:TrackPointExtension>
        </extensions>
      </trkpt>
      <trkpt lat="47.5553507544100284576416015625" lon="11.0217404924333095550537109375">
        <ele>1555.800048828125</ele>
        <time>2026-09-01T07:04:37.000Z</time>
        <extensions>
          <ns3:TrackPointExtension>
            <ns3:hr>161</ns3:hr>
            <ns3:cad>0</ns3:cad>
          </ns3:TrackPointExtension>
        </extensions>
      </trkpt>
      <trkpt lat="47.5553383491933345794677734375" lon="11.0217311047017574310302734375">
        <ele>1556.199951171875</ele>
        <time>2026-09-01T07:04:38.000Z</time>
        <extensions>
          <ns3:TrackPointExtension>
            <ns3:hr>161</ns3:hr>
            <ns3:cad>0</ns3:cad>
          </ns3:TrackPointExtension>
        </extensions>
      </trkpt>
      <trkpt lat="47.5553383491933345794677734375" lon="11.02172733284533023834228515625">
        <ele>1556.4000244140625</ele>
        <time>2026-09-01T07:04:39.000Z</time>
        <extensions>
          <ns3:TrackPointExtension>
            <ns3:hr>161</ns3:hr>
            <ns3:cad>0</ns3:cad>
          </ns3:TrackPointExtension>
        </extensions>
      </trkpt>
      <trkpt lat="47.55534228868782520294189453125" lon="11.0217200405895709991455078125">
        <ele>1556.4000244140625</ele>
        <time>2026-09-01T07:04:40.000Z</time>
        <extensions>
          <ns3:TrackPointExtension>
            <ns3:hr>161</ns3:hr>
            <ns3:cad>0</ns3:cad>
          </ns3:TrackPointExtension>
        </extensions>
      </trkpt>
      <trkpt lat="47.55534061230719089508056640625" lon="11.02170637808740139007568359375">
        <ele>1556.5999755859375</ele>
        <time>2026-09-01T07:04:41.000Z</time>
        <extensions>
          <ns3:TrackPointExtension>
            <ns3:hr>160</ns3:hr>
            <ns3:cad>0</ns3:cad>
          </ns3:TrackPointExtension>
        </extensions>
      </trkpt>
      <trkpt lat="47.5553437136113643646240234375" lon="11.021702103316783905029296875">
        <ele>1556.800048828125</ele>
        <time>2026-09-01T07:04:42.000Z</time>
        <extensions>
          <ns3:TrackPointExtension>
            <ns3:hr>160</ns3:hr>
            <ns3:cad>0</ns3:cad>
          </ns3:TrackPointExtension>
        </extensions>
      </trkpt>
      <trkpt lat="47.55534731782972812652587890625" lon="11.02168626151978969573974609375">
        <ele>1557</ele>
        <time>2026-09-01T07:04:43.000Z</time>
        <extensions>
          <ns3:TrackPointExtension>
            <ns3:hr>160</ns3:hr>
            <ns3:cad>0</ns3:cad>
          </ns3:TrackPointExtension>
        </extensions>
      </trkpt>
      <trkpt lat="47.55535184405744075775146484375" lon="11.02168240584433078765869140625">
        <ele>1557.4000244140625</ele>
        <time>2026-09-01T07:04:44.000Z</time>
        <extensions>
          <ns3:TrackPointExtension>
            <ns3:hr>160</ns3:hr>
            <ns3:cad>0</ns3:cad>
          </ns3:TrackPointExtension>
        </extensions>
      </trkpt>
      <trkpt lat="47.55535201169550418853759765625" lon="11.02167762815952301025390625">
        <ele>1557.800048828125</ele>
        <time>2026-09-01T07:04:45.000Z</time>
        <extensions>
          <ns3:TrackPointExtension>
            <ns3:hr>160</ns3:hr>
            <ns3:cad>0</ns3:cad>
          </ns3:TrackPointExtension>
        </extensions>
      </trkpt>
      <trkpt lat="47.55535687319934368133544921875" lon="11.02167871780693531036376953125">
        <ele>1558</ele>
        <time>2026-09-01T07:04:46.000Z</time>
        <extensions>
          <ns3:TrackPointExtension>
            <ns3:hr>160</ns3:hr>
            <ns3:cad>0</ns3:cad>
          </ns3:TrackPointExtension>
        </extensions>
      </trkpt>
      <trkpt lat="47.5553594715893268585205078125" lon="11.02167519740760326385498046875">
        <ele>1558.4000244140625</ele>
        <time>2026-09-01T07:04:47.000Z</time>
        <extensions>
          <ns3:TrackPointExtension>
            <ns3:hr>160</ns3:hr>
            <ns3:cad>0</ns3:cad>
          </ns3:TrackPointExtension>
        </extensions>
      </trkpt>
      <trkpt lat="47.55535871721804141998291015625" lon="11.0216660611331462860107421875">
        <ele>1558.800048828125</ele>
        <time>2026-09-01T07:04:48.000Z</time>
        <extensions>
          <ns3:TrackPointExtension>
            <ns3:hr>161</ns3:hr>
            <ns3:cad>0</ns3:cad>
          </ns3:TrackPointExtension>
        </extensions>
      </trkpt>
      <trkpt lat="47.55535863339900970458984375" lon="11.02165709249675273895263671875">
        <ele>1559</ele>
        <time>2026-09-01T07:04:49.000Z</time>
        <extensions>
          <ns3:TrackPointExtension>
            <ns3:hr>160</ns3:hr>
            <ns3:cad>0</ns3:cad>
          </ns3:TrackPointExtension>
        </extensions>
      </trkpt>
      <trkpt lat="47.55534748546779155731201171875" lon="11.02164519019424915313720703125">
        <ele>1559.4000244140625</ele>
        <time>2026-09-01T07:04:50.000Z</time>
        <extensions>
          <ns3:TrackPointExtension>
            <ns3:hr>161</ns3:hr>
            <ns3:cad>0</ns3:cad>
          </ns3:TrackPointExtension>
        </extensions>
      </trkpt>
      <trkpt lat="47.55533977411687374114990234375" lon="11.02163731120526790618896484375">
        <ele>1559.5999755859375</ele>
        <time>2026-09-01T07:04:51.000Z</time>
        <extensions>
          <ns3:TrackPointExtension>
            <ns3:hr>161</ns3:hr>
            <ns3:cad>0</ns3:cad>
          </ns3:TrackPointExtension>
        </extensions>
      </trkpt>
      <trkpt lat="47.55533608607947826385498046875" lon="11.0216342099010944366455078125">
        <ele>1559.800048828125</ele>
        <time>2026-09-01T07:04:52.000Z</time>
        <extensions>
          <ns3:TrackPointExtension>
            <ns3:hr>162</ns3:hr>
            <ns3:cad>0</ns3:cad>
          </ns3:TrackPointExtension>
        </extensions>
      </trkpt>
      <trkpt lat="47.5553339906036853790283203125" lon="11.02163127623498439788818359375">
        <ele>1560</ele>
        <time>2026-09-01T07:04:53.000Z</time>
        <extensions>
          <ns3:TrackPointExtension>
            <ns3:hr>162</ns3:hr>
            <ns3:cad>0</ns3:cad>
          </ns3:TrackPointExtension>
        </extensions>
      </trkpt>
      <trkpt lat="47.555332817137241363525390625" lon="11.02162792347371578216552734375">
        <ele>1560.199951171875</ele>
        <time>2026-09-01T07:04:54.000Z</time>
        <extensions>
          <ns3:TrackPointExtension>
            <ns3:hr>163</ns3:hr>
            <ns3:cad>0</ns3:cad>
          </ns3:TrackPointExtension>
        </extensions>
      </trkpt>
      <trkpt lat="47.5553269498050212860107421875" lon="11.02162406779825687408447265625">
        <ele>1560.199951171875</ele>
        <time>2026-09-01T07:04:55.000Z</time>
        <extensions>
          <ns3:TrackPointExtension>
            <ns3:hr>164</ns3:hr>
            <ns3:cad>0</ns3:cad>
          </ns3:TrackPointExtension>
        </extensions>
      </trkpt>
      <trkpt lat="47.555320747196674346923828125" lon="11.02161468006670475006103515625">
        <ele>1560.4000244140625</ele>
        <time>2026-09-01T07:04:56.000Z</time>
        <extensions>
          <ns3:TrackPointExtension>
            <ns3:hr>164</ns3:hr>
            <ns3:cad>0</ns3:cad>
          </ns3:TrackPointExtension>
        </extensions>
      </trkpt>
      <trkpt lat="47.5553123652935028076171875" lon="11.02161702699959278106689453125">
        <ele>1561</ele>
        <time>2026-09-01T07:04:57.000Z</time>
        <extensions>
          <ns3:TrackPointExtension>
            <ns3:hr>164</ns3:hr>
            <ns3:cad>0</ns3:cad>
          </ns3:TrackPointExtension>
        </extensions>
      </trkpt>
      <trkpt lat="47.5553108565509319305419921875" lon="11.02161702699959278106689453125">
        <ele>1561.4000244140625</ele>
        <time>2026-09-01T07:04:58.000Z</time>
        <extensions>
          <ns3:TrackPointExtension>
            <ns3:hr>165</ns3:hr>
            <ns3:cad>0</ns3:cad>
          </ns3:TrackPointExtension>
        </extensions>
      </trkpt>
      <trkpt lat="47.55531035363674163818359375" lon="11.02161602117121219635009765625">
        <ele>1561.5999755859375</ele>
        <time>2026-09-01T07:04:59.000Z</time>
        <extensions>
          <ns3:TrackPointExtension>
            <ns3:hr>165</ns3:hr>
            <ns3:cad>0</ns3:cad>
          </ns3:TrackPointExtension>
        </extensions>
      </trkpt>
      <trkpt lat="47.55530037917196750640869140625" lon="11.02160998620092868804931640625">
        <ele>1561.800048828125</ele>
        <time>2026-09-01T07:05:00.000Z</time>
        <extensions>
          <ns3:TrackPointExtension>
            <ns3:hr>164</ns3:hr>
            <ns3:cad>0</ns3:cad>
          </ns3:TrackPointExtension>
        </extensions>
      </trkpt>
      <trkpt lat="47.55529333837330341339111328125" lon="11.02160252630710601806640625">
        <ele>1562.199951171875</ele>
        <time>2026-09-01T07:05:01.000Z</time>
        <extensions>
          <ns3:TrackPointExtension>
            <ns3:hr>164</ns3:hr>
            <ns3:cad>0</ns3:cad>
          </ns3:TrackPointExtension>
        </extensions>
      </trkpt>
      <trkpt lat="47.5552877224981784820556640625" lon="11.0216016881167888641357421875">
        <ele>1562.5999755859375</ele>
        <time>2026-09-01T07:05:02.000Z</time>
        <extensions>
          <ns3:TrackPointExtension>
            <ns3:hr>164</ns3:hr>
            <ns3:cad>46</ns3:cad>
          </ns3:TrackPointExtension>
        </extensions>
      </trkpt>
      <trkpt lat="47.55529048852622509002685546875" lon="11.02159623987972736358642578125">
        <ele>1562.800048828125</ele>
        <time>2026-09-01T07:05:03.000Z</time>
        <extensions>
          <ns3:TrackPointExtension>
            <ns3:hr>164</ns3:hr>
            <ns3:cad>46</ns3:cad>
          </ns3:TrackPointExtension>
        </extensions>
      </trkpt>
      <trkpt lat="47.55528763867914676666259765625" lon="11.0215926356613636016845703125">
        <ele>1563.199951171875</ele>
        <time>2026-09-01T07:05:04.000Z</time>
        <extensions>
          <ns3:TrackPointExtension>
            <ns3:hr>165</ns3:hr>
            <ns3:cad>0</ns3:cad>
          </ns3:TrackPointExtension>
        </extensions>
      </trkpt>
      <trkpt lat="47.55528596229851245880126953125" lon="11.0215886123478412628173828125">
        <ele>1563.800048828125</ele>
        <time>2026-09-01T07:05:05.000Z</time>
        <extensions>
          <ns3:TrackPointExtension>
            <ns3:hr>165</ns3:hr>
            <ns3:cad>0</ns3:cad>
          </ns3:TrackPointExtension>
        </extensions>
      </trkpt>
      <trkpt lat="47.5552847050130367279052734375" lon="11.0215855948626995086669921875">
        <ele>1564</ele>
        <time>2026-09-01T07:05:06.000Z</time>
        <extensions>
          <ns3:TrackPointExtension>
            <ns3:hr>165</ns3:hr>
            <ns3:cad>0</ns3:cad>
          </ns3:TrackPointExtension>
        </extensions>
      </trkpt>
      <trkpt lat="47.55528210662305355072021484375" lon="11.021578721702098846435546875">
        <ele>1564.199951171875</ele>
        <time>2026-09-01T07:05:07.000Z</time>
        <extensions>
          <ns3:TrackPointExtension>
            <ns3:hr>165</ns3:hr>
            <ns3:cad>0</ns3:cad>
          </ns3:TrackPointExtension>
        </extensions>
      </trkpt>
      <trkpt lat="47.55528126843273639678955078125" lon="11.0215701721608638763427734375">
        <ele>1564.4000244140625</ele>
        <time>2026-09-01T07:05:08.000Z</time>
        <extensions>
          <ns3:TrackPointExtension>
            <ns3:hr>164</ns3:hr>
            <ns3:cad>0</ns3:cad>
          </ns3:TrackPointExtension>
        </extensions>
      </trkpt>
      <trkpt lat="47.55527338944375514984130859375" lon="11.02156036533415317535400390625">
        <ele>1564.5999755859375</ele>
        <time>2026-09-01T07:05:09.000Z</time>
        <extensions>
          <ns3:TrackPointExtension>
            <ns3:hr>165</ns3:hr>
            <ns3:cad>0</ns3:cad>
          </ns3:TrackPointExtension>
        </extensions>
      </trkpt>
      <trkpt lat="47.5552676059305667877197265625" lon="11.0215544141829013824462890625">
        <ele>1565</ele>
        <time>2026-09-01T07:05:10.000Z</time>
        <extensions>
          <ns3:TrackPointExtension>
            <ns3:hr>166</ns3:hr>
            <ns3:cad>0</ns3:cad>
          </ns3:TrackPointExtension>
        </extensions>
      </trkpt>
      <trkpt lat="47.55526383407413959503173828125" lon="11.0215490497648715972900390625">
        <ele>1565.199951171875</ele>
        <time>2026-09-01T07:05:11.000Z</time>
        <extensions>
          <ns3:TrackPointExtension>
            <ns3:hr>166</ns3:hr>
            <ns3:cad>0</ns3:cad>
          </ns3:TrackPointExtension>
        </extensions>
      </trkpt>
      <trkpt lat="47.5552515126764774322509765625" lon="11.0215420089662075042724609375">
        <ele>1565.4000244140625</ele>
        <time>2026-09-01T07:05:12.000Z</time>
        <extensions>
          <ns3:TrackPointExtension>
            <ns3:hr>166</ns3:hr>
            <ns3:cad>0</ns3:cad>
          </ns3:TrackPointExtension>
        </extensions>
      </trkpt>
      <trkpt lat="47.55524120293557643890380859375" lon="11.02154661901295185089111328125">
        <ele>1565.800048828125</ele>
        <time>2026-09-01T07:05:13.000Z</time>
        <extensions>
          <ns3:TrackPointExtension>
            <ns3:hr>166</ns3:hr>
            <ns3:cad>0</ns3:cad>
          </ns3:TrackPointExtension>
        </extensions>
      </trkpt>
      <trkpt lat="47.55523567087948322296142578125" lon="11.02154393680393695831298828125">
        <ele>1566.199951171875</ele>
        <time>2026-09-01T07:05:14.000Z</time>
        <extensions>
          <ns3:TrackPointExtension>
            <ns3:hr>165</ns3:hr>
            <ns3:cad>0</ns3:cad>
          </ns3:TrackPointExtension>
        </extensions>
      </trkpt>
      <trkpt lat="47.5552293844521045684814453125" lon="11.02153806947171688079833984375">
        <ele>1566.4000244140625</ele>
        <time>2026-09-01T07:05:15.000Z</time>
        <extensions>
          <ns3:TrackPointExtension>
            <ns3:hr>164</ns3:hr>
            <ns3:cad>0</ns3:cad>
          </ns3:TrackPointExtension>
        </extensions>
      </trkpt>
      <trkpt lat="47.55522586405277252197265625" lon="11.0215334594249725341796875">
        <ele>1566.5999755859375</ele>
        <time>2026-09-01T07:05:16.000Z</time>
        <extensions>
          <ns3:TrackPointExtension>
            <ns3:hr>164</ns3:hr>
            <ns3:cad>0</ns3:cad>
          </ns3:TrackPointExtension>
        </extensions>
      </trkpt>
      <trkpt lat="47.55521656014025211334228515625" lon="11.0215342976152896881103515625">
        <ele>1567</ele>
        <time>2026-09-01T07:05:17.000Z</time>
        <extensions>
          <ns3:TrackPointExtension>
            <ns3:hr>164</ns3:hr>
            <ns3:cad>0</ns3:cad>
          </ns3:TrackPointExtension>
        </extensions>
      </trkpt>
      <trkpt lat="47.555204741656780242919921875" lon="11.021535135805606842041015625">
        <ele>1567</ele>
        <time>2026-09-01T07:05:18.000Z</time>
        <extensions>
          <ns3:TrackPointExtension>
            <ns3:hr>163</ns3:hr>
            <ns3:cad>0</ns3:cad>
          </ns3:TrackPointExtension>
        </extensions>
      </trkpt>
      <trkpt lat="47.555193006992340087890625" lon="11.0215332917869091033935546875">
        <ele>1567.199951171875</ele>
        <time>2026-09-01T07:05:19.000Z</time>
        <extensions>
          <ns3:TrackPointExtension>
            <ns3:hr>164</ns3:hr>
            <ns3:cad>64</ns3:cad>
          </ns3:TrackPointExtension>
        </extensions>
      </trkpt>
      <trkpt lat="47.55518294870853424072265625" lon="11.02153220213949680328369140625">
        <ele>1567.4000244140625</ele>
        <time>2026-09-01T07:05:20.000Z</time>
        <extensions>
          <ns3:TrackPointExtension>
            <ns3:hr>164</ns3:hr>
            <ns3:cad>64</ns3:cad>
          </ns3:TrackPointExtension>
        </extensions>
      </trkpt>
      <trkpt lat="47.5551680289208889007568359375" lon="11.0215280950069427490234375">
        <ele>1567.5999755859375</ele>
        <time>2026-09-01T07:05:21.000Z</time>
        <extensions>
          <ns3:TrackPointExtension>
            <ns3:hr>165</ns3:hr>
            <ns3:cad>73</ns3:cad>
          </ns3:TrackPointExtension>
        </extensions>
      </trkpt>
      <trkpt lat="47.55515285767614841461181640625" lon="11.02152340114116668701171875">
        <ele>1568</ele>
        <time>2026-09-01T07:05:22.000Z</time>
        <extensions>
          <ns3:TrackPointExtension>
            <ns3:hr>165</ns3:hr>
            <ns3:cad>77</ns3:cad>
          </ns3:TrackPointExtension>
        </extensions>
      </trkpt>
      <trkpt lat="47.55514212884008884429931640625" lon="11.0215208865702152252197265625">
        <ele>1568.4000244140625</ele>
        <time>2026-09-01T07:05:23.000Z</time>
        <extensions>
          <ns3:TrackPointExtension>
            <ns3:hr>166</ns3:hr>
            <ns3:cad>77</ns3:cad>
          </ns3:TrackPointExtension>
        </extensions>
      </trkpt>
      <trkpt lat="47.55512704141438007354736328125" lon="11.02151527069509029388427734375">
        <ele>1568.5999755859375</ele>
        <time>2026-09-01T07:05:24.000Z</time>
        <extensions>
          <ns3:TrackPointExtension>
            <ns3:hr>166</ns3:hr>
            <ns3:cad>0</ns3:cad>
          </ns3:TrackPointExtension>
        </extensions>
      </trkpt>
      <trkpt lat="47.55511295981705188751220703125" lon="11.021510995924472808837890625">
        <ele>1568.800048828125</ele>
        <time>2026-09-01T07:05:25.000Z</time>
        <extensions>
          <ns3:TrackPointExtension>
            <ns3:hr>167</ns3:hr>
            <ns3:cad>0</ns3:cad>
          </ns3:TrackPointExtension>
        </extensions>
      </trkpt>
      <trkpt lat="47.55510021932423114776611328125" lon="11.0215074755251407623291015625">
        <ele>1568.800048828125</ele>
        <time>2026-09-01T07:05:26.000Z</time>
        <extensions>
          <ns3:TrackPointExtension>
            <ns3:hr>168</ns3:hr>
            <ns3:cad>0</ns3:cad>
          </ns3:TrackPointExtension>
        </extensions>
      </trkpt>
      <trkpt lat="47.55509317852556705474853515625" lon="11.02150638587772846221923828125">
        <ele>1569</ele>
        <time>2026-09-01T07:05:27.000Z</time>
        <extensions>
          <ns3:TrackPointExtension>
            <ns3:hr>168</ns3:hr>
            <ns3:cad>0</ns3:cad>
          </ns3:TrackPointExtension>
        </extensions>
      </trkpt>
      <trkpt lat="47.5550875626504421234130859375" lon="11.02150370366871356964111328125">
        <ele>1569.199951171875</ele>
        <time>2026-09-01T07:05:28.000Z</time>
        <extensions>
          <ns3:TrackPointExtension>
            <ns3:hr>168</ns3:hr>
            <ns3:cad>0</ns3:cad>
          </ns3:TrackPointExtension>
        </extensions>
      </trkpt>
      <trkpt lat="47.5550818629562854766845703125" lon="11.02150420658290386199951171875">
        <ele>1569.4000244140625</ele>
        <time>2026-09-01T07:05:29.000Z</time>
        <extensions>
          <ns3:TrackPointExtension>
            <ns3:hr>169</ns3:hr>
            <ns3:cad>47</ns3:cad>
          </ns3:TrackPointExtension>
        </extensions>
      </trkpt>
      <trkpt lat="47.55507373251020908355712890625" lon="11.02150202728807926177978515625">
        <ele>1570</ele>
        <time>2026-09-01T07:05:30.000Z</time>
        <extensions>
          <ns3:TrackPointExtension>
            <ns3:hr>169</ns3:hr>
            <ns3:cad>47</ns3:cad>
          </ns3:TrackPointExtension>
        </extensions>
      </trkpt>
      <trkpt lat="47.55506761372089385986328125" lon="11.02149968035519123077392578125">
        <ele>1570.4000244140625</ele>
        <time>2026-09-01T07:05:31.000Z</time>
        <extensions>
          <ns3:TrackPointExtension>
            <ns3:hr>170</ns3:hr>
            <ns3:cad>45</ns3:cad>
          </ns3:TrackPointExtension>
        </extensions>
      </trkpt>
      <trkpt lat="47.5550587289035320281982421875" lon="11.0214970819652080535888671875">
        <ele>1570.800048828125</ele>
        <time>2026-09-01T07:05:32.000Z</time>
        <extensions>
          <ns3:TrackPointExtension>
            <ns3:hr>170</ns3:hr>
            <ns3:cad>45</ns3:cad>
          </ns3:TrackPointExtension>
        </extensions>
      </trkpt>
      <trkpt lat="47.5550490058958530426025390625" lon="11.0214923880994319915771484375">
        <ele>1570.800048828125</ele>
        <time>2026-09-01T07:05:33.000Z</time>
        <extensions>
          <ns3:TrackPointExtension>
            <ns3:hr>171</ns3:hr>
            <ns3:cad>42</ns3:cad>
          </ns3:TrackPointExtension>
        </extensions>
      </trkpt>
      <trkpt lat="47.5550426356494426727294921875" lon="11.02149079553782939910888671875">
        <ele>1571</ele>
        <time>2026-09-01T07:05:34.000Z</time>
        <extensions>
          <ns3:TrackPointExtension>
            <ns3:hr>171</ns3:hr>
            <ns3:cad>42</ns3:cad>
          </ns3:TrackPointExtension>
        </extensions>
      </trkpt>
      <trkpt lat="47.555033750832080841064453125" lon="11.021490208804607391357421875">
        <ele>1571</ele>
        <time>2026-09-01T07:05:35.000Z</time>
        <extensions>
          <ns3:TrackPointExtension>
            <ns3:hr>171</ns3:hr>
            <ns3:cad>42</ns3:cad>
          </ns3:TrackPointExtension>
        </extensions>
      </trkpt>
      <trkpt lat="47.55502075888216495513916015625" lon="11.02148643694818019866943359375">
        <ele>1571</ele>
        <time>2026-09-01T07:05:36.000Z</time>
        <extensions>
          <ns3:TrackPointExtension>
            <ns3:hr>171</ns3:hr>
            <ns3:cad>42</ns3:cad>
          </ns3:TrackPointExtension>
        </extensions>
      </trkpt>
      <trkpt lat="47.55501472391188144683837890625" lon="11.02149012498557567596435546875">
        <ele>1571.4000244140625</ele>
        <time>2026-09-01T07:05:37.000Z</time>
        <extensions>
          <ns3:TrackPointExtension>
            <ns3:hr>168</ns3:hr>
            <ns3:cad>42</ns3:cad>
          </ns3:TrackPointExtension>
        </extensions>
      </trkpt>
      <trkpt lat="47.555010281503200531005859375" lon="11.02149481885135173797607421875">
        <ele>1571.5999755859375</ele>
        <time>2026-09-01T07:05:38.000Z</time>
        <extensions>
          <ns3:TrackPointExtension>
            <ns3:hr>168</ns3:hr>
            <ns3:cad>42</ns3:cad>
          </ns3:TrackPointExtension>
        </extensions>
      </trkpt>
      <trkpt lat="47.55500189960002899169921875" lon="11.0214943997561931610107421875">
        <ele>1571.800048828125</ele>
        <time>2026-09-01T07:05:39.000Z</time>
        <extensions>
          <ns3:TrackPointExtension>
            <ns3:hr>169</ns3:hr>
            <ns3:cad>0</ns3:cad>
          </ns3:TrackPointExtension>
        </extensions>
      </trkpt>
      <trkpt lat="47.5549933500587940216064453125" lon="11.021492220461368560791015625">
        <ele>1572.199951171875</ele>
        <time>2026-09-01T07:05:40.000Z</time>
        <extensions>
          <ns3:TrackPointExtension>
            <ns3:hr>168</ns3:hr>
            <ns3:cad>0</ns3:cad>
          </ns3:TrackPointExtension>
        </extensions>
      </trkpt>
      <trkpt lat="47.55498387850821018218994140625" lon="11.0214930586516857147216796875">
        <ele>1572.5999755859375</ele>
        <time>2026-09-01T07:05:41.000Z</time>
        <extensions>
          <ns3:TrackPointExtension>
            <ns3:hr>169</ns3:hr>
            <ns3:cad>0</ns3:cad>
          </ns3:TrackPointExtension>
        </extensions>
      </trkpt>
      <trkpt lat="47.55497382022440433502197265625" lon="11.02148341946303844451904296875">
        <ele>1572.5999755859375</ele>
        <time>2026-09-01T07:05:42.000Z</time>
        <extensions>
          <ns3:TrackPointExtension>
            <ns3:hr>168</ns3:hr>
            <ns3:cad>0</ns3:cad>
          </ns3:TrackPointExtension>
        </extensions>
      </trkpt>
      <trkpt lat="47.55496703088283538818359375" lon="11.02148090489208698272705078125">
        <ele>1573</ele>
        <time>2026-09-01T07:05:43.000Z</time>
        <extensions>
          <ns3:TrackPointExtension>
            <ns3:hr>169</ns3:hr>
            <ns3:cad>0</ns3:cad>
          </ns3:TrackPointExtension>
        </extensions>
      </trkpt>
      <trkpt lat="47.55495806224644184112548828125" lon="11.02147721685469150543212890625">
        <ele>1573.199951171875</ele>
        <time>2026-09-01T07:05:44.000Z</time>
        <extensions>
          <ns3:TrackPointExtension>
            <ns3:hr>170</ns3:hr>
            <ns3:cad>0</ns3:cad>
          </ns3:TrackPointExtension>
        </extensions>
      </trkpt>
      <trkpt lat="47.55494532175362110137939453125" lon="11.0214679129421710968017578125">
        <ele>1573.5999755859375</ele>
        <time>2026-09-01T07:05:45.000Z</time>
        <extensions>
          <ns3:TrackPointExtension>
            <ns3:hr>170</ns3:hr>
            <ns3:cad>0</ns3:cad>
          </ns3:TrackPointExtension>
        </extensions>
      </trkpt>
      <trkpt lat="47.5549353472888469696044921875" lon="11.02145844139158725738525390625">
        <ele>1574</ele>
        <time>2026-09-01T07:05:46.000Z</time>
        <extensions>
          <ns3:TrackPointExtension>
            <ns3:hr>170</ns3:hr>
            <ns3:cad>0</ns3:cad>
          </ns3:TrackPointExtension>
        </extensions>
      </trkpt>
      <trkpt lat="47.5549403764307498931884765625" lon="11.02145995013415813446044921875">
        <ele>1574.199951171875</ele>
        <time>2026-09-01T07:05:47.000Z</time>
        <extensions>
          <ns3:TrackPointExtension>
            <ns3:hr>169</ns3:hr>
            <ns3:cad>0</ns3:cad>
          </ns3:TrackPointExtension>
        </extensions>
      </trkpt>
      <trkpt lat="47.55494213663041591644287109375" lon="11.0214531607925891876220703125">
        <ele>1574.4000244140625</ele>
        <time>2026-09-01T07:05:48.000Z</time>
        <extensions>
          <ns3:TrackPointExtension>
            <ns3:hr>169</ns3:hr>
            <ns3:cad>0</ns3:cad>
          </ns3:TrackPointExtension>
        </extensions>
      </trkpt>
      <trkpt lat="47.55494029261171817779541015625" lon="11.0214390791952610015869140625">
        <ele>1574.4000244140625</ele>
        <time>2026-09-01T07:05:49.000Z</time>
        <extensions>
          <ns3:TrackPointExtension>
            <ns3:hr>169</ns3:hr>
            <ns3:cad>0</ns3:cad>
          </ns3:TrackPointExtension>
        </extensions>
      </trkpt>
      <trkpt lat="47.5549340061843395233154296875" lon="11.0214256681501865386962890625">
        <ele>1574.4000244140625</ele>
        <time>2026-09-01T07:05:50.000Z</time>
        <extensions>
          <ns3:TrackPointExtension>
            <ns3:hr>168</ns3:hr>
            <ns3:cad>0</ns3:cad>
          </ns3:TrackPointExtension>
        </extensions>
      </trkpt>
      <trkpt lat="47.5549199245870113372802734375" lon="11.021409071981906890869140625">
        <ele>1574.4000244140625</ele>
        <time>2026-09-01T07:05:51.000Z</time>
        <extensions>
          <ns3:TrackPointExtension>
            <ns3:hr>168</ns3:hr>
            <ns3:cad>0</ns3:cad>
          </ns3:TrackPointExtension>
        </extensions>
      </trkpt>
      <trkpt lat="47.554905004799365997314453125" lon="11.0214001871645450592041015625">
        <ele>1574.4000244140625</ele>
        <time>2026-09-01T07:05:52.000Z</time>
        <extensions>
          <ns3:TrackPointExtension>
            <ns3:hr>168</ns3:hr>
            <ns3:cad>0</ns3:cad>
          </ns3:TrackPointExtension>
        </extensions>
      </trkpt>
      <trkpt lat="47.55489687435328960418701171875" lon="11.0214035399258136749267578125">
        <ele>1574.800048828125</ele>
        <time>2026-09-01T07:05:53.000Z</time>
        <extensions>
          <ns3:TrackPointExtension>
            <ns3:hr>168</ns3:hr>
            <ns3:cad>0</ns3:cad>
          </ns3:TrackPointExtension>
        </extensions>
      </trkpt>
      <trkpt lat="47.55489435978233814239501953125" lon="11.021409742534160614013671875">
        <ele>1575.4000244140625</ele>
        <time>2026-09-01T07:05:54.000Z</time>
        <extensions>
          <ns3:TrackPointExtension>
            <ns3:hr>168</ns3:hr>
            <ns3:cad>0</ns3:cad>
          </ns3:TrackPointExtension>
        </extensions>
      </trkpt>
      <trkpt lat="47.55489352159202098846435546875" lon="11.021398343145847320556640625">
        <ele>1575.800048828125</ele>
        <time>2026-09-01T07:05:55.000Z</time>
        <extensions>
          <ns3:TrackPointExtension>
            <ns3:hr>168</ns3:hr>
            <ns3:cad>44</ns3:cad>
          </ns3:TrackPointExtension>
        </extensions>
      </trkpt>
      <trkpt lat="47.55488966591656208038330078125" lon="11.02138937450945377349853515625">
        <ele>1576</ele>
        <time>2026-09-01T07:05:56.000Z</time>
        <extensions>
          <ns3:TrackPointExtension>
            <ns3:hr>167</ns3:hr>
            <ns3:cad>44</ns3:cad>
          </ns3:TrackPointExtension>
        </extensions>
      </trkpt>
      <trkpt lat="47.55488388240337371826171875" lon="11.0213787294924259185791015625">
        <ele>1576.199951171875</ele>
        <time>2026-09-01T07:05:57.000Z</time>
        <extensions>
          <ns3:TrackPointExtension>
            <ns3:hr>167</ns3:hr>
            <ns3:cad>44</ns3:cad>
          </ns3:TrackPointExtension>
        </extensions>
      </trkpt>
      <trkpt lat="47.5548780150711536407470703125" lon="11.02136649191379547119140625">
        <ele>1576.199951171875</ele>
        <time>2026-09-01T07:05:58.000Z</time>
        <extensions>
          <ns3:TrackPointExtension>
            <ns3:hr>166</ns3:hr>
            <ns3:cad>44</ns3:cad>
          </ns3:TrackPointExtension>
        </extensions>
      </trkpt>
      <trkpt lat="47.5548726506531238555908203125" lon="11.0213535837829113006591796875">
        <ele>1576.4000244140625</ele>
        <time>2026-09-01T07:05:59.000Z</time>
        <extensions>
          <ns3:TrackPointExtension>
            <ns3:hr>166</ns3:hr>
            <ns3:cad>75</ns3:cad>
          </ns3:TrackPointExtension>
        </extensions>
      </trkpt>
      <trkpt lat="47.554874829947948455810546875" lon="11.02135014720261096954345703125">
        <ele>1576.4000244140625</ele>
        <time>2026-09-01T07:06:00.000Z</time>
        <extensions>
          <ns3:TrackPointExtension>
            <ns3:hr>165</ns3:hr>
            <ns3:cad>75</ns3:cad>
          </ns3:TrackPointExtension>
        </extensions>
      </trkpt>
      <trkpt lat="47.55487441085278987884521484375" lon="11.021331287920475006103515625">
        <ele>1576.4000244140625</ele>
        <time>2026-09-01T07:06:01.000Z</time>
        <extensions>
          <ns3:TrackPointExtension>
            <ns3:hr>165</ns3:hr>
            <ns3:cad>0</ns3:cad>
          </ns3:TrackPointExtension>
        </extensions>
      </trkpt>
      <trkpt lat="47.55487809889018535614013671875" lon="11.021329946815967559814453125">
        <ele>1576.5999755859375</ele>
        <time>2026-09-01T07:06:02.000Z</time>
        <extensions>
          <ns3:TrackPointExtension>
            <ns3:hr>165</ns3:hr>
            <ns3:cad>0</ns3:cad>
          </ns3:TrackPointExtension>
        </extensions>
      </trkpt>
      <trkpt lat="47.5548743270337581634521484375" lon="11.02132022380828857421875">
        <ele>1576.5999755859375</ele>
        <time>2026-09-01T07:06:03.000Z</time>
        <extensions>
          <ns3:TrackPointExtension>
            <ns3:hr>166</ns3:hr>
            <ns3:cad>0</ns3:cad>
          </ns3:TrackPointExtension>
        </extensions>
      </trkpt>
      <trkpt lat="47.554866112768650054931640625" lon="11.0213056392967700958251953125">
        <ele>1576.800048828125</ele>
        <time>2026-09-01T07:06:04.000Z</time>
        <extensions>
          <ns3:TrackPointExtension>
            <ns3:hr>166</ns3:hr>
            <ns3:cad>0</ns3:cad>
          </ns3:TrackPointExtension>
        </extensions>
      </trkpt>
      <trkpt lat="47.5548612512648105621337890625" lon="11.0212905518710613250732421875">
        <ele>1577.199951171875</ele>
        <time>2026-09-01T07:06:05.000Z</time>
        <extensions>
          <ns3:TrackPointExtension>
            <ns3:hr>166</ns3:hr>
            <ns3:cad>0</ns3:cad>
          </ns3:TrackPointExtension>
        </extensions>
      </trkpt>
      <trkpt lat="47.5548565573990345001220703125" lon="11.0212757997214794158935546875">
        <ele>1577.5999755859375</ele>
        <time>2026-09-01T07:06:06.000Z</time>
        <extensions>
          <ns3:TrackPointExtension>
            <ns3:hr>166</ns3:hr>
            <ns3:cad>0</ns3:cad>
          </ns3:TrackPointExtension>
        </extensions>
      </trkpt>
      <trkpt lat="47.554852031171321868896484375" lon="11.02125895209610462188720703125">
        <ele>1578</ele>
        <time>2026-09-01T07:06:07.000Z</time>
        <extensions>
          <ns3:TrackPointExtension>
            <ns3:hr>165</ns3:hr>
            <ns3:cad>0</ns3:cad>
          </ns3:TrackPointExtension>
        </extensions>
      </trkpt>
      <trkpt lat="47.554849348962306976318359375" lon="11.02124847471714019775390625">
        <ele>1578.4000244140625</ele>
        <time>2026-09-01T07:06:08.000Z</time>
        <extensions>
          <ns3:TrackPointExtension>
            <ns3:hr>167</ns3:hr>
            <ns3:cad>0</ns3:cad>
          </ns3:TrackPointExtension>
        </extensions>
      </trkpt>
      <trkpt lat="47.5548471696674823760986328125" lon="11.02124311029911041259765625">
        <ele>1578.800048828125</ele>
        <time>2026-09-01T07:06:09.000Z</time>
        <extensions>
          <ns3:TrackPointExtension>
            <ns3:hr>168</ns3:hr>
            <ns3:cad>0</ns3:cad>
          </ns3:TrackPointExtension>
        </extensions>
      </trkpt>
      <trkpt lat="47.55484473891556262969970703125" lon="11.0212382487952709197998046875">
        <ele>1579</ele>
        <time>2026-09-01T07:06:10.000Z</time>
        <extensions>
          <ns3:TrackPointExtension>
            <ns3:hr>168</ns3:hr>
            <ns3:cad>0</ns3:cad>
          </ns3:TrackPointExtension>
        </extensions>
      </trkpt>
      <trkpt lat="47.554842643439769744873046875" lon="11.0212285257875919342041015625">
        <ele>1579.199951171875</ele>
        <time>2026-09-01T07:06:11.000Z</time>
        <extensions>
          <ns3:TrackPointExtension>
            <ns3:hr>168</ns3:hr>
            <ns3:cad>41</ns3:cad>
          </ns3:TrackPointExtension>
        </extensions>
      </trkpt>
      <trkpt lat="47.554840631783008575439453125" lon="11.0212208144366741180419921875">
        <ele>1579.4000244140625</ele>
        <time>2026-09-01T07:06:12.000Z</time>
        <extensions>
          <ns3:TrackPointExtension>
            <ns3:hr>166</ns3:hr>
            <ns3:cad>41</ns3:cad>
          </ns3:TrackPointExtension>
        </extensions>
      </trkpt>
      <trkpt lat="47.5548387877643108367919921875" lon="11.02121293544769287109375">
        <ele>1579.5999755859375</ele>
        <time>2026-09-01T07:06:13.000Z</time>
        <extensions>
          <ns3:TrackPointExtension>
            <ns3:hr>166</ns3:hr>
            <ns3:cad>41</ns3:cad>
          </ns3:TrackPointExtension>
        </extensions>
      </trkpt>
      <trkpt lat="47.5548364408314228057861328125" lon="11.02120681665837764739990234375">
        <ele>1579.5999755859375</ele>
        <time>2026-09-01T07:06:14.000Z</time>
        <extensions>
          <ns3:TrackPointExtension>
            <ns3:hr>165</ns3:hr>
            <ns3:cad>41</ns3:cad>
          </ns3:TrackPointExtension>
        </extensions>
      </trkpt>
      <trkpt lat="47.5548334233462810516357421875" lon="11.02119189687073230743408203125">
        <ele>1579.800048828125</ele>
        <time>2026-09-01T07:06:15.000Z</time>
        <extensions>
          <ns3:TrackPointExtension>
            <ns3:hr>165</ns3:hr>
            <ns3:cad>41</ns3:cad>
          </ns3:TrackPointExtension>
        </extensions>
      </trkpt>
      <trkpt lat="47.5548139773309230804443359375" lon="11.02118770591914653778076171875">
        <ele>1580</ele>
        <time>2026-09-01T07:06:16.000Z</time>
        <extensions>
          <ns3:TrackPointExtension>
            <ns3:hr>165</ns3:hr>
            <ns3:cad>41</ns3:cad>
          </ns3:TrackPointExtension>
        </extensions>
      </trkpt>
      <trkpt lat="47.55479444749653339385986328125" lon="11.02117781527340412139892578125">
        <ele>1580.199951171875</ele>
        <time>2026-09-01T07:06:17.000Z</time>
        <extensions>
          <ns3:TrackPointExtension>
            <ns3:hr>164</ns3:hr>
            <ns3:cad>0</ns3:cad>
          </ns3:TrackPointExtension>
        </extensions>
      </trkpt>
      <trkpt lat="47.55478019826114177703857421875" lon="11.02117060683667659759521484375">
        <ele>1580.4000244140625</ele>
        <time>2026-09-01T07:06:18.000Z</time>
        <extensions>
          <ns3:TrackPointExtension>
            <ns3:hr>164</ns3:hr>
            <ns3:cad>0</ns3:cad>
          </ns3:TrackPointExtension>
        </extensions>
      </trkpt>
      <trkpt lat="47.554768882691860198974609375" lon="11.021162308752536773681640625">
        <ele>1580.4000244140625</ele>
        <time>2026-09-01T07:06:19.000Z</time>
        <extensions>
          <ns3:TrackPointExtension>
            <ns3:hr>164</ns3:hr>
            <ns3:cad>0</ns3:cad>
          </ns3:TrackPointExtension>
        </extensions>
      </trkpt>
      <trkpt lat="47.5547544658184051513671875" lon="11.02113774977624416351318359375">
        <ele>1580.199951171875</ele>
        <time>2026-09-01T07:06:20.000Z</time>
        <extensions>
          <ns3:TrackPointExtension>
            <ns3:hr>164</ns3:hr>
            <ns3:cad>0</ns3:cad>
          </ns3:TrackPointExtension>
        </extensions>
      </trkpt>
      <trkpt lat="47.55474482662975788116455078125" lon="11.02111696265637874603271484375">
        <ele>1580</ele>
        <time>2026-09-01T07:06:21.000Z</time>
        <extensions>
          <ns3:TrackPointExtension>
            <ns3:hr>164</ns3:hr>
            <ns3:cad>0</ns3:cad>
          </ns3:TrackPointExtension>
        </extensions>
      </trkpt>
      <trkpt lat="47.55473359487950801849365234375" lon="11.021097600460052490234375">
        <ele>1579.5999755859375</ele>
        <time>2026-09-01T07:06:22.000Z</time>
        <extensions>
          <ns3:TrackPointExtension>
            <ns3:hr>165</ns3:hr>
            <ns3:cad>0</ns3:cad>
          </ns3:TrackPointExtension>
        </extensions>
      </trkpt>
      <trkpt lat="47.55472571589052677154541015625" lon="11.0210810042917728424072265625">
        <ele>1579.5999755859375</ele>
        <time>2026-09-01T07:06:23.000Z</time>
        <extensions>
          <ns3:TrackPointExtension>
            <ns3:hr>166</ns3:hr>
            <ns3:cad>55</ns3:cad>
          </ns3:TrackPointExtension>
        </extensions>
      </trkpt>
      <trkpt lat="47.55472169257700443267822265625" lon="11.02107136510312557220458984375">
        <ele>1579.800048828125</ele>
        <time>2026-09-01T07:06:24.000Z</time>
        <extensions>
          <ns3:TrackPointExtension>
            <ns3:hr>168</ns3:hr>
            <ns3:cad>55</ns3:cad>
          </ns3:TrackPointExtension>
        </extensions>
      </trkpt>
      <trkpt lat="47.55472001619637012481689453125" lon="11.0210640728473663330078125">
        <ele>1580</ele>
        <time>2026-09-01T07:06:25.000Z</time>
        <extensions>
          <ns3:TrackPointExtension>
            <ns3:hr>168</ns3:hr>
            <ns3:cad>55</ns3:cad>
          </ns3:TrackPointExtension>
        </extensions>
      </trkpt>
      <trkpt lat="47.55471783690154552459716796875" lon="11.02105108089745044708251953125">
        <ele>1580.5999755859375</ele>
        <time>2026-09-01T07:06:26.000Z</time>
        <extensions>
          <ns3:TrackPointExtension>
            <ns3:hr>167</ns3:hr>
            <ns3:cad>0</ns3:cad>
          </ns3:TrackPointExtension>
        </extensions>
      </trkpt>
      <trkpt lat="47.5547160767018795013427734375" lon="11.0210377536714076995849609375">
        <ele>1581.199951171875</ele>
        <time>2026-09-01T07:06:27.000Z</time>
        <extensions>
          <ns3:TrackPointExtension>
            <ns3:hr>165</ns3:hr>
            <ns3:cad>0</ns3:cad>
          </ns3:TrackPointExtension>
        </extensions>
      </trkpt>
      <trkpt lat="47.55471347831189632415771484375" lon="11.02102207951247692108154296875">
        <ele>1581.4000244140625</ele>
        <time>2026-09-01T07:06:28.000Z</time>
        <extensions>
          <ns3:TrackPointExtension>
            <ns3:hr>163</ns3:hr>
            <ns3:cad>0</ns3:cad>
          </ns3:TrackPointExtension>
        </extensions>
      </trkpt>
      <trkpt lat="47.5547107122838497161865234375" lon="11.02101000957190990447998046875">
        <ele>1581.5999755859375</ele>
        <time>2026-09-01T07:06:29.000Z</time>
        <extensions>
          <ns3:TrackPointExtension>
            <ns3:hr>162</ns3:hr>
            <ns3:cad>0</ns3:cad>
          </ns3:TrackPointExtension>
        </extensions>
      </trkpt>
      <trkpt lat="47.55470761097967624664306640625" lon="11.0209998674690723419189453125">
        <ele>1581.5999755859375</ele>
        <time>2026-09-01T07:06:30.000Z</time>
        <extensions>
          <ns3:TrackPointExtension>
            <ns3:hr>160</ns3:hr>
            <ns3:cad>59</ns3:cad>
          </ns3:TrackPointExtension>
        </extensions>
      </trkpt>
      <trkpt lat="47.55470417439937591552734375" lon="11.02099190466105937957763671875">
        <ele>1581.800048828125</ele>
        <time>2026-09-01T07:06:31.000Z</time>
        <extensions>
          <ns3:TrackPointExtension>
            <ns3:hr>159</ns3:hr>
            <ns3:cad>68</ns3:cad>
          </ns3:TrackPointExtension>
        </extensions>
      </trkpt>
      <trkpt lat="47.55470090545713901519775390625" lon="11.02098201401531696319580078125">
        <ele>1582</ele>
        <time>2026-09-01T07:06:32.000Z</time>
        <extensions>
          <ns3:TrackPointExtension>
            <ns3:hr>159</ns3:hr>
            <ns3:cad>68</ns3:cad>
          </ns3:TrackPointExtension>
        </extensions>
      </trkpt>
      <trkpt lat="47.55469922907650470733642578125" lon="11.02098151110112667083740234375">
        <ele>1582.199951171875</ele>
        <time>2026-09-01T07:06:33.000Z</time>
        <extensions>
          <ns3:TrackPointExtension>
            <ns3:hr>159</ns3:hr>
            <ns3:cad>68</ns3:cad>
          </ns3:TrackPointExtension>
        </extensions>
      </trkpt>
      <trkpt lat="47.55469487048685550689697265625" lon="11.0209727101027965545654296875">
        <ele>1582.5999755859375</ele>
        <time>2026-09-01T07:06:34.000Z</time>
        <extensions>
          <ns3:TrackPointExtension>
            <ns3:hr>158</ns3:hr>
            <ns3:cad>0</ns3:cad>
          </ns3:TrackPointExtension>
        </extensions>
      </trkpt>
      <trkpt lat="47.55468900315463542938232421875" lon="11.020959801971912384033203125">
        <ele>1583</ele>
        <time>2026-09-01T07:06:35.000Z</time>
        <extensions>
          <ns3:TrackPointExtension>
            <ns3:hr>159</ns3:hr>
            <ns3:cad>0</ns3:cad>
          </ns3:TrackPointExtension>
        </extensions>
      </trkpt>
      <trkpt lat="47.55468062125146389007568359375" lon="11.02094010449945926666259765625">
        <ele>1583</ele>
        <time>2026-09-01T07:06:36.000Z</time>
        <extensions>
          <ns3:TrackPointExtension>
            <ns3:hr>159</ns3:hr>
            <ns3:cad>0</ns3:cad>
          </ns3:TrackPointExtension>
        </extensions>
      </trkpt>
      <trkpt lat="47.55467358045279979705810546875" lon="11.0209192335605621337890625">
        <ele>1582.800048828125</ele>
        <time>2026-09-01T07:06:37.000Z</time>
        <extensions>
          <ns3:TrackPointExtension>
            <ns3:hr>158</ns3:hr>
            <ns3:cad>0</ns3:cad>
          </ns3:TrackPointExtension>
        </extensions>
      </trkpt>
      <trkpt lat="47.554666288197040557861328125" lon="11.0209059901535511016845703125">
        <ele>1582.5999755859375</ele>
        <time>2026-09-01T07:06:38.000Z</time>
        <extensions>
          <ns3:TrackPointExtension>
            <ns3:hr>159</ns3:hr>
            <ns3:cad>0</ns3:cad>
          </ns3:TrackPointExtension>
        </extensions>
      </trkpt>
      <trkpt lat="47.55465966649353504180908203125" lon="11.02089350111782550811767578125">
        <ele>1583</ele>
        <time>2026-09-01T07:06:39.000Z</time>
        <extensions>
          <ns3:TrackPointExtension>
            <ns3:hr>159</ns3:hr>
            <ns3:cad>0</ns3:cad>
          </ns3:TrackPointExtension>
        </extensions>
      </trkpt>
      <trkpt lat="47.5546527095139026641845703125" lon="11.020876653492450714111328125">
        <ele>1583.199951171875</ele>
        <time>2026-09-01T07:06:40.000Z</time>
        <extensions>
          <ns3:TrackPointExtension>
            <ns3:hr>158</ns3:hr>
            <ns3:cad>0</ns3:cad>
          </ns3:TrackPointExtension>
        </extensions>
      </trkpt>
      <trkpt lat="47.55464558489620685577392578125" lon="11.0208617337048053741455078125">
        <ele>1583.5999755859375</ele>
        <time>2026-09-01T07:06:41.000Z</time>
        <extensions>
          <ns3:TrackPointExtension>
            <ns3:hr>158</ns3:hr>
            <ns3:cad>0</ns3:cad>
          </ns3:TrackPointExtension>
        </extensions>
      </trkpt>
      <trkpt lat="47.554638125002384185791015625" lon="11.02084589190781116485595703125">
        <ele>1583.800048828125</ele>
        <time>2026-09-01T07:06:42.000Z</time>
        <extensions>
          <ns3:TrackPointExtension>
            <ns3:hr>158</ns3:hr>
            <ns3:cad>76</ns3:cad>
          </ns3:TrackPointExtension>
        </extensions>
      </trkpt>
      <trkpt lat="47.5546299107372760772705078125" lon="11.020820327103137969970703125">
        <ele>1584.199951171875</ele>
        <time>2026-09-01T07:06:43.000Z</time>
        <extensions>
          <ns3:TrackPointExtension>
            <ns3:hr>158</ns3:hr>
            <ns3:cad>76</ns3:cad>
          </ns3:TrackPointExtension>
        </extensions>
      </trkpt>
      <trkpt lat="47.55462169647216796875" lon="11.02079710923135280609130859375">
        <ele>1584.199951171875</ele>
        <time>2026-09-01T07:06:44.000Z</time>
        <extensions>
          <ns3:TrackPointExtension>
            <ns3:hr>157</ns3:hr>
            <ns3:cad>72</ns3:cad>
          </ns3:TrackPointExtension>
        </extensions>
      </trkpt>
      <trkpt lat="47.554608620703220367431640625" lon="11.0207722149789333343505859375">
        <ele>1584.199951171875</ele>
        <time>2026-09-01T07:06:45.000Z</time>
        <extensions>
          <ns3:TrackPointExtension>
            <ns3:hr>157</ns3:hr>
            <ns3:cad>71</ns3:cad>
          </ns3:TrackPointExtension>
        </extensions>
      </trkpt>
      <trkpt lat="47.5545997358858585357666015625" lon="11.0207524336874485015869140625">
        <ele>1584.4000244140625</ele>
        <time>2026-09-01T07:06:46.000Z</time>
        <extensions>
          <ns3:TrackPointExtension>
            <ns3:hr>157</ns3:hr>
            <ns3:cad>71</ns3:cad>
          </ns3:TrackPointExtension>
        </extensions>
      </trkpt>
      <trkpt lat="47.5545937009155750274658203125" lon="11.0207355022430419921875">
        <ele>1584.800048828125</ele>
        <time>2026-09-01T07:06:47.000Z</time>
        <extensions>
          <ns3:TrackPointExtension>
            <ns3:hr>156</ns3:hr>
            <ns3:cad>73</ns3:cad>
          </ns3:TrackPointExtension>
        </extensions>
      </trkpt>
      <trkpt lat="47.5545828044414520263671875" lon="11.02071815170347690582275390625">
        <ele>1585.199951171875</ele>
        <time>2026-09-01T07:06:48.000Z</time>
        <extensions>
          <ns3:TrackPointExtension>
            <ns3:hr>156</ns3:hr>
            <ns3:cad>73</ns3:cad>
          </ns3:TrackPointExtension>
        </extensions>
      </trkpt>
      <trkpt lat="47.55457769148051738739013671875" lon="11.02069862186908721923828125">
        <ele>1585.5999755859375</ele>
        <time>2026-09-01T07:06:49.000Z</time>
        <extensions>
          <ns3:TrackPointExtension>
            <ns3:hr>157</ns3:hr>
            <ns3:cad>72</ns3:cad>
          </ns3:TrackPointExtension>
        </extensions>
      </trkpt>
      <trkpt lat="47.55457274615764617919921875" lon="11.02067984640598297119140625">
        <ele>1586</ele>
        <time>2026-09-01T07:06:50.000Z</time>
        <extensions>
          <ns3:TrackPointExtension>
            <ns3:hr>157</ns3:hr>
            <ns3:cad>72</ns3:cad>
          </ns3:TrackPointExtension>
        </extensions>
      </trkpt>
      <trkpt lat="47.55456478334963321685791015625" lon="11.02066450752317905426025390625">
        <ele>1586.4000244140625</ele>
        <time>2026-09-01T07:06:51.000Z</time>
        <extensions>
          <ns3:TrackPointExtension>
            <ns3:hr>157</ns3:hr>
            <ns3:cad>74</ns3:cad>
          </ns3:TrackPointExtension>
        </extensions>
      </trkpt>
      <trkpt lat="47.554565705358982086181640625" lon="11.0206552036106586456298828125">
        <ele>1586.800048828125</ele>
        <time>2026-09-01T07:06:52.000Z</time>
        <extensions>
          <ns3:TrackPointExtension>
            <ns3:hr>157</ns3:hr>
            <ns3:cad>74</ns3:cad>
          </ns3:TrackPointExtension>
        </extensions>
      </trkpt>
      <trkpt lat="47.55456746555864810943603515625" lon="11.0206451453268527984619140625">
        <ele>1587.199951171875</ele>
        <time>2026-09-01T07:06:53.000Z</time>
        <extensions>
          <ns3:TrackPointExtension>
            <ns3:hr>158</ns3:hr>
            <ns3:cad>74</ns3:cad>
          </ns3:TrackPointExtension>
        </extensions>
      </trkpt>
      <trkpt lat="47.55456738173961639404296875" lon="11.0206327401101589202880859375">
        <ele>1587.800048828125</ele>
        <time>2026-09-01T07:06:54.000Z</time>
        <extensions>
          <ns3:TrackPointExtension>
            <ns3:hr>158</ns3:hr>
            <ns3:cad>74</ns3:cad>
          </ns3:TrackPointExtension>
        </extensions>
      </trkpt>
      <trkpt lat="47.554564364254474639892578125" lon="11.020598374307155609130859375">
        <ele>1588.199951171875</ele>
        <time>2026-09-01T07:06:55.000Z</time>
        <extensions>
          <ns3:TrackPointExtension>
            <ns3:hr>158</ns3:hr>
            <ns3:cad>74</ns3:cad>
          </ns3:TrackPointExtension>
        </extensions>
      </trkpt>
      <trkpt lat="47.55456813611090183258056640625" lon="11.020582951605319976806640625">
        <ele>1588.5999755859375</ele>
        <time>2026-09-01T07:06:56.000Z</time>
        <extensions>
          <ns3:TrackPointExtension>
            <ns3:hr>157</ns3:hr>
            <ns3:cad>68</ns3:cad>
          </ns3:TrackPointExtension>
        </extensions>
      </trkpt>
      <trkpt lat="47.55456327460706233978271484375" lon="11.0205643437802791595458984375">
        <ele>1589.199951171875</ele>
        <time>2026-09-01T07:06:57.000Z</time>
        <extensions>
          <ns3:TrackPointExtension>
            <ns3:hr>158</ns3:hr>
            <ns3:cad>0</ns3:cad>
          </ns3:TrackPointExtension>
        </extensions>
      </trkpt>
      <trkpt lat="47.55455925129354000091552734375" lon="11.0205666907131671905517578125">
        <ele>1589.5999755859375</ele>
        <time>2026-09-01T07:06:58.000Z</time>
        <extensions>
          <ns3:TrackPointExtension>
            <ns3:hr>157</ns3:hr>
            <ns3:cad>0</ns3:cad>
          </ns3:TrackPointExtension>
        </extensions>
      </trkpt>
      <trkpt lat="47.55455522798001766204833984375" lon="11.020558141171932220458984375">
        <ele>1590</ele>
        <time>2026-09-01T07:06:59.000Z</time>
        <extensions>
          <ns3:TrackPointExtension>
            <ns3:hr>156</ns3:hr>
            <ns3:cad>0</ns3:cad>
          </ns3:TrackPointExtension>
        </extensions>
      </trkpt>
      <trkpt lat="47.55455397069454193115234375" lon="11.020550429821014404296875">
        <ele>1590.4000244140625</ele>
        <time>2026-09-01T07:07:00.000Z</time>
        <extensions>
          <ns3:TrackPointExtension>
            <ns3:hr>155</ns3:hr>
            <ns3:cad>0</ns3:cad>
          </ns3:TrackPointExtension>
        </extensions>
      </trkpt>
      <trkpt lat="47.55455195903778076171875" lon="11.020541377365589141845703125">
        <ele>1590.800048828125</ele>
        <time>2026-09-01T07:07:01.000Z</time>
        <extensions>
          <ns3:TrackPointExtension>
            <ns3:hr>154</ns3:hr>
            <ns3:cad>0</ns3:cad>
          </ns3:TrackPointExtension>
        </extensions>
      </trkpt>
      <trkpt lat="47.554549612104892730712890625" lon="11.020536012947559356689453125">
        <ele>1591</ele>
        <time>2026-09-01T07:07:02.000Z</time>
        <extensions>
          <ns3:TrackPointExtension>
            <ns3:hr>151</ns3:hr>
            <ns3:cad>0</ns3:cad>
          </ns3:TrackPointExtension>
        </extensions>
      </trkpt>
      <trkpt lat="47.55454684607684612274169921875" lon="11.02052670903503894805908203125">
        <ele>1591.4000244140625</ele>
        <time>2026-09-01T07:07:03.000Z</time>
        <extensions>
          <ns3:TrackPointExtension>
            <ns3:hr>150</ns3:hr>
            <ns3:cad>0</ns3:cad>
          </ns3:TrackPointExtension>
        </extensions>
      </trkpt>
      <trkpt lat="47.554545588791370391845703125" lon="11.02051313035190105438232421875">
        <ele>1591.5999755859375</ele>
        <time>2026-09-01T07:07:04.000Z</time>
        <extensions>
          <ns3:TrackPointExtension>
            <ns3:hr>150</ns3:hr>
            <ns3:cad>0</ns3:cad>
          </ns3:TrackPointExtension>
        </extensions>
      </trkpt>
      <trkpt lat="47.55454516969621181488037109375" lon="11.02049745619297027587890625">
        <ele>1591.800048828125</ele>
        <time>2026-09-01T07:07:05.000Z</time>
        <extensions>
          <ns3:TrackPointExtension>
            <ns3:hr>150</ns3:hr>
            <ns3:cad>0</ns3:cad>
          </ns3:TrackPointExtension>
        </extensions>
      </trkpt>
      <trkpt lat="47.5545467622578144073486328125" lon="11.02048337459564208984375">
        <ele>1592.199951171875</ele>
        <time>2026-09-01T07:07:06.000Z</time>
        <extensions>
          <ns3:TrackPointExtension>
            <ns3:hr>150</ns3:hr>
            <ns3:cad>0</ns3:cad>
          </ns3:TrackPointExtension>
        </extensions>
      </trkpt>
      <trkpt lat="47.55454324185848236083984375" lon="11.02047172375023365020751953125">
        <ele>1592.4000244140625</ele>
        <time>2026-09-01T07:07:07.000Z</time>
        <extensions>
          <ns3:TrackPointExtension>
            <ns3:hr>150</ns3:hr>
            <ns3:cad>0</ns3:cad>
          </ns3:TrackPointExtension>
        </extensions>
      </trkpt>
      <trkpt lat="47.55453586578369140625" lon="11.0204578936100006103515625">
        <ele>1592.4000244140625</ele>
        <time>2026-09-01T07:07:08.000Z</time>
        <extensions>
          <ns3:TrackPointExtension>
            <ns3:hr>149</ns3:hr>
            <ns3:cad>49</ns3:cad>
          </ns3:TrackPointExtension>
        </extensions>
      </trkpt>
      <trkpt lat="47.5545286573469638824462890625" lon="11.02044138126075267791748046875">
        <ele>1592.5999755859375</ele>
        <time>2026-09-01T07:07:09.000Z</time>
        <extensions>
          <ns3:TrackPointExtension>
            <ns3:hr>149</ns3:hr>
            <ns3:cad>49</ns3:cad>
          </ns3:TrackPointExtension>
        </extensions>
      </trkpt>
      <trkpt lat="47.554520107805728912353515625" lon="11.02042478509247303009033203125">
        <ele>1592.800048828125</ele>
        <time>2026-09-01T07:07:10.000Z</time>
        <extensions>
          <ns3:TrackPointExtension>
            <ns3:hr>149</ns3:hr>
            <ns3:cad>49</ns3:cad>
          </ns3:TrackPointExtension>
        </extensions>
      </trkpt>
      <trkpt lat="47.55451013334095478057861328125" lon="11.0204057581722736358642578125">
        <ele>1592.800048828125</ele>
        <time>2026-09-01T07:07:11.000Z</time>
        <extensions>
          <ns3:TrackPointExtension>
            <ns3:hr>150</ns3:hr>
            <ns3:cad>49</ns3:cad>
          </ns3:TrackPointExtension>
        </extensions>
      </trkpt>
      <trkpt lat="47.55450359545648097991943359375" lon="11.0203916765749454498291015625">
        <ele>1592.800048828125</ele>
        <time>2026-09-01T07:07:12.000Z</time>
        <extensions>
          <ns3:TrackPointExtension>
            <ns3:hr>151</ns3:hr>
            <ns3:cad>49</ns3:cad>
          </ns3:TrackPointExtension>
        </extensions>
      </trkpt>
      <trkpt lat="47.554495967924594879150390625" lon="11.020372398197650909423828125">
        <ele>1592.800048828125</ele>
        <time>2026-09-01T07:07:13.000Z</time>
        <extensions>
          <ns3:TrackPointExtension>
            <ns3:hr>151</ns3:hr>
            <ns3:cad>49</ns3:cad>
          </ns3:TrackPointExtension>
        </extensions>
      </trkpt>
      <trkpt lat="47.5544904358685016632080078125" lon="11.0203581489622592926025390625">
        <ele>1593</ele>
        <time>2026-09-01T07:07:14.000Z</time>
        <extensions>
          <ns3:TrackPointExtension>
            <ns3:hr>152</ns3:hr>
            <ns3:cad>66</ns3:cad>
          </ns3:TrackPointExtension>
        </extensions>
      </trkpt>
      <trkpt lat="47.55448649637401103973388671875" lon="11.02034582756459712982177734375">
        <ele>1593.199951171875</ele>
        <time>2026-09-01T07:07:15.000Z</time>
        <extensions>
          <ns3:TrackPointExtension>
            <ns3:hr>152</ns3:hr>
            <ns3:cad>66</ns3:cad>
          </ns3:TrackPointExtension>
        </extensions>
      </trkpt>
      <trkpt lat="47.55449001677334308624267578125" lon="11.0203356854617595672607421875">
        <ele>1593.4000244140625</ele>
        <time>2026-09-01T07:07:16.000Z</time>
        <extensions>
          <ns3:TrackPointExtension>
            <ns3:hr>153</ns3:hr>
            <ns3:cad>66</ns3:cad>
          </ns3:TrackPointExtension>
        </extensions>
      </trkpt>
      <trkpt lat="47.55448750220239162445068359375" lon="11.020319759845733642578125">
        <ele>1593.5999755859375</ele>
        <time>2026-09-01T07:07:17.000Z</time>
        <extensions>
          <ns3:TrackPointExtension>
            <ns3:hr>153</ns3:hr>
            <ns3:cad>66</ns3:cad>
          </ns3:TrackPointExtension>
        </extensions>
      </trkpt>
      <trkpt lat="47.55448264069855213165283203125" lon="11.02031179703772068023681640625">
        <ele>1594</ele>
        <time>2026-09-01T07:07:18.000Z</time>
        <extensions>
          <ns3:TrackPointExtension>
            <ns3:hr>153</ns3:hr>
            <ns3:cad>66</ns3:cad>
          </ns3:TrackPointExtension>
        </extensions>
      </trkpt>
      <trkpt lat="47.5544783659279346466064453125" lon="11.0203011520206928253173828125">
        <ele>1594.199951171875</ele>
        <time>2026-09-01T07:07:19.000Z</time>
        <extensions>
          <ns3:TrackPointExtension>
            <ns3:hr>154</ns3:hr>
            <ns3:cad>66</ns3:cad>
          </ns3:TrackPointExtension>
        </extensions>
      </trkpt>
      <trkpt lat="47.5544743426144123077392578125" lon="11.0202835500240325927734375">
        <ele>1594.4000244140625</ele>
        <time>2026-09-01T07:07:20.000Z</time>
        <extensions>
          <ns3:TrackPointExtension>
            <ns3:hr>154</ns3:hr>
            <ns3:cad>66</ns3:cad>
          </ns3:TrackPointExtension>
        </extensions>
      </trkpt>
      <trkpt lat="47.5544699840247631072998046875" lon="11.02026552893221378326416015625">
        <ele>1594.800048828125</ele>
        <time>2026-09-01T07:07:21.000Z</time>
        <extensions>
          <ns3:TrackPointExtension>
            <ns3:hr>155</ns3:hr>
            <ns3:cad>66</ns3:cad>
          </ns3:TrackPointExtension>
        </extensions>
      </trkpt>
      <trkpt lat="47.5544629432260990142822265625" lon="11.02024407126009464263916015625">
        <ele>1595.199951171875</ele>
        <time>2026-09-01T07:07:22.000Z</time>
        <extensions>
          <ns3:TrackPointExtension>
            <ns3:hr>155</ns3:hr>
            <ns3:cad>66</ns3:cad>
          </ns3:TrackPointExtension>
        </extensions>
      </trkpt>
      <trkpt lat="47.554458416998386383056640625" lon="11.0202250443398952484130859375">
        <ele>1595.5999755859375</ele>
        <time>2026-09-01T07:07:23.000Z</time>
        <extensions>
          <ns3:TrackPointExtension>
            <ns3:hr>155</ns3:hr>
            <ns3:cad>66</ns3:cad>
          </ns3:TrackPointExtension>
        </extensions>
      </trkpt>
      <trkpt lat="47.55445380695164203643798828125" lon="11.0202076099812984466552734375">
        <ele>1596</ele>
        <time>2026-09-01T07:07:24.000Z</time>
        <extensions>
          <ns3:TrackPointExtension>
            <ns3:hr>155</ns3:hr>
            <ns3:cad>66</ns3:cad>
          </ns3:TrackPointExtension>
        </extensions>
      </trkpt>
      <trkpt lat="47.554449699819087982177734375" lon="11.02018321864306926727294921875">
        <ele>1596.5999755859375</ele>
        <time>2026-09-01T07:07:25.000Z</time>
        <extensions>
          <ns3:TrackPointExtension>
            <ns3:hr>156</ns3:hr>
            <ns3:cad>66</ns3:cad>
          </ns3:TrackPointExtension>
        </extensions>
      </trkpt>
      <trkpt lat="47.55444793961942195892333984375" lon="11.02016888558864593505859375">
        <ele>1597.199951171875</ele>
        <time>2026-09-01T07:07:26.000Z</time>
        <extensions>
          <ns3:TrackPointExtension>
            <ns3:hr>156</ns3:hr>
            <ns3:cad>66</ns3:cad>
          </ns3:TrackPointExtension>
        </extensions>
      </trkpt>
      <trkpt lat="47.55444659851491451263427734375" lon="11.020159833133220672607421875">
        <ele>1597.5999755859375</ele>
        <time>2026-09-01T07:07:27.000Z</time>
        <extensions>
          <ns3:TrackPointExtension>
            <ns3:hr>156</ns3:hr>
            <ns3:cad>64</ns3:cad>
          </ns3:TrackPointExtension>
        </extensions>
      </trkpt>
      <trkpt lat="47.5544418208301067352294921875" lon="11.020142734050750732421875">
        <ele>1598.199951171875</ele>
        <time>2026-09-01T07:07:28.000Z</time>
        <extensions>
          <ns3:TrackPointExtension>
            <ns3:hr>157</ns3:hr>
            <ns3:cad>64</ns3:cad>
          </ns3:TrackPointExtension>
        </extensions>
      </trkpt>
      <trkpt lat="47.55443771369755268096923828125" lon="11.02013401687145233154296875">
        <ele>1598.800048828125</ele>
        <time>2026-09-01T07:07:29.000Z</time>
        <extensions>
          <ns3:TrackPointExtension>
            <ns3:hr>158</ns3:hr>
            <ns3:cad>64</ns3:cad>
          </ns3:TrackPointExtension>
        </extensions>
      </trkpt>
      <trkpt lat="47.55443369038403034210205078125" lon="11.02012152783572673797607421875">
        <ele>1599</ele>
        <time>2026-09-01T07:07:30.000Z</time>
        <extensions>
          <ns3:TrackPointExtension>
            <ns3:hr>159</ns3:hr>
            <ns3:cad>63</ns3:cad>
          </ns3:TrackPointExtension>
        </extensions>
      </trkpt>
      <trkpt lat="47.55442916415631771087646484375" lon="11.02010778151452541351318359375">
        <ele>1599.199951171875</ele>
        <time>2026-09-01T07:07:31.000Z</time>
        <extensions>
          <ns3:TrackPointExtension>
            <ns3:hr>160</ns3:hr>
            <ns3:cad>63</ns3:cad>
          </ns3:TrackPointExtension>
        </extensions>
      </trkpt>
      <trkpt lat="47.5544250570237636566162109375" lon="11.02009554393589496612548828125">
        <ele>1599.4000244140625</ele>
        <time>2026-09-01T07:07:32.000Z</time>
        <extensions>
          <ns3:TrackPointExtension>
            <ns3:hr>160</ns3:hr>
            <ns3:cad>0</ns3:cad>
          </ns3:TrackPointExtension>
        </extensions>
      </trkpt>
      <trkpt lat="47.55441994406282901763916015625" lon="11.0200879164040088653564453125">
        <ele>1599.5999755859375</ele>
        <time>2026-09-01T07:07:33.000Z</time>
        <extensions>
          <ns3:TrackPointExtension>
            <ns3:hr>161</ns3:hr>
            <ns3:cad>0</ns3:cad>
          </ns3:TrackPointExtension>
        </extensions>
      </trkpt>
      <trkpt lat="47.5544149987399578094482421875" lon="11.020084060728549957275390625">
        <ele>1599.800048828125</ele>
        <time>2026-09-01T07:07:34.000Z</time>
        <extensions>
          <ns3:TrackPointExtension>
            <ns3:hr>161</ns3:hr>
            <ns3:cad>0</ns3:cad>
          </ns3:TrackPointExtension>
        </extensions>
      </trkpt>
      <trkpt lat="47.554409801959991455078125" lon="11.02007727138698101043701171875">
        <ele>1600</ele>
        <time>2026-09-01T07:07:35.000Z</time>
        <extensions>
          <ns3:TrackPointExtension>
            <ns3:hr>162</ns3:hr>
            <ns3:cad>0</ns3:cad>
          </ns3:TrackPointExtension>
        </extensions>
      </trkpt>
      <trkpt lat="47.554402761161327362060546875" lon="11.0200718231499195098876953125">
        <ele>1600</ele>
        <time>2026-09-01T07:07:36.000Z</time>
        <extensions>
          <ns3:TrackPointExtension>
            <ns3:hr>162</ns3:hr>
            <ns3:cad>0</ns3:cad>
          </ns3:TrackPointExtension>
        </extensions>
      </trkpt>
      <trkpt lat="47.55439597181975841522216796875" lon="11.02006302215158939361572265625">
        <ele>1600.4000244140625</ele>
        <time>2026-09-01T07:07:37.000Z</time>
        <extensions>
          <ns3:TrackPointExtension>
            <ns3:hr>163</ns3:hr>
            <ns3:cad>70</ns3:cad>
          </ns3:TrackPointExtension>
        </extensions>
      </trkpt>
      <trkpt lat="47.5543901883065700531005859375" lon="11.0200533829629421234130859375">
        <ele>1600.5999755859375</ele>
        <time>2026-09-01T07:07:38.000Z</time>
        <extensions>
          <ns3:TrackPointExtension>
            <ns3:hr>163</ns3:hr>
            <ns3:cad>70</ns3:cad>
          </ns3:TrackPointExtension>
        </extensions>
      </trkpt>
      <trkpt lat="47.55438406951725482940673828125" lon="11.0200450010597705841064453125">
        <ele>1600.800048828125</ele>
        <time>2026-09-01T07:07:39.000Z</time>
        <extensions>
          <ns3:TrackPointExtension>
            <ns3:hr>163</ns3:hr>
            <ns3:cad>70</ns3:cad>
          </ns3:TrackPointExtension>
        </extensions>
      </trkpt>
      <trkpt lat="47.55437820218503475189208984375" lon="11.02003418840467929840087890625">
        <ele>1601</ele>
        <time>2026-09-01T07:07:40.000Z</time>
        <extensions>
          <ns3:TrackPointExtension>
            <ns3:hr>163</ns3:hr>
            <ns3:cad>70</ns3:cad>
          </ns3:TrackPointExtension>
        </extensions>
      </trkpt>
      <trkpt lat="47.554373256862163543701171875" lon="11.0200205259025096893310546875">
        <ele>1601.199951171875</ele>
        <time>2026-09-01T07:07:41.000Z</time>
        <extensions>
          <ns3:TrackPointExtension>
            <ns3:hr>163</ns3:hr>
            <ns3:cad>0</ns3:cad>
          </ns3:TrackPointExtension>
        </extensions>
      </trkpt>
      <trkpt lat="47.554367221891880035400390625" lon="11.02000736631453037261962890625">
        <ele>1601.4000244140625</ele>
        <time>2026-09-01T07:07:42.000Z</time>
        <extensions>
          <ns3:TrackPointExtension>
            <ns3:hr>164</ns3:hr>
            <ns3:cad>0</ns3:cad>
          </ns3:TrackPointExtension>
        </extensions>
      </trkpt>
      <trkpt lat="47.55436353385448455810546875" lon="11.0199885070323944091796875">
        <ele>1601.5999755859375</ele>
        <time>2026-09-01T07:07:43.000Z</time>
        <extensions>
          <ns3:TrackPointExtension>
            <ns3:hr>164</ns3:hr>
            <ns3:cad>0</ns3:cad>
          </ns3:TrackPointExtension>
        </extensions>
      </trkpt>
      <trkpt lat="47.5543643720448017120361328125" lon="11.019979454576969146728515625">
        <ele>1602</ele>
        <time>2026-09-01T07:07:44.000Z</time>
        <extensions>
          <ns3:TrackPointExtension>
            <ns3:hr>165</ns3:hr>
            <ns3:cad>0</ns3:cad>
          </ns3:TrackPointExtension>
        </extensions>
      </trkpt>
      <trkpt lat="47.5543655455112457275390625" lon="11.01997182704508304595947265625">
        <ele>1602.4000244140625</ele>
        <time>2026-09-01T07:07:45.000Z</time>
        <extensions>
          <ns3:TrackPointExtension>
            <ns3:hr>164</ns3:hr>
            <ns3:cad>0</ns3:cad>
          </ns3:TrackPointExtension>
        </extensions>
      </trkpt>
      <trkpt lat="47.5543663837015628814697265625" lon="11.0199625231325626373291015625">
        <ele>1602.5999755859375</ele>
        <time>2026-09-01T07:07:46.000Z</time>
        <extensions>
          <ns3:TrackPointExtension>
            <ns3:hr>164</ns3:hr>
            <ns3:cad>0</ns3:cad>
          </ns3:TrackPointExtension>
        </extensions>
      </trkpt>
      <trkpt lat="47.55436847917735576629638671875" lon="11.01995456032454967498779296875">
        <ele>1603</ele>
        <time>2026-09-01T07:07:47.000Z</time>
        <extensions>
          <ns3:TrackPointExtension>
            <ns3:hr>164</ns3:hr>
            <ns3:cad>0</ns3:cad>
          </ns3:TrackPointExtension>
        </extensions>
      </trkpt>
      <trkpt lat="47.5543694011867046356201171875" lon="11.01994684897363185882568359375">
        <ele>1603.5999755859375</ele>
        <time>2026-09-01T07:07:48.000Z</time>
        <extensions>
          <ns3:TrackPointExtension>
            <ns3:hr>164</ns3:hr>
            <ns3:cad>0</ns3:cad>
          </ns3:TrackPointExtension>
        </extensions>
      </trkpt>
      <trkpt lat="47.55437166430056095123291015625" lon="11.019941903650760650634765625">
        <ele>1604.199951171875</ele>
        <time>2026-09-01T07:07:49.000Z</time>
        <extensions>
          <ns3:TrackPointExtension>
            <ns3:hr>165</ns3:hr>
            <ns3:cad>0</ns3:cad>
          </ns3:TrackPointExtension>
        </extensions>
      </trkpt>
      <trkpt lat="47.55437300540506839752197265625" lon="11.01993016898632049560546875">
        <ele>1604.5999755859375</ele>
        <time>2026-09-01T07:07:50.000Z</time>
        <extensions>
          <ns3:TrackPointExtension>
            <ns3:hr>165</ns3:hr>
            <ns3:cad>0</ns3:cad>
          </ns3:TrackPointExtension>
        </extensions>
      </trkpt>
      <trkpt lat="47.55437417887151241302490234375" lon="11.0199313424527645111083984375">
        <ele>1605</ele>
        <time>2026-09-01T07:07:51.000Z</time>
        <extensions>
          <ns3:TrackPointExtension>
            <ns3:hr>166</ns3:hr>
            <ns3:cad>0</ns3:cad>
          </ns3:TrackPointExtension>
        </extensions>
      </trkpt>
      <trkpt lat="47.554379962384700775146484375" lon="11.019918434321880340576171875">
        <ele>1605.199951171875</ele>
        <time>2026-09-01T07:07:52.000Z</time>
        <extensions>
          <ns3:TrackPointExtension>
            <ns3:hr>168</ns3:hr>
            <ns3:cad>0</ns3:cad>
          </ns3:TrackPointExtension>
        </extensions>
      </trkpt>
      <trkpt lat="47.55438373424112796783447265625" lon="11.0199202783405780792236328125">
        <ele>1605.4000244140625</ele>
        <time>2026-09-01T07:07:53.000Z</time>
        <extensions>
          <ns3:TrackPointExtension>
            <ns3:hr>169</ns3:hr>
            <ns3:cad>0</ns3:cad>
          </ns3:TrackPointExtension>
        </extensions>
      </trkpt>
      <trkpt lat="47.5543791241943836212158203125" lon="11.01992212235927581787109375">
        <ele>1605.5999755859375</ele>
        <time>2026-09-01T07:07:54.000Z</time>
        <extensions>
          <ns3:TrackPointExtension>
            <ns3:hr>170</ns3:hr>
            <ns3:cad>0</ns3:cad>
          </ns3:TrackPointExtension>
        </extensions>
      </trkpt>
      <trkpt lat="47.55438105203211307525634765625" lon="11.0199108906090259552001953125">
        <ele>1605.800048828125</ele>
        <time>2026-09-01T07:07:55.000Z</time>
        <extensions>
          <ns3:TrackPointExtension>
            <ns3:hr>170</ns3:hr>
            <ns3:cad>0</ns3:cad>
          </ns3:TrackPointExtension>
        </extensions>
      </trkpt>
      <trkpt lat="47.55438121967017650604248046875" lon="11.0198994912207126617431640625">
        <ele>1606.199951171875</ele>
        <time>2026-09-01T07:07:56.000Z</time>
        <extensions>
          <ns3:TrackPointExtension>
            <ns3:hr>170</ns3:hr>
            <ns3:cad>0</ns3:cad>
          </ns3:TrackPointExtension>
        </extensions>
      </trkpt>
      <trkpt lat="47.55437971092760562896728515625" lon="11.01989354006946086883544921875">
        <ele>1606.4000244140625</ele>
        <time>2026-09-01T07:07:57.000Z</time>
        <extensions>
          <ns3:TrackPointExtension>
            <ns3:hr>170</ns3:hr>
            <ns3:cad>0</ns3:cad>
          </ns3:TrackPointExtension>
        </extensions>
      </trkpt>
      <trkpt lat="47.55437954328954219818115234375" lon="11.019880883395671844482421875">
        <ele>1606.5999755859375</ele>
        <time>2026-09-01T07:07:58.000Z</time>
        <extensions>
          <ns3:TrackPointExtension>
            <ns3:hr>170</ns3:hr>
            <ns3:cad>0</ns3:cad>
          </ns3:TrackPointExtension>
        </extensions>
      </trkpt>
      <trkpt lat="47.5543791241943836212158203125" lon="11.01986705325543880462646484375">
        <ele>1607.199951171875</ele>
        <time>2026-09-01T07:07:59.000Z</time>
        <extensions>
          <ns3:TrackPointExtension>
            <ns3:hr>170</ns3:hr>
            <ns3:cad>0</ns3:cad>
          </ns3:TrackPointExtension>
        </extensions>
      </trkpt>
      <trkpt lat="47.55438071675598621368408203125" lon="11.01985783316195011138916015625">
        <ele>1607.5999755859375</ele>
        <time>2026-09-01T07:08:00.000Z</time>
        <extensions>
          <ns3:TrackPointExtension>
            <ns3:hr>171</ns3:hr>
            <ns3:cad>0</ns3:cad>
          </ns3:TrackPointExtension>
        </extensions>
      </trkpt>
      <trkpt lat="47.5543744303286075592041015625" lon="11.019854731857776641845703125">
        <ele>1607.5999755859375</ele>
        <time>2026-09-01T07:08:01.000Z</time>
        <extensions>
          <ns3:TrackPointExtension>
            <ns3:hr>171</ns3:hr>
            <ns3:cad>0</ns3:cad>
          </ns3:TrackPointExtension>
        </extensions>
      </trkpt>
      <trkpt lat="47.55436780862510204315185546875" lon="11.019837968051433563232421875">
        <ele>1607.800048828125</ele>
        <time>2026-09-01T07:08:02.000Z</time>
        <extensions>
          <ns3:TrackPointExtension>
            <ns3:hr>172</ns3:hr>
            <ns3:cad>0</ns3:cad>
          </ns3:TrackPointExtension>
        </extensions>
      </trkpt>
      <trkpt lat="47.5543628633022308349609375" lon="11.01981977932155132293701171875">
        <ele>1608</ele>
        <time>2026-09-01T07:08:03.000Z</time>
        <extensions>
          <ns3:TrackPointExtension>
            <ns3:hr>172</ns3:hr>
            <ns3:cad>0</ns3:cad>
          </ns3:TrackPointExtension>
        </extensions>
      </trkpt>
      <trkpt lat="47.55435682833194732666015625" lon="11.01980133913457393646240234375">
        <ele>1608</ele>
        <time>2026-09-01T07:08:04.000Z</time>
        <extensions>
          <ns3:TrackPointExtension>
            <ns3:hr>172</ns3:hr>
            <ns3:cad>0</ns3:cad>
          </ns3:TrackPointExtension>
        </extensions>
      </trkpt>
      <trkpt lat="47.554351799190044403076171875" lon="11.019780971109867095947265625">
        <ele>1608.199951171875</ele>
        <time>2026-09-01T07:08:05.000Z</time>
        <extensions>
          <ns3:TrackPointExtension>
            <ns3:hr>171</ns3:hr>
            <ns3:cad>0</ns3:cad>
          </ns3:TrackPointExtension>
        </extensions>
      </trkpt>
      <trkpt lat="47.55434316582977771759033203125" lon="11.0197677277028560638427734375">
        <ele>1608.4000244140625</ele>
        <time>2026-09-01T07:08:06.000Z</time>
        <extensions>
          <ns3:TrackPointExtension>
            <ns3:hr>169</ns3:hr>
            <ns3:cad>0</ns3:cad>
          </ns3:TrackPointExtension>
        </extensions>
      </trkpt>
      <trkpt lat="47.55433746613562107086181640625" lon="11.01974911987781524658203125">
        <ele>1608.5999755859375</ele>
        <time>2026-09-01T07:08:07.000Z</time>
        <extensions>
          <ns3:TrackPointExtension>
            <ns3:hr>167</ns3:hr>
            <ns3:cad>46</ns3:cad>
          </ns3:TrackPointExtension>
        </extensions>
      </trkpt>
      <trkpt lat="47.5543355382978916168212890625" lon="11.019736714661121368408203125">
        <ele>1609</ele>
        <time>2026-09-01T07:08:08.000Z</time>
        <extensions>
          <ns3:TrackPointExtension>
            <ns3:hr>166</ns3:hr>
            <ns3:cad>46</ns3:cad>
          </ns3:TrackPointExtension>
        </extensions>
      </trkpt>
      <trkpt lat="47.55432866513729095458984375" lon="11.01972774602472782135009765625">
        <ele>1609.199951171875</ele>
        <time>2026-09-01T07:08:09.000Z</time>
        <extensions>
          <ns3:TrackPointExtension>
            <ns3:hr>165</ns3:hr>
            <ns3:cad>48</ns3:cad>
          </ns3:TrackPointExtension>
        </extensions>
      </trkpt>
      <trkpt lat="47.5543226301670074462890625" lon="11.01971819065511226654052734375">
        <ele>1609.4000244140625</ele>
        <time>2026-09-01T07:08:10.000Z</time>
        <extensions>
          <ns3:TrackPointExtension>
            <ns3:hr>164</ns3:hr>
            <ns3:cad>48</ns3:cad>
          </ns3:TrackPointExtension>
        </extensions>
      </trkpt>
      <trkpt lat="47.554314918816089630126953125" lon="11.01970394141972064971923828125">
        <ele>1609.800048828125</ele>
        <time>2026-09-01T07:08:11.000Z</time>
        <extensions>
          <ns3:TrackPointExtension>
            <ns3:hr>164</ns3:hr>
            <ns3:cad>48</ns3:cad>
          </ns3:TrackPointExtension>
        </extensions>
      </trkpt>
      <trkpt lat="47.5543097220361232757568359375" lon="11.01969120092689990997314453125">
        <ele>1610.199951171875</ele>
        <time>2026-09-01T07:08:12.000Z</time>
        <extensions>
          <ns3:TrackPointExtension>
            <ns3:hr>164</ns3:hr>
            <ns3:cad>47</ns3:cad>
          </ns3:TrackPointExtension>
        </extensions>
      </trkpt>
      <trkpt lat="47.55430460907518863677978515625" lon="11.019680388271808624267578125">
        <ele>1610.800048828125</ele>
        <time>2026-09-01T07:08:13.000Z</time>
        <extensions>
          <ns3:TrackPointExtension>
            <ns3:hr>164</ns3:hr>
            <ns3:cad>46</ns3:cad>
          </ns3:TrackPointExtension>
        </extensions>
      </trkpt>
      <trkpt lat="47.554310224950313568115234375" lon="11.0196880996227264404296875">
        <ele>1611.4000244140625</ele>
        <time>2026-09-01T07:08:14.000Z</time>
        <extensions>
          <ns3:TrackPointExtension>
            <ns3:hr>164</ns3:hr>
            <ns3:cad>46</ns3:cad>
          </ns3:TrackPointExtension>
        </extensions>
      </trkpt>
      <trkpt lat="47.55431500263512134552001953125" lon="11.01968080736696720123291015625">
        <ele>1612</ele>
        <time>2026-09-01T07:08:15.000Z</time>
        <extensions>
          <ns3:TrackPointExtension>
            <ns3:hr>164</ns3:hr>
            <ns3:cad>46</ns3:cad>
          </ns3:TrackPointExtension>
        </extensions>
      </trkpt>
      <trkpt lat="47.554323971271514892578125" lon="11.0196761973202228546142578125">
        <ele>1612.5999755859375</ele>
        <time>2026-09-01T07:08:16.000Z</time>
        <extensions>
          <ns3:TrackPointExtension>
            <ns3:hr>163</ns3:hr>
            <ns3:cad>46</ns3:cad>
          </ns3:TrackPointExtension>
        </extensions>
      </trkpt>
      <trkpt lat="47.5543320178985595703125" lon="11.019681394100189208984375">
        <ele>1613</ele>
        <time>2026-09-01T07:08:17.000Z</time>
        <extensions>
          <ns3:TrackPointExtension>
            <ns3:hr>164</ns3:hr>
            <ns3:cad>48</ns3:cad>
          </ns3:TrackPointExtension>
        </extensions>
      </trkpt>
      <trkpt lat="47.5543409027159214019775390625" lon="11.01968030445277690887451171875">
        <ele>1613.199951171875</ele>
        <time>2026-09-01T07:08:18.000Z</time>
        <extensions>
          <ns3:TrackPointExtension>
            <ns3:hr>164</ns3:hr>
            <ns3:cad>48</ns3:cad>
          </ns3:TrackPointExtension>
        </extensions>
      </trkpt>
      <trkpt lat="47.554346434772014617919921875" lon="11.01968298666179180145263671875">
        <ele>1613.199951171875</ele>
        <time>2026-09-01T07:08:19.000Z</time>
        <extensions>
          <ns3:TrackPointExtension>
            <ns3:hr>164</ns3:hr>
            <ns3:cad>48</ns3:cad>
          </ns3:TrackPointExtension>
        </extensions>
      </trkpt>
      <trkpt lat="47.55435339175164699554443359375" lon="11.0196731798350811004638671875">
        <ele>1613.5999755859375</ele>
        <time>2026-09-01T07:08:20.000Z</time>
        <extensions>
          <ns3:TrackPointExtension>
            <ns3:hr>164</ns3:hr>
            <ns3:cad>44</ns3:cad>
          </ns3:TrackPointExtension>
        </extensions>
      </trkpt>
      <trkpt lat="47.55435305647552013397216796875" lon="11.019672341644763946533203125">
        <ele>1614</ele>
        <time>2026-09-01T07:08:21.000Z</time>
        <extensions>
          <ns3:TrackPointExtension>
            <ns3:hr>164</ns3:hr>
            <ns3:cad>44</ns3:cad>
          </ns3:TrackPointExtension>
        </extensions>
      </trkpt>
      <trkpt lat="47.55435657687485218048095703125" lon="11.01966521702706813812255859375">
        <ele>1614.199951171875</ele>
        <time>2026-09-01T07:08:22.000Z</time>
        <extensions>
          <ns3:TrackPointExtension>
            <ns3:hr>164</ns3:hr>
            <ns3:cad>44</ns3:cad>
          </ns3:TrackPointExtension>
        </extensions>
      </trkpt>
      <trkpt lat="47.55436395294964313507080078125" lon="11.01965817622840404510498046875">
        <ele>1614.5999755859375</ele>
        <time>2026-09-01T07:08:23.000Z</time>
        <extensions>
          <ns3:TrackPointExtension>
            <ns3:hr>164</ns3:hr>
            <ns3:cad>0</ns3:cad>
          </ns3:TrackPointExtension>
        </extensions>
      </trkpt>
      <trkpt lat="47.55437032319605350494384765625" lon="11.0196505486965179443359375">
        <ele>1614.800048828125</ele>
        <time>2026-09-01T07:08:24.000Z</time>
        <extensions>
          <ns3:TrackPointExtension>
            <ns3:hr>164</ns3:hr>
            <ns3:cad>0</ns3:cad>
          </ns3:TrackPointExtension>
        </extensions>
      </trkpt>
      <trkpt lat="47.55436797626316547393798828125" lon="11.0196476988494396209716796875">
        <ele>1615.199951171875</ele>
        <time>2026-09-01T07:08:25.000Z</time>
        <extensions>
          <ns3:TrackPointExtension>
            <ns3:hr>164</ns3:hr>
            <ns3:cad>0</ns3:cad>
          </ns3:TrackPointExtension>
        </extensions>
      </trkpt>
      <trkpt lat="47.5543670542538166046142578125" lon="11.019640825688838958740234375">
        <ele>1615.4000244140625</ele>
        <time>2026-09-01T07:08:26.000Z</time>
        <extensions>
          <ns3:TrackPointExtension>
            <ns3:hr>165</ns3:hr>
            <ns3:cad>0</ns3:cad>
          </ns3:TrackPointExtension>
        </extensions>
      </trkpt>
      <trkpt lat="47.5543714128434658050537109375" lon="11.01963018067181110382080078125">
        <ele>1615.800048828125</ele>
        <time>2026-09-01T07:08:27.000Z</time>
        <extensions>
          <ns3:TrackPointExtension>
            <ns3:hr>165</ns3:hr>
            <ns3:cad>0</ns3:cad>
          </ns3:TrackPointExtension>
        </extensions>
      </trkpt>
      <trkpt lat="47.55436948500573635101318359375" lon="11.01962297223508358001708984375">
        <ele>1616.199951171875</ele>
        <time>2026-09-01T07:08:28.000Z</time>
        <extensions>
          <ns3:TrackPointExtension>
            <ns3:hr>166</ns3:hr>
            <ns3:cad>0</ns3:cad>
          </ns3:TrackPointExtension>
        </extensions>
      </trkpt>
      <trkpt lat="47.554370574653148651123046875" lon="11.01961459033191204071044921875">
        <ele>1616.199951171875</ele>
        <time>2026-09-01T07:08:29.000Z</time>
        <extensions>
          <ns3:TrackPointExtension>
            <ns3:hr>166</ns3:hr>
            <ns3:cad>47</ns3:cad>
          </ns3:TrackPointExtension>
        </extensions>
      </trkpt>
      <trkpt lat="47.55436982028186321258544921875" lon="11.01960989646613597869873046875">
        <ele>1616.4000244140625</ele>
        <time>2026-09-01T07:08:30.000Z</time>
        <extensions>
          <ns3:TrackPointExtension>
            <ns3:hr>166</ns3:hr>
            <ns3:cad>47</ns3:cad>
          </ns3:TrackPointExtension>
        </extensions>
      </trkpt>
      <trkpt lat="47.55436881445348262786865234375" lon="11.01960637606680393218994140625">
        <ele>1616.5999755859375</ele>
        <time>2026-09-01T07:08:31.000Z</time>
        <extensions>
          <ns3:TrackPointExtension>
            <ns3:hr>165</ns3:hr>
            <ns3:cad>0</ns3:cad>
          </ns3:TrackPointExtension>
        </extensions>
      </trkpt>
      <trkpt lat="47.55435691215097904205322265625" lon="11.01959279738366603851318359375">
        <ele>1617</ele>
        <time>2026-09-01T07:08:32.000Z</time>
        <extensions>
          <ns3:TrackPointExtension>
            <ns3:hr>165</ns3:hr>
            <ns3:cad>0</ns3:cad>
          </ns3:TrackPointExtension>
        </extensions>
      </trkpt>
      <trkpt lat="47.55435925908386707305908203125" lon="11.0195833258330821990966796875">
        <ele>1617.199951171875</ele>
        <time>2026-09-01T07:08:33.000Z</time>
        <extensions>
          <ns3:TrackPointExtension>
            <ns3:hr>165</ns3:hr>
            <ns3:cad>0</ns3:cad>
          </ns3:TrackPointExtension>
        </extensions>
      </trkpt>
      <trkpt lat="47.55435808561742305755615234375" lon="11.0195742733776569366455078125">
        <ele>1617.800048828125</ele>
        <time>2026-09-01T07:08:34.000Z</time>
        <extensions>
          <ns3:TrackPointExtension>
            <ns3:hr>164</ns3:hr>
            <ns3:cad>0</ns3:cad>
          </ns3:TrackPointExtension>
        </extensions>
      </trkpt>
      <trkpt lat="47.55435557104647159576416015625" lon="11.01956748403608798980712890625">
        <ele>1618</ele>
        <time>2026-09-01T07:08:35.000Z</time>
        <extensions>
          <ns3:TrackPointExtension>
            <ns3:hr>163</ns3:hr>
            <ns3:cad>0</ns3:cad>
          </ns3:TrackPointExtension>
        </extensions>
      </trkpt>
      <trkpt lat="47.554353140294551849365234375" lon="11.0195531509816646575927734375">
        <ele>1618.4000244140625</ele>
        <time>2026-09-01T07:08:36.000Z</time>
        <extensions>
          <ns3:TrackPointExtension>
            <ns3:hr>162</ns3:hr>
            <ns3:cad>0</ns3:cad>
          </ns3:TrackPointExtension>
        </extensions>
      </trkpt>
      <trkpt lat="47.5543509609997272491455078125" lon="11.019542254507541656494140625">
        <ele>1618.5999755859375</ele>
        <time>2026-09-01T07:08:37.000Z</time>
        <extensions>
          <ns3:TrackPointExtension>
            <ns3:hr>162</ns3:hr>
            <ns3:cad>0</ns3:cad>
          </ns3:TrackPointExtension>
        </extensions>
      </trkpt>
      <trkpt lat="47.5543412379920482635498046875" lon="11.0195244848728179931640625">
        <ele>1619</ele>
        <time>2026-09-01T07:08:38.000Z</time>
        <extensions>
          <ns3:TrackPointExtension>
            <ns3:hr>161</ns3:hr>
            <ns3:cad>0</ns3:cad>
          </ns3:TrackPointExtension>
        </extensions>
      </trkpt>
      <trkpt lat="47.55433729849755764007568359375" lon="11.01951702497899532318115234375">
        <ele>1619.199951171875</ele>
        <time>2026-09-01T07:08:39.000Z</time>
        <extensions>
          <ns3:TrackPointExtension>
            <ns3:hr>161</ns3:hr>
            <ns3:cad>0</ns3:cad>
          </ns3:TrackPointExtension>
        </extensions>
      </trkpt>
      <trkpt lat="47.55433813668787479400634765625" lon="11.01949707604944705963134765625">
        <ele>1619.5999755859375</ele>
        <time>2026-09-01T07:08:40.000Z</time>
        <extensions>
          <ns3:TrackPointExtension>
            <ns3:hr>160</ns3:hr>
            <ns3:cad>0</ns3:cad>
          </ns3:TrackPointExtension>
        </extensions>
      </trkpt>
      <trkpt lat="47.55432740785181522369384765625" lon="11.01948232389986515045166015625">
        <ele>1619.800048828125</ele>
        <time>2026-09-01T07:08:41.000Z</time>
        <extensions>
          <ns3:TrackPointExtension>
            <ns3:hr>160</ns3:hr>
            <ns3:cad>0</ns3:cad>
          </ns3:TrackPointExtension>
        </extensions>
      </trkpt>
      <trkpt lat="47.55432740785181522369384765625" lon="11.01947410963475704193115234375">
        <ele>1620.199951171875</ele>
        <time>2026-09-01T07:08:42.000Z</time>
        <extensions>
          <ns3:TrackPointExtension>
            <ns3:hr>159</ns3:hr>
            <ns3:cad>0</ns3:cad>
          </ns3:TrackPointExtension>
        </extensions>
      </trkpt>
      <trkpt lat="47.55432673729956150054931640625" lon="11.01946053095161914825439453125">
        <ele>1620.4000244140625</ele>
        <time>2026-09-01T07:08:43.000Z</time>
        <extensions>
          <ns3:TrackPointExtension>
            <ns3:hr>159</ns3:hr>
            <ns3:cad>73</ns3:cad>
          </ns3:TrackPointExtension>
        </extensions>
      </trkpt>
      <trkpt lat="47.55432556383311748504638671875" lon="11.01945315487682819366455078125">
        <ele>1620.800048828125</ele>
        <time>2026-09-01T07:08:44.000Z</time>
        <extensions>
          <ns3:TrackPointExtension>
            <ns3:hr>158</ns3:hr>
            <ns3:cad>73</ns3:cad>
          </ns3:TrackPointExtension>
        </extensions>
      </trkpt>
      <trkpt lat="47.55432506091892719268798828125" lon="11.019447706639766693115234375">
        <ele>1621</ele>
        <time>2026-09-01T07:08:45.000Z</time>
        <extensions>
          <ns3:TrackPointExtension>
            <ns3:hr>157</ns3:hr>
            <ns3:cad>0</ns3:cad>
          </ns3:TrackPointExtension>
        </extensions>
      </trkpt>
      <trkpt lat="47.5543254800140857696533203125" lon="11.0194404982030391693115234375">
        <ele>1621.4000244140625</ele>
        <time>2026-09-01T07:08:46.000Z</time>
        <extensions>
          <ns3:TrackPointExtension>
            <ns3:hr>158</ns3:hr>
            <ns3:cad>0</ns3:cad>
          </ns3:TrackPointExtension>
        </extensions>
      </trkpt>
      <trkpt lat="47.5543268211185932159423828125" lon="11.019434630870819091796875">
        <ele>1622</ele>
        <time>2026-09-01T07:08:47.000Z</time>
        <extensions>
          <ns3:TrackPointExtension>
            <ns3:hr>158</ns3:hr>
            <ns3:cad>0</ns3:cad>
          </ns3:TrackPointExtension>
        </extensions>
      </trkpt>
      <trkpt lat="47.55432824604213237762451171875" lon="11.01943194866180419921875">
        <ele>1622.199951171875</ele>
        <time>2026-09-01T07:08:48.000Z</time>
        <extensions>
          <ns3:TrackPointExtension>
            <ns3:hr>158</ns3:hr>
            <ns3:cad>0</ns3:cad>
          </ns3:TrackPointExtension>
        </extensions>
      </trkpt>
      <trkpt lat="47.55433176644146442413330078125" lon="11.0194297693669795989990234375">
        <ele>1622.4000244140625</ele>
        <time>2026-09-01T07:08:49.000Z</time>
        <extensions>
          <ns3:TrackPointExtension>
            <ns3:hr>158</ns3:hr>
            <ns3:cad>0</ns3:cad>
          </ns3:TrackPointExtension>
        </extensions>
      </trkpt>
      <trkpt lat="47.5543341971933841705322265625" lon="11.01942121982574462890625">
        <ele>1622.5999755859375</ele>
        <time>2026-09-01T07:08:50.000Z</time>
        <extensions>
          <ns3:TrackPointExtension>
            <ns3:hr>159</ns3:hr>
            <ns3:cad>0</ns3:cad>
          </ns3:TrackPointExtension>
        </extensions>
      </trkpt>
      <trkpt lat="47.55433629266917705535888671875" lon="11.019420213997364044189453125">
        <ele>1622.800048828125</ele>
        <time>2026-09-01T07:08:51.000Z</time>
        <extensions>
          <ns3:TrackPointExtension>
            <ns3:hr>159</ns3:hr>
            <ns3:cad>0</ns3:cad>
          </ns3:TrackPointExtension>
        </extensions>
      </trkpt>
      <trkpt lat="47.55433939397335052490234375" lon="11.0194180347025394439697265625">
        <ele>1622.800048828125</ele>
        <time>2026-09-01T07:08:52.000Z</time>
        <extensions>
          <ns3:TrackPointExtension>
            <ns3:hr>162</ns3:hr>
            <ns3:cad>0</ns3:cad>
          </ns3:TrackPointExtension>
        </extensions>
      </trkpt>
      <trkpt lat="47.5543516315519809722900390625" lon="11.0194118320941925048828125">
        <ele>1623</ele>
        <time>2026-09-01T07:08:53.000Z</time>
        <extensions>
          <ns3:TrackPointExtension>
            <ns3:hr>163</ns3:hr>
            <ns3:cad>0</ns3:cad>
          </ns3:TrackPointExtension>
        </extensions>
      </trkpt>
      <trkpt lat="47.5543559901416301727294921875" lon="11.01940051652491092681884765625">
        <ele>1623.4000244140625</ele>
        <time>2026-09-01T07:08:54.000Z</time>
        <extensions>
          <ns3:TrackPointExtension>
            <ns3:hr>163</ns3:hr>
            <ns3:cad>0</ns3:cad>
          </ns3:TrackPointExtension>
        </extensions>
      </trkpt>
      <trkpt lat="47.5543566606938838958740234375" lon="11.0193984210491180419921875">
        <ele>1623.800048828125</ele>
        <time>2026-09-01T07:08:55.000Z</time>
        <extensions>
          <ns3:TrackPointExtension>
            <ns3:hr>163</ns3:hr>
            <ns3:cad>0</ns3:cad>
          </ns3:TrackPointExtension>
        </extensions>
      </trkpt>
      <trkpt lat="47.5543576665222644805908203125" lon="11.0193962417542934417724609375">
        <ele>1624.199951171875</ele>
        <time>2026-09-01T07:08:56.000Z</time>
        <extensions>
          <ns3:TrackPointExtension>
            <ns3:hr>163</ns3:hr>
            <ns3:cad>46</ns3:cad>
          </ns3:TrackPointExtension>
        </extensions>
      </trkpt>
      <trkpt lat="47.55436194129288196563720703125" lon="11.01939062587916851043701171875">
        <ele>1624.4000244140625</ele>
        <time>2026-09-01T07:08:57.000Z</time>
        <extensions>
          <ns3:TrackPointExtension>
            <ns3:hr>164</ns3:hr>
            <ns3:cad>46</ns3:cad>
          </ns3:TrackPointExtension>
        </extensions>
      </trkpt>
      <trkpt lat="47.55436613224446773529052734375" lon="11.0193905420601367950439453125">
        <ele>1624.5999755859375</ele>
        <time>2026-09-01T07:08:58.000Z</time>
        <extensions>
          <ns3:TrackPointExtension>
            <ns3:hr>165</ns3:hr>
            <ns3:cad>46</ns3:cad>
          </ns3:TrackPointExtension>
        </extensions>
      </trkpt>
      <trkpt lat="47.5543707422912120819091796875" lon="11.0193861834704875946044921875">
        <ele>1625</ele>
        <time>2026-09-01T07:08:59.000Z</time>
        <extensions>
          <ns3:TrackPointExtension>
            <ns3:hr>165</ns3:hr>
            <ns3:cad>0</ns3:cad>
          </ns3:TrackPointExtension>
        </extensions>
      </trkpt>
      <trkpt lat="47.55437686108052730560302734375" lon="11.01938073523342609405517578125">
        <ele>1625.4000244140625</ele>
        <time>2026-09-01T07:09:00.000Z</time>
        <extensions>
          <ns3:TrackPointExtension>
            <ns3:hr>165</ns3:hr>
            <ns3:cad>0</ns3:cad>
          </ns3:TrackPointExtension>
        </extensions>
      </trkpt>
      <trkpt lat="47.55438155494630336761474609375" lon="11.01937687955796718597412109375">
        <ele>1625.5999755859375</ele>
        <time>2026-09-01T07:09:01.000Z</time>
        <extensions>
          <ns3:TrackPointExtension>
            <ns3:hr>164</ns3:hr>
            <ns3:cad>0</ns3:cad>
          </ns3:TrackPointExtension>
        </extensions>
      </trkpt>
      <trkpt lat="47.55439295433461666107177734375" lon="11.019367910921573638916015625">
        <ele>1625.800048828125</ele>
        <time>2026-09-01T07:09:02.000Z</time>
        <extensions>
          <ns3:TrackPointExtension>
            <ns3:hr>164</ns3:hr>
            <ns3:cad>0</ns3:cad>
          </ns3:TrackPointExtension>
        </extensions>
      </trkpt>
      <trkpt lat="47.554399408400058746337890625" lon="11.01935776881873607635498046875">
        <ele>1626</ele>
        <time>2026-09-01T07:09:03.000Z</time>
        <extensions>
          <ns3:TrackPointExtension>
            <ns3:hr>164</ns3:hr>
            <ns3:cad>0</ns3:cad>
          </ns3:TrackPointExtension>
        </extensions>
      </trkpt>
      <trkpt lat="47.55440150387585163116455078125" lon="11.0193503089249134063720703125">
        <ele>1626.199951171875</ele>
        <time>2026-09-01T07:09:04.000Z</time>
        <extensions>
          <ns3:TrackPointExtension>
            <ns3:hr>164</ns3:hr>
            <ns3:cad>0</ns3:cad>
          </ns3:TrackPointExtension>
        </extensions>
      </trkpt>
      <trkpt lat="47.5544019229710102081298828125" lon="11.01934410631656646728515625">
        <ele>1626.4000244140625</ele>
        <time>2026-09-01T07:09:05.000Z</time>
        <extensions>
          <ns3:TrackPointExtension>
            <ns3:hr>164</ns3:hr>
            <ns3:cad>0</ns3:cad>
          </ns3:TrackPointExtension>
        </extensions>
      </trkpt>
      <trkpt lat="47.55440150387585163116455078125" lon="11.01933765225112438201904296875">
        <ele>1626.5999755859375</ele>
        <time>2026-09-01T07:09:06.000Z</time>
        <extensions>
          <ns3:TrackPointExtension>
            <ns3:hr>164</ns3:hr>
            <ns3:cad>0</ns3:cad>
          </ns3:TrackPointExtension>
        </extensions>
      </trkpt>
      <trkpt lat="47.55439815111458301544189453125" lon="11.01932994090020656585693359375">
        <ele>1627</ele>
        <time>2026-09-01T07:09:07.000Z</time>
        <extensions>
          <ns3:TrackPointExtension>
            <ns3:hr>165</ns3:hr>
            <ns3:cad>0</ns3:cad>
          </ns3:TrackPointExtension>
        </extensions>
      </trkpt>
      <trkpt lat="47.55439932458102703094482421875" lon="11.019311584532260894775390625">
        <ele>1627.4000244140625</ele>
        <time>2026-09-01T07:09:08.000Z</time>
        <extensions>
          <ns3:TrackPointExtension>
            <ns3:hr>165</ns3:hr>
            <ns3:cad>0</ns3:cad>
          </ns3:TrackPointExtension>
        </extensions>
      </trkpt>
      <trkpt lat="47.5543958880007266998291015625" lon="11.0192946530878543853759765625">
        <ele>1627.800048828125</ele>
        <time>2026-09-01T07:09:09.000Z</time>
        <extensions>
          <ns3:TrackPointExtension>
            <ns3:hr>165</ns3:hr>
            <ns3:cad>0</ns3:cad>
          </ns3:TrackPointExtension>
        </extensions>
      </trkpt>
      <trkpt lat="47.55439613945782184600830078125" lon="11.0192882828414440155029296875">
        <ele>1628.199951171875</ele>
        <time>2026-09-01T07:09:10.000Z</time>
        <extensions>
          <ns3:TrackPointExtension>
            <ns3:hr>165</ns3:hr>
            <ns3:cad>0</ns3:cad>
          </ns3:TrackPointExtension>
        </extensions>
      </trkpt>
      <trkpt lat="47.55439362488687038421630859375" lon="11.0192804038524627685546875">
        <ele>1628.199951171875</ele>
        <time>2026-09-01T07:09:11.000Z</time>
        <extensions>
          <ns3:TrackPointExtension>
            <ns3:hr>165</ns3:hr>
            <ns3:cad>0</ns3:cad>
          </ns3:TrackPointExtension>
        </extensions>
      </trkpt>
      <trkpt lat="47.55438993684947490692138671875" lon="11.01926942355930805206298828125">
        <ele>1628.4000244140625</ele>
        <time>2026-09-01T07:09:12.000Z</time>
        <extensions>
          <ns3:TrackPointExtension>
            <ns3:hr>164</ns3:hr>
            <ns3:cad>0</ns3:cad>
          </ns3:TrackPointExtension>
        </extensions>
      </trkpt>
      <trkpt lat="47.5543865002691745758056640625" lon="11.01925651542842388153076171875">
        <ele>1628.5999755859375</ele>
        <time>2026-09-01T07:09:13.000Z</time>
        <extensions>
          <ns3:TrackPointExtension>
            <ns3:hr>164</ns3:hr>
            <ns3:cad>65</ns3:cad>
          </ns3:TrackPointExtension>
        </extensions>
      </trkpt>
      <trkpt lat="47.5543838180601596832275390625" lon="11.01924578659236431121826171875">
        <ele>1628.800048828125</ele>
        <time>2026-09-01T07:09:14.000Z</time>
        <extensions>
          <ns3:TrackPointExtension>
            <ns3:hr>163</ns3:hr>
            <ns3:cad>65</ns3:cad>
          </ns3:TrackPointExtension>
        </extensions>
      </trkpt>
      <trkpt lat="47.55438256077468395233154296875" lon="11.01923891343176364898681640625">
        <ele>1629</ele>
        <time>2026-09-01T07:09:15.000Z</time>
        <extensions>
          <ns3:TrackPointExtension>
            <ns3:hr>162</ns3:hr>
            <ns3:cad>65</ns3:cad>
          </ns3:TrackPointExtension>
        </extensions>
      </trkpt>
      <trkpt lat="47.55438457243144512176513671875" lon="11.01923069916665554046630859375">
        <ele>1629.5999755859375</ele>
        <time>2026-09-01T07:09:16.000Z</time>
        <extensions>
          <ns3:TrackPointExtension>
            <ns3:hr>162</ns3:hr>
            <ns3:cad>65</ns3:cad>
          </ns3:TrackPointExtension>
        </extensions>
      </trkpt>
      <trkpt lat="47.55438624881207942962646484375" lon="11.01921963505446910858154296875">
        <ele>1630.199951171875</ele>
        <time>2026-09-01T07:09:17.000Z</time>
        <extensions>
          <ns3:TrackPointExtension>
            <ns3:hr>162</ns3:hr>
            <ns3:cad>65</ns3:cad>
          </ns3:TrackPointExtension>
        </extensions>
      </trkpt>
      <trkpt lat="47.55438725464046001434326171875" lon="11.0192054696381092071533203125">
        <ele>1630.5999755859375</ele>
        <time>2026-09-01T07:09:18.000Z</time>
        <extensions>
          <ns3:TrackPointExtension>
            <ns3:hr>162</ns3:hr>
            <ns3:cad>0</ns3:cad>
          </ns3:TrackPointExtension>
        </extensions>
      </trkpt>
      <trkpt lat="47.55438775755465030670166015625" lon="11.01919214241206645965576171875">
        <ele>1631.199951171875</ele>
        <time>2026-09-01T07:09:19.000Z</time>
        <extensions>
          <ns3:TrackPointExtension>
            <ns3:hr>162</ns3:hr>
            <ns3:cad>0</ns3:cad>
          </ns3:TrackPointExtension>
        </extensions>
      </trkpt>
      <trkpt lat="47.55438926629722118377685546875" lon="11.0191803239285945892333984375">
        <ele>1631.5999755859375</ele>
        <time>2026-09-01T07:09:20.000Z</time>
        <extensions>
          <ns3:TrackPointExtension>
            <ns3:hr>161</ns3:hr>
            <ns3:cad>0</ns3:cad>
          </ns3:TrackPointExtension>
        </extensions>
      </trkpt>
      <trkpt lat="47.55439437925815582275390625" lon="11.01917269639670848846435546875">
        <ele>1631.800048828125</ele>
        <time>2026-09-01T07:09:21.000Z</time>
        <extensions>
          <ns3:TrackPointExtension>
            <ns3:hr>161</ns3:hr>
            <ns3:cad>0</ns3:cad>
          </ns3:TrackPointExtension>
        </extensions>
      </trkpt>
      <trkpt lat="47.5543963909149169921875" lon="11.0191615484654903411865234375">
        <ele>1632.199951171875</ele>
        <time>2026-09-01T07:09:22.000Z</time>
        <extensions>
          <ns3:TrackPointExtension>
            <ns3:hr>161</ns3:hr>
            <ns3:cad>0</ns3:cad>
          </ns3:TrackPointExtension>
        </extensions>
      </trkpt>
      <trkpt lat="47.554394043982028961181640625" lon="11.019157357513904571533203125">
        <ele>1632.5999755859375</ele>
        <time>2026-09-01T07:09:23.000Z</time>
        <extensions>
          <ns3:TrackPointExtension>
            <ns3:hr>160</ns3:hr>
            <ns3:cad>0</ns3:cad>
          </ns3:TrackPointExtension>
        </extensions>
      </trkpt>
      <trkpt lat="47.55439303815364837646484375" lon="11.01915291510522365570068359375">
        <ele>1633.199951171875</ele>
        <time>2026-09-01T07:09:24.000Z</time>
        <extensions>
          <ns3:TrackPointExtension>
            <ns3:hr>158</ns3:hr>
            <ns3:cad>0</ns3:cad>
          </ns3:TrackPointExtension>
        </extensions>
      </trkpt>
      <trkpt lat="47.55438926629722118377685546875" lon="11.01914252154529094696044921875">
        <ele>1633.5999755859375</ele>
        <time>2026-09-01T07:09:25.000Z</time>
        <extensions>
          <ns3:TrackPointExtension>
            <ns3:hr>154</ns3:hr>
            <ns3:cad>0</ns3:cad>
          </ns3:TrackPointExtension>
        </extensions>
      </trkpt>
      <trkpt lat="47.554388344287872314453125" lon="11.0191337205469608306884765625">
        <ele>1634</ele>
        <time>2026-09-01T07:09:26.000Z</time>
        <extensions>
          <ns3:TrackPointExtension>
            <ns3:hr>153</ns3:hr>
            <ns3:cad>0</ns3:cad>
          </ns3:TrackPointExtension>
        </extensions>
      </trkpt>
      <trkpt lat="47.55438792519271373748779296875" lon="11.0191330499947071075439453125">
        <ele>1634.4000244140625</ele>
        <time>2026-09-01T07:09:27.000Z</time>
        <extensions>
          <ns3:TrackPointExtension>
            <ns3:hr>152</ns3:hr>
            <ns3:cad>0</ns3:cad>
          </ns3:TrackPointExtension>
        </extensions>
      </trkpt>
      <trkpt lat="47.5543851591646671295166015625" lon="11.01912793703377246856689453125">
        <ele>1634.5999755859375</ele>
        <time>2026-09-01T07:09:28.000Z</time>
        <extensions>
          <ns3:TrackPointExtension>
            <ns3:hr>152</ns3:hr>
            <ns3:cad>0</ns3:cad>
          </ns3:TrackPointExtension>
        </extensions>
      </trkpt>
      <trkpt lat="47.55438004620373249053955078125" lon="11.0191213153302669525146484375">
        <ele>1634.5999755859375</ele>
        <time>2026-09-01T07:09:29.000Z</time>
        <extensions>
          <ns3:TrackPointExtension>
            <ns3:hr>153</ns3:hr>
            <ns3:cad>51</ns3:cad>
          </ns3:TrackPointExtension>
        </extensions>
      </trkpt>
      <trkpt lat="47.55437116138637065887451171875" lon="11.01912106387317180633544921875">
        <ele>1635</ele>
        <time>2026-09-01T07:09:30.000Z</time>
        <extensions>
          <ns3:TrackPointExtension>
            <ns3:hr>153</ns3:hr>
            <ns3:cad>51</ns3:cad>
          </ns3:TrackPointExtension>
        </extensions>
      </trkpt>
      <trkpt lat="47.55436596460640430450439453125" lon="11.01911989040672779083251953125">
        <ele>1635</ele>
        <time>2026-09-01T07:09:31.000Z</time>
        <extensions>
          <ns3:TrackPointExtension>
            <ns3:hr>153</ns3:hr>
            <ns3:cad>0</ns3:cad>
          </ns3:TrackPointExtension>
        </extensions>
      </trkpt>
      <trkpt lat="47.5543583370745182037353515625" lon="11.0191159509122371673583984375">
        <ele>1635.4000244140625</ele>
        <time>2026-09-01T07:09:32.000Z</time>
        <extensions>
          <ns3:TrackPointExtension>
            <ns3:hr>153</ns3:hr>
            <ns3:cad>0</ns3:cad>
          </ns3:TrackPointExtension>
        </extensions>
      </trkpt>
      <trkpt lat="47.5543509609997272491455078125" lon="11.01910949684679508209228515625">
        <ele>1635.800048828125</ele>
        <time>2026-09-01T07:09:33.000Z</time>
        <extensions>
          <ns3:TrackPointExtension>
            <ns3:hr>154</ns3:hr>
            <ns3:cad>0</ns3:cad>
          </ns3:TrackPointExtension>
        </extensions>
      </trkpt>
      <trkpt lat="47.55434115417301654815673828125" lon="11.01909734308719635009765625">
        <ele>1636</ele>
        <time>2026-09-01T07:09:34.000Z</time>
        <extensions>
          <ns3:TrackPointExtension>
            <ns3:hr>154</ns3:hr>
            <ns3:cad>0</ns3:cad>
          </ns3:TrackPointExtension>
        </extensions>
      </trkpt>
      <trkpt lat="47.554331682622432708740234375" lon="11.019085943698883056640625">
        <ele>1636</ele>
        <time>2026-09-01T07:09:35.000Z</time>
        <extensions>
          <ns3:TrackPointExtension>
            <ns3:hr>155</ns3:hr>
            <ns3:cad>0</ns3:cad>
          </ns3:TrackPointExtension>
        </extensions>
      </trkpt>
      <trkpt lat="47.55432908423244953155517578125" lon="11.0190810821950435638427734375">
        <ele>1636.199951171875</ele>
        <time>2026-09-01T07:09:36.000Z</time>
        <extensions>
          <ns3:TrackPointExtension>
            <ns3:hr>156</ns3:hr>
            <ns3:cad>0</ns3:cad>
          </ns3:TrackPointExtension>
        </extensions>
      </trkpt>
      <trkpt lat="47.5543261505663394927978515625" lon="11.01907278411090373992919921875">
        <ele>1636.199951171875</ele>
        <time>2026-09-01T07:09:37.000Z</time>
        <extensions>
          <ns3:TrackPointExtension>
            <ns3:hr>156</ns3:hr>
            <ns3:cad>0</ns3:cad>
          </ns3:TrackPointExtension>
        </extensions>
      </trkpt>
      <trkpt lat="47.55432472564280033111572265625" lon="11.01906607858836650848388671875">
        <ele>1636.4000244140625</ele>
        <time>2026-09-01T07:09:38.000Z</time>
        <extensions>
          <ns3:TrackPointExtension>
            <ns3:hr>156</ns3:hr>
            <ns3:cad>0</ns3:cad>
          </ns3:TrackPointExtension>
        </extensions>
      </trkpt>
      <trkpt lat="47.5543221272528171539306640625" lon="11.01905333809554576873779296875">
        <ele>1636.800048828125</ele>
        <time>2026-09-01T07:09:39.000Z</time>
        <extensions>
          <ns3:TrackPointExtension>
            <ns3:hr>157</ns3:hr>
            <ns3:cad>0</ns3:cad>
          </ns3:TrackPointExtension>
        </extensions>
      </trkpt>
      <trkpt lat="47.5543308444321155548095703125" lon="11.019025258719921112060546875">
        <ele>1637.199951171875</ele>
        <time>2026-09-01T07:09:40.000Z</time>
        <extensions>
          <ns3:TrackPointExtension>
            <ns3:hr>156</ns3:hr>
            <ns3:cad>0</ns3:cad>
          </ns3:TrackPointExtension>
        </extensions>
      </trkpt>
      <trkpt lat="47.554320283234119415283203125" lon="11.019008494913578033447265625">
        <ele>1637.800048828125</ele>
        <time>2026-09-01T07:09:41.000Z</time>
        <extensions>
          <ns3:TrackPointExtension>
            <ns3:hr>156</ns3:hr>
            <ns3:cad>0</ns3:cad>
          </ns3:TrackPointExtension>
        </extensions>
      </trkpt>
      <trkpt lat="47.5543145835399627685546875" lon="11.01899952627718448638916015625">
        <ele>1638.199951171875</ele>
        <time>2026-09-01T07:09:42.000Z</time>
        <extensions>
          <ns3:TrackPointExtension>
            <ns3:hr>155</ns3:hr>
            <ns3:cad>0</ns3:cad>
          </ns3:TrackPointExtension>
        </extensions>
      </trkpt>
      <trkpt lat="47.5543006695806980133056640625" lon="11.0189804993569850921630859375">
        <ele>1638.5999755859375</ele>
        <time>2026-09-01T07:09:43.000Z</time>
        <extensions>
          <ns3:TrackPointExtension>
            <ns3:hr>154</ns3:hr>
            <ns3:cad>0</ns3:cad>
          </ns3:TrackPointExtension>
        </extensions>
      </trkpt>
      <trkpt lat="47.55430125631392002105712890625" lon="11.0189665853977203369140625">
        <ele>1638.800048828125</ele>
        <time>2026-09-01T07:09:44.000Z</time>
        <extensions>
          <ns3:TrackPointExtension>
            <ns3:hr>153</ns3:hr>
            <ns3:cad>0</ns3:cad>
          </ns3:TrackPointExtension>
        </extensions>
      </trkpt>
      <trkpt lat="47.55429170094430446624755859375" lon="11.0189422778785228729248046875">
        <ele>1639.199951171875</ele>
        <time>2026-09-01T07:09:45.000Z</time>
        <extensions>
          <ns3:TrackPointExtension>
            <ns3:hr>153</ns3:hr>
            <ns3:cad>0</ns3:cad>
          </ns3:TrackPointExtension>
        </extensions>
      </trkpt>
      <trkpt lat="47.55428843200206756591796875" lon="11.01892844773828983306884765625">
        <ele>1639.4000244140625</ele>
        <time>2026-09-01T07:09:46.000Z</time>
        <extensions>
          <ns3:TrackPointExtension>
            <ns3:hr>152</ns3:hr>
            <ns3:cad>0</ns3:cad>
          </ns3:TrackPointExtension>
        </extensions>
      </trkpt>
      <trkpt lat="47.5542839057743549346923828125" lon="11.01891973055899143218994140625">
        <ele>1639.800048828125</ele>
        <time>2026-09-01T07:09:47.000Z</time>
        <extensions>
          <ns3:TrackPointExtension>
            <ns3:hr>152</ns3:hr>
            <ns3:cad>0</ns3:cad>
          </ns3:TrackPointExtension>
        </extensions>
      </trkpt>
      <trkpt lat="47.5542795471847057342529296875" lon="11.01890690624713897705078125">
        <ele>1640</ele>
        <time>2026-09-01T07:09:48.000Z</time>
        <extensions>
          <ns3:TrackPointExtension>
            <ns3:hr>152</ns3:hr>
            <ns3:cad>0</ns3:cad>
          </ns3:TrackPointExtension>
        </extensions>
      </trkpt>
      <trkpt lat="47.55427761934697628021240234375" lon="11.01890011690557003021240234375">
        <ele>1640.199951171875</ele>
        <time>2026-09-01T07:09:49.000Z</time>
        <extensions>
          <ns3:TrackPointExtension>
            <ns3:hr>154</ns3:hr>
            <ns3:cad>49</ns3:cad>
          </ns3:TrackPointExtension>
        </extensions>
      </trkpt>
      <trkpt lat="47.554272674024105072021484375" lon="11.01888234727084636688232421875">
        <ele>1640.4000244140625</ele>
        <time>2026-09-01T07:09:50.000Z</time>
        <extensions>
          <ns3:TrackPointExtension>
            <ns3:hr>156</ns3:hr>
            <ns3:cad>49</ns3:cad>
          </ns3:TrackPointExtension>
        </extensions>
      </trkpt>
      <trkpt lat="47.554271332919597625732421875" lon="11.01886826567351818084716796875">
        <ele>1640.5999755859375</ele>
        <time>2026-09-01T07:09:51.000Z</time>
        <extensions>
          <ns3:TrackPointExtension>
            <ns3:hr>158</ns3:hr>
            <ns3:cad>49</ns3:cad>
          </ns3:TrackPointExtension>
        </extensions>
      </trkpt>
      <trkpt lat="47.5542688183486461639404296875" lon="11.0188537649810314178466796875">
        <ele>1641</ele>
        <time>2026-09-01T07:09:52.000Z</time>
        <extensions>
          <ns3:TrackPointExtension>
            <ns3:hr>161</ns3:hr>
            <ns3:cad>49</ns3:cad>
          </ns3:TrackPointExtension>
        </extensions>
      </trkpt>
      <trkpt lat="47.5542644597589969635009765625" lon="11.01884529925882816314697265625">
        <ele>1641.4000244140625</ele>
        <time>2026-09-01T07:09:53.000Z</time>
        <extensions>
          <ns3:TrackPointExtension>
            <ns3:hr>163</ns3:hr>
            <ns3:cad>49</ns3:cad>
          </ns3:TrackPointExtension>
        </extensions>
      </trkpt>
      <trkpt lat="47.55426052026450634002685546875" lon="11.01884228177368640899658203125">
        <ele>1641.5999755859375</ele>
        <time>2026-09-01T07:09:54.000Z</time>
        <extensions>
          <ns3:TrackPointExtension>
            <ns3:hr>164</ns3:hr>
            <ns3:cad>49</ns3:cad>
          </ns3:TrackPointExtension>
        </extensions>
      </trkpt>
      <trkpt lat="47.55425632931292057037353515625" lon="11.0188329778611660003662109375">
        <ele>1642</ele>
        <time>2026-09-01T07:09:55.000Z</time>
        <extensions>
          <ns3:TrackPointExtension>
            <ns3:hr>164</ns3:hr>
            <ns3:cad>49</ns3:cad>
          </ns3:TrackPointExtension>
        </extensions>
      </trkpt>
      <trkpt lat="47.5542497076094150543212890625" lon="11.018820069730281829833984375">
        <ele>1642</ele>
        <time>2026-09-01T07:09:56.000Z</time>
        <extensions>
          <ns3:TrackPointExtension>
            <ns3:hr>165</ns3:hr>
            <ns3:cad>49</ns3:cad>
          </ns3:TrackPointExtension>
        </extensions>
      </trkpt>
      <trkpt lat="47.55426186136901378631591796875" lon="11.018795929849147796630859375">
        <ele>1642</ele>
        <time>2026-09-01T07:09:57.000Z</time>
        <extensions>
          <ns3:TrackPointExtension>
            <ns3:hr>166</ns3:hr>
            <ns3:cad>50</ns3:cad>
          </ns3:TrackPointExtension>
        </extensions>
      </trkpt>
      <trkpt lat="47.5542647950351238250732421875" lon="11.01877707056701183319091796875">
        <ele>1642</ele>
        <time>2026-09-01T07:09:58.000Z</time>
        <extensions>
          <ns3:TrackPointExtension>
            <ns3:hr>166</ns3:hr>
            <ns3:cad>50</ns3:cad>
          </ns3:TrackPointExtension>
        </extensions>
      </trkpt>
      <trkpt lat="47.554262615740299224853515625" lon="11.0187511704862117767333984375">
        <ele>1642</ele>
        <time>2026-09-01T07:09:59.000Z</time>
        <extensions>
          <ns3:TrackPointExtension>
            <ns3:hr>167</ns3:hr>
            <ns3:cad>50</ns3:cad>
          </ns3:TrackPointExtension>
        </extensions>
      </trkpt>
      <trkpt lat="47.55426420830190181732177734375" lon="11.0187297128140926361083984375">
        <ele>1642.199951171875</ele>
        <time>2026-09-01T07:10:00.000Z</time>
        <extensions>
          <ns3:TrackPointExtension>
            <ns3:hr>167</ns3:hr>
            <ns3:cad>50</ns3:cad>
          </ns3:TrackPointExtension>
        </extensions>
      </trkpt>
      <trkpt lat="47.554261274635791778564453125" lon="11.018701381981372833251953125">
        <ele>1642.199951171875</ele>
        <time>2026-09-01T07:10:01.000Z</time>
        <extensions>
          <ns3:TrackPointExtension>
            <ns3:hr>167</ns3:hr>
            <ns3:cad>69</ns3:cad>
          </ns3:TrackPointExtension>
        </extensions>
      </trkpt>
      <trkpt lat="47.554253898561000823974609375" lon="11.01867548190057277679443359375">
        <ele>1642.4000244140625</ele>
        <time>2026-09-01T07:10:02.000Z</time>
        <extensions>
          <ns3:TrackPointExtension>
            <ns3:hr>167</ns3:hr>
            <ns3:cad>69</ns3:cad>
          </ns3:TrackPointExtension>
        </extensions>
      </trkpt>
      <trkpt lat="47.55424962379038333892822265625" lon="11.0186596401035785675048828125">
        <ele>1642.800048828125</ele>
        <time>2026-09-01T07:10:03.000Z</time>
        <extensions>
          <ns3:TrackPointExtension>
            <ns3:hr>168</ns3:hr>
            <ns3:cad>69</ns3:cad>
          </ns3:TrackPointExtension>
        </extensions>
      </trkpt>
      <trkpt lat="47.554238140583038330078125" lon="11.0186388529837131500244140625">
        <ele>1642.800048828125</ele>
        <time>2026-09-01T07:10:04.000Z</time>
        <extensions>
          <ns3:TrackPointExtension>
            <ns3:hr>168</ns3:hr>
            <ns3:cad>77</ns3:cad>
          </ns3:TrackPointExtension>
        </extensions>
      </trkpt>
      <trkpt lat="47.55422967486083507537841796875" lon="11.0186177305877208709716796875">
        <ele>1643</ele>
        <time>2026-09-01T07:10:05.000Z</time>
        <extensions>
          <ns3:TrackPointExtension>
            <ns3:hr>168</ns3:hr>
            <ns3:cad>78</ns3:cad>
          </ns3:TrackPointExtension>
        </extensions>
      </trkpt>
      <trkpt lat="47.554227411746978759765625" lon="11.0185952670872211456298828125">
        <ele>1643</ele>
        <time>2026-09-01T07:10:06.000Z</time>
        <extensions>
          <ns3:TrackPointExtension>
            <ns3:hr>168</ns3:hr>
            <ns3:cad>77</ns3:cad>
          </ns3:TrackPointExtension>
        </extensions>
      </trkpt>
      <trkpt lat="47.55422531627118587493896484375" lon="11.01856282912194728851318359375">
        <ele>1642.800048828125</ele>
        <time>2026-09-01T07:10:07.000Z</time>
        <extensions>
          <ns3:TrackPointExtension>
            <ns3:hr>169</ns3:hr>
            <ns3:cad>77</ns3:cad>
          </ns3:TrackPointExtension>
        </extensions>
      </trkpt>
      <trkpt lat="47.554221712052822113037109375" lon="11.01853215135633945465087890625">
        <ele>1642.800048828125</ele>
        <time>2026-09-01T07:10:08.000Z</time>
        <extensions>
          <ns3:TrackPointExtension>
            <ns3:hr>169</ns3:hr>
            <ns3:cad>77</ns3:cad>
          </ns3:TrackPointExtension>
        </extensions>
      </trkpt>
      <trkpt lat="47.55422313697636127471923828125" lon="11.018509604036808013916015625">
        <ele>1642.5999755859375</ele>
        <time>2026-09-01T07:10:09.000Z</time>
        <extensions>
          <ns3:TrackPointExtension>
            <ns3:hr>169</ns3:hr>
            <ns3:cad>78</ns3:cad>
          </ns3:TrackPointExtension>
        </extensions>
      </trkpt>
      <trkpt lat="47.55423101596534252166748046875" lon="11.01846978999674320220947265625">
        <ele>1642.5999755859375</ele>
        <time>2026-09-01T07:10:10.000Z</time>
        <extensions>
          <ns3:TrackPointExtension>
            <ns3:hr>169</ns3:hr>
            <ns3:cad>78</ns3:cad>
          </ns3:TrackPointExtension>
        </extensions>
      </trkpt>
      <trkpt lat="47.55423235706984996795654296875" lon="11.01844011805951595306396484375">
        <ele>1642.5999755859375</ele>
        <time>2026-09-01T07:10:11.000Z</time>
        <extensions>
          <ns3:TrackPointExtension>
            <ns3:hr>170</ns3:hr>
            <ns3:cad>78</ns3:cad>
          </ns3:TrackPointExtension>
        </extensions>
      </trkpt>
      <trkpt lat="47.554241158068180084228515625" lon="11.018406338989734649658203125">
        <ele>1642.5999755859375</ele>
        <time>2026-09-01T07:10:12.000Z</time>
        <extensions>
          <ns3:TrackPointExtension>
            <ns3:hr>170</ns3:hr>
            <ns3:cad>78</ns3:cad>
          </ns3:TrackPointExtension>
        </extensions>
      </trkpt>
      <trkpt lat="47.5542483665049076080322265625" lon="11.01836870424449443817138671875">
        <ele>1642.5999755859375</ele>
        <time>2026-09-01T07:10:13.000Z</time>
        <extensions>
          <ns3:TrackPointExtension>
            <ns3:hr>170</ns3:hr>
            <ns3:cad>79</ns3:cad>
          </ns3:TrackPointExtension>
        </extensions>
      </trkpt>
      <trkpt lat="47.55425146780908107757568359375" lon="11.0183416306972503662109375">
        <ele>1642.5999755859375</ele>
        <time>2026-09-01T07:10:14.000Z</time>
        <extensions>
          <ns3:TrackPointExtension>
            <ns3:hr>171</ns3:hr>
            <ns3:cad>79</ns3:cad>
          </ns3:TrackPointExtension>
        </extensions>
      </trkpt>
      <trkpt lat="47.55425783805549144744873046875" lon="11.01831237785518169403076171875">
        <ele>1642.800048828125</ele>
        <time>2026-09-01T07:10:15.000Z</time>
        <extensions>
          <ns3:TrackPointExtension>
            <ns3:hr>172</ns3:hr>
            <ns3:cad>79</ns3:cad>
          </ns3:TrackPointExtension>
        </extensions>
      </trkpt>
      <trkpt lat="47.55427191965281963348388671875" lon="11.0182774253189563751220703125">
        <ele>1642.800048828125</ele>
        <time>2026-09-01T07:10:16.000Z</time>
        <extensions>
          <ns3:TrackPointExtension>
            <ns3:hr>173</ns3:hr>
            <ns3:cad>79</ns3:cad>
          </ns3:TrackPointExtension>
        </extensions>
      </trkpt>
      <trkpt lat="47.55427912808954715728759765625" lon="11.018239371478557586669921875">
        <ele>1643</ele>
        <time>2026-09-01T07:10:17.000Z</time>
        <extensions>
          <ns3:TrackPointExtension>
            <ns3:hr>173</ns3:hr>
            <ns3:cad>79</ns3:cad>
          </ns3:TrackPointExtension>
        </extensions>
      </trkpt>
      <trkpt lat="47.55428181029856204986572265625" lon="11.01820844225585460662841796875">
        <ele>1643.4000244140625</ele>
        <time>2026-09-01T07:10:18.000Z</time>
        <extensions>
          <ns3:TrackPointExtension>
            <ns3:hr>174</ns3:hr>
            <ns3:cad>78</ns3:cad>
          </ns3:TrackPointExtension>
        </extensions>
      </trkpt>
      <trkpt lat="47.55427577532827854156494140625" lon="11.01818145252764225006103515625">
        <ele>1643.5999755859375</ele>
        <time>2026-09-01T07:10:19.000Z</time>
        <extensions>
          <ns3:TrackPointExtension>
            <ns3:hr>174</ns3:hr>
            <ns3:cad>76</ns3:cad>
          </ns3:TrackPointExtension>
        </extensions>
      </trkpt>
      <trkpt lat="47.55426957271993160247802734375" lon="11.01814691908657550811767578125">
        <ele>1643.800048828125</ele>
        <time>2026-09-01T07:10:20.000Z</time>
        <extensions>
          <ns3:TrackPointExtension>
            <ns3:hr>175</ns3:hr>
            <ns3:cad>76</ns3:cad>
          </ns3:TrackPointExtension>
        </extensions>
      </trkpt>
      <trkpt lat="47.554264962673187255859375" lon="11.01811758242547512054443359375">
        <ele>1644</ele>
        <time>2026-09-01T07:10:21.000Z</time>
        <extensions>
          <ns3:TrackPointExtension>
            <ns3:hr>176</ns3:hr>
            <ns3:cad>75</ns3:cad>
          </ns3:TrackPointExtension>
        </extensions>
      </trkpt>
      <trkpt lat="47.5542590953409671783447265625" lon="11.01808137260377407073974609375">
        <ele>1644</ele>
        <time>2026-09-01T07:10:22.000Z</time>
        <extensions>
          <ns3:TrackPointExtension>
            <ns3:hr>176</ns3:hr>
            <ns3:cad>75</ns3:cad>
          </ns3:TrackPointExtension>
        </extensions>
      </trkpt>
      <trkpt lat="47.55425155162811279296875" lon="11.01804181002080440521240234375">
        <ele>1643.800048828125</ele>
        <time>2026-09-01T07:10:23.000Z</time>
        <extensions>
          <ns3:TrackPointExtension>
            <ns3:hr>177</ns3:hr>
            <ns3:cad>75</ns3:cad>
          </ns3:TrackPointExtension>
        </extensions>
      </trkpt>
      <trkpt lat="47.5542413257062435150146484375" lon="11.018003337085247039794921875">
        <ele>1643.800048828125</ele>
        <time>2026-09-01T07:10:24.000Z</time>
        <extensions>
          <ns3:TrackPointExtension>
            <ns3:hr>177</ns3:hr>
            <ns3:cad>76</ns3:cad>
          </ns3:TrackPointExtension>
        </extensions>
      </trkpt>
      <trkpt lat="47.554235123097896575927734375" lon="11.01797274313867092132568359375">
        <ele>1643.800048828125</ele>
        <time>2026-09-01T07:10:25.000Z</time>
        <extensions>
          <ns3:TrackPointExtension>
            <ns3:hr>177</ns3:hr>
            <ns3:cad>76</ns3:cad>
          </ns3:TrackPointExtension>
        </extensions>
      </trkpt>
      <trkpt lat="47.5542295910418033599853515625" lon="11.017935611307621002197265625">
        <ele>1644</ele>
        <time>2026-09-01T07:10:26.000Z</time>
        <extensions>
          <ns3:TrackPointExtension>
            <ns3:hr>178</ns3:hr>
            <ns3:cad>78</ns3:cad>
          </ns3:TrackPointExtension>
        </extensions>
      </trkpt>
      <trkpt lat="47.554231099784374237060546875" lon="11.0179066099226474761962890625">
        <ele>1644.199951171875</ele>
        <time>2026-09-01T07:10:27.000Z</time>
        <extensions>
          <ns3:TrackPointExtension>
            <ns3:hr>178</ns3:hr>
            <ns3:cad>78</ns3:cad>
          </ns3:TrackPointExtension>
        </extensions>
      </trkpt>
      <trkpt lat="47.5542346201837062835693359375" lon="11.01787718944251537322998046875">
        <ele>1644.4000244140625</ele>
        <time>2026-09-01T07:10:28.000Z</time>
        <extensions>
          <ns3:TrackPointExtension>
            <ns3:hr>179</ns3:hr>
            <ns3:cad>78</ns3:cad>
          </ns3:TrackPointExtension>
        </extensions>
      </trkpt>
      <trkpt lat="47.55423436872661113739013671875" lon="11.017849445343017578125">
        <ele>1644.800048828125</ele>
        <time>2026-09-01T07:10:29.000Z</time>
        <extensions>
          <ns3:TrackPointExtension>
            <ns3:hr>179</ns3:hr>
            <ns3:cad>78</ns3:cad>
          </ns3:TrackPointExtension>
        </extensions>
      </trkpt>
      <trkpt lat="47.55422632209956645965576171875" lon="11.01781097240746021270751953125">
        <ele>1645.199951171875</ele>
        <time>2026-09-01T07:10:30.000Z</time>
        <extensions>
          <ns3:TrackPointExtension>
            <ns3:hr>180</ns3:hr>
            <ns3:cad>78</ns3:cad>
          </ns3:TrackPointExtension>
        </extensions>
      </trkpt>
      <trkpt lat="47.5542208738625049591064453125" lon="11.017784066498279571533203125">
        <ele>1645.5999755859375</ele>
        <time>2026-09-01T07:10:31.000Z</time>
        <extensions>
          <ns3:TrackPointExtension>
            <ns3:hr>180</ns3:hr>
            <ns3:cad>78</ns3:cad>
          </ns3:TrackPointExtension>
        </extensions>
      </trkpt>
      <trkpt lat="47.5542121566832065582275390625" lon="11.01776353083550930023193359375">
        <ele>1646</ele>
        <time>2026-09-01T07:10:32.000Z</time>
        <extensions>
          <ns3:TrackPointExtension>
            <ns3:hr>180</ns3:hr>
            <ns3:cad>79</ns3:cad>
          </ns3:TrackPointExtension>
        </extensions>
      </trkpt>
      <trkpt lat="47.5541974045336246490478515625" lon="11.01772807538509368896484375">
        <ele>1646.4000244140625</ele>
        <time>2026-09-01T07:10:33.000Z</time>
        <extensions>
          <ns3:TrackPointExtension>
            <ns3:hr>181</ns3:hr>
            <ns3:cad>79</ns3:cad>
          </ns3:TrackPointExtension>
        </extensions>
      </trkpt>
      <trkpt lat="47.55418323911726474761962890625" lon="11.01770284585654735565185546875">
        <ele>1646.4000244140625</ele>
        <time>2026-09-01T07:10:34.000Z</time>
        <extensions>
          <ns3:TrackPointExtension>
            <ns3:hr>181</ns3:hr>
            <ns3:cad>78</ns3:cad>
          </ns3:TrackPointExtension>
        </extensions>
      </trkpt>
      <trkpt lat="47.55416831932961940765380859375" lon="11.01767904125154018402099609375">
        <ele>1646.4000244140625</ele>
        <time>2026-09-01T07:10:35.000Z</time>
        <extensions>
          <ns3:TrackPointExtension>
            <ns3:hr>181</ns3:hr>
            <ns3:cad>78</ns3:cad>
          </ns3:TrackPointExtension>
        </extensions>
      </trkpt>
      <trkpt lat="47.5541497953236103057861328125" lon="11.01765624247491359710693359375">
        <ele>1646.199951171875</ele>
        <time>2026-09-01T07:10:36.000Z</time>
        <extensions>
          <ns3:TrackPointExtension>
            <ns3:hr>182</ns3:hr>
            <ns3:cad>78</ns3:cad>
          </ns3:TrackPointExtension>
        </extensions>
      </trkpt>
      <trkpt lat="47.55414049141108989715576171875" lon="11.0176283307373523712158203125">
        <ele>1646</ele>
        <time>2026-09-01T07:10:37.000Z</time>
        <extensions>
          <ns3:TrackPointExtension>
            <ns3:hr>182</ns3:hr>
            <ns3:cad>78</ns3:cad>
          </ns3:TrackPointExtension>
        </extensions>
      </trkpt>
      <trkpt lat="47.55413278006017208099365234375" lon="11.01759773679077625274658203125">
        <ele>1645.5999755859375</ele>
        <time>2026-09-01T07:10:38.000Z</time>
        <extensions>
          <ns3:TrackPointExtension>
            <ns3:hr>182</ns3:hr>
            <ns3:cad>79</ns3:cad>
          </ns3:TrackPointExtension>
        </extensions>
      </trkpt>
      <trkpt lat="47.554125152528285980224609375" lon="11.01756571792066097259521484375">
        <ele>1645.5999755859375</ele>
        <time>2026-09-01T07:10:39.000Z</time>
        <extensions>
          <ns3:TrackPointExtension>
            <ns3:hr>182</ns3:hr>
            <ns3:cad>79</ns3:cad>
          </ns3:TrackPointExtension>
        </extensions>
      </trkpt>
      <trkpt lat="47.5541129149496555328369140625" lon="11.0175503790378570556640625">
        <ele>1645.4000244140625</ele>
        <time>2026-09-01T07:10:40.000Z</time>
        <extensions>
          <ns3:TrackPointExtension>
            <ns3:hr>182</ns3:hr>
            <ns3:cad>79</ns3:cad>
          </ns3:TrackPointExtension>
        </extensions>
      </trkpt>
      <trkpt lat="47.55410528741776943206787109375" lon="11.0175260715186595916748046875">
        <ele>1645.199951171875</ele>
        <time>2026-09-01T07:10:41.000Z</time>
        <extensions>
          <ns3:TrackPointExtension>
            <ns3:hr>182</ns3:hr>
            <ns3:cad>79</ns3:cad>
          </ns3:TrackPointExtension>
        </extensions>
      </trkpt>
      <trkpt lat="47.55409925244748592376708984375" lon="11.01749732159078121185302734375">
        <ele>1645.199951171875</ele>
        <time>2026-09-01T07:10:42.000Z</time>
        <extensions>
          <ns3:TrackPointExtension>
            <ns3:hr>181</ns3:hr>
            <ns3:cad>79</ns3:cad>
          </ns3:TrackPointExtension>
        </extensions>
      </trkpt>
      <trkpt lat="47.5540934689342975616455078125" lon="11.01747670210897922515869140625">
        <ele>1645.4000244140625</ele>
        <time>2026-09-01T07:10:43.000Z</time>
        <extensions>
          <ns3:TrackPointExtension>
            <ns3:hr>181</ns3:hr>
            <ns3:cad>79</ns3:cad>
          </ns3:TrackPointExtension>
        </extensions>
      </trkpt>
      <trkpt lat="47.5540874339640140533447265625" lon="11.01745583117008209228515625">
        <ele>1645.4000244140625</ele>
        <time>2026-09-01T07:10:44.000Z</time>
        <extensions>
          <ns3:TrackPointExtension>
            <ns3:hr>181</ns3:hr>
            <ns3:cad>79</ns3:cad>
          </ns3:TrackPointExtension>
        </extensions>
      </trkpt>
      <trkpt lat="47.55408056080341339111328125" lon="11.01743579842150211334228515625">
        <ele>1645.800048828125</ele>
        <time>2026-09-01T07:10:45.000Z</time>
        <extensions>
          <ns3:TrackPointExtension>
            <ns3:hr>181</ns3:hr>
            <ns3:cad>79</ns3:cad>
          </ns3:TrackPointExtension>
        </extensions>
      </trkpt>
      <trkpt lat="47.5540649704635143280029296875" lon="11.017418615520000457763671875">
        <ele>1646</ele>
        <time>2026-09-01T07:10:46.000Z</time>
        <extensions>
          <ns3:TrackPointExtension>
            <ns3:hr>180</ns3:hr>
            <ns3:cad>79</ns3:cad>
          </ns3:TrackPointExtension>
        </extensions>
      </trkpt>
      <trkpt lat="47.55405549891293048858642578125" lon="11.01739841513335704803466796875">
        <ele>1646</ele>
        <time>2026-09-01T07:10:47.000Z</time>
        <extensions>
          <ns3:TrackPointExtension>
            <ns3:hr>180</ns3:hr>
            <ns3:cad>79</ns3:cad>
          </ns3:TrackPointExtension>
        </extensions>
      </trkpt>
      <trkpt lat="47.55405013449490070343017578125" lon="11.0173825733363628387451171875">
        <ele>1645.800048828125</ele>
        <time>2026-09-01T07:10:48.000Z</time>
        <extensions>
          <ns3:TrackPointExtension>
            <ns3:hr>180</ns3:hr>
            <ns3:cad>76</ns3:cad>
          </ns3:TrackPointExtension>
        </extensions>
      </trkpt>
      <trkpt lat="47.55404963158071041107177734375" lon="11.0173634625971317291259765625">
        <ele>1645.800048828125</ele>
        <time>2026-09-01T07:10:49.000Z</time>
        <extensions>
          <ns3:TrackPointExtension>
            <ns3:hr>179</ns3:hr>
            <ns3:cad>75</ns3:cad>
          </ns3:TrackPointExtension>
        </extensions>
      </trkpt>
      <trkpt lat="47.55404862575232982635498046875" lon="11.01733521558344364166259765625">
        <ele>1645.5999755859375</ele>
        <time>2026-09-01T07:10:50.000Z</time>
        <extensions>
          <ns3:TrackPointExtension>
            <ns3:hr>179</ns3:hr>
            <ns3:cad>75</ns3:cad>
          </ns3:TrackPointExtension>
        </extensions>
      </trkpt>
      <trkpt lat="47.554043345153331756591796875" lon="11.01730403490364551544189453125">
        <ele>1645.800048828125</ele>
        <time>2026-09-01T07:10:51.000Z</time>
        <extensions>
          <ns3:TrackPointExtension>
            <ns3:hr>179</ns3:hr>
            <ns3:cad>75</ns3:cad>
          </ns3:TrackPointExtension>
        </extensions>
      </trkpt>
      <trkpt lat="47.55404041148722171783447265625" lon="11.01728173904120922088623046875">
        <ele>1646</ele>
        <time>2026-09-01T07:10:52.000Z</time>
        <extensions>
          <ns3:TrackPointExtension>
            <ns3:hr>178</ns3:hr>
            <ns3:cad>75</ns3:cad>
          </ns3:TrackPointExtension>
        </extensions>
      </trkpt>
      <trkpt lat="47.55403554998338222503662109375" lon="11.01725642569363117218017578125">
        <ele>1646.5999755859375</ele>
        <time>2026-09-01T07:10:53.000Z</time>
        <extensions>
          <ns3:TrackPointExtension>
            <ns3:hr>178</ns3:hr>
            <ns3:cad>75</ns3:cad>
          </ns3:TrackPointExtension>
        </extensions>
      </trkpt>
      <trkpt lat="47.55403085611760616302490234375" lon="11.0172384046018123626708984375">
        <ele>1647</ele>
        <time>2026-09-01T07:10:54.000Z</time>
        <extensions>
          <ns3:TrackPointExtension>
            <ns3:hr>177</ns3:hr>
            <ns3:cad>75</ns3:cad>
          </ns3:TrackPointExtension>
        </extensions>
      </trkpt>
      <trkpt lat="47.55402968265116214752197265625" lon="11.01722910068929195404052734375">
        <ele>1647.199951171875</ele>
        <time>2026-09-01T07:10:55.000Z</time>
        <extensions>
          <ns3:TrackPointExtension>
            <ns3:hr>177</ns3:hr>
            <ns3:cad>75</ns3:cad>
          </ns3:TrackPointExtension>
        </extensions>
      </trkpt>
      <trkpt lat="47.554028593003749847412109375" lon="11.01721904240548610687255859375">
        <ele>1647.4000244140625</ele>
        <time>2026-09-01T07:10:56.000Z</time>
        <extensions>
          <ns3:TrackPointExtension>
            <ns3:hr>177</ns3:hr>
            <ns3:cad>75</ns3:cad>
          </ns3:TrackPointExtension>
        </extensions>
      </trkpt>
      <trkpt lat="47.5540270842611789703369140625" lon="11.0172177851200103759765625">
        <ele>1647.800048828125</ele>
        <time>2026-09-01T07:10:57.000Z</time>
        <extensions>
          <ns3:TrackPointExtension>
            <ns3:hr>177</ns3:hr>
            <ns3:cad>0</ns3:cad>
          </ns3:TrackPointExtension>
        </extensions>
      </trkpt>
      <trkpt lat="47.55402691662311553955078125" lon="11.01720278151333332061767578125">
        <ele>1647.800048828125</ele>
        <time>2026-09-01T07:10:58.000Z</time>
        <extensions>
          <ns3:TrackPointExtension>
            <ns3:hr>176</ns3:hr>
            <ns3:cad>0</ns3:cad>
          </ns3:TrackPointExtension>
        </extensions>
      </trkpt>
      <trkpt lat="47.55402901209890842437744140625" lon="11.0171793960034847259521484375">
        <ele>1648</ele>
        <time>2026-09-01T07:10:59.000Z</time>
        <extensions>
          <ns3:TrackPointExtension>
            <ns3:hr>177</ns3:hr>
            <ns3:cad>0</ns3:cad>
          </ns3:TrackPointExtension>
        </extensions>
      </trkpt>
      <trkpt lat="47.55402088165283203125" lon="11.01715852506458759307861328125">
        <ele>1648.4000244140625</ele>
        <time>2026-09-01T07:11:00.000Z</time>
        <extensions>
          <ns3:TrackPointExtension>
            <ns3:hr>176</ns3:hr>
            <ns3:cad>0</ns3:cad>
          </ns3:TrackPointExtension>
        </extensions>
      </trkpt>
      <trkpt lat="47.55401794798672199249267578125" lon="11.0171371512115001678466796875">
        <ele>1648.5999755859375</ele>
        <time>2026-09-01T07:11:01.000Z</time>
        <extensions>
          <ns3:TrackPointExtension>
            <ns3:hr>175</ns3:hr>
            <ns3:cad>0</ns3:cad>
          </ns3:TrackPointExtension>
        </extensions>
      </trkpt>
      <trkpt lat="47.55401325412094593048095703125" lon="11.017120219767093658447265625">
        <ele>1648.800048828125</ele>
        <time>2026-09-01T07:11:02.000Z</time>
        <extensions>
          <ns3:TrackPointExtension>
            <ns3:hr>174</ns3:hr>
            <ns3:cad>0</ns3:cad>
          </ns3:TrackPointExtension>
        </extensions>
      </trkpt>
      <trkpt lat="47.554003782570362091064453125" lon="11.017098762094974517822265625">
        <ele>1649</ele>
        <time>2026-09-01T07:11:03.000Z</time>
        <extensions>
          <ns3:TrackPointExtension>
            <ns3:hr>173</ns3:hr>
            <ns3:cad>0</ns3:cad>
          </ns3:TrackPointExtension>
        </extensions>
      </trkpt>
      <trkpt lat="47.554000429809093475341796875" lon="11.017070598900318145751953125">
        <ele>1649</ele>
        <time>2026-09-01T07:11:04.000Z</time>
        <extensions>
          <ns3:TrackPointExtension>
            <ns3:hr>172</ns3:hr>
            <ns3:cad>70</ns3:cad>
          </ns3:TrackPointExtension>
        </extensions>
      </trkpt>
      <trkpt lat="47.55399431101977825164794921875" lon="11.0170466266572475433349609375">
        <ele>1648.800048828125</ele>
        <time>2026-09-01T07:11:05.000Z</time>
        <extensions>
          <ns3:TrackPointExtension>
            <ns3:hr>171</ns3:hr>
            <ns3:cad>72</ns3:cad>
          </ns3:TrackPointExtension>
        </extensions>
      </trkpt>
      <trkpt lat="47.553989030420780181884765625" lon="11.01702357642352581024169921875">
        <ele>1648.800048828125</ele>
        <time>2026-09-01T07:11:06.000Z</time>
        <extensions>
          <ns3:TrackPointExtension>
            <ns3:hr>171</ns3:hr>
            <ns3:cad>72</ns3:cad>
          </ns3:TrackPointExtension>
        </extensions>
      </trkpt>
      <trkpt lat="47.55398659966886043548583984375" lon="11.016999520361423492431640625">
        <ele>1648.800048828125</ele>
        <time>2026-09-01T07:11:07.000Z</time>
        <extensions>
          <ns3:TrackPointExtension>
            <ns3:hr>171</ns3:hr>
            <ns3:cad>72</ns3:cad>
          </ns3:TrackPointExtension>
        </extensions>
      </trkpt>
      <trkpt lat="47.5539819896221160888671875" lon="11.01696322672069072723388671875">
        <ele>1648.800048828125</ele>
        <time>2026-09-01T07:11:08.000Z</time>
        <extensions>
          <ns3:TrackPointExtension>
            <ns3:hr>170</ns3:hr>
            <ns3:cad>72</ns3:cad>
          </ns3:TrackPointExtension>
        </extensions>
      </trkpt>
      <trkpt lat="47.55397872067987918853759765625" lon="11.016939841210842132568359375">
        <ele>1649</ele>
        <time>2026-09-01T07:11:09.000Z</time>
        <extensions>
          <ns3:TrackPointExtension>
            <ns3:hr>170</ns3:hr>
            <ns3:cad>73</ns3:cad>
          </ns3:TrackPointExtension>
        </extensions>
      </trkpt>
      <trkpt lat="47.5539694167673587799072265625" lon="11.01691226474940776824951171875">
        <ele>1649</ele>
        <time>2026-09-01T07:11:10.000Z</time>
        <extensions>
          <ns3:TrackPointExtension>
            <ns3:hr>170</ns3:hr>
            <ns3:cad>75</ns3:cad>
          </ns3:TrackPointExtension>
        </extensions>
      </trkpt>
      <trkpt lat="47.55396849475800991058349609375" lon="11.0168900527060031890869140625">
        <ele>1649.4000244140625</ele>
        <time>2026-09-01T07:11:11.000Z</time>
        <extensions>
          <ns3:TrackPointExtension>
            <ns3:hr>171</ns3:hr>
            <ns3:cad>75</ns3:cad>
          </ns3:TrackPointExtension>
        </extensions>
      </trkpt>
      <trkpt lat="47.553970254957675933837890625" lon="11.016862727701663970947265625">
        <ele>1649.5999755859375</ele>
        <time>2026-09-01T07:11:12.000Z</time>
        <extensions>
          <ns3:TrackPointExtension>
            <ns3:hr>171</ns3:hr>
            <ns3:cad>66</ns3:cad>
          </ns3:TrackPointExtension>
        </extensions>
      </trkpt>
      <trkpt lat="47.55397201515734195709228515625" lon="11.016843952238559722900390625">
        <ele>1650</ele>
        <time>2026-09-01T07:11:13.000Z</time>
        <extensions>
          <ns3:TrackPointExtension>
            <ns3:hr>171</ns3:hr>
            <ns3:cad>66</ns3:cad>
          </ns3:TrackPointExtension>
        </extensions>
      </trkpt>
      <trkpt lat="47.55397863686084747314453125" lon="11.01680732332170009613037109375">
        <ele>1650.199951171875</ele>
        <time>2026-09-01T07:11:14.000Z</time>
        <extensions>
          <ns3:TrackPointExtension>
            <ns3:hr>171</ns3:hr>
            <ns3:cad>66</ns3:cad>
          </ns3:TrackPointExtension>
        </extensions>
      </trkpt>
      <trkpt lat="47.5539804808795452117919921875" lon="11.01679491810500621795654296875">
        <ele>1650.5999755859375</ele>
        <time>2026-09-01T07:11:15.000Z</time>
        <extensions>
          <ns3:TrackPointExtension>
            <ns3:hr>170</ns3:hr>
            <ns3:cad>79</ns3:cad>
          </ns3:TrackPointExtension>
        </extensions>
      </trkpt>
      <trkpt lat="47.553980983793735504150390625" lon="11.0167733766138553619384765625">
        <ele>1650.800048828125</ele>
        <time>2026-09-01T07:11:16.000Z</time>
        <extensions>
          <ns3:TrackPointExtension>
            <ns3:hr>170</ns3:hr>
            <ns3:cad>79</ns3:cad>
          </ns3:TrackPointExtension>
        </extensions>
      </trkpt>
      <trkpt lat="47.5539841689169406890869140625" lon="11.0167599655687808990478515625">
        <ele>1651.199951171875</ele>
        <time>2026-09-01T07:11:17.000Z</time>
        <extensions>
          <ns3:TrackPointExtension>
            <ns3:hr>169</ns3:hr>
            <ns3:cad>79</ns3:cad>
          </ns3:TrackPointExtension>
        </extensions>
      </trkpt>
      <trkpt lat="47.5539898686110973358154296875" lon="11.0167546011507511138916015625">
        <ele>1651.5999755859375</ele>
        <time>2026-09-01T07:11:18.000Z</time>
        <extensions>
          <ns3:TrackPointExtension>
            <ns3:hr>169</ns3:hr>
            <ns3:cad>59</ns3:cad>
          </ns3:TrackPointExtension>
        </extensions>
      </trkpt>
      <trkpt lat="47.5539992563426494598388671875" lon="11.01673641242086887359619140625">
        <ele>1652</ele>
        <time>2026-09-01T07:11:19.000Z</time>
        <extensions>
          <ns3:TrackPointExtension>
            <ns3:hr>169</ns3:hr>
            <ns3:cad>0</ns3:cad>
          </ns3:TrackPointExtension>
        </extensions>
      </trkpt>
      <trkpt lat="47.554002441465854644775390625" lon="11.0167291201651096343994140625">
        <ele>1652.4000244140625</ele>
        <time>2026-09-01T07:11:20.000Z</time>
        <extensions>
          <ns3:TrackPointExtension>
            <ns3:hr>169</ns3:hr>
            <ns3:cad>0</ns3:cad>
          </ns3:TrackPointExtension>
        </extensions>
      </trkpt>
      <trkpt lat="47.55400545895099639892578125" lon="11.0167163796722888946533203125">
        <ele>1652.800048828125</ele>
        <time>2026-09-01T07:11:21.000Z</time>
        <extensions>
          <ns3:TrackPointExtension>
            <ns3:hr>169</ns3:hr>
            <ns3:cad>0</ns3:cad>
          </ns3:TrackPointExtension>
        </extensions>
      </trkpt>
      <trkpt lat="47.55400688387453556060791015625" lon="11.01670908741652965545654296875">
        <ele>1652.800048828125</ele>
        <time>2026-09-01T07:11:22.000Z</time>
        <extensions>
          <ns3:TrackPointExtension>
            <ns3:hr>169</ns3:hr>
            <ns3:cad>0</ns3:cad>
          </ns3:TrackPointExtension>
        </extensions>
      </trkpt>
      <trkpt lat="47.55400805734097957611083984375" lon="11.01669886149466037750244140625">
        <ele>1653</ele>
        <time>2026-09-01T07:11:23.000Z</time>
        <extensions>
          <ns3:TrackPointExtension>
            <ns3:hr>168</ns3:hr>
            <ns3:cad>0</ns3:cad>
          </ns3:TrackPointExtension>
        </extensions>
      </trkpt>
      <trkpt lat="47.5540103204548358917236328125" lon="11.016683690249919891357421875">
        <ele>1653.4000244140625</ele>
        <time>2026-09-01T07:11:24.000Z</time>
        <extensions>
          <ns3:TrackPointExtension>
            <ns3:hr>169</ns3:hr>
            <ns3:cad>0</ns3:cad>
          </ns3:TrackPointExtension>
        </extensions>
      </trkpt>
      <trkpt lat="47.55401258356869220733642578125" lon="11.0166701115667819976806640625">
        <ele>1653.5999755859375</ele>
        <time>2026-09-01T07:11:25.000Z</time>
        <extensions>
          <ns3:TrackPointExtension>
            <ns3:hr>169</ns3:hr>
            <ns3:cad>0</ns3:cad>
          </ns3:TrackPointExtension>
        </extensions>
      </trkpt>
      <trkpt lat="47.5540153495967388153076171875" lon="11.01665846072137355804443359375">
        <ele>1653.800048828125</ele>
        <time>2026-09-01T07:11:26.000Z</time>
        <extensions>
          <ns3:TrackPointExtension>
            <ns3:hr>169</ns3:hr>
            <ns3:cad>0</ns3:cad>
          </ns3:TrackPointExtension>
        </extensions>
      </trkpt>
      <trkpt lat="47.5540106557309627532958984375" lon="11.016647480428218841552734375">
        <ele>1654</ele>
        <time>2026-09-01T07:11:27.000Z</time>
        <extensions>
          <ns3:TrackPointExtension>
            <ns3:hr>168</ns3:hr>
            <ns3:cad>0</ns3:cad>
          </ns3:TrackPointExtension>
        </extensions>
      </trkpt>
      <trkpt lat="47.55400478839874267578125" lon="11.01663784123957157135009765625">
        <ele>1654</ele>
        <time>2026-09-01T07:11:28.000Z</time>
        <extensions>
          <ns3:TrackPointExtension>
            <ns3:hr>168</ns3:hr>
            <ns3:cad>0</ns3:cad>
          </ns3:TrackPointExtension>
        </extensions>
      </trkpt>
      <trkpt lat="47.55400654859840869903564453125" lon="11.01661437191069126129150390625">
        <ele>1654</ele>
        <time>2026-09-01T07:11:29.000Z</time>
        <extensions>
          <ns3:TrackPointExtension>
            <ns3:hr>168</ns3:hr>
            <ns3:cad>0</ns3:cad>
          </ns3:TrackPointExtension>
        </extensions>
      </trkpt>
      <trkpt lat="47.554007805883884429931640625" lon="11.01658218540251255035400390625">
        <ele>1654</ele>
        <time>2026-09-01T07:11:30.000Z</time>
        <extensions>
          <ns3:TrackPointExtension>
            <ns3:hr>168</ns3:hr>
            <ns3:cad>53</ns3:cad>
          </ns3:TrackPointExtension>
        </extensions>
      </trkpt>
      <trkpt lat="47.55401358939707279205322265625" lon="11.0165611468255519866943359375">
        <ele>1654</ele>
        <time>2026-09-01T07:11:31.000Z</time>
        <extensions>
          <ns3:TrackPointExtension>
            <ns3:hr>168</ns3:hr>
            <ns3:cad>53</ns3:cad>
          </ns3:TrackPointExtension>
        </extensions>
      </trkpt>
      <trkpt lat="47.5540168583393096923828125" lon="11.0165329836308956146240234375">
        <ele>1654</ele>
        <time>2026-09-01T07:11:32.000Z</time>
        <extensions>
          <ns3:TrackPointExtension>
            <ns3:hr>168</ns3:hr>
            <ns3:cad>53</ns3:cad>
          </ns3:TrackPointExtension>
        </extensions>
      </trkpt>
      <trkpt lat="47.55402029491961002349853515625" lon="11.0165096819400787353515625">
        <ele>1653.800048828125</ele>
        <time>2026-09-01T07:11:33.000Z</time>
        <extensions>
          <ns3:TrackPointExtension>
            <ns3:hr>168</ns3:hr>
            <ns3:cad>53</ns3:cad>
          </ns3:TrackPointExtension>
        </extensions>
      </trkpt>
      <trkpt lat="47.554023228585720062255859375" lon="11.016489565372467041015625">
        <ele>1654</ele>
        <time>2026-09-01T07:11:34.000Z</time>
        <extensions>
          <ns3:TrackPointExtension>
            <ns3:hr>167</ns3:hr>
            <ns3:cad>53</ns3:cad>
          </ns3:TrackPointExtension>
        </extensions>
      </trkpt>
      <trkpt lat="47.5540274195373058319091796875" lon="11.01647070609033107757568359375">
        <ele>1654</ele>
        <time>2026-09-01T07:11:35.000Z</time>
        <extensions>
          <ns3:TrackPointExtension>
            <ns3:hr>167</ns3:hr>
            <ns3:cad>69</ns3:cad>
          </ns3:TrackPointExtension>
        </extensions>
      </trkpt>
      <trkpt lat="47.55403337068855762481689453125" lon="11.0164448060095310211181640625">
        <ele>1654.199951171875</ele>
        <time>2026-09-01T07:11:36.000Z</time>
        <extensions>
          <ns3:TrackPointExtension>
            <ns3:hr>166</ns3:hr>
            <ns3:cad>72</ns3:cad>
          </ns3:TrackPointExtension>
        </extensions>
      </trkpt>
      <trkpt lat="47.55403588525950908660888671875" lon="11.0164313949644565582275390625">
        <ele>1654.4000244140625</ele>
        <time>2026-09-01T07:11:37.000Z</time>
        <extensions>
          <ns3:TrackPointExtension>
            <ns3:hr>166</ns3:hr>
            <ns3:cad>73</ns3:cad>
          </ns3:TrackPointExtension>
        </extensions>
      </trkpt>
      <trkpt lat="47.5540425069630146026611328125" lon="11.01642510853707790374755859375">
        <ele>1654.5999755859375</ele>
        <time>2026-09-01T07:11:38.000Z</time>
        <extensions>
          <ns3:TrackPointExtension>
            <ns3:hr>166</ns3:hr>
            <ns3:cad>73</ns3:cad>
          </ns3:TrackPointExtension>
        </extensions>
      </trkpt>
      <trkpt lat="47.55404560826718807220458984375" lon="11.01641236804425716400146484375">
        <ele>1655</ele>
        <time>2026-09-01T07:11:39.000Z</time>
        <extensions>
          <ns3:TrackPointExtension>
            <ns3:hr>166</ns3:hr>
            <ns3:cad>75</ns3:cad>
          </ns3:TrackPointExtension>
        </extensions>
      </trkpt>
      <trkpt lat="47.554048039019107818603515625" lon="11.01639258675277233123779296875">
        <ele>1655</ele>
        <time>2026-09-01T07:11:40.000Z</time>
        <extensions>
          <ns3:TrackPointExtension>
            <ns3:hr>165</ns3:hr>
            <ns3:cad>75</ns3:cad>
          </ns3:TrackPointExtension>
        </extensions>
      </trkpt>
      <trkpt lat="47.55405482836067676544189453125" lon="11.01637247018516063690185546875">
        <ele>1655.199951171875</ele>
        <time>2026-09-01T07:11:41.000Z</time>
        <extensions>
          <ns3:TrackPointExtension>
            <ns3:hr>165</ns3:hr>
            <ns3:cad>75</ns3:cad>
          </ns3:TrackPointExtension>
        </extensions>
      </trkpt>
      <trkpt lat="47.554062120616436004638671875" lon="11.01636023260653018951416015625">
        <ele>1655.4000244140625</ele>
        <time>2026-09-01T07:11:42.000Z</time>
        <extensions>
          <ns3:TrackPointExtension>
            <ns3:hr>165</ns3:hr>
            <ns3:cad>0</ns3:cad>
          </ns3:TrackPointExtension>
        </extensions>
      </trkpt>
      <trkpt lat="47.5540646351873874664306640625" lon="11.0163576342165470123291015625">
        <ele>1655.5999755859375</ele>
        <time>2026-09-01T07:11:43.000Z</time>
        <extensions>
          <ns3:TrackPointExtension>
            <ns3:hr>165</ns3:hr>
            <ns3:cad>0</ns3:cad>
          </ns3:TrackPointExtension>
        </extensions>
      </trkpt>
      <trkpt lat="47.5540726818144321441650390625" lon="11.0163479112088680267333984375">
        <ele>1655.5999755859375</ele>
        <time>2026-09-01T07:11:44.000Z</time>
        <extensions>
          <ns3:TrackPointExtension>
            <ns3:hr>165</ns3:hr>
            <ns3:cad>0</ns3:cad>
          </ns3:TrackPointExtension>
        </extensions>
      </trkpt>
      <trkpt lat="47.554077543318271636962890625" lon="11.01633877493441104888916015625">
        <ele>1656</ele>
        <time>2026-09-01T07:11:45.000Z</time>
        <extensions>
          <ns3:TrackPointExtension>
            <ns3:hr>165</ns3:hr>
            <ns3:cad>0</ns3:cad>
          </ns3:TrackPointExtension>
        </extensions>
      </trkpt>
      <trkpt lat="47.55408056080341339111328125" lon="11.0163291357457637786865234375">
        <ele>1656.199951171875</ele>
        <time>2026-09-01T07:11:46.000Z</time>
        <extensions>
          <ns3:TrackPointExtension>
            <ns3:hr>166</ns3:hr>
            <ns3:cad>0</ns3:cad>
          </ns3:TrackPointExtension>
        </extensions>
      </trkpt>
      <trkpt lat="47.5540867634117603302001953125" lon="11.01631446741521358489990234375">
        <ele>1656.4000244140625</ele>
        <time>2026-09-01T07:11:47.000Z</time>
        <extensions>
          <ns3:TrackPointExtension>
            <ns3:hr>167</ns3:hr>
            <ns3:cad>0</ns3:cad>
          </ns3:TrackPointExtension>
        </extensions>
      </trkpt>
      <trkpt lat="47.55409237928688526153564453125" lon="11.01629870943725109100341796875">
        <ele>1656.800048828125</ele>
        <time>2026-09-01T07:11:48.000Z</time>
        <extensions>
          <ns3:TrackPointExtension>
            <ns3:hr>167</ns3:hr>
            <ns3:cad>0</ns3:cad>
          </ns3:TrackPointExtension>
        </extensions>
      </trkpt>
      <trkpt lat="47.55409506149590015411376953125" lon="11.0162895731627941131591796875">
        <ele>1657</ele>
        <time>2026-09-01T07:11:49.000Z</time>
        <extensions>
          <ns3:TrackPointExtension>
            <ns3:hr>167</ns3:hr>
            <ns3:cad>0</ns3:cad>
          </ns3:TrackPointExtension>
        </extensions>
      </trkpt>
      <trkpt lat="47.55408282391726970672607421875" lon="11.01626090705394744873046875">
        <ele>1657.199951171875</ele>
        <time>2026-09-01T07:11:50.000Z</time>
        <extensions>
          <ns3:TrackPointExtension>
            <ns3:hr>167</ns3:hr>
            <ns3:cad>0</ns3:cad>
          </ns3:TrackPointExtension>
        </extensions>
      </trkpt>
      <trkpt lat="47.55408097989857196807861328125" lon="11.01624540053308010101318359375">
        <ele>1657.4000244140625</ele>
        <time>2026-09-01T07:11:51.000Z</time>
        <extensions>
          <ns3:TrackPointExtension>
            <ns3:hr>167</ns3:hr>
            <ns3:cad>0</ns3:cad>
          </ns3:TrackPointExtension>
        </extensions>
      </trkpt>
      <trkpt lat="47.5540812313556671142578125" lon="11.0162292234599590301513671875">
        <ele>1657.4000244140625</ele>
        <time>2026-09-01T07:11:52.000Z</time>
        <extensions>
          <ns3:TrackPointExtension>
            <ns3:hr>167</ns3:hr>
            <ns3:cad>49</ns3:cad>
          </ns3:TrackPointExtension>
        </extensions>
      </trkpt>
      <trkpt lat="47.55408299155533313751220703125" lon="11.016211621463298797607421875">
        <ele>1657.4000244140625</ele>
        <time>2026-09-01T07:11:53.000Z</time>
        <extensions>
          <ns3:TrackPointExtension>
            <ns3:hr>167</ns3:hr>
            <ns3:cad>49</ns3:cad>
          </ns3:TrackPointExtension>
        </extensions>
      </trkpt>
      <trkpt lat="47.5540844164788722991943359375" lon="11.0161967016756534576416015625">
        <ele>1657.4000244140625</ele>
        <time>2026-09-01T07:11:54.000Z</time>
        <extensions>
          <ns3:TrackPointExtension>
            <ns3:hr>167</ns3:hr>
            <ns3:cad>48</ns3:cad>
          </ns3:TrackPointExtension>
        </extensions>
      </trkpt>
      <trkpt lat="47.55408701486885547637939453125" lon="11.01618203334510326385498046875">
        <ele>1657.800048828125</ele>
        <time>2026-09-01T07:11:55.000Z</time>
        <extensions>
          <ns3:TrackPointExtension>
            <ns3:hr>167</ns3:hr>
            <ns3:cad>48</ns3:cad>
          </ns3:TrackPointExtension>
        </extensions>
      </trkpt>
      <trkpt lat="47.55408936180174350738525390625" lon="11.01617130450904369354248046875">
        <ele>1658</ele>
        <time>2026-09-01T07:11:56.000Z</time>
        <extensions>
          <ns3:TrackPointExtension>
            <ns3:hr>166</ns3:hr>
            <ns3:cad>48</ns3:cad>
          </ns3:TrackPointExtension>
        </extensions>
      </trkpt>
      <trkpt lat="47.55409254692494869232177734375" lon="11.0161601565778255462646484375">
        <ele>1658.4000244140625</ele>
        <time>2026-09-01T07:11:57.000Z</time>
        <extensions>
          <ns3:TrackPointExtension>
            <ns3:hr>167</ns3:hr>
            <ns3:cad>48</ns3:cad>
          </ns3:TrackPointExtension>
        </extensions>
      </trkpt>
      <trkpt lat="47.554094977676868438720703125" lon="11.016151607036590576171875">
        <ele>1658.5999755859375</ele>
        <time>2026-09-01T07:11:58.000Z</time>
        <extensions>
          <ns3:TrackPointExtension>
            <ns3:hr>167</ns3:hr>
            <ns3:cad>48</ns3:cad>
          </ns3:TrackPointExtension>
        </extensions>
      </trkpt>
      <trkpt lat="47.55409774370491504669189453125" lon="11.0161417163908481597900390625">
        <ele>1658.5999755859375</ele>
        <time>2026-09-01T07:11:59.000Z</time>
        <extensions>
          <ns3:TrackPointExtension>
            <ns3:hr>166</ns3:hr>
            <ns3:cad>0</ns3:cad>
          </ns3:TrackPointExtension>
        </extensions>
      </trkpt>
      <trkpt lat="47.5541011802852153778076171875" lon="11.01613216102123260498046875">
        <ele>1658.800048828125</ele>
        <time>2026-09-01T07:12:00.000Z</time>
        <extensions>
          <ns3:TrackPointExtension>
            <ns3:hr>167</ns3:hr>
            <ns3:cad>0</ns3:cad>
          </ns3:TrackPointExtension>
        </extensions>
      </trkpt>
      <trkpt lat="47.554105706512928009033203125" lon="11.01612151600420475006103515625">
        <ele>1659</ele>
        <time>2026-09-01T07:12:01.000Z</time>
        <extensions>
          <ns3:TrackPointExtension>
            <ns3:hr>166</ns3:hr>
            <ns3:cad>0</ns3:cad>
          </ns3:TrackPointExtension>
        </extensions>
      </trkpt>
      <trkpt lat="47.5541080534458160400390625" lon="11.01611631922423839569091796875">
        <ele>1659.199951171875</ele>
        <time>2026-09-01T07:12:02.000Z</time>
        <extensions>
          <ns3:TrackPointExtension>
            <ns3:hr>165</ns3:hr>
            <ns3:cad>0</ns3:cad>
          </ns3:TrackPointExtension>
        </extensions>
      </trkpt>
      <trkpt lat="47.554107047617435455322265625" lon="11.01611212827265262603759765625">
        <ele>1659.5999755859375</ele>
        <time>2026-09-01T07:12:03.000Z</time>
        <extensions>
          <ns3:TrackPointExtension>
            <ns3:hr>164</ns3:hr>
            <ns3:cad>42</ns3:cad>
          </ns3:TrackPointExtension>
        </extensions>
      </trkpt>
      <trkpt lat="47.5541122443974018096923828125" lon="11.01610089652240276336669921875">
        <ele>1659.800048828125</ele>
        <time>2026-09-01T07:12:04.000Z</time>
        <extensions>
          <ns3:TrackPointExtension>
            <ns3:hr>160</ns3:hr>
            <ns3:cad>42</ns3:cad>
          </ns3:TrackPointExtension>
        </extensions>
      </trkpt>
      <trkpt lat="47.55411568097770214080810546875" lon="11.01609033532440662384033203125">
        <ele>1660</ele>
        <time>2026-09-01T07:12:05.000Z</time>
        <extensions>
          <ns3:TrackPointExtension>
            <ns3:hr>159</ns3:hr>
            <ns3:cad>48</ns3:cad>
          </ns3:TrackPointExtension>
        </extensions>
      </trkpt>
      <trkpt lat="47.5541166029870510101318359375" lon="11.0160817019641399383544921875">
        <ele>1660</ele>
        <time>2026-09-01T07:12:06.000Z</time>
        <extensions>
          <ns3:TrackPointExtension>
            <ns3:hr>158</ns3:hr>
            <ns3:cad>48</ns3:cad>
          </ns3:TrackPointExtension>
        </extensions>
      </trkpt>
      <trkpt lat="47.55411601625382900238037109375" lon="11.0160659439861774444580078125">
        <ele>1660</ele>
        <time>2026-09-01T07:12:07.000Z</time>
        <extensions>
          <ns3:TrackPointExtension>
            <ns3:hr>157</ns3:hr>
            <ns3:cad>48</ns3:cad>
          </ns3:TrackPointExtension>
        </extensions>
      </trkpt>
      <trkpt lat="47.5541186146438121795654296875" lon="11.016048006713390350341796875">
        <ele>1660.199951171875</ele>
        <time>2026-09-01T07:12:08.000Z</time>
        <extensions>
          <ns3:TrackPointExtension>
            <ns3:hr>157</ns3:hr>
            <ns3:cad>48</ns3:cad>
          </ns3:TrackPointExtension>
        </extensions>
      </trkpt>
      <trkpt lat="47.5541192851960659027099609375" lon="11.0160330869257450103759765625">
        <ele>1660.5999755859375</ele>
        <time>2026-09-01T07:12:09.000Z</time>
        <extensions>
          <ns3:TrackPointExtension>
            <ns3:hr>157</ns3:hr>
            <ns3:cad>48</ns3:cad>
          </ns3:TrackPointExtension>
        </extensions>
      </trkpt>
      <trkpt lat="47.554119788110256195068359375" lon="11.0160163231194019317626953125">
        <ele>1661</ele>
        <time>2026-09-01T07:12:10.000Z</time>
        <extensions>
          <ns3:TrackPointExtension>
            <ns3:hr>157</ns3:hr>
            <ns3:cad>48</ns3:cad>
          </ns3:TrackPointExtension>
        </extensions>
      </trkpt>
      <trkpt lat="47.55411970429122447967529296875" lon="11.0160116292536258697509765625">
        <ele>1661.4000244140625</ele>
        <time>2026-09-01T07:12:11.000Z</time>
        <extensions>
          <ns3:TrackPointExtension>
            <ns3:hr>157</ns3:hr>
            <ns3:cad>48</ns3:cad>
          </ns3:TrackPointExtension>
        </extensions>
      </trkpt>
      <trkpt lat="47.554121129214763641357421875" lon="11.01599746383726596832275390625">
        <ele>1661.5999755859375</ele>
        <time>2026-09-01T07:12:12.000Z</time>
        <extensions>
          <ns3:TrackPointExtension>
            <ns3:hr>156</ns3:hr>
            <ns3:cad>71</ns3:cad>
          </ns3:TrackPointExtension>
        </extensions>
      </trkpt>
      <trkpt lat="47.55412749946117401123046875" lon="11.01597701199352741241455078125">
        <ele>1661.800048828125</ele>
        <time>2026-09-01T07:12:13.000Z</time>
        <extensions>
          <ns3:TrackPointExtension>
            <ns3:hr>156</ns3:hr>
            <ns3:cad>71</ns3:cad>
          </ns3:TrackPointExtension>
        </extensions>
      </trkpt>
      <trkpt lat="47.5541310198605060577392578125" lon="11.01596427150070667266845703125">
        <ele>1661.800048828125</ele>
        <time>2026-09-01T07:12:14.000Z</time>
        <extensions>
          <ns3:TrackPointExtension>
            <ns3:hr>157</ns3:hr>
            <ns3:cad>71</ns3:cad>
          </ns3:TrackPointExtension>
        </extensions>
      </trkpt>
      <trkpt lat="47.55412909202277660369873046875" lon="11.0159425623714923858642578125">
        <ele>1661.800048828125</ele>
        <time>2026-09-01T07:12:15.000Z</time>
        <extensions>
          <ns3:TrackPointExtension>
            <ns3:hr>157</ns3:hr>
            <ns3:cad>71</ns3:cad>
          </ns3:TrackPointExtension>
        </extensions>
      </trkpt>
      <trkpt lat="47.55412708036601543426513671875" lon="11.01593057624995708465576171875">
        <ele>1662</ele>
        <time>2026-09-01T07:12:16.000Z</time>
        <extensions>
          <ns3:TrackPointExtension>
            <ns3:hr>157</ns3:hr>
            <ns3:cad>62</ns3:cad>
          </ns3:TrackPointExtension>
        </extensions>
      </trkpt>
      <trkpt lat="47.55412775091826915740966796875" lon="11.01591113023459911346435546875">
        <ele>1662.199951171875</ele>
        <time>2026-09-01T07:12:17.000Z</time>
        <extensions>
          <ns3:TrackPointExtension>
            <ns3:hr>158</ns3:hr>
            <ns3:cad>0</ns3:cad>
          </ns3:TrackPointExtension>
        </extensions>
      </trkpt>
      <trkpt lat="47.55412171594798564910888671875" lon="11.01588615216314792633056640625">
        <ele>1662.4000244140625</ele>
        <time>2026-09-01T07:12:18.000Z</time>
        <extensions>
          <ns3:TrackPointExtension>
            <ns3:hr>158</ns3:hr>
            <ns3:cad>0</ns3:cad>
          </ns3:TrackPointExtension>
        </extensions>
      </trkpt>
      <trkpt lat="47.5541187822818756103515625" lon="11.01586201228201389312744140625">
        <ele>1662.5999755859375</ele>
        <time>2026-09-01T07:12:19.000Z</time>
        <extensions>
          <ns3:TrackPointExtension>
            <ns3:hr>158</ns3:hr>
            <ns3:cad>0</ns3:cad>
          </ns3:TrackPointExtension>
        </extensions>
      </trkpt>
      <trkpt lat="47.55411333404481410980224609375" lon="11.015841476619243621826171875">
        <ele>1662.5999755859375</ele>
        <time>2026-09-01T07:12:20.000Z</time>
        <extensions>
          <ns3:TrackPointExtension>
            <ns3:hr>158</ns3:hr>
            <ns3:cad>0</ns3:cad>
          </ns3:TrackPointExtension>
        </extensions>
      </trkpt>
      <trkpt lat="47.55410872399806976318359375" lon="11.01582345552742481231689453125">
        <ele>1662.800048828125</ele>
        <time>2026-09-01T07:12:21.000Z</time>
        <extensions>
          <ns3:TrackPointExtension>
            <ns3:hr>158</ns3:hr>
            <ns3:cad>0</ns3:cad>
          </ns3:TrackPointExtension>
        </extensions>
      </trkpt>
      <trkpt lat="47.5541025213897228240966796875" lon="11.0158020816743373870849609375">
        <ele>1662.800048828125</ele>
        <time>2026-09-01T07:12:22.000Z</time>
        <extensions>
          <ns3:TrackPointExtension>
            <ns3:hr>159</ns3:hr>
            <ns3:cad>0</ns3:cad>
          </ns3:TrackPointExtension>
        </extensions>
      </trkpt>
      <trkpt lat="47.55409690551459789276123046875" lon="11.0157896764576435089111328125">
        <ele>1662.5999755859375</ele>
        <time>2026-09-01T07:12:23.000Z</time>
        <extensions>
          <ns3:TrackPointExtension>
            <ns3:hr>159</ns3:hr>
            <ns3:cad>0</ns3:cad>
          </ns3:TrackPointExtension>
        </extensions>
      </trkpt>
      <trkpt lat="47.55408986471593379974365234375" lon="11.01577735505998134613037109375">
        <ele>1662.5999755859375</ele>
        <time>2026-09-01T07:12:24.000Z</time>
        <extensions>
          <ns3:TrackPointExtension>
            <ns3:hr>159</ns3:hr>
            <ns3:cad>0</ns3:cad>
          </ns3:TrackPointExtension>
        </extensions>
      </trkpt>
      <trkpt lat="47.55408584140241146087646484375" lon="11.0157605074346065521240234375">
        <ele>1662.5999755859375</ele>
        <time>2026-09-01T07:12:25.000Z</time>
        <extensions>
          <ns3:TrackPointExtension>
            <ns3:hr>158</ns3:hr>
            <ns3:cad>66</ns3:cad>
          </ns3:TrackPointExtension>
        </extensions>
      </trkpt>
      <trkpt lat="47.5540783815085887908935546875" lon="11.0157400555908679962158203125">
        <ele>1662.5999755859375</ele>
        <time>2026-09-01T07:12:26.000Z</time>
        <extensions>
          <ns3:TrackPointExtension>
            <ns3:hr>159</ns3:hr>
            <ns3:cad>66</ns3:cad>
          </ns3:TrackPointExtension>
        </extensions>
      </trkpt>
      <trkpt lat="47.554065473377704620361328125" lon="11.01572086103260517120361328125">
        <ele>1662.800048828125</ele>
        <time>2026-09-01T07:12:27.000Z</time>
        <extensions>
          <ns3:TrackPointExtension>
            <ns3:hr>159</ns3:hr>
            <ns3:cad>66</ns3:cad>
          </ns3:TrackPointExtension>
        </extensions>
      </trkpt>
      <trkpt lat="47.5540596060454845428466796875" lon="11.01570191793143749237060546875">
        <ele>1662.800048828125</ele>
        <time>2026-09-01T07:12:28.000Z</time>
        <extensions>
          <ns3:TrackPointExtension>
            <ns3:hr>158</ns3:hr>
            <ns3:cad>66</ns3:cad>
          </ns3:TrackPointExtension>
        </extensions>
      </trkpt>
      <trkpt lat="47.55405046977102756500244140625" lon="11.015682220458984375">
        <ele>1662.800048828125</ele>
        <time>2026-09-01T07:12:29.000Z</time>
        <extensions>
          <ns3:TrackPointExtension>
            <ns3:hr>159</ns3:hr>
            <ns3:cad>66</ns3:cad>
          </ns3:TrackPointExtension>
        </extensions>
      </trkpt>
      <trkpt lat="47.55404175259172916412353515625" lon="11.01566554047167301177978515625">
        <ele>1662.5999755859375</ele>
        <time>2026-09-01T07:12:30.000Z</time>
        <extensions>
          <ns3:TrackPointExtension>
            <ns3:hr>158</ns3:hr>
            <ns3:cad>66</ns3:cad>
          </ns3:TrackPointExtension>
        </extensions>
      </trkpt>
      <trkpt lat="47.55403496325016021728515625" lon="11.01565179415047168731689453125">
        <ele>1662.5999755859375</ele>
        <time>2026-09-01T07:12:31.000Z</time>
        <extensions>
          <ns3:TrackPointExtension>
            <ns3:hr>158</ns3:hr>
            <ns3:cad>66</ns3:cad>
          </ns3:TrackPointExtension>
        </extensions>
      </trkpt>
      <trkpt lat="47.55402624607086181640625" lon="11.015630252659320831298828125">
        <ele>1662.4000244140625</ele>
        <time>2026-09-01T07:12:32.000Z</time>
        <extensions>
          <ns3:TrackPointExtension>
            <ns3:hr>158</ns3:hr>
            <ns3:cad>66</ns3:cad>
          </ns3:TrackPointExtension>
        </extensions>
      </trkpt>
      <trkpt lat="47.55402155220508575439453125" lon="11.01560636423528194427490234375">
        <ele>1662</ele>
        <time>2026-09-01T07:12:33.000Z</time>
        <extensions>
          <ns3:TrackPointExtension>
            <ns3:hr>158</ns3:hr>
            <ns3:cad>66</ns3:cad>
          </ns3:TrackPointExtension>
        </extensions>
      </trkpt>
      <trkpt lat="47.55401476286351680755615234375" lon="11.0155856609344482421875">
        <ele>1661.800048828125</ele>
        <time>2026-09-01T07:12:34.000Z</time>
        <extensions>
          <ns3:TrackPointExtension>
            <ns3:hr>157</ns3:hr>
            <ns3:cad>66</ns3:cad>
          </ns3:TrackPointExtension>
        </extensions>
      </trkpt>
      <trkpt lat="47.554009146988391876220703125" lon="11.015564538538455963134765625">
        <ele>1661.800048828125</ele>
        <time>2026-09-01T07:12:35.000Z</time>
        <extensions>
          <ns3:TrackPointExtension>
            <ns3:hr>157</ns3:hr>
            <ns3:cad>66</ns3:cad>
          </ns3:TrackPointExtension>
        </extensions>
      </trkpt>
      <trkpt lat="47.5540049560368061065673828125" lon="11.01554232649505138397216796875">
        <ele>1661.800048828125</ele>
        <time>2026-09-01T07:12:36.000Z</time>
        <extensions>
          <ns3:TrackPointExtension>
            <ns3:hr>156</ns3:hr>
            <ns3:cad>66</ns3:cad>
          </ns3:TrackPointExtension>
        </extensions>
      </trkpt>
      <trkpt lat="47.55400051362812519073486328125" lon="11.01552003063261508941650390625">
        <ele>1662</ele>
        <time>2026-09-01T07:12:37.000Z</time>
        <extensions>
          <ns3:TrackPointExtension>
            <ns3:hr>156</ns3:hr>
            <ns3:cad>66</ns3:cad>
          </ns3:TrackPointExtension>
        </extensions>
      </trkpt>
      <trkpt lat="47.5539945624768733978271484375" lon="11.01549320854246616363525390625">
        <ele>1662.199951171875</ele>
        <time>2026-09-01T07:12:38.000Z</time>
        <extensions>
          <ns3:TrackPointExtension>
            <ns3:hr>156</ns3:hr>
            <ns3:cad>71</ns3:cad>
          </ns3:TrackPointExtension>
        </extensions>
      </trkpt>
      <trkpt lat="47.55398894660174846649169921875" lon="11.015464961528778076171875">
        <ele>1662.4000244140625</ele>
        <time>2026-09-01T07:12:39.000Z</time>
        <extensions>
          <ns3:TrackPointExtension>
            <ns3:hr>157</ns3:hr>
            <ns3:cad>71</ns3:cad>
          </ns3:TrackPointExtension>
        </extensions>
      </trkpt>
      <trkpt lat="47.55398626439273357391357421875" lon="11.01544358767569065093994140625">
        <ele>1662.5999755859375</ele>
        <time>2026-09-01T07:12:40.000Z</time>
        <extensions>
          <ns3:TrackPointExtension>
            <ns3:hr>157</ns3:hr>
            <ns3:cad>71</ns3:cad>
          </ns3:TrackPointExtension>
        </extensions>
      </trkpt>
      <trkpt lat="47.55398442037403583526611328125" lon="11.01542280055582523345947265625">
        <ele>1662.800048828125</ele>
        <time>2026-09-01T07:12:41.000Z</time>
        <extensions>
          <ns3:TrackPointExtension>
            <ns3:hr>157</ns3:hr>
            <ns3:cad>71</ns3:cad>
          </ns3:TrackPointExtension>
        </extensions>
      </trkpt>
      <trkpt lat="47.55398173816502094268798828125" lon="11.01540603674948215484619140625">
        <ele>1663.199951171875</ele>
        <time>2026-09-01T07:12:42.000Z</time>
        <extensions>
          <ns3:TrackPointExtension>
            <ns3:hr>157</ns3:hr>
            <ns3:cad>71</ns3:cad>
          </ns3:TrackPointExtension>
        </extensions>
      </trkpt>
      <trkpt lat="47.55398266017436981201171875" lon="11.0153947211802005767822265625">
        <ele>1663.5999755859375</ele>
        <time>2026-09-01T07:12:43.000Z</time>
        <extensions>
          <ns3:TrackPointExtension>
            <ns3:hr>157</ns3:hr>
            <ns3:cad>71</ns3:cad>
          </ns3:TrackPointExtension>
        </extensions>
      </trkpt>
      <trkpt lat="47.55398123525083065032958984375" lon="11.01538382470607757568359375">
        <ele>1663.800048828125</ele>
        <time>2026-09-01T07:12:44.000Z</time>
        <extensions>
          <ns3:TrackPointExtension>
            <ns3:hr>156</ns3:hr>
            <ns3:cad>71</ns3:cad>
          </ns3:TrackPointExtension>
        </extensions>
      </trkpt>
      <trkpt lat="47.55397754721343517303466796875" lon="11.01536898873746395111083984375">
        <ele>1664</ele>
        <time>2026-09-01T07:12:45.000Z</time>
        <extensions>
          <ns3:TrackPointExtension>
            <ns3:hr>157</ns3:hr>
            <ns3:cad>71</ns3:cad>
          </ns3:TrackPointExtension>
        </extensions>
      </trkpt>
      <trkpt lat="47.553973607718944549560546875" lon="11.01534920744597911834716796875">
        <ele>1664</ele>
        <time>2026-09-01T07:12:46.000Z</time>
        <extensions>
          <ns3:TrackPointExtension>
            <ns3:hr>157</ns3:hr>
            <ns3:cad>71</ns3:cad>
          </ns3:TrackPointExtension>
        </extensions>
      </trkpt>
      <trkpt lat="47.5539684109389781951904296875" lon="11.0153340362012386322021484375">
        <ele>1664.199951171875</ele>
        <time>2026-09-01T07:12:47.000Z</time>
        <extensions>
          <ns3:TrackPointExtension>
            <ns3:hr>156</ns3:hr>
            <ns3:cad>0</ns3:cad>
          </ns3:TrackPointExtension>
        </extensions>
      </trkpt>
      <trkpt lat="47.553964219987392425537109375" lon="11.01532003842294216156005859375">
        <ele>1664.199951171875</ele>
        <time>2026-09-01T07:12:48.000Z</time>
        <extensions>
          <ns3:TrackPointExtension>
            <ns3:hr>157</ns3:hr>
            <ns3:cad>0</ns3:cad>
          </ns3:TrackPointExtension>
        </extensions>
      </trkpt>
      <trkpt lat="47.55396111868321895599365234375" lon="11.0153085552155971527099609375">
        <ele>1664.4000244140625</ele>
        <time>2026-09-01T07:12:49.000Z</time>
        <extensions>
          <ns3:TrackPointExtension>
            <ns3:hr>157</ns3:hr>
            <ns3:cad>50</ns3:cad>
          </ns3:TrackPointExtension>
        </extensions>
      </trkpt>
      <trkpt lat="47.55395139567553997039794921875" lon="11.0152971558272838592529296875">
        <ele>1664.4000244140625</ele>
        <time>2026-09-01T07:12:50.000Z</time>
        <extensions>
          <ns3:TrackPointExtension>
            <ns3:hr>156</ns3:hr>
            <ns3:cad>50</ns3:cad>
          </ns3:TrackPointExtension>
        </extensions>
      </trkpt>
      <trkpt lat="47.55394385196268558502197265625" lon="11.015279553830623626708984375">
        <ele>1664.5999755859375</ele>
        <time>2026-09-01T07:12:51.000Z</time>
        <extensions>
          <ns3:TrackPointExtension>
            <ns3:hr>157</ns3:hr>
            <ns3:cad>50</ns3:cad>
          </ns3:TrackPointExtension>
        </extensions>
      </trkpt>
      <trkpt lat="47.55393597297370433807373046875" lon="11.0152597725391387939453125">
        <ele>1664.5999755859375</ele>
        <time>2026-09-01T07:12:52.000Z</time>
        <extensions>
          <ns3:TrackPointExtension>
            <ns3:hr>157</ns3:hr>
            <ns3:cad>0</ns3:cad>
          </ns3:TrackPointExtension>
        </extensions>
      </trkpt>
      <trkpt lat="47.55392926745116710662841796875" lon="11.015248037874698638916015625">
        <ele>1664.5999755859375</ele>
        <time>2026-09-01T07:12:53.000Z</time>
        <extensions>
          <ns3:TrackPointExtension>
            <ns3:hr>156</ns3:hr>
            <ns3:cad>0</ns3:cad>
          </ns3:TrackPointExtension>
        </extensions>
      </trkpt>
      <trkpt lat="47.5539244897663593292236328125" lon="11.0152351297438144683837890625">
        <ele>1664.5999755859375</ele>
        <time>2026-09-01T07:12:54.000Z</time>
        <extensions>
          <ns3:TrackPointExtension>
            <ns3:hr>156</ns3:hr>
            <ns3:cad>0</ns3:cad>
          </ns3:TrackPointExtension>
        </extensions>
      </trkpt>
      <trkpt lat="47.553915269672870635986328125" lon="11.01521627046167850494384765625">
        <ele>1664.800048828125</ele>
        <time>2026-09-01T07:12:55.000Z</time>
        <extensions>
          <ns3:TrackPointExtension>
            <ns3:hr>156</ns3:hr>
            <ns3:cad>0</ns3:cad>
          </ns3:TrackPointExtension>
        </extensions>
      </trkpt>
      <trkpt lat="47.5539114139974117279052734375" lon="11.01520671509206295013427734375">
        <ele>1665</ele>
        <time>2026-09-01T07:12:56.000Z</time>
        <extensions>
          <ns3:TrackPointExtension>
            <ns3:hr>156</ns3:hr>
            <ns3:cad>0</ns3:cad>
          </ns3:TrackPointExtension>
        </extensions>
      </trkpt>
      <trkpt lat="47.55390797741711139678955078125" lon="11.0151905380189418792724609375">
        <ele>1665.199951171875</ele>
        <time>2026-09-01T07:12:57.000Z</time>
        <extensions>
          <ns3:TrackPointExtension>
            <ns3:hr>155</ns3:hr>
            <ns3:cad>0</ns3:cad>
          </ns3:TrackPointExtension>
        </extensions>
      </trkpt>
      <trkpt lat="47.55390445701777935028076171875" lon="11.01517251692712306976318359375">
        <ele>1665.5999755859375</ele>
        <time>2026-09-01T07:12:58.000Z</time>
        <extensions>
          <ns3:TrackPointExtension>
            <ns3:hr>155</ns3:hr>
            <ns3:cad>0</ns3:cad>
          </ns3:TrackPointExtension>
        </extensions>
      </trkpt>
      <trkpt lat="47.55390085279941558837890625" lon="11.01515910588204860687255859375">
        <ele>1666</ele>
        <time>2026-09-01T07:12:59.000Z</time>
        <extensions>
          <ns3:TrackPointExtension>
            <ns3:hr>155</ns3:hr>
            <ns3:cad>0</ns3:cad>
          </ns3:TrackPointExtension>
        </extensions>
      </trkpt>
      <trkpt lat="47.553905211389064788818359375" lon="11.0151482932269573211669921875">
        <ele>1666.4000244140625</ele>
        <time>2026-09-01T07:13:00.000Z</time>
        <extensions>
          <ns3:TrackPointExtension>
            <ns3:hr>155</ns3:hr>
            <ns3:cad>0</ns3:cad>
          </ns3:TrackPointExtension>
        </extensions>
      </trkpt>
      <trkpt lat="47.55390755832195281982421875" lon="11.01514921523630619049072265625">
        <ele>1666.5999755859375</ele>
        <time>2026-09-01T07:13:01.000Z</time>
        <extensions>
          <ns3:TrackPointExtension>
            <ns3:hr>154</ns3:hr>
            <ns3:cad>0</ns3:cad>
          </ns3:TrackPointExtension>
        </extensions>
      </trkpt>
      <trkpt lat="47.55390915088355541229248046875" lon="11.0151228122413158416748046875">
        <ele>1667</ele>
        <time>2026-09-01T07:13:02.000Z</time>
        <extensions>
          <ns3:TrackPointExtension>
            <ns3:hr>153</ns3:hr>
            <ns3:cad>0</ns3:cad>
          </ns3:TrackPointExtension>
        </extensions>
      </trkpt>
      <trkpt lat="47.5539053790271282196044921875" lon="11.01512507535517215728759765625">
        <ele>1667.4000244140625</ele>
        <time>2026-09-01T07:13:03.000Z</time>
        <extensions>
          <ns3:TrackPointExtension>
            <ns3:hr>153</ns3:hr>
            <ns3:cad>0</ns3:cad>
          </ns3:TrackPointExtension>
        </extensions>
      </trkpt>
      <trkpt lat="47.55390546284615993499755859375" lon="11.01509842090308666229248046875">
        <ele>1667.5999755859375</ele>
        <time>2026-09-01T07:13:04.000Z</time>
        <extensions>
          <ns3:TrackPointExtension>
            <ns3:hr>153</ns3:hr>
            <ns3:cad>0</ns3:cad>
          </ns3:TrackPointExtension>
        </extensions>
      </trkpt>
      <trkpt lat="47.5539010204374790191650390625" lon="11.015087775886058807373046875">
        <ele>1668</ele>
        <time>2026-09-01T07:13:05.000Z</time>
        <extensions>
          <ns3:TrackPointExtension>
            <ns3:hr>152</ns3:hr>
            <ns3:cad>0</ns3:cad>
          </ns3:TrackPointExtension>
        </extensions>
      </trkpt>
      <trkpt lat="47.553900182247161865234375" lon="11.01507612504065036773681640625">
        <ele>1668.4000244140625</ele>
        <time>2026-09-01T07:13:06.000Z</time>
        <extensions>
          <ns3:TrackPointExtension>
            <ns3:hr>153</ns3:hr>
            <ns3:cad>0</ns3:cad>
          </ns3:TrackPointExtension>
        </extensions>
      </trkpt>
      <trkpt lat="47.55390445701777935028076171875" lon="11.01505081169307231903076171875">
        <ele>1668.800048828125</ele>
        <time>2026-09-01T07:13:07.000Z</time>
        <extensions>
          <ns3:TrackPointExtension>
            <ns3:hr>153</ns3:hr>
            <ns3:cad>0</ns3:cad>
          </ns3:TrackPointExtension>
        </extensions>
      </trkpt>
      <trkpt lat="47.55390563048422336578369140625" lon="11.0150416754186153411865234375">
        <ele>1669</ele>
        <time>2026-09-01T07:13:08.000Z</time>
        <extensions>
          <ns3:TrackPointExtension>
            <ns3:hr>153</ns3:hr>
            <ns3:cad>0</ns3:cad>
          </ns3:TrackPointExtension>
        </extensions>
      </trkpt>
      <trkpt lat="47.553909234702587127685546875" lon="11.0150353051722049713134765625">
        <ele>1669.199951171875</ele>
        <time>2026-09-01T07:13:09.000Z</time>
        <extensions>
          <ns3:TrackPointExtension>
            <ns3:hr>153</ns3:hr>
            <ns3:cad>0</ns3:cad>
          </ns3:TrackPointExtension>
        </extensions>
      </trkpt>
      <trkpt lat="47.55391426384449005126953125" lon="11.01501912809908390045166015625">
        <ele>1669.4000244140625</ele>
        <time>2026-09-01T07:13:10.000Z</time>
        <extensions>
          <ns3:TrackPointExtension>
            <ns3:hr>153</ns3:hr>
            <ns3:cad>0</ns3:cad>
          </ns3:TrackPointExtension>
        </extensions>
      </trkpt>
      <trkpt lat="47.55391920916736125946044921875" lon="11.01501191966235637664794921875">
        <ele>1669.5999755859375</ele>
        <time>2026-09-01T07:13:11.000Z</time>
        <extensions>
          <ns3:TrackPointExtension>
            <ns3:hr>153</ns3:hr>
            <ns3:cad>0</ns3:cad>
          </ns3:TrackPointExtension>
        </extensions>
      </trkpt>
      <trkpt lat="47.55391786806285381317138671875" lon="11.0150061361491680145263671875">
        <ele>1669.800048828125</ele>
        <time>2026-09-01T07:13:12.000Z</time>
        <extensions>
          <ns3:TrackPointExtension>
            <ns3:hr>153</ns3:hr>
            <ns3:cad>0</ns3:cad>
          </ns3:TrackPointExtension>
        </extensions>
      </trkpt>
      <trkpt lat="47.5539229810237884521484375" lon="11.01499314419925212860107421875">
        <ele>1670</ele>
        <time>2026-09-01T07:13:13.000Z</time>
        <extensions>
          <ns3:TrackPointExtension>
            <ns3:hr>153</ns3:hr>
            <ns3:cad>0</ns3:cad>
          </ns3:TrackPointExtension>
        </extensions>
      </trkpt>
      <trkpt lat="47.553925998508930206298828125" lon="11.01498794741928577423095703125">
        <ele>1670.4000244140625</ele>
        <time>2026-09-01T07:13:14.000Z</time>
        <extensions>
          <ns3:TrackPointExtension>
            <ns3:hr>153</ns3:hr>
            <ns3:cad>0</ns3:cad>
          </ns3:TrackPointExtension>
        </extensions>
      </trkpt>
      <trkpt lat="47.5539291836321353912353515625" lon="11.014985181391239166259765625">
        <ele>1670.5999755859375</ele>
        <time>2026-09-01T07:13:15.000Z</time>
        <extensions>
          <ns3:TrackPointExtension>
            <ns3:hr>153</ns3:hr>
            <ns3:cad>0</ns3:cad>
          </ns3:TrackPointExtension>
        </extensions>
      </trkpt>
      <trkpt lat="47.55392943508923053741455078125" lon="11.01498057134449481964111328125">
        <ele>1670.800048828125</ele>
        <time>2026-09-01T07:13:16.000Z</time>
        <extensions>
          <ns3:TrackPointExtension>
            <ns3:hr>154</ns3:hr>
            <ns3:cad>0</ns3:cad>
          </ns3:TrackPointExtension>
        </extensions>
      </trkpt>
      <trkpt lat="47.55392742343246936798095703125" lon="11.0149749554693698883056640625">
        <ele>1671</ele>
        <time>2026-09-01T07:13:17.000Z</time>
        <extensions>
          <ns3:TrackPointExtension>
            <ns3:hr>154</ns3:hr>
            <ns3:cad>0</ns3:cad>
          </ns3:TrackPointExtension>
        </extensions>
      </trkpt>
      <trkpt lat="47.55393035709857940673828125" lon="11.01496540009975433349609375">
        <ele>1671.199951171875</ele>
        <time>2026-09-01T07:13:18.000Z</time>
        <extensions>
          <ns3:TrackPointExtension>
            <ns3:hr>154</ns3:hr>
            <ns3:cad>0</ns3:cad>
          </ns3:TrackPointExtension>
        </extensions>
      </trkpt>
      <trkpt lat="47.55393479950726032257080078125" lon="11.01496062241494655609130859375">
        <ele>1671.199951171875</ele>
        <time>2026-09-01T07:13:19.000Z</time>
        <extensions>
          <ns3:TrackPointExtension>
            <ns3:hr>155</ns3:hr>
            <ns3:cad>0</ns3:cad>
          </ns3:TrackPointExtension>
        </extensions>
      </trkpt>
      <trkpt lat="47.55393647588789463043212890625" lon="11.0149588622152805328369140625">
        <ele>1671.4000244140625</ele>
        <time>2026-09-01T07:13:20.000Z</time>
        <extensions>
          <ns3:TrackPointExtension>
            <ns3:hr>155</ns3:hr>
            <ns3:cad>0</ns3:cad>
          </ns3:TrackPointExtension>
        </extensions>
      </trkpt>
      <trkpt lat="47.55393949337303638458251953125" lon="11.0149486362934112548828125">
        <ele>1671.5999755859375</ele>
        <time>2026-09-01T07:13:21.000Z</time>
        <extensions>
          <ns3:TrackPointExtension>
            <ns3:hr>156</ns3:hr>
            <ns3:cad>43</ns3:cad>
          </ns3:TrackPointExtension>
        </extensions>
      </trkpt>
      <trkpt lat="47.55393999628722667694091796875" lon="11.014948301017284393310546875">
        <ele>1671.800048828125</ele>
        <time>2026-09-01T07:13:22.000Z</time>
        <extensions>
          <ns3:TrackPointExtension>
            <ns3:hr>156</ns3:hr>
            <ns3:cad>43</ns3:cad>
          </ns3:TrackPointExtension>
        </extensions>
      </trkpt>
      <trkpt lat="47.5539417564868927001953125" lon="11.01494134403765201568603515625">
        <ele>1672</ele>
        <time>2026-09-01T07:13:23.000Z</time>
        <extensions>
          <ns3:TrackPointExtension>
            <ns3:hr>156</ns3:hr>
            <ns3:cad>43</ns3:cad>
          </ns3:TrackPointExtension>
        </extensions>
      </trkpt>
      <trkpt lat="47.55394351668655872344970703125" lon="11.014932878315448760986328125">
        <ele>1672.199951171875</ele>
        <time>2026-09-01T07:13:24.000Z</time>
        <extensions>
          <ns3:TrackPointExtension>
            <ns3:hr>157</ns3:hr>
            <ns3:cad>75</ns3:cad>
          </ns3:TrackPointExtension>
        </extensions>
      </trkpt>
      <trkpt lat="47.55394519306719303131103515625" lon="11.01492516696453094482421875">
        <ele>1672.4000244140625</ele>
        <time>2026-09-01T07:13:25.000Z</time>
        <extensions>
          <ns3:TrackPointExtension>
            <ns3:hr>158</ns3:hr>
            <ns3:cad>75</ns3:cad>
          </ns3:TrackPointExtension>
        </extensions>
      </trkpt>
      <trkpt lat="47.55393764935433864593505859375" lon="11.01491971872746944427490234375">
        <ele>1672.5999755859375</ele>
        <time>2026-09-01T07:13:26.000Z</time>
        <extensions>
          <ns3:TrackPointExtension>
            <ns3:hr>160</ns3:hr>
            <ns3:cad>75</ns3:cad>
          </ns3:TrackPointExtension>
        </extensions>
      </trkpt>
      <trkpt lat="47.55392977036535739898681640625" lon="11.01489624939858913421630859375">
        <ele>1672.5999755859375</ele>
        <time>2026-09-01T07:13:27.000Z</time>
        <extensions>
          <ns3:TrackPointExtension>
            <ns3:hr>160</ns3:hr>
            <ns3:cad>41</ns3:cad>
          </ns3:TrackPointExtension>
        </extensions>
      </trkpt>
      <trkpt lat="47.55392633378505706787109375" lon="11.01488468237221240997314453125">
        <ele>1672.800048828125</ele>
        <time>2026-09-01T07:13:28.000Z</time>
        <extensions>
          <ns3:TrackPointExtension>
            <ns3:hr>160</ns3:hr>
            <ns3:cad>41</ns3:cad>
          </ns3:TrackPointExtension>
        </extensions>
      </trkpt>
      <trkpt lat="47.55392792634665966033935546875" lon="11.0148643143475055694580078125">
        <ele>1673</ele>
        <time>2026-09-01T07:13:29.000Z</time>
        <extensions>
          <ns3:TrackPointExtension>
            <ns3:hr>161</ns3:hr>
            <ns3:cad>41</ns3:cad>
          </ns3:TrackPointExtension>
        </extensions>
      </trkpt>
      <trkpt lat="47.55393228493630886077880859375" lon="11.01485115475952625274658203125">
        <ele>1673</ele>
        <time>2026-09-01T07:13:30.000Z</time>
        <extensions>
          <ns3:TrackPointExtension>
            <ns3:hr>162</ns3:hr>
            <ns3:cad>41</ns3:cad>
          </ns3:TrackPointExtension>
        </extensions>
      </trkpt>
      <trkpt lat="47.55393169820308685302734375" lon="11.01484042592346668243408203125">
        <ele>1673.4000244140625</ele>
        <time>2026-09-01T07:13:31.000Z</time>
        <extensions>
          <ns3:TrackPointExtension>
            <ns3:hr>162</ns3:hr>
            <ns3:cad>0</ns3:cad>
          </ns3:TrackPointExtension>
        </extensions>
      </trkpt>
      <trkpt lat="47.55392960272729396820068359375" lon="11.01481645368039608001708984375">
        <ele>1673.5999755859375</ele>
        <time>2026-09-01T07:13:32.000Z</time>
        <extensions>
          <ns3:TrackPointExtension>
            <ns3:hr>162</ns3:hr>
            <ns3:cad>0</ns3:cad>
          </ns3:TrackPointExtension>
        </extensions>
      </trkpt>
      <trkpt lat="47.55392767488956451416015625" lon="11.01480622775852680206298828125">
        <ele>1674</ele>
        <time>2026-09-01T07:13:33.000Z</time>
        <extensions>
          <ns3:TrackPointExtension>
            <ns3:hr>162</ns3:hr>
            <ns3:cad>0</ns3:cad>
          </ns3:TrackPointExtension>
        </extensions>
      </trkpt>
      <trkpt lat="47.553925327956676483154296875" lon="11.01480153389275074005126953125">
        <ele>1674.4000244140625</ele>
        <time>2026-09-01T07:13:34.000Z</time>
        <extensions>
          <ns3:TrackPointExtension>
            <ns3:hr>162</ns3:hr>
            <ns3:cad>0</ns3:cad>
          </ns3:TrackPointExtension>
        </extensions>
      </trkpt>
      <trkpt lat="47.55391837097704410552978515625" lon="11.0147972591221332550048828125">
        <ele>1674.800048828125</ele>
        <time>2026-09-01T07:13:35.000Z</time>
        <extensions>
          <ns3:TrackPointExtension>
            <ns3:hr>162</ns3:hr>
            <ns3:cad>0</ns3:cad>
          </ns3:TrackPointExtension>
        </extensions>
      </trkpt>
      <trkpt lat="47.553913928568363189697265625" lon="11.0147918947041034698486328125">
        <ele>1675.199951171875</ele>
        <time>2026-09-01T07:13:36.000Z</time>
        <extensions>
          <ns3:TrackPointExtension>
            <ns3:hr>161</ns3:hr>
            <ns3:cad>0</ns3:cad>
          </ns3:TrackPointExtension>
        </extensions>
      </trkpt>
      <trkpt lat="47.553910575807094573974609375" lon="11.01478829048573970794677734375">
        <ele>1675.4000244140625</ele>
        <time>2026-09-01T07:13:37.000Z</time>
        <extensions>
          <ns3:TrackPointExtension>
            <ns3:hr>162</ns3:hr>
            <ns3:cad>0</ns3:cad>
          </ns3:TrackPointExtension>
        </extensions>
      </trkpt>
      <trkpt lat="47.5539083965122699737548828125" lon="11.014779321849346160888671875">
        <ele>1675.4000244140625</ele>
        <time>2026-09-01T07:13:38.000Z</time>
        <extensions>
          <ns3:TrackPointExtension>
            <ns3:hr>162</ns3:hr>
            <ns3:cad>45</ns3:cad>
          </ns3:TrackPointExtension>
        </extensions>
      </trkpt>
      <trkpt lat="47.5539060495793819427490234375" lon="11.01477119140326976776123046875">
        <ele>1675.199951171875</ele>
        <time>2026-09-01T07:13:39.000Z</time>
        <extensions>
          <ns3:TrackPointExtension>
            <ns3:hr>163</ns3:hr>
            <ns3:cad>0</ns3:cad>
          </ns3:TrackPointExtension>
        </extensions>
      </trkpt>
      <trkpt lat="47.5539068877696990966796875" lon="11.014743782579898834228515625">
        <ele>1675.199951171875</ele>
        <time>2026-09-01T07:13:40.000Z</time>
        <extensions>
          <ns3:TrackPointExtension>
            <ns3:hr>163</ns3:hr>
            <ns3:cad>0</ns3:cad>
          </ns3:TrackPointExtension>
        </extensions>
      </trkpt>
      <trkpt lat="47.5539063848555088043212890625" lon="11.0147369094192981719970703125">
        <ele>1675.4000244140625</ele>
        <time>2026-09-01T07:13:41.000Z</time>
        <extensions>
          <ns3:TrackPointExtension>
            <ns3:hr>165</ns3:hr>
            <ns3:cad>0</ns3:cad>
          </ns3:TrackPointExtension>
        </extensions>
      </trkpt>
      <trkpt lat="47.5539040379226207733154296875" lon="11.01472425274550914764404296875">
        <ele>1675.800048828125</ele>
        <time>2026-09-01T07:13:42.000Z</time>
        <extensions>
          <ns3:TrackPointExtension>
            <ns3:hr>165</ns3:hr>
            <ns3:cad>0</ns3:cad>
          </ns3:TrackPointExtension>
        </extensions>
      </trkpt>
      <trkpt lat="47.55389951169490814208984375" lon="11.01471452973783016204833984375">
        <ele>1676.4000244140625</ele>
        <time>2026-09-01T07:13:43.000Z</time>
        <extensions>
          <ns3:TrackPointExtension>
            <ns3:hr>165</ns3:hr>
            <ns3:cad>0</ns3:cad>
          </ns3:TrackPointExtension>
        </extensions>
      </trkpt>
      <trkpt lat="47.55389858968555927276611328125" lon="11.01470044814050197601318359375">
        <ele>1677</ele>
        <time>2026-09-01T07:13:44.000Z</time>
        <extensions>
          <ns3:TrackPointExtension>
            <ns3:hr>164</ns3:hr>
            <ns3:cad>0</ns3:cad>
          </ns3:TrackPointExtension>
        </extensions>
      </trkpt>
      <trkpt lat="47.55389976315200328826904296875" lon="11.014684103429317474365234375">
        <ele>1677</ele>
        <time>2026-09-01T07:13:45.000Z</time>
        <extensions>
          <ns3:TrackPointExtension>
            <ns3:hr>164</ns3:hr>
            <ns3:cad>0</ns3:cad>
          </ns3:TrackPointExtension>
        </extensions>
      </trkpt>
      <trkpt lat="47.55389540456235408782958984375" lon="11.01466842927038669586181640625">
        <ele>1677.199951171875</ele>
        <time>2026-09-01T07:13:46.000Z</time>
        <extensions>
          <ns3:TrackPointExtension>
            <ns3:hr>164</ns3:hr>
            <ns3:cad>0</ns3:cad>
          </ns3:TrackPointExtension>
        </extensions>
      </trkpt>
      <trkpt lat="47.553896494209766387939453125" lon="11.01465024054050445556640625">
        <ele>1677.4000244140625</ele>
        <time>2026-09-01T07:13:47.000Z</time>
        <extensions>
          <ns3:TrackPointExtension>
            <ns3:hr>163</ns3:hr>
            <ns3:cad>0</ns3:cad>
          </ns3:TrackPointExtension>
        </extensions>
      </trkpt>
      <trkpt lat="47.5538959912955760955810546875" lon="11.01464143954217433929443359375">
        <ele>1677.800048828125</ele>
        <time>2026-09-01T07:13:48.000Z</time>
        <extensions>
          <ns3:TrackPointExtension>
            <ns3:hr>163</ns3:hr>
            <ns3:cad>0</ns3:cad>
          </ns3:TrackPointExtension>
        </extensions>
      </trkpt>
      <trkpt lat="47.5538956560194492340087890625" lon="11.01462400518357753753662109375">
        <ele>1678</ele>
        <time>2026-09-01T07:13:49.000Z</time>
        <extensions>
          <ns3:TrackPointExtension>
            <ns3:hr>162</ns3:hr>
            <ns3:cad>0</ns3:cad>
          </ns3:TrackPointExtension>
        </extensions>
      </trkpt>
      <trkpt lat="47.55389389581978321075439453125" lon="11.014614365994930267333984375">
        <ele>1678.199951171875</ele>
        <time>2026-09-01T07:13:50.000Z</time>
        <extensions>
          <ns3:TrackPointExtension>
            <ns3:hr>162</ns3:hr>
            <ns3:cad>0</ns3:cad>
          </ns3:TrackPointExtension>
        </extensions>
      </trkpt>
      <trkpt lat="47.55389221943914890289306640625" lon="11.01459533907473087310791015625">
        <ele>1678.4000244140625</ele>
        <time>2026-09-01T07:13:51.000Z</time>
        <extensions>
          <ns3:TrackPointExtension>
            <ns3:hr>162</ns3:hr>
            <ns3:cad>0</ns3:cad>
          </ns3:TrackPointExtension>
        </extensions>
      </trkpt>
      <trkpt lat="47.55388953723013401031494140625" lon="11.01458511315286159515380859375">
        <ele>1678.5999755859375</ele>
        <time>2026-09-01T07:13:52.000Z</time>
        <extensions>
          <ns3:TrackPointExtension>
            <ns3:hr>162</ns3:hr>
            <ns3:cad>0</ns3:cad>
          </ns3:TrackPointExtension>
        </extensions>
      </trkpt>
      <trkpt lat="47.553889453411102294921875" lon="11.01458729244768619537353515625">
        <ele>1678.800048828125</ele>
        <time>2026-09-01T07:13:53.000Z</time>
        <extensions>
          <ns3:TrackPointExtension>
            <ns3:hr>162</ns3:hr>
            <ns3:cad>0</ns3:cad>
          </ns3:TrackPointExtension>
        </extensions>
      </trkpt>
      <trkpt lat="47.5538902916014194488525390625" lon="11.01457656361162662506103515625">
        <ele>1679.199951171875</ele>
        <time>2026-09-01T07:13:54.000Z</time>
        <extensions>
          <ns3:TrackPointExtension>
            <ns3:hr>161</ns3:hr>
            <ns3:cad>0</ns3:cad>
          </ns3:TrackPointExtension>
        </extensions>
      </trkpt>
      <trkpt lat="47.5538832508027553558349609375" lon="11.01457388140261173248291015625">
        <ele>1679.5999755859375</ele>
        <time>2026-09-01T07:13:55.000Z</time>
        <extensions>
          <ns3:TrackPointExtension>
            <ns3:hr>161</ns3:hr>
            <ns3:cad>0</ns3:cad>
          </ns3:TrackPointExtension>
        </extensions>
      </trkpt>
      <trkpt lat="47.55388467572629451751708984375" lon="11.0145585425198078155517578125">
        <ele>1680</ele>
        <time>2026-09-01T07:13:56.000Z</time>
        <extensions>
          <ns3:TrackPointExtension>
            <ns3:hr>161</ns3:hr>
            <ns3:cad>0</ns3:cad>
          </ns3:TrackPointExtension>
        </extensions>
      </trkpt>
      <trkpt lat="47.5538832508027553558349609375" lon="11.01454295217990875244140625">
        <ele>1680.199951171875</ele>
        <time>2026-09-01T07:13:57.000Z</time>
        <extensions>
          <ns3:TrackPointExtension>
            <ns3:hr>162</ns3:hr>
            <ns3:cad>0</ns3:cad>
          </ns3:TrackPointExtension>
        </extensions>
      </trkpt>
      <trkpt lat="47.55388115532696247100830078125" lon="11.01453633047640323638916015625">
        <ele>1680.4000244140625</ele>
        <time>2026-09-01T07:13:58.000Z</time>
        <extensions>
          <ns3:TrackPointExtension>
            <ns3:hr>163</ns3:hr>
            <ns3:cad>0</ns3:cad>
          </ns3:TrackPointExtension>
        </extensions>
      </trkpt>
      <trkpt lat="47.553877048194408416748046875" lon="11.0145166330039501190185546875">
        <ele>1680.800048828125</ele>
        <time>2026-09-01T07:13:59.000Z</time>
        <extensions>
          <ns3:TrackPointExtension>
            <ns3:hr>164</ns3:hr>
            <ns3:cad>0</ns3:cad>
          </ns3:TrackPointExtension>
        </extensions>
      </trkpt>
      <trkpt lat="47.5538720190525054931640625" lon="11.01450649090111255645751953125">
        <ele>1681.199951171875</ele>
        <time>2026-09-01T07:14:00.000Z</time>
        <extensions>
          <ns3:TrackPointExtension>
            <ns3:hr>165</ns3:hr>
            <ns3:cad>0</ns3:cad>
          </ns3:TrackPointExtension>
        </extensions>
      </trkpt>
      <trkpt lat="47.55386372096836566925048828125" lon="11.01449877955019474029541015625">
        <ele>1681.4000244140625</ele>
        <time>2026-09-01T07:14:01.000Z</time>
        <extensions>
          <ns3:TrackPointExtension>
            <ns3:hr>166</ns3:hr>
            <ns3:cad>0</ns3:cad>
          </ns3:TrackPointExtension>
        </extensions>
      </trkpt>
      <trkpt lat="47.55385751836001873016357421875" lon="11.01447857916355133056640625">
        <ele>1681.5999755859375</ele>
        <time>2026-09-01T07:14:02.000Z</time>
        <extensions>
          <ns3:TrackPointExtension>
            <ns3:hr>167</ns3:hr>
            <ns3:cad>0</ns3:cad>
          </ns3:TrackPointExtension>
        </extensions>
      </trkpt>
      <trkpt lat="47.553853578865528106689453125" lon="11.0144572891294956207275390625">
        <ele>1681.800048828125</ele>
        <time>2026-09-01T07:14:03.000Z</time>
        <extensions>
          <ns3:TrackPointExtension>
            <ns3:hr>167</ns3:hr>
            <ns3:cad>0</ns3:cad>
          </ns3:TrackPointExtension>
        </extensions>
      </trkpt>
      <trkpt lat="47.55384963937103748321533203125" lon="11.01444915868341922760009765625">
        <ele>1681.800048828125</ele>
        <time>2026-09-01T07:14:04.000Z</time>
        <extensions>
          <ns3:TrackPointExtension>
            <ns3:hr>168</ns3:hr>
            <ns3:cad>0</ns3:cad>
          </ns3:TrackPointExtension>
        </extensions>
      </trkpt>
      <trkpt lat="47.55384511314332485198974609375" lon="11.01443541236221790313720703125">
        <ele>1681.800048828125</ele>
        <time>2026-09-01T07:14:05.000Z</time>
        <extensions>
          <ns3:TrackPointExtension>
            <ns3:hr>168</ns3:hr>
            <ns3:cad>0</ns3:cad>
          </ns3:TrackPointExtension>
        </extensions>
      </trkpt>
      <trkpt lat="47.55384477786719799041748046875" lon="11.01442225277423858642578125">
        <ele>1682.199951171875</ele>
        <time>2026-09-01T07:14:06.000Z</time>
        <extensions>
          <ns3:TrackPointExtension>
            <ns3:hr>169</ns3:hr>
            <ns3:cad>0</ns3:cad>
          </ns3:TrackPointExtension>
        </extensions>
      </trkpt>
      <trkpt lat="47.5538497231900691986083984375" lon="11.01439434103667736053466796875">
        <ele>1682.5999755859375</ele>
        <time>2026-09-01T07:14:07.000Z</time>
        <extensions>
          <ns3:TrackPointExtension>
            <ns3:hr>169</ns3:hr>
            <ns3:cad>55</ns3:cad>
          </ns3:TrackPointExtension>
        </extensions>
      </trkpt>
      <trkpt lat="47.55384896881878376007080078125" lon="11.0143811814486980438232421875">
        <ele>1683.199951171875</ele>
        <time>2026-09-01T07:14:08.000Z</time>
        <extensions>
          <ns3:TrackPointExtension>
            <ns3:hr>170</ns3:hr>
            <ns3:cad>55</ns3:cad>
          </ns3:TrackPointExtension>
        </extensions>
      </trkpt>
      <trkpt lat="47.5538490526378154754638671875" lon="11.0143687762320041656494140625">
        <ele>1683.800048828125</ele>
        <time>2026-09-01T07:14:09.000Z</time>
        <extensions>
          <ns3:TrackPointExtension>
            <ns3:hr>171</ns3:hr>
            <ns3:cad>51</ns3:cad>
          </ns3:TrackPointExtension>
        </extensions>
      </trkpt>
      <trkpt lat="47.55385165102779865264892578125" lon="11.0143533535301685333251953125">
        <ele>1684.199951171875</ele>
        <time>2026-09-01T07:14:10.000Z</time>
        <extensions>
          <ns3:TrackPointExtension>
            <ns3:hr>172</ns3:hr>
            <ns3:cad>51</ns3:cad>
          </ns3:TrackPointExtension>
        </extensions>
      </trkpt>
      <trkpt lat="47.5538547523319721221923828125" lon="11.01434740237891674041748046875">
        <ele>1684.5999755859375</ele>
        <time>2026-09-01T07:14:11.000Z</time>
        <extensions>
          <ns3:TrackPointExtension>
            <ns3:hr>172</ns3:hr>
            <ns3:cad>51</ns3:cad>
          </ns3:TrackPointExtension>
        </extensions>
      </trkpt>
      <trkpt lat="47.553860284388065338134765625" lon="11.014328710734844207763671875">
        <ele>1684.800048828125</ele>
        <time>2026-09-01T07:14:12.000Z</time>
        <extensions>
          <ns3:TrackPointExtension>
            <ns3:hr>173</ns3:hr>
            <ns3:cad>0</ns3:cad>
          </ns3:TrackPointExtension>
        </extensions>
      </trkpt>
      <trkpt lat="47.55386305041611194610595703125" lon="11.01431303657591342926025390625">
        <ele>1685.199951171875</ele>
        <time>2026-09-01T07:14:13.000Z</time>
        <extensions>
          <ns3:TrackPointExtension>
            <ns3:hr>173</ns3:hr>
            <ns3:cad>0</ns3:cad>
          </ns3:TrackPointExtension>
        </extensions>
      </trkpt>
      <trkpt lat="47.55386707372963428497314453125" lon="11.01430683396756649017333984375">
        <ele>1685.4000244140625</ele>
        <time>2026-09-01T07:14:14.000Z</time>
        <extensions>
          <ns3:TrackPointExtension>
            <ns3:hr>173</ns3:hr>
            <ns3:cad>0</ns3:cad>
          </ns3:TrackPointExtension>
        </extensions>
      </trkpt>
      <trkpt lat="47.553871683776378631591796875" lon="11.01429484784603118896484375">
        <ele>1685.5999755859375</ele>
        <time>2026-09-01T07:14:15.000Z</time>
        <extensions>
          <ns3:TrackPointExtension>
            <ns3:hr>172</ns3:hr>
            <ns3:cad>0</ns3:cad>
          </ns3:TrackPointExtension>
        </extensions>
      </trkpt>
      <trkpt lat="47.553877048194408416748046875" lon="11.01428118534386157989501953125">
        <ele>1686</ele>
        <time>2026-09-01T07:14:16.000Z</time>
        <extensions>
          <ns3:TrackPointExtension>
            <ns3:hr>169</ns3:hr>
            <ns3:cad>0</ns3:cad>
          </ns3:TrackPointExtension>
        </extensions>
      </trkpt>
      <trkpt lat="47.5538800656795501708984375" lon="11.01426458917558193206787109375">
        <ele>1686.199951171875</ele>
        <time>2026-09-01T07:14:17.000Z</time>
        <extensions>
          <ns3:TrackPointExtension>
            <ns3:hr>169</ns3:hr>
            <ns3:cad>0</ns3:cad>
          </ns3:TrackPointExtension>
        </extensions>
      </trkpt>
      <trkpt lat="47.5538815744221210479736328125" lon="11.01425268687307834625244140625">
        <ele>1686.5999755859375</ele>
        <time>2026-09-01T07:14:18.000Z</time>
        <extensions>
          <ns3:TrackPointExtension>
            <ns3:hr>169</ns3:hr>
            <ns3:cad>0</ns3:cad>
          </ns3:TrackPointExtension>
        </extensions>
      </trkpt>
      <trkpt lat="47.553885094821453094482421875" lon="11.0142407007515430450439453125">
        <ele>1687</ele>
        <time>2026-09-01T07:14:19.000Z</time>
        <extensions>
          <ns3:TrackPointExtension>
            <ns3:hr>169</ns3:hr>
            <ns3:cad>0</ns3:cad>
          </ns3:TrackPointExtension>
        </extensions>
      </trkpt>
      <trkpt lat="47.5538859330117702484130859375" lon="11.0142252780497074127197265625">
        <ele>1687.199951171875</ele>
        <time>2026-09-01T07:14:20.000Z</time>
        <extensions>
          <ns3:TrackPointExtension>
            <ns3:hr>169</ns3:hr>
            <ns3:cad>0</ns3:cad>
          </ns3:TrackPointExtension>
        </extensions>
      </trkpt>
      <trkpt lat="47.55387227050960063934326171875" lon="11.01420323364436626434326171875">
        <ele>1687.800048828125</ele>
        <time>2026-09-01T07:14:21.000Z</time>
        <extensions>
          <ns3:TrackPointExtension>
            <ns3:hr>169</ns3:hr>
            <ns3:cad>0</ns3:cad>
          </ns3:TrackPointExtension>
        </extensions>
      </trkpt>
      <trkpt lat="47.55386690609157085418701171875" lon="11.01419669575989246368408203125">
        <ele>1688</ele>
        <time>2026-09-01T07:14:22.000Z</time>
        <extensions>
          <ns3:TrackPointExtension>
            <ns3:hr>169</ns3:hr>
            <ns3:cad>0</ns3:cad>
          </ns3:TrackPointExtension>
        </extensions>
      </trkpt>
      <trkpt lat="47.55386522971093654632568359375" lon="11.01417817175388336181640625">
        <ele>1688</ele>
        <time>2026-09-01T07:14:23.000Z</time>
        <extensions>
          <ns3:TrackPointExtension>
            <ns3:hr>168</ns3:hr>
            <ns3:cad>0</ns3:cad>
          </ns3:TrackPointExtension>
        </extensions>
      </trkpt>
      <trkpt lat="47.55385634489357471466064453125" lon="11.01416450925171375274658203125">
        <ele>1688.4000244140625</ele>
        <time>2026-09-01T07:14:24.000Z</time>
        <extensions>
          <ns3:TrackPointExtension>
            <ns3:hr>169</ns3:hr>
            <ns3:cad>0</ns3:cad>
          </ns3:TrackPointExtension>
        </extensions>
      </trkpt>
      <trkpt lat="47.553853578865528106689453125" lon="11.0141582228243350982666015625">
        <ele>1688.4000244140625</ele>
        <time>2026-09-01T07:14:25.000Z</time>
        <extensions>
          <ns3:TrackPointExtension>
            <ns3:hr>169</ns3:hr>
            <ns3:cad>0</ns3:cad>
          </ns3:TrackPointExtension>
        </extensions>
      </trkpt>
      <trkpt lat="47.55384477786719799041748046875" lon="11.01414464414119720458984375">
        <ele>1688.4000244140625</ele>
        <time>2026-09-01T07:14:26.000Z</time>
        <extensions>
          <ns3:TrackPointExtension>
            <ns3:hr>169</ns3:hr>
            <ns3:cad>0</ns3:cad>
          </ns3:TrackPointExtension>
        </extensions>
      </trkpt>
      <trkpt lat="47.5538366474211215972900390625" lon="11.01413634605705738067626953125">
        <ele>1688.4000244140625</ele>
        <time>2026-09-01T07:14:27.000Z</time>
        <extensions>
          <ns3:TrackPointExtension>
            <ns3:hr>169</ns3:hr>
            <ns3:cad>47</ns3:cad>
          </ns3:TrackPointExtension>
        </extensions>
      </trkpt>
      <trkpt lat="47.55383111536502838134765625" lon="11.01412176154553890228271484375">
        <ele>1688.5999755859375</ele>
        <time>2026-09-01T07:14:28.000Z</time>
        <extensions>
          <ns3:TrackPointExtension>
            <ns3:hr>169</ns3:hr>
            <ns3:cad>47</ns3:cad>
          </ns3:TrackPointExtension>
        </extensions>
      </trkpt>
      <trkpt lat="47.55382466129958629608154296875" lon="11.01411086507141590118408203125">
        <ele>1688.5999755859375</ele>
        <time>2026-09-01T07:14:29.000Z</time>
        <extensions>
          <ns3:TrackPointExtension>
            <ns3:hr>170</ns3:hr>
            <ns3:cad>47</ns3:cad>
          </ns3:TrackPointExtension>
        </extensions>
      </trkpt>
      <trkpt lat="47.5538205541670322418212890625" lon="11.01409829221665859222412109375">
        <ele>1688.800048828125</ele>
        <time>2026-09-01T07:14:30.000Z</time>
        <extensions>
          <ns3:TrackPointExtension>
            <ns3:hr>171</ns3:hr>
            <ns3:cad>47</ns3:cad>
          </ns3:TrackPointExtension>
        </extensions>
      </trkpt>
      <trkpt lat="47.5538141839206218719482421875" lon="11.01408236660063266754150390625">
        <ele>1689</ele>
        <time>2026-09-01T07:14:31.000Z</time>
        <extensions>
          <ns3:TrackPointExtension>
            <ns3:hr>171</ns3:hr>
            <ns3:cad>47</ns3:cad>
          </ns3:TrackPointExtension>
        </extensions>
      </trkpt>
      <trkpt lat="47.55380429327487945556640625" lon="11.01405638270080089569091796875">
        <ele>1689.199951171875</ele>
        <time>2026-09-01T07:14:32.000Z</time>
        <extensions>
          <ns3:TrackPointExtension>
            <ns3:hr>172</ns3:hr>
            <ns3:cad>48</ns3:cad>
          </ns3:TrackPointExtension>
        </extensions>
      </trkpt>
      <trkpt lat="47.55379549227654933929443359375" lon="11.01403274573385715484619140625">
        <ele>1689.4000244140625</ele>
        <time>2026-09-01T07:14:33.000Z</time>
        <extensions>
          <ns3:TrackPointExtension>
            <ns3:hr>172</ns3:hr>
            <ns3:cad>48</ns3:cad>
          </ns3:TrackPointExtension>
        </extensions>
      </trkpt>
      <trkpt lat="47.55378493107855319976806640625" lon="11.01401145569980144500732421875">
        <ele>1689.5999755859375</ele>
        <time>2026-09-01T07:14:34.000Z</time>
        <extensions>
          <ns3:TrackPointExtension>
            <ns3:hr>172</ns3:hr>
            <ns3:cad>48</ns3:cad>
          </ns3:TrackPointExtension>
        </extensions>
      </trkpt>
      <trkpt lat="47.55377084948122501373291015625" lon="11.01399787701666355133056640625">
        <ele>1689.800048828125</ele>
        <time>2026-09-01T07:14:35.000Z</time>
        <extensions>
          <ns3:TrackPointExtension>
            <ns3:hr>172</ns3:hr>
            <ns3:cad>48</ns3:cad>
          </ns3:TrackPointExtension>
        </extensions>
      </trkpt>
      <trkpt lat="47.55375911481678485870361328125" lon="11.01397641934454441070556640625">
        <ele>1690</ele>
        <time>2026-09-01T07:14:36.000Z</time>
        <extensions>
          <ns3:TrackPointExtension>
            <ns3:hr>172</ns3:hr>
            <ns3:cad>48</ns3:cad>
          </ns3:TrackPointExtension>
        </extensions>
      </trkpt>
      <trkpt lat="47.5537457875907421112060546875" lon="11.01396149955689907073974609375">
        <ele>1690</ele>
        <time>2026-09-01T07:14:37.000Z</time>
        <extensions>
          <ns3:TrackPointExtension>
            <ns3:hr>171</ns3:hr>
            <ns3:cad>48</ns3:cad>
          </ns3:TrackPointExtension>
        </extensions>
      </trkpt>
      <trkpt lat="47.553732208907604217529296875" lon="11.013942472636699676513671875">
        <ele>1690.199951171875</ele>
        <time>2026-09-01T07:14:38.000Z</time>
        <extensions>
          <ns3:TrackPointExtension>
            <ns3:hr>172</ns3:hr>
            <ns3:cad>72</ns3:cad>
          </ns3:TrackPointExtension>
        </extensions>
      </trkpt>
      <trkpt lat="47.553719468414783477783203125" lon="11.0139292292296886444091796875">
        <ele>1690.199951171875</ele>
        <time>2026-09-01T07:14:39.000Z</time>
        <extensions>
          <ns3:TrackPointExtension>
            <ns3:hr>172</ns3:hr>
            <ns3:cad>72</ns3:cad>
          </ns3:TrackPointExtension>
        </extensions>
      </trkpt>
      <trkpt lat="47.55371251143515110015869140625" lon="11.01391757838428020477294921875">
        <ele>1690.4000244140625</ele>
        <time>2026-09-01T07:14:40.000Z</time>
        <extensions>
          <ns3:TrackPointExtension>
            <ns3:hr>172</ns3:hr>
            <ns3:cad>72</ns3:cad>
          </ns3:TrackPointExtension>
        </extensions>
      </trkpt>
      <trkpt lat="47.55370312370359897613525390625" lon="11.01390500552952289581298828125">
        <ele>1690.4000244140625</ele>
        <time>2026-09-01T07:14:41.000Z</time>
        <extensions>
          <ns3:TrackPointExtension>
            <ns3:hr>172</ns3:hr>
            <ns3:cad>55</ns3:cad>
          </ns3:TrackPointExtension>
        </extensions>
      </trkpt>
      <trkpt lat="47.553694657981395721435546875" lon="11.01389519870281219482421875">
        <ele>1690.5999755859375</ele>
        <time>2026-09-01T07:14:42.000Z</time>
        <extensions>
          <ns3:TrackPointExtension>
            <ns3:hr>172</ns3:hr>
            <ns3:cad>0</ns3:cad>
          </ns3:TrackPointExtension>
        </extensions>
      </trkpt>
      <trkpt lat="47.55368736572563648223876953125" lon="11.01388103328645229339599609375">
        <ele>1691</ele>
        <time>2026-09-01T07:14:43.000Z</time>
        <extensions>
          <ns3:TrackPointExtension>
            <ns3:hr>172</ns3:hr>
            <ns3:cad>0</ns3:cad>
          </ns3:TrackPointExtension>
        </extensions>
      </trkpt>
      <trkpt lat="47.5536773912608623504638671875" lon="11.0138651914894580841064453125">
        <ele>1691.4000244140625</ele>
        <time>2026-09-01T07:14:44.000Z</time>
        <extensions>
          <ns3:TrackPointExtension>
            <ns3:hr>173</ns3:hr>
            <ns3:cad>0</ns3:cad>
          </ns3:TrackPointExtension>
        </extensions>
      </trkpt>
      <trkpt lat="47.55366842262446880340576171875" lon="11.01385169662535190582275390625">
        <ele>1691.800048828125</ele>
        <time>2026-09-01T07:14:45.000Z</time>
        <extensions>
          <ns3:TrackPointExtension>
            <ns3:hr>173</ns3:hr>
            <ns3:cad>0</ns3:cad>
          </ns3:TrackPointExtension>
        </extensions>
      </trkpt>
      <trkpt lat="47.5536582805216312408447265625" lon="11.0138353519141674041748046875">
        <ele>1692.199951171875</ele>
        <time>2026-09-01T07:14:46.000Z</time>
        <extensions>
          <ns3:TrackPointExtension>
            <ns3:hr>174</ns3:hr>
            <ns3:cad>0</ns3:cad>
          </ns3:TrackPointExtension>
        </extensions>
      </trkpt>
      <trkpt lat="47.55364864133298397064208984375" lon="11.0138189233839511871337890625">
        <ele>1692.4000244140625</ele>
        <time>2026-09-01T07:14:47.000Z</time>
        <extensions>
          <ns3:TrackPointExtension>
            <ns3:hr>176</ns3:hr>
            <ns3:cad>0</ns3:cad>
          </ns3:TrackPointExtension>
        </extensions>
      </trkpt>
      <trkpt lat="47.55364009179174900054931640625" lon="11.01380266249179840087890625">
        <ele>1692.4000244140625</ele>
        <time>2026-09-01T07:14:48.000Z</time>
        <extensions>
          <ns3:TrackPointExtension>
            <ns3:hr>176</ns3:hr>
            <ns3:cad>0</ns3:cad>
          </ns3:TrackPointExtension>
        </extensions>
      </trkpt>
      <trkpt lat="47.5536321289837360382080078125" lon="11.01378547959029674530029296875">
        <ele>1692.199951171875</ele>
        <time>2026-09-01T07:14:49.000Z</time>
        <extensions>
          <ns3:TrackPointExtension>
            <ns3:hr>176</ns3:hr>
            <ns3:cad>0</ns3:cad>
          </ns3:TrackPointExtension>
        </extensions>
      </trkpt>
      <trkpt lat="47.55362768657505512237548828125" lon="11.01376888342201709747314453125">
        <ele>1692.4000244140625</ele>
        <time>2026-09-01T07:14:50.000Z</time>
        <extensions>
          <ns3:TrackPointExtension>
            <ns3:hr>176</ns3:hr>
            <ns3:cad>0</ns3:cad>
          </ns3:TrackPointExtension>
        </extensions>
      </trkpt>
      <trkpt lat="47.5536210648715496063232421875" lon="11.01375128142535686492919921875">
        <ele>1692.5999755859375</ele>
        <time>2026-09-01T07:14:51.000Z</time>
        <extensions>
          <ns3:TrackPointExtension>
            <ns3:hr>176</ns3:hr>
            <ns3:cad>70</ns3:cad>
          </ns3:TrackPointExtension>
        </extensions>
      </trkpt>
      <trkpt lat="47.5536173768341541290283203125" lon="11.01373636163771152496337890625">
        <ele>1693</ele>
        <time>2026-09-01T07:14:52.000Z</time>
        <extensions>
          <ns3:TrackPointExtension>
            <ns3:hr>176</ns3:hr>
            <ns3:cad>70</ns3:cad>
          </ns3:TrackPointExtension>
        </extensions>
      </trkpt>
      <trkpt lat="47.55361326970160007476806640625" lon="11.0137136466801166534423828125">
        <ele>1693.199951171875</ele>
        <time>2026-09-01T07:14:53.000Z</time>
        <extensions>
          <ns3:TrackPointExtension>
            <ns3:hr>176</ns3:hr>
            <ns3:cad>70</ns3:cad>
          </ns3:TrackPointExtension>
        </extensions>
      </trkpt>
      <trkpt lat="47.55361410789191722869873046875" lon="11.0136982239782810211181640625">
        <ele>1693.5999755859375</ele>
        <time>2026-09-01T07:14:54.000Z</time>
        <extensions>
          <ns3:TrackPointExtension>
            <ns3:hr>176</ns3:hr>
            <ns3:cad>70</ns3:cad>
          </ns3:TrackPointExtension>
        </extensions>
      </trkpt>
      <trkpt lat="47.55361611954867839813232421875" lon="11.01368707604706287384033203125">
        <ele>1694</ele>
        <time>2026-09-01T07:14:55.000Z</time>
        <extensions>
          <ns3:TrackPointExtension>
            <ns3:hr>177</ns3:hr>
            <ns3:cad>70</ns3:cad>
          </ns3:TrackPointExtension>
        </extensions>
      </trkpt>
      <trkpt lat="47.5536118447780609130859375" lon="11.01367064751684665679931640625">
        <ele>1694.199951171875</ele>
        <time>2026-09-01T07:14:56.000Z</time>
        <extensions>
          <ns3:TrackPointExtension>
            <ns3:hr>176</ns3:hr>
            <ns3:cad>70</ns3:cad>
          </ns3:TrackPointExtension>
        </extensions>
      </trkpt>
      <trkpt lat="47.55361058749258518218994140625" lon="11.01365757174789905548095703125">
        <ele>1694.5999755859375</ele>
        <time>2026-09-01T07:14:57.000Z</time>
        <extensions>
          <ns3:TrackPointExtension>
            <ns3:hr>176</ns3:hr>
            <ns3:cad>70</ns3:cad>
          </ns3:TrackPointExtension>
        </extensions>
      </trkpt>
      <trkpt lat="47.553610503673553466796875" lon="11.013641394674777984619140625">
        <ele>1695</ele>
        <time>2026-09-01T07:14:58.000Z</time>
        <extensions>
          <ns3:TrackPointExtension>
            <ns3:hr>176</ns3:hr>
            <ns3:cad>70</ns3:cad>
          </ns3:TrackPointExtension>
        </extensions>
      </trkpt>
      <trkpt lat="47.5536153651773929595947265625" lon="11.0136289894580841064453125">
        <ele>1695.199951171875</ele>
        <time>2026-09-01T07:14:59.000Z</time>
        <extensions>
          <ns3:TrackPointExtension>
            <ns3:hr>176</ns3:hr>
            <ns3:cad>70</ns3:cad>
          </ns3:TrackPointExtension>
        </extensions>
      </trkpt>
      <trkpt lat="47.55361519753932952880859375" lon="11.01361700333654880523681640625">
        <ele>1695.5999755859375</ele>
        <time>2026-09-01T07:15:00.000Z</time>
        <extensions>
          <ns3:TrackPointExtension>
            <ns3:hr>175</ns3:hr>
            <ns3:cad>0</ns3:cad>
          </ns3:TrackPointExtension>
        </extensions>
      </trkpt>
      <trkpt lat="47.553610503673553466796875" lon="11.01360417902469635009765625">
        <ele>1696</ele>
        <time>2026-09-01T07:15:01.000Z</time>
        <extensions>
          <ns3:TrackPointExtension>
            <ns3:hr>175</ns3:hr>
            <ns3:cad>0</ns3:cad>
          </ns3:TrackPointExtension>
        </extensions>
      </trkpt>
      <trkpt lat="47.55360773764550685882568359375" lon="11.01359236054122447967529296875">
        <ele>1696.199951171875</ele>
        <time>2026-09-01T07:15:02.000Z</time>
        <extensions>
          <ns3:TrackPointExtension>
            <ns3:hr>174</ns3:hr>
            <ns3:cad>0</ns3:cad>
          </ns3:TrackPointExtension>
        </extensions>
      </trkpt>
      <trkpt lat="47.553606145083904266357421875" lon="11.01357861422002315521240234375">
        <ele>1696.5999755859375</ele>
        <time>2026-09-01T07:15:03.000Z</time>
        <extensions>
          <ns3:TrackPointExtension>
            <ns3:hr>174</ns3:hr>
            <ns3:cad>0</ns3:cad>
          </ns3:TrackPointExtension>
        </extensions>
      </trkpt>
      <trkpt lat="47.55360388197004795074462890625" lon="11.0135667957365512847900390625">
        <ele>1696.800048828125</ele>
        <time>2026-09-01T07:15:04.000Z</time>
        <extensions>
          <ns3:TrackPointExtension>
            <ns3:hr>174</ns3:hr>
            <ns3:cad>0</ns3:cad>
          </ns3:TrackPointExtension>
        </extensions>
      </trkpt>
      <trkpt lat="47.553602121770381927490234375" lon="11.01355765946209430694580078125">
        <ele>1696.800048828125</ele>
        <time>2026-09-01T07:15:05.000Z</time>
        <extensions>
          <ns3:TrackPointExtension>
            <ns3:hr>173</ns3:hr>
            <ns3:cad>0</ns3:cad>
          </ns3:TrackPointExtension>
        </extensions>
      </trkpt>
      <trkpt lat="47.55359801463782787322998046875" lon="11.01354005746543407440185546875">
        <ele>1697</ele>
        <time>2026-09-01T07:15:06.000Z</time>
        <extensions>
          <ns3:TrackPointExtension>
            <ns3:hr>174</ns3:hr>
            <ns3:cad>0</ns3:cad>
          </ns3:TrackPointExtension>
        </extensions>
      </trkpt>
      <trkpt lat="47.553594745695590972900390625" lon="11.01351994089782238006591796875">
        <ele>1697</ele>
        <time>2026-09-01T07:15:07.000Z</time>
        <extensions>
          <ns3:TrackPointExtension>
            <ns3:hr>174</ns3:hr>
            <ns3:cad>0</ns3:cad>
          </ns3:TrackPointExtension>
        </extensions>
      </trkpt>
      <trkpt lat="47.5535915605723857879638671875" lon="11.0135044343769550323486328125">
        <ele>1697</ele>
        <time>2026-09-01T07:15:08.000Z</time>
        <extensions>
          <ns3:TrackPointExtension>
            <ns3:hr>174</ns3:hr>
            <ns3:cad>0</ns3:cad>
          </ns3:TrackPointExtension>
        </extensions>
      </trkpt>
      <trkpt lat="47.55357387475669384002685546875" lon="11.013501249253749847412109375">
        <ele>1697.199951171875</ele>
        <time>2026-09-01T07:15:09.000Z</time>
        <extensions>
          <ns3:TrackPointExtension>
            <ns3:hr>174</ns3:hr>
            <ns3:cad>0</ns3:cad>
          </ns3:TrackPointExtension>
        </extensions>
      </trkpt>
      <trkpt lat="47.553569264709949493408203125" lon="11.0134762711822986602783203125">
        <ele>1697.4000244140625</ele>
        <time>2026-09-01T07:15:10.000Z</time>
        <extensions>
          <ns3:TrackPointExtension>
            <ns3:hr>174</ns3:hr>
            <ns3:cad>0</ns3:cad>
          </ns3:TrackPointExtension>
        </extensions>
      </trkpt>
      <trkpt lat="47.5535647384822368621826171875" lon="11.01346277631819248199462890625">
        <ele>1697.4000244140625</ele>
        <time>2026-09-01T07:15:11.000Z</time>
        <extensions>
          <ns3:TrackPointExtension>
            <ns3:hr>174</ns3:hr>
            <ns3:cad>0</ns3:cad>
          </ns3:TrackPointExtension>
        </extensions>
      </trkpt>
      <trkpt lat="47.55355878733098506927490234375" lon="11.01344517432153224945068359375">
        <ele>1697.5999755859375</ele>
        <time>2026-09-01T07:15:12.000Z</time>
        <extensions>
          <ns3:TrackPointExtension>
            <ns3:hr>174</ns3:hr>
            <ns3:cad>0</ns3:cad>
          </ns3:TrackPointExtension>
        </extensions>
      </trkpt>
      <trkpt lat="47.5535546801984310150146484375" lon="11.01342958398163318634033203125">
        <ele>1697.5999755859375</ele>
        <time>2026-09-01T07:15:13.000Z</time>
        <extensions>
          <ns3:TrackPointExtension>
            <ns3:hr>174</ns3:hr>
            <ns3:cad>0</ns3:cad>
          </ns3:TrackPointExtension>
        </extensions>
      </trkpt>
      <trkpt lat="47.55354789085686206817626953125" lon="11.0134142450988292694091796875">
        <ele>1697.5999755859375</ele>
        <time>2026-09-01T07:15:14.000Z</time>
        <extensions>
          <ns3:TrackPointExtension>
            <ns3:hr>175</ns3:hr>
            <ns3:cad>0</ns3:cad>
          </ns3:TrackPointExtension>
        </extensions>
      </trkpt>
      <trkpt lat="47.55353934131562709808349609375" lon="11.01340033113956451416015625">
        <ele>1697.800048828125</ele>
        <time>2026-09-01T07:15:15.000Z</time>
        <extensions>
          <ns3:TrackPointExtension>
            <ns3:hr>174</ns3:hr>
            <ns3:cad>0</ns3:cad>
          </ns3:TrackPointExtension>
        </extensions>
      </trkpt>
      <trkpt lat="47.553535066545009613037109375" lon="11.013382561504840850830078125">
        <ele>1697.800048828125</ele>
        <time>2026-09-01T07:15:16.000Z</time>
        <extensions>
          <ns3:TrackPointExtension>
            <ns3:hr>175</ns3:hr>
            <ns3:cad>0</ns3:cad>
          </ns3:TrackPointExtension>
        </extensions>
      </trkpt>
      <trkpt lat="47.5535315461456775665283203125" lon="11.01336504332721233367919921875">
        <ele>1698</ele>
        <time>2026-09-01T07:15:17.000Z</time>
        <extensions>
          <ns3:TrackPointExtension>
            <ns3:hr>175</ns3:hr>
            <ns3:cad>0</ns3:cad>
          </ns3:TrackPointExtension>
        </extensions>
      </trkpt>
      <trkpt lat="47.55353347398340702056884765625" lon="11.0133465193212032318115234375">
        <ele>1698.199951171875</ele>
        <time>2026-09-01T07:15:18.000Z</time>
        <extensions>
          <ns3:TrackPointExtension>
            <ns3:hr>175</ns3:hr>
            <ns3:cad>0</ns3:cad>
          </ns3:TrackPointExtension>
        </extensions>
      </trkpt>
      <trkpt lat="47.5535313785076141357421875" lon="11.013330928981304168701171875">
        <ele>1698.4000244140625</ele>
        <time>2026-09-01T07:15:19.000Z</time>
        <extensions>
          <ns3:TrackPointExtension>
            <ns3:hr>174</ns3:hr>
            <ns3:cad>54</ns3:cad>
          </ns3:TrackPointExtension>
        </extensions>
      </trkpt>
      <trkpt lat="47.553531713783740997314453125" lon="11.0133151710033416748046875">
        <ele>1698.800048828125</ele>
        <time>2026-09-01T07:15:20.000Z</time>
        <extensions>
          <ns3:TrackPointExtension>
            <ns3:hr>174</ns3:hr>
            <ns3:cad>54</ns3:cad>
          </ns3:TrackPointExtension>
        </extensions>
      </trkpt>
      <trkpt lat="47.55353095941245555877685546875" lon="11.01330067031085491180419921875">
        <ele>1699</ele>
        <time>2026-09-01T07:15:21.000Z</time>
        <extensions>
          <ns3:TrackPointExtension>
            <ns3:hr>174</ns3:hr>
            <ns3:cad>53</ns3:cad>
          </ns3:TrackPointExtension>
        </extensions>
      </trkpt>
      <trkpt lat="47.55353062413632869720458984375" lon="11.01328776217997074127197265625">
        <ele>1699.4000244140625</ele>
        <time>2026-09-01T07:15:22.000Z</time>
        <extensions>
          <ns3:TrackPointExtension>
            <ns3:hr>175</ns3:hr>
            <ns3:cad>50</ns3:cad>
          </ns3:TrackPointExtension>
        </extensions>
      </trkpt>
      <trkpt lat="47.553531043231487274169921875" lon="11.01327368058264255523681640625">
        <ele>1699.800048828125</ele>
        <time>2026-09-01T07:15:23.000Z</time>
        <extensions>
          <ns3:TrackPointExtension>
            <ns3:hr>175</ns3:hr>
            <ns3:cad>50</ns3:cad>
          </ns3:TrackPointExtension>
        </extensions>
      </trkpt>
      <trkpt lat="47.55353062413632869720458984375" lon="11.0132590122520923614501953125">
        <ele>1700</ele>
        <time>2026-09-01T07:15:24.000Z</time>
        <extensions>
          <ns3:TrackPointExtension>
            <ns3:hr>175</ns3:hr>
            <ns3:cad>51</ns3:cad>
          </ns3:TrackPointExtension>
        </extensions>
      </trkpt>
      <trkpt lat="47.55353062413632869720458984375" lon="11.0132456012070178985595703125">
        <ele>1700.4000244140625</ele>
        <time>2026-09-01T07:15:25.000Z</time>
        <extensions>
          <ns3:TrackPointExtension>
            <ns3:hr>174</ns3:hr>
            <ns3:cad>52</ns3:cad>
          </ns3:TrackPointExtension>
        </extensions>
      </trkpt>
      <trkpt lat="47.55353204905986785888671875" lon="11.013227999210357666015625">
        <ele>1700.5999755859375</ele>
        <time>2026-09-01T07:15:26.000Z</time>
        <extensions>
          <ns3:TrackPointExtension>
            <ns3:hr>175</ns3:hr>
            <ns3:cad>53</ns3:cad>
          </ns3:TrackPointExtension>
        </extensions>
      </trkpt>
      <trkpt lat="47.5535340607166290283203125" lon="11.01321081630885601043701171875">
        <ele>1701.199951171875</ele>
        <time>2026-09-01T07:15:27.000Z</time>
        <extensions>
          <ns3:TrackPointExtension>
            <ns3:hr>175</ns3:hr>
            <ns3:cad>54</ns3:cad>
          </ns3:TrackPointExtension>
        </extensions>
      </trkpt>
      <trkpt lat="47.55353741347789764404296875" lon="11.01319891400635242462158203125">
        <ele>1701.5999755859375</ele>
        <time>2026-09-01T07:15:28.000Z</time>
        <extensions>
          <ns3:TrackPointExtension>
            <ns3:hr>174</ns3:hr>
            <ns3:cad>54</ns3:cad>
          </ns3:TrackPointExtension>
        </extensions>
      </trkpt>
      <trkpt lat="47.55354051478207111358642578125" lon="11.01318667642772197723388671875">
        <ele>1702</ele>
        <time>2026-09-01T07:15:29.000Z</time>
        <extensions>
          <ns3:TrackPointExtension>
            <ns3:hr>174</ns3:hr>
            <ns3:cad>54</ns3:cad>
          </ns3:TrackPointExtension>
        </extensions>
      </trkpt>
      <trkpt lat="47.55354336462914943695068359375" lon="11.0131815634667873382568359375">
        <ele>1702.4000244140625</ele>
        <time>2026-09-01T07:15:30.000Z</time>
        <extensions>
          <ns3:TrackPointExtension>
            <ns3:hr>174</ns3:hr>
            <ns3:cad>54</ns3:cad>
          </ns3:TrackPointExtension>
        </extensions>
      </trkpt>
      <trkpt lat="47.55354504100978374481201171875" lon="11.013175360858440399169921875">
        <ele>1702.5999755859375</ele>
        <time>2026-09-01T07:15:31.000Z</time>
        <extensions>
          <ns3:TrackPointExtension>
            <ns3:hr>174</ns3:hr>
            <ns3:cad>54</ns3:cad>
          </ns3:TrackPointExtension>
        </extensions>
      </trkpt>
      <trkpt lat="47.55354638211429119110107421875" lon="11.013168655335903167724609375">
        <ele>1702.5999755859375</ele>
        <time>2026-09-01T07:15:32.000Z</time>
        <extensions>
          <ns3:TrackPointExtension>
            <ns3:hr>174</ns3:hr>
            <ns3:cad>54</ns3:cad>
          </ns3:TrackPointExtension>
        </extensions>
      </trkpt>
      <trkpt lat="47.55354671739041805267333984375" lon="11.01315733976662158966064453125">
        <ele>1702.800048828125</ele>
        <time>2026-09-01T07:15:33.000Z</time>
        <extensions>
          <ns3:TrackPointExtension>
            <ns3:hr>174</ns3:hr>
            <ns3:cad>54</ns3:cad>
          </ns3:TrackPointExtension>
        </extensions>
      </trkpt>
      <trkpt lat="47.5535462982952594757080078125" lon="11.01314241997897624969482421875">
        <ele>1702.800048828125</ele>
        <time>2026-09-01T07:15:34.000Z</time>
        <extensions>
          <ns3:TrackPointExtension>
            <ns3:hr>173</ns3:hr>
            <ns3:cad>54</ns3:cad>
          </ns3:TrackPointExtension>
        </extensions>
      </trkpt>
      <trkpt lat="47.5535446219146251678466796875" lon="11.01312180049717426300048828125">
        <ele>1703</ele>
        <time>2026-09-01T07:15:35.000Z</time>
        <extensions>
          <ns3:TrackPointExtension>
            <ns3:hr>173</ns3:hr>
            <ns3:cad>0</ns3:cad>
          </ns3:TrackPointExtension>
        </extensions>
      </trkpt>
      <trkpt lat="47.55354185588657855987548828125" lon="11.0131005942821502685546875">
        <ele>1703</ele>
        <time>2026-09-01T07:15:36.000Z</time>
        <extensions>
          <ns3:TrackPointExtension>
            <ns3:hr>173</ns3:hr>
            <ns3:cad>0</ns3:cad>
          </ns3:TrackPointExtension>
        </extensions>
      </trkpt>
      <trkpt lat="47.5535389222204685211181640625" lon="11.01307469420135021209716796875">
        <ele>1703.199951171875</ele>
        <time>2026-09-01T07:15:37.000Z</time>
        <extensions>
          <ns3:TrackPointExtension>
            <ns3:hr>173</ns3:hr>
            <ns3:cad>0</ns3:cad>
          </ns3:TrackPointExtension>
        </extensions>
      </trkpt>
      <trkpt lat="47.553535401821136474609375" lon="11.013058684766292572021484375">
        <ele>1703.5999755859375</ele>
        <time>2026-09-01T07:15:38.000Z</time>
        <extensions>
          <ns3:TrackPointExtension>
            <ns3:hr>173</ns3:hr>
            <ns3:cad>0</ns3:cad>
          </ns3:TrackPointExtension>
        </extensions>
      </trkpt>
      <trkpt lat="47.553530037403106689453125" lon="11.013041250407695770263671875">
        <ele>1703.5999755859375</ele>
        <time>2026-09-01T07:15:39.000Z</time>
        <extensions>
          <ns3:TrackPointExtension>
            <ns3:hr>173</ns3:hr>
            <ns3:cad>68</ns3:cad>
          </ns3:TrackPointExtension>
        </extensions>
      </trkpt>
      <trkpt lat="47.5535234995186328887939453125" lon="11.0130169428884983062744140625">
        <ele>1703.800048828125</ele>
        <time>2026-09-01T07:15:40.000Z</time>
        <extensions>
          <ns3:TrackPointExtension>
            <ns3:hr>173</ns3:hr>
            <ns3:cad>68</ns3:cad>
          </ns3:TrackPointExtension>
        </extensions>
      </trkpt>
      <trkpt lat="47.55351721309125423431396484375" lon="11.01299204863607883453369140625">
        <ele>1704</ele>
        <time>2026-09-01T07:15:41.000Z</time>
        <extensions>
          <ns3:TrackPointExtension>
            <ns3:hr>173</ns3:hr>
            <ns3:cad>67</ns3:cad>
          </ns3:TrackPointExtension>
        </extensions>
      </trkpt>
      <trkpt lat="47.5535107590258121490478515625" lon="11.01297059096395969390869140625">
        <ele>1704</ele>
        <time>2026-09-01T07:15:42.000Z</time>
        <extensions>
          <ns3:TrackPointExtension>
            <ns3:hr>172</ns3:hr>
            <ns3:cad>67</ns3:cad>
          </ns3:TrackPointExtension>
        </extensions>
      </trkpt>
      <trkpt lat="47.55350430496037006378173828125" lon="11.01294837892055511474609375">
        <ele>1704.199951171875</ele>
        <time>2026-09-01T07:15:43.000Z</time>
        <extensions>
          <ns3:TrackPointExtension>
            <ns3:hr>173</ns3:hr>
            <ns3:cad>67</ns3:cad>
          </ns3:TrackPointExtension>
        </extensions>
      </trkpt>
      <trkpt lat="47.55349759943783283233642578125" lon="11.01291812025010585784912109375">
        <ele>1704.199951171875</ele>
        <time>2026-09-01T07:15:44.000Z</time>
        <extensions>
          <ns3:TrackPointExtension>
            <ns3:hr>173</ns3:hr>
            <ns3:cad>71</ns3:cad>
          </ns3:TrackPointExtension>
        </extensions>
      </trkpt>
      <trkpt lat="47.55349055863916873931884765625" lon="11.012889705598354339599609375">
        <ele>1704.4000244140625</ele>
        <time>2026-09-01T07:15:45.000Z</time>
        <extensions>
          <ns3:TrackPointExtension>
            <ns3:hr>172</ns3:hr>
            <ns3:cad>72</ns3:cad>
          </ns3:TrackPointExtension>
        </extensions>
      </trkpt>
      <trkpt lat="47.553483434021472930908203125" lon="11.01286866702139377593994140625">
        <ele>1704.5999755859375</ele>
        <time>2026-09-01T07:15:46.000Z</time>
        <extensions>
          <ns3:TrackPointExtension>
            <ns3:hr>171</ns3:hr>
            <ns3:cad>73</ns3:cad>
          </ns3:TrackPointExtension>
        </extensions>
      </trkpt>
      <trkpt lat="47.553477399051189422607421875" lon="11.0128472931683063507080078125">
        <ele>1704.5999755859375</ele>
        <time>2026-09-01T07:15:47.000Z</time>
        <extensions>
          <ns3:TrackPointExtension>
            <ns3:hr>171</ns3:hr>
            <ns3:cad>74</ns3:cad>
          </ns3:TrackPointExtension>
        </extensions>
      </trkpt>
      <trkpt lat="47.55345870740711688995361328125" lon="11.0128177888691425323486328125">
        <ele>1705</ele>
        <time>2026-09-01T07:15:48.000Z</time>
        <extensions>
          <ns3:TrackPointExtension>
            <ns3:hr>171</ns3:hr>
            <ns3:cad>75</ns3:cad>
          </ns3:TrackPointExtension>
        </extensions>
      </trkpt>
      <trkpt lat="47.55344890058040618896484375" lon="11.0127876140177249908447265625">
        <ele>1705.199951171875</ele>
        <time>2026-09-01T07:15:49.000Z</time>
        <extensions>
          <ns3:TrackPointExtension>
            <ns3:hr>170</ns3:hr>
            <ns3:cad>75</ns3:cad>
          </ns3:TrackPointExtension>
        </extensions>
      </trkpt>
      <trkpt lat="47.553435154259204864501953125" lon="11.01276322267949581146240234375">
        <ele>1705.4000244140625</ele>
        <time>2026-09-01T07:15:50.000Z</time>
        <extensions>
          <ns3:TrackPointExtension>
            <ns3:hr>171</ns3:hr>
            <ns3:cad>76</ns3:cad>
          </ns3:TrackPointExtension>
        </extensions>
      </trkpt>
      <trkpt lat="47.55342585034668445587158203125" lon="11.012738831341266632080078125">
        <ele>1705.5999755859375</ele>
        <time>2026-09-01T07:15:51.000Z</time>
        <extensions>
          <ns3:TrackPointExtension>
            <ns3:hr>171</ns3:hr>
            <ns3:cad>76</ns3:cad>
          </ns3:TrackPointExtension>
        </extensions>
      </trkpt>
      <trkpt lat="47.55341663025319576263427734375" lon="11.0127098299562931060791015625">
        <ele>1706</ele>
        <time>2026-09-01T07:15:52.000Z</time>
        <extensions>
          <ns3:TrackPointExtension>
            <ns3:hr>172</ns3:hr>
            <ns3:cad>76</ns3:cad>
          </ns3:TrackPointExtension>
        </extensions>
      </trkpt>
      <trkpt lat="47.553409002721309661865234375" lon="11.0126783140003681182861328125">
        <ele>1706.4000244140625</ele>
        <time>2026-09-01T07:15:53.000Z</time>
        <extensions>
          <ns3:TrackPointExtension>
            <ns3:hr>172</ns3:hr>
            <ns3:cad>76</ns3:cad>
          </ns3:TrackPointExtension>
        </extensions>
      </trkpt>
      <trkpt lat="47.55340137518942356109619140625" lon="11.0126471333205699920654296875">
        <ele>1706.800048828125</ele>
        <time>2026-09-01T07:15:54.000Z</time>
        <extensions>
          <ns3:TrackPointExtension>
            <ns3:hr>172</ns3:hr>
            <ns3:cad>76</ns3:cad>
          </ns3:TrackPointExtension>
        </extensions>
      </trkpt>
      <trkpt lat="47.5533974356949329376220703125" lon="11.01262425072491168975830078125">
        <ele>1707</ele>
        <time>2026-09-01T07:15:55.000Z</time>
        <extensions>
          <ns3:TrackPointExtension>
            <ns3:hr>172</ns3:hr>
            <ns3:cad>74</ns3:cad>
          </ns3:TrackPointExtension>
        </extensions>
      </trkpt>
      <trkpt lat="47.55339198745787143707275390625" lon="11.0125961713492870330810546875">
        <ele>1707.4000244140625</ele>
        <time>2026-09-01T07:15:56.000Z</time>
        <extensions>
          <ns3:TrackPointExtension>
            <ns3:hr>173</ns3:hr>
            <ns3:cad>74</ns3:cad>
          </ns3:TrackPointExtension>
        </extensions>
      </trkpt>
      <trkpt lat="47.5533833540976047515869140625" lon="11.01256222464144229888916015625">
        <ele>1707.800048828125</ele>
        <time>2026-09-01T07:15:57.000Z</time>
        <extensions>
          <ns3:TrackPointExtension>
            <ns3:hr>173</ns3:hr>
            <ns3:cad>74</ns3:cad>
          </ns3:TrackPointExtension>
        </extensions>
      </trkpt>
      <trkpt lat="47.5533732958137989044189453125" lon="11.01253288798034191131591796875">
        <ele>1708</ele>
        <time>2026-09-01T07:15:58.000Z</time>
        <extensions>
          <ns3:TrackPointExtension>
            <ns3:hr>174</ns3:hr>
            <ns3:cad>74</ns3:cad>
          </ns3:TrackPointExtension>
        </extensions>
      </trkpt>
      <trkpt lat="47.55336550064384937286376953125" lon="11.01251210086047649383544921875">
        <ele>1708.4000244140625</ele>
        <time>2026-09-01T07:15:59.000Z</time>
        <extensions>
          <ns3:TrackPointExtension>
            <ns3:hr>174</ns3:hr>
            <ns3:cad>74</ns3:cad>
          </ns3:TrackPointExtension>
        </extensions>
      </trkpt>
      <trkpt lat="47.55334974266588687896728515625" lon="11.0124935768544673919677734375">
        <ele>1708.5999755859375</ele>
        <time>2026-09-01T07:16:00.000Z</time>
        <extensions>
          <ns3:TrackPointExtension>
            <ns3:hr>174</ns3:hr>
            <ns3:cad>74</ns3:cad>
          </ns3:TrackPointExtension>
        </extensions>
      </trkpt>
      <trkpt lat="47.55333314649760723114013671875" lon="11.0124764777719974517822265625">
        <ele>1709</ele>
        <time>2026-09-01T07:16:01.000Z</time>
        <extensions>
          <ns3:TrackPointExtension>
            <ns3:hr>174</ns3:hr>
            <ns3:cad>74</ns3:cad>
          </ns3:TrackPointExtension>
        </extensions>
      </trkpt>
      <trkpt lat="47.553324513137340545654296875" lon="11.01245619356632232666015625">
        <ele>1709.4000244140625</ele>
        <time>2026-09-01T07:16:02.000Z</time>
        <extensions>
          <ns3:TrackPointExtension>
            <ns3:hr>175</ns3:hr>
            <ns3:cad>75</ns3:cad>
          </ns3:TrackPointExtension>
        </extensions>
      </trkpt>
      <trkpt lat="47.5533194839954376220703125" lon="11.012437082827091217041015625">
        <ele>1709.5999755859375</ele>
        <time>2026-09-01T07:16:03.000Z</time>
        <extensions>
          <ns3:TrackPointExtension>
            <ns3:hr>175</ns3:hr>
            <ns3:cad>75</ns3:cad>
          </ns3:TrackPointExtension>
        </extensions>
      </trkpt>
      <trkpt lat="47.5533169694244861602783203125" lon="11.0124059021472930908203125">
        <ele>1709.800048828125</ele>
        <time>2026-09-01T07:16:04.000Z</time>
        <extensions>
          <ns3:TrackPointExtension>
            <ns3:hr>175</ns3:hr>
            <ns3:cad>76</ns3:cad>
          </ns3:TrackPointExtension>
        </extensions>
      </trkpt>
      <trkpt lat="47.5533194839954376220703125" lon="11.01237832568585872650146484375">
        <ele>1710</ele>
        <time>2026-09-01T07:16:05.000Z</time>
        <extensions>
          <ns3:TrackPointExtension>
            <ns3:hr>175</ns3:hr>
            <ns3:cad>76</ns3:cad>
          </ns3:TrackPointExtension>
        </extensions>
      </trkpt>
      <trkpt lat="47.55332174710929393768310546875" lon="11.01235829293727874755859375">
        <ele>1710.199951171875</ele>
        <time>2026-09-01T07:16:06.000Z</time>
        <extensions>
          <ns3:TrackPointExtension>
            <ns3:hr>176</ns3:hr>
            <ns3:cad>76</ns3:cad>
          </ns3:TrackPointExtension>
        </extensions>
      </trkpt>
      <trkpt lat="47.5533266924321651458740234375" lon="11.0123468935489654541015625">
        <ele>1710.5999755859375</ele>
        <time>2026-09-01T07:16:07.000Z</time>
        <extensions>
          <ns3:TrackPointExtension>
            <ns3:hr>176</ns3:hr>
            <ns3:cad>76</ns3:cad>
          </ns3:TrackPointExtension>
        </extensions>
      </trkpt>
      <trkpt lat="47.553331889212131500244140625" lon="11.01232971064746379852294921875">
        <ele>1710.800048828125</ele>
        <time>2026-09-01T07:16:08.000Z</time>
        <extensions>
          <ns3:TrackPointExtension>
            <ns3:hr>176</ns3:hr>
            <ns3:cad>76</ns3:cad>
          </ns3:TrackPointExtension>
        </extensions>
      </trkpt>
      <trkpt lat="47.55332686007022857666015625" lon="11.01231948472559452056884765625">
        <ele>1711.199951171875</ele>
        <time>2026-09-01T07:16:09.000Z</time>
        <extensions>
          <ns3:TrackPointExtension>
            <ns3:hr>176</ns3:hr>
            <ns3:cad>76</ns3:cad>
          </ns3:TrackPointExtension>
        </extensions>
      </trkpt>
      <trkpt lat="47.5533235073089599609375" lon="11.0122977755963802337646484375">
        <ele>1711.5999755859375</ele>
        <time>2026-09-01T07:16:10.000Z</time>
        <extensions>
          <ns3:TrackPointExtension>
            <ns3:hr>176</ns3:hr>
            <ns3:cad>76</ns3:cad>
          </ns3:TrackPointExtension>
        </extensions>
      </trkpt>
      <trkpt lat="47.553313784301280975341796875" lon="11.01227489300072193145751953125">
        <ele>1711.800048828125</ele>
        <time>2026-09-01T07:16:11.000Z</time>
        <extensions>
          <ns3:TrackPointExtension>
            <ns3:hr>176</ns3:hr>
            <ns3:cad>76</ns3:cad>
          </ns3:TrackPointExtension>
        </extensions>
      </trkpt>
      <trkpt lat="47.5533052347600460052490234375" lon="11.0122530162334442138671875">
        <ele>1712</ele>
        <time>2026-09-01T07:16:12.000Z</time>
        <extensions>
          <ns3:TrackPointExtension>
            <ns3:hr>176</ns3:hr>
            <ns3:cad>76</ns3:cad>
          </ns3:TrackPointExtension>
        </extensions>
      </trkpt>
      <trkpt lat="47.5532965175807476043701171875" lon="11.01222560741007328033447265625">
        <ele>1712</ele>
        <time>2026-09-01T07:16:13.000Z</time>
        <extensions>
          <ns3:TrackPointExtension>
            <ns3:hr>177</ns3:hr>
            <ns3:cad>76</ns3:cad>
          </ns3:TrackPointExtension>
        </extensions>
      </trkpt>
      <trkpt lat="47.5532854534685611724853515625" lon="11.01219643838703632354736328125">
        <ele>1711.800048828125</ele>
        <time>2026-09-01T07:16:14.000Z</time>
        <extensions>
          <ns3:TrackPointExtension>
            <ns3:hr>176</ns3:hr>
            <ns3:cad>76</ns3:cad>
          </ns3:TrackPointExtension>
        </extensions>
      </trkpt>
      <trkpt lat="47.55327447317540645599365234375" lon="11.01218084804713726043701171875">
        <ele>1711.800048828125</ele>
        <time>2026-09-01T07:16:15.000Z</time>
        <extensions>
          <ns3:TrackPointExtension>
            <ns3:hr>176</ns3:hr>
            <ns3:cad>71</ns3:cad>
          </ns3:TrackPointExtension>
        </extensions>
      </trkpt>
      <trkpt lat="47.55326307378709316253662109375" lon="11.01216249167919158935546875">
        <ele>1711.5999755859375</ele>
        <time>2026-09-01T07:16:16.000Z</time>
        <extensions>
          <ns3:TrackPointExtension>
            <ns3:hr>177</ns3:hr>
            <ns3:cad>71</ns3:cad>
          </ns3:TrackPointExtension>
        </extensions>
      </trkpt>
      <trkpt lat="47.553247399628162384033203125" lon="11.0121425427496433258056640625">
        <ele>1711.4000244140625</ele>
        <time>2026-09-01T07:16:17.000Z</time>
        <extensions>
          <ns3:TrackPointExtension>
            <ns3:hr>176</ns3:hr>
            <ns3:cad>71</ns3:cad>
          </ns3:TrackPointExtension>
        </extensions>
      </trkpt>
      <trkpt lat="47.55322351120412349700927734375" lon="11.01212586276233196258544921875">
        <ele>1711.199951171875</ele>
        <time>2026-09-01T07:16:18.000Z</time>
        <extensions>
          <ns3:TrackPointExtension>
            <ns3:hr>176</ns3:hr>
            <ns3:cad>71</ns3:cad>
          </ns3:TrackPointExtension>
        </extensions>
      </trkpt>
      <trkpt lat="47.5532069988548755645751953125" lon="11.0121116973459720611572265625">
        <ele>1711</ele>
        <time>2026-09-01T07:16:19.000Z</time>
        <extensions>
          <ns3:TrackPointExtension>
            <ns3:hr>177</ns3:hr>
            <ns3:cad>71</ns3:cad>
          </ns3:TrackPointExtension>
        </extensions>
      </trkpt>
      <trkpt lat="47.55318847484886646270751953125" lon="11.0120852105319499969482421875">
        <ele>1710.800048828125</ele>
        <time>2026-09-01T07:16:20.000Z</time>
        <extensions>
          <ns3:TrackPointExtension>
            <ns3:hr>178</ns3:hr>
            <ns3:cad>71</ns3:cad>
          </ns3:TrackPointExtension>
        </extensions>
      </trkpt>
      <trkpt lat="47.55317238159477710723876953125" lon="11.0120664350688457489013671875">
        <ele>1710.4000244140625</ele>
        <time>2026-09-01T07:16:21.000Z</time>
        <extensions>
          <ns3:TrackPointExtension>
            <ns3:hr>178</ns3:hr>
            <ns3:cad>71</ns3:cad>
          </ns3:TrackPointExtension>
        </extensions>
      </trkpt>
      <trkpt lat="47.553159892559051513671875" lon="11.01206115446984767913818359375">
        <ele>1710.199951171875</ele>
        <time>2026-09-01T07:16:22.000Z</time>
        <extensions>
          <ns3:TrackPointExtension>
            <ns3:hr>179</ns3:hr>
            <ns3:cad>71</ns3:cad>
          </ns3:TrackPointExtension>
        </extensions>
      </trkpt>
      <trkpt lat="47.553142793476581573486328125" lon="11.01204757578670978546142578125">
        <ele>1710.199951171875</ele>
        <time>2026-09-01T07:16:23.000Z</time>
        <extensions>
          <ns3:TrackPointExtension>
            <ns3:hr>179</ns3:hr>
            <ns3:cad>71</ns3:cad>
          </ns3:TrackPointExtension>
        </extensions>
      </trkpt>
      <trkpt lat="47.55313131026923656463623046875" lon="11.01203802041709423065185546875">
        <ele>1710.4000244140625</ele>
        <time>2026-09-01T07:16:24.000Z</time>
        <extensions>
          <ns3:TrackPointExtension>
            <ns3:hr>179</ns3:hr>
            <ns3:cad>71</ns3:cad>
          </ns3:TrackPointExtension>
        </extensions>
      </trkpt>
      <trkpt lat="47.553116977214813232421875" lon="11.01204036734998226165771484375">
        <ele>1710.4000244140625</ele>
        <time>2026-09-01T07:16:25.000Z</time>
        <extensions>
          <ns3:TrackPointExtension>
            <ns3:hr>179</ns3:hr>
            <ns3:cad>71</ns3:cad>
          </ns3:TrackPointExtension>
        </extensions>
      </trkpt>
      <trkpt lat="47.5531070865690708160400390625" lon="11.01203533820807933807373046875">
        <ele>1710.5999755859375</ele>
        <time>2026-09-01T07:16:26.000Z</time>
        <extensions>
          <ns3:TrackPointExtension>
            <ns3:hr>179</ns3:hr>
            <ns3:cad>71</ns3:cad>
          </ns3:TrackPointExtension>
        </extensions>
      </trkpt>
      <trkpt lat="47.553101219236850738525390625" lon="11.01202963851392269134521484375">
        <ele>1710.5999755859375</ele>
        <time>2026-09-01T07:16:27.000Z</time>
        <extensions>
          <ns3:TrackPointExtension>
            <ns3:hr>179</ns3:hr>
            <ns3:cad>71</ns3:cad>
          </ns3:TrackPointExtension>
        </extensions>
      </trkpt>
      <trkpt lat="47.553089819848537445068359375" lon="11.0120238550007343292236328125">
        <ele>1710.4000244140625</ele>
        <time>2026-09-01T07:16:28.000Z</time>
        <extensions>
          <ns3:TrackPointExtension>
            <ns3:hr>178</ns3:hr>
            <ns3:cad>66</ns3:cad>
          </ns3:TrackPointExtension>
        </extensions>
      </trkpt>
      <trkpt lat="47.55307951010763645172119140625" lon="11.01201991550624370574951171875">
        <ele>1710.4000244140625</ele>
        <time>2026-09-01T07:16:29.000Z</time>
        <extensions>
          <ns3:TrackPointExtension>
            <ns3:hr>178</ns3:hr>
            <ns3:cad>66</ns3:cad>
          </ns3:TrackPointExtension>
        </extensions>
      </trkpt>
      <trkpt lat="47.55306744016706943511962890625" lon="11.0120087675750255584716796875">
        <ele>1710.4000244140625</ele>
        <time>2026-09-01T07:16:30.000Z</time>
        <extensions>
          <ns3:TrackPointExtension>
            <ns3:hr>177</ns3:hr>
            <ns3:cad>46</ns3:cad>
          </ns3:TrackPointExtension>
        </extensions>
      </trkpt>
      <trkpt lat="47.55306006409227848052978515625" lon="11.01200600154697895050048828125">
        <ele>1710.199951171875</ele>
        <time>2026-09-01T07:16:31.000Z</time>
        <extensions>
          <ns3:TrackPointExtension>
            <ns3:hr>176</ns3:hr>
            <ns3:cad>46</ns3:cad>
          </ns3:TrackPointExtension>
        </extensions>
      </trkpt>
      <trkpt lat="47.55305319093167781829833984375" lon="11.01200449280440807342529296875">
        <ele>1710.199951171875</ele>
        <time>2026-09-01T07:16:32.000Z</time>
        <extensions>
          <ns3:TrackPointExtension>
            <ns3:hr>175</ns3:hr>
            <ns3:cad>46</ns3:cad>
          </ns3:TrackPointExtension>
        </extensions>
      </trkpt>
      <trkpt lat="47.55303919315338134765625" lon="11.01199753582477569580078125">
        <ele>1710.199951171875</ele>
        <time>2026-09-01T07:16:33.000Z</time>
        <extensions>
          <ns3:TrackPointExtension>
            <ns3:hr>174</ns3:hr>
            <ns3:cad>46</ns3:cad>
          </ns3:TrackPointExtension>
        </extensions>
      </trkpt>
      <trkpt lat="47.55303340964019298553466796875" lon="11.01199057884514331817626953125">
        <ele>1710.199951171875</ele>
        <time>2026-09-01T07:16:34.000Z</time>
        <extensions>
          <ns3:TrackPointExtension>
            <ns3:hr>173</ns3:hr>
            <ns3:cad>46</ns3:cad>
          </ns3:TrackPointExtension>
        </extensions>
      </trkpt>
      <trkpt lat="47.5530298054218292236328125" lon="11.0119742341339588165283203125">
        <ele>1710</ele>
        <time>2026-09-01T07:16:35.000Z</time>
        <extensions>
          <ns3:TrackPointExtension>
            <ns3:hr>173</ns3:hr>
            <ns3:cad>46</ns3:cad>
          </ns3:TrackPointExtension>
        </extensions>
      </trkpt>
      <trkpt lat="47.55302033387124538421630859375" lon="11.01196006871759891510009765625">
        <ele>1710</ele>
        <time>2026-09-01T07:16:36.000Z</time>
        <extensions>
          <ns3:TrackPointExtension>
            <ns3:hr>172</ns3:hr>
            <ns3:cad>46</ns3:cad>
          </ns3:TrackPointExtension>
        </extensions>
      </trkpt>
      <trkpt lat="47.55301765166223049163818359375" lon="11.01195336319506168365478515625">
        <ele>1709.800048828125</ele>
        <time>2026-09-01T07:16:37.000Z</time>
        <extensions>
          <ns3:TrackPointExtension>
            <ns3:hr>171</ns3:hr>
            <ns3:cad>0</ns3:cad>
          </ns3:TrackPointExtension>
        </extensions>
      </trkpt>
      <trkpt lat="47.5530075095593929290771484375" lon="11.0119400359690189361572265625">
        <ele>1709.800048828125</ele>
        <time>2026-09-01T07:16:38.000Z</time>
        <extensions>
          <ns3:TrackPointExtension>
            <ns3:hr>170</ns3:hr>
            <ns3:cad>0</ns3:cad>
          </ns3:TrackPointExtension>
        </extensions>
      </trkpt>
      <trkpt lat="47.552999295294284820556640625" lon="11.01193450391292572021484375">
        <ele>1709.5999755859375</ele>
        <time>2026-09-01T07:16:39.000Z</time>
        <extensions>
          <ns3:TrackPointExtension>
            <ns3:hr>170</ns3:hr>
            <ns3:cad>0</ns3:cad>
          </ns3:TrackPointExtension>
        </extensions>
      </trkpt>
      <trkpt lat="47.5529883988201618194580078125" lon="11.01191815920174121856689453125">
        <ele>1709.5999755859375</ele>
        <time>2026-09-01T07:16:40.000Z</time>
        <extensions>
          <ns3:TrackPointExtension>
            <ns3:hr>169</ns3:hr>
            <ns3:cad>0</ns3:cad>
          </ns3:TrackPointExtension>
        </extensions>
      </trkpt>
      <trkpt lat="47.55298026837408542633056640625" lon="11.011907346546649932861328125">
        <ele>1709.5999755859375</ele>
        <time>2026-09-01T07:16:41.000Z</time>
        <extensions>
          <ns3:TrackPointExtension>
            <ns3:hr>168</ns3:hr>
            <ns3:cad>0</ns3:cad>
          </ns3:TrackPointExtension>
        </extensions>
      </trkpt>
      <trkpt lat="47.5529749877750873565673828125" lon="11.0118991322815418243408203125">
        <ele>1709.5999755859375</ele>
        <time>2026-09-01T07:16:42.000Z</time>
        <extensions>
          <ns3:TrackPointExtension>
            <ns3:hr>167</ns3:hr>
            <ns3:cad>0</ns3:cad>
          </ns3:TrackPointExtension>
        </extensions>
      </trkpt>
      <trkpt lat="47.55296685732901096343994140625" lon="11.01188714616000652313232421875">
        <ele>1709.5999755859375</ele>
        <time>2026-09-01T07:16:43.000Z</time>
        <extensions>
          <ns3:TrackPointExtension>
            <ns3:hr>166</ns3:hr>
            <ns3:cad>0</ns3:cad>
          </ns3:TrackPointExtension>
        </extensions>
      </trkpt>
      <trkpt lat="47.55295730195939540863037109375" lon="11.0118770040571689605712890625">
        <ele>1709.5999755859375</ele>
        <time>2026-09-01T07:16:44.000Z</time>
        <extensions>
          <ns3:TrackPointExtension>
            <ns3:hr>166</ns3:hr>
            <ns3:cad>0</ns3:cad>
          </ns3:TrackPointExtension>
        </extensions>
      </trkpt>
      <trkpt lat="47.5529555417597293853759765625" lon="11.01187926717102527618408203125">
        <ele>1709.5999755859375</ele>
        <time>2026-09-01T07:16:45.000Z</time>
        <extensions>
          <ns3:TrackPointExtension>
            <ns3:hr>165</ns3:hr>
            <ns3:cad>0</ns3:cad>
          </ns3:TrackPointExtension>
        </extensions>
      </trkpt>
      <trkpt lat="47.5529481656849384307861328125" lon="11.01187272928655147552490234375">
        <ele>1709.5999755859375</ele>
        <time>2026-09-01T07:16:46.000Z</time>
        <extensions>
          <ns3:TrackPointExtension>
            <ns3:hr>163</ns3:hr>
            <ns3:cad>0</ns3:cad>
          </ns3:TrackPointExtension>
        </extensions>
      </trkpt>
      <trkpt lat="47.55293902941048145294189453125" lon="11.01186116226017475128173828125">
        <ele>1709.5999755859375</ele>
        <time>2026-09-01T07:16:47.000Z</time>
        <extensions>
          <ns3:TrackPointExtension>
            <ns3:hr>162</ns3:hr>
            <ns3:cad>0</ns3:cad>
          </ns3:TrackPointExtension>
        </extensions>
      </trkpt>
      <trkpt lat="47.5529334135353565216064453125" lon="11.01185412146151065826416015625">
        <ele>1709.5999755859375</ele>
        <time>2026-09-01T07:16:48.000Z</time>
        <extensions>
          <ns3:TrackPointExtension>
            <ns3:hr>161</ns3:hr>
            <ns3:cad>19</ns3:cad>
          </ns3:TrackPointExtension>
        </extensions>
      </trkpt>
      <trkpt lat="47.552930898964405059814453125" lon="11.01183903403580188751220703125">
        <ele>1709.4000244140625</ele>
        <time>2026-09-01T07:16:49.000Z</time>
        <extensions>
          <ns3:TrackPointExtension>
            <ns3:hr>160</ns3:hr>
            <ns3:cad>40</ns3:cad>
          </ns3:TrackPointExtension>
        </extensions>
      </trkpt>
      <trkpt lat="47.55292444489896297454833984375" lon="11.01182193495333194732666015625">
        <ele>1709.4000244140625</ele>
        <time>2026-09-01T07:16:50.000Z</time>
        <extensions>
          <ns3:TrackPointExtension>
            <ns3:hr>159</ns3:hr>
            <ns3:cad>19</ns3:cad>
          </ns3:TrackPointExtension>
        </extensions>
      </trkpt>
      <trkpt lat="47.5529233552515506744384765625" lon="11.01180885918438434600830078125">
        <ele>1709.5999755859375</ele>
        <time>2026-09-01T07:16:51.000Z</time>
        <extensions>
          <ns3:TrackPointExtension>
            <ns3:hr>158</ns3:hr>
            <ns3:cad>0</ns3:cad>
          </ns3:TrackPointExtension>
        </extensions>
      </trkpt>
      <trkpt lat="47.55292444489896297454833984375" lon="11.01178891025483608245849609375">
        <ele>1709.5999755859375</ele>
        <time>2026-09-01T07:16:52.000Z</time>
        <extensions>
          <ns3:TrackPointExtension>
            <ns3:hr>156</ns3:hr>
            <ns3:cad>0</ns3:cad>
          </ns3:TrackPointExtension>
        </extensions>
      </trkpt>
      <trkpt lat="47.55292327143251895904541015625" lon="11.01177365519106388092041015625">
        <ele>1710</ele>
        <time>2026-09-01T07:16:53.000Z</time>
        <extensions>
          <ns3:TrackPointExtension>
            <ns3:hr>156</ns3:hr>
            <ns3:cad>71</ns3:cad>
          </ns3:TrackPointExtension>
        </extensions>
      </trkpt>
      <trkpt lat="47.55292343907058238983154296875" lon="11.011767201125621795654296875">
        <ele>1710.199951171875</ele>
        <time>2026-09-01T07:16:54.000Z</time>
        <extensions>
          <ns3:TrackPointExtension>
            <ns3:hr>155</ns3:hr>
            <ns3:cad>71</ns3:cad>
          </ns3:TrackPointExtension>
        </extensions>
      </trkpt>
      <trkpt lat="47.5529337488114833831787109375" lon="11.0117502696812152862548828125">
        <ele>1710.4000244140625</ele>
        <time>2026-09-01T07:16:55.000Z</time>
        <extensions>
          <ns3:TrackPointExtension>
            <ns3:hr>154</ns3:hr>
            <ns3:cad>71</ns3:cad>
          </ns3:TrackPointExtension>
        </extensions>
      </trkpt>
      <trkpt lat="47.5529359281063079833984375" lon="11.01173442788422107696533203125">
        <ele>1710.800048828125</ele>
        <time>2026-09-01T07:16:56.000Z</time>
        <extensions>
          <ns3:TrackPointExtension>
            <ns3:hr>153</ns3:hr>
            <ns3:cad>71</ns3:cad>
          </ns3:TrackPointExtension>
        </extensions>
      </trkpt>
      <trkpt lat="47.552934587001800537109375" lon="11.0117224417626857757568359375">
        <ele>1711.199951171875</ele>
        <time>2026-09-01T07:16:57.000Z</time>
        <extensions>
          <ns3:TrackPointExtension>
            <ns3:hr>152</ns3:hr>
            <ns3:cad>71</ns3:cad>
          </ns3:TrackPointExtension>
        </extensions>
      </trkpt>
      <trkpt lat="47.55293793976306915283203125" lon="11.0117147304117679595947265625">
        <ele>1711.4000244140625</ele>
        <time>2026-09-01T07:16:58.000Z</time>
        <extensions>
          <ns3:TrackPointExtension>
            <ns3:hr>152</ns3:hr>
            <ns3:cad>71</ns3:cad>
          </ns3:TrackPointExtension>
        </extensions>
      </trkpt>
      <trkpt lat="47.55293366499245166778564453125" lon="11.01169855333864688873291015625">
        <ele>1711.800048828125</ele>
        <time>2026-09-01T07:16:59.000Z</time>
        <extensions>
          <ns3:TrackPointExtension>
            <ns3:hr>152</ns3:hr>
            <ns3:cad>71</ns3:cad>
          </ns3:TrackPointExtension>
        </extensions>
      </trkpt>
      <trkpt lat="47.55292645655572414398193359375" lon="11.01168111898005008697509765625">
        <ele>1711.800048828125</ele>
        <time>2026-09-01T07:17:00.000Z</time>
        <extensions>
          <ns3:TrackPointExtension>
            <ns3:hr>152</ns3:hr>
            <ns3:cad>71</ns3:cad>
          </ns3:TrackPointExtension>
        </extensions>
      </trkpt>
      <trkpt lat="47.55291891284286975860595703125" lon="11.0116687975823879241943359375">
        <ele>1711.800048828125</ele>
        <time>2026-09-01T07:17:01.000Z</time>
        <extensions>
          <ns3:TrackPointExtension>
            <ns3:hr>152</ns3:hr>
            <ns3:cad>52</ns3:cad>
          </ns3:TrackPointExtension>
        </extensions>
      </trkpt>
      <trkpt lat="47.55290709435939788818359375" lon="11.01165555417537689208984375">
        <ele>1711.800048828125</ele>
        <time>2026-09-01T07:17:02.000Z</time>
        <extensions>
          <ns3:TrackPointExtension>
            <ns3:hr>152</ns3:hr>
            <ns3:cad>52</ns3:cad>
          </ns3:TrackPointExtension>
        </extensions>
      </trkpt>
      <trkpt lat="47.55289896391332149505615234375" lon="11.01163350977003574371337890625">
        <ele>1712</ele>
        <time>2026-09-01T07:17:03.000Z</time>
        <extensions>
          <ns3:TrackPointExtension>
            <ns3:hr>152</ns3:hr>
            <ns3:cad>60</ns3:cad>
          </ns3:TrackPointExtension>
        </extensions>
      </trkpt>
      <trkpt lat="47.552889324724674224853515625" lon="11.01161389611661434173583984375">
        <ele>1712.199951171875</ele>
        <time>2026-09-01T07:17:04.000Z</time>
        <extensions>
          <ns3:TrackPointExtension>
            <ns3:hr>151</ns3:hr>
            <ns3:cad>60</ns3:cad>
          </ns3:TrackPointExtension>
        </extensions>
      </trkpt>
      <trkpt lat="47.55287935025990009307861328125" lon="11.01159386336803436279296875">
        <ele>1712.4000244140625</ele>
        <time>2026-09-01T07:17:05.000Z</time>
        <extensions>
          <ns3:TrackPointExtension>
            <ns3:hr>151</ns3:hr>
            <ns3:cad>60</ns3:cad>
          </ns3:TrackPointExtension>
        </extensions>
      </trkpt>
      <trkpt lat="47.552870213985443115234375" lon="11.01157416589558124542236328125">
        <ele>1712.5999755859375</ele>
        <time>2026-09-01T07:17:06.000Z</time>
        <extensions>
          <ns3:TrackPointExtension>
            <ns3:hr>151</ns3:hr>
            <ns3:cad>68</ns3:cad>
          </ns3:TrackPointExtension>
        </extensions>
      </trkpt>
      <trkpt lat="47.5528606586158275604248046875" lon="11.0115531273186206817626953125">
        <ele>1713</ele>
        <time>2026-09-01T07:17:07.000Z</time>
        <extensions>
          <ns3:TrackPointExtension>
            <ns3:hr>151</ns3:hr>
            <ns3:cad>71</ns3:cad>
          </ns3:TrackPointExtension>
        </extensions>
      </trkpt>
      <trkpt lat="47.55285001359879970550537109375" lon="11.01152949035167694091796875">
        <ele>1713.4000244140625</ele>
        <time>2026-09-01T07:17:08.000Z</time>
        <extensions>
          <ns3:TrackPointExtension>
            <ns3:hr>151</ns3:hr>
            <ns3:cad>71</ns3:cad>
          </ns3:TrackPointExtension>
        </extensions>
      </trkpt>
      <trkpt lat="47.55284146405756473541259765625" lon="11.0115142352879047393798828125">
        <ele>1713.800048828125</ele>
        <time>2026-09-01T07:17:09.000Z</time>
        <extensions>
          <ns3:TrackPointExtension>
            <ns3:hr>152</ns3:hr>
            <ns3:cad>70</ns3:cad>
          </ns3:TrackPointExtension>
        </extensions>
      </trkpt>
      <trkpt lat="47.552834339439868927001953125" lon="11.01150124333798885345458984375">
        <ele>1714</ele>
        <time>2026-09-01T07:17:10.000Z</time>
        <extensions>
          <ns3:TrackPointExtension>
            <ns3:hr>151</ns3:hr>
            <ns3:cad>70</ns3:cad>
          </ns3:TrackPointExtension>
        </extensions>
      </trkpt>
      <trkpt lat="47.55282855592668056488037109375" lon="11.011488251388072967529296875">
        <ele>1714.4000244140625</ele>
        <time>2026-09-01T07:17:11.000Z</time>
        <extensions>
          <ns3:TrackPointExtension>
            <ns3:hr>152</ns3:hr>
            <ns3:cad>70</ns3:cad>
          </ns3:TrackPointExtension>
        </extensions>
      </trkpt>
      <trkpt lat="47.55282252095639705657958984375" lon="11.0114726610481739044189453125">
        <ele>1714.800048828125</ele>
        <time>2026-09-01T07:17:12.000Z</time>
        <extensions>
          <ns3:TrackPointExtension>
            <ns3:hr>152</ns3:hr>
            <ns3:cad>70</ns3:cad>
          </ns3:TrackPointExtension>
        </extensions>
      </trkpt>
      <trkpt lat="47.55281765945255756378173828125" lon="11.01146000437438488006591796875">
        <ele>1715.199951171875</ele>
        <time>2026-09-01T07:17:13.000Z</time>
        <extensions>
          <ns3:TrackPointExtension>
            <ns3:hr>152</ns3:hr>
            <ns3:cad>70</ns3:cad>
          </ns3:TrackPointExtension>
        </extensions>
      </trkpt>
      <trkpt lat="47.55281321704387664794921875" lon="11.0114495269954204559326171875">
        <ele>1715.5999755859375</ele>
        <time>2026-09-01T07:17:14.000Z</time>
        <extensions>
          <ns3:TrackPointExtension>
            <ns3:hr>152</ns3:hr>
            <ns3:cad>70</ns3:cad>
          </ns3:TrackPointExtension>
        </extensions>
      </trkpt>
      <trkpt lat="47.5528093613684177398681640625" lon="11.01143896579742431640625">
        <ele>1716.199951171875</ele>
        <time>2026-09-01T07:17:15.000Z</time>
        <extensions>
          <ns3:TrackPointExtension>
            <ns3:hr>153</ns3:hr>
            <ns3:cad>70</ns3:cad>
          </ns3:TrackPointExtension>
        </extensions>
      </trkpt>
      <trkpt lat="47.55280424840748310089111328125" lon="11.01142697967588901519775390625">
        <ele>1716.5999755859375</ele>
        <time>2026-09-01T07:17:16.000Z</time>
        <extensions>
          <ns3:TrackPointExtension>
            <ns3:hr>153</ns3:hr>
            <ns3:cad>70</ns3:cad>
          </ns3:TrackPointExtension>
        </extensions>
      </trkpt>
      <trkpt lat="47.55280357785522937774658203125" lon="11.01142278872430324554443359375">
        <ele>1717</ele>
        <time>2026-09-01T07:17:17.000Z</time>
        <extensions>
          <ns3:TrackPointExtension>
            <ns3:hr>153</ns3:hr>
            <ns3:cad>70</ns3:cad>
          </ns3:TrackPointExtension>
        </extensions>
      </trkpt>
      <trkpt lat="47.5528013147413730621337890625" lon="11.0114153288304805755615234375">
        <ele>1717.4000244140625</ele>
        <time>2026-09-01T07:17:18.000Z</time>
        <extensions>
          <ns3:TrackPointExtension>
            <ns3:hr>154</ns3:hr>
            <ns3:cad>51</ns3:cad>
          </ns3:TrackPointExtension>
        </extensions>
      </trkpt>
      <trkpt lat="47.55279938690364360809326171875" lon="11.01140719838440418243408203125">
        <ele>1717.5999755859375</ele>
        <time>2026-09-01T07:17:19.000Z</time>
        <extensions>
          <ns3:TrackPointExtension>
            <ns3:hr>155</ns3:hr>
            <ns3:cad>51</ns3:cad>
          </ns3:TrackPointExtension>
        </extensions>
      </trkpt>
      <trkpt lat="47.55279703997075557708740234375" lon="11.01140200160443782806396484375">
        <ele>1717.800048828125</ele>
        <time>2026-09-01T07:17:20.000Z</time>
        <extensions>
          <ns3:TrackPointExtension>
            <ns3:hr>156</ns3:hr>
            <ns3:cad>51</ns3:cad>
          </ns3:TrackPointExtension>
        </extensions>
      </trkpt>
      <trkpt lat="47.55280072800815105438232421875" lon="11.01139982230961322784423828125">
        <ele>1718</ele>
        <time>2026-09-01T07:17:21.000Z</time>
        <extensions>
          <ns3:TrackPointExtension>
            <ns3:hr>157</ns3:hr>
            <ns3:cad>0</ns3:cad>
          </ns3:TrackPointExtension>
        </extensions>
      </trkpt>
      <trkpt lat="47.55279980599880218505859375" lon="11.0113945417106151580810546875">
        <ele>1718.199951171875</ele>
        <time>2026-09-01T07:17:22.000Z</time>
        <extensions>
          <ns3:TrackPointExtension>
            <ns3:hr>157</ns3:hr>
            <ns3:cad>0</ns3:cad>
          </ns3:TrackPointExtension>
        </extensions>
      </trkpt>
      <trkpt lat="47.55279636941850185394287109375" lon="11.01139261387288570404052734375">
        <ele>1718.5999755859375</ele>
        <time>2026-09-01T07:17:23.000Z</time>
        <extensions>
          <ns3:TrackPointExtension>
            <ns3:hr>157</ns3:hr>
            <ns3:cad>60</ns3:cad>
          </ns3:TrackPointExtension>
        </extensions>
      </trkpt>
      <trkpt lat="47.5527912564575672149658203125" lon="11.0114005766808986663818359375">
        <ele>1718.800048828125</ele>
        <time>2026-09-01T07:17:24.000Z</time>
        <extensions>
          <ns3:TrackPointExtension>
            <ns3:hr>157</ns3:hr>
            <ns3:cad>60</ns3:cad>
          </ns3:TrackPointExtension>
        </extensions>
      </trkpt>
      <trkpt lat="47.55278480239212512969970703125" lon="11.01141189225018024444580078125">
        <ele>1719.199951171875</ele>
        <time>2026-09-01T07:17:25.000Z</time>
        <extensions>
          <ns3:TrackPointExtension>
            <ns3:hr>157</ns3:hr>
            <ns3:cad>60</ns3:cad>
          </ns3:TrackPointExtension>
        </extensions>
      </trkpt>
      <trkpt lat="47.55277725867927074432373046875" lon="11.01141742430627346038818359375">
        <ele>1719.199951171875</ele>
        <time>2026-09-01T07:17:26.000Z</time>
        <extensions>
          <ns3:TrackPointExtension>
            <ns3:hr>156</ns3:hr>
            <ns3:cad>60</ns3:cad>
          </ns3:TrackPointExtension>
        </extensions>
      </trkpt>
      <trkpt lat="47.552768290042877197265625" lon="11.01142161525785923004150390625">
        <ele>1719.4000244140625</ele>
        <time>2026-09-01T07:17:27.000Z</time>
        <extensions>
          <ns3:TrackPointExtension>
            <ns3:hr>157</ns3:hr>
            <ns3:cad>60</ns3:cad>
          </ns3:TrackPointExtension>
        </extensions>
      </trkpt>
      <trkpt lat="47.5527615845203399658203125" lon="11.01142513565719127655029296875">
        <ele>1719.5999755859375</ele>
        <time>2026-09-01T07:17:28.000Z</time>
        <extensions>
          <ns3:TrackPointExtension>
            <ns3:hr>157</ns3:hr>
            <ns3:cad>60</ns3:cad>
          </ns3:TrackPointExtension>
        </extensions>
      </trkpt>
      <trkpt lat="47.55275211296975612640380859375" lon="11.0114268958568572998046875">
        <ele>1719.5999755859375</ele>
        <time>2026-09-01T07:17:29.000Z</time>
        <extensions>
          <ns3:TrackPointExtension>
            <ns3:hr>157</ns3:hr>
            <ns3:cad>60</ns3:cad>
          </ns3:TrackPointExtension>
        </extensions>
      </trkpt>
      <trkpt lat="47.55273836664855480194091796875" lon="11.0114317573606967926025390625">
        <ele>1719.800048828125</ele>
        <time>2026-09-01T07:17:30.000Z</time>
        <extensions>
          <ns3:TrackPointExtension>
            <ns3:hr>157</ns3:hr>
            <ns3:cad>60</ns3:cad>
          </ns3:TrackPointExtension>
        </extensions>
      </trkpt>
      <trkpt lat="47.552725039422512054443359375" lon="11.011437289416790008544921875">
        <ele>1720.199951171875</ele>
        <time>2026-09-01T07:17:31.000Z</time>
        <extensions>
          <ns3:TrackPointExtension>
            <ns3:hr>157</ns3:hr>
            <ns3:cad>60</ns3:cad>
          </ns3:TrackPointExtension>
        </extensions>
      </trkpt>
      <trkpt lat="47.55271405912935733795166015625" lon="11.0114387981593608856201171875">
        <ele>1720.5999755859375</ele>
        <time>2026-09-01T07:17:32.000Z</time>
        <extensions>
          <ns3:TrackPointExtension>
            <ns3:hr>158</ns3:hr>
            <ns3:cad>60</ns3:cad>
          </ns3:TrackPointExtension>
        </extensions>
      </trkpt>
      <trkpt lat="47.5527007319033145904541015625" lon="11.0114418156445026397705078125">
        <ele>1720.800048828125</ele>
        <time>2026-09-01T07:17:33.000Z</time>
        <extensions>
          <ns3:TrackPointExtension>
            <ns3:hr>157</ns3:hr>
            <ns3:cad>60</ns3:cad>
          </ns3:TrackPointExtension>
        </extensions>
      </trkpt>
      <trkpt lat="47.5526913441717624664306640625" lon="11.01143829524517059326171875">
        <ele>1721.199951171875</ele>
        <time>2026-09-01T07:17:34.000Z</time>
        <extensions>
          <ns3:TrackPointExtension>
            <ns3:hr>158</ns3:hr>
            <ns3:cad>60</ns3:cad>
          </ns3:TrackPointExtension>
        </extensions>
      </trkpt>
      <trkpt lat="47.55267868749797344207763671875" lon="11.01143267937004566192626953125">
        <ele>1721.4000244140625</ele>
        <time>2026-09-01T07:17:35.000Z</time>
        <extensions>
          <ns3:TrackPointExtension>
            <ns3:hr>158</ns3:hr>
            <ns3:cad>60</ns3:cad>
          </ns3:TrackPointExtension>
        </extensions>
      </trkpt>
      <trkpt lat="47.5526695512235164642333984375" lon="11.0114268958568572998046875">
        <ele>1721.5999755859375</ele>
        <time>2026-09-01T07:17:36.000Z</time>
        <extensions>
          <ns3:TrackPointExtension>
            <ns3:hr>158</ns3:hr>
            <ns3:cad>60</ns3:cad>
          </ns3:TrackPointExtension>
        </extensions>
      </trkpt>
      <trkpt lat="47.552662007510662078857421875" lon="11.0114233754575252532958984375">
        <ele>1721.5999755859375</ele>
        <time>2026-09-01T07:17:37.000Z</time>
        <extensions>
          <ns3:TrackPointExtension>
            <ns3:hr>157</ns3:hr>
            <ns3:cad>40</ns3:cad>
          </ns3:TrackPointExtension>
        </extensions>
      </trkpt>
      <trkpt lat="47.55265287123620510101318359375" lon="11.01141943596303462982177734375">
        <ele>1721.800048828125</ele>
        <time>2026-09-01T07:17:38.000Z</time>
        <extensions>
          <ns3:TrackPointExtension>
            <ns3:hr>157</ns3:hr>
            <ns3:cad>40</ns3:cad>
          </ns3:TrackPointExtension>
        </extensions>
      </trkpt>
      <trkpt lat="47.5526408851146697998046875" lon="11.0114143230020999908447265625">
        <ele>1722.199951171875</ele>
        <time>2026-09-01T07:17:39.000Z</time>
        <extensions>
          <ns3:TrackPointExtension>
            <ns3:hr>158</ns3:hr>
            <ns3:cad>0</ns3:cad>
          </ns3:TrackPointExtension>
        </extensions>
      </trkpt>
      <trkpt lat="47.5526353530585765838623046875" lon="11.0114106349647045135498046875">
        <ele>1722.5999755859375</ele>
        <time>2026-09-01T07:17:40.000Z</time>
        <extensions>
          <ns3:TrackPointExtension>
            <ns3:hr>158</ns3:hr>
            <ns3:cad>0</ns3:cad>
          </ns3:TrackPointExtension>
        </extensions>
      </trkpt>
      <trkpt lat="47.552625797688961029052734375" lon="11.01140518672764301300048828125">
        <ele>1723</ele>
        <time>2026-09-01T07:17:41.000Z</time>
        <extensions>
          <ns3:TrackPointExtension>
            <ns3:hr>159</ns3:hr>
            <ns3:cad>0</ns3:cad>
          </ns3:TrackPointExtension>
        </extensions>
      </trkpt>
      <trkpt lat="47.55261666141450405120849609375" lon="11.01139940321445465087890625">
        <ele>1723.4000244140625</ele>
        <time>2026-09-01T07:17:42.000Z</time>
        <extensions>
          <ns3:TrackPointExtension>
            <ns3:hr>160</ns3:hr>
            <ns3:cad>0</ns3:cad>
          </ns3:TrackPointExtension>
        </extensions>
      </trkpt>
      <trkpt lat="47.55261045880615711212158203125" lon="11.01139898411929607391357421875">
        <ele>1723.800048828125</ele>
        <time>2026-09-01T07:17:43.000Z</time>
        <extensions>
          <ns3:TrackPointExtension>
            <ns3:hr>161</ns3:hr>
            <ns3:cad>0</ns3:cad>
          </ns3:TrackPointExtension>
        </extensions>
      </trkpt>
      <trkpt lat="47.55260593257844448089599609375" lon="11.01139479316771030426025390625">
        <ele>1724.199951171875</ele>
        <time>2026-09-01T07:17:44.000Z</time>
        <extensions>
          <ns3:TrackPointExtension>
            <ns3:hr>162</ns3:hr>
            <ns3:cad>0</ns3:cad>
          </ns3:TrackPointExtension>
        </extensions>
      </trkpt>
      <trkpt lat="47.5526018254458904266357421875" lon="11.01139546371996402740478515625">
        <ele>1724.5999755859375</ele>
        <time>2026-09-01T07:17:45.000Z</time>
        <extensions>
          <ns3:TrackPointExtension>
            <ns3:hr>163</ns3:hr>
            <ns3:cad>0</ns3:cad>
          </ns3:TrackPointExtension>
        </extensions>
      </trkpt>
      <trkpt lat="47.55260123871266841888427734375" lon="11.01139747537672519683837890625">
        <ele>1725</ele>
        <time>2026-09-01T07:17:46.000Z</time>
        <extensions>
          <ns3:TrackPointExtension>
            <ns3:hr>164</ns3:hr>
            <ns3:cad>0</ns3:cad>
          </ns3:TrackPointExtension>
        </extensions>
      </trkpt>
      <trkpt lat="47.552608363330364227294921875" lon="11.0113650374114513397216796875">
        <ele>1725.4000244140625</ele>
        <time>2026-09-01T07:17:47.000Z</time>
        <extensions>
          <ns3:TrackPointExtension>
            <ns3:hr>165</ns3:hr>
            <ns3:cad>0</ns3:cad>
          </ns3:TrackPointExtension>
        </extensions>
      </trkpt>
      <trkpt lat="47.5525979697704315185546875" lon="11.01134969852864742279052734375">
        <ele>1725.5999755859375</ele>
        <time>2026-09-01T07:17:48.000Z</time>
        <extensions>
          <ns3:TrackPointExtension>
            <ns3:hr>165</ns3:hr>
            <ns3:cad>0</ns3:cad>
          </ns3:TrackPointExtension>
        </extensions>
      </trkpt>
      <trkpt lat="47.5525877438485622406005859375" lon="11.01135120727121829986572265625">
        <ele>1726</ele>
        <time>2026-09-01T07:17:49.000Z</time>
        <extensions>
          <ns3:TrackPointExtension>
            <ns3:hr>165</ns3:hr>
            <ns3:cad>0</ns3:cad>
          </ns3:TrackPointExtension>
        </extensions>
      </trkpt>
      <trkpt lat="47.5525750033557415008544921875" lon="11.0113432444632053375244140625">
        <ele>1726.199951171875</ele>
        <time>2026-09-01T07:17:50.000Z</time>
        <extensions>
          <ns3:TrackPointExtension>
            <ns3:hr>164</ns3:hr>
            <ns3:cad>0</ns3:cad>
          </ns3:TrackPointExtension>
        </extensions>
      </trkpt>
      <trkpt lat="47.55256787873804569244384765625" lon="11.01133695803582668304443359375">
        <ele>1726.4000244140625</ele>
        <time>2026-09-01T07:17:51.000Z</time>
        <extensions>
          <ns3:TrackPointExtension>
            <ns3:hr>164</ns3:hr>
            <ns3:cad>0</ns3:cad>
          </ns3:TrackPointExtension>
        </extensions>
      </trkpt>
      <trkpt lat="47.5525625981390476226806640625" lon="11.01133259944617748260498046875">
        <ele>1726.5999755859375</ele>
        <time>2026-09-01T07:17:52.000Z</time>
        <extensions>
          <ns3:TrackPointExtension>
            <ns3:hr>163</ns3:hr>
            <ns3:cad>0</ns3:cad>
          </ns3:TrackPointExtension>
        </extensions>
      </trkpt>
      <trkpt lat="47.55255932919681072235107421875" lon="11.01131516508758068084716796875">
        <ele>1726.800048828125</ele>
        <time>2026-09-01T07:17:53.000Z</time>
        <extensions>
          <ns3:TrackPointExtension>
            <ns3:hr>163</ns3:hr>
            <ns3:cad>0</ns3:cad>
          </ns3:TrackPointExtension>
        </extensions>
      </trkpt>
      <trkpt lat="47.55255480296909809112548828125" lon="11.011295132339000701904296875">
        <ele>1726.800048828125</ele>
        <time>2026-09-01T07:17:54.000Z</time>
        <extensions>
          <ns3:TrackPointExtension>
            <ns3:hr>163</ns3:hr>
            <ns3:cad>0</ns3:cad>
          </ns3:TrackPointExtension>
        </extensions>
      </trkpt>
      <trkpt lat="47.55255128256976604461669921875" lon="11.0112849064171314239501953125">
        <ele>1726.800048828125</ele>
        <time>2026-09-01T07:17:55.000Z</time>
        <extensions>
          <ns3:TrackPointExtension>
            <ns3:hr>164</ns3:hr>
            <ns3:cad>0</ns3:cad>
          </ns3:TrackPointExtension>
        </extensions>
      </trkpt>
      <trkpt lat="47.5525448285043239593505859375" lon="11.01127208210527896881103515625">
        <ele>1726.800048828125</ele>
        <time>2026-09-01T07:17:56.000Z</time>
        <extensions>
          <ns3:TrackPointExtension>
            <ns3:hr>163</ns3:hr>
            <ns3:cad>0</ns3:cad>
          </ns3:TrackPointExtension>
        </extensions>
      </trkpt>
      <trkpt lat="47.552542984485626220703125" lon="11.01126671768724918365478515625">
        <ele>1727</ele>
        <time>2026-09-01T07:17:57.000Z</time>
        <extensions>
          <ns3:TrackPointExtension>
            <ns3:hr>163</ns3:hr>
            <ns3:cad>0</ns3:cad>
          </ns3:TrackPointExtension>
        </extensions>
      </trkpt>
      <trkpt lat="47.55253703333437442779541015625" lon="11.0112419910728931427001953125">
        <ele>1727.199951171875</ele>
        <time>2026-09-01T07:17:58.000Z</time>
        <extensions>
          <ns3:TrackPointExtension>
            <ns3:hr>162</ns3:hr>
            <ns3:cad>0</ns3:cad>
          </ns3:TrackPointExtension>
        </extensions>
      </trkpt>
      <trkpt lat="47.5525310821831226348876953125" lon="11.01123168133199214935302734375">
        <ele>1727.4000244140625</ele>
        <time>2026-09-01T07:17:59.000Z</time>
        <extensions>
          <ns3:TrackPointExtension>
            <ns3:hr>162</ns3:hr>
            <ns3:cad>0</ns3:cad>
          </ns3:TrackPointExtension>
        </extensions>
      </trkpt>
      <trkpt lat="47.55253150127828121185302734375" lon="11.0112262330949306488037109375">
        <ele>1727.5999755859375</ele>
        <time>2026-09-01T07:18:00.000Z</time>
        <extensions>
          <ns3:TrackPointExtension>
            <ns3:hr>162</ns3:hr>
            <ns3:cad>0</ns3:cad>
          </ns3:TrackPointExtension>
        </extensions>
      </trkpt>
      <trkpt lat="47.552527226507663726806640625" lon="11.01121759973466396331787109375">
        <ele>1727.800048828125</ele>
        <time>2026-09-01T07:18:01.000Z</time>
        <extensions>
          <ns3:TrackPointExtension>
            <ns3:hr>163</ns3:hr>
            <ns3:cad>0</ns3:cad>
          </ns3:TrackPointExtension>
        </extensions>
      </trkpt>
      <trkpt lat="47.55252697505056858062744140625" lon="11.01121433079242706298828125">
        <ele>1728.199951171875</ele>
        <time>2026-09-01T07:18:02.000Z</time>
        <extensions>
          <ns3:TrackPointExtension>
            <ns3:hr>162</ns3:hr>
            <ns3:cad>0</ns3:cad>
          </ns3:TrackPointExtension>
        </extensions>
      </trkpt>
      <trkpt lat="47.5525364466011524200439453125" lon="11.01120888255536556243896484375">
        <ele>1728.4000244140625</ele>
        <time>2026-09-01T07:18:03.000Z</time>
        <extensions>
          <ns3:TrackPointExtension>
            <ns3:hr>162</ns3:hr>
            <ns3:cad>0</ns3:cad>
          </ns3:TrackPointExtension>
        </extensions>
      </trkpt>
      <trkpt lat="47.552542649209499359130859375" lon="11.01119463331997394561767578125">
        <ele>1728.5999755859375</ele>
        <time>2026-09-01T07:18:04.000Z</time>
        <extensions>
          <ns3:TrackPointExtension>
            <ns3:hr>161</ns3:hr>
            <ns3:cad>0</ns3:cad>
          </ns3:TrackPointExtension>
        </extensions>
      </trkpt>
      <trkpt lat="47.55253686569631099700927734375" lon="11.01117854006588459014892578125">
        <ele>1729</ele>
        <time>2026-09-01T07:18:05.000Z</time>
        <extensions>
          <ns3:TrackPointExtension>
            <ns3:hr>162</ns3:hr>
            <ns3:cad>0</ns3:cad>
          </ns3:TrackPointExtension>
        </extensions>
      </trkpt>
      <trkpt lat="47.55253250710666179656982421875" lon="11.01116160862147808074951171875">
        <ele>1729.199951171875</ele>
        <time>2026-09-01T07:18:06.000Z</time>
        <extensions>
          <ns3:TrackPointExtension>
            <ns3:hr>162</ns3:hr>
            <ns3:cad>0</ns3:cad>
          </ns3:TrackPointExtension>
        </extensions>
      </trkpt>
      <trkpt lat="47.55253032781183719635009765625" lon="11.0111571662127971649169921875">
        <ele>1729.4000244140625</ele>
        <time>2026-09-01T07:18:07.000Z</time>
        <extensions>
          <ns3:TrackPointExtension>
            <ns3:hr>162</ns3:hr>
            <ns3:cad>0</ns3:cad>
          </ns3:TrackPointExtension>
        </extensions>
      </trkpt>
      <trkpt lat="47.55251641385257244110107421875" lon="11.011146605014801025390625">
        <ele>1729.800048828125</ele>
        <time>2026-09-01T07:18:08.000Z</time>
        <extensions>
          <ns3:TrackPointExtension>
            <ns3:hr>163</ns3:hr>
            <ns3:cad>0</ns3:cad>
          </ns3:TrackPointExtension>
        </extensions>
      </trkpt>
      <trkpt lat="47.55250819958746433258056640625" lon="11.01114861667156219482421875">
        <ele>1730.199951171875</ele>
        <time>2026-09-01T07:18:09.000Z</time>
        <extensions>
          <ns3:TrackPointExtension>
            <ns3:hr>163</ns3:hr>
            <ns3:cad>0</ns3:cad>
          </ns3:TrackPointExtension>
        </extensions>
      </trkpt>
      <trkpt lat="47.55251524038612842559814453125" lon="11.01114585064351558685302734375">
        <ele>1730.4000244140625</ele>
        <time>2026-09-01T07:18:10.000Z</time>
        <extensions>
          <ns3:TrackPointExtension>
            <ns3:hr>163</ns3:hr>
            <ns3:cad>0</ns3:cad>
          </ns3:TrackPointExtension>
        </extensions>
      </trkpt>
      <trkpt lat="47.55251272581517696380615234375" lon="11.0111320205032825469970703125">
        <ele>1730.5999755859375</ele>
        <time>2026-09-01T07:18:11.000Z</time>
        <extensions>
          <ns3:TrackPointExtension>
            <ns3:hr>163</ns3:hr>
            <ns3:cad>0</ns3:cad>
          </ns3:TrackPointExtension>
        </extensions>
      </trkpt>
      <trkpt lat="47.552508451044559478759765625" lon="11.0111259855329990386962890625">
        <ele>1731</ele>
        <time>2026-09-01T07:18:12.000Z</time>
        <extensions>
          <ns3:TrackPointExtension>
            <ns3:hr>164</ns3:hr>
            <ns3:cad>0</ns3:cad>
          </ns3:TrackPointExtension>
        </extensions>
      </trkpt>
      <trkpt lat="47.55250602029263973236083984375" lon="11.011128835380077362060546875">
        <ele>1731.5999755859375</ele>
        <time>2026-09-01T07:18:13.000Z</time>
        <extensions>
          <ns3:TrackPointExtension>
            <ns3:hr>164</ns3:hr>
            <ns3:cad>0</ns3:cad>
          </ns3:TrackPointExtension>
        </extensions>
      </trkpt>
      <trkpt lat="47.5525014102458953857421875" lon="11.01113143377006053924560546875">
        <ele>1731.800048828125</ele>
        <time>2026-09-01T07:18:14.000Z</time>
        <extensions>
          <ns3:TrackPointExtension>
            <ns3:hr>164</ns3:hr>
            <ns3:cad>0</ns3:cad>
          </ns3:TrackPointExtension>
        </extensions>
      </trkpt>
      <trkpt lat="47.55249445326626300811767578125" lon="11.01113386452198028564453125">
        <ele>1732.199951171875</ele>
        <time>2026-09-01T07:18:15.000Z</time>
        <extensions>
          <ns3:TrackPointExtension>
            <ns3:hr>165</ns3:hr>
            <ns3:cad>0</ns3:cad>
          </ns3:TrackPointExtension>
        </extensions>
      </trkpt>
      <trkpt lat="47.552493028342723846435546875" lon="11.01113260723650455474853515625">
        <ele>1732.5999755859375</ele>
        <time>2026-09-01T07:18:16.000Z</time>
        <extensions>
          <ns3:TrackPointExtension>
            <ns3:hr>165</ns3:hr>
            <ns3:cad>0</ns3:cad>
          </ns3:TrackPointExtension>
        </extensions>
      </trkpt>
      <trkpt lat="47.552494704723358154296875" lon="11.01113026030361652374267578125">
        <ele>1732.800048828125</ele>
        <time>2026-09-01T07:18:17.000Z</time>
        <extensions>
          <ns3:TrackPointExtension>
            <ns3:hr>166</ns3:hr>
            <ns3:cad>0</ns3:cad>
          </ns3:TrackPointExtension>
        </extensions>
      </trkpt>
      <trkpt lat="47.55248732864856719970703125" lon="11.0111229680478572845458984375">
        <ele>1733.199951171875</ele>
        <time>2026-09-01T07:18:18.000Z</time>
        <extensions>
          <ns3:TrackPointExtension>
            <ns3:hr>166</ns3:hr>
            <ns3:cad>0</ns3:cad>
          </ns3:TrackPointExtension>
        </extensions>
      </trkpt>
      <trkpt lat="47.55247919820249080657958984375" lon="11.01112581789493560791015625">
        <ele>1733.4000244140625</ele>
        <time>2026-09-01T07:18:19.000Z</time>
        <extensions>
          <ns3:TrackPointExtension>
            <ns3:hr>166</ns3:hr>
            <ns3:cad>0</ns3:cad>
          </ns3:TrackPointExtension>
        </extensions>
      </trkpt>
      <trkpt lat="47.55247098393738269805908203125" lon="11.0111196152865886688232421875">
        <ele>1733.800048828125</ele>
        <time>2026-09-01T07:18:20.000Z</time>
        <extensions>
          <ns3:TrackPointExtension>
            <ns3:hr>167</ns3:hr>
            <ns3:cad>0</ns3:cad>
          </ns3:TrackPointExtension>
        </extensions>
      </trkpt>
      <trkpt lat="47.55246846936643123626708984375" lon="11.01112003438174724578857421875">
        <ele>1734</ele>
        <time>2026-09-01T07:18:21.000Z</time>
        <extensions>
          <ns3:TrackPointExtension>
            <ns3:hr>167</ns3:hr>
            <ns3:cad>0</ns3:cad>
          </ns3:TrackPointExtension>
        </extensions>
      </trkpt>
      <trkpt lat="47.55246327258646488189697265625" lon="11.011114418506622314453125">
        <ele>1734.199951171875</ele>
        <time>2026-09-01T07:18:22.000Z</time>
        <extensions>
          <ns3:TrackPointExtension>
            <ns3:hr>168</ns3:hr>
            <ns3:cad>0</ns3:cad>
          </ns3:TrackPointExtension>
        </extensions>
      </trkpt>
      <trkpt lat="47.55245170556008815765380859375" lon="11.011111401021480560302734375">
        <ele>1734.4000244140625</ele>
        <time>2026-09-01T07:18:23.000Z</time>
        <extensions>
          <ns3:TrackPointExtension>
            <ns3:hr>168</ns3:hr>
            <ns3:cad>0</ns3:cad>
          </ns3:TrackPointExtension>
        </extensions>
      </trkpt>
      <trkpt lat="47.55244969390332698822021484375" lon="11.01111240684986114501953125">
        <ele>1734.5999755859375</ele>
        <time>2026-09-01T07:18:24.000Z</time>
        <extensions>
          <ns3:TrackPointExtension>
            <ns3:hr>168</ns3:hr>
            <ns3:cad>0</ns3:cad>
          </ns3:TrackPointExtension>
        </extensions>
      </trkpt>
      <trkpt lat="47.55243762396275997161865234375" lon="11.0111062042415142059326171875">
        <ele>1734.800048828125</ele>
        <time>2026-09-01T07:18:25.000Z</time>
        <extensions>
          <ns3:TrackPointExtension>
            <ns3:hr>168</ns3:hr>
            <ns3:cad>0</ns3:cad>
          </ns3:TrackPointExtension>
        </extensions>
      </trkpt>
      <trkpt lat="47.55243460647761821746826171875" lon="11.01109622977674007415771484375">
        <ele>1735.199951171875</ele>
        <time>2026-09-01T07:18:26.000Z</time>
        <extensions>
          <ns3:TrackPointExtension>
            <ns3:hr>167</ns3:hr>
            <ns3:cad>0</ns3:cad>
          </ns3:TrackPointExtension>
        </extensions>
      </trkpt>
      <trkpt lat="47.5524345226585865020751953125" lon="11.01109363138675689697265625">
        <ele>1735.5999755859375</ele>
        <time>2026-09-01T07:18:27.000Z</time>
        <extensions>
          <ns3:TrackPointExtension>
            <ns3:hr>167</ns3:hr>
            <ns3:cad>0</ns3:cad>
          </ns3:TrackPointExtension>
        </extensions>
      </trkpt>
      <trkpt lat="47.5524281524121761322021484375" lon="11.011088602244853973388671875">
        <ele>1735.800048828125</ele>
        <time>2026-09-01T07:18:28.000Z</time>
        <extensions>
          <ns3:TrackPointExtension>
            <ns3:hr>167</ns3:hr>
            <ns3:cad>0</ns3:cad>
          </ns3:TrackPointExtension>
        </extensions>
      </trkpt>
      <trkpt lat="47.55242404527962207794189453125" lon="11.0110830701887607574462890625">
        <ele>1736.199951171875</ele>
        <time>2026-09-01T07:18:29.000Z</time>
        <extensions>
          <ns3:TrackPointExtension>
            <ns3:hr>166</ns3:hr>
            <ns3:cad>0</ns3:cad>
          </ns3:TrackPointExtension>
        </extensions>
      </trkpt>
      <trkpt lat="47.5524207763373851776123046875" lon="11.011075191199779510498046875">
        <ele>1736.5999755859375</ele>
        <time>2026-09-01T07:18:30.000Z</time>
        <extensions>
          <ns3:TrackPointExtension>
            <ns3:hr>166</ns3:hr>
            <ns3:cad>0</ns3:cad>
          </ns3:TrackPointExtension>
        </extensions>
      </trkpt>
      <trkpt lat="47.5524201057851314544677734375" lon="11.0110723413527011871337890625">
        <ele>1736.800048828125</ele>
        <time>2026-09-01T07:18:31.000Z</time>
        <extensions>
          <ns3:TrackPointExtension>
            <ns3:hr>166</ns3:hr>
            <ns3:cad>0</ns3:cad>
          </ns3:TrackPointExtension>
        </extensions>
      </trkpt>
      <trkpt lat="47.552417926490306854248046875" lon="11.0110606066882610321044921875">
        <ele>1737.199951171875</ele>
        <time>2026-09-01T07:18:32.000Z</time>
        <extensions>
          <ns3:TrackPointExtension>
            <ns3:hr>165</ns3:hr>
            <ns3:cad>0</ns3:cad>
          </ns3:TrackPointExtension>
        </extensions>
      </trkpt>
      <trkpt lat="47.55241767503321170806884765625" lon="11.01103956811130046844482421875">
        <ele>1737.5999755859375</ele>
        <time>2026-09-01T07:18:33.000Z</time>
        <extensions>
          <ns3:TrackPointExtension>
            <ns3:hr>165</ns3:hr>
            <ns3:cad>0</ns3:cad>
          </ns3:TrackPointExtension>
        </extensions>
      </trkpt>
      <trkpt lat="47.5524197705090045928955078125" lon="11.0110406577587127685546875">
        <ele>1737.5999755859375</ele>
        <time>2026-09-01T07:18:34.000Z</time>
        <extensions>
          <ns3:TrackPointExtension>
            <ns3:hr>165</ns3:hr>
            <ns3:cad>0</ns3:cad>
          </ns3:TrackPointExtension>
        </extensions>
      </trkpt>
      <trkpt lat="47.5524197705090045928955078125" lon="11.01103470660746097564697265625">
        <ele>1737.800048828125</ele>
        <time>2026-09-01T07:18:35.000Z</time>
        <extensions>
          <ns3:TrackPointExtension>
            <ns3:hr>164</ns3:hr>
            <ns3:cad>0</ns3:cad>
          </ns3:TrackPointExtension>
        </extensions>
      </trkpt>
      <trkpt lat="47.55241868086159229278564453125" lon="11.0110183618962764739990234375">
        <ele>1737.800048828125</ele>
        <time>2026-09-01T07:18:36.000Z</time>
        <extensions>
          <ns3:TrackPointExtension>
            <ns3:hr>164</ns3:hr>
            <ns3:cad>0</ns3:cad>
          </ns3:TrackPointExtension>
        </extensions>
      </trkpt>
      <trkpt lat="47.5524110533297061920166015625" lon="11.0110183618962764739990234375">
        <ele>1738.199951171875</ele>
        <time>2026-09-01T07:18:37.000Z</time>
        <extensions>
          <ns3:TrackPointExtension>
            <ns3:hr>165</ns3:hr>
            <ns3:cad>0</ns3:cad>
          </ns3:TrackPointExtension>
        </extensions>
      </trkpt>
      <trkpt lat="47.5523993186652660369873046875" lon="11.01101090200245380401611328125">
        <ele>1738.4000244140625</ele>
        <time>2026-09-01T07:18:38.000Z</time>
        <extensions>
          <ns3:TrackPointExtension>
            <ns3:hr>165</ns3:hr>
            <ns3:cad>0</ns3:cad>
          </ns3:TrackPointExtension>
        </extensions>
      </trkpt>
      <trkpt lat="47.55239211022853851318359375" lon="11.01100972853600978851318359375">
        <ele>1738.5999755859375</ele>
        <time>2026-09-01T07:18:39.000Z</time>
        <extensions>
          <ns3:TrackPointExtension>
            <ns3:hr>165</ns3:hr>
            <ns3:cad>0</ns3:cad>
          </ns3:TrackPointExtension>
        </extensions>
      </trkpt>
      <trkpt lat="47.55237660370767116546630859375" lon="11.0110163502395153045654296875">
        <ele>1739</ele>
        <time>2026-09-01T07:18:40.000Z</time>
        <extensions>
          <ns3:TrackPointExtension>
            <ns3:hr>165</ns3:hr>
            <ns3:cad>0</ns3:cad>
          </ns3:TrackPointExtension>
        </extensions>
      </trkpt>
      <trkpt lat="47.55236973054707050323486328125" lon="11.01102389395236968994140625">
        <ele>1739.199951171875</ele>
        <time>2026-09-01T07:18:41.000Z</time>
        <extensions>
          <ns3:TrackPointExtension>
            <ns3:hr>165</ns3:hr>
            <ns3:cad>0</ns3:cad>
          </ns3:TrackPointExtension>
        </extensions>
      </trkpt>
      <trkpt lat="47.55235866643488407135009765625" lon="11.01103152148425579071044921875">
        <ele>1739.4000244140625</ele>
        <time>2026-09-01T07:18:42.000Z</time>
        <extensions>
          <ns3:TrackPointExtension>
            <ns3:hr>165</ns3:hr>
            <ns3:cad>0</ns3:cad>
          </ns3:TrackPointExtension>
        </extensions>
      </trkpt>
      <trkpt lat="47.55235145799815654754638671875" lon="11.0110307671129703521728515625">
        <ele>1739.5999755859375</ele>
        <time>2026-09-01T07:18:43.000Z</time>
        <extensions>
          <ns3:TrackPointExtension>
            <ns3:hr>164</ns3:hr>
            <ns3:cad>0</ns3:cad>
          </ns3:TrackPointExtension>
        </extensions>
      </trkpt>
      <trkpt lat="47.55234693177044391632080078125" lon="11.01103018037974834442138671875">
        <ele>1739.800048828125</ele>
        <time>2026-09-01T07:18:44.000Z</time>
        <extensions>
          <ns3:TrackPointExtension>
            <ns3:hr>164</ns3:hr>
            <ns3:cad>0</ns3:cad>
          </ns3:TrackPointExtension>
        </extensions>
      </trkpt>
      <trkpt lat="47.55234106443822383880615234375" lon="11.01102850399911403656005859375">
        <ele>1740.199951171875</ele>
        <time>2026-09-01T07:18:45.000Z</time>
        <extensions>
          <ns3:TrackPointExtension>
            <ns3:hr>165</ns3:hr>
            <ns3:cad>0</ns3:cad>
          </ns3:TrackPointExtension>
        </extensions>
      </trkpt>
      <trkpt lat="47.552335448563098907470703125" lon="11.01102816872298717498779296875">
        <ele>1740.4000244140625</ele>
        <time>2026-09-01T07:18:46.000Z</time>
        <extensions>
          <ns3:TrackPointExtension>
            <ns3:hr>165</ns3:hr>
            <ns3:cad>0</ns3:cad>
          </ns3:TrackPointExtension>
        </extensions>
      </trkpt>
      <trkpt lat="47.5523399747908115386962890625" lon="11.011022888123989105224609375">
        <ele>1740.5999755859375</ele>
        <time>2026-09-01T07:18:47.000Z</time>
        <extensions>
          <ns3:TrackPointExtension>
            <ns3:hr>165</ns3:hr>
            <ns3:cad>0</ns3:cad>
          </ns3:TrackPointExtension>
        </extensions>
      </trkpt>
      <trkpt lat="47.55233637057244777679443359375" lon="11.0110245645046234130859375">
        <ele>1741</ele>
        <time>2026-09-01T07:18:48.000Z</time>
        <extensions>
          <ns3:TrackPointExtension>
            <ns3:hr>166</ns3:hr>
            <ns3:cad>0</ns3:cad>
          </ns3:TrackPointExtension>
        </extensions>
      </trkpt>
      <trkpt lat="47.5523351132869720458984375" lon="11.011023223400115966796875">
        <ele>1741.199951171875</ele>
        <time>2026-09-01T07:18:49.000Z</time>
        <extensions>
          <ns3:TrackPointExtension>
            <ns3:hr>166</ns3:hr>
            <ns3:cad>0</ns3:cad>
          </ns3:TrackPointExtension>
        </extensions>
      </trkpt>
      <trkpt lat="47.55232849158346652984619140625" lon="11.01101987063884735107421875">
        <ele>1741.4000244140625</ele>
        <time>2026-09-01T07:18:50.000Z</time>
        <extensions>
          <ns3:TrackPointExtension>
            <ns3:hr>166</ns3:hr>
            <ns3:cad>0</ns3:cad>
          </ns3:TrackPointExtension>
        </extensions>
      </trkpt>
      <trkpt lat="47.55231969058513641357421875" lon="11.01102213375270366668701171875">
        <ele>1741.800048828125</ele>
        <time>2026-09-01T07:18:51.000Z</time>
        <extensions>
          <ns3:TrackPointExtension>
            <ns3:hr>165</ns3:hr>
            <ns3:cad>0</ns3:cad>
          </ns3:TrackPointExtension>
        </extensions>
      </trkpt>
      <trkpt lat="47.5523128174245357513427734375" lon="11.011021547019481658935546875">
        <ele>1742.199951171875</ele>
        <time>2026-09-01T07:18:52.000Z</time>
        <extensions>
          <ns3:TrackPointExtension>
            <ns3:hr>165</ns3:hr>
            <ns3:cad>0</ns3:cad>
          </ns3:TrackPointExtension>
        </extensions>
      </trkpt>
      <trkpt lat="47.55230493843555450439453125" lon="11.01101928390562534332275390625">
        <ele>1742.4000244140625</ele>
        <time>2026-09-01T07:18:53.000Z</time>
        <extensions>
          <ns3:TrackPointExtension>
            <ns3:hr>164</ns3:hr>
            <ns3:cad>0</ns3:cad>
          </ns3:TrackPointExtension>
        </extensions>
      </trkpt>
      <trkpt lat="47.552299238741397857666015625" lon="11.0110170207917690277099609375">
        <ele>1742.5999755859375</ele>
        <time>2026-09-01T07:18:54.000Z</time>
        <extensions>
          <ns3:TrackPointExtension>
            <ns3:hr>164</ns3:hr>
            <ns3:cad>0</ns3:cad>
          </ns3:TrackPointExtension>
        </extensions>
      </trkpt>
      <trkpt lat="47.5522977299988269805908203125" lon="11.01100981235504150390625">
        <ele>1742.800048828125</ele>
        <time>2026-09-01T07:18:55.000Z</time>
        <extensions>
          <ns3:TrackPointExtension>
            <ns3:hr>163</ns3:hr>
            <ns3:cad>0</ns3:cad>
          </ns3:TrackPointExtension>
        </extensions>
      </trkpt>
      <trkpt lat="47.5522943772375583648681640625" lon="11.0110026039183139801025390625">
        <ele>1742.800048828125</ele>
        <time>2026-09-01T07:18:56.000Z</time>
        <extensions>
          <ns3:TrackPointExtension>
            <ns3:hr>164</ns3:hr>
            <ns3:cad>0</ns3:cad>
          </ns3:TrackPointExtension>
        </extensions>
      </trkpt>
      <trkpt lat="47.5523004122078418731689453125" lon="11.01100101135671138763427734375">
        <ele>1742.800048828125</ele>
        <time>2026-09-01T07:18:57.000Z</time>
        <extensions>
          <ns3:TrackPointExtension>
            <ns3:hr>164</ns3:hr>
            <ns3:cad>0</ns3:cad>
          </ns3:TrackPointExtension>
        </extensions>
      </trkpt>
      <trkpt lat="47.5522977299988269805908203125" lon="11.01098500192165374755859375">
        <ele>1743</ele>
        <time>2026-09-01T07:18:58.000Z</time>
        <extensions>
          <ns3:TrackPointExtension>
            <ns3:hr>164</ns3:hr>
            <ns3:cad>0</ns3:cad>
          </ns3:TrackPointExtension>
        </extensions>
      </trkpt>
      <trkpt lat="47.55228641442954540252685546875" lon="11.010979302227497100830078125">
        <ele>1743.4000244140625</ele>
        <time>2026-09-01T07:18:59.000Z</time>
        <extensions>
          <ns3:TrackPointExtension>
            <ns3:hr>164</ns3:hr>
            <ns3:cad>0</ns3:cad>
          </ns3:TrackPointExtension>
        </extensions>
      </trkpt>
      <trkpt lat="47.5522819720208644866943359375" lon="11.0109751112759113311767578125">
        <ele>1743.800048828125</ele>
        <time>2026-09-01T07:19:00.000Z</time>
        <extensions>
          <ns3:TrackPointExtension>
            <ns3:hr>165</ns3:hr>
            <ns3:cad>0</ns3:cad>
          </ns3:TrackPointExtension>
        </extensions>
      </trkpt>
      <trkpt lat="47.55227166227996349334716796875" lon="11.01096195168793201446533203125">
        <ele>1744.199951171875</ele>
        <time>2026-09-01T07:19:01.000Z</time>
        <extensions>
          <ns3:TrackPointExtension>
            <ns3:hr>165</ns3:hr>
            <ns3:cad>0</ns3:cad>
          </ns3:TrackPointExtension>
        </extensions>
      </trkpt>
      <trkpt lat="47.55226696841418743133544921875" lon="11.01096278987824916839599609375">
        <ele>1744.5999755859375</ele>
        <time>2026-09-01T07:19:02.000Z</time>
        <extensions>
          <ns3:TrackPointExtension>
            <ns3:hr>165</ns3:hr>
            <ns3:cad>0</ns3:cad>
          </ns3:TrackPointExtension>
        </extensions>
      </trkpt>
      <trkpt lat="47.552260346710681915283203125" lon="11.010955832898616790771484375">
        <ele>1745</ele>
        <time>2026-09-01T07:19:03.000Z</time>
        <extensions>
          <ns3:TrackPointExtension>
            <ns3:hr>165</ns3:hr>
            <ns3:cad>0</ns3:cad>
          </ns3:TrackPointExtension>
        </extensions>
      </trkpt>
      <trkpt lat="47.5522524677217006683349609375" lon="11.01095071993768215179443359375">
        <ele>1745</ele>
        <time>2026-09-01T07:19:04.000Z</time>
        <extensions>
          <ns3:TrackPointExtension>
            <ns3:hr>165</ns3:hr>
            <ns3:cad>0</ns3:cad>
          </ns3:TrackPointExtension>
        </extensions>
      </trkpt>
      <trkpt lat="47.55223612301051616668701171875" lon="11.01093647070229053497314453125">
        <ele>1745.199951171875</ele>
        <time>2026-09-01T07:19:05.000Z</time>
        <extensions>
          <ns3:TrackPointExtension>
            <ns3:hr>165</ns3:hr>
            <ns3:cad>0</ns3:cad>
          </ns3:TrackPointExtension>
        </extensions>
      </trkpt>
      <trkpt lat="47.552226148545742034912109375" lon="11.010934375226497650146484375">
        <ele>1745.5999755859375</ele>
        <time>2026-09-01T07:19:06.000Z</time>
        <extensions>
          <ns3:TrackPointExtension>
            <ns3:hr>165</ns3:hr>
            <ns3:cad>0</ns3:cad>
          </ns3:TrackPointExtension>
        </extensions>
      </trkpt>
      <trkpt lat="47.5522259809076786041259765625" lon="11.0109494626522064208984375">
        <ele>1746</ele>
        <time>2026-09-01T07:19:07.000Z</time>
        <extensions>
          <ns3:TrackPointExtension>
            <ns3:hr>165</ns3:hr>
            <ns3:cad>0</ns3:cad>
          </ns3:TrackPointExtension>
        </extensions>
      </trkpt>
      <trkpt lat="47.5522300042212009429931640625" lon="11.01095356978476047515869140625">
        <ele>1746.199951171875</ele>
        <time>2026-09-01T07:19:08.000Z</time>
        <extensions>
          <ns3:TrackPointExtension>
            <ns3:hr>165</ns3:hr>
            <ns3:cad>0</ns3:cad>
          </ns3:TrackPointExtension>
        </extensions>
      </trkpt>
      <trkpt lat="47.552223466336727142333984375" lon="11.01096916012465953826904296875">
        <ele>1746.4000244140625</ele>
        <time>2026-09-01T07:19:09.000Z</time>
        <extensions>
          <ns3:TrackPointExtension>
            <ns3:hr>164</ns3:hr>
            <ns3:cad>0</ns3:cad>
          </ns3:TrackPointExtension>
        </extensions>
      </trkpt>
      <trkpt lat="47.55222287960350513458251953125" lon="11.01097251288592815399169921875">
        <ele>1746.5999755859375</ele>
        <time>2026-09-01T07:19:10.000Z</time>
        <extensions>
          <ns3:TrackPointExtension>
            <ns3:hr>165</ns3:hr>
            <ns3:cad>0</ns3:cad>
          </ns3:TrackPointExtension>
        </extensions>
      </trkpt>
      <trkpt lat="47.55222002975642681121826171875" lon="11.010966561734676361083984375">
        <ele>1746.800048828125</ele>
        <time>2026-09-01T07:19:11.000Z</time>
        <extensions>
          <ns3:TrackPointExtension>
            <ns3:hr>165</ns3:hr>
            <ns3:cad>0</ns3:cad>
          </ns3:TrackPointExtension>
        </extensions>
      </trkpt>
      <trkpt lat="47.5522132404148578643798828125" lon="11.01096890866756439208984375">
        <ele>1747</ele>
        <time>2026-09-01T07:19:12.000Z</time>
        <extensions>
          <ns3:TrackPointExtension>
            <ns3:hr>164</ns3:hr>
            <ns3:cad>0</ns3:cad>
          </ns3:TrackPointExtension>
        </extensions>
      </trkpt>
      <trkpt lat="47.55221567116677761077880859375" lon="11.010973267257213592529296875">
        <ele>1747.199951171875</ele>
        <time>2026-09-01T07:19:13.000Z</time>
        <extensions>
          <ns3:TrackPointExtension>
            <ns3:hr>164</ns3:hr>
            <ns3:cad>0</ns3:cad>
          </ns3:TrackPointExtension>
        </extensions>
      </trkpt>
      <trkpt lat="47.55220980383455753326416015625" lon="11.010971255600452423095703125">
        <ele>1747.5999755859375</ele>
        <time>2026-09-01T07:19:14.000Z</time>
        <extensions>
          <ns3:TrackPointExtension>
            <ns3:hr>162</ns3:hr>
            <ns3:cad>0</ns3:cad>
          </ns3:TrackPointExtension>
        </extensions>
      </trkpt>
      <trkpt lat="47.55220795981585979461669921875" lon="11.0109771229326725006103515625">
        <ele>1748.199951171875</ele>
        <time>2026-09-01T07:19:15.000Z</time>
        <extensions>
          <ns3:TrackPointExtension>
            <ns3:hr>160</ns3:hr>
            <ns3:cad>0</ns3:cad>
          </ns3:TrackPointExtension>
        </extensions>
      </trkpt>
      <trkpt lat="47.55220075137913227081298828125" lon="11.01098022423684597015380859375">
        <ele>1748.5999755859375</ele>
        <time>2026-09-01T07:19:16.000Z</time>
        <extensions>
          <ns3:TrackPointExtension>
            <ns3:hr>160</ns3:hr>
            <ns3:cad>0</ns3:cad>
          </ns3:TrackPointExtension>
        </extensions>
      </trkpt>
      <trkpt lat="47.55219496786594390869140625" lon="11.0109798051416873931884765625">
        <ele>1748.800048828125</ele>
        <time>2026-09-01T07:19:17.000Z</time>
        <extensions>
          <ns3:TrackPointExtension>
            <ns3:hr>160</ns3:hr>
            <ns3:cad>70</ns3:cad>
          </ns3:TrackPointExtension>
        </extensions>
      </trkpt>
      <trkpt lat="47.552189938724040985107421875" lon="11.01098231971263885498046875">
        <ele>1749.4000244140625</ele>
        <time>2026-09-01T07:19:18.000Z</time>
        <extensions>
          <ns3:TrackPointExtension>
            <ns3:hr>160</ns3:hr>
            <ns3:cad>70</ns3:cad>
          </ns3:TrackPointExtension>
        </extensions>
      </trkpt>
      <trkpt lat="47.552183233201503753662109375" lon="11.010983996093273162841796875">
        <ele>1749.5999755859375</ele>
        <time>2026-09-01T07:19:19.000Z</time>
        <extensions>
          <ns3:TrackPointExtension>
            <ns3:hr>160</ns3:hr>
            <ns3:cad>70</ns3:cad>
          </ns3:TrackPointExtension>
        </extensions>
      </trkpt>
      <trkpt lat="47.55217795260250568389892578125" lon="11.01098324172198772430419921875">
        <ele>1750</ele>
        <time>2026-09-01T07:19:20.000Z</time>
        <extensions>
          <ns3:TrackPointExtension>
            <ns3:hr>159</ns3:hr>
            <ns3:cad>70</ns3:cad>
          </ns3:TrackPointExtension>
        </extensions>
      </trkpt>
      <trkpt lat="47.5521750189363956451416015625" lon="11.01098273880779743194580078125">
        <ele>1750.5999755859375</ele>
        <time>2026-09-01T07:19:21.000Z</time>
        <extensions>
          <ns3:TrackPointExtension>
            <ns3:hr>159</ns3:hr>
            <ns3:cad>0</ns3:cad>
          </ns3:TrackPointExtension>
        </extensions>
      </trkpt>
      <trkpt lat="47.5521755218505859375" lon="11.010981984436511993408203125">
        <ele>1751</ele>
        <time>2026-09-01T07:19:22.000Z</time>
        <extensions>
          <ns3:TrackPointExtension>
            <ns3:hr>159</ns3:hr>
            <ns3:cad>0</ns3:cad>
          </ns3:TrackPointExtension>
        </extensions>
      </trkpt>
      <trkpt lat="47.5521793775260448455810546875" lon="11.0109808109700679779052734375">
        <ele>1751.199951171875</ele>
        <time>2026-09-01T07:19:23.000Z</time>
        <extensions>
          <ns3:TrackPointExtension>
            <ns3:hr>159</ns3:hr>
            <ns3:cad>0</ns3:cad>
          </ns3:TrackPointExtension>
        </extensions>
      </trkpt>
      <trkpt lat="47.5521849095821380615234375" lon="11.010973267257213592529296875">
        <ele>1751.4000244140625</ele>
        <time>2026-09-01T07:19:24.000Z</time>
        <extensions>
          <ns3:TrackPointExtension>
            <ns3:hr>160</ns3:hr>
            <ns3:cad>0</ns3:cad>
          </ns3:TrackPointExtension>
        </extensions>
      </trkpt>
      <trkpt lat="47.55219270475208759307861328125" lon="11.0109603591263294219970703125">
        <ele>1751.4000244140625</ele>
        <time>2026-09-01T07:19:25.000Z</time>
        <extensions>
          <ns3:TrackPointExtension>
            <ns3:hr>163</ns3:hr>
            <ns3:cad>0</ns3:cad>
          </ns3:TrackPointExtension>
        </extensions>
      </trkpt>
      <trkpt lat="47.5521901063621044158935546875" lon="11.01094770245254039764404296875">
        <ele>1751.4000244140625</ele>
        <time>2026-09-01T07:19:26.000Z</time>
        <extensions>
          <ns3:TrackPointExtension>
            <ns3:hr>164</ns3:hr>
            <ns3:cad>47</ns3:cad>
          </ns3:TrackPointExtension>
        </extensions>
      </trkpt>
      <trkpt lat="47.552181892096996307373046875" lon="11.01093077100813388824462890625">
        <ele>1751.5999755859375</ele>
        <time>2026-09-01T07:19:27.000Z</time>
        <extensions>
          <ns3:TrackPointExtension>
            <ns3:hr>166</ns3:hr>
            <ns3:cad>47</ns3:cad>
          </ns3:TrackPointExtension>
        </extensions>
      </trkpt>
      <trkpt lat="47.5521753542125225067138671875" lon="11.0109137557446956634521484375">
        <ele>1751.800048828125</ele>
        <time>2026-09-01T07:19:28.000Z</time>
        <extensions>
          <ns3:TrackPointExtension>
            <ns3:hr>167</ns3:hr>
            <ns3:cad>47</ns3:cad>
          </ns3:TrackPointExtension>
        </extensions>
      </trkpt>
      <trkpt lat="47.55216638557612895965576171875" lon="11.01089908741414546966552734375">
        <ele>1752.4000244140625</ele>
        <time>2026-09-01T07:19:29.000Z</time>
        <extensions>
          <ns3:TrackPointExtension>
            <ns3:hr>168</ns3:hr>
            <ns3:cad>47</ns3:cad>
          </ns3:TrackPointExtension>
        </extensions>
      </trkpt>
      <trkpt lat="47.55216320045292377471923828125" lon="11.01089355535805225372314453125">
        <ele>1752.800048828125</ele>
        <time>2026-09-01T07:19:30.000Z</time>
        <extensions>
          <ns3:TrackPointExtension>
            <ns3:hr>168</ns3:hr>
            <ns3:cad>47</ns3:cad>
          </ns3:TrackPointExtension>
        </extensions>
      </trkpt>
      <trkpt lat="47.55215548910200595855712890625" lon="11.010892800986766815185546875">
        <ele>1753.199951171875</ele>
        <time>2026-09-01T07:19:31.000Z</time>
        <extensions>
          <ns3:TrackPointExtension>
            <ns3:hr>168</ns3:hr>
            <ns3:cad>0</ns3:cad>
          </ns3:TrackPointExtension>
        </extensions>
      </trkpt>
      <trkpt lat="47.55215062759816646575927734375" lon="11.01089606992900371551513671875">
        <ele>1753.5999755859375</ele>
        <time>2026-09-01T07:19:32.000Z</time>
        <extensions>
          <ns3:TrackPointExtension>
            <ns3:hr>168</ns3:hr>
            <ns3:cad>0</ns3:cad>
          </ns3:TrackPointExtension>
        </extensions>
      </trkpt>
      <trkpt lat="47.55214777775108814239501953125" lon="11.010897159576416015625">
        <ele>1754</ele>
        <time>2026-09-01T07:19:33.000Z</time>
        <extensions>
          <ns3:TrackPointExtension>
            <ns3:hr>168</ns3:hr>
            <ns3:cad>0</ns3:cad>
          </ns3:TrackPointExtension>
        </extensions>
      </trkpt>
      <trkpt lat="47.55214442498981952667236328125" lon="11.010907553136348724365234375">
        <ele>1754</ele>
        <time>2026-09-01T07:19:34.000Z</time>
        <extensions>
          <ns3:TrackPointExtension>
            <ns3:hr>167</ns3:hr>
            <ns3:cad>0</ns3:cad>
          </ns3:TrackPointExtension>
        </extensions>
      </trkpt>
      <trkpt lat="47.55213973112404346466064453125" lon="11.01091794669628143310546875">
        <ele>1754.199951171875</ele>
        <time>2026-09-01T07:19:35.000Z</time>
        <extensions>
          <ns3:TrackPointExtension>
            <ns3:hr>168</ns3:hr>
            <ns3:cad>0</ns3:cad>
          </ns3:TrackPointExtension>
        </extensions>
      </trkpt>
      <trkpt lat="47.55213906057178974151611328125" lon="11.01092339493334293365478515625">
        <ele>1754.4000244140625</ele>
        <time>2026-09-01T07:19:36.000Z</time>
        <extensions>
          <ns3:TrackPointExtension>
            <ns3:hr>168</ns3:hr>
            <ns3:cad>71</ns3:cad>
          </ns3:TrackPointExtension>
        </extensions>
      </trkpt>
      <trkpt lat="47.55213436670601367950439453125" lon="11.0109288431704044342041015625">
        <ele>1754.800048828125</ele>
        <time>2026-09-01T07:19:37.000Z</time>
        <extensions>
          <ns3:TrackPointExtension>
            <ns3:hr>168</ns3:hr>
            <ns3:cad>71</ns3:cad>
          </ns3:TrackPointExtension>
        </extensions>
      </trkpt>
      <trkpt lat="47.5521307624876499176025390625" lon="11.0109348781406879425048828125">
        <ele>1755.199951171875</ele>
        <time>2026-09-01T07:19:38.000Z</time>
        <extensions>
          <ns3:TrackPointExtension>
            <ns3:hr>168</ns3:hr>
            <ns3:cad>71</ns3:cad>
          </ns3:TrackPointExtension>
        </extensions>
      </trkpt>
      <trkpt lat="47.55212699063122272491455078125" lon="11.010937057435512542724609375">
        <ele>1755.5999755859375</ele>
        <time>2026-09-01T07:19:39.000Z</time>
        <extensions>
          <ns3:TrackPointExtension>
            <ns3:hr>168</ns3:hr>
            <ns3:cad>0</ns3:cad>
          </ns3:TrackPointExtension>
        </extensions>
      </trkpt>
      <trkpt lat="47.552124224603176116943359375" lon="11.01094066165387630462646484375">
        <ele>1756</ele>
        <time>2026-09-01T07:19:40.000Z</time>
        <extensions>
          <ns3:TrackPointExtension>
            <ns3:hr>169</ns3:hr>
            <ns3:cad>0</ns3:cad>
          </ns3:TrackPointExtension>
        </extensions>
      </trkpt>
      <trkpt lat="47.5521218776702880859375" lon="11.0109402425587177276611328125">
        <ele>1756.4000244140625</ele>
        <time>2026-09-01T07:19:41.000Z</time>
        <extensions>
          <ns3:TrackPointExtension>
            <ns3:hr>169</ns3:hr>
            <ns3:cad>0</ns3:cad>
          </ns3:TrackPointExtension>
        </extensions>
      </trkpt>
      <trkpt lat="47.55211860872805118560791015625" lon="11.01094074547290802001953125">
        <ele>1756.5999755859375</ele>
        <time>2026-09-01T07:19:42.000Z</time>
        <extensions>
          <ns3:TrackPointExtension>
            <ns3:hr>169</ns3:hr>
            <ns3:cad>0</ns3:cad>
          </ns3:TrackPointExtension>
        </extensions>
      </trkpt>
      <trkpt lat="47.552114836871623992919921875" lon="11.0109389014542102813720703125">
        <ele>1757</ele>
        <time>2026-09-01T07:19:43.000Z</time>
        <extensions>
          <ns3:TrackPointExtension>
            <ns3:hr>169</ns3:hr>
            <ns3:cad>0</ns3:cad>
          </ns3:TrackPointExtension>
        </extensions>
      </trkpt>
      <trkpt lat="47.5521113164722919464111328125" lon="11.01093730889260768890380859375">
        <ele>1757.4000244140625</ele>
        <time>2026-09-01T07:19:44.000Z</time>
        <extensions>
          <ns3:TrackPointExtension>
            <ns3:hr>169</ns3:hr>
            <ns3:cad>0</ns3:cad>
          </ns3:TrackPointExtension>
        </extensions>
      </trkpt>
      <trkpt lat="47.55210779607295989990234375" lon="11.0109335370361804962158203125">
        <ele>1757.5999755859375</ele>
        <time>2026-09-01T07:19:45.000Z</time>
        <extensions>
          <ns3:TrackPointExtension>
            <ns3:hr>169</ns3:hr>
            <ns3:cad>0</ns3:cad>
          </ns3:TrackPointExtension>
        </extensions>
      </trkpt>
      <trkpt lat="47.55210318602621555328369140625" lon="11.0109280049800872802734375">
        <ele>1757.800048828125</ele>
        <time>2026-09-01T07:19:46.000Z</time>
        <extensions>
          <ns3:TrackPointExtension>
            <ns3:hr>169</ns3:hr>
            <ns3:cad>0</ns3:cad>
          </ns3:TrackPointExtension>
        </extensions>
      </trkpt>
      <trkpt lat="47.55209966562688350677490234375" lon="11.0109280049800872802734375">
        <ele>1758</ele>
        <time>2026-09-01T07:19:47.000Z</time>
        <extensions>
          <ns3:TrackPointExtension>
            <ns3:hr>169</ns3:hr>
            <ns3:cad>0</ns3:cad>
          </ns3:TrackPointExtension>
        </extensions>
      </trkpt>
      <trkpt lat="47.5520955584943294525146484375" lon="11.010929010808467864990234375">
        <ele>1758.199951171875</ele>
        <time>2026-09-01T07:19:48.000Z</time>
        <extensions>
          <ns3:TrackPointExtension>
            <ns3:hr>169</ns3:hr>
            <ns3:cad>0</ns3:cad>
          </ns3:TrackPointExtension>
        </extensions>
      </trkpt>
      <trkpt lat="47.55209044553339481353759765625" lon="11.010930351912975311279296875">
        <ele>1758.199951171875</ele>
        <time>2026-09-01T07:19:49.000Z</time>
        <extensions>
          <ns3:TrackPointExtension>
            <ns3:hr>170</ns3:hr>
            <ns3:cad>0</ns3:cad>
          </ns3:TrackPointExtension>
        </extensions>
      </trkpt>
      <trkpt lat="47.55208038724958896636962890625" lon="11.01093563251197338104248046875">
        <ele>1758.5999755859375</ele>
        <time>2026-09-01T07:19:50.000Z</time>
        <extensions>
          <ns3:TrackPointExtension>
            <ns3:hr>169</ns3:hr>
            <ns3:cad>0</ns3:cad>
          </ns3:TrackPointExtension>
        </extensions>
      </trkpt>
      <trkpt lat="47.55207284353673458099365234375" lon="11.0109425894916057586669921875">
        <ele>1758.800048828125</ele>
        <time>2026-09-01T07:19:51.000Z</time>
        <extensions>
          <ns3:TrackPointExtension>
            <ns3:hr>169</ns3:hr>
            <ns3:cad>0</ns3:cad>
          </ns3:TrackPointExtension>
        </extensions>
      </trkpt>
      <trkpt lat="47.55206211470067501068115234375" lon="11.0109486244618892669677734375">
        <ele>1759</ele>
        <time>2026-09-01T07:19:52.000Z</time>
        <extensions>
          <ns3:TrackPointExtension>
            <ns3:hr>169</ns3:hr>
            <ns3:cad>0</ns3:cad>
          </ns3:TrackPointExtension>
        </extensions>
      </trkpt>
      <trkpt lat="47.55205322988331317901611328125" lon="11.0109523124992847442626953125">
        <ele>1759.199951171875</ele>
        <time>2026-09-01T07:19:53.000Z</time>
        <extensions>
          <ns3:TrackPointExtension>
            <ns3:hr>168</ns3:hr>
            <ns3:cad>0</ns3:cad>
          </ns3:TrackPointExtension>
        </extensions>
      </trkpt>
      <trkpt lat="47.55205415189266204833984375" lon="11.0109521448612213134765625">
        <ele>1759.5999755859375</ele>
        <time>2026-09-01T07:19:54.000Z</time>
        <extensions>
          <ns3:TrackPointExtension>
            <ns3:hr>168</ns3:hr>
            <ns3:cad>0</ns3:cad>
          </ns3:TrackPointExtension>
        </extensions>
      </trkpt>
      <trkpt lat="47.55205457098782062530517578125" lon="11.0109536536037921905517578125">
        <ele>1760</ele>
        <time>2026-09-01T07:19:55.000Z</time>
        <extensions>
          <ns3:TrackPointExtension>
            <ns3:hr>168</ns3:hr>
            <ns3:cad>0</ns3:cad>
          </ns3:TrackPointExtension>
        </extensions>
      </trkpt>
      <trkpt lat="47.5520549900829792022705078125" lon="11.0109539888799190521240234375">
        <ele>1760</ele>
        <time>2026-09-01T07:19:56.000Z</time>
        <extensions>
          <ns3:TrackPointExtension>
            <ns3:hr>167</ns3:hr>
            <ns3:cad>0</ns3:cad>
          </ns3:TrackPointExtension>
        </extensions>
      </trkpt>
      <trkpt lat="47.5520492903888225555419921875" lon="11.01095541380345821380615234375">
        <ele>1760</ele>
        <time>2026-09-01T07:19:57.000Z</time>
        <extensions>
          <ns3:TrackPointExtension>
            <ns3:hr>167</ns3:hr>
            <ns3:cad>0</ns3:cad>
          </ns3:TrackPointExtension>
        </extensions>
      </trkpt>
      <trkpt lat="47.55204786546528339385986328125" lon="11.0109516419470310211181640625">
        <ele>1759.800048828125</ele>
        <time>2026-09-01T07:19:58.000Z</time>
        <extensions>
          <ns3:TrackPointExtension>
            <ns3:hr>167</ns3:hr>
            <ns3:cad>0</ns3:cad>
          </ns3:TrackPointExtension>
        </extensions>
      </trkpt>
      <trkpt lat="47.55204476416110992431640625" lon="11.01094887591898441314697265625">
        <ele>1759.800048828125</ele>
        <time>2026-09-01T07:19:59.000Z</time>
        <extensions>
          <ns3:TrackPointExtension>
            <ns3:hr>167</ns3:hr>
            <ns3:cad>0</ns3:cad>
          </ns3:TrackPointExtension>
        </extensions>
      </trkpt>
      <trkpt lat="47.5520281679928302764892578125" lon="11.0109298489987850189208984375">
        <ele>1759.800048828125</ele>
        <time>2026-09-01T07:20:00.000Z</time>
        <extensions>
          <ns3:TrackPointExtension>
            <ns3:hr>167</ns3:hr>
            <ns3:cad>0</ns3:cad>
          </ns3:TrackPointExtension>
        </extensions>
      </trkpt>
      <trkpt lat="47.55201668478548526763916015625" lon="11.01092725060880184173583984375">
        <ele>1760.199951171875</ele>
        <time>2026-09-01T07:20:01.000Z</time>
        <extensions>
          <ns3:TrackPointExtension>
            <ns3:hr>168</ns3:hr>
            <ns3:cad>0</ns3:cad>
          </ns3:TrackPointExtension>
        </extensions>
      </trkpt>
      <trkpt lat="47.55200947634875774383544921875" lon="11.01093269884586334228515625">
        <ele>1760.800048828125</ele>
        <time>2026-09-01T07:20:02.000Z</time>
        <extensions>
          <ns3:TrackPointExtension>
            <ns3:hr>166</ns3:hr>
            <ns3:cad>0</ns3:cad>
          </ns3:TrackPointExtension>
        </extensions>
      </trkpt>
      <trkpt lat="47.55200310610234737396240234375" lon="11.01093940436840057373046875">
        <ele>1761.5999755859375</ele>
        <time>2026-09-01T07:20:03.000Z</time>
        <extensions>
          <ns3:TrackPointExtension>
            <ns3:hr>165</ns3:hr>
            <ns3:cad>0</ns3:cad>
          </ns3:TrackPointExtension>
        </extensions>
      </trkpt>
      <trkpt lat="47.552003525197505950927734375" lon="11.01093010045588016510009765625">
        <ele>1762.4000244140625</ele>
        <time>2026-09-01T07:20:04.000Z</time>
        <extensions>
          <ns3:TrackPointExtension>
            <ns3:hr>165</ns3:hr>
            <ns3:cad>0</ns3:cad>
          </ns3:TrackPointExtension>
        </extensions>
      </trkpt>
      <trkpt lat="47.55199455656111240386962890625" lon="11.01093462668359279632568359375">
        <ele>1762.800048828125</ele>
        <time>2026-09-01T07:20:05.000Z</time>
        <extensions>
          <ns3:TrackPointExtension>
            <ns3:hr>165</ns3:hr>
            <ns3:cad>0</ns3:cad>
          </ns3:TrackPointExtension>
        </extensions>
      </trkpt>
      <trkpt lat="47.5519882701337337493896484375" lon="11.01094183512032032012939453125">
        <ele>1763</ele>
        <time>2026-09-01T07:20:06.000Z</time>
        <extensions>
          <ns3:TrackPointExtension>
            <ns3:hr>165</ns3:hr>
            <ns3:cad>0</ns3:cad>
          </ns3:TrackPointExtension>
        </extensions>
      </trkpt>
      <trkpt lat="47.55199321545660495758056640625" lon="11.010953150689601898193359375">
        <ele>1763.4000244140625</ele>
        <time>2026-09-01T07:20:07.000Z</time>
        <extensions>
          <ns3:TrackPointExtension>
            <ns3:hr>165</ns3:hr>
            <ns3:cad>0</ns3:cad>
          </ns3:TrackPointExtension>
        </extensions>
      </trkpt>
      <trkpt lat="47.551994808018207550048828125" lon="11.01095809601247310638427734375">
        <ele>1763.4000244140625</ele>
        <time>2026-09-01T07:20:08.000Z</time>
        <extensions>
          <ns3:TrackPointExtension>
            <ns3:hr>166</ns3:hr>
            <ns3:cad>0</ns3:cad>
          </ns3:TrackPointExtension>
        </extensions>
      </trkpt>
      <trkpt lat="47.55198768340051174163818359375" lon="11.010954491794109344482421875">
        <ele>1763.5999755859375</ele>
        <time>2026-09-01T07:20:09.000Z</time>
        <extensions>
          <ns3:TrackPointExtension>
            <ns3:hr>169</ns3:hr>
            <ns3:cad>0</ns3:cad>
          </ns3:TrackPointExtension>
        </extensions>
      </trkpt>
      <trkpt lat="47.55198114551603794097900390625" lon="11.01096622645854949951171875">
        <ele>1763.800048828125</ele>
        <time>2026-09-01T07:20:10.000Z</time>
        <extensions>
          <ns3:TrackPointExtension>
            <ns3:hr>169</ns3:hr>
            <ns3:cad>0</ns3:cad>
          </ns3:TrackPointExtension>
        </extensions>
      </trkpt>
      <trkpt lat="47.55197812803089618682861328125" lon="11.01097687147557735443115234375">
        <ele>1764.199951171875</ele>
        <time>2026-09-01T07:20:11.000Z</time>
        <extensions>
          <ns3:TrackPointExtension>
            <ns3:hr>169</ns3:hr>
            <ns3:cad>0</ns3:cad>
          </ns3:TrackPointExtension>
        </extensions>
      </trkpt>
      <trkpt lat="47.55198148079216480255126953125" lon="11.01097301580011844635009765625">
        <ele>1764.199951171875</ele>
        <time>2026-09-01T07:20:12.000Z</time>
        <extensions>
          <ns3:TrackPointExtension>
            <ns3:hr>168</ns3:hr>
            <ns3:cad>0</ns3:cad>
          </ns3:TrackPointExtension>
        </extensions>
      </trkpt>
      <trkpt lat="47.551974020898342132568359375" lon="11.01098407991230487823486328125">
        <ele>1764.5999755859375</ele>
        <time>2026-09-01T07:20:13.000Z</time>
        <extensions>
          <ns3:TrackPointExtension>
            <ns3:hr>167</ns3:hr>
            <ns3:cad>0</ns3:cad>
          </ns3:TrackPointExtension>
        </extensions>
      </trkpt>
      <trkpt lat="47.55196991376578807830810546875" lon="11.01098441518843173980712890625">
        <ele>1765</ele>
        <time>2026-09-01T07:20:14.000Z</time>
        <extensions>
          <ns3:TrackPointExtension>
            <ns3:hr>166</ns3:hr>
            <ns3:cad>0</ns3:cad>
          </ns3:TrackPointExtension>
        </extensions>
      </trkpt>
      <trkpt lat="47.5519604422152042388916015625" lon="11.010991372168064117431640625">
        <ele>1765.199951171875</ele>
        <time>2026-09-01T07:20:15.000Z</time>
        <extensions>
          <ns3:TrackPointExtension>
            <ns3:hr>166</ns3:hr>
            <ns3:cad>0</ns3:cad>
          </ns3:TrackPointExtension>
        </extensions>
      </trkpt>
      <trkpt lat="47.5519520603120326995849609375" lon="11.0110015980899333953857421875">
        <ele>1765.199951171875</ele>
        <time>2026-09-01T07:20:16.000Z</time>
        <extensions>
          <ns3:TrackPointExtension>
            <ns3:hr>165</ns3:hr>
            <ns3:cad>0</ns3:cad>
          </ns3:TrackPointExtension>
        </extensions>
      </trkpt>
      <trkpt lat="47.55193755961954593658447265625" lon="11.0110012628138065338134765625">
        <ele>1765.199951171875</ele>
        <time>2026-09-01T07:20:17.000Z</time>
        <extensions>
          <ns3:TrackPointExtension>
            <ns3:hr>164</ns3:hr>
            <ns3:cad>0</ns3:cad>
          </ns3:TrackPointExtension>
        </extensions>
      </trkpt>
      <trkpt lat="47.5519259087741374969482421875" lon="11.01099908351898193359375">
        <ele>1765</ele>
        <time>2026-09-01T07:20:18.000Z</time>
        <extensions>
          <ns3:TrackPointExtension>
            <ns3:hr>163</ns3:hr>
            <ns3:cad>0</ns3:cad>
          </ns3:TrackPointExtension>
        </extensions>
      </trkpt>
      <trkpt lat="47.5519138388335704803466796875" lon="11.01099573075771331787109375">
        <ele>1765</ele>
        <time>2026-09-01T07:20:19.000Z</time>
        <extensions>
          <ns3:TrackPointExtension>
            <ns3:hr>162</ns3:hr>
            <ns3:cad>0</ns3:cad>
          </ns3:TrackPointExtension>
        </extensions>
      </trkpt>
      <trkpt lat="47.55190520547330379486083984375" lon="11.01099170744419097900390625">
        <ele>1765</ele>
        <time>2026-09-01T07:20:20.000Z</time>
        <extensions>
          <ns3:TrackPointExtension>
            <ns3:hr>161</ns3:hr>
            <ns3:cad>0</ns3:cad>
          </ns3:TrackPointExtension>
        </extensions>
      </trkpt>
      <trkpt lat="47.55189615301787853240966796875" lon="11.01098072715103626251220703125">
        <ele>1765.199951171875</ele>
        <time>2026-09-01T07:20:21.000Z</time>
        <extensions>
          <ns3:TrackPointExtension>
            <ns3:hr>161</ns3:hr>
            <ns3:cad>0</ns3:cad>
          </ns3:TrackPointExtension>
        </extensions>
      </trkpt>
      <trkpt lat="47.5518839992582798004150390625" lon="11.010976620018482208251953125">
        <ele>1765.4000244140625</ele>
        <time>2026-09-01T07:20:22.000Z</time>
        <extensions>
          <ns3:TrackPointExtension>
            <ns3:hr>161</ns3:hr>
            <ns3:cad>0</ns3:cad>
          </ns3:TrackPointExtension>
        </extensions>
      </trkpt>
      <trkpt lat="47.55187100730836391448974609375" lon="11.01097569800913333892822265625">
        <ele>1765.5999755859375</ele>
        <time>2026-09-01T07:20:23.000Z</time>
        <extensions>
          <ns3:TrackPointExtension>
            <ns3:hr>160</ns3:hr>
            <ns3:cad>0</ns3:cad>
          </ns3:TrackPointExtension>
        </extensions>
      </trkpt>
      <trkpt lat="47.5518514774739742279052734375" lon="11.01097955368459224700927734375">
        <ele>1765.5999755859375</ele>
        <time>2026-09-01T07:20:24.000Z</time>
        <extensions>
          <ns3:TrackPointExtension>
            <ns3:hr>160</ns3:hr>
            <ns3:cad>19</ns3:cad>
          </ns3:TrackPointExtension>
        </extensions>
      </trkpt>
      <trkpt lat="47.55183815024793148040771484375" lon="11.010980308055877685546875">
        <ele>1765.800048828125</ele>
        <time>2026-09-01T07:20:25.000Z</time>
        <extensions>
          <ns3:TrackPointExtension>
            <ns3:hr>159</ns3:hr>
            <ns3:cad>19</ns3:cad>
          </ns3:TrackPointExtension>
        </extensions>
      </trkpt>
      <trkpt lat="47.5518256612122058868408203125" lon="11.010977290570735931396484375">
        <ele>1765.800048828125</ele>
        <time>2026-09-01T07:20:26.000Z</time>
        <extensions>
          <ns3:TrackPointExtension>
            <ns3:hr>159</ns3:hr>
            <ns3:cad>19</ns3:cad>
          </ns3:TrackPointExtension>
        </extensions>
      </trkpt>
      <trkpt lat="47.55180948413908481597900390625" lon="11.01097536273300647735595703125">
        <ele>1766</ele>
        <time>2026-09-01T07:20:27.000Z</time>
        <extensions>
          <ns3:TrackPointExtension>
            <ns3:hr>158</ns3:hr>
            <ns3:cad>19</ns3:cad>
          </ns3:TrackPointExtension>
        </extensions>
      </trkpt>
      <trkpt lat="47.55179489962756633758544921875" lon="11.01097234524786472320556640625">
        <ele>1766.199951171875</ele>
        <time>2026-09-01T07:20:28.000Z</time>
        <extensions>
          <ns3:TrackPointExtension>
            <ns3:hr>158</ns3:hr>
            <ns3:cad>66</ns3:cad>
          </ns3:TrackPointExtension>
        </extensions>
      </trkpt>
      <trkpt lat="47.55178266204893589019775390625" lon="11.01096999831497669219970703125">
        <ele>1766.5999755859375</ele>
        <time>2026-09-01T07:20:29.000Z</time>
        <extensions>
          <ns3:TrackPointExtension>
            <ns3:hr>157</ns3:hr>
            <ns3:cad>66</ns3:cad>
          </ns3:TrackPointExtension>
        </extensions>
      </trkpt>
      <trkpt lat="47.55177645944058895111083984375" lon="11.0109583474695682525634765625">
        <ele>1767.199951171875</ele>
        <time>2026-09-01T07:20:30.000Z</time>
        <extensions>
          <ns3:TrackPointExtension>
            <ns3:hr>157</ns3:hr>
            <ns3:cad>66</ns3:cad>
          </ns3:TrackPointExtension>
        </extensions>
      </trkpt>
      <trkpt lat="47.55178593099117279052734375" lon="11.01095591671764850616455078125">
        <ele>1767.4000244140625</ele>
        <time>2026-09-01T07:20:31.000Z</time>
        <extensions>
          <ns3:TrackPointExtension>
            <ns3:hr>156</ns3:hr>
            <ns3:cad>0</ns3:cad>
          </ns3:TrackPointExtension>
        </extensions>
      </trkpt>
      <trkpt lat="47.55178266204893589019775390625" lon="11.01094585843384265899658203125">
        <ele>1767.800048828125</ele>
        <time>2026-09-01T07:20:32.000Z</time>
        <extensions>
          <ns3:TrackPointExtension>
            <ns3:hr>158</ns3:hr>
            <ns3:cad>0</ns3:cad>
          </ns3:TrackPointExtension>
        </extensions>
      </trkpt>
      <trkpt lat="47.55178484134376049041748046875" lon="11.01094669662415981292724609375">
        <ele>1768.199951171875</ele>
        <time>2026-09-01T07:20:33.000Z</time>
        <extensions>
          <ns3:TrackPointExtension>
            <ns3:hr>160</ns3:hr>
            <ns3:cad>0</ns3:cad>
          </ns3:TrackPointExtension>
        </extensions>
      </trkpt>
      <trkpt lat="47.55178333260118961334228515625" lon="11.01094208657741546630859375">
        <ele>1768.199951171875</ele>
        <time>2026-09-01T07:20:34.000Z</time>
        <extensions>
          <ns3:TrackPointExtension>
            <ns3:hr>161</ns3:hr>
            <ns3:cad>0</ns3:cad>
          </ns3:TrackPointExtension>
        </extensions>
      </trkpt>
      <trkpt lat="47.55178266204893589019775390625" lon="11.0109352134168148040771484375">
        <ele>1768.4000244140625</ele>
        <time>2026-09-01T07:20:35.000Z</time>
        <extensions>
          <ns3:TrackPointExtension>
            <ns3:hr>161</ns3:hr>
            <ns3:cad>0</ns3:cad>
          </ns3:TrackPointExtension>
        </extensions>
      </trkpt>
      <trkpt lat="47.55178400315344333648681640625" lon="11.01092725060880184173583984375">
        <ele>1768.800048828125</ele>
        <time>2026-09-01T07:20:36.000Z</time>
        <extensions>
          <ns3:TrackPointExtension>
            <ns3:hr>161</ns3:hr>
            <ns3:cad>0</ns3:cad>
          </ns3:TrackPointExtension>
        </extensions>
      </trkpt>
      <trkpt lat="47.55178333260118961334228515625" lon="11.01092138327658176422119140625">
        <ele>1769</ele>
        <time>2026-09-01T07:20:37.000Z</time>
        <extensions>
          <ns3:TrackPointExtension>
            <ns3:hr>161</ns3:hr>
            <ns3:cad>0</ns3:cad>
          </ns3:TrackPointExtension>
        </extensions>
      </trkpt>
      <trkpt lat="47.551776878535747528076171875" lon="11.01090855896472930908203125">
        <ele>1769.4000244140625</ele>
        <time>2026-09-01T07:20:38.000Z</time>
        <extensions>
          <ns3:TrackPointExtension>
            <ns3:hr>160</ns3:hr>
            <ns3:cad>0</ns3:cad>
          </ns3:TrackPointExtension>
        </extensions>
      </trkpt>
      <trkpt lat="47.55177126266062259674072265625" lon="11.01090311072766780853271484375">
        <ele>1769.800048828125</ele>
        <time>2026-09-01T07:20:39.000Z</time>
        <extensions>
          <ns3:TrackPointExtension>
            <ns3:hr>160</ns3:hr>
            <ns3:cad>0</ns3:cad>
          </ns3:TrackPointExtension>
        </extensions>
      </trkpt>
      <trkpt lat="47.55176656879484653472900390625" lon="11.010918952524662017822265625">
        <ele>1770.199951171875</ele>
        <time>2026-09-01T07:20:40.000Z</time>
        <extensions>
          <ns3:TrackPointExtension>
            <ns3:hr>159</ns3:hr>
            <ns3:cad>0</ns3:cad>
          </ns3:TrackPointExtension>
        </extensions>
      </trkpt>
      <trkpt lat="47.55174092017114162445068359375" lon="11.01091367192566394805908203125">
        <ele>1770.199951171875</ele>
        <time>2026-09-01T07:20:41.000Z</time>
        <extensions>
          <ns3:TrackPointExtension>
            <ns3:hr>159</ns3:hr>
            <ns3:cad>0</ns3:cad>
          </ns3:TrackPointExtension>
        </extensions>
      </trkpt>
      <trkpt lat="47.55173656158149242401123046875" lon="11.01090529002249240875244140625">
        <ele>1770.5999755859375</ele>
        <time>2026-09-01T07:20:42.000Z</time>
        <extensions>
          <ns3:TrackPointExtension>
            <ns3:hr>159</ns3:hr>
            <ns3:cad>0</ns3:cad>
          </ns3:TrackPointExtension>
        </extensions>
      </trkpt>
      <trkpt lat="47.55173253826797008514404296875" lon="11.0109065473079681396484375">
        <ele>1771</ele>
        <time>2026-09-01T07:20:43.000Z</time>
        <extensions>
          <ns3:TrackPointExtension>
            <ns3:hr>158</ns3:hr>
            <ns3:cad>0</ns3:cad>
          </ns3:TrackPointExtension>
        </extensions>
      </trkpt>
      <trkpt lat="47.551735974848270416259765625" lon="11.0109070502221584320068359375">
        <ele>1771.199951171875</ele>
        <time>2026-09-01T07:20:44.000Z</time>
        <extensions>
          <ns3:TrackPointExtension>
            <ns3:hr>157</ns3:hr>
            <ns3:cad>77</ns3:cad>
          </ns3:TrackPointExtension>
        </extensions>
      </trkpt>
      <trkpt lat="47.55173974670469760894775390625" lon="11.01090763695538043975830078125">
        <ele>1771.5999755859375</ele>
        <time>2026-09-01T07:20:45.000Z</time>
        <extensions>
          <ns3:TrackPointExtension>
            <ns3:hr>156</ns3:hr>
            <ns3:cad>77</ns3:cad>
          </ns3:TrackPointExtension>
        </extensions>
      </trkpt>
      <trkpt lat="47.55174008198082447052001953125" lon="11.0109063796699047088623046875">
        <ele>1771.800048828125</ele>
        <time>2026-09-01T07:20:46.000Z</time>
        <extensions>
          <ns3:TrackPointExtension>
            <ns3:hr>155</ns3:hr>
            <ns3:cad>77</ns3:cad>
          </ns3:TrackPointExtension>
        </extensions>
      </trkpt>
      <trkpt lat="47.5517369806766510009765625" lon="11.010905206203460693359375">
        <ele>1772</ele>
        <time>2026-09-01T07:20:47.000Z</time>
        <extensions>
          <ns3:TrackPointExtension>
            <ns3:hr>154</ns3:hr>
            <ns3:cad>0</ns3:cad>
          </ns3:TrackPointExtension>
        </extensions>
      </trkpt>
      <trkpt lat="47.55173421464860439300537109375" lon="11.01090428419411182403564453125">
        <ele>1772.4000244140625</ele>
        <time>2026-09-01T07:20:48.000Z</time>
        <extensions>
          <ns3:TrackPointExtension>
            <ns3:hr>151</ns3:hr>
            <ns3:cad>0</ns3:cad>
          </ns3:TrackPointExtension>
        </extensions>
      </trkpt>
      <trkpt lat="47.551729269325733184814453125" lon="11.01090361364185810089111328125">
        <ele>1772.800048828125</ele>
        <time>2026-09-01T07:20:49.000Z</time>
        <extensions>
          <ns3:TrackPointExtension>
            <ns3:hr>152</ns3:hr>
            <ns3:cad>0</ns3:cad>
          </ns3:TrackPointExtension>
        </extensions>
      </trkpt>
      <trkpt lat="47.55172549746930599212646484375" lon="11.010905541479587554931640625">
        <ele>1773</ele>
        <time>2026-09-01T07:20:50.000Z</time>
        <extensions>
          <ns3:TrackPointExtension>
            <ns3:hr>152</ns3:hr>
            <ns3:cad>0</ns3:cad>
          </ns3:TrackPointExtension>
        </extensions>
      </trkpt>
      <trkpt lat="47.551722563803195953369140625" lon="11.01090562529861927032470703125">
        <ele>1773.4000244140625</ele>
        <time>2026-09-01T07:20:51.000Z</time>
        <extensions>
          <ns3:TrackPointExtension>
            <ns3:hr>152</ns3:hr>
            <ns3:cad>0</ns3:cad>
          </ns3:TrackPointExtension>
        </extensions>
      </trkpt>
      <trkpt lat="47.5517128407955169677734375" lon="11.01090453565120697021484375">
        <ele>1773.800048828125</ele>
        <time>2026-09-01T07:20:52.000Z</time>
        <extensions>
          <ns3:TrackPointExtension>
            <ns3:hr>152</ns3:hr>
            <ns3:cad>0</ns3:cad>
          </ns3:TrackPointExtension>
        </extensions>
      </trkpt>
      <trkpt lat="47.55170269869267940521240234375" lon="11.01090780459344387054443359375">
        <ele>1774</ele>
        <time>2026-09-01T07:20:53.000Z</time>
        <extensions>
          <ns3:TrackPointExtension>
            <ns3:hr>153</ns3:hr>
            <ns3:cad>0</ns3:cad>
          </ns3:TrackPointExtension>
        </extensions>
      </trkpt>
      <trkpt lat="47.55169314332306385040283203125" lon="11.01090696640312671661376953125">
        <ele>1774.199951171875</ele>
        <time>2026-09-01T07:20:54.000Z</time>
        <extensions>
          <ns3:TrackPointExtension>
            <ns3:hr>153</ns3:hr>
            <ns3:cad>0</ns3:cad>
          </ns3:TrackPointExtension>
        </extensions>
      </trkpt>
      <trkpt lat="47.5516885332763195037841796875" lon="11.0109070502221584320068359375">
        <ele>1774.4000244140625</ele>
        <time>2026-09-01T07:20:55.000Z</time>
        <extensions>
          <ns3:TrackPointExtension>
            <ns3:hr>154</ns3:hr>
            <ns3:cad>0</ns3:cad>
          </ns3:TrackPointExtension>
        </extensions>
      </trkpt>
      <trkpt lat="47.55168559961020946502685546875" lon="11.010905541479587554931640625">
        <ele>1774.5999755859375</ele>
        <time>2026-09-01T07:20:56.000Z</time>
        <extensions>
          <ns3:TrackPointExtension>
            <ns3:hr>154</ns3:hr>
            <ns3:cad>0</ns3:cad>
          </ns3:TrackPointExtension>
        </extensions>
      </trkpt>
      <trkpt lat="47.55167570896446704864501953125" lon="11.0109013505280017852783203125">
        <ele>1774.800048828125</ele>
        <time>2026-09-01T07:20:57.000Z</time>
        <extensions>
          <ns3:TrackPointExtension>
            <ns3:hr>154</ns3:hr>
            <ns3:cad>44</ns3:cad>
          </ns3:TrackPointExtension>
        </extensions>
      </trkpt>
      <trkpt lat="47.55166481249034404754638671875" lon="11.01090126670897006988525390625">
        <ele>1775</ele>
        <time>2026-09-01T07:20:58.000Z</time>
        <extensions>
          <ns3:TrackPointExtension>
            <ns3:hr>153</ns3:hr>
            <ns3:cad>44</ns3:cad>
          </ns3:TrackPointExtension>
        </extensions>
      </trkpt>
      <trkpt lat="47.55165743641555309295654296875" lon="11.0108956508338451385498046875">
        <ele>1775</ele>
        <time>2026-09-01T07:20:59.000Z</time>
        <extensions>
          <ns3:TrackPointExtension>
            <ns3:hr>153</ns3:hr>
            <ns3:cad>44</ns3:cad>
          </ns3:TrackPointExtension>
        </extensions>
      </trkpt>
      <trkpt lat="47.55164855159819126129150390625" lon="11.0108919627964496612548828125">
        <ele>1775.199951171875</ele>
        <time>2026-09-01T07:21:00.000Z</time>
        <extensions>
          <ns3:TrackPointExtension>
            <ns3:hr>153</ns3:hr>
            <ns3:cad>0</ns3:cad>
          </ns3:TrackPointExtension>
        </extensions>
      </trkpt>
      <trkpt lat="47.55164243280887603759765625" lon="11.0108876042068004608154296875">
        <ele>1775.4000244140625</ele>
        <time>2026-09-01T07:21:01.000Z</time>
        <extensions>
          <ns3:TrackPointExtension>
            <ns3:hr>153</ns3:hr>
            <ns3:cad>0</ns3:cad>
          </ns3:TrackPointExtension>
        </extensions>
      </trkpt>
      <trkpt lat="47.55163706839084625244140625" lon="11.0108865983784198760986328125">
        <ele>1775.800048828125</ele>
        <time>2026-09-01T07:21:02.000Z</time>
        <extensions>
          <ns3:TrackPointExtension>
            <ns3:hr>154</ns3:hr>
            <ns3:cad>0</ns3:cad>
          </ns3:TrackPointExtension>
        </extensions>
      </trkpt>
      <trkpt lat="47.5516332127153873443603515625" lon="11.0108850896358489990234375">
        <ele>1776</ele>
        <time>2026-09-01T07:21:03.000Z</time>
        <extensions>
          <ns3:TrackPointExtension>
            <ns3:hr>153</ns3:hr>
            <ns3:cad>0</ns3:cad>
          </ns3:TrackPointExtension>
        </extensions>
      </trkpt>
      <trkpt lat="47.55162809975445270538330078125" lon="11.0108822397887706756591796875">
        <ele>1776.4000244140625</ele>
        <time>2026-09-01T07:21:04.000Z</time>
        <extensions>
          <ns3:TrackPointExtension>
            <ns3:hr>153</ns3:hr>
            <ns3:cad>0</ns3:cad>
          </ns3:TrackPointExtension>
        </extensions>
      </trkpt>
      <trkpt lat="47.5516271777451038360595703125" lon="11.01087980903685092926025390625">
        <ele>1776.800048828125</ele>
        <time>2026-09-01T07:21:05.000Z</time>
        <extensions>
          <ns3:TrackPointExtension>
            <ns3:hr>153</ns3:hr>
            <ns3:cad>0</ns3:cad>
          </ns3:TrackPointExtension>
        </extensions>
      </trkpt>
      <trkpt lat="47.55162575282156467437744140625" lon="11.01087947376072406768798828125">
        <ele>1777.199951171875</ele>
        <time>2026-09-01T07:21:06.000Z</time>
        <extensions>
          <ns3:TrackPointExtension>
            <ns3:hr>153</ns3:hr>
            <ns3:cad>0</ns3:cad>
          </ns3:TrackPointExtension>
        </extensions>
      </trkpt>
      <trkpt lat="47.55162240006029605865478515625" lon="11.010881401598453521728515625">
        <ele>1777.4000244140625</ele>
        <time>2026-09-01T07:21:07.000Z</time>
        <extensions>
          <ns3:TrackPointExtension>
            <ns3:hr>153</ns3:hr>
            <ns3:cad>0</ns3:cad>
          </ns3:TrackPointExtension>
        </extensions>
      </trkpt>
      <trkpt lat="47.55160580389201641082763671875" lon="11.01089439354836940765380859375">
        <ele>1777.800048828125</ele>
        <time>2026-09-01T07:21:08.000Z</time>
        <extensions>
          <ns3:TrackPointExtension>
            <ns3:hr>154</ns3:hr>
            <ns3:cad>0</ns3:cad>
          </ns3:TrackPointExtension>
        </extensions>
      </trkpt>
      <trkpt lat="47.55159960128366947174072265625" lon="11.010899841785430908203125">
        <ele>1778.4000244140625</ele>
        <time>2026-09-01T07:21:09.000Z</time>
        <extensions>
          <ns3:TrackPointExtension>
            <ns3:hr>154</ns3:hr>
            <ns3:cad>0</ns3:cad>
          </ns3:TrackPointExtension>
        </extensions>
      </trkpt>
      <trkpt lat="47.5515956617891788482666015625" lon="11.010900177061557769775390625">
        <ele>1778.800048828125</ele>
        <time>2026-09-01T07:21:10.000Z</time>
        <extensions>
          <ns3:TrackPointExtension>
            <ns3:hr>154</ns3:hr>
            <ns3:cad>0</ns3:cad>
          </ns3:TrackPointExtension>
        </extensions>
      </trkpt>
      <trkpt lat="47.5515963323414325714111328125" lon="11.010897494852542877197265625">
        <ele>1779</ele>
        <time>2026-09-01T07:21:11.000Z</time>
        <extensions>
          <ns3:TrackPointExtension>
            <ns3:hr>154</ns3:hr>
            <ns3:cad>0</ns3:cad>
          </ns3:TrackPointExtension>
        </extensions>
      </trkpt>
      <trkpt lat="47.55159155465662479400634765625" lon="11.01090210489928722381591796875">
        <ele>1779.199951171875</ele>
        <time>2026-09-01T07:21:12.000Z</time>
        <extensions>
          <ns3:TrackPointExtension>
            <ns3:hr>154</ns3:hr>
            <ns3:cad>0</ns3:cad>
          </ns3:TrackPointExtension>
        </extensions>
      </trkpt>
      <trkpt lat="47.55158904008567333221435546875" lon="11.01090948097407817840576171875">
        <ele>1779.5999755859375</ele>
        <time>2026-09-01T07:21:13.000Z</time>
        <extensions>
          <ns3:TrackPointExtension>
            <ns3:hr>154</ns3:hr>
            <ns3:cad>0</ns3:cad>
          </ns3:TrackPointExtension>
        </extensions>
      </trkpt>
      <trkpt lat="47.55158987827599048614501953125" lon="11.0109107382595539093017578125">
        <ele>1779.800048828125</ele>
        <time>2026-09-01T07:21:14.000Z</time>
        <extensions>
          <ns3:TrackPointExtension>
            <ns3:hr>154</ns3:hr>
            <ns3:cad>0</ns3:cad>
          </ns3:TrackPointExtension>
        </extensions>
      </trkpt>
      <trkpt lat="47.5515869446098804473876953125" lon="11.01091316901147365570068359375">
        <ele>1780.199951171875</ele>
        <time>2026-09-01T07:21:15.000Z</time>
        <extensions>
          <ns3:TrackPointExtension>
            <ns3:hr>153</ns3:hr>
            <ns3:cad>0</ns3:cad>
          </ns3:TrackPointExtension>
        </extensions>
      </trkpt>
      <trkpt lat="47.5515819154679775238037109375" lon="11.0109124146401882171630859375">
        <ele>1780.5999755859375</ele>
        <time>2026-09-01T07:21:16.000Z</time>
        <extensions>
          <ns3:TrackPointExtension>
            <ns3:hr>153</ns3:hr>
            <ns3:cad>0</ns3:cad>
          </ns3:TrackPointExtension>
        </extensions>
      </trkpt>
      <trkpt lat="47.55157940089702606201171875" lon="11.0109147615730762481689453125">
        <ele>1781</ele>
        <time>2026-09-01T07:21:17.000Z</time>
        <extensions>
          <ns3:TrackPointExtension>
            <ns3:hr>153</ns3:hr>
            <ns3:cad>0</ns3:cad>
          </ns3:TrackPointExtension>
        </extensions>
      </trkpt>
      <trkpt lat="47.55157931707799434661865234375" lon="11.010915935039520263671875">
        <ele>1781.4000244140625</ele>
        <time>2026-09-01T07:21:18.000Z</time>
        <extensions>
          <ns3:TrackPointExtension>
            <ns3:hr>153</ns3:hr>
            <ns3:cad>0</ns3:cad>
          </ns3:TrackPointExtension>
        </extensions>
      </trkpt>
      <trkpt lat="47.5515715219080448150634765625" lon="11.01091551594436168670654296875">
        <ele>1781.800048828125</ele>
        <time>2026-09-01T07:21:19.000Z</time>
        <extensions>
          <ns3:TrackPointExtension>
            <ns3:hr>153</ns3:hr>
            <ns3:cad>0</ns3:cad>
          </ns3:TrackPointExtension>
        </extensions>
      </trkpt>
      <trkpt lat="47.55157177336513996124267578125" lon="11.01092071272432804107666015625">
        <ele>1782.199951171875</ele>
        <time>2026-09-01T07:21:20.000Z</time>
        <extensions>
          <ns3:TrackPointExtension>
            <ns3:hr>153</ns3:hr>
            <ns3:cad>0</ns3:cad>
          </ns3:TrackPointExtension>
        </extensions>
      </trkpt>
      <trkpt lat="47.55156942643225193023681640625" lon="11.0109211318194866180419921875">
        <ele>1782.5999755859375</ele>
        <time>2026-09-01T07:21:21.000Z</time>
        <extensions>
          <ns3:TrackPointExtension>
            <ns3:hr>152</ns3:hr>
            <ns3:cad>0</ns3:cad>
          </ns3:TrackPointExtension>
        </extensions>
      </trkpt>
      <trkpt lat="47.55156255327165126800537109375" lon="11.0109221376478672027587890625">
        <ele>1783.199951171875</ele>
        <time>2026-09-01T07:21:22.000Z</time>
        <extensions>
          <ns3:TrackPointExtension>
            <ns3:hr>152</ns3:hr>
            <ns3:cad>0</ns3:cad>
          </ns3:TrackPointExtension>
        </extensions>
      </trkpt>
      <trkpt lat="47.551553249359130859375" lon="11.01092088036239147186279296875">
        <ele>1783.5999755859375</ele>
        <time>2026-09-01T07:21:23.000Z</time>
        <extensions>
          <ns3:TrackPointExtension>
            <ns3:hr>151</ns3:hr>
            <ns3:cad>0</ns3:cad>
          </ns3:TrackPointExtension>
        </extensions>
      </trkpt>
      <trkpt lat="47.55155014805495738983154296875" lon="11.0109224729239940643310546875">
        <ele>1784</ele>
        <time>2026-09-01T07:21:24.000Z</time>
        <extensions>
          <ns3:TrackPointExtension>
            <ns3:hr>151</ns3:hr>
            <ns3:cad>0</ns3:cad>
          </ns3:TrackPointExtension>
        </extensions>
      </trkpt>
      <trkpt lat="47.551548220217227935791015625" lon="11.01092054508626461029052734375">
        <ele>1784.199951171875</ele>
        <time>2026-09-01T07:21:25.000Z</time>
        <extensions>
          <ns3:TrackPointExtension>
            <ns3:hr>151</ns3:hr>
            <ns3:cad>0</ns3:cad>
          </ns3:TrackPointExtension>
        </extensions>
      </trkpt>
      <trkpt lat="47.55153589881956577301025390625" lon="11.010921634733676910400390625">
        <ele>1784.800048828125</ele>
        <time>2026-09-01T07:21:26.000Z</time>
        <extensions>
          <ns3:TrackPointExtension>
            <ns3:hr>150</ns3:hr>
            <ns3:cad>0</ns3:cad>
          </ns3:TrackPointExtension>
        </extensions>
      </trkpt>
      <trkpt lat="47.55153070203959941864013671875" lon="11.01092054508626461029052734375">
        <ele>1785</ele>
        <time>2026-09-01T07:21:27.000Z</time>
        <extensions>
          <ns3:TrackPointExtension>
            <ns3:hr>151</ns3:hr>
            <ns3:cad>0</ns3:cad>
          </ns3:TrackPointExtension>
        </extensions>
      </trkpt>
      <trkpt lat="47.55153237842023372650146484375" lon="11.01092406548559665679931640625">
        <ele>1785.199951171875</ele>
        <time>2026-09-01T07:21:28.000Z</time>
        <extensions>
          <ns3:TrackPointExtension>
            <ns3:hr>150</ns3:hr>
            <ns3:cad>0</ns3:cad>
          </ns3:TrackPointExtension>
        </extensions>
      </trkpt>
      <trkpt lat="47.55152550525963306427001953125" lon="11.010918281972408294677734375">
        <ele>1785.4000244140625</ele>
        <time>2026-09-01T07:21:29.000Z</time>
        <extensions>
          <ns3:TrackPointExtension>
            <ns3:hr>151</ns3:hr>
            <ns3:cad>0</ns3:cad>
          </ns3:TrackPointExtension>
        </extensions>
      </trkpt>
      <trkpt lat="47.551519386470317840576171875" lon="11.01091383956372737884521484375">
        <ele>1785.4000244140625</ele>
        <time>2026-09-01T07:21:30.000Z</time>
        <extensions>
          <ns3:TrackPointExtension>
            <ns3:hr>151</ns3:hr>
            <ns3:cad>0</ns3:cad>
          </ns3:TrackPointExtension>
        </extensions>
      </trkpt>
      <trkpt lat="47.55151779390871524810791015625" lon="11.01090252399444580078125">
        <ele>1785.5999755859375</ele>
        <time>2026-09-01T07:21:31.000Z</time>
        <extensions>
          <ns3:TrackPointExtension>
            <ns3:hr>151</ns3:hr>
            <ns3:cad>0</ns3:cad>
          </ns3:TrackPointExtension>
        </extensions>
      </trkpt>
      <trkpt lat="47.5515131838619709014892578125" lon="11.01089120842516422271728515625">
        <ele>1785.800048828125</ele>
        <time>2026-09-01T07:21:32.000Z</time>
        <extensions>
          <ns3:TrackPointExtension>
            <ns3:hr>151</ns3:hr>
            <ns3:cad>0</ns3:cad>
          </ns3:TrackPointExtension>
        </extensions>
      </trkpt>
      <trkpt lat="47.55151569843292236328125" lon="11.01088735274970531463623046875">
        <ele>1786.4000244140625</ele>
        <time>2026-09-01T07:21:33.000Z</time>
        <extensions>
          <ns3:TrackPointExtension>
            <ns3:hr>152</ns3:hr>
            <ns3:cad>0</ns3:cad>
          </ns3:TrackPointExtension>
        </extensions>
      </trkpt>
      <trkpt lat="47.5515175424516201019287109375" lon="11.01088332943618297576904296875">
        <ele>1787</ele>
        <time>2026-09-01T07:21:34.000Z</time>
        <extensions>
          <ns3:TrackPointExtension>
            <ns3:hr>152</ns3:hr>
            <ns3:cad>0</ns3:cad>
          </ns3:TrackPointExtension>
        </extensions>
      </trkpt>
      <trkpt lat="47.55152148194611072540283203125" lon="11.01088617928326129913330078125">
        <ele>1787.800048828125</ele>
        <time>2026-09-01T07:21:35.000Z</time>
        <extensions>
          <ns3:TrackPointExtension>
            <ns3:hr>152</ns3:hr>
            <ns3:cad>0</ns3:cad>
          </ns3:TrackPointExtension>
        </extensions>
      </trkpt>
      <trkpt lat="47.55152081139385700225830078125" lon="11.01088441908359527587890625">
        <ele>1788.199951171875</ele>
        <time>2026-09-01T07:21:36.000Z</time>
        <extensions>
          <ns3:TrackPointExtension>
            <ns3:hr>152</ns3:hr>
            <ns3:cad>0</ns3:cad>
          </ns3:TrackPointExtension>
        </extensions>
      </trkpt>
      <trkpt lat="47.551520727574825286865234375" lon="11.01087796501815319061279296875">
        <ele>1788.5999755859375</ele>
        <time>2026-09-01T07:21:37.000Z</time>
        <extensions>
          <ns3:TrackPointExtension>
            <ns3:hr>153</ns3:hr>
            <ns3:cad>0</ns3:cad>
          </ns3:TrackPointExtension>
        </extensions>
      </trkpt>
      <trkpt lat="47.55151678808033466339111328125" lon="11.0108705051243305206298828125">
        <ele>1789</ele>
        <time>2026-09-01T07:21:38.000Z</time>
        <extensions>
          <ns3:TrackPointExtension>
            <ns3:hr>154</ns3:hr>
            <ns3:cad>0</ns3:cad>
          </ns3:TrackPointExtension>
        </extensions>
      </trkpt>
      <trkpt lat="47.55151100456714630126953125" lon="11.01086857728660106658935546875">
        <ele>1789.199951171875</ele>
        <time>2026-09-01T07:21:39.000Z</time>
        <extensions>
          <ns3:TrackPointExtension>
            <ns3:hr>155</ns3:hr>
            <ns3:cad>0</ns3:cad>
          </ns3:TrackPointExtension>
        </extensions>
      </trkpt>
      <trkpt lat="47.55150203593075275421142578125" lon="11.01086891256272792816162109375">
        <ele>1789.4000244140625</ele>
        <time>2026-09-01T07:21:40.000Z</time>
        <extensions>
          <ns3:TrackPointExtension>
            <ns3:hr>156</ns3:hr>
            <ns3:cad>0</ns3:cad>
          </ns3:TrackPointExtension>
        </extensions>
      </trkpt>
      <trkpt lat="47.55149767734110355377197265625" lon="11.01086958311498165130615234375">
        <ele>1789.800048828125</ele>
        <time>2026-09-01T07:21:41.000Z</time>
        <extensions>
          <ns3:TrackPointExtension>
            <ns3:hr>157</ns3:hr>
            <ns3:cad>0</ns3:cad>
          </ns3:TrackPointExtension>
        </extensions>
      </trkpt>
      <trkpt lat="47.5514944083988666534423828125" lon="11.01087075658142566680908203125">
        <ele>1790.199951171875</ele>
        <time>2026-09-01T07:21:42.000Z</time>
        <extensions>
          <ns3:TrackPointExtension>
            <ns3:hr>158</ns3:hr>
            <ns3:cad>0</ns3:cad>
          </ns3:TrackPointExtension>
        </extensions>
      </trkpt>
      <trkpt lat="47.5514930672943592071533203125" lon="11.01088031195104122161865234375">
        <ele>1790.199951171875</ele>
        <time>2026-09-01T07:21:43.000Z</time>
        <extensions>
          <ns3:TrackPointExtension>
            <ns3:hr>159</ns3:hr>
            <ns3:cad>0</ns3:cad>
          </ns3:TrackPointExtension>
        </extensions>
      </trkpt>
      <trkpt lat="47.55149113945662975311279296875" lon="11.010883748531341552734375">
        <ele>1790.4000244140625</ele>
        <time>2026-09-01T07:21:44.000Z</time>
        <extensions>
          <ns3:TrackPointExtension>
            <ns3:hr>159</ns3:hr>
            <ns3:cad>0</ns3:cad>
          </ns3:TrackPointExtension>
        </extensions>
      </trkpt>
      <trkpt lat="47.55148845724761486053466796875" lon="11.01089037023484706878662109375">
        <ele>1790.5999755859375</ele>
        <time>2026-09-01T07:21:45.000Z</time>
        <extensions>
          <ns3:TrackPointExtension>
            <ns3:hr>159</ns3:hr>
            <ns3:cad>0</ns3:cad>
          </ns3:TrackPointExtension>
        </extensions>
      </trkpt>
      <trkpt lat="47.5514823384582996368408203125" lon="11.01089087314903736114501953125">
        <ele>1790.800048828125</ele>
        <time>2026-09-01T07:21:46.000Z</time>
        <extensions>
          <ns3:TrackPointExtension>
            <ns3:hr>159</ns3:hr>
            <ns3:cad>0</ns3:cad>
          </ns3:TrackPointExtension>
        </extensions>
      </trkpt>
      <trkpt lat="47.55147756077349185943603515625" lon="11.01089590229094028472900390625">
        <ele>1791.199951171875</ele>
        <time>2026-09-01T07:21:47.000Z</time>
        <extensions>
          <ns3:TrackPointExtension>
            <ns3:hr>159</ns3:hr>
            <ns3:cad>0</ns3:cad>
          </ns3:TrackPointExtension>
        </extensions>
      </trkpt>
      <trkpt lat="47.55147018469870090484619140625" lon="11.01090109907090663909912109375">
        <ele>1791.5999755859375</ele>
        <time>2026-09-01T07:21:48.000Z</time>
        <extensions>
          <ns3:TrackPointExtension>
            <ns3:hr>158</ns3:hr>
            <ns3:cad>0</ns3:cad>
          </ns3:TrackPointExtension>
        </extensions>
      </trkpt>
      <trkpt lat="47.55146917887032032012939453125" lon="11.01090453565120697021484375">
        <ele>1791.800048828125</ele>
        <time>2026-09-01T07:21:49.000Z</time>
        <extensions>
          <ns3:TrackPointExtension>
            <ns3:hr>158</ns3:hr>
            <ns3:cad>0</ns3:cad>
          </ns3:TrackPointExtension>
        </extensions>
      </trkpt>
      <trkpt lat="47.5514719448983669281005859375" lon="11.0109043680131435394287109375">
        <ele>1792</ele>
        <time>2026-09-01T07:21:50.000Z</time>
        <extensions>
          <ns3:TrackPointExtension>
            <ns3:hr>158</ns3:hr>
            <ns3:cad>0</ns3:cad>
          </ns3:TrackPointExtension>
        </extensions>
      </trkpt>
      <trkpt lat="47.55146649666130542755126953125" lon="11.01090109907090663909912109375">
        <ele>1792</ele>
        <time>2026-09-01T07:21:51.000Z</time>
        <extensions>
          <ns3:TrackPointExtension>
            <ns3:hr>158</ns3:hr>
            <ns3:cad>0</ns3:cad>
          </ns3:TrackPointExtension>
        </extensions>
      </trkpt>
      <trkpt lat="47.55146129988133907318115234375" lon="11.010896824300289154052734375">
        <ele>1792.199951171875</ele>
        <time>2026-09-01T07:21:52.000Z</time>
        <extensions>
          <ns3:TrackPointExtension>
            <ns3:hr>158</ns3:hr>
            <ns3:cad>0</ns3:cad>
          </ns3:TrackPointExtension>
        </extensions>
      </trkpt>
      <trkpt lat="47.55145627073943614959716796875" lon="11.01089757867157459259033203125">
        <ele>1792.199951171875</ele>
        <time>2026-09-01T07:21:53.000Z</time>
        <extensions>
          <ns3:TrackPointExtension>
            <ns3:hr>158</ns3:hr>
            <ns3:cad>0</ns3:cad>
          </ns3:TrackPointExtension>
        </extensions>
      </trkpt>
      <trkpt lat="47.5514508225023746490478515625" lon="11.0108899511396884918212890625">
        <ele>1792.4000244140625</ele>
        <time>2026-09-01T07:21:54.000Z</time>
        <extensions>
          <ns3:TrackPointExtension>
            <ns3:hr>159</ns3:hr>
            <ns3:cad>0</ns3:cad>
          </ns3:TrackPointExtension>
        </extensions>
      </trkpt>
      <trkpt lat="47.55144084803760051727294921875" lon="11.01088265888392925262451171875">
        <ele>1792.5999755859375</ele>
        <time>2026-09-01T07:21:55.000Z</time>
        <extensions>
          <ns3:TrackPointExtension>
            <ns3:hr>159</ns3:hr>
            <ns3:cad>0</ns3:cad>
          </ns3:TrackPointExtension>
        </extensions>
      </trkpt>
      <trkpt lat="47.551443278789520263671875" lon="11.01087997667491436004638671875">
        <ele>1792.800048828125</ele>
        <time>2026-09-01T07:21:56.000Z</time>
        <extensions>
          <ns3:TrackPointExtension>
            <ns3:hr>160</ns3:hr>
            <ns3:cad>0</ns3:cad>
          </ns3:TrackPointExtension>
        </extensions>
      </trkpt>
      <trkpt lat="47.55143313668668270111083984375" lon="11.0108701698482036590576171875">
        <ele>1792.800048828125</ele>
        <time>2026-09-01T07:21:57.000Z</time>
        <extensions>
          <ns3:TrackPointExtension>
            <ns3:hr>159</ns3:hr>
            <ns3:cad>0</ns3:cad>
          </ns3:TrackPointExtension>
        </extensions>
      </trkpt>
      <trkpt lat="47.5514273531734943389892578125" lon="11.01086321286857128143310546875">
        <ele>1793.199951171875</ele>
        <time>2026-09-01T07:21:58.000Z</time>
        <extensions>
          <ns3:TrackPointExtension>
            <ns3:hr>159</ns3:hr>
            <ns3:cad>0</ns3:cad>
          </ns3:TrackPointExtension>
        </extensions>
      </trkpt>
      <trkpt lat="47.551424503326416015625" lon="11.01086103357374668121337890625">
        <ele>1793.4000244140625</ele>
        <time>2026-09-01T07:21:59.000Z</time>
        <extensions>
          <ns3:TrackPointExtension>
            <ns3:hr>159</ns3:hr>
            <ns3:cad>0</ns3:cad>
          </ns3:TrackPointExtension>
        </extensions>
      </trkpt>
      <trkpt lat="47.55141955800354480743408203125" lon="11.01085483096539974212646484375">
        <ele>1793.800048828125</ele>
        <time>2026-09-01T07:22:00.000Z</time>
        <extensions>
          <ns3:TrackPointExtension>
            <ns3:hr>160</ns3:hr>
            <ns3:cad>0</ns3:cad>
          </ns3:TrackPointExtension>
        </extensions>
      </trkpt>
      <trkpt lat="47.55140631459653377532958984375" lon="11.0108443535864353179931640625">
        <ele>1794.199951171875</ele>
        <time>2026-09-01T07:22:01.000Z</time>
        <extensions>
          <ns3:TrackPointExtension>
            <ns3:hr>161</ns3:hr>
            <ns3:cad>0</ns3:cad>
          </ns3:TrackPointExtension>
        </extensions>
      </trkpt>
      <trkpt lat="47.55139566957950592041015625" lon="11.01085223257541656494140625">
        <ele>1794.5999755859375</ele>
        <time>2026-09-01T07:22:02.000Z</time>
        <extensions>
          <ns3:TrackPointExtension>
            <ns3:hr>162</ns3:hr>
            <ns3:cad>0</ns3:cad>
          </ns3:TrackPointExtension>
        </extensions>
      </trkpt>
      <trkpt lat="47.551388628780841827392578125" lon="11.01085357367992401123046875">
        <ele>1794.800048828125</ele>
        <time>2026-09-01T07:22:03.000Z</time>
        <extensions>
          <ns3:TrackPointExtension>
            <ns3:hr>162</ns3:hr>
            <ns3:cad>0</ns3:cad>
          </ns3:TrackPointExtension>
        </extensions>
      </trkpt>
      <trkpt lat="47.55138167180120944976806640625" lon="11.01085600443184375762939453125">
        <ele>1794.800048828125</ele>
        <time>2026-09-01T07:22:04.000Z</time>
        <extensions>
          <ns3:TrackPointExtension>
            <ns3:hr>162</ns3:hr>
            <ns3:cad>0</ns3:cad>
          </ns3:TrackPointExtension>
        </extensions>
      </trkpt>
      <trkpt lat="47.5513737089931964874267578125" lon="11.0108668170869350433349609375">
        <ele>1795</ele>
        <time>2026-09-01T07:22:05.000Z</time>
        <extensions>
          <ns3:TrackPointExtension>
            <ns3:hr>162</ns3:hr>
            <ns3:cad>0</ns3:cad>
          </ns3:TrackPointExtension>
        </extensions>
      </trkpt>
      <trkpt lat="47.55137010477483272552490234375" lon="11.01087477989494800567626953125">
        <ele>1795.199951171875</ele>
        <time>2026-09-01T07:22:06.000Z</time>
        <extensions>
          <ns3:TrackPointExtension>
            <ns3:hr>163</ns3:hr>
            <ns3:cad>0</ns3:cad>
          </ns3:TrackPointExtension>
        </extensions>
      </trkpt>
      <trkpt lat="47.551367171108722686767578125" lon="11.0108850896358489990234375">
        <ele>1795.4000244140625</ele>
        <time>2026-09-01T07:22:07.000Z</time>
        <extensions>
          <ns3:TrackPointExtension>
            <ns3:hr>163</ns3:hr>
            <ns3:cad>0</ns3:cad>
          </ns3:TrackPointExtension>
        </extensions>
      </trkpt>
      <trkpt lat="47.5513673387467861175537109375" lon="11.01089590229094028472900390625">
        <ele>1795.5999755859375</ele>
        <time>2026-09-01T07:22:08.000Z</time>
        <extensions>
          <ns3:TrackPointExtension>
            <ns3:hr>163</ns3:hr>
            <ns3:cad>0</ns3:cad>
          </ns3:TrackPointExtension>
        </extensions>
      </trkpt>
      <trkpt lat="47.55136541090905666351318359375" lon="11.0109040327370166778564453125">
        <ele>1795.800048828125</ele>
        <time>2026-09-01T07:22:09.000Z</time>
        <extensions>
          <ns3:TrackPointExtension>
            <ns3:hr>164</ns3:hr>
            <ns3:cad>0</ns3:cad>
          </ns3:TrackPointExtension>
        </extensions>
      </trkpt>
      <trkpt lat="47.55136222578585147857666015625" lon="11.01090721786022186279296875">
        <ele>1796</ele>
        <time>2026-09-01T07:22:10.000Z</time>
        <extensions>
          <ns3:TrackPointExtension>
            <ns3:hr>164</ns3:hr>
            <ns3:cad>0</ns3:cad>
          </ns3:TrackPointExtension>
        </extensions>
      </trkpt>
      <trkpt lat="47.551361806690692901611328125" lon="11.01091082207858562469482421875">
        <ele>1795.800048828125</ele>
        <time>2026-09-01T07:22:11.000Z</time>
        <extensions>
          <ns3:TrackPointExtension>
            <ns3:hr>164</ns3:hr>
            <ns3:cad>0</ns3:cad>
          </ns3:TrackPointExtension>
        </extensions>
      </trkpt>
      <trkpt lat="47.55135350860655307769775390625" lon="11.010902859270572662353515625">
        <ele>1795.800048828125</ele>
        <time>2026-09-01T07:22:12.000Z</time>
        <extensions>
          <ns3:TrackPointExtension>
            <ns3:hr>164</ns3:hr>
            <ns3:cad>0</ns3:cad>
          </ns3:TrackPointExtension>
        </extensions>
      </trkpt>
      <trkpt lat="47.55134797655045986175537109375" lon="11.01089514791965484619140625">
        <ele>1796.199951171875</ele>
        <time>2026-09-01T07:22:13.000Z</time>
        <extensions>
          <ns3:TrackPointExtension>
            <ns3:hr>164</ns3:hr>
            <ns3:cad>0</ns3:cad>
          </ns3:TrackPointExtension>
        </extensions>
      </trkpt>
      <trkpt lat="47.55134361796081066131591796875" lon="11.010895483195781707763671875">
        <ele>1796.4000244140625</ele>
        <time>2026-09-01T07:22:14.000Z</time>
        <extensions>
          <ns3:TrackPointExtension>
            <ns3:hr>164</ns3:hr>
            <ns3:cad>0</ns3:cad>
          </ns3:TrackPointExtension>
        </extensions>
      </trkpt>
      <trkpt lat="47.55133423022925853729248046875" lon="11.01089254952967166900634765625">
        <ele>1796.5999755859375</ele>
        <time>2026-09-01T07:22:15.000Z</time>
        <extensions>
          <ns3:TrackPointExtension>
            <ns3:hr>164</ns3:hr>
            <ns3:cad>0</ns3:cad>
          </ns3:TrackPointExtension>
        </extensions>
      </trkpt>
      <trkpt lat="47.55132920108735561370849609375" lon="11.01089422591030597686767578125">
        <ele>1797.199951171875</ele>
        <time>2026-09-01T07:22:16.000Z</time>
        <extensions>
          <ns3:TrackPointExtension>
            <ns3:hr>163</ns3:hr>
            <ns3:cad>0</ns3:cad>
          </ns3:TrackPointExtension>
        </extensions>
      </trkpt>
      <trkpt lat="47.5513304583728313446044921875" lon="11.0108953155577182769775390625">
        <ele>1797.5999755859375</ele>
        <time>2026-09-01T07:22:17.000Z</time>
        <extensions>
          <ns3:TrackPointExtension>
            <ns3:hr>163</ns3:hr>
            <ns3:cad>0</ns3:cad>
          </ns3:TrackPointExtension>
        </extensions>
      </trkpt>
      <trkpt lat="47.551329620182514190673828125" lon="11.010890789330005645751953125">
        <ele>1797.800048828125</ele>
        <time>2026-09-01T07:22:18.000Z</time>
        <extensions>
          <ns3:TrackPointExtension>
            <ns3:hr>163</ns3:hr>
            <ns3:cad>0</ns3:cad>
          </ns3:TrackPointExtension>
        </extensions>
      </trkpt>
      <trkpt lat="47.551327608525753021240234375" lon="11.0108775459229946136474609375">
        <ele>1798</ele>
        <time>2026-09-01T07:22:19.000Z</time>
        <extensions>
          <ns3:TrackPointExtension>
            <ns3:hr>163</ns3:hr>
            <ns3:cad>0</ns3:cad>
          </ns3:TrackPointExtension>
        </extensions>
      </trkpt>
      <trkpt lat="47.551320903003215789794921875" lon="11.01087461225688457489013671875">
        <ele>1798.199951171875</ele>
        <time>2026-09-01T07:22:20.000Z</time>
        <extensions>
          <ns3:TrackPointExtension>
            <ns3:hr>163</ns3:hr>
            <ns3:cad>0</ns3:cad>
          </ns3:TrackPointExtension>
        </extensions>
      </trkpt>
      <trkpt lat="47.55131662823259830474853515625" lon="11.01086639799177646636962890625">
        <ele>1798.199951171875</ele>
        <time>2026-09-01T07:22:21.000Z</time>
        <extensions>
          <ns3:TrackPointExtension>
            <ns3:hr>162</ns3:hr>
            <ns3:cad>0</ns3:cad>
          </ns3:TrackPointExtension>
        </extensions>
      </trkpt>
      <trkpt lat="47.5513049773871898651123046875" lon="11.01086270995438098907470703125">
        <ele>1798.4000244140625</ele>
        <time>2026-09-01T07:22:22.000Z</time>
        <extensions>
          <ns3:TrackPointExtension>
            <ns3:hr>161</ns3:hr>
            <ns3:cad>0</ns3:cad>
          </ns3:TrackPointExtension>
        </extensions>
      </trkpt>
      <trkpt lat="47.551303803920745849609375" lon="11.01087260060012340545654296875">
        <ele>1798.800048828125</ele>
        <time>2026-09-01T07:22:23.000Z</time>
        <extensions>
          <ns3:TrackPointExtension>
            <ns3:hr>161</ns3:hr>
            <ns3:cad>0</ns3:cad>
          </ns3:TrackPointExtension>
        </extensions>
      </trkpt>
      <trkpt lat="47.55130053497850894927978515625" lon="11.010878384113311767578125">
        <ele>1799.199951171875</ele>
        <time>2026-09-01T07:22:24.000Z</time>
        <extensions>
          <ns3:TrackPointExtension>
            <ns3:hr>160</ns3:hr>
            <ns3:cad>0</ns3:cad>
          </ns3:TrackPointExtension>
        </extensions>
      </trkpt>
      <trkpt lat="47.55129399709403514862060546875" lon="11.0108842514455318450927734375">
        <ele>1799.5999755859375</ele>
        <time>2026-09-01T07:22:25.000Z</time>
        <extensions>
          <ns3:TrackPointExtension>
            <ns3:hr>159</ns3:hr>
            <ns3:cad>0</ns3:cad>
          </ns3:TrackPointExtension>
        </extensions>
      </trkpt>
      <trkpt lat="47.55129299126565456390380859375" lon="11.01088483817875385284423828125">
        <ele>1800</ele>
        <time>2026-09-01T07:22:26.000Z</time>
        <extensions>
          <ns3:TrackPointExtension>
            <ns3:hr>159</ns3:hr>
            <ns3:cad>0</ns3:cad>
          </ns3:TrackPointExtension>
        </extensions>
      </trkpt>
      <trkpt lat="47.5512898899614810943603515625" lon="11.010875366628170013427734375">
        <ele>1800.199951171875</ele>
        <time>2026-09-01T07:22:27.000Z</time>
        <extensions>
          <ns3:TrackPointExtension>
            <ns3:hr>158</ns3:hr>
            <ns3:cad>0</ns3:cad>
          </ns3:TrackPointExtension>
        </extensions>
      </trkpt>
      <trkpt lat="47.5512835197150707244873046875" lon="11.01086773909628391265869140625">
        <ele>1800.5999755859375</ele>
        <time>2026-09-01T07:22:28.000Z</time>
        <extensions>
          <ns3:TrackPointExtension>
            <ns3:hr>158</ns3:hr>
            <ns3:cad>0</ns3:cad>
          </ns3:TrackPointExtension>
        </extensions>
      </trkpt>
      <trkpt lat="47.5512821786105632781982421875" lon="11.01086757145822048187255859375">
        <ele>1800.800048828125</ele>
        <time>2026-09-01T07:22:29.000Z</time>
        <extensions>
          <ns3:TrackPointExtension>
            <ns3:hr>157</ns3:hr>
            <ns3:cad>0</ns3:cad>
          </ns3:TrackPointExtension>
        </extensions>
      </trkpt>
      <trkpt lat="47.5512821786105632781982421875" lon="11.01086564362049102783203125">
        <ele>1801</ele>
        <time>2026-09-01T07:22:30.000Z</time>
        <extensions>
          <ns3:TrackPointExtension>
            <ns3:hr>157</ns3:hr>
            <ns3:cad>0</ns3:cad>
          </ns3:TrackPointExtension>
        </extensions>
      </trkpt>
      <trkpt lat="47.551274634897708892822265625" lon="11.01086807437241077423095703125">
        <ele>1801.4000244140625</ele>
        <time>2026-09-01T07:22:31.000Z</time>
        <extensions>
          <ns3:TrackPointExtension>
            <ns3:hr>157</ns3:hr>
            <ns3:cad>0</ns3:cad>
          </ns3:TrackPointExtension>
        </extensions>
      </trkpt>
      <trkpt lat="47.55127522163093090057373046875" lon="11.01086807437241077423095703125">
        <ele>1801.5999755859375</ele>
        <time>2026-09-01T07:22:32.000Z</time>
        <extensions>
          <ns3:TrackPointExtension>
            <ns3:hr>156</ns3:hr>
            <ns3:cad>0</ns3:cad>
          </ns3:TrackPointExtension>
        </extensions>
      </trkpt>
      <trkpt lat="47.55126893520355224609375" lon="11.0108674876391887664794921875">
        <ele>1802</ele>
        <time>2026-09-01T07:22:33.000Z</time>
        <extensions>
          <ns3:TrackPointExtension>
            <ns3:hr>156</ns3:hr>
            <ns3:cad>0</ns3:cad>
          </ns3:TrackPointExtension>
        </extensions>
      </trkpt>
      <trkpt lat="47.55126851610839366912841796875" lon="11.01086690090596675872802734375">
        <ele>1802.199951171875</ele>
        <time>2026-09-01T07:22:34.000Z</time>
        <extensions>
          <ns3:TrackPointExtension>
            <ns3:hr>156</ns3:hr>
            <ns3:cad>0</ns3:cad>
          </ns3:TrackPointExtension>
        </extensions>
      </trkpt>
      <trkpt lat="47.55126424133777618408203125" lon="11.0108609497547149658203125">
        <ele>1802.4000244140625</ele>
        <time>2026-09-01T07:22:35.000Z</time>
        <extensions>
          <ns3:TrackPointExtension>
            <ns3:hr>156</ns3:hr>
            <ns3:cad>0</ns3:cad>
          </ns3:TrackPointExtension>
        </extensions>
      </trkpt>
      <trkpt lat="47.5512660853564739227294921875" lon="11.0108527354896068572998046875">
        <ele>1802.5999755859375</ele>
        <time>2026-09-01T07:22:36.000Z</time>
        <extensions>
          <ns3:TrackPointExtension>
            <ns3:hr>157</ns3:hr>
            <ns3:cad>0</ns3:cad>
          </ns3:TrackPointExtension>
        </extensions>
      </trkpt>
      <trkpt lat="47.5512630678713321685791015625" lon="11.01084309630095958709716796875">
        <ele>1802.5999755859375</ele>
        <time>2026-09-01T07:22:37.000Z</time>
        <extensions>
          <ns3:TrackPointExtension>
            <ns3:hr>157</ns3:hr>
            <ns3:cad>0</ns3:cad>
          </ns3:TrackPointExtension>
        </extensions>
      </trkpt>
      <trkpt lat="47.551261894404888153076171875" lon="11.0108448565006256103515625">
        <ele>1802.800048828125</ele>
        <time>2026-09-01T07:22:38.000Z</time>
        <extensions>
          <ns3:TrackPointExtension>
            <ns3:hr>158</ns3:hr>
            <ns3:cad>0</ns3:cad>
          </ns3:TrackPointExtension>
        </extensions>
      </trkpt>
      <trkpt lat="47.55125694908201694488525390625" lon="11.0108314454555511474609375">
        <ele>1802.800048828125</ele>
        <time>2026-09-01T07:22:39.000Z</time>
        <extensions>
          <ns3:TrackPointExtension>
            <ns3:hr>159</ns3:hr>
            <ns3:cad>0</ns3:cad>
          </ns3:TrackPointExtension>
        </extensions>
      </trkpt>
      <trkpt lat="47.55125359632074832916259765625" lon="11.01082943379878997802734375">
        <ele>1803.199951171875</ele>
        <time>2026-09-01T07:22:40.000Z</time>
        <extensions>
          <ns3:TrackPointExtension>
            <ns3:hr>161</ns3:hr>
            <ns3:cad>0</ns3:cad>
          </ns3:TrackPointExtension>
        </extensions>
      </trkpt>
      <trkpt lat="47.55124806426465511322021484375" lon="11.01082272827625274658203125">
        <ele>1803.4000244140625</ele>
        <time>2026-09-01T07:22:41.000Z</time>
        <extensions>
          <ns3:TrackPointExtension>
            <ns3:hr>164</ns3:hr>
            <ns3:cad>0</ns3:cad>
          </ns3:TrackPointExtension>
        </extensions>
      </trkpt>
      <trkpt lat="47.551241107285022735595703125" lon="11.0108202137053012847900390625">
        <ele>1803.800048828125</ele>
        <time>2026-09-01T07:22:42.000Z</time>
        <extensions>
          <ns3:TrackPointExtension>
            <ns3:hr>164</ns3:hr>
            <ns3:cad>0</ns3:cad>
          </ns3:TrackPointExtension>
        </extensions>
      </trkpt>
      <trkpt lat="47.55123616196215152740478515625" lon="11.01081669330596923828125">
        <ele>1804</ele>
        <time>2026-09-01T07:22:43.000Z</time>
        <extensions>
          <ns3:TrackPointExtension>
            <ns3:hr>164</ns3:hr>
            <ns3:cad>0</ns3:cad>
          </ns3:TrackPointExtension>
        </extensions>
      </trkpt>
      <trkpt lat="47.55123331211507320404052734375" lon="11.010815016925334930419921875">
        <ele>1804.199951171875</ele>
        <time>2026-09-01T07:22:44.000Z</time>
        <extensions>
          <ns3:TrackPointExtension>
            <ns3:hr>165</ns3:hr>
            <ns3:cad>40</ns3:cad>
          </ns3:TrackPointExtension>
        </extensions>
      </trkpt>
      <trkpt lat="47.55123046226799488067626953125" lon="11.0107977502048015594482421875">
        <ele>1804.4000244140625</ele>
        <time>2026-09-01T07:22:45.000Z</time>
        <extensions>
          <ns3:TrackPointExtension>
            <ns3:hr>165</ns3:hr>
            <ns3:cad>40</ns3:cad>
          </ns3:TrackPointExtension>
        </extensions>
      </trkpt>
      <trkpt lat="47.5512281991541385650634765625" lon="11.01079850457608699798583984375">
        <ele>1804.800048828125</ele>
        <time>2026-09-01T07:22:46.000Z</time>
        <extensions>
          <ns3:TrackPointExtension>
            <ns3:hr>165</ns3:hr>
            <ns3:cad>40</ns3:cad>
          </ns3:TrackPointExtension>
        </extensions>
      </trkpt>
      <trkpt lat="47.55122459493577480316162109375" lon="11.010795570909976959228515625">
        <ele>1805</ele>
        <time>2026-09-01T07:22:47.000Z</time>
        <extensions>
          <ns3:TrackPointExtension>
            <ns3:hr>165</ns3:hr>
            <ns3:cad>40</ns3:cad>
          </ns3:TrackPointExtension>
        </extensions>
      </trkpt>
      <trkpt lat="47.55122073926031589508056640625" lon="11.0107937268912792205810546875">
        <ele>1805.4000244140625</ele>
        <time>2026-09-01T07:22:48.000Z</time>
        <extensions>
          <ns3:TrackPointExtension>
            <ns3:hr>164</ns3:hr>
            <ns3:cad>0</ns3:cad>
          </ns3:TrackPointExtension>
        </extensions>
      </trkpt>
      <trkpt lat="47.55121906287968158721923828125" lon="11.0107947327196598052978515625">
        <ele>1805.800048828125</ele>
        <time>2026-09-01T07:22:49.000Z</time>
        <extensions>
          <ns3:TrackPointExtension>
            <ns3:hr>164</ns3:hr>
            <ns3:cad>0</ns3:cad>
          </ns3:TrackPointExtension>
        </extensions>
      </trkpt>
      <trkpt lat="47.55121336318552494049072265625" lon="11.01079548709094524383544921875">
        <ele>1806.4000244140625</ele>
        <time>2026-09-01T07:22:50.000Z</time>
        <extensions>
          <ns3:TrackPointExtension>
            <ns3:hr>164</ns3:hr>
            <ns3:cad>0</ns3:cad>
          </ns3:TrackPointExtension>
        </extensions>
      </trkpt>
      <trkpt lat="47.55121034570038318634033203125" lon="11.0107992589473724365234375">
        <ele>1806.5999755859375</ele>
        <time>2026-09-01T07:22:51.000Z</time>
        <extensions>
          <ns3:TrackPointExtension>
            <ns3:hr>163</ns3:hr>
            <ns3:cad>0</ns3:cad>
          </ns3:TrackPointExtension>
        </extensions>
      </trkpt>
      <trkpt lat="47.551204226911067962646484375" lon="11.01080604828894138336181640625">
        <ele>1807</ele>
        <time>2026-09-01T07:22:52.000Z</time>
        <extensions>
          <ns3:TrackPointExtension>
            <ns3:hr>163</ns3:hr>
            <ns3:cad>0</ns3:cad>
          </ns3:TrackPointExtension>
        </extensions>
      </trkpt>
      <trkpt lat="47.55119475536048412322998046875" lon="11.0108141787350177764892578125">
        <ele>1807.199951171875</ele>
        <time>2026-09-01T07:22:53.000Z</time>
        <extensions>
          <ns3:TrackPointExtension>
            <ns3:hr>163</ns3:hr>
            <ns3:cad>0</ns3:cad>
          </ns3:TrackPointExtension>
        </extensions>
      </trkpt>
      <trkpt lat="47.551188133656978607177734375" lon="11.01082272827625274658203125">
        <ele>1807.4000244140625</ele>
        <time>2026-09-01T07:22:54.000Z</time>
        <extensions>
          <ns3:TrackPointExtension>
            <ns3:hr>163</ns3:hr>
            <ns3:cad>0</ns3:cad>
          </ns3:TrackPointExtension>
        </extensions>
      </trkpt>
      <trkpt lat="47.5511826016008853912353515625" lon="11.01082918234169483184814453125">
        <ele>1807.5999755859375</ele>
        <time>2026-09-01T07:22:55.000Z</time>
        <extensions>
          <ns3:TrackPointExtension>
            <ns3:hr>162</ns3:hr>
            <ns3:cad>0</ns3:cad>
          </ns3:TrackPointExtension>
        </extensions>
      </trkpt>
      <trkpt lat="47.551180087029933929443359375" lon="11.01083069108426570892333984375">
        <ele>1807.5999755859375</ele>
        <time>2026-09-01T07:22:56.000Z</time>
        <extensions>
          <ns3:TrackPointExtension>
            <ns3:hr>163</ns3:hr>
            <ns3:cad>0</ns3:cad>
          </ns3:TrackPointExtension>
        </extensions>
      </trkpt>
      <trkpt lat="47.55117732100188732147216796875" lon="11.01082365028560161590576171875">
        <ele>1807.800048828125</ele>
        <time>2026-09-01T07:22:57.000Z</time>
        <extensions>
          <ns3:TrackPointExtension>
            <ns3:hr>163</ns3:hr>
            <ns3:cad>0</ns3:cad>
          </ns3:TrackPointExtension>
        </extensions>
      </trkpt>
      <trkpt lat="47.55117430351674556732177734375" lon="11.010819375514984130859375">
        <ele>1808</ele>
        <time>2026-09-01T07:22:58.000Z</time>
        <extensions>
          <ns3:TrackPointExtension>
            <ns3:hr>163</ns3:hr>
            <ns3:cad>0</ns3:cad>
          </ns3:TrackPointExtension>
        </extensions>
      </trkpt>
      <trkpt lat="47.55117933265864849090576171875" lon="11.0108178667724132537841796875">
        <ele>1808.4000244140625</ele>
        <time>2026-09-01T07:22:59.000Z</time>
        <extensions>
          <ns3:TrackPointExtension>
            <ns3:hr>163</ns3:hr>
            <ns3:cad>0</ns3:cad>
          </ns3:TrackPointExtension>
        </extensions>
      </trkpt>
      <trkpt lat="47.55117698572576045989990234375" lon="11.0107997618615627288818359375">
        <ele>1808.5999755859375</ele>
        <time>2026-09-01T07:23:00.000Z</time>
        <extensions>
          <ns3:TrackPointExtension>
            <ns3:hr>163</ns3:hr>
            <ns3:cad>70</ns3:cad>
          </ns3:TrackPointExtension>
        </extensions>
      </trkpt>
      <trkpt lat="47.5511691905558109283447265625" lon="11.01079062558710575103759765625">
        <ele>1809</ele>
        <time>2026-09-01T07:23:01.000Z</time>
        <extensions>
          <ns3:TrackPointExtension>
            <ns3:hr>163</ns3:hr>
            <ns3:cad>70</ns3:cad>
          </ns3:TrackPointExtension>
        </extensions>
      </trkpt>
      <trkpt lat="47.55116407759487628936767578125" lon="11.01078257896006107330322265625">
        <ele>1809.199951171875</ele>
        <time>2026-09-01T07:23:02.000Z</time>
        <extensions>
          <ns3:TrackPointExtension>
            <ns3:hr>162</ns3:hr>
            <ns3:cad>70</ns3:cad>
          </ns3:TrackPointExtension>
        </extensions>
      </trkpt>
      <trkpt lat="47.55116365849971771240234375" lon="11.01077847182750701904296875">
        <ele>1809.5999755859375</ele>
        <time>2026-09-01T07:23:03.000Z</time>
        <extensions>
          <ns3:TrackPointExtension>
            <ns3:hr>162</ns3:hr>
            <ns3:cad>0</ns3:cad>
          </ns3:TrackPointExtension>
        </extensions>
      </trkpt>
      <trkpt lat="47.551160641014575958251953125" lon="11.0107719339430332183837890625">
        <ele>1810</ele>
        <time>2026-09-01T07:23:04.000Z</time>
        <extensions>
          <ns3:TrackPointExtension>
            <ns3:hr>162</ns3:hr>
            <ns3:cad>0</ns3:cad>
          </ns3:TrackPointExtension>
        </extensions>
      </trkpt>
      <trkpt lat="47.5511621497571468353271484375" lon="11.01076816208660602569580078125">
        <ele>1810.4000244140625</ele>
        <time>2026-09-01T07:23:05.000Z</time>
        <extensions>
          <ns3:TrackPointExtension>
            <ns3:hr>162</ns3:hr>
            <ns3:cad>0</ns3:cad>
          </ns3:TrackPointExtension>
        </extensions>
      </trkpt>
      <trkpt lat="47.5511603057384490966796875" lon="11.0107595287263393402099609375">
        <ele>1810.5999755859375</ele>
        <time>2026-09-01T07:23:06.000Z</time>
        <extensions>
          <ns3:TrackPointExtension>
            <ns3:hr>161</ns3:hr>
            <ns3:cad>0</ns3:cad>
          </ns3:TrackPointExtension>
        </extensions>
      </trkpt>
      <trkpt lat="47.5511591322720050811767578125" lon="11.01074972189962863922119140625">
        <ele>1811</ele>
        <time>2026-09-01T07:23:07.000Z</time>
        <extensions>
          <ns3:TrackPointExtension>
            <ns3:hr>161</ns3:hr>
            <ns3:cad>0</ns3:cad>
          </ns3:TrackPointExtension>
        </extensions>
      </trkpt>
      <trkpt lat="47.551156617701053619384765625" lon="11.01074201054871082305908203125">
        <ele>1811.4000244140625</ele>
        <time>2026-09-01T07:23:08.000Z</time>
        <extensions>
          <ns3:TrackPointExtension>
            <ns3:hr>161</ns3:hr>
            <ns3:cad>0</ns3:cad>
          </ns3:TrackPointExtension>
        </extensions>
      </trkpt>
      <trkpt lat="47.5511527620255947113037109375" lon="11.01073765195906162261962890625">
        <ele>1811.5999755859375</ele>
        <time>2026-09-01T07:23:09.000Z</time>
        <extensions>
          <ns3:TrackPointExtension>
            <ns3:hr>161</ns3:hr>
            <ns3:cad>0</ns3:cad>
          </ns3:TrackPointExtension>
        </extensions>
      </trkpt>
      <trkpt lat="47.55114899016916751861572265625" lon="11.01073564030230045318603515625">
        <ele>1812</ele>
        <time>2026-09-01T07:23:10.000Z</time>
        <extensions>
          <ns3:TrackPointExtension>
            <ns3:hr>163</ns3:hr>
            <ns3:cad>0</ns3:cad>
          </ns3:TrackPointExtension>
        </extensions>
      </trkpt>
      <trkpt lat="47.55114488303661346435546875" lon="11.0107343830168247222900390625">
        <ele>1812.4000244140625</ele>
        <time>2026-09-01T07:23:11.000Z</time>
        <extensions>
          <ns3:TrackPointExtension>
            <ns3:hr>164</ns3:hr>
            <ns3:cad>0</ns3:cad>
          </ns3:TrackPointExtension>
        </extensions>
      </trkpt>
      <trkpt lat="47.5511396862566471099853515625" lon="11.01074335165321826934814453125">
        <ele>1812.800048828125</ele>
        <time>2026-09-01T07:23:12.000Z</time>
        <extensions>
          <ns3:TrackPointExtension>
            <ns3:hr>164</ns3:hr>
            <ns3:cad>0</ns3:cad>
          </ns3:TrackPointExtension>
        </extensions>
      </trkpt>
      <trkpt lat="47.55112770013511180877685546875" lon="11.0107487998902797698974609375">
        <ele>1813</ele>
        <time>2026-09-01T07:23:13.000Z</time>
        <extensions>
          <ns3:TrackPointExtension>
            <ns3:hr>165</ns3:hr>
            <ns3:cad>0</ns3:cad>
          </ns3:TrackPointExtension>
        </extensions>
      </trkpt>
      <trkpt lat="47.55112602375447750091552734375" lon="11.0107501409947872161865234375">
        <ele>1813.199951171875</ele>
        <time>2026-09-01T07:23:14.000Z</time>
        <extensions>
          <ns3:TrackPointExtension>
            <ns3:hr>165</ns3:hr>
            <ns3:cad>0</ns3:cad>
          </ns3:TrackPointExtension>
        </extensions>
      </trkpt>
      <trkpt lat="47.551124095916748046875" lon="11.01074771024286746978759765625">
        <ele>1813.4000244140625</ele>
        <time>2026-09-01T07:23:15.000Z</time>
        <extensions>
          <ns3:TrackPointExtension>
            <ns3:hr>165</ns3:hr>
            <ns3:cad>71</ns3:cad>
          </ns3:TrackPointExtension>
        </extensions>
      </trkpt>
      <trkpt lat="47.55111848004162311553955078125" lon="11.010740585625171661376953125">
        <ele>1813.4000244140625</ele>
        <time>2026-09-01T07:23:16.000Z</time>
        <extensions>
          <ns3:TrackPointExtension>
            <ns3:hr>166</ns3:hr>
            <ns3:cad>71</ns3:cad>
          </ns3:TrackPointExtension>
        </extensions>
      </trkpt>
      <trkpt lat="47.5511152110993862152099609375" lon="11.01073815487325191497802734375">
        <ele>1813.5999755859375</ele>
        <time>2026-09-01T07:23:17.000Z</time>
        <extensions>
          <ns3:TrackPointExtension>
            <ns3:hr>166</ns3:hr>
            <ns3:cad>71</ns3:cad>
          </ns3:TrackPointExtension>
        </extensions>
      </trkpt>
      <trkpt lat="47.55111294798552989959716796875" lon="11.010737903416156768798828125">
        <ele>1813.800048828125</ele>
        <time>2026-09-01T07:23:18.000Z</time>
        <extensions>
          <ns3:TrackPointExtension>
            <ns3:hr>167</ns3:hr>
            <ns3:cad>71</ns3:cad>
          </ns3:TrackPointExtension>
        </extensions>
      </trkpt>
      <trkpt lat="47.551111690700054168701171875" lon="11.0107375681400299072265625">
        <ele>1814</ele>
        <time>2026-09-01T07:23:19.000Z</time>
        <extensions>
          <ns3:TrackPointExtension>
            <ns3:hr>167</ns3:hr>
            <ns3:cad>0</ns3:cad>
          </ns3:TrackPointExtension>
        </extensions>
      </trkpt>
      <trkpt lat="47.55110758356750011444091796875" lon="11.0107293538749217987060546875">
        <ele>1814.199951171875</ele>
        <time>2026-09-01T07:23:20.000Z</time>
        <extensions>
          <ns3:TrackPointExtension>
            <ns3:hr>166</ns3:hr>
            <ns3:cad>0</ns3:cad>
          </ns3:TrackPointExtension>
        </extensions>
      </trkpt>
      <trkpt lat="47.5511024706065654754638671875" lon="11.01072960533201694488525390625">
        <ele>1814.5999755859375</ele>
        <time>2026-09-01T07:23:21.000Z</time>
        <extensions>
          <ns3:TrackPointExtension>
            <ns3:hr>165</ns3:hr>
            <ns3:cad>0</ns3:cad>
          </ns3:TrackPointExtension>
        </extensions>
      </trkpt>
      <trkpt lat="47.55109685473144054412841796875" lon="11.01073429919779300689697265625">
        <ele>1815</ele>
        <time>2026-09-01T07:23:22.000Z</time>
        <extensions>
          <ns3:TrackPointExtension>
            <ns3:hr>165</ns3:hr>
            <ns3:cad>0</ns3:cad>
          </ns3:TrackPointExtension>
        </extensions>
      </trkpt>
      <trkpt lat="47.551094926893711090087890625" lon="11.01073865778744220733642578125">
        <ele>1815.5999755859375</ele>
        <time>2026-09-01T07:23:23.000Z</time>
        <extensions>
          <ns3:TrackPointExtension>
            <ns3:hr>164</ns3:hr>
            <ns3:cad>0</ns3:cad>
          </ns3:TrackPointExtension>
        </extensions>
      </trkpt>
      <trkpt lat="47.55109383724629878997802734375" lon="11.0107407532632350921630859375">
        <ele>1816</ele>
        <time>2026-09-01T07:23:24.000Z</time>
        <extensions>
          <ns3:TrackPointExtension>
            <ns3:hr>164</ns3:hr>
            <ns3:cad>0</ns3:cad>
          </ns3:TrackPointExtension>
        </extensions>
      </trkpt>
      <trkpt lat="47.55109199322760105133056640625" lon="11.0107481293380260467529296875">
        <ele>1816.4000244140625</ele>
        <time>2026-09-01T07:23:25.000Z</time>
        <extensions>
          <ns3:TrackPointExtension>
            <ns3:hr>164</ns3:hr>
            <ns3:cad>0</ns3:cad>
          </ns3:TrackPointExtension>
        </extensions>
      </trkpt>
      <trkpt lat="47.55109199322760105133056640625" lon="11.0107536613941192626953125">
        <ele>1816.5999755859375</ele>
        <time>2026-09-01T07:23:26.000Z</time>
        <extensions>
          <ns3:TrackPointExtension>
            <ns3:hr>163</ns3:hr>
            <ns3:cad>0</ns3:cad>
          </ns3:TrackPointExtension>
        </extensions>
      </trkpt>
      <trkpt lat="47.551090233027935028076171875" lon="11.0107544995844364166259765625">
        <ele>1816.5999755859375</ele>
        <time>2026-09-01T07:23:27.000Z</time>
        <extensions>
          <ns3:TrackPointExtension>
            <ns3:hr>164</ns3:hr>
            <ns3:cad>0</ns3:cad>
          </ns3:TrackPointExtension>
        </extensions>
      </trkpt>
      <trkpt lat="47.55107891745865345001220703125" lon="11.01074092090129852294921875">
        <ele>1816.5999755859375</ele>
        <time>2026-09-01T07:23:28.000Z</time>
        <extensions>
          <ns3:TrackPointExtension>
            <ns3:hr>164</ns3:hr>
            <ns3:cad>0</ns3:cad>
          </ns3:TrackPointExtension>
        </extensions>
      </trkpt>
      <trkpt lat="47.5510826893150806427001953125" lon="11.01073899306356906890869140625">
        <ele>1816.800048828125</ele>
        <time>2026-09-01T07:23:29.000Z</time>
        <extensions>
          <ns3:TrackPointExtension>
            <ns3:hr>165</ns3:hr>
            <ns3:cad>0</ns3:cad>
          </ns3:TrackPointExtension>
        </extensions>
      </trkpt>
      <trkpt lat="47.55108444951474666595458984375" lon="11.010733209550380706787109375">
        <ele>1817</ele>
        <time>2026-09-01T07:23:30.000Z</time>
        <extensions>
          <ns3:TrackPointExtension>
            <ns3:hr>165</ns3:hr>
            <ns3:cad>0</ns3:cad>
          </ns3:TrackPointExtension>
        </extensions>
      </trkpt>
      <trkpt lat="47.55108310841023921966552734375" lon="11.0107214748859405517578125">
        <ele>1817.199951171875</ele>
        <time>2026-09-01T07:23:31.000Z</time>
        <extensions>
          <ns3:TrackPointExtension>
            <ns3:hr>166</ns3:hr>
            <ns3:cad>0</ns3:cad>
          </ns3:TrackPointExtension>
        </extensions>
      </trkpt>
      <trkpt lat="47.55108076147735118865966796875" lon="11.01072038523852825164794921875">
        <ele>1817.5999755859375</ele>
        <time>2026-09-01T07:23:32.000Z</time>
        <extensions>
          <ns3:TrackPointExtension>
            <ns3:hr>166</ns3:hr>
            <ns3:cad>0</ns3:cad>
          </ns3:TrackPointExtension>
        </extensions>
      </trkpt>
      <trkpt lat="47.551078498363494873046875" lon="11.0107253305613994598388671875">
        <ele>1818</ele>
        <time>2026-09-01T07:23:33.000Z</time>
        <extensions>
          <ns3:TrackPointExtension>
            <ns3:hr>165</ns3:hr>
            <ns3:cad>0</ns3:cad>
          </ns3:TrackPointExtension>
        </extensions>
      </trkpt>
      <trkpt lat="47.5510749779641628265380859375" lon="11.0107320360839366912841796875">
        <ele>1818.5999755859375</ele>
        <time>2026-09-01T07:23:34.000Z</time>
        <extensions>
          <ns3:TrackPointExtension>
            <ns3:hr>165</ns3:hr>
            <ns3:cad>0</ns3:cad>
          </ns3:TrackPointExtension>
        </extensions>
      </trkpt>
      <trkpt lat="47.55106885917484760284423828125" lon="11.01073983125388622283935546875">
        <ele>1819</ele>
        <time>2026-09-01T07:23:35.000Z</time>
        <extensions>
          <ns3:TrackPointExtension>
            <ns3:hr>165</ns3:hr>
            <ns3:cad>0</ns3:cad>
          </ns3:TrackPointExtension>
        </extensions>
      </trkpt>
      <trkpt lat="47.55106383003294467926025390625" lon="11.01074083708226680755615234375">
        <ele>1819.199951171875</ele>
        <time>2026-09-01T07:23:36.000Z</time>
        <extensions>
          <ns3:TrackPointExtension>
            <ns3:hr>165</ns3:hr>
            <ns3:cad>0</ns3:cad>
          </ns3:TrackPointExtension>
        </extensions>
      </trkpt>
      <trkpt lat="47.551046647131443023681640625" lon="11.01075206883251667022705078125">
        <ele>1819.4000244140625</ele>
        <time>2026-09-01T07:23:37.000Z</time>
        <extensions>
          <ns3:TrackPointExtension>
            <ns3:hr>165</ns3:hr>
            <ns3:cad>0</ns3:cad>
          </ns3:TrackPointExtension>
        </extensions>
      </trkpt>
      <trkpt lat="47.5510461442172527313232421875" lon="11.01075860671699047088623046875">
        <ele>1819.5999755859375</ele>
        <time>2026-09-01T07:23:38.000Z</time>
        <extensions>
          <ns3:TrackPointExtension>
            <ns3:hr>165</ns3:hr>
            <ns3:cad>0</ns3:cad>
          </ns3:TrackPointExtension>
        </extensions>
      </trkpt>
      <trkpt lat="47.55104203708469867706298828125" lon="11.01076665334403514862060546875">
        <ele>1819.800048828125</ele>
        <time>2026-09-01T07:23:39.000Z</time>
        <extensions>
          <ns3:TrackPointExtension>
            <ns3:hr>165</ns3:hr>
            <ns3:cad>0</ns3:cad>
          </ns3:TrackPointExtension>
        </extensions>
      </trkpt>
      <trkpt lat="47.551032565534114837646484375" lon="11.01077419705688953399658203125">
        <ele>1820</ele>
        <time>2026-09-01T07:23:40.000Z</time>
        <extensions>
          <ns3:TrackPointExtension>
            <ns3:hr>165</ns3:hr>
            <ns3:cad>0</ns3:cad>
          </ns3:TrackPointExtension>
        </extensions>
      </trkpt>
      <trkpt lat="47.55102820694446563720703125" lon="11.01077872328460216522216796875">
        <ele>1820.4000244140625</ele>
        <time>2026-09-01T07:23:41.000Z</time>
        <extensions>
          <ns3:TrackPointExtension>
            <ns3:hr>164</ns3:hr>
            <ns3:cad>0</ns3:cad>
          </ns3:TrackPointExtension>
        </extensions>
      </trkpt>
      <trkpt lat="47.55102577619254589080810546875" lon="11.01077855564653873443603515625">
        <ele>1820.5999755859375</ele>
        <time>2026-09-01T07:23:42.000Z</time>
        <extensions>
          <ns3:TrackPointExtension>
            <ns3:hr>164</ns3:hr>
            <ns3:cad>63</ns3:cad>
          </ns3:TrackPointExtension>
        </extensions>
      </trkpt>
      <trkpt lat="47.5510277040302753448486328125" lon="11.01077687926590442657470703125">
        <ele>1820.800048828125</ele>
        <time>2026-09-01T07:23:43.000Z</time>
        <extensions>
          <ns3:TrackPointExtension>
            <ns3:hr>164</ns3:hr>
            <ns3:cad>63</ns3:cad>
          </ns3:TrackPointExtension>
        </extensions>
      </trkpt>
      <trkpt lat="47.55102979950606822967529296875" lon="11.01077369414269924163818359375">
        <ele>1821</ele>
        <time>2026-09-01T07:23:44.000Z</time>
        <extensions>
          <ns3:TrackPointExtension>
            <ns3:hr>164</ns3:hr>
            <ns3:cad>63</ns3:cad>
          </ns3:TrackPointExtension>
        </extensions>
      </trkpt>
      <trkpt lat="47.55103315226733684539794921875" lon="11.01076866500079631805419921875">
        <ele>1821.4000244140625</ele>
        <time>2026-09-01T07:23:45.000Z</time>
        <extensions>
          <ns3:TrackPointExtension>
            <ns3:hr>163</ns3:hr>
            <ns3:cad>63</ns3:cad>
          </ns3:TrackPointExtension>
        </extensions>
      </trkpt>
      <trkpt lat="47.551035918295383453369140625" lon="11.0107642225921154022216796875">
        <ele>1821.4000244140625</ele>
        <time>2026-09-01T07:23:46.000Z</time>
        <extensions>
          <ns3:TrackPointExtension>
            <ns3:hr>163</ns3:hr>
            <ns3:cad>63</ns3:cad>
          </ns3:TrackPointExtension>
        </extensions>
      </trkpt>
      <trkpt lat="47.55103566683828830718994140625" lon="11.01075475104153156280517578125">
        <ele>1821.5999755859375</ele>
        <time>2026-09-01T07:23:47.000Z</time>
        <extensions>
          <ns3:TrackPointExtension>
            <ns3:hr>164</ns3:hr>
            <ns3:cad>0</ns3:cad>
          </ns3:TrackPointExtension>
        </extensions>
      </trkpt>
      <trkpt lat="47.55103952251374721527099609375" lon="11.01074938662350177764892578125">
        <ele>1821.800048828125</ele>
        <time>2026-09-01T07:23:48.000Z</time>
        <extensions>
          <ns3:TrackPointExtension>
            <ns3:hr>164</ns3:hr>
            <ns3:cad>0</ns3:cad>
          </ns3:TrackPointExtension>
        </extensions>
      </trkpt>
      <trkpt lat="47.5510421209037303924560546875" lon="11.01075005717575550079345703125">
        <ele>1822</ele>
        <time>2026-09-01T07:23:49.000Z</time>
        <extensions>
          <ns3:TrackPointExtension>
            <ns3:hr>164</ns3:hr>
            <ns3:cad>0</ns3:cad>
          </ns3:TrackPointExtension>
        </extensions>
      </trkpt>
      <trkpt lat="47.55104186944663524627685546875" lon="11.010744273662567138671875">
        <ele>1822</ele>
        <time>2026-09-01T07:23:50.000Z</time>
        <extensions>
          <ns3:TrackPointExtension>
            <ns3:hr>164</ns3:hr>
            <ns3:cad>0</ns3:cad>
          </ns3:TrackPointExtension>
        </extensions>
      </trkpt>
      <trkpt lat="47.55104052834212779998779296875" lon="11.0107310302555561065673828125">
        <ele>1822.4000244140625</ele>
        <time>2026-09-01T07:23:51.000Z</time>
        <extensions>
          <ns3:TrackPointExtension>
            <ns3:hr>165</ns3:hr>
            <ns3:cad>0</ns3:cad>
          </ns3:TrackPointExtension>
        </extensions>
      </trkpt>
      <trkpt lat="47.5510422885417938232421875" lon="11.01072256453335285186767578125">
        <ele>1822.5999755859375</ele>
        <time>2026-09-01T07:23:52.000Z</time>
        <extensions>
          <ns3:TrackPointExtension>
            <ns3:hr>165</ns3:hr>
            <ns3:cad>0</ns3:cad>
          </ns3:TrackPointExtension>
        </extensions>
      </trkpt>
      <trkpt lat="47.5510421209037303924560546875" lon="11.01070999167859554290771484375">
        <ele>1822.800048828125</ele>
        <time>2026-09-01T07:23:53.000Z</time>
        <extensions>
          <ns3:TrackPointExtension>
            <ns3:hr>165</ns3:hr>
            <ns3:cad>0</ns3:cad>
          </ns3:TrackPointExtension>
        </extensions>
      </trkpt>
      <trkpt lat="47.551041953265666961669921875" lon="11.0106919705867767333984375">
        <ele>1823.199951171875</ele>
        <time>2026-09-01T07:23:54.000Z</time>
        <extensions>
          <ns3:TrackPointExtension>
            <ns3:hr>165</ns3:hr>
            <ns3:cad>0</ns3:cad>
          </ns3:TrackPointExtension>
        </extensions>
      </trkpt>
      <trkpt lat="47.5510374270379543304443359375" lon="11.0106968320906162261962890625">
        <ele>1823.4000244140625</ele>
        <time>2026-09-01T07:23:55.000Z</time>
        <extensions>
          <ns3:TrackPointExtension>
            <ns3:hr>164</ns3:hr>
            <ns3:cad>0</ns3:cad>
          </ns3:TrackPointExtension>
        </extensions>
      </trkpt>
      <trkpt lat="47.55103164352476596832275390625" lon="11.01067897863686084747314453125">
        <ele>1823.800048828125</ele>
        <time>2026-09-01T07:23:56.000Z</time>
        <extensions>
          <ns3:TrackPointExtension>
            <ns3:hr>164</ns3:hr>
            <ns3:cad>0</ns3:cad>
          </ns3:TrackPointExtension>
        </extensions>
      </trkpt>
      <trkpt lat="47.551019825041294097900390625" lon="11.01067311130464076995849609375">
        <ele>1824.199951171875</ele>
        <time>2026-09-01T07:23:57.000Z</time>
        <extensions>
          <ns3:TrackPointExtension>
            <ns3:hr>163</ns3:hr>
            <ns3:cad>0</ns3:cad>
          </ns3:TrackPointExtension>
        </extensions>
      </trkpt>
      <trkpt lat="47.55102217197418212890625" lon="11.01066892035305500030517578125">
        <ele>1824.5999755859375</ele>
        <time>2026-09-01T07:23:58.000Z</time>
        <extensions>
          <ns3:TrackPointExtension>
            <ns3:hr>163</ns3:hr>
            <ns3:cad>0</ns3:cad>
          </ns3:TrackPointExtension>
        </extensions>
      </trkpt>
      <trkpt lat="47.55101672373712062835693359375" lon="11.010663807392120361328125">
        <ele>1825</ele>
        <time>2026-09-01T07:23:59.000Z</time>
        <extensions>
          <ns3:TrackPointExtension>
            <ns3:hr>163</ns3:hr>
            <ns3:cad>0</ns3:cad>
          </ns3:TrackPointExtension>
        </extensions>
      </trkpt>
      <trkpt lat="47.5510132871568202972412109375" lon="11.0106659866869449615478515625">
        <ele>1825.5999755859375</ele>
        <time>2026-09-01T07:24:00.000Z</time>
        <extensions>
          <ns3:TrackPointExtension>
            <ns3:hr>163</ns3:hr>
            <ns3:cad>0</ns3:cad>
          </ns3:TrackPointExtension>
        </extensions>
      </trkpt>
      <trkpt lat="47.55101387389004230499267578125" lon="11.0106683336198329925537109375">
        <ele>1825.800048828125</ele>
        <time>2026-09-01T07:24:01.000Z</time>
        <extensions>
          <ns3:TrackPointExtension>
            <ns3:hr>162</ns3:hr>
            <ns3:cad>0</ns3:cad>
          </ns3:TrackPointExtension>
        </extensions>
      </trkpt>
      <trkpt lat="47.55100850947201251983642578125" lon="11.01067327894270420074462890625">
        <ele>1826</ele>
        <time>2026-09-01T07:24:02.000Z</time>
        <extensions>
          <ns3:TrackPointExtension>
            <ns3:hr>162</ns3:hr>
            <ns3:cad>0</ns3:cad>
          </ns3:TrackPointExtension>
        </extensions>
      </trkpt>
      <trkpt lat="47.551003731787204742431640625" lon="11.0106827504932880401611328125">
        <ele>1826.199951171875</ele>
        <time>2026-09-01T07:24:03.000Z</time>
        <extensions>
          <ns3:TrackPointExtension>
            <ns3:hr>162</ns3:hr>
            <ns3:cad>0</ns3:cad>
          </ns3:TrackPointExtension>
        </extensions>
      </trkpt>
      <trkpt lat="47.5510109402239322662353515625" lon="11.01068283431231975555419921875">
        <ele>1826.4000244140625</ele>
        <time>2026-09-01T07:24:04.000Z</time>
        <extensions>
          <ns3:TrackPointExtension>
            <ns3:hr>162</ns3:hr>
            <ns3:cad>0</ns3:cad>
          </ns3:TrackPointExtension>
        </extensions>
      </trkpt>
      <trkpt lat="47.5510101020336151123046875" lon="11.01069423370063304901123046875">
        <ele>1826.4000244140625</ele>
        <time>2026-09-01T07:24:05.000Z</time>
        <extensions>
          <ns3:TrackPointExtension>
            <ns3:hr>162</ns3:hr>
            <ns3:cad>0</ns3:cad>
          </ns3:TrackPointExtension>
        </extensions>
      </trkpt>
      <trkpt lat="47.5510065816342830657958984375" lon="11.0106934793293476104736328125">
        <ele>1826.4000244140625</ele>
        <time>2026-09-01T07:24:06.000Z</time>
        <extensions>
          <ns3:TrackPointExtension>
            <ns3:hr>162</ns3:hr>
            <ns3:cad>0</ns3:cad>
          </ns3:TrackPointExtension>
        </extensions>
      </trkpt>
      <trkpt lat="47.5509992055594921112060546875" lon="11.0106968320906162261962890625">
        <ele>1826.800048828125</ele>
        <time>2026-09-01T07:24:07.000Z</time>
        <extensions>
          <ns3:TrackPointExtension>
            <ns3:hr>162</ns3:hr>
            <ns3:cad>0</ns3:cad>
          </ns3:TrackPointExtension>
        </extensions>
      </trkpt>
      <trkpt lat="47.55099895410239696502685546875" lon="11.0106975026428699493408203125">
        <ele>1827</ele>
        <time>2026-09-01T07:24:08.000Z</time>
        <extensions>
          <ns3:TrackPointExtension>
            <ns3:hr>162</ns3:hr>
            <ns3:cad>0</ns3:cad>
          </ns3:TrackPointExtension>
        </extensions>
      </trkpt>
      <trkpt lat="47.55100063048303127288818359375" lon="11.01068937219679355621337890625">
        <ele>1827</ele>
        <time>2026-09-01T07:24:09.000Z</time>
        <extensions>
          <ns3:TrackPointExtension>
            <ns3:hr>163</ns3:hr>
            <ns3:cad>0</ns3:cad>
          </ns3:TrackPointExtension>
        </extensions>
      </trkpt>
      <trkpt lat="47.550996355712413787841796875" lon="11.01068082265555858612060546875">
        <ele>1827.4000244140625</ele>
        <time>2026-09-01T07:24:10.000Z</time>
        <extensions>
          <ns3:TrackPointExtension>
            <ns3:hr>164</ns3:hr>
            <ns3:cad>0</ns3:cad>
          </ns3:TrackPointExtension>
        </extensions>
      </trkpt>
      <trkpt lat="47.550995014607906341552734375" lon="11.0106656514108180999755859375">
        <ele>1827.5999755859375</ele>
        <time>2026-09-01T07:24:11.000Z</time>
        <extensions>
          <ns3:TrackPointExtension>
            <ns3:hr>163</ns3:hr>
            <ns3:cad>0</ns3:cad>
          </ns3:TrackPointExtension>
        </extensions>
      </trkpt>
      <trkpt lat="47.55099375732243061065673828125" lon="11.0106616280972957611083984375">
        <ele>1827.800048828125</ele>
        <time>2026-09-01T07:24:12.000Z</time>
        <extensions>
          <ns3:TrackPointExtension>
            <ns3:hr>163</ns3:hr>
            <ns3:cad>0</ns3:cad>
          </ns3:TrackPointExtension>
        </extensions>
      </trkpt>
      <trkpt lat="47.55098705179989337921142578125" lon="11.0106368176639080047607421875">
        <ele>1828</ele>
        <time>2026-09-01T07:24:13.000Z</time>
        <extensions>
          <ns3:TrackPointExtension>
            <ns3:hr>162</ns3:hr>
            <ns3:cad>0</ns3:cad>
          </ns3:TrackPointExtension>
        </extensions>
      </trkpt>
      <trkpt lat="47.55098151974380016326904296875" lon="11.010626256465911865234375">
        <ele>1828.4000244140625</ele>
        <time>2026-09-01T07:24:14.000Z</time>
        <extensions>
          <ns3:TrackPointExtension>
            <ns3:hr>162</ns3:hr>
            <ns3:cad>0</ns3:cad>
          </ns3:TrackPointExtension>
        </extensions>
      </trkpt>
      <trkpt lat="47.55097992718219757080078125" lon="11.0106183774769306182861328125">
        <ele>1828.5999755859375</ele>
        <time>2026-09-01T07:24:15.000Z</time>
        <extensions>
          <ns3:TrackPointExtension>
            <ns3:hr>161</ns3:hr>
            <ns3:cad>0</ns3:cad>
          </ns3:TrackPointExtension>
        </extensions>
      </trkpt>
      <trkpt lat="47.55097313784062862396240234375" lon="11.01060655899345874786376953125">
        <ele>1829</ele>
        <time>2026-09-01T07:24:16.000Z</time>
        <extensions>
          <ns3:TrackPointExtension>
            <ns3:hr>161</ns3:hr>
            <ns3:cad>0</ns3:cad>
          </ns3:TrackPointExtension>
        </extensions>
      </trkpt>
      <trkpt lat="47.55096727050840854644775390625" lon="11.0106116719543933868408203125">
        <ele>1829.4000244140625</ele>
        <time>2026-09-01T07:24:17.000Z</time>
        <extensions>
          <ns3:TrackPointExtension>
            <ns3:hr>160</ns3:hr>
            <ns3:cad>0</ns3:cad>
          </ns3:TrackPointExtension>
        </extensions>
      </trkpt>
      <trkpt lat="47.55096257664263248443603515625" lon="11.01062684319913387298583984375">
        <ele>1830</ele>
        <time>2026-09-01T07:24:18.000Z</time>
        <extensions>
          <ns3:TrackPointExtension>
            <ns3:hr>160</ns3:hr>
            <ns3:cad>0</ns3:cad>
          </ns3:TrackPointExtension>
        </extensions>
      </trkpt>
      <trkpt lat="47.55096106790006160736083984375" lon="11.0106338001787662506103515625">
        <ele>1830.4000244140625</ele>
        <time>2026-09-01T07:24:19.000Z</time>
        <extensions>
          <ns3:TrackPointExtension>
            <ns3:hr>161</ns3:hr>
            <ns3:cad>0</ns3:cad>
          </ns3:TrackPointExtension>
        </extensions>
      </trkpt>
      <trkpt lat="47.55095486529171466827392578125" lon="11.01063975133001804351806640625">
        <ele>1830.800048828125</ele>
        <time>2026-09-01T07:24:20.000Z</time>
        <extensions>
          <ns3:TrackPointExtension>
            <ns3:hr>163</ns3:hr>
            <ns3:cad>0</ns3:cad>
          </ns3:TrackPointExtension>
        </extensions>
      </trkpt>
      <trkpt lat="47.55094715394079685211181640625" lon="11.0106431879103183746337890625">
        <ele>1831.199951171875</ele>
        <time>2026-09-01T07:24:21.000Z</time>
        <extensions>
          <ns3:TrackPointExtension>
            <ns3:hr>163</ns3:hr>
            <ns3:cad>0</ns3:cad>
          </ns3:TrackPointExtension>
        </extensions>
      </trkpt>
      <trkpt lat="47.55094044841825962066650390625" lon="11.0106492228806018829345703125">
        <ele>1831.4000244140625</ele>
        <time>2026-09-01T07:24:22.000Z</time>
        <extensions>
          <ns3:TrackPointExtension>
            <ns3:hr>164</ns3:hr>
            <ns3:cad>0</ns3:cad>
          </ns3:TrackPointExtension>
        </extensions>
      </trkpt>
      <trkpt lat="47.5509296357631683349609375" lon="11.010660119354724884033203125">
        <ele>1831.5999755859375</ele>
        <time>2026-09-01T07:24:23.000Z</time>
        <extensions>
          <ns3:TrackPointExtension>
            <ns3:hr>164</ns3:hr>
            <ns3:cad>0</ns3:cad>
          </ns3:TrackPointExtension>
        </extensions>
      </trkpt>
      <trkpt lat="47.55092871375381946563720703125" lon="11.01065483875572681427001953125">
        <ele>1831.800048828125</ele>
        <time>2026-09-01T07:24:24.000Z</time>
        <extensions>
          <ns3:TrackPointExtension>
            <ns3:hr>164</ns3:hr>
            <ns3:cad>0</ns3:cad>
          </ns3:TrackPointExtension>
        </extensions>
      </trkpt>
      <trkpt lat="47.55091697908937931060791015625" lon="11.01064972579479217529296875">
        <ele>1832</ele>
        <time>2026-09-01T07:24:25.000Z</time>
        <extensions>
          <ns3:TrackPointExtension>
            <ns3:hr>164</ns3:hr>
            <ns3:cad>0</ns3:cad>
          </ns3:TrackPointExtension>
        </extensions>
      </trkpt>
      <trkpt lat="47.55089946091175079345703125" lon="11.01064494810998439788818359375">
        <ele>1832.4000244140625</ele>
        <time>2026-09-01T07:24:26.000Z</time>
        <extensions>
          <ns3:TrackPointExtension>
            <ns3:hr>164</ns3:hr>
            <ns3:cad>0</ns3:cad>
          </ns3:TrackPointExtension>
        </extensions>
      </trkpt>
      <trkpt lat="47.55089409649372100830078125" lon="11.01064260117709636688232421875">
        <ele>1833</ele>
        <time>2026-09-01T07:24:27.000Z</time>
        <extensions>
          <ns3:TrackPointExtension>
            <ns3:hr>165</ns3:hr>
            <ns3:cad>0</ns3:cad>
          </ns3:TrackPointExtension>
        </extensions>
      </trkpt>
      <trkpt lat="47.5508892349898815155029296875" lon="11.01064276881515979766845703125">
        <ele>1833.199951171875</ele>
        <time>2026-09-01T07:24:28.000Z</time>
        <extensions>
          <ns3:TrackPointExtension>
            <ns3:hr>165</ns3:hr>
            <ns3:cad>0</ns3:cad>
          </ns3:TrackPointExtension>
        </extensions>
      </trkpt>
      <trkpt lat="47.55087506957352161407470703125" lon="11.01063120178878307342529296875">
        <ele>1833.4000244140625</ele>
        <time>2026-09-01T07:24:29.000Z</time>
        <extensions>
          <ns3:TrackPointExtension>
            <ns3:hr>165</ns3:hr>
            <ns3:cad>0</ns3:cad>
          </ns3:TrackPointExtension>
        </extensions>
      </trkpt>
      <trkpt lat="47.55086601711809635162353515625" lon="11.01062692701816558837890625">
        <ele>1833.5999755859375</ele>
        <time>2026-09-01T07:24:30.000Z</time>
        <extensions>
          <ns3:TrackPointExtension>
            <ns3:hr>166</ns3:hr>
            <ns3:cad>0</ns3:cad>
          </ns3:TrackPointExtension>
        </extensions>
      </trkpt>
      <trkpt lat="47.55086417309939861297607421875" lon="11.010629273951053619384765625">
        <ele>1833.5999755859375</ele>
        <time>2026-09-01T07:24:31.000Z</time>
        <extensions>
          <ns3:TrackPointExtension>
            <ns3:hr>167</ns3:hr>
            <ns3:cad>0</ns3:cad>
          </ns3:TrackPointExtension>
        </extensions>
      </trkpt>
      <trkpt lat="47.5508496724069118499755859375" lon="11.01062332279980182647705078125">
        <ele>1833.800048828125</ele>
        <time>2026-09-01T07:24:32.000Z</time>
        <extensions>
          <ns3:TrackPointExtension>
            <ns3:hr>167</ns3:hr>
            <ns3:cad>0</ns3:cad>
          </ns3:TrackPointExtension>
        </extensions>
      </trkpt>
      <trkpt lat="47.5508466549217700958251953125" lon="11.0106254182755947113037109375">
        <ele>1834</ele>
        <time>2026-09-01T07:24:33.000Z</time>
        <extensions>
          <ns3:TrackPointExtension>
            <ns3:hr>166</ns3:hr>
            <ns3:cad>0</ns3:cad>
          </ns3:TrackPointExtension>
        </extensions>
      </trkpt>
      <trkpt lat="47.55083684809505939483642578125" lon="11.0106136836111545562744140625">
        <ele>1834.199951171875</ele>
        <time>2026-09-01T07:24:34.000Z</time>
        <extensions>
          <ns3:TrackPointExtension>
            <ns3:hr>166</ns3:hr>
            <ns3:cad>0</ns3:cad>
          </ns3:TrackPointExtension>
        </extensions>
      </trkpt>
      <trkpt lat="47.55082729272544384002685546875" lon="11.01060320623219013214111328125">
        <ele>1834.4000244140625</ele>
        <time>2026-09-01T07:24:35.000Z</time>
        <extensions>
          <ns3:TrackPointExtension>
            <ns3:hr>165</ns3:hr>
            <ns3:cad>40</ns3:cad>
          </ns3:TrackPointExtension>
        </extensions>
      </trkpt>
      <trkpt lat="47.5508215092122554779052734375" lon="11.01059951819479465484619140625">
        <ele>1835</ele>
        <time>2026-09-01T07:24:36.000Z</time>
        <extensions>
          <ns3:TrackPointExtension>
            <ns3:hr>165</ns3:hr>
            <ns3:cad>40</ns3:cad>
          </ns3:TrackPointExtension>
        </extensions>
      </trkpt>
      <trkpt lat="47.550819329917430877685546875" lon="11.01059348322451114654541015625">
        <ele>1835.199951171875</ele>
        <time>2026-09-01T07:24:37.000Z</time>
        <extensions>
          <ns3:TrackPointExtension>
            <ns3:hr>163</ns3:hr>
            <ns3:cad>0</ns3:cad>
          </ns3:TrackPointExtension>
        </extensions>
      </trkpt>
      <trkpt lat="47.55080851726233959197998046875" lon="11.01057722233235836029052734375">
        <ele>1835.4000244140625</ele>
        <time>2026-09-01T07:24:38.000Z</time>
        <extensions>
          <ns3:TrackPointExtension>
            <ns3:hr>163</ns3:hr>
            <ns3:cad>0</ns3:cad>
          </ns3:TrackPointExtension>
        </extensions>
      </trkpt>
      <trkpt lat="47.55080021917819976806640625" lon="11.0105667449533939361572265625">
        <ele>1835.5999755859375</ele>
        <time>2026-09-01T07:24:39.000Z</time>
        <extensions>
          <ns3:TrackPointExtension>
            <ns3:hr>163</ns3:hr>
            <ns3:cad>51</ns3:cad>
          </ns3:TrackPointExtension>
        </extensions>
      </trkpt>
      <trkpt lat="47.55078940652310848236083984375" lon="11.01055459119379520416259765625">
        <ele>1835.5999755859375</ele>
        <time>2026-09-01T07:24:40.000Z</time>
        <extensions>
          <ns3:TrackPointExtension>
            <ns3:hr>163</ns3:hr>
            <ns3:cad>51</ns3:cad>
          </ns3:TrackPointExtension>
        </extensions>
      </trkpt>
      <trkpt lat="47.5507740676403045654296875" lon="11.01054243743419647216796875">
        <ele>1835.5999755859375</ele>
        <time>2026-09-01T07:24:41.000Z</time>
        <extensions>
          <ns3:TrackPointExtension>
            <ns3:hr>163</ns3:hr>
            <ns3:cad>0</ns3:cad>
          </ns3:TrackPointExtension>
        </extensions>
      </trkpt>
      <trkpt lat="47.5507581420242786407470703125" lon="11.0105372406542301177978515625">
        <ele>1835.5999755859375</ele>
        <time>2026-09-01T07:24:42.000Z</time>
        <extensions>
          <ns3:TrackPointExtension>
            <ns3:hr>164</ns3:hr>
            <ns3:cad>0</ns3:cad>
          </ns3:TrackPointExtension>
        </extensions>
      </trkpt>
      <trkpt lat="47.55074464716017246246337890625" lon="11.0105318762362003326416015625">
        <ele>1835.800048828125</ele>
        <time>2026-09-01T07:24:43.000Z</time>
        <extensions>
          <ns3:TrackPointExtension>
            <ns3:hr>164</ns3:hr>
            <ns3:cad>0</ns3:cad>
          </ns3:TrackPointExtension>
        </extensions>
      </trkpt>
      <trkpt lat="47.550740204751491546630859375" lon="11.01053196005523204803466796875">
        <ele>1836</ele>
        <time>2026-09-01T07:24:44.000Z</time>
        <extensions>
          <ns3:TrackPointExtension>
            <ns3:hr>164</ns3:hr>
            <ns3:cad>0</ns3:cad>
          </ns3:TrackPointExtension>
        </extensions>
      </trkpt>
      <trkpt lat="47.55072972737252712249755859375" lon="11.01052408106625080108642578125">
        <ele>1836.199951171875</ele>
        <time>2026-09-01T07:24:45.000Z</time>
        <extensions>
          <ns3:TrackPointExtension>
            <ns3:hr>164</ns3:hr>
            <ns3:cad>0</ns3:cad>
          </ns3:TrackPointExtension>
        </extensions>
      </trkpt>
      <trkpt lat="47.55071665160357952117919921875" lon="11.01050647906959056854248046875">
        <ele>1836.199951171875</ele>
        <time>2026-09-01T07:24:46.000Z</time>
        <extensions>
          <ns3:TrackPointExtension>
            <ns3:hr>165</ns3:hr>
            <ns3:cad>60</ns3:cad>
          </ns3:TrackPointExtension>
        </extensions>
      </trkpt>
      <trkpt lat="47.55070575512945652008056640625" lon="11.01047831587493419647216796875">
        <ele>1836.199951171875</ele>
        <time>2026-09-01T07:24:47.000Z</time>
        <extensions>
          <ns3:TrackPointExtension>
            <ns3:hr>166</ns3:hr>
            <ns3:cad>0</ns3:cad>
          </ns3:TrackPointExtension>
        </extensions>
      </trkpt>
      <trkpt lat="47.55069569684565067291259765625" lon="11.01045099087059497833251953125">
        <ele>1836</ele>
        <time>2026-09-01T07:24:48.000Z</time>
        <extensions>
          <ns3:TrackPointExtension>
            <ns3:hr>166</ns3:hr>
            <ns3:cad>0</ns3:cad>
          </ns3:TrackPointExtension>
        </extensions>
      </trkpt>
      <trkpt lat="47.55068765021860599517822265625" lon="11.0104255937039852142333984375">
        <ele>1835.800048828125</ele>
        <time>2026-09-01T07:24:49.000Z</time>
        <extensions>
          <ns3:TrackPointExtension>
            <ns3:hr>168</ns3:hr>
            <ns3:cad>0</ns3:cad>
          </ns3:TrackPointExtension>
        </extensions>
      </trkpt>
      <trkpt lat="47.5506847165524959564208984375" lon="11.0103890486061573028564453125">
        <ele>1835.5999755859375</ele>
        <time>2026-09-01T07:24:50.000Z</time>
        <extensions>
          <ns3:TrackPointExtension>
            <ns3:hr>170</ns3:hr>
            <ns3:cad>0</ns3:cad>
          </ns3:TrackPointExtension>
        </extensions>
      </trkpt>
      <trkpt lat="47.55067172460258007049560546875" lon="11.01036784239113330841064453125">
        <ele>1835.4000244140625</ele>
        <time>2026-09-01T07:24:51.000Z</time>
        <extensions>
          <ns3:TrackPointExtension>
            <ns3:hr>171</ns3:hr>
            <ns3:cad>78</ns3:cad>
          </ns3:TrackPointExtension>
        </extensions>
      </trkpt>
      <trkpt lat="47.5506625883281230926513671875" lon="11.0103457979857921600341796875">
        <ele>1835.4000244140625</ele>
        <time>2026-09-01T07:24:52.000Z</time>
        <extensions>
          <ns3:TrackPointExtension>
            <ns3:hr>173</ns3:hr>
            <ns3:cad>78</ns3:cad>
          </ns3:TrackPointExtension>
        </extensions>
      </trkpt>
      <trkpt lat="47.5506515242159366607666015625" lon="11.0103266872465610504150390625">
        <ele>1835</ele>
        <time>2026-09-01T07:24:53.000Z</time>
        <extensions>
          <ns3:TrackPointExtension>
            <ns3:hr>174</ns3:hr>
            <ns3:cad>77</ns3:cad>
          </ns3:TrackPointExtension>
        </extensions>
      </trkpt>
      <trkpt lat="47.55064372904598712921142578125" lon="11.01031419821083545684814453125">
        <ele>1834.800048828125</ele>
        <time>2026-09-01T07:24:54.000Z</time>
        <extensions>
          <ns3:TrackPointExtension>
            <ns3:hr>175</ns3:hr>
            <ns3:cad>77</ns3:cad>
          </ns3:TrackPointExtension>
        </extensions>
      </trkpt>
      <trkpt lat="47.550636269152164459228515625" lon="11.01030061952769756317138671875">
        <ele>1834.4000244140625</ele>
        <time>2026-09-01T07:24:55.000Z</time>
        <extensions>
          <ns3:TrackPointExtension>
            <ns3:hr>175</ns3:hr>
            <ns3:cad>77</ns3:cad>
          </ns3:TrackPointExtension>
        </extensions>
      </trkpt>
      <trkpt lat="47.55062662996351718902587890625" lon="11.01028385572135448455810546875">
        <ele>1834.199951171875</ele>
        <time>2026-09-01T07:24:56.000Z</time>
        <extensions>
          <ns3:TrackPointExtension>
            <ns3:hr>174</ns3:hr>
            <ns3:cad>76</ns3:cad>
          </ns3:TrackPointExtension>
        </extensions>
      </trkpt>
      <trkpt lat="47.55061824806034564971923828125" lon="11.01026642136275768280029296875">
        <ele>1833.800048828125</ele>
        <time>2026-09-01T07:24:57.000Z</time>
        <extensions>
          <ns3:TrackPointExtension>
            <ns3:hr>174</ns3:hr>
            <ns3:cad>74</ns3:cad>
          </ns3:TrackPointExtension>
        </extensions>
      </trkpt>
      <trkpt lat="47.55061523057520389556884765625" lon="11.0102472268044948577880859375">
        <ele>1833.5999755859375</ele>
        <time>2026-09-01T07:24:58.000Z</time>
        <extensions>
          <ns3:TrackPointExtension>
            <ns3:hr>173</ns3:hr>
            <ns3:cad>73</ns3:cad>
          </ns3:TrackPointExtension>
        </extensions>
      </trkpt>
      <trkpt lat="47.5506131350994110107421875" lon="11.010229624807834625244140625">
        <ele>1833.5999755859375</ele>
        <time>2026-09-01T07:24:59.000Z</time>
        <extensions>
          <ns3:TrackPointExtension>
            <ns3:hr>172</ns3:hr>
            <ns3:cad>73</ns3:cad>
          </ns3:TrackPointExtension>
        </extensions>
      </trkpt>
      <trkpt lat="47.550612799823284149169921875" lon="11.01021294482052326202392578125">
        <ele>1833.5999755859375</ele>
        <time>2026-09-01T07:25:00.000Z</time>
        <extensions>
          <ns3:TrackPointExtension>
            <ns3:hr>171</ns3:hr>
            <ns3:cad>73</ns3:cad>
          </ns3:TrackPointExtension>
        </extensions>
      </trkpt>
      <trkpt lat="47.55060835741460323333740234375" lon="11.010196767747402191162109375">
        <ele>1833.5999755859375</ele>
        <time>2026-09-01T07:25:01.000Z</time>
        <extensions>
          <ns3:TrackPointExtension>
            <ns3:hr>171</ns3:hr>
            <ns3:cad>74</ns3:cad>
          </ns3:TrackPointExtension>
        </extensions>
      </trkpt>
      <trkpt lat="47.550602070987224578857421875" lon="11.01016785018146038055419921875">
        <ele>1833.5999755859375</ele>
        <time>2026-09-01T07:25:02.000Z</time>
        <extensions>
          <ns3:TrackPointExtension>
            <ns3:hr>170</ns3:hr>
            <ns3:cad>74</ns3:cad>
          </ns3:TrackPointExtension>
        </extensions>
      </trkpt>
      <trkpt lat="47.550603412091732025146484375" lon="11.01015192456543445587158203125">
        <ele>1833.800048828125</ele>
        <time>2026-09-01T07:25:03.000Z</time>
        <extensions>
          <ns3:TrackPointExtension>
            <ns3:hr>169</ns3:hr>
            <ns3:cad>74</ns3:cad>
          </ns3:TrackPointExtension>
        </extensions>
      </trkpt>
      <trkpt lat="47.55059880204498767852783203125" lon="11.01012476719915866851806640625">
        <ele>1834</ele>
        <time>2026-09-01T07:25:04.000Z</time>
        <extensions>
          <ns3:TrackPointExtension>
            <ns3:hr>168</ns3:hr>
            <ns3:cad>74</ns3:cad>
          </ns3:TrackPointExtension>
        </extensions>
      </trkpt>
      <trkpt lat="47.55059075541794300079345703125" lon="11.010095514357089996337890625">
        <ele>1834.199951171875</ele>
        <time>2026-09-01T07:25:05.000Z</time>
        <extensions>
          <ns3:TrackPointExtension>
            <ns3:hr>167</ns3:hr>
            <ns3:cad>0</ns3:cad>
          </ns3:TrackPointExtension>
        </extensions>
      </trkpt>
      <trkpt lat="47.55058354698121547698974609375" lon="11.0100691951811313629150390625">
        <ele>1834.4000244140625</ele>
        <time>2026-09-01T07:25:06.000Z</time>
        <extensions>
          <ns3:TrackPointExtension>
            <ns3:hr>167</ns3:hr>
            <ns3:cad>0</ns3:cad>
          </ns3:TrackPointExtension>
        </extensions>
      </trkpt>
      <trkpt lat="47.5505747459828853607177734375" lon="11.010036505758762359619140625">
        <ele>1834.800048828125</ele>
        <time>2026-09-01T07:25:07.000Z</time>
        <extensions>
          <ns3:TrackPointExtension>
            <ns3:hr>166</ns3:hr>
            <ns3:cad>77</ns3:cad>
          </ns3:TrackPointExtension>
        </extensions>
      </trkpt>
      <trkpt lat="47.5505643524229526519775390625" lon="11.010001637041568756103515625">
        <ele>1835.4000244140625</ele>
        <time>2026-09-01T07:25:08.000Z</time>
        <extensions>
          <ns3:TrackPointExtension>
            <ns3:hr>165</ns3:hr>
            <ns3:cad>77</ns3:cad>
          </ns3:TrackPointExtension>
        </extensions>
      </trkpt>
      <trkpt lat="47.5505532883107662200927734375" lon="11.00997908972203731536865234375">
        <ele>1835.4000244140625</ele>
        <time>2026-09-01T07:25:09.000Z</time>
        <extensions>
          <ns3:TrackPointExtension>
            <ns3:hr>164</ns3:hr>
            <ns3:cad>77</ns3:cad>
          </ns3:TrackPointExtension>
        </extensions>
      </trkpt>
      <trkpt lat="47.550547420978546142578125" lon="11.00994698703289031982421875">
        <ele>1835.4000244140625</ele>
        <time>2026-09-01T07:25:10.000Z</time>
        <extensions>
          <ns3:TrackPointExtension>
            <ns3:hr>163</ns3:hr>
            <ns3:cad>77</ns3:cad>
          </ns3:TrackPointExtension>
        </extensions>
      </trkpt>
      <trkpt lat="47.5505395419895648956298828125" lon="11.00992125459015369415283203125">
        <ele>1835.4000244140625</ele>
        <time>2026-09-01T07:25:11.000Z</time>
        <extensions>
          <ns3:TrackPointExtension>
            <ns3:hr>162</ns3:hr>
            <ns3:cad>80</ns3:cad>
          </ns3:TrackPointExtension>
        </extensions>
      </trkpt>
      <trkpt lat="47.55053090862929821014404296875" lon="11.00989175029098987579345703125">
        <ele>1835.199951171875</ele>
        <time>2026-09-01T07:25:12.000Z</time>
        <extensions>
          <ns3:TrackPointExtension>
            <ns3:hr>162</ns3:hr>
            <ns3:cad>80</ns3:cad>
          </ns3:TrackPointExtension>
        </extensions>
      </trkpt>
      <trkpt lat="47.5505130551755428314208984375" lon="11.0098727233707904815673828125">
        <ele>1835.199951171875</ele>
        <time>2026-09-01T07:25:13.000Z</time>
        <extensions>
          <ns3:TrackPointExtension>
            <ns3:hr>161</ns3:hr>
            <ns3:cad>80</ns3:cad>
          </ns3:TrackPointExtension>
        </extensions>
      </trkpt>
      <trkpt lat="47.55049503408372402191162109375" lon="11.00985604338347911834716796875">
        <ele>1835</ele>
        <time>2026-09-01T07:25:14.000Z</time>
        <extensions>
          <ns3:TrackPointExtension>
            <ns3:hr>161</ns3:hr>
            <ns3:cad>80</ns3:cad>
          </ns3:TrackPointExtension>
        </extensions>
      </trkpt>
      <trkpt lat="47.5504812039434909820556640625" lon="11.009843386709690093994140625">
        <ele>1835</ele>
        <time>2026-09-01T07:25:15.000Z</time>
        <extensions>
          <ns3:TrackPointExtension>
            <ns3:hr>160</ns3:hr>
            <ns3:cad>80</ns3:cad>
          </ns3:TrackPointExtension>
        </extensions>
      </trkpt>
      <trkpt lat="47.5504651106894016265869140625" lon="11.00982989184558391571044921875">
        <ele>1835</ele>
        <time>2026-09-01T07:25:16.000Z</time>
        <extensions>
          <ns3:TrackPointExtension>
            <ns3:hr>160</ns3:hr>
            <ns3:cad>81</ns3:cad>
          </ns3:TrackPointExtension>
        </extensions>
      </trkpt>
      <trkpt lat="47.55045111291110515594482421875" lon="11.0098163969814777374267578125">
        <ele>1834.800048828125</ele>
        <time>2026-09-01T07:25:17.000Z</time>
        <extensions>
          <ns3:TrackPointExtension>
            <ns3:hr>160</ns3:hr>
            <ns3:cad>81</ns3:cad>
          </ns3:TrackPointExtension>
        </extensions>
      </trkpt>
      <trkpt lat="47.5504416413605213165283203125" lon="11.009806506335735321044921875">
        <ele>1834.4000244140625</ele>
        <time>2026-09-01T07:25:18.000Z</time>
        <extensions>
          <ns3:TrackPointExtension>
            <ns3:hr>160</ns3:hr>
            <ns3:cad>81</ns3:cad>
          </ns3:TrackPointExtension>
        </extensions>
      </trkpt>
      <trkpt lat="47.55043300800025463104248046875" lon="11.00979250855743885040283203125">
        <ele>1834.199951171875</ele>
        <time>2026-09-01T07:25:19.000Z</time>
        <extensions>
          <ns3:TrackPointExtension>
            <ns3:hr>160</ns3:hr>
            <ns3:cad>81</ns3:cad>
          </ns3:TrackPointExtension>
        </extensions>
      </trkpt>
      <trkpt lat="47.55042429082095623016357421875" lon="11.009773313999176025390625">
        <ele>1833.800048828125</ele>
        <time>2026-09-01T07:25:20.000Z</time>
        <extensions>
          <ns3:TrackPointExtension>
            <ns3:hr>160</ns3:hr>
            <ns3:cad>81</ns3:cad>
          </ns3:TrackPointExtension>
        </extensions>
      </trkpt>
      <trkpt lat="47.55041959695518016815185546875" lon="11.00974825210869312286376953125">
        <ele>1833.4000244140625</ele>
        <time>2026-09-01T07:25:21.000Z</time>
        <extensions>
          <ns3:TrackPointExtension>
            <ns3:hr>160</ns3:hr>
            <ns3:cad>81</ns3:cad>
          </ns3:TrackPointExtension>
        </extensions>
      </trkpt>
      <trkpt lat="47.5504119694232940673828125" lon="11.0097252018749713897705078125">
        <ele>1833</ele>
        <time>2026-09-01T07:25:22.000Z</time>
        <extensions>
          <ns3:TrackPointExtension>
            <ns3:hr>160</ns3:hr>
            <ns3:cad>81</ns3:cad>
          </ns3:TrackPointExtension>
        </extensions>
      </trkpt>
      <trkpt lat="47.5504057668149471282958984375" lon="11.009700559079647064208984375">
        <ele>1832.5999755859375</ele>
        <time>2026-09-01T07:25:23.000Z</time>
        <extensions>
          <ns3:TrackPointExtension>
            <ns3:hr>160</ns3:hr>
            <ns3:cad>68</ns3:cad>
          </ns3:TrackPointExtension>
        </extensions>
      </trkpt>
      <trkpt lat="47.55040165968239307403564453125" lon="11.0096727311611175537109375">
        <ele>1832.199951171875</ele>
        <time>2026-09-01T07:25:24.000Z</time>
        <extensions>
          <ns3:TrackPointExtension>
            <ns3:hr>160</ns3:hr>
            <ns3:cad>68</ns3:cad>
          </ns3:TrackPointExtension>
        </extensions>
      </trkpt>
      <trkpt lat="47.55039579235017299652099609375" lon="11.00963761098682880401611328125">
        <ele>1831.800048828125</ele>
        <time>2026-09-01T07:25:25.000Z</time>
        <extensions>
          <ns3:TrackPointExtension>
            <ns3:hr>159</ns3:hr>
            <ns3:cad>72</ns3:cad>
          </ns3:TrackPointExtension>
        </extensions>
      </trkpt>
      <trkpt lat="47.5503859855234622955322265625" lon="11.00961514748632907867431640625">
        <ele>1831.5999755859375</ele>
        <time>2026-09-01T07:25:26.000Z</time>
        <extensions>
          <ns3:TrackPointExtension>
            <ns3:hr>159</ns3:hr>
            <ns3:cad>75</ns3:cad>
          </ns3:TrackPointExtension>
        </extensions>
      </trkpt>
      <trkpt lat="47.55037751980125904083251953125" lon="11.00959293544292449951171875">
        <ele>1831.199951171875</ele>
        <time>2026-09-01T07:25:27.000Z</time>
        <extensions>
          <ns3:TrackPointExtension>
            <ns3:hr>159</ns3:hr>
            <ns3:cad>77</ns3:cad>
          </ns3:TrackPointExtension>
        </extensions>
      </trkpt>
      <trkpt lat="47.55036947317421436309814453125" lon="11.00957005284726619720458984375">
        <ele>1831</ele>
        <time>2026-09-01T07:25:28.000Z</time>
        <extensions>
          <ns3:TrackPointExtension>
            <ns3:hr>159</ns3:hr>
            <ns3:cad>77</ns3:cad>
          </ns3:TrackPointExtension>
        </extensions>
      </trkpt>
      <trkpt lat="47.55036025308072566986083984375" lon="11.00954758934676647186279296875">
        <ele>1830.5999755859375</ele>
        <time>2026-09-01T07:25:29.000Z</time>
        <extensions>
          <ns3:TrackPointExtension>
            <ns3:hr>159</ns3:hr>
            <ns3:cad>79</ns3:cad>
          </ns3:TrackPointExtension>
        </extensions>
      </trkpt>
      <trkpt lat="47.55035036243498325347900390625" lon="11.00952663458883762359619140625">
        <ele>1830.199951171875</ele>
        <time>2026-09-01T07:25:30.000Z</time>
        <extensions>
          <ns3:TrackPointExtension>
            <ns3:hr>159</ns3:hr>
            <ns3:cad>79</ns3:cad>
          </ns3:TrackPointExtension>
        </extensions>
      </trkpt>
      <trkpt lat="47.55034214816987514495849609375" lon="11.00950266234576702117919921875">
        <ele>1829.5999755859375</ele>
        <time>2026-09-01T07:25:31.000Z</time>
        <extensions>
          <ns3:TrackPointExtension>
            <ns3:hr>158</ns3:hr>
            <ns3:cad>79</ns3:cad>
          </ns3:TrackPointExtension>
        </extensions>
      </trkpt>
      <trkpt lat="47.55033326335251331329345703125" lon="11.00948640145361423492431640625">
        <ele>1829.199951171875</ele>
        <time>2026-09-01T07:25:32.000Z</time>
        <extensions>
          <ns3:TrackPointExtension>
            <ns3:hr>158</ns3:hr>
            <ns3:cad>80</ns3:cad>
          </ns3:TrackPointExtension>
        </extensions>
      </trkpt>
      <trkpt lat="47.550321109592914581298828125" lon="11.009467542171478271484375">
        <ele>1828.800048828125</ele>
        <time>2026-09-01T07:25:33.000Z</time>
        <extensions>
          <ns3:TrackPointExtension>
            <ns3:hr>158</ns3:hr>
            <ns3:cad>80</ns3:cad>
          </ns3:TrackPointExtension>
        </extensions>
      </trkpt>
      <trkpt lat="47.550311051309108734130859375" lon="11.00944180972874164581298828125">
        <ele>1828.199951171875</ele>
        <time>2026-09-01T07:25:34.000Z</time>
        <extensions>
          <ns3:TrackPointExtension>
            <ns3:hr>158</ns3:hr>
            <ns3:cad>80</ns3:cad>
          </ns3:TrackPointExtension>
        </extensions>
      </trkpt>
      <trkpt lat="47.550303004682064056396484375" lon="11.00941968150436878204345703125">
        <ele>1827.800048828125</ele>
        <time>2026-09-01T07:25:35.000Z</time>
        <extensions>
          <ns3:TrackPointExtension>
            <ns3:hr>157</ns3:hr>
            <ns3:cad>79</ns3:cad>
          </ns3:TrackPointExtension>
        </extensions>
      </trkpt>
      <trkpt lat="47.550296299159526824951171875" lon="11.0093989782035350799560546875">
        <ele>1827.4000244140625</ele>
        <time>2026-09-01T07:25:36.000Z</time>
        <extensions>
          <ns3:TrackPointExtension>
            <ns3:hr>157</ns3:hr>
            <ns3:cad>77</ns3:cad>
          </ns3:TrackPointExtension>
        </extensions>
      </trkpt>
      <trkpt lat="47.55029185675084590911865234375" lon="11.0093775205314159393310546875">
        <ele>1827</ele>
        <time>2026-09-01T07:25:37.000Z</time>
        <extensions>
          <ns3:TrackPointExtension>
            <ns3:hr>157</ns3:hr>
            <ns3:cad>77</ns3:cad>
          </ns3:TrackPointExtension>
        </extensions>
      </trkpt>
      <trkpt lat="47.55028565414249897003173828125" lon="11.00935346446931362152099609375">
        <ele>1826.4000244140625</ele>
        <time>2026-09-01T07:25:38.000Z</time>
        <extensions>
          <ns3:TrackPointExtension>
            <ns3:hr>156</ns3:hr>
            <ns3:cad>77</ns3:cad>
          </ns3:TrackPointExtension>
        </extensions>
      </trkpt>
      <trkpt lat="47.5502793677151203155517578125" lon="11.0093332640826702117919921875">
        <ele>1826</ele>
        <time>2026-09-01T07:25:39.000Z</time>
        <extensions>
          <ns3:TrackPointExtension>
            <ns3:hr>156</ns3:hr>
            <ns3:cad>77</ns3:cad>
          </ns3:TrackPointExtension>
        </extensions>
      </trkpt>
      <trkpt lat="47.55027207545936107635498046875" lon="11.00931189022958278656005859375">
        <ele>1825.5999755859375</ele>
        <time>2026-09-01T07:25:40.000Z</time>
        <extensions>
          <ns3:TrackPointExtension>
            <ns3:hr>155</ns3:hr>
            <ns3:cad>77</ns3:cad>
          </ns3:TrackPointExtension>
        </extensions>
      </trkpt>
      <trkpt lat="47.55026553757488727569580078125" lon="11.00929579697549343109130859375">
        <ele>1825</ele>
        <time>2026-09-01T07:25:41.000Z</time>
        <extensions>
          <ns3:TrackPointExtension>
            <ns3:hr>155</ns3:hr>
            <ns3:cad>77</ns3:cad>
          </ns3:TrackPointExtension>
        </extensions>
      </trkpt>
      <trkpt lat="47.55025598220527172088623046875" lon="11.009278781712055206298828125">
        <ele>1824.199951171875</ele>
        <time>2026-09-01T07:25:42.000Z</time>
        <extensions>
          <ns3:TrackPointExtension>
            <ns3:hr>155</ns3:hr>
            <ns3:cad>77</ns3:cad>
          </ns3:TrackPointExtension>
        </extensions>
      </trkpt>
      <trkpt lat="47.550248019397258758544921875" lon="11.00925539620220661163330078125">
        <ele>1823.5999755859375</ele>
        <time>2026-09-01T07:25:43.000Z</time>
        <extensions>
          <ns3:TrackPointExtension>
            <ns3:hr>155</ns3:hr>
            <ns3:cad>77</ns3:cad>
          </ns3:TrackPointExtension>
        </extensions>
      </trkpt>
      <trkpt lat="47.5502451695501804351806640625" lon="11.0092355310916900634765625">
        <ele>1822.800048828125</ele>
        <time>2026-09-01T07:25:44.000Z</time>
        <extensions>
          <ns3:TrackPointExtension>
            <ns3:hr>155</ns3:hr>
            <ns3:cad>77</ns3:cad>
          </ns3:TrackPointExtension>
        </extensions>
      </trkpt>
      <trkpt lat="47.5502428226172924041748046875" lon="11.009219102561473846435546875">
        <ele>1822.199951171875</ele>
        <time>2026-09-01T07:25:45.000Z</time>
        <extensions>
          <ns3:TrackPointExtension>
            <ns3:hr>154</ns3:hr>
            <ns3:cad>46</ns3:cad>
          </ns3:TrackPointExtension>
        </extensions>
      </trkpt>
      <trkpt lat="47.5502434931695461273193359375" lon="11.0091927833855152130126953125">
        <ele>1821.800048828125</ele>
        <time>2026-09-01T07:25:46.000Z</time>
        <extensions>
          <ns3:TrackPointExtension>
            <ns3:hr>154</ns3:hr>
            <ns3:cad>46</ns3:cad>
          </ns3:TrackPointExtension>
        </extensions>
      </trkpt>
      <trkpt lat="47.55024860613048076629638671875" lon="11.0091669671237468719482421875">
        <ele>1821.4000244140625</ele>
        <time>2026-09-01T07:25:47.000Z</time>
        <extensions>
          <ns3:TrackPointExtension>
            <ns3:hr>154</ns3:hr>
            <ns3:cad>46</ns3:cad>
          </ns3:TrackPointExtension>
        </extensions>
      </trkpt>
      <trkpt lat="47.55028179846704006195068359375" lon="11.00913100875914096832275390625">
        <ele>1820.800048828125</ele>
        <time>2026-09-01T07:25:48.000Z</time>
        <extensions>
          <ns3:TrackPointExtension>
            <ns3:hr>154</ns3:hr>
            <ns3:cad>46</ns3:cad>
          </ns3:TrackPointExtension>
        </extensions>
      </trkpt>
      <trkpt lat="47.5503038428723812103271484375" lon="11.0090989060699939727783203125">
        <ele>1820.5999755859375</ele>
        <time>2026-09-01T07:25:49.000Z</time>
        <extensions>
          <ns3:TrackPointExtension>
            <ns3:hr>154</ns3:hr>
            <ns3:cad>46</ns3:cad>
          </ns3:TrackPointExtension>
        </extensions>
      </trkpt>
      <trkpt lat="47.5503145717084407806396484375" lon="11.0090717487037181854248046875">
        <ele>1820</ele>
        <time>2026-09-01T07:25:50.000Z</time>
        <extensions>
          <ns3:TrackPointExtension>
            <ns3:hr>153</ns3:hr>
            <ns3:cad>79</ns3:cad>
          </ns3:TrackPointExtension>
        </extensions>
      </trkpt>
      <trkpt lat="47.5503253005445003509521484375" lon="11.00905708037316799163818359375">
        <ele>1819.4000244140625</ele>
        <time>2026-09-01T07:25:51.000Z</time>
        <extensions>
          <ns3:TrackPointExtension>
            <ns3:hr>153</ns3:hr>
            <ns3:cad>79</ns3:cad>
          </ns3:TrackPointExtension>
        </extensions>
      </trkpt>
      <trkpt lat="47.5503353588283061981201171875" lon="11.00902564823627471923828125">
        <ele>1819</ele>
        <time>2026-09-01T07:25:52.000Z</time>
        <extensions>
          <ns3:TrackPointExtension>
            <ns3:hr>153</ns3:hr>
            <ns3:cad>79</ns3:cad>
          </ns3:TrackPointExtension>
        </extensions>
      </trkpt>
      <trkpt lat="47.55033410154283046722412109375" lon="11.0089976526796817779541015625">
        <ele>1818.199951171875</ele>
        <time>2026-09-01T07:25:53.000Z</time>
        <extensions>
          <ns3:TrackPointExtension>
            <ns3:hr>153</ns3:hr>
            <ns3:cad>79</ns3:cad>
          </ns3:TrackPointExtension>
        </extensions>
      </trkpt>
      <trkpt lat="47.55033108405768871307373046875" lon="11.00895934738218784332275390625">
        <ele>1817.800048828125</ele>
        <time>2026-09-01T07:25:54.000Z</time>
        <extensions>
          <ns3:TrackPointExtension>
            <ns3:hr>153</ns3:hr>
            <ns3:cad>79</ns3:cad>
          </ns3:TrackPointExtension>
        </extensions>
      </trkpt>
      <trkpt lat="47.55032286979258060455322265625" lon="11.00892833434045314788818359375">
        <ele>1817.4000244140625</ele>
        <time>2026-09-01T07:25:55.000Z</time>
        <extensions>
          <ns3:TrackPointExtension>
            <ns3:hr>153</ns3:hr>
            <ns3:cad>79</ns3:cad>
          </ns3:TrackPointExtension>
        </extensions>
      </trkpt>
      <trkpt lat="47.5503172539174556732177734375" lon="11.00888391025364398956298828125">
        <ele>1816.800048828125</ele>
        <time>2026-09-01T07:25:56.000Z</time>
        <extensions>
          <ns3:TrackPointExtension>
            <ns3:hr>152</ns3:hr>
            <ns3:cad>79</ns3:cad>
          </ns3:TrackPointExtension>
        </extensions>
      </trkpt>
      <trkpt lat="47.55031163804233074188232421875" lon="11.0088561661541461944580078125">
        <ele>1816.199951171875</ele>
        <time>2026-09-01T07:25:57.000Z</time>
        <extensions>
          <ns3:TrackPointExtension>
            <ns3:hr>152</ns3:hr>
            <ns3:cad>90</ns3:cad>
          </ns3:TrackPointExtension>
        </extensions>
      </trkpt>
      <trkpt lat="47.5503031723201274871826171875" lon="11.0088145919144153594970703125">
        <ele>1815.800048828125</ele>
        <time>2026-09-01T07:25:58.000Z</time>
        <extensions>
          <ns3:TrackPointExtension>
            <ns3:hr>152</ns3:hr>
            <ns3:cad>90</ns3:cad>
          </ns3:TrackPointExtension>
        </extensions>
      </trkpt>
      <trkpt lat="47.55029789172112941741943359375" lon="11.00876539014279842376708984375">
        <ele>1815</ele>
        <time>2026-09-01T07:25:59.000Z</time>
        <extensions>
          <ns3:TrackPointExtension>
            <ns3:hr>151</ns3:hr>
            <ns3:cad>90</ns3:cad>
          </ns3:TrackPointExtension>
        </extensions>
      </trkpt>
      <trkpt lat="47.55029135383665561676025390625" lon="11.00872465409338474273681640625">
        <ele>1814.5999755859375</ele>
        <time>2026-09-01T07:26:00.000Z</time>
        <extensions>
          <ns3:TrackPointExtension>
            <ns3:hr>151</ns3:hr>
            <ns3:cad>86</ns3:cad>
          </ns3:TrackPointExtension>
        </extensions>
      </trkpt>
      <trkpt lat="47.55028096027672290802001953125" lon="11.00867561995983123779296875">
        <ele>1814</ele>
        <time>2026-09-01T07:26:01.000Z</time>
        <extensions>
          <ns3:TrackPointExtension>
            <ns3:hr>151</ns3:hr>
            <ns3:cad>85</ns3:cad>
          </ns3:TrackPointExtension>
        </extensions>
      </trkpt>
      <trkpt lat="47.55027408711612224578857421875" lon="11.00863010622560977935791015625">
        <ele>1813.5999755859375</ele>
        <time>2026-09-01T07:26:02.000Z</time>
        <extensions>
          <ns3:TrackPointExtension>
            <ns3:hr>151</ns3:hr>
            <ns3:cad>85</ns3:cad>
          </ns3:TrackPointExtension>
        </extensions>
      </trkpt>
      <trkpt lat="47.5502699799835681915283203125" lon="11.0085829161107540130615234375">
        <ele>1812.5999755859375</ele>
        <time>2026-09-01T07:26:03.000Z</time>
        <extensions>
          <ns3:TrackPointExtension>
            <ns3:hr>151</ns3:hr>
            <ns3:cad>85</ns3:cad>
          </ns3:TrackPointExtension>
        </extensions>
      </trkpt>
      <trkpt lat="47.5502626039087772369384765625" lon="11.00855357944965362548828125">
        <ele>1812.199951171875</ele>
        <time>2026-09-01T07:26:04.000Z</time>
        <extensions>
          <ns3:TrackPointExtension>
            <ns3:hr>152</ns3:hr>
            <ns3:cad>85</ns3:cad>
          </ns3:TrackPointExtension>
        </extensions>
      </trkpt>
      <trkpt lat="47.55026042461395263671875" lon="11.008504964411258697509765625">
        <ele>1811.5999755859375</ele>
        <time>2026-09-01T07:26:05.000Z</time>
        <extensions>
          <ns3:TrackPointExtension>
            <ns3:hr>151</ns3:hr>
            <ns3:cad>85</ns3:cad>
          </ns3:TrackPointExtension>
        </extensions>
      </trkpt>
      <trkpt lat="47.550252377986907958984375" lon="11.00847152061760425567626953125">
        <ele>1811.4000244140625</ele>
        <time>2026-09-01T07:26:06.000Z</time>
        <extensions>
          <ns3:TrackPointExtension>
            <ns3:hr>152</ns3:hr>
            <ns3:cad>85</ns3:cad>
          </ns3:TrackPointExtension>
        </extensions>
      </trkpt>
      <trkpt lat="47.5502542220056056976318359375" lon="11.00842173211276531219482421875">
        <ele>1810.5999755859375</ele>
        <time>2026-09-01T07:26:07.000Z</time>
        <extensions>
          <ns3:TrackPointExtension>
            <ns3:hr>150</ns3:hr>
            <ns3:cad>85</ns3:cad>
          </ns3:TrackPointExtension>
        </extensions>
      </trkpt>
      <trkpt lat="47.550252713263034820556640625" lon="11.008374206721782684326171875">
        <ele>1810</ele>
        <time>2026-09-01T07:26:08.000Z</time>
        <extensions>
          <ns3:TrackPointExtension>
            <ns3:hr>149</ns3:hr>
            <ns3:cad>85</ns3:cad>
          </ns3:TrackPointExtension>
        </extensions>
      </trkpt>
      <trkpt lat="47.55024877376854419708251953125" lon="11.00832466967403888702392578125">
        <ele>1809.800048828125</ele>
        <time>2026-09-01T07:26:09.000Z</time>
        <extensions>
          <ns3:TrackPointExtension>
            <ns3:hr>150</ns3:hr>
            <ns3:cad>85</ns3:cad>
          </ns3:TrackPointExtension>
        </extensions>
      </trkpt>
      <trkpt lat="47.550245337188243865966796875" lon="11.008269600570201873779296875">
        <ele>1809</ele>
        <time>2026-09-01T07:26:10.000Z</time>
        <extensions>
          <ns3:TrackPointExtension>
            <ns3:hr>150</ns3:hr>
            <ns3:cad>85</ns3:cad>
          </ns3:TrackPointExtension>
        </extensions>
      </trkpt>
      <trkpt lat="47.5502451695501804351806640625" lon="11.008233726024627685546875">
        <ele>1808.800048828125</ele>
        <time>2026-09-01T07:26:11.000Z</time>
        <extensions>
          <ns3:TrackPointExtension>
            <ns3:hr>151</ns3:hr>
            <ns3:cad>85</ns3:cad>
          </ns3:TrackPointExtension>
        </extensions>
      </trkpt>
      <trkpt lat="47.5502434931695461273193359375" lon="11.00817446596920490264892578125">
        <ele>1808.5999755859375</ele>
        <time>2026-09-01T07:26:12.000Z</time>
        <extensions>
          <ns3:TrackPointExtension>
            <ns3:hr>151</ns3:hr>
            <ns3:cad>85</ns3:cad>
          </ns3:TrackPointExtension>
        </extensions>
      </trkpt>
      <trkpt lat="47.550243996083736419677734375" lon="11.00812442600727081298828125">
        <ele>1808.5999755859375</ele>
        <time>2026-09-01T07:26:13.000Z</time>
        <extensions>
          <ns3:TrackPointExtension>
            <ns3:hr>152</ns3:hr>
            <ns3:cad>85</ns3:cad>
          </ns3:TrackPointExtension>
        </extensions>
      </trkpt>
      <trkpt lat="47.55023720674216747283935546875" lon="11.00808880291879177093505859375">
        <ele>1808.4000244140625</ele>
        <time>2026-09-01T07:26:14.000Z</time>
        <extensions>
          <ns3:TrackPointExtension>
            <ns3:hr>152</ns3:hr>
            <ns3:cad>85</ns3:cad>
          </ns3:TrackPointExtension>
        </extensions>
      </trkpt>
      <trkpt lat="47.5502349436283111572265625" lon="11.00804253481328487396240234375">
        <ele>1808.4000244140625</ele>
        <time>2026-09-01T07:26:15.000Z</time>
        <extensions>
          <ns3:TrackPointExtension>
            <ns3:hr>153</ns3:hr>
            <ns3:cad>0</ns3:cad>
          </ns3:TrackPointExtension>
        </extensions>
      </trkpt>
      <trkpt lat="47.55023418925702571868896484375" lon="11.0080102644860744476318359375">
        <ele>1808.4000244140625</ele>
        <time>2026-09-01T07:26:16.000Z</time>
        <extensions>
          <ns3:TrackPointExtension>
            <ns3:hr>154</ns3:hr>
            <ns3:cad>0</ns3:cad>
          </ns3:TrackPointExtension>
        </extensions>
      </trkpt>
      <trkpt lat="47.5502215325832366943359375" lon="11.007955782115459442138671875">
        <ele>1808.199951171875</ele>
        <time>2026-09-01T07:26:17.000Z</time>
        <extensions>
          <ns3:TrackPointExtension>
            <ns3:hr>154</ns3:hr>
            <ns3:cad>0</ns3:cad>
          </ns3:TrackPointExtension>
        </extensions>
      </trkpt>
      <trkpt lat="47.55020988173782825469970703125" lon="11.00792753510177135467529296875">
        <ele>1808</ele>
        <time>2026-09-01T07:26:18.000Z</time>
        <extensions>
          <ns3:TrackPointExtension>
            <ns3:hr>155</ns3:hr>
            <ns3:cad>0</ns3:cad>
          </ns3:TrackPointExtension>
        </extensions>
      </trkpt>
      <trkpt lat="47.55020451731979846954345703125" lon="11.00789149291813373565673828125">
        <ele>1807.4000244140625</ele>
        <time>2026-09-01T07:26:19.000Z</time>
        <extensions>
          <ns3:TrackPointExtension>
            <ns3:hr>155</ns3:hr>
            <ns3:cad>0</ns3:cad>
          </ns3:TrackPointExtension>
        </extensions>
      </trkpt>
      <trkpt lat="47.5501978956162929534912109375" lon="11.00785880349576473236083984375">
        <ele>1807</ele>
        <time>2026-09-01T07:26:20.000Z</time>
        <extensions>
          <ns3:TrackPointExtension>
            <ns3:hr>156</ns3:hr>
            <ns3:cad>0</ns3:cad>
          </ns3:TrackPointExtension>
        </extensions>
      </trkpt>
      <trkpt lat="47.55018733441829681396484375" lon="11.00780901499092578887939453125">
        <ele>1807</ele>
        <time>2026-09-01T07:26:21.000Z</time>
        <extensions>
          <ns3:TrackPointExtension>
            <ns3:hr>157</ns3:hr>
            <ns3:cad>0</ns3:cad>
          </ns3:TrackPointExtension>
        </extensions>
      </trkpt>
      <trkpt lat="47.5501794554293155670166015625" lon="11.00777884013950824737548828125">
        <ele>1806.800048828125</ele>
        <time>2026-09-01T07:26:22.000Z</time>
        <extensions>
          <ns3:TrackPointExtension>
            <ns3:hr>157</ns3:hr>
            <ns3:cad>0</ns3:cad>
          </ns3:TrackPointExtension>
        </extensions>
      </trkpt>
      <trkpt lat="47.55017400719225406646728515625" lon="11.00775000639259815216064453125">
        <ele>1806.800048828125</ele>
        <time>2026-09-01T07:26:23.000Z</time>
        <extensions>
          <ns3:TrackPointExtension>
            <ns3:hr>157</ns3:hr>
            <ns3:cad>0</ns3:cad>
          </ns3:TrackPointExtension>
        </extensions>
      </trkpt>
      <trkpt lat="47.55017124116420745849609375" lon="11.007674820721149444580078125">
        <ele>1806.800048828125</ele>
        <time>2026-09-01T07:26:24.000Z</time>
        <extensions>
          <ns3:TrackPointExtension>
            <ns3:hr>157</ns3:hr>
            <ns3:cad>0</ns3:cad>
          </ns3:TrackPointExtension>
        </extensions>
      </trkpt>
      <trkpt lat="47.5501603446900844573974609375" lon="11.00764431059360504150390625">
        <ele>1806.800048828125</ele>
        <time>2026-09-01T07:26:25.000Z</time>
        <extensions>
          <ns3:TrackPointExtension>
            <ns3:hr>158</ns3:hr>
            <ns3:cad>0</ns3:cad>
          </ns3:TrackPointExtension>
        </extensions>
      </trkpt>
      <trkpt lat="47.55016344599425792694091796875" lon="11.0075915046036243438720703125">
        <ele>1806.4000244140625</ele>
        <time>2026-09-01T07:26:26.000Z</time>
        <extensions>
          <ns3:TrackPointExtension>
            <ns3:hr>158</ns3:hr>
            <ns3:cad>0</ns3:cad>
          </ns3:TrackPointExtension>
        </extensions>
      </trkpt>
      <trkpt lat="47.5501643680036067962646484375" lon="11.00753107108175754547119140625">
        <ele>1806.199951171875</ele>
        <time>2026-09-01T07:26:27.000Z</time>
        <extensions>
          <ns3:TrackPointExtension>
            <ns3:hr>159</ns3:hr>
            <ns3:cad>0</ns3:cad>
          </ns3:TrackPointExtension>
        </extensions>
      </trkpt>
      <trkpt lat="47.55015690810978412628173828125" lon="11.00750726647675037384033203125">
        <ele>1806.199951171875</ele>
        <time>2026-09-01T07:26:28.000Z</time>
        <extensions>
          <ns3:TrackPointExtension>
            <ns3:hr>158</ns3:hr>
            <ns3:cad>0</ns3:cad>
          </ns3:TrackPointExtension>
        </extensions>
      </trkpt>
      <trkpt lat="47.5501546449959278106689453125" lon="11.0074731521308422088623046875">
        <ele>1806.199951171875</ele>
        <time>2026-09-01T07:26:29.000Z</time>
        <extensions>
          <ns3:TrackPointExtension>
            <ns3:hr>158</ns3:hr>
            <ns3:cad>0</ns3:cad>
          </ns3:TrackPointExtension>
        </extensions>
      </trkpt>
      <trkpt lat="47.55015925504267215728759765625" lon="11.00743643939495086669921875">
        <ele>1806.800048828125</ele>
        <time>2026-09-01T07:26:30.000Z</time>
        <extensions>
          <ns3:TrackPointExtension>
            <ns3:hr>159</ns3:hr>
            <ns3:cad>0</ns3:cad>
          </ns3:TrackPointExtension>
        </extensions>
      </trkpt>
      <trkpt lat="47.550157494843006134033203125" lon="11.00741229951381683349609375">
        <ele>1807.4000244140625</ele>
        <time>2026-09-01T07:26:31.000Z</time>
        <extensions>
          <ns3:TrackPointExtension>
            <ns3:hr>159</ns3:hr>
            <ns3:cad>0</ns3:cad>
          </ns3:TrackPointExtension>
        </extensions>
      </trkpt>
      <trkpt lat="47.5501422397792339324951171875" lon="11.00739025510847568511962890625">
        <ele>1808.199951171875</ele>
        <time>2026-09-01T07:26:32.000Z</time>
        <extensions>
          <ns3:TrackPointExtension>
            <ns3:hr>160</ns3:hr>
            <ns3:cad>0</ns3:cad>
          </ns3:TrackPointExtension>
        </extensions>
      </trkpt>
      <trkpt lat="47.55013075657188892364501953125" lon="11.0073970444500446319580078125">
        <ele>1808.800048828125</ele>
        <time>2026-09-01T07:26:33.000Z</time>
        <extensions>
          <ns3:TrackPointExtension>
            <ns3:hr>160</ns3:hr>
            <ns3:cad>0</ns3:cad>
          </ns3:TrackPointExtension>
        </extensions>
      </trkpt>
      <trkpt lat="47.5501167587935924530029296875" lon="11.00739042274653911590576171875">
        <ele>1809.199951171875</ele>
        <time>2026-09-01T07:26:34.000Z</time>
        <extensions>
          <ns3:TrackPointExtension>
            <ns3:hr>160</ns3:hr>
            <ns3:cad>0</ns3:cad>
          </ns3:TrackPointExtension>
        </extensions>
      </trkpt>
      <trkpt lat="47.55010929889976978302001953125" lon="11.00737617351114749908447265625">
        <ele>1809.199951171875</ele>
        <time>2026-09-01T07:26:35.000Z</time>
        <extensions>
          <ns3:TrackPointExtension>
            <ns3:hr>160</ns3:hr>
            <ns3:cad>71</ns3:cad>
          </ns3:TrackPointExtension>
        </extensions>
      </trkpt>
      <trkpt lat="47.55011114291846752166748046875" lon="11.00735731422901153564453125">
        <ele>1809</ele>
        <time>2026-09-01T07:26:36.000Z</time>
        <extensions>
          <ns3:TrackPointExtension>
            <ns3:hr>160</ns3:hr>
            <ns3:cad>71</ns3:cad>
          </ns3:TrackPointExtension>
        </extensions>
      </trkpt>
      <trkpt lat="47.55010862834751605987548828125" lon="11.0073350183665752410888671875">
        <ele>1808.199951171875</ele>
        <time>2026-09-01T07:26:37.000Z</time>
        <extensions>
          <ns3:TrackPointExtension>
            <ns3:hr>159</ns3:hr>
            <ns3:cad>71</ns3:cad>
          </ns3:TrackPointExtension>
        </extensions>
      </trkpt>
      <trkpt lat="47.5501026771962642669677734375" lon="11.00730543024837970733642578125">
        <ele>1807.5999755859375</ele>
        <time>2026-09-01T07:26:38.000Z</time>
        <extensions>
          <ns3:TrackPointExtension>
            <ns3:hr>158</ns3:hr>
            <ns3:cad>71</ns3:cad>
          </ns3:TrackPointExtension>
        </extensions>
      </trkpt>
      <trkpt lat="47.55009689368307590484619140625" lon="11.0072815418243408203125">
        <ele>1806.800048828125</ele>
        <time>2026-09-01T07:26:39.000Z</time>
        <extensions>
          <ns3:TrackPointExtension>
            <ns3:hr>157</ns3:hr>
            <ns3:cad>71</ns3:cad>
          </ns3:TrackPointExtension>
        </extensions>
      </trkpt>
      <trkpt lat="47.55008834414184093475341796875" lon="11.00726201198995113372802734375">
        <ele>1805.800048828125</ele>
        <time>2026-09-01T07:26:40.000Z</time>
        <extensions>
          <ns3:TrackPointExtension>
            <ns3:hr>156</ns3:hr>
            <ns3:cad>71</ns3:cad>
          </ns3:TrackPointExtension>
        </extensions>
      </trkpt>
      <trkpt lat="47.55008281208574771881103515625" lon="11.00724575109779834747314453125">
        <ele>1805</ele>
        <time>2026-09-01T07:26:41.000Z</time>
        <extensions>
          <ns3:TrackPointExtension>
            <ns3:hr>154</ns3:hr>
            <ns3:cad>79</ns3:cad>
          </ns3:TrackPointExtension>
        </extensions>
      </trkpt>
      <trkpt lat="47.55007526837289333343505859375" lon="11.00723099894821643829345703125">
        <ele>1804.4000244140625</ele>
        <time>2026-09-01T07:26:42.000Z</time>
        <extensions>
          <ns3:TrackPointExtension>
            <ns3:hr>153</ns3:hr>
            <ns3:cad>79</ns3:cad>
          </ns3:TrackPointExtension>
        </extensions>
      </trkpt>
      <trkpt lat="47.55004073493182659149169921875" lon="11.00726100616157054901123046875">
        <ele>1803.5999755859375</ele>
        <time>2026-09-01T07:26:43.000Z</time>
        <extensions>
          <ns3:TrackPointExtension>
            <ns3:hr>153</ns3:hr>
            <ns3:cad>79</ns3:cad>
          </ns3:TrackPointExtension>
        </extensions>
      </trkpt>
      <trkpt lat="47.55003972910344600677490234375" lon="11.0072454996407032012939453125">
        <ele>1803</ele>
        <time>2026-09-01T07:26:44.000Z</time>
        <extensions>
          <ns3:TrackPointExtension>
            <ns3:hr>153</ns3:hr>
            <ns3:cad>0</ns3:cad>
          </ns3:TrackPointExtension>
        </extensions>
      </trkpt>
      <trkpt lat="47.55002774298191070556640625" lon="11.00722630508244037628173828125">
        <ele>1802.4000244140625</ele>
        <time>2026-09-01T07:26:45.000Z</time>
        <extensions>
          <ns3:TrackPointExtension>
            <ns3:hr>153</ns3:hr>
            <ns3:cad>0</ns3:cad>
          </ns3:TrackPointExtension>
        </extensions>
      </trkpt>
      <trkpt lat="47.55001575686037540435791015625" lon="11.00721591152250766754150390625">
        <ele>1801.5999755859375</ele>
        <time>2026-09-01T07:26:46.000Z</time>
        <extensions>
          <ns3:TrackPointExtension>
            <ns3:hr>153</ns3:hr>
            <ns3:cad>0</ns3:cad>
          </ns3:TrackPointExtension>
        </extensions>
      </trkpt>
      <trkpt lat="47.55000787787139415740966796875" lon="11.00721247494220733642578125">
        <ele>1801</ele>
        <time>2026-09-01T07:26:47.000Z</time>
        <extensions>
          <ns3:TrackPointExtension>
            <ns3:hr>153</ns3:hr>
            <ns3:cad>41</ns3:cad>
          </ns3:TrackPointExtension>
        </extensions>
      </trkpt>
      <trkpt lat="47.550014667212963104248046875" lon="11.00721172057092189788818359375">
        <ele>1800.4000244140625</ele>
        <time>2026-09-01T07:26:48.000Z</time>
        <extensions>
          <ns3:TrackPointExtension>
            <ns3:hr>152</ns3:hr>
            <ns3:cad>41</ns3:cad>
          </ns3:TrackPointExtension>
        </extensions>
      </trkpt>
      <trkpt lat="47.550015337765216827392578125" lon="11.007205434143543243408203125">
        <ele>1800</ele>
        <time>2026-09-01T07:26:49.000Z</time>
        <extensions>
          <ns3:TrackPointExtension>
            <ns3:hr>152</ns3:hr>
            <ns3:cad>41</ns3:cad>
          </ns3:TrackPointExtension>
        </extensions>
      </trkpt>
      <trkpt lat="47.55001542158424854278564453125" lon="11.0072052665054798126220703125">
        <ele>1799.5999755859375</ele>
        <time>2026-09-01T07:26:50.000Z</time>
        <extensions>
          <ns3:TrackPointExtension>
            <ns3:hr>152</ns3:hr>
            <ns3:cad>41</ns3:cad>
          </ns3:TrackPointExtension>
        </extensions>
      </trkpt>
      <trkpt lat="47.5500084646046161651611328125" lon="11.007185988128185272216796875">
        <ele>1799.199951171875</ele>
        <time>2026-09-01T07:26:51.000Z</time>
        <extensions>
          <ns3:TrackPointExtension>
            <ns3:hr>151</ns3:hr>
            <ns3:cad>41</ns3:cad>
          </ns3:TrackPointExtension>
        </extensions>
      </trkpt>
      <trkpt lat="47.55000418983399868011474609375" lon="11.00717333145439624786376953125">
        <ele>1799</ele>
        <time>2026-09-01T07:26:52.000Z</time>
        <extensions>
          <ns3:TrackPointExtension>
            <ns3:hr>151</ns3:hr>
            <ns3:cad>41</ns3:cad>
          </ns3:TrackPointExtension>
        </extensions>
      </trkpt>
      <trkpt lat="47.5499950535595417022705078125" lon="11.007169224321842193603515625">
        <ele>1798.5999755859375</ele>
        <time>2026-09-01T07:26:53.000Z</time>
        <extensions>
          <ns3:TrackPointExtension>
            <ns3:hr>150</ns3:hr>
            <ns3:cad>75</ns3:cad>
          </ns3:TrackPointExtension>
        </extensions>
      </trkpt>
      <trkpt lat="47.54998893477022647857666015625" lon="11.00716092623770236968994140625">
        <ele>1798.199951171875</ele>
        <time>2026-09-01T07:26:54.000Z</time>
        <extensions>
          <ns3:TrackPointExtension>
            <ns3:hr>150</ns3:hr>
            <ns3:cad>75</ns3:cad>
          </ns3:TrackPointExtension>
        </extensions>
      </trkpt>
      <trkpt lat="47.54998407326638698577880859375" lon="11.00716092623770236968994140625">
        <ele>1797.800048828125</ele>
        <time>2026-09-01T07:26:55.000Z</time>
        <extensions>
          <ns3:TrackPointExtension>
            <ns3:hr>149</ns3:hr>
            <ns3:cad>75</ns3:cad>
          </ns3:TrackPointExtension>
        </extensions>
      </trkpt>
      <trkpt lat="47.54998323507606983184814453125" lon="11.0071563161909580230712890625">
        <ele>1797.4000244140625</ele>
        <time>2026-09-01T07:26:56.000Z</time>
        <extensions>
          <ns3:TrackPointExtension>
            <ns3:hr>148</ns3:hr>
            <ns3:cad>75</ns3:cad>
          </ns3:TrackPointExtension>
        </extensions>
      </trkpt>
      <trkpt lat="47.549982480704784393310546875" lon="11.00713661871850490570068359375">
        <ele>1797.199951171875</ele>
        <time>2026-09-01T07:26:57.000Z</time>
        <extensions>
          <ns3:TrackPointExtension>
            <ns3:hr>147</ns3:hr>
            <ns3:cad>75</ns3:cad>
          </ns3:TrackPointExtension>
        </extensions>
      </trkpt>
      <trkpt lat="47.54997887648642063140869140625" lon="11.00712371058762073516845703125">
        <ele>1796.5999755859375</ele>
        <time>2026-09-01T07:26:58.000Z</time>
        <extensions>
          <ns3:TrackPointExtension>
            <ns3:hr>146</ns3:hr>
            <ns3:cad>75</ns3:cad>
          </ns3:TrackPointExtension>
        </extensions>
      </trkpt>
      <trkpt lat="47.5499749369919300079345703125" lon="11.00710409693419933319091796875">
        <ele>1796.199951171875</ele>
        <time>2026-09-01T07:26:59.000Z</time>
        <extensions>
          <ns3:TrackPointExtension>
            <ns3:hr>145</ns3:hr>
            <ns3:cad>75</ns3:cad>
          </ns3:TrackPointExtension>
        </extensions>
      </trkpt>
      <trkpt lat="47.54996948875486850738525390625" lon="11.00708347745239734649658203125">
        <ele>1796</ele>
        <time>2026-09-01T07:27:00.000Z</time>
        <extensions>
          <ns3:TrackPointExtension>
            <ns3:hr>144</ns3:hr>
            <ns3:cad>75</ns3:cad>
          </ns3:TrackPointExtension>
        </extensions>
      </trkpt>
      <trkpt lat="47.54996747709810733795166015625" lon="11.00706285797059535980224609375">
        <ele>1795.4000244140625</ele>
        <time>2026-09-01T07:27:01.000Z</time>
        <extensions>
          <ns3:TrackPointExtension>
            <ns3:hr>144</ns3:hr>
            <ns3:cad>75</ns3:cad>
          </ns3:TrackPointExtension>
        </extensions>
      </trkpt>
      <trkpt lat="47.549961693584918975830078125" lon="11.0070513747632503509521484375">
        <ele>1794.800048828125</ele>
        <time>2026-09-01T07:27:02.000Z</time>
        <extensions>
          <ns3:TrackPointExtension>
            <ns3:hr>143</ns3:hr>
            <ns3:cad>75</ns3:cad>
          </ns3:TrackPointExtension>
        </extensions>
      </trkpt>
      <trkpt lat="47.54995666444301605224609375" lon="11.007040478289127349853515625">
        <ele>1794.5999755859375</ele>
        <time>2026-09-01T07:27:03.000Z</time>
        <extensions>
          <ns3:TrackPointExtension>
            <ns3:hr>143</ns3:hr>
            <ns3:cad>0</ns3:cad>
          </ns3:TrackPointExtension>
        </extensions>
      </trkpt>
      <trkpt lat="47.549950294196605682373046875" lon="11.00701306946575641632080078125">
        <ele>1793.800048828125</ele>
        <time>2026-09-01T07:27:04.000Z</time>
        <extensions>
          <ns3:TrackPointExtension>
            <ns3:hr>142</ns3:hr>
            <ns3:cad>0</ns3:cad>
          </ns3:TrackPointExtension>
        </extensions>
      </trkpt>
      <trkpt lat="47.54994769580662250518798828125" lon="11.0069916956126689910888671875">
        <ele>1793</ele>
        <time>2026-09-01T07:27:05.000Z</time>
        <extensions>
          <ns3:TrackPointExtension>
            <ns3:hr>141</ns3:hr>
            <ns3:cad>0</ns3:cad>
          </ns3:TrackPointExtension>
        </extensions>
      </trkpt>
      <trkpt lat="47.5499457679688930511474609375" lon="11.00697350688278675079345703125">
        <ele>1792.4000244140625</ele>
        <time>2026-09-01T07:27:06.000Z</time>
        <extensions>
          <ns3:TrackPointExtension>
            <ns3:hr>141</ns3:hr>
            <ns3:cad>0</ns3:cad>
          </ns3:TrackPointExtension>
        </extensions>
      </trkpt>
      <trkpt lat="47.54993998445570468902587890625" lon="11.00694316439330577850341796875">
        <ele>1791.800048828125</ele>
        <time>2026-09-01T07:27:07.000Z</time>
        <extensions>
          <ns3:TrackPointExtension>
            <ns3:hr>140</ns3:hr>
            <ns3:cad>0</ns3:cad>
          </ns3:TrackPointExtension>
        </extensions>
      </trkpt>
      <trkpt lat="47.5499340333044528961181640625" lon="11.00691919215023517608642578125">
        <ele>1791.5999755859375</ele>
        <time>2026-09-01T07:27:08.000Z</time>
        <extensions>
          <ns3:TrackPointExtension>
            <ns3:hr>139</ns3:hr>
            <ns3:cad>0</ns3:cad>
          </ns3:TrackPointExtension>
        </extensions>
      </trkpt>
      <trkpt lat="47.54992925561964511871337890625" lon="11.00689874030649662017822265625">
        <ele>1791.199951171875</ele>
        <time>2026-09-01T07:27:09.000Z</time>
        <extensions>
          <ns3:TrackPointExtension>
            <ns3:hr>139</ns3:hr>
            <ns3:cad>0</ns3:cad>
          </ns3:TrackPointExtension>
        </extensions>
      </trkpt>
      <trkpt lat="47.54992783069610595703125" lon="11.00688080303370952606201171875">
        <ele>1790.800048828125</ele>
        <time>2026-09-01T07:27:10.000Z</time>
        <extensions>
          <ns3:TrackPointExtension>
            <ns3:hr>138</ns3:hr>
            <ns3:cad>0</ns3:cad>
          </ns3:TrackPointExtension>
        </extensions>
      </trkpt>
      <trkpt lat="47.54992204718291759490966796875" lon="11.0068562440574169158935546875">
        <ele>1790.4000244140625</ele>
        <time>2026-09-01T07:27:11.000Z</time>
        <extensions>
          <ns3:TrackPointExtension>
            <ns3:hr>138</ns3:hr>
            <ns3:cad>0</ns3:cad>
          </ns3:TrackPointExtension>
        </extensions>
      </trkpt>
      <trkpt lat="47.54991383291780948638916015625" lon="11.0068666376173496246337890625">
        <ele>1790</ele>
        <time>2026-09-01T07:27:12.000Z</time>
        <extensions>
          <ns3:TrackPointExtension>
            <ns3:hr>137</ns3:hr>
            <ns3:cad>0</ns3:cad>
          </ns3:TrackPointExtension>
        </extensions>
      </trkpt>
      <trkpt lat="47.54992045462131500244140625" lon="11.00684769451618194580078125">
        <ele>1789.4000244140625</ele>
        <time>2026-09-01T07:27:13.000Z</time>
        <extensions>
          <ns3:TrackPointExtension>
            <ns3:hr>137</ns3:hr>
            <ns3:cad>0</ns3:cad>
          </ns3:TrackPointExtension>
        </extensions>
      </trkpt>
      <trkpt lat="47.54994702525436878204345703125" lon="11.0067724250257015228271484375">
        <ele>1788.800048828125</ele>
        <time>2026-09-01T07:27:14.000Z</time>
        <extensions>
          <ns3:TrackPointExtension>
            <ns3:hr>136</ns3:hr>
            <ns3:cad>81</ns3:cad>
          </ns3:TrackPointExtension>
        </extensions>
      </trkpt>
      <trkpt lat="47.54994702525436878204345703125" lon="11.0067724250257015228271484375">
        <ele>1788.4000244140625</ele>
        <time>2026-09-01T07:27:15.000Z</time>
        <extensions>
          <ns3:TrackPointExtension>
            <ns3:hr>136</ns3:hr>
            <ns3:cad>81</ns3:cad>
          </ns3:TrackPointExtension>
        </extensions>
      </trkpt>
      <trkpt lat="47.549953646957874298095703125" lon="11.00674887187778949737548828125">
        <ele>1788.199951171875</ele>
        <time>2026-09-01T07:27:16.000Z</time>
        <extensions>
          <ns3:TrackPointExtension>
            <ns3:hr>136</ns3:hr>
            <ns3:cad>81</ns3:cad>
          </ns3:TrackPointExtension>
        </extensions>
      </trkpt>
      <trkpt lat="47.54995926283299922943115234375" lon="11.00671584717929363250732421875">
        <ele>1788.199951171875</ele>
        <time>2026-09-01T07:27:17.000Z</time>
        <extensions>
          <ns3:TrackPointExtension>
            <ns3:hr>136</ns3:hr>
            <ns3:cad>81</ns3:cad>
          </ns3:TrackPointExtension>
        </extensions>
      </trkpt>
      <trkpt lat="47.54996580071747303009033203125" lon="11.00669338367879390716552734375">
        <ele>1788.5999755859375</ele>
        <time>2026-09-01T07:27:18.000Z</time>
        <extensions>
          <ns3:TrackPointExtension>
            <ns3:hr>137</ns3:hr>
            <ns3:cad>81</ns3:cad>
          </ns3:TrackPointExtension>
        </extensions>
      </trkpt>
      <trkpt lat="47.5499766133725643157958984375" lon="11.00669556297361850738525390625">
        <ele>1789</ele>
        <time>2026-09-01T07:27:19.000Z</time>
        <extensions>
          <ns3:TrackPointExtension>
            <ns3:hr>137</ns3:hr>
            <ns3:cad>81</ns3:cad>
          </ns3:TrackPointExtension>
        </extensions>
      </trkpt>
      <trkpt lat="47.549975104629993438720703125" lon="11.00667226128280162811279296875">
        <ele>1789.5999755859375</ele>
        <time>2026-09-01T07:27:20.000Z</time>
        <extensions>
          <ns3:TrackPointExtension>
            <ns3:hr>139</ns3:hr>
            <ns3:cad>81</ns3:cad>
          </ns3:TrackPointExtension>
        </extensions>
      </trkpt>
      <trkpt lat="47.549975104629993438720703125" lon="11.0066631250083446502685546875">
        <ele>1790.199951171875</ele>
        <time>2026-09-01T07:27:21.000Z</time>
        <extensions>
          <ns3:TrackPointExtension>
            <ns3:hr>139</ns3:hr>
            <ns3:cad>81</ns3:cad>
          </ns3:TrackPointExtension>
        </extensions>
      </trkpt>
      <trkpt lat="47.549977116286754608154296875" lon="11.006635464727878570556640625">
        <ele>1790.4000244140625</ele>
        <time>2026-09-01T07:27:22.000Z</time>
        <extensions>
          <ns3:TrackPointExtension>
            <ns3:hr>139</ns3:hr>
            <ns3:cad>79</ns3:cad>
          </ns3:TrackPointExtension>
        </extensions>
      </trkpt>
      <trkpt lat="47.5499801337718963623046875" lon="11.00661861710250377655029296875">
        <ele>1790.5999755859375</ele>
        <time>2026-09-01T07:27:23.000Z</time>
        <extensions>
          <ns3:TrackPointExtension>
            <ns3:hr>138</ns3:hr>
            <ns3:cad>0</ns3:cad>
          </ns3:TrackPointExtension>
        </extensions>
      </trkpt>
      <trkpt lat="47.54997736774384975433349609375" lon="11.0066148452460765838623046875">
        <ele>1791</ele>
        <time>2026-09-01T07:27:24.000Z</time>
        <extensions>
          <ns3:TrackPointExtension>
            <ns3:hr>138</ns3:hr>
            <ns3:cad>0</ns3:cad>
          </ns3:TrackPointExtension>
        </extensions>
      </trkpt>
      <trkpt lat="47.54997384734451770782470703125" lon="11.0066067986190319061279296875">
        <ele>1791.199951171875</ele>
        <time>2026-09-01T07:27:25.000Z</time>
        <extensions>
          <ns3:TrackPointExtension>
            <ns3:hr>138</ns3:hr>
            <ns3:cad>0</ns3:cad>
          </ns3:TrackPointExtension>
        </extensions>
      </trkpt>
      <trkpt lat="47.54997300915420055389404296875" lon="11.0065907053649425506591796875">
        <ele>1791.4000244140625</ele>
        <time>2026-09-01T07:27:26.000Z</time>
        <extensions>
          <ns3:TrackPointExtension>
            <ns3:hr>138</ns3:hr>
            <ns3:cad>0</ns3:cad>
          </ns3:TrackPointExtension>
        </extensions>
      </trkpt>
      <trkpt lat="47.5499689020216464996337890625" lon="11.006576120853424072265625">
        <ele>1791.800048828125</ele>
        <time>2026-09-01T07:27:27.000Z</time>
        <extensions>
          <ns3:TrackPointExtension>
            <ns3:hr>137</ns3:hr>
            <ns3:cad>0</ns3:cad>
          </ns3:TrackPointExtension>
        </extensions>
      </trkpt>
      <trkpt lat="47.5499678961932659149169921875" lon="11.00656514056026935577392578125">
        <ele>1791.800048828125</ele>
        <time>2026-09-01T07:27:28.000Z</time>
        <extensions>
          <ns3:TrackPointExtension>
            <ns3:hr>137</ns3:hr>
            <ns3:cad>0</ns3:cad>
          </ns3:TrackPointExtension>
        </extensions>
      </trkpt>
      <trkpt lat="47.54996630363166332244873046875" lon="11.00655089132487773895263671875">
        <ele>1792</ele>
        <time>2026-09-01T07:27:29.000Z</time>
        <extensions>
          <ns3:TrackPointExtension>
            <ns3:hr>136</ns3:hr>
            <ns3:cad>0</ns3:cad>
          </ns3:TrackPointExtension>
        </extensions>
      </trkpt>
      <trkpt lat="47.5499642081558704376220703125" lon="11.00653295405209064483642578125">
        <ele>1792.199951171875</ele>
        <time>2026-09-01T07:27:30.000Z</time>
        <extensions>
          <ns3:TrackPointExtension>
            <ns3:hr>136</ns3:hr>
            <ns3:cad>47</ns3:cad>
          </ns3:TrackPointExtension>
        </extensions>
      </trkpt>
      <trkpt lat="47.5499621964991092681884765625" lon="11.0065132565796375274658203125">
        <ele>1792.5999755859375</ele>
        <time>2026-09-01T07:27:31.000Z</time>
        <extensions>
          <ns3:TrackPointExtension>
            <ns3:hr>136</ns3:hr>
            <ns3:cad>47</ns3:cad>
          </ns3:TrackPointExtension>
        </extensions>
      </trkpt>
      <trkpt lat="47.54996194504201412200927734375" lon="11.00649339146912097930908203125">
        <ele>1793</ele>
        <time>2026-09-01T07:27:32.000Z</time>
        <extensions>
          <ns3:TrackPointExtension>
            <ns3:hr>135</ns3:hr>
            <ns3:cad>0</ns3:cad>
          </ns3:TrackPointExtension>
        </extensions>
      </trkpt>
      <trkpt lat="47.54995507188141345977783203125" lon="11.00647847168147563934326171875">
        <ele>1793.4000244140625</ele>
        <time>2026-09-01T07:27:33.000Z</time>
        <extensions>
          <ns3:TrackPointExtension>
            <ns3:hr>135</ns3:hr>
            <ns3:cad>0</ns3:cad>
          </ns3:TrackPointExtension>
        </extensions>
      </trkpt>
      <trkpt lat="47.549951635301113128662109375" lon="11.00646086968481540679931640625">
        <ele>1793.800048828125</ele>
        <time>2026-09-01T07:27:34.000Z</time>
        <extensions>
          <ns3:TrackPointExtension>
            <ns3:hr>135</ns3:hr>
            <ns3:cad>57</ns3:cad>
          </ns3:TrackPointExtension>
        </extensions>
      </trkpt>
      <trkpt lat="47.54994786344468593597412109375" lon="11.006443016231060028076171875">
        <ele>1794.199951171875</ele>
        <time>2026-09-01T07:27:35.000Z</time>
        <extensions>
          <ns3:TrackPointExtension>
            <ns3:hr>136</ns3:hr>
            <ns3:cad>57</ns3:cad>
          </ns3:TrackPointExtension>
        </extensions>
      </trkpt>
      <trkpt lat="47.54994568414986133575439453125" lon="11.0064284317195415496826171875">
        <ele>1794.199951171875</ele>
        <time>2026-09-01T07:27:36.000Z</time>
        <extensions>
          <ns3:TrackPointExtension>
            <ns3:hr>135</ns3:hr>
            <ns3:cad>57</ns3:cad>
          </ns3:TrackPointExtension>
        </extensions>
      </trkpt>
      <trkpt lat="47.54994451068341732025146484375" lon="11.006416194140911102294921875">
        <ele>1794.199951171875</ele>
        <time>2026-09-01T07:27:37.000Z</time>
        <extensions>
          <ns3:TrackPointExtension>
            <ns3:hr>136</ns3:hr>
            <ns3:cad>57</ns3:cad>
          </ns3:TrackPointExtension>
        </extensions>
      </trkpt>
      <trkpt lat="47.549942918121814727783203125" lon="11.00639699958264827728271484375">
        <ele>1794.199951171875</ele>
        <time>2026-09-01T07:27:38.000Z</time>
        <extensions>
          <ns3:TrackPointExtension>
            <ns3:hr>135</ns3:hr>
            <ns3:cad>57</ns3:cad>
          </ns3:TrackPointExtension>
        </extensions>
      </trkpt>
      <trkpt lat="47.54994099028408527374267578125" lon="11.0063771344721317291259765625">
        <ele>1794.199951171875</ele>
        <time>2026-09-01T07:27:39.000Z</time>
        <extensions>
          <ns3:TrackPointExtension>
            <ns3:hr>135</ns3:hr>
            <ns3:cad>57</ns3:cad>
          </ns3:TrackPointExtension>
        </extensions>
      </trkpt>
      <trkpt lat="47.54993948154151439666748046875" lon="11.00635643117129802703857421875">
        <ele>1794.4000244140625</ele>
        <time>2026-09-01T07:27:40.000Z</time>
        <extensions>
          <ns3:TrackPointExtension>
            <ns3:hr>135</ns3:hr>
            <ns3:cad>57</ns3:cad>
          </ns3:TrackPointExtension>
        </extensions>
      </trkpt>
      <trkpt lat="47.54993948154151439666748046875" lon="11.00633664987981319427490234375">
        <ele>1794.5999755859375</ele>
        <time>2026-09-01T07:27:41.000Z</time>
        <extensions>
          <ns3:TrackPointExtension>
            <ns3:hr>134</ns3:hr>
            <ns3:cad>57</ns3:cad>
          </ns3:TrackPointExtension>
        </extensions>
      </trkpt>
      <trkpt lat="47.5499399006366729736328125" lon="11.006320305168628692626953125">
        <ele>1794.800048828125</ele>
        <time>2026-09-01T07:27:42.000Z</time>
        <extensions>
          <ns3:TrackPointExtension>
            <ns3:hr>134</ns3:hr>
            <ns3:cad>57</ns3:cad>
          </ns3:TrackPointExtension>
        </extensions>
      </trkpt>
      <trkpt lat="47.549940906465053558349609375" lon="11.00630278699100017547607421875">
        <ele>1795</ele>
        <time>2026-09-01T07:27:43.000Z</time>
        <extensions>
          <ns3:TrackPointExtension>
            <ns3:hr>134</ns3:hr>
            <ns3:cad>57</ns3:cad>
          </ns3:TrackPointExtension>
        </extensions>
      </trkpt>
      <trkpt lat="47.54994182847440242767333984375" lon="11.0062839277088642120361328125">
        <ele>1795</ele>
        <time>2026-09-01T07:27:44.000Z</time>
        <extensions>
          <ns3:TrackPointExtension>
            <ns3:hr>134</ns3:hr>
            <ns3:cad>0</ns3:cad>
          </ns3:TrackPointExtension>
        </extensions>
      </trkpt>
      <trkpt lat="47.54994316957890987396240234375" lon="11.006269343197345733642578125">
        <ele>1795</ele>
        <time>2026-09-01T07:27:45.000Z</time>
        <extensions>
          <ns3:TrackPointExtension>
            <ns3:hr>134</ns3:hr>
            <ns3:cad>0</ns3:cad>
          </ns3:TrackPointExtension>
        </extensions>
      </trkpt>
      <trkpt lat="47.5499427504837512969970703125" lon="11.0062555968761444091796875">
        <ele>1795</ele>
        <time>2026-09-01T07:27:46.000Z</time>
        <extensions>
          <ns3:TrackPointExtension>
            <ns3:hr>134</ns3:hr>
            <ns3:cad>63</ns3:cad>
          </ns3:TrackPointExtension>
        </extensions>
      </trkpt>
      <trkpt lat="47.549943588674068450927734375" lon="11.00623690523207187652587890625">
        <ele>1795</ele>
        <time>2026-09-01T07:27:47.000Z</time>
        <extensions>
          <ns3:TrackPointExtension>
            <ns3:hr>135</ns3:hr>
            <ns3:cad>63</ns3:cad>
          </ns3:TrackPointExtension>
        </extensions>
      </trkpt>
      <trkpt lat="47.5499437563121318817138671875" lon="11.0062158666551113128662109375">
        <ele>1795.199951171875</ele>
        <time>2026-09-01T07:27:48.000Z</time>
        <extensions>
          <ns3:TrackPointExtension>
            <ns3:hr>135</ns3:hr>
            <ns3:cad>63</ns3:cad>
          </ns3:TrackPointExtension>
        </extensions>
      </trkpt>
      <trkpt lat="47.549941241741180419921875" lon="11.00619315169751644134521484375">
        <ele>1795.5999755859375</ele>
        <time>2026-09-01T07:27:49.000Z</time>
        <extensions>
          <ns3:TrackPointExtension>
            <ns3:hr>136</ns3:hr>
            <ns3:cad>60</ns3:cad>
          </ns3:TrackPointExtension>
        </extensions>
      </trkpt>
      <trkpt lat="47.549941241741180419921875" lon="11.00617982447147369384765625">
        <ele>1796</ele>
        <time>2026-09-01T07:27:50.000Z</time>
        <extensions>
          <ns3:TrackPointExtension>
            <ns3:hr>137</ns3:hr>
            <ns3:cad>60</ns3:cad>
          </ns3:TrackPointExtension>
        </extensions>
      </trkpt>
      <trkpt lat="47.54994149319827556610107421875" lon="11.0061662457883358001708984375">
        <ele>1796.199951171875</ele>
        <time>2026-09-01T07:27:51.000Z</time>
        <extensions>
          <ns3:TrackPointExtension>
            <ns3:hr>138</ns3:hr>
            <ns3:cad>60</ns3:cad>
          </ns3:TrackPointExtension>
        </extensions>
      </trkpt>
      <trkpt lat="47.549941241741180419921875" lon="11.00614688359200954437255859375">
        <ele>1796.4000244140625</ele>
        <time>2026-09-01T07:27:52.000Z</time>
        <extensions>
          <ns3:TrackPointExtension>
            <ns3:hr>139</ns3:hr>
            <ns3:cad>60</ns3:cad>
          </ns3:TrackPointExtension>
        </extensions>
      </trkpt>
      <trkpt lat="47.549938224256038665771484375" lon="11.0061300359666347503662109375">
        <ele>1796.4000244140625</ele>
        <time>2026-09-01T07:27:53.000Z</time>
        <extensions>
          <ns3:TrackPointExtension>
            <ns3:hr>139</ns3:hr>
            <ns3:cad>60</ns3:cad>
          </ns3:TrackPointExtension>
        </extensions>
      </trkpt>
      <trkpt lat="47.54993361420929431915283203125" lon="11.0061099193990230560302734375">
        <ele>1796.4000244140625</ele>
        <time>2026-09-01T07:27:54.000Z</time>
        <extensions>
          <ns3:TrackPointExtension>
            <ns3:hr>140</ns3:hr>
            <ns3:cad>60</ns3:cad>
          </ns3:TrackPointExtension>
        </extensions>
      </trkpt>
      <trkpt lat="47.54993109963834285736083984375" lon="11.00609407760202884674072265625">
        <ele>1796.199951171875</ele>
        <time>2026-09-01T07:27:55.000Z</time>
        <extensions>
          <ns3:TrackPointExtension>
            <ns3:hr>141</ns3:hr>
            <ns3:cad>60</ns3:cad>
          </ns3:TrackPointExtension>
        </extensions>
      </trkpt>
      <trkpt lat="47.54992724396288394927978515625" lon="11.00607379339635372161865234375">
        <ele>1796.4000244140625</ele>
        <time>2026-09-01T07:27:56.000Z</time>
        <extensions>
          <ns3:TrackPointExtension>
            <ns3:hr>141</ns3:hr>
            <ns3:cad>60</ns3:cad>
          </ns3:TrackPointExtension>
        </extensions>
      </trkpt>
      <trkpt lat="47.54992305301129817962646484375" lon="11.0060549341142177581787109375">
        <ele>1796.5999755859375</ele>
        <time>2026-09-01T07:27:57.000Z</time>
        <extensions>
          <ns3:TrackPointExtension>
            <ns3:hr>142</ns3:hr>
            <ns3:cad>60</ns3:cad>
          </ns3:TrackPointExtension>
        </extensions>
      </trkpt>
      <trkpt lat="47.5499176047742366790771484375" lon="11.0060354880988597869873046875">
        <ele>1797</ele>
        <time>2026-09-01T07:27:58.000Z</time>
        <extensions>
          <ns3:TrackPointExtension>
            <ns3:hr>142</ns3:hr>
            <ns3:cad>60</ns3:cad>
          </ns3:TrackPointExtension>
        </extensions>
      </trkpt>
      <trkpt lat="47.54991265945136547088623046875" lon="11.006018556654453277587890625">
        <ele>1797.4000244140625</ele>
        <time>2026-09-01T07:27:59.000Z</time>
        <extensions>
          <ns3:TrackPointExtension>
            <ns3:hr>143</ns3:hr>
            <ns3:cad>60</ns3:cad>
          </ns3:TrackPointExtension>
        </extensions>
      </trkpt>
      <trkpt lat="47.54990830086171627044677734375" lon="11.0060063190758228302001953125">
        <ele>1797.5999755859375</ele>
        <time>2026-09-01T07:28:00.000Z</time>
        <extensions>
          <ns3:TrackPointExtension>
            <ns3:hr>144</ns3:hr>
            <ns3:cad>57</ns3:cad>
          </ns3:TrackPointExtension>
        </extensions>
      </trkpt>
      <trkpt lat="47.5499021820724010467529296875" lon="11.0059865377843379974365234375">
        <ele>1797.5999755859375</ele>
        <time>2026-09-01T07:28:01.000Z</time>
        <extensions>
          <ns3:TrackPointExtension>
            <ns3:hr>144</ns3:hr>
            <ns3:cad>57</ns3:cad>
          </ns3:TrackPointExtension>
        </extensions>
      </trkpt>
      <trkpt lat="47.54989824257791042327880859375" lon="11.0059721209108829498291015625">
        <ele>1797.800048828125</ele>
        <time>2026-09-01T07:28:02.000Z</time>
        <extensions>
          <ns3:TrackPointExtension>
            <ns3:hr>145</ns3:hr>
            <ns3:cad>0</ns3:cad>
          </ns3:TrackPointExtension>
        </extensions>
      </trkpt>
      <trkpt lat="47.54989287815988063812255859375" lon="11.0059530101716518402099609375">
        <ele>1797.800048828125</ele>
        <time>2026-09-01T07:28:03.000Z</time>
        <extensions>
          <ns3:TrackPointExtension>
            <ns3:hr>146</ns3:hr>
            <ns3:cad>0</ns3:cad>
          </ns3:TrackPointExtension>
        </extensions>
      </trkpt>
      <trkpt lat="47.5498877651989459991455078125" lon="11.00593666546046733856201171875">
        <ele>1797.800048828125</ele>
        <time>2026-09-01T07:28:04.000Z</time>
        <extensions>
          <ns3:TrackPointExtension>
            <ns3:hr>146</ns3:hr>
            <ns3:cad>0</ns3:cad>
          </ns3:TrackPointExtension>
        </extensions>
      </trkpt>
      <trkpt lat="47.549882233142852783203125" lon="11.0059094242751598358154296875">
        <ele>1797.800048828125</ele>
        <time>2026-09-01T07:28:05.000Z</time>
        <extensions>
          <ns3:TrackPointExtension>
            <ns3:hr>147</ns3:hr>
            <ns3:cad>0</ns3:cad>
          </ns3:TrackPointExtension>
        </extensions>
      </trkpt>
      <trkpt lat="47.54987661726772785186767578125" lon="11.00587514229118824005126953125">
        <ele>1798</ele>
        <time>2026-09-01T07:28:06.000Z</time>
        <extensions>
          <ns3:TrackPointExtension>
            <ns3:hr>147</ns3:hr>
            <ns3:cad>0</ns3:cad>
          </ns3:TrackPointExtension>
        </extensions>
      </trkpt>
      <trkpt lat="47.549872510135173797607421875" lon="11.00583910010755062103271484375">
        <ele>1798</ele>
        <time>2026-09-01T07:28:07.000Z</time>
        <extensions>
          <ns3:TrackPointExtension>
            <ns3:hr>148</ns3:hr>
            <ns3:cad>0</ns3:cad>
          </ns3:TrackPointExtension>
        </extensions>
      </trkpt>
      <trkpt lat="47.5498703308403491973876953125" lon="11.0058078356087207794189453125">
        <ele>1798.199951171875</ele>
        <time>2026-09-01T07:28:08.000Z</time>
        <extensions>
          <ns3:TrackPointExtension>
            <ns3:hr>148</ns3:hr>
            <ns3:cad>0</ns3:cad>
          </ns3:TrackPointExtension>
        </extensions>
      </trkpt>
      <trkpt lat="47.549870498478412628173828125" lon="11.005780510604381561279296875">
        <ele>1798.199951171875</ele>
        <time>2026-09-01T07:28:09.000Z</time>
        <extensions>
          <ns3:TrackPointExtension>
            <ns3:hr>149</ns3:hr>
            <ns3:cad>0</ns3:cad>
          </ns3:TrackPointExtension>
        </extensions>
      </trkpt>
      <trkpt lat="47.5498874299228191375732421875" lon="11.0057612322270870208740234375">
        <ele>1798.199951171875</ele>
        <time>2026-09-01T07:28:10.000Z</time>
        <extensions>
          <ns3:TrackPointExtension>
            <ns3:hr>149</ns3:hr>
            <ns3:cad>73</ns3:cad>
          </ns3:TrackPointExtension>
        </extensions>
      </trkpt>
      <trkpt lat="47.54988960921764373779296875" lon="11.00574203766882419586181640625">
        <ele>1798</ele>
        <time>2026-09-01T07:28:11.000Z</time>
        <extensions>
          <ns3:TrackPointExtension>
            <ns3:hr>150</ns3:hr>
            <ns3:cad>73</ns3:cad>
          </ns3:TrackPointExtension>
        </extensions>
      </trkpt>
      <trkpt lat="47.54989187233150005340576171875" lon="11.0057233460247516632080078125">
        <ele>1797.800048828125</ele>
        <time>2026-09-01T07:28:12.000Z</time>
        <extensions>
          <ns3:TrackPointExtension>
            <ns3:hr>151</ns3:hr>
            <ns3:cad>73</ns3:cad>
          </ns3:TrackPointExtension>
        </extensions>
      </trkpt>
      <trkpt lat="47.549889944493770599365234375" lon="11.00571102462708950042724609375">
        <ele>1797.4000244140625</ele>
        <time>2026-09-01T07:28:13.000Z</time>
        <extensions>
          <ns3:TrackPointExtension>
            <ns3:hr>152</ns3:hr>
            <ns3:cad>76</ns3:cad>
          </ns3:TrackPointExtension>
        </extensions>
      </trkpt>
      <trkpt lat="47.5498887710273265838623046875" lon="11.005689986050128936767578125">
        <ele>1797</ele>
        <time>2026-09-01T07:28:14.000Z</time>
        <extensions>
          <ns3:TrackPointExtension>
            <ns3:hr>152</ns3:hr>
            <ns3:cad>76</ns3:cad>
          </ns3:TrackPointExtension>
        </extensions>
      </trkpt>
      <trkpt lat="47.54988684318959712982177734375" lon="11.00566760636866092681884765625">
        <ele>1796.5999755859375</ele>
        <time>2026-09-01T07:28:15.000Z</time>
        <extensions>
          <ns3:TrackPointExtension>
            <ns3:hr>152</ns3:hr>
            <ns3:cad>76</ns3:cad>
          </ns3:TrackPointExtension>
        </extensions>
      </trkpt>
      <trkpt lat="47.54987326450645923614501953125" lon="11.0056395269930362701416015625">
        <ele>1796.5999755859375</ele>
        <time>2026-09-01T07:28:16.000Z</time>
        <extensions>
          <ns3:TrackPointExtension>
            <ns3:hr>152</ns3:hr>
            <ns3:cad>76</ns3:cad>
          </ns3:TrackPointExtension>
        </extensions>
      </trkpt>
      <trkpt lat="47.549862451851367950439453125" lon="11.00562603212893009185791015625">
        <ele>1796.5999755859375</ele>
        <time>2026-09-01T07:28:17.000Z</time>
        <extensions>
          <ns3:TrackPointExtension>
            <ns3:hr>151</ns3:hr>
            <ns3:cad>76</ns3:cad>
          </ns3:TrackPointExtension>
        </extensions>
      </trkpt>
      <trkpt lat="47.5498465262353420257568359375" lon="11.005603484809398651123046875">
        <ele>1796.800048828125</ele>
        <time>2026-09-01T07:28:18.000Z</time>
        <extensions>
          <ns3:TrackPointExtension>
            <ns3:hr>150</ns3:hr>
            <ns3:cad>76</ns3:cad>
          </ns3:TrackPointExtension>
        </extensions>
      </trkpt>
      <trkpt lat="47.54983638413250446319580078125" lon="11.00557808764278888702392578125">
        <ele>1796.800048828125</ele>
        <time>2026-09-01T07:28:19.000Z</time>
        <extensions>
          <ns3:TrackPointExtension>
            <ns3:hr>149</ns3:hr>
            <ns3:cad>0</ns3:cad>
          </ns3:TrackPointExtension>
        </extensions>
      </trkpt>
      <trkpt lat="47.54982783459126949310302734375" lon="11.005562581121921539306640625">
        <ele>1797</ele>
        <time>2026-09-01T07:28:20.000Z</time>
        <extensions>
          <ns3:TrackPointExtension>
            <ns3:hr>149</ns3:hr>
            <ns3:cad>0</ns3:cad>
          </ns3:TrackPointExtension>
        </extensions>
      </trkpt>
      <trkpt lat="47.54982532002031803131103515625" lon="11.00553969852626323699951171875">
        <ele>1796.800048828125</ele>
        <time>2026-09-01T07:28:21.000Z</time>
        <extensions>
          <ns3:TrackPointExtension>
            <ns3:hr>148</ns3:hr>
            <ns3:cad>71</ns3:cad>
          </ns3:TrackPointExtension>
        </extensions>
      </trkpt>
      <trkpt lat="47.5498192012310028076171875" lon="11.00552427582442760467529296875">
        <ele>1796.5999755859375</ele>
        <time>2026-09-01T07:28:22.000Z</time>
        <extensions>
          <ns3:TrackPointExtension>
            <ns3:hr>147</ns3:hr>
            <ns3:cad>71</ns3:cad>
          </ns3:TrackPointExtension>
        </extensions>
      </trkpt>
      <trkpt lat="47.549817860126495361328125" lon="11.00550700910389423370361328125">
        <ele>1796.4000244140625</ele>
        <time>2026-09-01T07:28:23.000Z</time>
        <extensions>
          <ns3:TrackPointExtension>
            <ns3:hr>146</ns3:hr>
            <ns3:cad>71</ns3:cad>
          </ns3:TrackPointExtension>
        </extensions>
      </trkpt>
      <trkpt lat="47.54980780184268951416015625" lon="11.00549678318202495574951171875">
        <ele>1796.199951171875</ele>
        <time>2026-09-01T07:28:24.000Z</time>
        <extensions>
          <ns3:TrackPointExtension>
            <ns3:hr>145</ns3:hr>
            <ns3:cad>71</ns3:cad>
          </ns3:TrackPointExtension>
        </extensions>
      </trkpt>
      <trkpt lat="47.549801431596279144287109375" lon="11.0054728947579860687255859375">
        <ele>1796</ele>
        <time>2026-09-01T07:28:25.000Z</time>
        <extensions>
          <ns3:TrackPointExtension>
            <ns3:hr>144</ns3:hr>
            <ns3:cad>71</ns3:cad>
          </ns3:TrackPointExtension>
        </extensions>
      </trkpt>
      <trkpt lat="47.5497932173311710357666015625" lon="11.0054578073322772979736328125">
        <ele>1795</ele>
        <time>2026-09-01T07:28:26.000Z</time>
        <extensions>
          <ns3:TrackPointExtension>
            <ns3:hr>143</ns3:hr>
            <ns3:cad>73</ns3:cad>
          </ns3:TrackPointExtension>
        </extensions>
      </trkpt>
      <trkpt lat="47.54979464225471019744873046875" lon="11.00542469881474971771240234375">
        <ele>1793.800048828125</ele>
        <time>2026-09-01T07:28:27.000Z</time>
        <extensions>
          <ns3:TrackPointExtension>
            <ns3:hr>143</ns3:hr>
            <ns3:cad>73</ns3:cad>
          </ns3:TrackPointExtension>
        </extensions>
      </trkpt>
      <trkpt lat="47.5497851707041263580322265625" lon="11.0053847171366214752197265625">
        <ele>1792.800048828125</ele>
        <time>2026-09-01T07:28:28.000Z</time>
        <extensions>
          <ns3:TrackPointExtension>
            <ns3:hr>143</ns3:hr>
            <ns3:cad>73</ns3:cad>
          </ns3:TrackPointExtension>
        </extensions>
      </trkpt>
      <trkpt lat="47.54978877492249011993408203125" lon="11.00537206046283245086669921875">
        <ele>1793</ele>
        <time>2026-09-01T07:28:29.000Z</time>
        <extensions>
          <ns3:TrackPointExtension>
            <ns3:hr>142</ns3:hr>
            <ns3:cad>73</ns3:cad>
          </ns3:TrackPointExtension>
        </extensions>
      </trkpt>
      <trkpt lat="47.5497898645699024200439453125" lon="11.00535378791391849517822265625">
        <ele>1793.199951171875</ele>
        <time>2026-09-01T07:28:30.000Z</time>
        <extensions>
          <ns3:TrackPointExtension>
            <ns3:hr>142</ns3:hr>
            <ns3:cad>73</ns3:cad>
          </ns3:TrackPointExtension>
        </extensions>
      </trkpt>
      <trkpt lat="47.54978860728442668914794921875" lon="11.00534473545849323272705078125">
        <ele>1793.5999755859375</ele>
        <time>2026-09-01T07:28:31.000Z</time>
        <extensions>
          <ns3:TrackPointExtension>
            <ns3:hr>142</ns3:hr>
            <ns3:cad>73</ns3:cad>
          </ns3:TrackPointExtension>
        </extensions>
      </trkpt>
      <trkpt lat="47.54979128949344158172607421875" lon="11.00532176904380321502685546875">
        <ele>1793.800048828125</ele>
        <time>2026-09-01T07:28:32.000Z</time>
        <extensions>
          <ns3:TrackPointExtension>
            <ns3:hr>141</ns3:hr>
            <ns3:cad>73</ns3:cad>
          </ns3:TrackPointExtension>
        </extensions>
      </trkpt>
      <trkpt lat="47.54979849793016910552978515625" lon="11.0052968747913837432861328125">
        <ele>1794.199951171875</ele>
        <time>2026-09-01T07:28:33.000Z</time>
        <extensions>
          <ns3:TrackPointExtension>
            <ns3:hr>140</ns3:hr>
            <ns3:cad>73</ns3:cad>
          </ns3:TrackPointExtension>
        </extensions>
      </trkpt>
      <trkpt lat="47.54978626035153865814208984375" lon="11.00528002716600894927978515625">
        <ele>1794.199951171875</ele>
        <time>2026-09-01T07:28:34.000Z</time>
        <extensions>
          <ns3:TrackPointExtension>
            <ns3:hr>139</ns3:hr>
            <ns3:cad>40</ns3:cad>
          </ns3:TrackPointExtension>
        </extensions>
      </trkpt>
      <trkpt lat="47.54977620206773281097412109375" lon="11.00524842739105224609375">
        <ele>1794.199951171875</ele>
        <time>2026-09-01T07:28:35.000Z</time>
        <extensions>
          <ns3:TrackPointExtension>
            <ns3:hr>138</ns3:hr>
            <ns3:cad>0</ns3:cad>
          </ns3:TrackPointExtension>
        </extensions>
      </trkpt>
      <trkpt lat="47.5497682392597198486328125" lon="11.00522638298571109771728515625">
        <ele>1794</ele>
        <time>2026-09-01T07:28:36.000Z</time>
        <extensions>
          <ns3:TrackPointExtension>
            <ns3:hr>137</ns3:hr>
            <ns3:cad>0</ns3:cad>
          </ns3:TrackPointExtension>
        </extensions>
      </trkpt>
      <trkpt lat="47.54976346157491207122802734375" lon="11.005212552845478057861328125">
        <ele>1794</ele>
        <time>2026-09-01T07:28:37.000Z</time>
        <extensions>
          <ns3:TrackPointExtension>
            <ns3:hr>136</ns3:hr>
            <ns3:cad>0</ns3:cad>
          </ns3:TrackPointExtension>
        </extensions>
      </trkpt>
      <trkpt lat="47.5497575104236602783203125" lon="11.0051875747740268707275390625">
        <ele>1794.199951171875</ele>
        <time>2026-09-01T07:28:38.000Z</time>
        <extensions>
          <ns3:TrackPointExtension>
            <ns3:hr>136</ns3:hr>
            <ns3:cad>53</ns3:cad>
          </ns3:TrackPointExtension>
        </extensions>
      </trkpt>
      <trkpt lat="47.54975088872015476226806640625" lon="11.00517399609088897705078125">
        <ele>1794.4000244140625</ele>
        <time>2026-09-01T07:28:39.000Z</time>
        <extensions>
          <ns3:TrackPointExtension>
            <ns3:hr>135</ns3:hr>
            <ns3:cad>75</ns3:cad>
          </ns3:TrackPointExtension>
        </extensions>
      </trkpt>
      <trkpt lat="47.54974451847374439239501953125" lon="11.005168966948986053466796875">
        <ele>1794.4000244140625</ele>
        <time>2026-09-01T07:28:40.000Z</time>
        <extensions>
          <ns3:TrackPointExtension>
            <ns3:hr>135</ns3:hr>
            <ns3:cad>75</ns3:cad>
          </ns3:TrackPointExtension>
        </extensions>
      </trkpt>
      <trkpt lat="47.54973404109477996826171875" lon="11.00515329279005527496337890625">
        <ele>1794.5999755859375</ele>
        <time>2026-09-01T07:28:41.000Z</time>
        <extensions>
          <ns3:TrackPointExtension>
            <ns3:hr>135</ns3:hr>
            <ns3:cad>75</ns3:cad>
          </ns3:TrackPointExtension>
        </extensions>
      </trkpt>
      <trkpt lat="47.54972599446773529052734375" lon="11.0051530413329601287841796875">
        <ele>1794.800048828125</ele>
        <time>2026-09-01T07:28:42.000Z</time>
        <extensions>
          <ns3:TrackPointExtension>
            <ns3:hr>134</ns3:hr>
            <ns3:cad>73</ns3:cad>
          </ns3:TrackPointExtension>
        </extensions>
      </trkpt>
      <trkpt lat="47.54971417598426342010498046875" lon="11.00514088757336139678955078125">
        <ele>1795</ele>
        <time>2026-09-01T07:28:43.000Z</time>
        <extensions>
          <ns3:TrackPointExtension>
            <ns3:hr>134</ns3:hr>
            <ns3:cad>73</ns3:cad>
          </ns3:TrackPointExtension>
        </extensions>
      </trkpt>
      <trkpt lat="47.54970462061464786529541015625" lon="11.00512797944247722625732421875">
        <ele>1795</ele>
        <time>2026-09-01T07:28:44.000Z</time>
        <extensions>
          <ns3:TrackPointExtension>
            <ns3:hr>134</ns3:hr>
            <ns3:cad>73</ns3:cad>
          </ns3:TrackPointExtension>
        </extensions>
      </trkpt>
      <trkpt lat="47.54969020374119281768798828125" lon="11.00510886870324611663818359375">
        <ele>1795.4000244140625</ele>
        <time>2026-09-01T07:28:45.000Z</time>
        <extensions>
          <ns3:TrackPointExtension>
            <ns3:hr>133</ns3:hr>
            <ns3:cad>73</ns3:cad>
          </ns3:TrackPointExtension>
        </extensions>
      </trkpt>
      <trkpt lat="47.549678385257720947265625" lon="11.005094535648822784423828125">
        <ele>1795.5999755859375</ele>
        <time>2026-09-01T07:28:46.000Z</time>
        <extensions>
          <ns3:TrackPointExtension>
            <ns3:hr>133</ns3:hr>
            <ns3:cad>67</ns3:cad>
          </ns3:TrackPointExtension>
        </extensions>
      </trkpt>
      <trkpt lat="47.549667991697788238525390625" lon="11.00507634691894054412841796875">
        <ele>1795.800048828125</ele>
        <time>2026-09-01T07:28:47.000Z</time>
        <extensions>
          <ns3:TrackPointExtension>
            <ns3:hr>133</ns3:hr>
            <ns3:cad>67</ns3:cad>
          </ns3:TrackPointExtension>
        </extensions>
      </trkpt>
      <trkpt lat="47.54967025481164455413818359375" lon="11.00505187176167964935302734375">
        <ele>1796.199951171875</ele>
        <time>2026-09-01T07:28:48.000Z</time>
        <extensions>
          <ns3:TrackPointExtension>
            <ns3:hr>133</ns3:hr>
            <ns3:cad>67</ns3:cad>
          </ns3:TrackPointExtension>
        </extensions>
      </trkpt>
      <trkpt lat="47.549661956727504730224609375" lon="11.00503980182111263275146484375">
        <ele>1796.4000244140625</ele>
        <time>2026-09-01T07:28:49.000Z</time>
        <extensions>
          <ns3:TrackPointExtension>
            <ns3:hr>133</ns3:hr>
            <ns3:cad>67</ns3:cad>
          </ns3:TrackPointExtension>
        </extensions>
      </trkpt>
      <trkpt lat="47.54965868778526782989501953125" lon="11.0050306655466556549072265625">
        <ele>1796.5999755859375</ele>
        <time>2026-09-01T07:28:50.000Z</time>
        <extensions>
          <ns3:TrackPointExtension>
            <ns3:hr>132</ns3:hr>
            <ns3:cad>67</ns3:cad>
          </ns3:TrackPointExtension>
        </extensions>
      </trkpt>
      <trkpt lat="47.54965650849044322967529296875" lon="11.00502739660441875457763671875">
        <ele>1796.5999755859375</ele>
        <time>2026-09-01T07:28:51.000Z</time>
        <extensions>
          <ns3:TrackPointExtension>
            <ns3:hr>131</ns3:hr>
            <ns3:cad>0</ns3:cad>
          </ns3:TrackPointExtension>
        </extensions>
      </trkpt>
      <trkpt lat="47.54965516738593578338623046875" lon="11.0050182603299617767333984375">
        <ele>1796.5999755859375</ele>
        <time>2026-09-01T07:28:52.000Z</time>
        <extensions>
          <ns3:TrackPointExtension>
            <ns3:hr>130</ns3:hr>
            <ns3:cad>0</ns3:cad>
          </ns3:TrackPointExtension>
        </extensions>
      </trkpt>
      <trkpt lat="47.54965650849044322967529296875" lon="11.005016081035137176513671875">
        <ele>1796.800048828125</ele>
        <time>2026-09-01T07:28:53.000Z</time>
        <extensions>
          <ns3:TrackPointExtension>
            <ns3:hr>129</ns3:hr>
            <ns3:cad>0</ns3:cad>
          </ns3:TrackPointExtension>
        </extensions>
      </trkpt>
      <trkpt lat="47.5496560893952846527099609375" lon="11.00500711239874362945556640625">
        <ele>1797.199951171875</ele>
        <time>2026-09-01T07:28:54.000Z</time>
        <extensions>
          <ns3:TrackPointExtension>
            <ns3:hr>130</ns3:hr>
            <ns3:cad>0</ns3:cad>
          </ns3:TrackPointExtension>
        </extensions>
      </trkpt>
      <trkpt lat="47.54965499974787235260009765625" lon="11.00499973632395267486572265625">
        <ele>1797.5999755859375</ele>
        <time>2026-09-01T07:28:55.000Z</time>
        <extensions>
          <ns3:TrackPointExtension>
            <ns3:hr>131</ns3:hr>
            <ns3:cad>0</ns3:cad>
          </ns3:TrackPointExtension>
        </extensions>
      </trkpt>
      <trkpt lat="47.5496544130146503448486328125" lon="11.00499772466719150543212890625">
        <ele>1798.199951171875</ele>
        <time>2026-09-01T07:28:56.000Z</time>
        <extensions>
          <ns3:TrackPointExtension>
            <ns3:hr>131</ns3:hr>
            <ns3:cad>0</ns3:cad>
          </ns3:TrackPointExtension>
        </extensions>
      </trkpt>
      <trkpt lat="47.5496527366340160369873046875" lon="11.00499168969690799713134765625">
        <ele>1798.5999755859375</ele>
        <time>2026-09-01T07:28:57.000Z</time>
        <extensions>
          <ns3:TrackPointExtension>
            <ns3:hr>133</ns3:hr>
            <ns3:cad>0</ns3:cad>
          </ns3:TrackPointExtension>
        </extensions>
      </trkpt>
      <trkpt lat="47.54965164698660373687744140625" lon="11.00498314015567302703857421875">
        <ele>1798.800048828125</ele>
        <time>2026-09-01T07:28:58.000Z</time>
        <extensions>
          <ns3:TrackPointExtension>
            <ns3:hr>134</ns3:hr>
            <ns3:cad>0</ns3:cad>
          </ns3:TrackPointExtension>
        </extensions>
      </trkpt>
      <trkpt lat="47.549647875130176544189453125" lon="11.00496117956936359405517578125">
        <ele>1799</ele>
        <time>2026-09-01T07:28:59.000Z</time>
        <extensions>
          <ns3:TrackPointExtension>
            <ns3:hr>134</ns3:hr>
            <ns3:cad>51</ns3:cad>
          </ns3:TrackPointExtension>
        </extensions>
      </trkpt>
      <trkpt lat="47.54964728839695453643798828125" lon="11.00495539605617523193359375">
        <ele>1799.199951171875</ele>
        <time>2026-09-01T07:29:00.000Z</time>
        <extensions>
          <ns3:TrackPointExtension>
            <ns3:hr>134</ns3:hr>
            <ns3:cad>51</ns3:cad>
          </ns3:TrackPointExtension>
        </extensions>
      </trkpt>
      <trkpt lat="47.5496463663876056671142578125" lon="11.0049468465149402618408203125">
        <ele>1799.4000244140625</ele>
        <time>2026-09-01T07:29:01.000Z</time>
        <extensions>
          <ns3:TrackPointExtension>
            <ns3:hr>134</ns3:hr>
            <ns3:cad>51</ns3:cad>
          </ns3:TrackPointExtension>
        </extensions>
      </trkpt>
      <trkpt lat="47.54964552819728851318359375" lon="11.0049377940595149993896484375">
        <ele>1799.5999755859375</ele>
        <time>2026-09-01T07:29:02.000Z</time>
        <extensions>
          <ns3:TrackPointExtension>
            <ns3:hr>133</ns3:hr>
            <ns3:cad>51</ns3:cad>
          </ns3:TrackPointExtension>
        </extensions>
      </trkpt>
      <trkpt lat="47.54964494146406650543212890625" lon="11.0049305856227874755859375">
        <ele>1800</ele>
        <time>2026-09-01T07:29:03.000Z</time>
        <extensions>
          <ns3:TrackPointExtension>
            <ns3:hr>133</ns3:hr>
            <ns3:cad>0</ns3:cad>
          </ns3:TrackPointExtension>
        </extensions>
      </trkpt>
      <trkpt lat="47.549645192921161651611328125" lon="11.0049198567867279052734375">
        <ele>1800.199951171875</ele>
        <time>2026-09-01T07:29:04.000Z</time>
        <extensions>
          <ns3:TrackPointExtension>
            <ns3:hr>133</ns3:hr>
            <ns3:cad>0</ns3:cad>
          </ns3:TrackPointExtension>
        </extensions>
      </trkpt>
      <trkpt lat="47.549645192921161651611328125" lon="11.0049089603126049041748046875">
        <ele>1800.4000244140625</ele>
        <time>2026-09-01T07:29:05.000Z</time>
        <extensions>
          <ns3:TrackPointExtension>
            <ns3:hr>133</ns3:hr>
            <ns3:cad>71</ns3:cad>
          </ns3:TrackPointExtension>
        </extensions>
      </trkpt>
      <trkpt lat="47.5496448576450347900390625" lon="11.004890687763690948486328125">
        <ele>1800.800048828125</ele>
        <time>2026-09-01T07:29:06.000Z</time>
        <extensions>
          <ns3:TrackPointExtension>
            <ns3:hr>133</ns3:hr>
            <ns3:cad>71</ns3:cad>
          </ns3:TrackPointExtension>
        </extensions>
      </trkpt>
      <trkpt lat="47.54964510910212993621826171875" lon="11.00487492978572845458984375">
        <ele>1801</ele>
        <time>2026-09-01T07:29:07.000Z</time>
        <extensions>
          <ns3:TrackPointExtension>
            <ns3:hr>134</ns3:hr>
            <ns3:cad>71</ns3:cad>
          </ns3:TrackPointExtension>
        </extensions>
      </trkpt>
      <trkpt lat="47.54964661784470081329345703125" lon="11.00486914627254009246826171875">
        <ele>1801.199951171875</ele>
        <time>2026-09-01T07:29:08.000Z</time>
        <extensions>
          <ns3:TrackPointExtension>
            <ns3:hr>134</ns3:hr>
            <ns3:cad>71</ns3:cad>
          </ns3:TrackPointExtension>
        </extensions>
      </trkpt>
      <trkpt lat="47.54964888095855712890625" lon="11.00485539995133876800537109375">
        <ele>1801.199951171875</ele>
        <time>2026-09-01T07:29:09.000Z</time>
        <extensions>
          <ns3:TrackPointExtension>
            <ns3:hr>134</ns3:hr>
            <ns3:cad>0</ns3:cad>
          </ns3:TrackPointExtension>
        </extensions>
      </trkpt>
      <trkpt lat="47.54964728839695453643798828125" lon="11.0048447549343109130859375">
        <ele>1801.5999755859375</ele>
        <time>2026-09-01T07:29:10.000Z</time>
        <extensions>
          <ns3:TrackPointExtension>
            <ns3:hr>134</ns3:hr>
            <ns3:cad>0</ns3:cad>
          </ns3:TrackPointExtension>
        </extensions>
      </trkpt>
      <trkpt lat="47.54964745603501796722412109375" lon="11.004835702478885650634765625">
        <ele>1802</ele>
        <time>2026-09-01T07:29:11.000Z</time>
        <extensions>
          <ns3:TrackPointExtension>
            <ns3:hr>135</ns3:hr>
            <ns3:cad>0</ns3:cad>
          </ns3:TrackPointExtension>
        </extensions>
      </trkpt>
      <trkpt lat="47.54964410327374935150146484375" lon="11.00482136942446231842041015625">
        <ele>1802.199951171875</ele>
        <time>2026-09-01T07:29:12.000Z</time>
        <extensions>
          <ns3:TrackPointExtension>
            <ns3:hr>135</ns3:hr>
            <ns3:cad>0</ns3:cad>
          </ns3:TrackPointExtension>
        </extensions>
      </trkpt>
      <trkpt lat="47.54964393563568592071533203125" lon="11.00481198169291019439697265625">
        <ele>1802.5999755859375</ele>
        <time>2026-09-01T07:29:13.000Z</time>
        <extensions>
          <ns3:TrackPointExtension>
            <ns3:hr>135</ns3:hr>
            <ns3:cad>0</ns3:cad>
          </ns3:TrackPointExtension>
        </extensions>
      </trkpt>
      <trkpt lat="47.54964351654052734375" lon="11.0047991573810577392578125">
        <ele>1802.800048828125</ele>
        <time>2026-09-01T07:29:14.000Z</time>
        <extensions>
          <ns3:TrackPointExtension>
            <ns3:hr>135</ns3:hr>
            <ns3:cad>0</ns3:cad>
          </ns3:TrackPointExtension>
        </extensions>
      </trkpt>
      <trkpt lat="47.54964326508343219757080078125" lon="11.00478214211761951446533203125">
        <ele>1803.199951171875</ele>
        <time>2026-09-01T07:29:15.000Z</time>
        <extensions>
          <ns3:TrackPointExtension>
            <ns3:hr>135</ns3:hr>
            <ns3:cad>0</ns3:cad>
          </ns3:TrackPointExtension>
        </extensions>
      </trkpt>
      <trkpt lat="47.549644522368907928466796875" lon="11.00476764142513275146484375">
        <ele>1803.5999755859375</ele>
        <time>2026-09-01T07:29:16.000Z</time>
        <extensions>
          <ns3:TrackPointExtension>
            <ns3:hr>135</ns3:hr>
            <ns3:cad>0</ns3:cad>
          </ns3:TrackPointExtension>
        </extensions>
      </trkpt>
      <trkpt lat="47.54964544437825679779052734375" lon="11.00475179962813854217529296875">
        <ele>1803.5999755859375</ele>
        <time>2026-09-01T07:29:17.000Z</time>
        <extensions>
          <ns3:TrackPointExtension>
            <ns3:hr>136</ns3:hr>
            <ns3:cad>0</ns3:cad>
          </ns3:TrackPointExtension>
        </extensions>
      </trkpt>
      <trkpt lat="47.549643851816654205322265625" lon="11.0047486983239650726318359375">
        <ele>1804</ele>
        <time>2026-09-01T07:29:18.000Z</time>
        <extensions>
          <ns3:TrackPointExtension>
            <ns3:hr>136</ns3:hr>
            <ns3:cad>0</ns3:cad>
          </ns3:TrackPointExtension>
        </extensions>
      </trkpt>
      <trkpt lat="47.54965634085237979888916015625" lon="11.0047476924955844879150390625">
        <ele>1804.4000244140625</ele>
        <time>2026-09-01T07:29:19.000Z</time>
        <extensions>
          <ns3:TrackPointExtension>
            <ns3:hr>136</ns3:hr>
            <ns3:cad>0</ns3:cad>
          </ns3:TrackPointExtension>
        </extensions>
      </trkpt>
      <trkpt lat="47.54966706968843936920166015625" lon="11.00475129671394824981689453125">
        <ele>1804.5999755859375</ele>
        <time>2026-09-01T07:29:20.000Z</time>
        <extensions>
          <ns3:TrackPointExtension>
            <ns3:hr>136</ns3:hr>
            <ns3:cad>0</ns3:cad>
          </ns3:TrackPointExtension>
        </extensions>
      </trkpt>
      <trkpt lat="47.54968081600964069366455078125" lon="11.0047508776187896728515625">
        <ele>1805</ele>
        <time>2026-09-01T07:29:21.000Z</time>
        <extensions>
          <ns3:TrackPointExtension>
            <ns3:hr>136</ns3:hr>
            <ns3:cad>0</ns3:cad>
          </ns3:TrackPointExtension>
        </extensions>
      </trkpt>
      <trkpt lat="47.54968416877090930938720703125" lon="11.00474274717271327972412109375">
        <ele>1805.5999755859375</ele>
        <time>2026-09-01T07:29:22.000Z</time>
        <extensions>
          <ns3:TrackPointExtension>
            <ns3:hr>137</ns3:hr>
            <ns3:cad>0</ns3:cad>
          </ns3:TrackPointExtension>
        </extensions>
      </trkpt>
      <trkpt lat="47.54968701861798763275146484375" lon="11.0047181881964206695556640625">
        <ele>1806</ele>
        <time>2026-09-01T07:29:23.000Z</time>
        <extensions>
          <ns3:TrackPointExtension>
            <ns3:hr>139</ns3:hr>
            <ns3:cad>0</ns3:cad>
          </ns3:TrackPointExtension>
        </extensions>
      </trkpt>
      <trkpt lat="47.54968115128576755523681640625" lon="11.00471341051161289215087890625">
        <ele>1806.4000244140625</ele>
        <time>2026-09-01T07:29:24.000Z</time>
        <extensions>
          <ns3:TrackPointExtension>
            <ns3:hr>140</ns3:hr>
            <ns3:cad>0</ns3:cad>
          </ns3:TrackPointExtension>
        </extensions>
      </trkpt>
      <trkpt lat="47.54967880435287952423095703125" lon="11.004702262580394744873046875">
        <ele>1806.800048828125</ele>
        <time>2026-09-01T07:29:25.000Z</time>
        <extensions>
          <ns3:TrackPointExtension>
            <ns3:hr>141</ns3:hr>
            <ns3:cad>0</ns3:cad>
          </ns3:TrackPointExtension>
        </extensions>
      </trkpt>
      <trkpt lat="47.549679391086101531982421875" lon="11.00469044409692287445068359375">
        <ele>1806.800048828125</ele>
        <time>2026-09-01T07:29:26.000Z</time>
        <extensions>
          <ns3:TrackPointExtension>
            <ns3:hr>142</ns3:hr>
            <ns3:cad>0</ns3:cad>
          </ns3:TrackPointExtension>
        </extensions>
      </trkpt>
      <trkpt lat="47.54968266002833843231201171875" lon="11.004687845706939697265625">
        <ele>1807.199951171875</ele>
        <time>2026-09-01T07:29:27.000Z</time>
        <extensions>
          <ns3:TrackPointExtension>
            <ns3:hr>143</ns3:hr>
            <ns3:cad>0</ns3:cad>
          </ns3:TrackPointExtension>
        </extensions>
      </trkpt>
      <trkpt lat="47.54968668334186077117919921875" lon="11.0046893544495105743408203125">
        <ele>1807.4000244140625</ele>
        <time>2026-09-01T07:29:28.000Z</time>
        <extensions>
          <ns3:TrackPointExtension>
            <ns3:hr>143</ns3:hr>
            <ns3:cad>0</ns3:cad>
          </ns3:TrackPointExtension>
        </extensions>
      </trkpt>
      <trkpt lat="47.5496926344931125640869140625" lon="11.004684828221797943115234375">
        <ele>1807.4000244140625</ele>
        <time>2026-09-01T07:29:29.000Z</time>
        <extensions>
          <ns3:TrackPointExtension>
            <ns3:hr>143</ns3:hr>
            <ns3:cad>0</ns3:cad>
          </ns3:TrackPointExtension>
        </extensions>
      </trkpt>
      <trkpt lat="47.54969305358827114105224609375" lon="11.0046730935573577880859375">
        <ele>1807.800048828125</ele>
        <time>2026-09-01T07:29:30.000Z</time>
        <extensions>
          <ns3:TrackPointExtension>
            <ns3:hr>143</ns3:hr>
            <ns3:cad>0</ns3:cad>
          </ns3:TrackPointExtension>
        </extensions>
      </trkpt>
      <trkpt lat="47.54969221539795398712158203125" lon="11.00466446019709110260009765625">
        <ele>1808</ele>
        <time>2026-09-01T07:29:31.000Z</time>
        <extensions>
          <ns3:TrackPointExtension>
            <ns3:hr>142</ns3:hr>
            <ns3:cad>0</ns3:cad>
          </ns3:TrackPointExtension>
        </extensions>
      </trkpt>
      <trkpt lat="47.54968978464603424072265625" lon="11.0046575032174587249755859375">
        <ele>1808.199951171875</ele>
        <time>2026-09-01T07:29:32.000Z</time>
        <extensions>
          <ns3:TrackPointExtension>
            <ns3:hr>143</ns3:hr>
            <ns3:cad>0</ns3:cad>
          </ns3:TrackPointExtension>
        </extensions>
      </trkpt>
      <trkpt lat="47.5496852584183216094970703125" lon="11.00465188734233379364013671875">
        <ele>1808.5999755859375</ele>
        <time>2026-09-01T07:29:33.000Z</time>
        <extensions>
          <ns3:TrackPointExtension>
            <ns3:hr>143</ns3:hr>
            <ns3:cad>0</ns3:cad>
          </ns3:TrackPointExtension>
        </extensions>
      </trkpt>
      <trkpt lat="47.54968618042767047882080078125" lon="11.00464317016303539276123046875">
        <ele>1808.800048828125</ele>
        <time>2026-09-01T07:29:34.000Z</time>
        <extensions>
          <ns3:TrackPointExtension>
            <ns3:hr>142</ns3:hr>
            <ns3:cad>0</ns3:cad>
          </ns3:TrackPointExtension>
        </extensions>
      </trkpt>
      <trkpt lat="47.5496886111795902252197265625" lon="11.00463964976370334625244140625">
        <ele>1809</ele>
        <time>2026-09-01T07:29:35.000Z</time>
        <extensions>
          <ns3:TrackPointExtension>
            <ns3:hr>143</ns3:hr>
            <ns3:cad>0</ns3:cad>
          </ns3:TrackPointExtension>
        </extensions>
      </trkpt>
      <trkpt lat="47.5496896170079708099365234375" lon="11.0046316869556903839111328125">
        <ele>1809.199951171875</ele>
        <time>2026-09-01T07:29:36.000Z</time>
        <extensions>
          <ns3:TrackPointExtension>
            <ns3:hr>144</ns3:hr>
            <ns3:cad>0</ns3:cad>
          </ns3:TrackPointExtension>
        </extensions>
      </trkpt>
      <trkpt lat="47.54968936555087566375732421875" lon="11.0046216286718845367431640625">
        <ele>1809.5999755859375</ele>
        <time>2026-09-01T07:29:37.000Z</time>
        <extensions>
          <ns3:TrackPointExtension>
            <ns3:hr>145</ns3:hr>
            <ns3:cad>0</ns3:cad>
          </ns3:TrackPointExtension>
        </extensions>
      </trkpt>
      <trkpt lat="47.54969439469277858734130859375" lon="11.004612743854522705078125">
        <ele>1809.800048828125</ele>
        <time>2026-09-01T07:29:38.000Z</time>
        <extensions>
          <ns3:TrackPointExtension>
            <ns3:hr>146</ns3:hr>
            <ns3:cad>0</ns3:cad>
          </ns3:TrackPointExtension>
        </extensions>
      </trkpt>
      <trkpt lat="47.5496919639408588409423828125" lon="11.0046018473803997039794921875">
        <ele>1810.199951171875</ele>
        <time>2026-09-01T07:29:39.000Z</time>
        <extensions>
          <ns3:TrackPointExtension>
            <ns3:hr>147</ns3:hr>
            <ns3:cad>0</ns3:cad>
          </ns3:TrackPointExtension>
        </extensions>
      </trkpt>
      <trkpt lat="47.54969322122633457183837890625" lon="11.00459103472530841827392578125">
        <ele>1810.5999755859375</ele>
        <time>2026-09-01T07:29:40.000Z</time>
        <extensions>
          <ns3:TrackPointExtension>
            <ns3:hr>148</ns3:hr>
            <ns3:cad>0</ns3:cad>
          </ns3:TrackPointExtension>
        </extensions>
      </trkpt>
      <trkpt lat="47.5496996752917766571044921875" lon="11.00458650849759578704833984375">
        <ele>1810.800048828125</ele>
        <time>2026-09-01T07:29:41.000Z</time>
        <extensions>
          <ns3:TrackPointExtension>
            <ns3:hr>149</ns3:hr>
            <ns3:cad>0</ns3:cad>
          </ns3:TrackPointExtension>
        </extensions>
      </trkpt>
      <trkpt lat="47.54970110021531581878662109375" lon="11.00456974469125270843505859375">
        <ele>1811</ele>
        <time>2026-09-01T07:29:42.000Z</time>
        <extensions>
          <ns3:TrackPointExtension>
            <ns3:hr>149</ns3:hr>
            <ns3:cad>0</ns3:cad>
          </ns3:TrackPointExtension>
        </extensions>
      </trkpt>
      <trkpt lat="47.5496949814260005950927734375" lon="11.00455834530293941497802734375">
        <ele>1811.4000244140625</ele>
        <time>2026-09-01T07:29:43.000Z</time>
        <extensions>
          <ns3:TrackPointExtension>
            <ns3:hr>150</ns3:hr>
            <ns3:cad>0</ns3:cad>
          </ns3:TrackPointExtension>
        </extensions>
      </trkpt>
      <trkpt lat="47.54969204775989055633544921875" lon="11.00455247797071933746337890625">
        <ele>1811.800048828125</ele>
        <time>2026-09-01T07:29:44.000Z</time>
        <extensions>
          <ns3:TrackPointExtension>
            <ns3:hr>150</ns3:hr>
            <ns3:cad>0</ns3:cad>
          </ns3:TrackPointExtension>
        </extensions>
      </trkpt>
      <trkpt lat="47.54969288595020771026611328125" lon="11.00455918349325656890869140625">
        <ele>1812</ele>
        <time>2026-09-01T07:29:45.000Z</time>
        <extensions>
          <ns3:TrackPointExtension>
            <ns3:hr>151</ns3:hr>
            <ns3:cad>0</ns3:cad>
          </ns3:TrackPointExtension>
        </extensions>
      </trkpt>
      <trkpt lat="47.5496892817318439483642578125" lon="11.0045458562672138214111328125">
        <ele>1812</ele>
        <time>2026-09-01T07:29:46.000Z</time>
        <extensions>
          <ns3:TrackPointExtension>
            <ns3:hr>151</ns3:hr>
            <ns3:cad>0</ns3:cad>
          </ns3:TrackPointExtension>
        </extensions>
      </trkpt>
      <trkpt lat="47.5496850907802581787109375" lon="11.0045347921550273895263671875">
        <ele>1812.4000244140625</ele>
        <time>2026-09-01T07:29:47.000Z</time>
        <extensions>
          <ns3:TrackPointExtension>
            <ns3:hr>152</ns3:hr>
            <ns3:cad>0</ns3:cad>
          </ns3:TrackPointExtension>
        </extensions>
      </trkpt>
      <trkpt lat="47.5496839173138141632080078125" lon="11.0045304335653781890869140625">
        <ele>1812.4000244140625</ele>
        <time>2026-09-01T07:29:48.000Z</time>
        <extensions>
          <ns3:TrackPointExtension>
            <ns3:hr>153</ns3:hr>
            <ns3:cad>0</ns3:cad>
          </ns3:TrackPointExtension>
        </extensions>
      </trkpt>
      <trkpt lat="47.5496896170079708099365234375" lon="11.0045237280428409576416015625">
        <ele>1812.4000244140625</ele>
        <time>2026-09-01T07:29:49.000Z</time>
        <extensions>
          <ns3:TrackPointExtension>
            <ns3:hr>153</ns3:hr>
            <ns3:cad>0</ns3:cad>
          </ns3:TrackPointExtension>
        </extensions>
      </trkpt>
      <trkpt lat="47.54969171248376369476318359375" lon="11.00450872443616390228271484375">
        <ele>1812.5999755859375</ele>
        <time>2026-09-01T07:29:50.000Z</time>
        <extensions>
          <ns3:TrackPointExtension>
            <ns3:hr>155</ns3:hr>
            <ns3:cad>0</ns3:cad>
          </ns3:TrackPointExtension>
        </extensions>
      </trkpt>
      <trkpt lat="47.5496902875602245330810546875" lon="11.00449464283883571624755859375">
        <ele>1813</ele>
        <time>2026-09-01T07:29:51.000Z</time>
        <extensions>
          <ns3:TrackPointExtension>
            <ns3:hr>156</ns3:hr>
            <ns3:cad>0</ns3:cad>
          </ns3:TrackPointExtension>
        </extensions>
      </trkpt>
      <trkpt lat="47.54968701861798763275146484375" lon="11.00448491983115673065185546875">
        <ele>1813.4000244140625</ele>
        <time>2026-09-01T07:29:52.000Z</time>
        <extensions>
          <ns3:TrackPointExtension>
            <ns3:hr>157</ns3:hr>
            <ns3:cad>0</ns3:cad>
          </ns3:TrackPointExtension>
        </extensions>
      </trkpt>
      <trkpt lat="47.5496876053512096405029296875" lon="11.0044788010418415069580078125">
        <ele>1813.800048828125</ele>
        <time>2026-09-01T07:29:53.000Z</time>
        <extensions>
          <ns3:TrackPointExtension>
            <ns3:hr>158</ns3:hr>
            <ns3:cad>0</ns3:cad>
          </ns3:TrackPointExtension>
        </extensions>
      </trkpt>
      <trkpt lat="47.54968567751348018646240234375" lon="11.004472933709621429443359375">
        <ele>1814.4000244140625</ele>
        <time>2026-09-01T07:29:54.000Z</time>
        <extensions>
          <ns3:TrackPointExtension>
            <ns3:hr>158</ns3:hr>
            <ns3:cad>0</ns3:cad>
          </ns3:TrackPointExtension>
        </extensions>
      </trkpt>
      <trkpt lat="47.54968014545738697052001953125" lon="11.0044717602431774139404296875">
        <ele>1814.5999755859375</ele>
        <time>2026-09-01T07:29:55.000Z</time>
        <extensions>
          <ns3:TrackPointExtension>
            <ns3:hr>158</ns3:hr>
            <ns3:cad>0</ns3:cad>
          </ns3:TrackPointExtension>
        </extensions>
      </trkpt>
      <trkpt lat="47.5496795587241649627685546875" lon="11.00445927120745182037353515625">
        <ele>1814.5999755859375</ele>
        <time>2026-09-01T07:29:56.000Z</time>
        <extensions>
          <ns3:TrackPointExtension>
            <ns3:hr>158</ns3:hr>
            <ns3:cad>0</ns3:cad>
          </ns3:TrackPointExtension>
        </extensions>
      </trkpt>
      <trkpt lat="47.54967461340129375457763671875" lon="11.00445172749459743499755859375">
        <ele>1814.800048828125</ele>
        <time>2026-09-01T07:29:57.000Z</time>
        <extensions>
          <ns3:TrackPointExtension>
            <ns3:hr>157</ns3:hr>
            <ns3:cad>0</ns3:cad>
          </ns3:TrackPointExtension>
        </extensions>
      </trkpt>
      <trkpt lat="47.549664638936519622802734375" lon="11.0044459439814090728759765625">
        <ele>1815</ele>
        <time>2026-09-01T07:29:58.000Z</time>
        <extensions>
          <ns3:TrackPointExtension>
            <ns3:hr>157</ns3:hr>
            <ns3:cad>0</ns3:cad>
          </ns3:TrackPointExtension>
        </extensions>
      </trkpt>
      <trkpt lat="47.5496601127088069915771484375" lon="11.00444099865853786468505859375">
        <ele>1815.199951171875</ele>
        <time>2026-09-01T07:29:59.000Z</time>
        <extensions>
          <ns3:TrackPointExtension>
            <ns3:hr>157</ns3:hr>
            <ns3:cad>0</ns3:cad>
          </ns3:TrackPointExtension>
        </extensions>
      </trkpt>
      <trkpt lat="47.54965567030012607574462890625" lon="11.004441082477569580078125">
        <ele>1815.4000244140625</ele>
        <time>2026-09-01T07:30:00.000Z</time>
        <extensions>
          <ns3:TrackPointExtension>
            <ns3:hr>157</ns3:hr>
            <ns3:cad>0</ns3:cad>
          </ns3:TrackPointExtension>
        </extensions>
      </trkpt>
      <trkpt lat="47.54965114407241344451904296875" lon="11.0044352151453495025634765625">
        <ele>1815.5999755859375</ele>
        <time>2026-09-01T07:30:01.000Z</time>
        <extensions>
          <ns3:TrackPointExtension>
            <ns3:hr>156</ns3:hr>
            <ns3:cad>0</ns3:cad>
          </ns3:TrackPointExtension>
        </extensions>
      </trkpt>
      <trkpt lat="47.5496507249772548675537109375" lon="11.00442431867122650146484375">
        <ele>1815.800048828125</ele>
        <time>2026-09-01T07:30:02.000Z</time>
        <extensions>
          <ns3:TrackPointExtension>
            <ns3:hr>156</ns3:hr>
            <ns3:cad>0</ns3:cad>
          </ns3:TrackPointExtension>
        </extensions>
      </trkpt>
      <trkpt lat="47.54965399391949176788330078125" lon="11.0044236481189727783203125">
        <ele>1816</ele>
        <time>2026-09-01T07:30:03.000Z</time>
        <extensions>
          <ns3:TrackPointExtension>
            <ns3:hr>156</ns3:hr>
            <ns3:cad>0</ns3:cad>
          </ns3:TrackPointExtension>
        </extensions>
      </trkpt>
      <trkpt lat="47.54965365864336490631103515625" lon="11.004419624805450439453125">
        <ele>1816.199951171875</ele>
        <time>2026-09-01T07:30:04.000Z</time>
        <extensions>
          <ns3:TrackPointExtension>
            <ns3:hr>155</ns3:hr>
            <ns3:cad>0</ns3:cad>
          </ns3:TrackPointExtension>
        </extensions>
      </trkpt>
      <trkpt lat="47.5496540777385234832763671875" lon="11.0043986700475215911865234375">
        <ele>1816.4000244140625</ele>
        <time>2026-09-01T07:30:05.000Z</time>
        <extensions>
          <ns3:TrackPointExtension>
            <ns3:hr>155</ns3:hr>
            <ns3:cad>44</ns3:cad>
          </ns3:TrackPointExtension>
        </extensions>
      </trkpt>
      <trkpt lat="47.54965315572917461395263671875" lon="11.00438919849693775177001953125">
        <ele>1816.5999755859375</ele>
        <time>2026-09-01T07:30:06.000Z</time>
        <extensions>
          <ns3:TrackPointExtension>
            <ns3:hr>155</ns3:hr>
            <ns3:cad>44</ns3:cad>
          </ns3:TrackPointExtension>
        </extensions>
      </trkpt>
      <trkpt lat="47.5496520660817623138427734375" lon="11.00437997840344905853271484375">
        <ele>1816.800048828125</ele>
        <time>2026-09-01T07:30:07.000Z</time>
        <extensions>
          <ns3:TrackPointExtension>
            <ns3:hr>156</ns3:hr>
            <ns3:cad>48</ns3:cad>
          </ns3:TrackPointExtension>
        </extensions>
      </trkpt>
      <trkpt lat="47.549648545682430267333984375" lon="11.00436589680612087249755859375">
        <ele>1817</ele>
        <time>2026-09-01T07:30:08.000Z</time>
        <extensions>
          <ns3:TrackPointExtension>
            <ns3:hr>156</ns3:hr>
            <ns3:cad>48</ns3:cad>
          </ns3:TrackPointExtension>
        </extensions>
      </trkpt>
      <trkpt lat="47.5496470369398593902587890625" lon="11.0043577663600444793701171875">
        <ele>1817.4000244140625</ele>
        <time>2026-09-01T07:30:09.000Z</time>
        <extensions>
          <ns3:TrackPointExtension>
            <ns3:hr>156</ns3:hr>
            <ns3:cad>48</ns3:cad>
          </ns3:TrackPointExtension>
        </extensions>
      </trkpt>
      <trkpt lat="47.54964594729244709014892578125" lon="11.00435382686555385589599609375">
        <ele>1817.800048828125</ele>
        <time>2026-09-01T07:30:10.000Z</time>
        <extensions>
          <ns3:TrackPointExtension>
            <ns3:hr>157</ns3:hr>
            <ns3:cad>0</ns3:cad>
          </ns3:TrackPointExtension>
        </extensions>
      </trkpt>
      <trkpt lat="47.5496423430740833282470703125" lon="11.00434427149593830108642578125">
        <ele>1818</ele>
        <time>2026-09-01T07:30:11.000Z</time>
        <extensions>
          <ns3:TrackPointExtension>
            <ns3:hr>158</ns3:hr>
            <ns3:cad>0</ns3:cad>
          </ns3:TrackPointExtension>
        </extensions>
      </trkpt>
      <trkpt lat="47.549637816846370697021484375" lon="11.00433404557406902313232421875">
        <ele>1818.4000244140625</ele>
        <time>2026-09-01T07:30:12.000Z</time>
        <extensions>
          <ns3:TrackPointExtension>
            <ns3:hr>159</ns3:hr>
            <ns3:cad>44</ns3:cad>
          </ns3:TrackPointExtension>
        </extensions>
      </trkpt>
      <trkpt lat="47.54963421262800693511962890625" lon="11.00432616658508777618408203125">
        <ele>1818.800048828125</ele>
        <time>2026-09-01T07:30:13.000Z</time>
        <extensions>
          <ns3:TrackPointExtension>
            <ns3:hr>159</ns3:hr>
            <ns3:cad>44</ns3:cad>
          </ns3:TrackPointExtension>
        </extensions>
      </trkpt>
      <trkpt lat="47.54962314851582050323486328125" lon="11.00432013161480426788330078125">
        <ele>1819</ele>
        <time>2026-09-01T07:30:14.000Z</time>
        <extensions>
          <ns3:TrackPointExtension>
            <ns3:hr>160</ns3:hr>
            <ns3:cad>44</ns3:cad>
          </ns3:TrackPointExtension>
        </extensions>
      </trkpt>
      <trkpt lat="47.54962130449712276458740234375" lon="11.00431795231997966766357421875">
        <ele>1819.4000244140625</ele>
        <time>2026-09-01T07:30:15.000Z</time>
        <extensions>
          <ns3:TrackPointExtension>
            <ns3:hr>163</ns3:hr>
            <ns3:cad>44</ns3:cad>
          </ns3:TrackPointExtension>
        </extensions>
      </trkpt>
      <trkpt lat="47.5496145151555538177490234375" lon="11.00431091152131557464599609375">
        <ele>1819.5999755859375</ele>
        <time>2026-09-01T07:30:16.000Z</time>
        <extensions>
          <ns3:TrackPointExtension>
            <ns3:hr>164</ns3:hr>
            <ns3:cad>44</ns3:cad>
          </ns3:TrackPointExtension>
        </extensions>
      </trkpt>
      <trkpt lat="47.54961359314620494842529296875" lon="11.004309318959712982177734375">
        <ele>1819.5999755859375</ele>
        <time>2026-09-01T07:30:17.000Z</time>
        <extensions>
          <ns3:TrackPointExtension>
            <ns3:hr>165</ns3:hr>
            <ns3:cad>44</ns3:cad>
          </ns3:TrackPointExtension>
        </extensions>
      </trkpt>
      <trkpt lat="47.5496121682226657867431640625" lon="11.0042950697243213653564453125">
        <ele>1820</ele>
        <time>2026-09-01T07:30:18.000Z</time>
        <extensions>
          <ns3:TrackPointExtension>
            <ns3:hr>165</ns3:hr>
            <ns3:cad>44</ns3:cad>
          </ns3:TrackPointExtension>
        </extensions>
      </trkpt>
      <trkpt lat="47.54961342550814151763916015625" lon="11.0042883642017841339111328125">
        <ele>1820.4000244140625</ele>
        <time>2026-09-01T07:30:19.000Z</time>
        <extensions>
          <ns3:TrackPointExtension>
            <ns3:hr>165</ns3:hr>
            <ns3:cad>44</ns3:cad>
          </ns3:TrackPointExtension>
        </extensions>
      </trkpt>
      <trkpt lat="47.549615688621997833251953125" lon="11.0042913816869258880615234375">
        <ele>1820.5999755859375</ele>
        <time>2026-09-01T07:30:20.000Z</time>
        <extensions>
          <ns3:TrackPointExtension>
            <ns3:hr>166</ns3:hr>
            <ns3:cad>44</ns3:cad>
          </ns3:TrackPointExtension>
        </extensions>
      </trkpt>
      <trkpt lat="47.54961669445037841796875" lon="11.00428744219243526458740234375">
        <ele>1821</ele>
        <time>2026-09-01T07:30:21.000Z</time>
        <extensions>
          <ns3:TrackPointExtension>
            <ns3:hr>166</ns3:hr>
            <ns3:cad>44</ns3:cad>
          </ns3:TrackPointExtension>
        </extensions>
      </trkpt>
      <trkpt lat="47.54961946047842502593994140625" lon="11.0042762942612171173095703125">
        <ele>1821.199951171875</ele>
        <time>2026-09-01T07:30:22.000Z</time>
        <extensions>
          <ns3:TrackPointExtension>
            <ns3:hr>167</ns3:hr>
            <ns3:cad>44</ns3:cad>
          </ns3:TrackPointExtension>
        </extensions>
      </trkpt>
      <trkpt lat="47.54961996339261531829833984375" lon="11.00426514632999897003173828125">
        <ele>1821.199951171875</ele>
        <time>2026-09-01T07:30:23.000Z</time>
        <extensions>
          <ns3:TrackPointExtension>
            <ns3:hr>168</ns3:hr>
            <ns3:cad>79</ns3:cad>
          </ns3:TrackPointExtension>
        </extensions>
      </trkpt>
      <trkpt lat="47.54962080158293247222900390625" lon="11.00425542332231998443603515625">
        <ele>1821.199951171875</ele>
        <time>2026-09-01T07:30:24.000Z</time>
        <extensions>
          <ns3:TrackPointExtension>
            <ns3:hr>168</ns3:hr>
            <ns3:cad>79</ns3:cad>
          </ns3:TrackPointExtension>
        </extensions>
      </trkpt>
      <trkpt lat="47.5496185384690761566162109375" lon="11.00425140000879764556884765625">
        <ele>1821.199951171875</ele>
        <time>2026-09-01T07:30:25.000Z</time>
        <extensions>
          <ns3:TrackPointExtension>
            <ns3:hr>169</ns3:hr>
            <ns3:cad>40</ns3:cad>
          </ns3:TrackPointExtension>
        </extensions>
      </trkpt>
      <trkpt lat="47.5496192090213298797607421875" lon="11.00424637086689472198486328125">
        <ele>1821.4000244140625</ele>
        <time>2026-09-01T07:30:26.000Z</time>
        <extensions>
          <ns3:TrackPointExtension>
            <ns3:hr>169</ns3:hr>
            <ns3:cad>40</ns3:cad>
          </ns3:TrackPointExtension>
        </extensions>
      </trkpt>
      <trkpt lat="47.54961996339261531829833984375" lon="11.00423580966889858245849609375">
        <ele>1821.800048828125</ele>
        <time>2026-09-01T07:30:27.000Z</time>
        <extensions>
          <ns3:TrackPointExtension>
            <ns3:hr>170</ns3:hr>
            <ns3:cad>40</ns3:cad>
          </ns3:TrackPointExtension>
        </extensions>
      </trkpt>
      <trkpt lat="47.549619711935520172119140625" lon="11.00422692485153675079345703125">
        <ele>1822.4000244140625</ele>
        <time>2026-09-01T07:30:28.000Z</time>
        <extensions>
          <ns3:TrackPointExtension>
            <ns3:hr>170</ns3:hr>
            <ns3:cad>40</ns3:cad>
          </ns3:TrackPointExtension>
        </extensions>
      </trkpt>
      <trkpt lat="47.5496175326406955718994140625" lon="11.004212759435176849365234375">
        <ele>1822.800048828125</ele>
        <time>2026-09-01T07:30:29.000Z</time>
        <extensions>
          <ns3:TrackPointExtension>
            <ns3:hr>171</ns3:hr>
            <ns3:cad>40</ns3:cad>
          </ns3:TrackPointExtension>
        </extensions>
      </trkpt>
      <trkpt lat="47.54960956983268260955810546875" lon="11.0041995160281658172607421875">
        <ele>1823</ele>
        <time>2026-09-01T07:30:30.000Z</time>
        <extensions>
          <ns3:TrackPointExtension>
            <ns3:hr>171</ns3:hr>
            <ns3:cad>40</ns3:cad>
          </ns3:TrackPointExtension>
        </extensions>
      </trkpt>
      <trkpt lat="47.54960588179528713226318359375" lon="11.00418887101113796234130859375">
        <ele>1823.4000244140625</ele>
        <time>2026-09-01T07:30:31.000Z</time>
        <extensions>
          <ns3:TrackPointExtension>
            <ns3:hr>171</ns3:hr>
            <ns3:cad>40</ns3:cad>
          </ns3:TrackPointExtension>
        </extensions>
      </trkpt>
      <trkpt lat="47.54960185848176479339599609375" lon="11.00417084991931915283203125">
        <ele>1823.4000244140625</ele>
        <time>2026-09-01T07:30:32.000Z</time>
        <extensions>
          <ns3:TrackPointExtension>
            <ns3:hr>172</ns3:hr>
            <ns3:cad>0</ns3:cad>
          </ns3:TrackPointExtension>
        </extensions>
      </trkpt>
      <trkpt lat="47.549602948129177093505859375" lon="11.004161126911640167236328125">
        <ele>1823.4000244140625</ele>
        <time>2026-09-01T07:30:33.000Z</time>
        <extensions>
          <ns3:TrackPointExtension>
            <ns3:hr>172</ns3:hr>
            <ns3:cad>0</ns3:cad>
          </ns3:TrackPointExtension>
        </extensions>
      </trkpt>
      <trkpt lat="47.5496041215956211090087890625" lon="11.0041448660194873809814453125">
        <ele>1823.4000244140625</ele>
        <time>2026-09-01T07:30:34.000Z</time>
        <extensions>
          <ns3:TrackPointExtension>
            <ns3:hr>172</ns3:hr>
            <ns3:cad>0</ns3:cad>
          </ns3:TrackPointExtension>
        </extensions>
      </trkpt>
      <trkpt lat="47.54960185848176479339599609375" lon="11.0041378252208232879638671875">
        <ele>1823.4000244140625</ele>
        <time>2026-09-01T07:30:35.000Z</time>
        <extensions>
          <ns3:TrackPointExtension>
            <ns3:hr>172</ns3:hr>
            <ns3:cad>0</ns3:cad>
          </ns3:TrackPointExtension>
        </extensions>
      </trkpt>
      <trkpt lat="47.54960051737725734710693359375" lon="11.00413539446890354156494140625">
        <ele>1823.5999755859375</ele>
        <time>2026-09-01T07:30:36.000Z</time>
        <extensions>
          <ns3:TrackPointExtension>
            <ns3:hr>172</ns3:hr>
            <ns3:cad>0</ns3:cad>
          </ns3:TrackPointExtension>
        </extensions>
      </trkpt>
      <trkpt lat="47.54960001446306705474853515625" lon="11.0041281022131443023681640625">
        <ele>1823.5999755859375</ele>
        <time>2026-09-01T07:30:37.000Z</time>
        <extensions>
          <ns3:TrackPointExtension>
            <ns3:hr>173</ns3:hr>
            <ns3:cad>0</ns3:cad>
          </ns3:TrackPointExtension>
        </extensions>
      </trkpt>
      <trkpt lat="47.5495987571775913238525390625" lon="11.0041180439293384552001953125">
        <ele>1823.800048828125</ele>
        <time>2026-09-01T07:30:38.000Z</time>
        <extensions>
          <ns3:TrackPointExtension>
            <ns3:hr>173</ns3:hr>
            <ns3:cad>0</ns3:cad>
          </ns3:TrackPointExtension>
        </extensions>
      </trkpt>
      <trkpt lat="47.5495927222073078155517578125" lon="11.00410069338977336883544921875">
        <ele>1824</ele>
        <time>2026-09-01T07:30:39.000Z</time>
        <extensions>
          <ns3:TrackPointExtension>
            <ns3:hr>173</ns3:hr>
            <ns3:cad>0</ns3:cad>
          </ns3:TrackPointExtension>
        </extensions>
      </trkpt>
      <trkpt lat="47.54959615878760814666748046875" lon="11.0040878690779209136962890625">
        <ele>1824.4000244140625</ele>
        <time>2026-09-01T07:30:40.000Z</time>
        <extensions>
          <ns3:TrackPointExtension>
            <ns3:hr>172</ns3:hr>
            <ns3:cad>40</ns3:cad>
          </ns3:TrackPointExtension>
        </extensions>
      </trkpt>
      <trkpt lat="47.54957419820129871368408203125" lon="11.0040908865630626678466796875">
        <ele>1824.800048828125</ele>
        <time>2026-09-01T07:30:41.000Z</time>
        <extensions>
          <ns3:TrackPointExtension>
            <ns3:hr>170</ns3:hr>
            <ns3:cad>40</ns3:cad>
          </ns3:TrackPointExtension>
        </extensions>
      </trkpt>
      <trkpt lat="47.54956665448844432830810546875" lon="11.00408191792666912078857421875">
        <ele>1825.199951171875</ele>
        <time>2026-09-01T07:30:42.000Z</time>
        <extensions>
          <ns3:TrackPointExtension>
            <ns3:hr>169</ns3:hr>
            <ns3:cad>40</ns3:cad>
          </ns3:TrackPointExtension>
        </extensions>
      </trkpt>
      <trkpt lat="47.5495588593184947967529296875" lon="11.0040667466819286346435546875">
        <ele>1825.4000244140625</ele>
        <time>2026-09-01T07:30:43.000Z</time>
        <extensions>
          <ns3:TrackPointExtension>
            <ns3:hr>169</ns3:hr>
            <ns3:cad>40</ns3:cad>
          </ns3:TrackPointExtension>
        </extensions>
      </trkpt>
      <trkpt lat="47.54955475218594074249267578125" lon="11.0040580295026302337646484375">
        <ele>1825.5999755859375</ele>
        <time>2026-09-01T07:30:44.000Z</time>
        <extensions>
          <ns3:TrackPointExtension>
            <ns3:hr>170</ns3:hr>
            <ns3:cad>40</ns3:cad>
          </ns3:TrackPointExtension>
        </extensions>
      </trkpt>
      <trkpt lat="47.54954301752150058746337890625" lon="11.0040633939206600189208984375">
        <ele>1825.800048828125</ele>
        <time>2026-09-01T07:30:45.000Z</time>
        <extensions>
          <ns3:TrackPointExtension>
            <ns3:hr>170</ns3:hr>
            <ns3:cad>77</ns3:cad>
          </ns3:TrackPointExtension>
        </extensions>
      </trkpt>
      <trkpt lat="47.54952742718160152435302734375" lon="11.00406079553067684173583984375">
        <ele>1825.800048828125</ele>
        <time>2026-09-01T07:30:46.000Z</time>
        <extensions>
          <ns3:TrackPointExtension>
            <ns3:hr>171</ns3:hr>
            <ns3:cad>77</ns3:cad>
          </ns3:TrackPointExtension>
        </extensions>
      </trkpt>
      <trkpt lat="47.54951502196490764617919921875" lon="11.00405878387391567230224609375">
        <ele>1826.199951171875</ele>
        <time>2026-09-01T07:30:47.000Z</time>
        <extensions>
          <ns3:TrackPointExtension>
            <ns3:hr>171</ns3:hr>
            <ns3:cad>77</ns3:cad>
          </ns3:TrackPointExtension>
        </extensions>
      </trkpt>
      <trkpt lat="47.5495072267949581146240234375" lon="11.00405442528426647186279296875">
        <ele>1826.5999755859375</ele>
        <time>2026-09-01T07:30:48.000Z</time>
        <extensions>
          <ns3:TrackPointExtension>
            <ns3:hr>171</ns3:hr>
            <ns3:cad>43</ns3:cad>
          </ns3:TrackPointExtension>
        </extensions>
      </trkpt>
      <trkpt lat="47.54949557594954967498779296875" lon="11.00405325181782245635986328125">
        <ele>1827.199951171875</ele>
        <time>2026-09-01T07:30:49.000Z</time>
        <extensions>
          <ns3:TrackPointExtension>
            <ns3:hr>171</ns3:hr>
            <ns3:cad>43</ns3:cad>
          </ns3:TrackPointExtension>
        </extensions>
      </trkpt>
      <trkpt lat="47.54948920570313930511474609375" lon="11.00405693985521793365478515625">
        <ele>1827.4000244140625</ele>
        <time>2026-09-01T07:30:50.000Z</time>
        <extensions>
          <ns3:TrackPointExtension>
            <ns3:hr>172</ns3:hr>
            <ns3:cad>43</ns3:cad>
          </ns3:TrackPointExtension>
        </extensions>
      </trkpt>
      <trkpt lat="47.549474202096462249755859375" lon="11.004059873521327972412109375">
        <ele>1827.800048828125</ele>
        <time>2026-09-01T07:30:51.000Z</time>
        <extensions>
          <ns3:TrackPointExtension>
            <ns3:hr>172</ns3:hr>
            <ns3:cad>43</ns3:cad>
          </ns3:TrackPointExtension>
        </extensions>
      </trkpt>
      <trkpt lat="47.54946447908878326416015625" lon="11.004050485789775848388671875">
        <ele>1827.800048828125</ele>
        <time>2026-09-01T07:30:52.000Z</time>
        <extensions>
          <ns3:TrackPointExtension>
            <ns3:hr>172</ns3:hr>
            <ns3:cad>0</ns3:cad>
          </ns3:TrackPointExtension>
        </extensions>
      </trkpt>
      <trkpt lat="47.549450062215328216552734375" lon="11.00404637865722179412841796875">
        <ele>1827.800048828125</ele>
        <time>2026-09-01T07:30:53.000Z</time>
        <extensions>
          <ns3:TrackPointExtension>
            <ns3:hr>173</ns3:hr>
            <ns3:cad>0</ns3:cad>
          </ns3:TrackPointExtension>
        </extensions>
      </trkpt>
      <trkpt lat="47.5494341365993022918701171875" lon="11.00404067896306514739990234375">
        <ele>1827.4000244140625</ele>
        <time>2026-09-01T07:30:54.000Z</time>
        <extensions>
          <ns3:TrackPointExtension>
            <ns3:hr>173</ns3:hr>
            <ns3:cad>0</ns3:cad>
          </ns3:TrackPointExtension>
        </extensions>
      </trkpt>
      <trkpt lat="47.54942365922033786773681640625" lon="11.004041768610477447509765625">
        <ele>1826.5999755859375</ele>
        <time>2026-09-01T07:30:55.000Z</time>
        <extensions>
          <ns3:TrackPointExtension>
            <ns3:hr>173</ns3:hr>
            <ns3:cad>0</ns3:cad>
          </ns3:TrackPointExtension>
        </extensions>
      </trkpt>
      <trkpt lat="47.54941326566040515899658203125" lon="11.0040345601737499237060546875">
        <ele>1826</ele>
        <time>2026-09-01T07:30:56.000Z</time>
        <extensions>
          <ns3:TrackPointExtension>
            <ns3:hr>173</ns3:hr>
            <ns3:cad>0</ns3:cad>
          </ns3:TrackPointExtension>
        </extensions>
      </trkpt>
      <trkpt lat="47.5494012795388698577880859375" lon="11.00402961485087871551513671875">
        <ele>1825.199951171875</ele>
        <time>2026-09-01T07:30:57.000Z</time>
        <extensions>
          <ns3:TrackPointExtension>
            <ns3:hr>173</ns3:hr>
            <ns3:cad>0</ns3:cad>
          </ns3:TrackPointExtension>
        </extensions>
      </trkpt>
      <trkpt lat="47.5493885390460491180419921875" lon="11.00402123294770717620849609375">
        <ele>1824.5999755859375</ele>
        <time>2026-09-01T07:30:58.000Z</time>
        <extensions>
          <ns3:TrackPointExtension>
            <ns3:hr>173</ns3:hr>
            <ns3:cad>0</ns3:cad>
          </ns3:TrackPointExtension>
        </extensions>
      </trkpt>
      <trkpt lat="47.5493778102099895477294921875" lon="11.0040134377777576446533203125">
        <ele>1824.4000244140625</ele>
        <time>2026-09-01T07:30:59.000Z</time>
        <extensions>
          <ns3:TrackPointExtension>
            <ns3:hr>172</ns3:hr>
            <ns3:cad>0</ns3:cad>
          </ns3:TrackPointExtension>
        </extensions>
      </trkpt>
      <trkpt lat="47.54937068559229373931884765625" lon="11.00399927236139774322509765625">
        <ele>1824.4000244140625</ele>
        <time>2026-09-01T07:31:00.000Z</time>
        <extensions>
          <ns3:TrackPointExtension>
            <ns3:hr>171</ns3:hr>
            <ns3:cad>0</ns3:cad>
          </ns3:TrackPointExtension>
        </extensions>
      </trkpt>
      <trkpt lat="47.54936029203236103057861328125" lon="11.00398569367825984954833984375">
        <ele>1824.5999755859375</ele>
        <time>2026-09-01T07:31:01.000Z</time>
        <extensions>
          <ns3:TrackPointExtension>
            <ns3:hr>170</ns3:hr>
            <ns3:cad>0</ns3:cad>
          </ns3:TrackPointExtension>
        </extensions>
      </trkpt>
      <trkpt lat="47.54935811273753643035888671875" lon="11.0039691813290119171142578125">
        <ele>1825</ele>
        <time>2026-09-01T07:31:02.000Z</time>
        <extensions>
          <ns3:TrackPointExtension>
            <ns3:hr>170</ns3:hr>
            <ns3:cad>0</ns3:cad>
          </ns3:TrackPointExtension>
        </extensions>
      </trkpt>
      <trkpt lat="47.5493489764630794525146484375" lon="11.00395669229328632354736328125">
        <ele>1825.4000244140625</ele>
        <time>2026-09-01T07:31:03.000Z</time>
        <extensions>
          <ns3:TrackPointExtension>
            <ns3:hr>170</ns3:hr>
            <ns3:cad>0</ns3:cad>
          </ns3:TrackPointExtension>
        </extensions>
      </trkpt>
      <trkpt lat="47.54934847354888916015625" lon="11.003949902951717376708984375">
        <ele>1825.800048828125</ele>
        <time>2026-09-01T07:31:04.000Z</time>
        <extensions>
          <ns3:TrackPointExtension>
            <ns3:hr>170</ns3:hr>
            <ns3:cad>0</ns3:cad>
          </ns3:TrackPointExtension>
        </extensions>
      </trkpt>
      <trkpt lat="47.5493375770747661590576171875" lon="11.0039450414478778839111328125">
        <ele>1826</ele>
        <time>2026-09-01T07:31:05.000Z</time>
        <extensions>
          <ns3:TrackPointExtension>
            <ns3:hr>170</ns3:hr>
            <ns3:cad>0</ns3:cad>
          </ns3:TrackPointExtension>
        </extensions>
      </trkpt>
      <trkpt lat="47.5493291951715946197509765625" lon="11.00394009612500667572021484375">
        <ele>1826.199951171875</ele>
        <time>2026-09-01T07:31:06.000Z</time>
        <extensions>
          <ns3:TrackPointExtension>
            <ns3:hr>170</ns3:hr>
            <ns3:cad>0</ns3:cad>
          </ns3:TrackPointExtension>
        </extensions>
      </trkpt>
      <trkpt lat="47.549324668943881988525390625" lon="11.0039420239627361297607421875">
        <ele>1826.199951171875</ele>
        <time>2026-09-01T07:31:07.000Z</time>
        <extensions>
          <ns3:TrackPointExtension>
            <ns3:hr>169</ns3:hr>
            <ns3:cad>0</ns3:cad>
          </ns3:TrackPointExtension>
        </extensions>
      </trkpt>
      <trkpt lat="47.54931293427944183349609375" lon="11.00394512526690959930419921875">
        <ele>1826.4000244140625</ele>
        <time>2026-09-01T07:31:08.000Z</time>
        <extensions>
          <ns3:TrackPointExtension>
            <ns3:hr>169</ns3:hr>
            <ns3:cad>0</ns3:cad>
          </ns3:TrackPointExtension>
        </extensions>
      </trkpt>
      <trkpt lat="47.5493060611188411712646484375" lon="11.0039494000375270843505859375">
        <ele>1826.5999755859375</ele>
        <time>2026-09-01T07:31:09.000Z</time>
        <extensions>
          <ns3:TrackPointExtension>
            <ns3:hr>168</ns3:hr>
            <ns3:cad>0</ns3:cad>
          </ns3:TrackPointExtension>
        </extensions>
      </trkpt>
      <trkpt lat="47.54929390735924243927001953125" lon="11.00394495762884616851806640625">
        <ele>1826.800048828125</ele>
        <time>2026-09-01T07:31:10.000Z</time>
        <extensions>
          <ns3:TrackPointExtension>
            <ns3:hr>168</ns3:hr>
            <ns3:cad>0</ns3:cad>
          </ns3:TrackPointExtension>
        </extensions>
      </trkpt>
      <trkpt lat="47.5492827594280242919921875" lon="11.00394286215305328369140625">
        <ele>1827.199951171875</ele>
        <time>2026-09-01T07:31:11.000Z</time>
        <extensions>
          <ns3:TrackPointExtension>
            <ns3:hr>167</ns3:hr>
            <ns3:cad>0</ns3:cad>
          </ns3:TrackPointExtension>
        </extensions>
      </trkpt>
      <trkpt lat="47.54927446134388446807861328125" lon="11.0039408504962921142578125">
        <ele>1827.5999755859375</ele>
        <time>2026-09-01T07:31:12.000Z</time>
        <extensions>
          <ns3:TrackPointExtension>
            <ns3:hr>167</ns3:hr>
            <ns3:cad>0</ns3:cad>
          </ns3:TrackPointExtension>
        </extensions>
      </trkpt>
      <trkpt lat="47.54926188848912715911865234375" lon="11.0039437003433704376220703125">
        <ele>1827.800048828125</ele>
        <time>2026-09-01T07:31:13.000Z</time>
        <extensions>
          <ns3:TrackPointExtension>
            <ns3:hr>167</ns3:hr>
            <ns3:cad>0</ns3:cad>
          </ns3:TrackPointExtension>
        </extensions>
      </trkpt>
      <trkpt lat="47.54925233311951160430908203125" lon="11.00393959321081638336181640625">
        <ele>1827.800048828125</ele>
        <time>2026-09-01T07:31:14.000Z</time>
        <extensions>
          <ns3:TrackPointExtension>
            <ns3:hr>167</ns3:hr>
            <ns3:cad>0</ns3:cad>
          </ns3:TrackPointExtension>
        </extensions>
      </trkpt>
      <trkpt lat="47.54924453794956207275390625" lon="11.0039373300969600677490234375">
        <ele>1828</ele>
        <time>2026-09-01T07:31:15.000Z</time>
        <extensions>
          <ns3:TrackPointExtension>
            <ns3:hr>167</ns3:hr>
            <ns3:cad>0</ns3:cad>
          </ns3:TrackPointExtension>
        </extensions>
      </trkpt>
      <trkpt lat="47.549231462180614471435546875" lon="11.0039373300969600677490234375">
        <ele>1828</ele>
        <time>2026-09-01T07:31:16.000Z</time>
        <extensions>
          <ns3:TrackPointExtension>
            <ns3:hr>167</ns3:hr>
            <ns3:cad>0</ns3:cad>
          </ns3:TrackPointExtension>
        </extensions>
      </trkpt>
      <trkpt lat="47.5492222420871257781982421875" lon="11.003944873809814453125">
        <ele>1828.199951171875</ele>
        <time>2026-09-01T07:31:17.000Z</time>
        <extensions>
          <ns3:TrackPointExtension>
            <ns3:hr>168</ns3:hr>
            <ns3:cad>0</ns3:cad>
          </ns3:TrackPointExtension>
        </extensions>
      </trkpt>
      <trkpt lat="47.5492130219936370849609375" lon="11.003949232399463653564453125">
        <ele>1828.4000244140625</ele>
        <time>2026-09-01T07:31:18.000Z</time>
        <extensions>
          <ns3:TrackPointExtension>
            <ns3:hr>167</ns3:hr>
            <ns3:cad>0</ns3:cad>
          </ns3:TrackPointExtension>
        </extensions>
      </trkpt>
      <trkpt lat="47.5492058135569095611572265625" lon="11.0039515793323516845703125">
        <ele>1828.5999755859375</ele>
        <time>2026-09-01T07:31:19.000Z</time>
        <extensions>
          <ns3:TrackPointExtension>
            <ns3:hr>167</ns3:hr>
            <ns3:cad>0</ns3:cad>
          </ns3:TrackPointExtension>
        </extensions>
      </trkpt>
      <trkpt lat="47.54919751547276973724365234375" lon="11.00395401008427143096923828125">
        <ele>1828.800048828125</ele>
        <time>2026-09-01T07:31:20.000Z</time>
        <extensions>
          <ns3:TrackPointExtension>
            <ns3:hr>167</ns3:hr>
            <ns3:cad>0</ns3:cad>
          </ns3:TrackPointExtension>
        </extensions>
      </trkpt>
      <trkpt lat="47.549185864627361297607421875" lon="11.003951914608478546142578125">
        <ele>1829.199951171875</ele>
        <time>2026-09-01T07:31:21.000Z</time>
        <extensions>
          <ns3:TrackPointExtension>
            <ns3:hr>168</ns3:hr>
            <ns3:cad>0</ns3:cad>
          </ns3:TrackPointExtension>
        </extensions>
      </trkpt>
      <trkpt lat="47.54916951991617679595947265625" lon="11.003951914608478546142578125">
        <ele>1829.4000244140625</ele>
        <time>2026-09-01T07:31:22.000Z</time>
        <extensions>
          <ns3:TrackPointExtension>
            <ns3:hr>167</ns3:hr>
            <ns3:cad>0</ns3:cad>
          </ns3:TrackPointExtension>
        </extensions>
      </trkpt>
      <trkpt lat="47.54916432313621044158935546875" lon="11.00395266897976398468017578125">
        <ele>1829.800048828125</ele>
        <time>2026-09-01T07:31:23.000Z</time>
        <extensions>
          <ns3:TrackPointExtension>
            <ns3:hr>167</ns3:hr>
            <ns3:cad>0</ns3:cad>
          </ns3:TrackPointExtension>
        </extensions>
      </trkpt>
      <trkpt lat="47.5491593778133392333984375" lon="11.0039507411420345306396484375">
        <ele>1830</ele>
        <time>2026-09-01T07:31:24.000Z</time>
        <extensions>
          <ns3:TrackPointExtension>
            <ns3:hr>167</ns3:hr>
            <ns3:cad>0</ns3:cad>
          </ns3:TrackPointExtension>
        </extensions>
      </trkpt>
      <trkpt lat="47.54914906807243824005126953125" lon="11.00395099259912967681884765625">
        <ele>1830.4000244140625</ele>
        <time>2026-09-01T07:31:25.000Z</time>
        <extensions>
          <ns3:TrackPointExtension>
            <ns3:hr>166</ns3:hr>
            <ns3:cad>0</ns3:cad>
          </ns3:TrackPointExtension>
        </extensions>
      </trkpt>
      <trkpt lat="47.54913615994155406951904296875" lon="11.0039515793323516845703125">
        <ele>1830.5999755859375</ele>
        <time>2026-09-01T07:31:26.000Z</time>
        <extensions>
          <ns3:TrackPointExtension>
            <ns3:hr>166</ns3:hr>
            <ns3:cad>0</ns3:cad>
          </ns3:TrackPointExtension>
        </extensions>
      </trkpt>
      <trkpt lat="47.5491283647716045379638671875" lon="11.00395820103585720062255859375">
        <ele>1830.800048828125</ele>
        <time>2026-09-01T07:31:27.000Z</time>
        <extensions>
          <ns3:TrackPointExtension>
            <ns3:hr>166</ns3:hr>
            <ns3:cad>0</ns3:cad>
          </ns3:TrackPointExtension>
        </extensions>
      </trkpt>
      <trkpt lat="47.54911956377327442169189453125" lon="11.00395652465522289276123046875">
        <ele>1831.199951171875</ele>
        <time>2026-09-01T07:31:28.000Z</time>
        <extensions>
          <ns3:TrackPointExtension>
            <ns3:hr>166</ns3:hr>
            <ns3:cad>0</ns3:cad>
          </ns3:TrackPointExtension>
        </extensions>
      </trkpt>
      <trkpt lat="47.54911352880299091339111328125" lon="11.00395535118877887725830078125">
        <ele>1831.5999755859375</ele>
        <time>2026-09-01T07:31:29.000Z</time>
        <extensions>
          <ns3:TrackPointExtension>
            <ns3:hr>167</ns3:hr>
            <ns3:cad>0</ns3:cad>
          </ns3:TrackPointExtension>
        </extensions>
      </trkpt>
      <trkpt lat="47.54910564981400966644287109375" lon="11.0039500705897808074951171875">
        <ele>1831.800048828125</ele>
        <time>2026-09-01T07:31:30.000Z</time>
        <extensions>
          <ns3:TrackPointExtension>
            <ns3:hr>166</ns3:hr>
            <ns3:cad>0</ns3:cad>
          </ns3:TrackPointExtension>
        </extensions>
      </trkpt>
      <trkpt lat="47.5490968488156795501708984375" lon="11.00394646637141704559326171875">
        <ele>1832</ele>
        <time>2026-09-01T07:31:31.000Z</time>
        <extensions>
          <ns3:TrackPointExtension>
            <ns3:hr>166</ns3:hr>
            <ns3:cad>0</ns3:cad>
          </ns3:TrackPointExtension>
        </extensions>
      </trkpt>
      <trkpt lat="47.54909223876893520355224609375" lon="11.0039426945149898529052734375">
        <ele>1832.4000244140625</ele>
        <time>2026-09-01T07:31:32.000Z</time>
        <extensions>
          <ns3:TrackPointExtension>
            <ns3:hr>166</ns3:hr>
            <ns3:cad>0</ns3:cad>
          </ns3:TrackPointExtension>
        </extensions>
      </trkpt>
      <trkpt lat="47.54908301867544651031494140625" lon="11.0039363242685794830322265625">
        <ele>1832.5999755859375</ele>
        <time>2026-09-01T07:31:33.000Z</time>
        <extensions>
          <ns3:TrackPointExtension>
            <ns3:hr>166</ns3:hr>
            <ns3:cad>0</ns3:cad>
          </ns3:TrackPointExtension>
        </extensions>
      </trkpt>
      <trkpt lat="47.54907681606709957122802734375" lon="11.003931127488613128662109375">
        <ele>1832.800048828125</ele>
        <time>2026-09-01T07:31:34.000Z</time>
        <extensions>
          <ns3:TrackPointExtension>
            <ns3:hr>166</ns3:hr>
            <ns3:cad>0</ns3:cad>
          </ns3:TrackPointExtension>
        </extensions>
      </trkpt>
      <trkpt lat="47.5490572862327098846435546875" lon="11.00393406115472316741943359375">
        <ele>1833.199951171875</ele>
        <time>2026-09-01T07:31:35.000Z</time>
        <extensions>
          <ns3:TrackPointExtension>
            <ns3:hr>166</ns3:hr>
            <ns3:cad>0</ns3:cad>
          </ns3:TrackPointExtension>
        </extensions>
      </trkpt>
      <trkpt lat="47.5490458868443965911865234375" lon="11.0039323009550571441650390625">
        <ele>1833.4000244140625</ele>
        <time>2026-09-01T07:31:36.000Z</time>
        <extensions>
          <ns3:TrackPointExtension>
            <ns3:hr>167</ns3:hr>
            <ns3:cad>0</ns3:cad>
          </ns3:TrackPointExtension>
        </extensions>
      </trkpt>
      <trkpt lat="47.5490328110754489898681640625" lon="11.00393808446824550628662109375">
        <ele>1833.4000244140625</ele>
        <time>2026-09-01T07:31:37.000Z</time>
        <extensions>
          <ns3:TrackPointExtension>
            <ns3:hr>166</ns3:hr>
            <ns3:cad>0</ns3:cad>
          </ns3:TrackPointExtension>
        </extensions>
      </trkpt>
      <trkpt lat="47.54902048967778682708740234375" lon="11.00394076667726039886474609375">
        <ele>1833.5999755859375</ele>
        <time>2026-09-01T07:31:38.000Z</time>
        <extensions>
          <ns3:TrackPointExtension>
            <ns3:hr>166</ns3:hr>
            <ns3:cad>0</ns3:cad>
          </ns3:TrackPointExtension>
        </extensions>
      </trkpt>
      <trkpt lat="47.549004815518856048583984375" lon="11.00393523462116718292236328125">
        <ele>1833.800048828125</ele>
        <time>2026-09-01T07:31:39.000Z</time>
        <extensions>
          <ns3:TrackPointExtension>
            <ns3:hr>167</ns3:hr>
            <ns3:cad>0</ns3:cad>
          </ns3:TrackPointExtension>
        </extensions>
      </trkpt>
      <trkpt lat="47.54898930899798870086669921875" lon="11.00392785854637622833251953125">
        <ele>1834.199951171875</ele>
        <time>2026-09-01T07:31:40.000Z</time>
        <extensions>
          <ns3:TrackPointExtension>
            <ns3:hr>167</ns3:hr>
            <ns3:cad>0</ns3:cad>
          </ns3:TrackPointExtension>
        </extensions>
      </trkpt>
      <trkpt lat="47.54897631704807281494140625" lon="11.00392266176640987396240234375">
        <ele>1835</ele>
        <time>2026-09-01T07:31:41.000Z</time>
        <extensions>
          <ns3:TrackPointExtension>
            <ns3:hr>166</ns3:hr>
            <ns3:cad>0</ns3:cad>
          </ns3:TrackPointExtension>
        </extensions>
      </trkpt>
      <trkpt lat="47.54896231926977634429931640625" lon="11.00391796790063381195068359375">
        <ele>1836</ele>
        <time>2026-09-01T07:31:42.000Z</time>
        <extensions>
          <ns3:TrackPointExtension>
            <ns3:hr>166</ns3:hr>
            <ns3:cad>72</ns3:cad>
          </ns3:TrackPointExtension>
        </extensions>
      </trkpt>
      <trkpt lat="47.54894773475825786590576171875" lon="11.00391411222517490386962890625">
        <ele>1836.4000244140625</ele>
        <time>2026-09-01T07:31:43.000Z</time>
        <extensions>
          <ns3:TrackPointExtension>
            <ns3:hr>165</ns3:hr>
            <ns3:cad>72</ns3:cad>
          </ns3:TrackPointExtension>
        </extensions>
      </trkpt>
      <trkpt lat="47.54893566481769084930419921875" lon="11.00391260348260402679443359375">
        <ele>1836.5999755859375</ele>
        <time>2026-09-01T07:31:44.000Z</time>
        <extensions>
          <ns3:TrackPointExtension>
            <ns3:hr>165</ns3:hr>
            <ns3:cad>72</ns3:cad>
          </ns3:TrackPointExtension>
        </extensions>
      </trkpt>
      <trkpt lat="47.548920996487140655517578125" lon="11.00391201674938201904296875">
        <ele>1836.199951171875</ele>
        <time>2026-09-01T07:31:45.000Z</time>
        <extensions>
          <ns3:TrackPointExtension>
            <ns3:hr>165</ns3:hr>
            <ns3:cad>72</ns3:cad>
          </ns3:TrackPointExtension>
        </extensions>
      </trkpt>
      <trkpt lat="47.548908255994319915771484375" lon="11.0039126873016357421875">
        <ele>1835.5999755859375</ele>
        <time>2026-09-01T07:31:46.000Z</time>
        <extensions>
          <ns3:TrackPointExtension>
            <ns3:hr>164</ns3:hr>
            <ns3:cad>72</ns3:cad>
          </ns3:TrackPointExtension>
        </extensions>
      </trkpt>
      <trkpt lat="47.5488943420350551605224609375" lon="11.00391469895839691162109375">
        <ele>1834.800048828125</ele>
        <time>2026-09-01T07:31:47.000Z</time>
        <extensions>
          <ns3:TrackPointExtension>
            <ns3:hr>165</ns3:hr>
            <ns3:cad>0</ns3:cad>
          </ns3:TrackPointExtension>
        </extensions>
      </trkpt>
      <trkpt lat="47.548888139426708221435546875" lon="11.0039242543280124664306640625">
        <ele>1834.199951171875</ele>
        <time>2026-09-01T07:31:48.000Z</time>
        <extensions>
          <ns3:TrackPointExtension>
            <ns3:hr>165</ns3:hr>
            <ns3:cad>0</ns3:cad>
          </ns3:TrackPointExtension>
        </extensions>
      </trkpt>
      <trkpt lat="47.54887439310550689697265625" lon="11.00392702035605907440185546875">
        <ele>1833.800048828125</ele>
        <time>2026-09-01T07:31:49.000Z</time>
        <extensions>
          <ns3:TrackPointExtension>
            <ns3:hr>165</ns3:hr>
            <ns3:cad>0</ns3:cad>
          </ns3:TrackPointExtension>
        </extensions>
      </trkpt>
      <trkpt lat="47.5488618202507495880126953125" lon="11.00392668507993221282958984375">
        <ele>1833.199951171875</ele>
        <time>2026-09-01T07:31:50.000Z</time>
        <extensions>
          <ns3:TrackPointExtension>
            <ns3:hr>166</ns3:hr>
            <ns3:cad>0</ns3:cad>
          </ns3:TrackPointExtension>
        </extensions>
      </trkpt>
      <trkpt lat="47.548846565186977386474609375" lon="11.00393020547926425933837890625">
        <ele>1832.4000244140625</ele>
        <time>2026-09-01T07:31:51.000Z</time>
        <extensions>
          <ns3:TrackPointExtension>
            <ns3:hr>166</ns3:hr>
            <ns3:cad>0</ns3:cad>
          </ns3:TrackPointExtension>
        </extensions>
      </trkpt>
      <trkpt lat="47.54882737062871456146240234375" lon="11.0039343126118183135986328125">
        <ele>1832</ele>
        <time>2026-09-01T07:31:52.000Z</time>
        <extensions>
          <ns3:TrackPointExtension>
            <ns3:hr>165</ns3:hr>
            <ns3:cad>0</ns3:cad>
          </ns3:TrackPointExtension>
        </extensions>
      </trkpt>
      <trkpt lat="47.5488071702420711517333984375" lon="11.0039359889924526214599609375">
        <ele>1831.5999755859375</ele>
        <time>2026-09-01T07:31:53.000Z</time>
        <extensions>
          <ns3:TrackPointExtension>
            <ns3:hr>165</ns3:hr>
            <ns3:cad>0</ns3:cad>
          </ns3:TrackPointExtension>
        </extensions>
      </trkpt>
      <trkpt lat="47.54879233427345752716064453125" lon="11.00393808446824550628662109375">
        <ele>1831.4000244140625</ele>
        <time>2026-09-01T07:31:54.000Z</time>
        <extensions>
          <ns3:TrackPointExtension>
            <ns3:hr>165</ns3:hr>
            <ns3:cad>0</ns3:cad>
          </ns3:TrackPointExtension>
        </extensions>
      </trkpt>
      <trkpt lat="47.54879652522504329681396484375" lon="11.00393238477408885955810546875">
        <ele>1831.4000244140625</ele>
        <time>2026-09-01T07:31:55.000Z</time>
        <extensions>
          <ns3:TrackPointExtension>
            <ns3:hr>164</ns3:hr>
            <ns3:cad>0</ns3:cad>
          </ns3:TrackPointExtension>
        </extensions>
      </trkpt>
      <trkpt lat="47.54878722131252288818359375" lon="11.003923080861568450927734375">
        <ele>1831.5999755859375</ele>
        <time>2026-09-01T07:31:56.000Z</time>
        <extensions>
          <ns3:TrackPointExtension>
            <ns3:hr>164</ns3:hr>
            <ns3:cad>0</ns3:cad>
          </ns3:TrackPointExtension>
        </extensions>
      </trkpt>
      <trkpt lat="47.54877523519098758697509765625" lon="11.00392878055572509765625">
        <ele>1832</ele>
        <time>2026-09-01T07:31:57.000Z</time>
        <extensions>
          <ns3:TrackPointExtension>
            <ns3:hr>163</ns3:hr>
            <ns3:cad>0</ns3:cad>
          </ns3:TrackPointExtension>
        </extensions>
      </trkpt>
      <trkpt lat="47.5487592257559299468994140625" lon="11.00391763262450695037841796875">
        <ele>1832.4000244140625</ele>
        <time>2026-09-01T07:31:58.000Z</time>
        <extensions>
          <ns3:TrackPointExtension>
            <ns3:hr>162</ns3:hr>
            <ns3:cad>0</ns3:cad>
          </ns3:TrackPointExtension>
        </extensions>
      </trkpt>
      <trkpt lat="47.5487511791288852691650390625" lon="11.003916375339031219482421875">
        <ele>1832.800048828125</ele>
        <time>2026-09-01T07:31:59.000Z</time>
        <extensions>
          <ns3:TrackPointExtension>
            <ns3:hr>161</ns3:hr>
            <ns3:cad>0</ns3:cad>
          </ns3:TrackPointExtension>
        </extensions>
      </trkpt>
      <trkpt lat="47.54873600788414478302001953125" lon="11.0039058141410350799560546875">
        <ele>1833.199951171875</ele>
        <time>2026-09-01T07:32:00.000Z</time>
        <extensions>
          <ns3:TrackPointExtension>
            <ns3:hr>160</ns3:hr>
            <ns3:cad>0</ns3:cad>
          </ns3:TrackPointExtension>
        </extensions>
      </trkpt>
      <trkpt lat="47.54872511141002178192138671875" lon="11.00390103645622730255126953125">
        <ele>1833.4000244140625</ele>
        <time>2026-09-01T07:32:01.000Z</time>
        <extensions>
          <ns3:TrackPointExtension>
            <ns3:hr>159</ns3:hr>
            <ns3:cad>0</ns3:cad>
          </ns3:TrackPointExtension>
        </extensions>
      </trkpt>
      <trkpt lat="47.54871740005910396575927734375" lon="11.0038860328495502471923828125">
        <ele>1834</ele>
        <time>2026-09-01T07:32:02.000Z</time>
        <extensions>
          <ns3:TrackPointExtension>
            <ns3:hr>158</ns3:hr>
            <ns3:cad>0</ns3:cad>
          </ns3:TrackPointExtension>
        </extensions>
      </trkpt>
      <trkpt lat="47.54871589131653308868408203125" lon="11.00387773476541042327880859375">
        <ele>1834.4000244140625</ele>
        <time>2026-09-01T07:32:03.000Z</time>
        <extensions>
          <ns3:TrackPointExtension>
            <ns3:hr>158</ns3:hr>
            <ns3:cad>0</ns3:cad>
          </ns3:TrackPointExtension>
        </extensions>
      </trkpt>
      <trkpt lat="47.54871086217463016510009765625" lon="11.003867425024509429931640625">
        <ele>1834.800048828125</ele>
        <time>2026-09-01T07:32:04.000Z</time>
        <extensions>
          <ns3:TrackPointExtension>
            <ns3:hr>157</ns3:hr>
            <ns3:cad>0</ns3:cad>
          </ns3:TrackPointExtension>
        </extensions>
      </trkpt>
      <trkpt lat="47.548701725900173187255859375" lon="11.0038635693490505218505859375">
        <ele>1835.4000244140625</ele>
        <time>2026-09-01T07:32:05.000Z</time>
        <extensions>
          <ns3:TrackPointExtension>
            <ns3:hr>157</ns3:hr>
            <ns3:cad>0</ns3:cad>
          </ns3:TrackPointExtension>
        </extensions>
      </trkpt>
      <trkpt lat="47.5486948527395725250244140625" lon="11.003855355083942413330078125">
        <ele>1835.800048828125</ele>
        <time>2026-09-01T07:32:06.000Z</time>
        <extensions>
          <ns3:TrackPointExtension>
            <ns3:hr>157</ns3:hr>
            <ns3:cad>0</ns3:cad>
          </ns3:TrackPointExtension>
        </extensions>
      </trkpt>
      <trkpt lat="47.5486811064183712005615234375" lon="11.00384856574237346649169921875">
        <ele>1836.4000244140625</ele>
        <time>2026-09-01T07:32:07.000Z</time>
        <extensions>
          <ns3:TrackPointExtension>
            <ns3:hr>156</ns3:hr>
            <ns3:cad>0</ns3:cad>
          </ns3:TrackPointExtension>
        </extensions>
      </trkpt>
      <trkpt lat="47.54867859184741973876953125" lon="11.0038525052368640899658203125">
        <ele>1836.800048828125</ele>
        <time>2026-09-01T07:32:08.000Z</time>
        <extensions>
          <ns3:TrackPointExtension>
            <ns3:hr>155</ns3:hr>
            <ns3:cad>0</ns3:cad>
          </ns3:TrackPointExtension>
        </extensions>
      </trkpt>
      <trkpt lat="47.54866576753556728363037109375" lon="11.003859043121337890625">
        <ele>1837.4000244140625</ele>
        <time>2026-09-01T07:32:09.000Z</time>
        <extensions>
          <ns3:TrackPointExtension>
            <ns3:hr>154</ns3:hr>
            <ns3:cad>0</ns3:cad>
          </ns3:TrackPointExtension>
        </extensions>
      </trkpt>
      <trkpt lat="47.54865587688982486724853515625" lon="11.0038652457296848297119140625">
        <ele>1837.800048828125</ele>
        <time>2026-09-01T07:32:10.000Z</time>
        <extensions>
          <ns3:TrackPointExtension>
            <ns3:hr>153</ns3:hr>
            <ns3:cad>0</ns3:cad>
          </ns3:TrackPointExtension>
        </extensions>
      </trkpt>
      <trkpt lat="47.54864330403506755828857421875" lon="11.00387714803218841552734375">
        <ele>1838.199951171875</ele>
        <time>2026-09-01T07:32:11.000Z</time>
        <extensions>
          <ns3:TrackPointExtension>
            <ns3:hr>149</ns3:hr>
            <ns3:cad>0</ns3:cad>
          </ns3:TrackPointExtension>
        </extensions>
      </trkpt>
      <trkpt lat="47.5486301444470882415771484375" lon="11.003888212144374847412109375">
        <ele>1838.5999755859375</ele>
        <time>2026-09-01T07:32:12.000Z</time>
        <extensions>
          <ns3:TrackPointExtension>
            <ns3:hr>145</ns3:hr>
            <ns3:cad>0</ns3:cad>
          </ns3:TrackPointExtension>
        </extensions>
      </trkpt>
      <trkpt lat="47.54861229099333286285400390625" lon="11.00389592349529266357421875">
        <ele>1839</ele>
        <time>2026-09-01T07:32:13.000Z</time>
        <extensions>
          <ns3:TrackPointExtension>
            <ns3:hr>145</ns3:hr>
            <ns3:cad>0</ns3:cad>
          </ns3:TrackPointExtension>
        </extensions>
      </trkpt>
      <trkpt lat="47.548592090606689453125" lon="11.003897599875926971435546875">
        <ele>1839</ele>
        <time>2026-09-01T07:32:14.000Z</time>
        <extensions>
          <ns3:TrackPointExtension>
            <ns3:hr>145</ns3:hr>
            <ns3:cad>0</ns3:cad>
          </ns3:TrackPointExtension>
        </extensions>
      </trkpt>
      <trkpt lat="47.54857859574258327484130859375" lon="11.00390053354203701019287109375">
        <ele>1839</ele>
        <time>2026-09-01T07:32:15.000Z</time>
        <extensions>
          <ns3:TrackPointExtension>
            <ns3:hr>145</ns3:hr>
            <ns3:cad>0</ns3:cad>
          </ns3:TrackPointExtension>
        </extensions>
      </trkpt>
      <trkpt lat="47.5485597364604473114013671875" lon="11.0038826800882816314697265625">
        <ele>1839</ele>
        <time>2026-09-01T07:32:16.000Z</time>
        <extensions>
          <ns3:TrackPointExtension>
            <ns3:hr>146</ns3:hr>
            <ns3:cad>0</ns3:cad>
          </ns3:TrackPointExtension>
        </extensions>
      </trkpt>
      <trkpt lat="47.5485416315495967864990234375" lon="11.003864742815494537353515625">
        <ele>1838.800048828125</ele>
        <time>2026-09-01T07:32:17.000Z</time>
        <extensions>
          <ns3:TrackPointExtension>
            <ns3:hr>146</ns3:hr>
            <ns3:cad>0</ns3:cad>
          </ns3:TrackPointExtension>
        </extensions>
      </trkpt>
      <trkpt lat="47.54852704703807830810546875" lon="11.00385032594203948974609375">
        <ele>1838.5999755859375</ele>
        <time>2026-09-01T07:32:18.000Z</time>
        <extensions>
          <ns3:TrackPointExtension>
            <ns3:hr>147</ns3:hr>
            <ns3:cad>0</ns3:cad>
          </ns3:TrackPointExtension>
        </extensions>
      </trkpt>
      <trkpt lat="47.5485158152878284454345703125" lon="11.00382979027926921844482421875">
        <ele>1838.5999755859375</ele>
        <time>2026-09-01T07:32:19.000Z</time>
        <extensions>
          <ns3:TrackPointExtension>
            <ns3:hr>147</ns3:hr>
            <ns3:cad>75</ns3:cad>
          </ns3:TrackPointExtension>
        </extensions>
      </trkpt>
      <trkpt lat="47.54849888384342193603515625" lon="11.00380967371165752410888671875">
        <ele>1838.800048828125</ele>
        <time>2026-09-01T07:32:20.000Z</time>
        <extensions>
          <ns3:TrackPointExtension>
            <ns3:hr>148</ns3:hr>
            <ns3:cad>75</ns3:cad>
          </ns3:TrackPointExtension>
        </extensions>
      </trkpt>
      <trkpt lat="47.54848957993090152740478515625" lon="11.00379609502851963043212890625">
        <ele>1839.199951171875</ele>
        <time>2026-09-01T07:32:21.000Z</time>
        <extensions>
          <ns3:TrackPointExtension>
            <ns3:hr>149</ns3:hr>
            <ns3:cad>0</ns3:cad>
          </ns3:TrackPointExtension>
        </extensions>
      </trkpt>
      <trkpt lat="47.5484775938093662261962890625" lon="11.00377866066992282867431640625">
        <ele>1839.5999755859375</ele>
        <time>2026-09-01T07:32:22.000Z</time>
        <extensions>
          <ns3:TrackPointExtension>
            <ns3:hr>150</ns3:hr>
            <ns3:cad>0</ns3:cad>
          </ns3:TrackPointExtension>
        </extensions>
      </trkpt>
      <trkpt lat="47.54846611060202121734619140625" lon="11.003765165805816650390625">
        <ele>1839.800048828125</ele>
        <time>2026-09-01T07:32:23.000Z</time>
        <extensions>
          <ns3:TrackPointExtension>
            <ns3:hr>151</ns3:hr>
            <ns3:cad>75</ns3:cad>
          </ns3:TrackPointExtension>
        </extensions>
      </trkpt>
      <trkpt lat="47.5484564714133739471435546875" lon="11.00375535897910594940185546875">
        <ele>1839.800048828125</ele>
        <time>2026-09-01T07:32:24.000Z</time>
        <extensions>
          <ns3:TrackPointExtension>
            <ns3:hr>152</ns3:hr>
            <ns3:cad>75</ns3:cad>
          </ns3:TrackPointExtension>
        </extensions>
      </trkpt>
      <trkpt lat="47.548444569110870361328125" lon="11.00374463014304637908935546875">
        <ele>1839.5999755859375</ele>
        <time>2026-09-01T07:32:25.000Z</time>
        <extensions>
          <ns3:TrackPointExtension>
            <ns3:hr>153</ns3:hr>
            <ns3:cad>75</ns3:cad>
          </ns3:TrackPointExtension>
        </extensions>
      </trkpt>
      <trkpt lat="47.54842872731387615203857421875" lon="11.00373524241149425506591796875">
        <ele>1839.5999755859375</ele>
        <time>2026-09-01T07:32:26.000Z</time>
        <extensions>
          <ns3:TrackPointExtension>
            <ns3:hr>154</ns3:hr>
            <ns3:cad>75</ns3:cad>
          </ns3:TrackPointExtension>
        </extensions>
      </trkpt>
      <trkpt lat="47.5484205968677997589111328125" lon="11.00371914915740489959716796875">
        <ele>1839.5999755859375</ele>
        <time>2026-09-01T07:32:27.000Z</time>
        <extensions>
          <ns3:TrackPointExtension>
            <ns3:hr>155</ns3:hr>
            <ns3:cad>72</ns3:cad>
          </ns3:TrackPointExtension>
        </extensions>
      </trkpt>
      <trkpt lat="47.54841305315494537353515625" lon="11.00370992906391620635986328125">
        <ele>1839.800048828125</ele>
        <time>2026-09-01T07:32:28.000Z</time>
        <extensions>
          <ns3:TrackPointExtension>
            <ns3:hr>155</ns3:hr>
            <ns3:cad>72</ns3:cad>
          </ns3:TrackPointExtension>
        </extensions>
      </trkpt>
      <trkpt lat="47.54840542562305927276611328125" lon="11.00369601510465145111083984375">
        <ele>1840</ele>
        <time>2026-09-01T07:32:29.000Z</time>
        <extensions>
          <ns3:TrackPointExtension>
            <ns3:hr>156</ns3:hr>
            <ns3:cad>73</ns3:cad>
          </ns3:TrackPointExtension>
        </extensions>
      </trkpt>
      <trkpt lat="47.54839830100536346435546875" lon="11.00368377752602100372314453125">
        <ele>1840.199951171875</ele>
        <time>2026-09-01T07:32:30.000Z</time>
        <extensions>
          <ns3:TrackPointExtension>
            <ns3:hr>157</ns3:hr>
            <ns3:cad>73</ns3:cad>
          </ns3:TrackPointExtension>
        </extensions>
      </trkpt>
      <trkpt lat="47.54839402623474597930908203125" lon="11.003677658736705780029296875">
        <ele>1840.4000244140625</ele>
        <time>2026-09-01T07:32:31.000Z</time>
        <extensions>
          <ns3:TrackPointExtension>
            <ns3:hr>158</ns3:hr>
            <ns3:cad>73</ns3:cad>
          </ns3:TrackPointExtension>
        </extensions>
      </trkpt>
      <trkpt lat="47.5483830459415912628173828125" lon="11.0036721266806125640869140625">
        <ele>1840.5999755859375</ele>
        <time>2026-09-01T07:32:32.000Z</time>
        <extensions>
          <ns3:TrackPointExtension>
            <ns3:hr>159</ns3:hr>
            <ns3:cad>68</ns3:cad>
          </ns3:TrackPointExtension>
        </extensions>
      </trkpt>
      <trkpt lat="47.5483682937920093536376953125" lon="11.00366257131099700927734375">
        <ele>1840.5999755859375</ele>
        <time>2026-09-01T07:32:33.000Z</time>
        <extensions>
          <ns3:TrackPointExtension>
            <ns3:hr>165</ns3:hr>
            <ns3:cad>68</ns3:cad>
          </ns3:TrackPointExtension>
        </extensions>
      </trkpt>
      <trkpt lat="47.5483562238514423370361328125" lon="11.00365527905523777008056640625">
        <ele>1840.5999755859375</ele>
        <time>2026-09-01T07:32:34.000Z</time>
        <extensions>
          <ns3:TrackPointExtension>
            <ns3:hr>168</ns3:hr>
            <ns3:cad>68</ns3:cad>
          </ns3:TrackPointExtension>
        </extensions>
      </trkpt>
      <trkpt lat="47.54833258688449859619140625" lon="11.003644801676273345947265625">
        <ele>1840.4000244140625</ele>
        <time>2026-09-01T07:32:35.000Z</time>
        <extensions>
          <ns3:TrackPointExtension>
            <ns3:hr>168</ns3:hr>
            <ns3:cad>68</ns3:cad>
          </ns3:TrackPointExtension>
        </extensions>
      </trkpt>
      <trkpt lat="47.54831087775528430938720703125" lon="11.003638766705989837646484375">
        <ele>1840.199951171875</ele>
        <time>2026-09-01T07:32:36.000Z</time>
        <extensions>
          <ns3:TrackPointExtension>
            <ns3:hr>167</ns3:hr>
            <ns3:cad>68</ns3:cad>
          </ns3:TrackPointExtension>
        </extensions>
      </trkpt>
      <trkpt lat="47.548290677368640899658203125" lon="11.00363130681216716766357421875">
        <ele>1839.800048828125</ele>
        <time>2026-09-01T07:32:37.000Z</time>
        <extensions>
          <ns3:TrackPointExtension>
            <ns3:hr>166</ns3:hr>
            <ns3:cad>0</ns3:cad>
          </ns3:TrackPointExtension>
        </extensions>
      </trkpt>
      <trkpt lat="47.5482764281332492828369140625" lon="11.0036292113363742828369140625">
        <ele>1839.5999755859375</ele>
        <time>2026-09-01T07:32:38.000Z</time>
        <extensions>
          <ns3:TrackPointExtension>
            <ns3:hr>165</ns3:hr>
            <ns3:cad>0</ns3:cad>
          </ns3:TrackPointExtension>
        </extensions>
      </trkpt>
      <trkpt lat="47.548263184726238250732421875" lon="11.00362510420382022857666015625">
        <ele>1839.199951171875</ele>
        <time>2026-09-01T07:32:39.000Z</time>
        <extensions>
          <ns3:TrackPointExtension>
            <ns3:hr>165</ns3:hr>
            <ns3:cad>0</ns3:cad>
          </ns3:TrackPointExtension>
        </extensions>
      </trkpt>
      <trkpt lat="47.5482516176998615264892578125" lon="11.00362292490899562835693359375">
        <ele>1839</ele>
        <time>2026-09-01T07:32:40.000Z</time>
        <extensions>
          <ns3:TrackPointExtension>
            <ns3:hr>165</ns3:hr>
            <ns3:cad>0</ns3:cad>
          </ns3:TrackPointExtension>
        </extensions>
      </trkpt>
      <trkpt lat="47.54824298433959484100341796875" lon="11.00362326018512248992919921875">
        <ele>1838.5999755859375</ele>
        <time>2026-09-01T07:32:41.000Z</time>
        <extensions>
          <ns3:TrackPointExtension>
            <ns3:hr>166</ns3:hr>
            <ns3:cad>0</ns3:cad>
          </ns3:TrackPointExtension>
        </extensions>
      </trkpt>
      <trkpt lat="47.548224963247776031494140625" lon="11.00361806340515613555908203125">
        <ele>1838.4000244140625</ele>
        <time>2026-09-01T07:32:42.000Z</time>
        <extensions>
          <ns3:TrackPointExtension>
            <ns3:hr>165</ns3:hr>
            <ns3:cad>0</ns3:cad>
          </ns3:TrackPointExtension>
        </extensions>
      </trkpt>
      <trkpt lat="47.548207528889179229736328125" lon="11.0036168061196804046630859375">
        <ele>1838.199951171875</ele>
        <time>2026-09-01T07:32:43.000Z</time>
        <extensions>
          <ns3:TrackPointExtension>
            <ns3:hr>165</ns3:hr>
            <ns3:cad>0</ns3:cad>
          </ns3:TrackPointExtension>
        </extensions>
      </trkpt>
      <trkpt lat="47.54819579422473907470703125" lon="11.00361554883420467376708984375">
        <ele>1838</ele>
        <time>2026-09-01T07:32:44.000Z</time>
        <extensions>
          <ns3:TrackPointExtension>
            <ns3:hr>164</ns3:hr>
            <ns3:cad>0</ns3:cad>
          </ns3:TrackPointExtension>
        </extensions>
      </trkpt>
      <trkpt lat="47.54818062297999858856201171875" lon="11.00361370481550693511962890625">
        <ele>1837.5999755859375</ele>
        <time>2026-09-01T07:32:45.000Z</time>
        <extensions>
          <ns3:TrackPointExtension>
            <ns3:hr>164</ns3:hr>
            <ns3:cad>0</ns3:cad>
          </ns3:TrackPointExtension>
        </extensions>
      </trkpt>
      <trkpt lat="47.54818481393158435821533203125" lon="11.00362443365156650543212890625">
        <ele>1837.4000244140625</ele>
        <time>2026-09-01T07:32:46.000Z</time>
        <extensions>
          <ns3:TrackPointExtension>
            <ns3:hr>164</ns3:hr>
            <ns3:cad>0</ns3:cad>
          </ns3:TrackPointExtension>
        </extensions>
      </trkpt>
      <trkpt lat="47.54817006178200244903564453125" lon="11.00361873395740985870361328125">
        <ele>1837</ele>
        <time>2026-09-01T07:32:47.000Z</time>
        <extensions>
          <ns3:TrackPointExtension>
            <ns3:hr>163</ns3:hr>
            <ns3:cad>0</ns3:cad>
          </ns3:TrackPointExtension>
        </extensions>
      </trkpt>
      <trkpt lat="47.54814692772924900054931640625" lon="11.0036107711493968963623046875">
        <ele>1836.800048828125</ele>
        <time>2026-09-01T07:32:48.000Z</time>
        <extensions>
          <ns3:TrackPointExtension>
            <ns3:hr>163</ns3:hr>
            <ns3:cad>0</ns3:cad>
          </ns3:TrackPointExtension>
        </extensions>
      </trkpt>
      <trkpt lat="47.54812111146748065948486328125" lon="11.00360146723687648773193359375">
        <ele>1836.800048828125</ele>
        <time>2026-09-01T07:32:49.000Z</time>
        <extensions>
          <ns3:TrackPointExtension>
            <ns3:hr>162</ns3:hr>
            <ns3:cad>0</ns3:cad>
          </ns3:TrackPointExtension>
        </extensions>
      </trkpt>
      <trkpt lat="47.5481079518795013427734375" lon="11.00358889438211917877197265625">
        <ele>1836.800048828125</ele>
        <time>2026-09-01T07:32:50.000Z</time>
        <extensions>
          <ns3:TrackPointExtension>
            <ns3:hr>161</ns3:hr>
            <ns3:cad>0</ns3:cad>
          </ns3:TrackPointExtension>
        </extensions>
      </trkpt>
      <trkpt lat="47.54808641038835048675537109375" lon="11.00357866846024990081787109375">
        <ele>1837.199951171875</ele>
        <time>2026-09-01T07:32:51.000Z</time>
        <extensions>
          <ns3:TrackPointExtension>
            <ns3:hr>160</ns3:hr>
            <ns3:cad>0</ns3:cad>
          </ns3:TrackPointExtension>
        </extensions>
      </trkpt>
      <trkpt lat="47.5480704009532928466796875" lon="11.00356592796742916107177734375">
        <ele>1837.4000244140625</ele>
        <time>2026-09-01T07:32:52.000Z</time>
        <extensions>
          <ns3:TrackPointExtension>
            <ns3:hr>160</ns3:hr>
            <ns3:cad>79</ns3:cad>
          </ns3:TrackPointExtension>
        </extensions>
      </trkpt>
      <trkpt lat="47.5480527989566326141357421875" lon="11.00355972535908222198486328125">
        <ele>1837.800048828125</ele>
        <time>2026-09-01T07:32:53.000Z</time>
        <extensions>
          <ns3:TrackPointExtension>
            <ns3:hr>159</ns3:hr>
            <ns3:cad>79</ns3:cad>
          </ns3:TrackPointExtension>
        </extensions>
      </trkpt>
      <trkpt lat="47.5480346940457820892333984375" lon="11.00355125963687896728515625">
        <ele>1838.199951171875</ele>
        <time>2026-09-01T07:32:54.000Z</time>
        <extensions>
          <ns3:TrackPointExtension>
            <ns3:hr>158</ns3:hr>
            <ns3:cad>76</ns3:cad>
          </ns3:TrackPointExtension>
        </extensions>
      </trkpt>
      <trkpt lat="47.54802220501005649566650390625" lon="11.00354581139981746673583984375">
        <ele>1838.5999755859375</ele>
        <time>2026-09-01T07:32:55.000Z</time>
        <extensions>
          <ns3:TrackPointExtension>
            <ns3:hr>157</ns3:hr>
            <ns3:cad>75</ns3:cad>
          </ns3:TrackPointExtension>
        </extensions>
      </trkpt>
      <trkpt lat="47.548010386526584625244140625" lon="11.0035410337150096893310546875">
        <ele>1838.800048828125</ele>
        <time>2026-09-01T07:32:56.000Z</time>
        <extensions>
          <ns3:TrackPointExtension>
            <ns3:hr>157</ns3:hr>
            <ns3:cad>75</ns3:cad>
          </ns3:TrackPointExtension>
        </extensions>
      </trkpt>
      <trkpt lat="47.5480021722614765167236328125" lon="11.00353608839213848114013671875">
        <ele>1839.199951171875</ele>
        <time>2026-09-01T07:32:57.000Z</time>
        <extensions>
          <ns3:TrackPointExtension>
            <ns3:hr>157</ns3:hr>
            <ns3:cad>75</ns3:cad>
          </ns3:TrackPointExtension>
        </extensions>
      </trkpt>
      <trkpt lat="47.54800963215529918670654296875" lon="11.00354455411434173583984375">
        <ele>1839.5999755859375</ele>
        <time>2026-09-01T07:32:58.000Z</time>
        <extensions>
          <ns3:TrackPointExtension>
            <ns3:hr>156</ns3:hr>
            <ns3:cad>75</ns3:cad>
          </ns3:TrackPointExtension>
        </extensions>
      </trkpt>
      <trkpt lat="47.54800108261406421661376953125" lon="11.00353784859180450439453125">
        <ele>1840</ele>
        <time>2026-09-01T07:32:59.000Z</time>
        <extensions>
          <ns3:TrackPointExtension>
            <ns3:hr>156</ns3:hr>
            <ns3:cad>75</ns3:cad>
          </ns3:TrackPointExtension>
        </extensions>
      </trkpt>
      <trkpt lat="47.54799286834895610809326171875" lon="11.00354027934372425079345703125">
        <ele>1840.4000244140625</ele>
        <time>2026-09-01T07:33:00.000Z</time>
        <extensions>
          <ns3:TrackPointExtension>
            <ns3:hr>156</ns3:hr>
            <ns3:cad>73</ns3:cad>
          </ns3:TrackPointExtension>
        </extensions>
      </trkpt>
      <trkpt lat="47.5479823909699916839599609375" lon="11.0035331547260284423828125">
        <ele>1840.800048828125</ele>
        <time>2026-09-01T07:33:01.000Z</time>
        <extensions>
          <ns3:TrackPointExtension>
            <ns3:hr>156</ns3:hr>
            <ns3:cad>73</ns3:cad>
          </ns3:TrackPointExtension>
        </extensions>
      </trkpt>
      <trkpt lat="47.5479797087609767913818359375" lon="11.003532819449901580810546875">
        <ele>1841.199951171875</ele>
        <time>2026-09-01T07:33:02.000Z</time>
        <extensions>
          <ns3:TrackPointExtension>
            <ns3:hr>155</ns3:hr>
            <ns3:cad>0</ns3:cad>
          </ns3:TrackPointExtension>
        </extensions>
      </trkpt>
      <trkpt lat="47.54796923138201236724853515625" lon="11.00352670066058635711669921875">
        <ele>1841.5999755859375</ele>
        <time>2026-09-01T07:33:03.000Z</time>
        <extensions>
          <ns3:TrackPointExtension>
            <ns3:hr>155</ns3:hr>
            <ns3:cad>0</ns3:cad>
          </ns3:TrackPointExtension>
        </extensions>
      </trkpt>
      <trkpt lat="47.54796512424945831298828125" lon="11.0035215876996517181396484375">
        <ele>1841.800048828125</ele>
        <time>2026-09-01T07:33:04.000Z</time>
        <extensions>
          <ns3:TrackPointExtension>
            <ns3:hr>155</ns3:hr>
            <ns3:cad>0</ns3:cad>
          </ns3:TrackPointExtension>
        </extensions>
      </trkpt>
      <trkpt lat="47.54795598797500133514404296875" lon="11.003516726195812225341796875">
        <ele>1842.199951171875</ele>
        <time>2026-09-01T07:33:05.000Z</time>
        <extensions>
          <ns3:TrackPointExtension>
            <ns3:hr>154</ns3:hr>
            <ns3:cad>0</ns3:cad>
          </ns3:TrackPointExtension>
        </extensions>
      </trkpt>
      <trkpt lat="47.5479532219469547271728515625" lon="11.00351010449230670928955078125">
        <ele>1842.5999755859375</ele>
        <time>2026-09-01T07:33:06.000Z</time>
        <extensions>
          <ns3:TrackPointExtension>
            <ns3:hr>153</ns3:hr>
            <ns3:cad>0</ns3:cad>
          </ns3:TrackPointExtension>
        </extensions>
      </trkpt>
      <trkpt lat="47.54794844426214694976806640625" lon="11.003503985702991485595703125">
        <ele>1842.800048828125</ele>
        <time>2026-09-01T07:33:07.000Z</time>
        <extensions>
          <ns3:TrackPointExtension>
            <ns3:hr>152</ns3:hr>
            <ns3:cad>0</ns3:cad>
          </ns3:TrackPointExtension>
        </extensions>
      </trkpt>
      <trkpt lat="47.54794291220605373382568359375" lon="11.0035001300275325775146484375">
        <ele>1843.199951171875</ele>
        <time>2026-09-01T07:33:08.000Z</time>
        <extensions>
          <ns3:TrackPointExtension>
            <ns3:hr>151</ns3:hr>
            <ns3:cad>0</ns3:cad>
          </ns3:TrackPointExtension>
        </extensions>
      </trkpt>
      <trkpt lat="47.5479374639689922332763671875" lon="11.00349493324756622314453125">
        <ele>1843.800048828125</ele>
        <time>2026-09-01T07:33:09.000Z</time>
        <extensions>
          <ns3:TrackPointExtension>
            <ns3:hr>150</ns3:hr>
            <ns3:cad>0</ns3:cad>
          </ns3:TrackPointExtension>
        </extensions>
      </trkpt>
      <trkpt lat="47.5479309260845184326171875" lon="11.0034847073256969451904296875">
        <ele>1844.199951171875</ele>
        <time>2026-09-01T07:33:10.000Z</time>
        <extensions>
          <ns3:TrackPointExtension>
            <ns3:hr>150</ns3:hr>
            <ns3:cad>0</ns3:cad>
          </ns3:TrackPointExtension>
        </extensions>
      </trkpt>
      <trkpt lat="47.547925226390361785888671875" lon="11.00347758270800113677978515625">
        <ele>1844.5999755859375</ele>
        <time>2026-09-01T07:33:11.000Z</time>
        <extensions>
          <ns3:TrackPointExtension>
            <ns3:hr>149</ns3:hr>
            <ns3:cad>46</ns3:cad>
          </ns3:TrackPointExtension>
        </extensions>
      </trkpt>
      <trkpt lat="47.54790787585079669952392578125" lon="11.00347288884222507476806640625">
        <ele>1845</ele>
        <time>2026-09-01T07:33:12.000Z</time>
        <extensions>
          <ns3:TrackPointExtension>
            <ns3:hr>149</ns3:hr>
            <ns3:cad>46</ns3:cad>
          </ns3:TrackPointExtension>
        </extensions>
      </trkpt>
      <trkpt lat="47.547895051538944244384765625" lon="11.0034642554819583892822265625">
        <ele>1845.199951171875</ele>
        <time>2026-09-01T07:33:13.000Z</time>
        <extensions>
          <ns3:TrackPointExtension>
            <ns3:hr>149</ns3:hr>
            <ns3:cad>46</ns3:cad>
          </ns3:TrackPointExtension>
        </extensions>
      </trkpt>
      <trkpt lat="47.54788524471223354339599609375" lon="11.00346031598746776580810546875">
        <ele>1845.4000244140625</ele>
        <time>2026-09-01T07:33:14.000Z</time>
        <extensions>
          <ns3:TrackPointExtension>
            <ns3:hr>148</ns3:hr>
            <ns3:cad>46</ns3:cad>
          </ns3:TrackPointExtension>
        </extensions>
      </trkpt>
      <trkpt lat="47.5478781200945377349853515625" lon="11.0034562088549137115478515625">
        <ele>1845.4000244140625</ele>
        <time>2026-09-01T07:33:15.000Z</time>
        <extensions>
          <ns3:TrackPointExtension>
            <ns3:hr>148</ns3:hr>
            <ns3:cad>47</ns3:cad>
          </ns3:TrackPointExtension>
        </extensions>
      </trkpt>
      <trkpt lat="47.5478747673332691192626953125" lon="11.003449670970439910888671875">
        <ele>1845.5999755859375</ele>
        <time>2026-09-01T07:33:16.000Z</time>
        <extensions>
          <ns3:TrackPointExtension>
            <ns3:hr>147</ns3:hr>
            <ns3:cad>47</ns3:cad>
          </ns3:TrackPointExtension>
        </extensions>
      </trkpt>
      <trkpt lat="47.5478665530681610107421875" lon="11.003423519432544708251953125">
        <ele>1845.5999755859375</ele>
        <time>2026-09-01T07:33:17.000Z</time>
        <extensions>
          <ns3:TrackPointExtension>
            <ns3:hr>147</ns3:hr>
            <ns3:cad>47</ns3:cad>
          </ns3:TrackPointExtension>
        </extensions>
      </trkpt>
      <trkpt lat="47.54785506986081600189208984375" lon="11.00341019220650196075439453125">
        <ele>1845.4000244140625</ele>
        <time>2026-09-01T07:33:18.000Z</time>
        <extensions>
          <ns3:TrackPointExtension>
            <ns3:hr>147</ns3:hr>
            <ns3:cad>47</ns3:cad>
          </ns3:TrackPointExtension>
        </extensions>
      </trkpt>
      <trkpt lat="47.54783998243510723114013671875" lon="11.0033995471894741058349609375">
        <ele>1845</ele>
        <time>2026-09-01T07:33:19.000Z</time>
        <extensions>
          <ns3:TrackPointExtension>
            <ns3:hr>147</ns3:hr>
            <ns3:cad>47</ns3:cad>
          </ns3:TrackPointExtension>
        </extensions>
      </trkpt>
      <trkpt lat="47.54783235490322113037109375" lon="11.00339225493371486663818359375">
        <ele>1844.800048828125</ele>
        <time>2026-09-01T07:33:20.000Z</time>
        <extensions>
          <ns3:TrackPointExtension>
            <ns3:hr>147</ns3:hr>
            <ns3:cad>47</ns3:cad>
          </ns3:TrackPointExtension>
        </extensions>
      </trkpt>
      <trkpt lat="47.547823973000049591064453125" lon="11.00338420830667018890380859375">
        <ele>1844.5999755859375</ele>
        <time>2026-09-01T07:33:21.000Z</time>
        <extensions>
          <ns3:TrackPointExtension>
            <ns3:hr>146</ns3:hr>
            <ns3:cad>47</ns3:cad>
          </ns3:TrackPointExtension>
        </extensions>
      </trkpt>
      <trkpt lat="47.5478134118020534515380859375" lon="11.0033790953457355499267578125">
        <ele>1844.4000244140625</ele>
        <time>2026-09-01T07:33:22.000Z</time>
        <extensions>
          <ns3:TrackPointExtension>
            <ns3:hr>146</ns3:hr>
            <ns3:cad>47</ns3:cad>
          </ns3:TrackPointExtension>
        </extensions>
      </trkpt>
      <trkpt lat="47.54780955612659454345703125" lon="11.00337632931768894195556640625">
        <ele>1844.199951171875</ele>
        <time>2026-09-01T07:33:23.000Z</time>
        <extensions>
          <ns3:TrackPointExtension>
            <ns3:hr>146</ns3:hr>
            <ns3:cad>47</ns3:cad>
          </ns3:TrackPointExtension>
        </extensions>
      </trkpt>
      <trkpt lat="47.5478006713092327117919921875" lon="11.00337381474673748016357421875">
        <ele>1844.4000244140625</ele>
        <time>2026-09-01T07:33:24.000Z</time>
        <extensions>
          <ns3:TrackPointExtension>
            <ns3:hr>146</ns3:hr>
            <ns3:cad>0</ns3:cad>
          </ns3:TrackPointExtension>
        </extensions>
      </trkpt>
      <trkpt lat="47.54779505543410778045654296875" lon="11.00337364710867404937744140625">
        <ele>1844.4000244140625</ele>
        <time>2026-09-01T07:33:25.000Z</time>
        <extensions>
          <ns3:TrackPointExtension>
            <ns3:hr>146</ns3:hr>
            <ns3:cad>0</ns3:cad>
          </ns3:TrackPointExtension>
        </extensions>
      </trkpt>
      <trkpt lat="47.54779354669153690338134765625" lon="11.003378592431545257568359375">
        <ele>1844.5999755859375</ele>
        <time>2026-09-01T07:33:26.000Z</time>
        <extensions>
          <ns3:TrackPointExtension>
            <ns3:hr>145</ns3:hr>
            <ns3:cad>0</ns3:cad>
          </ns3:TrackPointExtension>
        </extensions>
      </trkpt>
      <trkpt lat="47.54778466187417507171630859375" lon="11.003384627401828765869140625">
        <ele>1844.800048828125</ele>
        <time>2026-09-01T07:33:27.000Z</time>
        <extensions>
          <ns3:TrackPointExtension>
            <ns3:hr>145</ns3:hr>
            <ns3:cad>0</ns3:cad>
          </ns3:TrackPointExtension>
        </extensions>
      </trkpt>
      <trkpt lat="47.54777577705681324005126953125" lon="11.0033861361443996429443359375">
        <ele>1845.199951171875</ele>
        <time>2026-09-01T07:33:28.000Z</time>
        <extensions>
          <ns3:TrackPointExtension>
            <ns3:hr>145</ns3:hr>
            <ns3:cad>0</ns3:cad>
          </ns3:TrackPointExtension>
        </extensions>
      </trkpt>
      <trkpt lat="47.547771669924259185791015625" lon="11.00339326076209545135498046875">
        <ele>1845.5999755859375</ele>
        <time>2026-09-01T07:33:29.000Z</time>
        <extensions>
          <ns3:TrackPointExtension>
            <ns3:hr>145</ns3:hr>
            <ns3:cad>0</ns3:cad>
          </ns3:TrackPointExtension>
        </extensions>
      </trkpt>
      <trkpt lat="47.54776923917233943939208984375" lon="11.0033975355327129364013671875">
        <ele>1846</ele>
        <time>2026-09-01T07:33:30.000Z</time>
        <extensions>
          <ns3:TrackPointExtension>
            <ns3:hr>146</ns3:hr>
            <ns3:cad>0</ns3:cad>
          </ns3:TrackPointExtension>
        </extensions>
      </trkpt>
      <trkpt lat="47.5477631203830242156982421875" lon="11.00340382196009159088134765625">
        <ele>1846.199951171875</ele>
        <time>2026-09-01T07:33:31.000Z</time>
        <extensions>
          <ns3:TrackPointExtension>
            <ns3:hr>146</ns3:hr>
            <ns3:cad>0</ns3:cad>
          </ns3:TrackPointExtension>
        </extensions>
      </trkpt>
      <trkpt lat="47.54776035435497760772705078125" lon="11.00341086275875568389892578125">
        <ele>1846.5999755859375</ele>
        <time>2026-09-01T07:33:32.000Z</time>
        <extensions>
          <ns3:TrackPointExtension>
            <ns3:hr>147</ns3:hr>
            <ns3:cad>0</ns3:cad>
          </ns3:TrackPointExtension>
        </extensions>
      </trkpt>
      <trkpt lat="47.547751553356647491455078125" lon="11.00340633653104305267333984375">
        <ele>1846.800048828125</ele>
        <time>2026-09-01T07:33:33.000Z</time>
        <extensions>
          <ns3:TrackPointExtension>
            <ns3:hr>147</ns3:hr>
            <ns3:cad>0</ns3:cad>
          </ns3:TrackPointExtension>
        </extensions>
      </trkpt>
      <trkpt lat="47.5477416627109050750732421875" lon="11.00340415723621845245361328125">
        <ele>1847.199951171875</ele>
        <time>2026-09-01T07:33:34.000Z</time>
        <extensions>
          <ns3:TrackPointExtension>
            <ns3:hr>147</ns3:hr>
            <ns3:cad>0</ns3:cad>
          </ns3:TrackPointExtension>
        </extensions>
      </trkpt>
      <trkpt lat="47.54773705266416072845458984375" lon="11.0034018941223621368408203125">
        <ele>1847.5999755859375</ele>
        <time>2026-09-01T07:33:35.000Z</time>
        <extensions>
          <ns3:TrackPointExtension>
            <ns3:hr>148</ns3:hr>
            <ns3:cad>0</ns3:cad>
          </ns3:TrackPointExtension>
        </extensions>
      </trkpt>
      <trkpt lat="47.54773403517901897430419921875" lon="11.00339828990399837493896484375">
        <ele>1848</ele>
        <time>2026-09-01T07:33:36.000Z</time>
        <extensions>
          <ns3:TrackPointExtension>
            <ns3:hr>148</ns3:hr>
            <ns3:cad>0</ns3:cad>
          </ns3:TrackPointExtension>
        </extensions>
      </trkpt>
      <trkpt lat="47.54773202352225780487060546875" lon="11.0033936798572540283203125">
        <ele>1848.4000244140625</ele>
        <time>2026-09-01T07:33:37.000Z</time>
        <extensions>
          <ns3:TrackPointExtension>
            <ns3:hr>148</ns3:hr>
            <ns3:cad>0</ns3:cad>
          </ns3:TrackPointExtension>
        </extensions>
      </trkpt>
      <trkpt lat="47.547732777893543243408203125" lon="11.00339024327695369720458984375">
        <ele>1849</ele>
        <time>2026-09-01T07:33:38.000Z</time>
        <extensions>
          <ns3:TrackPointExtension>
            <ns3:hr>147</ns3:hr>
            <ns3:cad>0</ns3:cad>
          </ns3:TrackPointExtension>
        </extensions>
      </trkpt>
      <trkpt lat="47.5477312691509723663330078125" lon="11.0033851303160190582275390625">
        <ele>1849.4000244140625</ele>
        <time>2026-09-01T07:33:39.000Z</time>
        <extensions>
          <ns3:TrackPointExtension>
            <ns3:hr>147</ns3:hr>
            <ns3:cad>0</ns3:cad>
          </ns3:TrackPointExtension>
        </extensions>
      </trkpt>
      <trkpt lat="47.54773168824613094329833984375" lon="11.00338370539247989654541015625">
        <ele>1849.5999755859375</ele>
        <time>2026-09-01T07:33:40.000Z</time>
        <extensions>
          <ns3:TrackPointExtension>
            <ns3:hr>147</ns3:hr>
            <ns3:cad>0</ns3:cad>
          </ns3:TrackPointExtension>
        </extensions>
      </trkpt>
      <trkpt lat="47.54772531799972057342529296875" lon="11.00338035263121128082275390625">
        <ele>1849.800048828125</ele>
        <time>2026-09-01T07:33:41.000Z</time>
        <extensions>
          <ns3:TrackPointExtension>
            <ns3:hr>148</ns3:hr>
            <ns3:cad>0</ns3:cad>
          </ns3:TrackPointExtension>
        </extensions>
      </trkpt>
      <trkpt lat="47.547723390161991119384765625" lon="11.00338420830667018890380859375">
        <ele>1850</ele>
        <time>2026-09-01T07:33:42.000Z</time>
        <extensions>
          <ns3:TrackPointExtension>
            <ns3:hr>148</ns3:hr>
            <ns3:cad>0</ns3:cad>
          </ns3:TrackPointExtension>
        </extensions>
      </trkpt>
      <trkpt lat="47.54772045649588108062744140625" lon="11.0033837892115116119384765625">
        <ele>1850</ele>
        <time>2026-09-01T07:33:43.000Z</time>
        <extensions>
          <ns3:TrackPointExtension>
            <ns3:hr>150</ns3:hr>
            <ns3:cad>0</ns3:cad>
          </ns3:TrackPointExtension>
        </extensions>
      </trkpt>
      <trkpt lat="47.547711990773677825927734375" lon="11.00337783806025981903076171875">
        <ele>1850</ele>
        <time>2026-09-01T07:33:44.000Z</time>
        <extensions>
          <ns3:TrackPointExtension>
            <ns3:hr>152</ns3:hr>
            <ns3:cad>0</ns3:cad>
          </ns3:TrackPointExtension>
        </extensions>
      </trkpt>
      <trkpt lat="47.54770469851791858673095703125" lon="11.00337381474673748016357421875">
        <ele>1850.199951171875</ele>
        <time>2026-09-01T07:33:45.000Z</time>
        <extensions>
          <ns3:TrackPointExtension>
            <ns3:hr>155</ns3:hr>
            <ns3:cad>0</ns3:cad>
          </ns3:TrackPointExtension>
        </extensions>
      </trkpt>
      <trkpt lat="47.547696568071842193603515625" lon="11.00337146781384944915771484375">
        <ele>1850.5999755859375</ele>
        <time>2026-09-01T07:33:46.000Z</time>
        <extensions>
          <ns3:TrackPointExtension>
            <ns3:hr>156</ns3:hr>
            <ns3:cad>0</ns3:cad>
          </ns3:TrackPointExtension>
        </extensions>
      </trkpt>
      <trkpt lat="47.54768508486449718475341796875" lon="11.00336258299648761749267578125">
        <ele>1850.800048828125</ele>
        <time>2026-09-01T07:33:47.000Z</time>
        <extensions>
          <ns3:TrackPointExtension>
            <ns3:hr>156</ns3:hr>
            <ns3:cad>0</ns3:cad>
          </ns3:TrackPointExtension>
        </extensions>
      </trkpt>
      <trkpt lat="47.5476786307990550994873046875" lon="11.00335788913071155548095703125">
        <ele>1851.199951171875</ele>
        <time>2026-09-01T07:33:48.000Z</time>
        <extensions>
          <ns3:TrackPointExtension>
            <ns3:hr>156</ns3:hr>
            <ns3:cad>0</ns3:cad>
          </ns3:TrackPointExtension>
        </extensions>
      </trkpt>
      <trkpt lat="47.54766697995364665985107421875" lon="11.0033569671213626861572265625">
        <ele>1851.5999755859375</ele>
        <time>2026-09-01T07:33:49.000Z</time>
        <extensions>
          <ns3:TrackPointExtension>
            <ns3:hr>156</ns3:hr>
            <ns3:cad>0</ns3:cad>
          </ns3:TrackPointExtension>
        </extensions>
      </trkpt>
      <trkpt lat="47.54766060970723628997802734375" lon="11.0033459030091762542724609375">
        <ele>1852</ele>
        <time>2026-09-01T07:33:50.000Z</time>
        <extensions>
          <ns3:TrackPointExtension>
            <ns3:hr>156</ns3:hr>
            <ns3:cad>0</ns3:cad>
          </ns3:TrackPointExtension>
        </extensions>
      </trkpt>
      <trkpt lat="47.54764904268085956573486328125" lon="11.003341041505336761474609375">
        <ele>1852.199951171875</ele>
        <time>2026-09-01T07:33:51.000Z</time>
        <extensions>
          <ns3:TrackPointExtension>
            <ns3:hr>156</ns3:hr>
            <ns3:cad>0</ns3:cad>
          </ns3:TrackPointExtension>
        </extensions>
      </trkpt>
      <trkpt lat="47.5476447679102420806884765625" lon="11.0033480823040008544921875">
        <ele>1852.5999755859375</ele>
        <time>2026-09-01T07:33:52.000Z</time>
        <extensions>
          <ns3:TrackPointExtension>
            <ns3:hr>156</ns3:hr>
            <ns3:cad>0</ns3:cad>
          </ns3:TrackPointExtension>
        </extensions>
      </trkpt>
      <trkpt lat="47.54762607626616954803466796875" lon="11.00334615446627140045166015625">
        <ele>1852.800048828125</ele>
        <time>2026-09-01T07:33:53.000Z</time>
        <extensions>
          <ns3:TrackPointExtension>
            <ns3:hr>156</ns3:hr>
            <ns3:cad>0</ns3:cad>
          </ns3:TrackPointExtension>
        </extensions>
      </trkpt>
      <trkpt lat="47.54760663025081157684326171875" lon="11.00334280170500278472900390625">
        <ele>1852.800048828125</ele>
        <time>2026-09-01T07:33:54.000Z</time>
        <extensions>
          <ns3:TrackPointExtension>
            <ns3:hr>157</ns3:hr>
            <ns3:cad>0</ns3:cad>
          </ns3:TrackPointExtension>
        </extensions>
      </trkpt>
      <trkpt lat="47.54758617840707302093505859375" lon="11.00335001014173030853271484375">
        <ele>1852.800048828125</ele>
        <time>2026-09-01T07:33:55.000Z</time>
        <extensions>
          <ns3:TrackPointExtension>
            <ns3:hr>158</ns3:hr>
            <ns3:cad>0</ns3:cad>
          </ns3:TrackPointExtension>
        </extensions>
      </trkpt>
      <trkpt lat="47.5475723482668399810791015625" lon="11.0033680312335491180419921875">
        <ele>1852.5999755859375</ele>
        <time>2026-09-01T07:33:56.000Z</time>
        <extensions>
          <ns3:TrackPointExtension>
            <ns3:hr>158</ns3:hr>
            <ns3:cad>0</ns3:cad>
          </ns3:TrackPointExtension>
        </extensions>
      </trkpt>
      <trkpt lat="47.54755952395498752593994140625" lon="11.003377251327037811279296875">
        <ele>1852.4000244140625</ele>
        <time>2026-09-01T07:33:57.000Z</time>
        <extensions>
          <ns3:TrackPointExtension>
            <ns3:hr>159</ns3:hr>
            <ns3:cad>0</ns3:cad>
          </ns3:TrackPointExtension>
        </extensions>
      </trkpt>
      <trkpt lat="47.54754158668220043182373046875" lon="11.00338119082152843475341796875">
        <ele>1852.199951171875</ele>
        <time>2026-09-01T07:33:58.000Z</time>
        <extensions>
          <ns3:TrackPointExtension>
            <ns3:hr>160</ns3:hr>
            <ns3:cad>0</ns3:cad>
          </ns3:TrackPointExtension>
        </extensions>
      </trkpt>
      <trkpt lat="47.54751853644847869873046875" lon="11.00338504649698734283447265625">
        <ele>1852</ele>
        <time>2026-09-01T07:33:59.000Z</time>
        <extensions>
          <ns3:TrackPointExtension>
            <ns3:hr>161</ns3:hr>
            <ns3:cad>0</ns3:cad>
          </ns3:TrackPointExtension>
        </extensions>
      </trkpt>
      <trkpt lat="47.54749967716634273529052734375" lon="11.00338772870600223541259765625">
        <ele>1851.5999755859375</ele>
        <time>2026-09-01T07:34:00.000Z</time>
        <extensions>
          <ns3:TrackPointExtension>
            <ns3:hr>162</ns3:hr>
            <ns3:cad>73</ns3:cad>
          </ns3:TrackPointExtension>
        </extensions>
      </trkpt>
      <trkpt lat="47.54748039878904819488525390625" lon="11.00339007563889026641845703125">
        <ele>1851.199951171875</ele>
        <time>2026-09-01T07:34:01.000Z</time>
        <extensions>
          <ns3:TrackPointExtension>
            <ns3:hr>163</ns3:hr>
            <ns3:cad>76</ns3:cad>
          </ns3:TrackPointExtension>
        </extensions>
      </trkpt>
      <trkpt lat="47.5474613718688488006591796875" lon="11.00339409895241260528564453125">
        <ele>1850.800048828125</ele>
        <time>2026-09-01T07:34:02.000Z</time>
        <extensions>
          <ns3:TrackPointExtension>
            <ns3:hr>164</ns3:hr>
            <ns3:cad>76</ns3:cad>
          </ns3:TrackPointExtension>
        </extensions>
      </trkpt>
      <trkpt lat="47.54744217731058597564697265625" lon="11.0033982060849666595458984375">
        <ele>1850.199951171875</ele>
        <time>2026-09-01T07:34:03.000Z</time>
        <extensions>
          <ns3:TrackPointExtension>
            <ns3:hr>165</ns3:hr>
            <ns3:cad>76</ns3:cad>
          </ns3:TrackPointExtension>
        </extensions>
      </trkpt>
      <trkpt lat="47.54742373712360858917236328125" lon="11.00340683944523334503173828125">
        <ele>1849.5999755859375</ele>
        <time>2026-09-01T07:34:04.000Z</time>
        <extensions>
          <ns3:TrackPointExtension>
            <ns3:hr>166</ns3:hr>
            <ns3:cad>76</ns3:cad>
          </ns3:TrackPointExtension>
        </extensions>
      </trkpt>
      <trkpt lat="47.54740596748888492584228515625" lon="11.0034072585403919219970703125">
        <ele>1849.4000244140625</ele>
        <time>2026-09-01T07:34:05.000Z</time>
        <extensions>
          <ns3:TrackPointExtension>
            <ns3:hr>168</ns3:hr>
            <ns3:cad>76</ns3:cad>
          </ns3:TrackPointExtension>
        </extensions>
      </trkpt>
      <trkpt lat="47.54738350398838520050048828125" lon="11.0034199990332126617431640625">
        <ele>1849.199951171875</ele>
        <time>2026-09-01T07:34:06.000Z</time>
        <extensions>
          <ns3:TrackPointExtension>
            <ns3:hr>169</ns3:hr>
            <ns3:cad>76</ns3:cad>
          </ns3:TrackPointExtension>
        </extensions>
      </trkpt>
      <trkpt lat="47.5473631359636783599853515625" lon="11.003427542746067047119140625">
        <ele>1849.199951171875</ele>
        <time>2026-09-01T07:34:07.000Z</time>
        <extensions>
          <ns3:TrackPointExtension>
            <ns3:hr>170</ns3:hr>
            <ns3:cad>76</ns3:cad>
          </ns3:TrackPointExtension>
        </extensions>
      </trkpt>
      <trkpt lat="47.54734553396701812744140625" lon="11.00343215279281139373779296875">
        <ele>1849.199951171875</ele>
        <time>2026-09-01T07:34:08.000Z</time>
        <extensions>
          <ns3:TrackPointExtension>
            <ns3:hr>171</ns3:hr>
            <ns3:cad>76</ns3:cad>
          </ns3:TrackPointExtension>
        </extensions>
      </trkpt>
      <trkpt lat="47.54731871187686920166015625" lon="11.00343164987862110137939453125">
        <ele>1849</ele>
        <time>2026-09-01T07:34:09.000Z</time>
        <extensions>
          <ns3:TrackPointExtension>
            <ns3:hr>171</ns3:hr>
            <ns3:cad>76</ns3:cad>
          </ns3:TrackPointExtension>
        </extensions>
      </trkpt>
      <trkpt lat="47.5472954101860523223876953125" lon="11.00344531238079071044921875">
        <ele>1848.800048828125</ele>
        <time>2026-09-01T07:34:10.000Z</time>
        <extensions>
          <ns3:TrackPointExtension>
            <ns3:hr>172</ns3:hr>
            <ns3:cad>76</ns3:cad>
          </ns3:TrackPointExtension>
        </extensions>
      </trkpt>
      <trkpt lat="47.547284848988056182861328125" lon="11.00345545448362827301025390625">
        <ele>1849</ele>
        <time>2026-09-01T07:34:11.000Z</time>
        <extensions>
          <ns3:TrackPointExtension>
            <ns3:hr>173</ns3:hr>
            <ns3:cad>76</ns3:cad>
          </ns3:TrackPointExtension>
        </extensions>
      </trkpt>
      <trkpt lat="47.54727386869490146636962890625" lon="11.00346668623387813568115234375">
        <ele>1849.199951171875</ele>
        <time>2026-09-01T07:34:12.000Z</time>
        <extensions>
          <ns3:TrackPointExtension>
            <ns3:hr>174</ns3:hr>
            <ns3:cad>76</ns3:cad>
          </ns3:TrackPointExtension>
        </extensions>
      </trkpt>
      <trkpt lat="47.54726682789623737335205078125" lon="11.0034759901463985443115234375">
        <ele>1849.800048828125</ele>
        <time>2026-09-01T07:34:13.000Z</time>
        <extensions>
          <ns3:TrackPointExtension>
            <ns3:hr>174</ns3:hr>
            <ns3:cad>76</ns3:cad>
          </ns3:TrackPointExtension>
        </extensions>
      </trkpt>
      <trkpt lat="47.54726582206785678863525390625" lon="11.0034769959747791290283203125">
        <ele>1850.199951171875</ele>
        <time>2026-09-01T07:34:14.000Z</time>
        <extensions>
          <ns3:TrackPointExtension>
            <ns3:hr>175</ns3:hr>
            <ns3:cad>0</ns3:cad>
          </ns3:TrackPointExtension>
        </extensions>
      </trkpt>
      <trkpt lat="47.54726917482912540435791015625" lon="11.00348663516342639923095703125">
        <ele>1850.800048828125</ele>
        <time>2026-09-01T07:34:15.000Z</time>
        <extensions>
          <ns3:TrackPointExtension>
            <ns3:hr>175</ns3:hr>
            <ns3:cad>0</ns3:cad>
          </ns3:TrackPointExtension>
        </extensions>
      </trkpt>
      <trkpt lat="47.547269426286220550537109375" lon="11.00349417887628078460693359375">
        <ele>1851</ele>
        <time>2026-09-01T07:34:16.000Z</time>
        <extensions>
          <ns3:TrackPointExtension>
            <ns3:hr>176</ns3:hr>
            <ns3:cad>83</ns3:cad>
          </ns3:TrackPointExtension>
        </extensions>
      </trkpt>
      <trkpt lat="47.547264397144317626953125" lon="11.00350373424589633941650390625">
        <ele>1851.199951171875</ele>
        <time>2026-09-01T07:34:17.000Z</time>
        <extensions>
          <ns3:TrackPointExtension>
            <ns3:hr>176</ns3:hr>
            <ns3:cad>83</ns3:cad>
          </ns3:TrackPointExtension>
        </extensions>
      </trkpt>
      <trkpt lat="47.54726096056401729583740234375" lon="11.0035090148448944091796875">
        <ele>1851.5999755859375</ele>
        <time>2026-09-01T07:34:18.000Z</time>
        <extensions>
          <ns3:TrackPointExtension>
            <ns3:hr>176</ns3:hr>
            <ns3:cad>0</ns3:cad>
          </ns3:TrackPointExtension>
        </extensions>
      </trkpt>
      <trkpt lat="47.5472578592598438262939453125" lon="11.00351211614906787872314453125">
        <ele>1852</ele>
        <time>2026-09-01T07:34:19.000Z</time>
        <extensions>
          <ns3:TrackPointExtension>
            <ns3:hr>176</ns3:hr>
            <ns3:cad>0</ns3:cad>
          </ns3:TrackPointExtension>
        </extensions>
      </trkpt>
      <trkpt lat="47.54725408740341663360595703125" lon="11.00352041423320770263671875">
        <ele>1852.4000244140625</ele>
        <time>2026-09-01T07:34:20.000Z</time>
        <extensions>
          <ns3:TrackPointExtension>
            <ns3:hr>176</ns3:hr>
            <ns3:cad>0</ns3:cad>
          </ns3:TrackPointExtension>
        </extensions>
      </trkpt>
      <trkpt lat="47.547247298061847686767578125" lon="11.00351999513804912567138671875">
        <ele>1852.800048828125</ele>
        <time>2026-09-01T07:34:21.000Z</time>
        <extensions>
          <ns3:TrackPointExtension>
            <ns3:hr>175</ns3:hr>
            <ns3:cad>0</ns3:cad>
          </ns3:TrackPointExtension>
        </extensions>
      </trkpt>
      <trkpt lat="47.54724369384348392486572265625" lon="11.0035212524235248565673828125">
        <ele>1853.199951171875</ele>
        <time>2026-09-01T07:34:22.000Z</time>
        <extensions>
          <ns3:TrackPointExtension>
            <ns3:hr>175</ns3:hr>
            <ns3:cad>0</ns3:cad>
          </ns3:TrackPointExtension>
        </extensions>
      </trkpt>
      <trkpt lat="47.54723849706351757049560546875" lon="11.00352385081350803375244140625">
        <ele>1853.4000244140625</ele>
        <time>2026-09-01T07:34:23.000Z</time>
        <extensions>
          <ns3:TrackPointExtension>
            <ns3:hr>174</ns3:hr>
            <ns3:cad>0</ns3:cad>
          </ns3:TrackPointExtension>
        </extensions>
      </trkpt>
      <trkpt lat="47.5472308695316314697265625" lon="11.0035304725170135498046875">
        <ele>1853.5999755859375</ele>
        <time>2026-09-01T07:34:24.000Z</time>
        <extensions>
          <ns3:TrackPointExtension>
            <ns3:hr>173</ns3:hr>
            <ns3:cad>0</ns3:cad>
          </ns3:TrackPointExtension>
        </extensions>
      </trkpt>
      <trkpt lat="47.547223828732967376708984375" lon="11.00353525020182132720947265625">
        <ele>1853.5999755859375</ele>
        <time>2026-09-01T07:34:25.000Z</time>
        <extensions>
          <ns3:TrackPointExtension>
            <ns3:hr>169</ns3:hr>
            <ns3:cad>0</ns3:cad>
          </ns3:TrackPointExtension>
        </extensions>
      </trkpt>
      <trkpt lat="47.54722055979073047637939453125" lon="11.0035390220582485198974609375">
        <ele>1853.5999755859375</ele>
        <time>2026-09-01T07:34:26.000Z</time>
        <extensions>
          <ns3:TrackPointExtension>
            <ns3:hr>162</ns3:hr>
            <ns3:cad>0</ns3:cad>
          </ns3:TrackPointExtension>
        </extensions>
      </trkpt>
      <trkpt lat="47.54723279736936092376708984375" lon="11.00353558547794818878173828125">
        <ele>1853.5999755859375</ele>
        <time>2026-09-01T07:34:27.000Z</time>
        <extensions>
          <ns3:TrackPointExtension>
            <ns3:hr>159</ns3:hr>
            <ns3:cad>0</ns3:cad>
          </ns3:TrackPointExtension>
        </extensions>
      </trkpt>
      <trkpt lat="47.54723430611193180084228515625" lon="11.0035423748195171356201171875">
        <ele>1853.800048828125</ele>
        <time>2026-09-01T07:34:28.000Z</time>
        <extensions>
          <ns3:TrackPointExtension>
            <ns3:hr>156</ns3:hr>
            <ns3:cad>0</ns3:cad>
          </ns3:TrackPointExtension>
        </extensions>
      </trkpt>
      <trkpt lat="47.547228522598743438720703125" lon="11.003548242151737213134765625">
        <ele>1854</ele>
        <time>2026-09-01T07:34:29.000Z</time>
        <extensions>
          <ns3:TrackPointExtension>
            <ns3:hr>156</ns3:hr>
            <ns3:cad>0</ns3:cad>
          </ns3:TrackPointExtension>
        </extensions>
      </trkpt>
      <trkpt lat="47.54721972160041332244873046875" lon="11.0035544447600841522216796875">
        <ele>1854.4000244140625</ele>
        <time>2026-09-01T07:34:30.000Z</time>
        <extensions>
          <ns3:TrackPointExtension>
            <ns3:hr>155</ns3:hr>
            <ns3:cad>0</ns3:cad>
          </ns3:TrackPointExtension>
        </extensions>
      </trkpt>
      <trkpt lat="47.54721553064882755279541015625" lon="11.00355838425457477569580078125">
        <ele>1854.800048828125</ele>
        <time>2026-09-01T07:34:31.000Z</time>
        <extensions>
          <ns3:TrackPointExtension>
            <ns3:hr>155</ns3:hr>
            <ns3:cad>44</ns3:cad>
          </ns3:TrackPointExtension>
        </extensions>
      </trkpt>
      <trkpt lat="47.547212429344654083251953125" lon="11.00356894545257091522216796875">
        <ele>1855.199951171875</ele>
        <time>2026-09-01T07:34:32.000Z</time>
        <extensions>
          <ns3:TrackPointExtension>
            <ns3:hr>155</ns3:hr>
            <ns3:cad>44</ns3:cad>
          </ns3:TrackPointExtension>
        </extensions>
      </trkpt>
      <trkpt lat="47.547209747135639190673828125" lon="11.00357539951801300048828125">
        <ele>1855.5999755859375</ele>
        <time>2026-09-01T07:34:33.000Z</time>
        <extensions>
          <ns3:TrackPointExtension>
            <ns3:hr>155</ns3:hr>
            <ns3:cad>44</ns3:cad>
          </ns3:TrackPointExtension>
        </extensions>
      </trkpt>
      <trkpt lat="47.547207064926624298095703125" lon="11.00358185358345508575439453125">
        <ele>1855.800048828125</ele>
        <time>2026-09-01T07:34:34.000Z</time>
        <extensions>
          <ns3:TrackPointExtension>
            <ns3:hr>154</ns3:hr>
            <ns3:cad>0</ns3:cad>
          </ns3:TrackPointExtension>
        </extensions>
      </trkpt>
      <trkpt lat="47.54720379598438739776611328125" lon="11.0035899840295314788818359375">
        <ele>1856.199951171875</ele>
        <time>2026-09-01T07:34:35.000Z</time>
        <extensions>
          <ns3:TrackPointExtension>
            <ns3:hr>154</ns3:hr>
            <ns3:cad>0</ns3:cad>
          </ns3:TrackPointExtension>
        </extensions>
      </trkpt>
      <trkpt lat="47.547200024127960205078125" lon="11.00359979085624217987060546875">
        <ele>1856.5999755859375</ele>
        <time>2026-09-01T07:34:36.000Z</time>
        <extensions>
          <ns3:TrackPointExtension>
            <ns3:hr>154</ns3:hr>
            <ns3:cad>0</ns3:cad>
          </ns3:TrackPointExtension>
        </extensions>
      </trkpt>
      <trkpt lat="47.54719541408121585845947265625" lon="11.0036122798919677734375">
        <ele>1857</ele>
        <time>2026-09-01T07:34:37.000Z</time>
        <extensions>
          <ns3:TrackPointExtension>
            <ns3:hr>154</ns3:hr>
            <ns3:cad>0</ns3:cad>
          </ns3:TrackPointExtension>
        </extensions>
      </trkpt>
      <trkpt lat="47.547190971672534942626953125" lon="11.00362342782318592071533203125">
        <ele>1857.4000244140625</ele>
        <time>2026-09-01T07:34:38.000Z</time>
        <extensions>
          <ns3:TrackPointExtension>
            <ns3:hr>154</ns3:hr>
            <ns3:cad>0</ns3:cad>
          </ns3:TrackPointExtension>
        </extensions>
      </trkpt>
      <trkpt lat="47.54718468524515628814697265625" lon="11.003632731735706329345703125">
        <ele>1857.800048828125</ele>
        <time>2026-09-01T07:34:39.000Z</time>
        <extensions>
          <ns3:TrackPointExtension>
            <ns3:hr>154</ns3:hr>
            <ns3:cad>0</ns3:cad>
          </ns3:TrackPointExtension>
        </extensions>
      </trkpt>
      <trkpt lat="47.54718015901744365692138671875" lon="11.0036484897136688232421875">
        <ele>1858.199951171875</ele>
        <time>2026-09-01T07:34:40.000Z</time>
        <extensions>
          <ns3:TrackPointExtension>
            <ns3:hr>153</ns3:hr>
            <ns3:cad>0</ns3:cad>
          </ns3:TrackPointExtension>
        </extensions>
      </trkpt>
      <trkpt lat="47.54717387259006500244140625" lon="11.00365930236876010894775390625">
        <ele>1858.4000244140625</ele>
        <time>2026-09-01T07:34:41.000Z</time>
        <extensions>
          <ns3:TrackPointExtension>
            <ns3:hr>153</ns3:hr>
            <ns3:cad>0</ns3:cad>
          </ns3:TrackPointExtension>
        </extensions>
      </trkpt>
      <trkpt lat="47.5471611320972442626953125" lon="11.0036645829677581787109375">
        <ele>1858.5999755859375</ele>
        <time>2026-09-01T07:34:42.000Z</time>
        <extensions>
          <ns3:TrackPointExtension>
            <ns3:hr>153</ns3:hr>
            <ns3:cad>0</ns3:cad>
          </ns3:TrackPointExtension>
        </extensions>
      </trkpt>
      <trkpt lat="47.54715585149824619293212890625" lon="11.00366533733904361724853515625">
        <ele>1858.800048828125</ele>
        <time>2026-09-01T07:34:43.000Z</time>
        <extensions>
          <ns3:TrackPointExtension>
            <ns3:hr>152</ns3:hr>
            <ns3:cad>0</ns3:cad>
          </ns3:TrackPointExtension>
        </extensions>
      </trkpt>
      <trkpt lat="47.54714461974799633026123046875" lon="11.00367120467126369476318359375">
        <ele>1859</ele>
        <time>2026-09-01T07:34:44.000Z</time>
        <extensions>
          <ns3:TrackPointExtension>
            <ns3:hr>152</ns3:hr>
            <ns3:cad>0</ns3:cad>
          </ns3:TrackPointExtension>
        </extensions>
      </trkpt>
      <trkpt lat="47.5471395067870616912841796875" lon="11.003683693706989288330078125">
        <ele>1859.199951171875</ele>
        <time>2026-09-01T07:34:45.000Z</time>
        <extensions>
          <ns3:TrackPointExtension>
            <ns3:hr>151</ns3:hr>
            <ns3:cad>0</ns3:cad>
          </ns3:TrackPointExtension>
        </extensions>
      </trkpt>
      <trkpt lat="47.54714026115834712982177734375" lon="11.0036905668675899505615234375">
        <ele>1859.4000244140625</ele>
        <time>2026-09-01T07:34:46.000Z</time>
        <extensions>
          <ns3:TrackPointExtension>
            <ns3:hr>152</ns3:hr>
            <ns3:cad>0</ns3:cad>
          </ns3:TrackPointExtension>
        </extensions>
      </trkpt>
      <trkpt lat="47.547135315835475921630859375" lon="11.00370087660849094390869140625">
        <ele>1859.5999755859375</ele>
        <time>2026-09-01T07:34:47.000Z</time>
        <extensions>
          <ns3:TrackPointExtension>
            <ns3:hr>153</ns3:hr>
            <ns3:cad>0</ns3:cad>
          </ns3:TrackPointExtension>
        </extensions>
      </trkpt>
      <trkpt lat="47.54713322035968303680419921875" lon="11.0037066601216793060302734375">
        <ele>1860</ele>
        <time>2026-09-01T07:34:48.000Z</time>
        <extensions>
          <ns3:TrackPointExtension>
            <ns3:hr>153</ns3:hr>
            <ns3:cad>0</ns3:cad>
          </ns3:TrackPointExtension>
        </extensions>
      </trkpt>
      <trkpt lat="47.54712760448455810546875" lon="11.00370976142585277557373046875">
        <ele>1860</ele>
        <time>2026-09-01T07:34:49.000Z</time>
        <extensions>
          <ns3:TrackPointExtension>
            <ns3:hr>154</ns3:hr>
            <ns3:cad>0</ns3:cad>
          </ns3:TrackPointExtension>
        </extensions>
      </trkpt>
      <trkpt lat="47.547124922275543212890625" lon="11.003705821931362152099609375">
        <ele>1860.199951171875</ele>
        <time>2026-09-01T07:34:50.000Z</time>
        <extensions>
          <ns3:TrackPointExtension>
            <ns3:hr>154</ns3:hr>
            <ns3:cad>0</ns3:cad>
          </ns3:TrackPointExtension>
        </extensions>
      </trkpt>
      <trkpt lat="47.54711427725851535797119140625" lon="11.00370280444622039794921875">
        <ele>1860.199951171875</ele>
        <time>2026-09-01T07:34:51.000Z</time>
        <extensions>
          <ns3:TrackPointExtension>
            <ns3:hr>155</ns3:hr>
            <ns3:cad>0</ns3:cad>
          </ns3:TrackPointExtension>
        </extensions>
      </trkpt>
      <trkpt lat="47.54710153676569461822509765625" lon="11.00370406173169612884521484375">
        <ele>1860.199951171875</ele>
        <time>2026-09-01T07:34:52.000Z</time>
        <extensions>
          <ns3:TrackPointExtension>
            <ns3:hr>155</ns3:hr>
            <ns3:cad>54</ns3:cad>
          </ns3:TrackPointExtension>
        </extensions>
      </trkpt>
      <trkpt lat="47.54708879627287387847900390625" lon="11.0037059895694255828857421875">
        <ele>1860.4000244140625</ele>
        <time>2026-09-01T07:34:53.000Z</time>
        <extensions>
          <ns3:TrackPointExtension>
            <ns3:hr>157</ns3:hr>
            <ns3:cad>54</ns3:cad>
          </ns3:TrackPointExtension>
        </extensions>
      </trkpt>
      <trkpt lat="47.547080330550670623779296875" lon="11.00370950996875762939453125">
        <ele>1860.5999755859375</ele>
        <time>2026-09-01T07:34:54.000Z</time>
        <extensions>
          <ns3:TrackPointExtension>
            <ns3:hr>158</ns3:hr>
            <ns3:cad>54</ns3:cad>
          </ns3:TrackPointExtension>
        </extensions>
      </trkpt>
      <trkpt lat="47.54707186482846736907958984375" lon="11.00371294654905796051025390625">
        <ele>1860.800048828125</ele>
        <time>2026-09-01T07:34:55.000Z</time>
        <extensions>
          <ns3:TrackPointExtension>
            <ns3:hr>159</ns3:hr>
            <ns3:cad>49</ns3:cad>
          </ns3:TrackPointExtension>
        </extensions>
      </trkpt>
      <trkpt lat="47.5470603816211223602294921875" lon="11.00371898151934146881103515625">
        <ele>1861.199951171875</ele>
        <time>2026-09-01T07:34:56.000Z</time>
        <extensions>
          <ns3:TrackPointExtension>
            <ns3:hr>159</ns3:hr>
            <ns3:cad>0</ns3:cad>
          </ns3:TrackPointExtension>
        </extensions>
      </trkpt>
      <trkpt lat="47.54705644212663173675537109375" lon="11.0037318058311939239501953125">
        <ele>1861.5999755859375</ele>
        <time>2026-09-01T07:34:57.000Z</time>
        <extensions>
          <ns3:TrackPointExtension>
            <ns3:hr>159</ns3:hr>
            <ns3:cad>0</ns3:cad>
          </ns3:TrackPointExtension>
        </extensions>
      </trkpt>
      <trkpt lat="47.54705308936536312103271484375" lon="11.003744713962078094482421875">
        <ele>1862</ele>
        <time>2026-09-01T07:34:58.000Z</time>
        <extensions>
          <ns3:TrackPointExtension>
            <ns3:hr>159</ns3:hr>
            <ns3:cad>0</ns3:cad>
          </ns3:TrackPointExtension>
        </extensions>
      </trkpt>
      <trkpt lat="47.5470496527850627899169921875" lon="11.00375653244554996490478515625">
        <ele>1862.199951171875</ele>
        <time>2026-09-01T07:34:59.000Z</time>
        <extensions>
          <ns3:TrackPointExtension>
            <ns3:hr>159</ns3:hr>
            <ns3:cad>0</ns3:cad>
          </ns3:TrackPointExtension>
        </extensions>
      </trkpt>
      <trkpt lat="47.54704378545284271240234375" lon="11.00376877002418041229248046875">
        <ele>1862.800048828125</ele>
        <time>2026-09-01T07:35:00.000Z</time>
        <extensions>
          <ns3:TrackPointExtension>
            <ns3:hr>159</ns3:hr>
            <ns3:cad>0</ns3:cad>
          </ns3:TrackPointExtension>
        </extensions>
      </trkpt>
      <trkpt lat="47.54704621620476245880126953125" lon="11.00378016941249370574951171875">
        <ele>1863.199951171875</ele>
        <time>2026-09-01T07:35:01.000Z</time>
        <extensions>
          <ns3:TrackPointExtension>
            <ns3:hr>160</ns3:hr>
            <ns3:cad>0</ns3:cad>
          </ns3:TrackPointExtension>
        </extensions>
      </trkpt>
      <trkpt lat="47.54704638384282588958740234375" lon="11.00378989242017269134521484375">
        <ele>1863.4000244140625</ele>
        <time>2026-09-01T07:35:02.000Z</time>
        <extensions>
          <ns3:TrackPointExtension>
            <ns3:hr>160</ns3:hr>
            <ns3:cad>0</ns3:cad>
          </ns3:TrackPointExtension>
        </extensions>
      </trkpt>
      <trkpt lat="47.54704889841377735137939453125" lon="11.00378989242017269134521484375">
        <ele>1863.5999755859375</ele>
        <time>2026-09-01T07:35:03.000Z</time>
        <extensions>
          <ns3:TrackPointExtension>
            <ns3:hr>160</ns3:hr>
            <ns3:cad>0</ns3:cad>
          </ns3:TrackPointExtension>
        </extensions>
      </trkpt>
      <trkpt lat="47.547040767967700958251953125" lon="11.0038013756275177001953125">
        <ele>1863.800048828125</ele>
        <time>2026-09-01T07:35:04.000Z</time>
        <extensions>
          <ns3:TrackPointExtension>
            <ns3:hr>160</ns3:hr>
            <ns3:cad>76</ns3:cad>
          </ns3:TrackPointExtension>
        </extensions>
      </trkpt>
      <trkpt lat="47.54703917540609836578369140625" lon="11.0038069076836109161376953125">
        <ele>1864</ele>
        <time>2026-09-01T07:35:05.000Z</time>
        <extensions>
          <ns3:TrackPointExtension>
            <ns3:hr>159</ns3:hr>
            <ns3:cad>79</ns3:cad>
          </ns3:TrackPointExtension>
        </extensions>
      </trkpt>
      <trkpt lat="47.54703582264482975006103515625" lon="11.0038142837584018707275390625">
        <ele>1864</ele>
        <time>2026-09-01T07:35:06.000Z</time>
        <extensions>
          <ns3:TrackPointExtension>
            <ns3:hr>160</ns3:hr>
            <ns3:cad>79</ns3:cad>
          </ns3:TrackPointExtension>
        </extensions>
      </trkpt>
      <trkpt lat="47.5470312125980854034423828125" lon="11.003818474709987640380859375">
        <ele>1864.199951171875</ele>
        <time>2026-09-01T07:35:07.000Z</time>
        <extensions>
          <ns3:TrackPointExtension>
            <ns3:hr>160</ns3:hr>
            <ns3:cad>0</ns3:cad>
          </ns3:TrackPointExtension>
        </extensions>
      </trkpt>
      <trkpt lat="47.54702509380877017974853515625" lon="11.0038174688816070556640625">
        <ele>1864.5999755859375</ele>
        <time>2026-09-01T07:35:08.000Z</time>
        <extensions>
          <ns3:TrackPointExtension>
            <ns3:hr>160</ns3:hr>
            <ns3:cad>0</ns3:cad>
          </ns3:TrackPointExtension>
        </extensions>
      </trkpt>
      <trkpt lat="47.54701889120042324066162109375" lon="11.0038201510906219482421875">
        <ele>1864.800048828125</ele>
        <time>2026-09-01T07:35:09.000Z</time>
        <extensions>
          <ns3:TrackPointExtension>
            <ns3:hr>160</ns3:hr>
            <ns3:cad>0</ns3:cad>
          </ns3:TrackPointExtension>
        </extensions>
      </trkpt>
      <trkpt lat="47.54701050929725170135498046875" lon="11.0038209892809391021728515625">
        <ele>1865</ele>
        <time>2026-09-01T07:35:10.000Z</time>
        <extensions>
          <ns3:TrackPointExtension>
            <ns3:hr>159</ns3:hr>
            <ns3:cad>0</ns3:cad>
          </ns3:TrackPointExtension>
        </extensions>
      </trkpt>
      <trkpt lat="47.5470001995563507080078125" lon="11.00381788797676563262939453125">
        <ele>1865</ele>
        <time>2026-09-01T07:35:11.000Z</time>
        <extensions>
          <ns3:TrackPointExtension>
            <ns3:hr>159</ns3:hr>
            <ns3:cad>0</ns3:cad>
          </ns3:TrackPointExtension>
        </extensions>
      </trkpt>
      <trkpt lat="47.54699223674833774566650390625" lon="11.00381772033870220184326171875">
        <ele>1865</ele>
        <time>2026-09-01T07:35:12.000Z</time>
        <extensions>
          <ns3:TrackPointExtension>
            <ns3:hr>158</ns3:hr>
            <ns3:cad>0</ns3:cad>
          </ns3:TrackPointExtension>
        </extensions>
      </trkpt>
      <trkpt lat="47.54698477685451507568359375" lon="11.0038193129003047943115234375">
        <ele>1865</ele>
        <time>2026-09-01T07:35:13.000Z</time>
        <extensions>
          <ns3:TrackPointExtension>
            <ns3:hr>158</ns3:hr>
            <ns3:cad>43</ns3:cad>
          </ns3:TrackPointExtension>
        </extensions>
      </trkpt>
      <trkpt lat="47.54697714932262897491455078125" lon="11.0038206540048122406005859375">
        <ele>1864.800048828125</ele>
        <time>2026-09-01T07:35:14.000Z</time>
        <extensions>
          <ns3:TrackPointExtension>
            <ns3:hr>158</ns3:hr>
            <ns3:cad>43</ns3:cad>
          </ns3:TrackPointExtension>
        </extensions>
      </trkpt>
      <trkpt lat="47.5469722039997577667236328125" lon="11.00382107309997081756591796875">
        <ele>1864.5999755859375</ele>
        <time>2026-09-01T07:35:15.000Z</time>
        <extensions>
          <ns3:TrackPointExtension>
            <ns3:hr>157</ns3:hr>
            <ns3:cad>43</ns3:cad>
          </ns3:TrackPointExtension>
        </extensions>
      </trkpt>
      <trkpt lat="47.54696574993431568145751953125" lon="11.0038193129003047943115234375">
        <ele>1864.4000244140625</ele>
        <time>2026-09-01T07:35:16.000Z</time>
        <extensions>
          <ns3:TrackPointExtension>
            <ns3:hr>157</ns3:hr>
            <ns3:cad>43</ns3:cad>
          </ns3:TrackPointExtension>
        </extensions>
      </trkpt>
      <trkpt lat="47.54695535637438297271728515625" lon="11.003817804157733917236328125">
        <ele>1864.199951171875</ele>
        <time>2026-09-01T07:35:17.000Z</time>
        <extensions>
          <ns3:TrackPointExtension>
            <ns3:hr>157</ns3:hr>
            <ns3:cad>43</ns3:cad>
          </ns3:TrackPointExtension>
        </extensions>
      </trkpt>
      <trkpt lat="47.546947896480560302734375" lon="11.003815121948719024658203125">
        <ele>1864</ele>
        <time>2026-09-01T07:35:18.000Z</time>
        <extensions>
          <ns3:TrackPointExtension>
            <ns3:hr>157</ns3:hr>
            <ns3:cad>43</ns3:cad>
          </ns3:TrackPointExtension>
        </extensions>
      </trkpt>
      <trkpt lat="47.5469291210174560546875" lon="11.00379534065723419189453125">
        <ele>1863.800048828125</ele>
        <time>2026-09-01T07:35:19.000Z</time>
        <extensions>
          <ns3:TrackPointExtension>
            <ns3:hr>157</ns3:hr>
            <ns3:cad>43</ns3:cad>
          </ns3:TrackPointExtension>
        </extensions>
      </trkpt>
      <trkpt lat="47.54691914655268192291259765625" lon="11.0037938319146633148193359375">
        <ele>1863.800048828125</ele>
        <time>2026-09-01T07:35:20.000Z</time>
        <extensions>
          <ns3:TrackPointExtension>
            <ns3:hr>157</ns3:hr>
            <ns3:cad>57</ns3:cad>
          </ns3:TrackPointExtension>
        </extensions>
      </trkpt>
      <trkpt lat="47.54691126756370067596435546875" lon="11.0037975199520587921142578125">
        <ele>1864</ele>
        <time>2026-09-01T07:35:21.000Z</time>
        <extensions>
          <ns3:TrackPointExtension>
            <ns3:hr>158</ns3:hr>
            <ns3:cad>57</ns3:cad>
          </ns3:TrackPointExtension>
        </extensions>
      </trkpt>
      <trkpt lat="47.54690338857471942901611328125" lon="11.00380313582718372344970703125">
        <ele>1864.199951171875</ele>
        <time>2026-09-01T07:35:22.000Z</time>
        <extensions>
          <ns3:TrackPointExtension>
            <ns3:hr>160</ns3:hr>
            <ns3:cad>66</ns3:cad>
          </ns3:TrackPointExtension>
        </extensions>
      </trkpt>
      <trkpt lat="47.5468957610428333282470703125" lon="11.0038116015493869781494140625">
        <ele>1864.5999755859375</ele>
        <time>2026-09-01T07:35:23.000Z</time>
        <extensions>
          <ns3:TrackPointExtension>
            <ns3:hr>161</ns3:hr>
            <ns3:cad>66</ns3:cad>
          </ns3:TrackPointExtension>
        </extensions>
      </trkpt>
      <trkpt lat="47.54689333029091358184814453125" lon="11.003817133605480194091796875">
        <ele>1865</ele>
        <time>2026-09-01T07:35:24.000Z</time>
        <extensions>
          <ns3:TrackPointExtension>
            <ns3:hr>161</ns3:hr>
            <ns3:cad>66</ns3:cad>
          </ns3:TrackPointExtension>
        </extensions>
      </trkpt>
      <trkpt lat="47.5468880496919155120849609375" lon="11.00382526405155658721923828125">
        <ele>1865.199951171875</ele>
        <time>2026-09-01T07:35:25.000Z</time>
        <extensions>
          <ns3:TrackPointExtension>
            <ns3:hr>161</ns3:hr>
            <ns3:cad>0</ns3:cad>
          </ns3:TrackPointExtension>
        </extensions>
      </trkpt>
      <trkpt lat="47.54688209854066371917724609375" lon="11.003831885755062103271484375">
        <ele>1865.4000244140625</ele>
        <time>2026-09-01T07:35:26.000Z</time>
        <extensions>
          <ns3:TrackPointExtension>
            <ns3:hr>161</ns3:hr>
            <ns3:cad>0</ns3:cad>
          </ns3:TrackPointExtension>
        </extensions>
      </trkpt>
      <trkpt lat="47.54687589593231678009033203125" lon="11.003837250173091888427734375">
        <ele>1865.800048828125</ele>
        <time>2026-09-01T07:35:27.000Z</time>
        <extensions>
          <ns3:TrackPointExtension>
            <ns3:hr>161</ns3:hr>
            <ns3:cad>0</ns3:cad>
          </ns3:TrackPointExtension>
        </extensions>
      </trkpt>
      <trkpt lat="47.5468739680945873260498046875" lon="11.00384286604821681976318359375">
        <ele>1866.199951171875</ele>
        <time>2026-09-01T07:35:28.000Z</time>
        <extensions>
          <ns3:TrackPointExtension>
            <ns3:hr>160</ns3:hr>
            <ns3:cad>0</ns3:cad>
          </ns3:TrackPointExtension>
        </extensions>
      </trkpt>
      <trkpt lat="47.54687103442847728729248046875" lon="11.00384772755205631256103515625">
        <ele>1866.800048828125</ele>
        <time>2026-09-01T07:35:29.000Z</time>
        <extensions>
          <ns3:TrackPointExtension>
            <ns3:hr>161</ns3:hr>
            <ns3:cad>0</ns3:cad>
          </ns3:TrackPointExtension>
        </extensions>
      </trkpt>
      <trkpt lat="47.5468669272959232330322265625" lon="11.003856360912322998046875">
        <ele>1867.4000244140625</ele>
        <time>2026-09-01T07:35:30.000Z</time>
        <extensions>
          <ns3:TrackPointExtension>
            <ns3:hr>161</ns3:hr>
            <ns3:cad>0</ns3:cad>
          </ns3:TrackPointExtension>
        </extensions>
      </trkpt>
      <trkpt lat="47.54686583764851093292236328125" lon="11.00386105477809906005859375">
        <ele>1868</ele>
        <time>2026-09-01T07:35:31.000Z</time>
        <extensions>
          <ns3:TrackPointExtension>
            <ns3:hr>161</ns3:hr>
            <ns3:cad>0</ns3:cad>
          </ns3:TrackPointExtension>
        </extensions>
      </trkpt>
      <trkpt lat="47.5468669272959232330322265625" lon="11.0038657486438751220703125">
        <ele>1868</ele>
        <time>2026-09-01T07:35:32.000Z</time>
        <extensions>
          <ns3:TrackPointExtension>
            <ns3:hr>161</ns3:hr>
            <ns3:cad>0</ns3:cad>
          </ns3:TrackPointExtension>
        </extensions>
      </trkpt>
      <trkpt lat="47.54685678519308567047119140625" lon="11.00386013276875019073486328125">
        <ele>1868.199951171875</ele>
        <time>2026-09-01T07:35:33.000Z</time>
        <extensions>
          <ns3:TrackPointExtension>
            <ns3:hr>161</ns3:hr>
            <ns3:cad>0</ns3:cad>
          </ns3:TrackPointExtension>
        </extensions>
      </trkpt>
      <trkpt lat="47.54685603082180023193359375" lon="11.0038706101477146148681640625">
        <ele>1868.4000244140625</ele>
        <time>2026-09-01T07:35:34.000Z</time>
        <extensions>
          <ns3:TrackPointExtension>
            <ns3:hr>162</ns3:hr>
            <ns3:cad>0</ns3:cad>
          </ns3:TrackPointExtension>
        </extensions>
      </trkpt>
      <trkpt lat="47.54685200750827789306640625" lon="11.003878153860569000244140625">
        <ele>1868.4000244140625</ele>
        <time>2026-09-01T07:35:35.000Z</time>
        <extensions>
          <ns3:TrackPointExtension>
            <ns3:hr>162</ns3:hr>
            <ns3:cad>0</ns3:cad>
          </ns3:TrackPointExtension>
        </extensions>
      </trkpt>
      <trkpt lat="47.54684865474700927734375" lon="11.0038833506405353546142578125">
        <ele>1868.5999755859375</ele>
        <time>2026-09-01T07:35:36.000Z</time>
        <extensions>
          <ns3:TrackPointExtension>
            <ns3:hr>162</ns3:hr>
            <ns3:cad>0</ns3:cad>
          </ns3:TrackPointExtension>
        </extensions>
      </trkpt>
      <trkpt lat="47.54684320650994777679443359375" lon="11.00388091988861560821533203125">
        <ele>1869</ele>
        <time>2026-09-01T07:35:37.000Z</time>
        <extensions>
          <ns3:TrackPointExtension>
            <ns3:hr>163</ns3:hr>
            <ns3:cad>0</ns3:cad>
          </ns3:TrackPointExtension>
        </extensions>
      </trkpt>
      <trkpt lat="47.54683532752096652984619140625" lon="11.0038799978792667388916015625">
        <ele>1869.4000244140625</ele>
        <time>2026-09-01T07:35:38.000Z</time>
        <extensions>
          <ns3:TrackPointExtension>
            <ns3:hr>163</ns3:hr>
            <ns3:cad>0</ns3:cad>
          </ns3:TrackPointExtension>
        </extensions>
      </trkpt>
      <trkpt lat="47.54682526923716068267822265625" lon="11.00387991406023502349853515625">
        <ele>1869.5999755859375</ele>
        <time>2026-09-01T07:35:39.000Z</time>
        <extensions>
          <ns3:TrackPointExtension>
            <ns3:hr>163</ns3:hr>
            <ns3:cad>0</ns3:cad>
          </ns3:TrackPointExtension>
        </extensions>
      </trkpt>
      <trkpt lat="47.54681713879108428955078125" lon="11.0038836859166622161865234375">
        <ele>1870</ele>
        <time>2026-09-01T07:35:40.000Z</time>
        <extensions>
          <ns3:TrackPointExtension>
            <ns3:hr>163</ns3:hr>
            <ns3:cad>0</ns3:cad>
          </ns3:TrackPointExtension>
        </extensions>
      </trkpt>
      <trkpt lat="47.54681102000176906585693359375" lon="11.0038890503346920013427734375">
        <ele>1870.4000244140625</ele>
        <time>2026-09-01T07:35:41.000Z</time>
        <extensions>
          <ns3:TrackPointExtension>
            <ns3:hr>163</ns3:hr>
            <ns3:cad>0</ns3:cad>
          </ns3:TrackPointExtension>
        </extensions>
      </trkpt>
      <trkpt lat="47.54681185819208621978759765625" lon="11.0038930736482143402099609375">
        <ele>1870.800048828125</ele>
        <time>2026-09-01T07:35:42.000Z</time>
        <extensions>
          <ns3:TrackPointExtension>
            <ns3:hr>163</ns3:hr>
            <ns3:cad>62</ns3:cad>
          </ns3:TrackPointExtension>
        </extensions>
      </trkpt>
      <trkpt lat="47.54681185819208621978759765625" lon="11.00390003062784671783447265625">
        <ele>1871.199951171875</ele>
        <time>2026-09-01T07:35:43.000Z</time>
        <extensions>
          <ns3:TrackPointExtension>
            <ns3:hr>163</ns3:hr>
            <ns3:cad>62</ns3:cad>
          </ns3:TrackPointExtension>
        </extensions>
      </trkpt>
      <trkpt lat="47.54681051708757877349853515625" lon="11.00390472449362277984619140625">
        <ele>1871.5999755859375</ele>
        <time>2026-09-01T07:35:44.000Z</time>
        <extensions>
          <ns3:TrackPointExtension>
            <ns3:hr>163</ns3:hr>
            <ns3:cad>65</ns3:cad>
          </ns3:TrackPointExtension>
        </extensions>
      </trkpt>
      <trkpt lat="47.54681043326854705810546875" lon="11.00390824489295482635498046875">
        <ele>1872</ele>
        <time>2026-09-01T07:35:45.000Z</time>
        <extensions>
          <ns3:TrackPointExtension>
            <ns3:hr>163</ns3:hr>
            <ns3:cad>77</ns3:cad>
          </ns3:TrackPointExtension>
        </extensions>
      </trkpt>
      <trkpt lat="47.5468097627162933349609375" lon="11.00391042418777942657470703125">
        <ele>1872.199951171875</ele>
        <time>2026-09-01T07:35:46.000Z</time>
        <extensions>
          <ns3:TrackPointExtension>
            <ns3:hr>163</ns3:hr>
            <ns3:cad>77</ns3:cad>
          </ns3:TrackPointExtension>
        </extensions>
      </trkpt>
      <trkpt lat="47.54680817015469074249267578125" lon="11.00391545332968235015869140625">
        <ele>1872.5999755859375</ele>
        <time>2026-09-01T07:35:47.000Z</time>
        <extensions>
          <ns3:TrackPointExtension>
            <ns3:hr>164</ns3:hr>
            <ns3:cad>79</ns3:cad>
          </ns3:TrackPointExtension>
        </extensions>
      </trkpt>
      <trkpt lat="47.5468079186975955963134765625" lon="11.0039219073951244354248046875">
        <ele>1872.800048828125</ele>
        <time>2026-09-01T07:35:48.000Z</time>
        <extensions>
          <ns3:TrackPointExtension>
            <ns3:hr>164</ns3:hr>
            <ns3:cad>79</ns3:cad>
          </ns3:TrackPointExtension>
        </extensions>
      </trkpt>
      <trkpt lat="47.546808086335659027099609375" lon="11.00392987020313739776611328125">
        <ele>1873</ele>
        <time>2026-09-01T07:35:49.000Z</time>
        <extensions>
          <ns3:TrackPointExtension>
            <ns3:hr>164</ns3:hr>
            <ns3:cad>79</ns3:cad>
          </ns3:TrackPointExtension>
        </extensions>
      </trkpt>
      <trkpt lat="47.54679995588958263397216796875" lon="11.00394126959145069122314453125">
        <ele>1873.199951171875</ele>
        <time>2026-09-01T07:35:50.000Z</time>
        <extensions>
          <ns3:TrackPointExtension>
            <ns3:hr>164</ns3:hr>
            <ns3:cad>79</ns3:cad>
          </ns3:TrackPointExtension>
        </extensions>
      </trkpt>
      <trkpt lat="47.5467928312718868255615234375" lon="11.00394696928560733795166015625">
        <ele>1873.5999755859375</ele>
        <time>2026-09-01T07:35:51.000Z</time>
        <extensions>
          <ns3:TrackPointExtension>
            <ns3:hr>165</ns3:hr>
            <ns3:cad>79</ns3:cad>
          </ns3:TrackPointExtension>
        </extensions>
      </trkpt>
      <trkpt lat="47.5467891432344913482666015625" lon="11.00395224988460540771484375">
        <ele>1873.800048828125</ele>
        <time>2026-09-01T07:35:52.000Z</time>
        <extensions>
          <ns3:TrackPointExtension>
            <ns3:hr>165</ns3:hr>
            <ns3:cad>0</ns3:cad>
          </ns3:TrackPointExtension>
        </extensions>
      </trkpt>
      <trkpt lat="47.54678335972130298614501953125" lon="11.0039542615413665771484375">
        <ele>1874</ele>
        <time>2026-09-01T07:35:53.000Z</time>
        <extensions>
          <ns3:TrackPointExtension>
            <ns3:hr>165</ns3:hr>
            <ns3:cad>0</ns3:cad>
          </ns3:TrackPointExtension>
        </extensions>
      </trkpt>
      <trkpt lat="47.5467810966074466705322265625" lon="11.00396029651165008544921875">
        <ele>1874.199951171875</ele>
        <time>2026-09-01T07:35:54.000Z</time>
        <extensions>
          <ns3:TrackPointExtension>
            <ns3:hr>165</ns3:hr>
            <ns3:cad>0</ns3:cad>
          </ns3:TrackPointExtension>
        </extensions>
      </trkpt>
      <trkpt lat="47.5467770732939243316650390625" lon="11.003964655101299285888671875">
        <ele>1874.5999755859375</ele>
        <time>2026-09-01T07:35:55.000Z</time>
        <extensions>
          <ns3:TrackPointExtension>
            <ns3:hr>166</ns3:hr>
            <ns3:cad>0</ns3:cad>
          </ns3:TrackPointExtension>
        </extensions>
      </trkpt>
      <trkpt lat="47.546776235103607177734375" lon="11.00396658293902873992919921875">
        <ele>1874.800048828125</ele>
        <time>2026-09-01T07:35:56.000Z</time>
        <extensions>
          <ns3:TrackPointExtension>
            <ns3:hr>167</ns3:hr>
            <ns3:cad>0</ns3:cad>
          </ns3:TrackPointExtension>
        </extensions>
      </trkpt>
      <trkpt lat="47.54677464254200458526611328125" lon="11.00396708585321903228759765625">
        <ele>1875</ele>
        <time>2026-09-01T07:35:57.000Z</time>
        <extensions>
          <ns3:TrackPointExtension>
            <ns3:hr>168</ns3:hr>
            <ns3:cad>0</ns3:cad>
          </ns3:TrackPointExtension>
        </extensions>
      </trkpt>
      <trkpt lat="47.54677397198975086212158203125" lon="11.0039691813290119171142578125">
        <ele>1875.4000244140625</ele>
        <time>2026-09-01T07:35:58.000Z</time>
        <extensions>
          <ns3:TrackPointExtension>
            <ns3:hr>168</ns3:hr>
            <ns3:cad>0</ns3:cad>
          </ns3:TrackPointExtension>
        </extensions>
      </trkpt>
      <trkpt lat="47.54677313379943370819091796875" lon="11.00396859459578990936279296875">
        <ele>1875.4000244140625</ele>
        <time>2026-09-01T07:35:59.000Z</time>
        <extensions>
          <ns3:TrackPointExtension>
            <ns3:hr>168</ns3:hr>
            <ns3:cad>0</ns3:cad>
          </ns3:TrackPointExtension>
        </extensions>
      </trkpt>
      <trkpt lat="47.54677011631429195404052734375" lon="11.00396842695772647857666015625">
        <ele>1875.5999755859375</ele>
        <time>2026-09-01T07:36:00.000Z</time>
        <extensions>
          <ns3:TrackPointExtension>
            <ns3:hr>167</ns3:hr>
            <ns3:cad>0</ns3:cad>
          </ns3:TrackPointExtension>
        </extensions>
      </trkpt>
      <trkpt lat="47.546761147677898406982421875" lon="11.00397110916674137115478515625">
        <ele>1875.5999755859375</ele>
        <time>2026-09-01T07:36:01.000Z</time>
        <extensions>
          <ns3:TrackPointExtension>
            <ns3:hr>163</ns3:hr>
            <ns3:cad>0</ns3:cad>
          </ns3:TrackPointExtension>
        </extensions>
      </trkpt>
      <trkpt lat="47.546752430498600006103515625" lon="11.00397027097642421722412109375">
        <ele>1875.800048828125</ele>
        <time>2026-09-01T07:36:02.000Z</time>
        <extensions>
          <ns3:TrackPointExtension>
            <ns3:hr>159</ns3:hr>
            <ns3:cad>0</ns3:cad>
          </ns3:TrackPointExtension>
        </extensions>
      </trkpt>
      <trkpt lat="47.54674446769058704376220703125" lon="11.00397462956607341766357421875">
        <ele>1876</ele>
        <time>2026-09-01T07:36:03.000Z</time>
        <extensions>
          <ns3:TrackPointExtension>
            <ns3:hr>159</ns3:hr>
            <ns3:cad>0</ns3:cad>
          </ns3:TrackPointExtension>
        </extensions>
      </trkpt>
      <trkpt lat="47.54673792980611324310302734375" lon="11.00397680886089801788330078125">
        <ele>1876.199951171875</ele>
        <time>2026-09-01T07:36:04.000Z</time>
        <extensions>
          <ns3:TrackPointExtension>
            <ns3:hr>159</ns3:hr>
            <ns3:cad>0</ns3:cad>
          </ns3:TrackPointExtension>
        </extensions>
      </trkpt>
      <trkpt lat="47.546737678349018096923828125" lon="11.003987453877925872802734375">
        <ele>1876.5999755859375</ele>
        <time>2026-09-01T07:36:05.000Z</time>
        <extensions>
          <ns3:TrackPointExtension>
            <ns3:hr>159</ns3:hr>
            <ns3:cad>0</ns3:cad>
          </ns3:TrackPointExtension>
        </extensions>
      </trkpt>
      <trkpt lat="47.5467281229794025421142578125" lon="11.0039980150759220123291015625">
        <ele>1876.5999755859375</ele>
        <time>2026-09-01T07:36:06.000Z</time>
        <extensions>
          <ns3:TrackPointExtension>
            <ns3:hr>159</ns3:hr>
            <ns3:cad>0</ns3:cad>
          </ns3:TrackPointExtension>
        </extensions>
      </trkpt>
      <trkpt lat="47.54671898670494556427001953125" lon="11.00400346331298351287841796875">
        <ele>1876.5999755859375</ele>
        <time>2026-09-01T07:36:07.000Z</time>
        <extensions>
          <ns3:TrackPointExtension>
            <ns3:hr>159</ns3:hr>
            <ns3:cad>0</ns3:cad>
          </ns3:TrackPointExtension>
        </extensions>
      </trkpt>
      <trkpt lat="47.546709515154361724853515625" lon="11.00400061346590518951416015625">
        <ele>1876.4000244140625</ele>
        <time>2026-09-01T07:36:08.000Z</time>
        <extensions>
          <ns3:TrackPointExtension>
            <ns3:hr>159</ns3:hr>
            <ns3:cad>0</ns3:cad>
          </ns3:TrackPointExtension>
        </extensions>
      </trkpt>
      <trkpt lat="47.546700127422809600830078125" lon="11.00399927236139774322509765625">
        <ele>1876.199951171875</ele>
        <time>2026-09-01T07:36:09.000Z</time>
        <extensions>
          <ns3:TrackPointExtension>
            <ns3:hr>159</ns3:hr>
            <ns3:cad>0</ns3:cad>
          </ns3:TrackPointExtension>
        </extensions>
      </trkpt>
      <trkpt lat="47.54668034613132476806640625" lon="11.0039864480495452880859375">
        <ele>1876</ele>
        <time>2026-09-01T07:36:10.000Z</time>
        <extensions>
          <ns3:TrackPointExtension>
            <ns3:hr>159</ns3:hr>
            <ns3:cad>0</ns3:cad>
          </ns3:TrackPointExtension>
        </extensions>
      </trkpt>
      <trkpt lat="47.54667238332331180572509765625" lon="11.00397328846156597137451171875">
        <ele>1875.5999755859375</ele>
        <time>2026-09-01T07:36:11.000Z</time>
        <extensions>
          <ns3:TrackPointExtension>
            <ns3:hr>159</ns3:hr>
            <ns3:cad>61</ns3:cad>
          </ns3:TrackPointExtension>
        </extensions>
      </trkpt>
      <trkpt lat="47.5466550327837467193603515625" lon="11.00396105088293552398681640625">
        <ele>1875.4000244140625</ele>
        <time>2026-09-01T07:36:12.000Z</time>
        <extensions>
          <ns3:TrackPointExtension>
            <ns3:hr>159</ns3:hr>
            <ns3:cad>65</ns3:cad>
          </ns3:TrackPointExtension>
        </extensions>
      </trkpt>
      <trkpt lat="47.54663784988224506378173828125" lon="11.0039477236568927764892578125">
        <ele>1875.199951171875</ele>
        <time>2026-09-01T07:36:13.000Z</time>
        <extensions>
          <ns3:TrackPointExtension>
            <ns3:hr>160</ns3:hr>
            <ns3:cad>65</ns3:cad>
          </ns3:TrackPointExtension>
        </extensions>
      </trkpt>
      <trkpt lat="47.54662527702748775482177734375" lon="11.003937162458896636962890625">
        <ele>1874.800048828125</ele>
        <time>2026-09-01T07:36:14.000Z</time>
        <extensions>
          <ns3:TrackPointExtension>
            <ns3:hr>160</ns3:hr>
            <ns3:cad>65</ns3:cad>
          </ns3:TrackPointExtension>
        </extensions>
      </trkpt>
      <trkpt lat="47.54661270417273044586181640625" lon="11.00392467342317104339599609375">
        <ele>1874.4000244140625</ele>
        <time>2026-09-01T07:36:15.000Z</time>
        <extensions>
          <ns3:TrackPointExtension>
            <ns3:hr>160</ns3:hr>
            <ns3:cad>68</ns3:cad>
          </ns3:TrackPointExtension>
        </extensions>
      </trkpt>
      <trkpt lat="47.54660122096538543701171875" lon="11.003912352025508880615234375">
        <ele>1874.199951171875</ele>
        <time>2026-09-01T07:36:16.000Z</time>
        <extensions>
          <ns3:TrackPointExtension>
            <ns3:hr>160</ns3:hr>
            <ns3:cad>68</ns3:cad>
          </ns3:TrackPointExtension>
        </extensions>
      </trkpt>
      <trkpt lat="47.54659091122448444366455078125" lon="11.00390019826591014862060546875">
        <ele>1874</ele>
        <time>2026-09-01T07:36:17.000Z</time>
        <extensions>
          <ns3:TrackPointExtension>
            <ns3:hr>160</ns3:hr>
            <ns3:cad>67</ns3:cad>
          </ns3:TrackPointExtension>
        </extensions>
      </trkpt>
      <trkpt lat="47.54657900892198085784912109375" lon="11.003888882696628570556640625">
        <ele>1873.800048828125</ele>
        <time>2026-09-01T07:36:18.000Z</time>
        <extensions>
          <ns3:TrackPointExtension>
            <ns3:hr>160</ns3:hr>
            <ns3:cad>67</ns3:cad>
          </ns3:TrackPointExtension>
        </extensions>
      </trkpt>
      <trkpt lat="47.5465665198862552642822265625" lon="11.0038799978792667388916015625">
        <ele>1873.5999755859375</ele>
        <time>2026-09-01T07:36:19.000Z</time>
        <extensions>
          <ns3:TrackPointExtension>
            <ns3:hr>160</ns3:hr>
            <ns3:cad>69</ns3:cad>
          </ns3:TrackPointExtension>
        </extensions>
      </trkpt>
      <trkpt lat="47.54655855707824230194091796875" lon="11.00387203507125377655029296875">
        <ele>1873.5999755859375</ele>
        <time>2026-09-01T07:36:20.000Z</time>
        <extensions>
          <ns3:TrackPointExtension>
            <ns3:hr>160</ns3:hr>
            <ns3:cad>69</ns3:cad>
          </ns3:TrackPointExtension>
        </extensions>
      </trkpt>
      <trkpt lat="47.54654950462281703948974609375" lon="11.00386247970163822174072265625">
        <ele>1873.4000244140625</ele>
        <time>2026-09-01T07:36:21.000Z</time>
        <extensions>
          <ns3:TrackPointExtension>
            <ns3:hr>160</ns3:hr>
            <ns3:cad>69</ns3:cad>
          </ns3:TrackPointExtension>
        </extensions>
      </trkpt>
      <trkpt lat="47.5465393625199794769287109375" lon="11.003849990665912628173828125">
        <ele>1873.4000244140625</ele>
        <time>2026-09-01T07:36:22.000Z</time>
        <extensions>
          <ns3:TrackPointExtension>
            <ns3:hr>160</ns3:hr>
            <ns3:cad>69</ns3:cad>
          </ns3:TrackPointExtension>
        </extensions>
      </trkpt>
      <trkpt lat="47.54653056152164936065673828125" lon="11.00383515469729900360107421875">
        <ele>1873.5999755859375</ele>
        <time>2026-09-01T07:36:23.000Z</time>
        <extensions>
          <ns3:TrackPointExtension>
            <ns3:hr>160</ns3:hr>
            <ns3:cad>69</ns3:cad>
          </ns3:TrackPointExtension>
        </extensions>
      </trkpt>
      <trkpt lat="47.546520419418811798095703125" lon="11.00382409058511257171630859375">
        <ele>1874</ele>
        <time>2026-09-01T07:36:24.000Z</time>
        <extensions>
          <ns3:TrackPointExtension>
            <ns3:hr>160</ns3:hr>
            <ns3:cad>69</ns3:cad>
          </ns3:TrackPointExtension>
        </extensions>
      </trkpt>
      <trkpt lat="47.54651832394301891326904296875" lon="11.003836579620838165283203125">
        <ele>1874.199951171875</ele>
        <time>2026-09-01T07:36:25.000Z</time>
        <extensions>
          <ns3:TrackPointExtension>
            <ns3:hr>159</ns3:hr>
            <ns3:cad>69</ns3:cad>
          </ns3:TrackPointExtension>
        </extensions>
      </trkpt>
      <trkpt lat="47.54650474525988101959228515625" lon="11.003828532993793487548828125">
        <ele>1874.199951171875</ele>
        <time>2026-09-01T07:36:26.000Z</time>
        <extensions>
          <ns3:TrackPointExtension>
            <ns3:hr>159</ns3:hr>
            <ns3:cad>69</ns3:cad>
          </ns3:TrackPointExtension>
        </extensions>
      </trkpt>
      <trkpt lat="47.54649502225220203399658203125" lon="11.00382484495639801025390625">
        <ele>1874</ele>
        <time>2026-09-01T07:36:27.000Z</time>
        <extensions>
          <ns3:TrackPointExtension>
            <ns3:hr>159</ns3:hr>
            <ns3:cad>69</ns3:cad>
          </ns3:TrackPointExtension>
        </extensions>
      </trkpt>
      <trkpt lat="47.54648546688258647918701171875" lon="11.00382040254771709442138671875">
        <ele>1873.800048828125</ele>
        <time>2026-09-01T07:36:28.000Z</time>
        <extensions>
          <ns3:TrackPointExtension>
            <ns3:hr>158</ns3:hr>
            <ns3:cad>51</ns3:cad>
          </ns3:TrackPointExtension>
        </extensions>
      </trkpt>
      <trkpt lat="47.54647758789360523223876953125" lon="11.00381419993937015533447265625">
        <ele>1873.5999755859375</ele>
        <time>2026-09-01T07:36:29.000Z</time>
        <extensions>
          <ns3:TrackPointExtension>
            <ns3:hr>158</ns3:hr>
            <ns3:cad>51</ns3:cad>
          </ns3:TrackPointExtension>
        </extensions>
      </trkpt>
      <trkpt lat="47.5464726425707340240478515625" lon="11.00380967371165752410888671875">
        <ele>1873.5999755859375</ele>
        <time>2026-09-01T07:36:30.000Z</time>
        <extensions>
          <ns3:TrackPointExtension>
            <ns3:hr>157</ns3:hr>
            <ns3:cad>51</ns3:cad>
          </ns3:TrackPointExtension>
        </extensions>
      </trkpt>
      <trkpt lat="47.546468786895275115966796875" lon="11.00380112417042255401611328125">
        <ele>1873.800048828125</ele>
        <time>2026-09-01T07:36:31.000Z</time>
        <extensions>
          <ns3:TrackPointExtension>
            <ns3:hr>157</ns3:hr>
            <ns3:cad>50</ns3:cad>
          </ns3:TrackPointExtension>
        </extensions>
      </trkpt>
      <trkpt lat="47.5464599020779132843017578125" lon="11.00379173643887042999267578125">
        <ele>1874</ele>
        <time>2026-09-01T07:36:32.000Z</time>
        <extensions>
          <ns3:TrackPointExtension>
            <ns3:hr>156</ns3:hr>
            <ns3:cad>50</ns3:cad>
          </ns3:TrackPointExtension>
        </extensions>
      </trkpt>
      <trkpt lat="47.54645504057407379150390625" lon="11.00378620438277721405029296875">
        <ele>1874.5999755859375</ele>
        <time>2026-09-01T07:36:33.000Z</time>
        <extensions>
          <ns3:TrackPointExtension>
            <ns3:hr>155</ns3:hr>
            <ns3:cad>50</ns3:cad>
          </ns3:TrackPointExtension>
        </extensions>
      </trkpt>
      <trkpt lat="47.546452693641185760498046875" lon="11.00378670729696750640869140625">
        <ele>1875</ele>
        <time>2026-09-01T07:36:34.000Z</time>
        <extensions>
          <ns3:TrackPointExtension>
            <ns3:hr>153</ns3:hr>
            <ns3:cad>50</ns3:cad>
          </ns3:TrackPointExtension>
        </extensions>
      </trkpt>
      <trkpt lat="47.54644607193768024444580078125" lon="11.003786288201808929443359375">
        <ele>1875.4000244140625</ele>
        <time>2026-09-01T07:36:35.000Z</time>
        <extensions>
          <ns3:TrackPointExtension>
            <ns3:hr>152</ns3:hr>
            <ns3:cad>50</ns3:cad>
          </ns3:TrackPointExtension>
        </extensions>
      </trkpt>
      <trkpt lat="47.54643836058676242828369140625" lon="11.00378452800214290618896484375">
        <ele>1875.800048828125</ele>
        <time>2026-09-01T07:36:36.000Z</time>
        <extensions>
          <ns3:TrackPointExtension>
            <ns3:hr>152</ns3:hr>
            <ns3:cad>0</ns3:cad>
          </ns3:TrackPointExtension>
        </extensions>
      </trkpt>
      <trkpt lat="47.546431906521320343017578125" lon="11.0037841089069843292236328125">
        <ele>1876.199951171875</ele>
        <time>2026-09-01T07:36:37.000Z</time>
        <extensions>
          <ns3:TrackPointExtension>
            <ns3:hr>151</ns3:hr>
            <ns3:cad>0</ns3:cad>
          </ns3:TrackPointExtension>
        </extensions>
      </trkpt>
      <trkpt lat="47.54642880521714687347412109375" lon="11.0037847794592380523681640625">
        <ele>1876.4000244140625</ele>
        <time>2026-09-01T07:36:38.000Z</time>
        <extensions>
          <ns3:TrackPointExtension>
            <ns3:hr>151</ns3:hr>
            <ns3:cad>0</ns3:cad>
          </ns3:TrackPointExtension>
        </extensions>
      </trkpt>
      <trkpt lat="47.546429224312305450439453125" lon="11.0037844441831111907958984375">
        <ele>1876.4000244140625</ele>
        <time>2026-09-01T07:36:39.000Z</time>
        <extensions>
          <ns3:TrackPointExtension>
            <ns3:hr>151</ns3:hr>
            <ns3:cad>0</ns3:cad>
          </ns3:TrackPointExtension>
        </extensions>
      </trkpt>
      <trkpt lat="47.5464355945587158203125" lon="11.00377597846090793609619140625">
        <ele>1876.5999755859375</ele>
        <time>2026-09-01T07:36:40.000Z</time>
        <extensions>
          <ns3:TrackPointExtension>
            <ns3:hr>151</ns3:hr>
            <ns3:cad>0</ns3:cad>
          </ns3:TrackPointExtension>
        </extensions>
      </trkpt>
      <trkpt lat="47.546438612043857574462890625" lon="11.003770865499973297119140625">
        <ele>1876.5999755859375</ele>
        <time>2026-09-01T07:36:41.000Z</time>
        <extensions>
          <ns3:TrackPointExtension>
            <ns3:hr>151</ns3:hr>
            <ns3:cad>0</ns3:cad>
          </ns3:TrackPointExtension>
        </extensions>
      </trkpt>
      <trkpt lat="47.5464458204805850982666015625" lon="11.0037613101303577423095703125">
        <ele>1876.800048828125</ele>
        <time>2026-09-01T07:36:42.000Z</time>
        <extensions>
          <ns3:TrackPointExtension>
            <ns3:hr>150</ns3:hr>
            <ns3:cad>0</ns3:cad>
          </ns3:TrackPointExtension>
        </extensions>
      </trkpt>
      <trkpt lat="47.54645395092666149139404296875" lon="11.003752760589122772216796875">
        <ele>1877.199951171875</ele>
        <time>2026-09-01T07:36:43.000Z</time>
        <extensions>
          <ns3:TrackPointExtension>
            <ns3:hr>150</ns3:hr>
            <ns3:cad>0</ns3:cad>
          </ns3:TrackPointExtension>
        </extensions>
      </trkpt>
      <trkpt lat="47.5464562140405178070068359375" lon="11.0037411935627460479736328125">
        <ele>1877.5999755859375</ele>
        <time>2026-09-01T07:36:44.000Z</time>
        <extensions>
          <ns3:TrackPointExtension>
            <ns3:hr>149</ns3:hr>
            <ns3:cad>0</ns3:cad>
          </ns3:TrackPointExtension>
        </extensions>
      </trkpt>
      <trkpt lat="47.5464444793760776519775390625" lon="11.00373574532568454742431640625">
        <ele>1878</ele>
        <time>2026-09-01T07:36:45.000Z</time>
        <extensions>
          <ns3:TrackPointExtension>
            <ns3:hr>149</ns3:hr>
            <ns3:cad>0</ns3:cad>
          </ns3:TrackPointExtension>
        </extensions>
      </trkpt>
      <trkpt lat="47.5464342534542083740234375" lon="11.00372686050832271575927734375">
        <ele>1878.4000244140625</ele>
        <time>2026-09-01T07:36:46.000Z</time>
        <extensions>
          <ns3:TrackPointExtension>
            <ns3:hr>148</ns3:hr>
            <ns3:cad>0</ns3:cad>
          </ns3:TrackPointExtension>
        </extensions>
      </trkpt>
      <trkpt lat="47.54643400199711322784423828125" lon="11.0037321411073207855224609375">
        <ele>1878.800048828125</ele>
        <time>2026-09-01T07:36:47.000Z</time>
        <extensions>
          <ns3:TrackPointExtension>
            <ns3:hr>148</ns3:hr>
            <ns3:cad>0</ns3:cad>
          </ns3:TrackPointExtension>
        </extensions>
      </trkpt>
      <trkpt lat="47.54642796702682971954345703125" lon="11.00372300483286380767822265625">
        <ele>1879</ele>
        <time>2026-09-01T07:36:48.000Z</time>
        <extensions>
          <ns3:TrackPointExtension>
            <ns3:hr>148</ns3:hr>
            <ns3:cad>0</ns3:cad>
          </ns3:TrackPointExtension>
        </extensions>
      </trkpt>
      <trkpt lat="47.54642226733267307281494140625" lon="11.003707833588123321533203125">
        <ele>1879.199951171875</ele>
        <time>2026-09-01T07:36:49.000Z</time>
        <extensions>
          <ns3:TrackPointExtension>
            <ns3:hr>148</ns3:hr>
            <ns3:cad>44</ns3:cad>
          </ns3:TrackPointExtension>
        </extensions>
      </trkpt>
      <trkpt lat="47.54642226733267307281494140625" lon="11.0036949254572391510009765625">
        <ele>1879.199951171875</ele>
        <time>2026-09-01T07:36:50.000Z</time>
        <extensions>
          <ns3:TrackPointExtension>
            <ns3:hr>148</ns3:hr>
            <ns3:cad>44</ns3:cad>
          </ns3:TrackPointExtension>
        </extensions>
      </trkpt>
      <trkpt lat="47.54642059095203876495361328125" lon="11.00368076004087924957275390625">
        <ele>1879.199951171875</ele>
        <time>2026-09-01T07:36:51.000Z</time>
        <extensions>
          <ns3:TrackPointExtension>
            <ns3:hr>148</ns3:hr>
            <ns3:cad>44</ns3:cad>
          </ns3:TrackPointExtension>
        </extensions>
      </trkpt>
      <trkpt lat="47.546418495476245880126953125" lon="11.003668606281280517578125">
        <ele>1879.4000244140625</ele>
        <time>2026-09-01T07:36:52.000Z</time>
        <extensions>
          <ns3:TrackPointExtension>
            <ns3:hr>148</ns3:hr>
            <ns3:cad>0</ns3:cad>
          </ns3:TrackPointExtension>
        </extensions>
      </trkpt>
      <trkpt lat="47.546416483819484710693359375" lon="11.00366131402552127838134765625">
        <ele>1879.5999755859375</ele>
        <time>2026-09-01T07:36:53.000Z</time>
        <extensions>
          <ns3:TrackPointExtension>
            <ns3:hr>148</ns3:hr>
            <ns3:cad>0</ns3:cad>
          </ns3:TrackPointExtension>
        </extensions>
      </trkpt>
      <trkpt lat="47.54641656763851642608642578125" lon="11.0036538541316986083984375">
        <ele>1880</ele>
        <time>2026-09-01T07:36:54.000Z</time>
        <extensions>
          <ns3:TrackPointExtension>
            <ns3:hr>148</ns3:hr>
            <ns3:cad>0</ns3:cad>
          </ns3:TrackPointExtension>
        </extensions>
      </trkpt>
      <trkpt lat="47.54641614854335784912109375" lon="11.0036486573517322540283203125">
        <ele>1880.4000244140625</ele>
        <time>2026-09-01T07:36:55.000Z</time>
        <extensions>
          <ns3:TrackPointExtension>
            <ns3:hr>149</ns3:hr>
            <ns3:cad>0</ns3:cad>
          </ns3:TrackPointExtension>
        </extensions>
      </trkpt>
      <trkpt lat="47.54641614854335784912109375" lon="11.00364656187593936920166015625">
        <ele>1880.800048828125</ele>
        <time>2026-09-01T07:36:56.000Z</time>
        <extensions>
          <ns3:TrackPointExtension>
            <ns3:hr>150</ns3:hr>
            <ns3:cad>0</ns3:cad>
          </ns3:TrackPointExtension>
        </extensions>
      </trkpt>
      <trkpt lat="47.54641539417207241058349609375" lon="11.00364245474338531494140625">
        <ele>1881.4000244140625</ele>
        <time>2026-09-01T07:36:57.000Z</time>
        <extensions>
          <ns3:TrackPointExtension>
            <ns3:hr>151</ns3:hr>
            <ns3:cad>0</ns3:cad>
          </ns3:TrackPointExtension>
        </extensions>
      </trkpt>
      <trkpt lat="47.546413131058216094970703125" lon="11.00363633595407009124755859375">
        <ele>1881.800048828125</ele>
        <time>2026-09-01T07:36:58.000Z</time>
        <extensions>
          <ns3:TrackPointExtension>
            <ns3:hr>152</ns3:hr>
            <ns3:cad>0</ns3:cad>
          </ns3:TrackPointExtension>
        </extensions>
      </trkpt>
      <trkpt lat="47.54640952683985233306884765625" lon="11.0036325640976428985595703125">
        <ele>1882</ele>
        <time>2026-09-01T07:36:59.000Z</time>
        <extensions>
          <ns3:TrackPointExtension>
            <ns3:hr>152</ns3:hr>
            <ns3:cad>0</ns3:cad>
          </ns3:TrackPointExtension>
        </extensions>
      </trkpt>
      <trkpt lat="47.54640567116439342498779296875" lon="11.003645472228527069091796875">
        <ele>1882.4000244140625</ele>
        <time>2026-09-01T07:37:00.000Z</time>
        <extensions>
          <ns3:TrackPointExtension>
            <ns3:hr>153</ns3:hr>
            <ns3:cad>0</ns3:cad>
          </ns3:TrackPointExtension>
        </extensions>
      </trkpt>
      <trkpt lat="47.54640265367925167083740234375" lon="11.00365527905523777008056640625">
        <ele>1882.800048828125</ele>
        <time>2026-09-01T07:37:01.000Z</time>
        <extensions>
          <ns3:TrackPointExtension>
            <ns3:hr>154</ns3:hr>
            <ns3:cad>0</ns3:cad>
          </ns3:TrackPointExtension>
        </extensions>
      </trkpt>
      <trkpt lat="47.54640131257474422454833984375" lon="11.00366366095840930938720703125">
        <ele>1883.199951171875</ele>
        <time>2026-09-01T07:37:02.000Z</time>
        <extensions>
          <ns3:TrackPointExtension>
            <ns3:hr>154</ns3:hr>
            <ns3:cad>40</ns3:cad>
          </ns3:TrackPointExtension>
        </extensions>
      </trkpt>
      <trkpt lat="47.54640516825020313262939453125" lon="11.00367623381316661834716796875">
        <ele>1883.5999755859375</ele>
        <time>2026-09-01T07:37:03.000Z</time>
        <extensions>
          <ns3:TrackPointExtension>
            <ns3:hr>155</ns3:hr>
            <ns3:cad>44</ns3:cad>
          </ns3:TrackPointExtension>
        </extensions>
      </trkpt>
      <trkpt lat="47.546406425535678863525390625" lon="11.003687381744384765625">
        <ele>1884</ele>
        <time>2026-09-01T07:37:04.000Z</time>
        <extensions>
          <ns3:TrackPointExtension>
            <ns3:hr>155</ns3:hr>
            <ns3:cad>44</ns3:cad>
          </ns3:TrackPointExtension>
        </extensions>
      </trkpt>
      <trkpt lat="47.54640734754502773284912109375" lon="11.00370020605623722076416015625">
        <ele>1884.199951171875</ele>
        <time>2026-09-01T07:37:05.000Z</time>
        <extensions>
          <ns3:TrackPointExtension>
            <ns3:hr>156</ns3:hr>
            <ns3:cad>44</ns3:cad>
          </ns3:TrackPointExtension>
        </extensions>
      </trkpt>
      <trkpt lat="47.54640676081180572509765625" lon="11.00370473228394985198974609375">
        <ele>1884.5999755859375</ele>
        <time>2026-09-01T07:37:06.000Z</time>
        <extensions>
          <ns3:TrackPointExtension>
            <ns3:hr>158</ns3:hr>
            <ns3:cad>44</ns3:cad>
          </ns3:TrackPointExtension>
        </extensions>
      </trkpt>
      <trkpt lat="47.54640583880245685577392578125" lon="11.00370406173169612884521484375">
        <ele>1884.800048828125</ele>
        <time>2026-09-01T07:37:07.000Z</time>
        <extensions>
          <ns3:TrackPointExtension>
            <ns3:hr>158</ns3:hr>
            <ns3:cad>42</ns3:cad>
          </ns3:TrackPointExtension>
        </extensions>
      </trkpt>
      <trkpt lat="47.5463958643376827239990234375" lon="11.00369299761950969696044921875">
        <ele>1885</ele>
        <time>2026-09-01T07:37:08.000Z</time>
        <extensions>
          <ns3:TrackPointExtension>
            <ns3:hr>159</ns3:hr>
            <ns3:cad>42</ns3:cad>
          </ns3:TrackPointExtension>
        </extensions>
      </trkpt>
      <trkpt lat="47.5463864766061305999755859375" lon="11.0036811791360378265380859375">
        <ele>1885.199951171875</ele>
        <time>2026-09-01T07:37:09.000Z</time>
        <extensions>
          <ns3:TrackPointExtension>
            <ns3:hr>159</ns3:hr>
            <ns3:cad>0</ns3:cad>
          </ns3:TrackPointExtension>
        </extensions>
      </trkpt>
      <trkpt lat="47.5463797710835933685302734375" lon="11.0036771558225154876708984375">
        <ele>1885.5999755859375</ele>
        <time>2026-09-01T07:37:10.000Z</time>
        <extensions>
          <ns3:TrackPointExtension>
            <ns3:hr>159</ns3:hr>
            <ns3:cad>0</ns3:cad>
          </ns3:TrackPointExtension>
        </extensions>
      </trkpt>
      <trkpt lat="47.5463787652552127838134765625" lon="11.0036717914044857025146484375">
        <ele>1886</ele>
        <time>2026-09-01T07:37:11.000Z</time>
        <extensions>
          <ns3:TrackPointExtension>
            <ns3:hr>160</ns3:hr>
            <ns3:cad>0</ns3:cad>
          </ns3:TrackPointExtension>
        </extensions>
      </trkpt>
      <trkpt lat="47.5463723950088024139404296875" lon="11.0036640800535678863525390625">
        <ele>1886.199951171875</ele>
        <time>2026-09-01T07:37:12.000Z</time>
        <extensions>
          <ns3:TrackPointExtension>
            <ns3:hr>160</ns3:hr>
            <ns3:cad>0</ns3:cad>
          </ns3:TrackPointExtension>
        </extensions>
      </trkpt>
      <trkpt lat="47.54636778496205806732177734375" lon="11.00365410558879375457763671875">
        <ele>1886.5999755859375</ele>
        <time>2026-09-01T07:37:13.000Z</time>
        <extensions>
          <ns3:TrackPointExtension>
            <ns3:hr>160</ns3:hr>
            <ns3:cad>44</ns3:cad>
          </ns3:TrackPointExtension>
        </extensions>
      </trkpt>
      <trkpt lat="47.54635982215404510498046875" lon="11.00364337675273418426513671875">
        <ele>1886.800048828125</ele>
        <time>2026-09-01T07:37:14.000Z</time>
        <extensions>
          <ns3:TrackPointExtension>
            <ns3:hr>159</ns3:hr>
            <ns3:cad>47</ns3:cad>
          </ns3:TrackPointExtension>
        </extensions>
      </trkpt>
      <trkpt lat="47.5463559664785861968994140625" lon="11.00363566540181636810302734375">
        <ele>1887.199951171875</ele>
        <time>2026-09-01T07:37:15.000Z</time>
        <extensions>
          <ns3:TrackPointExtension>
            <ns3:hr>159</ns3:hr>
            <ns3:cad>47</ns3:cad>
          </ns3:TrackPointExtension>
        </extensions>
      </trkpt>
      <trkpt lat="47.54635018296539783477783203125" lon="11.00362342782318592071533203125">
        <ele>1887.4000244140625</ele>
        <time>2026-09-01T07:37:16.000Z</time>
        <extensions>
          <ns3:TrackPointExtension>
            <ns3:hr>159</ns3:hr>
            <ns3:cad>47</ns3:cad>
          </ns3:TrackPointExtension>
        </extensions>
      </trkpt>
      <trkpt lat="47.54633660428225994110107421875" lon="11.00362275727093219757080078125">
        <ele>1887.800048828125</ele>
        <time>2026-09-01T07:37:17.000Z</time>
        <extensions>
          <ns3:TrackPointExtension>
            <ns3:hr>159</ns3:hr>
            <ns3:cad>47</ns3:cad>
          </ns3:TrackPointExtension>
        </extensions>
      </trkpt>
      <trkpt lat="47.5463269650936126708984375" lon="11.00361906923353672027587890625">
        <ele>1888</ele>
        <time>2026-09-01T07:37:18.000Z</time>
        <extensions>
          <ns3:TrackPointExtension>
            <ns3:hr>159</ns3:hr>
            <ns3:cad>0</ns3:cad>
          </ns3:TrackPointExtension>
        </extensions>
      </trkpt>
      <trkpt lat="47.5463135540485382080078125" lon="11.00361336953938007354736328125">
        <ele>1888.199951171875</ele>
        <time>2026-09-01T07:37:19.000Z</time>
        <extensions>
          <ns3:TrackPointExtension>
            <ns3:hr>159</ns3:hr>
            <ns3:cad>0</ns3:cad>
          </ns3:TrackPointExtension>
        </extensions>
      </trkpt>
      <trkpt lat="47.5463001430034637451171875" lon="11.00360498763620853424072265625">
        <ele>1888.4000244140625</ele>
        <time>2026-09-01T07:37:20.000Z</time>
        <extensions>
          <ns3:TrackPointExtension>
            <ns3:hr>159</ns3:hr>
            <ns3:cad>0</ns3:cad>
          </ns3:TrackPointExtension>
        </extensions>
      </trkpt>
      <trkpt lat="47.54628078080713748931884765625" lon="11.0035975277423858642578125">
        <ele>1888.4000244140625</ele>
        <time>2026-09-01T07:37:21.000Z</time>
        <extensions>
          <ns3:TrackPointExtension>
            <ns3:hr>163</ns3:hr>
            <ns3:cad>0</ns3:cad>
          </ns3:TrackPointExtension>
        </extensions>
      </trkpt>
      <trkpt lat="47.5462708063423633575439453125" lon="11.0035933367908000946044921875">
        <ele>1888.4000244140625</ele>
        <time>2026-09-01T07:37:22.000Z</time>
        <extensions>
          <ns3:TrackPointExtension>
            <ns3:hr>165</ns3:hr>
            <ns3:cad>0</ns3:cad>
          </ns3:TrackPointExtension>
        </extensions>
      </trkpt>
      <trkpt lat="47.54625831730663776397705078125" lon="11.0035906545817852020263671875">
        <ele>1888.5999755859375</ele>
        <time>2026-09-01T07:37:23.000Z</time>
        <extensions>
          <ns3:TrackPointExtension>
            <ns3:hr>166</ns3:hr>
            <ns3:cad>0</ns3:cad>
          </ns3:TrackPointExtension>
        </extensions>
      </trkpt>
      <trkpt lat="47.5462402962148189544677734375" lon="11.00359124131500720977783203125">
        <ele>1888.800048828125</ele>
        <time>2026-09-01T07:37:24.000Z</time>
        <extensions>
          <ns3:TrackPointExtension>
            <ns3:hr>165</ns3:hr>
            <ns3:cad>0</ns3:cad>
          </ns3:TrackPointExtension>
        </extensions>
      </trkpt>
      <trkpt lat="47.5462238676846027374267578125" lon="11.0035943426191806793212890625">
        <ele>1889.199951171875</ele>
        <time>2026-09-01T07:37:25.000Z</time>
        <extensions>
          <ns3:TrackPointExtension>
            <ns3:hr>165</ns3:hr>
            <ns3:cad>0</ns3:cad>
          </ns3:TrackPointExtension>
        </extensions>
      </trkpt>
      <trkpt lat="47.54623333923518657684326171875" lon="11.0036184825003147125244140625">
        <ele>1889.800048828125</ele>
        <time>2026-09-01T07:37:26.000Z</time>
        <extensions>
          <ns3:TrackPointExtension>
            <ns3:hr>165</ns3:hr>
            <ns3:cad>0</ns3:cad>
          </ns3:TrackPointExtension>
        </extensions>
      </trkpt>
      <trkpt lat="47.54623501561582088470458984375" lon="11.00362460128962993621826171875">
        <ele>1890</ele>
        <time>2026-09-01T07:37:27.000Z</time>
        <extensions>
          <ns3:TrackPointExtension>
            <ns3:hr>165</ns3:hr>
            <ns3:cad>0</ns3:cad>
          </ns3:TrackPointExtension>
        </extensions>
      </trkpt>
      <trkpt lat="47.54623434506356716156005859375" lon="11.0036404430866241455078125">
        <ele>1890.5999755859375</ele>
        <time>2026-09-01T07:37:28.000Z</time>
        <extensions>
          <ns3:TrackPointExtension>
            <ns3:hr>165</ns3:hr>
            <ns3:cad>0</ns3:cad>
          </ns3:TrackPointExtension>
        </extensions>
      </trkpt>
      <trkpt lat="47.5462319143116474151611328125" lon="11.0036511719226837158203125">
        <ele>1891</ele>
        <time>2026-09-01T07:37:29.000Z</time>
        <extensions>
          <ns3:TrackPointExtension>
            <ns3:hr>164</ns3:hr>
            <ns3:cad>0</ns3:cad>
          </ns3:TrackPointExtension>
        </extensions>
      </trkpt>
      <trkpt lat="47.546230070292949676513671875" lon="11.003655530512332916259765625">
        <ele>1891.199951171875</ele>
        <time>2026-09-01T07:37:30.000Z</time>
        <extensions>
          <ns3:TrackPointExtension>
            <ns3:hr>164</ns3:hr>
            <ns3:cad>0</ns3:cad>
          </ns3:TrackPointExtension>
        </extensions>
      </trkpt>
      <trkpt lat="47.54622713662683963775634765625" lon="11.00366114638745784759521484375">
        <ele>1891.199951171875</ele>
        <time>2026-09-01T07:37:31.000Z</time>
        <extensions>
          <ns3:TrackPointExtension>
            <ns3:hr>163</ns3:hr>
            <ns3:cad>0</ns3:cad>
          </ns3:TrackPointExtension>
        </extensions>
      </trkpt>
      <trkpt lat="47.54621875472366809844970703125" lon="11.00366550497710704803466796875">
        <ele>1891.4000244140625</ele>
        <time>2026-09-01T07:37:32.000Z</time>
        <extensions>
          <ns3:TrackPointExtension>
            <ns3:hr>163</ns3:hr>
            <ns3:cad>0</ns3:cad>
          </ns3:TrackPointExtension>
        </extensions>
      </trkpt>
      <trkpt lat="47.54621339030563831329345703125" lon="11.00366634316742420196533203125">
        <ele>1891.5999755859375</ele>
        <time>2026-09-01T07:37:33.000Z</time>
        <extensions>
          <ns3:TrackPointExtension>
            <ns3:hr>163</ns3:hr>
            <ns3:cad>0</ns3:cad>
          </ns3:TrackPointExtension>
        </extensions>
      </trkpt>
      <trkpt lat="47.5462071038782596588134765625" lon="11.0036647506058216094970703125">
        <ele>1891.800048828125</ele>
        <time>2026-09-01T07:37:34.000Z</time>
        <extensions>
          <ns3:TrackPointExtension>
            <ns3:hr>164</ns3:hr>
            <ns3:cad>0</ns3:cad>
          </ns3:TrackPointExtension>
        </extensions>
      </trkpt>
      <trkpt lat="47.5462047569453716278076171875" lon="11.0036734677851200103759765625">
        <ele>1892</ele>
        <time>2026-09-01T07:37:35.000Z</time>
        <extensions>
          <ns3:TrackPointExtension>
            <ns3:hr>164</ns3:hr>
            <ns3:cad>0</ns3:cad>
          </ns3:TrackPointExtension>
        </extensions>
      </trkpt>
      <trkpt lat="47.5462003983557224273681640625" lon="11.00368260405957698822021484375">
        <ele>1892.199951171875</ele>
        <time>2026-09-01T07:37:36.000Z</time>
        <extensions>
          <ns3:TrackPointExtension>
            <ns3:hr>164</ns3:hr>
            <ns3:cad>46</ns3:cad>
          </ns3:TrackPointExtension>
        </extensions>
      </trkpt>
      <trkpt lat="47.54619888961315155029296875" lon="11.0037006251513957977294921875">
        <ele>1892.5999755859375</ele>
        <time>2026-09-01T07:37:37.000Z</time>
        <extensions>
          <ns3:TrackPointExtension>
            <ns3:hr>164</ns3:hr>
            <ns3:cad>46</ns3:cad>
          </ns3:TrackPointExtension>
        </extensions>
      </trkpt>
      <trkpt lat="47.5461953692138195037841796875" lon="11.003712527453899383544921875">
        <ele>1893</ele>
        <time>2026-09-01T07:37:38.000Z</time>
        <extensions>
          <ns3:TrackPointExtension>
            <ns3:hr>164</ns3:hr>
            <ns3:cad>46</ns3:cad>
          </ns3:TrackPointExtension>
        </extensions>
      </trkpt>
      <trkpt lat="47.54619478248059749603271484375" lon="11.0037254355847835540771484375">
        <ele>1893.4000244140625</ele>
        <time>2026-09-01T07:37:39.000Z</time>
        <extensions>
          <ns3:TrackPointExtension>
            <ns3:hr>164</ns3:hr>
            <ns3:cad>46</ns3:cad>
          </ns3:TrackPointExtension>
        </extensions>
      </trkpt>
      <trkpt lat="47.5461928546428680419921875" lon="11.00373591296374797821044921875">
        <ele>1893.800048828125</ele>
        <time>2026-09-01T07:37:40.000Z</time>
        <extensions>
          <ns3:TrackPointExtension>
            <ns3:hr>163</ns3:hr>
            <ns3:cad>46</ns3:cad>
          </ns3:TrackPointExtension>
        </extensions>
      </trkpt>
      <trkpt lat="47.54619478248059749603271484375" lon="11.00375502370297908782958984375">
        <ele>1894.199951171875</ele>
        <time>2026-09-01T07:37:41.000Z</time>
        <extensions>
          <ns3:TrackPointExtension>
            <ns3:hr>162</ns3:hr>
            <ns3:cad>46</ns3:cad>
          </ns3:TrackPointExtension>
        </extensions>
      </trkpt>
      <trkpt lat="47.5461983866989612579345703125" lon="11.00376189686357975006103515625">
        <ele>1894.199951171875</ele>
        <time>2026-09-01T07:37:42.000Z</time>
        <extensions>
          <ns3:TrackPointExtension>
            <ns3:hr>162</ns3:hr>
            <ns3:cad>46</ns3:cad>
          </ns3:TrackPointExtension>
        </extensions>
      </trkpt>
      <trkpt lat="47.54619863815605640411376953125" lon="11.0037696920335292816162109375">
        <ele>1894.4000244140625</ele>
        <time>2026-09-01T07:37:43.000Z</time>
        <extensions>
          <ns3:TrackPointExtension>
            <ns3:hr>162</ns3:hr>
            <ns3:cad>44</ns3:cad>
          </ns3:TrackPointExtension>
        </extensions>
      </trkpt>
      <trkpt lat="47.54619352519512176513671875" lon="11.00378419272601604461669921875">
        <ele>1894.199951171875</ele>
        <time>2026-09-01T07:37:44.000Z</time>
        <extensions>
          <ns3:TrackPointExtension>
            <ns3:hr>162</ns3:hr>
            <ns3:cad>44</ns3:cad>
          </ns3:TrackPointExtension>
        </extensions>
      </trkpt>
      <trkpt lat="47.54618522711098194122314453125" lon="11.00379810668528079986572265625">
        <ele>1894.4000244140625</ele>
        <time>2026-09-01T07:37:45.000Z</time>
        <extensions>
          <ns3:TrackPointExtension>
            <ns3:hr>163</ns3:hr>
            <ns3:cad>44</ns3:cad>
          </ns3:TrackPointExtension>
        </extensions>
      </trkpt>
      <trkpt lat="47.54617433063685894012451171875" lon="11.00381269119679927825927734375">
        <ele>1894.4000244140625</ele>
        <time>2026-09-01T07:37:46.000Z</time>
        <extensions>
          <ns3:TrackPointExtension>
            <ns3:hr>163</ns3:hr>
            <ns3:cad>50</ns3:cad>
          </ns3:TrackPointExtension>
        </extensions>
      </trkpt>
      <trkpt lat="47.5461606681346893310546875" lon="11.003818809986114501953125">
        <ele>1894.4000244140625</ele>
        <time>2026-09-01T07:37:47.000Z</time>
        <extensions>
          <ns3:TrackPointExtension>
            <ns3:hr>162</ns3:hr>
            <ns3:cad>50</ns3:cad>
          </ns3:TrackPointExtension>
        </extensions>
      </trkpt>
      <trkpt lat="47.54613585770130157470703125" lon="11.0038183070719242095947265625">
        <ele>1894.4000244140625</ele>
        <time>2026-09-01T07:37:48.000Z</time>
        <extensions>
          <ns3:TrackPointExtension>
            <ns3:hr>162</ns3:hr>
            <ns3:cad>50</ns3:cad>
          </ns3:TrackPointExtension>
        </extensions>
      </trkpt>
      <trkpt lat="47.54611465148627758026123046875" lon="11.00381671451032161712646484375">
        <ele>1894.199951171875</ele>
        <time>2026-09-01T07:37:49.000Z</time>
        <extensions>
          <ns3:TrackPointExtension>
            <ns3:hr>161</ns3:hr>
            <ns3:cad>50</ns3:cad>
          </ns3:TrackPointExtension>
        </extensions>
      </trkpt>
      <trkpt lat="47.54609671421349048614501953125" lon="11.0038089193403720855712890625">
        <ele>1894</ele>
        <time>2026-09-01T07:37:50.000Z</time>
        <extensions>
          <ns3:TrackPointExtension>
            <ns3:hr>161</ns3:hr>
            <ns3:cad>0</ns3:cad>
          </ns3:TrackPointExtension>
        </extensions>
      </trkpt>
      <trkpt lat="47.54605966620147228240966796875" lon="11.00378301925957202911376953125">
        <ele>1893.800048828125</ele>
        <time>2026-09-01T07:37:51.000Z</time>
        <extensions>
          <ns3:TrackPointExtension>
            <ns3:hr>162</ns3:hr>
            <ns3:cad>0</ns3:cad>
          </ns3:TrackPointExtension>
        </extensions>
      </trkpt>
      <trkpt lat="47.54603100009262561798095703125" lon="11.00377195514738559722900390625">
        <ele>1893.5999755859375</ele>
        <time>2026-09-01T07:37:52.000Z</time>
        <extensions>
          <ns3:TrackPointExtension>
            <ns3:hr>162</ns3:hr>
            <ns3:cad>80</ns3:cad>
          </ns3:TrackPointExtension>
        </extensions>
      </trkpt>
      <trkpt lat="47.5460066087543964385986328125" lon="11.00376323796808719635009765625">
        <ele>1893.4000244140625</ele>
        <time>2026-09-01T07:37:53.000Z</time>
        <extensions>
          <ns3:TrackPointExtension>
            <ns3:hr>162</ns3:hr>
            <ns3:cad>81</ns3:cad>
          </ns3:TrackPointExtension>
        </extensions>
      </trkpt>
      <trkpt lat="47.545981295406818389892578125" lon="11.00374437868595123291015625">
        <ele>1893.199951171875</ele>
        <time>2026-09-01T07:37:54.000Z</time>
        <extensions>
          <ns3:TrackPointExtension>
            <ns3:hr>164</ns3:hr>
            <ns3:cad>81</ns3:cad>
          </ns3:TrackPointExtension>
        </extensions>
      </trkpt>
      <trkpt lat="47.5459576584398746490478515625" lon="11.00372937507927417755126953125">
        <ele>1893</ele>
        <time>2026-09-01T07:37:55.000Z</time>
        <extensions>
          <ns3:TrackPointExtension>
            <ns3:hr>166</ns3:hr>
            <ns3:cad>81</ns3:cad>
          </ns3:TrackPointExtension>
        </extensions>
      </trkpt>
      <trkpt lat="47.545939385890960693359375" lon="11.00371353328227996826171875">
        <ele>1893</ele>
        <time>2026-09-01T07:37:56.000Z</time>
        <extensions>
          <ns3:TrackPointExtension>
            <ns3:hr>168</ns3:hr>
            <ns3:cad>80</ns3:cad>
          </ns3:TrackPointExtension>
        </extensions>
      </trkpt>
      <trkpt lat="47.54591130651533603668212890625" lon="11.00371210835874080657958984375">
        <ele>1893</ele>
        <time>2026-09-01T07:37:57.000Z</time>
        <extensions>
          <ns3:TrackPointExtension>
            <ns3:hr>169</ns3:hr>
            <ns3:cad>80</ns3:cad>
          </ns3:TrackPointExtension>
        </extensions>
      </trkpt>
      <trkpt lat="47.545898146927356719970703125" lon="11.0037056542932987213134765625">
        <ele>1893</ele>
        <time>2026-09-01T07:37:58.000Z</time>
        <extensions>
          <ns3:TrackPointExtension>
            <ns3:hr>170</ns3:hr>
            <ns3:cad>80</ns3:cad>
          </ns3:TrackPointExtension>
        </extensions>
      </trkpt>
      <trkpt lat="47.54588515497744083404541015625" lon="11.003701798617839813232421875">
        <ele>1893.199951171875</ele>
        <time>2026-09-01T07:37:59.000Z</time>
        <extensions>
          <ns3:TrackPointExtension>
            <ns3:hr>171</ns3:hr>
            <ns3:cad>83</ns3:cad>
          </ns3:TrackPointExtension>
        </extensions>
      </trkpt>
      <trkpt lat="47.54586671479046344757080078125" lon="11.00370389409363269805908203125">
        <ele>1893.5999755859375</ele>
        <time>2026-09-01T07:38:00.000Z</time>
        <extensions>
          <ns3:TrackPointExtension>
            <ns3:hr>171</ns3:hr>
            <ns3:cad>83</ns3:cad>
          </ns3:TrackPointExtension>
        </extensions>
      </trkpt>
      <trkpt lat="47.54584592767059803009033203125" lon="11.0037046484649181365966796875">
        <ele>1893.800048828125</ele>
        <time>2026-09-01T07:38:01.000Z</time>
        <extensions>
          <ns3:TrackPointExtension>
            <ns3:hr>171</ns3:hr>
            <ns3:cad>77</ns3:cad>
          </ns3:TrackPointExtension>
        </extensions>
      </trkpt>
      <trkpt lat="47.5458322651684284210205078125" lon="11.00369417108595371246337890625">
        <ele>1894.4000244140625</ele>
        <time>2026-09-01T07:38:02.000Z</time>
        <extensions>
          <ns3:TrackPointExtension>
            <ns3:hr>171</ns3:hr>
            <ns3:cad>77</ns3:cad>
          </ns3:TrackPointExtension>
        </extensions>
      </trkpt>
      <trkpt lat="47.5458212010562419891357421875" lon="11.0036919079720973968505859375">
        <ele>1895.199951171875</ele>
        <time>2026-09-01T07:38:03.000Z</time>
        <extensions>
          <ns3:TrackPointExtension>
            <ns3:hr>171</ns3:hr>
            <ns3:cad>78</ns3:cad>
          </ns3:TrackPointExtension>
        </extensions>
      </trkpt>
      <trkpt lat="47.5458141602575778961181640625" lon="11.0036935843527317047119140625">
        <ele>1896</ele>
        <time>2026-09-01T07:38:04.000Z</time>
        <extensions>
          <ns3:TrackPointExtension>
            <ns3:hr>170</ns3:hr>
            <ns3:cad>78</ns3:cad>
          </ns3:TrackPointExtension>
        </extensions>
      </trkpt>
      <trkpt lat="47.54580938257277011871337890625" lon="11.00369199179112911224365234375">
        <ele>1896.5999755859375</ele>
        <time>2026-09-01T07:38:05.000Z</time>
        <extensions>
          <ns3:TrackPointExtension>
            <ns3:hr>169</ns3:hr>
            <ns3:cad>78</ns3:cad>
          </ns3:TrackPointExtension>
        </extensions>
      </trkpt>
      <trkpt lat="47.54580116830766201019287109375" lon="11.00369383580982685089111328125">
        <ele>1897</ele>
        <time>2026-09-01T07:38:06.000Z</time>
        <extensions>
          <ns3:TrackPointExtension>
            <ns3:hr>168</ns3:hr>
            <ns3:cad>0</ns3:cad>
          </ns3:TrackPointExtension>
        </extensions>
      </trkpt>
      <trkpt lat="47.5457967258989810943603515625" lon="11.00369333289563655853271484375">
        <ele>1897.5999755859375</ele>
        <time>2026-09-01T07:38:07.000Z</time>
        <extensions>
          <ns3:TrackPointExtension>
            <ns3:hr>168</ns3:hr>
            <ns3:cad>0</ns3:cad>
          </ns3:TrackPointExtension>
        </extensions>
      </trkpt>
      <trkpt lat="47.54579245112836360931396484375" lon="11.0036949254572391510009765625">
        <ele>1897.800048828125</ele>
        <time>2026-09-01T07:38:08.000Z</time>
        <extensions>
          <ns3:TrackPointExtension>
            <ns3:hr>168</ns3:hr>
            <ns3:cad>0</ns3:cad>
          </ns3:TrackPointExtension>
        </extensions>
      </trkpt>
      <trkpt lat="47.54578641615808010101318359375" lon="11.0036922432482242584228515625">
        <ele>1898</ele>
        <time>2026-09-01T07:38:09.000Z</time>
        <extensions>
          <ns3:TrackPointExtension>
            <ns3:hr>169</ns3:hr>
            <ns3:cad>0</ns3:cad>
          </ns3:TrackPointExtension>
        </extensions>
      </trkpt>
      <trkpt lat="47.5457799620926380157470703125" lon="11.003695428371429443359375">
        <ele>1898.199951171875</ele>
        <time>2026-09-01T07:38:10.000Z</time>
        <extensions>
          <ns3:TrackPointExtension>
            <ns3:hr>170</ns3:hr>
            <ns3:cad>0</ns3:cad>
          </ns3:TrackPointExtension>
        </extensions>
      </trkpt>
      <trkpt lat="47.54577099345624446868896484375" lon="11.00369484163820743560791015625">
        <ele>1898.4000244140625</ele>
        <time>2026-09-01T07:38:11.000Z</time>
        <extensions>
          <ns3:TrackPointExtension>
            <ns3:hr>169</ns3:hr>
            <ns3:cad>0</ns3:cad>
          </ns3:TrackPointExtension>
        </extensions>
      </trkpt>
      <trkpt lat="47.54576311446726322174072265625" lon="11.0036940872669219970703125">
        <ele>1898.800048828125</ele>
        <time>2026-09-01T07:38:12.000Z</time>
        <extensions>
          <ns3:TrackPointExtension>
            <ns3:hr>168</ns3:hr>
            <ns3:cad>0</ns3:cad>
          </ns3:TrackPointExtension>
        </extensions>
      </trkpt>
      <trkpt lat="47.54575364291667938232421875" lon="11.00369232706725597381591796875">
        <ele>1899</ele>
        <time>2026-09-01T07:38:13.000Z</time>
        <extensions>
          <ns3:TrackPointExtension>
            <ns3:hr>167</ns3:hr>
            <ns3:cad>0</ns3:cad>
          </ns3:TrackPointExtension>
        </extensions>
      </trkpt>
      <trkpt lat="47.54574291408061981201171875" lon="11.0036781616508960723876953125">
        <ele>1899.4000244140625</ele>
        <time>2026-09-01T07:38:14.000Z</time>
        <extensions>
          <ns3:TrackPointExtension>
            <ns3:hr>166</ns3:hr>
            <ns3:cad>0</ns3:cad>
          </ns3:TrackPointExtension>
        </extensions>
      </trkpt>
      <trkpt lat="47.54573486745357513427734375" lon="11.0036758147180080413818359375">
        <ele>1899.5999755859375</ele>
        <time>2026-09-01T07:38:15.000Z</time>
        <extensions>
          <ns3:TrackPointExtension>
            <ns3:hr>165</ns3:hr>
            <ns3:cad>0</ns3:cad>
          </ns3:TrackPointExtension>
        </extensions>
      </trkpt>
      <trkpt lat="47.54573084414005279541015625" lon="11.00367589853703975677490234375">
        <ele>1900</ele>
        <time>2026-09-01T07:38:16.000Z</time>
        <extensions>
          <ns3:TrackPointExtension>
            <ns3:hr>165</ns3:hr>
            <ns3:cad>0</ns3:cad>
          </ns3:TrackPointExtension>
        </extensions>
      </trkpt>
      <trkpt lat="47.54571483470499515533447265625" lon="11.003674976527690887451171875">
        <ele>1900.199951171875</ele>
        <time>2026-09-01T07:38:17.000Z</time>
        <extensions>
          <ns3:TrackPointExtension>
            <ns3:hr>164</ns3:hr>
            <ns3:cad>0</ns3:cad>
          </ns3:TrackPointExtension>
        </extensions>
      </trkpt>
      <trkpt lat="47.54570460878312587738037109375" lon="11.00367464125156402587890625">
        <ele>1900.199951171875</ele>
        <time>2026-09-01T07:38:18.000Z</time>
        <extensions>
          <ns3:TrackPointExtension>
            <ns3:hr>163</ns3:hr>
            <ns3:cad>47</ns3:cad>
          </ns3:TrackPointExtension>
        </extensions>
      </trkpt>
      <trkpt lat="47.5456911139190196990966796875" lon="11.0036731325089931488037109375">
        <ele>1900.4000244140625</ele>
        <time>2026-09-01T07:38:19.000Z</time>
        <extensions>
          <ns3:TrackPointExtension>
            <ns3:hr>162</ns3:hr>
            <ns3:cad>47</ns3:cad>
          </ns3:TrackPointExtension>
        </extensions>
      </trkpt>
      <trkpt lat="47.54568097181618213653564453125" lon="11.003672964870929718017578125">
        <ele>1900.4000244140625</ele>
        <time>2026-09-01T07:38:20.000Z</time>
        <extensions>
          <ns3:TrackPointExtension>
            <ns3:hr>162</ns3:hr>
            <ns3:cad>50</ns3:cad>
          </ns3:TrackPointExtension>
        </extensions>
      </trkpt>
      <trkpt lat="47.54567057825624942779541015625" lon="11.00367153994739055633544921875">
        <ele>1900.5999755859375</ele>
        <time>2026-09-01T07:38:21.000Z</time>
        <extensions>
          <ns3:TrackPointExtension>
            <ns3:hr>161</ns3:hr>
            <ns3:cad>50</ns3:cad>
          </ns3:TrackPointExtension>
        </extensions>
      </trkpt>
      <trkpt lat="47.54566186107695102691650390625" lon="11.00367019884288311004638671875">
        <ele>1900.800048828125</ele>
        <time>2026-09-01T07:38:22.000Z</time>
        <extensions>
          <ns3:TrackPointExtension>
            <ns3:hr>161</ns3:hr>
            <ns3:cad>50</ns3:cad>
          </ns3:TrackPointExtension>
        </extensions>
      </trkpt>
      <trkpt lat="47.545651383697986602783203125" lon="11.003670282661914825439453125">
        <ele>1901.199951171875</ele>
        <time>2026-09-01T07:38:23.000Z</time>
        <extensions>
          <ns3:TrackPointExtension>
            <ns3:hr>161</ns3:hr>
            <ns3:cad>52</ns3:cad>
          </ns3:TrackPointExtension>
        </extensions>
      </trkpt>
      <trkpt lat="47.54563855938613414764404296875" lon="11.0036674328148365020751953125">
        <ele>1901.5999755859375</ele>
        <time>2026-09-01T07:38:24.000Z</time>
        <extensions>
          <ns3:TrackPointExtension>
            <ns3:hr>161</ns3:hr>
            <ns3:cad>52</ns3:cad>
          </ns3:TrackPointExtension>
        </extensions>
      </trkpt>
      <trkpt lat="47.54563101567327976226806640625" lon="11.003665588796138763427734375">
        <ele>1902.4000244140625</ele>
        <time>2026-09-01T07:38:25.000Z</time>
        <extensions>
          <ns3:TrackPointExtension>
            <ns3:hr>161</ns3:hr>
            <ns3:cad>51</ns3:cad>
          </ns3:TrackPointExtension>
        </extensions>
      </trkpt>
      <trkpt lat="47.545628249645233154296875" lon="11.00366483442485332489013671875">
        <ele>1902.5999755859375</ele>
        <time>2026-09-01T07:38:26.000Z</time>
        <extensions>
          <ns3:TrackPointExtension>
            <ns3:hr>161</ns3:hr>
            <ns3:cad>48</ns3:cad>
          </ns3:TrackPointExtension>
        </extensions>
      </trkpt>
      <trkpt lat="47.54561559297144412994384765625" lon="11.00365988910198211669921875">
        <ele>1903.199951171875</ele>
        <time>2026-09-01T07:38:27.000Z</time>
        <extensions>
          <ns3:TrackPointExtension>
            <ns3:hr>161</ns3:hr>
            <ns3:cad>47</ns3:cad>
          </ns3:TrackPointExtension>
        </extensions>
      </trkpt>
      <trkpt lat="47.54560721106827259063720703125" lon="11.00364672951400279998779296875">
        <ele>1903.4000244140625</ele>
        <time>2026-09-01T07:38:28.000Z</time>
        <extensions>
          <ns3:TrackPointExtension>
            <ns3:hr>162</ns3:hr>
            <ns3:cad>47</ns3:cad>
          </ns3:TrackPointExtension>
        </extensions>
      </trkpt>
      <trkpt lat="47.54560151137411594390869140625" lon="11.0036337375640869140625">
        <ele>1903.4000244140625</ele>
        <time>2026-09-01T07:38:29.000Z</time>
        <extensions>
          <ns3:TrackPointExtension>
            <ns3:hr>162</ns3:hr>
            <ns3:cad>47</ns3:cad>
          </ns3:TrackPointExtension>
        </extensions>
      </trkpt>
      <trkpt lat="47.545597068965435028076171875" lon="11.00362091325223445892333984375">
        <ele>1903.199951171875</ele>
        <time>2026-09-01T07:38:30.000Z</time>
        <extensions>
          <ns3:TrackPointExtension>
            <ns3:hr>162</ns3:hr>
            <ns3:cad>49</ns3:cad>
          </ns3:TrackPointExtension>
        </extensions>
      </trkpt>
      <trkpt lat="47.54558868706226348876953125" lon="11.0036037303507328033447265625">
        <ele>1903.4000244140625</ele>
        <time>2026-09-01T07:38:31.000Z</time>
        <extensions>
          <ns3:TrackPointExtension>
            <ns3:hr>163</ns3:hr>
            <ns3:cad>49</ns3:cad>
          </ns3:TrackPointExtension>
        </extensions>
      </trkpt>
      <trkpt lat="47.545578293502330780029296875" lon="11.003595851361751556396484375">
        <ele>1903.5999755859375</ele>
        <time>2026-09-01T07:38:32.000Z</time>
        <extensions>
          <ns3:TrackPointExtension>
            <ns3:hr>163</ns3:hr>
            <ns3:cad>49</ns3:cad>
          </ns3:TrackPointExtension>
        </extensions>
      </trkpt>
      <trkpt lat="47.54556898958981037139892578125" lon="11.00358889438211917877197265625">
        <ele>1904.199951171875</ele>
        <time>2026-09-01T07:38:33.000Z</time>
        <extensions>
          <ns3:TrackPointExtension>
            <ns3:hr>164</ns3:hr>
            <ns3:cad>49</ns3:cad>
          </ns3:TrackPointExtension>
        </extensions>
      </trkpt>
      <trkpt lat="47.5455620326101779937744140625" lon="11.0035846196115016937255859375">
        <ele>1904.5999755859375</ele>
        <time>2026-09-01T07:38:34.000Z</time>
        <extensions>
          <ns3:TrackPointExtension>
            <ns3:hr>164</ns3:hr>
            <ns3:cad>45</ns3:cad>
          </ns3:TrackPointExtension>
        </extensions>
      </trkpt>
      <trkpt lat="47.54556111060082912445068359375" lon="11.00358168594539165496826171875">
        <ele>1905</ele>
        <time>2026-09-01T07:38:35.000Z</time>
        <extensions>
          <ns3:TrackPointExtension>
            <ns3:hr>164</ns3:hr>
            <ns3:cad>45</ns3:cad>
          </ns3:TrackPointExtension>
        </extensions>
      </trkpt>
      <trkpt lat="47.5455627031624317169189453125" lon="11.003582440316677093505859375">
        <ele>1905.4000244140625</ele>
        <time>2026-09-01T07:38:36.000Z</time>
        <extensions>
          <ns3:TrackPointExtension>
            <ns3:hr>165</ns3:hr>
            <ns3:cad>45</ns3:cad>
          </ns3:TrackPointExtension>
        </extensions>
      </trkpt>
      <trkpt lat="47.54555054940283298492431640625" lon="11.00357539951801300048828125">
        <ele>1905.5999755859375</ele>
        <time>2026-09-01T07:38:37.000Z</time>
        <extensions>
          <ns3:TrackPointExtension>
            <ns3:hr>165</ns3:hr>
            <ns3:cad>0</ns3:cad>
          </ns3:TrackPointExtension>
        </extensions>
      </trkpt>
      <trkpt lat="47.5455479510128498077392578125" lon="11.0035680234432220458984375">
        <ele>1905.5999755859375</ele>
        <time>2026-09-01T07:38:38.000Z</time>
        <extensions>
          <ns3:TrackPointExtension>
            <ns3:hr>165</ns3:hr>
            <ns3:cad>0</ns3:cad>
          </ns3:TrackPointExtension>
        </extensions>
      </trkpt>
      <trkpt lat="47.5455492921173572540283203125" lon="11.0035641677677631378173828125">
        <ele>1905.5999755859375</ele>
        <time>2026-09-01T07:38:39.000Z</time>
        <extensions>
          <ns3:TrackPointExtension>
            <ns3:hr>166</ns3:hr>
            <ns3:cad>0</ns3:cad>
          </ns3:TrackPointExtension>
        </extensions>
      </trkpt>
      <trkpt lat="47.54554602317512035369873046875" lon="11.00353793241083621978759765625">
        <ele>1905.5999755859375</ele>
        <time>2026-09-01T07:38:40.000Z</time>
        <extensions>
          <ns3:TrackPointExtension>
            <ns3:hr>166</ns3:hr>
            <ns3:cad>0</ns3:cad>
          </ns3:TrackPointExtension>
        </extensions>
      </trkpt>
      <trkpt lat="47.5455425865948200225830078125" lon="11.00351060740649700164794921875">
        <ele>1905.4000244140625</ele>
        <time>2026-09-01T07:38:41.000Z</time>
        <extensions>
          <ns3:TrackPointExtension>
            <ns3:hr>167</ns3:hr>
            <ns3:cad>0</ns3:cad>
          </ns3:TrackPointExtension>
        </extensions>
      </trkpt>
      <trkpt lat="47.545538060367107391357421875" lon="11.0034890659153461456298828125">
        <ele>1905</ele>
        <time>2026-09-01T07:38:42.000Z</time>
        <extensions>
          <ns3:TrackPointExtension>
            <ns3:hr>167</ns3:hr>
            <ns3:cad>0</ns3:cad>
          </ns3:TrackPointExtension>
        </extensions>
      </trkpt>
      <trkpt lat="47.545531690120697021484375" lon="11.0034666024148464202880859375">
        <ele>1904.5999755859375</ele>
        <time>2026-09-01T07:38:43.000Z</time>
        <extensions>
          <ns3:TrackPointExtension>
            <ns3:hr>167</ns3:hr>
            <ns3:cad>0</ns3:cad>
          </ns3:TrackPointExtension>
        </extensions>
      </trkpt>
      <trkpt lat="47.545521967113018035888671875" lon="11.00344598293304443359375">
        <ele>1904.199951171875</ele>
        <time>2026-09-01T07:38:44.000Z</time>
        <extensions>
          <ns3:TrackPointExtension>
            <ns3:hr>167</ns3:hr>
            <ns3:cad>75</ns3:cad>
          </ns3:TrackPointExtension>
        </extensions>
      </trkpt>
      <trkpt lat="47.54550956189632415771484375" lon="11.0034273751080036163330078125">
        <ele>1904.199951171875</ele>
        <time>2026-09-01T07:38:45.000Z</time>
        <extensions>
          <ns3:TrackPointExtension>
            <ns3:hr>167</ns3:hr>
            <ns3:cad>79</ns3:cad>
          </ns3:TrackPointExtension>
        </extensions>
      </trkpt>
      <trkpt lat="47.54549757577478885650634765625" lon="11.00341379642486572265625">
        <ele>1904.199951171875</ele>
        <time>2026-09-01T07:38:46.000Z</time>
        <extensions>
          <ns3:TrackPointExtension>
            <ns3:hr>166</ns3:hr>
            <ns3:cad>79</ns3:cad>
          </ns3:TrackPointExtension>
        </extensions>
      </trkpt>
      <trkpt lat="47.5454795546829700469970703125" lon="11.00339929573237895965576171875">
        <ele>1904.4000244140625</ele>
        <time>2026-09-01T07:38:47.000Z</time>
        <extensions>
          <ns3:TrackPointExtension>
            <ns3:hr>166</ns3:hr>
            <ns3:cad>79</ns3:cad>
          </ns3:TrackPointExtension>
        </extensions>
      </trkpt>
      <trkpt lat="47.54546337760984897613525390625" lon="11.003387980163097381591796875">
        <ele>1904.5999755859375</ele>
        <time>2026-09-01T07:38:48.000Z</time>
        <extensions>
          <ns3:TrackPointExtension>
            <ns3:hr>166</ns3:hr>
            <ns3:cad>79</ns3:cad>
          </ns3:TrackPointExtension>
        </extensions>
      </trkpt>
      <trkpt lat="47.54545214585959911346435546875" lon="11.00339275784790515899658203125">
        <ele>1904.800048828125</ele>
        <time>2026-09-01T07:38:49.000Z</time>
        <extensions>
          <ns3:TrackPointExtension>
            <ns3:hr>166</ns3:hr>
            <ns3:cad>72</ns3:cad>
          </ns3:TrackPointExtension>
        </extensions>
      </trkpt>
      <trkpt lat="47.5454443506896495819091796875" lon="11.00339409895241260528564453125">
        <ele>1904.800048828125</ele>
        <time>2026-09-01T07:38:50.000Z</time>
        <extensions>
          <ns3:TrackPointExtension>
            <ns3:hr>167</ns3:hr>
            <ns3:cad>70</ns3:cad>
          </ns3:TrackPointExtension>
        </extensions>
      </trkpt>
      <trkpt lat="47.54542415030300617218017578125" lon="11.003389991819858551025390625">
        <ele>1904.800048828125</ele>
        <time>2026-09-01T07:38:51.000Z</time>
        <extensions>
          <ns3:TrackPointExtension>
            <ns3:hr>167</ns3:hr>
            <ns3:cad>70</ns3:cad>
          </ns3:TrackPointExtension>
        </extensions>
      </trkpt>
      <trkpt lat="47.54541576839983463287353515625" lon="11.00339041091501712799072265625">
        <ele>1905</ele>
        <time>2026-09-01T07:38:52.000Z</time>
        <extensions>
          <ns3:TrackPointExtension>
            <ns3:hr>166</ns3:hr>
            <ns3:cad>70</ns3:cad>
          </ns3:TrackPointExtension>
        </extensions>
      </trkpt>
      <trkpt lat="47.5454044528305530548095703125" lon="11.00339057855308055877685546875">
        <ele>1905.4000244140625</ele>
        <time>2026-09-01T07:38:53.000Z</time>
        <extensions>
          <ns3:TrackPointExtension>
            <ns3:hr>166</ns3:hr>
            <ns3:cad>70</ns3:cad>
          </ns3:TrackPointExtension>
        </extensions>
      </trkpt>
      <trkpt lat="47.54539263434708118438720703125" lon="11.0033955238759517669677734375">
        <ele>1906</ele>
        <time>2026-09-01T07:38:54.000Z</time>
        <extensions>
          <ns3:TrackPointExtension>
            <ns3:hr>166</ns3:hr>
            <ns3:cad>70</ns3:cad>
          </ns3:TrackPointExtension>
        </extensions>
      </trkpt>
      <trkpt lat="47.5453843362629413604736328125" lon="11.0033998824656009674072265625">
        <ele>1906.5999755859375</ele>
        <time>2026-09-01T07:38:55.000Z</time>
        <extensions>
          <ns3:TrackPointExtension>
            <ns3:hr>166</ns3:hr>
            <ns3:cad>70</ns3:cad>
          </ns3:TrackPointExtension>
        </extensions>
      </trkpt>
      <trkpt lat="47.5453719310462474822998046875" lon="11.0034002177417278289794921875">
        <ele>1907</ele>
        <time>2026-09-01T07:38:56.000Z</time>
        <extensions>
          <ns3:TrackPointExtension>
            <ns3:hr>165</ns3:hr>
            <ns3:cad>70</ns3:cad>
          </ns3:TrackPointExtension>
        </extensions>
      </trkpt>
      <trkpt lat="47.54535525105893611907958984375" lon="11.00340164266526699066162109375">
        <ele>1907.4000244140625</ele>
        <time>2026-09-01T07:38:57.000Z</time>
        <extensions>
          <ns3:TrackPointExtension>
            <ns3:hr>164</ns3:hr>
            <ns3:cad>70</ns3:cad>
          </ns3:TrackPointExtension>
        </extensions>
      </trkpt>
      <trkpt lat="47.54534988664090633392333984375" lon="11.003398708999156951904296875">
        <ele>1907.5999755859375</ele>
        <time>2026-09-01T07:38:58.000Z</time>
        <extensions>
          <ns3:TrackPointExtension>
            <ns3:hr>163</ns3:hr>
            <ns3:cad>70</ns3:cad>
          </ns3:TrackPointExtension>
        </extensions>
      </trkpt>
      <trkpt lat="47.54534888081252574920654296875" lon="11.00340306758880615234375">
        <ele>1907.5999755859375</ele>
        <time>2026-09-01T07:38:59.000Z</time>
        <extensions>
          <ns3:TrackPointExtension>
            <ns3:hr>163</ns3:hr>
            <ns3:cad>70</ns3:cad>
          </ns3:TrackPointExtension>
        </extensions>
      </trkpt>
      <trkpt lat="47.54534100182354450225830078125" lon="11.00340600125491619110107421875">
        <ele>1907.800048828125</ele>
        <time>2026-09-01T07:39:00.000Z</time>
        <extensions>
          <ns3:TrackPointExtension>
            <ns3:hr>163</ns3:hr>
            <ns3:cad>0</ns3:cad>
          </ns3:TrackPointExtension>
        </extensions>
      </trkpt>
      <trkpt lat="47.54533513449132442474365234375" lon="11.00342008285224437713623046875">
        <ele>1907.800048828125</ele>
        <time>2026-09-01T07:39:01.000Z</time>
        <extensions>
          <ns3:TrackPointExtension>
            <ns3:hr>163</ns3:hr>
            <ns3:cad>0</ns3:cad>
          </ns3:TrackPointExtension>
        </extensions>
      </trkpt>
      <trkpt lat="47.54533027298748493194580078125" lon="11.0034290514886379241943359375">
        <ele>1907.800048828125</ele>
        <time>2026-09-01T07:39:02.000Z</time>
        <extensions>
          <ns3:TrackPointExtension>
            <ns3:hr>162</ns3:hr>
            <ns3:cad>0</ns3:cad>
          </ns3:TrackPointExtension>
        </extensions>
      </trkpt>
      <trkpt lat="47.54532591439783573150634765625" lon="11.00343684665858745574951171875">
        <ele>1908</ele>
        <time>2026-09-01T07:39:03.000Z</time>
        <extensions>
          <ns3:TrackPointExtension>
            <ns3:hr>163</ns3:hr>
            <ns3:cad>0</ns3:cad>
          </ns3:TrackPointExtension>
        </extensions>
      </trkpt>
      <trkpt lat="47.5453197956085205078125" lon="11.00344640202820301055908203125">
        <ele>1908.199951171875</ele>
        <time>2026-09-01T07:39:04.000Z</time>
        <extensions>
          <ns3:TrackPointExtension>
            <ns3:hr>163</ns3:hr>
            <ns3:cad>0</ns3:cad>
          </ns3:TrackPointExtension>
        </extensions>
      </trkpt>
      <trkpt lat="47.54531753249466419219970703125" lon="11.00345470011234283447265625">
        <ele>1908.5999755859375</ele>
        <time>2026-09-01T07:39:05.000Z</time>
        <extensions>
          <ns3:TrackPointExtension>
            <ns3:hr>163</ns3:hr>
            <ns3:cad>0</ns3:cad>
          </ns3:TrackPointExtension>
        </extensions>
      </trkpt>
      <trkpt lat="47.54530814476311206817626953125" lon="11.00347087718546390533447265625">
        <ele>1909</ele>
        <time>2026-09-01T07:39:06.000Z</time>
        <extensions>
          <ns3:TrackPointExtension>
            <ns3:hr>162</ns3:hr>
            <ns3:cad>0</ns3:cad>
          </ns3:TrackPointExtension>
        </extensions>
      </trkpt>
      <trkpt lat="47.54530177451670169830322265625" lon="11.00348060019314289093017578125">
        <ele>1909.4000244140625</ele>
        <time>2026-09-01T07:39:07.000Z</time>
        <extensions>
          <ns3:TrackPointExtension>
            <ns3:hr>163</ns3:hr>
            <ns3:cad>0</ns3:cad>
          </ns3:TrackPointExtension>
        </extensions>
      </trkpt>
      <trkpt lat="47.54530244506895542144775390625" lon="11.003481186926364898681640625">
        <ele>1909.5999755859375</ele>
        <time>2026-09-01T07:39:08.000Z</time>
        <extensions>
          <ns3:TrackPointExtension>
            <ns3:hr>164</ns3:hr>
            <ns3:cad>0</ns3:cad>
          </ns3:TrackPointExtension>
        </extensions>
      </trkpt>
      <trkpt lat="47.54530278034508228302001953125" lon="11.00348864682018756866455078125">
        <ele>1909.800048828125</ele>
        <time>2026-09-01T07:39:09.000Z</time>
        <extensions>
          <ns3:TrackPointExtension>
            <ns3:hr>165</ns3:hr>
            <ns3:cad>0</ns3:cad>
          </ns3:TrackPointExtension>
        </extensions>
      </trkpt>
      <trkpt lat="47.54529925994575023651123046875" lon="11.00350021384656429290771484375">
        <ele>1910</ele>
        <time>2026-09-01T07:39:10.000Z</time>
        <extensions>
          <ns3:TrackPointExtension>
            <ns3:hr>166</ns3:hr>
            <ns3:cad>0</ns3:cad>
          </ns3:TrackPointExtension>
        </extensions>
      </trkpt>
      <trkpt lat="47.54529255442321300506591796875" lon="11.00351010449230670928955078125">
        <ele>1910.199951171875</ele>
        <time>2026-09-01T07:39:11.000Z</time>
        <extensions>
          <ns3:TrackPointExtension>
            <ns3:hr>167</ns3:hr>
            <ns3:cad>0</ns3:cad>
          </ns3:TrackPointExtension>
        </extensions>
      </trkpt>
      <trkpt lat="47.54528903402388095855712890625" lon="11.003518737852573394775390625">
        <ele>1910.5999755859375</ele>
        <time>2026-09-01T07:39:12.000Z</time>
        <extensions>
          <ns3:TrackPointExtension>
            <ns3:hr>167</ns3:hr>
            <ns3:cad>0</ns3:cad>
          </ns3:TrackPointExtension>
        </extensions>
      </trkpt>
      <trkpt lat="47.5452857650816440582275390625" lon="11.0035277903079986572265625">
        <ele>1911</ele>
        <time>2026-09-01T07:39:13.000Z</time>
        <extensions>
          <ns3:TrackPointExtension>
            <ns3:hr>167</ns3:hr>
            <ns3:cad>0</ns3:cad>
          </ns3:TrackPointExtension>
        </extensions>
      </trkpt>
      <trkpt lat="47.54527947865426540374755859375" lon="11.00353457964956760406494140625">
        <ele>1911.5999755859375</ele>
        <time>2026-09-01T07:39:14.000Z</time>
        <extensions>
          <ns3:TrackPointExtension>
            <ns3:hr>167</ns3:hr>
            <ns3:cad>0</ns3:cad>
          </ns3:TrackPointExtension>
        </extensions>
      </trkpt>
      <trkpt lat="47.54527461715042591094970703125" lon="11.00354614667594432830810546875">
        <ele>1912.199951171875</ele>
        <time>2026-09-01T07:39:15.000Z</time>
        <extensions>
          <ns3:TrackPointExtension>
            <ns3:hr>166</ns3:hr>
            <ns3:cad>0</ns3:cad>
          </ns3:TrackPointExtension>
        </extensions>
      </trkpt>
      <trkpt lat="47.54526975564658641815185546875" lon="11.00355167873203754425048828125">
        <ele>1912.5999755859375</ele>
        <time>2026-09-01T07:39:16.000Z</time>
        <extensions>
          <ns3:TrackPointExtension>
            <ns3:hr>167</ns3:hr>
            <ns3:cad>0</ns3:cad>
          </ns3:TrackPointExtension>
        </extensions>
      </trkpt>
      <trkpt lat="47.54526154138147830963134765625" lon="11.00355394184589385986328125">
        <ele>1913</ele>
        <time>2026-09-01T07:39:17.000Z</time>
        <extensions>
          <ns3:TrackPointExtension>
            <ns3:hr>167</ns3:hr>
            <ns3:cad>0</ns3:cad>
          </ns3:TrackPointExtension>
        </extensions>
      </trkpt>
      <trkpt lat="47.54525835625827312469482421875" lon="11.00355452857911586761474609375">
        <ele>1913</ele>
        <time>2026-09-01T07:39:18.000Z</time>
        <extensions>
          <ns3:TrackPointExtension>
            <ns3:hr>167</ns3:hr>
            <ns3:cad>0</ns3:cad>
          </ns3:TrackPointExtension>
        </extensions>
      </trkpt>
      <trkpt lat="47.54525500349700450897216796875" lon="11.00354681722819805145263671875">
        <ele>1912.800048828125</ele>
        <time>2026-09-01T07:39:19.000Z</time>
        <extensions>
          <ns3:TrackPointExtension>
            <ns3:hr>167</ns3:hr>
            <ns3:cad>0</ns3:cad>
          </ns3:TrackPointExtension>
        </extensions>
      </trkpt>
      <trkpt lat="47.54524611867964267730712890625" lon="11.00353273563086986541748046875">
        <ele>1912.5999755859375</ele>
        <time>2026-09-01T07:39:20.000Z</time>
        <extensions>
          <ns3:TrackPointExtension>
            <ns3:hr>166</ns3:hr>
            <ns3:cad>0</ns3:cad>
          </ns3:TrackPointExtension>
        </extensions>
      </trkpt>
      <trkpt lat="47.5452317856252193450927734375" lon="11.00352183915674686431884765625">
        <ele>1912</ele>
        <time>2026-09-01T07:39:21.000Z</time>
        <extensions>
          <ns3:TrackPointExtension>
            <ns3:hr>165</ns3:hr>
            <ns3:cad>0</ns3:cad>
          </ns3:TrackPointExtension>
        </extensions>
      </trkpt>
      <trkpt lat="47.54521787166595458984375" lon="11.00352535955607891082763671875">
        <ele>1911.5999755859375</ele>
        <time>2026-09-01T07:39:22.000Z</time>
        <extensions>
          <ns3:TrackPointExtension>
            <ns3:hr>164</ns3:hr>
            <ns3:cad>0</ns3:cad>
          </ns3:TrackPointExtension>
        </extensions>
      </trkpt>
      <trkpt lat="47.5452026166021823883056640625" lon="11.00352100096642971038818359375">
        <ele>1911.199951171875</ele>
        <time>2026-09-01T07:39:23.000Z</time>
        <extensions>
          <ns3:TrackPointExtension>
            <ns3:hr>163</ns3:hr>
            <ns3:cad>0</ns3:cad>
          </ns3:TrackPointExtension>
        </extensions>
      </trkpt>
      <trkpt lat="47.54518610425293445587158203125" lon="11.00351949222385883331298828125">
        <ele>1910.800048828125</ele>
        <time>2026-09-01T07:39:24.000Z</time>
        <extensions>
          <ns3:TrackPointExtension>
            <ns3:hr>162</ns3:hr>
            <ns3:cad>0</ns3:cad>
          </ns3:TrackPointExtension>
        </extensions>
      </trkpt>
      <trkpt lat="47.54517369903624057769775390625" lon="11.00351731292903423309326171875">
        <ele>1910.5999755859375</ele>
        <time>2026-09-01T07:39:25.000Z</time>
        <extensions>
          <ns3:TrackPointExtension>
            <ns3:hr>162</ns3:hr>
            <ns3:cad>0</ns3:cad>
          </ns3:TrackPointExtension>
        </extensions>
      </trkpt>
      <trkpt lat="47.54517654888331890106201171875" lon="11.003510691225528717041015625">
        <ele>1910.4000244140625</ele>
        <time>2026-09-01T07:39:26.000Z</time>
        <extensions>
          <ns3:TrackPointExtension>
            <ns3:hr>162</ns3:hr>
            <ns3:cad>0</ns3:cad>
          </ns3:TrackPointExtension>
        </extensions>
      </trkpt>
      <trkpt lat="47.5451731123030185699462890625" lon="11.00350507535040378570556640625">
        <ele>1910.4000244140625</ele>
        <time>2026-09-01T07:39:27.000Z</time>
        <extensions>
          <ns3:TrackPointExtension>
            <ns3:hr>161</ns3:hr>
            <ns3:cad>0</ns3:cad>
          </ns3:TrackPointExtension>
        </extensions>
      </trkpt>
      <trkpt lat="47.545166574418544769287109375" lon="11.00350272841751575469970703125">
        <ele>1910.199951171875</ele>
        <time>2026-09-01T07:39:28.000Z</time>
        <extensions>
          <ns3:TrackPointExtension>
            <ns3:hr>161</ns3:hr>
            <ns3:cad>0</ns3:cad>
          </ns3:TrackPointExtension>
        </extensions>
      </trkpt>
      <trkpt lat="47.54516582004725933074951171875" lon="11.003497280180454254150390625">
        <ele>1909.800048828125</ele>
        <time>2026-09-01T07:39:29.000Z</time>
        <extensions>
          <ns3:TrackPointExtension>
            <ns3:hr>160</ns3:hr>
            <ns3:cad>0</ns3:cad>
          </ns3:TrackPointExtension>
        </extensions>
      </trkpt>
      <trkpt lat="47.5451523251831531524658203125" lon="11.0034870542585849761962890625">
        <ele>1909.5999755859375</ele>
        <time>2026-09-01T07:39:30.000Z</time>
        <extensions>
          <ns3:TrackPointExtension>
            <ns3:hr>160</ns3:hr>
            <ns3:cad>0</ns3:cad>
          </ns3:TrackPointExtension>
        </extensions>
      </trkpt>
      <trkpt lat="47.54513799212872982025146484375" lon="11.00348261184990406036376953125">
        <ele>1909.5999755859375</ele>
        <time>2026-09-01T07:39:31.000Z</time>
        <extensions>
          <ns3:TrackPointExtension>
            <ns3:hr>159</ns3:hr>
            <ns3:cad>0</ns3:cad>
          </ns3:TrackPointExtension>
        </extensions>
      </trkpt>
      <trkpt lat="47.54511930048465728759765625" lon="11.0034867189824581146240234375">
        <ele>1909.5999755859375</ele>
        <time>2026-09-01T07:39:32.000Z</time>
        <extensions>
          <ns3:TrackPointExtension>
            <ns3:hr>159</ns3:hr>
            <ns3:cad>0</ns3:cad>
          </ns3:TrackPointExtension>
        </extensions>
      </trkpt>
      <trkpt lat="47.5451127626001834869384765625" lon="11.0034902393817901611328125">
        <ele>1909.5999755859375</ele>
        <time>2026-09-01T07:39:33.000Z</time>
        <extensions>
          <ns3:TrackPointExtension>
            <ns3:hr>158</ns3:hr>
            <ns3:cad>69</ns3:cad>
          </ns3:TrackPointExtension>
        </extensions>
      </trkpt>
      <trkpt lat="47.54509893245995044708251953125" lon="11.003500632941722869873046875">
        <ele>1909.800048828125</ele>
        <time>2026-09-01T07:39:34.000Z</time>
        <extensions>
          <ns3:TrackPointExtension>
            <ns3:hr>157</ns3:hr>
            <ns3:cad>69</ns3:cad>
          </ns3:TrackPointExtension>
        </extensions>
      </trkpt>
      <trkpt lat="47.5450877845287322998046875" lon="11.0035075061023235321044921875">
        <ele>1910.199951171875</ele>
        <time>2026-09-01T07:39:35.000Z</time>
        <extensions>
          <ns3:TrackPointExtension>
            <ns3:hr>157</ns3:hr>
            <ns3:cad>0</ns3:cad>
          </ns3:TrackPointExtension>
        </extensions>
      </trkpt>
      <trkpt lat="47.54507982172071933746337890625" lon="11.00351345725357532501220703125">
        <ele>1910.5999755859375</ele>
        <time>2026-09-01T07:39:36.000Z</time>
        <extensions>
          <ns3:TrackPointExtension>
            <ns3:hr>156</ns3:hr>
            <ns3:cad>0</ns3:cad>
          </ns3:TrackPointExtension>
        </extensions>
      </trkpt>
      <trkpt lat="47.5450654886662960052490234375" lon="11.0035239346325397491455078125">
        <ele>1910.800048828125</ele>
        <time>2026-09-01T07:39:37.000Z</time>
        <extensions>
          <ns3:TrackPointExtension>
            <ns3:hr>156</ns3:hr>
            <ns3:cad>0</ns3:cad>
          </ns3:TrackPointExtension>
        </extensions>
      </trkpt>
      <trkpt lat="47.54506121389567852020263671875" lon="11.0035333223640918731689453125">
        <ele>1911.4000244140625</ele>
        <time>2026-09-01T07:39:38.000Z</time>
        <extensions>
          <ns3:TrackPointExtension>
            <ns3:hr>156</ns3:hr>
            <ns3:cad>0</ns3:cad>
          </ns3:TrackPointExtension>
        </extensions>
      </trkpt>
      <trkpt lat="47.54506205208599567413330078125" lon="11.0035437159240245819091796875">
        <ele>1912</ele>
        <time>2026-09-01T07:39:39.000Z</time>
        <extensions>
          <ns3:TrackPointExtension>
            <ns3:hr>155</ns3:hr>
            <ns3:cad>0</ns3:cad>
          </ns3:TrackPointExtension>
        </extensions>
      </trkpt>
      <trkpt lat="47.54506255500018596649169921875" lon="11.00355352275073528289794921875">
        <ele>1912.5999755859375</ele>
        <time>2026-09-01T07:39:40.000Z</time>
        <extensions>
          <ns3:TrackPointExtension>
            <ns3:hr>154</ns3:hr>
            <ns3:cad>0</ns3:cad>
          </ns3:TrackPointExtension>
        </extensions>
      </trkpt>
      <trkpt lat="47.54506171680986881256103515625" lon="11.0035653412342071533203125">
        <ele>1913.4000244140625</ele>
        <time>2026-09-01T07:39:41.000Z</time>
        <extensions>
          <ns3:TrackPointExtension>
            <ns3:hr>154</ns3:hr>
            <ns3:cad>0</ns3:cad>
          </ns3:TrackPointExtension>
        </extensions>
      </trkpt>
      <trkpt lat="47.5450648181140422821044921875" lon="11.003573723137378692626953125">
        <ele>1914</ele>
        <time>2026-09-01T07:39:42.000Z</time>
        <extensions>
          <ns3:TrackPointExtension>
            <ns3:hr>154</ns3:hr>
            <ns3:cad>0</ns3:cad>
          </ns3:TrackPointExtension>
        </extensions>
      </trkpt>
      <trkpt lat="47.54506624303758144378662109375" lon="11.0035779140889644622802734375">
        <ele>1914.199951171875</ele>
        <time>2026-09-01T07:39:43.000Z</time>
        <extensions>
          <ns3:TrackPointExtension>
            <ns3:hr>154</ns3:hr>
            <ns3:cad>0</ns3:cad>
          </ns3:TrackPointExtension>
        </extensions>
      </trkpt>
      <trkpt lat="47.54506071098148822784423828125" lon="11.00360046140849590301513671875">
        <ele>1914.5999755859375</ele>
        <time>2026-09-01T07:39:44.000Z</time>
        <extensions>
          <ns3:TrackPointExtension>
            <ns3:hr>154</ns3:hr>
            <ns3:cad>0</ns3:cad>
          </ns3:TrackPointExtension>
        </extensions>
      </trkpt>
      <trkpt lat="47.54506833851337432861328125" lon="11.00360213778913021087646484375">
        <ele>1914.800048828125</ele>
        <time>2026-09-01T07:39:45.000Z</time>
        <extensions>
          <ns3:TrackPointExtension>
            <ns3:hr>153</ns3:hr>
            <ns3:cad>0</ns3:cad>
          </ns3:TrackPointExtension>
        </extensions>
      </trkpt>
      <trkpt lat="47.545071355998516082763671875" lon="11.00360884331166744232177734375">
        <ele>1914.800048828125</ele>
        <time>2026-09-01T07:39:46.000Z</time>
        <extensions>
          <ns3:TrackPointExtension>
            <ns3:hr>152</ns3:hr>
            <ns3:cad>0</ns3:cad>
          </ns3:TrackPointExtension>
        </extensions>
      </trkpt>
      <trkpt lat="47.5450685061514377593994140625" lon="11.00361923687160015106201171875">
        <ele>1914.800048828125</ele>
        <time>2026-09-01T07:39:47.000Z</time>
        <extensions>
          <ns3:TrackPointExtension>
            <ns3:hr>151</ns3:hr>
            <ns3:cad>0</ns3:cad>
          </ns3:TrackPointExtension>
        </extensions>
      </trkpt>
      <trkpt lat="47.545061297714710235595703125" lon="11.00362191908061504364013671875">
        <ele>1915</ele>
        <time>2026-09-01T07:39:48.000Z</time>
        <extensions>
          <ns3:TrackPointExtension>
            <ns3:hr>150</ns3:hr>
            <ns3:cad>0</ns3:cad>
          </ns3:TrackPointExtension>
        </extensions>
      </trkpt>
      <trkpt lat="47.54505048505961894989013671875" lon="11.0036335699260234832763671875">
        <ele>1915.199951171875</ele>
        <time>2026-09-01T07:39:49.000Z</time>
        <extensions>
          <ns3:TrackPointExtension>
            <ns3:hr>150</ns3:hr>
            <ns3:cad>48</ns3:cad>
          </ns3:TrackPointExtension>
        </extensions>
      </trkpt>
      <trkpt lat="47.545042522251605987548828125" lon="11.00364220328629016876220703125">
        <ele>1915.5999755859375</ele>
        <time>2026-09-01T07:39:50.000Z</time>
        <extensions>
          <ns3:TrackPointExtension>
            <ns3:hr>150</ns3:hr>
            <ns3:cad>48</ns3:cad>
          </ns3:TrackPointExtension>
        </extensions>
      </trkpt>
      <trkpt lat="47.5450376607477664947509765625" lon="11.0036536864936351776123046875">
        <ele>1916.199951171875</ele>
        <time>2026-09-01T07:39:51.000Z</time>
        <extensions>
          <ns3:TrackPointExtension>
            <ns3:hr>149</ns3:hr>
            <ns3:cad>48</ns3:cad>
          </ns3:TrackPointExtension>
        </extensions>
      </trkpt>
      <trkpt lat="47.545033134520053863525390625" lon="11.00366315804421901702880859375">
        <ele>1916.5999755859375</ele>
        <time>2026-09-01T07:39:52.000Z</time>
        <extensions>
          <ns3:TrackPointExtension>
            <ns3:hr>149</ns3:hr>
            <ns3:cad>48</ns3:cad>
          </ns3:TrackPointExtension>
        </extensions>
      </trkpt>
      <trkpt lat="47.54502902738749980926513671875" lon="11.0036731325089931488037109375">
        <ele>1917</ele>
        <time>2026-09-01T07:39:53.000Z</time>
        <extensions>
          <ns3:TrackPointExtension>
            <ns3:hr>149</ns3:hr>
            <ns3:cad>48</ns3:cad>
          </ns3:TrackPointExtension>
        </extensions>
      </trkpt>
      <trkpt lat="47.54502500407397747039794921875" lon="11.0036806762218475341796875">
        <ele>1917.4000244140625</ele>
        <time>2026-09-01T07:39:54.000Z</time>
        <extensions>
          <ns3:TrackPointExtension>
            <ns3:hr>149</ns3:hr>
            <ns3:cad>0</ns3:cad>
          </ns3:TrackPointExtension>
        </extensions>
      </trkpt>
      <trkpt lat="47.54501678980886936187744140625" lon="11.0036878846585750579833984375">
        <ele>1917.800048828125</ele>
        <time>2026-09-01T07:39:55.000Z</time>
        <extensions>
          <ns3:TrackPointExtension>
            <ns3:hr>149</ns3:hr>
            <ns3:cad>0</ns3:cad>
          </ns3:TrackPointExtension>
        </extensions>
      </trkpt>
      <trkpt lat="47.54500891081988811492919921875" lon="11.003695763647556304931640625">
        <ele>1918.199951171875</ele>
        <time>2026-09-01T07:39:56.000Z</time>
        <extensions>
          <ns3:TrackPointExtension>
            <ns3:hr>149</ns3:hr>
            <ns3:cad>0</ns3:cad>
          </ns3:TrackPointExtension>
        </extensions>
      </trkpt>
      <trkpt lat="47.5450051389634609222412109375" lon="11.003698445856571197509765625">
        <ele>1918.5999755859375</ele>
        <time>2026-09-01T07:39:57.000Z</time>
        <extensions>
          <ns3:TrackPointExtension>
            <ns3:hr>150</ns3:hr>
            <ns3:cad>0</ns3:cad>
          </ns3:TrackPointExtension>
        </extensions>
      </trkpt>
      <trkpt lat="47.54499994218349456787109375" lon="11.0037023015320301055908203125">
        <ele>1919</ele>
        <time>2026-09-01T07:39:58.000Z</time>
        <extensions>
          <ns3:TrackPointExtension>
            <ns3:hr>150</ns3:hr>
            <ns3:cad>0</ns3:cad>
          </ns3:TrackPointExtension>
        </extensions>
      </trkpt>
      <trkpt lat="47.54499583505094051361083984375" lon="11.0037016309797763824462890625">
        <ele>1919.199951171875</ele>
        <time>2026-09-01T07:39:59.000Z</time>
        <extensions>
          <ns3:TrackPointExtension>
            <ns3:hr>151</ns3:hr>
            <ns3:cad>0</ns3:cad>
          </ns3:TrackPointExtension>
        </extensions>
      </trkpt>
      <trkpt lat="47.54498879425227642059326171875" lon="11.0037063248455524444580078125">
        <ele>1919.199951171875</ele>
        <time>2026-09-01T07:40:00.000Z</time>
        <extensions>
          <ns3:TrackPointExtension>
            <ns3:hr>152</ns3:hr>
            <ns3:cad>0</ns3:cad>
          </ns3:TrackPointExtension>
        </extensions>
      </trkpt>
      <trkpt lat="47.5449833460152149200439453125" lon="11.0037133656442165374755859375">
        <ele>1919.4000244140625</ele>
        <time>2026-09-01T07:40:01.000Z</time>
        <extensions>
          <ns3:TrackPointExtension>
            <ns3:hr>152</ns3:hr>
            <ns3:cad>0</ns3:cad>
          </ns3:TrackPointExtension>
        </extensions>
      </trkpt>
      <trkpt lat="47.54499399103224277496337890625" lon="11.00374144501984119415283203125">
        <ele>1919.5999755859375</ele>
        <time>2026-09-01T07:40:02.000Z</time>
        <extensions>
          <ns3:TrackPointExtension>
            <ns3:hr>153</ns3:hr>
            <ns3:cad>0</ns3:cad>
          </ns3:TrackPointExtension>
        </extensions>
      </trkpt>
      <trkpt lat="47.544996254146099090576171875" lon="11.00375468842685222625732421875">
        <ele>1920</ele>
        <time>2026-09-01T07:40:03.000Z</time>
        <extensions>
          <ns3:TrackPointExtension>
            <ns3:hr>154</ns3:hr>
            <ns3:cad>0</ns3:cad>
          </ns3:TrackPointExtension>
        </extensions>
      </trkpt>
      <trkpt lat="47.54499516449868679046630859375" lon="11.0037660039961338043212890625">
        <ele>1920.5999755859375</ele>
        <time>2026-09-01T07:40:04.000Z</time>
        <extensions>
          <ns3:TrackPointExtension>
            <ns3:hr>155</ns3:hr>
            <ns3:cad>0</ns3:cad>
          </ns3:TrackPointExtension>
        </extensions>
      </trkpt>
      <trkpt lat="47.54499902017414569854736328125" lon="11.00377111695706844329833984375">
        <ele>1921</ele>
        <time>2026-09-01T07:40:05.000Z</time>
        <extensions>
          <ns3:TrackPointExtension>
            <ns3:hr>156</ns3:hr>
            <ns3:cad>0</ns3:cad>
          </ns3:TrackPointExtension>
        </extensions>
      </trkpt>
      <trkpt lat="47.54500262439250946044921875" lon="11.00378000177443027496337890625">
        <ele>1921.4000244140625</ele>
        <time>2026-09-01T07:40:06.000Z</time>
        <extensions>
          <ns3:TrackPointExtension>
            <ns3:hr>156</ns3:hr>
            <ns3:cad>0</ns3:cad>
          </ns3:TrackPointExtension>
        </extensions>
      </trkpt>
      <trkpt lat="47.54500639624893665313720703125" lon="11.0037807561457157135009765625">
        <ele>1921.5999755859375</ele>
        <time>2026-09-01T07:40:07.000Z</time>
        <extensions>
          <ns3:TrackPointExtension>
            <ns3:hr>157</ns3:hr>
            <ns3:cad>0</ns3:cad>
          </ns3:TrackPointExtension>
        </extensions>
      </trkpt>
      <trkpt lat="47.54501494579017162322998046875" lon="11.00378989242017269134521484375">
        <ele>1921.800048828125</ele>
        <time>2026-09-01T07:40:08.000Z</time>
        <extensions>
          <ns3:TrackPointExtension>
            <ns3:hr>158</ns3:hr>
            <ns3:cad>0</ns3:cad>
          </ns3:TrackPointExtension>
        </extensions>
      </trkpt>
      <trkpt lat="47.54501963965594768524169921875" lon="11.003797017037868499755859375">
        <ele>1921.800048828125</ele>
        <time>2026-09-01T07:40:09.000Z</time>
        <extensions>
          <ns3:TrackPointExtension>
            <ns3:hr>158</ns3:hr>
            <ns3:cad>0</ns3:cad>
          </ns3:TrackPointExtension>
        </extensions>
      </trkpt>
      <trkpt lat="47.5450245849788188934326171875" lon="11.003811098635196685791015625">
        <ele>1921.800048828125</ele>
        <time>2026-09-01T07:40:10.000Z</time>
        <extensions>
          <ns3:TrackPointExtension>
            <ns3:hr>159</ns3:hr>
            <ns3:cad>0</ns3:cad>
          </ns3:TrackPointExtension>
        </extensions>
      </trkpt>
      <trkpt lat="47.5450255908071994781494140625" lon="11.0038216598331928253173828125">
        <ele>1921.800048828125</ele>
        <time>2026-09-01T07:40:11.000Z</time>
        <extensions>
          <ns3:TrackPointExtension>
            <ns3:hr>159</ns3:hr>
            <ns3:cad>0</ns3:cad>
          </ns3:TrackPointExtension>
        </extensions>
      </trkpt>
      <trkpt lat="47.545020394027233123779296875" lon="11.00382484495639801025390625">
        <ele>1921.800048828125</ele>
        <time>2026-09-01T07:40:12.000Z</time>
        <extensions>
          <ns3:TrackPointExtension>
            <ns3:hr>160</ns3:hr>
            <ns3:cad>0</ns3:cad>
          </ns3:TrackPointExtension>
        </extensions>
      </trkpt>
      <trkpt lat="47.54500932991504669189453125" lon="11.00383079610764980316162109375">
        <ele>1922</ele>
        <time>2026-09-01T07:40:13.000Z</time>
        <extensions>
          <ns3:TrackPointExtension>
            <ns3:hr>160</ns3:hr>
            <ns3:cad>0</ns3:cad>
          </ns3:TrackPointExtension>
        </extensions>
      </trkpt>
      <trkpt lat="47.54500170238316059112548828125" lon="11.0038411058485507965087890625">
        <ele>1922</ele>
        <time>2026-09-01T07:40:14.000Z</time>
        <extensions>
          <ns3:TrackPointExtension>
            <ns3:hr>161</ns3:hr>
            <ns3:cad>0</ns3:cad>
          </ns3:TrackPointExtension>
        </extensions>
      </trkpt>
      <trkpt lat="47.54498342983424663543701171875" lon="11.00385242141783237457275390625">
        <ele>1922.199951171875</ele>
        <time>2026-09-01T07:40:15.000Z</time>
        <extensions>
          <ns3:TrackPointExtension>
            <ns3:hr>161</ns3:hr>
            <ns3:cad>0</ns3:cad>
          </ns3:TrackPointExtension>
        </extensions>
      </trkpt>
      <trkpt lat="47.54497353918850421905517578125" lon="11.003853343427181243896484375">
        <ele>1922.199951171875</ele>
        <time>2026-09-01T07:40:16.000Z</time>
        <extensions>
          <ns3:TrackPointExtension>
            <ns3:hr>162</ns3:hr>
            <ns3:cad>0</ns3:cad>
          </ns3:TrackPointExtension>
        </extensions>
      </trkpt>
      <trkpt lat="47.5449511595070362091064453125" lon="11.00384688936173915863037109375">
        <ele>1922</ele>
        <time>2026-09-01T07:40:17.000Z</time>
        <extensions>
          <ns3:TrackPointExtension>
            <ns3:hr>162</ns3:hr>
            <ns3:cad>41</ns3:cad>
          </ns3:TrackPointExtension>
        </extensions>
      </trkpt>
      <trkpt lat="47.54493146203458309173583984375" lon="11.00384135730564594268798828125">
        <ele>1921.800048828125</ele>
        <time>2026-09-01T07:40:18.000Z</time>
        <extensions>
          <ns3:TrackPointExtension>
            <ns3:hr>163</ns3:hr>
            <ns3:cad>41</ns3:cad>
          </ns3:TrackPointExtension>
        </extensions>
      </trkpt>
      <trkpt lat="47.54491436295211315155029296875" lon="11.0038508288562297821044921875">
        <ele>1921.5999755859375</ele>
        <time>2026-09-01T07:40:19.000Z</time>
        <extensions>
          <ns3:TrackPointExtension>
            <ns3:hr>163</ns3:hr>
            <ns3:cad>77</ns3:cad>
          </ns3:TrackPointExtension>
        </extensions>
      </trkpt>
      <trkpt lat="47.54489474929869174957275390625" lon="11.00385778583586215972900390625">
        <ele>1921.199951171875</ele>
        <time>2026-09-01T07:40:20.000Z</time>
        <extensions>
          <ns3:TrackPointExtension>
            <ns3:hr>163</ns3:hr>
            <ns3:cad>77</ns3:cad>
          </ns3:TrackPointExtension>
        </extensions>
      </trkpt>
      <trkpt lat="47.54487211816012859344482421875" lon="11.00385996513068675994873046875">
        <ele>1921</ele>
        <time>2026-09-01T07:40:21.000Z</time>
        <extensions>
          <ns3:TrackPointExtension>
            <ns3:hr>163</ns3:hr>
            <ns3:cad>77</ns3:cad>
          </ns3:TrackPointExtension>
        </extensions>
      </trkpt>
      <trkpt lat="47.5448468886315822601318359375" lon="11.0038555227220058441162109375">
        <ele>1920.5999755859375</ele>
        <time>2026-09-01T07:40:22.000Z</time>
        <extensions>
          <ns3:TrackPointExtension>
            <ns3:hr>164</ns3:hr>
            <ns3:cad>77</ns3:cad>
          </ns3:TrackPointExtension>
        </extensions>
      </trkpt>
      <trkpt lat="47.544824592769145965576171875" lon="11.003849320113658905029296875">
        <ele>1920.199951171875</ele>
        <time>2026-09-01T07:40:23.000Z</time>
        <extensions>
          <ns3:TrackPointExtension>
            <ns3:hr>164</ns3:hr>
            <ns3:cad>77</ns3:cad>
          </ns3:TrackPointExtension>
        </extensions>
      </trkpt>
      <trkpt lat="47.5447999499738216400146484375" lon="11.00382509641349315643310546875">
        <ele>1920</ele>
        <time>2026-09-01T07:40:24.000Z</time>
        <extensions>
          <ns3:TrackPointExtension>
            <ns3:hr>165</ns3:hr>
            <ns3:cad>79</ns3:cad>
          </ns3:TrackPointExtension>
        </extensions>
      </trkpt>
      <trkpt lat="47.54478276707231998443603515625" lon="11.00381252355873584747314453125">
        <ele>1919.800048828125</ele>
        <time>2026-09-01T07:40:25.000Z</time>
        <extensions>
          <ns3:TrackPointExtension>
            <ns3:hr>165</ns3:hr>
            <ns3:cad>80</ns3:cad>
          </ns3:TrackPointExtension>
        </extensions>
      </trkpt>
      <trkpt lat="47.54476650618016719818115234375" lon="11.00378352217376232147216796875">
        <ele>1919.800048828125</ele>
        <time>2026-09-01T07:40:26.000Z</time>
        <extensions>
          <ns3:TrackPointExtension>
            <ns3:hr>165</ns3:hr>
            <ns3:cad>80</ns3:cad>
          </ns3:TrackPointExtension>
        </extensions>
      </trkpt>
      <trkpt lat="47.5447483174502849578857421875" lon="11.00375904701650142669677734375">
        <ele>1919.5999755859375</ele>
        <time>2026-09-01T07:40:27.000Z</time>
        <extensions>
          <ns3:TrackPointExtension>
            <ns3:hr>166</ns3:hr>
            <ns3:cad>80</ns3:cad>
          </ns3:TrackPointExtension>
        </extensions>
      </trkpt>
      <trkpt lat="47.54473046399652957916259765625" lon="11.00374815054237842559814453125">
        <ele>1919.5999755859375</ele>
        <time>2026-09-01T07:40:28.000Z</time>
        <extensions>
          <ns3:TrackPointExtension>
            <ns3:hr>166</ns3:hr>
            <ns3:cad>81</ns3:cad>
          </ns3:TrackPointExtension>
        </extensions>
      </trkpt>
      <trkpt lat="47.544704563915729522705078125" lon="11.0037204064428806304931640625">
        <ele>1919.5999755859375</ele>
        <time>2026-09-01T07:40:29.000Z</time>
        <extensions>
          <ns3:TrackPointExtension>
            <ns3:hr>166</ns3:hr>
            <ns3:cad>81</ns3:cad>
          </ns3:TrackPointExtension>
        </extensions>
      </trkpt>
      <trkpt lat="47.54468184895813465118408203125" lon="11.0037016309797763824462890625">
        <ele>1919.4000244140625</ele>
        <time>2026-09-01T07:40:30.000Z</time>
        <extensions>
          <ns3:TrackPointExtension>
            <ns3:hr>165</ns3:hr>
            <ns3:cad>82</ns3:cad>
          </ns3:TrackPointExtension>
        </extensions>
      </trkpt>
      <trkpt lat="47.54465787671506404876708984375" lon="11.00369500927627086639404296875">
        <ele>1919</ele>
        <time>2026-09-01T07:40:31.000Z</time>
        <extensions>
          <ns3:TrackPointExtension>
            <ns3:hr>165</ns3:hr>
            <ns3:cad>84</ns3:cad>
          </ns3:TrackPointExtension>
        </extensions>
      </trkpt>
      <trkpt lat="47.544626779854297637939453125" lon="11.0036872141063213348388671875">
        <ele>1918.5999755859375</ele>
        <time>2026-09-01T07:40:32.000Z</time>
        <extensions>
          <ns3:TrackPointExtension>
            <ns3:hr>165</ns3:hr>
            <ns3:cad>84</ns3:cad>
          </ns3:TrackPointExtension>
        </extensions>
      </trkpt>
      <trkpt lat="47.54460255615413188934326171875" lon="11.00367221049964427947998046875">
        <ele>1918.4000244140625</ele>
        <time>2026-09-01T07:40:33.000Z</time>
        <extensions>
          <ns3:TrackPointExtension>
            <ns3:hr>165</ns3:hr>
            <ns3:cad>84</ns3:cad>
          </ns3:TrackPointExtension>
        </extensions>
      </trkpt>
      <trkpt lat="47.54459367133677005767822265625" lon="11.00365611724555492401123046875">
        <ele>1918.4000244140625</ele>
        <time>2026-09-01T07:40:34.000Z</time>
        <extensions>
          <ns3:TrackPointExtension>
            <ns3:hr>165</ns3:hr>
            <ns3:cad>83</ns3:cad>
          </ns3:TrackPointExtension>
        </extensions>
      </trkpt>
      <trkpt lat="47.544589899480342864990234375" lon="11.0036404430866241455078125">
        <ele>1918.4000244140625</ele>
        <time>2026-09-01T07:40:35.000Z</time>
        <extensions>
          <ns3:TrackPointExtension>
            <ns3:hr>165</ns3:hr>
            <ns3:cad>82</ns3:cad>
          </ns3:TrackPointExtension>
        </extensions>
      </trkpt>
      <trkpt lat="47.54459015093743801116943359375" lon="11.00364379584789276123046875">
        <ele>1918.5999755859375</ele>
        <time>2026-09-01T07:40:36.000Z</time>
        <extensions>
          <ns3:TrackPointExtension>
            <ns3:hr>165</ns3:hr>
            <ns3:cad>82</ns3:cad>
          </ns3:TrackPointExtension>
        </extensions>
      </trkpt>
      <trkpt lat="47.5445830263197422027587890625" lon="11.00363097153604030609130859375">
        <ele>1918.800048828125</ele>
        <time>2026-09-01T07:40:37.000Z</time>
        <extensions>
          <ns3:TrackPointExtension>
            <ns3:hr>165</ns3:hr>
            <ns3:cad>82</ns3:cad>
          </ns3:TrackPointExtension>
        </extensions>
      </trkpt>
      <trkpt lat="47.54457305185496807098388671875" lon="11.0036295466125011444091796875">
        <ele>1919</ele>
        <time>2026-09-01T07:40:38.000Z</time>
        <extensions>
          <ns3:TrackPointExtension>
            <ns3:hr>164</ns3:hr>
            <ns3:cad>0</ns3:cad>
          </ns3:TrackPointExtension>
        </extensions>
      </trkpt>
      <trkpt lat="47.54454656504094600677490234375" lon="11.003620661795139312744140625">
        <ele>1919.199951171875</ele>
        <time>2026-09-01T07:40:39.000Z</time>
        <extensions>
          <ns3:TrackPointExtension>
            <ns3:hr>164</ns3:hr>
            <ns3:cad>0</ns3:cad>
          </ns3:TrackPointExtension>
        </extensions>
      </trkpt>
      <trkpt lat="47.5445325672626495361328125" lon="11.00361957214772701263427734375">
        <ele>1919.4000244140625</ele>
        <time>2026-09-01T07:40:40.000Z</time>
        <extensions>
          <ns3:TrackPointExtension>
            <ns3:hr>163</ns3:hr>
            <ns3:cad>0</ns3:cad>
          </ns3:TrackPointExtension>
        </extensions>
      </trkpt>
      <trkpt lat="47.5445149652659893035888671875" lon="11.0036147944629192352294921875">
        <ele>1919.800048828125</ele>
        <time>2026-09-01T07:40:41.000Z</time>
        <extensions>
          <ns3:TrackPointExtension>
            <ns3:hr>163</ns3:hr>
            <ns3:cad>0</ns3:cad>
          </ns3:TrackPointExtension>
        </extensions>
      </trkpt>
      <trkpt lat="47.54450163803994655609130859375" lon="11.003601551055908203125">
        <ele>1920</ele>
        <time>2026-09-01T07:40:42.000Z</time>
        <extensions>
          <ns3:TrackPointExtension>
            <ns3:hr>162</ns3:hr>
            <ns3:cad>0</ns3:cad>
          </ns3:TrackPointExtension>
        </extensions>
      </trkpt>
      <trkpt lat="47.54448554478585720062255859375" lon="11.00359442643821239471435546875">
        <ele>1920.199951171875</ele>
        <time>2026-09-01T07:40:43.000Z</time>
        <extensions>
          <ns3:TrackPointExtension>
            <ns3:hr>162</ns3:hr>
            <ns3:cad>0</ns3:cad>
          </ns3:TrackPointExtension>
        </extensions>
      </trkpt>
      <trkpt lat="47.54446777515113353729248046875" lon="11.00358705036342144012451171875">
        <ele>1920.4000244140625</ele>
        <time>2026-09-01T07:40:44.000Z</time>
        <extensions>
          <ns3:TrackPointExtension>
            <ns3:hr>161</ns3:hr>
            <ns3:cad>71</ns3:cad>
          </ns3:TrackPointExtension>
        </extensions>
      </trkpt>
      <trkpt lat="47.54445235244929790496826171875" lon="11.00358218885958194732666015625">
        <ele>1920.5999755859375</ele>
        <time>2026-09-01T07:40:45.000Z</time>
        <extensions>
          <ns3:TrackPointExtension>
            <ns3:hr>161</ns3:hr>
            <ns3:cad>75</ns3:cad>
          </ns3:TrackPointExtension>
        </extensions>
      </trkpt>
      <trkpt lat="47.54444028250873088836669921875" lon="11.00357850082218647003173828125">
        <ele>1920.5999755859375</ele>
        <time>2026-09-01T07:40:46.000Z</time>
        <extensions>
          <ns3:TrackPointExtension>
            <ns3:hr>160</ns3:hr>
            <ns3:cad>75</ns3:cad>
          </ns3:TrackPointExtension>
        </extensions>
      </trkpt>
      <trkpt lat="47.544432990252971649169921875" lon="11.003577411174774169921875">
        <ele>1920.5999755859375</ele>
        <time>2026-09-01T07:40:47.000Z</time>
        <extensions>
          <ns3:TrackPointExtension>
            <ns3:hr>158</ns3:hr>
            <ns3:cad>75</ns3:cad>
          </ns3:TrackPointExtension>
        </extensions>
      </trkpt>
      <trkpt lat="47.54442586563527584075927734375" lon="11.00357565097510814666748046875">
        <ele>1920.4000244140625</ele>
        <time>2026-09-01T07:40:48.000Z</time>
        <extensions>
          <ns3:TrackPointExtension>
            <ns3:hr>157</ns3:hr>
            <ns3:cad>0</ns3:cad>
          </ns3:TrackPointExtension>
        </extensions>
      </trkpt>
      <trkpt lat="47.5444237701594829559326171875" lon="11.003572382032871246337890625">
        <ele>1920</ele>
        <time>2026-09-01T07:40:49.000Z</time>
        <extensions>
          <ns3:TrackPointExtension>
            <ns3:hr>156</ns3:hr>
            <ns3:cad>0</ns3:cad>
          </ns3:TrackPointExtension>
        </extensions>
      </trkpt>
      <trkpt lat="47.5444184057414531707763671875" lon="11.00356810726225376129150390625">
        <ele>1919.5999755859375</ele>
        <time>2026-09-01T07:40:50.000Z</time>
        <extensions>
          <ns3:TrackPointExtension>
            <ns3:hr>157</ns3:hr>
            <ns3:cad>0</ns3:cad>
          </ns3:TrackPointExtension>
        </extensions>
      </trkpt>
      <trkpt lat="47.5444029830396175384521484375" lon="11.00356475450098514556884765625">
        <ele>1919.199951171875</ele>
        <time>2026-09-01T07:40:51.000Z</time>
        <extensions>
          <ns3:TrackPointExtension>
            <ns3:hr>156</ns3:hr>
            <ns3:cad>0</ns3:cad>
          </ns3:TrackPointExtension>
        </extensions>
      </trkpt>
      <trkpt lat="47.544389069080352783203125" lon="11.003565005958080291748046875">
        <ele>1918.5999755859375</ele>
        <time>2026-09-01T07:40:52.000Z</time>
        <extensions>
          <ns3:TrackPointExtension>
            <ns3:hr>155</ns3:hr>
            <ns3:cad>0</ns3:cad>
          </ns3:TrackPointExtension>
        </extensions>
      </trkpt>
      <trkpt lat="47.54437624476850032806396484375" lon="11.00356467068195343017578125">
        <ele>1918.199951171875</ele>
        <time>2026-09-01T07:40:53.000Z</time>
        <extensions>
          <ns3:TrackPointExtension>
            <ns3:hr>154</ns3:hr>
            <ns3:cad>0</ns3:cad>
          </ns3:TrackPointExtension>
        </extensions>
      </trkpt>
      <trkpt lat="47.5443694554269313812255859375" lon="11.00356861017644405364990234375">
        <ele>1918</ele>
        <time>2026-09-01T07:40:54.000Z</time>
        <extensions>
          <ns3:TrackPointExtension>
            <ns3:hr>154</ns3:hr>
            <ns3:cad>0</ns3:cad>
          </ns3:TrackPointExtension>
        </extensions>
      </trkpt>
      <trkpt lat="47.544364593923091888427734375" lon="11.00357447750866413116455078125">
        <ele>1917.800048828125</ele>
        <time>2026-09-01T07:40:55.000Z</time>
        <extensions>
          <ns3:TrackPointExtension>
            <ns3:hr>153</ns3:hr>
            <ns3:cad>0</ns3:cad>
          </ns3:TrackPointExtension>
        </extensions>
      </trkpt>
      <trkpt lat="47.54435218870639801025390625" lon="11.0035762377083301544189453125">
        <ele>1918.199951171875</ele>
        <time>2026-09-01T07:40:56.000Z</time>
        <extensions>
          <ns3:TrackPointExtension>
            <ns3:hr>153</ns3:hr>
            <ns3:cad>0</ns3:cad>
          </ns3:TrackPointExtension>
        </extensions>
      </trkpt>
      <trkpt lat="47.54434489645063877105712890625" lon="11.00358612835407257080078125">
        <ele>1918.4000244140625</ele>
        <time>2026-09-01T07:40:57.000Z</time>
        <extensions>
          <ns3:TrackPointExtension>
            <ns3:hr>152</ns3:hr>
            <ns3:cad>0</ns3:cad>
          </ns3:TrackPointExtension>
        </extensions>
      </trkpt>
      <trkpt lat="47.5443365983664989471435546875" lon="11.0035921633243560791015625">
        <ele>1919.5999755859375</ele>
        <time>2026-09-01T07:40:58.000Z</time>
        <extensions>
          <ns3:TrackPointExtension>
            <ns3:hr>152</ns3:hr>
            <ns3:cad>0</ns3:cad>
          </ns3:TrackPointExtension>
        </extensions>
      </trkpt>
      <trkpt lat="47.54433165304362773895263671875" lon="11.00358478724956512451171875">
        <ele>1920.5999755859375</ele>
        <time>2026-09-01T07:40:59.000Z</time>
        <extensions>
          <ns3:TrackPointExtension>
            <ns3:hr>151</ns3:hr>
            <ns3:cad>0</ns3:cad>
          </ns3:TrackPointExtension>
        </extensions>
      </trkpt>
      <trkpt lat="47.544323690235614776611328125" lon="11.00358881056308746337890625">
        <ele>1921.4000244140625</ele>
        <time>2026-09-01T07:41:00.000Z</time>
        <extensions>
          <ns3:TrackPointExtension>
            <ns3:hr>151</ns3:hr>
            <ns3:cad>0</ns3:cad>
          </ns3:TrackPointExtension>
        </extensions>
      </trkpt>
      <trkpt lat="47.54430315457284450531005859375" lon="11.00358000956475734710693359375">
        <ele>1921.5999755859375</ele>
        <time>2026-09-01T07:41:01.000Z</time>
        <extensions>
          <ns3:TrackPointExtension>
            <ns3:hr>150</ns3:hr>
            <ns3:cad>0</ns3:cad>
          </ns3:TrackPointExtension>
        </extensions>
      </trkpt>
      <trkpt lat="47.544280774891376495361328125" lon="11.0035591386258602142333984375">
        <ele>1921.5999755859375</ele>
        <time>2026-09-01T07:41:02.000Z</time>
        <extensions>
          <ns3:TrackPointExtension>
            <ns3:hr>150</ns3:hr>
            <ns3:cad>0</ns3:cad>
          </ns3:TrackPointExtension>
        </extensions>
      </trkpt>
      <trkpt lat="47.5442564673721790313720703125" lon="11.0035390220582485198974609375">
        <ele>1921.800048828125</ele>
        <time>2026-09-01T07:41:03.000Z</time>
        <extensions>
          <ns3:TrackPointExtension>
            <ns3:hr>149</ns3:hr>
            <ns3:cad>0</ns3:cad>
          </ns3:TrackPointExtension>
        </extensions>
      </trkpt>
      <trkpt lat="47.5442427210509777069091796875" lon="11.00352737121284008026123046875">
        <ele>1921.5999755859375</ele>
        <time>2026-09-01T07:41:04.000Z</time>
        <extensions>
          <ns3:TrackPointExtension>
            <ns3:hr>149</ns3:hr>
            <ns3:cad>83</ns3:cad>
          </ns3:TrackPointExtension>
        </extensions>
      </trkpt>
      <trkpt lat="47.54422302357852458953857421875" lon="11.0035101883113384246826171875">
        <ele>1921.5999755859375</ele>
        <time>2026-09-01T07:41:05.000Z</time>
        <extensions>
          <ns3:TrackPointExtension>
            <ns3:hr>149</ns3:hr>
            <ns3:cad>83</ns3:cad>
          </ns3:TrackPointExtension>
        </extensions>
      </trkpt>
      <trkpt lat="47.5442053377628326416015625" lon="11.0034951008856296539306640625">
        <ele>1921.4000244140625</ele>
        <time>2026-09-01T07:41:06.000Z</time>
        <extensions>
          <ns3:TrackPointExtension>
            <ns3:hr>150</ns3:hr>
            <ns3:cad>83</ns3:cad>
          </ns3:TrackPointExtension>
        </extensions>
      </trkpt>
      <trkpt lat="47.54419201053678989410400390625" lon="11.00348512642085552215576171875">
        <ele>1921</ele>
        <time>2026-09-01T07:41:07.000Z</time>
        <extensions>
          <ns3:TrackPointExtension>
            <ns3:hr>151</ns3:hr>
            <ns3:cad>76</ns3:cad>
          </ns3:TrackPointExtension>
        </extensions>
      </trkpt>
      <trkpt lat="47.544181533157825469970703125" lon="11.0034786723554134368896484375">
        <ele>1920.5999755859375</ele>
        <time>2026-09-01T07:41:08.000Z</time>
        <extensions>
          <ns3:TrackPointExtension>
            <ns3:hr>152</ns3:hr>
            <ns3:cad>76</ns3:cad>
          </ns3:TrackPointExtension>
        </extensions>
      </trkpt>
      <trkpt lat="47.5441760011017322540283203125" lon="11.00347825326025485992431640625">
        <ele>1920</ele>
        <time>2026-09-01T07:41:09.000Z</time>
        <extensions>
          <ns3:TrackPointExtension>
            <ns3:hr>154</ns3:hr>
            <ns3:cad>76</ns3:cad>
          </ns3:TrackPointExtension>
        </extensions>
      </trkpt>
      <trkpt lat="47.5441656075417995452880859375" lon="11.0034620761871337890625">
        <ele>1919.4000244140625</ele>
        <time>2026-09-01T07:41:10.000Z</time>
        <extensions>
          <ns3:TrackPointExtension>
            <ns3:hr>154</ns3:hr>
            <ns3:cad>76</ns3:cad>
          </ns3:TrackPointExtension>
        </extensions>
      </trkpt>
      <trkpt lat="47.544158734381198883056640625" lon="11.00344506092369556427001953125">
        <ele>1918.800048828125</ele>
        <time>2026-09-01T07:41:11.000Z</time>
        <extensions>
          <ns3:TrackPointExtension>
            <ns3:hr>153</ns3:hr>
            <ns3:cad>76</ns3:cad>
          </ns3:TrackPointExtension>
        </extensions>
      </trkpt>
      <trkpt lat="47.5441543757915496826171875" lon="11.00342745892703533172607421875">
        <ele>1918.199951171875</ele>
        <time>2026-09-01T07:41:12.000Z</time>
        <extensions>
          <ns3:TrackPointExtension>
            <ns3:hr>153</ns3:hr>
            <ns3:cad>69</ns3:cad>
          </ns3:TrackPointExtension>
        </extensions>
      </trkpt>
      <trkpt lat="47.5441491790115833282470703125" lon="11.003412120044231414794921875">
        <ele>1917.5999755859375</ele>
        <time>2026-09-01T07:41:13.000Z</time>
        <extensions>
          <ns3:TrackPointExtension>
            <ns3:hr>151</ns3:hr>
            <ns3:cad>69</ns3:cad>
          </ns3:TrackPointExtension>
        </extensions>
      </trkpt>
      <trkpt lat="47.54413350485265254974365234375" lon="11.0034018941223621368408203125">
        <ele>1917</ele>
        <time>2026-09-01T07:41:14.000Z</time>
        <extensions>
          <ns3:TrackPointExtension>
            <ns3:hr>151</ns3:hr>
            <ns3:cad>69</ns3:cad>
          </ns3:TrackPointExtension>
        </extensions>
      </trkpt>
      <trkpt lat="47.54411883652210235595703125" lon="11.00339409895241260528564453125">
        <ele>1916.4000244140625</ele>
        <time>2026-09-01T07:41:15.000Z</time>
        <extensions>
          <ns3:TrackPointExtension>
            <ns3:hr>150</ns3:hr>
            <ns3:cad>0</ns3:cad>
          </ns3:TrackPointExtension>
        </extensions>
      </trkpt>
      <trkpt lat="47.54411137662827968597412109375" lon="11.00338906981050968170166015625">
        <ele>1915.800048828125</ele>
        <time>2026-09-01T07:41:16.000Z</time>
        <extensions>
          <ns3:TrackPointExtension>
            <ns3:hr>149</ns3:hr>
            <ns3:cad>0</ns3:cad>
          </ns3:TrackPointExtension>
        </extensions>
      </trkpt>
      <trkpt lat="47.54408623091876506805419921875" lon="11.00337465293705463409423828125">
        <ele>1915.199951171875</ele>
        <time>2026-09-01T07:41:17.000Z</time>
        <extensions>
          <ns3:TrackPointExtension>
            <ns3:hr>148</ns3:hr>
            <ns3:cad>0</ns3:cad>
          </ns3:TrackPointExtension>
        </extensions>
      </trkpt>
      <trkpt lat="47.54407064057886600494384765625" lon="11.00336551666259765625">
        <ele>1914.5999755859375</ele>
        <time>2026-09-01T07:41:18.000Z</time>
        <extensions>
          <ns3:TrackPointExtension>
            <ns3:hr>147</ns3:hr>
            <ns3:cad>0</ns3:cad>
          </ns3:TrackPointExtension>
        </extensions>
      </trkpt>
      <trkpt lat="47.54405773244798183441162109375" lon="11.0033643431961536407470703125">
        <ele>1914.4000244140625</ele>
        <time>2026-09-01T07:41:19.000Z</time>
        <extensions>
          <ns3:TrackPointExtension>
            <ns3:hr>147</ns3:hr>
            <ns3:cad>0</ns3:cad>
          </ns3:TrackPointExtension>
        </extensions>
      </trkpt>
      <trkpt lat="47.54404381848871707916259765625" lon="11.00336057133972644805908203125">
        <ele>1914.199951171875</ele>
        <time>2026-09-01T07:41:20.000Z</time>
        <extensions>
          <ns3:TrackPointExtension>
            <ns3:hr>147</ns3:hr>
            <ns3:cad>0</ns3:cad>
          </ns3:TrackPointExtension>
        </extensions>
      </trkpt>
      <trkpt lat="47.5440271385014057159423828125" lon="11.00334632210433483123779296875">
        <ele>1914.800048828125</ele>
        <time>2026-09-01T07:41:21.000Z</time>
        <extensions>
          <ns3:TrackPointExtension>
            <ns3:hr>147</ns3:hr>
            <ns3:cad>0</ns3:cad>
          </ns3:TrackPointExtension>
        </extensions>
      </trkpt>
      <trkpt lat="47.54401397891342639923095703125" lon="11.00333844311535358428955078125">
        <ele>1916</ele>
        <time>2026-09-01T07:41:22.000Z</time>
        <extensions>
          <ns3:TrackPointExtension>
            <ns3:hr>146</ns3:hr>
            <ns3:cad>0</ns3:cad>
          </ns3:TrackPointExtension>
        </extensions>
      </trkpt>
      <trkpt lat="47.544014565646648406982421875" lon="11.003340370953083038330078125">
        <ele>1916.5999755859375</ele>
        <time>2026-09-01T07:41:23.000Z</time>
        <extensions>
          <ns3:TrackPointExtension>
            <ns3:hr>146</ns3:hr>
            <ns3:cad>0</ns3:cad>
          </ns3:TrackPointExtension>
        </extensions>
      </trkpt>
      <trkpt lat="47.5440070219337940216064453125" lon="11.003331653773784637451171875">
        <ele>1917</ele>
        <time>2026-09-01T07:41:24.000Z</time>
        <extensions>
          <ns3:TrackPointExtension>
            <ns3:hr>146</ns3:hr>
            <ns3:cad>80</ns3:cad>
          </ns3:TrackPointExtension>
        </extensions>
      </trkpt>
      <trkpt lat="47.5439959578216075897216796875" lon="11.00332704372704029083251953125">
        <ele>1917.5999755859375</ele>
        <time>2026-09-01T07:41:25.000Z</time>
        <extensions>
          <ns3:TrackPointExtension>
            <ns3:hr>146</ns3:hr>
            <ns3:cad>80</ns3:cad>
          </ns3:TrackPointExtension>
        </extensions>
      </trkpt>
      <trkpt lat="47.5439875759184360504150390625" lon="11.00332821719348430633544921875">
        <ele>1917.800048828125</ele>
        <time>2026-09-01T07:41:26.000Z</time>
        <extensions>
          <ns3:TrackPointExtension>
            <ns3:hr>146</ns3:hr>
            <ns3:cad>80</ns3:cad>
          </ns3:TrackPointExtension>
        </extensions>
      </trkpt>
      <trkpt lat="47.5439721532166004180908203125" lon="11.00331866182386875152587890625">
        <ele>1918</ele>
        <time>2026-09-01T07:41:27.000Z</time>
        <extensions>
          <ns3:TrackPointExtension>
            <ns3:hr>145</ns3:hr>
            <ns3:cad>80</ns3:cad>
          </ns3:TrackPointExtension>
        </extensions>
      </trkpt>
      <trkpt lat="47.54395832307636737823486328125" lon="11.00330105982720851898193359375">
        <ele>1918.4000244140625</ele>
        <time>2026-09-01T07:41:28.000Z</time>
        <extensions>
          <ns3:TrackPointExtension>
            <ns3:hr>145</ns3:hr>
            <ns3:cad>0</ns3:cad>
          </ns3:TrackPointExtension>
        </extensions>
      </trkpt>
      <trkpt lat="47.54394860006868839263916015625" lon="11.0032889060676097869873046875">
        <ele>1918.800048828125</ele>
        <time>2026-09-01T07:41:29.000Z</time>
        <extensions>
          <ns3:TrackPointExtension>
            <ns3:hr>145</ns3:hr>
            <ns3:cad>0</ns3:cad>
          </ns3:TrackPointExtension>
        </extensions>
      </trkpt>
      <trkpt lat="47.5439376197755336761474609375" lon="11.003278680145740509033203125">
        <ele>1919.199951171875</ele>
        <time>2026-09-01T07:41:30.000Z</time>
        <extensions>
          <ns3:TrackPointExtension>
            <ns3:hr>146</ns3:hr>
            <ns3:cad>71</ns3:cad>
          </ns3:TrackPointExtension>
        </extensions>
      </trkpt>
      <trkpt lat="47.543920688331127166748046875" lon="11.00325747393071651458740234375">
        <ele>1919.4000244140625</ele>
        <time>2026-09-01T07:41:31.000Z</time>
        <extensions>
          <ns3:TrackPointExtension>
            <ns3:hr>145</ns3:hr>
            <ns3:cad>71</ns3:cad>
          </ns3:TrackPointExtension>
        </extensions>
      </trkpt>
      <trkpt lat="47.54390568472445011138916015625" lon="11.00323685444891452789306640625">
        <ele>1919.5999755859375</ele>
        <time>2026-09-01T07:41:32.000Z</time>
        <extensions>
          <ns3:TrackPointExtension>
            <ns3:hr>145</ns3:hr>
            <ns3:cad>75</ns3:cad>
          </ns3:TrackPointExtension>
        </extensions>
      </trkpt>
      <trkpt lat="47.54389814101159572601318359375" lon="11.00322729907929897308349609375">
        <ele>1919.5999755859375</ele>
        <time>2026-09-01T07:41:33.000Z</time>
        <extensions>
          <ns3:TrackPointExtension>
            <ns3:hr>144</ns3:hr>
            <ns3:cad>75</ns3:cad>
          </ns3:TrackPointExtension>
        </extensions>
      </trkpt>
      <trkpt lat="47.543891854584217071533203125" lon="11.00319343619048595428466796875">
        <ele>1919.5999755859375</ele>
        <time>2026-09-01T07:41:34.000Z</time>
        <extensions>
          <ns3:TrackPointExtension>
            <ns3:hr>145</ns3:hr>
            <ns3:cad>78</ns3:cad>
          </ns3:TrackPointExtension>
        </extensions>
      </trkpt>
      <trkpt lat="47.5438836403191089630126953125" lon="11.00316426716744899749755859375">
        <ele>1919.4000244140625</ele>
        <time>2026-09-01T07:41:35.000Z</time>
        <extensions>
          <ns3:TrackPointExtension>
            <ns3:hr>145</ns3:hr>
            <ns3:cad>78</ns3:cad>
          </ns3:TrackPointExtension>
        </extensions>
      </trkpt>
      <trkpt lat="47.54387701861560344696044921875" lon="11.00313912145793437957763671875">
        <ele>1919.5999755859375</ele>
        <time>2026-09-01T07:41:36.000Z</time>
        <extensions>
          <ns3:TrackPointExtension>
            <ns3:hr>145</ns3:hr>
            <ns3:cad>78</ns3:cad>
          </ns3:TrackPointExtension>
        </extensions>
      </trkpt>
      <trkpt lat="47.54387148655951023101806640625" lon="11.003119759261608123779296875">
        <ele>1919.5999755859375</ele>
        <time>2026-09-01T07:41:37.000Z</time>
        <extensions>
          <ns3:TrackPointExtension>
            <ns3:hr>145</ns3:hr>
            <ns3:cad>78</ns3:cad>
          </ns3:TrackPointExtension>
        </extensions>
      </trkpt>
      <trkpt lat="47.54386075772345066070556640625" lon="11.003088243305683135986328125">
        <ele>1919.5999755859375</ele>
        <time>2026-09-01T07:41:38.000Z</time>
        <extensions>
          <ns3:TrackPointExtension>
            <ns3:hr>146</ns3:hr>
            <ns3:cad>76</ns3:cad>
          </ns3:TrackPointExtension>
        </extensions>
      </trkpt>
      <trkpt lat="47.54384818486869335174560546875" lon="11.00306309759616851806640625">
        <ele>1919.800048828125</ele>
        <time>2026-09-01T07:41:39.000Z</time>
        <extensions>
          <ns3:TrackPointExtension>
            <ns3:hr>146</ns3:hr>
            <ns3:cad>76</ns3:cad>
          </ns3:TrackPointExtension>
        </extensions>
      </trkpt>
      <trkpt lat="47.5438320077955722808837890625" lon="11.0030418075621128082275390625">
        <ele>1919.800048828125</ele>
        <time>2026-09-01T07:41:40.000Z</time>
        <extensions>
          <ns3:TrackPointExtension>
            <ns3:hr>146</ns3:hr>
            <ns3:cad>76</ns3:cad>
          </ns3:TrackPointExtension>
        </extensions>
      </trkpt>
      <trkpt lat="47.5438159145414829254150390625" lon="11.00301682949066162109375">
        <ele>1919.5999755859375</ele>
        <time>2026-09-01T07:41:41.000Z</time>
        <extensions>
          <ns3:TrackPointExtension>
            <ns3:hr>147</ns3:hr>
            <ns3:cad>76</ns3:cad>
          </ns3:TrackPointExtension>
        </extensions>
      </trkpt>
      <trkpt lat="47.5438001565635204315185546875" lon="11.00298623554408550262451171875">
        <ele>1919.4000244140625</ele>
        <time>2026-09-01T07:41:42.000Z</time>
        <extensions>
          <ns3:TrackPointExtension>
            <ns3:hr>147</ns3:hr>
            <ns3:cad>76</ns3:cad>
          </ns3:TrackPointExtension>
        </extensions>
      </trkpt>
      <trkpt lat="47.54378020763397216796875" lon="11.002964861690998077392578125">
        <ele>1919</ele>
        <time>2026-09-01T07:41:43.000Z</time>
        <extensions>
          <ns3:TrackPointExtension>
            <ns3:hr>147</ns3:hr>
            <ns3:cad>76</ns3:cad>
          </ns3:TrackPointExtension>
        </extensions>
      </trkpt>
      <trkpt lat="47.54375799559056758880615234375" lon="11.00293946452438831329345703125">
        <ele>1918.5999755859375</ele>
        <time>2026-09-01T07:41:44.000Z</time>
        <extensions>
          <ns3:TrackPointExtension>
            <ns3:hr>148</ns3:hr>
            <ns3:cad>79</ns3:cad>
          </ns3:TrackPointExtension>
        </extensions>
      </trkpt>
      <trkpt lat="47.5437411479651927947998046875" lon="11.00291951559484004974365234375">
        <ele>1918.199951171875</ele>
        <time>2026-09-01T07:41:45.000Z</time>
        <extensions>
          <ns3:TrackPointExtension>
            <ns3:hr>148</ns3:hr>
            <ns3:cad>79</ns3:cad>
          </ns3:TrackPointExtension>
        </extensions>
      </trkpt>
      <trkpt lat="47.54371658898890018463134765625" lon="11.002882383763790130615234375">
        <ele>1917.5999755859375</ele>
        <time>2026-09-01T07:41:46.000Z</time>
        <extensions>
          <ns3:TrackPointExtension>
            <ns3:hr>148</ns3:hr>
            <ns3:cad>79</ns3:cad>
          </ns3:TrackPointExtension>
        </extensions>
      </trkpt>
      <trkpt lat="47.5436948798596858978271484375" lon="11.00286620669066905975341796875">
        <ele>1917.4000244140625</ele>
        <time>2026-09-01T07:41:47.000Z</time>
        <extensions>
          <ns3:TrackPointExtension>
            <ns3:hr>148</ns3:hr>
            <ns3:cad>79</ns3:cad>
          </ns3:TrackPointExtension>
        </extensions>
      </trkpt>
      <trkpt lat="47.54366998560726642608642578125" lon="11.00284022279083728790283203125">
        <ele>1917.4000244140625</ele>
        <time>2026-09-01T07:41:48.000Z</time>
        <extensions>
          <ns3:TrackPointExtension>
            <ns3:hr>148</ns3:hr>
            <ns3:cad>83</ns3:cad>
          </ns3:TrackPointExtension>
        </extensions>
      </trkpt>
      <trkpt lat="47.54364500753581523895263671875" lon="11.00281239487230777740478515625">
        <ele>1917.5999755859375</ele>
        <time>2026-09-01T07:41:49.000Z</time>
        <extensions>
          <ns3:TrackPointExtension>
            <ns3:hr>147</ns3:hr>
            <ns3:cad>83</ns3:cad>
          </ns3:TrackPointExtension>
        </extensions>
      </trkpt>
      <trkpt lat="47.543622292578220367431640625" lon="11.002793870866298675537109375">
        <ele>1917.800048828125</ele>
        <time>2026-09-01T07:41:50.000Z</time>
        <extensions>
          <ns3:TrackPointExtension>
            <ns3:hr>147</ns3:hr>
            <ns3:cad>83</ns3:cad>
          </ns3:TrackPointExtension>
        </extensions>
      </trkpt>
      <trkpt lat="47.54360008053481578826904296875" lon="11.00278054364025592803955078125">
        <ele>1918.199951171875</ele>
        <time>2026-09-01T07:41:51.000Z</time>
        <extensions>
          <ns3:TrackPointExtension>
            <ns3:hr>147</ns3:hr>
            <ns3:cad>83</ns3:cad>
          </ns3:TrackPointExtension>
        </extensions>
      </trkpt>
      <trkpt lat="47.54358532838523387908935546875" lon="11.002784483134746551513671875">
        <ele>1918.4000244140625</ele>
        <time>2026-09-01T07:41:52.000Z</time>
        <extensions>
          <ns3:TrackPointExtension>
            <ns3:hr>148</ns3:hr>
            <ns3:cad>83</ns3:cad>
          </ns3:TrackPointExtension>
        </extensions>
      </trkpt>
      <trkpt lat="47.54356772638857364654541015625" lon="11.00278004072606563568115234375">
        <ele>1918.5999755859375</ele>
        <time>2026-09-01T07:41:53.000Z</time>
        <extensions>
          <ns3:TrackPointExtension>
            <ns3:hr>148</ns3:hr>
            <ns3:cad>83</ns3:cad>
          </ns3:TrackPointExtension>
        </extensions>
      </trkpt>
      <trkpt lat="47.54355967976152896881103515625" lon="11.0027698986232280731201171875">
        <ele>1918.4000244140625</ele>
        <time>2026-09-01T07:41:54.000Z</time>
        <extensions>
          <ns3:TrackPointExtension>
            <ns3:hr>148</ns3:hr>
            <ns3:cad>76</ns3:cad>
          </ns3:TrackPointExtension>
        </extensions>
      </trkpt>
      <trkpt lat="47.54355029202997684478759765625" lon="11.002756990492343902587890625">
        <ele>1918.199951171875</ele>
        <time>2026-09-01T07:41:55.000Z</time>
        <extensions>
          <ns3:TrackPointExtension>
            <ns3:hr>148</ns3:hr>
            <ns3:cad>73</ns3:cad>
          </ns3:TrackPointExtension>
        </extensions>
      </trkpt>
      <trkpt lat="47.54353704862296581268310546875" lon="11.00274391472339630126953125">
        <ele>1917.4000244140625</ele>
        <time>2026-09-01T07:41:56.000Z</time>
        <extensions>
          <ns3:TrackPointExtension>
            <ns3:hr>148</ns3:hr>
            <ns3:cad>70</ns3:cad>
          </ns3:TrackPointExtension>
        </extensions>
      </trkpt>
      <trkpt lat="47.54352665506303310394287109375" lon="11.00274517200887203216552734375">
        <ele>1916.5999755859375</ele>
        <time>2026-09-01T07:41:57.000Z</time>
        <extensions>
          <ns3:TrackPointExtension>
            <ns3:hr>147</ns3:hr>
            <ns3:cad>70</ns3:cad>
          </ns3:TrackPointExtension>
        </extensions>
      </trkpt>
      <trkpt lat="47.54352129064500331878662109375" lon="11.002760343253612518310546875">
        <ele>1915.5999755859375</ele>
        <time>2026-09-01T07:41:58.000Z</time>
        <extensions>
          <ns3:TrackPointExtension>
            <ns3:hr>146</ns3:hr>
            <ns3:cad>70</ns3:cad>
          </ns3:TrackPointExtension>
        </extensions>
      </trkpt>
      <trkpt lat="47.54351927898824214935302734375" lon="11.00276495330035686492919921875">
        <ele>1915.4000244140625</ele>
        <time>2026-09-01T07:41:59.000Z</time>
        <extensions>
          <ns3:TrackPointExtension>
            <ns3:hr>145</ns3:hr>
            <ns3:cad>0</ns3:cad>
          </ns3:TrackPointExtension>
        </extensions>
      </trkpt>
      <trkpt lat="47.5435111485421657562255859375" lon="11.00276126526296138763427734375">
        <ele>1915</ele>
        <time>2026-09-01T07:42:00.000Z</time>
        <extensions>
          <ns3:TrackPointExtension>
            <ns3:hr>143</ns3:hr>
            <ns3:cad>0</ns3:cad>
          </ns3:TrackPointExtension>
        </extensions>
      </trkpt>
      <trkpt lat="47.5435106456279754638671875" lon="11.00276176817715167999267578125">
        <ele>1914.5999755859375</ele>
        <time>2026-09-01T07:42:01.000Z</time>
        <extensions>
          <ns3:TrackPointExtension>
            <ns3:hr>142</ns3:hr>
            <ns3:cad>0</ns3:cad>
          </ns3:TrackPointExtension>
        </extensions>
      </trkpt>
      <trkpt lat="47.54350335337221622467041015625" lon="11.0027487762272357940673828125">
        <ele>1914</ele>
        <time>2026-09-01T07:42:02.000Z</time>
        <extensions>
          <ns3:TrackPointExtension>
            <ns3:hr>142</ns3:hr>
            <ns3:cad>0</ns3:cad>
          </ns3:TrackPointExtension>
        </extensions>
      </trkpt>
      <trkpt lat="47.54349648021161556243896484375" lon="11.002739556133747100830078125">
        <ele>1913.199951171875</ele>
        <time>2026-09-01T07:42:03.000Z</time>
        <extensions>
          <ns3:TrackPointExtension>
            <ns3:hr>142</ns3:hr>
            <ns3:cad>0</ns3:cad>
          </ns3:TrackPointExtension>
        </extensions>
      </trkpt>
      <trkpt lat="47.54349262453615665435791015625" lon="11.002725474536418914794921875">
        <ele>1912.5999755859375</ele>
        <time>2026-09-01T07:42:04.000Z</time>
        <extensions>
          <ns3:TrackPointExtension>
            <ns3:hr>141</ns3:hr>
            <ns3:cad>0</ns3:cad>
          </ns3:TrackPointExtension>
        </extensions>
      </trkpt>
      <trkpt lat="47.54348508082330226898193359375" lon="11.0027129016816616058349609375">
        <ele>1912</ele>
        <time>2026-09-01T07:42:05.000Z</time>
        <extensions>
          <ns3:TrackPointExtension>
            <ns3:hr>140</ns3:hr>
            <ns3:cad>0</ns3:cad>
          </ns3:TrackPointExtension>
        </extensions>
      </trkpt>
      <trkpt lat="47.54347636364400386810302734375" lon="11.00270074792206287384033203125">
        <ele>1911.5999755859375</ele>
        <time>2026-09-01T07:42:06.000Z</time>
        <extensions>
          <ns3:TrackPointExtension>
            <ns3:hr>140</ns3:hr>
            <ns3:cad>0</ns3:cad>
          </ns3:TrackPointExtension>
        </extensions>
      </trkpt>
      <trkpt lat="47.54346915520727634429931640625" lon="11.00269161164760589599609375">
        <ele>1911.199951171875</ele>
        <time>2026-09-01T07:42:07.000Z</time>
        <extensions>
          <ns3:TrackPointExtension>
            <ns3:hr>139</ns3:hr>
            <ns3:cad>0</ns3:cad>
          </ns3:TrackPointExtension>
        </extensions>
      </trkpt>
      <trkpt lat="47.54347016103565692901611328125" lon="11.00268146954476833343505859375">
        <ele>1910.800048828125</ele>
        <time>2026-09-01T07:42:08.000Z</time>
        <extensions>
          <ns3:TrackPointExtension>
            <ns3:hr>139</ns3:hr>
            <ns3:cad>0</ns3:cad>
          </ns3:TrackPointExtension>
        </extensions>
      </trkpt>
      <trkpt lat="47.54346035420894622802734375" lon="11.00267526693642139434814453125">
        <ele>1910.4000244140625</ele>
        <time>2026-09-01T07:42:09.000Z</time>
        <extensions>
          <ns3:TrackPointExtension>
            <ns3:hr>138</ns3:hr>
            <ns3:cad>0</ns3:cad>
          </ns3:TrackPointExtension>
        </extensions>
      </trkpt>
      <trkpt lat="47.5434514693915843963623046875" lon="11.00266923196613788604736328125">
        <ele>1910</ele>
        <time>2026-09-01T07:42:10.000Z</time>
        <extensions>
          <ns3:TrackPointExtension>
            <ns3:hr>138</ns3:hr>
            <ns3:cad>0</ns3:cad>
          </ns3:TrackPointExtension>
        </extensions>
      </trkpt>
      <trkpt lat="47.5434417463839054107666015625" lon="11.00265749730169773101806640625">
        <ele>1909.5999755859375</ele>
        <time>2026-09-01T07:42:11.000Z</time>
        <extensions>
          <ns3:TrackPointExtension>
            <ns3:hr>138</ns3:hr>
            <ns3:cad>0</ns3:cad>
          </ns3:TrackPointExtension>
        </extensions>
      </trkpt>
      <trkpt lat="47.5434336997568607330322265625" lon="11.0026453435420989990234375">
        <ele>1908.800048828125</ele>
        <time>2026-09-01T07:42:12.000Z</time>
        <extensions>
          <ns3:TrackPointExtension>
            <ns3:hr>137</ns3:hr>
            <ns3:cad>0</ns3:cad>
          </ns3:TrackPointExtension>
        </extensions>
      </trkpt>
      <trkpt lat="47.5434310175478458404541015625" lon="11.00265263579785823822021484375">
        <ele>1908.199951171875</ele>
        <time>2026-09-01T07:42:13.000Z</time>
        <extensions>
          <ns3:TrackPointExtension>
            <ns3:hr>137</ns3:hr>
            <ns3:cad>0</ns3:cad>
          </ns3:TrackPointExtension>
        </extensions>
      </trkpt>
      <trkpt lat="47.5434269942343235015869140625" lon="11.00266168825328350067138671875">
        <ele>1907.800048828125</ele>
        <time>2026-09-01T07:42:14.000Z</time>
        <extensions>
          <ns3:TrackPointExtension>
            <ns3:hr>137</ns3:hr>
            <ns3:cad>0</ns3:cad>
          </ns3:TrackPointExtension>
        </extensions>
      </trkpt>
      <trkpt lat="47.5434207916259765625" lon="11.00266085006296634674072265625">
        <ele>1907.4000244140625</ele>
        <time>2026-09-01T07:42:15.000Z</time>
        <extensions>
          <ns3:TrackPointExtension>
            <ns3:hr>137</ns3:hr>
            <ns3:cad>0</ns3:cad>
          </ns3:TrackPointExtension>
        </extensions>
      </trkpt>
      <trkpt lat="47.5434115715324878692626953125" lon="11.00265850313007831573486328125">
        <ele>1907</ele>
        <time>2026-09-01T07:42:16.000Z</time>
        <extensions>
          <ns3:TrackPointExtension>
            <ns3:hr>136</ns3:hr>
            <ns3:cad>0</ns3:cad>
          </ns3:TrackPointExtension>
        </extensions>
      </trkpt>
      <trkpt lat="47.5434072129428386688232421875" lon="11.0026565752923488616943359375">
        <ele>1906.5999755859375</ele>
        <time>2026-09-01T07:42:17.000Z</time>
        <extensions>
          <ns3:TrackPointExtension>
            <ns3:hr>136</ns3:hr>
            <ns3:cad>0</ns3:cad>
          </ns3:TrackPointExtension>
        </extensions>
      </trkpt>
      <trkpt lat="47.54340444691479206085205078125" lon="11.00265129469335079193115234375">
        <ele>1906.199951171875</ele>
        <time>2026-09-01T07:42:18.000Z</time>
        <extensions>
          <ns3:TrackPointExtension>
            <ns3:hr>136</ns3:hr>
            <ns3:cad>0</ns3:cad>
          </ns3:TrackPointExtension>
        </extensions>
      </trkpt>
      <trkpt lat="47.5434035249054431915283203125" lon="11.0026478581130504608154296875">
        <ele>1905.800048828125</ele>
        <time>2026-09-01T07:42:19.000Z</time>
        <extensions>
          <ns3:TrackPointExtension>
            <ns3:hr>136</ns3:hr>
            <ns3:cad>0</ns3:cad>
          </ns3:TrackPointExtension>
        </extensions>
      </trkpt>
      <trkpt lat="47.54339891485869884490966796875" lon="11.00263922475278377532958984375">
        <ele>1905.4000244140625</ele>
        <time>2026-09-01T07:42:20.000Z</time>
        <extensions>
          <ns3:TrackPointExtension>
            <ns3:hr>136</ns3:hr>
            <ns3:cad>0</ns3:cad>
          </ns3:TrackPointExtension>
        </extensions>
      </trkpt>
      <trkpt lat="47.54339388571679592132568359375" lon="11.00262866355478763580322265625">
        <ele>1905</ele>
        <time>2026-09-01T07:42:21.000Z</time>
        <extensions>
          <ns3:TrackPointExtension>
            <ns3:hr>135</ns3:hr>
            <ns3:cad>0</ns3:cad>
          </ns3:TrackPointExtension>
        </extensions>
      </trkpt>
      <trkpt lat="47.54338902421295642852783203125" lon="11.00260418839752674102783203125">
        <ele>1904.4000244140625</ele>
        <time>2026-09-01T07:42:22.000Z</time>
        <extensions>
          <ns3:TrackPointExtension>
            <ns3:hr>135</ns3:hr>
            <ns3:cad>0</ns3:cad>
          </ns3:TrackPointExtension>
        </extensions>
      </trkpt>
      <trkpt lat="47.543374188244342803955078125" lon="11.0025690682232379913330078125">
        <ele>1903.4000244140625</ele>
        <time>2026-09-01T07:42:23.000Z</time>
        <extensions>
          <ns3:TrackPointExtension>
            <ns3:hr>135</ns3:hr>
            <ns3:cad>0</ns3:cad>
          </ns3:TrackPointExtension>
        </extensions>
      </trkpt>
      <trkpt lat="47.5433616153895854949951171875" lon="11.0025606863200664520263671875">
        <ele>1902.800048828125</ele>
        <time>2026-09-01T07:42:24.000Z</time>
        <extensions>
          <ns3:TrackPointExtension>
            <ns3:hr>135</ns3:hr>
            <ns3:cad>0</ns3:cad>
          </ns3:TrackPointExtension>
        </extensions>
      </trkpt>
      <trkpt lat="47.54334979690611362457275390625" lon="11.0025620274245738983154296875">
        <ele>1902.199951171875</ele>
        <time>2026-09-01T07:42:25.000Z</time>
        <extensions>
          <ns3:TrackPointExtension>
            <ns3:hr>134</ns3:hr>
            <ns3:cad>0</ns3:cad>
          </ns3:TrackPointExtension>
        </extensions>
      </trkpt>
      <trkpt lat="47.5433528982102870941162109375" lon="11.0025559924542903900146484375">
        <ele>1902</ele>
        <time>2026-09-01T07:42:26.000Z</time>
        <extensions>
          <ns3:TrackPointExtension>
            <ns3:hr>134</ns3:hr>
            <ns3:cad>0</ns3:cad>
          </ns3:TrackPointExtension>
        </extensions>
      </trkpt>
      <trkpt lat="47.54334191791713237762451171875" lon="11.0025523044168949127197265625">
        <ele>1901.800048828125</ele>
        <time>2026-09-01T07:42:27.000Z</time>
        <extensions>
          <ns3:TrackPointExtension>
            <ns3:hr>134</ns3:hr>
            <ns3:cad>0</ns3:cad>
          </ns3:TrackPointExtension>
        </extensions>
      </trkpt>
      <trkpt lat="47.543338648974895477294921875" lon="11.0025516338646411895751953125">
        <ele>1901.800048828125</ele>
        <time>2026-09-01T07:42:28.000Z</time>
        <extensions>
          <ns3:TrackPointExtension>
            <ns3:hr>133</ns3:hr>
            <ns3:cad>0</ns3:cad>
          </ns3:TrackPointExtension>
        </extensions>
      </trkpt>
      <trkpt lat="47.5433309376239776611328125" lon="11.0025472752749919891357421875">
        <ele>1901.800048828125</ele>
        <time>2026-09-01T07:42:29.000Z</time>
        <extensions>
          <ns3:TrackPointExtension>
            <ns3:hr>133</ns3:hr>
            <ns3:cad>0</ns3:cad>
          </ns3:TrackPointExtension>
        </extensions>
      </trkpt>
      <trkpt lat="47.5433230586349964141845703125" lon="11.00255356170237064361572265625">
        <ele>1901.800048828125</ele>
        <time>2026-09-01T07:42:30.000Z</time>
        <extensions>
          <ns3:TrackPointExtension>
            <ns3:hr>132</ns3:hr>
            <ns3:cad>0</ns3:cad>
          </ns3:TrackPointExtension>
        </extensions>
      </trkpt>
      <trkpt lat="47.5433143414556980133056640625" lon="11.00254685617983341217041015625">
        <ele>1901.5999755859375</ele>
        <time>2026-09-01T07:42:31.000Z</time>
        <extensions>
          <ns3:TrackPointExtension>
            <ns3:hr>132</ns3:hr>
            <ns3:cad>0</ns3:cad>
          </ns3:TrackPointExtension>
        </extensions>
      </trkpt>
      <trkpt lat="47.5432972423732280731201171875" lon="11.0025355406105518341064453125">
        <ele>1901.199951171875</ele>
        <time>2026-09-01T07:42:32.000Z</time>
        <extensions>
          <ns3:TrackPointExtension>
            <ns3:hr>131</ns3:hr>
            <ns3:cad>0</ns3:cad>
          </ns3:TrackPointExtension>
        </extensions>
      </trkpt>
      <trkpt lat="47.54328760318458080291748046875" lon="11.00253059528768062591552734375">
        <ele>1900.800048828125</ele>
        <time>2026-09-01T07:42:33.000Z</time>
        <extensions>
          <ns3:TrackPointExtension>
            <ns3:hr>131</ns3:hr>
            <ns3:cad>0</ns3:cad>
          </ns3:TrackPointExtension>
        </extensions>
      </trkpt>
      <trkpt lat="47.54327234812080860137939453125" lon="11.0025214590132236480712890625">
        <ele>1900.199951171875</ele>
        <time>2026-09-01T07:42:34.000Z</time>
        <extensions>
          <ns3:TrackPointExtension>
            <ns3:hr>130</ns3:hr>
            <ns3:cad>0</ns3:cad>
          </ns3:TrackPointExtension>
        </extensions>
      </trkpt>
      <trkpt lat="47.54326866008341312408447265625" lon="11.00252539850771427154541015625">
        <ele>1899.800048828125</ele>
        <time>2026-09-01T07:42:35.000Z</time>
        <extensions>
          <ns3:TrackPointExtension>
            <ns3:hr>130</ns3:hr>
            <ns3:cad>0</ns3:cad>
          </ns3:TrackPointExtension>
        </extensions>
      </trkpt>
      <trkpt lat="47.5432600267231464385986328125" lon="11.0025201179087162017822265625">
        <ele>1899</ele>
        <time>2026-09-01T07:42:36.000Z</time>
        <extensions>
          <ns3:TrackPointExtension>
            <ns3:hr>129</ns3:hr>
            <ns3:cad>0</ns3:cad>
          </ns3:TrackPointExtension>
        </extensions>
      </trkpt>
      <trkpt lat="47.54325516521930694580078125" lon="11.002514250576496124267578125">
        <ele>1898.4000244140625</ele>
        <time>2026-09-01T07:42:37.000Z</time>
        <extensions>
          <ns3:TrackPointExtension>
            <ns3:hr>129</ns3:hr>
            <ns3:cad>0</ns3:cad>
          </ns3:TrackPointExtension>
        </extensions>
      </trkpt>
      <trkpt lat="47.54324175417423248291015625" lon="11.00250729359686374664306640625">
        <ele>1897.800048828125</ele>
        <time>2026-09-01T07:42:38.000Z</time>
        <extensions>
          <ns3:TrackPointExtension>
            <ns3:hr>129</ns3:hr>
            <ns3:cad>0</ns3:cad>
          </ns3:TrackPointExtension>
        </extensions>
      </trkpt>
      <trkpt lat="47.54324016161262989044189453125" lon="11.00249488838016986846923828125">
        <ele>1897.199951171875</ele>
        <time>2026-09-01T07:42:39.000Z</time>
        <extensions>
          <ns3:TrackPointExtension>
            <ns3:hr>129</ns3:hr>
            <ns3:cad>0</ns3:cad>
          </ns3:TrackPointExtension>
        </extensions>
      </trkpt>
      <trkpt lat="47.54322222433984279632568359375" lon="11.002480052411556243896484375">
        <ele>1896.5999755859375</ele>
        <time>2026-09-01T07:42:40.000Z</time>
        <extensions>
          <ns3:TrackPointExtension>
            <ns3:hr>128</ns3:hr>
            <ns3:cad>0</ns3:cad>
          </ns3:TrackPointExtension>
        </extensions>
      </trkpt>
      <trkpt lat="47.54320965148508548736572265625" lon="11.00247032940387725830078125">
        <ele>1896</ele>
        <time>2026-09-01T07:42:41.000Z</time>
        <extensions>
          <ns3:TrackPointExtension>
            <ns3:hr>128</ns3:hr>
            <ns3:cad>0</ns3:cad>
          </ns3:TrackPointExtension>
        </extensions>
      </trkpt>
      <trkpt lat="47.54319925792515277862548828125" lon="11.0024604387581348419189453125">
        <ele>1895.4000244140625</ele>
        <time>2026-09-01T07:42:42.000Z</time>
        <extensions>
          <ns3:TrackPointExtension>
            <ns3:hr>127</ns3:hr>
            <ns3:cad>0</ns3:cad>
          </ns3:TrackPointExtension>
        </extensions>
      </trkpt>
      <trkpt lat="47.543194480240345001220703125" lon="11.00246253423392772674560546875">
        <ele>1895</ele>
        <time>2026-09-01T07:42:43.000Z</time>
        <extensions>
          <ns3:TrackPointExtension>
            <ns3:hr>127</ns3:hr>
            <ns3:cad>0</ns3:cad>
          </ns3:TrackPointExtension>
        </extensions>
      </trkpt>
      <trkpt lat="47.54319607280194759368896484375" lon="11.0024574212729930877685546875">
        <ele>1894.800048828125</ele>
        <time>2026-09-01T07:42:44.000Z</time>
        <extensions>
          <ns3:TrackPointExtension>
            <ns3:hr>126</ns3:hr>
            <ns3:cad>77</ns3:cad>
          </ns3:TrackPointExtension>
        </extensions>
      </trkpt>
      <trkpt lat="47.543199174106121063232421875" lon="11.00244082510471343994140625">
        <ele>1894.5999755859375</ele>
        <time>2026-09-01T07:42:45.000Z</time>
        <extensions>
          <ns3:TrackPointExtension>
            <ns3:hr>126</ns3:hr>
            <ns3:cad>77</ns3:cad>
          </ns3:TrackPointExtension>
        </extensions>
      </trkpt>
      <trkpt lat="47.5432000122964382171630859375" lon="11.00242783315479755401611328125">
        <ele>1894.5999755859375</ele>
        <time>2026-09-01T07:42:46.000Z</time>
        <extensions>
          <ns3:TrackPointExtension>
            <ns3:hr>126</ns3:hr>
            <ns3:cad>77</ns3:cad>
          </ns3:TrackPointExtension>
        </extensions>
      </trkpt>
      <trkpt lat="47.54319942556321620941162109375" lon="11.00241676904261112213134765625">
        <ele>1894.5999755859375</ele>
        <time>2026-09-01T07:42:47.000Z</time>
        <extensions>
          <ns3:TrackPointExtension>
            <ns3:hr>126</ns3:hr>
            <ns3:cad>77</ns3:cad>
          </ns3:TrackPointExtension>
        </extensions>
      </trkpt>
      <trkpt lat="47.54319758154451847076416015625" lon="11.00240553729236125946044921875">
        <ele>1894.4000244140625</ele>
        <time>2026-09-01T07:42:48.000Z</time>
        <extensions>
          <ns3:TrackPointExtension>
            <ns3:hr>126</ns3:hr>
            <ns3:cad>0</ns3:cad>
          </ns3:TrackPointExtension>
        </extensions>
      </trkpt>
      <trkpt lat="47.5431976653635501861572265625" lon="11.0023937188088893890380859375">
        <ele>1894.199951171875</ele>
        <time>2026-09-01T07:42:49.000Z</time>
        <extensions>
          <ns3:TrackPointExtension>
            <ns3:hr>126</ns3:hr>
            <ns3:cad>0</ns3:cad>
          </ns3:TrackPointExtension>
        </extensions>
      </trkpt>
      <trkpt lat="47.5431976653635501861572265625" lon="11.00237754173576831817626953125">
        <ele>1893.800048828125</ele>
        <time>2026-09-01T07:42:50.000Z</time>
        <extensions>
          <ns3:TrackPointExtension>
            <ns3:hr>125</ns3:hr>
            <ns3:cad>0</ns3:cad>
          </ns3:TrackPointExtension>
        </extensions>
      </trkpt>
      <trkpt lat="47.54319724626839160919189453125" lon="11.00236295722424983978271484375">
        <ele>1893.5999755859375</ele>
        <time>2026-09-01T07:42:51.000Z</time>
        <extensions>
          <ns3:TrackPointExtension>
            <ns3:hr>125</ns3:hr>
            <ns3:cad>0</ns3:cad>
          </ns3:TrackPointExtension>
        </extensions>
      </trkpt>
      <trkpt lat="47.54319724626839160919189453125" lon="11.0023561678826808929443359375">
        <ele>1893.199951171875</ele>
        <time>2026-09-01T07:42:52.000Z</time>
        <extensions>
          <ns3:TrackPointExtension>
            <ns3:hr>124</ns3:hr>
            <ns3:cad>0</ns3:cad>
          </ns3:TrackPointExtension>
        </extensions>
      </trkpt>
      <trkpt lat="47.54319858737289905548095703125" lon="11.00235440768301486968994140625">
        <ele>1892.800048828125</ele>
        <time>2026-09-01T07:42:53.000Z</time>
        <extensions>
          <ns3:TrackPointExtension>
            <ns3:hr>123</ns3:hr>
            <ns3:cad>0</ns3:cad>
          </ns3:TrackPointExtension>
        </extensions>
      </trkpt>
      <trkpt lat="47.54319992847740650177001953125" lon="11.0023484565317630767822265625">
        <ele>1892.5999755859375</ele>
        <time>2026-09-01T07:42:54.000Z</time>
        <extensions>
          <ns3:TrackPointExtension>
            <ns3:hr>123</ns3:hr>
            <ns3:cad>0</ns3:cad>
          </ns3:TrackPointExtension>
        </extensions>
      </trkpt>
      <trkpt lat="47.54320395179092884063720703125" lon="11.00233060307800769805908203125">
        <ele>1892.4000244140625</ele>
        <time>2026-09-01T07:42:55.000Z</time>
        <extensions>
          <ns3:TrackPointExtension>
            <ns3:hr>122</ns3:hr>
            <ns3:cad>0</ns3:cad>
          </ns3:TrackPointExtension>
        </extensions>
      </trkpt>
      <trkpt lat="47.5432097353041172027587890625" lon="11.00231400690972805023193359375">
        <ele>1892</ele>
        <time>2026-09-01T07:42:56.000Z</time>
        <extensions>
          <ns3:TrackPointExtension>
            <ns3:hr>122</ns3:hr>
            <ns3:cad>0</ns3:cad>
          </ns3:TrackPointExtension>
        </extensions>
      </trkpt>
      <trkpt lat="47.54321250133216381072998046875" lon="11.002325825393199920654296875">
        <ele>1891.800048828125</ele>
        <time>2026-09-01T07:42:57.000Z</time>
        <extensions>
          <ns3:TrackPointExtension>
            <ns3:hr>122</ns3:hr>
            <ns3:cad>0</ns3:cad>
          </ns3:TrackPointExtension>
        </extensions>
      </trkpt>
      <trkpt lat="47.54321065731346607208251953125" lon="11.002313755452632904052734375">
        <ele>1891.199951171875</ele>
        <time>2026-09-01T07:42:58.000Z</time>
        <extensions>
          <ns3:TrackPointExtension>
            <ns3:hr>122</ns3:hr>
            <ns3:cad>0</ns3:cad>
          </ns3:TrackPointExtension>
        </extensions>
      </trkpt>
      <trkpt lat="47.5432087294757366180419921875" lon="11.00230126641690731048583984375">
        <ele>1890.5999755859375</ele>
        <time>2026-09-01T07:42:59.000Z</time>
        <extensions>
          <ns3:TrackPointExtension>
            <ns3:hr>122</ns3:hr>
            <ns3:cad>0</ns3:cad>
          </ns3:TrackPointExtension>
        </extensions>
      </trkpt>
      <trkpt lat="47.54319573752582073211669921875" lon="11.00228835828602313995361328125">
        <ele>1890.4000244140625</ele>
        <time>2026-09-01T07:43:00.000Z</time>
        <extensions>
          <ns3:TrackPointExtension>
            <ns3:hr>121</ns3:hr>
            <ns3:cad>0</ns3:cad>
          </ns3:TrackPointExtension>
        </extensions>
      </trkpt>
      <trkpt lat="47.54318936727941036224365234375" lon="11.00227444432675838470458984375">
        <ele>1890.199951171875</ele>
        <time>2026-09-01T07:43:01.000Z</time>
        <extensions>
          <ns3:TrackPointExtension>
            <ns3:hr>121</ns3:hr>
            <ns3:cad>0</ns3:cad>
          </ns3:TrackPointExtension>
        </extensions>
      </trkpt>
      <trkpt lat="47.5431785546243190765380859375" lon="11.00226581096649169921875">
        <ele>1889.5999755859375</ele>
        <time>2026-09-01T07:43:02.000Z</time>
        <extensions>
          <ns3:TrackPointExtension>
            <ns3:hr>121</ns3:hr>
            <ns3:cad>0</ns3:cad>
          </ns3:TrackPointExtension>
        </extensions>
      </trkpt>
      <trkpt lat="47.54317092709243297576904296875" lon="11.00224058143794536590576171875">
        <ele>1889.199951171875</ele>
        <time>2026-09-01T07:43:03.000Z</time>
        <extensions>
          <ns3:TrackPointExtension>
            <ns3:hr>122</ns3:hr>
            <ns3:cad>0</ns3:cad>
          </ns3:TrackPointExtension>
        </extensions>
      </trkpt>
      <trkpt lat="47.54315734840929508209228515625" lon="11.0022220574319362640380859375">
        <ele>1888.5999755859375</ele>
        <time>2026-09-01T07:43:04.000Z</time>
        <extensions>
          <ns3:TrackPointExtension>
            <ns3:hr>122</ns3:hr>
            <ns3:cad>0</ns3:cad>
          </ns3:TrackPointExtension>
        </extensions>
      </trkpt>
      <trkpt lat="47.5431477092206478118896484375" lon="11.0022046230733394622802734375">
        <ele>1888</ele>
        <time>2026-09-01T07:43:05.000Z</time>
        <extensions>
          <ns3:TrackPointExtension>
            <ns3:hr>122</ns3:hr>
            <ns3:cad>0</ns3:cad>
          </ns3:TrackPointExtension>
        </extensions>
      </trkpt>
      <trkpt lat="47.5431366451084613800048828125" lon="11.002204455435276031494140625">
        <ele>1887.5999755859375</ele>
        <time>2026-09-01T07:43:06.000Z</time>
        <extensions>
          <ns3:TrackPointExtension>
            <ns3:hr>123</ns3:hr>
            <ns3:cad>0</ns3:cad>
          </ns3:TrackPointExtension>
        </extensions>
      </trkpt>
      <trkpt lat="47.5431410036981105804443359375" lon="11.002204455435276031494140625">
        <ele>1887</ele>
        <time>2026-09-01T07:43:07.000Z</time>
        <extensions>
          <ns3:TrackPointExtension>
            <ns3:hr>124</ns3:hr>
            <ns3:cad>0</ns3:cad>
          </ns3:TrackPointExtension>
        </extensions>
      </trkpt>
      <trkpt lat="47.5431463681161403656005859375" lon="11.00221090950071811676025390625">
        <ele>1886.800048828125</ele>
        <time>2026-09-01T07:43:08.000Z</time>
        <extensions>
          <ns3:TrackPointExtension>
            <ns3:hr>125</ns3:hr>
            <ns3:cad>0</ns3:cad>
          </ns3:TrackPointExtension>
        </extensions>
      </trkpt>
      <trkpt lat="47.54314226098358631134033203125" lon="11.002194397151470184326171875">
        <ele>1887.199951171875</ele>
        <time>2026-09-01T07:43:09.000Z</time>
        <extensions>
          <ns3:TrackPointExtension>
            <ns3:hr>125</ns3:hr>
            <ns3:cad>0</ns3:cad>
          </ns3:TrackPointExtension>
        </extensions>
      </trkpt>
      <trkpt lat="47.54313086159527301788330078125" lon="11.00219297222793102264404296875">
        <ele>1887.5999755859375</ele>
        <time>2026-09-01T07:43:10.000Z</time>
        <extensions>
          <ns3:TrackPointExtension>
            <ns3:hr>126</ns3:hr>
            <ns3:cad>0</ns3:cad>
          </ns3:TrackPointExtension>
        </extensions>
      </trkpt>
      <trkpt lat="47.54313471727073192596435546875" lon="11.0022029466927051544189453125">
        <ele>1888</ele>
        <time>2026-09-01T07:43:11.000Z</time>
        <extensions>
          <ns3:TrackPointExtension>
            <ns3:hr>125</ns3:hr>
            <ns3:cad>0</ns3:cad>
          </ns3:TrackPointExtension>
        </extensions>
      </trkpt>
      <trkpt lat="47.54312600009143352508544921875" lon="11.002203784883022308349609375">
        <ele>1888.4000244140625</ele>
        <time>2026-09-01T07:43:12.000Z</time>
        <extensions>
          <ns3:TrackPointExtension>
            <ns3:hr>125</ns3:hr>
            <ns3:cad>0</ns3:cad>
          </ns3:TrackPointExtension>
        </extensions>
      </trkpt>
      <trkpt lat="47.54311971366405487060546875" lon="11.002215854823589324951171875">
        <ele>1889</ele>
        <time>2026-09-01T07:43:13.000Z</time>
        <extensions>
          <ns3:TrackPointExtension>
            <ns3:hr>125</ns3:hr>
            <ns3:cad>0</ns3:cad>
          </ns3:TrackPointExtension>
        </extensions>
      </trkpt>
      <trkpt lat="47.54310923628509044647216796875" lon="11.002213172614574432373046875">
        <ele>1889.5999755859375</ele>
        <time>2026-09-01T07:43:14.000Z</time>
        <extensions>
          <ns3:TrackPointExtension>
            <ns3:hr>125</ns3:hr>
            <ns3:cad>0</ns3:cad>
          </ns3:TrackPointExtension>
        </extensions>
      </trkpt>
      <trkpt lat="47.543105967342853546142578125" lon="11.002206467092037200927734375">
        <ele>1890</ele>
        <time>2026-09-01T07:43:15.000Z</time>
        <extensions>
          <ns3:TrackPointExtension>
            <ns3:hr>125</ns3:hr>
            <ns3:cad>0</ns3:cad>
          </ns3:TrackPointExtension>
        </extensions>
      </trkpt>
      <trkpt lat="47.54309264011681079864501953125" lon="11.00220068357884883880615234375">
        <ele>1890.4000244140625</ele>
        <time>2026-09-01T07:43:16.000Z</time>
        <extensions>
          <ns3:TrackPointExtension>
            <ns3:hr>125</ns3:hr>
            <ns3:cad>0</ns3:cad>
          </ns3:TrackPointExtension>
        </extensions>
      </trkpt>
      <trkpt lat="47.5430897064507007598876953125" lon="11.0021989233791828155517578125">
        <ele>1890.800048828125</ele>
        <time>2026-09-01T07:43:17.000Z</time>
        <extensions>
          <ns3:TrackPointExtension>
            <ns3:hr>124</ns3:hr>
            <ns3:cad>0</ns3:cad>
          </ns3:TrackPointExtension>
        </extensions>
      </trkpt>
      <trkpt lat="47.54307570867240428924560546875" lon="11.0021835006773471832275390625">
        <ele>1891</ele>
        <time>2026-09-01T07:43:18.000Z</time>
        <extensions>
          <ns3:TrackPointExtension>
            <ns3:hr>124</ns3:hr>
            <ns3:cad>0</ns3:cad>
          </ns3:TrackPointExtension>
        </extensions>
      </trkpt>
      <trkpt lat="47.54306263290345668792724609375" lon="11.00216749124228954315185546875">
        <ele>1891</ele>
        <time>2026-09-01T07:43:19.000Z</time>
        <extensions>
          <ns3:TrackPointExtension>
            <ns3:hr>125</ns3:hr>
            <ns3:cad>0</ns3:cad>
          </ns3:TrackPointExtension>
        </extensions>
      </trkpt>
      <trkpt lat="47.54304637201130390167236328125" lon="11.00215123035013675689697265625">
        <ele>1890.800048828125</ele>
        <time>2026-09-01T07:43:20.000Z</time>
        <extensions>
          <ns3:TrackPointExtension>
            <ns3:hr>126</ns3:hr>
            <ns3:cad>0</ns3:cad>
          </ns3:TrackPointExtension>
        </extensions>
      </trkpt>
      <trkpt lat="47.54304327070713043212890625" lon="11.002156846225261688232421875">
        <ele>1890.5999755859375</ele>
        <time>2026-09-01T07:43:21.000Z</time>
        <extensions>
          <ns3:TrackPointExtension>
            <ns3:hr>127</ns3:hr>
            <ns3:cad>0</ns3:cad>
          </ns3:TrackPointExtension>
        </extensions>
      </trkpt>
      <trkpt lat="47.54303463734686374664306640625" lon="11.0021598637104034423828125">
        <ele>1890.4000244140625</ele>
        <time>2026-09-01T07:43:22.000Z</time>
        <extensions>
          <ns3:TrackPointExtension>
            <ns3:hr>128</ns3:hr>
            <ns3:cad>0</ns3:cad>
          </ns3:TrackPointExtension>
        </extensions>
      </trkpt>
      <trkpt lat="47.543026171624660491943359375" lon="11.002162881195545196533203125">
        <ele>1890.199951171875</ele>
        <time>2026-09-01T07:43:23.000Z</time>
        <extensions>
          <ns3:TrackPointExtension>
            <ns3:hr>128</ns3:hr>
            <ns3:cad>0</ns3:cad>
          </ns3:TrackPointExtension>
        </extensions>
      </trkpt>
      <trkpt lat="47.543016783893108367919921875" lon="11.00216665305197238922119140625">
        <ele>1889.800048828125</ele>
        <time>2026-09-01T07:43:24.000Z</time>
        <extensions>
          <ns3:TrackPointExtension>
            <ns3:hr>129</ns3:hr>
            <ns3:cad>0</ns3:cad>
          </ns3:TrackPointExtension>
        </extensions>
      </trkpt>
      <trkpt lat="47.5429907999932765960693359375" lon="11.0021617077291011810302734375">
        <ele>1889.5999755859375</ele>
        <time>2026-09-01T07:43:25.000Z</time>
        <extensions>
          <ns3:TrackPointExtension>
            <ns3:hr>129</ns3:hr>
            <ns3:cad>0</ns3:cad>
          </ns3:TrackPointExtension>
        </extensions>
      </trkpt>
      <trkpt lat="47.5429837591946125030517578125" lon="11.00215491838753223419189453125">
        <ele>1889.4000244140625</ele>
        <time>2026-09-01T07:43:26.000Z</time>
        <extensions>
          <ns3:TrackPointExtension>
            <ns3:hr>129</ns3:hr>
            <ns3:cad>71</ns3:cad>
          </ns3:TrackPointExtension>
        </extensions>
      </trkpt>
      <trkpt lat="47.54297395236790180206298828125" lon="11.00214955396950244903564453125">
        <ele>1889.4000244140625</ele>
        <time>2026-09-01T07:43:27.000Z</time>
        <extensions>
          <ns3:TrackPointExtension>
            <ns3:hr>130</ns3:hr>
            <ns3:cad>71</ns3:cad>
          </ns3:TrackPointExtension>
        </extensions>
      </trkpt>
      <trkpt lat="47.54296682775020599365234375" lon="11.002144105732440948486328125">
        <ele>1889.4000244140625</ele>
        <time>2026-09-01T07:43:28.000Z</time>
        <extensions>
          <ns3:TrackPointExtension>
            <ns3:hr>130</ns3:hr>
            <ns3:cad>0</ns3:cad>
          </ns3:TrackPointExtension>
        </extensions>
      </trkpt>
      <trkpt lat="47.54296439699828624725341796875" lon="11.00214418955147266387939453125">
        <ele>1889.4000244140625</ele>
        <time>2026-09-01T07:43:29.000Z</time>
        <extensions>
          <ns3:TrackPointExtension>
            <ns3:hr>130</ns3:hr>
            <ns3:cad>0</ns3:cad>
          </ns3:TrackPointExtension>
        </extensions>
      </trkpt>
      <trkpt lat="47.54296012222766876220703125" lon="11.00214578211307525634765625">
        <ele>1889.5999755859375</ele>
        <time>2026-09-01T07:43:30.000Z</time>
        <extensions>
          <ns3:TrackPointExtension>
            <ns3:hr>130</ns3:hr>
            <ns3:cad>0</ns3:cad>
          </ns3:TrackPointExtension>
        </extensions>
      </trkpt>
      <trkpt lat="47.542957104742527008056640625" lon="11.00214821286499500274658203125">
        <ele>1889.5999755859375</ele>
        <time>2026-09-01T07:43:31.000Z</time>
        <extensions>
          <ns3:TrackPointExtension>
            <ns3:hr>129</ns3:hr>
            <ns3:cad>0</ns3:cad>
          </ns3:TrackPointExtension>
        </extensions>
      </trkpt>
      <trkpt lat="47.5429522432386875152587890625" lon="11.00215340964496135711669921875">
        <ele>1889.800048828125</ele>
        <time>2026-09-01T07:43:32.000Z</time>
        <extensions>
          <ns3:TrackPointExtension>
            <ns3:hr>129</ns3:hr>
            <ns3:cad>0</ns3:cad>
          </ns3:TrackPointExtension>
        </extensions>
      </trkpt>
      <trkpt lat="47.54294226877391338348388671875" lon="11.0021543316543102264404296875">
        <ele>1889.5999755859375</ele>
        <time>2026-09-01T07:43:33.000Z</time>
        <extensions>
          <ns3:TrackPointExtension>
            <ns3:hr>128</ns3:hr>
            <ns3:cad>0</ns3:cad>
          </ns3:TrackPointExtension>
        </extensions>
      </trkpt>
      <trkpt lat="47.54292801953852176666259765625" lon="11.002152152359485626220703125">
        <ele>1889.5999755859375</ele>
        <time>2026-09-01T07:43:34.000Z</time>
        <extensions>
          <ns3:TrackPointExtension>
            <ns3:hr>127</ns3:hr>
            <ns3:cad>0</ns3:cad>
          </ns3:TrackPointExtension>
        </extensions>
      </trkpt>
      <trkpt lat="47.542908824980258941650390625" lon="11.002150811254978179931640625">
        <ele>1889.800048828125</ele>
        <time>2026-09-01T07:43:35.000Z</time>
        <extensions>
          <ns3:TrackPointExtension>
            <ns3:hr>125</ns3:hr>
            <ns3:cad>0</ns3:cad>
          </ns3:TrackPointExtension>
        </extensions>
      </trkpt>
      <trkpt lat="47.54288795404136180877685546875" lon="11.0021479614078998565673828125">
        <ele>1889.800048828125</ele>
        <time>2026-09-01T07:43:36.000Z</time>
        <extensions>
          <ns3:TrackPointExtension>
            <ns3:hr>124</ns3:hr>
            <ns3:cad>86</ns3:cad>
          </ns3:TrackPointExtension>
        </extensions>
      </trkpt>
      <trkpt lat="47.5428690947592258453369140625" lon="11.00214502774178981781005859375">
        <ele>1890.199951171875</ele>
        <time>2026-09-01T07:43:37.000Z</time>
        <extensions>
          <ns3:TrackPointExtension>
            <ns3:hr>123</ns3:hr>
            <ns3:cad>86</ns3:cad>
          </ns3:TrackPointExtension>
        </extensions>
      </trkpt>
      <trkpt lat="47.54286247305572032928466796875" lon="11.002099178731441497802734375">
        <ele>1890.5999755859375</ele>
        <time>2026-09-01T07:43:38.000Z</time>
        <extensions>
          <ns3:TrackPointExtension>
            <ns3:hr>122</ns3:hr>
            <ns3:cad>0</ns3:cad>
          </ns3:TrackPointExtension>
        </extensions>
      </trkpt>
      <trkpt lat="47.5428516604006290435791015625" lon="11.002060957252979278564453125">
        <ele>1890.800048828125</ele>
        <time>2026-09-01T07:43:39.000Z</time>
        <extensions>
          <ns3:TrackPointExtension>
            <ns3:hr>122</ns3:hr>
            <ns3:cad>0</ns3:cad>
          </ns3:TrackPointExtension>
        </extensions>
      </trkpt>
      <trkpt lat="47.5428442843258380889892578125" lon="11.00203522481024265289306640625">
        <ele>1891</ele>
        <time>2026-09-01T07:43:40.000Z</time>
        <extensions>
          <ns3:TrackPointExtension>
            <ns3:hr>123</ns3:hr>
            <ns3:cad>0</ns3:cad>
          </ns3:TrackPointExtension>
        </extensions>
      </trkpt>
      <trkpt lat="47.542831711471080780029296875" lon="11.00201125256717205047607421875">
        <ele>1891.199951171875</ele>
        <time>2026-09-01T07:43:41.000Z</time>
        <extensions>
          <ns3:TrackPointExtension>
            <ns3:hr>123</ns3:hr>
            <ns3:cad>0</ns3:cad>
          </ns3:TrackPointExtension>
        </extensions>
      </trkpt>
      <trkpt lat="47.54281796514987945556640625" lon="11.0019947402179241180419921875">
        <ele>1891.4000244140625</ele>
        <time>2026-09-01T07:43:42.000Z</time>
        <extensions>
          <ns3:TrackPointExtension>
            <ns3:hr>124</ns3:hr>
            <ns3:cad>0</ns3:cad>
          </ns3:TrackPointExtension>
        </extensions>
      </trkpt>
      <trkpt lat="47.54279759712517261505126953125" lon="11.001976467669010162353515625">
        <ele>1891.199951171875</ele>
        <time>2026-09-01T07:43:43.000Z</time>
        <extensions>
          <ns3:TrackPointExtension>
            <ns3:hr>124</ns3:hr>
            <ns3:cad>0</ns3:cad>
          </ns3:TrackPointExtension>
        </extensions>
      </trkpt>
      <trkpt lat="47.54278083331882953643798828125" lon="11.0019605420529842376708984375">
        <ele>1891</ele>
        <time>2026-09-01T07:43:44.000Z</time>
        <extensions>
          <ns3:TrackPointExtension>
            <ns3:hr>124</ns3:hr>
            <ns3:cad>0</ns3:cad>
          </ns3:TrackPointExtension>
        </extensions>
      </trkpt>
      <trkpt lat="47.5427594594657421112060546875" lon="11.001935563981533050537109375">
        <ele>1890.5999755859375</ele>
        <time>2026-09-01T07:43:45.000Z</time>
        <extensions>
          <ns3:TrackPointExtension>
            <ns3:hr>123</ns3:hr>
            <ns3:cad>0</ns3:cad>
          </ns3:TrackPointExtension>
        </extensions>
      </trkpt>
      <trkpt lat="47.54275049082934856414794921875" lon="11.00192776881158351898193359375">
        <ele>1890.4000244140625</ele>
        <time>2026-09-01T07:43:46.000Z</time>
        <extensions>
          <ns3:TrackPointExtension>
            <ns3:hr>123</ns3:hr>
            <ns3:cad>0</ns3:cad>
          </ns3:TrackPointExtension>
        </extensions>
      </trkpt>
      <trkpt lat="47.54274227656424045562744140625" lon="11.00192843936383724212646484375">
        <ele>1890.199951171875</ele>
        <time>2026-09-01T07:43:47.000Z</time>
        <extensions>
          <ns3:TrackPointExtension>
            <ns3:hr>123</ns3:hr>
            <ns3:cad>0</ns3:cad>
          </ns3:TrackPointExtension>
        </extensions>
      </trkpt>
      <trkpt lat="47.54273590631783008575439453125" lon="11.00193145684897899627685546875">
        <ele>1890</ele>
        <time>2026-09-01T07:43:48.000Z</time>
        <extensions>
          <ns3:TrackPointExtension>
            <ns3:hr>123</ns3:hr>
            <ns3:cad>0</ns3:cad>
          </ns3:TrackPointExtension>
        </extensions>
      </trkpt>
      <trkpt lat="47.54272400401532649993896484375" lon="11.00193480961024761199951171875">
        <ele>1889.800048828125</ele>
        <time>2026-09-01T07:43:49.000Z</time>
        <extensions>
          <ns3:TrackPointExtension>
            <ns3:hr>123</ns3:hr>
            <ns3:cad>0</ns3:cad>
          </ns3:TrackPointExtension>
        </extensions>
      </trkpt>
      <trkpt lat="47.5427121855318546295166015625" lon="11.0019293613731861114501953125">
        <ele>1889.5999755859375</ele>
        <time>2026-09-01T07:43:50.000Z</time>
        <extensions>
          <ns3:TrackPointExtension>
            <ns3:hr>123</ns3:hr>
            <ns3:cad>0</ns3:cad>
          </ns3:TrackPointExtension>
        </extensions>
      </trkpt>
      <trkpt lat="47.5427081622183322906494140625" lon="11.00190983153879642486572265625">
        <ele>1889.199951171875</ele>
        <time>2026-09-01T07:43:51.000Z</time>
        <extensions>
          <ns3:TrackPointExtension>
            <ns3:hr>124</ns3:hr>
            <ns3:cad>0</ns3:cad>
          </ns3:TrackPointExtension>
        </extensions>
      </trkpt>
      <trkpt lat="47.5427024625241756439208984375" lon="11.00189357064664363861083984375">
        <ele>1888.4000244140625</ele>
        <time>2026-09-01T07:43:52.000Z</time>
        <extensions>
          <ns3:TrackPointExtension>
            <ns3:hr>124</ns3:hr>
            <ns3:cad>0</ns3:cad>
          </ns3:TrackPointExtension>
        </extensions>
      </trkpt>
      <trkpt lat="47.5426984392106533050537109375" lon="11.00188217125833034515380859375">
        <ele>1888</ele>
        <time>2026-09-01T07:43:53.000Z</time>
        <extensions>
          <ns3:TrackPointExtension>
            <ns3:hr>123</ns3:hr>
            <ns3:cad>0</ns3:cad>
          </ns3:TrackPointExtension>
        </extensions>
      </trkpt>
      <trkpt lat="47.542696259915828704833984375" lon="11.001857779920101165771484375">
        <ele>1886.800048828125</ele>
        <time>2026-09-01T07:43:54.000Z</time>
        <extensions>
          <ns3:TrackPointExtension>
            <ns3:hr>122</ns3:hr>
            <ns3:cad>0</ns3:cad>
          </ns3:TrackPointExtension>
        </extensions>
      </trkpt>
      <trkpt lat="47.54268410615622997283935546875" lon="11.0018341429531574249267578125">
        <ele>1886.4000244140625</ele>
        <time>2026-09-01T07:43:55.000Z</time>
        <extensions>
          <ns3:TrackPointExtension>
            <ns3:hr>122</ns3:hr>
            <ns3:cad>0</ns3:cad>
          </ns3:TrackPointExtension>
        </extensions>
      </trkpt>
      <trkpt lat="47.54266097210347652435302734375" lon="11.0017908923327922821044921875">
        <ele>1885.5999755859375</ele>
        <time>2026-09-01T07:43:56.000Z</time>
        <extensions>
          <ns3:TrackPointExtension>
            <ns3:hr>122</ns3:hr>
            <ns3:cad>0</ns3:cad>
          </ns3:TrackPointExtension>
        </extensions>
      </trkpt>
      <trkpt lat="47.54263683222234249114990234375" lon="11.00177722983062267303466796875">
        <ele>1884.800048828125</ele>
        <time>2026-09-01T07:43:57.000Z</time>
        <extensions>
          <ns3:TrackPointExtension>
            <ns3:hr>121</ns3:hr>
            <ns3:cad>0</ns3:cad>
          </ns3:TrackPointExtension>
        </extensions>
      </trkpt>
      <trkpt lat="47.54261923022568225860595703125" lon="11.00176515989005565643310546875">
        <ele>1885</ele>
        <time>2026-09-01T07:43:58.000Z</time>
        <extensions>
          <ns3:TrackPointExtension>
            <ns3:hr>120</ns3:hr>
            <ns3:cad>85</ns3:cad>
          </ns3:TrackPointExtension>
        </extensions>
      </trkpt>
      <trkpt lat="47.54261101596057415008544921875" lon="11.001775301992893218994140625">
        <ele>1885.4000244140625</ele>
        <time>2026-09-01T07:43:59.000Z</time>
        <extensions>
          <ns3:TrackPointExtension>
            <ns3:hr>119</ns3:hr>
            <ns3:cad>85</ns3:cad>
          </ns3:TrackPointExtension>
        </extensions>
      </trkpt>
      <trkpt lat="47.5425965152680873870849609375" lon="11.0017816722393035888671875">
        <ele>1885.5999755859375</ele>
        <time>2026-09-01T07:44:00.000Z</time>
        <extensions>
          <ns3:TrackPointExtension>
            <ns3:hr>119</ns3:hr>
            <ns3:cad>85</ns3:cad>
          </ns3:TrackPointExtension>
        </extensions>
      </trkpt>
      <trkpt lat="47.542586289346218109130859375" lon="11.00178812630474567413330078125">
        <ele>1885.800048828125</ele>
        <time>2026-09-01T07:44:01.000Z</time>
        <extensions>
          <ns3:TrackPointExtension>
            <ns3:hr>120</ns3:hr>
            <ns3:cad>81</ns3:cad>
          </ns3:TrackPointExtension>
        </extensions>
      </trkpt>
      <trkpt lat="47.54257698543369770050048828125" lon="11.00177991203963756561279296875">
        <ele>1886</ele>
        <time>2026-09-01T07:44:02.000Z</time>
        <extensions>
          <ns3:TrackPointExtension>
            <ns3:hr>120</ns3:hr>
            <ns3:cad>81</ns3:cad>
          </ns3:TrackPointExtension>
        </extensions>
      </trkpt>
      <trkpt lat="47.54257229156792163848876953125" lon="11.0017811693251132965087890625">
        <ele>1886</ele>
        <time>2026-09-01T07:44:03.000Z</time>
        <extensions>
          <ns3:TrackPointExtension>
            <ns3:hr>119</ns3:hr>
            <ns3:cad>81</ns3:cad>
          </ns3:TrackPointExtension>
        </extensions>
      </trkpt>
      <trkpt lat="47.5425643287599086761474609375" lon="11.0017872042953968048095703125">
        <ele>1885.800048828125</ele>
        <time>2026-09-01T07:44:04.000Z</time>
        <extensions>
          <ns3:TrackPointExtension>
            <ns3:hr>119</ns3:hr>
            <ns3:cad>81</ns3:cad>
          </ns3:TrackPointExtension>
        </extensions>
      </trkpt>
      <trkpt lat="47.54255334846675395965576171875" lon="11.00178862921893596649169921875">
        <ele>1885.5999755859375</ele>
        <time>2026-09-01T07:44:05.000Z</time>
        <extensions>
          <ns3:TrackPointExtension>
            <ns3:hr>118</ns3:hr>
            <ns3:cad>81</ns3:cad>
          </ns3:TrackPointExtension>
        </extensions>
      </trkpt>
      <trkpt lat="47.54254731349647045135498046875" lon="11.00178913213312625885009765625">
        <ele>1885.199951171875</ele>
        <time>2026-09-01T07:44:06.000Z</time>
        <extensions>
          <ns3:TrackPointExtension>
            <ns3:hr>117</ns3:hr>
            <ns3:cad>72</ns3:cad>
          </ns3:TrackPointExtension>
        </extensions>
      </trkpt>
      <trkpt lat="47.542541027069091796875" lon="11.0017704404890537261962890625">
        <ele>1884.800048828125</ele>
        <time>2026-09-01T07:44:07.000Z</time>
        <extensions>
          <ns3:TrackPointExtension>
            <ns3:hr>117</ns3:hr>
            <ns3:cad>72</ns3:cad>
          </ns3:TrackPointExtension>
        </extensions>
      </trkpt>
      <trkpt lat="47.5425301305949687957763671875" lon="11.00176214240491390228271484375">
        <ele>1884.5999755859375</ele>
        <time>2026-09-01T07:44:08.000Z</time>
        <extensions>
          <ns3:TrackPointExtension>
            <ns3:hr>117</ns3:hr>
            <ns3:cad>0</ns3:cad>
          </ns3:TrackPointExtension>
        </extensions>
      </trkpt>
      <trkpt lat="47.54251227714121341705322265625" lon="11.001757867634296417236328125">
        <ele>1883.4000244140625</ele>
        <time>2026-09-01T07:44:09.000Z</time>
        <extensions>
          <ns3:TrackPointExtension>
            <ns3:hr>116</ns3:hr>
            <ns3:cad>0</ns3:cad>
          </ns3:TrackPointExtension>
        </extensions>
      </trkpt>
      <trkpt lat="47.5425033085048198699951171875" lon="11.00175661034882068634033203125">
        <ele>1882.5999755859375</ele>
        <time>2026-09-01T07:44:10.000Z</time>
        <extensions>
          <ns3:TrackPointExtension>
            <ns3:hr>116</ns3:hr>
            <ns3:cad>0</ns3:cad>
          </ns3:TrackPointExtension>
        </extensions>
      </trkpt>
      <trkpt lat="47.54249718971550464630126953125" lon="11.00175292231142520904541015625">
        <ele>1881.800048828125</ele>
        <time>2026-09-01T07:44:11.000Z</time>
        <extensions>
          <ns3:TrackPointExtension>
            <ns3:hr>115</ns3:hr>
            <ns3:cad>0</ns3:cad>
          </ns3:TrackPointExtension>
        </extensions>
      </trkpt>
      <trkpt lat="47.5424914062023162841796875" lon="11.0017395950853824615478515625">
        <ele>1881</ele>
        <time>2026-09-01T07:44:12.000Z</time>
        <extensions>
          <ns3:TrackPointExtension>
            <ns3:hr>115</ns3:hr>
            <ns3:cad>0</ns3:cad>
          </ns3:TrackPointExtension>
        </extensions>
      </trkpt>
      <trkpt lat="47.5424858741462230682373046875" lon="11.00173230282962322235107421875">
        <ele>1880.5999755859375</ele>
        <time>2026-09-01T07:44:13.000Z</time>
        <extensions>
          <ns3:TrackPointExtension>
            <ns3:hr>115</ns3:hr>
            <ns3:cad>0</ns3:cad>
          </ns3:TrackPointExtension>
        </extensions>
      </trkpt>
      <trkpt lat="47.54248009063303470611572265625" lon="11.00171688012778759002685546875">
        <ele>1880</ele>
        <time>2026-09-01T07:44:14.000Z</time>
        <extensions>
          <ns3:TrackPointExtension>
            <ns3:hr>115</ns3:hr>
            <ns3:cad>0</ns3:cad>
          </ns3:TrackPointExtension>
        </extensions>
      </trkpt>
      <trkpt lat="47.54248159937560558319091796875" lon="11.00169919431209564208984375">
        <ele>1879.800048828125</ele>
        <time>2026-09-01T07:44:15.000Z</time>
        <extensions>
          <ns3:TrackPointExtension>
            <ns3:hr>115</ns3:hr>
            <ns3:cad>0</ns3:cad>
          </ns3:TrackPointExtension>
        </extensions>
      </trkpt>
      <trkpt lat="47.54248193465173244476318359375" lon="11.001675389707088470458984375">
        <ele>1879.4000244140625</ele>
        <time>2026-09-01T07:44:16.000Z</time>
        <extensions>
          <ns3:TrackPointExtension>
            <ns3:hr>115</ns3:hr>
            <ns3:cad>90</ns3:cad>
          </ns3:TrackPointExtension>
        </extensions>
      </trkpt>
      <trkpt lat="47.5424815155565738677978515625" lon="11.00164278410375118255615234375">
        <ele>1878.800048828125</ele>
        <time>2026-09-01T07:44:17.000Z</time>
        <extensions>
          <ns3:TrackPointExtension>
            <ns3:hr>115</ns3:hr>
            <ns3:cad>90</ns3:cad>
          </ns3:TrackPointExtension>
        </extensions>
      </trkpt>
      <trkpt lat="47.5424784980714321136474609375" lon="11.001615040004253387451171875">
        <ele>1878.199951171875</ele>
        <time>2026-09-01T07:44:18.000Z</time>
        <extensions>
          <ns3:TrackPointExtension>
            <ns3:hr>115</ns3:hr>
            <ns3:cad>90</ns3:cad>
          </ns3:TrackPointExtension>
        </extensions>
      </trkpt>
      <trkpt lat="47.54243977367877960205078125" lon="11.0016081668436527252197265625">
        <ele>1877.4000244140625</ele>
        <time>2026-09-01T07:44:19.000Z</time>
        <extensions>
          <ns3:TrackPointExtension>
            <ns3:hr>114</ns3:hr>
            <ns3:cad>90</ns3:cad>
          </ns3:TrackPointExtension>
        </extensions>
      </trkpt>
      <trkpt lat="47.542421333491802215576171875" lon="11.00159458816051483154296875">
        <ele>1876.4000244140625</ele>
        <time>2026-09-01T07:44:20.000Z</time>
        <extensions>
          <ns3:TrackPointExtension>
            <ns3:hr>114</ns3:hr>
            <ns3:cad>0</ns3:cad>
          </ns3:TrackPointExtension>
        </extensions>
      </trkpt>
      <trkpt lat="47.54240968264639377593994140625" lon="11.00158411078155040740966796875">
        <ele>1876</ele>
        <time>2026-09-01T07:44:21.000Z</time>
        <extensions>
          <ns3:TrackPointExtension>
            <ns3:hr>114</ns3:hr>
            <ns3:cad>0</ns3:cad>
          </ns3:TrackPointExtension>
        </extensions>
      </trkpt>
      <trkpt lat="47.5423832796514034271240234375" lon="11.00155376829206943511962890625">
        <ele>1875.4000244140625</ele>
        <time>2026-09-01T07:44:22.000Z</time>
        <extensions>
          <ns3:TrackPointExtension>
            <ns3:hr>114</ns3:hr>
            <ns3:cad>0</ns3:cad>
          </ns3:TrackPointExtension>
        </extensions>
      </trkpt>
      <trkpt lat="47.5423812679946422576904296875" lon="11.00154438056051731109619140625">
        <ele>1875.199951171875</ele>
        <time>2026-09-01T07:44:23.000Z</time>
        <extensions>
          <ns3:TrackPointExtension>
            <ns3:hr>114</ns3:hr>
            <ns3:cad>0</ns3:cad>
          </ns3:TrackPointExtension>
        </extensions>
      </trkpt>
      <trkpt lat="47.542372383177280426025390625" lon="11.0015297122299671173095703125">
        <ele>1875.4000244140625</ele>
        <time>2026-09-01T07:44:24.000Z</time>
        <extensions>
          <ns3:TrackPointExtension>
            <ns3:hr>114</ns3:hr>
            <ns3:cad>85</ns3:cad>
          </ns3:TrackPointExtension>
        </extensions>
      </trkpt>
      <trkpt lat="47.54234631545841693878173828125" lon="11.00151118822395801544189453125">
        <ele>1875.800048828125</ele>
        <time>2026-09-01T07:44:25.000Z</time>
        <extensions>
          <ns3:TrackPointExtension>
            <ns3:hr>113</ns3:hr>
            <ns3:cad>85</ns3:cad>
          </ns3:TrackPointExtension>
        </extensions>
      </trkpt>
      <trkpt lat="47.54233114421367645263671875" lon="11.00149207748472690582275390625">
        <ele>1876</ele>
        <time>2026-09-01T07:44:26.000Z</time>
        <extensions>
          <ns3:TrackPointExtension>
            <ns3:hr>113</ns3:hr>
            <ns3:cad>85</ns3:cad>
          </ns3:TrackPointExtension>
        </extensions>
      </trkpt>
      <trkpt lat="47.5423168949782848358154296875" lon="11.00147816352546215057373046875">
        <ele>1876.199951171875</ele>
        <time>2026-09-01T07:44:27.000Z</time>
        <extensions>
          <ns3:TrackPointExtension>
            <ns3:hr>112</ns3:hr>
            <ns3:cad>85</ns3:cad>
          </ns3:TrackPointExtension>
        </extensions>
      </trkpt>
      <trkpt lat="47.54229669459164142608642578125" lon="11.0014517605304718017578125">
        <ele>1876.4000244140625</ele>
        <time>2026-09-01T07:44:28.000Z</time>
        <extensions>
          <ns3:TrackPointExtension>
            <ns3:hr>112</ns3:hr>
            <ns3:cad>85</ns3:cad>
          </ns3:TrackPointExtension>
        </extensions>
      </trkpt>
      <trkpt lat="47.54227540455758571624755859375" lon="11.0014428757131099700927734375">
        <ele>1876.199951171875</ele>
        <time>2026-09-01T07:44:29.000Z</time>
        <extensions>
          <ns3:TrackPointExtension>
            <ns3:hr>112</ns3:hr>
            <ns3:cad>85</ns3:cad>
          </ns3:TrackPointExtension>
        </extensions>
      </trkpt>
      <trkpt lat="47.542264759540557861328125" lon="11.001425273716449737548828125">
        <ele>1876</ele>
        <time>2026-09-01T07:44:30.000Z</time>
        <extensions>
          <ns3:TrackPointExtension>
            <ns3:hr>112</ns3:hr>
            <ns3:cad>85</ns3:cad>
          </ns3:TrackPointExtension>
        </extensions>
      </trkpt>
      <trkpt lat="47.5422518514096736907958984375" lon="11.001411862671375274658203125">
        <ele>1876</ele>
        <time>2026-09-01T07:44:31.000Z</time>
        <extensions>
          <ns3:TrackPointExtension>
            <ns3:hr>113</ns3:hr>
            <ns3:cad>85</ns3:cad>
          </ns3:TrackPointExtension>
        </extensions>
      </trkpt>
      <trkpt lat="47.542241625487804412841796875" lon="11.001397781074047088623046875">
        <ele>1875.800048828125</ele>
        <time>2026-09-01T07:44:32.000Z</time>
        <extensions>
          <ns3:TrackPointExtension>
            <ns3:hr>113</ns3:hr>
            <ns3:cad>85</ns3:cad>
          </ns3:TrackPointExtension>
        </extensions>
      </trkpt>
      <trkpt lat="47.54222360439598560333251953125" lon="11.00138805806636810302734375">
        <ele>1875.800048828125</ele>
        <time>2026-09-01T07:44:33.000Z</time>
        <extensions>
          <ns3:TrackPointExtension>
            <ns3:hr>113</ns3:hr>
            <ns3:cad>85</ns3:cad>
          </ns3:TrackPointExtension>
        </extensions>
      </trkpt>
      <trkpt lat="47.54221580922603607177734375" lon="11.0013855434954166412353515625">
        <ele>1875.800048828125</ele>
        <time>2026-09-01T07:44:34.000Z</time>
        <extensions>
          <ns3:TrackPointExtension>
            <ns3:hr>113</ns3:hr>
            <ns3:cad>85</ns3:cad>
          </ns3:TrackPointExtension>
        </extensions>
      </trkpt>
      <trkpt lat="47.54221178591251373291015625" lon="11.001377664506435394287109375">
        <ele>1875.5999755859375</ele>
        <time>2026-09-01T07:44:35.000Z</time>
        <extensions>
          <ns3:TrackPointExtension>
            <ns3:hr>113</ns3:hr>
            <ns3:cad>85</ns3:cad>
          </ns3:TrackPointExtension>
        </extensions>
      </trkpt>
      <trkpt lat="47.5422149710357189178466796875" lon="11.00135964341461658477783203125">
        <ele>1875.4000244140625</ele>
        <time>2026-09-01T07:44:36.000Z</time>
        <extensions>
          <ns3:TrackPointExtension>
            <ns3:hr>113</ns3:hr>
            <ns3:cad>85</ns3:cad>
          </ns3:TrackPointExtension>
        </extensions>
      </trkpt>
      <trkpt lat="47.542209438979625701904296875" lon="11.00134606473147869110107421875">
        <ele>1875.199951171875</ele>
        <time>2026-09-01T07:44:37.000Z</time>
        <extensions>
          <ns3:TrackPointExtension>
            <ns3:hr>114</ns3:hr>
            <ns3:cad>85</ns3:cad>
          </ns3:TrackPointExtension>
        </extensions>
      </trkpt>
      <trkpt lat="47.54220239818096160888671875" lon="11.0013231821358203887939453125">
        <ele>1874.5999755859375</ele>
        <time>2026-09-01T07:44:38.000Z</time>
        <extensions>
          <ns3:TrackPointExtension>
            <ns3:hr>113</ns3:hr>
            <ns3:cad>78</ns3:cad>
          </ns3:TrackPointExtension>
        </extensions>
      </trkpt>
      <trkpt lat="47.5421864725649356842041015625" lon="11.0013070888817310333251953125">
        <ele>1873.800048828125</ele>
        <time>2026-09-01T07:44:39.000Z</time>
        <extensions>
          <ns3:TrackPointExtension>
            <ns3:hr>113</ns3:hr>
            <ns3:cad>78</ns3:cad>
          </ns3:TrackPointExtension>
        </extensions>
      </trkpt>
      <trkpt lat="47.54217079840600490570068359375" lon="11.00129275582730770111083984375">
        <ele>1872.800048828125</ele>
        <time>2026-09-01T07:44:40.000Z</time>
        <extensions>
          <ns3:TrackPointExtension>
            <ns3:hr>114</ns3:hr>
            <ns3:cad>78</ns3:cad>
          </ns3:TrackPointExtension>
        </extensions>
      </trkpt>
      <trkpt lat="47.5421552918851375579833984375" lon="11.0012899897992610931396484375">
        <ele>1872</ele>
        <time>2026-09-01T07:44:41.000Z</time>
        <extensions>
          <ns3:TrackPointExtension>
            <ns3:hr>113</ns3:hr>
            <ns3:cad>78</ns3:cad>
          </ns3:TrackPointExtension>
        </extensions>
      </trkpt>
      <trkpt lat="47.54213928245007991790771484375" lon="11.0012852959334850311279296875">
        <ele>1871.4000244140625</ele>
        <time>2026-09-01T07:44:42.000Z</time>
        <extensions>
          <ns3:TrackPointExtension>
            <ns3:hr>113</ns3:hr>
            <ns3:cad>41</ns3:cad>
          </ns3:TrackPointExtension>
        </extensions>
      </trkpt>
      <trkpt lat="47.54213056527078151702880859375" lon="11.00128454156219959259033203125">
        <ele>1870.800048828125</ele>
        <time>2026-09-01T07:44:43.000Z</time>
        <extensions>
          <ns3:TrackPointExtension>
            <ns3:hr>113</ns3:hr>
            <ns3:cad>41</ns3:cad>
          </ns3:TrackPointExtension>
        </extensions>
      </trkpt>
      <trkpt lat="47.54212461411952972412109375" lon="11.00128336809575557708740234375">
        <ele>1870.4000244140625</ele>
        <time>2026-09-01T07:44:44.000Z</time>
        <extensions>
          <ns3:TrackPointExtension>
            <ns3:hr>113</ns3:hr>
            <ns3:cad>40</ns3:cad>
          </ns3:TrackPointExtension>
        </extensions>
      </trkpt>
      <trkpt lat="47.54211329855024814605712890625" lon="11.00127615965902805328369140625">
        <ele>1870.199951171875</ele>
        <time>2026-09-01T07:44:45.000Z</time>
        <extensions>
          <ns3:TrackPointExtension>
            <ns3:hr>113</ns3:hr>
            <ns3:cad>40</ns3:cad>
          </ns3:TrackPointExtension>
        </extensions>
      </trkpt>
      <trkpt lat="47.5420998036861419677734375" lon="11.00126744247972965240478515625">
        <ele>1869.800048828125</ele>
        <time>2026-09-01T07:44:46.000Z</time>
        <extensions>
          <ns3:TrackPointExtension>
            <ns3:hr>113</ns3:hr>
            <ns3:cad>40</ns3:cad>
          </ns3:TrackPointExtension>
        </extensions>
      </trkpt>
      <trkpt lat="47.542092092335224151611328125" lon="11.00126476027071475982666015625">
        <ele>1869.4000244140625</ele>
        <time>2026-09-01T07:44:47.000Z</time>
        <extensions>
          <ns3:TrackPointExtension>
            <ns3:hr>113</ns3:hr>
            <ns3:cad>83</ns3:cad>
          </ns3:TrackPointExtension>
        </extensions>
      </trkpt>
      <trkpt lat="47.5420832075178623199462890625" lon="11.0012591443955898284912109375">
        <ele>1869</ele>
        <time>2026-09-01T07:44:48.000Z</time>
        <extensions>
          <ns3:TrackPointExtension>
            <ns3:hr>113</ns3:hr>
            <ns3:cad>85</ns3:cad>
          </ns3:TrackPointExtension>
        </extensions>
      </trkpt>
      <trkpt lat="47.54206904210150241851806640625" lon="11.001243889331817626953125">
        <ele>1868.5999755859375</ele>
        <time>2026-09-01T07:44:49.000Z</time>
        <extensions>
          <ns3:TrackPointExtension>
            <ns3:hr>113</ns3:hr>
            <ns3:cad>85</ns3:cad>
          </ns3:TrackPointExtension>
        </extensions>
      </trkpt>
      <trkpt lat="47.54204808734357357025146484375" lon="11.001232825219631195068359375">
        <ele>1868.199951171875</ele>
        <time>2026-09-01T07:44:50.000Z</time>
        <extensions>
          <ns3:TrackPointExtension>
            <ns3:hr>112</ns3:hr>
            <ns3:cad>85</ns3:cad>
          </ns3:TrackPointExtension>
        </extensions>
      </trkpt>
      <trkpt lat="47.5420245341956615447998046875" lon="11.00121346302330493927001953125">
        <ele>1867.800048828125</ele>
        <time>2026-09-01T07:44:51.000Z</time>
        <extensions>
          <ns3:TrackPointExtension>
            <ns3:hr>112</ns3:hr>
            <ns3:cad>88</ns3:cad>
          </ns3:TrackPointExtension>
        </extensions>
      </trkpt>
      <trkpt lat="47.54199695773422718048095703125" lon="11.0011944361031055450439453125">
        <ele>1867.4000244140625</ele>
        <time>2026-09-01T07:44:52.000Z</time>
        <extensions>
          <ns3:TrackPointExtension>
            <ns3:hr>111</ns3:hr>
            <ns3:cad>88</ns3:cad>
          </ns3:TrackPointExtension>
        </extensions>
      </trkpt>
      <trkpt lat="47.54197843372821807861328125" lon="11.00117616355419158935546875">
        <ele>1867</ele>
        <time>2026-09-01T07:44:53.000Z</time>
        <extensions>
          <ns3:TrackPointExtension>
            <ns3:hr>110</ns3:hr>
            <ns3:cad>88</ns3:cad>
          </ns3:TrackPointExtension>
        </extensions>
      </trkpt>
      <trkpt lat="47.54196259193122386932373046875" lon="11.00115663371980190277099609375">
        <ele>1866.800048828125</ele>
        <time>2026-09-01T07:44:54.000Z</time>
        <extensions>
          <ns3:TrackPointExtension>
            <ns3:hr>110</ns3:hr>
            <ns3:cad>88</ns3:cad>
          </ns3:TrackPointExtension>
        </extensions>
      </trkpt>
      <trkpt lat="47.5419504381716251373291015625" lon="11.00114238448441028594970703125">
        <ele>1866.800048828125</ele>
        <time>2026-09-01T07:44:55.000Z</time>
        <extensions>
          <ns3:TrackPointExtension>
            <ns3:hr>110</ns3:hr>
            <ns3:cad>79</ns3:cad>
          </ns3:TrackPointExtension>
        </extensions>
      </trkpt>
      <trkpt lat="47.54193476401269435882568359375" lon="11.001122854650020599365234375">
        <ele>1866.5999755859375</ele>
        <time>2026-09-01T07:44:56.000Z</time>
        <extensions>
          <ns3:TrackPointExtension>
            <ns3:hr>110</ns3:hr>
            <ns3:cad>79</ns3:cad>
          </ns3:TrackPointExtension>
        </extensions>
      </trkpt>
      <trkpt lat="47.541925124824047088623046875" lon="11.0010896623134613037109375">
        <ele>1866.4000244140625</ele>
        <time>2026-09-01T07:44:57.000Z</time>
        <extensions>
          <ns3:TrackPointExtension>
            <ns3:hr>111</ns3:hr>
            <ns3:cad>79</ns3:cad>
          </ns3:TrackPointExtension>
        </extensions>
      </trkpt>
      <trkpt lat="47.54191984422504901885986328125" lon="11.00106946192681789398193359375">
        <ele>1866</ele>
        <time>2026-09-01T07:44:58.000Z</time>
        <extensions>
          <ns3:TrackPointExtension>
            <ns3:hr>112</ns3:hr>
            <ns3:cad>79</ns3:cad>
          </ns3:TrackPointExtension>
        </extensions>
      </trkpt>
      <trkpt lat="47.541916072368621826171875" lon="11.0010385327041149139404296875">
        <ele>1865.800048828125</ele>
        <time>2026-09-01T07:44:59.000Z</time>
        <extensions>
          <ns3:TrackPointExtension>
            <ns3:hr>114</ns3:hr>
            <ns3:cad>79</ns3:cad>
          </ns3:TrackPointExtension>
        </extensions>
      </trkpt>
      <trkpt lat="47.5419185869395732879638671875" lon="11.001012213528156280517578125">
        <ele>1865.800048828125</ele>
        <time>2026-09-01T07:45:00.000Z</time>
        <extensions>
          <ns3:TrackPointExtension>
            <ns3:hr>116</ns3:hr>
            <ns3:cad>79</ns3:cad>
          </ns3:TrackPointExtension>
        </extensions>
      </trkpt>
      <trkpt lat="47.5419145636260509490966796875" lon="11.00099151022732257843017578125">
        <ele>1865.800048828125</ele>
        <time>2026-09-01T07:45:01.000Z</time>
        <extensions>
          <ns3:TrackPointExtension>
            <ns3:hr>117</ns3:hr>
            <ns3:cad>79</ns3:cad>
          </ns3:TrackPointExtension>
        </extensions>
      </trkpt>
      <trkpt lat="47.54190810956060886383056640625" lon="11.00097776390612125396728515625">
        <ele>1866</ele>
        <time>2026-09-01T07:45:02.000Z</time>
        <extensions>
          <ns3:TrackPointExtension>
            <ns3:hr>118</ns3:hr>
            <ns3:cad>79</ns3:cad>
          </ns3:TrackPointExtension>
        </extensions>
      </trkpt>
      <trkpt lat="47.5419058464467525482177734375" lon="11.000963933765888214111328125">
        <ele>1866.4000244140625</ele>
        <time>2026-09-01T07:45:03.000Z</time>
        <extensions>
          <ns3:TrackPointExtension>
            <ns3:hr>119</ns3:hr>
            <ns3:cad>79</ns3:cad>
          </ns3:TrackPointExtension>
        </extensions>
      </trkpt>
      <trkpt lat="47.5418988056480884552001953125" lon="11.000948846340179443359375">
        <ele>1866.800048828125</ele>
        <time>2026-09-01T07:45:04.000Z</time>
        <extensions>
          <ns3:TrackPointExtension>
            <ns3:hr>120</ns3:hr>
            <ns3:cad>79</ns3:cad>
          </ns3:TrackPointExtension>
        </extensions>
      </trkpt>
      <trkpt lat="47.54189486615359783172607421875" lon="11.000935770571231842041015625">
        <ele>1867</ele>
        <time>2026-09-01T07:45:05.000Z</time>
        <extensions>
          <ns3:TrackPointExtension>
            <ns3:hr>120</ns3:hr>
            <ns3:cad>79</ns3:cad>
          </ns3:TrackPointExtension>
        </extensions>
      </trkpt>
      <trkpt lat="47.541887573897838592529296875" lon="11.00092495791614055633544921875">
        <ele>1867.5999755859375</ele>
        <time>2026-09-01T07:45:06.000Z</time>
        <extensions>
          <ns3:TrackPointExtension>
            <ns3:hr>121</ns3:hr>
            <ns3:cad>79</ns3:cad>
          </ns3:TrackPointExtension>
        </extensions>
      </trkpt>
      <trkpt lat="47.5418820418417453765869140625" lon="11.00091305561363697052001953125">
        <ele>1868</ele>
        <time>2026-09-01T07:45:07.000Z</time>
        <extensions>
          <ns3:TrackPointExtension>
            <ns3:hr>121</ns3:hr>
            <ns3:cad>79</ns3:cad>
          </ns3:TrackPointExtension>
        </extensions>
      </trkpt>
      <trkpt lat="47.5418672896921634674072265625" lon="11.000897549092769622802734375">
        <ele>1868.4000244140625</ele>
        <time>2026-09-01T07:45:08.000Z</time>
        <extensions>
          <ns3:TrackPointExtension>
            <ns3:hr>120</ns3:hr>
            <ns3:cad>0</ns3:cad>
          </ns3:TrackPointExtension>
        </extensions>
      </trkpt>
      <trkpt lat="47.54184993915259838104248046875" lon="11.0008843056857585906982421875">
        <ele>1868.5999755859375</ele>
        <time>2026-09-01T07:45:09.000Z</time>
        <extensions>
          <ns3:TrackPointExtension>
            <ns3:hr>120</ns3:hr>
            <ns3:cad>0</ns3:cad>
          </ns3:TrackPointExtension>
        </extensions>
      </trkpt>
      <trkpt lat="47.54184029996395111083984375" lon="11.00087131373584270477294921875">
        <ele>1868.5999755859375</ele>
        <time>2026-09-01T07:45:10.000Z</time>
        <extensions>
          <ns3:TrackPointExtension>
            <ns3:hr>119</ns3:hr>
            <ns3:cad>0</ns3:cad>
          </ns3:TrackPointExtension>
        </extensions>
      </trkpt>
      <trkpt lat="47.54182915203273296356201171875" lon="11.00085672922432422637939453125">
        <ele>1868.800048828125</ele>
        <time>2026-09-01T07:45:11.000Z</time>
        <extensions>
          <ns3:TrackPointExtension>
            <ns3:hr>119</ns3:hr>
            <ns3:cad>0</ns3:cad>
          </ns3:TrackPointExtension>
        </extensions>
      </trkpt>
      <trkpt lat="47.54182898439466953277587890625" lon="11.000845916569232940673828125">
        <ele>1868.800048828125</ele>
        <time>2026-09-01T07:45:12.000Z</time>
        <extensions>
          <ns3:TrackPointExtension>
            <ns3:hr>118</ns3:hr>
            <ns3:cad>0</ns3:cad>
          </ns3:TrackPointExtension>
        </extensions>
      </trkpt>
      <trkpt lat="47.54182244651019573211669921875" lon="11.0008294880390167236328125">
        <ele>1868.5999755859375</ele>
        <time>2026-09-01T07:45:13.000Z</time>
        <extensions>
          <ns3:TrackPointExtension>
            <ns3:hr>118</ns3:hr>
            <ns3:cad>70</ns3:cad>
          </ns3:TrackPointExtension>
        </extensions>
      </trkpt>
      <trkpt lat="47.54180836491286754608154296875" lon="11.00081942975521087646484375">
        <ele>1868.4000244140625</ele>
        <time>2026-09-01T07:45:14.000Z</time>
        <extensions>
          <ns3:TrackPointExtension>
            <ns3:hr>118</ns3:hr>
            <ns3:cad>70</ns3:cad>
          </ns3:TrackPointExtension>
        </extensions>
      </trkpt>
      <trkpt lat="47.541799731552600860595703125" lon="11.00080627016723155975341796875">
        <ele>1868.199951171875</ele>
        <time>2026-09-01T07:45:15.000Z</time>
        <extensions>
          <ns3:TrackPointExtension>
            <ns3:hr>118</ns3:hr>
            <ns3:cad>70</ns3:cad>
          </ns3:TrackPointExtension>
        </extensions>
      </trkpt>
      <trkpt lat="47.54179059527814388275146484375" lon="11.00079168565571308135986328125">
        <ele>1868</ele>
        <time>2026-09-01T07:45:16.000Z</time>
        <extensions>
          <ns3:TrackPointExtension>
            <ns3:hr>118</ns3:hr>
            <ns3:cad>70</ns3:cad>
          </ns3:TrackPointExtension>
        </extensions>
      </trkpt>
      <trkpt lat="47.54177953116595745086669921875" lon="11.0007773526012897491455078125">
        <ele>1867.800048828125</ele>
        <time>2026-09-01T07:45:17.000Z</time>
        <extensions>
          <ns3:TrackPointExtension>
            <ns3:hr>118</ns3:hr>
            <ns3:cad>70</ns3:cad>
          </ns3:TrackPointExtension>
        </extensions>
      </trkpt>
      <trkpt lat="47.541773580014705657958984375" lon="11.000767461955547332763671875">
        <ele>1867.800048828125</ele>
        <time>2026-09-01T07:45:18.000Z</time>
        <extensions>
          <ns3:TrackPointExtension>
            <ns3:hr>118</ns3:hr>
            <ns3:cad>70</ns3:cad>
          </ns3:TrackPointExtension>
        </extensions>
      </trkpt>
      <trkpt lat="47.5417646951973438262939453125" lon="11.000753380358219146728515625">
        <ele>1868</ele>
        <time>2026-09-01T07:45:19.000Z</time>
        <extensions>
          <ns3:TrackPointExtension>
            <ns3:hr>118</ns3:hr>
            <ns3:cad>68</ns3:cad>
          </ns3:TrackPointExtension>
        </extensions>
      </trkpt>
      <trkpt lat="47.54175941459834575653076171875" lon="11.00074307061731815338134765625">
        <ele>1868.199951171875</ele>
        <time>2026-09-01T07:45:20.000Z</time>
        <extensions>
          <ns3:TrackPointExtension>
            <ns3:hr>118</ns3:hr>
            <ns3:cad>68</ns3:cad>
          </ns3:TrackPointExtension>
        </extensions>
      </trkpt>
      <trkpt lat="47.54175639711320400238037109375" lon="11.00074256770312786102294921875">
        <ele>1868.199951171875</ele>
        <time>2026-09-01T07:45:21.000Z</time>
        <extensions>
          <ns3:TrackPointExtension>
            <ns3:hr>118</ns3:hr>
            <ns3:cad>68</ns3:cad>
          </ns3:TrackPointExtension>
        </extensions>
      </trkpt>
      <trkpt lat="47.5417492724955081939697265625" lon="11.000734269618988037109375">
        <ele>1868.4000244140625</ele>
        <time>2026-09-01T07:45:22.000Z</time>
        <extensions>
          <ns3:TrackPointExtension>
            <ns3:hr>118</ns3:hr>
            <ns3:cad>68</ns3:cad>
          </ns3:TrackPointExtension>
        </extensions>
      </trkpt>
      <trkpt lat="47.5417578220367431640625" lon="11.00070619024336338043212890625">
        <ele>1868.4000244140625</ele>
        <time>2026-09-01T07:45:23.000Z</time>
        <extensions>
          <ns3:TrackPointExtension>
            <ns3:hr>118</ns3:hr>
            <ns3:cad>60</ns3:cad>
          </ns3:TrackPointExtension>
        </extensions>
      </trkpt>
      <trkpt lat="47.5417556427419185638427734375" lon="11.00068724714219570159912109375">
        <ele>1868.199951171875</ele>
        <time>2026-09-01T07:45:24.000Z</time>
        <extensions>
          <ns3:TrackPointExtension>
            <ns3:hr>118</ns3:hr>
            <ns3:cad>60</ns3:cad>
          </ns3:TrackPointExtension>
        </extensions>
      </trkpt>
      <trkpt lat="47.541750781238079071044921875" lon="11.00066293962299823760986328125">
        <ele>1868.4000244140625</ele>
        <time>2026-09-01T07:45:25.000Z</time>
        <extensions>
          <ns3:TrackPointExtension>
            <ns3:hr>118</ns3:hr>
            <ns3:cad>62</ns3:cad>
          </ns3:TrackPointExtension>
        </extensions>
      </trkpt>
      <trkpt lat="47.54174382425844669342041015625" lon="11.00064299069344997406005859375">
        <ele>1868.4000244140625</ele>
        <time>2026-09-01T07:45:26.000Z</time>
        <extensions>
          <ns3:TrackPointExtension>
            <ns3:hr>118</ns3:hr>
            <ns3:cad>62</ns3:cad>
          </ns3:TrackPointExtension>
        </extensions>
      </trkpt>
      <trkpt lat="47.541734017431735992431640625" lon="11.00062119774520397186279296875">
        <ele>1868.4000244140625</ele>
        <time>2026-09-01T07:45:27.000Z</time>
        <extensions>
          <ns3:TrackPointExtension>
            <ns3:hr>117</ns3:hr>
            <ns3:cad>66</ns3:cad>
          </ns3:TrackPointExtension>
        </extensions>
      </trkpt>
      <trkpt lat="47.54172370769083499908447265625" lon="11.00060124881565570831298828125">
        <ele>1868.800048828125</ele>
        <time>2026-09-01T07:45:28.000Z</time>
        <extensions>
          <ns3:TrackPointExtension>
            <ns3:hr>118</ns3:hr>
            <ns3:cad>66</ns3:cad>
          </ns3:TrackPointExtension>
        </extensions>
      </trkpt>
      <trkpt lat="47.5417133979499340057373046875" lon="11.00058012641966342926025390625">
        <ele>1869</ele>
        <time>2026-09-01T07:45:29.000Z</time>
        <extensions>
          <ns3:TrackPointExtension>
            <ns3:hr>118</ns3:hr>
            <ns3:cad>66</ns3:cad>
          </ns3:TrackPointExtension>
        </extensions>
      </trkpt>
      <trkpt lat="47.5417033396661281585693359375" lon="11.00055791437625885009765625">
        <ele>1869.199951171875</ele>
        <time>2026-09-01T07:45:30.000Z</time>
        <extensions>
          <ns3:TrackPointExtension>
            <ns3:hr>119</ns3:hr>
            <ns3:cad>68</ns3:cad>
          </ns3:TrackPointExtension>
        </extensions>
      </trkpt>
      <trkpt lat="47.541693113744258880615234375" lon="11.000535450875759124755859375">
        <ele>1869.4000244140625</ele>
        <time>2026-09-01T07:45:31.000Z</time>
        <extensions>
          <ns3:TrackPointExtension>
            <ns3:hr>119</ns3:hr>
            <ns3:cad>69</ns3:cad>
          </ns3:TrackPointExtension>
        </extensions>
      </trkpt>
      <trkpt lat="47.54168179817497730255126953125" lon="11.00051290355622768402099609375">
        <ele>1869.4000244140625</ele>
        <time>2026-09-01T07:45:32.000Z</time>
        <extensions>
          <ns3:TrackPointExtension>
            <ns3:hr>120</ns3:hr>
            <ns3:cad>71</ns3:cad>
          </ns3:TrackPointExtension>
        </extensions>
      </trkpt>
      <trkpt lat="47.541671656072139739990234375" lon="11.0004893504083156585693359375">
        <ele>1869.800048828125</ele>
        <time>2026-09-01T07:45:33.000Z</time>
        <extensions>
          <ns3:TrackPointExtension>
            <ns3:hr>120</ns3:hr>
            <ns3:cad>72</ns3:cad>
          </ns3:TrackPointExtension>
        </extensions>
      </trkpt>
      <trkpt lat="47.5416634418070316314697265625" lon="11.00047116167843341827392578125">
        <ele>1870.199951171875</ele>
        <time>2026-09-01T07:45:34.000Z</time>
        <extensions>
          <ns3:TrackPointExtension>
            <ns3:hr>121</ns3:hr>
            <ns3:cad>74</ns3:cad>
          </ns3:TrackPointExtension>
        </extensions>
      </trkpt>
      <trkpt lat="47.5416567362844944000244140625" lon="11.00045573897659778594970703125">
        <ele>1870.5999755859375</ele>
        <time>2026-09-01T07:45:35.000Z</time>
        <extensions>
          <ns3:TrackPointExtension>
            <ns3:hr>123</ns3:hr>
            <ns3:cad>74</ns3:cad>
          </ns3:TrackPointExtension>
        </extensions>
      </trkpt>
      <trkpt lat="47.5416545569896697998046875" lon="11.00044148974120616912841796875">
        <ele>1870.5999755859375</ele>
        <time>2026-09-01T07:45:36.000Z</time>
        <extensions>
          <ns3:TrackPointExtension>
            <ns3:hr>124</ns3:hr>
            <ns3:cad>74</ns3:cad>
          </ns3:TrackPointExtension>
        </extensions>
      </trkpt>
      <trkpt lat="47.54165363498032093048095703125" lon="11.0004290007054805755615234375">
        <ele>1870.800048828125</ele>
        <time>2026-09-01T07:45:37.000Z</time>
        <extensions>
          <ns3:TrackPointExtension>
            <ns3:hr>125</ns3:hr>
            <ns3:cad>74</ns3:cad>
          </ns3:TrackPointExtension>
        </extensions>
      </trkpt>
      <trkpt lat="47.5416527129709720611572265625" lon="11.00041500292718410491943359375">
        <ele>1870.800048828125</ele>
        <time>2026-09-01T07:45:38.000Z</time>
        <extensions>
          <ns3:TrackPointExtension>
            <ns3:hr>126</ns3:hr>
            <ns3:cad>74</ns3:cad>
          </ns3:TrackPointExtension>
        </extensions>
      </trkpt>
      <trkpt lat="47.54165262915194034576416015625" lon="11.00040075369179248809814453125">
        <ele>1870.800048828125</ele>
        <time>2026-09-01T07:45:39.000Z</time>
        <extensions>
          <ns3:TrackPointExtension>
            <ns3:hr>127</ns3:hr>
            <ns3:cad>74</ns3:cad>
          </ns3:TrackPointExtension>
        </extensions>
      </trkpt>
      <trkpt lat="47.541647516191005706787109375" lon="11.000371836125850677490234375">
        <ele>1871.199951171875</ele>
        <time>2026-09-01T07:45:40.000Z</time>
        <extensions>
          <ns3:TrackPointExtension>
            <ns3:hr>129</ns3:hr>
            <ns3:cad>74</ns3:cad>
          </ns3:TrackPointExtension>
        </extensions>
      </trkpt>
      <trkpt lat="47.5416369549930095672607421875" lon="11.00036169402301311492919921875">
        <ele>1871.5999755859375</ele>
        <time>2026-09-01T07:45:41.000Z</time>
        <extensions>
          <ns3:TrackPointExtension>
            <ns3:hr>129</ns3:hr>
            <ns3:cad>53</ns3:cad>
          </ns3:TrackPointExtension>
        </extensions>
      </trkpt>
      <trkpt lat="47.54162798635661602020263671875" lon="11.0003515519201755523681640625">
        <ele>1872</ele>
        <time>2026-09-01T07:45:42.000Z</time>
        <extensions>
          <ns3:TrackPointExtension>
            <ns3:hr>129</ns3:hr>
            <ns3:cad>53</ns3:cad>
          </ns3:TrackPointExtension>
        </extensions>
      </trkpt>
      <trkpt lat="47.54161809571087360382080078125" lon="11.00035197101533412933349609375">
        <ele>1872.199951171875</ele>
        <time>2026-09-01T07:45:43.000Z</time>
        <extensions>
          <ns3:TrackPointExtension>
            <ns3:hr>129</ns3:hr>
            <ns3:cad>53</ns3:cad>
          </ns3:TrackPointExtension>
        </extensions>
      </trkpt>
      <trkpt lat="47.5416064448654651641845703125" lon="11.0003485344350337982177734375">
        <ele>1872.4000244140625</ele>
        <time>2026-09-01T07:45:44.000Z</time>
        <extensions>
          <ns3:TrackPointExtension>
            <ns3:hr>131</ns3:hr>
            <ns3:cad>53</ns3:cad>
          </ns3:TrackPointExtension>
        </extensions>
      </trkpt>
      <trkpt lat="47.5415950454771518707275390625" lon="11.00033571012318134307861328125">
        <ele>1872.5999755859375</ele>
        <time>2026-09-01T07:45:45.000Z</time>
        <extensions>
          <ns3:TrackPointExtension>
            <ns3:hr>132</ns3:hr>
            <ns3:cad>53</ns3:cad>
          </ns3:TrackPointExtension>
        </extensions>
      </trkpt>
      <trkpt lat="47.54158171825110912322998046875" lon="11.00032481364905834197998046875">
        <ele>1872.5999755859375</ele>
        <time>2026-09-01T07:45:46.000Z</time>
        <extensions>
          <ns3:TrackPointExtension>
            <ns3:hr>132</ns3:hr>
            <ns3:cad>53</ns3:cad>
          </ns3:TrackPointExtension>
        </extensions>
      </trkpt>
      <trkpt lat="47.54157316870987415313720703125" lon="11.0003123246133327484130859375">
        <ele>1872.4000244140625</ele>
        <time>2026-09-01T07:45:47.000Z</time>
        <extensions>
          <ns3:TrackPointExtension>
            <ns3:hr>133</ns3:hr>
            <ns3:cad>53</ns3:cad>
          </ns3:TrackPointExtension>
        </extensions>
      </trkpt>
      <trkpt lat="47.5415628589689731597900390625" lon="11.00030033849179744720458984375">
        <ele>1872.5999755859375</ele>
        <time>2026-09-01T07:45:48.000Z</time>
        <extensions>
          <ns3:TrackPointExtension>
            <ns3:hr>134</ns3:hr>
            <ns3:cad>67</ns3:cad>
          </ns3:TrackPointExtension>
        </extensions>
      </trkpt>
      <trkpt lat="47.5415531359612941741943359375" lon="11.0002888552844524383544921875">
        <ele>1872.800048828125</ele>
        <time>2026-09-01T07:45:49.000Z</time>
        <extensions>
          <ns3:TrackPointExtension>
            <ns3:hr>134</ns3:hr>
            <ns3:cad>67</ns3:cad>
          </ns3:TrackPointExtension>
        </extensions>
      </trkpt>
      <trkpt lat="47.54154517315328121185302734375" lon="11.00027871318161487579345703125">
        <ele>1873</ele>
        <time>2026-09-01T07:45:50.000Z</time>
        <extensions>
          <ns3:TrackPointExtension>
            <ns3:hr>134</ns3:hr>
            <ns3:cad>67</ns3:cad>
          </ns3:TrackPointExtension>
        </extensions>
      </trkpt>
      <trkpt lat="47.5415367074310779571533203125" lon="11.00026781670749187469482421875">
        <ele>1873.199951171875</ele>
        <time>2026-09-01T07:45:51.000Z</time>
        <extensions>
          <ns3:TrackPointExtension>
            <ns3:hr>134</ns3:hr>
            <ns3:cad>0</ns3:cad>
          </ns3:TrackPointExtension>
        </extensions>
      </trkpt>
      <trkpt lat="47.5415269844233989715576171875" lon="11.00025507621467113494873046875">
        <ele>1873.5999755859375</ele>
        <time>2026-09-01T07:45:52.000Z</time>
        <extensions>
          <ns3:TrackPointExtension>
            <ns3:hr>135</ns3:hr>
            <ns3:cad>0</ns3:cad>
          </ns3:TrackPointExtension>
        </extensions>
      </trkpt>
      <trkpt lat="47.54151835106313228607177734375" lon="11.00024853833019733428955078125">
        <ele>1874</ele>
        <time>2026-09-01T07:45:53.000Z</time>
        <extensions>
          <ns3:TrackPointExtension>
            <ns3:hr>136</ns3:hr>
            <ns3:cad>0</ns3:cad>
          </ns3:TrackPointExtension>
        </extensions>
      </trkpt>
      <trkpt lat="47.54150946624577045440673828125" lon="11.00024434737861156463623046875">
        <ele>1874.199951171875</ele>
        <time>2026-09-01T07:45:54.000Z</time>
        <extensions>
          <ns3:TrackPointExtension>
            <ns3:hr>137</ns3:hr>
            <ns3:cad>0</ns3:cad>
          </ns3:TrackPointExtension>
        </extensions>
      </trkpt>
      <trkpt lat="47.5414964742958545684814453125" lon="11.00023697130382061004638671875">
        <ele>1874.4000244140625</ele>
        <time>2026-09-01T07:45:55.000Z</time>
        <extensions>
          <ns3:TrackPointExtension>
            <ns3:hr>138</ns3:hr>
            <ns3:cad>0</ns3:cad>
          </ns3:TrackPointExtension>
        </extensions>
      </trkpt>
      <trkpt lat="47.54148499108850955963134765625" lon="11.000233031809329986572265625">
        <ele>1874.800048828125</ele>
        <time>2026-09-01T07:45:56.000Z</time>
        <extensions>
          <ns3:TrackPointExtension>
            <ns3:hr>139</ns3:hr>
            <ns3:cad>0</ns3:cad>
          </ns3:TrackPointExtension>
        </extensions>
      </trkpt>
      <trkpt lat="47.54147375933825969696044921875" lon="11.00023127160966396331787109375">
        <ele>1875.199951171875</ele>
        <time>2026-09-01T07:45:57.000Z</time>
        <extensions>
          <ns3:TrackPointExtension>
            <ns3:hr>140</ns3:hr>
            <ns3:cad>0</ns3:cad>
          </ns3:TrackPointExtension>
        </extensions>
      </trkpt>
      <trkpt lat="47.54145883955061435699462890625" lon="11.00022825412452220916748046875">
        <ele>1875.4000244140625</ele>
        <time>2026-09-01T07:45:58.000Z</time>
        <extensions>
          <ns3:TrackPointExtension>
            <ns3:hr>141</ns3:hr>
            <ns3:cad>57</ns3:cad>
          </ns3:TrackPointExtension>
        </extensions>
      </trkpt>
      <trkpt lat="47.54144475795328617095947265625" lon="11.000226326286792755126953125">
        <ele>1875.800048828125</ele>
        <time>2026-09-01T07:45:59.000Z</time>
        <extensions>
          <ns3:TrackPointExtension>
            <ns3:hr>142</ns3:hr>
            <ns3:cad>57</ns3:cad>
          </ns3:TrackPointExtension>
        </extensions>
      </trkpt>
      <trkpt lat="47.541436292231082916259765625" lon="11.0002271644771099090576171875">
        <ele>1876.199951171875</ele>
        <time>2026-09-01T07:46:00.000Z</time>
        <extensions>
          <ns3:TrackPointExtension>
            <ns3:hr>143</ns3:hr>
            <ns3:cad>57</ns3:cad>
          </ns3:TrackPointExtension>
        </extensions>
      </trkpt>
      <trkpt lat="47.54142430610954761505126953125" lon="11.00022741593420505523681640625">
        <ele>1876.4000244140625</ele>
        <time>2026-09-01T07:46:01.000Z</time>
        <extensions>
          <ns3:TrackPointExtension>
            <ns3:hr>143</ns3:hr>
            <ns3:cad>0</ns3:cad>
          </ns3:TrackPointExtension>
        </extensions>
      </trkpt>
      <trkpt lat="47.5414166785776615142822265625" lon="11.000224314630031585693359375">
        <ele>1876.800048828125</ele>
        <time>2026-09-01T07:46:02.000Z</time>
        <extensions>
          <ns3:TrackPointExtension>
            <ns3:hr>144</ns3:hr>
            <ns3:cad>0</ns3:cad>
          </ns3:TrackPointExtension>
        </extensions>
      </trkpt>
      <trkpt lat="47.5414106436073780059814453125" lon="11.00022397935390472412109375">
        <ele>1876.800048828125</ele>
        <time>2026-09-01T07:46:03.000Z</time>
        <extensions>
          <ns3:TrackPointExtension>
            <ns3:hr>145</ns3:hr>
            <ns3:cad>0</ns3:cad>
          </ns3:TrackPointExtension>
        </extensions>
      </trkpt>
      <trkpt lat="47.5413999147713184356689453125" lon="11.000219620764255523681640625">
        <ele>1876.800048828125</ele>
        <time>2026-09-01T07:46:04.000Z</time>
        <extensions>
          <ns3:TrackPointExtension>
            <ns3:hr>146</ns3:hr>
            <ns3:cad>0</ns3:cad>
          </ns3:TrackPointExtension>
        </extensions>
      </trkpt>
      <trkpt lat="47.54140033386647701263427734375" lon="11.00021601654589176177978515625">
        <ele>1876.5999755859375</ele>
        <time>2026-09-01T07:46:05.000Z</time>
        <extensions>
          <ns3:TrackPointExtension>
            <ns3:hr>147</ns3:hr>
            <ns3:cad>0</ns3:cad>
          </ns3:TrackPointExtension>
        </extensions>
      </trkpt>
      <trkpt lat="47.5413985736668109893798828125" lon="11.0002110712230205535888671875">
        <ele>1876.4000244140625</ele>
        <time>2026-09-01T07:46:06.000Z</time>
        <extensions>
          <ns3:TrackPointExtension>
            <ns3:hr>148</ns3:hr>
            <ns3:cad>0</ns3:cad>
          </ns3:TrackPointExtension>
        </extensions>
      </trkpt>
      <trkpt lat="47.541391365230083465576171875" lon="11.0002080537378787994384765625">
        <ele>1876.4000244140625</ele>
        <time>2026-09-01T07:46:07.000Z</time>
        <extensions>
          <ns3:TrackPointExtension>
            <ns3:hr>149</ns3:hr>
            <ns3:cad>0</ns3:cad>
          </ns3:TrackPointExtension>
        </extensions>
      </trkpt>
      <trkpt lat="47.54138658754527568817138671875" lon="11.000202856957912445068359375">
        <ele>1876.199951171875</ele>
        <time>2026-09-01T07:46:08.000Z</time>
        <extensions>
          <ns3:TrackPointExtension>
            <ns3:hr>150</ns3:hr>
            <ns3:cad>0</ns3:cad>
          </ns3:TrackPointExtension>
        </extensions>
      </trkpt>
      <trkpt lat="47.54138709045946598052978515625" lon="11.0002005100250244140625">
        <ele>1876.4000244140625</ele>
        <time>2026-09-01T07:46:09.000Z</time>
        <extensions>
          <ns3:TrackPointExtension>
            <ns3:hr>151</ns3:hr>
            <ns3:cad>0</ns3:cad>
          </ns3:TrackPointExtension>
        </extensions>
      </trkpt>
      <trkpt lat="47.5413854978978633880615234375" lon="11.0001849196851253509521484375">
        <ele>1877</ele>
        <time>2026-09-01T07:46:10.000Z</time>
        <extensions>
          <ns3:TrackPointExtension>
            <ns3:hr>152</ns3:hr>
            <ns3:cad>0</ns3:cad>
          </ns3:TrackPointExtension>
        </extensions>
      </trkpt>
      <trkpt lat="47.541391365230083465576171875" lon="11.00017645396292209625244140625">
        <ele>1878</ele>
        <time>2026-09-01T07:46:11.000Z</time>
        <extensions>
          <ns3:TrackPointExtension>
            <ns3:hr>153</ns3:hr>
            <ns3:cad>0</ns3:cad>
          </ns3:TrackPointExtension>
        </extensions>
      </trkpt>
      <trkpt lat="47.54139178432524204254150390625" lon="11.00016119889914989471435546875">
        <ele>1878.800048828125</ele>
        <time>2026-09-01T07:46:12.000Z</time>
        <extensions>
          <ns3:TrackPointExtension>
            <ns3:hr>153</ns3:hr>
            <ns3:cad>0</ns3:cad>
          </ns3:TrackPointExtension>
        </extensions>
      </trkpt>
      <trkpt lat="47.54138709045946598052978515625" lon="11.000145189464092254638671875">
        <ele>1879</ele>
        <time>2026-09-01T07:46:13.000Z</time>
        <extensions>
          <ns3:TrackPointExtension>
            <ns3:hr>153</ns3:hr>
            <ns3:cad>51</ns3:cad>
          </ns3:TrackPointExtension>
        </extensions>
      </trkpt>
      <trkpt lat="47.54138298332691192626953125" lon="11.0001282580196857452392578125">
        <ele>1879.199951171875</ele>
        <time>2026-09-01T07:46:14.000Z</time>
        <extensions>
          <ns3:TrackPointExtension>
            <ns3:hr>154</ns3:hr>
            <ns3:cad>51</ns3:cad>
          </ns3:TrackPointExtension>
        </extensions>
      </trkpt>
      <trkpt lat="47.54137669689953327178955078125" lon="11.00011400878429412841796875">
        <ele>1879.4000244140625</ele>
        <time>2026-09-01T07:46:15.000Z</time>
        <extensions>
          <ns3:TrackPointExtension>
            <ns3:hr>154</ns3:hr>
            <ns3:cad>51</ns3:cad>
          </ns3:TrackPointExtension>
        </extensions>
      </trkpt>
      <trkpt lat="47.54137183539569377899169921875" lon="11.0001017712056636810302734375">
        <ele>1879.5999755859375</ele>
        <time>2026-09-01T07:46:16.000Z</time>
        <extensions>
          <ns3:TrackPointExtension>
            <ns3:hr>155</ns3:hr>
            <ns3:cad>51</ns3:cad>
          </ns3:TrackPointExtension>
        </extensions>
      </trkpt>
      <trkpt lat="47.54136781208217144012451171875" lon="11.0000870190560817718505859375">
        <ele>1879.800048828125</ele>
        <time>2026-09-01T07:46:17.000Z</time>
        <extensions>
          <ns3:TrackPointExtension>
            <ns3:hr>158</ns3:hr>
            <ns3:cad>0</ns3:cad>
          </ns3:TrackPointExtension>
        </extensions>
      </trkpt>
      <trkpt lat="47.541363872587680816650390625" lon="11.00007201544940471649169921875">
        <ele>1880</ele>
        <time>2026-09-01T07:46:18.000Z</time>
        <extensions>
          <ns3:TrackPointExtension>
            <ns3:hr>160</ns3:hr>
            <ns3:cad>0</ns3:cad>
          </ns3:TrackPointExtension>
        </extensions>
      </trkpt>
      <trkpt lat="47.54136026836931705474853515625" lon="11.0000598616898059844970703125">
        <ele>1880.199951171875</ele>
        <time>2026-09-01T07:46:19.000Z</time>
        <extensions>
          <ns3:TrackPointExtension>
            <ns3:hr>161</ns3:hr>
            <ns3:cad>0</ns3:cad>
          </ns3:TrackPointExtension>
        </extensions>
      </trkpt>
      <trkpt lat="47.5413549877703189849853515625" lon="11.0000504739582538604736328125">
        <ele>1880.5999755859375</ele>
        <time>2026-09-01T07:46:20.000Z</time>
        <extensions>
          <ns3:TrackPointExtension>
            <ns3:hr>162</ns3:hr>
            <ns3:cad>0</ns3:cad>
          </ns3:TrackPointExtension>
        </extensions>
      </trkpt>
      <trkpt lat="47.5413523055613040924072265625" lon="11.0000409185886383056640625">
        <ele>1881</ele>
        <time>2026-09-01T07:46:21.000Z</time>
        <extensions>
          <ns3:TrackPointExtension>
            <ns3:hr>163</ns3:hr>
            <ns3:cad>0</ns3:cad>
          </ns3:TrackPointExtension>
        </extensions>
      </trkpt>
      <trkpt lat="47.54134945571422576904296875" lon="11.000031530857086181640625">
        <ele>1881.199951171875</ele>
        <time>2026-09-01T07:46:22.000Z</time>
        <extensions>
          <ns3:TrackPointExtension>
            <ns3:hr>163</ns3:hr>
            <ns3:cad>0</ns3:cad>
          </ns3:TrackPointExtension>
        </extensions>
      </trkpt>
      <trkpt lat="47.541346438229084014892578125" lon="11.00001703016459941864013671875">
        <ele>1881.5999755859375</ele>
        <time>2026-09-01T07:46:23.000Z</time>
        <extensions>
          <ns3:TrackPointExtension>
            <ns3:hr>164</ns3:hr>
            <ns3:cad>0</ns3:cad>
          </ns3:TrackPointExtension>
        </extensions>
      </trkpt>
      <trkpt lat="47.541342079639434814453125" lon="11.000005714595317840576171875">
        <ele>1882.199951171875</ele>
        <time>2026-09-01T07:46:24.000Z</time>
        <extensions>
          <ns3:TrackPointExtension>
            <ns3:hr>165</ns3:hr>
            <ns3:cad>57</ns3:cad>
          </ns3:TrackPointExtension>
        </extensions>
      </trkpt>
      <trkpt lat="47.5413380563259124755859375" lon="10.9999964945018291473388671875">
        <ele>1882.5999755859375</ele>
        <time>2026-09-01T07:46:25.000Z</time>
        <extensions>
          <ns3:TrackPointExtension>
            <ns3:hr>165</ns3:hr>
            <ns3:cad>57</ns3:cad>
          </ns3:TrackPointExtension>
        </extensions>
      </trkpt>
      <trkpt lat="47.54133378155529499053955078125" lon="10.99998685531318187713623046875">
        <ele>1882.800048828125</ele>
        <time>2026-09-01T07:46:26.000Z</time>
        <extensions>
          <ns3:TrackPointExtension>
            <ns3:hr>165</ns3:hr>
            <ns3:cad>57</ns3:cad>
          </ns3:TrackPointExtension>
        </extensions>
      </trkpt>
      <trkpt lat="47.54132933914661407470703125" lon="10.9999783895909786224365234375">
        <ele>1883</ele>
        <time>2026-09-01T07:46:27.000Z</time>
        <extensions>
          <ns3:TrackPointExtension>
            <ns3:hr>165</ns3:hr>
            <ns3:cad>57</ns3:cad>
          </ns3:TrackPointExtension>
        </extensions>
      </trkpt>
      <trkpt lat="47.54132506437599658966064453125" lon="10.99996606819331645965576171875">
        <ele>1883.199951171875</ele>
        <time>2026-09-01T07:46:28.000Z</time>
        <extensions>
          <ns3:TrackPointExtension>
            <ns3:hr>165</ns3:hr>
            <ns3:cad>57</ns3:cad>
          </ns3:TrackPointExtension>
        </extensions>
      </trkpt>
      <trkpt lat="47.541320621967315673828125" lon="10.9999616257846355438232421875">
        <ele>1883.4000244140625</ele>
        <time>2026-09-01T07:46:29.000Z</time>
        <extensions>
          <ns3:TrackPointExtension>
            <ns3:hr>165</ns3:hr>
            <ns3:cad>57</ns3:cad>
          </ns3:TrackPointExtension>
        </extensions>
      </trkpt>
      <trkpt lat="47.54131869412958621978759765625" lon="10.99995600990951061248779296875">
        <ele>1883.5999755859375</ele>
        <time>2026-09-01T07:46:30.000Z</time>
        <extensions>
          <ns3:TrackPointExtension>
            <ns3:hr>166</ns3:hr>
            <ns3:cad>57</ns3:cad>
          </ns3:TrackPointExtension>
        </extensions>
      </trkpt>
      <trkpt lat="47.54131936468183994293212890625" lon="10.99995232187211513519287109375">
        <ele>1883.5999755859375</ele>
        <time>2026-09-01T07:46:31.000Z</time>
        <extensions>
          <ns3:TrackPointExtension>
            <ns3:hr>166</ns3:hr>
            <ns3:cad>57</ns3:cad>
          </ns3:TrackPointExtension>
        </extensions>
      </trkpt>
      <trkpt lat="47.5413204543292522430419921875" lon="10.99994846619665622711181640625">
        <ele>1883.800048828125</ele>
        <time>2026-09-01T07:46:32.000Z</time>
        <extensions>
          <ns3:TrackPointExtension>
            <ns3:hr>167</ns3:hr>
            <ns3:cad>0</ns3:cad>
          </ns3:TrackPointExtension>
        </extensions>
      </trkpt>
      <trkpt lat="47.54132305271923542022705078125" lon="10.9999445267021656036376953125">
        <ele>1884</ele>
        <time>2026-09-01T07:46:33.000Z</time>
        <extensions>
          <ns3:TrackPointExtension>
            <ns3:hr>167</ns3:hr>
            <ns3:cad>0</ns3:cad>
          </ns3:TrackPointExtension>
        </extensions>
      </trkpt>
      <trkpt lat="47.54132204689085483551025390625" lon="10.99993371404707431793212890625">
        <ele>1884.199951171875</ele>
        <time>2026-09-01T07:46:34.000Z</time>
        <extensions>
          <ns3:TrackPointExtension>
            <ns3:hr>168</ns3:hr>
            <ns3:cad>0</ns3:cad>
          </ns3:TrackPointExtension>
        </extensions>
      </trkpt>
      <trkpt lat="47.5413192808628082275390625" lon="10.99992717616260051727294921875">
        <ele>1884.4000244140625</ele>
        <time>2026-09-01T07:46:35.000Z</time>
        <extensions>
          <ns3:TrackPointExtension>
            <ns3:hr>168</ns3:hr>
            <ns3:cad>0</ns3:cad>
          </ns3:TrackPointExtension>
        </extensions>
      </trkpt>
      <trkpt lat="47.54131567664444446563720703125" lon="10.9999197162687778472900390625">
        <ele>1884.800048828125</ele>
        <time>2026-09-01T07:46:36.000Z</time>
        <extensions>
          <ns3:TrackPointExtension>
            <ns3:hr>168</ns3:hr>
            <ns3:cad>0</ns3:cad>
          </ns3:TrackPointExtension>
        </extensions>
      </trkpt>
      <trkpt lat="47.54131148569285869598388671875" lon="10.999914519488811492919921875">
        <ele>1885.199951171875</ele>
        <time>2026-09-01T07:46:37.000Z</time>
        <extensions>
          <ns3:TrackPointExtension>
            <ns3:hr>169</ns3:hr>
            <ns3:cad>0</ns3:cad>
          </ns3:TrackPointExtension>
        </extensions>
      </trkpt>
      <trkpt lat="47.54130695946514606475830078125" lon="10.999907143414020538330078125">
        <ele>1885.5999755859375</ele>
        <time>2026-09-01T07:46:38.000Z</time>
        <extensions>
          <ns3:TrackPointExtension>
            <ns3:hr>168</ns3:hr>
            <ns3:cad>0</ns3:cad>
          </ns3:TrackPointExtension>
        </extensions>
      </trkpt>
      <trkpt lat="47.5413020141422748565673828125" lon="10.999898426234722137451171875">
        <ele>1886</ele>
        <time>2026-09-01T07:46:39.000Z</time>
        <extensions>
          <ns3:TrackPointExtension>
            <ns3:hr>167</ns3:hr>
            <ns3:cad>0</ns3:cad>
          </ns3:TrackPointExtension>
        </extensions>
      </trkpt>
      <trkpt lat="47.54129857756197452545166015625" lon="10.99989549256861209869384765625">
        <ele>1886.4000244140625</ele>
        <time>2026-09-01T07:46:40.000Z</time>
        <extensions>
          <ns3:TrackPointExtension>
            <ns3:hr>166</ns3:hr>
            <ns3:cad>0</ns3:cad>
          </ns3:TrackPointExtension>
        </extensions>
      </trkpt>
      <trkpt lat="47.54129287786781787872314453125" lon="10.9998908825218677520751953125">
        <ele>1886.4000244140625</ele>
        <time>2026-09-01T07:46:41.000Z</time>
        <extensions>
          <ns3:TrackPointExtension>
            <ns3:hr>165</ns3:hr>
            <ns3:cad>0</ns3:cad>
          </ns3:TrackPointExtension>
        </extensions>
      </trkpt>
      <trkpt lat="47.54129849374294281005859375" lon="10.99988224916160106658935546875">
        <ele>1886.5999755859375</ele>
        <time>2026-09-01T07:46:42.000Z</time>
        <extensions>
          <ns3:TrackPointExtension>
            <ns3:hr>165</ns3:hr>
            <ns3:cad>0</ns3:cad>
          </ns3:TrackPointExtension>
        </extensions>
      </trkpt>
      <trkpt lat="47.5412956438958644866943359375" lon="10.99987219087779521942138671875">
        <ele>1886.800048828125</ele>
        <time>2026-09-01T07:46:43.000Z</time>
        <extensions>
          <ns3:TrackPointExtension>
            <ns3:hr>165</ns3:hr>
            <ns3:cad>0</ns3:cad>
          </ns3:TrackPointExtension>
        </extensions>
      </trkpt>
      <trkpt lat="47.5412979908287525177001953125" lon="10.9998643957078456878662109375">
        <ele>1887.199951171875</ele>
        <time>2026-09-01T07:46:44.000Z</time>
        <extensions>
          <ns3:TrackPointExtension>
            <ns3:hr>165</ns3:hr>
            <ns3:cad>0</ns3:cad>
          </ns3:TrackPointExtension>
        </extensions>
      </trkpt>
      <trkpt lat="47.54129715263843536376953125" lon="10.99984788335859775543212890625">
        <ele>1887.5999755859375</ele>
        <time>2026-09-01T07:46:45.000Z</time>
        <extensions>
          <ns3:TrackPointExtension>
            <ns3:hr>165</ns3:hr>
            <ns3:cad>0</ns3:cad>
          </ns3:TrackPointExtension>
        </extensions>
      </trkpt>
      <trkpt lat="47.54129488952457904815673828125" lon="10.99984101019799709320068359375">
        <ele>1888</ele>
        <time>2026-09-01T07:46:46.000Z</time>
        <extensions>
          <ns3:TrackPointExtension>
            <ns3:hr>165</ns3:hr>
            <ns3:cad>0</ns3:cad>
          </ns3:TrackPointExtension>
        </extensions>
      </trkpt>
      <trkpt lat="47.54129455424845218658447265625" lon="10.9998268447816371917724609375">
        <ele>1888.4000244140625</ele>
        <time>2026-09-01T07:46:47.000Z</time>
        <extensions>
          <ns3:TrackPointExtension>
            <ns3:hr>164</ns3:hr>
            <ns3:cad>0</ns3:cad>
          </ns3:TrackPointExtension>
        </extensions>
      </trkpt>
      <trkpt lat="47.5412849150598049163818359375" lon="10.99981888197362422943115234375">
        <ele>1888.5999755859375</ele>
        <time>2026-09-01T07:46:48.000Z</time>
        <extensions>
          <ns3:TrackPointExtension>
            <ns3:hr>163</ns3:hr>
            <ns3:cad>0</ns3:cad>
          </ns3:TrackPointExtension>
        </extensions>
      </trkpt>
      <trkpt lat="47.54128064028918743133544921875" lon="10.9998104162514209747314453125">
        <ele>1888.800048828125</ele>
        <time>2026-09-01T07:46:49.000Z</time>
        <extensions>
          <ns3:TrackPointExtension>
            <ns3:hr>162</ns3:hr>
            <ns3:cad>0</ns3:cad>
          </ns3:TrackPointExtension>
        </extensions>
      </trkpt>
      <trkpt lat="47.54128114320337772369384765625" lon="10.9998063929378986358642578125">
        <ele>1889</ele>
        <time>2026-09-01T07:46:50.000Z</time>
        <extensions>
          <ns3:TrackPointExtension>
            <ns3:hr>161</ns3:hr>
            <ns3:cad>0</ns3:cad>
          </ns3:TrackPointExtension>
        </extensions>
      </trkpt>
      <trkpt lat="47.5412835739552974700927734375" lon="10.9998000226914882659912109375">
        <ele>1889.199951171875</ele>
        <time>2026-09-01T07:46:51.000Z</time>
        <extensions>
          <ns3:TrackPointExtension>
            <ns3:hr>161</ns3:hr>
            <ns3:cad>0</ns3:cad>
          </ns3:TrackPointExtension>
        </extensions>
      </trkpt>
      <trkpt lat="47.5412844121456146240234375" lon="10.9998023696243762969970703125">
        <ele>1889.4000244140625</ele>
        <time>2026-09-01T07:46:52.000Z</time>
        <extensions>
          <ns3:TrackPointExtension>
            <ns3:hr>159</ns3:hr>
            <ns3:cad>0</ns3:cad>
          </ns3:TrackPointExtension>
        </extensions>
      </trkpt>
      <trkpt lat="47.541291452944278717041015625" lon="10.9997983463108539581298828125">
        <ele>1889.4000244140625</ele>
        <time>2026-09-01T07:46:53.000Z</time>
        <extensions>
          <ns3:TrackPointExtension>
            <ns3:hr>159</ns3:hr>
            <ns3:cad>0</ns3:cad>
          </ns3:TrackPointExtension>
        </extensions>
      </trkpt>
      <trkpt lat="47.54129723645746707916259765625" lon="10.999804548919200897216796875">
        <ele>1889.5999755859375</ele>
        <time>2026-09-01T07:46:54.000Z</time>
        <extensions>
          <ns3:TrackPointExtension>
            <ns3:hr>158</ns3:hr>
            <ns3:cad>0</ns3:cad>
          </ns3:TrackPointExtension>
        </extensions>
      </trkpt>
      <trkpt lat="47.54129606299102306365966796875" lon="10.99979340098798274993896484375">
        <ele>1889.800048828125</ele>
        <time>2026-09-01T07:46:55.000Z</time>
        <extensions>
          <ns3:TrackPointExtension>
            <ns3:hr>158</ns3:hr>
            <ns3:cad>0</ns3:cad>
          </ns3:TrackPointExtension>
        </extensions>
      </trkpt>
      <trkpt lat="47.5412979908287525177001953125" lon="10.999785102903842926025390625">
        <ele>1890</ele>
        <time>2026-09-01T07:46:56.000Z</time>
        <extensions>
          <ns3:TrackPointExtension>
            <ns3:hr>157</ns3:hr>
            <ns3:cad>0</ns3:cad>
          </ns3:TrackPointExtension>
        </extensions>
      </trkpt>
      <trkpt lat="47.5412969850003719329833984375" lon="10.99978317506611347198486328125">
        <ele>1890.5999755859375</ele>
        <time>2026-09-01T07:46:57.000Z</time>
        <extensions>
          <ns3:TrackPointExtension>
            <ns3:hr>156</ns3:hr>
            <ns3:cad>0</ns3:cad>
          </ns3:TrackPointExtension>
        </extensions>
      </trkpt>
      <trkpt lat="47.541298829019069671630859375" lon="10.99977563135325908660888671875">
        <ele>1891</ele>
        <time>2026-09-01T07:46:58.000Z</time>
        <extensions>
          <ns3:TrackPointExtension>
            <ns3:hr>156</ns3:hr>
            <ns3:cad>0</ns3:cad>
          </ns3:TrackPointExtension>
        </extensions>
      </trkpt>
      <trkpt lat="47.5412993319332599639892578125" lon="10.9997765533626079559326171875">
        <ele>1891</ele>
        <time>2026-09-01T07:46:59.000Z</time>
        <extensions>
          <ns3:TrackPointExtension>
            <ns3:hr>156</ns3:hr>
            <ns3:cad>0</ns3:cad>
          </ns3:TrackPointExtension>
        </extensions>
      </trkpt>
      <trkpt lat="47.54130260087549686431884765625" lon="10.9997671656310558319091796875">
        <ele>1891.199951171875</ele>
        <time>2026-09-01T07:47:00.000Z</time>
        <extensions>
          <ns3:TrackPointExtension>
            <ns3:hr>155</ns3:hr>
            <ns3:cad>0</ns3:cad>
          </ns3:TrackPointExtension>
        </extensions>
      </trkpt>
      <trkpt lat="47.541302852332592010498046875" lon="10.99976574070751667022705078125">
        <ele>1891.4000244140625</ele>
        <time>2026-09-01T07:47:01.000Z</time>
        <extensions>
          <ns3:TrackPointExtension>
            <ns3:hr>155</ns3:hr>
            <ns3:cad>0</ns3:cad>
          </ns3:TrackPointExtension>
        </extensions>
      </trkpt>
      <trkpt lat="47.5413000024855136871337890625" lon="10.999757610261440277099609375">
        <ele>1891.4000244140625</ele>
        <time>2026-09-01T07:47:02.000Z</time>
        <extensions>
          <ns3:TrackPointExtension>
            <ns3:hr>155</ns3:hr>
            <ns3:cad>0</ns3:cad>
          </ns3:TrackPointExtension>
        </extensions>
      </trkpt>
      <trkpt lat="47.54129715263843536376953125" lon="10.99974378012120723724365234375">
        <ele>1891.5999755859375</ele>
        <time>2026-09-01T07:47:03.000Z</time>
        <extensions>
          <ns3:TrackPointExtension>
            <ns3:hr>154</ns3:hr>
            <ns3:cad>0</ns3:cad>
          </ns3:TrackPointExtension>
        </extensions>
      </trkpt>
      <trkpt lat="47.54129405133426189422607421875" lon="10.99973380565643310546875">
        <ele>1892</ele>
        <time>2026-09-01T07:47:04.000Z</time>
        <extensions>
          <ns3:TrackPointExtension>
            <ns3:hr>154</ns3:hr>
            <ns3:cad>0</ns3:cad>
          </ns3:TrackPointExtension>
        </extensions>
      </trkpt>
      <trkpt lat="47.54129522480070590972900390625" lon="10.999730788171291351318359375">
        <ele>1892.199951171875</ele>
        <time>2026-09-01T07:47:05.000Z</time>
        <extensions>
          <ns3:TrackPointExtension>
            <ns3:hr>155</ns3:hr>
            <ns3:cad>0</ns3:cad>
          </ns3:TrackPointExtension>
        </extensions>
      </trkpt>
      <trkpt lat="47.5412906147539615631103515625" lon="10.999709665775299072265625">
        <ele>1892.4000244140625</ele>
        <time>2026-09-01T07:47:06.000Z</time>
        <extensions>
          <ns3:TrackPointExtension>
            <ns3:hr>156</ns3:hr>
            <ns3:cad>0</ns3:cad>
          </ns3:TrackPointExtension>
        </extensions>
      </trkpt>
      <trkpt lat="47.5412822328507900238037109375" lon="10.9997069835662841796875">
        <ele>1892.5999755859375</ele>
        <time>2026-09-01T07:47:07.000Z</time>
        <extensions>
          <ns3:TrackPointExtension>
            <ns3:hr>159</ns3:hr>
            <ns3:cad>0</ns3:cad>
          </ns3:TrackPointExtension>
        </extensions>
      </trkpt>
      <trkpt lat="47.54127276130020618438720703125" lon="10.99970321170985698699951171875">
        <ele>1892.800048828125</ele>
        <time>2026-09-01T07:47:08.000Z</time>
        <extensions>
          <ns3:TrackPointExtension>
            <ns3:hr>163</ns3:hr>
            <ns3:cad>43</ns3:cad>
          </ns3:TrackPointExtension>
        </extensions>
      </trkpt>
      <trkpt lat="47.54126639105379581451416015625" lon="10.9996897168457508087158203125">
        <ele>1893</ele>
        <time>2026-09-01T07:47:09.000Z</time>
        <extensions>
          <ns3:TrackPointExtension>
            <ns3:hr>165</ns3:hr>
            <ns3:cad>43</ns3:cad>
          </ns3:TrackPointExtension>
        </extensions>
      </trkpt>
      <trkpt lat="47.54126437939703464508056640625" lon="10.999681837856769561767578125">
        <ele>1893.4000244140625</ele>
        <time>2026-09-01T07:47:10.000Z</time>
        <extensions>
          <ns3:TrackPointExtension>
            <ns3:hr>166</ns3:hr>
            <ns3:cad>0</ns3:cad>
          </ns3:TrackPointExtension>
        </extensions>
      </trkpt>
      <trkpt lat="47.54125784151256084442138671875" lon="10.99966901354491710662841796875">
        <ele>1893.5999755859375</ele>
        <time>2026-09-01T07:47:11.000Z</time>
        <extensions>
          <ns3:TrackPointExtension>
            <ns3:hr>166</ns3:hr>
            <ns3:cad>0</ns3:cad>
          </ns3:TrackPointExtension>
        </extensions>
      </trkpt>
      <trkpt lat="47.54125013016164302825927734375" lon="10.99966515786945819854736328125">
        <ele>1893.800048828125</ele>
        <time>2026-09-01T07:47:12.000Z</time>
        <extensions>
          <ns3:TrackPointExtension>
            <ns3:hr>167</ns3:hr>
            <ns3:cad>0</ns3:cad>
          </ns3:TrackPointExtension>
        </extensions>
      </trkpt>
      <trkpt lat="47.54124342463910579681396484375" lon="10.999650657176971435546875">
        <ele>1894</ele>
        <time>2026-09-01T07:47:13.000Z</time>
        <extensions>
          <ns3:TrackPointExtension>
            <ns3:hr>166</ns3:hr>
            <ns3:cad>0</ns3:cad>
          </ns3:TrackPointExtension>
        </extensions>
      </trkpt>
      <trkpt lat="47.541234791278839111328125" lon="10.9996364079415798187255859375">
        <ele>1894.199951171875</ele>
        <time>2026-09-01T07:47:14.000Z</time>
        <extensions>
          <ns3:TrackPointExtension>
            <ns3:hr>166</ns3:hr>
            <ns3:cad>0</ns3:cad>
          </ns3:TrackPointExtension>
        </extensions>
      </trkpt>
      <trkpt lat="47.541227750480175018310546875" lon="10.99962375126779079437255859375">
        <ele>1894.199951171875</ele>
        <time>2026-09-01T07:47:15.000Z</time>
        <extensions>
          <ns3:TrackPointExtension>
            <ns3:hr>165</ns3:hr>
            <ns3:cad>0</ns3:cad>
          </ns3:TrackPointExtension>
        </extensions>
      </trkpt>
      <trkpt lat="47.54122213460505008697509765625" lon="10.99961268715560436248779296875">
        <ele>1894.4000244140625</ele>
        <time>2026-09-01T07:47:16.000Z</time>
        <extensions>
          <ns3:TrackPointExtension>
            <ns3:hr>164</ns3:hr>
            <ns3:cad>0</ns3:cad>
          </ns3:TrackPointExtension>
        </extensions>
      </trkpt>
      <trkpt lat="47.54121643491089344024658203125" lon="10.99961017258465290069580078125">
        <ele>1894.5999755859375</ele>
        <time>2026-09-01T07:47:17.000Z</time>
        <extensions>
          <ns3:TrackPointExtension>
            <ns3:hr>164</ns3:hr>
            <ns3:cad>0</ns3:cad>
          </ns3:TrackPointExtension>
        </extensions>
      </trkpt>
      <trkpt lat="47.54120704717934131622314453125" lon="10.99960044957697391510009765625">
        <ele>1894.800048828125</ele>
        <time>2026-09-01T07:47:18.000Z</time>
        <extensions>
          <ns3:TrackPointExtension>
            <ns3:hr>165</ns3:hr>
            <ns3:cad>0</ns3:cad>
          </ns3:TrackPointExtension>
        </extensions>
      </trkpt>
      <trkpt lat="47.5412054546177387237548828125" lon="10.99959089420735836029052734375">
        <ele>1895.199951171875</ele>
        <time>2026-09-01T07:47:19.000Z</time>
        <extensions>
          <ns3:TrackPointExtension>
            <ns3:hr>165</ns3:hr>
            <ns3:cad>0</ns3:cad>
          </ns3:TrackPointExtension>
        </extensions>
      </trkpt>
      <trkpt lat="47.541202940046787261962890625" lon="10.999573878943920135498046875">
        <ele>1895.5999755859375</ele>
        <time>2026-09-01T07:47:20.000Z</time>
        <extensions>
          <ns3:TrackPointExtension>
            <ns3:hr>165</ns3:hr>
            <ns3:cad>0</ns3:cad>
          </ns3:TrackPointExtension>
        </extensions>
      </trkpt>
      <trkpt lat="47.5412074662744998931884765625" lon="10.9995787404477596282958984375">
        <ele>1896</ele>
        <time>2026-09-01T07:47:21.000Z</time>
        <extensions>
          <ns3:TrackPointExtension>
            <ns3:hr>166</ns3:hr>
            <ns3:cad>0</ns3:cad>
          </ns3:TrackPointExtension>
        </extensions>
      </trkpt>
      <trkpt lat="47.54120972938835620880126953125" lon="10.999565832316875457763671875">
        <ele>1896.4000244140625</ele>
        <time>2026-09-01T07:47:22.000Z</time>
        <extensions>
          <ns3:TrackPointExtension>
            <ns3:hr>167</ns3:hr>
            <ns3:cad>79</ns3:cad>
          </ns3:TrackPointExtension>
        </extensions>
      </trkpt>
      <trkpt lat="47.54121132194995880126953125" lon="10.9995596297085285186767578125">
        <ele>1896.800048828125</ele>
        <time>2026-09-01T07:47:23.000Z</time>
        <extensions>
          <ns3:TrackPointExtension>
            <ns3:hr>167</ns3:hr>
            <ns3:cad>79</ns3:cad>
          </ns3:TrackPointExtension>
        </extensions>
      </trkpt>
      <trkpt lat="47.5412118248641490936279296875" lon="10.999553091824054718017578125">
        <ele>1897.199951171875</ele>
        <time>2026-09-01T07:47:24.000Z</time>
        <extensions>
          <ns3:TrackPointExtension>
            <ns3:hr>167</ns3:hr>
            <ns3:cad>79</ns3:cad>
          </ns3:TrackPointExtension>
        </extensions>
      </trkpt>
      <trkpt lat="47.541214339435100555419921875" lon="10.9995509125292301177978515625">
        <ele>1897.199951171875</ele>
        <time>2026-09-01T07:47:25.000Z</time>
        <extensions>
          <ns3:TrackPointExtension>
            <ns3:hr>167</ns3:hr>
            <ns3:cad>0</ns3:cad>
          </ns3:TrackPointExtension>
        </extensions>
      </trkpt>
      <trkpt lat="47.541219033300876617431640625" lon="10.9995519183576107025146484375">
        <ele>1897.4000244140625</ele>
        <time>2026-09-01T07:47:26.000Z</time>
        <extensions>
          <ns3:TrackPointExtension>
            <ns3:hr>166</ns3:hr>
            <ns3:cad>0</ns3:cad>
          </ns3:TrackPointExtension>
        </extensions>
      </trkpt>
      <trkpt lat="47.54122473299503326416015625" lon="10.999551750719547271728515625">
        <ele>1897.5999755859375</ele>
        <time>2026-09-01T07:47:27.000Z</time>
        <extensions>
          <ns3:TrackPointExtension>
            <ns3:hr>166</ns3:hr>
            <ns3:cad>0</ns3:cad>
          </ns3:TrackPointExtension>
        </extensions>
      </trkpt>
      <trkpt lat="47.541228421032428741455078125" lon="10.99955585785210132598876953125">
        <ele>1897.800048828125</ele>
        <time>2026-09-01T07:47:28.000Z</time>
        <extensions>
          <ns3:TrackPointExtension>
            <ns3:hr>165</ns3:hr>
            <ns3:cad>0</ns3:cad>
          </ns3:TrackPointExtension>
        </extensions>
      </trkpt>
      <trkpt lat="47.5412326119840145111083984375" lon="10.99956356920301914215087890625">
        <ele>1898</ele>
        <time>2026-09-01T07:47:29.000Z</time>
        <extensions>
          <ns3:TrackPointExtension>
            <ns3:hr>166</ns3:hr>
            <ns3:cad>0</ns3:cad>
          </ns3:TrackPointExtension>
        </extensions>
      </trkpt>
      <trkpt lat="47.54123906604945659637451171875" lon="10.9995643235743045806884765625">
        <ele>1898.4000244140625</ele>
        <time>2026-09-01T07:47:30.000Z</time>
        <extensions>
          <ns3:TrackPointExtension>
            <ns3:hr>166</ns3:hr>
            <ns3:cad>0</ns3:cad>
          </ns3:TrackPointExtension>
        </extensions>
      </trkpt>
      <trkpt lat="47.5412456877529621124267578125" lon="10.9995626471936702728271484375">
        <ele>1898.800048828125</ele>
        <time>2026-09-01T07:47:31.000Z</time>
        <extensions>
          <ns3:TrackPointExtension>
            <ns3:hr>165</ns3:hr>
            <ns3:cad>0</ns3:cad>
          </ns3:TrackPointExtension>
        </extensions>
      </trkpt>
      <trkpt lat="47.54125415347516536712646484375" lon="10.99956407211720943450927734375">
        <ele>1899</ele>
        <time>2026-09-01T07:47:32.000Z</time>
        <extensions>
          <ns3:TrackPointExtension>
            <ns3:hr>165</ns3:hr>
            <ns3:cad>0</ns3:cad>
          </ns3:TrackPointExtension>
        </extensions>
      </trkpt>
      <trkpt lat="47.54126220010221004486083984375" lon="10.99955854006111621856689453125">
        <ele>1899.4000244140625</ele>
        <time>2026-09-01T07:47:33.000Z</time>
        <extensions>
          <ns3:TrackPointExtension>
            <ns3:hr>165</ns3:hr>
            <ns3:cad>0</ns3:cad>
          </ns3:TrackPointExtension>
        </extensions>
      </trkpt>
      <trkpt lat="47.541259266436100006103515625" lon="10.99955652840435504913330078125">
        <ele>1899.800048828125</ele>
        <time>2026-09-01T07:47:34.000Z</time>
        <extensions>
          <ns3:TrackPointExtension>
            <ns3:hr>165</ns3:hr>
            <ns3:cad>0</ns3:cad>
          </ns3:TrackPointExtension>
        </extensions>
      </trkpt>
      <trkpt lat="47.54125901497900485992431640625" lon="10.9995549358427524566650390625">
        <ele>1900</ele>
        <time>2026-09-01T07:47:35.000Z</time>
        <extensions>
          <ns3:TrackPointExtension>
            <ns3:hr>166</ns3:hr>
            <ns3:cad>0</ns3:cad>
          </ns3:TrackPointExtension>
        </extensions>
      </trkpt>
      <trkpt lat="47.54126739688217639923095703125" lon="10.9995478950440883636474609375">
        <ele>1900.199951171875</ele>
        <time>2026-09-01T07:47:36.000Z</time>
        <extensions>
          <ns3:TrackPointExtension>
            <ns3:hr>166</ns3:hr>
            <ns3:cad>0</ns3:cad>
          </ns3:TrackPointExtension>
        </extensions>
      </trkpt>
      <trkpt lat="47.541272677481174468994140625" lon="10.99953456781804561614990234375">
        <ele>1900.199951171875</ele>
        <time>2026-09-01T07:47:37.000Z</time>
        <extensions>
          <ns3:TrackPointExtension>
            <ns3:hr>166</ns3:hr>
            <ns3:cad>0</ns3:cad>
          </ns3:TrackPointExtension>
        </extensions>
      </trkpt>
      <trkpt lat="47.5412775389850139617919921875" lon="10.99952333606779575347900390625">
        <ele>1900.4000244140625</ele>
        <time>2026-09-01T07:47:38.000Z</time>
        <extensions>
          <ns3:TrackPointExtension>
            <ns3:hr>166</ns3:hr>
            <ns3:cad>0</ns3:cad>
          </ns3:TrackPointExtension>
        </extensions>
      </trkpt>
      <trkpt lat="47.54127980209887027740478515625" lon="10.999516882002353668212890625">
        <ele>1900.5999755859375</ele>
        <time>2026-09-01T07:47:39.000Z</time>
        <extensions>
          <ns3:TrackPointExtension>
            <ns3:hr>167</ns3:hr>
            <ns3:cad>0</ns3:cad>
          </ns3:TrackPointExtension>
        </extensions>
      </trkpt>
      <trkpt lat="47.54128030501306056976318359375" lon="10.99951528944075107574462890625">
        <ele>1901</ele>
        <time>2026-09-01T07:47:40.000Z</time>
        <extensions>
          <ns3:TrackPointExtension>
            <ns3:hr>167</ns3:hr>
            <ns3:cad>0</ns3:cad>
          </ns3:TrackPointExtension>
        </extensions>
      </trkpt>
      <trkpt lat="47.54127410240471363067626953125" lon="10.99950573407113552093505859375">
        <ele>1901.199951171875</ele>
        <time>2026-09-01T07:47:41.000Z</time>
        <extensions>
          <ns3:TrackPointExtension>
            <ns3:hr>167</ns3:hr>
            <ns3:cad>0</ns3:cad>
          </ns3:TrackPointExtension>
        </extensions>
      </trkpt>
      <trkpt lat="47.54126806743443012237548828125" lon="10.9995012916624546051025390625">
        <ele>1901.4000244140625</ele>
        <time>2026-09-01T07:47:42.000Z</time>
        <extensions>
          <ns3:TrackPointExtension>
            <ns3:hr>168</ns3:hr>
            <ns3:cad>0</ns3:cad>
          </ns3:TrackPointExtension>
        </extensions>
      </trkpt>
      <trkpt lat="47.54126085899770259857177734375" lon="10.99949249066412448883056640625">
        <ele>1901.5999755859375</ele>
        <time>2026-09-01T07:47:43.000Z</time>
        <extensions>
          <ns3:TrackPointExtension>
            <ns3:hr>169</ns3:hr>
            <ns3:cad>0</ns3:cad>
          </ns3:TrackPointExtension>
        </extensions>
      </trkpt>
      <trkpt lat="47.54125398583710193634033203125" lon="10.99947958253324031829833984375">
        <ele>1901.5999755859375</ele>
        <time>2026-09-01T07:47:44.000Z</time>
        <extensions>
          <ns3:TrackPointExtension>
            <ns3:hr>169</ns3:hr>
            <ns3:cad>0</ns3:cad>
          </ns3:TrackPointExtension>
        </extensions>
      </trkpt>
      <trkpt lat="47.541247867047786712646484375" lon="10.99946784786880016326904296875">
        <ele>1901.800048828125</ele>
        <time>2026-09-01T07:47:45.000Z</time>
        <extensions>
          <ns3:TrackPointExtension>
            <ns3:hr>170</ns3:hr>
            <ns3:cad>0</ns3:cad>
          </ns3:TrackPointExtension>
        </extensions>
      </trkpt>
      <trkpt lat="47.54123906604945659637451171875" lon="10.99946047179400920867919921875">
        <ele>1901.800048828125</ele>
        <time>2026-09-01T07:47:46.000Z</time>
        <extensions>
          <ns3:TrackPointExtension>
            <ns3:hr>171</ns3:hr>
            <ns3:cad>0</ns3:cad>
          </ns3:TrackPointExtension>
        </extensions>
      </trkpt>
      <trkpt lat="47.54123152233660221099853515625" lon="10.99944689311087131500244140625">
        <ele>1902</ele>
        <time>2026-09-01T07:47:47.000Z</time>
        <extensions>
          <ns3:TrackPointExtension>
            <ns3:hr>171</ns3:hr>
            <ns3:cad>0</ns3:cad>
          </ns3:TrackPointExtension>
        </extensions>
      </trkpt>
      <trkpt lat="47.54123001359403133392333984375" lon="10.99944253452122211456298828125">
        <ele>1902</ele>
        <time>2026-09-01T07:47:48.000Z</time>
        <extensions>
          <ns3:TrackPointExtension>
            <ns3:hr>172</ns3:hr>
            <ns3:cad>0</ns3:cad>
          </ns3:TrackPointExtension>
        </extensions>
      </trkpt>
      <trkpt lat="47.54122632555663585662841796875" lon="10.99943675100803375244140625">
        <ele>1902</ele>
        <time>2026-09-01T07:47:49.000Z</time>
        <extensions>
          <ns3:TrackPointExtension>
            <ns3:hr>173</ns3:hr>
            <ns3:cad>0</ns3:cad>
          </ns3:TrackPointExtension>
        </extensions>
      </trkpt>
      <trkpt lat="47.541221715509891510009765625" lon="10.99942593835294246673583984375">
        <ele>1902.199951171875</ele>
        <time>2026-09-01T07:47:50.000Z</time>
        <extensions>
          <ns3:TrackPointExtension>
            <ns3:hr>173</ns3:hr>
            <ns3:cad>0</ns3:cad>
          </ns3:TrackPointExtension>
        </extensions>
      </trkpt>
      <trkpt lat="47.5412215478718280792236328125" lon="10.999427698552608489990234375">
        <ele>1902.199951171875</ele>
        <time>2026-09-01T07:47:51.000Z</time>
        <extensions>
          <ns3:TrackPointExtension>
            <ns3:hr>172</ns3:hr>
            <ns3:cad>0</ns3:cad>
          </ns3:TrackPointExtension>
        </extensions>
      </trkpt>
      <trkpt lat="47.54122674465179443359375" lon="10.99941403605043888092041015625">
        <ele>1902.4000244140625</ele>
        <time>2026-09-01T07:47:52.000Z</time>
        <extensions>
          <ns3:TrackPointExtension>
            <ns3:hr>171</ns3:hr>
            <ns3:cad>0</ns3:cad>
          </ns3:TrackPointExtension>
        </extensions>
      </trkpt>
      <trkpt lat="47.541227079927921295166015625" lon="10.99940565414726734161376953125">
        <ele>1902.800048828125</ele>
        <time>2026-09-01T07:47:53.000Z</time>
        <extensions>
          <ns3:TrackPointExtension>
            <ns3:hr>170</ns3:hr>
            <ns3:cad>0</ns3:cad>
          </ns3:TrackPointExtension>
        </extensions>
      </trkpt>
      <trkpt lat="47.5412255711853504180908203125" lon="10.9994023852050304412841796875">
        <ele>1903.199951171875</ele>
        <time>2026-09-01T07:47:54.000Z</time>
        <extensions>
          <ns3:TrackPointExtension>
            <ns3:hr>169</ns3:hr>
            <ns3:cad>0</ns3:cad>
          </ns3:TrackPointExtension>
        </extensions>
      </trkpt>
      <trkpt lat="47.541223056614398956298828125" lon="10.99940054118633270263671875">
        <ele>1903.4000244140625</ele>
        <time>2026-09-01T07:47:55.000Z</time>
        <extensions>
          <ns3:TrackPointExtension>
            <ns3:hr>169</ns3:hr>
            <ns3:cad>0</ns3:cad>
          </ns3:TrackPointExtension>
        </extensions>
      </trkpt>
      <trkpt lat="47.5412171892821788787841796875" lon="10.99939241074025630950927734375">
        <ele>1903.800048828125</ele>
        <time>2026-09-01T07:47:56.000Z</time>
        <extensions>
          <ns3:TrackPointExtension>
            <ns3:hr>169</ns3:hr>
            <ns3:cad>0</ns3:cad>
          </ns3:TrackPointExtension>
        </extensions>
      </trkpt>
      <trkpt lat="47.5412165187299251556396484375" lon="10.99939651787281036376953125">
        <ele>1904</ele>
        <time>2026-09-01T07:47:57.000Z</time>
        <extensions>
          <ns3:TrackPointExtension>
            <ns3:hr>169</ns3:hr>
            <ns3:cad>0</ns3:cad>
          </ns3:TrackPointExtension>
        </extensions>
      </trkpt>
      <trkpt lat="47.5412114895880222320556640625" lon="10.99938922561705112457275390625">
        <ele>1904.199951171875</ele>
        <time>2026-09-01T07:47:58.000Z</time>
        <extensions>
          <ns3:TrackPointExtension>
            <ns3:hr>168</ns3:hr>
            <ns3:cad>0</ns3:cad>
          </ns3:TrackPointExtension>
        </extensions>
      </trkpt>
      <trkpt lat="47.5412066280841827392578125" lon="10.99938503466546535491943359375">
        <ele>1904.199951171875</ele>
        <time>2026-09-01T07:47:59.000Z</time>
        <extensions>
          <ns3:TrackPointExtension>
            <ns3:hr>168</ns3:hr>
            <ns3:cad>0</ns3:cad>
          </ns3:TrackPointExtension>
        </extensions>
      </trkpt>
      <trkpt lat="47.5412039458751678466796875" lon="10.99937640130519866943359375">
        <ele>1904.4000244140625</ele>
        <time>2026-09-01T07:48:00.000Z</time>
        <extensions>
          <ns3:TrackPointExtension>
            <ns3:hr>166</ns3:hr>
            <ns3:cad>0</ns3:cad>
          </ns3:TrackPointExtension>
        </extensions>
      </trkpt>
      <trkpt lat="47.54120889119803905487060546875" lon="10.999384112656116485595703125">
        <ele>1904.5999755859375</ele>
        <time>2026-09-01T07:48:01.000Z</time>
        <extensions>
          <ns3:TrackPointExtension>
            <ns3:hr>163</ns3:hr>
            <ns3:cad>0</ns3:cad>
          </ns3:TrackPointExtension>
        </extensions>
      </trkpt>
      <trkpt lat="47.54120687954127788543701171875" lon="10.99936969578266143798828125">
        <ele>1904.5999755859375</ele>
        <time>2026-09-01T07:48:02.000Z</time>
        <extensions>
          <ns3:TrackPointExtension>
            <ns3:hr>163</ns3:hr>
            <ns3:cad>0</ns3:cad>
          </ns3:TrackPointExtension>
        </extensions>
      </trkpt>
      <trkpt lat="47.541213668882846832275390625" lon="10.99935896694660186767578125">
        <ele>1904.800048828125</ele>
        <time>2026-09-01T07:48:03.000Z</time>
        <extensions>
          <ns3:TrackPointExtension>
            <ns3:hr>162</ns3:hr>
            <ns3:cad>0</ns3:cad>
          </ns3:TrackPointExtension>
        </extensions>
      </trkpt>
      <trkpt lat="47.541212998330593109130859375" lon="10.99934689700603485107421875">
        <ele>1905.199951171875</ele>
        <time>2026-09-01T07:48:04.000Z</time>
        <extensions>
          <ns3:TrackPointExtension>
            <ns3:hr>162</ns3:hr>
            <ns3:cad>0</ns3:cad>
          </ns3:TrackPointExtension>
        </extensions>
      </trkpt>
      <trkpt lat="47.54121492616832256317138671875" lon="10.99933407269418239593505859375">
        <ele>1905.5999755859375</ele>
        <time>2026-09-01T07:48:05.000Z</time>
        <extensions>
          <ns3:TrackPointExtension>
            <ns3:hr>162</ns3:hr>
            <ns3:cad>0</ns3:cad>
          </ns3:TrackPointExtension>
        </extensions>
      </trkpt>
      <trkpt lat="47.5412155129015445709228515625" lon="10.99932502023875713348388671875">
        <ele>1906</ele>
        <time>2026-09-01T07:48:06.000Z</time>
        <extensions>
          <ns3:TrackPointExtension>
            <ns3:hr>162</ns3:hr>
            <ns3:cad>0</ns3:cad>
          </ns3:TrackPointExtension>
        </extensions>
      </trkpt>
      <trkpt lat="47.54121760837733745574951171875" lon="10.99931462667882442474365234375">
        <ele>1906.4000244140625</ele>
        <time>2026-09-01T07:48:07.000Z</time>
        <extensions>
          <ns3:TrackPointExtension>
            <ns3:hr>163</ns3:hr>
            <ns3:cad>0</ns3:cad>
          </ns3:TrackPointExtension>
        </extensions>
      </trkpt>
      <trkpt lat="47.5412213802337646484375" lon="10.99931378848850727081298828125">
        <ele>1907</ele>
        <time>2026-09-01T07:48:08.000Z</time>
        <extensions>
          <ns3:TrackPointExtension>
            <ns3:hr>162</ns3:hr>
            <ns3:cad>0</ns3:cad>
          </ns3:TrackPointExtension>
        </extensions>
      </trkpt>
      <trkpt lat="47.54122481681406497955322265625" lon="10.99930389784276485443115234375">
        <ele>1907.5999755859375</ele>
        <time>2026-09-01T07:48:09.000Z</time>
        <extensions>
          <ns3:TrackPointExtension>
            <ns3:hr>162</ns3:hr>
            <ns3:cad>0</ns3:cad>
          </ns3:TrackPointExtension>
        </extensions>
      </trkpt>
      <trkpt lat="47.54122330807149410247802734375" lon="10.999304316937923431396484375">
        <ele>1908</ele>
        <time>2026-09-01T07:48:10.000Z</time>
        <extensions>
          <ns3:TrackPointExtension>
            <ns3:hr>161</ns3:hr>
            <ns3:cad>0</ns3:cad>
          </ns3:TrackPointExtension>
        </extensions>
      </trkpt>
      <trkpt lat="47.5412198714911937713623046875" lon="10.9992872178554534912109375">
        <ele>1908.4000244140625</ele>
        <time>2026-09-01T07:48:11.000Z</time>
        <extensions>
          <ns3:TrackPointExtension>
            <ns3:hr>161</ns3:hr>
            <ns3:cad>0</ns3:cad>
          </ns3:TrackPointExtension>
        </extensions>
      </trkpt>
      <trkpt lat="47.54122070968151092529296875" lon="10.99927908740937709808349609375">
        <ele>1909</ele>
        <time>2026-09-01T07:48:12.000Z</time>
        <extensions>
          <ns3:TrackPointExtension>
            <ns3:hr>160</ns3:hr>
            <ns3:cad>0</ns3:cad>
          </ns3:TrackPointExtension>
        </extensions>
      </trkpt>
      <trkpt lat="47.5412181951105594635009765625" lon="10.9992652572691440582275390625">
        <ele>1909.4000244140625</ele>
        <time>2026-09-01T07:48:13.000Z</time>
        <extensions>
          <ns3:TrackPointExtension>
            <ns3:hr>160</ns3:hr>
            <ns3:cad>0</ns3:cad>
          </ns3:TrackPointExtension>
        </extensions>
      </trkpt>
      <trkpt lat="47.54121475853025913238525390625" lon="10.99925436079502105712890625">
        <ele>1909.800048828125</ele>
        <time>2026-09-01T07:48:14.000Z</time>
        <extensions>
          <ns3:TrackPointExtension>
            <ns3:hr>159</ns3:hr>
            <ns3:cad>0</ns3:cad>
          </ns3:TrackPointExtension>
        </extensions>
      </trkpt>
      <trkpt lat="47.5412093102931976318359375" lon="10.99924220703542232513427734375">
        <ele>1910.199951171875</ele>
        <time>2026-09-01T07:48:15.000Z</time>
        <extensions>
          <ns3:TrackPointExtension>
            <ns3:hr>159</ns3:hr>
            <ns3:cad>0</ns3:cad>
          </ns3:TrackPointExtension>
        </extensions>
      </trkpt>
      <trkpt lat="47.5412067957222461700439453125" lon="10.999235250055789947509765625">
        <ele>1910.4000244140625</ele>
        <time>2026-09-01T07:48:16.000Z</time>
        <extensions>
          <ns3:TrackPointExtension>
            <ns3:hr>159</ns3:hr>
            <ns3:cad>0</ns3:cad>
          </ns3:TrackPointExtension>
        </extensions>
      </trkpt>
      <trkpt lat="47.5411999225616455078125" lon="10.99923533387482166290283203125">
        <ele>1910.5999755859375</ele>
        <time>2026-09-01T07:48:17.000Z</time>
        <extensions>
          <ns3:TrackPointExtension>
            <ns3:hr>159</ns3:hr>
            <ns3:cad>0</ns3:cad>
          </ns3:TrackPointExtension>
        </extensions>
      </trkpt>
      <trkpt lat="47.54119615070521831512451171875" lon="10.99922351539134979248046875">
        <ele>1910.800048828125</ele>
        <time>2026-09-01T07:48:18.000Z</time>
        <extensions>
          <ns3:TrackPointExtension>
            <ns3:hr>159</ns3:hr>
            <ns3:cad>0</ns3:cad>
          </ns3:TrackPointExtension>
        </extensions>
      </trkpt>
      <trkpt lat="47.54119548015296459197998046875" lon="10.999227873980998992919921875">
        <ele>1911</ele>
        <time>2026-09-01T07:48:19.000Z</time>
        <extensions>
          <ns3:TrackPointExtension>
            <ns3:hr>160</ns3:hr>
            <ns3:cad>0</ns3:cad>
          </ns3:TrackPointExtension>
        </extensions>
      </trkpt>
      <trkpt lat="47.54119380377233028411865234375" lon="10.999221168458461761474609375">
        <ele>1911.199951171875</ele>
        <time>2026-09-01T07:48:20.000Z</time>
        <extensions>
          <ns3:TrackPointExtension>
            <ns3:hr>162</ns3:hr>
            <ns3:cad>0</ns3:cad>
          </ns3:TrackPointExtension>
        </extensions>
      </trkpt>
      <trkpt lat="47.54119120538234710693359375" lon="10.9992106072604656219482421875">
        <ele>1911.4000244140625</ele>
        <time>2026-09-01T07:48:21.000Z</time>
        <extensions>
          <ns3:TrackPointExtension>
            <ns3:hr>165</ns3:hr>
            <ns3:cad>0</ns3:cad>
          </ns3:TrackPointExtension>
        </extensions>
      </trkpt>
      <trkpt lat="47.5411932170391082763671875" lon="10.999210774898529052734375">
        <ele>1911.5999755859375</ele>
        <time>2026-09-01T07:48:22.000Z</time>
        <extensions>
          <ns3:TrackPointExtension>
            <ns3:hr>166</ns3:hr>
            <ns3:cad>0</ns3:cad>
          </ns3:TrackPointExtension>
        </extensions>
      </trkpt>
      <trkpt lat="47.54119656980037689208984375" lon="10.9991992078721523284912109375">
        <ele>1911.800048828125</ele>
        <time>2026-09-01T07:48:23.000Z</time>
        <extensions>
          <ns3:TrackPointExtension>
            <ns3:hr>167</ns3:hr>
            <ns3:cad>0</ns3:cad>
          </ns3:TrackPointExtension>
        </extensions>
      </trkpt>
      <trkpt lat="47.54119715653359889984130859375" lon="10.999184288084506988525390625">
        <ele>1912.199951171875</ele>
        <time>2026-09-01T07:48:24.000Z</time>
        <extensions>
          <ns3:TrackPointExtension>
            <ns3:hr>167</ns3:hr>
            <ns3:cad>0</ns3:cad>
          </ns3:TrackPointExtension>
        </extensions>
      </trkpt>
      <trkpt lat="47.54119179211556911468505859375" lon="10.99918118678033351898193359375">
        <ele>1912.5999755859375</ele>
        <time>2026-09-01T07:48:25.000Z</time>
        <extensions>
          <ns3:TrackPointExtension>
            <ns3:hr>167</ns3:hr>
            <ns3:cad>0</ns3:cad>
          </ns3:TrackPointExtension>
        </extensions>
      </trkpt>
      <trkpt lat="47.54118575714528560638427734375" lon="10.99917230196297168731689453125">
        <ele>1912.800048828125</ele>
        <time>2026-09-01T07:48:26.000Z</time>
        <extensions>
          <ns3:TrackPointExtension>
            <ns3:hr>168</ns3:hr>
            <ns3:cad>0</ns3:cad>
          </ns3:TrackPointExtension>
        </extensions>
      </trkpt>
      <trkpt lat="47.5411766208708286285400390625" lon="10.99915972910821437835693359375">
        <ele>1913.199951171875</ele>
        <time>2026-09-01T07:48:27.000Z</time>
        <extensions>
          <ns3:TrackPointExtension>
            <ns3:hr>168</ns3:hr>
            <ns3:cad>0</ns3:cad>
          </ns3:TrackPointExtension>
        </extensions>
      </trkpt>
      <trkpt lat="47.5411722622811794281005859375" lon="10.99915671162307262420654296875">
        <ele>1913.5999755859375</ele>
        <time>2026-09-01T07:48:28.000Z</time>
        <extensions>
          <ns3:TrackPointExtension>
            <ns3:hr>168</ns3:hr>
            <ns3:cad>0</ns3:cad>
          </ns3:TrackPointExtension>
        </extensions>
      </trkpt>
      <trkpt lat="47.541162036359310150146484375" lon="10.9991596452891826629638671875">
        <ele>1913.800048828125</ele>
        <time>2026-09-01T07:48:29.000Z</time>
        <extensions>
          <ns3:TrackPointExtension>
            <ns3:hr>168</ns3:hr>
            <ns3:cad>0</ns3:cad>
          </ns3:TrackPointExtension>
        </extensions>
      </trkpt>
      <trkpt lat="47.54114560782909393310546875" lon="10.99916559644043445587158203125">
        <ele>1914</ele>
        <time>2026-09-01T07:48:30.000Z</time>
        <extensions>
          <ns3:TrackPointExtension>
            <ns3:hr>168</ns3:hr>
            <ns3:cad>0</ns3:cad>
          </ns3:TrackPointExtension>
        </extensions>
      </trkpt>
      <trkpt lat="47.5411380641162395477294921875" lon="10.999162495136260986328125">
        <ele>1914.199951171875</ele>
        <time>2026-09-01T07:48:31.000Z</time>
        <extensions>
          <ns3:TrackPointExtension>
            <ns3:hr>168</ns3:hr>
            <ns3:cad>0</ns3:cad>
          </ns3:TrackPointExtension>
        </extensions>
      </trkpt>
      <trkpt lat="47.5411288440227508544921875" lon="10.99917079322040081024169921875">
        <ele>1914.199951171875</ele>
        <time>2026-09-01T07:48:32.000Z</time>
        <extensions>
          <ns3:TrackPointExtension>
            <ns3:hr>167</ns3:hr>
            <ns3:cad>0</ns3:cad>
          </ns3:TrackPointExtension>
        </extensions>
      </trkpt>
      <trkpt lat="47.541123144328594207763671875" lon="10.99917464889585971832275390625">
        <ele>1914</ele>
        <time>2026-09-01T07:48:33.000Z</time>
        <extensions>
          <ns3:TrackPointExtension>
            <ns3:hr>167</ns3:hr>
            <ns3:cad>0</ns3:cad>
          </ns3:TrackPointExtension>
        </extensions>
      </trkpt>
      <trkpt lat="47.5411119125783443450927734375" lon="10.99917590618133544921875">
        <ele>1914</ele>
        <time>2026-09-01T07:48:34.000Z</time>
        <extensions>
          <ns3:TrackPointExtension>
            <ns3:hr>167</ns3:hr>
            <ns3:cad>0</ns3:cad>
          </ns3:TrackPointExtension>
        </extensions>
      </trkpt>
      <trkpt lat="47.54110998474061489105224609375" lon="10.99917733110487461090087890625">
        <ele>1914</ele>
        <time>2026-09-01T07:48:35.000Z</time>
        <extensions>
          <ns3:TrackPointExtension>
            <ns3:hr>167</ns3:hr>
            <ns3:cad>50</ns3:cad>
          </ns3:TrackPointExtension>
        </extensions>
      </trkpt>
      <trkpt lat="47.5411020219326019287109375" lon="10.99917615763843059539794921875">
        <ele>1914</ele>
        <time>2026-09-01T07:48:36.000Z</time>
        <extensions>
          <ns3:TrackPointExtension>
            <ns3:hr>166</ns3:hr>
            <ns3:cad>50</ns3:cad>
          </ns3:TrackPointExtension>
        </extensions>
      </trkpt>
      <trkpt lat="47.54109892062842845916748046875" lon="10.999175570905208587646484375">
        <ele>1914</ele>
        <time>2026-09-01T07:48:37.000Z</time>
        <extensions>
          <ns3:TrackPointExtension>
            <ns3:hr>166</ns3:hr>
            <ns3:cad>50</ns3:cad>
          </ns3:TrackPointExtension>
        </extensions>
      </trkpt>
      <trkpt lat="47.5411028601229190826416015625" lon="10.99917733110487461090087890625">
        <ele>1914</ele>
        <time>2026-09-01T07:48:38.000Z</time>
        <extensions>
          <ns3:TrackPointExtension>
            <ns3:hr>165</ns3:hr>
            <ns3:cad>50</ns3:cad>
          </ns3:TrackPointExtension>
        </extensions>
      </trkpt>
      <trkpt lat="47.5411058776080608367919921875" lon="10.9991764090955257415771484375">
        <ele>1914</ele>
        <time>2026-09-01T07:48:39.000Z</time>
        <extensions>
          <ns3:TrackPointExtension>
            <ns3:hr>165</ns3:hr>
            <ns3:cad>53</ns3:cad>
          </ns3:TrackPointExtension>
        </extensions>
      </trkpt>
      <trkpt lat="47.54111333750188350677490234375" lon="10.9991754032671451568603515625">
        <ele>1913.800048828125</ele>
        <time>2026-09-01T07:48:40.000Z</time>
        <extensions>
          <ns3:TrackPointExtension>
            <ns3:hr>164</ns3:hr>
            <ns3:cad>53</ns3:cad>
          </ns3:TrackPointExtension>
        </extensions>
      </trkpt>
      <trkpt lat="47.54111719317734241485595703125" lon="10.99917280487716197967529296875">
        <ele>1913.800048828125</ele>
        <time>2026-09-01T07:48:41.000Z</time>
        <extensions>
          <ns3:TrackPointExtension>
            <ns3:hr>164</ns3:hr>
            <ns3:cad>53</ns3:cad>
          </ns3:TrackPointExtension>
        </extensions>
      </trkpt>
      <trkpt lat="47.54112146794795989990234375" lon="10.99916894920170307159423828125">
        <ele>1913.5999755859375</ele>
        <time>2026-09-01T07:48:42.000Z</time>
        <extensions>
          <ns3:TrackPointExtension>
            <ns3:hr>163</ns3:hr>
            <ns3:cad>0</ns3:cad>
          </ns3:TrackPointExtension>
        </extensions>
      </trkpt>
      <trkpt lat="47.5411270000040531158447265625" lon="10.99916442297399044036865234375">
        <ele>1913.5999755859375</ele>
        <time>2026-09-01T07:48:43.000Z</time>
        <extensions>
          <ns3:TrackPointExtension>
            <ns3:hr>164</ns3:hr>
            <ns3:cad>0</ns3:cad>
          </ns3:TrackPointExtension>
        </extensions>
      </trkpt>
      <trkpt lat="47.54113077186048030853271484375" lon="10.999157130718231201171875">
        <ele>1913.5999755859375</ele>
        <time>2026-09-01T07:48:44.000Z</time>
        <extensions>
          <ns3:TrackPointExtension>
            <ns3:hr>164</ns3:hr>
            <ns3:cad>0</ns3:cad>
          </ns3:TrackPointExtension>
        </extensions>
      </trkpt>
      <trkpt lat="47.5411303527653217315673828125" lon="10.99915469996631145477294921875">
        <ele>1913.5999755859375</ele>
        <time>2026-09-01T07:48:45.000Z</time>
        <extensions>
          <ns3:TrackPointExtension>
            <ns3:hr>164</ns3:hr>
            <ns3:cad>0</ns3:cad>
          </ns3:TrackPointExtension>
        </extensions>
      </trkpt>
      <trkpt lat="47.541134543716907501220703125" lon="10.99914447404444217681884765625">
        <ele>1913.800048828125</ele>
        <time>2026-09-01T07:48:46.000Z</time>
        <extensions>
          <ns3:TrackPointExtension>
            <ns3:hr>164</ns3:hr>
            <ns3:cad>0</ns3:cad>
          </ns3:TrackPointExtension>
        </extensions>
      </trkpt>
      <trkpt lat="47.54113211296498775482177734375" lon="10.99913223646581172943115234375">
        <ele>1914</ele>
        <time>2026-09-01T07:48:47.000Z</time>
        <extensions>
          <ns3:TrackPointExtension>
            <ns3:hr>164</ns3:hr>
            <ns3:cad>0</ns3:cad>
          </ns3:TrackPointExtension>
        </extensions>
      </trkpt>
      <trkpt lat="47.541132867336273193359375" lon="10.99912251345813274383544921875">
        <ele>1914.4000244140625</ele>
        <time>2026-09-01T07:48:48.000Z</time>
        <extensions>
          <ns3:TrackPointExtension>
            <ns3:hr>164</ns3:hr>
            <ns3:cad>0</ns3:cad>
          </ns3:TrackPointExtension>
        </extensions>
      </trkpt>
      <trkpt lat="47.541128508746623992919921875" lon="10.99911463446915149688720703125">
        <ele>1914.800048828125</ele>
        <time>2026-09-01T07:48:49.000Z</time>
        <extensions>
          <ns3:TrackPointExtension>
            <ns3:hr>163</ns3:hr>
            <ns3:cad>0</ns3:cad>
          </ns3:TrackPointExtension>
        </extensions>
      </trkpt>
      <trkpt lat="47.54112406633794307708740234375" lon="10.99910859949886798858642578125">
        <ele>1915.199951171875</ele>
        <time>2026-09-01T07:48:50.000Z</time>
        <extensions>
          <ns3:TrackPointExtension>
            <ns3:hr>163</ns3:hr>
            <ns3:cad>0</ns3:cad>
          </ns3:TrackPointExtension>
        </extensions>
      </trkpt>
      <trkpt lat="47.5411125831305980682373046875" lon="10.99910683929920196533203125">
        <ele>1915.4000244140625</ele>
        <time>2026-09-01T07:48:51.000Z</time>
        <extensions>
          <ns3:TrackPointExtension>
            <ns3:hr>163</ns3:hr>
            <ns3:cad>0</ns3:cad>
          </ns3:TrackPointExtension>
        </extensions>
      </trkpt>
      <trkpt lat="47.5411048717796802520751953125" lon="10.99910357035696506500244140625">
        <ele>1915.800048828125</ele>
        <time>2026-09-01T07:48:52.000Z</time>
        <extensions>
          <ns3:TrackPointExtension>
            <ns3:hr>164</ns3:hr>
            <ns3:cad>0</ns3:cad>
          </ns3:TrackPointExtension>
        </extensions>
      </trkpt>
      <trkpt lat="47.54110361449420452117919921875" lon="10.999093763530254364013671875">
        <ele>1916</ele>
        <time>2026-09-01T07:48:53.000Z</time>
        <extensions>
          <ns3:TrackPointExtension>
            <ns3:hr>165</ns3:hr>
            <ns3:cad>0</ns3:cad>
          </ns3:TrackPointExtension>
        </extensions>
      </trkpt>
      <trkpt lat="47.54110445268452167510986328125" lon="10.99908647127449512481689453125">
        <ele>1916.199951171875</ele>
        <time>2026-09-01T07:48:54.000Z</time>
        <extensions>
          <ns3:TrackPointExtension>
            <ns3:hr>165</ns3:hr>
            <ns3:cad>0</ns3:cad>
          </ns3:TrackPointExtension>
        </extensions>
      </trkpt>
      <trkpt lat="47.54110445268452167510986328125" lon="10.9990805201232433319091796875">
        <ele>1916.4000244140625</ele>
        <time>2026-09-01T07:48:55.000Z</time>
        <extensions>
          <ns3:TrackPointExtension>
            <ns3:hr>165</ns3:hr>
            <ns3:cad>0</ns3:cad>
          </ns3:TrackPointExtension>
        </extensions>
      </trkpt>
      <trkpt lat="47.54110394977033138275146484375" lon="10.99907624535262584686279296875">
        <ele>1916.5999755859375</ele>
        <time>2026-09-01T07:48:56.000Z</time>
        <extensions>
          <ns3:TrackPointExtension>
            <ns3:hr>165</ns3:hr>
            <ns3:cad>0</ns3:cad>
          </ns3:TrackPointExtension>
        </extensions>
      </trkpt>
      <trkpt lat="47.5411045365035533905029296875" lon="10.99906316958367824554443359375">
        <ele>1916.800048828125</ele>
        <time>2026-09-01T07:48:57.000Z</time>
        <extensions>
          <ns3:TrackPointExtension>
            <ns3:hr>166</ns3:hr>
            <ns3:cad>0</ns3:cad>
          </ns3:TrackPointExtension>
        </extensions>
      </trkpt>
      <trkpt lat="47.541105709969997406005859375" lon="10.999058894813060760498046875">
        <ele>1917.199951171875</ele>
        <time>2026-09-01T07:48:58.000Z</time>
        <extensions>
          <ns3:TrackPointExtension>
            <ns3:hr>166</ns3:hr>
            <ns3:cad>51</ns3:cad>
          </ns3:TrackPointExtension>
        </extensions>
      </trkpt>
      <trkpt lat="47.54110537469387054443359375" lon="10.9990486688911914825439453125">
        <ele>1917.4000244140625</ele>
        <time>2026-09-01T07:48:59.000Z</time>
        <extensions>
          <ns3:TrackPointExtension>
            <ns3:hr>166</ns3:hr>
            <ns3:cad>51</ns3:cad>
          </ns3:TrackPointExtension>
        </extensions>
      </trkpt>
      <trkpt lat="47.541105039417743682861328125" lon="10.999042801558971405029296875">
        <ele>1917.5999755859375</ele>
        <time>2026-09-01T07:49:00.000Z</time>
        <extensions>
          <ns3:TrackPointExtension>
            <ns3:hr>167</ns3:hr>
            <ns3:cad>0</ns3:cad>
          </ns3:TrackPointExtension>
        </extensions>
      </trkpt>
      <trkpt lat="47.54110495559871196746826171875" lon="10.9990349225699901580810546875">
        <ele>1917.800048828125</ele>
        <time>2026-09-01T07:49:01.000Z</time>
        <extensions>
          <ns3:TrackPointExtension>
            <ns3:hr>167</ns3:hr>
            <ns3:cad>0</ns3:cad>
          </ns3:TrackPointExtension>
        </extensions>
      </trkpt>
      <trkpt lat="47.54110361449420452117919921875" lon="10.9990292228758335113525390625">
        <ele>1918.4000244140625</ele>
        <time>2026-09-01T07:49:02.000Z</time>
        <extensions>
          <ns3:TrackPointExtension>
            <ns3:hr>167</ns3:hr>
            <ns3:cad>0</ns3:cad>
          </ns3:TrackPointExtension>
        </extensions>
      </trkpt>
      <trkpt lat="47.54110076464712619781494140625" lon="10.99901941604912281036376953125">
        <ele>1918.5999755859375</ele>
        <time>2026-09-01T07:49:03.000Z</time>
        <extensions>
          <ns3:TrackPointExtension>
            <ns3:hr>168</ns3:hr>
            <ns3:cad>0</ns3:cad>
          </ns3:TrackPointExtension>
        </extensions>
      </trkpt>
      <trkpt lat="47.54109657369554042816162109375" lon="10.99901287816464900970458984375">
        <ele>1918.800048828125</ele>
        <time>2026-09-01T07:49:04.000Z</time>
        <extensions>
          <ns3:TrackPointExtension>
            <ns3:hr>168</ns3:hr>
            <ns3:cad>0</ns3:cad>
          </ns3:TrackPointExtension>
        </extensions>
      </trkpt>
      <trkpt lat="47.54108752124011516571044921875" lon="10.99899762310087680816650390625">
        <ele>1919.199951171875</ele>
        <time>2026-09-01T07:49:05.000Z</time>
        <extensions>
          <ns3:TrackPointExtension>
            <ns3:hr>168</ns3:hr>
            <ns3:cad>0</ns3:cad>
          </ns3:TrackPointExtension>
        </extensions>
      </trkpt>
      <trkpt lat="47.54108123481273651123046875" lon="10.99898689426481723785400390625">
        <ele>1919.5999755859375</ele>
        <time>2026-09-01T07:49:06.000Z</time>
        <extensions>
          <ns3:TrackPointExtension>
            <ns3:hr>165</ns3:hr>
            <ns3:cad>0</ns3:cad>
          </ns3:TrackPointExtension>
        </extensions>
      </trkpt>
      <trkpt lat="47.54107746295630931854248046875" lon="10.998980440199375152587890625">
        <ele>1919.800048828125</ele>
        <time>2026-09-01T07:49:07.000Z</time>
        <extensions>
          <ns3:TrackPointExtension>
            <ns3:hr>159</ns3:hr>
            <ns3:cad>0</ns3:cad>
          </ns3:TrackPointExtension>
        </extensions>
      </trkpt>
      <trkpt lat="47.541069500148296356201171875" lon="10.99896744824945926666259765625">
        <ele>1920</ele>
        <time>2026-09-01T07:49:08.000Z</time>
        <extensions>
          <ns3:TrackPointExtension>
            <ns3:hr>158</ns3:hr>
            <ns3:cad>0</ns3:cad>
          </ns3:TrackPointExtension>
        </extensions>
      </trkpt>
      <trkpt lat="47.5410643033683300018310546875" lon="10.99897197447717189788818359375">
        <ele>1920.199951171875</ele>
        <time>2026-09-01T07:49:09.000Z</time>
        <extensions>
          <ns3:TrackPointExtension>
            <ns3:hr>157</ns3:hr>
            <ns3:cad>0</ns3:cad>
          </ns3:TrackPointExtension>
        </extensions>
      </trkpt>
      <trkpt lat="47.5410564243793487548828125" lon="10.9989661909639835357666015625">
        <ele>1920.5999755859375</ele>
        <time>2026-09-01T07:49:10.000Z</time>
        <extensions>
          <ns3:TrackPointExtension>
            <ns3:hr>157</ns3:hr>
            <ns3:cad>0</ns3:cad>
          </ns3:TrackPointExtension>
        </extensions>
      </trkpt>
      <trkpt lat="47.54104929976165294647216796875" lon="10.99895655177533626556396484375">
        <ele>1920.800048828125</ele>
        <time>2026-09-01T07:49:11.000Z</time>
        <extensions>
          <ns3:TrackPointExtension>
            <ns3:hr>157</ns3:hr>
            <ns3:cad>0</ns3:cad>
          </ns3:TrackPointExtension>
        </extensions>
      </trkpt>
      <trkpt lat="47.541049383580684661865234375" lon="10.99895990453660488128662109375">
        <ele>1921.4000244140625</ele>
        <time>2026-09-01T07:49:12.000Z</time>
        <extensions>
          <ns3:TrackPointExtension>
            <ns3:hr>156</ns3:hr>
            <ns3:cad>0</ns3:cad>
          </ns3:TrackPointExtension>
        </extensions>
      </trkpt>
      <trkpt lat="47.54104762338101863861083984375" lon="10.99895454011857509613037109375">
        <ele>1921.800048828125</ele>
        <time>2026-09-01T07:49:13.000Z</time>
        <extensions>
          <ns3:TrackPointExtension>
            <ns3:hr>156</ns3:hr>
            <ns3:cad>0</ns3:cad>
          </ns3:TrackPointExtension>
        </extensions>
      </trkpt>
      <trkpt lat="47.541049383580684661865234375" lon="10.9989487566053867340087890625">
        <ele>1922</ele>
        <time>2026-09-01T07:49:14.000Z</time>
        <extensions>
          <ns3:TrackPointExtension>
            <ns3:hr>156</ns3:hr>
            <ns3:cad>0</ns3:cad>
          </ns3:TrackPointExtension>
        </extensions>
      </trkpt>
      <trkpt lat="47.54104829393327236175537109375" lon="10.9989454038441181182861328125">
        <ele>1922.199951171875</ele>
        <time>2026-09-01T07:49:15.000Z</time>
        <extensions>
          <ns3:TrackPointExtension>
            <ns3:hr>156</ns3:hr>
            <ns3:cad>0</ns3:cad>
          </ns3:TrackPointExtension>
        </extensions>
      </trkpt>
      <trkpt lat="47.541045360267162322998046875" lon="10.99894012324512004852294921875">
        <ele>1922.4000244140625</ele>
        <time>2026-09-01T07:49:16.000Z</time>
        <extensions>
          <ns3:TrackPointExtension>
            <ns3:hr>157</ns3:hr>
            <ns3:cad>0</ns3:cad>
          </ns3:TrackPointExtension>
        </extensions>
      </trkpt>
      <trkpt lat="47.5410455279052257537841796875" lon="10.998936854302883148193359375">
        <ele>1922.5999755859375</ele>
        <time>2026-09-01T07:49:17.000Z</time>
        <extensions>
          <ns3:TrackPointExtension>
            <ns3:hr>157</ns3:hr>
            <ns3:cad>0</ns3:cad>
          </ns3:TrackPointExtension>
        </extensions>
      </trkpt>
      <trkpt lat="47.54104158841073513031005859375" lon="10.998929478228092193603515625">
        <ele>1922.800048828125</ele>
        <time>2026-09-01T07:49:18.000Z</time>
        <extensions>
          <ns3:TrackPointExtension>
            <ns3:hr>158</ns3:hr>
            <ns3:cad>0</ns3:cad>
          </ns3:TrackPointExtension>
        </extensions>
      </trkpt>
      <trkpt lat="47.54103521816432476043701171875" lon="10.99891615100204944610595703125">
        <ele>1922.800048828125</ele>
        <time>2026-09-01T07:49:19.000Z</time>
        <extensions>
          <ns3:TrackPointExtension>
            <ns3:hr>158</ns3:hr>
            <ns3:cad>0</ns3:cad>
          </ns3:TrackPointExtension>
        </extensions>
      </trkpt>
      <trkpt lat="47.54103069193661212921142578125" lon="10.9989051707088947296142578125">
        <ele>1923</ele>
        <time>2026-09-01T07:49:20.000Z</time>
        <extensions>
          <ns3:TrackPointExtension>
            <ns3:hr>159</ns3:hr>
            <ns3:cad>0</ns3:cad>
          </ns3:TrackPointExtension>
        </extensions>
      </trkpt>
      <trkpt lat="47.5410267524421215057373046875" lon="10.99889838136732578277587890625">
        <ele>1923.4000244140625</ele>
        <time>2026-09-01T07:49:21.000Z</time>
        <extensions>
          <ns3:TrackPointExtension>
            <ns3:hr>160</ns3:hr>
            <ns3:cad>0</ns3:cad>
          </ns3:TrackPointExtension>
        </extensions>
      </trkpt>
      <trkpt lat="47.54101686179637908935546875" lon="10.99888698197901248931884765625">
        <ele>1923.800048828125</ele>
        <time>2026-09-01T07:49:22.000Z</time>
        <extensions>
          <ns3:TrackPointExtension>
            <ns3:hr>160</ns3:hr>
            <ns3:cad>0</ns3:cad>
          </ns3:TrackPointExtension>
        </extensions>
      </trkpt>
      <trkpt lat="47.541004121303558349609375" lon="10.99888731725513935089111328125">
        <ele>1924</ele>
        <time>2026-09-01T07:49:23.000Z</time>
        <extensions>
          <ns3:TrackPointExtension>
            <ns3:hr>160</ns3:hr>
            <ns3:cad>0</ns3:cad>
          </ns3:TrackPointExtension>
        </extensions>
      </trkpt>
      <trkpt lat="47.54099448211491107940673828125" lon="10.99888379685580730438232421875">
        <ele>1924.199951171875</ele>
        <time>2026-09-01T07:49:24.000Z</time>
        <extensions>
          <ns3:TrackPointExtension>
            <ns3:hr>161</ns3:hr>
            <ns3:cad>0</ns3:cad>
          </ns3:TrackPointExtension>
        </extensions>
      </trkpt>
      <trkpt lat="47.54098392091691493988037109375" lon="10.99887373857200145721435546875">
        <ele>1924.199951171875</ele>
        <time>2026-09-01T07:49:25.000Z</time>
        <extensions>
          <ns3:TrackPointExtension>
            <ns3:hr>161</ns3:hr>
            <ns3:cad>0</ns3:cad>
          </ns3:TrackPointExtension>
        </extensions>
      </trkpt>
      <trkpt lat="47.5409747846424579620361328125" lon="10.99886544048786163330078125">
        <ele>1924.199951171875</ele>
        <time>2026-09-01T07:49:26.000Z</time>
        <extensions>
          <ns3:TrackPointExtension>
            <ns3:hr>162</ns3:hr>
            <ns3:cad>0</ns3:cad>
          </ns3:TrackPointExtension>
        </extensions>
      </trkpt>
      <trkpt lat="47.5409731082618236541748046875" lon="10.99886418320238590240478515625">
        <ele>1924.4000244140625</ele>
        <time>2026-09-01T07:49:27.000Z</time>
        <extensions>
          <ns3:TrackPointExtension>
            <ns3:hr>163</ns3:hr>
            <ns3:cad>0</ns3:cad>
          </ns3:TrackPointExtension>
        </extensions>
      </trkpt>
      <trkpt lat="47.5409674085676670074462890625" lon="10.99885764531791210174560546875">
        <ele>1925</ele>
        <time>2026-09-01T07:49:28.000Z</time>
        <extensions>
          <ns3:TrackPointExtension>
            <ns3:hr>164</ns3:hr>
            <ns3:cad>0</ns3:cad>
          </ns3:TrackPointExtension>
        </extensions>
      </trkpt>
      <trkpt lat="47.5409657321870326995849609375" lon="10.9988498501479625701904296875">
        <ele>1925.4000244140625</ele>
        <time>2026-09-01T07:49:29.000Z</time>
        <extensions>
          <ns3:TrackPointExtension>
            <ns3:hr>164</ns3:hr>
            <ns3:cad>0</ns3:cad>
          </ns3:TrackPointExtension>
        </extensions>
      </trkpt>
      <trkpt lat="47.540963552892208099365234375" lon="10.99884708411991596221923828125">
        <ele>1925.800048828125</ele>
        <time>2026-09-01T07:49:30.000Z</time>
        <extensions>
          <ns3:TrackPointExtension>
            <ns3:hr>165</ns3:hr>
            <ns3:cad>0</ns3:cad>
          </ns3:TrackPointExtension>
        </extensions>
      </trkpt>
      <trkpt lat="47.540961541235446929931640625" lon="10.99884532392024993896484375">
        <ele>1926</ele>
        <time>2026-09-01T07:49:31.000Z</time>
        <extensions>
          <ns3:TrackPointExtension>
            <ns3:hr>164</ns3:hr>
            <ns3:cad>0</ns3:cad>
          </ns3:TrackPointExtension>
        </extensions>
      </trkpt>
      <trkpt lat="47.5409664027392864227294921875" lon="10.99883819930255413055419921875">
        <ele>1926.199951171875</ele>
        <time>2026-09-01T07:49:32.000Z</time>
        <extensions>
          <ns3:TrackPointExtension>
            <ns3:hr>164</ns3:hr>
            <ns3:cad>0</ns3:cad>
          </ns3:TrackPointExtension>
        </extensions>
      </trkpt>
      <trkpt lat="47.54096581600606441497802734375" lon="10.998833589255809783935546875">
        <ele>1926.5999755859375</ele>
        <time>2026-09-01T07:49:33.000Z</time>
        <extensions>
          <ns3:TrackPointExtension>
            <ns3:hr>165</ns3:hr>
            <ns3:cad>41</ns3:cad>
          </ns3:TrackPointExtension>
        </extensions>
      </trkpt>
      <trkpt lat="47.54096531309187412261962890625" lon="10.99882663227617740631103515625">
        <ele>1927</ele>
        <time>2026-09-01T07:49:34.000Z</time>
        <extensions>
          <ns3:TrackPointExtension>
            <ns3:hr>166</ns3:hr>
            <ns3:cad>41</ns3:cad>
          </ns3:TrackPointExtension>
        </extensions>
      </trkpt>
      <trkpt lat="47.54096263088285923004150390625" lon="10.998819507658481597900390625">
        <ele>1927.199951171875</ele>
        <time>2026-09-01T07:49:35.000Z</time>
        <extensions>
          <ns3:TrackPointExtension>
            <ns3:hr>166</ns3:hr>
            <ns3:cad>41</ns3:cad>
          </ns3:TrackPointExtension>
        </extensions>
      </trkpt>
      <trkpt lat="47.54096187651157379150390625" lon="10.99881623871624469757080078125">
        <ele>1927.4000244140625</ele>
        <time>2026-09-01T07:49:36.000Z</time>
        <extensions>
          <ns3:TrackPointExtension>
            <ns3:hr>167</ns3:hr>
            <ns3:cad>41</ns3:cad>
          </ns3:TrackPointExtension>
        </extensions>
      </trkpt>
      <trkpt lat="47.54096187651157379150390625" lon="10.9988116286695003509521484375">
        <ele>1927.4000244140625</ele>
        <time>2026-09-01T07:49:37.000Z</time>
        <extensions>
          <ns3:TrackPointExtension>
            <ns3:hr>168</ns3:hr>
            <ns3:cad>75</ns3:cad>
          </ns3:TrackPointExtension>
        </extensions>
      </trkpt>
      <trkpt lat="47.5409593619406223297119140625" lon="10.99880685098469257354736328125">
        <ele>1927.5999755859375</ele>
        <time>2026-09-01T07:49:38.000Z</time>
        <extensions>
          <ns3:TrackPointExtension>
            <ns3:hr>169</ns3:hr>
            <ns3:cad>75</ns3:cad>
          </ns3:TrackPointExtension>
        </extensions>
      </trkpt>
      <trkpt lat="47.54095852375030517578125" lon="10.99880115129053592681884765625">
        <ele>1927.800048828125</ele>
        <time>2026-09-01T07:49:39.000Z</time>
        <extensions>
          <ns3:TrackPointExtension>
            <ns3:hr>170</ns3:hr>
            <ns3:cad>75</ns3:cad>
          </ns3:TrackPointExtension>
        </extensions>
      </trkpt>
      <trkpt lat="47.5409573502838611602783203125" lon="10.998790673911571502685546875">
        <ele>1928</ele>
        <time>2026-09-01T07:49:40.000Z</time>
        <extensions>
          <ns3:TrackPointExtension>
            <ns3:hr>170</ns3:hr>
            <ns3:cad>75</ns3:cad>
          </ns3:TrackPointExtension>
        </extensions>
      </trkpt>
      <trkpt lat="47.54095173440873622894287109375" lon="10.99878019653260707855224609375">
        <ele>1928.199951171875</ele>
        <time>2026-09-01T07:49:41.000Z</time>
        <extensions>
          <ns3:TrackPointExtension>
            <ns3:hr>170</ns3:hr>
            <ns3:cad>76</ns3:cad>
          </ns3:TrackPointExtension>
        </extensions>
      </trkpt>
      <trkpt lat="47.54094687290489673614501953125" lon="10.9987697191536426544189453125">
        <ele>1928.5999755859375</ele>
        <time>2026-09-01T07:49:42.000Z</time>
        <extensions>
          <ns3:TrackPointExtension>
            <ns3:hr>170</ns3:hr>
            <ns3:cad>76</ns3:cad>
          </ns3:TrackPointExtension>
        </extensions>
      </trkpt>
      <trkpt lat="47.54093983210623264312744140625" lon="10.99876427091658115386962890625">
        <ele>1928.800048828125</ele>
        <time>2026-09-01T07:49:43.000Z</time>
        <extensions>
          <ns3:TrackPointExtension>
            <ns3:hr>170</ns3:hr>
            <ns3:cad>76</ns3:cad>
          </ns3:TrackPointExtension>
        </extensions>
      </trkpt>
      <trkpt lat="47.54092893563210964202880859375" lon="10.9987576492130756378173828125">
        <ele>1929</ele>
        <time>2026-09-01T07:49:44.000Z</time>
        <extensions>
          <ns3:TrackPointExtension>
            <ns3:hr>169</ns3:hr>
            <ns3:cad>76</ns3:cad>
          </ns3:TrackPointExtension>
        </extensions>
      </trkpt>
      <trkpt lat="47.540923319756984710693359375" lon="10.998755805194377899169921875">
        <ele>1929</ele>
        <time>2026-09-01T07:49:45.000Z</time>
        <extensions>
          <ns3:TrackPointExtension>
            <ns3:hr>169</ns3:hr>
            <ns3:cad>76</ns3:cad>
          </ns3:TrackPointExtension>
        </extensions>
      </trkpt>
      <trkpt lat="47.54091284237802028656005859375" lon="10.9987415559589862823486328125">
        <ele>1929.199951171875</ele>
        <time>2026-09-01T07:49:46.000Z</time>
        <extensions>
          <ns3:TrackPointExtension>
            <ns3:hr>169</ns3:hr>
            <ns3:cad>76</ns3:cad>
          </ns3:TrackPointExtension>
        </extensions>
      </trkpt>
      <trkpt lat="47.54090546630322933197021484375" lon="10.9987278096377849578857421875">
        <ele>1929</ele>
        <time>2026-09-01T07:49:47.000Z</time>
        <extensions>
          <ns3:TrackPointExtension>
            <ns3:hr>170</ns3:hr>
            <ns3:cad>76</ns3:cad>
          </ns3:TrackPointExtension>
        </extensions>
      </trkpt>
      <trkpt lat="47.54089121706783771514892578125" lon="10.99871045909821987152099609375">
        <ele>1929</ele>
        <time>2026-09-01T07:49:48.000Z</time>
        <extensions>
          <ns3:TrackPointExtension>
            <ns3:hr>169</ns3:hr>
            <ns3:cad>53</ns3:cad>
          </ns3:TrackPointExtension>
        </extensions>
      </trkpt>
      <trkpt lat="47.5408782251179218292236328125" lon="10.99869587458670139312744140625">
        <ele>1928.5999755859375</ele>
        <time>2026-09-01T07:49:49.000Z</time>
        <extensions>
          <ns3:TrackPointExtension>
            <ns3:hr>169</ns3:hr>
            <ns3:cad>53</ns3:cad>
          </ns3:TrackPointExtension>
        </extensions>
      </trkpt>
      <trkpt lat="47.54086506552994251251220703125" lon="10.9986822120845317840576171875">
        <ele>1928.4000244140625</ele>
        <time>2026-09-01T07:49:50.000Z</time>
        <extensions>
          <ns3:TrackPointExtension>
            <ns3:hr>169</ns3:hr>
            <ns3:cad>53</ns3:cad>
          </ns3:TrackPointExtension>
        </extensions>
      </trkpt>
      <trkpt lat="47.5408579409122467041015625" lon="10.99867827259004116058349609375">
        <ele>1928.199951171875</ele>
        <time>2026-09-01T07:49:51.000Z</time>
        <extensions>
          <ns3:TrackPointExtension>
            <ns3:hr>169</ns3:hr>
            <ns3:cad>53</ns3:cad>
          </ns3:TrackPointExtension>
        </extensions>
      </trkpt>
      <trkpt lat="47.54085165448486804962158203125" lon="10.99866435863077640533447265625">
        <ele>1927.800048828125</ele>
        <time>2026-09-01T07:49:52.000Z</time>
        <extensions>
          <ns3:TrackPointExtension>
            <ns3:hr>170</ns3:hr>
            <ns3:cad>0</ns3:cad>
          </ns3:TrackPointExtension>
        </extensions>
      </trkpt>
      <trkpt lat="47.5408463738858699798583984375" lon="10.9986461699008941650390625">
        <ele>1927.4000244140625</ele>
        <time>2026-09-01T07:49:53.000Z</time>
        <extensions>
          <ns3:TrackPointExtension>
            <ns3:hr>169</ns3:hr>
            <ns3:cad>0</ns3:cad>
          </ns3:TrackPointExtension>
        </extensions>
      </trkpt>
      <trkpt lat="47.540838159620761871337890625" lon="10.998617671430110931396484375">
        <ele>1927.199951171875</ele>
        <time>2026-09-01T07:49:54.000Z</time>
        <extensions>
          <ns3:TrackPointExtension>
            <ns3:hr>170</ns3:hr>
            <ns3:cad>0</ns3:cad>
          </ns3:TrackPointExtension>
        </extensions>
      </trkpt>
      <trkpt lat="47.5408319570124149322509765625" lon="10.99859847687184810638427734375">
        <ele>1926.800048828125</ele>
        <time>2026-09-01T07:49:55.000Z</time>
        <extensions>
          <ns3:TrackPointExtension>
            <ns3:hr>170</ns3:hr>
            <ns3:cad>0</ns3:cad>
          </ns3:TrackPointExtension>
        </extensions>
      </trkpt>
      <trkpt lat="47.5408269278705120086669921875" lon="10.9985791146755218505859375">
        <ele>1926.4000244140625</ele>
        <time>2026-09-01T07:49:56.000Z</time>
        <extensions>
          <ns3:TrackPointExtension>
            <ns3:hr>170</ns3:hr>
            <ns3:cad>0</ns3:cad>
          </ns3:TrackPointExtension>
        </extensions>
      </trkpt>
      <trkpt lat="47.54082835279405117034912109375" lon="10.99855363368988037109375">
        <ele>1926</ele>
        <time>2026-09-01T07:49:57.000Z</time>
        <extensions>
          <ns3:TrackPointExtension>
            <ns3:hr>170</ns3:hr>
            <ns3:cad>0</ns3:cad>
          </ns3:TrackPointExtension>
        </extensions>
      </trkpt>
      <trkpt lat="47.54082885570824146270751953125" lon="10.9985281527042388916015625">
        <ele>1925.800048828125</ele>
        <time>2026-09-01T07:49:58.000Z</time>
        <extensions>
          <ns3:TrackPointExtension>
            <ns3:hr>169</ns3:hr>
            <ns3:cad>40</ns3:cad>
          </ns3:TrackPointExtension>
        </extensions>
      </trkpt>
      <trkpt lat="47.5408289395272731781005859375" lon="10.99849588237702846527099609375">
        <ele>1924.800048828125</ele>
        <time>2026-09-01T07:49:59.000Z</time>
        <extensions>
          <ns3:TrackPointExtension>
            <ns3:hr>169</ns3:hr>
            <ns3:cad>40</ns3:cad>
          </ns3:TrackPointExtension>
        </extensions>
      </trkpt>
      <trkpt lat="47.54082818515598773956298828125" lon="10.99846134893596172332763671875">
        <ele>1924</ele>
        <time>2026-09-01T07:50:00.000Z</time>
        <extensions>
          <ns3:TrackPointExtension>
            <ns3:hr>169</ns3:hr>
            <ns3:cad>40</ns3:cad>
          </ns3:TrackPointExtension>
        </extensions>
      </trkpt>
      <trkpt lat="47.540824078023433685302734375" lon="10.99843083880841732025146484375">
        <ele>1923.199951171875</ele>
        <time>2026-09-01T07:50:01.000Z</time>
        <extensions>
          <ns3:TrackPointExtension>
            <ns3:hr>169</ns3:hr>
            <ns3:cad>40</ns3:cad>
          </ns3:TrackPointExtension>
        </extensions>
      </trkpt>
      <trkpt lat="47.5408279336988925933837890625" lon="10.99839395843446254730224609375">
        <ele>1922.5999755859375</ele>
        <time>2026-09-01T07:50:02.000Z</time>
        <extensions>
          <ns3:TrackPointExtension>
            <ns3:hr>168</ns3:hr>
            <ns3:cad>40</ns3:cad>
          </ns3:TrackPointExtension>
        </extensions>
      </trkpt>
      <trkpt lat="47.54082583822309970855712890625" lon="10.998351462185382843017578125">
        <ele>1922</ele>
        <time>2026-09-01T07:50:03.000Z</time>
        <extensions>
          <ns3:TrackPointExtension>
            <ns3:hr>168</ns3:hr>
            <ns3:cad>40</ns3:cad>
          </ns3:TrackPointExtension>
        </extensions>
      </trkpt>
      <trkpt lat="47.54081343300640583038330078125" lon="10.99833033978939056396484375">
        <ele>1921.4000244140625</ele>
        <time>2026-09-01T07:50:04.000Z</time>
        <extensions>
          <ns3:TrackPointExtension>
            <ns3:hr>167</ns3:hr>
            <ns3:cad>40</ns3:cad>
          </ns3:TrackPointExtension>
        </extensions>
      </trkpt>
      <trkpt lat="47.54079164005815982818603515625" lon="10.99832832813262939453125">
        <ele>1921</ele>
        <time>2026-09-01T07:50:05.000Z</time>
        <extensions>
          <ns3:TrackPointExtension>
            <ns3:hr>167</ns3:hr>
            <ns3:cad>42</ns3:cad>
          </ns3:TrackPointExtension>
        </extensions>
      </trkpt>
      <trkpt lat="47.54076900891959667205810546875" lon="10.9983439184725284576416015625">
        <ele>1920.4000244140625</ele>
        <time>2026-09-01T07:50:06.000Z</time>
        <extensions>
          <ns3:TrackPointExtension>
            <ns3:hr>166</ns3:hr>
            <ns3:cad>42</ns3:cad>
          </ns3:TrackPointExtension>
        </extensions>
      </trkpt>
      <trkpt lat="47.54075425677001476287841796875" lon="10.99836646579205989837646484375">
        <ele>1919.800048828125</ele>
        <time>2026-09-01T07:50:07.000Z</time>
        <extensions>
          <ns3:TrackPointExtension>
            <ns3:hr>166</ns3:hr>
            <ns3:cad>42</ns3:cad>
          </ns3:TrackPointExtension>
        </extensions>
      </trkpt>
      <trkpt lat="47.540735565125942230224609375" lon="10.9983980655670166015625">
        <ele>1919.4000244140625</ele>
        <time>2026-09-01T07:50:08.000Z</time>
        <extensions>
          <ns3:TrackPointExtension>
            <ns3:hr>165</ns3:hr>
            <ns3:cad>42</ns3:cad>
          </ns3:TrackPointExtension>
        </extensions>
      </trkpt>
      <trkpt lat="47.5407199747860431671142578125" lon="10.99841323681175708770751953125">
        <ele>1918.800048828125</ele>
        <time>2026-09-01T07:50:09.000Z</time>
        <extensions>
          <ns3:TrackPointExtension>
            <ns3:hr>165</ns3:hr>
            <ns3:cad>42</ns3:cad>
          </ns3:TrackPointExtension>
        </extensions>
      </trkpt>
      <trkpt lat="47.54069994203746318817138671875" lon="10.99843637086451053619384765625">
        <ele>1918.4000244140625</ele>
        <time>2026-09-01T07:50:10.000Z</time>
        <extensions>
          <ns3:TrackPointExtension>
            <ns3:hr>164</ns3:hr>
            <ns3:cad>42</ns3:cad>
          </ns3:TrackPointExtension>
        </extensions>
      </trkpt>
      <trkpt lat="47.54069088958203792572021484375" lon="10.99846000783145427703857421875">
        <ele>1917.800048828125</ele>
        <time>2026-09-01T07:50:11.000Z</time>
        <extensions>
          <ns3:TrackPointExtension>
            <ns3:hr>164</ns3:hr>
            <ns3:cad>42</ns3:cad>
          </ns3:TrackPointExtension>
        </extensions>
      </trkpt>
      <trkpt lat="47.5406701862812042236328125" lon="10.998470820486545562744140625">
        <ele>1917.4000244140625</ele>
        <time>2026-09-01T07:50:12.000Z</time>
        <extensions>
          <ns3:TrackPointExtension>
            <ns3:hr>164</ns3:hr>
            <ns3:cad>42</ns3:cad>
          </ns3:TrackPointExtension>
        </extensions>
      </trkpt>
      <trkpt lat="47.54065266810357570648193359375" lon="10.99848196841776371002197265625">
        <ele>1916.800048828125</ele>
        <time>2026-09-01T07:50:13.000Z</time>
        <extensions>
          <ns3:TrackPointExtension>
            <ns3:hr>164</ns3:hr>
            <ns3:cad>85</ns3:cad>
          </ns3:TrackPointExtension>
        </extensions>
      </trkpt>
      <trkpt lat="47.540630288422107696533203125" lon="10.99849705584347248077392578125">
        <ele>1916.4000244140625</ele>
        <time>2026-09-01T07:50:14.000Z</time>
        <extensions>
          <ns3:TrackPointExtension>
            <ns3:hr>164</ns3:hr>
            <ns3:cad>85</ns3:cad>
          </ns3:TrackPointExtension>
        </extensions>
      </trkpt>
      <trkpt lat="47.5406153686344623565673828125" lon="10.99851281382143497467041015625">
        <ele>1915.800048828125</ele>
        <time>2026-09-01T07:50:15.000Z</time>
        <extensions>
          <ns3:TrackPointExtension>
            <ns3:hr>164</ns3:hr>
            <ns3:cad>94</ns3:cad>
          </ns3:TrackPointExtension>
        </extensions>
      </trkpt>
      <trkpt lat="47.540600113570690155029296875" lon="10.998547933995723724365234375">
        <ele>1915.4000244140625</ele>
        <time>2026-09-01T07:50:16.000Z</time>
        <extensions>
          <ns3:TrackPointExtension>
            <ns3:hr>163</ns3:hr>
            <ns3:cad>94</ns3:cad>
          </ns3:TrackPointExtension>
        </extensions>
      </trkpt>
      <trkpt lat="47.54059047438204288482666015625" lon="10.99858640693128108978271484375">
        <ele>1914.800048828125</ele>
        <time>2026-09-01T07:50:17.000Z</time>
        <extensions>
          <ns3:TrackPointExtension>
            <ns3:hr>162</ns3:hr>
            <ns3:cad>94</ns3:cad>
          </ns3:TrackPointExtension>
        </extensions>
      </trkpt>
      <trkpt lat="47.54058091901242733001708984375" lon="10.9986138157546520233154296875">
        <ele>1914.4000244140625</ele>
        <time>2026-09-01T07:50:18.000Z</time>
        <extensions>
          <ns3:TrackPointExtension>
            <ns3:hr>161</ns3:hr>
            <ns3:cad>94</ns3:cad>
          </ns3:TrackPointExtension>
        </extensions>
      </trkpt>
      <trkpt lat="47.540563233196735382080078125" lon="10.99864960648119449615478515625">
        <ele>1914</ele>
        <time>2026-09-01T07:50:19.000Z</time>
        <extensions>
          <ns3:TrackPointExtension>
            <ns3:hr>160</ns3:hr>
            <ns3:cad>94</ns3:cad>
          </ns3:TrackPointExtension>
        </extensions>
      </trkpt>
      <trkpt lat="47.540562562644481658935546875" lon="10.9986810386180877685546875">
        <ele>1913.800048828125</ele>
        <time>2026-09-01T07:50:20.000Z</time>
        <extensions>
          <ns3:TrackPointExtension>
            <ns3:hr>159</ns3:hr>
            <ns3:cad>83</ns3:cad>
          </ns3:TrackPointExtension>
        </extensions>
      </trkpt>
      <trkpt lat="47.540553845465183258056640625" lon="10.9987137280404567718505859375">
        <ele>1913.4000244140625</ele>
        <time>2026-09-01T07:50:21.000Z</time>
        <extensions>
          <ns3:TrackPointExtension>
            <ns3:hr>159</ns3:hr>
            <ns3:cad>83</ns3:cad>
          </ns3:TrackPointExtension>
        </extensions>
      </trkpt>
      <trkpt lat="47.54054269753396511077880859375" lon="10.99873979575932025909423828125">
        <ele>1913</ele>
        <time>2026-09-01T07:50:22.000Z</time>
        <extensions>
          <ns3:TrackPointExtension>
            <ns3:hr>159</ns3:hr>
            <ns3:cad>81</ns3:cad>
          </ns3:TrackPointExtension>
        </extensions>
      </trkpt>
      <trkpt lat="47.5405295379459857940673828125" lon="10.99877265281975269317626953125">
        <ele>1912.5999755859375</ele>
        <time>2026-09-01T07:50:23.000Z</time>
        <extensions>
          <ns3:TrackPointExtension>
            <ns3:hr>159</ns3:hr>
            <ns3:cad>81</ns3:cad>
          </ns3:TrackPointExtension>
        </extensions>
      </trkpt>
      <trkpt lat="47.54052425734698772430419921875" lon="10.99877986125648021697998046875">
        <ele>1912.199951171875</ele>
        <time>2026-09-01T07:50:24.000Z</time>
        <extensions>
          <ns3:TrackPointExtension>
            <ns3:hr>159</ns3:hr>
            <ns3:cad>81</ns3:cad>
          </ns3:TrackPointExtension>
        </extensions>
      </trkpt>
      <trkpt lat="47.540511600673198699951171875" lon="10.99877600558102130889892578125">
        <ele>1912</ele>
        <time>2026-09-01T07:50:25.000Z</time>
        <extensions>
          <ns3:TrackPointExtension>
            <ns3:hr>159</ns3:hr>
            <ns3:cad>81</ns3:cad>
          </ns3:TrackPointExtension>
        </extensions>
      </trkpt>
      <trkpt lat="47.5405084155499935150146484375" lon="10.9987683780491352081298828125">
        <ele>1911.5999755859375</ele>
        <time>2026-09-01T07:50:26.000Z</time>
        <extensions>
          <ns3:TrackPointExtension>
            <ns3:hr>159</ns3:hr>
            <ns3:cad>81</ns3:cad>
          </ns3:TrackPointExtension>
        </extensions>
      </trkpt>
      <trkpt lat="47.54049240611493587493896484375" lon="10.99877516739070415496826171875">
        <ele>1911.4000244140625</ele>
        <time>2026-09-01T07:50:27.000Z</time>
        <extensions>
          <ns3:TrackPointExtension>
            <ns3:hr>159</ns3:hr>
            <ns3:cad>81</ns3:cad>
          </ns3:TrackPointExtension>
        </extensions>
      </trkpt>
      <trkpt lat="47.54048787988722324371337890625" lon="10.998793356120586395263671875">
        <ele>1911</ele>
        <time>2026-09-01T07:50:28.000Z</time>
        <extensions>
          <ns3:TrackPointExtension>
            <ns3:hr>158</ns3:hr>
            <ns3:cad>81</ns3:cad>
          </ns3:TrackPointExtension>
        </extensions>
      </trkpt>
      <trkpt lat="47.54047597758471965789794921875" lon="10.9988059289753437042236328125">
        <ele>1910.4000244140625</ele>
        <time>2026-09-01T07:50:29.000Z</time>
        <extensions>
          <ns3:TrackPointExtension>
            <ns3:hr>157</ns3:hr>
            <ns3:cad>81</ns3:cad>
          </ns3:TrackPointExtension>
        </extensions>
      </trkpt>
      <trkpt lat="47.540461309254169464111328125" lon="10.9988205134868621826171875">
        <ele>1909.800048828125</ele>
        <time>2026-09-01T07:50:30.000Z</time>
        <extensions>
          <ns3:TrackPointExtension>
            <ns3:hr>156</ns3:hr>
            <ns3:cad>81</ns3:cad>
          </ns3:TrackPointExtension>
        </extensions>
      </trkpt>
      <trkpt lat="47.54044462926685810089111328125" lon="10.9988367743790149688720703125">
        <ele>1909.4000244140625</ele>
        <time>2026-09-01T07:50:31.000Z</time>
        <extensions>
          <ns3:TrackPointExtension>
            <ns3:hr>156</ns3:hr>
            <ns3:cad>81</ns3:cad>
          </ns3:TrackPointExtension>
        </extensions>
      </trkpt>
      <trkpt lat="47.54042543470859527587890625" lon="10.9988575614988803863525390625">
        <ele>1908.800048828125</ele>
        <time>2026-09-01T07:50:32.000Z</time>
        <extensions>
          <ns3:TrackPointExtension>
            <ns3:hr>155</ns3:hr>
            <ns3:cad>81</ns3:cad>
          </ns3:TrackPointExtension>
        </extensions>
      </trkpt>
      <trkpt lat="47.5404058210551738739013671875" lon="10.99888153374195098876953125">
        <ele>1908.199951171875</ele>
        <time>2026-09-01T07:50:33.000Z</time>
        <extensions>
          <ns3:TrackPointExtension>
            <ns3:hr>154</ns3:hr>
            <ns3:cad>81</ns3:cad>
          </ns3:TrackPointExtension>
        </extensions>
      </trkpt>
      <trkpt lat="47.54038411192595958709716796875" lon="10.99890626035630702972412109375">
        <ele>1907.800048828125</ele>
        <time>2026-09-01T07:50:34.000Z</time>
        <extensions>
          <ns3:TrackPointExtension>
            <ns3:hr>154</ns3:hr>
            <ns3:cad>81</ns3:cad>
          </ns3:TrackPointExtension>
        </extensions>
      </trkpt>
      <trkpt lat="47.54036013968288898468017578125" lon="10.99893878214061260223388671875">
        <ele>1907.4000244140625</ele>
        <time>2026-09-01T07:50:35.000Z</time>
        <extensions>
          <ns3:TrackPointExtension>
            <ns3:hr>154</ns3:hr>
            <ns3:cad>81</ns3:cad>
          </ns3:TrackPointExtension>
        </extensions>
      </trkpt>
      <trkpt lat="47.54033767618238925933837890625" lon="10.99896023981273174285888671875">
        <ele>1907.199951171875</ele>
        <time>2026-09-01T07:50:36.000Z</time>
        <extensions>
          <ns3:TrackPointExtension>
            <ns3:hr>154</ns3:hr>
            <ns3:cad>81</ns3:cad>
          </ns3:TrackPointExtension>
        </extensions>
      </trkpt>
      <trkpt lat="47.54031320102512836456298828125" lon="10.9989863075315952301025390625">
        <ele>1907</ele>
        <time>2026-09-01T07:50:37.000Z</time>
        <extensions>
          <ns3:TrackPointExtension>
            <ns3:hr>155</ns3:hr>
            <ns3:cad>85</ns3:cad>
          </ns3:TrackPointExtension>
        </extensions>
      </trkpt>
      <trkpt lat="47.5402800925076007843017578125" lon="10.99901220761239528656005859375">
        <ele>1907</ele>
        <time>2026-09-01T07:50:38.000Z</time>
        <extensions>
          <ns3:TrackPointExtension>
            <ns3:hr>155</ns3:hr>
            <ns3:cad>85</ns3:cad>
          </ns3:TrackPointExtension>
        </extensions>
      </trkpt>
      <trkpt lat="47.540256790816783905029296875" lon="10.99903483875095844268798828125">
        <ele>1907</ele>
        <time>2026-09-01T07:50:39.000Z</time>
        <extensions>
          <ns3:TrackPointExtension>
            <ns3:hr>155</ns3:hr>
            <ns3:cad>84</ns3:cad>
          </ns3:TrackPointExtension>
        </extensions>
      </trkpt>
      <trkpt lat="47.5402220897376537322998046875" lon="10.99905897863209247589111328125">
        <ele>1907</ele>
        <time>2026-09-01T07:50:40.000Z</time>
        <extensions>
          <ns3:TrackPointExtension>
            <ns3:hr>154</ns3:hr>
            <ns3:cad>83</ns3:cad>
          </ns3:TrackPointExtension>
        </extensions>
      </trkpt>
      <trkpt lat="47.54019074141979217529296875" lon="10.99907934665679931640625">
        <ele>1907</ele>
        <time>2026-09-01T07:50:41.000Z</time>
        <extensions>
          <ns3:TrackPointExtension>
            <ns3:hr>153</ns3:hr>
            <ns3:cad>81</ns3:cad>
          </ns3:TrackPointExtension>
        </extensions>
      </trkpt>
      <trkpt lat="47.5401707924902439117431640625" lon="10.99910608492791652679443359375">
        <ele>1907</ele>
        <time>2026-09-01T07:50:42.000Z</time>
        <extensions>
          <ns3:TrackPointExtension>
            <ns3:hr>154</ns3:hr>
            <ns3:cad>81</ns3:cad>
          </ns3:TrackPointExtension>
        </extensions>
      </trkpt>
      <trkpt lat="47.5401573814451694488525390625" lon="10.99913458339869976043701171875">
        <ele>1907</ele>
        <time>2026-09-01T07:50:43.000Z</time>
        <extensions>
          <ns3:TrackPointExtension>
            <ns3:hr>154</ns3:hr>
            <ns3:cad>82</ns3:cad>
          </ns3:TrackPointExtension>
        </extensions>
      </trkpt>
      <trkpt lat="47.54014246165752410888671875" lon="10.99916358478367328643798828125">
        <ele>1906.5999755859375</ele>
        <time>2026-09-01T07:50:44.000Z</time>
        <extensions>
          <ns3:TrackPointExtension>
            <ns3:hr>154</ns3:hr>
            <ns3:cad>82</ns3:cad>
          </ns3:TrackPointExtension>
        </extensions>
      </trkpt>
      <trkpt lat="47.5401255302131175994873046875" lon="10.9991941787302494049072265625">
        <ele>1906.4000244140625</ele>
        <time>2026-09-01T07:50:45.000Z</time>
        <extensions>
          <ns3:TrackPointExtension>
            <ns3:hr>154</ns3:hr>
            <ns3:cad>82</ns3:cad>
          </ns3:TrackPointExtension>
        </extensions>
      </trkpt>
      <trkpt lat="47.54010625183582305908203125" lon="10.99921706132590770721435546875">
        <ele>1906</ele>
        <time>2026-09-01T07:50:46.000Z</time>
        <extensions>
          <ns3:TrackPointExtension>
            <ns3:hr>155</ns3:hr>
            <ns3:cad>82</ns3:cad>
          </ns3:TrackPointExtension>
        </extensions>
      </trkpt>
      <trkpt lat="47.54008186049759387969970703125" lon="10.99924656562507152557373046875">
        <ele>1905.4000244140625</ele>
        <time>2026-09-01T07:50:47.000Z</time>
        <extensions>
          <ns3:TrackPointExtension>
            <ns3:hr>154</ns3:hr>
            <ns3:cad>82</ns3:cad>
          </ns3:TrackPointExtension>
        </extensions>
      </trkpt>
      <trkpt lat="47.5400648452341556549072265625" lon="10.99927288480103015899658203125">
        <ele>1905</ele>
        <time>2026-09-01T07:50:48.000Z</time>
        <extensions>
          <ns3:TrackPointExtension>
            <ns3:hr>154</ns3:hr>
            <ns3:cad>82</ns3:cad>
          </ns3:TrackPointExtension>
        </extensions>
      </trkpt>
      <trkpt lat="47.54003944806754589080810546875" lon="10.99930037744343280792236328125">
        <ele>1904.4000244140625</ele>
        <time>2026-09-01T07:50:49.000Z</time>
        <extensions>
          <ns3:TrackPointExtension>
            <ns3:hr>155</ns3:hr>
            <ns3:cad>82</ns3:cad>
          </ns3:TrackPointExtension>
        </extensions>
      </trkpt>
      <trkpt lat="47.5400182418525218963623046875" lon="10.999328792095184326171875">
        <ele>1904</ele>
        <time>2026-09-01T07:50:50.000Z</time>
        <extensions>
          <ns3:TrackPointExtension>
            <ns3:hr>153</ns3:hr>
            <ns3:cad>82</ns3:cad>
          </ns3:TrackPointExtension>
        </extensions>
      </trkpt>
      <trkpt lat="47.5399951077997684478759765625" lon="10.9993514232337474822998046875">
        <ele>1903.5999755859375</ele>
        <time>2026-09-01T07:50:51.000Z</time>
        <extensions>
          <ns3:TrackPointExtension>
            <ns3:hr>152</ns3:hr>
            <ns3:cad>82</ns3:cad>
          </ns3:TrackPointExtension>
        </extensions>
      </trkpt>
      <trkpt lat="47.5399620831012725830078125" lon="10.99938218481838703155517578125">
        <ele>1903.199951171875</ele>
        <time>2026-09-01T07:50:52.000Z</time>
        <extensions>
          <ns3:TrackPointExtension>
            <ns3:hr>151</ns3:hr>
            <ns3:cad>82</ns3:cad>
          </ns3:TrackPointExtension>
        </extensions>
      </trkpt>
      <trkpt lat="47.53993785940110683441162109375" lon="10.99939492531120777130126953125">
        <ele>1902.800048828125</ele>
        <time>2026-09-01T07:50:53.000Z</time>
        <extensions>
          <ns3:TrackPointExtension>
            <ns3:hr>151</ns3:hr>
            <ns3:cad>82</ns3:cad>
          </ns3:TrackPointExtension>
        </extensions>
      </trkpt>
      <trkpt lat="47.5399042479693889617919921875" lon="10.9993976913392543792724609375">
        <ele>1902.5999755859375</ele>
        <time>2026-09-01T07:50:54.000Z</time>
        <extensions>
          <ns3:TrackPointExtension>
            <ns3:hr>151</ns3:hr>
            <ns3:cad>82</ns3:cad>
          </ns3:TrackPointExtension>
        </extensions>
      </trkpt>
      <trkpt lat="47.53987533040344715118408203125" lon="10.9993986971676349639892578125">
        <ele>1901.800048828125</ele>
        <time>2026-09-01T07:50:55.000Z</time>
        <extensions>
          <ns3:TrackPointExtension>
            <ns3:hr>152</ns3:hr>
            <ns3:cad>83</ns3:cad>
          </ns3:TrackPointExtension>
        </extensions>
      </trkpt>
      <trkpt lat="47.53983861766755580902099609375" lon="10.9993997029960155487060546875">
        <ele>1900.800048828125</ele>
        <time>2026-09-01T07:50:56.000Z</time>
        <extensions>
          <ns3:TrackPointExtension>
            <ns3:hr>152</ns3:hr>
            <ns3:cad>86</ns3:cad>
          </ns3:TrackPointExtension>
        </extensions>
      </trkpt>
      <trkpt lat="47.53981431014835834503173828125" lon="10.999400876462459564208984375">
        <ele>1900.4000244140625</ele>
        <time>2026-09-01T07:50:57.000Z</time>
        <extensions>
          <ns3:TrackPointExtension>
            <ns3:hr>153</ns3:hr>
            <ns3:cad>89</ns3:cad>
          </ns3:TrackPointExtension>
        </extensions>
      </trkpt>
      <trkpt lat="47.53978706896305084228515625" lon="10.9994151256978511810302734375">
        <ele>1899.5999755859375</ele>
        <time>2026-09-01T07:50:58.000Z</time>
        <extensions>
          <ns3:TrackPointExtension>
            <ns3:hr>153</ns3:hr>
            <ns3:cad>89</ns3:cad>
          </ns3:TrackPointExtension>
        </extensions>
      </trkpt>
      <trkpt lat="47.53975597210228443145751953125" lon="10.99943406879901885986328125">
        <ele>1898.800048828125</ele>
        <time>2026-09-01T07:50:59.000Z</time>
        <extensions>
          <ns3:TrackPointExtension>
            <ns3:hr>152</ns3:hr>
            <ns3:cad>89</ns3:cad>
          </ns3:TrackPointExtension>
        </extensions>
      </trkpt>
      <trkpt lat="47.53972713835537433624267578125" lon="10.99943532608449459075927734375">
        <ele>1898</ele>
        <time>2026-09-01T07:51:00.000Z</time>
        <extensions>
          <ns3:TrackPointExtension>
            <ns3:hr>151</ns3:hr>
            <ns3:cad>89</ns3:cad>
          </ns3:TrackPointExtension>
        </extensions>
      </trkpt>
      <trkpt lat="47.5396947003901004791259765625" lon="10.9994483180344104766845703125">
        <ele>1897.4000244140625</ele>
        <time>2026-09-01T07:51:01.000Z</time>
        <extensions>
          <ns3:TrackPointExtension>
            <ns3:hr>150</ns3:hr>
            <ns3:cad>89</ns3:cad>
          </ns3:TrackPointExtension>
        </extensions>
      </trkpt>
      <trkpt lat="47.53965572454035282135009765625" lon="10.999467261135578155517578125">
        <ele>1897.199951171875</ele>
        <time>2026-09-01T07:51:02.000Z</time>
        <extensions>
          <ns3:TrackPointExtension>
            <ns3:hr>149</ns3:hr>
            <ns3:cad>89</ns3:cad>
          </ns3:TrackPointExtension>
        </extensions>
      </trkpt>
      <trkpt lat="47.539628483355045318603515625" lon="10.9994875453412532806396484375">
        <ele>1896.800048828125</ele>
        <time>2026-09-01T07:51:03.000Z</time>
        <extensions>
          <ns3:TrackPointExtension>
            <ns3:hr>148</ns3:hr>
            <ns3:cad>89</ns3:cad>
          </ns3:TrackPointExtension>
        </extensions>
      </trkpt>
      <trkpt lat="47.53959118388593196868896484375" lon="10.99951453506946563720703125">
        <ele>1896.800048828125</ele>
        <time>2026-09-01T07:51:04.000Z</time>
        <extensions>
          <ns3:TrackPointExtension>
            <ns3:hr>147</ns3:hr>
            <ns3:cad>83</ns3:cad>
          </ns3:TrackPointExtension>
        </extensions>
      </trkpt>
      <trkpt lat="47.5395649485290050506591796875" lon="10.99954630248248577117919921875">
        <ele>1896.5999755859375</ele>
        <time>2026-09-01T07:51:05.000Z</time>
        <extensions>
          <ns3:TrackPointExtension>
            <ns3:hr>148</ns3:hr>
            <ns3:cad>83</ns3:cad>
          </ns3:TrackPointExtension>
        </extensions>
      </trkpt>
      <trkpt lat="47.5395542196929454803466796875" lon="10.9995608031749725341796875">
        <ele>1896.800048828125</ele>
        <time>2026-09-01T07:51:06.000Z</time>
        <extensions>
          <ns3:TrackPointExtension>
            <ns3:hr>148</ns3:hr>
            <ns3:cad>83</ns3:cad>
          </ns3:TrackPointExtension>
        </extensions>
      </trkpt>
      <trkpt lat="47.5395327620208263397216796875" lon="10.9995887987315654754638671875">
        <ele>1897.199951171875</ele>
        <time>2026-09-01T07:51:07.000Z</time>
        <extensions>
          <ns3:TrackPointExtension>
            <ns3:hr>148</ns3:hr>
            <ns3:cad>82</ns3:cad>
          </ns3:TrackPointExtension>
        </extensions>
      </trkpt>
      <trkpt lat="47.53952496685087680816650390625" lon="10.999611429870128631591796875">
        <ele>1898</ele>
        <time>2026-09-01T07:51:08.000Z</time>
        <extensions>
          <ns3:TrackPointExtension>
            <ns3:hr>148</ns3:hr>
            <ns3:cad>82</ns3:cad>
          </ns3:TrackPointExtension>
        </extensions>
      </trkpt>
      <trkpt lat="47.53951708786189556121826171875" lon="10.999630875885486602783203125">
        <ele>1898.800048828125</ele>
        <time>2026-09-01T07:51:09.000Z</time>
        <extensions>
          <ns3:TrackPointExtension>
            <ns3:hr>148</ns3:hr>
            <ns3:cad>82</ns3:cad>
          </ns3:TrackPointExtension>
        </extensions>
      </trkpt>
      <trkpt lat="47.53951541148126125335693359375" lon="10.99963749758899211883544921875">
        <ele>1899.4000244140625</ele>
        <time>2026-09-01T07:51:10.000Z</time>
        <extensions>
          <ns3:TrackPointExtension>
            <ns3:hr>147</ns3:hr>
            <ns3:cad>82</ns3:cad>
          </ns3:TrackPointExtension>
        </extensions>
      </trkpt>
      <trkpt lat="47.53950334154069423675537109375" lon="10.999658368527889251708984375">
        <ele>1899.800048828125</ele>
        <time>2026-09-01T07:51:11.000Z</time>
        <extensions>
          <ns3:TrackPointExtension>
            <ns3:hr>147</ns3:hr>
            <ns3:cad>81</ns3:cad>
          </ns3:TrackPointExtension>
        </extensions>
      </trkpt>
      <trkpt lat="47.539502419531345367431640625" lon="10.9996628947556018829345703125">
        <ele>1900.4000244140625</ele>
        <time>2026-09-01T07:51:12.000Z</time>
        <extensions>
          <ns3:TrackPointExtension>
            <ns3:hr>146</ns3:hr>
            <ns3:cad>81</ns3:cad>
          </ns3:TrackPointExtension>
        </extensions>
      </trkpt>
      <trkpt lat="47.5394908525049686431884765625" lon="10.9996769763529300689697265625">
        <ele>1900.800048828125</ele>
        <time>2026-09-01T07:51:13.000Z</time>
        <extensions>
          <ns3:TrackPointExtension>
            <ns3:hr>146</ns3:hr>
            <ns3:cad>0</ns3:cad>
          </ns3:TrackPointExtension>
        </extensions>
      </trkpt>
      <trkpt lat="47.53948540426790714263916015625" lon="10.99968091584742069244384765625">
        <ele>1901.199951171875</ele>
        <time>2026-09-01T07:51:14.000Z</time>
        <extensions>
          <ns3:TrackPointExtension>
            <ns3:hr>146</ns3:hr>
            <ns3:cad>0</ns3:cad>
          </ns3:TrackPointExtension>
        </extensions>
      </trkpt>
      <trkpt lat="47.53946545533835887908935546875" lon="10.9996937401592731475830078125">
        <ele>1901.4000244140625</ele>
        <time>2026-09-01T07:51:15.000Z</time>
        <extensions>
          <ns3:TrackPointExtension>
            <ns3:hr>145</ns3:hr>
            <ns3:cad>0</ns3:cad>
          </ns3:TrackPointExtension>
        </extensions>
      </trkpt>
      <trkpt lat="47.53945983946323394775390625" lon="10.99970019422471523284912109375">
        <ele>1902</ele>
        <time>2026-09-01T07:51:16.000Z</time>
        <extensions>
          <ns3:TrackPointExtension>
            <ns3:hr>144</ns3:hr>
            <ns3:cad>0</ns3:cad>
          </ns3:TrackPointExtension>
        </extensions>
      </trkpt>
      <trkpt lat="47.53944315947592258453369140625" lon="10.99971578456461429595947265625">
        <ele>1902.199951171875</ele>
        <time>2026-09-01T07:51:17.000Z</time>
        <extensions>
          <ns3:TrackPointExtension>
            <ns3:hr>144</ns3:hr>
            <ns3:cad>0</ns3:cad>
          </ns3:TrackPointExtension>
        </extensions>
      </trkpt>
      <trkpt lat="47.53943896852433681488037109375" lon="10.99972249008715152740478515625">
        <ele>1902.5999755859375</ele>
        <time>2026-09-01T07:51:18.000Z</time>
        <extensions>
          <ns3:TrackPointExtension>
            <ns3:hr>143</ns3:hr>
            <ns3:cad>0</ns3:cad>
          </ns3:TrackPointExtension>
        </extensions>
      </trkpt>
      <trkpt lat="47.53943159244954586029052734375" lon="10.999729447066783905029296875">
        <ele>1903</ele>
        <time>2026-09-01T07:51:19.000Z</time>
        <extensions>
          <ns3:TrackPointExtension>
            <ns3:hr>143</ns3:hr>
            <ns3:cad>0</ns3:cad>
          </ns3:TrackPointExtension>
        </extensions>
      </trkpt>
      <trkpt lat="47.53942455165088176727294921875" lon="10.99973590113222599029541015625">
        <ele>1903.4000244140625</ele>
        <time>2026-09-01T07:51:20.000Z</time>
        <extensions>
          <ns3:TrackPointExtension>
            <ns3:hr>142</ns3:hr>
            <ns3:cad>0</ns3:cad>
          </ns3:TrackPointExtension>
        </extensions>
      </trkpt>
      <trkpt lat="47.53941633738577365875244140625" lon="10.99974210374057292938232421875">
        <ele>1903.5999755859375</ele>
        <time>2026-09-01T07:51:21.000Z</time>
        <extensions>
          <ns3:TrackPointExtension>
            <ns3:hr>142</ns3:hr>
            <ns3:cad>0</ns3:cad>
          </ns3:TrackPointExtension>
        </extensions>
      </trkpt>
      <trkpt lat="47.53941952250897884368896484375" lon="10.999769009649753570556640625">
        <ele>1904.199951171875</ele>
        <time>2026-09-01T07:51:22.000Z</time>
        <extensions>
          <ns3:TrackPointExtension>
            <ns3:hr>143</ns3:hr>
            <ns3:cad>0</ns3:cad>
          </ns3:TrackPointExtension>
        </extensions>
      </trkpt>
      <trkpt lat="47.5394160859286785125732421875" lon="10.999773032963275909423828125">
        <ele>1904.5999755859375</ele>
        <time>2026-09-01T07:51:23.000Z</time>
        <extensions>
          <ns3:TrackPointExtension>
            <ns3:hr>144</ns3:hr>
            <ns3:cad>0</ns3:cad>
          </ns3:TrackPointExtension>
        </extensions>
      </trkpt>
      <trkpt lat="47.53940259106457233428955078125" lon="10.9997872821986675262451171875">
        <ele>1904.800048828125</ele>
        <time>2026-09-01T07:51:24.000Z</time>
        <extensions>
          <ns3:TrackPointExtension>
            <ns3:hr>145</ns3:hr>
            <ns3:cad>0</ns3:cad>
          </ns3:TrackPointExtension>
        </extensions>
      </trkpt>
      <trkpt lat="47.539394795894622802734375" lon="10.9997913055121898651123046875">
        <ele>1905.4000244140625</ele>
        <time>2026-09-01T07:51:25.000Z</time>
        <extensions>
          <ns3:TrackPointExtension>
            <ns3:hr>147</ns3:hr>
            <ns3:cad>0</ns3:cad>
          </ns3:TrackPointExtension>
        </extensions>
      </trkpt>
      <trkpt lat="47.5393875874578952789306640625" lon="10.99979340098798274993896484375">
        <ele>1905.5999755859375</ele>
        <time>2026-09-01T07:51:26.000Z</time>
        <extensions>
          <ns3:TrackPointExtension>
            <ns3:hr>148</ns3:hr>
            <ns3:cad>0</ns3:cad>
          </ns3:TrackPointExtension>
        </extensions>
      </trkpt>
      <trkpt lat="47.5393771938979625701904296875" lon="10.999795161187648773193359375">
        <ele>1906</ele>
        <time>2026-09-01T07:51:27.000Z</time>
        <extensions>
          <ns3:TrackPointExtension>
            <ns3:hr>149</ns3:hr>
            <ns3:cad>0</ns3:cad>
          </ns3:TrackPointExtension>
        </extensions>
      </trkpt>
      <trkpt lat="47.53937174566090106964111328125" lon="10.9998006932437419891357421875">
        <ele>1906.199951171875</ele>
        <time>2026-09-01T07:51:28.000Z</time>
        <extensions>
          <ns3:TrackPointExtension>
            <ns3:hr>150</ns3:hr>
            <ns3:cad>0</ns3:cad>
          </ns3:TrackPointExtension>
        </extensions>
      </trkpt>
      <trkpt lat="47.53935498185455799102783203125" lon="10.999809913337230682373046875">
        <ele>1906.5999755859375</ele>
        <time>2026-09-01T07:51:29.000Z</time>
        <extensions>
          <ns3:TrackPointExtension>
            <ns3:hr>152</ns3:hr>
            <ns3:cad>0</ns3:cad>
          </ns3:TrackPointExtension>
        </extensions>
      </trkpt>
      <trkpt lat="47.53935481421649456024169921875" lon="10.9998104162514209747314453125">
        <ele>1907.199951171875</ele>
        <time>2026-09-01T07:51:30.000Z</time>
        <extensions>
          <ns3:TrackPointExtension>
            <ns3:hr>153</ns3:hr>
            <ns3:cad>0</ns3:cad>
          </ns3:TrackPointExtension>
        </extensions>
      </trkpt>
      <trkpt lat="47.53934090025722980499267578125" lon="10.99981519393622875213623046875">
        <ele>1907.5999755859375</ele>
        <time>2026-09-01T07:51:31.000Z</time>
        <extensions>
          <ns3:TrackPointExtension>
            <ns3:hr>153</ns3:hr>
            <ns3:cad>0</ns3:cad>
          </ns3:TrackPointExtension>
        </extensions>
      </trkpt>
      <trkpt lat="47.53933050669729709625244140625" lon="10.999825336039066314697265625">
        <ele>1908</ele>
        <time>2026-09-01T07:51:32.000Z</time>
        <extensions>
          <ns3:TrackPointExtension>
            <ns3:hr>154</ns3:hr>
            <ns3:cad>0</ns3:cad>
          </ns3:TrackPointExtension>
        </extensions>
      </trkpt>
      <trkpt lat="47.53931843675673007965087890625" lon="10.99983547814190387725830078125">
        <ele>1908.4000244140625</ele>
        <time>2026-09-01T07:51:33.000Z</time>
        <extensions>
          <ns3:TrackPointExtension>
            <ns3:hr>154</ns3:hr>
            <ns3:cad>0</ns3:cad>
          </ns3:TrackPointExtension>
        </extensions>
      </trkpt>
      <trkpt lat="47.53932572901248931884765625" lon="10.99985291250050067901611328125">
        <ele>1908.800048828125</ele>
        <time>2026-09-01T07:51:34.000Z</time>
        <extensions>
          <ns3:TrackPointExtension>
            <ns3:hr>155</ns3:hr>
            <ns3:cad>0</ns3:cad>
          </ns3:TrackPointExtension>
        </extensions>
      </trkpt>
      <trkpt lat="47.53933536820113658905029296875" lon="10.99986280314624309539794921875">
        <ele>1909</ele>
        <time>2026-09-01T07:51:35.000Z</time>
        <extensions>
          <ns3:TrackPointExtension>
            <ns3:hr>155</ns3:hr>
            <ns3:cad>0</ns3:cad>
          </ns3:TrackPointExtension>
        </extensions>
      </trkpt>
      <trkpt lat="47.539344169199466705322265625" lon="10.99988660775125026702880859375">
        <ele>1909.199951171875</ele>
        <time>2026-09-01T07:51:36.000Z</time>
        <extensions>
          <ns3:TrackPointExtension>
            <ns3:hr>155</ns3:hr>
            <ns3:cad>0</ns3:cad>
          </ns3:TrackPointExtension>
        </extensions>
      </trkpt>
      <trkpt lat="47.53934861160814762115478515625" lon="10.99989750422537326812744140625">
        <ele>1909.4000244140625</ele>
        <time>2026-09-01T07:51:37.000Z</time>
        <extensions>
          <ns3:TrackPointExtension>
            <ns3:hr>156</ns3:hr>
            <ns3:cad>0</ns3:cad>
          </ns3:TrackPointExtension>
        </extensions>
      </trkpt>
      <trkpt lat="47.5393537245690822601318359375" lon="10.999895744025707244873046875">
        <ele>1909.800048828125</ele>
        <time>2026-09-01T07:51:38.000Z</time>
        <extensions>
          <ns3:TrackPointExtension>
            <ns3:hr>156</ns3:hr>
            <ns3:cad>0</ns3:cad>
          </ns3:TrackPointExtension>
        </extensions>
      </trkpt>
      <trkpt lat="47.53936235792934894561767578125" lon="10.99990672431886196136474609375">
        <ele>1910</ele>
        <time>2026-09-01T07:51:39.000Z</time>
        <extensions>
          <ns3:TrackPointExtension>
            <ns3:hr>157</ns3:hr>
            <ns3:cad>0</ns3:cad>
          </ns3:TrackPointExtension>
        </extensions>
      </trkpt>
      <trkpt lat="47.53936872817575931549072265625" lon="10.99991661496460437774658203125">
        <ele>1910.4000244140625</ele>
        <time>2026-09-01T07:51:40.000Z</time>
        <extensions>
          <ns3:TrackPointExtension>
            <ns3:hr>157</ns3:hr>
            <ns3:cad>0</ns3:cad>
          </ns3:TrackPointExtension>
        </extensions>
      </trkpt>
      <trkpt lat="47.53937090747058391571044921875" lon="10.99993832409381866455078125">
        <ele>1910.5999755859375</ele>
        <time>2026-09-01T07:51:41.000Z</time>
        <extensions>
          <ns3:TrackPointExtension>
            <ns3:hr>158</ns3:hr>
            <ns3:cad>0</ns3:cad>
          </ns3:TrackPointExtension>
        </extensions>
      </trkpt>
      <trkpt lat="47.53937065601348876953125" lon="10.9999535791575908660888671875">
        <ele>1911</ele>
        <time>2026-09-01T07:51:42.000Z</time>
        <extensions>
          <ns3:TrackPointExtension>
            <ns3:hr>159</ns3:hr>
            <ns3:cad>0</ns3:cad>
          </ns3:TrackPointExtension>
        </extensions>
      </trkpt>
      <trkpt lat="47.53937224857509136199951171875" lon="10.9999525733292102813720703125">
        <ele>1911.199951171875</ele>
        <time>2026-09-01T07:51:43.000Z</time>
        <extensions>
          <ns3:TrackPointExtension>
            <ns3:hr>159</ns3:hr>
            <ns3:cad>0</ns3:cad>
          </ns3:TrackPointExtension>
        </extensions>
      </trkpt>
      <trkpt lat="47.53936017863452434539794921875" lon="10.9999602846801280975341796875">
        <ele>1911.4000244140625</ele>
        <time>2026-09-01T07:51:44.000Z</time>
        <extensions>
          <ns3:TrackPointExtension>
            <ns3:hr>160</ns3:hr>
            <ns3:cad>0</ns3:cad>
          </ns3:TrackPointExtension>
        </extensions>
      </trkpt>
      <trkpt lat="47.53935749642550945281982421875" lon="10.99996380507946014404296875">
        <ele>1911.5999755859375</ele>
        <time>2026-09-01T07:51:45.000Z</time>
        <extensions>
          <ns3:TrackPointExtension>
            <ns3:hr>161</ns3:hr>
            <ns3:cad>0</ns3:cad>
          </ns3:TrackPointExtension>
        </extensions>
      </trkpt>
      <trkpt lat="47.53933838568627834320068359375" lon="10.99996908567845821380615234375">
        <ele>1912</ele>
        <time>2026-09-01T07:51:46.000Z</time>
        <extensions>
          <ns3:TrackPointExtension>
            <ns3:hr>165</ns3:hr>
            <ns3:cad>0</ns3:cad>
          </ns3:TrackPointExtension>
        </extensions>
      </trkpt>
      <trkpt lat="47.53933285363018512725830078125" lon="10.999976210296154022216796875">
        <ele>1912.199951171875</ele>
        <time>2026-09-01T07:51:47.000Z</time>
        <extensions>
          <ns3:TrackPointExtension>
            <ns3:hr>168</ns3:hr>
            <ns3:cad>0</ns3:cad>
          </ns3:TrackPointExtension>
        </extensions>
      </trkpt>
      <trkpt lat="47.539327405393123626708984375" lon="10.9999740310013294219970703125">
        <ele>1912.5999755859375</ele>
        <time>2026-09-01T07:51:48.000Z</time>
        <extensions>
          <ns3:TrackPointExtension>
            <ns3:hr>169</ns3:hr>
            <ns3:cad>0</ns3:cad>
          </ns3:TrackPointExtension>
        </extensions>
      </trkpt>
      <trkpt lat="47.5393185205757617950439453125" lon="10.99998350255191326141357421875">
        <ele>1912.800048828125</ele>
        <time>2026-09-01T07:51:49.000Z</time>
        <extensions>
          <ns3:TrackPointExtension>
            <ns3:hr>169</ns3:hr>
            <ns3:cad>0</ns3:cad>
          </ns3:TrackPointExtension>
        </extensions>
      </trkpt>
      <trkpt lat="47.53931240178644657135009765625" lon="10.99999456666409969329833984375">
        <ele>1913.199951171875</ele>
        <time>2026-09-01T07:51:50.000Z</time>
        <extensions>
          <ns3:TrackPointExtension>
            <ns3:hr>170</ns3:hr>
            <ns3:cad>0</ns3:cad>
          </ns3:TrackPointExtension>
        </extensions>
      </trkpt>
      <trkpt lat="47.539303936064243316650390625" lon="11.000007055699825286865234375">
        <ele>1913.5999755859375</ele>
        <time>2026-09-01T07:51:51.000Z</time>
        <extensions>
          <ns3:TrackPointExtension>
            <ns3:hr>171</ns3:hr>
            <ns3:cad>0</ns3:cad>
          </ns3:TrackPointExtension>
        </extensions>
      </trkpt>
      <trkpt lat="47.5392943806946277618408203125" lon="11.00001879036426544189453125">
        <ele>1913.5999755859375</ele>
        <time>2026-09-01T07:51:52.000Z</time>
        <extensions>
          <ns3:TrackPointExtension>
            <ns3:hr>171</ns3:hr>
            <ns3:cad>0</ns3:cad>
          </ns3:TrackPointExtension>
        </extensions>
      </trkpt>
      <trkpt lat="47.5392796285450458526611328125" lon="11.00003178231418132781982421875">
        <ele>1913.800048828125</ele>
        <time>2026-09-01T07:51:53.000Z</time>
        <extensions>
          <ns3:TrackPointExtension>
            <ns3:hr>172</ns3:hr>
            <ns3:cad>52</ns3:cad>
          </ns3:TrackPointExtension>
        </extensions>
      </trkpt>
      <trkpt lat="47.53926831297576427459716796875" lon="11.00003982894122600555419921875">
        <ele>1913.5999755859375</ele>
        <time>2026-09-01T07:51:54.000Z</time>
        <extensions>
          <ns3:TrackPointExtension>
            <ns3:hr>172</ns3:hr>
            <ns3:cad>53</ns3:cad>
          </ns3:TrackPointExtension>
        </extensions>
      </trkpt>
      <trkpt lat="47.53925708122551441192626953125" lon="11.00004871375858783721923828125">
        <ele>1913.5999755859375</ele>
        <time>2026-09-01T07:51:55.000Z</time>
        <extensions>
          <ns3:TrackPointExtension>
            <ns3:hr>172</ns3:hr>
            <ns3:cad>54</ns3:cad>
          </ns3:TrackPointExtension>
        </extensions>
      </trkpt>
      <trkpt lat="47.5392477773129940032958984375" lon="11.0000541619956493377685546875">
        <ele>1913.4000244140625</ele>
        <time>2026-09-01T07:51:56.000Z</time>
        <extensions>
          <ns3:TrackPointExtension>
            <ns3:hr>172</ns3:hr>
            <ns3:cad>54</ns3:cad>
          </ns3:TrackPointExtension>
        </extensions>
      </trkpt>
      <trkpt lat="47.53923512063920497894287109375" lon="11.00006044842302799224853515625">
        <ele>1913.5999755859375</ele>
        <time>2026-09-01T07:51:57.000Z</time>
        <extensions>
          <ns3:TrackPointExtension>
            <ns3:hr>172</ns3:hr>
            <ns3:cad>53</ns3:cad>
          </ns3:TrackPointExtension>
        </extensions>
      </trkpt>
      <trkpt lat="47.53922556526958942413330078125" lon="11.00006530992686748504638671875">
        <ele>1914</ele>
        <time>2026-09-01T07:51:58.000Z</time>
        <extensions>
          <ns3:TrackPointExtension>
            <ns3:hr>170</ns3:hr>
            <ns3:cad>53</ns3:cad>
          </ns3:TrackPointExtension>
        </extensions>
      </trkpt>
      <trkpt lat="47.53921617753803730010986328125" lon="11.000068746507167816162109375">
        <ele>1914.199951171875</ele>
        <time>2026-09-01T07:51:59.000Z</time>
        <extensions>
          <ns3:TrackPointExtension>
            <ns3:hr>169</ns3:hr>
            <ns3:cad>55</ns3:cad>
          </ns3:TrackPointExtension>
        </extensions>
      </trkpt>
      <trkpt lat="47.539201676845550537109375" lon="11.0000749491155147552490234375">
        <ele>1914.5999755859375</ele>
        <time>2026-09-01T07:52:00.000Z</time>
        <extensions>
          <ns3:TrackPointExtension>
            <ns3:hr>168</ns3:hr>
            <ns3:cad>55</ns3:cad>
          </ns3:TrackPointExtension>
        </extensions>
      </trkpt>
      <trkpt lat="47.53919237293303012847900390625" lon="11.00008073262870311737060546875">
        <ele>1915</ele>
        <time>2026-09-01T07:52:01.000Z</time>
        <extensions>
          <ns3:TrackPointExtension>
            <ns3:hr>168</ns3:hr>
            <ns3:cad>0</ns3:cad>
          </ns3:TrackPointExtension>
        </extensions>
      </trkpt>
      <trkpt lat="47.5391823984682559967041015625" lon="11.000089533627033233642578125">
        <ele>1915.199951171875</ele>
        <time>2026-09-01T07:52:02.000Z</time>
        <extensions>
          <ns3:TrackPointExtension>
            <ns3:hr>168</ns3:hr>
            <ns3:cad>0</ns3:cad>
          </ns3:TrackPointExtension>
        </extensions>
      </trkpt>
      <trkpt lat="47.5391686521470546722412109375" lon="11.0001014359295368194580078125">
        <ele>1915.199951171875</ele>
        <time>2026-09-01T07:52:03.000Z</time>
        <extensions>
          <ns3:TrackPointExtension>
            <ns3:hr>167</ns3:hr>
            <ns3:cad>0</ns3:cad>
          </ns3:TrackPointExtension>
        </extensions>
      </trkpt>
      <trkpt lat="47.5391512177884578704833984375" lon="11.00011509843170642852783203125">
        <ele>1915.4000244140625</ele>
        <time>2026-09-01T07:52:04.000Z</time>
        <extensions>
          <ns3:TrackPointExtension>
            <ns3:hr>166</ns3:hr>
            <ns3:cad>0</ns3:cad>
          </ns3:TrackPointExtension>
        </extensions>
      </trkpt>
      <trkpt lat="47.53913529217243194580078125" lon="11.00012733601033687591552734375">
        <ele>1915.800048828125</ele>
        <time>2026-09-01T07:52:05.000Z</time>
        <extensions>
          <ns3:TrackPointExtension>
            <ns3:hr>166</ns3:hr>
            <ns3:cad>0</ns3:cad>
          </ns3:TrackPointExtension>
        </extensions>
      </trkpt>
      <trkpt lat="47.53912028856575489044189453125" lon="11.00013948976993560791015625">
        <ele>1916.199951171875</ele>
        <time>2026-09-01T07:52:06.000Z</time>
        <extensions>
          <ns3:TrackPointExtension>
            <ns3:hr>166</ns3:hr>
            <ns3:cad>0</ns3:cad>
          </ns3:TrackPointExtension>
        </extensions>
      </trkpt>
      <trkpt lat="47.53910536877810955047607421875" lon="11.00015013478696346282958984375">
        <ele>1916.4000244140625</ele>
        <time>2026-09-01T07:52:07.000Z</time>
        <extensions>
          <ns3:TrackPointExtension>
            <ns3:hr>167</ns3:hr>
            <ns3:cad>72</ns3:cad>
          </ns3:TrackPointExtension>
        </extensions>
      </trkpt>
      <trkpt lat="47.53909078426659107208251953125" lon="11.00015801377594470977783203125">
        <ele>1916.800048828125</ele>
        <time>2026-09-01T07:52:08.000Z</time>
        <extensions>
          <ns3:TrackPointExtension>
            <ns3:hr>167</ns3:hr>
            <ns3:cad>72</ns3:cad>
          </ns3:TrackPointExtension>
        </extensions>
      </trkpt>
      <trkpt lat="47.53907091915607452392578125" lon="11.00016857497394084930419921875">
        <ele>1917.199951171875</ele>
        <time>2026-09-01T07:52:09.000Z</time>
        <extensions>
          <ns3:TrackPointExtension>
            <ns3:hr>167</ns3:hr>
            <ns3:cad>72</ns3:cad>
          </ns3:TrackPointExtension>
        </extensions>
      </trkpt>
      <trkpt lat="47.5390566699206829071044921875" lon="11.00017762742936611175537109375">
        <ele>1917.4000244140625</ele>
        <time>2026-09-01T07:52:10.000Z</time>
        <extensions>
          <ns3:TrackPointExtension>
            <ns3:hr>167</ns3:hr>
            <ns3:cad>71</ns3:cad>
          </ns3:TrackPointExtension>
        </extensions>
      </trkpt>
      <trkpt lat="47.5390419177711009979248046875" lon="11.000186093151569366455078125">
        <ele>1917.800048828125</ele>
        <time>2026-09-01T07:52:11.000Z</time>
        <extensions>
          <ns3:TrackPointExtension>
            <ns3:hr>168</ns3:hr>
            <ns3:cad>71</ns3:cad>
          </ns3:TrackPointExtension>
        </extensions>
      </trkpt>
      <trkpt lat="47.53902406431734561920166015625" lon="11.00019707344472408294677734375">
        <ele>1918</ele>
        <time>2026-09-01T07:52:12.000Z</time>
        <extensions>
          <ns3:TrackPointExtension>
            <ns3:hr>168</ns3:hr>
            <ns3:cad>72</ns3:cad>
          </ns3:TrackPointExtension>
        </extensions>
      </trkpt>
      <trkpt lat="47.5389996729791164398193359375" lon="11.00020931102335453033447265625">
        <ele>1918</ele>
        <time>2026-09-01T07:52:13.000Z</time>
        <extensions>
          <ns3:TrackPointExtension>
            <ns3:hr>168</ns3:hr>
            <ns3:cad>73</ns3:cad>
          </ns3:TrackPointExtension>
        </extensions>
      </trkpt>
      <trkpt lat="47.5389765389263629913330078125" lon="11.0002201236784458160400390625">
        <ele>1918</ele>
        <time>2026-09-01T07:52:14.000Z</time>
        <extensions>
          <ns3:TrackPointExtension>
            <ns3:hr>168</ns3:hr>
            <ns3:cad>74</ns3:cad>
          </ns3:TrackPointExtension>
        </extensions>
      </trkpt>
      <trkpt lat="47.538961954414844512939453125" lon="11.00022138096392154693603515625">
        <ele>1918</ele>
        <time>2026-09-01T07:52:15.000Z</time>
        <extensions>
          <ns3:TrackPointExtension>
            <ns3:hr>167</ns3:hr>
            <ns3:cad>74</ns3:cad>
          </ns3:TrackPointExtension>
        </extensions>
      </trkpt>
      <trkpt lat="47.53893940709531307220458984375" lon="11.0002125799655914306640625">
        <ele>1917.800048828125</ele>
        <time>2026-09-01T07:52:16.000Z</time>
        <extensions>
          <ns3:TrackPointExtension>
            <ns3:hr>168</ns3:hr>
            <ns3:cad>74</ns3:cad>
          </ns3:TrackPointExtension>
        </extensions>
      </trkpt>
      <trkpt lat="47.5389232300221920013427734375" lon="11.000218950212001800537109375">
        <ele>1917.199951171875</ele>
        <time>2026-09-01T07:52:17.000Z</time>
        <extensions>
          <ns3:TrackPointExtension>
            <ns3:hr>168</ns3:hr>
            <ns3:cad>74</ns3:cad>
          </ns3:TrackPointExtension>
        </extensions>
      </trkpt>
      <trkpt lat="47.53892079927027225494384765625" lon="11.00024275481700897216796875">
        <ele>1916.4000244140625</ele>
        <time>2026-09-01T07:52:18.000Z</time>
        <extensions>
          <ns3:TrackPointExtension>
            <ns3:hr>168</ns3:hr>
            <ns3:cad>76</ns3:cad>
          </ns3:TrackPointExtension>
        </extensions>
      </trkpt>
      <trkpt lat="47.5389104895293712615966796875" lon="11.00027083419263362884521484375">
        <ele>1915.5999755859375</ele>
        <time>2026-09-01T07:52:19.000Z</time>
        <extensions>
          <ns3:TrackPointExtension>
            <ns3:hr>168</ns3:hr>
            <ns3:cad>76</ns3:cad>
          </ns3:TrackPointExtension>
        </extensions>
      </trkpt>
      <trkpt lat="47.53890772350132465362548828125" lon="11.00028843618929386138916015625">
        <ele>1914.5999755859375</ele>
        <time>2026-09-01T07:52:20.000Z</time>
        <extensions>
          <ns3:TrackPointExtension>
            <ns3:hr>168</ns3:hr>
            <ns3:cad>76</ns3:cad>
          </ns3:TrackPointExtension>
        </extensions>
      </trkpt>
      <trkpt lat="47.53890939988195896148681640625" lon="11.00030888803303241729736328125">
        <ele>1914</ele>
        <time>2026-09-01T07:52:21.000Z</time>
        <extensions>
          <ns3:TrackPointExtension>
            <ns3:hr>168</ns3:hr>
            <ns3:cad>0</ns3:cad>
          </ns3:TrackPointExtension>
        </extensions>
      </trkpt>
      <trkpt lat="47.53889967687427997589111328125" lon="11.00031609646975994110107421875">
        <ele>1913.199951171875</ele>
        <time>2026-09-01T07:52:22.000Z</time>
        <extensions>
          <ns3:TrackPointExtension>
            <ns3:hr>168</ns3:hr>
            <ns3:cad>0</ns3:cad>
          </ns3:TrackPointExtension>
        </extensions>
      </trkpt>
      <trkpt lat="47.53888928331434726715087890625" lon="11.00033738650381565093994140625">
        <ele>1912.5999755859375</ele>
        <time>2026-09-01T07:52:23.000Z</time>
        <extensions>
          <ns3:TrackPointExtension>
            <ns3:hr>167</ns3:hr>
            <ns3:cad>0</ns3:cad>
          </ns3:TrackPointExtension>
        </extensions>
      </trkpt>
      <trkpt lat="47.53887939266860485076904296875" lon="11.0003659687936305999755859375">
        <ele>1912</ele>
        <time>2026-09-01T07:52:24.000Z</time>
        <extensions>
          <ns3:TrackPointExtension>
            <ns3:hr>166</ns3:hr>
            <ns3:cad>0</ns3:cad>
          </ns3:TrackPointExtension>
        </extensions>
      </trkpt>
      <trkpt lat="47.53886782564222812652587890625" lon="11.00038365460932254791259765625">
        <ele>1911.199951171875</ele>
        <time>2026-09-01T07:52:25.000Z</time>
        <extensions>
          <ns3:TrackPointExtension>
            <ns3:hr>165</ns3:hr>
            <ns3:cad>0</ns3:cad>
          </ns3:TrackPointExtension>
        </extensions>
      </trkpt>
      <trkpt lat="47.53885575570166110992431640625" lon="11.0004025138914585113525390625">
        <ele>1910.800048828125</ele>
        <time>2026-09-01T07:52:26.000Z</time>
        <extensions>
          <ns3:TrackPointExtension>
            <ns3:hr>164</ns3:hr>
            <ns3:cad>0</ns3:cad>
          </ns3:TrackPointExtension>
        </extensions>
      </trkpt>
      <trkpt lat="47.53884687088429927825927734375" lon="11.0004202835261821746826171875">
        <ele>1910</ele>
        <time>2026-09-01T07:52:27.000Z</time>
        <extensions>
          <ns3:TrackPointExtension>
            <ns3:hr>163</ns3:hr>
            <ns3:cad>0</ns3:cad>
          </ns3:TrackPointExtension>
        </extensions>
      </trkpt>
      <trkpt lat="47.53883999772369861602783203125" lon="11.0004410706460475921630859375">
        <ele>1909.199951171875</ele>
        <time>2026-09-01T07:52:28.000Z</time>
        <extensions>
          <ns3:TrackPointExtension>
            <ns3:hr>162</ns3:hr>
            <ns3:cad>0</ns3:cad>
          </ns3:TrackPointExtension>
        </extensions>
      </trkpt>
      <trkpt lat="47.538831196725368499755859375" lon="11.00045976229012012481689453125">
        <ele>1908.5999755859375</ele>
        <time>2026-09-01T07:52:29.000Z</time>
        <extensions>
          <ns3:TrackPointExtension>
            <ns3:hr>162</ns3:hr>
            <ns3:cad>90</ns3:cad>
          </ns3:TrackPointExtension>
        </extensions>
      </trkpt>
      <trkpt lat="47.53882013261318206787109375" lon="11.00047501735389232635498046875">
        <ele>1907.5999755859375</ele>
        <time>2026-09-01T07:52:30.000Z</time>
        <extensions>
          <ns3:TrackPointExtension>
            <ns3:hr>162</ns3:hr>
            <ns3:cad>90</ns3:cad>
          </ns3:TrackPointExtension>
        </extensions>
      </trkpt>
      <trkpt lat="47.5388085655868053436279296875" lon="11.0004853270947933197021484375">
        <ele>1906.800048828125</ele>
        <time>2026-09-01T07:52:31.000Z</time>
        <extensions>
          <ns3:TrackPointExtension>
            <ns3:hr>161</ns3:hr>
            <ns3:cad>90</ns3:cad>
          </ns3:TrackPointExtension>
        </extensions>
      </trkpt>
      <trkpt lat="47.53880278207361698150634765625" lon="11.00048415362834930419921875">
        <ele>1906</ele>
        <time>2026-09-01T07:52:32.000Z</time>
        <extensions>
          <ns3:TrackPointExtension>
            <ns3:hr>161</ns3:hr>
            <ns3:cad>90</ns3:cad>
          </ns3:TrackPointExtension>
        </extensions>
      </trkpt>
      <trkpt lat="47.53880144096910953521728515625" lon="11.00050963461399078369140625">
        <ele>1905.199951171875</ele>
        <time>2026-09-01T07:52:33.000Z</time>
        <extensions>
          <ns3:TrackPointExtension>
            <ns3:hr>160</ns3:hr>
            <ns3:cad>42</ns3:cad>
          </ns3:TrackPointExtension>
        </extensions>
      </trkpt>
      <trkpt lat="47.53879331052303314208984375" lon="11.0005295835435390472412109375">
        <ele>1904.5999755859375</ele>
        <time>2026-09-01T07:52:34.000Z</time>
        <extensions>
          <ns3:TrackPointExtension>
            <ns3:hr>160</ns3:hr>
            <ns3:cad>0</ns3:cad>
          </ns3:TrackPointExtension>
        </extensions>
      </trkpt>
      <trkpt lat="47.5387921370565891265869140625" lon="11.00055682472884654998779296875">
        <ele>1903.800048828125</ele>
        <time>2026-09-01T07:52:35.000Z</time>
        <extensions>
          <ns3:TrackPointExtension>
            <ns3:hr>160</ns3:hr>
            <ns3:cad>0</ns3:cad>
          </ns3:TrackPointExtension>
        </extensions>
      </trkpt>
      <trkpt lat="47.53880211152136325836181640625" lon="11.00058431737124919891357421875">
        <ele>1903</ele>
        <time>2026-09-01T07:52:36.000Z</time>
        <extensions>
          <ns3:TrackPointExtension>
            <ns3:hr>159</ns3:hr>
            <ns3:cad>52</ns3:cad>
          </ns3:TrackPointExtension>
        </extensions>
      </trkpt>
      <trkpt lat="47.53879825584590435028076171875" lon="11.0006009973585605621337890625">
        <ele>1902.199951171875</ele>
        <time>2026-09-01T07:52:37.000Z</time>
        <extensions>
          <ns3:TrackPointExtension>
            <ns3:hr>158</ns3:hr>
            <ns3:cad>103</ns3:cad>
          </ns3:TrackPointExtension>
        </extensions>
      </trkpt>
      <trkpt lat="47.53878987394273281097412109375" lon="11.0006093792617321014404296875">
        <ele>1901.5999755859375</ele>
        <time>2026-09-01T07:52:38.000Z</time>
        <extensions>
          <ns3:TrackPointExtension>
            <ns3:hr>157</ns3:hr>
            <ns3:cad>103</ns3:cad>
          </ns3:TrackPointExtension>
        </extensions>
      </trkpt>
      <trkpt lat="47.5387757085263729095458984375" lon="11.00063611753284931182861328125">
        <ele>1900.800048828125</ele>
        <time>2026-09-01T07:52:39.000Z</time>
        <extensions>
          <ns3:TrackPointExtension>
            <ns3:hr>156</ns3:hr>
            <ns3:cad>0</ns3:cad>
          </ns3:TrackPointExtension>
        </extensions>
      </trkpt>
      <trkpt lat="47.538776881992816925048828125" lon="11.000662185251712799072265625">
        <ele>1900.199951171875</ele>
        <time>2026-09-01T07:52:40.000Z</time>
        <extensions>
          <ns3:TrackPointExtension>
            <ns3:hr>155</ns3:hr>
            <ns3:cad>0</ns3:cad>
          </ns3:TrackPointExtension>
        </extensions>
      </trkpt>
      <trkpt lat="47.53876808099448680877685546875" lon="11.00068657658994197845458984375">
        <ele>1900</ele>
        <time>2026-09-01T07:52:41.000Z</time>
        <extensions>
          <ns3:TrackPointExtension>
            <ns3:hr>154</ns3:hr>
            <ns3:cad>0</ns3:cad>
          </ns3:TrackPointExtension>
        </extensions>
      </trkpt>
      <trkpt lat="47.53875969909131526947021484375" lon="11.00070635788142681121826171875">
        <ele>1899.199951171875</ele>
        <time>2026-09-01T07:52:42.000Z</time>
        <extensions>
          <ns3:TrackPointExtension>
            <ns3:hr>153</ns3:hr>
            <ns3:cad>0</ns3:cad>
          </ns3:TrackPointExtension>
        </extensions>
      </trkpt>
      <trkpt lat="47.53875215537846088409423828125" lon="11.00072563625872135162353515625">
        <ele>1898.199951171875</ele>
        <time>2026-09-01T07:52:43.000Z</time>
        <extensions>
          <ns3:TrackPointExtension>
            <ns3:hr>151</ns3:hr>
            <ns3:cad>0</ns3:cad>
          </ns3:TrackPointExtension>
        </extensions>
      </trkpt>
      <trkpt lat="47.5387438572943210601806640625" lon="11.0007485188543796539306640625">
        <ele>1897.199951171875</ele>
        <time>2026-09-01T07:52:44.000Z</time>
        <extensions>
          <ns3:TrackPointExtension>
            <ns3:hr>150</ns3:hr>
            <ns3:cad>0</ns3:cad>
          </ns3:TrackPointExtension>
        </extensions>
      </trkpt>
      <trkpt lat="47.53873673267662525177001953125" lon="11.000776849687099456787109375">
        <ele>1896.199951171875</ele>
        <time>2026-09-01T07:52:45.000Z</time>
        <extensions>
          <ns3:TrackPointExtension>
            <ns3:hr>149</ns3:hr>
            <ns3:cad>107</ns3:cad>
          </ns3:TrackPointExtension>
        </extensions>
      </trkpt>
      <trkpt lat="47.53872801549732685089111328125" lon="11.00080962292850017547607421875">
        <ele>1895.4000244140625</ele>
        <time>2026-09-01T07:52:46.000Z</time>
        <extensions>
          <ns3:TrackPointExtension>
            <ns3:hr>149</ns3:hr>
            <ns3:cad>107</ns3:cad>
          </ns3:TrackPointExtension>
        </extensions>
      </trkpt>
      <trkpt lat="47.53872080706059932708740234375" lon="11.000838540494441986083984375">
        <ele>1894.4000244140625</ele>
        <time>2026-09-01T07:52:47.000Z</time>
        <extensions>
          <ns3:TrackPointExtension>
            <ns3:hr>149</ns3:hr>
            <ns3:cad>107</ns3:cad>
          </ns3:TrackPointExtension>
        </extensions>
      </trkpt>
      <trkpt lat="47.5387094914913177490234375" lon="11.0008708946406841278076171875">
        <ele>1893.4000244140625</ele>
        <time>2026-09-01T07:52:48.000Z</time>
        <extensions>
          <ns3:TrackPointExtension>
            <ns3:hr>149</ns3:hr>
            <ns3:cad>107</ns3:cad>
          </ns3:TrackPointExtension>
        </extensions>
      </trkpt>
      <trkpt lat="47.5386989302933216094970703125" lon="11.00089813582599163055419921875">
        <ele>1893</ele>
        <time>2026-09-01T07:52:49.000Z</time>
        <extensions>
          <ns3:TrackPointExtension>
            <ns3:hr>150</ns3:hr>
            <ns3:cad>107</ns3:cad>
          </ns3:TrackPointExtension>
        </extensions>
      </trkpt>
      <trkpt lat="47.53868526779115200042724609375" lon="11.0009285621345043182373046875">
        <ele>1892</ele>
        <time>2026-09-01T07:52:50.000Z</time>
        <extensions>
          <ns3:TrackPointExtension>
            <ns3:hr>149</ns3:hr>
            <ns3:cad>100</ns3:cad>
          </ns3:TrackPointExtension>
        </extensions>
      </trkpt>
      <trkpt lat="47.5386768020689487457275390625" lon="11.00096468813717365264892578125">
        <ele>1890.800048828125</ele>
        <time>2026-09-01T07:52:51.000Z</time>
        <extensions>
          <ns3:TrackPointExtension>
            <ns3:hr>149</ns3:hr>
            <ns3:cad>0</ns3:cad>
          </ns3:TrackPointExtension>
        </extensions>
      </trkpt>
      <trkpt lat="47.53866548649966716766357421875" lon="11.00099109113216400146484375">
        <ele>1889.800048828125</ele>
        <time>2026-09-01T07:52:52.000Z</time>
        <extensions>
          <ns3:TrackPointExtension>
            <ns3:hr>149</ns3:hr>
            <ns3:cad>0</ns3:cad>
          </ns3:TrackPointExtension>
        </extensions>
      </trkpt>
      <trkpt lat="47.538653500378131866455078125" lon="11.0010261274874210357666015625">
        <ele>1889</ele>
        <time>2026-09-01T07:52:53.000Z</time>
        <extensions>
          <ns3:TrackPointExtension>
            <ns3:hr>148</ns3:hr>
            <ns3:cad>0</ns3:cad>
          </ns3:TrackPointExtension>
        </extensions>
      </trkpt>
      <trkpt lat="47.53864386118948459625244140625" lon="11.00105454213917255401611328125">
        <ele>1888.4000244140625</ele>
        <time>2026-09-01T07:52:54.000Z</time>
        <extensions>
          <ns3:TrackPointExtension>
            <ns3:hr>148</ns3:hr>
            <ns3:cad>0</ns3:cad>
          </ns3:TrackPointExtension>
        </extensions>
      </trkpt>
      <trkpt lat="47.53863614983856678009033203125" lon="11.00107826292514801025390625">
        <ele>1887.800048828125</ele>
        <time>2026-09-01T07:52:55.000Z</time>
        <extensions>
          <ns3:TrackPointExtension>
            <ns3:hr>148</ns3:hr>
            <ns3:cad>0</ns3:cad>
          </ns3:TrackPointExtension>
        </extensions>
      </trkpt>
      <trkpt lat="47.53863246180117130279541015625" lon="11.00109946914017200469970703125">
        <ele>1887</ele>
        <time>2026-09-01T07:52:56.000Z</time>
        <extensions>
          <ns3:TrackPointExtension>
            <ns3:hr>147</ns3:hr>
            <ns3:cad>0</ns3:cad>
          </ns3:TrackPointExtension>
        </extensions>
      </trkpt>
      <trkpt lat="47.5386291928589344024658203125" lon="11.00112394429743289947509765625">
        <ele>1886.4000244140625</ele>
        <time>2026-09-01T07:52:57.000Z</time>
        <extensions>
          <ns3:TrackPointExtension>
            <ns3:hr>146</ns3:hr>
            <ns3:cad>0</ns3:cad>
          </ns3:TrackPointExtension>
        </extensions>
      </trkpt>
      <trkpt lat="47.53862164914608001708984375" lon="11.00115763954818248748779296875">
        <ele>1885.4000244140625</ele>
        <time>2026-09-01T07:52:58.000Z</time>
        <extensions>
          <ns3:TrackPointExtension>
            <ns3:hr>145</ns3:hr>
            <ns3:cad>0</ns3:cad>
          </ns3:TrackPointExtension>
        </extensions>
      </trkpt>
      <trkpt lat="47.5386157818138599395751953125" lon="11.00118412636220455169677734375">
        <ele>1884.4000244140625</ele>
        <time>2026-09-01T07:52:59.000Z</time>
        <extensions>
          <ns3:TrackPointExtension>
            <ns3:hr>143</ns3:hr>
            <ns3:cad>86</ns3:cad>
          </ns3:TrackPointExtension>
        </extensions>
      </trkpt>
      <trkpt lat="47.5386000238358974456787109375" lon="11.0012199170887470245361328125">
        <ele>1884</ele>
        <time>2026-09-01T07:53:00.000Z</time>
        <extensions>
          <ns3:TrackPointExtension>
            <ns3:hr>143</ns3:hr>
            <ns3:cad>86</ns3:cad>
          </ns3:TrackPointExtension>
        </extensions>
      </trkpt>
      <trkpt lat="47.53858703188598155975341796875" lon="11.0012581385672092437744140625">
        <ele>1882.800048828125</ele>
        <time>2026-09-01T07:53:01.000Z</time>
        <extensions>
          <ns3:TrackPointExtension>
            <ns3:hr>142</ns3:hr>
            <ns3:cad>85</ns3:cad>
          </ns3:TrackPointExtension>
        </extensions>
      </trkpt>
      <trkpt lat="47.5385658256709575653076171875" lon="11.00128890015184879302978515625">
        <ele>1882.4000244140625</ele>
        <time>2026-09-01T07:53:02.000Z</time>
        <extensions>
          <ns3:TrackPointExtension>
            <ns3:hr>142</ns3:hr>
            <ns3:cad>85</ns3:cad>
          </ns3:TrackPointExtension>
        </extensions>
      </trkpt>
      <trkpt lat="47.53854411654174327850341796875" lon="11.0013298876583576202392578125">
        <ele>1882.199951171875</ele>
        <time>2026-09-01T07:53:03.000Z</time>
        <extensions>
          <ns3:TrackPointExtension>
            <ns3:hr>142</ns3:hr>
            <ns3:cad>85</ns3:cad>
          </ns3:TrackPointExtension>
        </extensions>
      </trkpt>
      <trkpt lat="47.538533471524715423583984375" lon="11.00135696120560169219970703125">
        <ele>1882.199951171875</ele>
        <time>2026-09-01T07:53:04.000Z</time>
        <extensions>
          <ns3:TrackPointExtension>
            <ns3:hr>142</ns3:hr>
            <ns3:cad>84</ns3:cad>
          </ns3:TrackPointExtension>
        </extensions>
      </trkpt>
      <trkpt lat="47.53851930610835552215576171875" lon="11.00138998590409755706787109375">
        <ele>1882.4000244140625</ele>
        <time>2026-09-01T07:53:05.000Z</time>
        <extensions>
          <ns3:TrackPointExtension>
            <ns3:hr>143</ns3:hr>
            <ns3:cad>83</ns3:cad>
          </ns3:TrackPointExtension>
        </extensions>
      </trkpt>
      <trkpt lat="47.53849692642688751220703125" lon="11.00143642164766788482666015625">
        <ele>1882.5999755859375</ele>
        <time>2026-09-01T07:53:06.000Z</time>
        <extensions>
          <ns3:TrackPointExtension>
            <ns3:hr>143</ns3:hr>
            <ns3:cad>83</ns3:cad>
          </ns3:TrackPointExtension>
        </extensions>
      </trkpt>
      <trkpt lat="47.538477815687656402587890625" lon="11.00147212855517864227294921875">
        <ele>1882.5999755859375</ele>
        <time>2026-09-01T07:53:07.000Z</time>
        <extensions>
          <ns3:TrackPointExtension>
            <ns3:hr>143</ns3:hr>
            <ns3:cad>81</ns3:cad>
          </ns3:TrackPointExtension>
        </extensions>
      </trkpt>
      <trkpt lat="47.53844906575977802276611328125" lon="11.00151009857654571533203125">
        <ele>1882.5999755859375</ele>
        <time>2026-09-01T07:53:08.000Z</time>
        <extensions>
          <ns3:TrackPointExtension>
            <ns3:hr>143</ns3:hr>
            <ns3:cad>81</ns3:cad>
          </ns3:TrackPointExtension>
        </extensions>
      </trkpt>
      <trkpt lat="47.538424171507358551025390625" lon="11.001547314226627349853515625">
        <ele>1882.199951171875</ele>
        <time>2026-09-01T07:53:09.000Z</time>
        <extensions>
          <ns3:TrackPointExtension>
            <ns3:hr>144</ns3:hr>
            <ns3:cad>81</ns3:cad>
          </ns3:TrackPointExtension>
        </extensions>
      </trkpt>
      <trkpt lat="47.538402378559112548828125" lon="11.0015724599361419677734375">
        <ele>1881.800048828125</ele>
        <time>2026-09-01T07:53:10.000Z</time>
        <extensions>
          <ns3:TrackPointExtension>
            <ns3:hr>144</ns3:hr>
            <ns3:cad>80</ns3:cad>
          </ns3:TrackPointExtension>
        </extensions>
      </trkpt>
      <trkpt lat="47.5383757241070270538330078125" lon="11.0016061551868915557861328125">
        <ele>1881.5999755859375</ele>
        <time>2026-09-01T07:53:11.000Z</time>
        <extensions>
          <ns3:TrackPointExtension>
            <ns3:hr>144</ns3:hr>
            <ns3:cad>80</ns3:cad>
          </ns3:TrackPointExtension>
        </extensions>
      </trkpt>
      <trkpt lat="47.5383646599948406219482421875" lon="11.00163859315216541290283203125">
        <ele>1881.5999755859375</ele>
        <time>2026-09-01T07:53:12.000Z</time>
        <extensions>
          <ns3:TrackPointExtension>
            <ns3:hr>145</ns3:hr>
            <ns3:cad>81</ns3:cad>
          </ns3:TrackPointExtension>
        </extensions>
      </trkpt>
      <trkpt lat="47.53834865055978298187255859375" lon="11.001677401363849639892578125">
        <ele>1881.199951171875</ele>
        <time>2026-09-01T07:53:13.000Z</time>
        <extensions>
          <ns3:TrackPointExtension>
            <ns3:hr>145</ns3:hr>
            <ns3:cad>81</ns3:cad>
          </ns3:TrackPointExtension>
        </extensions>
      </trkpt>
      <trkpt lat="47.538334317505359649658203125" lon="11.001713611185550689697265625">
        <ele>1880.800048828125</ele>
        <time>2026-09-01T07:53:14.000Z</time>
        <extensions>
          <ns3:TrackPointExtension>
            <ns3:hr>145</ns3:hr>
            <ns3:cad>82</ns3:cad>
          </ns3:TrackPointExtension>
        </extensions>
      </trkpt>
      <trkpt lat="47.53831051290035247802734375" lon="11.00175744853913784027099609375">
        <ele>1880.199951171875</ele>
        <time>2026-09-01T07:53:15.000Z</time>
        <extensions>
          <ns3:TrackPointExtension>
            <ns3:hr>145</ns3:hr>
            <ns3:cad>82</ns3:cad>
          </ns3:TrackPointExtension>
        </extensions>
      </trkpt>
      <trkpt lat="47.5382919050753116607666015625" lon="11.0017925687134265899658203125">
        <ele>1879.5999755859375</ele>
        <time>2026-09-01T07:53:16.000Z</time>
        <extensions>
          <ns3:TrackPointExtension>
            <ns3:hr>145</ns3:hr>
            <ns3:cad>82</ns3:cad>
          </ns3:TrackPointExtension>
        </extensions>
      </trkpt>
      <trkpt lat="47.53826248459517955780029296875" lon="11.0018304549157619476318359375">
        <ele>1878.800048828125</ele>
        <time>2026-09-01T07:53:17.000Z</time>
        <extensions>
          <ns3:TrackPointExtension>
            <ns3:hr>145</ns3:hr>
            <ns3:cad>85</ns3:cad>
          </ns3:TrackPointExtension>
        </extensions>
      </trkpt>
      <trkpt lat="47.53824320621788501739501953125" lon="11.001856438815593719482421875">
        <ele>1878</ele>
        <time>2026-09-01T07:53:18.000Z</time>
        <extensions>
          <ns3:TrackPointExtension>
            <ns3:hr>145</ns3:hr>
            <ns3:cad>85</ns3:cad>
          </ns3:TrackPointExtension>
        </extensions>
      </trkpt>
      <trkpt lat="47.538216970860958099365234375" lon="11.001887619495391845703125">
        <ele>1877.5999755859375</ele>
        <time>2026-09-01T07:53:19.000Z</time>
        <extensions>
          <ns3:TrackPointExtension>
            <ns3:hr>145</ns3:hr>
            <ns3:cad>85</ns3:cad>
          </ns3:TrackPointExtension>
        </extensions>
      </trkpt>
      <trkpt lat="47.5381993688642978668212890625" lon="11.0019196383655071258544921875">
        <ele>1877</ele>
        <time>2026-09-01T07:53:20.000Z</time>
        <extensions>
          <ns3:TrackPointExtension>
            <ns3:hr>146</ns3:hr>
            <ns3:cad>85</ns3:cad>
          </ns3:TrackPointExtension>
        </extensions>
      </trkpt>
      <trkpt lat="47.53817950375378131866455078125" lon="11.001956351101398468017578125">
        <ele>1876.5999755859375</ele>
        <time>2026-09-01T07:53:21.000Z</time>
        <extensions>
          <ns3:TrackPointExtension>
            <ns3:hr>146</ns3:hr>
            <ns3:cad>44</ns3:cad>
          </ns3:TrackPointExtension>
        </extensions>
      </trkpt>
      <trkpt lat="47.538166679441928863525390625" lon="11.0019793175160884857177734375">
        <ele>1876.199951171875</ele>
        <time>2026-09-01T07:53:22.000Z</time>
        <extensions>
          <ns3:TrackPointExtension>
            <ns3:hr>147</ns3:hr>
            <ns3:cad>44</ns3:cad>
          </ns3:TrackPointExtension>
        </extensions>
      </trkpt>
      <trkpt lat="47.5381437130272388458251953125" lon="11.0020239092409610748291015625">
        <ele>1875.800048828125</ele>
        <time>2026-09-01T07:53:23.000Z</time>
        <extensions>
          <ns3:TrackPointExtension>
            <ns3:hr>147</ns3:hr>
            <ns3:cad>44</ns3:cad>
          </ns3:TrackPointExtension>
        </extensions>
      </trkpt>
      <trkpt lat="47.5381303019821643829345703125" lon="11.00205584429204463958740234375">
        <ele>1875.199951171875</ele>
        <time>2026-09-01T07:53:24.000Z</time>
        <extensions>
          <ns3:TrackPointExtension>
            <ns3:hr>148</ns3:hr>
            <ns3:cad>44</ns3:cad>
          </ns3:TrackPointExtension>
        </extensions>
      </trkpt>
      <trkpt lat="47.5381152145564556121826171875" lon="11.00207738578319549560546875">
        <ele>1875</ele>
        <time>2026-09-01T07:53:25.000Z</time>
        <extensions>
          <ns3:TrackPointExtension>
            <ns3:hr>148</ns3:hr>
            <ns3:cad>85</ns3:cad>
          </ns3:TrackPointExtension>
        </extensions>
      </trkpt>
      <trkpt lat="47.5380887277424335479736328125" lon="11.00211150012910366058349609375">
        <ele>1875</ele>
        <time>2026-09-01T07:53:26.000Z</time>
        <extensions>
          <ns3:TrackPointExtension>
            <ns3:hr>148</ns3:hr>
            <ns3:cad>85</ns3:cad>
          </ns3:TrackPointExtension>
        </extensions>
      </trkpt>
      <trkpt lat="47.53807389177381992340087890625" lon="11.00213446654379367828369140625">
        <ele>1875</ele>
        <time>2026-09-01T07:53:27.000Z</time>
        <extensions>
          <ns3:TrackPointExtension>
            <ns3:hr>147</ns3:hr>
            <ns3:cad>85</ns3:cad>
          </ns3:TrackPointExtension>
        </extensions>
      </trkpt>
      <trkpt lat="47.53804706968367099761962890625" lon="11.0021737776696681976318359375">
        <ele>1875</ele>
        <time>2026-09-01T07:53:28.000Z</time>
        <extensions>
          <ns3:TrackPointExtension>
            <ns3:hr>146</ns3:hr>
            <ns3:cad>85</ns3:cad>
          </ns3:TrackPointExtension>
        </extensions>
      </trkpt>
      <trkpt lat="47.53802678547799587249755859375" lon="11.002197749912738800048828125">
        <ele>1875.199951171875</ele>
        <time>2026-09-01T07:53:29.000Z</time>
        <extensions>
          <ns3:TrackPointExtension>
            <ns3:hr>145</ns3:hr>
            <ns3:cad>84</ns3:cad>
          </ns3:TrackPointExtension>
        </extensions>
      </trkpt>
      <trkpt lat="47.538001053035259246826171875" lon="11.00223236717283725738525390625">
        <ele>1874.5999755859375</ele>
        <time>2026-09-01T07:53:30.000Z</time>
        <extensions>
          <ns3:TrackPointExtension>
            <ns3:hr>145</ns3:hr>
            <ns3:cad>84</ns3:cad>
          </ns3:TrackPointExtension>
        </extensions>
      </trkpt>
      <trkpt lat="47.53797682933509349822998046875" lon="11.00226606242358684539794921875">
        <ele>1873.800048828125</ele>
        <time>2026-09-01T07:53:31.000Z</time>
        <extensions>
          <ns3:TrackPointExtension>
            <ns3:hr>146</ns3:hr>
            <ns3:cad>84</ns3:cad>
          </ns3:TrackPointExtension>
        </extensions>
      </trkpt>
      <trkpt lat="47.5379422120749950408935546875" lon="11.0023018531501293182373046875">
        <ele>1872.800048828125</ele>
        <time>2026-09-01T07:53:32.000Z</time>
        <extensions>
          <ns3:TrackPointExtension>
            <ns3:hr>146</ns3:hr>
            <ns3:cad>84</ns3:cad>
          </ns3:TrackPointExtension>
        </extensions>
      </trkpt>
      <trkpt lat="47.5379236042499542236328125" lon="11.00232590921223163604736328125">
        <ele>1872.199951171875</ele>
        <time>2026-09-01T07:53:33.000Z</time>
        <extensions>
          <ns3:TrackPointExtension>
            <ns3:hr>147</ns3:hr>
            <ns3:cad>83</ns3:cad>
          </ns3:TrackPointExtension>
        </extensions>
      </trkpt>
      <trkpt lat="47.5378925912082195281982421875" lon="11.0023677349090576171875">
        <ele>1872</ele>
        <time>2026-09-01T07:53:34.000Z</time>
        <extensions>
          <ns3:TrackPointExtension>
            <ns3:hr>147</ns3:hr>
            <ns3:cad>83</ns3:cad>
          </ns3:TrackPointExtension>
        </extensions>
      </trkpt>
      <trkpt lat="47.53787222318351268768310546875" lon="11.00240352563560009002685546875">
        <ele>1871.800048828125</ele>
        <time>2026-09-01T07:53:35.000Z</time>
        <extensions>
          <ns3:TrackPointExtension>
            <ns3:hr>147</ns3:hr>
            <ns3:cad>83</ns3:cad>
          </ns3:TrackPointExtension>
        </extensions>
      </trkpt>
      <trkpt lat="47.53785177133977413177490234375" lon="11.0024309344589710235595703125">
        <ele>1871.5999755859375</ele>
        <time>2026-09-01T07:53:36.000Z</time>
        <extensions>
          <ns3:TrackPointExtension>
            <ns3:hr>148</ns3:hr>
            <ns3:cad>83</ns3:cad>
          </ns3:TrackPointExtension>
        </extensions>
      </trkpt>
      <trkpt lat="47.53781832754611968994140625" lon="11.00247074849903583526611328125">
        <ele>1871.4000244140625</ele>
        <time>2026-09-01T07:53:37.000Z</time>
        <extensions>
          <ns3:TrackPointExtension>
            <ns3:hr>148</ns3:hr>
            <ns3:cad>81</ns3:cad>
          </ns3:TrackPointExtension>
        </extensions>
      </trkpt>
      <trkpt lat="47.537796534597873687744140625" lon="11.00249723531305789947509765625">
        <ele>1871</ele>
        <time>2026-09-01T07:53:38.000Z</time>
        <extensions>
          <ns3:TrackPointExtension>
            <ns3:hr>149</ns3:hr>
            <ns3:cad>81</ns3:cad>
          </ns3:TrackPointExtension>
        </extensions>
      </trkpt>
      <trkpt lat="47.53777683712542057037353515625" lon="11.00254031829535961151123046875">
        <ele>1870.800048828125</ele>
        <time>2026-09-01T07:53:39.000Z</time>
        <extensions>
          <ns3:TrackPointExtension>
            <ns3:hr>149</ns3:hr>
            <ns3:cad>86</ns3:cad>
          </ns3:TrackPointExtension>
        </extensions>
      </trkpt>
      <trkpt lat="47.537755630910396575927734375" lon="11.002575270831584930419921875">
        <ele>1870.4000244140625</ele>
        <time>2026-09-01T07:53:40.000Z</time>
        <extensions>
          <ns3:TrackPointExtension>
            <ns3:hr>150</ns3:hr>
            <ns3:cad>86</ns3:cad>
          </ns3:TrackPointExtension>
        </extensions>
      </trkpt>
      <trkpt lat="47.537737190723419189453125" lon="11.00259907543659210205078125">
        <ele>1870.199951171875</ele>
        <time>2026-09-01T07:53:41.000Z</time>
        <extensions>
          <ns3:TrackPointExtension>
            <ns3:hr>150</ns3:hr>
            <ns3:cad>83</ns3:cad>
          </ns3:TrackPointExtension>
        </extensions>
      </trkpt>
      <trkpt lat="47.5377128832042217254638671875" lon="11.00263872183859348297119140625">
        <ele>1870.199951171875</ele>
        <time>2026-09-01T07:53:42.000Z</time>
        <extensions>
          <ns3:TrackPointExtension>
            <ns3:hr>151</ns3:hr>
            <ns3:cad>82</ns3:cad>
          </ns3:TrackPointExtension>
        </extensions>
      </trkpt>
      <trkpt lat="47.53770156763494014739990234375" lon="11.00267241708934307098388671875">
        <ele>1869.800048828125</ele>
        <time>2026-09-01T07:53:43.000Z</time>
        <extensions>
          <ns3:TrackPointExtension>
            <ns3:hr>151</ns3:hr>
            <ns3:cad>81</ns3:cad>
          </ns3:TrackPointExtension>
        </extensions>
      </trkpt>
      <trkpt lat="47.53769285045564174652099609375" lon="11.00270661525428295135498046875">
        <ele>1869.5999755859375</ele>
        <time>2026-09-01T07:53:44.000Z</time>
        <extensions>
          <ns3:TrackPointExtension>
            <ns3:hr>151</ns3:hr>
            <ns3:cad>81</ns3:cad>
          </ns3:TrackPointExtension>
        </extensions>
      </trkpt>
      <trkpt lat="47.53766854293644428253173828125" lon="11.0027554817497730255126953125">
        <ele>1869.4000244140625</ele>
        <time>2026-09-01T07:53:45.000Z</time>
        <extensions>
          <ns3:TrackPointExtension>
            <ns3:hr>151</ns3:hr>
            <ns3:cad>81</ns3:cad>
          </ns3:TrackPointExtension>
        </extensions>
      </trkpt>
      <trkpt lat="47.5376525335013866424560546875" lon="11.00279294885694980621337890625">
        <ele>1869.199951171875</ele>
        <time>2026-09-01T07:53:46.000Z</time>
        <extensions>
          <ns3:TrackPointExtension>
            <ns3:hr>151</ns3:hr>
            <ns3:cad>81</ns3:cad>
          </ns3:TrackPointExtension>
        </extensions>
      </trkpt>
      <trkpt lat="47.53763082437217235565185546875" lon="11.0028248839080333709716796875">
        <ele>1869.199951171875</ele>
        <time>2026-09-01T07:53:47.000Z</time>
        <extensions>
          <ns3:TrackPointExtension>
            <ns3:hr>151</ns3:hr>
            <ns3:cad>81</ns3:cad>
          </ns3:TrackPointExtension>
        </extensions>
      </trkpt>
      <trkpt lat="47.5376133061945438385009765625" lon="11.002860255539417266845703125">
        <ele>1868.800048828125</ele>
        <time>2026-09-01T07:53:48.000Z</time>
        <extensions>
          <ns3:TrackPointExtension>
            <ns3:hr>151</ns3:hr>
            <ns3:cad>81</ns3:cad>
          </ns3:TrackPointExtension>
        </extensions>
      </trkpt>
      <trkpt lat="47.537589333951473236083984375" lon="11.0028919391334056854248046875">
        <ele>1868.4000244140625</ele>
        <time>2026-09-01T07:53:49.000Z</time>
        <extensions>
          <ns3:TrackPointExtension>
            <ns3:hr>151</ns3:hr>
            <ns3:cad>81</ns3:cad>
          </ns3:TrackPointExtension>
        </extensions>
      </trkpt>
      <trkpt lat="47.5375697202980518341064453125" lon="11.002925969660282135009765625">
        <ele>1867.800048828125</ele>
        <time>2026-09-01T07:53:50.000Z</time>
        <extensions>
          <ns3:TrackPointExtension>
            <ns3:hr>152</ns3:hr>
            <ns3:cad>81</ns3:cad>
          </ns3:TrackPointExtension>
        </extensions>
      </trkpt>
      <trkpt lat="47.5375492684543132781982421875" lon="11.0029623471200466156005859375">
        <ele>1867</ele>
        <time>2026-09-01T07:53:51.000Z</time>
        <extensions>
          <ns3:TrackPointExtension>
            <ns3:hr>152</ns3:hr>
            <ns3:cad>81</ns3:cad>
          </ns3:TrackPointExtension>
        </extensions>
      </trkpt>
      <trkpt lat="47.53752739168703556060791015625" lon="11.00299470126628875732421875">
        <ele>1866</ele>
        <time>2026-09-01T07:53:52.000Z</time>
        <extensions>
          <ns3:TrackPointExtension>
            <ns3:hr>152</ns3:hr>
            <ns3:cad>81</ns3:cad>
          </ns3:TrackPointExtension>
        </extensions>
      </trkpt>
      <trkpt lat="47.537502832710742950439453125" lon="11.0030159913003444671630859375">
        <ele>1865.4000244140625</ele>
        <time>2026-09-01T07:53:53.000Z</time>
        <extensions>
          <ns3:TrackPointExtension>
            <ns3:hr>152</ns3:hr>
            <ns3:cad>81</ns3:cad>
          </ns3:TrackPointExtension>
        </extensions>
      </trkpt>
      <trkpt lat="47.53748305141925811767578125" lon="11.003045998513698577880859375">
        <ele>1864.800048828125</ele>
        <time>2026-09-01T07:53:54.000Z</time>
        <extensions>
          <ns3:TrackPointExtension>
            <ns3:hr>152</ns3:hr>
            <ns3:cad>83</ns3:cad>
          </ns3:TrackPointExtension>
        </extensions>
      </trkpt>
      <trkpt lat="47.53746620379388332366943359375" lon="11.0030783526599407196044921875">
        <ele>1864.199951171875</ele>
        <time>2026-09-01T07:53:55.000Z</time>
        <extensions>
          <ns3:TrackPointExtension>
            <ns3:hr>152</ns3:hr>
            <ns3:cad>83</ns3:cad>
          </ns3:TrackPointExtension>
        </extensions>
      </trkpt>
      <trkpt lat="47.53745061345398426055908203125" lon="11.00308991968631744384765625">
        <ele>1863.5999755859375</ele>
        <time>2026-09-01T07:53:56.000Z</time>
        <extensions>
          <ns3:TrackPointExtension>
            <ns3:hr>152</ns3:hr>
            <ns3:cad>95</ns3:cad>
          </ns3:TrackPointExtension>
        </extensions>
      </trkpt>
      <trkpt lat="47.53742479719221591949462890625" lon="11.0030852258205413818359375">
        <ele>1863</ele>
        <time>2026-09-01T07:53:57.000Z</time>
        <extensions>
          <ns3:TrackPointExtension>
            <ns3:hr>152</ns3:hr>
            <ns3:cad>95</ns3:cad>
          </ns3:TrackPointExtension>
        </extensions>
      </trkpt>
      <trkpt lat="47.53739847801625728607177734375" lon="11.00308849476277828216552734375">
        <ele>1862.4000244140625</ele>
        <time>2026-09-01T07:53:58.000Z</time>
        <extensions>
          <ns3:TrackPointExtension>
            <ns3:hr>152</ns3:hr>
            <ns3:cad>95</ns3:cad>
          </ns3:TrackPointExtension>
        </extensions>
      </trkpt>
      <trkpt lat="47.537376768887042999267578125" lon="11.00308899767696857452392578125">
        <ele>1861.800048828125</ele>
        <time>2026-09-01T07:53:59.000Z</time>
        <extensions>
          <ns3:TrackPointExtension>
            <ns3:hr>152</ns3:hr>
            <ns3:cad>95</ns3:cad>
          </ns3:TrackPointExtension>
        </extensions>
      </trkpt>
      <trkpt lat="47.53735120408236980438232421875" lon="11.00312185473740100860595703125">
        <ele>1861</ele>
        <time>2026-09-01T07:54:00.000Z</time>
        <extensions>
          <ns3:TrackPointExtension>
            <ns3:hr>153</ns3:hr>
            <ns3:cad>95</ns3:cad>
          </ns3:TrackPointExtension>
        </extensions>
      </trkpt>
      <trkpt lat="47.5373296625912189483642578125" lon="11.0031366907060146331787109375">
        <ele>1860.4000244140625</ele>
        <time>2026-09-01T07:54:01.000Z</time>
        <extensions>
          <ns3:TrackPointExtension>
            <ns3:hr>152</ns3:hr>
            <ns3:cad>95</ns3:cad>
          </ns3:TrackPointExtension>
        </extensions>
      </trkpt>
      <trkpt lat="47.53729755990207195281982421875" lon="11.00316544063389301300048828125">
        <ele>1859.4000244140625</ele>
        <time>2026-09-01T07:54:02.000Z</time>
        <extensions>
          <ns3:TrackPointExtension>
            <ns3:hr>151</ns3:hr>
            <ns3:cad>95</ns3:cad>
          </ns3:TrackPointExtension>
        </extensions>
      </trkpt>
      <trkpt lat="47.53727140836417675018310546875" lon="11.00319611839950084686279296875">
        <ele>1858.4000244140625</ele>
        <time>2026-09-01T07:54:03.000Z</time>
        <extensions>
          <ns3:TrackPointExtension>
            <ns3:hr>150</ns3:hr>
            <ns3:cad>91</ns3:cad>
          </ns3:TrackPointExtension>
        </extensions>
      </trkpt>
      <trkpt lat="47.5372495315968990325927734375" lon="11.0032081045210361480712890625">
        <ele>1857.5999755859375</ele>
        <time>2026-09-01T07:54:04.000Z</time>
        <extensions>
          <ns3:TrackPointExtension>
            <ns3:hr>149</ns3:hr>
            <ns3:cad>88</ns3:cad>
          </ns3:TrackPointExtension>
        </extensions>
      </trkpt>
      <trkpt lat="47.5372143276035785675048828125" lon="11.00321942009031772613525390625">
        <ele>1857</ele>
        <time>2026-09-01T07:54:05.000Z</time>
        <extensions>
          <ns3:TrackPointExtension>
            <ns3:hr>146</ns3:hr>
            <ns3:cad>88</ns3:cad>
          </ns3:TrackPointExtension>
        </extensions>
      </trkpt>
      <trkpt lat="47.5371864996850490570068359375" lon="11.00322796963155269622802734375">
        <ele>1856.4000244140625</ele>
        <time>2026-09-01T07:54:06.000Z</time>
        <extensions>
          <ns3:TrackPointExtension>
            <ns3:hr>145</ns3:hr>
            <ns3:cad>86</ns3:cad>
          </ns3:TrackPointExtension>
        </extensions>
      </trkpt>
      <trkpt lat="47.53716194070875644683837890625" lon="11.003240458667278289794921875">
        <ele>1856</ele>
        <time>2026-09-01T07:54:07.000Z</time>
        <extensions>
          <ns3:TrackPointExtension>
            <ns3:hr>144</ns3:hr>
            <ns3:cad>85</ns3:cad>
          </ns3:TrackPointExtension>
        </extensions>
      </trkpt>
      <trkpt lat="47.53714601509273052215576171875" lon="11.0032456554472446441650390625">
        <ele>1855.4000244140625</ele>
        <time>2026-09-01T07:54:08.000Z</time>
        <extensions>
          <ns3:TrackPointExtension>
            <ns3:hr>145</ns3:hr>
            <ns3:cad>85</ns3:cad>
          </ns3:TrackPointExtension>
        </extensions>
      </trkpt>
      <trkpt lat="47.53711969591677188873291015625" lon="11.00326359272003173828125">
        <ele>1854.800048828125</ele>
        <time>2026-09-01T07:54:09.000Z</time>
        <extensions>
          <ns3:TrackPointExtension>
            <ns3:hr>145</ns3:hr>
            <ns3:cad>85</ns3:cad>
          </ns3:TrackPointExtension>
        </extensions>
      </trkpt>
      <trkpt lat="47.53710192628204822540283203125" lon="11.00328731350600719451904296875">
        <ele>1853.800048828125</ele>
        <time>2026-09-01T07:54:10.000Z</time>
        <extensions>
          <ns3:TrackPointExtension>
            <ns3:hr>145</ns3:hr>
            <ns3:cad>85</ns3:cad>
          </ns3:TrackPointExtension>
        </extensions>
      </trkpt>
      <trkpt lat="47.53707778640091419219970703125" lon="11.003320924937725067138671875">
        <ele>1853.199951171875</ele>
        <time>2026-09-01T07:54:11.000Z</time>
        <extensions>
          <ns3:TrackPointExtension>
            <ns3:hr>145</ns3:hr>
            <ns3:cad>85</ns3:cad>
          </ns3:TrackPointExtension>
        </extensions>
      </trkpt>
      <trkpt lat="47.5370547361671924591064453125" lon="11.003351770341396331787109375">
        <ele>1852</ele>
        <time>2026-09-01T07:54:12.000Z</time>
        <extensions>
          <ns3:TrackPointExtension>
            <ns3:hr>146</ns3:hr>
            <ns3:cad>85</ns3:cad>
          </ns3:TrackPointExtension>
        </extensions>
      </trkpt>
      <trkpt lat="47.5370295904576778411865234375" lon="11.00338018499314785003662109375">
        <ele>1851.4000244140625</ele>
        <time>2026-09-01T07:54:13.000Z</time>
        <extensions>
          <ns3:TrackPointExtension>
            <ns3:hr>146</ns3:hr>
            <ns3:cad>85</ns3:cad>
          </ns3:TrackPointExtension>
        </extensions>
      </trkpt>
      <trkpt lat="47.53701039589941501617431640625" lon="11.0034005530178546905517578125">
        <ele>1850.800048828125</ele>
        <time>2026-09-01T07:54:14.000Z</time>
        <extensions>
          <ns3:TrackPointExtension>
            <ns3:hr>146</ns3:hr>
            <ns3:cad>85</ns3:cad>
          </ns3:TrackPointExtension>
        </extensions>
      </trkpt>
      <trkpt lat="47.53698625601828098297119140625" lon="11.0034189932048320770263671875">
        <ele>1850.4000244140625</ele>
        <time>2026-09-01T07:54:15.000Z</time>
        <extensions>
          <ns3:TrackPointExtension>
            <ns3:hr>146</ns3:hr>
            <ns3:cad>85</ns3:cad>
          </ns3:TrackPointExtension>
        </extensions>
      </trkpt>
      <trkpt lat="47.536972425878047943115234375" lon="11.0034377686679363250732421875">
        <ele>1849.4000244140625</ele>
        <time>2026-09-01T07:54:16.000Z</time>
        <extensions>
          <ns3:TrackPointExtension>
            <ns3:hr>145</ns3:hr>
            <ns3:cad>85</ns3:cad>
          </ns3:TrackPointExtension>
        </extensions>
      </trkpt>
      <trkpt lat="47.5369461067020893096923828125" lon="11.00346936844289302825927734375">
        <ele>1848.5999755859375</ele>
        <time>2026-09-01T07:54:17.000Z</time>
        <extensions>
          <ns3:TrackPointExtension>
            <ns3:hr>144</ns3:hr>
            <ns3:cad>85</ns3:cad>
          </ns3:TrackPointExtension>
        </extensions>
      </trkpt>
      <trkpt lat="47.536927498877048492431640625" lon="11.00349719636142253875732421875">
        <ele>1847.800048828125</ele>
        <time>2026-09-01T07:54:18.000Z</time>
        <extensions>
          <ns3:TrackPointExtension>
            <ns3:hr>143</ns3:hr>
            <ns3:cad>85</ns3:cad>
          </ns3:TrackPointExtension>
        </extensions>
      </trkpt>
      <trkpt lat="47.53689958713948726654052734375" lon="11.00353541783988475799560546875">
        <ele>1846.5999755859375</ele>
        <time>2026-09-01T07:54:19.000Z</time>
        <extensions>
          <ns3:TrackPointExtension>
            <ns3:hr>142</ns3:hr>
            <ns3:cad>85</ns3:cad>
          </ns3:TrackPointExtension>
        </extensions>
      </trkpt>
      <trkpt lat="47.5368763692677021026611328125" lon="11.00356358103454113006591796875">
        <ele>1845.800048828125</ele>
        <time>2026-09-01T07:54:20.000Z</time>
        <extensions>
          <ns3:TrackPointExtension>
            <ns3:hr>141</ns3:hr>
            <ns3:cad>85</ns3:cad>
          </ns3:TrackPointExtension>
        </extensions>
      </trkpt>
      <trkpt lat="47.536848373711109161376953125" lon="11.00360062904655933380126953125">
        <ele>1845</ele>
        <time>2026-09-01T07:54:21.000Z</time>
        <extensions>
          <ns3:TrackPointExtension>
            <ns3:hr>141</ns3:hr>
            <ns3:cad>85</ns3:cad>
          </ns3:TrackPointExtension>
        </extensions>
      </trkpt>
      <trkpt lat="47.536832280457019805908203125" lon="11.0036298818886280059814453125">
        <ele>1844.5999755859375</ele>
        <time>2026-09-01T07:54:22.000Z</time>
        <extensions>
          <ns3:TrackPointExtension>
            <ns3:hr>141</ns3:hr>
            <ns3:cad>85</ns3:cad>
          </ns3:TrackPointExtension>
        </extensions>
      </trkpt>
      <trkpt lat="47.5368104875087738037109375" lon="11.00364823825657367706298828125">
        <ele>1844.199951171875</ele>
        <time>2026-09-01T07:54:23.000Z</time>
        <extensions>
          <ns3:TrackPointExtension>
            <ns3:hr>142</ns3:hr>
            <ns3:cad>89</ns3:cad>
          </ns3:TrackPointExtension>
        </extensions>
      </trkpt>
      <trkpt lat="47.5367962382733821868896484375" lon="11.00368025712668895721435546875">
        <ele>1843.5999755859375</ele>
        <time>2026-09-01T07:54:24.000Z</time>
        <extensions>
          <ns3:TrackPointExtension>
            <ns3:hr>143</ns3:hr>
            <ns3:cad>89</ns3:cad>
          </ns3:TrackPointExtension>
        </extensions>
      </trkpt>
      <trkpt lat="47.5367794744670391082763671875" lon="11.0036919079720973968505859375">
        <ele>1842.800048828125</ele>
        <time>2026-09-01T07:54:25.000Z</time>
        <extensions>
          <ns3:TrackPointExtension>
            <ns3:hr>143</ns3:hr>
            <ns3:cad>89</ns3:cad>
          </ns3:TrackPointExtension>
        </extensions>
      </trkpt>
      <trkpt lat="47.53676983527839183807373046875" lon="11.00367120467126369476318359375">
        <ele>1842.199951171875</ele>
        <time>2026-09-01T07:54:26.000Z</time>
        <extensions>
          <ns3:TrackPointExtension>
            <ns3:hr>144</ns3:hr>
            <ns3:cad>89</ns3:cad>
          </ns3:TrackPointExtension>
        </extensions>
      </trkpt>
      <trkpt lat="47.5367541611194610595703125" lon="11.0036551952362060546875">
        <ele>1841.199951171875</ele>
        <time>2026-09-01T07:54:27.000Z</time>
        <extensions>
          <ns3:TrackPointExtension>
            <ns3:hr>144</ns3:hr>
            <ns3:cad>89</ns3:cad>
          </ns3:TrackPointExtension>
        </extensions>
      </trkpt>
      <trkpt lat="47.53674066625535488128662109375" lon="11.0036543570458889007568359375">
        <ele>1840.4000244140625</ele>
        <time>2026-09-01T07:54:28.000Z</time>
        <extensions>
          <ns3:TrackPointExtension>
            <ns3:hr>144</ns3:hr>
            <ns3:cad>89</ns3:cad>
          </ns3:TrackPointExtension>
        </extensions>
      </trkpt>
      <trkpt lat="47.53672507591545581817626953125" lon="11.00366936065256595611572265625">
        <ele>1839.5999755859375</ele>
        <time>2026-09-01T07:54:29.000Z</time>
        <extensions>
          <ns3:TrackPointExtension>
            <ns3:hr>143</ns3:hr>
            <ns3:cad>0</ns3:cad>
          </ns3:TrackPointExtension>
        </extensions>
      </trkpt>
      <trkpt lat="47.5367104075849056243896484375" lon="11.00368143059313297271728515625">
        <ele>1838.800048828125</ele>
        <time>2026-09-01T07:54:30.000Z</time>
        <extensions>
          <ns3:TrackPointExtension>
            <ns3:hr>142</ns3:hr>
            <ns3:cad>0</ns3:cad>
          </ns3:TrackPointExtension>
        </extensions>
      </trkpt>
      <trkpt lat="47.53669557161629199981689453125" lon="11.00367941893637180328369140625">
        <ele>1837.800048828125</ele>
        <time>2026-09-01T07:54:31.000Z</time>
        <extensions>
          <ns3:TrackPointExtension>
            <ns3:hr>142</ns3:hr>
            <ns3:cad>0</ns3:cad>
          </ns3:TrackPointExtension>
        </extensions>
      </trkpt>
      <trkpt lat="47.53668819554150104522705078125" lon="11.00368428044021129608154296875">
        <ele>1837.199951171875</ele>
        <time>2026-09-01T07:54:32.000Z</time>
        <extensions>
          <ns3:TrackPointExtension>
            <ns3:hr>141</ns3:hr>
            <ns3:cad>0</ns3:cad>
          </ns3:TrackPointExtension>
        </extensions>
      </trkpt>
      <trkpt lat="47.53667176701128482818603515625" lon="11.003683693706989288330078125">
        <ele>1836.4000244140625</ele>
        <time>2026-09-01T07:54:33.000Z</time>
        <extensions>
          <ns3:TrackPointExtension>
            <ns3:hr>141</ns3:hr>
            <ns3:cad>0</ns3:cad>
          </ns3:TrackPointExtension>
        </extensions>
      </trkpt>
      <trkpt lat="47.5366584397852420806884765625" lon="11.003690399229526519775390625">
        <ele>1835.5999755859375</ele>
        <time>2026-09-01T07:54:34.000Z</time>
        <extensions>
          <ns3:TrackPointExtension>
            <ns3:hr>141</ns3:hr>
            <ns3:cad>0</ns3:cad>
          </ns3:TrackPointExtension>
        </extensions>
      </trkpt>
      <trkpt lat="47.536653913557529449462890625" lon="11.00368511863052845001220703125">
        <ele>1834.800048828125</ele>
        <time>2026-09-01T07:54:35.000Z</time>
        <extensions>
          <ns3:TrackPointExtension>
            <ns3:hr>140</ns3:hr>
            <ns3:cad>0</ns3:cad>
          </ns3:TrackPointExtension>
        </extensions>
      </trkpt>
      <trkpt lat="47.53665148280560970306396484375" lon="11.00366952829062938690185546875">
        <ele>1834</ele>
        <time>2026-09-01T07:54:36.000Z</time>
        <extensions>
          <ns3:TrackPointExtension>
            <ns3:hr>139</ns3:hr>
            <ns3:cad>0</ns3:cad>
          </ns3:TrackPointExtension>
        </extensions>
      </trkpt>
      <trkpt lat="47.53664888441562652587890625" lon="11.0036592185497283935546875">
        <ele>1833.199951171875</ele>
        <time>2026-09-01T07:54:37.000Z</time>
        <extensions>
          <ns3:TrackPointExtension>
            <ns3:hr>138</ns3:hr>
            <ns3:cad>0</ns3:cad>
          </ns3:TrackPointExtension>
        </extensions>
      </trkpt>
      <trkpt lat="47.5366480462253093719482421875" lon="11.00363306701183319091796875">
        <ele>1832.5999755859375</ele>
        <time>2026-09-01T07:54:38.000Z</time>
        <extensions>
          <ns3:TrackPointExtension>
            <ns3:hr>137</ns3:hr>
            <ns3:cad>50</ns3:cad>
          </ns3:TrackPointExtension>
        </extensions>
      </trkpt>
      <trkpt lat="47.53665550611913204193115234375" lon="11.00361554883420467376708984375">
        <ele>1831.800048828125</ele>
        <time>2026-09-01T07:54:39.000Z</time>
        <extensions>
          <ns3:TrackPointExtension>
            <ns3:hr>136</ns3:hr>
            <ns3:cad>50</ns3:cad>
          </ns3:TrackPointExtension>
        </extensions>
      </trkpt>
      <trkpt lat="47.5366570986807346343994140625" lon="11.00360113196074962615966796875">
        <ele>1831</ele>
        <time>2026-09-01T07:54:40.000Z</time>
        <extensions>
          <ns3:TrackPointExtension>
            <ns3:hr>136</ns3:hr>
            <ns3:cad>50</ns3:cad>
          </ns3:TrackPointExtension>
        </extensions>
      </trkpt>
      <trkpt lat="47.53665852360427379608154296875" lon="11.00358587689697742462158203125">
        <ele>1830.4000244140625</ele>
        <time>2026-09-01T07:54:41.000Z</time>
        <extensions>
          <ns3:TrackPointExtension>
            <ns3:hr>136</ns3:hr>
            <ns3:cad>50</ns3:cad>
          </ns3:TrackPointExtension>
        </extensions>
      </trkpt>
      <trkpt lat="47.53665667958557605743408203125" lon="11.00356710143387317657470703125">
        <ele>1829.199951171875</ele>
        <time>2026-09-01T07:54:42.000Z</time>
        <extensions>
          <ns3:TrackPointExtension>
            <ns3:hr>135</ns3:hr>
            <ns3:cad>50</ns3:cad>
          </ns3:TrackPointExtension>
        </extensions>
      </trkpt>
      <trkpt lat="47.53665818832814693450927734375" lon="11.0035470686852931976318359375">
        <ele>1828.4000244140625</ele>
        <time>2026-09-01T07:54:43.000Z</time>
        <extensions>
          <ns3:TrackPointExtension>
            <ns3:hr>135</ns3:hr>
            <ns3:cad>50</ns3:cad>
          </ns3:TrackPointExtension>
        </extensions>
      </trkpt>
      <trkpt lat="47.5366560928523540496826171875" lon="11.00352452136576175689697265625">
        <ele>1827.800048828125</ele>
        <time>2026-09-01T07:54:44.000Z</time>
        <extensions>
          <ns3:TrackPointExtension>
            <ns3:hr>135</ns3:hr>
            <ns3:cad>50</ns3:cad>
          </ns3:TrackPointExtension>
        </extensions>
      </trkpt>
      <trkpt lat="47.5366508960723876953125" lon="11.003511361777782440185546875">
        <ele>1827</ele>
        <time>2026-09-01T07:54:45.000Z</time>
        <extensions>
          <ns3:TrackPointExtension>
            <ns3:hr>135</ns3:hr>
            <ns3:cad>50</ns3:cad>
          </ns3:TrackPointExtension>
        </extensions>
      </trkpt>
      <trkpt lat="47.5366413407027721405029296875" lon="11.00350968539714813232421875">
        <ele>1826.199951171875</ele>
        <time>2026-09-01T07:54:46.000Z</time>
        <extensions>
          <ns3:TrackPointExtension>
            <ns3:hr>134</ns3:hr>
            <ns3:cad>50</ns3:cad>
          </ns3:TrackPointExtension>
        </extensions>
      </trkpt>
      <trkpt lat="47.53662952221930027008056640625" lon="11.0035118646919727325439453125">
        <ele>1825.4000244140625</ele>
        <time>2026-09-01T07:54:47.000Z</time>
        <extensions>
          <ns3:TrackPointExtension>
            <ns3:hr>134</ns3:hr>
            <ns3:cad>0</ns3:cad>
          </ns3:TrackPointExtension>
        </extensions>
      </trkpt>
      <trkpt lat="47.536617033183574676513671875" lon="11.00352183915674686431884765625">
        <ele>1824.5999755859375</ele>
        <time>2026-09-01T07:54:48.000Z</time>
        <extensions>
          <ns3:TrackPointExtension>
            <ns3:hr>134</ns3:hr>
            <ns3:cad>0</ns3:cad>
          </ns3:TrackPointExtension>
        </extensions>
      </trkpt>
      <trkpt lat="47.53659968264400959014892578125" lon="11.0035299696028232574462890625">
        <ele>1824</ele>
        <time>2026-09-01T07:54:49.000Z</time>
        <extensions>
          <ns3:TrackPointExtension>
            <ns3:hr>134</ns3:hr>
            <ns3:cad>0</ns3:cad>
          </ns3:TrackPointExtension>
        </extensions>
      </trkpt>
      <trkpt lat="47.536589540541172027587890625" lon="11.0035251080989837646484375">
        <ele>1823.199951171875</ele>
        <time>2026-09-01T07:54:50.000Z</time>
        <extensions>
          <ns3:TrackPointExtension>
            <ns3:hr>133</ns3:hr>
            <ns3:cad>0</ns3:cad>
          </ns3:TrackPointExtension>
        </extensions>
      </trkpt>
      <trkpt lat="47.53657780587673187255859375" lon="11.00351312197744846343994140625">
        <ele>1822.800048828125</ele>
        <time>2026-09-01T07:54:51.000Z</time>
        <extensions>
          <ns3:TrackPointExtension>
            <ns3:hr>133</ns3:hr>
            <ns3:cad>0</ns3:cad>
          </ns3:TrackPointExtension>
        </extensions>
      </trkpt>
      <trkpt lat="47.5365793146193027496337890625" lon="11.00349619053304195404052734375">
        <ele>1822.199951171875</ele>
        <time>2026-09-01T07:54:52.000Z</time>
        <extensions>
          <ns3:TrackPointExtension>
            <ns3:hr>134</ns3:hr>
            <ns3:cad>0</ns3:cad>
          </ns3:TrackPointExtension>
        </extensions>
      </trkpt>
      <trkpt lat="47.53657646477222442626953125" lon="11.0034706257283687591552734375">
        <ele>1821.4000244140625</ele>
        <time>2026-09-01T07:54:53.000Z</time>
        <extensions>
          <ns3:TrackPointExtension>
            <ns3:hr>135</ns3:hr>
            <ns3:cad>0</ns3:cad>
          </ns3:TrackPointExtension>
        </extensions>
      </trkpt>
      <trkpt lat="47.53656917251646518707275390625" lon="11.00345662795007228851318359375">
        <ele>1820.5999755859375</ele>
        <time>2026-09-01T07:54:54.000Z</time>
        <extensions>
          <ns3:TrackPointExtension>
            <ns3:hr>135</ns3:hr>
            <ns3:cad>0</ns3:cad>
          </ns3:TrackPointExtension>
        </extensions>
      </trkpt>
      <trkpt lat="47.536560036242008209228515625" lon="11.00345931015908718109130859375">
        <ele>1820</ele>
        <time>2026-09-01T07:54:55.000Z</time>
        <extensions>
          <ns3:TrackPointExtension>
            <ns3:hr>135</ns3:hr>
            <ns3:cad>0</ns3:cad>
          </ns3:TrackPointExtension>
        </extensions>
      </trkpt>
      <trkpt lat="47.53654503263533115386962890625" lon="11.00349971093237400054931640625">
        <ele>1819.199951171875</ele>
        <time>2026-09-01T07:54:56.000Z</time>
        <extensions>
          <ns3:TrackPointExtension>
            <ns3:hr>134</ns3:hr>
            <ns3:cad>0</ns3:cad>
          </ns3:TrackPointExtension>
        </extensions>
      </trkpt>
      <trkpt lat="47.5365337170660495758056640625" lon="11.003505997359752655029296875">
        <ele>1818.800048828125</ele>
        <time>2026-09-01T07:54:57.000Z</time>
        <extensions>
          <ns3:TrackPointExtension>
            <ns3:hr>134</ns3:hr>
            <ns3:cad>0</ns3:cad>
          </ns3:TrackPointExtension>
        </extensions>
      </trkpt>
      <trkpt lat="47.53652684390544891357421875" lon="11.0035014711320400238037109375">
        <ele>1818.4000244140625</ele>
        <time>2026-09-01T07:54:58.000Z</time>
        <extensions>
          <ns3:TrackPointExtension>
            <ns3:hr>134</ns3:hr>
            <ns3:cad>0</ns3:cad>
          </ns3:TrackPointExtension>
        </extensions>
      </trkpt>
      <trkpt lat="47.53651150502264499664306640625" lon="11.00351077504456043243408203125">
        <ele>1817.800048828125</ele>
        <time>2026-09-01T07:54:59.000Z</time>
        <extensions>
          <ns3:TrackPointExtension>
            <ns3:hr>134</ns3:hr>
            <ns3:cad>0</ns3:cad>
          </ns3:TrackPointExtension>
        </extensions>
      </trkpt>
      <trkpt lat="47.5365032069385051727294921875" lon="11.00351060740649700164794921875">
        <ele>1817.4000244140625</ele>
        <time>2026-09-01T07:55:00.000Z</time>
        <extensions>
          <ns3:TrackPointExtension>
            <ns3:hr>134</ns3:hr>
            <ns3:cad>45</ns3:cad>
          </ns3:TrackPointExtension>
        </extensions>
      </trkpt>
      <trkpt lat="47.53648987971246242523193359375" lon="11.00351379252970218658447265625">
        <ele>1817</ele>
        <time>2026-09-01T07:55:01.000Z</time>
        <extensions>
          <ns3:TrackPointExtension>
            <ns3:hr>134</ns3:hr>
            <ns3:cad>45</ns3:cad>
          </ns3:TrackPointExtension>
        </extensions>
      </trkpt>
      <trkpt lat="47.53647831268608570098876953125" lon="11.00351815111935138702392578125">
        <ele>1816.5999755859375</ele>
        <time>2026-09-01T07:55:02.000Z</time>
        <extensions>
          <ns3:TrackPointExtension>
            <ns3:hr>133</ns3:hr>
            <ns3:cad>45</ns3:cad>
          </ns3:TrackPointExtension>
        </extensions>
      </trkpt>
      <trkpt lat="47.536466829478740692138671875" lon="11.00352385081350803375244140625">
        <ele>1816.199951171875</ele>
        <time>2026-09-01T07:55:03.000Z</time>
        <extensions>
          <ns3:TrackPointExtension>
            <ns3:hr>133</ns3:hr>
            <ns3:cad>47</ns3:cad>
          </ns3:TrackPointExtension>
        </extensions>
      </trkpt>
      <trkpt lat="47.53645786084234714508056640625" lon="11.0035266168415546417236328125">
        <ele>1815.5999755859375</ele>
        <time>2026-09-01T07:55:04.000Z</time>
        <extensions>
          <ns3:TrackPointExtension>
            <ns3:hr>133</ns3:hr>
            <ns3:cad>47</ns3:cad>
          </ns3:TrackPointExtension>
        </extensions>
      </trkpt>
      <trkpt lat="47.53644746728241443634033203125" lon="11.0035269521176815032958984375">
        <ele>1815.199951171875</ele>
        <time>2026-09-01T07:55:05.000Z</time>
        <extensions>
          <ns3:TrackPointExtension>
            <ns3:hr>133</ns3:hr>
            <ns3:cad>47</ns3:cad>
          </ns3:TrackPointExtension>
        </extensions>
      </trkpt>
      <trkpt lat="47.536437325179576873779296875" lon="11.00350541062653064727783203125">
        <ele>1814.5999755859375</ele>
        <time>2026-09-01T07:55:06.000Z</time>
        <extensions>
          <ns3:TrackPointExtension>
            <ns3:hr>132</ns3:hr>
            <ns3:cad>47</ns3:cad>
          </ns3:TrackPointExtension>
        </extensions>
      </trkpt>
      <trkpt lat="47.53642584197223186492919921875" lon="11.0034957714378833770751953125">
        <ele>1814</ele>
        <time>2026-09-01T07:55:07.000Z</time>
        <extensions>
          <ns3:TrackPointExtension>
            <ns3:hr>132</ns3:hr>
            <ns3:cad>47</ns3:cad>
          </ns3:TrackPointExtension>
        </extensions>
      </trkpt>
      <trkpt lat="47.536417879164218902587890625" lon="11.00348881445825099945068359375">
        <ele>1813.4000244140625</ele>
        <time>2026-09-01T07:55:08.000Z</time>
        <extensions>
          <ns3:TrackPointExtension>
            <ns3:hr>132</ns3:hr>
            <ns3:cad>0</ns3:cad>
          </ns3:TrackPointExtension>
        </extensions>
      </trkpt>
      <trkpt lat="47.5364081561565399169921875" lon="11.0034712962806224822998046875">
        <ele>1812.800048828125</ele>
        <time>2026-09-01T07:55:09.000Z</time>
        <extensions>
          <ns3:TrackPointExtension>
            <ns3:hr>131</ns3:hr>
            <ns3:cad>0</ns3:cad>
          </ns3:TrackPointExtension>
        </extensions>
      </trkpt>
      <trkpt lat="47.53639600239694118499755859375" lon="11.003461740911006927490234375">
        <ele>1812.199951171875</ele>
        <time>2026-09-01T07:55:10.000Z</time>
        <extensions>
          <ns3:TrackPointExtension>
            <ns3:hr>131</ns3:hr>
            <ns3:cad>0</ns3:cad>
          </ns3:TrackPointExtension>
        </extensions>
      </trkpt>
      <trkpt lat="47.53637856803834438323974609375" lon="11.003472805023193359375">
        <ele>1811.5999755859375</ele>
        <time>2026-09-01T07:55:11.000Z</time>
        <extensions>
          <ns3:TrackPointExtension>
            <ns3:hr>130</ns3:hr>
            <ns3:cad>0</ns3:cad>
          </ns3:TrackPointExtension>
        </extensions>
      </trkpt>
      <trkpt lat="47.53636515699326992034912109375" lon="11.00348093546926975250244140625">
        <ele>1810.800048828125</ele>
        <time>2026-09-01T07:55:12.000Z</time>
        <extensions>
          <ns3:TrackPointExtension>
            <ns3:hr>130</ns3:hr>
            <ns3:cad>0</ns3:cad>
          </ns3:TrackPointExtension>
        </extensions>
      </trkpt>
      <trkpt lat="47.5363509915769100189208984375" lon="11.00348613224923610687255859375">
        <ele>1810.199951171875</ele>
        <time>2026-09-01T07:55:13.000Z</time>
        <extensions>
          <ns3:TrackPointExtension>
            <ns3:hr>130</ns3:hr>
            <ns3:cad>0</ns3:cad>
          </ns3:TrackPointExtension>
        </extensions>
      </trkpt>
      <trkpt lat="47.536331713199615478515625" lon="11.00349761545658111572265625">
        <ele>1809.5999755859375</ele>
        <time>2026-09-01T07:55:14.000Z</time>
        <extensions>
          <ns3:TrackPointExtension>
            <ns3:hr>130</ns3:hr>
            <ns3:cad>0</ns3:cad>
          </ns3:TrackPointExtension>
        </extensions>
      </trkpt>
      <trkpt lat="47.53631587140262126922607421875" lon="11.003507673740386962890625">
        <ele>1808.800048828125</ele>
        <time>2026-09-01T07:55:15.000Z</time>
        <extensions>
          <ns3:TrackPointExtension>
            <ns3:hr>130</ns3:hr>
            <ns3:cad>83</ns3:cad>
          </ns3:TrackPointExtension>
        </extensions>
      </trkpt>
      <trkpt lat="47.53629927523434162139892578125" lon="11.003519408404827117919921875">
        <ele>1808.5999755859375</ele>
        <time>2026-09-01T07:55:16.000Z</time>
        <extensions>
          <ns3:TrackPointExtension>
            <ns3:hr>130</ns3:hr>
            <ns3:cad>83</ns3:cad>
          </ns3:TrackPointExtension>
        </extensions>
      </trkpt>
      <trkpt lat="47.5362768955528736114501953125" lon="11.00353156216442584991455078125">
        <ele>1808</ele>
        <time>2026-09-01T07:55:17.000Z</time>
        <extensions>
          <ns3:TrackPointExtension>
            <ns3:hr>130</ns3:hr>
            <ns3:cad>83</ns3:cad>
          </ns3:TrackPointExtension>
        </extensions>
      </trkpt>
      <trkpt lat="47.53625418059527873992919921875" lon="11.00354044698178768157958984375">
        <ele>1807.4000244140625</ele>
        <time>2026-09-01T07:55:18.000Z</time>
        <extensions>
          <ns3:TrackPointExtension>
            <ns3:hr>129</ns3:hr>
            <ns3:cad>83</ns3:cad>
          </ns3:TrackPointExtension>
        </extensions>
      </trkpt>
      <trkpt lat="47.53623716533184051513671875" lon="11.00356022827327251434326171875">
        <ele>1806.199951171875</ele>
        <time>2026-09-01T07:55:19.000Z</time>
        <extensions>
          <ns3:TrackPointExtension>
            <ns3:hr>129</ns3:hr>
            <ns3:cad>88</ns3:cad>
          </ns3:TrackPointExtension>
        </extensions>
      </trkpt>
      <trkpt lat="47.536217384040355682373046875" lon="11.00357146002352237701416015625">
        <ele>1805.199951171875</ele>
        <time>2026-09-01T07:55:20.000Z</time>
        <extensions>
          <ns3:TrackPointExtension>
            <ns3:hr>128</ns3:hr>
            <ns3:cad>88</ns3:cad>
          </ns3:TrackPointExtension>
        </extensions>
      </trkpt>
      <trkpt lat="47.536196596920490264892578125" lon="11.003592498600482940673828125">
        <ele>1804.5999755859375</ele>
        <time>2026-09-01T07:55:21.000Z</time>
        <extensions>
          <ns3:TrackPointExtension>
            <ns3:hr>127</ns3:hr>
            <ns3:cad>88</ns3:cad>
          </ns3:TrackPointExtension>
        </extensions>
      </trkpt>
      <trkpt lat="47.5361773185431957244873046875" lon="11.00360683165490627288818359375">
        <ele>1804</ele>
        <time>2026-09-01T07:55:22.000Z</time>
        <extensions>
          <ns3:TrackPointExtension>
            <ns3:hr>127</ns3:hr>
            <ns3:cad>88</ns3:cad>
          </ns3:TrackPointExtension>
        </extensions>
      </trkpt>
      <trkpt lat="47.5361592136323451995849609375" lon="11.00362426601350307464599609375">
        <ele>1803.5999755859375</ele>
        <time>2026-09-01T07:55:23.000Z</time>
        <extensions>
          <ns3:TrackPointExtension>
            <ns3:hr>127</ns3:hr>
            <ns3:cad>88</ns3:cad>
          </ns3:TrackPointExtension>
        </extensions>
      </trkpt>
      <trkpt lat="47.53614605404436588287353515625" lon="11.0036349110305309295654296875">
        <ele>1803.199951171875</ele>
        <time>2026-09-01T07:55:24.000Z</time>
        <extensions>
          <ns3:TrackPointExtension>
            <ns3:hr>126</ns3:hr>
            <ns3:cad>88</ns3:cad>
          </ns3:TrackPointExtension>
        </extensions>
      </trkpt>
      <trkpt lat="47.53613230772316455841064453125" lon="11.0036416165530681610107421875">
        <ele>1802.800048828125</ele>
        <time>2026-09-01T07:55:25.000Z</time>
        <extensions>
          <ns3:TrackPointExtension>
            <ns3:hr>127</ns3:hr>
            <ns3:cad>88</ns3:cad>
          </ns3:TrackPointExtension>
        </extensions>
      </trkpt>
      <trkpt lat="47.53612208180129528045654296875" lon="11.00364035926759243011474609375">
        <ele>1802.4000244140625</ele>
        <time>2026-09-01T07:55:26.000Z</time>
        <extensions>
          <ns3:TrackPointExtension>
            <ns3:hr>128</ns3:hr>
            <ns3:cad>88</ns3:cad>
          </ns3:TrackPointExtension>
        </extensions>
      </trkpt>
      <trkpt lat="47.53610364161431789398193359375" lon="11.0036350786685943603515625">
        <ele>1801.800048828125</ele>
        <time>2026-09-01T07:55:27.000Z</time>
        <extensions>
          <ns3:TrackPointExtension>
            <ns3:hr>130</ns3:hr>
            <ns3:cad>88</ns3:cad>
          </ns3:TrackPointExtension>
        </extensions>
      </trkpt>
      <trkpt lat="47.53609760664403438568115234375" lon="11.00362577475607395172119140625">
        <ele>1801.199951171875</ele>
        <time>2026-09-01T07:55:28.000Z</time>
        <extensions>
          <ns3:TrackPointExtension>
            <ns3:hr>131</ns3:hr>
            <ns3:cad>43</ns3:cad>
          </ns3:TrackPointExtension>
        </extensions>
      </trkpt>
      <trkpt lat="47.53608386032283306121826171875" lon="11.00361336953938007354736328125">
        <ele>1800.4000244140625</ele>
        <time>2026-09-01T07:55:29.000Z</time>
        <extensions>
          <ns3:TrackPointExtension>
            <ns3:hr>132</ns3:hr>
            <ns3:cad>43</ns3:cad>
          </ns3:TrackPointExtension>
        </extensions>
      </trkpt>
      <trkpt lat="47.536079250276088714599609375" lon="11.00363348610699176788330078125">
        <ele>1799.800048828125</ele>
        <time>2026-09-01T07:55:30.000Z</time>
        <extensions>
          <ns3:TrackPointExtension>
            <ns3:hr>132</ns3:hr>
            <ns3:cad>43</ns3:cad>
          </ns3:TrackPointExtension>
        </extensions>
      </trkpt>
      <trkpt lat="47.536071203649044036865234375" lon="11.0036449693143367767333984375">
        <ele>1798.800048828125</ele>
        <time>2026-09-01T07:55:31.000Z</time>
        <extensions>
          <ns3:TrackPointExtension>
            <ns3:hr>132</ns3:hr>
            <ns3:cad>53</ns3:cad>
          </ns3:TrackPointExtension>
        </extensions>
      </trkpt>
      <trkpt lat="47.53606013953685760498046875" lon="11.003644466400146484375">
        <ele>1798</ele>
        <time>2026-09-01T07:55:32.000Z</time>
        <extensions>
          <ns3:TrackPointExtension>
            <ns3:hr>133</ns3:hr>
            <ns3:cad>53</ns3:cad>
          </ns3:TrackPointExtension>
        </extensions>
      </trkpt>
      <trkpt lat="47.53604941070079803466796875" lon="11.00362946279346942901611328125">
        <ele>1797.4000244140625</ele>
        <time>2026-09-01T07:55:33.000Z</time>
        <extensions>
          <ns3:TrackPointExtension>
            <ns3:hr>133</ns3:hr>
            <ns3:cad>53</ns3:cad>
          </ns3:TrackPointExtension>
        </extensions>
      </trkpt>
      <trkpt lat="47.536041699349880218505859375" lon="11.003613285720348358154296875">
        <ele>1796.800048828125</ele>
        <time>2026-09-01T07:55:34.000Z</time>
        <extensions>
          <ns3:TrackPointExtension>
            <ns3:hr>134</ns3:hr>
            <ns3:cad>53</ns3:cad>
          </ns3:TrackPointExtension>
        </extensions>
      </trkpt>
      <trkpt lat="47.53602585755288600921630859375" lon="11.00361336953938007354736328125">
        <ele>1796.199951171875</ele>
        <time>2026-09-01T07:55:35.000Z</time>
        <extensions>
          <ns3:TrackPointExtension>
            <ns3:hr>133</ns3:hr>
            <ns3:cad>53</ns3:cad>
          </ns3:TrackPointExtension>
        </extensions>
      </trkpt>
      <trkpt lat="47.536004483699798583984375" lon="11.0036171413958072662353515625">
        <ele>1795.5999755859375</ele>
        <time>2026-09-01T07:55:36.000Z</time>
        <extensions>
          <ns3:TrackPointExtension>
            <ns3:hr>132</ns3:hr>
            <ns3:cad>53</ns3:cad>
          </ns3:TrackPointExtension>
        </extensions>
      </trkpt>
      <trkpt lat="47.53599450923502445220947265625" lon="11.00361588411033153533935546875">
        <ele>1794.800048828125</ele>
        <time>2026-09-01T07:55:37.000Z</time>
        <extensions>
          <ns3:TrackPointExtension>
            <ns3:hr>131</ns3:hr>
            <ns3:cad>53</ns3:cad>
          </ns3:TrackPointExtension>
        </extensions>
      </trkpt>
      <trkpt lat="47.53598227165639400482177734375" lon="11.003603897988796234130859375">
        <ele>1794.199951171875</ele>
        <time>2026-09-01T07:55:38.000Z</time>
        <extensions>
          <ns3:TrackPointExtension>
            <ns3:hr>130</ns3:hr>
            <ns3:cad>53</ns3:cad>
          </ns3:TrackPointExtension>
        </extensions>
      </trkpt>
      <trkpt lat="47.53596735186874866485595703125" lon="11.00359191186726093292236328125">
        <ele>1793.5999755859375</ele>
        <time>2026-09-01T07:55:39.000Z</time>
        <extensions>
          <ns3:TrackPointExtension>
            <ns3:hr>129</ns3:hr>
            <ns3:cad>53</ns3:cad>
          </ns3:TrackPointExtension>
        </extensions>
      </trkpt>
      <trkpt lat="47.535951845347881317138671875" lon="11.00358101539313793182373046875">
        <ele>1793</ele>
        <time>2026-09-01T07:55:40.000Z</time>
        <extensions>
          <ns3:TrackPointExtension>
            <ns3:hr>129</ns3:hr>
            <ns3:cad>0</ns3:cad>
          </ns3:TrackPointExtension>
        </extensions>
      </trkpt>
      <trkpt lat="47.53593801520764827728271484375" lon="11.00357783026993274688720703125">
        <ele>1792.4000244140625</ele>
        <time>2026-09-01T07:55:41.000Z</time>
        <extensions>
          <ns3:TrackPointExtension>
            <ns3:hr>129</ns3:hr>
            <ns3:cad>0</ns3:cad>
          </ns3:TrackPointExtension>
        </extensions>
      </trkpt>
      <trkpt lat="47.5359171442687511444091796875" lon="11.00357833318412303924560546875">
        <ele>1791.800048828125</ele>
        <time>2026-09-01T07:55:42.000Z</time>
        <extensions>
          <ns3:TrackPointExtension>
            <ns3:hr>128</ns3:hr>
            <ns3:cad>0</ns3:cad>
          </ns3:TrackPointExtension>
        </extensions>
      </trkpt>
      <trkpt lat="47.5359007157385349273681640625" lon="11.00358252413570880889892578125">
        <ele>1791</ele>
        <time>2026-09-01T07:55:43.000Z</time>
        <extensions>
          <ns3:TrackPointExtension>
            <ns3:hr>129</ns3:hr>
            <ns3:cad>0</ns3:cad>
          </ns3:TrackPointExtension>
        </extensions>
      </trkpt>
      <trkpt lat="47.53587816841900348663330078125" lon="11.003587134182453155517578125">
        <ele>1790.5999755859375</ele>
        <time>2026-09-01T07:55:44.000Z</time>
        <extensions>
          <ns3:TrackPointExtension>
            <ns3:hr>128</ns3:hr>
            <ns3:cad>0</ns3:cad>
          </ns3:TrackPointExtension>
        </extensions>
      </trkpt>
      <trkpt lat="47.535854615271091461181640625" lon="11.00359811447560787200927734375">
        <ele>1789.5999755859375</ele>
        <time>2026-09-01T07:55:45.000Z</time>
        <extensions>
          <ns3:TrackPointExtension>
            <ns3:hr>128</ns3:hr>
            <ns3:cad>0</ns3:cad>
          </ns3:TrackPointExtension>
        </extensions>
      </trkpt>
      <trkpt lat="47.53583340905606746673583984375" lon="11.00360766984522342681884765625">
        <ele>1789</ele>
        <time>2026-09-01T07:55:46.000Z</time>
        <extensions>
          <ns3:TrackPointExtension>
            <ns3:hr>128</ns3:hr>
            <ns3:cad>0</ns3:cad>
          </ns3:TrackPointExtension>
        </extensions>
      </trkpt>
      <trkpt lat="47.53580977208912372589111328125" lon="11.00361764430999755859375">
        <ele>1788</ele>
        <time>2026-09-01T07:55:47.000Z</time>
        <extensions>
          <ns3:TrackPointExtension>
            <ns3:hr>128</ns3:hr>
            <ns3:cad>0</ns3:cad>
          </ns3:TrackPointExtension>
        </extensions>
      </trkpt>
      <trkpt lat="47.53578026778995990753173828125" lon="11.00362577475607395172119140625">
        <ele>1787</ele>
        <time>2026-09-01T07:55:48.000Z</time>
        <extensions>
          <ns3:TrackPointExtension>
            <ns3:hr>128</ns3:hr>
            <ns3:cad>103</ns3:cad>
          </ns3:TrackPointExtension>
        </extensions>
      </trkpt>
      <trkpt lat="47.53575914539396762847900390625" lon="11.00364304147660732269287109375">
        <ele>1786.199951171875</ele>
        <time>2026-09-01T07:55:49.000Z</time>
        <extensions>
          <ns3:TrackPointExtension>
            <ns3:hr>128</ns3:hr>
            <ns3:cad>103</ns3:cad>
          </ns3:TrackPointExtension>
        </extensions>
      </trkpt>
      <trkpt lat="47.53572762943804264068603515625" lon="11.0036551952362060546875">
        <ele>1784.5999755859375</ele>
        <time>2026-09-01T07:55:50.000Z</time>
        <extensions>
          <ns3:TrackPointExtension>
            <ns3:hr>129</ns3:hr>
            <ns3:cad>97</ns3:cad>
          </ns3:TrackPointExtension>
        </extensions>
      </trkpt>
      <trkpt lat="47.5356965325772762298583984375" lon="11.0036677680909633636474609375">
        <ele>1783.5999755859375</ele>
        <time>2026-09-01T07:55:51.000Z</time>
        <extensions>
          <ns3:TrackPointExtension>
            <ns3:hr>129</ns3:hr>
            <ns3:cad>97</ns3:cad>
          </ns3:TrackPointExtension>
        </extensions>
      </trkpt>
      <trkpt lat="47.53566987812519073486328125" lon="11.003647148609161376953125">
        <ele>1782.5999755859375</ele>
        <time>2026-09-01T07:55:52.000Z</time>
        <extensions>
          <ns3:TrackPointExtension>
            <ns3:hr>129</ns3:hr>
            <ns3:cad>97</ns3:cad>
          </ns3:TrackPointExtension>
        </extensions>
      </trkpt>
      <trkpt lat="47.53564305603504180908203125" lon="11.00365041755139827728271484375">
        <ele>1782</ele>
        <time>2026-09-01T07:55:53.000Z</time>
        <extensions>
          <ns3:TrackPointExtension>
            <ns3:hr>129</ns3:hr>
            <ns3:cad>97</ns3:cad>
          </ns3:TrackPointExtension>
        </extensions>
      </trkpt>
      <trkpt lat="47.5356288067996501922607421875" lon="11.00365544669330120086669921875">
        <ele>1781.4000244140625</ele>
        <time>2026-09-01T07:55:54.000Z</time>
        <extensions>
          <ns3:TrackPointExtension>
            <ns3:hr>129</ns3:hr>
            <ns3:cad>97</ns3:cad>
          </ns3:TrackPointExtension>
        </extensions>
      </trkpt>
      <trkpt lat="47.53560240380465984344482421875" lon="11.00365745835006237030029296875">
        <ele>1780.800048828125</ele>
        <time>2026-09-01T07:55:55.000Z</time>
        <extensions>
          <ns3:TrackPointExtension>
            <ns3:hr>129</ns3:hr>
            <ns3:cad>49</ns3:cad>
          </ns3:TrackPointExtension>
        </extensions>
      </trkpt>
      <trkpt lat="47.535589076578617095947265625" lon="11.00365863181650638580322265625">
        <ele>1780</ele>
        <time>2026-09-01T07:55:56.000Z</time>
        <extensions>
          <ns3:TrackPointExtension>
            <ns3:hr>128</ns3:hr>
            <ns3:cad>49</ns3:cad>
          </ns3:TrackPointExtension>
        </extensions>
      </trkpt>
      <trkpt lat="47.53557155840098857879638671875" lon="11.00365444086492061614990234375">
        <ele>1779.199951171875</ele>
        <time>2026-09-01T07:55:57.000Z</time>
        <extensions>
          <ns3:TrackPointExtension>
            <ns3:hr>128</ns3:hr>
            <ns3:cad>49</ns3:cad>
          </ns3:TrackPointExtension>
        </extensions>
      </trkpt>
      <trkpt lat="47.53555462695658206939697265625" lon="11.003644131124019622802734375">
        <ele>1778.5999755859375</ele>
        <time>2026-09-01T07:55:58.000Z</time>
        <extensions>
          <ns3:TrackPointExtension>
            <ns3:hr>127</ns3:hr>
            <ns3:cad>49</ns3:cad>
          </ns3:TrackPointExtension>
        </extensions>
      </trkpt>
      <trkpt lat="47.5355418026447296142578125" lon="11.00364119745790958404541015625">
        <ele>1777.800048828125</ele>
        <time>2026-09-01T07:55:59.000Z</time>
        <extensions>
          <ns3:TrackPointExtension>
            <ns3:hr>128</ns3:hr>
            <ns3:cad>49</ns3:cad>
          </ns3:TrackPointExtension>
        </extensions>
      </trkpt>
      <trkpt lat="47.535528726875782012939453125" lon="11.00363298319280147552490234375">
        <ele>1777</ele>
        <time>2026-09-01T07:56:00.000Z</time>
        <extensions>
          <ns3:TrackPointExtension>
            <ns3:hr>128</ns3:hr>
            <ns3:cad>49</ns3:cad>
          </ns3:TrackPointExtension>
        </extensions>
      </trkpt>
      <trkpt lat="47.53550802357494831085205078125" lon="11.00364035926759243011474609375">
        <ele>1776.199951171875</ele>
        <time>2026-09-01T07:56:01.000Z</time>
        <extensions>
          <ns3:TrackPointExtension>
            <ns3:hr>128</ns3:hr>
            <ns3:cad>0</ns3:cad>
          </ns3:TrackPointExtension>
        </extensions>
      </trkpt>
      <trkpt lat="47.5354962050914764404296875" lon="11.003632061183452606201171875">
        <ele>1775.4000244140625</ele>
        <time>2026-09-01T07:56:02.000Z</time>
        <extensions>
          <ns3:TrackPointExtension>
            <ns3:hr>128</ns3:hr>
            <ns3:cad>0</ns3:cad>
          </ns3:TrackPointExtension>
        </extensions>
      </trkpt>
      <trkpt lat="47.535477764904499053955078125" lon="11.00362393073737621307373046875">
        <ele>1774.5999755859375</ele>
        <time>2026-09-01T07:56:03.000Z</time>
        <extensions>
          <ns3:TrackPointExtension>
            <ns3:hr>128</ns3:hr>
            <ns3:cad>0</ns3:cad>
          </ns3:TrackPointExtension>
        </extensions>
      </trkpt>
      <trkpt lat="47.53546711988747119903564453125" lon="11.0036221705377101898193359375">
        <ele>1774.199951171875</ele>
        <time>2026-09-01T07:56:04.000Z</time>
        <extensions>
          <ns3:TrackPointExtension>
            <ns3:hr>128</ns3:hr>
            <ns3:cad>0</ns3:cad>
          </ns3:TrackPointExtension>
        </extensions>
      </trkpt>
      <trkpt lat="47.53545085899531841278076171875" lon="11.00362124852836132049560546875">
        <ele>1773.199951171875</ele>
        <time>2026-09-01T07:56:05.000Z</time>
        <extensions>
          <ns3:TrackPointExtension>
            <ns3:hr>128</ns3:hr>
            <ns3:cad>0</ns3:cad>
          </ns3:TrackPointExtension>
        </extensions>
      </trkpt>
      <trkpt lat="47.535430826246738433837890625" lon="11.00361823104321956634521484375">
        <ele>1772.4000244140625</ele>
        <time>2026-09-01T07:56:06.000Z</time>
        <extensions>
          <ns3:TrackPointExtension>
            <ns3:hr>128</ns3:hr>
            <ns3:cad>0</ns3:cad>
          </ns3:TrackPointExtension>
        </extensions>
      </trkpt>
      <trkpt lat="47.53543023951351642608642578125" lon="11.00361756049096584320068359375">
        <ele>1771.5999755859375</ele>
        <time>2026-09-01T07:56:07.000Z</time>
        <extensions>
          <ns3:TrackPointExtension>
            <ns3:hr>129</ns3:hr>
            <ns3:cad>0</ns3:cad>
          </ns3:TrackPointExtension>
        </extensions>
      </trkpt>
      <trkpt lat="47.535414732992649078369140625" lon="11.00360632874071598052978515625">
        <ele>1771</ele>
        <time>2026-09-01T07:56:08.000Z</time>
        <extensions>
          <ns3:TrackPointExtension>
            <ns3:hr>128</ns3:hr>
            <ns3:cad>0</ns3:cad>
          </ns3:TrackPointExtension>
        </extensions>
      </trkpt>
      <trkpt lat="47.535389252007007598876953125" lon="11.00362543947994709014892578125">
        <ele>1770.5999755859375</ele>
        <time>2026-09-01T07:56:09.000Z</time>
        <extensions>
          <ns3:TrackPointExtension>
            <ns3:hr>128</ns3:hr>
            <ns3:cad>0</ns3:cad>
          </ns3:TrackPointExtension>
        </extensions>
      </trkpt>
      <trkpt lat="47.5353780202567577362060546875" lon="11.00362560711801052093505859375">
        <ele>1770</ele>
        <time>2026-09-01T07:56:10.000Z</time>
        <extensions>
          <ns3:TrackPointExtension>
            <ns3:hr>128</ns3:hr>
            <ns3:cad>0</ns3:cad>
          </ns3:TrackPointExtension>
        </extensions>
      </trkpt>
      <trkpt lat="47.53536452539265155792236328125" lon="11.00363130681216716766357421875">
        <ele>1769.199951171875</ele>
        <time>2026-09-01T07:56:11.000Z</time>
        <extensions>
          <ns3:TrackPointExtension>
            <ns3:hr>128</ns3:hr>
            <ns3:cad>0</ns3:cad>
          </ns3:TrackPointExtension>
        </extensions>
      </trkpt>
      <trkpt lat="47.53534264862537384033203125" lon="11.0036295466125011444091796875">
        <ele>1768.5999755859375</ele>
        <time>2026-09-01T07:56:12.000Z</time>
        <extensions>
          <ns3:TrackPointExtension>
            <ns3:hr>128</ns3:hr>
            <ns3:cad>0</ns3:cad>
          </ns3:TrackPointExtension>
        </extensions>
      </trkpt>
      <trkpt lat="47.5353173352777957916259765625" lon="11.003627367317676544189453125">
        <ele>1767.5999755859375</ele>
        <time>2026-09-01T07:56:13.000Z</time>
        <extensions>
          <ns3:TrackPointExtension>
            <ns3:hr>128</ns3:hr>
            <ns3:cad>0</ns3:cad>
          </ns3:TrackPointExtension>
        </extensions>
      </trkpt>
      <trkpt lat="47.53529126755893230438232421875" lon="11.00363784469664096832275390625">
        <ele>1766.800048828125</ele>
        <time>2026-09-01T07:56:14.000Z</time>
        <extensions>
          <ns3:TrackPointExtension>
            <ns3:hr>128</ns3:hr>
            <ns3:cad>44</ns3:cad>
          </ns3:TrackPointExtension>
        </extensions>
      </trkpt>
      <trkpt lat="47.53526930697262287139892578125" lon="11.00363784469664096832275390625">
        <ele>1765.800048828125</ele>
        <time>2026-09-01T07:56:15.000Z</time>
        <extensions>
          <ns3:TrackPointExtension>
            <ns3:hr>128</ns3:hr>
            <ns3:cad>44</ns3:cad>
          </ns3:TrackPointExtension>
        </extensions>
      </trkpt>
      <trkpt lat="47.53525656647980213165283203125" lon="11.00363750942051410675048828125">
        <ele>1765.4000244140625</ele>
        <time>2026-09-01T07:56:16.000Z</time>
        <extensions>
          <ns3:TrackPointExtension>
            <ns3:hr>129</ns3:hr>
            <ns3:cad>44</ns3:cad>
          </ns3:TrackPointExtension>
        </extensions>
      </trkpt>
      <trkpt lat="47.5352432392537593841552734375" lon="11.0036389343440532684326171875">
        <ele>1764.5999755859375</ele>
        <time>2026-09-01T07:56:17.000Z</time>
        <extensions>
          <ns3:TrackPointExtension>
            <ns3:hr>129</ns3:hr>
            <ns3:cad>44</ns3:cad>
          </ns3:TrackPointExtension>
        </extensions>
      </trkpt>
      <trkpt lat="47.53523401916027069091796875" lon="11.00364069454371929168701171875">
        <ele>1764</ele>
        <time>2026-09-01T07:56:18.000Z</time>
        <extensions>
          <ns3:TrackPointExtension>
            <ns3:hr>130</ns3:hr>
            <ns3:cad>85</ns3:cad>
          </ns3:TrackPointExtension>
        </extensions>
      </trkpt>
      <trkpt lat="47.5352224521338939666748046875" lon="11.00359476171433925628662109375">
        <ele>1763.4000244140625</ele>
        <time>2026-09-01T07:56:19.000Z</time>
        <extensions>
          <ns3:TrackPointExtension>
            <ns3:hr>131</ns3:hr>
            <ns3:cad>85</ns3:cad>
          </ns3:TrackPointExtension>
        </extensions>
      </trkpt>
      <trkpt lat="47.535199820995330810546875" lon="11.003579087555408477783203125">
        <ele>1762.5999755859375</ele>
        <time>2026-09-01T07:56:20.000Z</time>
        <extensions>
          <ns3:TrackPointExtension>
            <ns3:hr>132</ns3:hr>
            <ns3:cad>85</ns3:cad>
          </ns3:TrackPointExtension>
        </extensions>
      </trkpt>
      <trkpt lat="47.535173334181308746337890625" lon="11.00356525741517543792724609375">
        <ele>1762</ele>
        <time>2026-09-01T07:56:21.000Z</time>
        <extensions>
          <ns3:TrackPointExtension>
            <ns3:hr>133</ns3:hr>
            <ns3:cad>85</ns3:cad>
          </ns3:TrackPointExtension>
        </extensions>
      </trkpt>
      <trkpt lat="47.53515346907079219818115234375" lon="11.00356760434806346893310546875">
        <ele>1761</ele>
        <time>2026-09-01T07:56:22.000Z</time>
        <extensions>
          <ns3:TrackPointExtension>
            <ns3:hr>134</ns3:hr>
            <ns3:cad>85</ns3:cad>
          </ns3:TrackPointExtension>
        </extensions>
      </trkpt>
      <trkpt lat="47.53512832336127758026123046875" lon="11.00356467068195343017578125">
        <ele>1760.199951171875</ele>
        <time>2026-09-01T07:56:23.000Z</time>
        <extensions>
          <ns3:TrackPointExtension>
            <ns3:hr>134</ns3:hr>
            <ns3:cad>85</ns3:cad>
          </ns3:TrackPointExtension>
        </extensions>
      </trkpt>
      <trkpt lat="47.53511072136461734771728515625" lon="11.00355737842619419097900390625">
        <ele>1759.4000244140625</ele>
        <time>2026-09-01T07:56:24.000Z</time>
        <extensions>
          <ns3:TrackPointExtension>
            <ns3:hr>134</ns3:hr>
            <ns3:cad>85</ns3:cad>
          </ns3:TrackPointExtension>
        </extensions>
      </trkpt>
      <trkpt lat="47.53508917987346649169921875" lon="11.0035520978271961212158203125">
        <ele>1759</ele>
        <time>2026-09-01T07:56:25.000Z</time>
        <extensions>
          <ns3:TrackPointExtension>
            <ns3:hr>135</ns3:hr>
            <ns3:cad>0</ns3:cad>
          </ns3:TrackPointExtension>
        </extensions>
      </trkpt>
      <trkpt lat="47.53505758009850978851318359375" lon="11.00354044698178768157958984375">
        <ele>1758.199951171875</ele>
        <time>2026-09-01T07:56:26.000Z</time>
        <extensions>
          <ns3:TrackPointExtension>
            <ns3:hr>135</ns3:hr>
            <ns3:cad>0</ns3:cad>
          </ns3:TrackPointExtension>
        </extensions>
      </trkpt>
      <trkpt lat="47.53502924926578998565673828125" lon="11.003532819449901580810546875">
        <ele>1757.5999755859375</ele>
        <time>2026-09-01T07:56:27.000Z</time>
        <extensions>
          <ns3:TrackPointExtension>
            <ns3:hr>135</ns3:hr>
            <ns3:cad>45</ns3:cad>
          </ns3:TrackPointExtension>
        </extensions>
      </trkpt>
      <trkpt lat="47.534988261759281158447265625" lon="11.0035148821771144866943359375">
        <ele>1757.199951171875</ele>
        <time>2026-09-01T07:56:28.000Z</time>
        <extensions>
          <ns3:TrackPointExtension>
            <ns3:hr>136</ns3:hr>
            <ns3:cad>45</ns3:cad>
          </ns3:TrackPointExtension>
        </extensions>
      </trkpt>
      <trkpt lat="47.53496487624943256378173828125" lon="11.00352443754673004150390625">
        <ele>1756</ele>
        <time>2026-09-01T07:56:29.000Z</time>
        <extensions>
          <ns3:TrackPointExtension>
            <ns3:hr>136</ns3:hr>
            <ns3:cad>45</ns3:cad>
          </ns3:TrackPointExtension>
        </extensions>
      </trkpt>
      <trkpt lat="47.53494157455861568450927734375" lon="11.00353340618312358856201171875">
        <ele>1755.800048828125</ele>
        <time>2026-09-01T07:56:30.000Z</time>
        <extensions>
          <ns3:TrackPointExtension>
            <ns3:hr>137</ns3:hr>
            <ns3:cad>45</ns3:cad>
          </ns3:TrackPointExtension>
        </extensions>
      </trkpt>
      <trkpt lat="47.5349166803061962127685546875" lon="11.0035349987447261810302734375">
        <ele>1755.800048828125</ele>
        <time>2026-09-01T07:56:31.000Z</time>
        <extensions>
          <ns3:TrackPointExtension>
            <ns3:hr>138</ns3:hr>
            <ns3:cad>45</ns3:cad>
          </ns3:TrackPointExtension>
        </extensions>
      </trkpt>
      <trkpt lat="47.53489430062472820281982421875" lon="11.003542877733707427978515625">
        <ele>1755.800048828125</ele>
        <time>2026-09-01T07:56:32.000Z</time>
        <extensions>
          <ns3:TrackPointExtension>
            <ns3:hr>139</ns3:hr>
            <ns3:cad>45</ns3:cad>
          </ns3:TrackPointExtension>
        </extensions>
      </trkpt>
      <trkpt lat="47.534874938428401947021484375" lon="11.00355855189263820648193359375">
        <ele>1756</ele>
        <time>2026-09-01T07:56:33.000Z</time>
        <extensions>
          <ns3:TrackPointExtension>
            <ns3:hr>140</ns3:hr>
            <ns3:cad>45</ns3:cad>
          </ns3:TrackPointExtension>
        </extensions>
      </trkpt>
      <trkpt lat="47.5348573364317417144775390625" lon="11.00357162766158580780029296875">
        <ele>1756</ele>
        <time>2026-09-01T07:56:34.000Z</time>
        <extensions>
          <ns3:TrackPointExtension>
            <ns3:hr>141</ns3:hr>
            <ns3:cad>76</ns3:cad>
          </ns3:TrackPointExtension>
        </extensions>
      </trkpt>
      <trkpt lat="47.534836046397686004638671875" lon="11.003569699823856353759765625">
        <ele>1756</ele>
        <time>2026-09-01T07:56:35.000Z</time>
        <extensions>
          <ns3:TrackPointExtension>
            <ns3:hr>141</ns3:hr>
            <ns3:cad>77</ns3:cad>
          </ns3:TrackPointExtension>
        </extensions>
      </trkpt>
      <trkpt lat="47.53482975997030735015869140625" lon="11.00360146723687648773193359375">
        <ele>1755.5999755859375</ele>
        <time>2026-09-01T07:56:36.000Z</time>
        <extensions>
          <ns3:TrackPointExtension>
            <ns3:hr>141</ns3:hr>
            <ns3:cad>77</ns3:cad>
          </ns3:TrackPointExtension>
        </extensions>
      </trkpt>
      <trkpt lat="47.53481425344944000244140625" lon="11.00362124852836132049560546875">
        <ele>1755.4000244140625</ele>
        <time>2026-09-01T07:56:37.000Z</time>
        <extensions>
          <ns3:TrackPointExtension>
            <ns3:hr>141</ns3:hr>
            <ns3:cad>77</ns3:cad>
          </ns3:TrackPointExtension>
        </extensions>
      </trkpt>
      <trkpt lat="47.5347939692437648773193359375" lon="11.00364069454371929168701171875">
        <ele>1755</ele>
        <time>2026-09-01T07:56:38.000Z</time>
        <extensions>
          <ns3:TrackPointExtension>
            <ns3:hr>141</ns3:hr>
            <ns3:cad>78</ns3:cad>
          </ns3:TrackPointExtension>
        </extensions>
      </trkpt>
      <trkpt lat="47.53477527759969234466552734375" lon="11.0036530159413814544677734375">
        <ele>1754.5999755859375</ele>
        <time>2026-09-01T07:56:39.000Z</time>
        <extensions>
          <ns3:TrackPointExtension>
            <ns3:hr>141</ns3:hr>
            <ns3:cad>78</ns3:cad>
          </ns3:TrackPointExtension>
        </extensions>
      </trkpt>
      <trkpt lat="47.53474183380603790283203125" lon="11.00366466678678989410400390625">
        <ele>1754.199951171875</ele>
        <time>2026-09-01T07:56:40.000Z</time>
        <extensions>
          <ns3:TrackPointExtension>
            <ns3:hr>141</ns3:hr>
            <ns3:cad>78</ns3:cad>
          </ns3:TrackPointExtension>
        </extensions>
      </trkpt>
      <trkpt lat="47.5347145088016986846923828125" lon="11.00366885773837566375732421875">
        <ele>1753.5999755859375</ele>
        <time>2026-09-01T07:56:41.000Z</time>
        <extensions>
          <ns3:TrackPointExtension>
            <ns3:hr>142</ns3:hr>
            <ns3:cad>78</ns3:cad>
          </ns3:TrackPointExtension>
        </extensions>
      </trkpt>
      <trkpt lat="47.53467821516096591949462890625" lon="11.003669612109661102294921875">
        <ele>1752.800048828125</ele>
        <time>2026-09-01T07:56:42.000Z</time>
        <extensions>
          <ns3:TrackPointExtension>
            <ns3:hr>141</ns3:hr>
            <ns3:cad>80</ns3:cad>
          </ns3:TrackPointExtension>
        </extensions>
      </trkpt>
      <trkpt lat="47.534648291766643524169921875" lon="11.00367690436542034149169921875">
        <ele>1752</ele>
        <time>2026-09-01T07:56:43.000Z</time>
        <extensions>
          <ns3:TrackPointExtension>
            <ns3:hr>141</ns3:hr>
            <ns3:cad>80</ns3:cad>
          </ns3:TrackPointExtension>
        </extensions>
      </trkpt>
      <trkpt lat="47.53460981883108615875244140625" lon="11.0036855377256870269775390625">
        <ele>1751.199951171875</ele>
        <time>2026-09-01T07:56:44.000Z</time>
        <extensions>
          <ns3:TrackPointExtension>
            <ns3:hr>141</ns3:hr>
            <ns3:cad>80</ns3:cad>
          </ns3:TrackPointExtension>
        </extensions>
      </trkpt>
      <trkpt lat="47.5345824100077152252197265625" lon="11.00370012223720550537109375">
        <ele>1750.4000244140625</ele>
        <time>2026-09-01T07:56:45.000Z</time>
        <extensions>
          <ns3:TrackPointExtension>
            <ns3:hr>142</ns3:hr>
            <ns3:cad>80</ns3:cad>
          </ns3:TrackPointExtension>
        </extensions>
      </trkpt>
      <trkpt lat="47.534546367824077606201171875" lon="11.00371512584388256072998046875">
        <ele>1749.5999755859375</ele>
        <time>2026-09-01T07:56:46.000Z</time>
        <extensions>
          <ns3:TrackPointExtension>
            <ns3:hr>142</ns3:hr>
            <ns3:cad>80</ns3:cad>
          </ns3:TrackPointExtension>
        </extensions>
      </trkpt>
      <trkpt lat="47.53451795317232608795166015625" lon="11.00372233428061008453369140625">
        <ele>1748.800048828125</ele>
        <time>2026-09-01T07:56:47.000Z</time>
        <extensions>
          <ns3:TrackPointExtension>
            <ns3:hr>142</ns3:hr>
            <ns3:cad>80</ns3:cad>
          </ns3:TrackPointExtension>
        </extensions>
      </trkpt>
      <trkpt lat="47.53448710776865482330322265625" lon="11.00373004563152790069580078125">
        <ele>1748.199951171875</ele>
        <time>2026-09-01T07:56:48.000Z</time>
        <extensions>
          <ns3:TrackPointExtension>
            <ns3:hr>143</ns3:hr>
            <ns3:cad>80</ns3:cad>
          </ns3:TrackPointExtension>
        </extensions>
      </trkpt>
      <trkpt lat="47.53445156849920749664306640625" lon="11.0037287883460521697998046875">
        <ele>1747.5999755859375</ele>
        <time>2026-09-01T07:56:49.000Z</time>
        <extensions>
          <ns3:TrackPointExtension>
            <ns3:hr>141</ns3:hr>
            <ns3:cad>80</ns3:cad>
          </ns3:TrackPointExtension>
        </extensions>
      </trkpt>
      <trkpt lat="47.53441619686782360076904296875" lon="11.00373021326959133148193359375">
        <ele>1746.800048828125</ele>
        <time>2026-09-01T07:56:50.000Z</time>
        <extensions>
          <ns3:TrackPointExtension>
            <ns3:hr>140</ns3:hr>
            <ns3:cad>80</ns3:cad>
          </ns3:TrackPointExtension>
        </extensions>
      </trkpt>
      <trkpt lat="47.534383423626422882080078125" lon="11.00373172201216220855712890625">
        <ele>1746.5999755859375</ele>
        <time>2026-09-01T07:56:51.000Z</time>
        <extensions>
          <ns3:TrackPointExtension>
            <ns3:hr>139</ns3:hr>
            <ns3:cad>80</ns3:cad>
          </ns3:TrackPointExtension>
        </extensions>
      </trkpt>
      <trkpt lat="47.53435232676565647125244140625" lon="11.00374496541917324066162109375">
        <ele>1745.800048828125</ele>
        <time>2026-09-01T07:56:52.000Z</time>
        <extensions>
          <ns3:TrackPointExtension>
            <ns3:hr>139</ns3:hr>
            <ns3:cad>80</ns3:cad>
          </ns3:TrackPointExtension>
        </extensions>
      </trkpt>
      <trkpt lat="47.53432014025747776031494140625" lon="11.0037772357463836669921875">
        <ele>1745.4000244140625</ele>
        <time>2026-09-01T07:56:53.000Z</time>
        <extensions>
          <ns3:TrackPointExtension>
            <ns3:hr>138</ns3:hr>
            <ns3:cad>80</ns3:cad>
          </ns3:TrackPointExtension>
        </extensions>
      </trkpt>
      <trkpt lat="47.5342892110347747802734375" lon="11.00379475392401218414306640625">
        <ele>1744.800048828125</ele>
        <time>2026-09-01T07:56:54.000Z</time>
        <extensions>
          <ns3:TrackPointExtension>
            <ns3:hr>137</ns3:hr>
            <ns3:cad>80</ns3:cad>
          </ns3:TrackPointExtension>
        </extensions>
      </trkpt>
      <trkpt lat="47.534259371459484100341796875" lon="11.0038136132061481475830078125">
        <ele>1744.199951171875</ele>
        <time>2026-09-01T07:56:55.000Z</time>
        <extensions>
          <ns3:TrackPointExtension>
            <ns3:hr>137</ns3:hr>
            <ns3:cad>80</ns3:cad>
          </ns3:TrackPointExtension>
        </extensions>
      </trkpt>
      <trkpt lat="47.5342387519776821136474609375" lon="11.003841944038867950439453125">
        <ele>1744</ele>
        <time>2026-09-01T07:56:56.000Z</time>
        <extensions>
          <ns3:TrackPointExtension>
            <ns3:hr>138</ns3:hr>
            <ns3:cad>87</ns3:cad>
          </ns3:TrackPointExtension>
        </extensions>
      </trkpt>
      <trkpt lat="47.53421687521040439605712890625" lon="11.0038603842258453369140625">
        <ele>1743.4000244140625</ele>
        <time>2026-09-01T07:56:57.000Z</time>
        <extensions>
          <ns3:TrackPointExtension>
            <ns3:hr>139</ns3:hr>
            <ns3:cad>89</ns3:cad>
          </ns3:TrackPointExtension>
        </extensions>
      </trkpt>
      <trkpt lat="47.53419944085180759429931640625" lon="11.00387924350798130035400390625">
        <ele>1743</ele>
        <time>2026-09-01T07:56:58.000Z</time>
        <extensions>
          <ns3:TrackPointExtension>
            <ns3:hr>139</ns3:hr>
            <ns3:cad>89</ns3:cad>
          </ns3:TrackPointExtension>
        </extensions>
      </trkpt>
      <trkpt lat="47.53419105894863605499267578125" lon="11.003907658159732818603515625">
        <ele>1742.5999755859375</ele>
        <time>2026-09-01T07:56:59.000Z</time>
        <extensions>
          <ns3:TrackPointExtension>
            <ns3:hr>140</ns3:hr>
            <ns3:cad>89</ns3:cad>
          </ns3:TrackPointExtension>
        </extensions>
      </trkpt>
      <trkpt lat="47.53417530097067356109619140625" lon="11.0039299540221691131591796875">
        <ele>1741.800048828125</ele>
        <time>2026-09-01T07:57:00.000Z</time>
        <extensions>
          <ns3:TrackPointExtension>
            <ns3:hr>141</ns3:hr>
            <ns3:cad>89</ns3:cad>
          </ns3:TrackPointExtension>
        </extensions>
      </trkpt>
      <trkpt lat="47.534158118069171905517578125" lon="11.00395417772233486175537109375">
        <ele>1741</ele>
        <time>2026-09-01T07:57:01.000Z</time>
        <extensions>
          <ns3:TrackPointExtension>
            <ns3:hr>141</ns3:hr>
            <ns3:cad>89</ns3:cad>
          </ns3:TrackPointExtension>
        </extensions>
      </trkpt>
      <trkpt lat="47.53413967788219451904296875" lon="11.00397429428994655609130859375">
        <ele>1740.4000244140625</ele>
        <time>2026-09-01T07:57:02.000Z</time>
        <extensions>
          <ns3:TrackPointExtension>
            <ns3:hr>141</ns3:hr>
            <ns3:cad>89</ns3:cad>
          </ns3:TrackPointExtension>
        </extensions>
      </trkpt>
      <trkpt lat="47.53412014804780483245849609375" lon="11.0039886273443698883056640625">
        <ele>1739.5999755859375</ele>
        <time>2026-09-01T07:57:03.000Z</time>
        <extensions>
          <ns3:TrackPointExtension>
            <ns3:hr>142</ns3:hr>
            <ns3:cad>89</ns3:cad>
          </ns3:TrackPointExtension>
        </extensions>
      </trkpt>
      <trkpt lat="47.5341079942882061004638671875" lon="11.00400212220847606658935546875">
        <ele>1738.800048828125</ele>
        <time>2026-09-01T07:57:04.000Z</time>
        <extensions>
          <ns3:TrackPointExtension>
            <ns3:hr>142</ns3:hr>
            <ns3:cad>89</ns3:cad>
          </ns3:TrackPointExtension>
        </extensions>
      </trkpt>
      <trkpt lat="47.53409114666283130645751953125" lon="11.00402592681348323822021484375">
        <ele>1738</ele>
        <time>2026-09-01T07:57:05.000Z</time>
        <extensions>
          <ns3:TrackPointExtension>
            <ns3:hr>142</ns3:hr>
            <ns3:cad>89</ns3:cad>
          </ns3:TrackPointExtension>
        </extensions>
      </trkpt>
      <trkpt lat="47.53407304175198078155517578125" lon="11.0040536709129810333251953125">
        <ele>1737.4000244140625</ele>
        <time>2026-09-01T07:57:06.000Z</time>
        <extensions>
          <ns3:TrackPointExtension>
            <ns3:hr>143</ns3:hr>
            <ns3:cad>89</ns3:cad>
          </ns3:TrackPointExtension>
        </extensions>
      </trkpt>
      <trkpt lat="47.53404789604246616363525390625" lon="11.004071943461894989013671875">
        <ele>1736.5999755859375</ele>
        <time>2026-09-01T07:57:07.000Z</time>
        <extensions>
          <ns3:TrackPointExtension>
            <ns3:hr>144</ns3:hr>
            <ns3:cad>89</ns3:cad>
          </ns3:TrackPointExtension>
        </extensions>
      </trkpt>
      <trkpt lat="47.53403113223612308502197265625" lon="11.00410153158009052276611328125">
        <ele>1735.5999755859375</ele>
        <time>2026-09-01T07:57:08.000Z</time>
        <extensions>
          <ns3:TrackPointExtension>
            <ns3:hr>146</ns3:hr>
            <ns3:cad>86</ns3:cad>
          </ns3:TrackPointExtension>
        </extensions>
      </trkpt>
      <trkpt lat="47.534008584916591644287109375" lon="11.004124581813812255859375">
        <ele>1734.800048828125</ele>
        <time>2026-09-01T07:57:09.000Z</time>
        <extensions>
          <ns3:TrackPointExtension>
            <ns3:hr>149</ns3:hr>
            <ns3:cad>86</ns3:cad>
          </ns3:TrackPointExtension>
        </extensions>
      </trkpt>
      <trkpt lat="47.533987462520599365234375" lon="11.00414897315204143524169921875">
        <ele>1734</ele>
        <time>2026-09-01T07:57:10.000Z</time>
        <extensions>
          <ns3:TrackPointExtension>
            <ns3:hr>151</ns3:hr>
            <ns3:cad>86</ns3:cad>
          </ns3:TrackPointExtension>
        </extensions>
      </trkpt>
      <trkpt lat="47.5339566171169281005859375" lon="11.00416942499577999114990234375">
        <ele>1733.199951171875</ele>
        <time>2026-09-01T07:57:11.000Z</time>
        <extensions>
          <ns3:TrackPointExtension>
            <ns3:hr>152</ns3:hr>
            <ns3:cad>86</ns3:cad>
          </ns3:TrackPointExtension>
        </extensions>
      </trkpt>
      <trkpt lat="47.5339403562247753143310546875" lon="11.00417059846222400665283203125">
        <ele>1732.4000244140625</ele>
        <time>2026-09-01T07:57:12.000Z</time>
        <extensions>
          <ns3:TrackPointExtension>
            <ns3:hr>153</ns3:hr>
            <ns3:cad>86</ns3:cad>
          </ns3:TrackPointExtension>
        </extensions>
      </trkpt>
      <trkpt lat="47.53391864709556102752685546875" lon="11.00418199785053730010986328125">
        <ele>1731.5999755859375</ele>
        <time>2026-09-01T07:57:13.000Z</time>
        <extensions>
          <ns3:TrackPointExtension>
            <ns3:hr>153</ns3:hr>
            <ns3:cad>86</ns3:cad>
          </ns3:TrackPointExtension>
        </extensions>
      </trkpt>
      <trkpt lat="47.53389802761375904083251953125" lon="11.0041824169456958770751953125">
        <ele>1731</ele>
        <time>2026-09-01T07:57:14.000Z</time>
        <extensions>
          <ns3:TrackPointExtension>
            <ns3:hr>153</ns3:hr>
            <ns3:cad>86</ns3:cad>
          </ns3:TrackPointExtension>
        </extensions>
      </trkpt>
      <trkpt lat="47.53387757577002048492431640625" lon="11.00417093373835086822509765625">
        <ele>1729.800048828125</ele>
        <time>2026-09-01T07:57:15.000Z</time>
        <extensions>
          <ns3:TrackPointExtension>
            <ns3:hr>153</ns3:hr>
            <ns3:cad>88</ns3:cad>
          </ns3:TrackPointExtension>
        </extensions>
      </trkpt>
      <trkpt lat="47.5338582135736942291259765625" lon="11.00416481494903564453125">
        <ele>1729.199951171875</ele>
        <time>2026-09-01T07:57:16.000Z</time>
        <extensions>
          <ns3:TrackPointExtension>
            <ns3:hr>154</ns3:hr>
            <ns3:cad>89</ns3:cad>
          </ns3:TrackPointExtension>
        </extensions>
      </trkpt>
      <trkpt lat="47.53384036011993885040283203125" lon="11.0041701793670654296875">
        <ele>1728.5999755859375</ele>
        <time>2026-09-01T07:57:17.000Z</time>
        <extensions>
          <ns3:TrackPointExtension>
            <ns3:hr>154</ns3:hr>
            <ns3:cad>89</ns3:cad>
          </ns3:TrackPointExtension>
        </extensions>
      </trkpt>
      <trkpt lat="47.5338136218488216400146484375" lon="11.004169173538684844970703125">
        <ele>1728</ele>
        <time>2026-09-01T07:57:18.000Z</time>
        <extensions>
          <ns3:TrackPointExtension>
            <ns3:hr>154</ns3:hr>
            <ns3:cad>89</ns3:cad>
          </ns3:TrackPointExtension>
        </extensions>
      </trkpt>
      <trkpt lat="47.53379660658538341522216796875" lon="11.0041656531393527984619140625">
        <ele>1727.5999755859375</ele>
        <time>2026-09-01T07:57:19.000Z</time>
        <extensions>
          <ns3:TrackPointExtension>
            <ns3:hr>154</ns3:hr>
            <ns3:cad>44</ns3:cad>
          </ns3:TrackPointExtension>
        </extensions>
      </trkpt>
      <trkpt lat="47.53378218971192836761474609375" lon="11.00416942499577999114990234375">
        <ele>1727.199951171875</ele>
        <time>2026-09-01T07:57:20.000Z</time>
        <extensions>
          <ns3:TrackPointExtension>
            <ns3:hr>153</ns3:hr>
            <ns3:cad>44</ns3:cad>
          </ns3:TrackPointExtension>
        </extensions>
      </trkpt>
      <trkpt lat="47.53376341424882411956787109375" lon="11.004175208508968353271484375">
        <ele>1726.4000244140625</ele>
        <time>2026-09-01T07:57:21.000Z</time>
        <extensions>
          <ns3:TrackPointExtension>
            <ns3:hr>154</ns3:hr>
            <ns3:cad>44</ns3:cad>
          </ns3:TrackPointExtension>
        </extensions>
      </trkpt>
      <trkpt lat="47.5337458960711956024169921875" lon="11.0041532479226589202880859375">
        <ele>1725.5999755859375</ele>
        <time>2026-09-01T07:57:22.000Z</time>
        <extensions>
          <ns3:TrackPointExtension>
            <ns3:hr>154</ns3:hr>
            <ns3:cad>44</ns3:cad>
          </ns3:TrackPointExtension>
        </extensions>
      </trkpt>
      <trkpt lat="47.53371831960976123809814453125" lon="11.00415064953267574310302734375">
        <ele>1724.800048828125</ele>
        <time>2026-09-01T07:57:23.000Z</time>
        <extensions>
          <ns3:TrackPointExtension>
            <ns3:hr>154</ns3:hr>
            <ns3:cad>44</ns3:cad>
          </ns3:TrackPointExtension>
        </extensions>
      </trkpt>
      <trkpt lat="47.53369979560375213623046875" lon="11.0041582770645618438720703125">
        <ele>1724.199951171875</ele>
        <time>2026-09-01T07:57:24.000Z</time>
        <extensions>
          <ns3:TrackPointExtension>
            <ns3:hr>155</ns3:hr>
            <ns3:cad>44</ns3:cad>
          </ns3:TrackPointExtension>
        </extensions>
      </trkpt>
      <trkpt lat="47.53369040787220001220703125" lon="11.00415819324553012847900390625">
        <ele>1724</ele>
        <time>2026-09-01T07:57:25.000Z</time>
        <extensions>
          <ns3:TrackPointExtension>
            <ns3:hr>155</ns3:hr>
            <ns3:cad>44</ns3:cad>
          </ns3:TrackPointExtension>
        </extensions>
      </trkpt>
      <trkpt lat="47.53366551361978054046630859375" lon="11.00417084991931915283203125">
        <ele>1723.4000244140625</ele>
        <time>2026-09-01T07:57:26.000Z</time>
        <extensions>
          <ns3:TrackPointExtension>
            <ns3:hr>155</ns3:hr>
            <ns3:cad>44</ns3:cad>
          </ns3:TrackPointExtension>
        </extensions>
      </trkpt>
      <trkpt lat="47.53364992327988147735595703125" lon="11.004172861576080322265625">
        <ele>1723.199951171875</ele>
        <time>2026-09-01T07:57:27.000Z</time>
        <extensions>
          <ns3:TrackPointExtension>
            <ns3:hr>154</ns3:hr>
            <ns3:cad>80</ns3:cad>
          </ns3:TrackPointExtension>
        </extensions>
      </trkpt>
      <trkpt lat="47.5336292199790477752685546875" lon="11.0041606239974498748779296875">
        <ele>1722.5999755859375</ele>
        <time>2026-09-01T07:57:28.000Z</time>
        <extensions>
          <ns3:TrackPointExtension>
            <ns3:hr>154</ns3:hr>
            <ns3:cad>82</ns3:cad>
          </ns3:TrackPointExtension>
        </extensions>
      </trkpt>
      <trkpt lat="47.53360700793564319610595703125" lon="11.00416816771030426025390625">
        <ele>1722.199951171875</ele>
        <time>2026-09-01T07:57:29.000Z</time>
        <extensions>
          <ns3:TrackPointExtension>
            <ns3:hr>153</ns3:hr>
            <ns3:cad>82</ns3:cad>
          </ns3:TrackPointExtension>
        </extensions>
      </trkpt>
      <trkpt lat="47.5335920043289661407470703125" lon="11.00419591180980205535888671875">
        <ele>1721.800048828125</ele>
        <time>2026-09-01T07:57:30.000Z</time>
        <extensions>
          <ns3:TrackPointExtension>
            <ns3:hr>152</ns3:hr>
            <ns3:cad>82</ns3:cad>
          </ns3:TrackPointExtension>
        </extensions>
      </trkpt>
      <trkpt lat="47.5335718877613544464111328125" lon="11.0042042098939418792724609375">
        <ele>1721.5999755859375</ele>
        <time>2026-09-01T07:57:31.000Z</time>
        <extensions>
          <ns3:TrackPointExtension>
            <ns3:hr>152</ns3:hr>
            <ns3:cad>82</ns3:cad>
          </ns3:TrackPointExtension>
        </extensions>
      </trkpt>
      <trkpt lat="47.5335537828505039215087890625" lon="11.00420915521681308746337890625">
        <ele>1721.199951171875</ele>
        <time>2026-09-01T07:57:32.000Z</time>
        <extensions>
          <ns3:TrackPointExtension>
            <ns3:hr>151</ns3:hr>
            <ns3:cad>82</ns3:cad>
          </ns3:TrackPointExtension>
        </extensions>
      </trkpt>
      <trkpt lat="47.53352788276970386505126953125" lon="11.0041928105056285858154296875">
        <ele>1721.4000244140625</ele>
        <time>2026-09-01T07:57:33.000Z</time>
        <extensions>
          <ns3:TrackPointExtension>
            <ns3:hr>150</ns3:hr>
            <ns3:cad>82</ns3:cad>
          </ns3:TrackPointExtension>
        </extensions>
      </trkpt>
      <trkpt lat="47.5335081852972507476806640625" lon="11.0041854344308376312255859375">
        <ele>1721.800048828125</ele>
        <time>2026-09-01T07:57:34.000Z</time>
        <extensions>
          <ns3:TrackPointExtension>
            <ns3:hr>150</ns3:hr>
            <ns3:cad>76</ns3:cad>
          </ns3:TrackPointExtension>
        </extensions>
      </trkpt>
      <trkpt lat="47.53348412923514842987060546875" lon="11.0041768848896026611328125">
        <ele>1722</ele>
        <time>2026-09-01T07:57:35.000Z</time>
        <extensions>
          <ns3:TrackPointExtension>
            <ns3:hr>149</ns3:hr>
            <ns3:cad>76</ns3:cad>
          </ns3:TrackPointExtension>
        </extensions>
      </trkpt>
      <trkpt lat="47.53346987999975681304931640625" lon="11.00418350659310817718505859375">
        <ele>1722.5999755859375</ele>
        <time>2026-09-01T07:57:36.000Z</time>
        <extensions>
          <ns3:TrackPointExtension>
            <ns3:hr>148</ns3:hr>
            <ns3:cad>76</ns3:cad>
          </ns3:TrackPointExtension>
        </extensions>
      </trkpt>
      <trkpt lat="47.5334548763930797576904296875" lon="11.0042058862745761871337890625">
        <ele>1723.4000244140625</ele>
        <time>2026-09-01T07:57:37.000Z</time>
        <extensions>
          <ns3:TrackPointExtension>
            <ns3:hr>148</ns3:hr>
            <ns3:cad>76</ns3:cad>
          </ns3:TrackPointExtension>
        </extensions>
      </trkpt>
      <trkpt lat="47.53344506956636905670166015625" lon="11.0042144358158111572265625">
        <ele>1724</ele>
        <time>2026-09-01T07:57:38.000Z</time>
        <extensions>
          <ns3:TrackPointExtension>
            <ns3:hr>148</ns3:hr>
            <ns3:cad>75</ns3:cad>
          </ns3:TrackPointExtension>
        </extensions>
      </trkpt>
      <trkpt lat="47.53343584947288036346435546875" lon="11.00422206334769725799560546875">
        <ele>1724.199951171875</ele>
        <time>2026-09-01T07:57:39.000Z</time>
        <extensions>
          <ns3:TrackPointExtension>
            <ns3:hr>148</ns3:hr>
            <ns3:cad>75</ns3:cad>
          </ns3:TrackPointExtension>
        </extensions>
      </trkpt>
      <trkpt lat="47.53342151641845703125" lon="11.00420303642749786376953125">
        <ele>1724.199951171875</ele>
        <time>2026-09-01T07:57:40.000Z</time>
        <extensions>
          <ns3:TrackPointExtension>
            <ns3:hr>147</ns3:hr>
            <ns3:cad>75</ns3:cad>
          </ns3:TrackPointExtension>
        </extensions>
      </trkpt>
      <trkpt lat="47.5334072671830654144287109375" lon="11.004185266792774200439453125">
        <ele>1724.199951171875</ele>
        <time>2026-09-01T07:57:41.000Z</time>
        <extensions>
          <ns3:TrackPointExtension>
            <ns3:hr>147</ns3:hr>
            <ns3:cad>75</ns3:cad>
          </ns3:TrackPointExtension>
        </extensions>
      </trkpt>
      <trkpt lat="47.5333933532238006591796875" lon="11.00416406057775020599365234375">
        <ele>1724.199951171875</ele>
        <time>2026-09-01T07:57:42.000Z</time>
        <extensions>
          <ns3:TrackPointExtension>
            <ns3:hr>147</ns3:hr>
            <ns3:cad>75</ns3:cad>
          </ns3:TrackPointExtension>
        </extensions>
      </trkpt>
      <trkpt lat="47.53338388167321681976318359375" lon="11.00415618158876895904541015625">
        <ele>1724.199951171875</ele>
        <time>2026-09-01T07:57:43.000Z</time>
        <extensions>
          <ns3:TrackPointExtension>
            <ns3:hr>147</ns3:hr>
            <ns3:cad>73</ns3:cad>
          </ns3:TrackPointExtension>
        </extensions>
      </trkpt>
      <trkpt lat="47.5333807803690433502197265625" lon="11.0041378252208232879638671875">
        <ele>1724.4000244140625</ele>
        <time>2026-09-01T07:57:44.000Z</time>
        <extensions>
          <ns3:TrackPointExtension>
            <ns3:hr>146</ns3:hr>
            <ns3:cad>73</ns3:cad>
          </ns3:TrackPointExtension>
        </extensions>
      </trkpt>
      <trkpt lat="47.53337524831295013427734375" lon="11.00411988794803619384765625">
        <ele>1724.5999755859375</ele>
        <time>2026-09-01T07:57:45.000Z</time>
        <extensions>
          <ns3:TrackPointExtension>
            <ns3:hr>146</ns3:hr>
            <ns3:cad>73</ns3:cad>
          </ns3:TrackPointExtension>
        </extensions>
      </trkpt>
      <trkpt lat="47.533370219171047210693359375" lon="11.00410957820713520050048828125">
        <ele>1725.199951171875</ele>
        <time>2026-09-01T07:57:46.000Z</time>
        <extensions>
          <ns3:TrackPointExtension>
            <ns3:hr>146</ns3:hr>
            <ns3:cad>73</ns3:cad>
          </ns3:TrackPointExtension>
        </extensions>
      </trkpt>
      <trkpt lat="47.53336049616336822509765625" lon="11.00410136394202709197998046875">
        <ele>1725.800048828125</ele>
        <time>2026-09-01T07:57:47.000Z</time>
        <extensions>
          <ns3:TrackPointExtension>
            <ns3:hr>145</ns3:hr>
            <ns3:cad>70</ns3:cad>
          </ns3:TrackPointExtension>
        </extensions>
      </trkpt>
      <trkpt lat="47.533359490334987640380859375" lon="11.00408376194536685943603515625">
        <ele>1726.199951171875</ele>
        <time>2026-09-01T07:57:48.000Z</time>
        <extensions>
          <ns3:TrackPointExtension>
            <ns3:hr>144</ns3:hr>
            <ns3:cad>70</ns3:cad>
          </ns3:TrackPointExtension>
        </extensions>
      </trkpt>
      <trkpt lat="47.533358149230480194091796875" lon="11.00407118909060955047607421875">
        <ele>1726.4000244140625</ele>
        <time>2026-09-01T07:57:49.000Z</time>
        <extensions>
          <ns3:TrackPointExtension>
            <ns3:hr>143</ns3:hr>
            <ns3:cad>70</ns3:cad>
          </ns3:TrackPointExtension>
        </extensions>
      </trkpt>
      <trkpt lat="47.53335655666887760162353515625" lon="11.004053167998790740966796875">
        <ele>1726.4000244140625</ele>
        <time>2026-09-01T07:57:50.000Z</time>
        <extensions>
          <ns3:TrackPointExtension>
            <ns3:hr>142</ns3:hr>
            <ns3:cad>70</ns3:cad>
          </ns3:TrackPointExtension>
        </extensions>
      </trkpt>
      <trkpt lat="47.53335244953632354736328125" lon="11.00402978248894214630126953125">
        <ele>1726.5999755859375</ele>
        <time>2026-09-01T07:57:51.000Z</time>
        <extensions>
          <ns3:TrackPointExtension>
            <ns3:hr>141</ns3:hr>
            <ns3:cad>70</ns3:cad>
          </ns3:TrackPointExtension>
        </extensions>
      </trkpt>
      <trkpt lat="47.533349096775054931640625" lon="11.00400832481682300567626953125">
        <ele>1726.800048828125</ele>
        <time>2026-09-01T07:57:52.000Z</time>
        <extensions>
          <ns3:TrackPointExtension>
            <ns3:hr>142</ns3:hr>
            <ns3:cad>70</ns3:cad>
          </ns3:TrackPointExtension>
        </extensions>
      </trkpt>
      <trkpt lat="47.533343397080898284912109375" lon="11.00399256683886051177978515625">
        <ele>1727</ele>
        <time>2026-09-01T07:57:53.000Z</time>
        <extensions>
          <ns3:TrackPointExtension>
            <ns3:hr>143</ns3:hr>
            <ns3:cad>70</ns3:cad>
          </ns3:TrackPointExtension>
        </extensions>
      </trkpt>
      <trkpt lat="47.53333794884383678436279296875" lon="11.00397747941315174102783203125">
        <ele>1727.199951171875</ele>
        <time>2026-09-01T07:57:54.000Z</time>
        <extensions>
          <ns3:TrackPointExtension>
            <ns3:hr>143</ns3:hr>
            <ns3:cad>0</ns3:cad>
          </ns3:TrackPointExtension>
        </extensions>
      </trkpt>
      <trkpt lat="47.533323280513286590576171875" lon="11.0039631463587284088134765625">
        <ele>1727.4000244140625</ele>
        <time>2026-09-01T07:57:55.000Z</time>
        <extensions>
          <ns3:TrackPointExtension>
            <ns3:hr>144</ns3:hr>
            <ns3:cad>0</ns3:cad>
          </ns3:TrackPointExtension>
        </extensions>
      </trkpt>
      <trkpt lat="47.5333182513713836669921875" lon="11.00394328124821186065673828125">
        <ele>1727.4000244140625</ele>
        <time>2026-09-01T07:57:56.000Z</time>
        <extensions>
          <ns3:TrackPointExtension>
            <ns3:hr>144</ns3:hr>
            <ns3:cad>71</ns3:cad>
          </ns3:TrackPointExtension>
        </extensions>
      </trkpt>
      <trkpt lat="47.53331230022013187408447265625" lon="11.003932468593120574951171875">
        <ele>1727.5999755859375</ele>
        <time>2026-09-01T07:57:57.000Z</time>
        <extensions>
          <ns3:TrackPointExtension>
            <ns3:hr>145</ns3:hr>
            <ns3:cad>71</ns3:cad>
          </ns3:TrackPointExtension>
        </extensions>
      </trkpt>
      <trkpt lat="47.53330140374600887298583984375" lon="11.00392232649028301239013671875">
        <ele>1727.5999755859375</ele>
        <time>2026-09-01T07:57:58.000Z</time>
        <extensions>
          <ns3:TrackPointExtension>
            <ns3:hr>144</ns3:hr>
            <ns3:cad>71</ns3:cad>
          </ns3:TrackPointExtension>
        </extensions>
      </trkpt>
      <trkpt lat="47.533290088176727294921875" lon="11.003910005092620849609375">
        <ele>1727.5999755859375</ele>
        <time>2026-09-01T07:57:59.000Z</time>
        <extensions>
          <ns3:TrackPointExtension>
            <ns3:hr>144</ns3:hr>
            <ns3:cad>71</ns3:cad>
          </ns3:TrackPointExtension>
        </extensions>
      </trkpt>
      <trkpt lat="47.53327667713165283203125" lon="11.003900952637195587158203125">
        <ele>1728</ele>
        <time>2026-09-01T07:58:00.000Z</time>
        <extensions>
          <ns3:TrackPointExtension>
            <ns3:hr>145</ns3:hr>
            <ns3:cad>71</ns3:cad>
          </ns3:TrackPointExtension>
        </extensions>
      </trkpt>
      <trkpt lat="47.53326133824884891510009765625" lon="11.0039014555513858795166015625">
        <ele>1728.199951171875</ele>
        <time>2026-09-01T07:58:01.000Z</time>
        <extensions>
          <ns3:TrackPointExtension>
            <ns3:hr>145</ns3:hr>
            <ns3:cad>71</ns3:cad>
          </ns3:TrackPointExtension>
        </extensions>
      </trkpt>
      <trkpt lat="47.53324625082314014434814453125" lon="11.0038987733423709869384765625">
        <ele>1728.4000244140625</ele>
        <time>2026-09-01T07:58:02.000Z</time>
        <extensions>
          <ns3:TrackPointExtension>
            <ns3:hr>146</ns3:hr>
            <ns3:cad>59</ns3:cad>
          </ns3:TrackPointExtension>
        </extensions>
      </trkpt>
      <trkpt lat="47.5332335941493511199951171875" lon="11.003897599875926971435546875">
        <ele>1728.800048828125</ele>
        <time>2026-09-01T07:58:03.000Z</time>
        <extensions>
          <ns3:TrackPointExtension>
            <ns3:hr>146</ns3:hr>
            <ns3:cad>59</ns3:cad>
          </ns3:TrackPointExtension>
        </extensions>
      </trkpt>
      <trkpt lat="47.53322177566587924957275390625" lon="11.00389600731432437896728515625">
        <ele>1729</ele>
        <time>2026-09-01T07:58:04.000Z</time>
        <extensions>
          <ns3:TrackPointExtension>
            <ns3:hr>147</ns3:hr>
            <ns3:cad>59</ns3:cad>
          </ns3:TrackPointExtension>
        </extensions>
      </trkpt>
      <trkpt lat="47.5332118012011051177978515625" lon="11.00389458239078521728515625">
        <ele>1729.199951171875</ele>
        <time>2026-09-01T07:58:05.000Z</time>
        <extensions>
          <ns3:TrackPointExtension>
            <ns3:hr>148</ns3:hr>
            <ns3:cad>59</ns3:cad>
          </ns3:TrackPointExtension>
        </extensions>
      </trkpt>
      <trkpt lat="47.53320082090795040130615234375" lon="11.0038925707340240478515625">
        <ele>1729.4000244140625</ele>
        <time>2026-09-01T07:58:06.000Z</time>
        <extensions>
          <ns3:TrackPointExtension>
            <ns3:hr>149</ns3:hr>
            <ns3:cad>62</ns3:cad>
          </ns3:TrackPointExtension>
        </extensions>
      </trkpt>
      <trkpt lat="47.53318958915770053863525390625" lon="11.003891564905643463134765625">
        <ele>1729.5999755859375</ele>
        <time>2026-09-01T07:58:07.000Z</time>
        <extensions>
          <ns3:TrackPointExtension>
            <ns3:hr>150</ns3:hr>
            <ns3:cad>62</ns3:cad>
          </ns3:TrackPointExtension>
        </extensions>
      </trkpt>
      <trkpt lat="47.53318070434033870697021484375" lon="11.0038950853049755096435546875">
        <ele>1730</ele>
        <time>2026-09-01T07:58:08.000Z</time>
        <extensions>
          <ns3:TrackPointExtension>
            <ns3:hr>150</ns3:hr>
            <ns3:cad>62</ns3:cad>
          </ns3:TrackPointExtension>
        </extensions>
      </trkpt>
      <trkpt lat="47.53317181952297687530517578125" lon="11.0038981027901172637939453125">
        <ele>1730.4000244140625</ele>
        <time>2026-09-01T07:58:09.000Z</time>
        <extensions>
          <ns3:TrackPointExtension>
            <ns3:hr>151</ns3:hr>
            <ns3:cad>62</ns3:cad>
          </ns3:TrackPointExtension>
        </extensions>
      </trkpt>
      <trkpt lat="47.5331648625433444976806640625" lon="11.0039017908275127410888671875">
        <ele>1730.800048828125</ele>
        <time>2026-09-01T07:58:10.000Z</time>
        <extensions>
          <ns3:TrackPointExtension>
            <ns3:hr>152</ns3:hr>
            <ns3:cad>62</ns3:cad>
          </ns3:TrackPointExtension>
        </extensions>
      </trkpt>
      <trkpt lat="47.53315220586955547332763671875" lon="11.003914363682270050048828125">
        <ele>1731</ele>
        <time>2026-09-01T07:58:11.000Z</time>
        <extensions>
          <ns3:TrackPointExtension>
            <ns3:hr>152</ns3:hr>
            <ns3:cad>62</ns3:cad>
          </ns3:TrackPointExtension>
        </extensions>
      </trkpt>
      <trkpt lat="47.53313493914902210235595703125" lon="11.00392811000347137451171875">
        <ele>1731.199951171875</ele>
        <time>2026-09-01T07:58:12.000Z</time>
        <extensions>
          <ns3:TrackPointExtension>
            <ns3:hr>153</ns3:hr>
            <ns3:cad>58</ns3:cad>
          </ns3:TrackPointExtension>
        </extensions>
      </trkpt>
      <trkpt lat="47.5331211090087890625" lon="11.0039430297911167144775390625">
        <ele>1731.4000244140625</ele>
        <time>2026-09-01T07:58:13.000Z</time>
        <extensions>
          <ns3:TrackPointExtension>
            <ns3:hr>153</ns3:hr>
            <ns3:cad>58</ns3:cad>
          </ns3:TrackPointExtension>
        </extensions>
      </trkpt>
      <trkpt lat="47.53310568630695343017578125" lon="11.00395384244620800018310546875">
        <ele>1731.199951171875</ele>
        <time>2026-09-01T07:58:14.000Z</time>
        <extensions>
          <ns3:TrackPointExtension>
            <ns3:hr>153</ns3:hr>
            <ns3:cad>58</ns3:cad>
          </ns3:TrackPointExtension>
        </extensions>
      </trkpt>
      <trkpt lat="47.5330833904445171356201171875" lon="11.00396758876740932464599609375">
        <ele>1731.199951171875</ele>
        <time>2026-09-01T07:58:15.000Z</time>
        <extensions>
          <ns3:TrackPointExtension>
            <ns3:hr>154</ns3:hr>
            <ns3:cad>58</ns3:cad>
          </ns3:TrackPointExtension>
        </extensions>
      </trkpt>
      <trkpt lat="47.53305933438241481781005859375" lon="11.00398384965956211090087890625">
        <ele>1731.199951171875</ele>
        <time>2026-09-01T07:58:16.000Z</time>
        <extensions>
          <ns3:TrackPointExtension>
            <ns3:hr>154</ns3:hr>
            <ns3:cad>79</ns3:cad>
          </ns3:TrackPointExtension>
        </extensions>
      </trkpt>
      <trkpt lat="47.5330337695777416229248046875" lon="11.0039993561804294586181640625">
        <ele>1731.4000244140625</ele>
        <time>2026-09-01T07:58:17.000Z</time>
        <extensions>
          <ns3:TrackPointExtension>
            <ns3:hr>155</ns3:hr>
            <ns3:cad>79</ns3:cad>
          </ns3:TrackPointExtension>
        </extensions>
      </trkpt>
      <trkpt lat="47.53300669603049755096435546875" lon="11.0040040500462055206298828125">
        <ele>1731.5999755859375</ele>
        <time>2026-09-01T07:58:18.000Z</time>
        <extensions>
          <ns3:TrackPointExtension>
            <ns3:hr>155</ns3:hr>
            <ns3:cad>79</ns3:cad>
          </ns3:TrackPointExtension>
        </extensions>
      </trkpt>
      <trkpt lat="47.53298230469226837158203125" lon="11.00401737727224826812744140625">
        <ele>1732</ele>
        <time>2026-09-01T07:58:19.000Z</time>
        <extensions>
          <ns3:TrackPointExtension>
            <ns3:hr>156</ns3:hr>
            <ns3:cad>78</ns3:cad>
          </ns3:TrackPointExtension>
        </extensions>
      </trkpt>
      <trkpt lat="47.53296579234302043914794921875" lon="11.00403003394603729248046875">
        <ele>1732.4000244140625</ele>
        <time>2026-09-01T07:58:20.000Z</time>
        <extensions>
          <ns3:TrackPointExtension>
            <ns3:hr>157</ns3:hr>
            <ns3:cad>78</ns3:cad>
          </ns3:TrackPointExtension>
        </extensions>
      </trkpt>
      <trkpt lat="47.53295741043984889984130859375" lon="11.0040523298084735870361328125">
        <ele>1732.800048828125</ele>
        <time>2026-09-01T07:58:21.000Z</time>
        <extensions>
          <ns3:TrackPointExtension>
            <ns3:hr>158</ns3:hr>
            <ns3:cad>77</ns3:cad>
          </ns3:TrackPointExtension>
        </extensions>
      </trkpt>
      <trkpt lat="47.53294500522315502166748046875" lon="11.004081666469573974609375">
        <ele>1733</ele>
        <time>2026-09-01T07:58:22.000Z</time>
        <extensions>
          <ns3:TrackPointExtension>
            <ns3:hr>159</ns3:hr>
            <ns3:cad>77</ns3:cad>
          </ns3:TrackPointExtension>
        </extensions>
      </trkpt>
      <trkpt lat="47.53293226473033428192138671875" lon="11.0041133500635623931884765625">
        <ele>1733.199951171875</ele>
        <time>2026-09-01T07:58:23.000Z</time>
        <extensions>
          <ns3:TrackPointExtension>
            <ns3:hr>160</ns3:hr>
            <ns3:cad>77</ns3:cad>
          </ns3:TrackPointExtension>
        </extensions>
      </trkpt>
      <trkpt lat="47.53292488865554332733154296875" lon="11.00413740612566471099853515625">
        <ele>1733.4000244140625</ele>
        <time>2026-09-01T07:58:24.000Z</time>
        <extensions>
          <ns3:TrackPointExtension>
            <ns3:hr>161</ns3:hr>
            <ns3:cad>76</ns3:cad>
          </ns3:TrackPointExtension>
        </extensions>
      </trkpt>
      <trkpt lat="47.53291122615337371826171875" lon="11.0041633062064647674560546875">
        <ele>1733.5999755859375</ele>
        <time>2026-09-01T07:58:25.000Z</time>
        <extensions>
          <ns3:TrackPointExtension>
            <ns3:hr>162</ns3:hr>
            <ns3:cad>76</ns3:cad>
          </ns3:TrackPointExtension>
        </extensions>
      </trkpt>
      <trkpt lat="47.532898485660552978515625" lon="11.0041884519159793853759765625">
        <ele>1733.800048828125</ele>
        <time>2026-09-01T07:58:26.000Z</time>
        <extensions>
          <ns3:TrackPointExtension>
            <ns3:hr>163</ns3:hr>
            <ns3:cad>77</ns3:cad>
          </ns3:TrackPointExtension>
        </extensions>
      </trkpt>
      <trkpt lat="47.5328885950148105621337890625" lon="11.00419138558208942413330078125">
        <ele>1734.199951171875</ele>
        <time>2026-09-01T07:58:27.000Z</time>
        <extensions>
          <ns3:TrackPointExtension>
            <ns3:hr>163</ns3:hr>
            <ns3:cad>78</ns3:cad>
          </ns3:TrackPointExtension>
        </extensions>
      </trkpt>
      <trkpt lat="47.53287945874035358428955078125" lon="11.00420228205621242523193359375">
        <ele>1734.5999755859375</ele>
        <time>2026-09-01T07:58:28.000Z</time>
        <extensions>
          <ns3:TrackPointExtension>
            <ns3:hr>164</ns3:hr>
            <ns3:cad>78</ns3:cad>
          </ns3:TrackPointExtension>
        </extensions>
      </trkpt>
      <trkpt lat="47.53286990337073802947998046875" lon="11.004205048084259033203125">
        <ele>1734.800048828125</ele>
        <time>2026-09-01T07:58:29.000Z</time>
        <extensions>
          <ns3:TrackPointExtension>
            <ns3:hr>165</ns3:hr>
            <ns3:cad>75</ns3:cad>
          </ns3:TrackPointExtension>
        </extensions>
      </trkpt>
      <trkpt lat="47.53285163082182407379150390625" lon="11.0042065568268299102783203125">
        <ele>1735</ele>
        <time>2026-09-01T07:58:30.000Z</time>
        <extensions>
          <ns3:TrackPointExtension>
            <ns3:hr>166</ns3:hr>
            <ns3:cad>75</ns3:cad>
          </ns3:TrackPointExtension>
        </extensions>
      </trkpt>
      <trkpt lat="47.53282967023551464080810546875" lon="11.00420010276138782501220703125">
        <ele>1735.4000244140625</ele>
        <time>2026-09-01T07:58:31.000Z</time>
        <extensions>
          <ns3:TrackPointExtension>
            <ns3:hr>166</ns3:hr>
            <ns3:cad>75</ns3:cad>
          </ns3:TrackPointExtension>
        </extensions>
      </trkpt>
      <trkpt lat="47.53281625919044017791748046875" lon="11.004204042255878448486328125">
        <ele>1735.5999755859375</ele>
        <time>2026-09-01T07:58:32.000Z</time>
        <extensions>
          <ns3:TrackPointExtension>
            <ns3:hr>167</ns3:hr>
            <ns3:cad>75</ns3:cad>
          </ns3:TrackPointExtension>
        </extensions>
      </trkpt>
      <trkpt lat="47.53280796110630035400390625" lon="11.00421032868325710296630859375">
        <ele>1735.800048828125</ele>
        <time>2026-09-01T07:58:33.000Z</time>
        <extensions>
          <ns3:TrackPointExtension>
            <ns3:hr>167</ns3:hr>
            <ns3:cad>75</ns3:cad>
          </ns3:TrackPointExtension>
        </extensions>
      </trkpt>
      <trkpt lat="47.53279077820479869842529296875" lon="11.0042243264615535736083984375">
        <ele>1735.800048828125</ele>
        <time>2026-09-01T07:58:34.000Z</time>
        <extensions>
          <ns3:TrackPointExtension>
            <ns3:hr>167</ns3:hr>
            <ns3:cad>77</ns3:cad>
          </ns3:TrackPointExtension>
        </extensions>
      </trkpt>
      <trkpt lat="47.53277317620813846588134765625" lon="11.00424922071397304534912109375">
        <ele>1736</ele>
        <time>2026-09-01T07:58:35.000Z</time>
        <extensions>
          <ns3:TrackPointExtension>
            <ns3:hr>168</ns3:hr>
            <ns3:cad>77</ns3:cad>
          </ns3:TrackPointExtension>
        </extensions>
      </trkpt>
      <trkpt lat="47.532757334411144256591796875" lon="11.0042667388916015625">
        <ele>1736</ele>
        <time>2026-09-01T07:58:36.000Z</time>
        <extensions>
          <ns3:TrackPointExtension>
            <ns3:hr>168</ns3:hr>
            <ns3:cad>76</ns3:cad>
          </ns3:TrackPointExtension>
        </extensions>
      </trkpt>
      <trkpt lat="47.53274115733802318572998046875" lon="11.00429213605821132659912109375">
        <ele>1736</ele>
        <time>2026-09-01T07:58:37.000Z</time>
        <extensions>
          <ns3:TrackPointExtension>
            <ns3:hr>168</ns3:hr>
            <ns3:cad>76</ns3:cad>
          </ns3:TrackPointExtension>
        </extensions>
      </trkpt>
      <trkpt lat="47.5327243097126483917236328125" lon="11.00432968698441982269287109375">
        <ele>1735.800048828125</ele>
        <time>2026-09-01T07:58:38.000Z</time>
        <extensions>
          <ns3:TrackPointExtension>
            <ns3:hr>168</ns3:hr>
            <ns3:cad>78</ns3:cad>
          </ns3:TrackPointExtension>
        </extensions>
      </trkpt>
      <trkpt lat="47.53271701745688915252685546875" lon="11.004368998110294342041015625">
        <ele>1735.4000244140625</ele>
        <time>2026-09-01T07:58:39.000Z</time>
        <extensions>
          <ns3:TrackPointExtension>
            <ns3:hr>169</ns3:hr>
            <ns3:cad>79</ns3:cad>
          </ns3:TrackPointExtension>
        </extensions>
      </trkpt>
      <trkpt lat="47.53270075656473636627197265625" lon="11.004407219588756561279296875">
        <ele>1735</ele>
        <time>2026-09-01T07:58:40.000Z</time>
        <extensions>
          <ns3:TrackPointExtension>
            <ns3:hr>169</ns3:hr>
            <ns3:cad>79</ns3:cad>
          </ns3:TrackPointExtension>
        </extensions>
      </trkpt>
      <trkpt lat="47.5326840765774250030517578125" lon="11.0044342093169689178466796875">
        <ele>1734.4000244140625</ele>
        <time>2026-09-01T07:58:41.000Z</time>
        <extensions>
          <ns3:TrackPointExtension>
            <ns3:hr>170</ns3:hr>
            <ns3:cad>79</ns3:cad>
          </ns3:TrackPointExtension>
        </extensions>
      </trkpt>
      <trkpt lat="47.5326787121593952178955078125" lon="11.00444384850561618804931640625">
        <ele>1734.199951171875</ele>
        <time>2026-09-01T07:58:42.000Z</time>
        <extensions>
          <ns3:TrackPointExtension>
            <ns3:hr>170</ns3:hr>
            <ns3:cad>79</ns3:cad>
          </ns3:TrackPointExtension>
        </extensions>
      </trkpt>
      <trkpt lat="47.53266002051532268524169921875" lon="11.0044585168361663818359375">
        <ele>1733.4000244140625</ele>
        <time>2026-09-01T07:58:43.000Z</time>
        <extensions>
          <ns3:TrackPointExtension>
            <ns3:hr>170</ns3:hr>
            <ns3:cad>79</ns3:cad>
          </ns3:TrackPointExtension>
        </extensions>
      </trkpt>
      <trkpt lat="47.532640993595123291015625" lon="11.00447502918541431427001953125">
        <ele>1732.800048828125</ele>
        <time>2026-09-01T07:58:44.000Z</time>
        <extensions>
          <ns3:TrackPointExtension>
            <ns3:hr>170</ns3:hr>
            <ns3:cad>80</ns3:cad>
          </ns3:TrackPointExtension>
        </extensions>
      </trkpt>
      <trkpt lat="47.53262297250330448150634765625" lon="11.00449129007756710052490234375">
        <ele>1732.4000244140625</ele>
        <time>2026-09-01T07:58:45.000Z</time>
        <extensions>
          <ns3:TrackPointExtension>
            <ns3:hr>169</ns3:hr>
            <ns3:cad>81</ns3:cad>
          </ns3:TrackPointExtension>
        </extensions>
      </trkpt>
      <trkpt lat="47.53259916789829730987548828125" lon="11.0045056231319904327392578125">
        <ele>1732</ele>
        <time>2026-09-01T07:58:46.000Z</time>
        <extensions>
          <ns3:TrackPointExtension>
            <ns3:hr>169</ns3:hr>
            <ns3:cad>81</ns3:cad>
          </ns3:TrackPointExtension>
        </extensions>
      </trkpt>
      <trkpt lat="47.53257821314036846160888671875" lon="11.00452112965285778045654296875">
        <ele>1731.5999755859375</ele>
        <time>2026-09-01T07:58:47.000Z</time>
        <extensions>
          <ns3:TrackPointExtension>
            <ns3:hr>169</ns3:hr>
            <ns3:cad>82</ns3:cad>
          </ns3:TrackPointExtension>
        </extensions>
      </trkpt>
      <trkpt lat="47.532550804316997528076171875" lon="11.00453085266053676605224609375">
        <ele>1731.5999755859375</ele>
        <time>2026-09-01T07:58:48.000Z</time>
        <extensions>
          <ns3:TrackPointExtension>
            <ns3:hr>169</ns3:hr>
            <ns3:cad>82</ns3:cad>
          </ns3:TrackPointExtension>
        </extensions>
      </trkpt>
      <trkpt lat="47.5325355492532253265380859375" lon="11.004565469920635223388671875">
        <ele>1730.800048828125</ele>
        <time>2026-09-01T07:58:49.000Z</time>
        <extensions>
          <ns3:TrackPointExtension>
            <ns3:hr>169</ns3:hr>
            <ns3:cad>82</ns3:cad>
          </ns3:TrackPointExtension>
        </extensions>
      </trkpt>
      <trkpt lat="47.53251819871366024017333984375" lon="11.0046048648655414581298828125">
        <ele>1730</ele>
        <time>2026-09-01T07:58:50.000Z</time>
        <extensions>
          <ns3:TrackPointExtension>
            <ns3:hr>170</ns3:hr>
            <ns3:cad>82</ns3:cad>
          </ns3:TrackPointExtension>
        </extensions>
      </trkpt>
      <trkpt lat="47.53250311128795146942138671875" lon="11.00463629700243473052978515625">
        <ele>1729.4000244140625</ele>
        <time>2026-09-01T07:58:51.000Z</time>
        <extensions>
          <ns3:TrackPointExtension>
            <ns3:hr>169</ns3:hr>
            <ns3:cad>82</ns3:cad>
          </ns3:TrackPointExtension>
        </extensions>
      </trkpt>
      <trkpt lat="47.532493136823177337646484375" lon="11.004636548459529876708984375">
        <ele>1729</ele>
        <time>2026-09-01T07:58:52.000Z</time>
        <extensions>
          <ns3:TrackPointExtension>
            <ns3:hr>169</ns3:hr>
            <ns3:cad>82</ns3:cad>
          </ns3:TrackPointExtension>
        </extensions>
      </trkpt>
      <trkpt lat="47.53248400054872035980224609375" lon="11.00460612215101718902587890625">
        <ele>1728.800048828125</ele>
        <time>2026-09-01T07:58:53.000Z</time>
        <extensions>
          <ns3:TrackPointExtension>
            <ns3:hr>168</ns3:hr>
            <ns3:cad>82</ns3:cad>
          </ns3:TrackPointExtension>
        </extensions>
      </trkpt>
      <trkpt lat="47.5324748642742633819580078125" lon="11.00457862950861454010009765625">
        <ele>1728.5999755859375</ele>
        <time>2026-09-01T07:58:54.000Z</time>
        <extensions>
          <ns3:TrackPointExtension>
            <ns3:hr>168</ns3:hr>
            <ns3:cad>82</ns3:cad>
          </ns3:TrackPointExtension>
        </extensions>
      </trkpt>
      <trkpt lat="47.53246329724788665771484375" lon="11.0045461915433406829833984375">
        <ele>1728.199951171875</ele>
        <time>2026-09-01T07:58:55.000Z</time>
        <extensions>
          <ns3:TrackPointExtension>
            <ns3:hr>168</ns3:hr>
            <ns3:cad>83</ns3:cad>
          </ns3:TrackPointExtension>
        </extensions>
      </trkpt>
      <trkpt lat="47.53245768137276172637939453125" lon="11.00451744161546230316162109375">
        <ele>1727.800048828125</ele>
        <time>2026-09-01T07:58:56.000Z</time>
        <extensions>
          <ns3:TrackPointExtension>
            <ns3:hr>168</ns3:hr>
            <ns3:cad>83</ns3:cad>
          </ns3:TrackPointExtension>
        </extensions>
      </trkpt>
      <trkpt lat="47.5324326194822788238525390625" lon="11.00452364422380924224853515625">
        <ele>1727.199951171875</ele>
        <time>2026-09-01T07:58:57.000Z</time>
        <extensions>
          <ns3:TrackPointExtension>
            <ns3:hr>167</ns3:hr>
            <ns3:cad>83</ns3:cad>
          </ns3:TrackPointExtension>
        </extensions>
      </trkpt>
      <trkpt lat="47.53241007216274738311767578125" lon="11.00452817045152187347412109375">
        <ele>1726.5999755859375</ele>
        <time>2026-09-01T07:58:58.000Z</time>
        <extensions>
          <ns3:TrackPointExtension>
            <ns3:hr>167</ns3:hr>
            <ns3:cad>83</ns3:cad>
          </ns3:TrackPointExtension>
        </extensions>
      </trkpt>
      <trkpt lat="47.53240956924855709075927734375" lon="11.00457318127155303955078125">
        <ele>1725.800048828125</ele>
        <time>2026-09-01T07:58:59.000Z</time>
        <extensions>
          <ns3:TrackPointExtension>
            <ns3:hr>166</ns3:hr>
            <ns3:cad>82</ns3:cad>
          </ns3:TrackPointExtension>
        </extensions>
      </trkpt>
      <trkpt lat="47.53240554593503475189208984375" lon="11.0046105645596981048583984375">
        <ele>1725.199951171875</ele>
        <time>2026-09-01T07:59:00.000Z</time>
        <extensions>
          <ns3:TrackPointExtension>
            <ns3:hr>166</ns3:hr>
            <ns3:cad>82</ns3:cad>
          </ns3:TrackPointExtension>
        </extensions>
      </trkpt>
      <trkpt lat="47.53239917568862438201904296875" lon="11.00465674884617328643798828125">
        <ele>1724.5999755859375</ele>
        <time>2026-09-01T07:59:01.000Z</time>
        <extensions>
          <ns3:TrackPointExtension>
            <ns3:hr>166</ns3:hr>
            <ns3:cad>82</ns3:cad>
          </ns3:TrackPointExtension>
        </extensions>
      </trkpt>
      <trkpt lat="47.53239347599446773529052734375" lon="11.00468373857438564300537109375">
        <ele>1724.199951171875</ele>
        <time>2026-09-01T07:59:02.000Z</time>
        <extensions>
          <ns3:TrackPointExtension>
            <ns3:hr>166</ns3:hr>
            <ns3:cad>82</ns3:cad>
          </ns3:TrackPointExtension>
        </extensions>
      </trkpt>
      <trkpt lat="47.5323794782161712646484375" lon="11.00471927784383296966552734375">
        <ele>1723.800048828125</ele>
        <time>2026-09-01T07:59:03.000Z</time>
        <extensions>
          <ns3:TrackPointExtension>
            <ns3:hr>165</ns3:hr>
            <ns3:cad>82</ns3:cad>
          </ns3:TrackPointExtension>
        </extensions>
      </trkpt>
      <trkpt lat="47.5323669053614139556884765625" lon="11.00474878214299678802490234375">
        <ele>1723.199951171875</ele>
        <time>2026-09-01T07:59:04.000Z</time>
        <extensions>
          <ns3:TrackPointExtension>
            <ns3:hr>165</ns3:hr>
            <ns3:cad>82</ns3:cad>
          </ns3:TrackPointExtension>
        </extensions>
      </trkpt>
      <trkpt lat="47.532353661954402923583984375" lon="11.0047842375934123992919921875">
        <ele>1722.5999755859375</ele>
        <time>2026-09-01T07:59:05.000Z</time>
        <extensions>
          <ns3:TrackPointExtension>
            <ns3:hr>165</ns3:hr>
            <ns3:cad>83</ns3:cad>
          </ns3:TrackPointExtension>
        </extensions>
      </trkpt>
      <trkpt lat="47.5323486328125" lon="11.00480544380843639373779296875">
        <ele>1722.199951171875</ele>
        <time>2026-09-01T07:59:06.000Z</time>
        <extensions>
          <ns3:TrackPointExtension>
            <ns3:hr>165</ns3:hr>
            <ns3:cad>83</ns3:cad>
          </ns3:TrackPointExtension>
        </extensions>
      </trkpt>
      <trkpt lat="47.532345615327358245849609375" lon="11.00483628921210765838623046875">
        <ele>1722</ele>
        <time>2026-09-01T07:59:07.000Z</time>
        <extensions>
          <ns3:TrackPointExtension>
            <ns3:hr>164</ns3:hr>
            <ns3:cad>83</ns3:cad>
          </ns3:TrackPointExtension>
        </extensions>
      </trkpt>
      <trkpt lat="47.532336227595806121826171875" lon="11.0048677213490009307861328125">
        <ele>1722</ele>
        <time>2026-09-01T07:59:08.000Z</time>
        <extensions>
          <ns3:TrackPointExtension>
            <ns3:hr>163</ns3:hr>
            <ns3:cad>83</ns3:cad>
          </ns3:TrackPointExtension>
        </extensions>
      </trkpt>
      <trkpt lat="47.532324828207492828369140625" lon="11.0049005784094333648681640625">
        <ele>1722</ele>
        <time>2026-09-01T07:59:09.000Z</time>
        <extensions>
          <ns3:TrackPointExtension>
            <ns3:hr>162</ns3:hr>
            <ns3:cad>83</ns3:cad>
          </ns3:TrackPointExtension>
        </extensions>
      </trkpt>
      <trkpt lat="47.53231502138078212738037109375" lon="11.00492530502378940582275390625">
        <ele>1722.199951171875</ele>
        <time>2026-09-01T07:59:10.000Z</time>
        <extensions>
          <ns3:TrackPointExtension>
            <ns3:hr>162</ns3:hr>
            <ns3:cad>83</ns3:cad>
          </ns3:TrackPointExtension>
        </extensions>
      </trkpt>
      <trkpt lat="47.53229691646993160247802734375" lon="11.004957742989063262939453125">
        <ele>1722.199951171875</ele>
        <time>2026-09-01T07:59:11.000Z</time>
        <extensions>
          <ns3:TrackPointExtension>
            <ns3:hr>162</ns3:hr>
            <ns3:cad>83</ns3:cad>
          </ns3:TrackPointExtension>
        </extensions>
      </trkpt>
      <trkpt lat="47.53228132613003253936767578125" lon="11.00498816929757595062255859375">
        <ele>1722.4000244140625</ele>
        <time>2026-09-01T07:59:12.000Z</time>
        <extensions>
          <ns3:TrackPointExtension>
            <ns3:hr>161</ns3:hr>
            <ns3:cad>83</ns3:cad>
          </ns3:TrackPointExtension>
        </extensions>
      </trkpt>
      <trkpt lat="47.5322750397026538848876953125" lon="11.00501968525350093841552734375">
        <ele>1722.199951171875</ele>
        <time>2026-09-01T07:59:13.000Z</time>
        <extensions>
          <ns3:TrackPointExtension>
            <ns3:hr>161</ns3:hr>
            <ns3:cad>78</ns3:cad>
          </ns3:TrackPointExtension>
        </extensions>
      </trkpt>
      <trkpt lat="47.5322549231350421905517578125" lon="11.0050531290471553802490234375">
        <ele>1722.199951171875</ele>
        <time>2026-09-01T07:59:14.000Z</time>
        <extensions>
          <ns3:TrackPointExtension>
            <ns3:hr>161</ns3:hr>
            <ns3:cad>77</ns3:cad>
          </ns3:TrackPointExtension>
        </extensions>
      </trkpt>
      <trkpt lat="47.53223405219614505767822265625" lon="11.00508925504982471466064453125">
        <ele>1722.199951171875</ele>
        <time>2026-09-01T07:59:15.000Z</time>
        <extensions>
          <ns3:TrackPointExtension>
            <ns3:hr>161</ns3:hr>
            <ns3:cad>77</ns3:cad>
          </ns3:TrackPointExtension>
        </extensions>
      </trkpt>
      <trkpt lat="47.532218880951404571533203125" lon="11.00511607713997364044189453125">
        <ele>1722</ele>
        <time>2026-09-01T07:59:16.000Z</time>
        <extensions>
          <ns3:TrackPointExtension>
            <ns3:hr>160</ns3:hr>
            <ns3:cad>77</ns3:cad>
          </ns3:TrackPointExtension>
        </extensions>
      </trkpt>
      <trkpt lat="47.53219968639314174652099609375" lon="11.00514625199139118194580078125">
        <ele>1721.800048828125</ele>
        <time>2026-09-01T07:59:17.000Z</time>
        <extensions>
          <ns3:TrackPointExtension>
            <ns3:hr>160</ns3:hr>
            <ns3:cad>78</ns3:cad>
          </ns3:TrackPointExtension>
        </extensions>
      </trkpt>
      <trkpt lat="47.53219180740416049957275390625" lon="11.00516569800674915313720703125">
        <ele>1721.4000244140625</ele>
        <time>2026-09-01T07:59:18.000Z</time>
        <extensions>
          <ns3:TrackPointExtension>
            <ns3:hr>159</ns3:hr>
            <ns3:cad>78</ns3:cad>
          </ns3:TrackPointExtension>
        </extensions>
      </trkpt>
      <trkpt lat="47.53217504359781742095947265625" lon="11.00519922561943531036376953125">
        <ele>1721</ele>
        <time>2026-09-01T07:59:19.000Z</time>
        <extensions>
          <ns3:TrackPointExtension>
            <ns3:hr>159</ns3:hr>
            <ns3:cad>78</ns3:cad>
          </ns3:TrackPointExtension>
        </extensions>
      </trkpt>
      <trkpt lat="47.53216515295207500457763671875" lon="11.005220599472522735595703125">
        <ele>1720.800048828125</ele>
        <time>2026-09-01T07:59:20.000Z</time>
        <extensions>
          <ns3:TrackPointExtension>
            <ns3:hr>159</ns3:hr>
            <ns3:cad>80</ns3:cad>
          </ns3:TrackPointExtension>
        </extensions>
      </trkpt>
      <trkpt lat="47.53215492703020572662353515625" lon="11.0052388720214366912841796875">
        <ele>1720.4000244140625</ele>
        <time>2026-09-01T07:59:21.000Z</time>
        <extensions>
          <ns3:TrackPointExtension>
            <ns3:hr>158</ns3:hr>
            <ns3:cad>80</ns3:cad>
          </ns3:TrackPointExtension>
        </extensions>
      </trkpt>
      <trkpt lat="47.53214134834706783294677734375" lon="11.0052566416561603546142578125">
        <ele>1720.199951171875</ele>
        <time>2026-09-01T07:59:22.000Z</time>
        <extensions>
          <ns3:TrackPointExtension>
            <ns3:hr>158</ns3:hr>
            <ns3:cad>80</ns3:cad>
          </ns3:TrackPointExtension>
        </extensions>
      </trkpt>
      <trkpt lat="47.53213011659681797027587890625" lon="11.00528539158403873443603515625">
        <ele>1720.4000244140625</ele>
        <time>2026-09-01T07:59:23.000Z</time>
        <extensions>
          <ns3:TrackPointExtension>
            <ns3:hr>157</ns3:hr>
            <ns3:cad>80</ns3:cad>
          </ns3:TrackPointExtension>
        </extensions>
      </trkpt>
      <trkpt lat="47.5321198068559169769287109375" lon="11.00530735217034816741943359375">
        <ele>1720.5999755859375</ele>
        <time>2026-09-01T07:59:24.000Z</time>
        <extensions>
          <ns3:TrackPointExtension>
            <ns3:hr>156</ns3:hr>
            <ns3:cad>80</ns3:cad>
          </ns3:TrackPointExtension>
        </extensions>
      </trkpt>
      <trkpt lat="47.53210748545825481414794921875" lon="11.00532948039472103118896484375">
        <ele>1720.800048828125</ele>
        <time>2026-09-01T07:59:25.000Z</time>
        <extensions>
          <ns3:TrackPointExtension>
            <ns3:hr>155</ns3:hr>
            <ns3:cad>80</ns3:cad>
          </ns3:TrackPointExtension>
        </extensions>
      </trkpt>
      <trkpt lat="47.53208644688129425048828125" lon="11.00535144098103046417236328125">
        <ele>1721.199951171875</ele>
        <time>2026-09-01T07:59:26.000Z</time>
        <extensions>
          <ns3:TrackPointExtension>
            <ns3:hr>155</ns3:hr>
            <ns3:cad>79</ns3:cad>
          </ns3:TrackPointExtension>
        </extensions>
      </trkpt>
      <trkpt lat="47.532069347798824310302734375" lon="11.005378849804401397705078125">
        <ele>1721.4000244140625</ele>
        <time>2026-09-01T07:59:27.000Z</time>
        <extensions>
          <ns3:TrackPointExtension>
            <ns3:hr>155</ns3:hr>
            <ns3:cad>79</ns3:cad>
          </ns3:TrackPointExtension>
        </extensions>
      </trkpt>
      <trkpt lat="47.5320522487163543701171875" lon="11.00540039129555225372314453125">
        <ele>1721.5999755859375</ele>
        <time>2026-09-01T07:59:28.000Z</time>
        <extensions>
          <ns3:TrackPointExtension>
            <ns3:hr>155</ns3:hr>
            <ns3:cad>79</ns3:cad>
          </ns3:TrackPointExtension>
        </extensions>
      </trkpt>
      <trkpt lat="47.53203012049198150634765625" lon="11.0054259561002254486083984375">
        <ele>1722</ele>
        <time>2026-09-01T07:59:29.000Z</time>
        <extensions>
          <ns3:TrackPointExtension>
            <ns3:hr>154</ns3:hr>
            <ns3:cad>78</ns3:cad>
          </ns3:TrackPointExtension>
        </extensions>
      </trkpt>
      <trkpt lat="47.53200572915375232696533203125" lon="11.00544464774429798126220703125">
        <ele>1722.199951171875</ele>
        <time>2026-09-01T07:59:30.000Z</time>
        <extensions>
          <ns3:TrackPointExtension>
            <ns3:hr>154</ns3:hr>
            <ns3:cad>78</ns3:cad>
          </ns3:TrackPointExtension>
        </extensions>
      </trkpt>
      <trkpt lat="47.531986199319362640380859375" lon="11.00546677596867084503173828125">
        <ele>1722.4000244140625</ele>
        <time>2026-09-01T07:59:31.000Z</time>
        <extensions>
          <ns3:TrackPointExtension>
            <ns3:hr>154</ns3:hr>
            <ns3:cad>78</ns3:cad>
          </ns3:TrackPointExtension>
        </extensions>
      </trkpt>
      <trkpt lat="47.5319692678749561309814453125" lon="11.00549452006816864013671875">
        <ele>1722.5999755859375</ele>
        <time>2026-09-01T07:59:32.000Z</time>
        <extensions>
          <ns3:TrackPointExtension>
            <ns3:hr>154</ns3:hr>
            <ns3:cad>78</ns3:cad>
          </ns3:TrackPointExtension>
        </extensions>
      </trkpt>
      <trkpt lat="47.5319530069828033447265625" lon="11.00552628748118877410888671875">
        <ele>1722.800048828125</ele>
        <time>2026-09-01T07:59:33.000Z</time>
        <extensions>
          <ns3:TrackPointExtension>
            <ns3:hr>154</ns3:hr>
            <ns3:cad>78</ns3:cad>
          </ns3:TrackPointExtension>
        </extensions>
      </trkpt>
      <trkpt lat="47.53194428980350494384765625" lon="11.00555595941841602325439453125">
        <ele>1723</ele>
        <time>2026-09-01T07:59:34.000Z</time>
        <extensions>
          <ns3:TrackPointExtension>
            <ns3:hr>154</ns3:hr>
            <ns3:cad>77</ns3:cad>
          </ns3:TrackPointExtension>
        </extensions>
      </trkpt>
      <trkpt lat="47.531935907900333404541015625" lon="11.00559166632592678070068359375">
        <ele>1723.4000244140625</ele>
        <time>2026-09-01T07:59:35.000Z</time>
        <extensions>
          <ns3:TrackPointExtension>
            <ns3:hr>154</ns3:hr>
            <ns3:cad>77</ns3:cad>
          </ns3:TrackPointExtension>
        </extensions>
      </trkpt>
      <trkpt lat="47.53192392177879810333251953125" lon="11.0056378506124019622802734375">
        <ele>1723.5999755859375</ele>
        <time>2026-09-01T07:59:36.000Z</time>
        <extensions>
          <ns3:TrackPointExtension>
            <ns3:hr>154</ns3:hr>
            <ns3:cad>77</ns3:cad>
          </ns3:TrackPointExtension>
        </extensions>
      </trkpt>
      <trkpt lat="47.53190782852470874786376953125" lon="11.00567649118602275848388671875">
        <ele>1724</ele>
        <time>2026-09-01T07:59:37.000Z</time>
        <extensions>
          <ns3:TrackPointExtension>
            <ns3:hr>153</ns3:hr>
            <ns3:cad>79</ns3:cad>
          </ns3:TrackPointExtension>
        </extensions>
      </trkpt>
      <trkpt lat="47.5318901427090167999267578125" lon="11.00570331327617168426513671875">
        <ele>1724.199951171875</ele>
        <time>2026-09-01T07:59:38.000Z</time>
        <extensions>
          <ns3:TrackPointExtension>
            <ns3:hr>154</ns3:hr>
            <ns3:cad>79</ns3:cad>
          </ns3:TrackPointExtension>
        </extensions>
      </trkpt>
      <trkpt lat="47.53186088986694812774658203125" lon="11.00573516450822353363037109375">
        <ele>1724.4000244140625</ele>
        <time>2026-09-01T07:59:39.000Z</time>
        <extensions>
          <ns3:TrackPointExtension>
            <ns3:hr>154</ns3:hr>
            <ns3:cad>78</ns3:cad>
          </ns3:TrackPointExtension>
        </extensions>
      </trkpt>
      <trkpt lat="47.531838007271289825439453125" lon="11.00575737655162811279296875">
        <ele>1724.5999755859375</ele>
        <time>2026-09-01T07:59:40.000Z</time>
        <extensions>
          <ns3:TrackPointExtension>
            <ns3:hr>154</ns3:hr>
            <ns3:cad>76</ns3:cad>
          </ns3:TrackPointExtension>
        </extensions>
      </trkpt>
      <trkpt lat="47.53181898035109043121337890625" lon="11.00576919503509998321533203125">
        <ele>1724.5999755859375</ele>
        <time>2026-09-01T07:59:41.000Z</time>
        <extensions>
          <ns3:TrackPointExtension>
            <ns3:hr>155</ns3:hr>
            <ns3:cad>76</ns3:cad>
          </ns3:TrackPointExtension>
        </extensions>
      </trkpt>
      <trkpt lat="47.53178595565259456634521484375" lon="11.0057776607573032379150390625">
        <ele>1724.5999755859375</ele>
        <time>2026-09-01T07:59:42.000Z</time>
        <extensions>
          <ns3:TrackPointExtension>
            <ns3:hr>156</ns3:hr>
            <ns3:cad>77</ns3:cad>
          </ns3:TrackPointExtension>
        </extensions>
      </trkpt>
      <trkpt lat="47.53176080994307994842529296875" lon="11.00578528828918933868408203125">
        <ele>1724.4000244140625</ele>
        <time>2026-09-01T07:59:43.000Z</time>
        <extensions>
          <ns3:TrackPointExtension>
            <ns3:hr>156</ns3:hr>
            <ns3:cad>78</ns3:cad>
          </ns3:TrackPointExtension>
        </extensions>
      </trkpt>
      <trkpt lat="47.5317342393100261688232421875" lon="11.00577087141573429107666015625">
        <ele>1724.4000244140625</ele>
        <time>2026-09-01T07:59:44.000Z</time>
        <extensions>
          <ns3:TrackPointExtension>
            <ns3:hr>157</ns3:hr>
            <ns3:cad>78</ns3:cad>
          </ns3:TrackPointExtension>
        </extensions>
      </trkpt>
      <trkpt lat="47.53171018324792385101318359375" lon="11.00576818920671939849853515625">
        <ele>1724.5999755859375</ele>
        <time>2026-09-01T07:59:45.000Z</time>
        <extensions>
          <ns3:TrackPointExtension>
            <ns3:hr>158</ns3:hr>
            <ns3:cad>79</ns3:cad>
          </ns3:TrackPointExtension>
        </extensions>
      </trkpt>
      <trkpt lat="47.53169291652739048004150390625" lon="11.0057655908167362213134765625">
        <ele>1724.800048828125</ele>
        <time>2026-09-01T07:59:46.000Z</time>
        <extensions>
          <ns3:TrackPointExtension>
            <ns3:hr>159</ns3:hr>
            <ns3:cad>79</ns3:cad>
          </ns3:TrackPointExtension>
        </extensions>
      </trkpt>
      <trkpt lat="47.5316762365400791168212890625" lon="11.00576433353126049041748046875">
        <ele>1724.800048828125</ele>
        <time>2026-09-01T07:59:47.000Z</time>
        <extensions>
          <ns3:TrackPointExtension>
            <ns3:hr>160</ns3:hr>
            <ns3:cad>79</ns3:cad>
          </ns3:TrackPointExtension>
        </extensions>
      </trkpt>
      <trkpt lat="47.531659305095672607421875" lon="11.00575511343777179718017578125">
        <ele>1725</ele>
        <time>2026-09-01T07:59:48.000Z</time>
        <extensions>
          <ns3:TrackPointExtension>
            <ns3:hr>161</ns3:hr>
            <ns3:cad>79</ns3:cad>
          </ns3:TrackPointExtension>
        </extensions>
      </trkpt>
      <trkpt lat="47.5316487438976764678955078125" lon="11.00574790500104427337646484375">
        <ele>1725.199951171875</ele>
        <time>2026-09-01T07:59:49.000Z</time>
        <extensions>
          <ns3:TrackPointExtension>
            <ns3:hr>162</ns3:hr>
            <ns3:cad>79</ns3:cad>
          </ns3:TrackPointExtension>
        </extensions>
      </trkpt>
      <trkpt lat="47.53163575194776058197021484375" lon="11.005739271640777587890625">
        <ele>1725.4000244140625</ele>
        <time>2026-09-01T07:59:50.000Z</time>
        <extensions>
          <ns3:TrackPointExtension>
            <ns3:hr>163</ns3:hr>
            <ns3:cad>79</ns3:cad>
          </ns3:TrackPointExtension>
        </extensions>
      </trkpt>
      <trkpt lat="47.53161706030368804931640625" lon="11.005720160901546478271484375">
        <ele>1725.5999755859375</ele>
        <time>2026-09-01T07:59:51.000Z</time>
        <extensions>
          <ns3:TrackPointExtension>
            <ns3:hr>163</ns3:hr>
            <ns3:cad>77</ns3:cad>
          </ns3:TrackPointExtension>
        </extensions>
      </trkpt>
      <trkpt lat="47.53160306252539157867431640625" lon="11.005715467035770416259765625">
        <ele>1725.800048828125</ele>
        <time>2026-09-01T07:59:52.000Z</time>
        <extensions>
          <ns3:TrackPointExtension>
            <ns3:hr>164</ns3:hr>
            <ns3:cad>77</ns3:cad>
          </ns3:TrackPointExtension>
        </extensions>
      </trkpt>
      <trkpt lat="47.53159032203257083892822265625" lon="11.005705408751964569091796875">
        <ele>1726.199951171875</ele>
        <time>2026-09-01T07:59:53.000Z</time>
        <extensions>
          <ns3:TrackPointExtension>
            <ns3:hr>164</ns3:hr>
            <ns3:cad>78</ns3:cad>
          </ns3:TrackPointExtension>
        </extensions>
      </trkpt>
      <trkpt lat="47.531577162444591522216796875" lon="11.00569794885814189910888671875">
        <ele>1726.5999755859375</ele>
        <time>2026-09-01T07:59:54.000Z</time>
        <extensions>
          <ns3:TrackPointExtension>
            <ns3:hr>165</ns3:hr>
            <ns3:cad>78</ns3:cad>
          </ns3:TrackPointExtension>
        </extensions>
      </trkpt>
      <trkpt lat="47.53155863843858242034912109375" lon="11.00569166243076324462890625">
        <ele>1727</ele>
        <time>2026-09-01T07:59:55.000Z</time>
        <extensions>
          <ns3:TrackPointExtension>
            <ns3:hr>165</ns3:hr>
            <ns3:cad>78</ns3:cad>
          </ns3:TrackPointExtension>
        </extensions>
      </trkpt>
      <trkpt lat="47.5315438024699687957763671875" lon="11.00568369962275028228759765625">
        <ele>1727.4000244140625</ele>
        <time>2026-09-01T07:59:56.000Z</time>
        <extensions>
          <ns3:TrackPointExtension>
            <ns3:hr>165</ns3:hr>
            <ns3:cad>76</ns3:cad>
          </ns3:TrackPointExtension>
        </extensions>
      </trkpt>
      <trkpt lat="47.531533576548099517822265625" lon="11.00567246787250041961669921875">
        <ele>1728</ele>
        <time>2026-09-01T07:59:57.000Z</time>
        <extensions>
          <ns3:TrackPointExtension>
            <ns3:hr>166</ns3:hr>
            <ns3:cad>76</ns3:cad>
          </ns3:TrackPointExtension>
        </extensions>
      </trkpt>
      <trkpt lat="47.531518824398517608642578125" lon="11.0056569613516330718994140625">
        <ele>1728.4000244140625</ele>
        <time>2026-09-01T07:59:58.000Z</time>
        <extensions>
          <ns3:TrackPointExtension>
            <ns3:hr>166</ns3:hr>
            <ns3:cad>76</ns3:cad>
          </ns3:TrackPointExtension>
        </extensions>
      </trkpt>
      <trkpt lat="47.53151052631437778472900390625" lon="11.0056559555232524871826171875">
        <ele>1728.800048828125</ele>
        <time>2026-09-01T07:59:59.000Z</time>
        <extensions>
          <ns3:TrackPointExtension>
            <ns3:hr>167</ns3:hr>
            <ns3:cad>75</ns3:cad>
          </ns3:TrackPointExtension>
        </extensions>
      </trkpt>
      <trkpt lat="47.53149175085127353668212890625" lon="11.005648076534271240234375">
        <ele>1729.199951171875</ele>
        <time>2026-09-01T08:00:00.000Z</time>
        <extensions>
          <ns3:TrackPointExtension>
            <ns3:hr>168</ns3:hr>
            <ns3:cad>75</ns3:cad>
          </ns3:TrackPointExtension>
        </extensions>
      </trkpt>
      <trkpt lat="47.531486637890338897705078125" lon="11.00564899854362010955810546875">
        <ele>1729.199951171875</ele>
        <time>2026-09-01T08:00:01.000Z</time>
        <extensions>
          <ns3:TrackPointExtension>
            <ns3:hr>168</ns3:hr>
            <ns3:cad>75</ns3:cad>
          </ns3:TrackPointExtension>
        </extensions>
      </trkpt>
      <trkpt lat="47.531475238502025604248046875" lon="11.00564849562942981719970703125">
        <ele>1729.4000244140625</ele>
        <time>2026-09-01T08:00:02.000Z</time>
        <extensions>
          <ns3:TrackPointExtension>
            <ns3:hr>168</ns3:hr>
            <ns3:cad>74</ns3:cad>
          </ns3:TrackPointExtension>
        </extensions>
      </trkpt>
      <trkpt lat="47.53146442584693431854248046875" lon="11.0056509263813495635986328125">
        <ele>1729.5999755859375</ele>
        <time>2026-09-01T08:00:03.000Z</time>
        <extensions>
          <ns3:TrackPointExtension>
            <ns3:hr>167</ns3:hr>
            <ns3:cad>73</ns3:cad>
          </ns3:TrackPointExtension>
        </extensions>
      </trkpt>
      <trkpt lat="47.53146157599985599517822265625" lon="11.00565218366682529449462890625">
        <ele>1730.199951171875</ele>
        <time>2026-09-01T08:00:04.000Z</time>
        <extensions>
          <ns3:TrackPointExtension>
            <ns3:hr>167</ns3:hr>
            <ns3:cad>73</ns3:cad>
          </ns3:TrackPointExtension>
        </extensions>
      </trkpt>
      <trkpt lat="47.5314539484679698944091796875" lon="11.0056482441723346710205078125">
        <ele>1730.5999755859375</ele>
        <time>2026-09-01T08:00:05.000Z</time>
        <extensions>
          <ns3:TrackPointExtension>
            <ns3:hr>167</ns3:hr>
            <ns3:cad>0</ns3:cad>
          </ns3:TrackPointExtension>
        </extensions>
      </trkpt>
      <trkpt lat="47.53144145943224430084228515625" lon="11.0056381858885288238525390625">
        <ele>1731.199951171875</ele>
        <time>2026-09-01T08:00:06.000Z</time>
        <extensions>
          <ns3:TrackPointExtension>
            <ns3:hr>166</ns3:hr>
            <ns3:cad>0</ns3:cad>
          </ns3:TrackPointExtension>
        </extensions>
      </trkpt>
      <trkpt lat="47.5314291380345821380615234375" lon="11.0056334920227527618408203125">
        <ele>1731.199951171875</ele>
        <time>2026-09-01T08:00:07.000Z</time>
        <extensions>
          <ns3:TrackPointExtension>
            <ns3:hr>165</ns3:hr>
            <ns3:cad>0</ns3:cad>
          </ns3:TrackPointExtension>
        </extensions>
      </trkpt>
      <trkpt lat="47.53141648136079311370849609375" lon="11.0056247748434543609619140625">
        <ele>1731.199951171875</ele>
        <time>2026-09-01T08:00:08.000Z</time>
        <extensions>
          <ns3:TrackPointExtension>
            <ns3:hr>165</ns3:hr>
            <ns3:cad>0</ns3:cad>
          </ns3:TrackPointExtension>
        </extensions>
      </trkpt>
      <trkpt lat="47.53139921464025974273681640625" lon="11.00561882369220256805419921875">
        <ele>1731</ele>
        <time>2026-09-01T08:00:09.000Z</time>
        <extensions>
          <ns3:TrackPointExtension>
            <ns3:hr>164</ns3:hr>
            <ns3:cad>0</ns3:cad>
          </ns3:TrackPointExtension>
        </extensions>
      </trkpt>
      <trkpt lat="47.53138236701488494873046875" lon="11.0056056641042232513427734375">
        <ele>1731.199951171875</ele>
        <time>2026-09-01T08:00:10.000Z</time>
        <extensions>
          <ns3:TrackPointExtension>
            <ns3:hr>164</ns3:hr>
            <ns3:cad>0</ns3:cad>
          </ns3:TrackPointExtension>
        </extensions>
      </trkpt>
      <trkpt lat="47.53136887215077877044677734375" lon="11.00560021586716175079345703125">
        <ele>1731.5999755859375</ele>
        <time>2026-09-01T08:00:11.000Z</time>
        <extensions>
          <ns3:TrackPointExtension>
            <ns3:hr>164</ns3:hr>
            <ns3:cad>0</ns3:cad>
          </ns3:TrackPointExtension>
        </extensions>
      </trkpt>
      <trkpt lat="47.53136518411338329315185546875" lon="11.005599796772003173828125">
        <ele>1731.800048828125</ele>
        <time>2026-09-01T08:00:12.000Z</time>
        <extensions>
          <ns3:TrackPointExtension>
            <ns3:hr>164</ns3:hr>
            <ns3:cad>61</ns3:cad>
          </ns3:TrackPointExtension>
        </extensions>
      </trkpt>
      <trkpt lat="47.53135831095278263092041015625" lon="11.0056006349623203277587890625">
        <ele>1732</ele>
        <time>2026-09-01T08:00:13.000Z</time>
        <extensions>
          <ns3:TrackPointExtension>
            <ns3:hr>164</ns3:hr>
            <ns3:cad>61</ns3:cad>
          </ns3:TrackPointExtension>
        </extensions>
      </trkpt>
      <trkpt lat="47.53135110251605510711669921875" lon="11.005603484809398651123046875">
        <ele>1732.4000244140625</ele>
        <time>2026-09-01T08:00:14.000Z</time>
        <extensions>
          <ns3:TrackPointExtension>
            <ns3:hr>165</ns3:hr>
            <ns3:cad>61</ns3:cad>
          </ns3:TrackPointExtension>
        </extensions>
      </trkpt>
      <trkpt lat="47.53134087659418582916259765625" lon="11.0056043229997158050537109375">
        <ele>1732.5999755859375</ele>
        <time>2026-09-01T08:00:15.000Z</time>
        <extensions>
          <ns3:TrackPointExtension>
            <ns3:hr>165</ns3:hr>
            <ns3:cad>0</ns3:cad>
          </ns3:TrackPointExtension>
        </extensions>
      </trkpt>
      <trkpt lat="47.53132746554911136627197265625" lon="11.00560273043811321258544921875">
        <ele>1732.800048828125</ele>
        <time>2026-09-01T08:00:16.000Z</time>
        <extensions>
          <ns3:TrackPointExtension>
            <ns3:hr>166</ns3:hr>
            <ns3:cad>0</ns3:cad>
          </ns3:TrackPointExtension>
        </extensions>
      </trkpt>
      <trkpt lat="47.53131170757114887237548828125" lon="11.00560306571424007415771484375">
        <ele>1733.199951171875</ele>
        <time>2026-09-01T08:00:17.000Z</time>
        <extensions>
          <ns3:TrackPointExtension>
            <ns3:hr>166</ns3:hr>
            <ns3:cad>0</ns3:cad>
          </ns3:TrackPointExtension>
        </extensions>
      </trkpt>
      <trkpt lat="47.53130215220153331756591796875" lon="11.00560658611357212066650390625">
        <ele>1733.5999755859375</ele>
        <time>2026-09-01T08:00:18.000Z</time>
        <extensions>
          <ns3:TrackPointExtension>
            <ns3:hr>166</ns3:hr>
            <ns3:cad>0</ns3:cad>
          </ns3:TrackPointExtension>
        </extensions>
      </trkpt>
      <trkpt lat="47.53129041753709316253662109375" lon="11.00560792721807956695556640625">
        <ele>1733.800048828125</ele>
        <time>2026-09-01T08:00:19.000Z</time>
        <extensions>
          <ns3:TrackPointExtension>
            <ns3:hr>166</ns3:hr>
            <ns3:cad>0</ns3:cad>
          </ns3:TrackPointExtension>
        </extensions>
      </trkpt>
      <trkpt lat="47.53128111362457275390625" lon="11.00560893304646015167236328125">
        <ele>1734</ele>
        <time>2026-09-01T08:00:20.000Z</time>
        <extensions>
          <ns3:TrackPointExtension>
            <ns3:hr>167</ns3:hr>
            <ns3:cad>0</ns3:cad>
          </ns3:TrackPointExtension>
        </extensions>
      </trkpt>
      <trkpt lat="47.53126879222691059112548828125" lon="11.00560876540839672088623046875">
        <ele>1734</ele>
        <time>2026-09-01T08:00:21.000Z</time>
        <extensions>
          <ns3:TrackPointExtension>
            <ns3:hr>168</ns3:hr>
            <ns3:cad>0</ns3:cad>
          </ns3:TrackPointExtension>
        </extensions>
      </trkpt>
      <trkpt lat="47.53125823102891445159912109375" lon="11.005606837570667266845703125">
        <ele>1734</ele>
        <time>2026-09-01T08:00:22.000Z</time>
        <extensions>
          <ns3:TrackPointExtension>
            <ns3:hr>168</ns3:hr>
            <ns3:cad>0</ns3:cad>
          </ns3:TrackPointExtension>
        </extensions>
      </trkpt>
      <trkpt lat="47.5312477536499500274658203125" lon="11.005606167018413543701171875">
        <ele>1734.199951171875</ele>
        <time>2026-09-01T08:00:23.000Z</time>
        <extensions>
          <ns3:TrackPointExtension>
            <ns3:hr>168</ns3:hr>
            <ns3:cad>0</ns3:cad>
          </ns3:TrackPointExtension>
        </extensions>
      </trkpt>
      <trkpt lat="47.53125269897282123565673828125" lon="11.00565536879003047943115234375">
        <ele>1734.800048828125</ele>
        <time>2026-09-01T08:00:24.000Z</time>
        <extensions>
          <ns3:TrackPointExtension>
            <ns3:hr>168</ns3:hr>
            <ns3:cad>0</ns3:cad>
          </ns3:TrackPointExtension>
        </extensions>
      </trkpt>
      <trkpt lat="47.53124959766864776611328125" lon="11.0056710429489612579345703125">
        <ele>1735.199951171875</ele>
        <time>2026-09-01T08:00:25.000Z</time>
        <extensions>
          <ns3:TrackPointExtension>
            <ns3:hr>168</ns3:hr>
            <ns3:cad>0</ns3:cad>
          </ns3:TrackPointExtension>
        </extensions>
      </trkpt>
      <trkpt lat="47.53124984912574291229248046875" lon="11.00568898022174835205078125">
        <ele>1735.800048828125</ele>
        <time>2026-09-01T08:00:26.000Z</time>
        <extensions>
          <ns3:TrackPointExtension>
            <ns3:hr>169</ns3:hr>
            <ns3:cad>0</ns3:cad>
          </ns3:TrackPointExtension>
        </extensions>
      </trkpt>
      <trkpt lat="47.531255967915058135986328125" lon="11.00569040514528751373291015625">
        <ele>1736.199951171875</ele>
        <time>2026-09-01T08:00:27.000Z</time>
        <extensions>
          <ns3:TrackPointExtension>
            <ns3:hr>169</ns3:hr>
            <ns3:cad>0</ns3:cad>
          </ns3:TrackPointExtension>
        </extensions>
      </trkpt>
      <trkpt lat="47.5312752462923526763916015625" lon="11.00569560192525386810302734375">
        <ele>1736.5999755859375</ele>
        <time>2026-09-01T08:00:28.000Z</time>
        <extensions>
          <ns3:TrackPointExtension>
            <ns3:hr>169</ns3:hr>
            <ns3:cad>48</ns3:cad>
          </ns3:TrackPointExtension>
        </extensions>
      </trkpt>
      <trkpt lat="47.53128438256680965423583984375" lon="11.005690656602382659912109375">
        <ele>1736.800048828125</ele>
        <time>2026-09-01T08:00:29.000Z</time>
        <extensions>
          <ns3:TrackPointExtension>
            <ns3:hr>169</ns3:hr>
            <ns3:cad>48</ns3:cad>
          </ns3:TrackPointExtension>
        </extensions>
      </trkpt>
      <trkpt lat="47.5313044153153896331787109375" lon="11.00570197217166423797607421875">
        <ele>1737</ele>
        <time>2026-09-01T08:00:30.000Z</time>
        <extensions>
          <ns3:TrackPointExtension>
            <ns3:hr>169</ns3:hr>
            <ns3:cad>0</ns3:cad>
          </ns3:TrackPointExtension>
        </extensions>
      </trkpt>
      <trkpt lat="47.531312964856624603271484375" lon="11.00571253336966037750244140625">
        <ele>1737</ele>
        <time>2026-09-01T08:00:31.000Z</time>
        <extensions>
          <ns3:TrackPointExtension>
            <ns3:hr>169</ns3:hr>
            <ns3:cad>0</ns3:cad>
          </ns3:TrackPointExtension>
        </extensions>
      </trkpt>
      <trkpt lat="47.53131958656013011932373046875" lon="11.0057109408080577850341796875">
        <ele>1737</ele>
        <time>2026-09-01T08:00:32.000Z</time>
        <extensions>
          <ns3:TrackPointExtension>
            <ns3:hr>169</ns3:hr>
            <ns3:cad>47</ns3:cad>
          </ns3:TrackPointExtension>
        </extensions>
      </trkpt>
      <trkpt lat="47.53132679499685764312744140625" lon="11.00571387447416782379150390625">
        <ele>1737</ele>
        <time>2026-09-01T08:00:33.000Z</time>
        <extensions>
          <ns3:TrackPointExtension>
            <ns3:hr>170</ns3:hr>
            <ns3:cad>47</ns3:cad>
          </ns3:TrackPointExtension>
        </extensions>
      </trkpt>
      <trkpt lat="47.53133274614810943603515625" lon="11.00571454502642154693603515625">
        <ele>1737.199951171875</ele>
        <time>2026-09-01T08:00:34.000Z</time>
        <extensions>
          <ns3:TrackPointExtension>
            <ns3:hr>169</ns3:hr>
            <ns3:cad>47</ns3:cad>
          </ns3:TrackPointExtension>
        </extensions>
      </trkpt>
      <trkpt lat="47.5313416309654712677001953125" lon="11.0057230107486248016357421875">
        <ele>1737.4000244140625</ele>
        <time>2026-09-01T08:00:35.000Z</time>
        <extensions>
          <ns3:TrackPointExtension>
            <ns3:hr>170</ns3:hr>
            <ns3:cad>47</ns3:cad>
          </ns3:TrackPointExtension>
        </extensions>
      </trkpt>
      <trkpt lat="47.53134875558316707611083984375" lon="11.0057313926517963409423828125">
        <ele>1737.5999755859375</ele>
        <time>2026-09-01T08:00:36.000Z</time>
        <extensions>
          <ns3:TrackPointExtension>
            <ns3:hr>170</ns3:hr>
            <ns3:cad>47</ns3:cad>
          </ns3:TrackPointExtension>
        </extensions>
      </trkpt>
      <trkpt lat="47.53136250190436840057373046875" lon="11.005757711827754974365234375">
        <ele>1737.800048828125</ele>
        <time>2026-09-01T08:00:37.000Z</time>
        <extensions>
          <ns3:TrackPointExtension>
            <ns3:hr>169</ns3:hr>
            <ns3:cad>47</ns3:cad>
          </ns3:TrackPointExtension>
        </extensions>
      </trkpt>
      <trkpt lat="47.53137105144560337066650390625" lon="11.00577455945312976837158203125">
        <ele>1738.199951171875</ele>
        <time>2026-09-01T08:00:38.000Z</time>
        <extensions>
          <ns3:TrackPointExtension>
            <ns3:hr>167</ns3:hr>
            <ns3:cad>47</ns3:cad>
          </ns3:TrackPointExtension>
        </extensions>
      </trkpt>
      <trkpt lat="47.531385384500026702880859375" lon="11.0057753138244152069091796875">
        <ele>1738.5999755859375</ele>
        <time>2026-09-01T08:00:39.000Z</time>
        <extensions>
          <ns3:TrackPointExtension>
            <ns3:hr>166</ns3:hr>
            <ns3:cad>47</ns3:cad>
          </ns3:TrackPointExtension>
        </extensions>
      </trkpt>
      <trkpt lat="47.5314031541347503662109375" lon="11.00578143261373043060302734375">
        <ele>1738.800048828125</ele>
        <time>2026-09-01T08:00:40.000Z</time>
        <extensions>
          <ns3:TrackPointExtension>
            <ns3:hr>165</ns3:hr>
            <ns3:cad>58</ns3:cad>
          </ns3:TrackPointExtension>
        </extensions>
      </trkpt>
      <trkpt lat="47.5314237736165523529052734375" lon="11.005775146186351776123046875">
        <ele>1739.199951171875</ele>
        <time>2026-09-01T08:00:41.000Z</time>
        <extensions>
          <ns3:TrackPointExtension>
            <ns3:hr>165</ns3:hr>
            <ns3:cad>58</ns3:cad>
          </ns3:TrackPointExtension>
        </extensions>
      </trkpt>
      <trkpt lat="47.5314338319003582000732421875" lon="11.00578243844211101531982421875">
        <ele>1739.4000244140625</ele>
        <time>2026-09-01T08:00:42.000Z</time>
        <extensions>
          <ns3:TrackPointExtension>
            <ns3:hr>165</ns3:hr>
            <ns3:cad>58</ns3:cad>
          </ns3:TrackPointExtension>
        </extensions>
      </trkpt>
      <trkpt lat="47.531444393098354339599609375" lon="11.00579266436398029327392578125">
        <ele>1739.5999755859375</ele>
        <time>2026-09-01T08:00:43.000Z</time>
        <extensions>
          <ns3:TrackPointExtension>
            <ns3:hr>165</ns3:hr>
            <ns3:cad>58</ns3:cad>
          </ns3:TrackPointExtension>
        </extensions>
      </trkpt>
      <trkpt lat="47.53145704977214336395263671875" lon="11.00580322556197643280029296875">
        <ele>1740</ele>
        <time>2026-09-01T08:00:44.000Z</time>
        <extensions>
          <ns3:TrackPointExtension>
            <ns3:hr>166</ns3:hr>
            <ns3:cad>0</ns3:cad>
          </ns3:TrackPointExtension>
        </extensions>
      </trkpt>
      <trkpt lat="47.5314690358936786651611328125" lon="11.005810685455799102783203125">
        <ele>1740.199951171875</ele>
        <time>2026-09-01T08:00:45.000Z</time>
        <extensions>
          <ns3:TrackPointExtension>
            <ns3:hr>166</ns3:hr>
            <ns3:cad>0</ns3:cad>
          </ns3:TrackPointExtension>
        </extensions>
      </trkpt>
      <trkpt lat="47.53148051910102367401123046875" lon="11.00582133047282695770263671875">
        <ele>1740.5999755859375</ele>
        <time>2026-09-01T08:00:46.000Z</time>
        <extensions>
          <ns3:TrackPointExtension>
            <ns3:hr>166</ns3:hr>
            <ns3:cad>0</ns3:cad>
          </ns3:TrackPointExtension>
        </extensions>
      </trkpt>
      <trkpt lat="47.5314874760806560516357421875" lon="11.0058289580047130584716796875">
        <ele>1740.800048828125</ele>
        <time>2026-09-01T08:00:47.000Z</time>
        <extensions>
          <ns3:TrackPointExtension>
            <ns3:hr>166</ns3:hr>
            <ns3:cad>0</ns3:cad>
          </ns3:TrackPointExtension>
        </extensions>
      </trkpt>
      <trkpt lat="47.531490325927734375" lon="11.00584278814494609832763671875">
        <ele>1741</ele>
        <time>2026-09-01T08:00:48.000Z</time>
        <extensions>
          <ns3:TrackPointExtension>
            <ns3:hr>165</ns3:hr>
            <ns3:cad>0</ns3:cad>
          </ns3:TrackPointExtension>
        </extensions>
      </trkpt>
      <trkpt lat="47.53148923628032207489013671875" lon="11.00585167296230792999267578125">
        <ele>1741.199951171875</ele>
        <time>2026-09-01T08:00:49.000Z</time>
        <extensions>
          <ns3:TrackPointExtension>
            <ns3:hr>166</ns3:hr>
            <ns3:cad>0</ns3:cad>
          </ns3:TrackPointExtension>
        </extensions>
      </trkpt>
      <trkpt lat="47.53148269839584827423095703125" lon="11.00585921667516231536865234375">
        <ele>1741.4000244140625</ele>
        <time>2026-09-01T08:00:50.000Z</time>
        <extensions>
          <ns3:TrackPointExtension>
            <ns3:hr>166</ns3:hr>
            <ns3:cad>0</ns3:cad>
          </ns3:TrackPointExtension>
        </extensions>
      </trkpt>
      <trkpt lat="47.5314730592072010040283203125" lon="11.00586055777966976165771484375">
        <ele>1741.5999755859375</ele>
        <time>2026-09-01T08:00:51.000Z</time>
        <extensions>
          <ns3:TrackPointExtension>
            <ns3:hr>165</ns3:hr>
            <ns3:cad>0</ns3:cad>
          </ns3:TrackPointExtension>
        </extensions>
      </trkpt>
      <trkpt lat="47.53145939670503139495849609375" lon="11.00586198270320892333984375">
        <ele>1742</ele>
        <time>2026-09-01T08:00:52.000Z</time>
        <extensions>
          <ns3:TrackPointExtension>
            <ns3:hr>166</ns3:hr>
            <ns3:cad>0</ns3:cad>
          </ns3:TrackPointExtension>
        </extensions>
      </trkpt>
      <trkpt lat="47.53144741058349609375" lon="11.00585586391389369964599609375">
        <ele>1742.199951171875</ele>
        <time>2026-09-01T08:00:53.000Z</time>
        <extensions>
          <ns3:TrackPointExtension>
            <ns3:hr>166</ns3:hr>
            <ns3:cad>0</ns3:cad>
          </ns3:TrackPointExtension>
        </extensions>
      </trkpt>
      <trkpt lat="47.5314381904900074005126953125" lon="11.00585368461906909942626953125">
        <ele>1742.5999755859375</ele>
        <time>2026-09-01T08:00:54.000Z</time>
        <extensions>
          <ns3:TrackPointExtension>
            <ns3:hr>166</ns3:hr>
            <ns3:cad>68</ns3:cad>
          </ns3:TrackPointExtension>
        </extensions>
      </trkpt>
      <trkpt lat="47.5314281322062015533447265625" lon="11.0058547742664813995361328125">
        <ele>1743</ele>
        <time>2026-09-01T08:00:55.000Z</time>
        <extensions>
          <ns3:TrackPointExtension>
            <ns3:hr>166</ns3:hr>
            <ns3:cad>68</ns3:cad>
          </ns3:TrackPointExtension>
        </extensions>
      </trkpt>
      <trkpt lat="47.53141589462757110595703125" lon="11.00585527718067169189453125">
        <ele>1743.4000244140625</ele>
        <time>2026-09-01T08:00:56.000Z</time>
        <extensions>
          <ns3:TrackPointExtension>
            <ns3:hr>166</ns3:hr>
            <ns3:cad>68</ns3:cad>
          </ns3:TrackPointExtension>
        </extensions>
      </trkpt>
      <trkpt lat="47.53140675835311412811279296875" lon="11.0058544389903545379638671875">
        <ele>1743.800048828125</ele>
        <time>2026-09-01T08:00:57.000Z</time>
        <extensions>
          <ns3:TrackPointExtension>
            <ns3:hr>166</ns3:hr>
            <ns3:cad>65</ns3:cad>
          </ns3:TrackPointExtension>
        </extensions>
      </trkpt>
      <trkpt lat="47.5313946045935153961181640625" lon="11.0058554448187351226806640625">
        <ele>1744</ele>
        <time>2026-09-01T08:00:58.000Z</time>
        <extensions>
          <ns3:TrackPointExtension>
            <ns3:hr>166</ns3:hr>
            <ns3:cad>65</ns3:cad>
          </ns3:TrackPointExtension>
        </extensions>
      </trkpt>
      <trkpt lat="47.531380355358123779296875" lon="11.0058534331619739532470703125">
        <ele>1744.199951171875</ele>
        <time>2026-09-01T08:00:59.000Z</time>
        <extensions>
          <ns3:TrackPointExtension>
            <ns3:hr>166</ns3:hr>
            <ns3:cad>65</ns3:cad>
          </ns3:TrackPointExtension>
        </extensions>
      </trkpt>
      <trkpt lat="47.5313684530556201934814453125" lon="11.0058527626097202301025390625">
        <ele>1744.4000244140625</ele>
        <time>2026-09-01T08:01:00.000Z</time>
        <extensions>
          <ns3:TrackPointExtension>
            <ns3:hr>166</ns3:hr>
            <ns3:cad>65</ns3:cad>
          </ns3:TrackPointExtension>
        </extensions>
      </trkpt>
      <trkpt lat="47.53135361708700656890869140625" lon="11.00585251115262508392333984375">
        <ele>1744.5999755859375</ele>
        <time>2026-09-01T08:01:01.000Z</time>
        <extensions>
          <ns3:TrackPointExtension>
            <ns3:hr>166</ns3:hr>
            <ns3:cad>65</ns3:cad>
          </ns3:TrackPointExtension>
        </extensions>
      </trkpt>
      <trkpt lat="47.531341798603534698486328125" lon="11.00585469044744968414306640625">
        <ele>1745</ele>
        <time>2026-09-01T08:01:02.000Z</time>
        <extensions>
          <ns3:TrackPointExtension>
            <ns3:hr>167</ns3:hr>
            <ns3:cad>65</ns3:cad>
          </ns3:TrackPointExtension>
        </extensions>
      </trkpt>
      <trkpt lat="47.53133484162390232086181640625" lon="11.00585519336163997650146484375">
        <ele>1745.4000244140625</ele>
        <time>2026-09-01T08:01:03.000Z</time>
        <extensions>
          <ns3:TrackPointExtension>
            <ns3:hr>167</ns3:hr>
            <ns3:cad>0</ns3:cad>
          </ns3:TrackPointExtension>
        </extensions>
      </trkpt>
      <trkpt lat="47.5313238613307476043701171875" lon="11.00585703738033771514892578125">
        <ele>1745.5999755859375</ele>
        <time>2026-09-01T08:01:04.000Z</time>
        <extensions>
          <ns3:TrackPointExtension>
            <ns3:hr>167</ns3:hr>
            <ns3:cad>0</ns3:cad>
          </ns3:TrackPointExtension>
        </extensions>
      </trkpt>
      <trkpt lat="47.5313131324946880340576171875" lon="11.0058604739606380462646484375">
        <ele>1746</ele>
        <time>2026-09-01T08:01:05.000Z</time>
        <extensions>
          <ns3:TrackPointExtension>
            <ns3:hr>167</ns3:hr>
            <ns3:cad>0</ns3:cad>
          </ns3:TrackPointExtension>
        </extensions>
      </trkpt>
      <trkpt lat="47.53129963763058185577392578125" lon="11.005864329636096954345703125">
        <ele>1746.199951171875</ele>
        <time>2026-09-01T08:01:06.000Z</time>
        <extensions>
          <ns3:TrackPointExtension>
            <ns3:hr>168</ns3:hr>
            <ns3:cad>53</ns3:cad>
          </ns3:TrackPointExtension>
        </extensions>
      </trkpt>
      <trkpt lat="47.53128840588033199310302734375" lon="11.00586910732090473175048828125">
        <ele>1746.5999755859375</ele>
        <time>2026-09-01T08:01:07.000Z</time>
        <extensions>
          <ns3:TrackPointExtension>
            <ns3:hr>168</ns3:hr>
            <ns3:cad>53</ns3:cad>
          </ns3:TrackPointExtension>
        </extensions>
      </trkpt>
      <trkpt lat="47.53127910196781158447265625" lon="11.0058705322444438934326171875">
        <ele>1746.800048828125</ele>
        <time>2026-09-01T08:01:08.000Z</time>
        <extensions>
          <ns3:TrackPointExtension>
            <ns3:hr>168</ns3:hr>
            <ns3:cad>0</ns3:cad>
          </ns3:TrackPointExtension>
        </extensions>
      </trkpt>
      <trkpt lat="47.5312742404639720916748046875" lon="11.005873717367649078369140625">
        <ele>1747.199951171875</ele>
        <time>2026-09-01T08:01:09.000Z</time>
        <extensions>
          <ns3:TrackPointExtension>
            <ns3:hr>169</ns3:hr>
            <ns3:cad>0</ns3:cad>
          </ns3:TrackPointExtension>
        </extensions>
      </trkpt>
      <trkpt lat="47.53126476891338825225830078125" lon="11.0058748908340930938720703125">
        <ele>1747.4000244140625</ele>
        <time>2026-09-01T08:01:10.000Z</time>
        <extensions>
          <ns3:TrackPointExtension>
            <ns3:hr>169</ns3:hr>
            <ns3:cad>0</ns3:cad>
          </ns3:TrackPointExtension>
        </extensions>
      </trkpt>
      <trkpt lat="47.53125085495412349700927734375" lon="11.00587866269052028656005859375">
        <ele>1747.5999755859375</ele>
        <time>2026-09-01T08:01:11.000Z</time>
        <extensions>
          <ns3:TrackPointExtension>
            <ns3:hr>169</ns3:hr>
            <ns3:cad>0</ns3:cad>
          </ns3:TrackPointExtension>
        </extensions>
      </trkpt>
      <trkpt lat="47.53123811446130275726318359375" lon="11.00588067434728145599365234375">
        <ele>1747.800048828125</ele>
        <time>2026-09-01T08:01:12.000Z</time>
        <extensions>
          <ns3:TrackPointExtension>
            <ns3:hr>169</ns3:hr>
            <ns3:cad>0</ns3:cad>
          </ns3:TrackPointExtension>
        </extensions>
      </trkpt>
      <trkpt lat="47.53122570924460887908935546875" lon="11.0058826021850109100341796875">
        <ele>1747.800048828125</ele>
        <time>2026-09-01T08:01:13.000Z</time>
        <extensions>
          <ns3:TrackPointExtension>
            <ns3:hr>169</ns3:hr>
            <ns3:cad>0</ns3:cad>
          </ns3:TrackPointExtension>
        </extensions>
      </trkpt>
      <trkpt lat="47.53121414221823215484619140625" lon="11.00588419474661350250244140625">
        <ele>1748</ele>
        <time>2026-09-01T08:01:14.000Z</time>
        <extensions>
          <ns3:TrackPointExtension>
            <ns3:hr>170</ns3:hr>
            <ns3:cad>0</ns3:cad>
          </ns3:TrackPointExtension>
        </extensions>
      </trkpt>
      <trkpt lat="47.5312024913728237152099609375" lon="11.0058849491178989410400390625">
        <ele>1748.199951171875</ele>
        <time>2026-09-01T08:01:15.000Z</time>
        <extensions>
          <ns3:TrackPointExtension>
            <ns3:hr>170</ns3:hr>
            <ns3:cad>0</ns3:cad>
          </ns3:TrackPointExtension>
        </extensions>
      </trkpt>
      <trkpt lat="47.53119285218417644500732421875" lon="11.0058856196701526641845703125">
        <ele>1748.5999755859375</ele>
        <time>2026-09-01T08:01:16.000Z</time>
        <extensions>
          <ns3:TrackPointExtension>
            <ns3:hr>170</ns3:hr>
            <ns3:cad>0</ns3:cad>
          </ns3:TrackPointExtension>
        </extensions>
      </trkpt>
      <trkpt lat="47.5311853922903537750244140625" lon="11.00587715394794940948486328125">
        <ele>1748.800048828125</ele>
        <time>2026-09-01T08:01:17.000Z</time>
        <extensions>
          <ns3:TrackPointExtension>
            <ns3:hr>170</ns3:hr>
            <ns3:cad>0</ns3:cad>
          </ns3:TrackPointExtension>
        </extensions>
      </trkpt>
      <trkpt lat="47.53116913139820098876953125" lon="11.005869023501873016357421875">
        <ele>1749.199951171875</ele>
        <time>2026-09-01T08:01:18.000Z</time>
        <extensions>
          <ns3:TrackPointExtension>
            <ns3:hr>171</ns3:hr>
            <ns3:cad>0</ns3:cad>
          </ns3:TrackPointExtension>
        </extensions>
      </trkpt>
      <trkpt lat="47.53115295432507991790771484375" lon="11.005860306322574615478515625">
        <ele>1749.5999755859375</ele>
        <time>2026-09-01T08:01:19.000Z</time>
        <extensions>
          <ns3:TrackPointExtension>
            <ns3:hr>171</ns3:hr>
            <ns3:cad>51</ns3:cad>
          </ns3:TrackPointExtension>
        </extensions>
      </trkpt>
      <trkpt lat="47.53114205785095691680908203125" lon="11.00585393607616424560546875">
        <ele>1750</ele>
        <time>2026-09-01T08:01:20.000Z</time>
        <extensions>
          <ns3:TrackPointExtension>
            <ns3:hr>171</ns3:hr>
            <ns3:cad>51</ns3:cad>
          </ns3:TrackPointExtension>
        </extensions>
      </trkpt>
      <trkpt lat="47.5311304070055484771728515625" lon="11.0058484040200710296630859375">
        <ele>1750.4000244140625</ele>
        <time>2026-09-01T08:01:21.000Z</time>
        <extensions>
          <ns3:TrackPointExtension>
            <ns3:hr>171</ns3:hr>
            <ns3:cad>51</ns3:cad>
          </ns3:TrackPointExtension>
        </extensions>
      </trkpt>
      <trkpt lat="47.5311223603785037994384765625" lon="11.005844883620738983154296875">
        <ele>1750.5999755859375</ele>
        <time>2026-09-01T08:01:22.000Z</time>
        <extensions>
          <ns3:TrackPointExtension>
            <ns3:hr>172</ns3:hr>
            <ns3:cad>51</ns3:cad>
          </ns3:TrackPointExtension>
        </extensions>
      </trkpt>
      <trkpt lat="47.5311082787811756134033203125" lon="11.005838848650455474853515625">
        <ele>1751</ele>
        <time>2026-09-01T08:01:23.000Z</time>
        <extensions>
          <ns3:TrackPointExtension>
            <ns3:hr>172</ns3:hr>
            <ns3:cad>51</ns3:cad>
          </ns3:TrackPointExtension>
        </extensions>
      </trkpt>
      <trkpt lat="47.53109377808868885040283203125" lon="11.00583189167082309722900390625">
        <ele>1751.5999755859375</ele>
        <time>2026-09-01T08:01:24.000Z</time>
        <extensions>
          <ns3:TrackPointExtension>
            <ns3:hr>172</ns3:hr>
            <ns3:cad>70</ns3:cad>
          </ns3:TrackPointExtension>
        </extensions>
      </trkpt>
      <trkpt lat="47.53108522854745388031005859375" lon="11.00583113729953765869140625">
        <ele>1752</ele>
        <time>2026-09-01T08:01:25.000Z</time>
        <extensions>
          <ns3:TrackPointExtension>
            <ns3:hr>173</ns3:hr>
            <ns3:cad>70</ns3:cad>
          </ns3:TrackPointExtension>
        </extensions>
      </trkpt>
      <trkpt lat="47.53106997348368167877197265625" lon="11.0058292932808399200439453125">
        <ele>1752.199951171875</ele>
        <time>2026-09-01T08:01:26.000Z</time>
        <extensions>
          <ns3:TrackPointExtension>
            <ns3:hr>173</ns3:hr>
            <ns3:cad>0</ns3:cad>
          </ns3:TrackPointExtension>
        </extensions>
      </trkpt>
      <trkpt lat="47.531057484447956085205078125" lon="11.00582971237599849700927734375">
        <ele>1752.5999755859375</ele>
        <time>2026-09-01T08:01:27.000Z</time>
        <extensions>
          <ns3:TrackPointExtension>
            <ns3:hr>173</ns3:hr>
            <ns3:cad>0</ns3:cad>
          </ns3:TrackPointExtension>
        </extensions>
      </trkpt>
      <trkpt lat="47.53104516305029392242431640625" lon="11.00583113729953765869140625">
        <ele>1752.800048828125</ele>
        <time>2026-09-01T08:01:28.000Z</time>
        <extensions>
          <ns3:TrackPointExtension>
            <ns3:hr>173</ns3:hr>
            <ns3:cad>0</ns3:cad>
          </ns3:TrackPointExtension>
        </extensions>
      </trkpt>
      <trkpt lat="47.53103376366198062896728515625" lon="11.00583189167082309722900390625">
        <ele>1753</ele>
        <time>2026-09-01T08:01:29.000Z</time>
        <extensions>
          <ns3:TrackPointExtension>
            <ns3:hr>174</ns3:hr>
            <ns3:cad>0</ns3:cad>
          </ns3:TrackPointExtension>
        </extensions>
      </trkpt>
      <trkpt lat="47.531021274626255035400390625" lon="11.00583088584244251251220703125">
        <ele>1753.4000244140625</ele>
        <time>2026-09-01T08:01:30.000Z</time>
        <extensions>
          <ns3:TrackPointExtension>
            <ns3:hr>174</ns3:hr>
            <ns3:cad>53</ns3:cad>
          </ns3:TrackPointExtension>
        </extensions>
      </trkpt>
      <trkpt lat="47.53101490437984466552734375" lon="11.0058390162885189056396484375">
        <ele>1754</ele>
        <time>2026-09-01T08:01:31.000Z</time>
        <extensions>
          <ns3:TrackPointExtension>
            <ns3:hr>174</ns3:hr>
            <ns3:cad>53</ns3:cad>
          </ns3:TrackPointExtension>
        </extensions>
      </trkpt>
      <trkpt lat="47.53100945614278316497802734375" lon="11.00584262050688266754150390625">
        <ele>1754.4000244140625</ele>
        <time>2026-09-01T08:01:32.000Z</time>
        <extensions>
          <ns3:TrackPointExtension>
            <ns3:hr>173</ns3:hr>
            <ns3:cad>53</ns3:cad>
          </ns3:TrackPointExtension>
        </extensions>
      </trkpt>
      <trkpt lat="47.5310060195624828338623046875" lon="11.0058447159826755523681640625">
        <ele>1754.800048828125</ele>
        <time>2026-09-01T08:01:33.000Z</time>
        <extensions>
          <ns3:TrackPointExtension>
            <ns3:hr>173</ns3:hr>
            <ns3:cad>53</ns3:cad>
          </ns3:TrackPointExtension>
        </extensions>
      </trkpt>
      <trkpt lat="47.53100861795246601104736328125" lon="11.00585150532424449920654296875">
        <ele>1755.199951171875</ele>
        <time>2026-09-01T08:01:34.000Z</time>
        <extensions>
          <ns3:TrackPointExtension>
            <ns3:hr>173</ns3:hr>
            <ns3:cad>52</ns3:cad>
          </ns3:TrackPointExtension>
        </extensions>
      </trkpt>
      <trkpt lat="47.531017251312732696533203125" lon="11.00585737265646457672119140625">
        <ele>1755.199951171875</ele>
        <time>2026-09-01T08:01:35.000Z</time>
        <extensions>
          <ns3:TrackPointExtension>
            <ns3:hr>174</ns3:hr>
            <ns3:cad>51</ns3:cad>
          </ns3:TrackPointExtension>
        </extensions>
      </trkpt>
      <trkpt lat="47.5310278125107288360595703125" lon="11.00586541928350925445556640625">
        <ele>1755.199951171875</ele>
        <time>2026-09-01T08:01:36.000Z</time>
        <extensions>
          <ns3:TrackPointExtension>
            <ns3:hr>173</ns3:hr>
            <ns3:cad>50</ns3:cad>
          </ns3:TrackPointExtension>
        </extensions>
      </trkpt>
      <trkpt lat="47.53103728406131267547607421875" lon="11.00587430410087108612060546875">
        <ele>1755.199951171875</ele>
        <time>2026-09-01T08:01:37.000Z</time>
        <extensions>
          <ns3:TrackPointExtension>
            <ns3:hr>173</ns3:hr>
            <ns3:cad>50</ns3:cad>
          </ns3:TrackPointExtension>
        </extensions>
      </trkpt>
      <trkpt lat="47.53104918636381626129150390625" lon="11.00588142871856689453125">
        <ele>1755.5999755859375</ele>
        <time>2026-09-01T08:01:38.000Z</time>
        <extensions>
          <ns3:TrackPointExtension>
            <ns3:hr>173</ns3:hr>
            <ns3:cad>51</ns3:cad>
          </ns3:TrackPointExtension>
        </extensions>
      </trkpt>
      <trkpt lat="47.53106092102825641632080078125" lon="11.00588872097432613372802734375">
        <ele>1756</ele>
        <time>2026-09-01T08:01:39.000Z</time>
        <extensions>
          <ns3:TrackPointExtension>
            <ns3:hr>173</ns3:hr>
            <ns3:cad>51</ns3:cad>
          </ns3:TrackPointExtension>
        </extensions>
      </trkpt>
      <trkpt lat="47.5310764275491237640380859375" lon="11.00590045563876628875732421875">
        <ele>1756.4000244140625</ele>
        <time>2026-09-01T08:01:40.000Z</time>
        <extensions>
          <ns3:TrackPointExtension>
            <ns3:hr>174</ns3:hr>
            <ns3:cad>50</ns3:cad>
          </ns3:TrackPointExtension>
        </extensions>
      </trkpt>
      <trkpt lat="47.53108958713710308074951171875" lon="11.00591026246547698974609375">
        <ele>1756.800048828125</ele>
        <time>2026-09-01T08:01:41.000Z</time>
        <extensions>
          <ns3:TrackPointExtension>
            <ns3:hr>173</ns3:hr>
            <ns3:cad>50</ns3:cad>
          </ns3:TrackPointExtension>
        </extensions>
      </trkpt>
      <trkpt lat="47.53110165707767009735107421875" lon="11.00592174567282199859619140625">
        <ele>1757.199951171875</ele>
        <time>2026-09-01T08:01:42.000Z</time>
        <extensions>
          <ns3:TrackPointExtension>
            <ns3:hr>173</ns3:hr>
            <ns3:cad>50</ns3:cad>
          </ns3:TrackPointExtension>
        </extensions>
      </trkpt>
      <trkpt lat="47.53110936842858791351318359375" lon="11.00593163631856441497802734375">
        <ele>1757.5999755859375</ele>
        <time>2026-09-01T08:01:43.000Z</time>
        <extensions>
          <ns3:TrackPointExtension>
            <ns3:hr>172</ns3:hr>
            <ns3:cad>50</ns3:cad>
          </ns3:TrackPointExtension>
        </extensions>
      </trkpt>
      <trkpt lat="47.53112328238785266876220703125" lon="11.00594789721071720123291015625">
        <ele>1757.5999755859375</ele>
        <time>2026-09-01T08:01:44.000Z</time>
        <extensions>
          <ns3:TrackPointExtension>
            <ns3:hr>172</ns3:hr>
            <ns3:cad>50</ns3:cad>
          </ns3:TrackPointExtension>
        </extensions>
      </trkpt>
      <trkpt lat="47.53113401122391223907470703125" lon="11.00595544092357158660888671875">
        <ele>1757.800048828125</ele>
        <time>2026-09-01T08:01:45.000Z</time>
        <extensions>
          <ns3:TrackPointExtension>
            <ns3:hr>171</ns3:hr>
            <ns3:cad>50</ns3:cad>
          </ns3:TrackPointExtension>
        </extensions>
      </trkpt>
      <trkpt lat="47.53114155493676662445068359375" lon="11.0059597156941890716552734375">
        <ele>1758</ele>
        <time>2026-09-01T08:01:46.000Z</time>
        <extensions>
          <ns3:TrackPointExtension>
            <ns3:hr>169</ns3:hr>
            <ns3:cad>0</ns3:cad>
          </ns3:TrackPointExtension>
        </extensions>
      </trkpt>
      <trkpt lat="47.53115077503025531768798828125" lon="11.00596918724477291107177734375">
        <ele>1758.199951171875</ele>
        <time>2026-09-01T08:01:47.000Z</time>
        <extensions>
          <ns3:TrackPointExtension>
            <ns3:hr>167</ns3:hr>
            <ns3:cad>0</ns3:cad>
          </ns3:TrackPointExtension>
        </extensions>
      </trkpt>
      <trkpt lat="47.53115949220955371856689453125" lon="11.00597773678600788116455078125">
        <ele>1758.4000244140625</ele>
        <time>2026-09-01T08:01:48.000Z</time>
        <extensions>
          <ns3:TrackPointExtension>
            <ns3:hr>165</ns3:hr>
            <ns3:cad>55</ns3:cad>
          </ns3:TrackPointExtension>
        </extensions>
      </trkpt>
      <trkpt lat="47.531164772808551788330078125" lon="11.00598460994660854339599609375">
        <ele>1758.800048828125</ele>
        <time>2026-09-01T08:01:49.000Z</time>
        <extensions>
          <ns3:TrackPointExtension>
            <ns3:hr>163</ns3:hr>
            <ns3:cad>55</ns3:cad>
          </ns3:TrackPointExtension>
        </extensions>
      </trkpt>
      <trkpt lat="47.53117122687399387359619140625" lon="11.0059919022023677825927734375">
        <ele>1759.199951171875</ele>
        <time>2026-09-01T08:01:50.000Z</time>
        <extensions>
          <ns3:TrackPointExtension>
            <ns3:hr>163</ns3:hr>
            <ns3:cad>57</ns3:cad>
          </ns3:TrackPointExtension>
        </extensions>
      </trkpt>
      <trkpt lat="47.53117675893008708953857421875" lon="11.0059996135532855987548828125">
        <ele>1759.5999755859375</ele>
        <time>2026-09-01T08:01:51.000Z</time>
        <extensions>
          <ns3:TrackPointExtension>
            <ns3:hr>163</ns3:hr>
            <ns3:cad>57</ns3:cad>
          </ns3:TrackPointExtension>
        </extensions>
      </trkpt>
      <trkpt lat="47.53118388354778289794921875" lon="11.00600908510386943817138671875">
        <ele>1759.800048828125</ele>
        <time>2026-09-01T08:01:52.000Z</time>
        <extensions>
          <ns3:TrackPointExtension>
            <ns3:hr>163</ns3:hr>
            <ns3:cad>55</ns3:cad>
          </ns3:TrackPointExtension>
        </extensions>
      </trkpt>
      <trkpt lat="47.5311900861561298370361328125" lon="11.0060160420835018157958984375">
        <ele>1760.199951171875</ele>
        <time>2026-09-01T08:01:53.000Z</time>
        <extensions>
          <ns3:TrackPointExtension>
            <ns3:hr>163</ns3:hr>
            <ns3:cad>53</ns3:cad>
          </ns3:TrackPointExtension>
        </extensions>
      </trkpt>
      <trkpt lat="47.5311961211264133453369140625" lon="11.00601981393992900848388671875">
        <ele>1760.4000244140625</ele>
        <time>2026-09-01T08:01:54.000Z</time>
        <extensions>
          <ns3:TrackPointExtension>
            <ns3:hr>164</ns3:hr>
            <ns3:cad>53</ns3:cad>
          </ns3:TrackPointExtension>
        </extensions>
      </trkpt>
      <trkpt lat="47.53120400011539459228515625" lon="11.00602827966213226318359375">
        <ele>1760.5999755859375</ele>
        <time>2026-09-01T08:01:55.000Z</time>
        <extensions>
          <ns3:TrackPointExtension>
            <ns3:hr>163</ns3:hr>
            <ns3:cad>53</ns3:cad>
          </ns3:TrackPointExtension>
        </extensions>
      </trkpt>
      <trkpt lat="47.53121799789369106292724609375" lon="11.00603775121271610260009765625">
        <ele>1760.5999755859375</ele>
        <time>2026-09-01T08:01:56.000Z</time>
        <extensions>
          <ns3:TrackPointExtension>
            <ns3:hr>164</ns3:hr>
            <ns3:cad>53</ns3:cad>
          </ns3:TrackPointExtension>
        </extensions>
      </trkpt>
      <trkpt lat="47.53122705034911632537841796875" lon="11.0060462169349193572998046875">
        <ele>1760.5999755859375</ele>
        <time>2026-09-01T08:01:57.000Z</time>
        <extensions>
          <ns3:TrackPointExtension>
            <ns3:hr>163</ns3:hr>
            <ns3:cad>53</ns3:cad>
          </ns3:TrackPointExtension>
        </extensions>
      </trkpt>
      <trkpt lat="47.53123484551906585693359375" lon="11.00605417974293231964111328125">
        <ele>1760.800048828125</ele>
        <time>2026-09-01T08:01:58.000Z</time>
        <extensions>
          <ns3:TrackPointExtension>
            <ns3:hr>164</ns3:hr>
            <ns3:cad>0</ns3:cad>
          </ns3:TrackPointExtension>
        </extensions>
      </trkpt>
      <trkpt lat="47.5312449038028717041015625" lon="11.006056107580661773681640625">
        <ele>1761</ele>
        <time>2026-09-01T08:01:59.000Z</time>
        <extensions>
          <ns3:TrackPointExtension>
            <ns3:hr>163</ns3:hr>
            <ns3:cad>0</ns3:cad>
          </ns3:TrackPointExtension>
        </extensions>
      </trkpt>
      <trkpt lat="47.531256638467311859130859375" lon="11.0060678422451019287109375">
        <ele>1761.5999755859375</ele>
        <time>2026-09-01T08:02:00.000Z</time>
        <extensions>
          <ns3:TrackPointExtension>
            <ns3:hr>164</ns3:hr>
            <ns3:cad>0</ns3:cad>
          </ns3:TrackPointExtension>
        </extensions>
      </trkpt>
      <trkpt lat="47.53126493655145168304443359375" lon="11.0060787387192249298095703125">
        <ele>1762.199951171875</ele>
        <time>2026-09-01T08:02:01.000Z</time>
        <extensions>
          <ns3:TrackPointExtension>
            <ns3:hr>164</ns3:hr>
            <ns3:cad>0</ns3:cad>
          </ns3:TrackPointExtension>
        </extensions>
      </trkpt>
      <trkpt lat="47.53127105534076690673828125" lon="11.0060891322791576385498046875">
        <ele>1762.5999755859375</ele>
        <time>2026-09-01T08:02:02.000Z</time>
        <extensions>
          <ns3:TrackPointExtension>
            <ns3:hr>164</ns3:hr>
            <ns3:cad>53</ns3:cad>
          </ns3:TrackPointExtension>
        </extensions>
      </trkpt>
      <trkpt lat="47.53127633593976497650146484375" lon="11.00609960965812206268310546875">
        <ele>1762.800048828125</ele>
        <time>2026-09-01T08:02:03.000Z</time>
        <extensions>
          <ns3:TrackPointExtension>
            <ns3:hr>164</ns3:hr>
            <ns3:cad>53</ns3:cad>
          </ns3:TrackPointExtension>
        </extensions>
      </trkpt>
      <trkpt lat="47.53127834759652614593505859375" lon="11.0061048902571201324462890625">
        <ele>1763.199951171875</ele>
        <time>2026-09-01T08:02:04.000Z</time>
        <extensions>
          <ns3:TrackPointExtension>
            <ns3:hr>163</ns3:hr>
            <ns3:cad>53</ns3:cad>
          </ns3:TrackPointExtension>
        </extensions>
      </trkpt>
      <trkpt lat="47.5312822870910167694091796875" lon="11.006115116178989410400390625">
        <ele>1763.4000244140625</ele>
        <time>2026-09-01T08:02:05.000Z</time>
        <extensions>
          <ns3:TrackPointExtension>
            <ns3:hr>164</ns3:hr>
            <ns3:cad>53</ns3:cad>
          </ns3:TrackPointExtension>
        </extensions>
      </trkpt>
      <trkpt lat="47.53128639422357082366943359375" lon="11.00612374953925609588623046875">
        <ele>1763.5999755859375</ele>
        <time>2026-09-01T08:02:06.000Z</time>
        <extensions>
          <ns3:TrackPointExtension>
            <ns3:hr>163</ns3:hr>
            <ns3:cad>51</ns3:cad>
          </ns3:TrackPointExtension>
        </extensions>
      </trkpt>
      <trkpt lat="47.53128848969936370849609375" lon="11.00613364018499851226806640625">
        <ele>1763.800048828125</ele>
        <time>2026-09-01T08:02:07.000Z</time>
        <extensions>
          <ns3:TrackPointExtension>
            <ns3:hr>163</ns3:hr>
            <ns3:cad>51</ns3:cad>
          </ns3:TrackPointExtension>
        </extensions>
      </trkpt>
      <trkpt lat="47.53128807060420513153076171875" lon="11.0061427764594554901123046875">
        <ele>1764</ele>
        <time>2026-09-01T08:02:08.000Z</time>
        <extensions>
          <ns3:TrackPointExtension>
            <ns3:hr>162</ns3:hr>
            <ns3:cad>51</ns3:cad>
          </ns3:TrackPointExtension>
        </extensions>
      </trkpt>
      <trkpt lat="47.53128446638584136962890625" lon="11.0061437822878360748291015625">
        <ele>1764.4000244140625</ele>
        <time>2026-09-01T08:02:09.000Z</time>
        <extensions>
          <ns3:TrackPointExtension>
            <ns3:hr>161</ns3:hr>
            <ns3:cad>51</ns3:cad>
          </ns3:TrackPointExtension>
        </extensions>
      </trkpt>
      <trkpt lat="47.5312779285013675689697265625" lon="11.0061400942504405975341796875">
        <ele>1764.5999755859375</ele>
        <time>2026-09-01T08:02:10.000Z</time>
        <extensions>
          <ns3:TrackPointExtension>
            <ns3:hr>159</ns3:hr>
            <ns3:cad>51</ns3:cad>
          </ns3:TrackPointExtension>
        </extensions>
      </trkpt>
      <trkpt lat="47.53126912750303745269775390625" lon="11.0061256773769855499267578125">
        <ele>1764.5999755859375</ele>
        <time>2026-09-01T08:02:11.000Z</time>
        <extensions>
          <ns3:TrackPointExtension>
            <ns3:hr>159</ns3:hr>
            <ns3:cad>51</ns3:cad>
          </ns3:TrackPointExtension>
        </extensions>
      </trkpt>
      <trkpt lat="47.5312608294188976287841796875" lon="11.00611620582640171051025390625">
        <ele>1764.800048828125</ele>
        <time>2026-09-01T08:02:12.000Z</time>
        <extensions>
          <ns3:TrackPointExtension>
            <ns3:hr>159</ns3:hr>
            <ns3:cad>49</ns3:cad>
          </ns3:TrackPointExtension>
        </extensions>
      </trkpt>
      <trkpt lat="47.5312529504299163818359375" lon="11.00611268542706966400146484375">
        <ele>1765</ele>
        <time>2026-09-01T08:02:13.000Z</time>
        <extensions>
          <ns3:TrackPointExtension>
            <ns3:hr>158</ns3:hr>
            <ns3:cad>49</ns3:cad>
          </ns3:TrackPointExtension>
        </extensions>
      </trkpt>
      <trkpt lat="47.5312467478215694427490234375" lon="11.00611721165478229522705078125">
        <ele>1765.199951171875</ele>
        <time>2026-09-01T08:02:14.000Z</time>
        <extensions>
          <ns3:TrackPointExtension>
            <ns3:hr>158</ns3:hr>
            <ns3:cad>49</ns3:cad>
          </ns3:TrackPointExtension>
        </extensions>
      </trkpt>
      <trkpt lat="47.53123677335679531097412109375" lon="11.0061219893395900726318359375">
        <ele>1765.4000244140625</ele>
        <time>2026-09-01T08:02:15.000Z</time>
        <extensions>
          <ns3:TrackPointExtension>
            <ns3:hr>158</ns3:hr>
            <ns3:cad>49</ns3:cad>
          </ns3:TrackPointExtension>
        </extensions>
      </trkpt>
      <trkpt lat="47.53124029375612735748291015625" lon="11.0061286948621273040771484375">
        <ele>1765.800048828125</ele>
        <time>2026-09-01T08:02:16.000Z</time>
        <extensions>
          <ns3:TrackPointExtension>
            <ns3:hr>158</ns3:hr>
            <ns3:cad>49</ns3:cad>
          </ns3:TrackPointExtension>
        </extensions>
      </trkpt>
      <trkpt lat="47.53124867565929889678955078125" lon="11.00614353083074092864990234375">
        <ele>1766</ele>
        <time>2026-09-01T08:02:17.000Z</time>
        <extensions>
          <ns3:TrackPointExtension>
            <ns3:hr>158</ns3:hr>
            <ns3:cad>54</ns3:cad>
          </ns3:TrackPointExtension>
        </extensions>
      </trkpt>
      <trkpt lat="47.53125496208667755126953125" lon="11.00614906288683414459228515625">
        <ele>1766.199951171875</ele>
        <time>2026-09-01T08:02:18.000Z</time>
        <extensions>
          <ns3:TrackPointExtension>
            <ns3:hr>157</ns3:hr>
            <ns3:cad>54</ns3:cad>
          </ns3:TrackPointExtension>
        </extensions>
      </trkpt>
      <trkpt lat="47.5312598235905170440673828125" lon="11.0061491467058658599853515625">
        <ele>1766.4000244140625</ele>
        <time>2026-09-01T08:02:19.000Z</time>
        <extensions>
          <ns3:TrackPointExtension>
            <ns3:hr>157</ns3:hr>
            <ns3:cad>52</ns3:cad>
          </ns3:TrackPointExtension>
        </extensions>
      </trkpt>
      <trkpt lat="47.53126569092273712158203125" lon="11.00615208037197589874267578125">
        <ele>1766.5999755859375</ele>
        <time>2026-09-01T08:02:20.000Z</time>
        <extensions>
          <ns3:TrackPointExtension>
            <ns3:hr>157</ns3:hr>
            <ns3:cad>48</ns3:cad>
          </ns3:TrackPointExtension>
        </extensions>
      </trkpt>
      <trkpt lat="47.5312759168446063995361328125" lon="11.006159372627735137939453125">
        <ele>1766.800048828125</ele>
        <time>2026-09-01T08:02:21.000Z</time>
        <extensions>
          <ns3:TrackPointExtension>
            <ns3:hr>157</ns3:hr>
            <ns3:cad>48</ns3:cad>
          </ns3:TrackPointExtension>
        </extensions>
      </trkpt>
      <trkpt lat="47.53128069452941417694091796875" lon="11.00617622025310993194580078125">
        <ele>1767.199951171875</ele>
        <time>2026-09-01T08:02:22.000Z</time>
        <extensions>
          <ns3:TrackPointExtension>
            <ns3:hr>157</ns3:hr>
            <ns3:cad>48</ns3:cad>
          </ns3:TrackPointExtension>
        </extensions>
      </trkpt>
      <trkpt lat="47.53127465955913066864013671875" lon="11.00619114004075527191162109375">
        <ele>1767.5999755859375</ele>
        <time>2026-09-01T08:02:23.000Z</time>
        <extensions>
          <ns3:TrackPointExtension>
            <ns3:hr>157</ns3:hr>
            <ns3:cad>47</ns3:cad>
          </ns3:TrackPointExtension>
        </extensions>
      </trkpt>
      <trkpt lat="47.5312685407698154449462890625" lon="11.00619818083941936492919921875">
        <ele>1768</ele>
        <time>2026-09-01T08:02:24.000Z</time>
        <extensions>
          <ns3:TrackPointExtension>
            <ns3:hr>158</ns3:hr>
            <ns3:cad>47</ns3:cad>
          </ns3:TrackPointExtension>
        </extensions>
      </trkpt>
      <trkpt lat="47.5312598235905170440673828125" lon="11.00620354525744915008544921875">
        <ele>1768.4000244140625</ele>
        <time>2026-09-01T08:02:25.000Z</time>
        <extensions>
          <ns3:TrackPointExtension>
            <ns3:hr>158</ns3:hr>
            <ns3:cad>47</ns3:cad>
          </ns3:TrackPointExtension>
        </extensions>
      </trkpt>
      <trkpt lat="47.5312484242022037506103515625" lon="11.006198264658451080322265625">
        <ele>1768.800048828125</ele>
        <time>2026-09-01T08:02:26.000Z</time>
        <extensions>
          <ns3:TrackPointExtension>
            <ns3:hr>158</ns3:hr>
            <ns3:cad>48</ns3:cad>
          </ns3:TrackPointExtension>
        </extensions>
      </trkpt>
      <trkpt lat="47.5312330015003681182861328125" lon="11.006195582449436187744140625">
        <ele>1768.800048828125</ele>
        <time>2026-09-01T08:02:27.000Z</time>
        <extensions>
          <ns3:TrackPointExtension>
            <ns3:hr>157</ns3:hr>
            <ns3:cad>48</ns3:cad>
          </ns3:TrackPointExtension>
        </extensions>
      </trkpt>
      <trkpt lat="47.53121263347566127777099609375" lon="11.00619784556329250335693359375">
        <ele>1768.800048828125</ele>
        <time>2026-09-01T08:02:28.000Z</time>
        <extensions>
          <ns3:TrackPointExtension>
            <ns3:hr>157</ns3:hr>
            <ns3:cad>48</ns3:cad>
          </ns3:TrackPointExtension>
        </extensions>
      </trkpt>
      <trkpt lat="47.53119922243058681488037109375" lon="11.00619516335427761077880859375">
        <ele>1768.800048828125</ele>
        <time>2026-09-01T08:02:29.000Z</time>
        <extensions>
          <ns3:TrackPointExtension>
            <ns3:hr>158</ns3:hr>
            <ns3:cad>48</ns3:cad>
          </ns3:TrackPointExtension>
        </extensions>
      </trkpt>
      <trkpt lat="47.53118732012808322906494140625" lon="11.00619600154459476470947265625">
        <ele>1769</ele>
        <time>2026-09-01T08:02:30.000Z</time>
        <extensions>
          <ns3:TrackPointExtension>
            <ns3:hr>158</ns3:hr>
            <ns3:cad>48</ns3:cad>
          </ns3:TrackPointExtension>
        </extensions>
      </trkpt>
      <trkpt lat="47.53117273561656475067138671875" lon="11.00619600154459476470947265625">
        <ele>1769</ele>
        <time>2026-09-01T08:02:31.000Z</time>
        <extensions>
          <ns3:TrackPointExtension>
            <ns3:hr>158</ns3:hr>
            <ns3:cad>48</ns3:cad>
          </ns3:TrackPointExtension>
        </extensions>
      </trkpt>
      <trkpt lat="47.53115815110504627227783203125" lon="11.0061984322965145111083984375">
        <ele>1769.4000244140625</ele>
        <time>2026-09-01T08:02:32.000Z</time>
        <extensions>
          <ns3:TrackPointExtension>
            <ns3:hr>157</ns3:hr>
            <ns3:cad>48</ns3:cad>
          </ns3:TrackPointExtension>
        </extensions>
      </trkpt>
      <trkpt lat="47.53115043975412845611572265625" lon="11.006192900240421295166015625">
        <ele>1769.5999755859375</ele>
        <time>2026-09-01T08:02:33.000Z</time>
        <extensions>
          <ns3:TrackPointExtension>
            <ns3:hr>158</ns3:hr>
            <ns3:cad>68</ns3:cad>
          </ns3:TrackPointExtension>
        </extensions>
      </trkpt>
      <trkpt lat="47.53114272840321063995361328125" lon="11.00618862546980381011962890625">
        <ele>1769.800048828125</ele>
        <time>2026-09-01T08:02:34.000Z</time>
        <extensions>
          <ns3:TrackPointExtension>
            <ns3:hr>158</ns3:hr>
            <ns3:cad>68</ns3:cad>
          </ns3:TrackPointExtension>
        </extensions>
      </trkpt>
      <trkpt lat="47.531131245195865631103515625" lon="11.00618912838399410247802734375">
        <ele>1770</ele>
        <time>2026-09-01T08:02:35.000Z</time>
        <extensions>
          <ns3:TrackPointExtension>
            <ns3:hr>159</ns3:hr>
            <ns3:cad>68</ns3:cad>
          </ns3:TrackPointExtension>
        </extensions>
      </trkpt>
      <trkpt lat="47.53111439757049083709716796875" lon="11.00618787109851837158203125">
        <ele>1770.199951171875</ele>
        <time>2026-09-01T08:02:36.000Z</time>
        <extensions>
          <ns3:TrackPointExtension>
            <ns3:hr>159</ns3:hr>
            <ns3:cad>0</ns3:cad>
          </ns3:TrackPointExtension>
        </extensions>
      </trkpt>
      <trkpt lat="47.531101740896701812744140625" lon="11.006176806986331939697265625">
        <ele>1770.199951171875</ele>
        <time>2026-09-01T08:02:37.000Z</time>
        <extensions>
          <ns3:TrackPointExtension>
            <ns3:hr>159</ns3:hr>
            <ns3:cad>0</ns3:cad>
          </ns3:TrackPointExtension>
        </extensions>
      </trkpt>
      <trkpt lat="47.53108908422291278839111328125" lon="11.0061709396541118621826171875">
        <ele>1770.4000244140625</ele>
        <time>2026-09-01T08:02:38.000Z</time>
        <extensions>
          <ns3:TrackPointExtension>
            <ns3:hr>159</ns3:hr>
            <ns3:cad>51</ns3:cad>
          </ns3:TrackPointExtension>
        </extensions>
      </trkpt>
      <trkpt lat="47.53107885830104351043701171875" lon="11.00616716779768466949462890625">
        <ele>1770.5999755859375</ele>
        <time>2026-09-01T08:02:39.000Z</time>
        <extensions>
          <ns3:TrackPointExtension>
            <ns3:hr>159</ns3:hr>
            <ns3:cad>51</ns3:cad>
          </ns3:TrackPointExtension>
        </extensions>
      </trkpt>
      <trkpt lat="47.5310693867504596710205078125" lon="11.0061628930270671844482421875">
        <ele>1770.800048828125</ele>
        <time>2026-09-01T08:02:40.000Z</time>
        <extensions>
          <ns3:TrackPointExtension>
            <ns3:hr>160</ns3:hr>
            <ns3:cad>51</ns3:cad>
          </ns3:TrackPointExtension>
        </extensions>
      </trkpt>
      <trkpt lat="47.53106008283793926239013671875" lon="11.00616037845611572265625">
        <ele>1771</ele>
        <time>2026-09-01T08:02:41.000Z</time>
        <extensions>
          <ns3:TrackPointExtension>
            <ns3:hr>160</ns3:hr>
            <ns3:cad>51</ns3:cad>
          </ns3:TrackPointExtension>
        </extensions>
      </trkpt>
      <trkpt lat="47.53104851581156253814697265625" lon="11.00615945644676685333251953125">
        <ele>1771.199951171875</ele>
        <time>2026-09-01T08:02:42.000Z</time>
        <extensions>
          <ns3:TrackPointExtension>
            <ns3:hr>160</ns3:hr>
            <ns3:cad>51</ns3:cad>
          </ns3:TrackPointExtension>
        </extensions>
      </trkpt>
      <trkpt lat="47.53103435039520263671875" lon="11.0061595402657985687255859375">
        <ele>1771.4000244140625</ele>
        <time>2026-09-01T08:02:43.000Z</time>
        <extensions>
          <ns3:TrackPointExtension>
            <ns3:hr>160</ns3:hr>
            <ns3:cad>51</ns3:cad>
          </ns3:TrackPointExtension>
        </extensions>
      </trkpt>
      <trkpt lat="47.53102035261690616607666015625" lon="11.006157360970973968505859375">
        <ele>1771.800048828125</ele>
        <time>2026-09-01T08:02:44.000Z</time>
        <extensions>
          <ns3:TrackPointExtension>
            <ns3:hr>159</ns3:hr>
            <ns3:cad>53</ns3:cad>
          </ns3:TrackPointExtension>
        </extensions>
      </trkpt>
      <trkpt lat="47.5310088694095611572265625" lon="11.00615425966680049896240234375">
        <ele>1772</ele>
        <time>2026-09-01T08:02:45.000Z</time>
        <extensions>
          <ns3:TrackPointExtension>
            <ns3:hr>159</ns3:hr>
            <ns3:cad>53</ns3:cad>
          </ns3:TrackPointExtension>
        </extensions>
      </trkpt>
      <trkpt lat="47.53100057132542133331298828125" lon="11.0061504878103733062744140625">
        <ele>1772.199951171875</ele>
        <time>2026-09-01T08:02:46.000Z</time>
        <extensions>
          <ns3:TrackPointExtension>
            <ns3:hr>160</ns3:hr>
            <ns3:cad>53</ns3:cad>
          </ns3:TrackPointExtension>
        </extensions>
      </trkpt>
      <trkpt lat="47.5309922732412815093994140625" lon="11.0061444528400897979736328125">
        <ele>1772.4000244140625</ele>
        <time>2026-09-01T08:02:47.000Z</time>
        <extensions>
          <ns3:TrackPointExtension>
            <ns3:hr>160</ns3:hr>
            <ns3:cad>52</ns3:cad>
          </ns3:TrackPointExtension>
        </extensions>
      </trkpt>
      <trkpt lat="47.53098581917583942413330078125" lon="11.00614101625978946685791015625">
        <ele>1772.800048828125</ele>
        <time>2026-09-01T08:02:48.000Z</time>
        <extensions>
          <ns3:TrackPointExtension>
            <ns3:hr>160</ns3:hr>
            <ns3:cad>51</ns3:cad>
          </ns3:TrackPointExtension>
        </extensions>
      </trkpt>
      <trkpt lat="47.53097726963460445404052734375" lon="11.0061348974704742431640625">
        <ele>1773.199951171875</ele>
        <time>2026-09-01T08:02:49.000Z</time>
        <extensions>
          <ns3:TrackPointExtension>
            <ns3:hr>160</ns3:hr>
            <ns3:cad>51</ns3:cad>
          </ns3:TrackPointExtension>
        </extensions>
      </trkpt>
      <trkpt lat="47.53096872009336948394775390625" lon="11.00613447837531566619873046875">
        <ele>1773.5999755859375</ele>
        <time>2026-09-01T08:02:50.000Z</time>
        <extensions>
          <ns3:TrackPointExtension>
            <ns3:hr>161</ns3:hr>
            <ns3:cad>52</ns3:cad>
          </ns3:TrackPointExtension>
        </extensions>
      </trkpt>
      <trkpt lat="47.530960924923419952392578125" lon="11.00613347254693508148193359375">
        <ele>1773.800048828125</ele>
        <time>2026-09-01T08:02:51.000Z</time>
        <extensions>
          <ns3:TrackPointExtension>
            <ns3:hr>161</ns3:hr>
            <ns3:cad>52</ns3:cad>
          </ns3:TrackPointExtension>
        </extensions>
      </trkpt>
      <trkpt lat="47.53095178864896297454833984375" lon="11.00613933987915515899658203125">
        <ele>1774.199951171875</ele>
        <time>2026-09-01T08:02:52.000Z</time>
        <extensions>
          <ns3:TrackPointExtension>
            <ns3:hr>160</ns3:hr>
            <ns3:cad>50</ns3:cad>
          </ns3:TrackPointExtension>
        </extensions>
      </trkpt>
      <trkpt lat="47.530946843326091766357421875" lon="11.006144620478153228759765625">
        <ele>1774.4000244140625</ele>
        <time>2026-09-01T08:02:53.000Z</time>
        <extensions>
          <ns3:TrackPointExtension>
            <ns3:hr>160</ns3:hr>
            <ns3:cad>47</ns3:cad>
          </ns3:TrackPointExtension>
        </extensions>
      </trkpt>
      <trkpt lat="47.5309498608112335205078125" lon="11.0061483085155487060546875">
        <ele>1774.800048828125</ele>
        <time>2026-09-01T08:02:54.000Z</time>
        <extensions>
          <ns3:TrackPointExtension>
            <ns3:hr>160</ns3:hr>
            <ns3:cad>47</ns3:cad>
          </ns3:TrackPointExtension>
        </extensions>
      </trkpt>
      <trkpt lat="47.5309563986957073211669921875" lon="11.00614973343908786773681640625">
        <ele>1775.199951171875</ele>
        <time>2026-09-01T08:02:55.000Z</time>
        <extensions>
          <ns3:TrackPointExtension>
            <ns3:hr>161</ns3:hr>
            <ns3:cad>47</ns3:cad>
          </ns3:TrackPointExtension>
        </extensions>
      </trkpt>
      <trkpt lat="47.53096117638051509857177734375" lon="11.00615970790386199951171875">
        <ele>1775.5999755859375</ele>
        <time>2026-09-01T08:02:56.000Z</time>
        <extensions>
          <ns3:TrackPointExtension>
            <ns3:hr>161</ns3:hr>
            <ns3:cad>47</ns3:cad>
          </ns3:TrackPointExtension>
        </extensions>
      </trkpt>
      <trkpt lat="47.53096570260822772979736328125" lon="11.006162725389003753662109375">
        <ele>1776</ele>
        <time>2026-09-01T08:02:57.000Z</time>
        <extensions>
          <ns3:TrackPointExtension>
            <ns3:hr>161</ns3:hr>
            <ns3:cad>47</ns3:cad>
          </ns3:TrackPointExtension>
        </extensions>
      </trkpt>
      <trkpt lat="47.53097106702625751495361328125" lon="11.00617110729217529296875">
        <ele>1776.199951171875</ele>
        <time>2026-09-01T08:02:58.000Z</time>
        <extensions>
          <ns3:TrackPointExtension>
            <ns3:hr>161</ns3:hr>
            <ns3:cad>47</ns3:cad>
          </ns3:TrackPointExtension>
        </extensions>
      </trkpt>
      <trkpt lat="47.53097224049270153045654296875" lon="11.006174124777317047119140625">
        <ele>1776.5999755859375</ele>
        <time>2026-09-01T08:02:59.000Z</time>
        <extensions>
          <ns3:TrackPointExtension>
            <ns3:hr>160</ns3:hr>
            <ns3:cad>44</ns3:cad>
          </ns3:TrackPointExtension>
        </extensions>
      </trkpt>
      <trkpt lat="47.53097408451139926910400390625" lon="11.0061820037662982940673828125">
        <ele>1777</ele>
        <time>2026-09-01T08:03:00.000Z</time>
        <extensions>
          <ns3:TrackPointExtension>
            <ns3:hr>160</ns3:hr>
            <ns3:cad>44</ns3:cad>
          </ns3:TrackPointExtension>
        </extensions>
      </trkpt>
      <trkpt lat="47.5309791974723339080810546875" lon="11.00619046948850154876708984375">
        <ele>1777.199951171875</ele>
        <time>2026-09-01T08:03:01.000Z</time>
        <extensions>
          <ns3:TrackPointExtension>
            <ns3:hr>160</ns3:hr>
            <ns3:cad>45</ns3:cad>
          </ns3:TrackPointExtension>
        </extensions>
      </trkpt>
      <trkpt lat="47.5309899263083934783935546875" lon="11.006200276315212249755859375">
        <ele>1777.4000244140625</ele>
        <time>2026-09-01T08:03:02.000Z</time>
        <extensions>
          <ns3:TrackPointExtension>
            <ns3:hr>160</ns3:hr>
            <ns3:cad>45</ns3:cad>
          </ns3:TrackPointExtension>
        </extensions>
      </trkpt>
      <trkpt lat="47.53100442700088024139404296875" lon="11.0062175430357456207275390625">
        <ele>1777.800048828125</ele>
        <time>2026-09-01T08:03:03.000Z</time>
        <extensions>
          <ns3:TrackPointExtension>
            <ns3:hr>159</ns3:hr>
            <ns3:cad>0</ns3:cad>
          </ns3:TrackPointExtension>
        </extensions>
      </trkpt>
      <trkpt lat="47.53101364709436893463134765625" lon="11.006231792271137237548828125">
        <ele>1778.199951171875</ele>
        <time>2026-09-01T08:03:04.000Z</time>
        <extensions>
          <ns3:TrackPointExtension>
            <ns3:hr>160</ns3:hr>
            <ns3:cad>0</ns3:cad>
          </ns3:TrackPointExtension>
        </extensions>
      </trkpt>
      <trkpt lat="47.5310195982456207275390625" lon="11.00624151527881622314453125">
        <ele>1778.4000244140625</ele>
        <time>2026-09-01T08:03:05.000Z</time>
        <extensions>
          <ns3:TrackPointExtension>
            <ns3:hr>160</ns3:hr>
            <ns3:cad>53</ns3:cad>
          </ns3:TrackPointExtension>
        </extensions>
      </trkpt>
      <trkpt lat="47.53102873452007770538330078125" lon="11.00624863989651203155517578125">
        <ele>1778.5999755859375</ele>
        <time>2026-09-01T08:03:06.000Z</time>
        <extensions>
          <ns3:TrackPointExtension>
            <ns3:hr>160</ns3:hr>
            <ns3:cad>53</ns3:cad>
          </ns3:TrackPointExtension>
        </extensions>
      </trkpt>
      <trkpt lat="47.53103963099420070648193359375" lon="11.00626029074192047119140625">
        <ele>1778.800048828125</ele>
        <time>2026-09-01T08:03:07.000Z</time>
        <extensions>
          <ns3:TrackPointExtension>
            <ns3:hr>159</ns3:hr>
            <ns3:cad>53</ns3:cad>
          </ns3:TrackPointExtension>
        </extensions>
      </trkpt>
      <trkpt lat="47.5310526229441165924072265625" lon="11.00627529434859752655029296875">
        <ele>1778.800048828125</ele>
        <time>2026-09-01T08:03:08.000Z</time>
        <extensions>
          <ns3:TrackPointExtension>
            <ns3:hr>159</ns3:hr>
            <ns3:cad>50</ns3:cad>
          </ns3:TrackPointExtension>
        </extensions>
      </trkpt>
      <trkpt lat="47.5310596637427806854248046875" lon="11.00628300569951534271240234375">
        <ele>1778.800048828125</ele>
        <time>2026-09-01T08:03:09.000Z</time>
        <extensions>
          <ns3:TrackPointExtension>
            <ns3:hr>159</ns3:hr>
            <ns3:cad>50</ns3:cad>
          </ns3:TrackPointExtension>
        </extensions>
      </trkpt>
      <trkpt lat="47.53106913529336452484130859375" lon="11.00629507564008235931396484375">
        <ele>1779</ele>
        <time>2026-09-01T08:03:10.000Z</time>
        <extensions>
          <ns3:TrackPointExtension>
            <ns3:hr>159</ns3:hr>
            <ns3:cad>50</ns3:cad>
          </ns3:TrackPointExtension>
        </extensions>
      </trkpt>
      <trkpt lat="47.531076930463314056396484375" lon="11.006302870810031890869140625">
        <ele>1779.199951171875</ele>
        <time>2026-09-01T08:03:11.000Z</time>
        <extensions>
          <ns3:TrackPointExtension>
            <ns3:hr>159</ns3:hr>
            <ns3:cad>50</ns3:cad>
          </ns3:TrackPointExtension>
        </extensions>
      </trkpt>
      <trkpt lat="47.53108589909970760345458984375" lon="11.006312929093837738037109375">
        <ele>1779.5999755859375</ele>
        <time>2026-09-01T08:03:12.000Z</time>
        <extensions>
          <ns3:TrackPointExtension>
            <ns3:hr>159</ns3:hr>
            <ns3:cad>50</ns3:cad>
          </ns3:TrackPointExtension>
        </extensions>
      </trkpt>
      <trkpt lat="47.5310955382883548736572265625" lon="11.0063241608440876007080078125">
        <ele>1779.800048828125</ele>
        <time>2026-09-01T08:03:13.000Z</time>
        <extensions>
          <ns3:TrackPointExtension>
            <ns3:hr>160</ns3:hr>
            <ns3:cad>50</ns3:cad>
          </ns3:TrackPointExtension>
        </extensions>
      </trkpt>
      <trkpt lat="47.5311035849153995513916015625" lon="11.00633245892822742462158203125">
        <ele>1780.199951171875</ele>
        <time>2026-09-01T08:03:14.000Z</time>
        <extensions>
          <ns3:TrackPointExtension>
            <ns3:hr>159</ns3:hr>
            <ns3:cad>52</ns3:cad>
          </ns3:TrackPointExtension>
        </extensions>
      </trkpt>
      <trkpt lat="47.5311123020946979522705078125" lon="11.0063409246504306793212890625">
        <ele>1780.4000244140625</ele>
        <time>2026-09-01T08:03:15.000Z</time>
        <extensions>
          <ns3:TrackPointExtension>
            <ns3:hr>159</ns3:hr>
            <ns3:cad>52</ns3:cad>
          </ns3:TrackPointExtension>
        </extensions>
      </trkpt>
      <trkpt lat="47.53112194128334522247314453125" lon="11.006346456706523895263671875">
        <ele>1780.5999755859375</ele>
        <time>2026-09-01T08:03:16.000Z</time>
        <extensions>
          <ns3:TrackPointExtension>
            <ns3:hr>159</ns3:hr>
            <ns3:cad>52</ns3:cad>
          </ns3:TrackPointExtension>
        </extensions>
      </trkpt>
      <trkpt lat="47.5311322510242462158203125" lon="11.0063586942851543426513671875">
        <ele>1781</ele>
        <time>2026-09-01T08:03:17.000Z</time>
        <extensions>
          <ns3:TrackPointExtension>
            <ns3:hr>159</ns3:hr>
            <ns3:cad>52</ns3:cad>
          </ns3:TrackPointExtension>
        </extensions>
      </trkpt>
      <trkpt lat="47.53114289604127407073974609375" lon="11.00636514835059642791748046875">
        <ele>1781.199951171875</ele>
        <time>2026-09-01T08:03:18.000Z</time>
        <extensions>
          <ns3:TrackPointExtension>
            <ns3:hr>159</ns3:hr>
            <ns3:cad>52</ns3:cad>
          </ns3:TrackPointExtension>
        </extensions>
      </trkpt>
      <trkpt lat="47.5311538763344287872314453125" lon="11.006374619901180267333984375">
        <ele>1781.4000244140625</ele>
        <time>2026-09-01T08:03:19.000Z</time>
        <extensions>
          <ns3:TrackPointExtension>
            <ns3:hr>160</ns3:hr>
            <ns3:cad>53</ns3:cad>
          </ns3:TrackPointExtension>
        </extensions>
      </trkpt>
      <trkpt lat="47.53116737119853496551513671875" lon="11.00638442672789096832275390625">
        <ele>1781.800048828125</ele>
        <time>2026-09-01T08:03:20.000Z</time>
        <extensions>
          <ns3:TrackPointExtension>
            <ns3:hr>159</ns3:hr>
            <ns3:cad>54</ns3:cad>
          </ns3:TrackPointExtension>
        </extensions>
      </trkpt>
      <trkpt lat="47.5311786867678165435791015625" lon="11.00639213807880878448486328125">
        <ele>1782</ele>
        <time>2026-09-01T08:03:21.000Z</time>
        <extensions>
          <ns3:TrackPointExtension>
            <ns3:hr>159</ns3:hr>
            <ns3:cad>55</ns3:cad>
          </ns3:TrackPointExtension>
        </extensions>
      </trkpt>
      <trkpt lat="47.53118698485195636749267578125" lon="11.0064017772674560546875">
        <ele>1782.199951171875</ele>
        <time>2026-09-01T08:03:22.000Z</time>
        <extensions>
          <ns3:TrackPointExtension>
            <ns3:hr>159</ns3:hr>
            <ns3:cad>55</ns3:cad>
          </ns3:TrackPointExtension>
        </extensions>
      </trkpt>
      <trkpt lat="47.53119402565062046051025390625" lon="11.006408818066120147705078125">
        <ele>1782.4000244140625</ele>
        <time>2026-09-01T08:03:23.000Z</time>
        <extensions>
          <ns3:TrackPointExtension>
            <ns3:hr>159</ns3:hr>
            <ns3:cad>54</ns3:cad>
          </ns3:TrackPointExtension>
        </extensions>
      </trkpt>
      <trkpt lat="47.5311994738876819610595703125" lon="11.00641409866511821746826171875">
        <ele>1782.5999755859375</ele>
        <time>2026-09-01T08:03:24.000Z</time>
        <extensions>
          <ns3:TrackPointExtension>
            <ns3:hr>159</ns3:hr>
            <ns3:cad>53</ns3:cad>
          </ns3:TrackPointExtension>
        </extensions>
      </trkpt>
      <trkpt lat="47.53119620494544506072998046875" lon="11.006418205797672271728515625">
        <ele>1782.800048828125</ele>
        <time>2026-09-01T08:03:25.000Z</time>
        <extensions>
          <ns3:TrackPointExtension>
            <ns3:hr>159</ns3:hr>
            <ns3:cad>53</ns3:cad>
          </ns3:TrackPointExtension>
        </extensions>
      </trkpt>
      <trkpt lat="47.5311887450516223907470703125" lon="11.00641896016895771026611328125">
        <ele>1783.199951171875</ele>
        <time>2026-09-01T08:03:26.000Z</time>
        <extensions>
          <ns3:TrackPointExtension>
            <ns3:hr>159</ns3:hr>
            <ns3:cad>51</ns3:cad>
          </ns3:TrackPointExtension>
        </extensions>
      </trkpt>
      <trkpt lat="47.531179524958133697509765625" lon="11.0064180381596088409423828125">
        <ele>1783.4000244140625</ele>
        <time>2026-09-01T08:03:27.000Z</time>
        <extensions>
          <ns3:TrackPointExtension>
            <ns3:hr>160</ns3:hr>
            <ns3:cad>51</ns3:cad>
          </ns3:TrackPointExtension>
        </extensions>
      </trkpt>
      <trkpt lat="47.53116871230304241180419921875" lon="11.00641527213156223297119140625">
        <ele>1783.5999755859375</ele>
        <time>2026-09-01T08:03:28.000Z</time>
        <extensions>
          <ns3:TrackPointExtension>
            <ns3:hr>160</ns3:hr>
            <ns3:cad>51</ns3:cad>
          </ns3:TrackPointExtension>
        </extensions>
      </trkpt>
      <trkpt lat="47.5311565585434436798095703125" lon="11.0064140148460865020751953125">
        <ele>1784</ele>
        <time>2026-09-01T08:03:29.000Z</time>
        <extensions>
          <ns3:TrackPointExtension>
            <ns3:hr>160</ns3:hr>
            <ns3:cad>53</ns3:cad>
          </ns3:TrackPointExtension>
        </extensions>
      </trkpt>
      <trkpt lat="47.531143985688686370849609375" lon="11.00641225464642047882080078125">
        <ele>1784.199951171875</ele>
        <time>2026-09-01T08:03:30.000Z</time>
        <extensions>
          <ns3:TrackPointExtension>
            <ns3:hr>160</ns3:hr>
            <ns3:cad>53</ns3:cad>
          </ns3:TrackPointExtension>
        </extensions>
      </trkpt>
      <trkpt lat="47.5311304070055484771728515625" lon="11.0064089857041835784912109375">
        <ele>1784.5999755859375</ele>
        <time>2026-09-01T08:03:31.000Z</time>
        <extensions>
          <ns3:TrackPointExtension>
            <ns3:hr>160</ns3:hr>
            <ns3:cad>48</ns3:cad>
          </ns3:TrackPointExtension>
        </extensions>
      </trkpt>
      <trkpt lat="47.5311190076172351837158203125" lon="11.0064036212861537933349609375">
        <ele>1784.800048828125</ele>
        <time>2026-09-01T08:03:32.000Z</time>
        <extensions>
          <ns3:TrackPointExtension>
            <ns3:hr>160</ns3:hr>
            <ns3:cad>48</ns3:cad>
          </ns3:TrackPointExtension>
        </extensions>
      </trkpt>
      <trkpt lat="47.5311069376766681671142578125" lon="11.0064009390771389007568359375">
        <ele>1785</ele>
        <time>2026-09-01T08:03:33.000Z</time>
        <extensions>
          <ns3:TrackPointExtension>
            <ns3:hr>160</ns3:hr>
            <ns3:cad>48</ns3:cad>
          </ns3:TrackPointExtension>
        </extensions>
      </trkpt>
      <trkpt lat="47.53108908422291278839111328125" lon="11.006405465304851531982421875">
        <ele>1785</ele>
        <time>2026-09-01T08:03:34.000Z</time>
        <extensions>
          <ns3:TrackPointExtension>
            <ns3:hr>159</ns3:hr>
            <ns3:cad>48</ns3:cad>
          </ns3:TrackPointExtension>
        </extensions>
      </trkpt>
      <trkpt lat="47.53107391297817230224609375" lon="11.00640487857162952423095703125">
        <ele>1785.199951171875</ele>
        <time>2026-09-01T08:03:35.000Z</time>
        <extensions>
          <ns3:TrackPointExtension>
            <ns3:hr>159</ns3:hr>
            <ns3:cad>53</ns3:cad>
          </ns3:TrackPointExtension>
        </extensions>
      </trkpt>
      <trkpt lat="47.53106343559920787811279296875" lon="11.0064006038010120391845703125">
        <ele>1785.4000244140625</ele>
        <time>2026-09-01T08:03:36.000Z</time>
        <extensions>
          <ns3:TrackPointExtension>
            <ns3:hr>159</ns3:hr>
            <ns3:cad>53</ns3:cad>
          </ns3:TrackPointExtension>
        </extensions>
      </trkpt>
      <trkpt lat="47.5310522876679897308349609375" lon="11.00639968179166316986083984375">
        <ele>1785.5999755859375</ele>
        <time>2026-09-01T08:03:37.000Z</time>
        <extensions>
          <ns3:TrackPointExtension>
            <ns3:hr>159</ns3:hr>
            <ns3:cad>53</ns3:cad>
          </ns3:TrackPointExtension>
        </extensions>
      </trkpt>
      <trkpt lat="47.5310368649661540985107421875" lon="11.00640370510518550872802734375">
        <ele>1785.800048828125</ele>
        <time>2026-09-01T08:03:38.000Z</time>
        <extensions>
          <ns3:TrackPointExtension>
            <ns3:hr>158</ns3:hr>
            <ns3:cad>53</ns3:cad>
          </ns3:TrackPointExtension>
        </extensions>
      </trkpt>
      <trkpt lat="47.5310234539210796356201171875" lon="11.006401441991329193115234375">
        <ele>1786</ele>
        <time>2026-09-01T08:03:39.000Z</time>
        <extensions>
          <ns3:TrackPointExtension>
            <ns3:hr>159</ns3:hr>
            <ns3:cad>61</ns3:cad>
          </ns3:TrackPointExtension>
        </extensions>
      </trkpt>
      <trkpt lat="47.53101146779954433441162109375" lon="11.006400771439075469970703125">
        <ele>1786.199951171875</ele>
        <time>2026-09-01T08:03:40.000Z</time>
        <extensions>
          <ns3:TrackPointExtension>
            <ns3:hr>158</ns3:hr>
            <ns3:cad>66</ns3:cad>
          </ns3:TrackPointExtension>
        </extensions>
      </trkpt>
      <trkpt lat="47.5309983082115650177001953125" lon="11.006400100886821746826171875">
        <ele>1786.4000244140625</ele>
        <time>2026-09-01T08:03:41.000Z</time>
        <extensions>
          <ns3:TrackPointExtension>
            <ns3:hr>158</ns3:hr>
            <ns3:cad>66</ns3:cad>
          </ns3:TrackPointExtension>
        </extensions>
      </trkpt>
      <trkpt lat="47.53098540008068084716796875" lon="11.006398759782314300537109375">
        <ele>1786.5999755859375</ele>
        <time>2026-09-01T08:03:42.000Z</time>
        <extensions>
          <ns3:TrackPointExtension>
            <ns3:hr>158</ns3:hr>
            <ns3:cad>66</ns3:cad>
          </ns3:TrackPointExtension>
        </extensions>
      </trkpt>
      <trkpt lat="47.5309740006923675537109375" lon="11.00639708340167999267578125">
        <ele>1786.800048828125</ele>
        <time>2026-09-01T08:03:43.000Z</time>
        <extensions>
          <ns3:TrackPointExtension>
            <ns3:hr>158</ns3:hr>
            <ns3:cad>53</ns3:cad>
          </ns3:TrackPointExtension>
        </extensions>
      </trkpt>
      <trkpt lat="47.53096419386565685272216796875" lon="11.00639549084007740020751953125">
        <ele>1787.199951171875</ele>
        <time>2026-09-01T08:03:44.000Z</time>
        <extensions>
          <ns3:TrackPointExtension>
            <ns3:hr>158</ns3:hr>
            <ns3:cad>53</ns3:cad>
          </ns3:TrackPointExtension>
        </extensions>
      </trkpt>
      <trkpt lat="47.53095597960054874420166015625" lon="11.00639440119266510009765625">
        <ele>1787.5999755859375</ele>
        <time>2026-09-01T08:03:45.000Z</time>
        <extensions>
          <ns3:TrackPointExtension>
            <ns3:hr>158</ns3:hr>
            <ns3:cad>53</ns3:cad>
          </ns3:TrackPointExtension>
        </extensions>
      </trkpt>
      <trkpt lat="47.5309470109641551971435546875" lon="11.00639264099299907684326171875">
        <ele>1788</ele>
        <time>2026-09-01T08:03:46.000Z</time>
        <extensions>
          <ns3:TrackPointExtension>
            <ns3:hr>158</ns3:hr>
            <ns3:cad>53</ns3:cad>
          </ns3:TrackPointExtension>
        </extensions>
      </trkpt>
      <trkpt lat="47.53093636594712734222412109375" lon="11.00638912059366703033447265625">
        <ele>1788.199951171875</ele>
        <time>2026-09-01T08:03:47.000Z</time>
        <extensions>
          <ns3:TrackPointExtension>
            <ns3:hr>158</ns3:hr>
            <ns3:cad>53</ns3:cad>
          </ns3:TrackPointExtension>
        </extensions>
      </trkpt>
      <trkpt lat="47.53092412836849689483642578125" lon="11.006388366222381591796875">
        <ele>1788.5999755859375</ele>
        <time>2026-09-01T08:03:48.000Z</time>
        <extensions>
          <ns3:TrackPointExtension>
            <ns3:hr>158</ns3:hr>
            <ns3:cad>53</ns3:cad>
          </ns3:TrackPointExtension>
        </extensions>
      </trkpt>
      <trkpt lat="47.5309138186275959014892578125" lon="11.00638811476528644561767578125">
        <ele>1789</ele>
        <time>2026-09-01T08:03:49.000Z</time>
        <extensions>
          <ns3:TrackPointExtension>
            <ns3:hr>158</ns3:hr>
            <ns3:cad>53</ns3:cad>
          </ns3:TrackPointExtension>
        </extensions>
      </trkpt>
      <trkpt lat="47.53090627491474151611328125" lon="11.006388701498508453369140625">
        <ele>1789.4000244140625</ele>
        <time>2026-09-01T08:03:50.000Z</time>
        <extensions>
          <ns3:TrackPointExtension>
            <ns3:hr>158</ns3:hr>
            <ns3:cad>53</ns3:cad>
          </ns3:TrackPointExtension>
        </extensions>
      </trkpt>
      <trkpt lat="47.53090149722993373870849609375" lon="11.0063897073268890380859375">
        <ele>1789.800048828125</ele>
        <time>2026-09-01T08:03:51.000Z</time>
        <extensions>
          <ns3:TrackPointExtension>
            <ns3:hr>158</ns3:hr>
            <ns3:cad>52</ns3:cad>
          </ns3:TrackPointExtension>
        </extensions>
      </trkpt>
      <trkpt lat="47.53089931793510913848876953125" lon="11.006394736468791961669921875">
        <ele>1790</ele>
        <time>2026-09-01T08:03:52.000Z</time>
        <extensions>
          <ns3:TrackPointExtension>
            <ns3:hr>158</ns3:hr>
            <ns3:cad>52</ns3:cad>
          </ns3:TrackPointExtension>
        </extensions>
      </trkpt>
      <trkpt lat="47.530897893011569976806640625" lon="11.00640110671520233154296875">
        <ele>1790.199951171875</ele>
        <time>2026-09-01T08:03:53.000Z</time>
        <extensions>
          <ns3:TrackPointExtension>
            <ns3:hr>159</ns3:hr>
            <ns3:cad>52</ns3:cad>
          </ns3:TrackPointExtension>
        </extensions>
      </trkpt>
      <trkpt lat="47.5308943726122379302978515625" lon="11.00640756078064441680908203125">
        <ele>1790.4000244140625</ele>
        <time>2026-09-01T08:03:54.000Z</time>
        <extensions>
          <ns3:TrackPointExtension>
            <ns3:hr>159</ns3:hr>
            <ns3:cad>52</ns3:cad>
          </ns3:TrackPointExtension>
        </extensions>
      </trkpt>
      <trkpt lat="47.53089278005063533782958984375" lon="11.00641175173223018646240234375">
        <ele>1790.4000244140625</ele>
        <time>2026-09-01T08:03:55.000Z</time>
        <extensions>
          <ns3:TrackPointExtension>
            <ns3:hr>159</ns3:hr>
            <ns3:cad>53</ns3:cad>
          </ns3:TrackPointExtension>
        </extensions>
      </trkpt>
      <trkpt lat="47.5308940373361110687255859375" lon="11.0064234025776386260986328125">
        <ele>1790.5999755859375</ele>
        <time>2026-09-01T08:03:56.000Z</time>
        <extensions>
          <ns3:TrackPointExtension>
            <ns3:hr>158</ns3:hr>
            <ns3:cad>53</ns3:cad>
          </ns3:TrackPointExtension>
        </extensions>
      </trkpt>
      <trkpt lat="47.5308950431644916534423828125" lon="11.0064274258911609649658203125">
        <ele>1790.800048828125</ele>
        <time>2026-09-01T08:03:57.000Z</time>
        <extensions>
          <ns3:TrackPointExtension>
            <ns3:hr>158</ns3:hr>
            <ns3:cad>50</ns3:cad>
          </ns3:TrackPointExtension>
        </extensions>
      </trkpt>
      <trkpt lat="47.530897893011569976806640625" lon="11.00643195211887359619140625">
        <ele>1791.199951171875</ele>
        <time>2026-09-01T08:03:58.000Z</time>
        <extensions>
          <ns3:TrackPointExtension>
            <ns3:hr>157</ns3:hr>
            <ns3:cad>48</ns3:cad>
          </ns3:TrackPointExtension>
        </extensions>
      </trkpt>
      <trkpt lat="47.5309014134109020233154296875" lon="11.00643455050885677337646484375">
        <ele>1791.5999755859375</ele>
        <time>2026-09-01T08:03:59.000Z</time>
        <extensions>
          <ns3:TrackPointExtension>
            <ns3:hr>157</ns3:hr>
            <ns3:cad>48</ns3:cad>
          </ns3:TrackPointExtension>
        </extensions>
      </trkpt>
      <trkpt lat="47.53090627491474151611328125" lon="11.00644075311720371246337890625">
        <ele>1791.800048828125</ele>
        <time>2026-09-01T08:04:00.000Z</time>
        <extensions>
          <ns3:TrackPointExtension>
            <ns3:hr>158</ns3:hr>
            <ns3:cad>48</ns3:cad>
          </ns3:TrackPointExtension>
        </extensions>
      </trkpt>
      <trkpt lat="47.5309248827397823333740234375" lon="11.00646003149449825286865234375">
        <ele>1792.199951171875</ele>
        <time>2026-09-01T08:04:01.000Z</time>
        <extensions>
          <ns3:TrackPointExtension>
            <ns3:hr>158</ns3:hr>
            <ns3:cad>48</ns3:cad>
          </ns3:TrackPointExtension>
        </extensions>
      </trkpt>
      <trkpt lat="47.5309289060533046722412109375" lon="11.0064643062651157379150390625">
        <ele>1792.5999755859375</ele>
        <time>2026-09-01T08:04:02.000Z</time>
        <extensions>
          <ns3:TrackPointExtension>
            <ns3:hr>158</ns3:hr>
            <ns3:cad>48</ns3:cad>
          </ns3:TrackPointExtension>
        </extensions>
      </trkpt>
      <trkpt lat="47.53093385137617588043212890625" lon="11.00646455772221088409423828125">
        <ele>1793</ele>
        <time>2026-09-01T08:04:03.000Z</time>
        <extensions>
          <ns3:TrackPointExtension>
            <ns3:hr>157</ns3:hr>
            <ns3:cad>48</ns3:cad>
          </ns3:TrackPointExtension>
        </extensions>
      </trkpt>
      <trkpt lat="47.5309409759938716888427734375" lon="11.0064773820340633392333984375">
        <ele>1793.4000244140625</ele>
        <time>2026-09-01T08:04:04.000Z</time>
        <extensions>
          <ns3:TrackPointExtension>
            <ns3:hr>158</ns3:hr>
            <ns3:cad>48</ns3:cad>
          </ns3:TrackPointExtension>
        </extensions>
      </trkpt>
      <trkpt lat="47.530945837497711181640625" lon="11.00649205036461353302001953125">
        <ele>1793.5999755859375</ele>
        <time>2026-09-01T08:04:05.000Z</time>
        <extensions>
          <ns3:TrackPointExtension>
            <ns3:hr>158</ns3:hr>
            <ns3:cad>48</ns3:cad>
          </ns3:TrackPointExtension>
        </extensions>
      </trkpt>
      <trkpt lat="47.5309525430202484130859375" lon="11.006510071456432342529296875">
        <ele>1794</ele>
        <time>2026-09-01T08:04:06.000Z</time>
        <extensions>
          <ns3:TrackPointExtension>
            <ns3:hr>159</ns3:hr>
            <ns3:cad>48</ns3:cad>
          </ns3:TrackPointExtension>
        </extensions>
      </trkpt>
      <trkpt lat="47.53096100874245166778564453125" lon="11.00652591325342655181884765625">
        <ele>1794.199951171875</ele>
        <time>2026-09-01T08:04:07.000Z</time>
        <extensions>
          <ns3:TrackPointExtension>
            <ns3:hr>159</ns3:hr>
            <ns3:cad>50</ns3:cad>
          </ns3:TrackPointExtension>
        </extensions>
      </trkpt>
      <trkpt lat="47.53095991909503936767578125" lon="11.00653664208948612213134765625">
        <ele>1794.4000244140625</ele>
        <time>2026-09-01T08:04:08.000Z</time>
        <extensions>
          <ns3:TrackPointExtension>
            <ns3:hr>158</ns3:hr>
            <ns3:cad>50</ns3:cad>
          </ns3:TrackPointExtension>
        </extensions>
      </trkpt>
      <trkpt lat="47.53095245920121669769287109375" lon="11.00653613917529582977294921875">
        <ele>1794.4000244140625</ele>
        <time>2026-09-01T08:04:09.000Z</time>
        <extensions>
          <ns3:TrackPointExtension>
            <ns3:hr>158</ns3:hr>
            <ns3:cad>45</ns3:cad>
          </ns3:TrackPointExtension>
        </extensions>
      </trkpt>
      <trkpt lat="47.530945837497711181640625" lon="11.00653144530951976776123046875">
        <ele>1794.5999755859375</ele>
        <time>2026-09-01T08:04:10.000Z</time>
        <extensions>
          <ns3:TrackPointExtension>
            <ns3:hr>158</ns3:hr>
            <ns3:cad>44</ns3:cad>
          </ns3:TrackPointExtension>
        </extensions>
      </trkpt>
      <trkpt lat="47.53094105981290340423583984375" lon="11.0065310262143611907958984375">
        <ele>1794.800048828125</ele>
        <time>2026-09-01T08:04:11.000Z</time>
        <extensions>
          <ns3:TrackPointExtension>
            <ns3:hr>157</ns3:hr>
            <ns3:cad>43</ns3:cad>
          </ns3:TrackPointExtension>
        </extensions>
      </trkpt>
      <trkpt lat="47.53093309700489044189453125" lon="11.00653463043272495269775390625">
        <ele>1794.800048828125</ele>
        <time>2026-09-01T08:04:12.000Z</time>
        <extensions>
          <ns3:TrackPointExtension>
            <ns3:hr>157</ns3:hr>
            <ns3:cad>43</ns3:cad>
          </ns3:TrackPointExtension>
        </extensions>
      </trkpt>
      <trkpt lat="47.53092681057751178741455078125" lon="11.00653898902237415313720703125">
        <ele>1795</ele>
        <time>2026-09-01T08:04:13.000Z</time>
        <extensions>
          <ns3:TrackPointExtension>
            <ns3:hr>158</ns3:hr>
            <ns3:cad>43</ns3:cad>
          </ns3:TrackPointExtension>
        </extensions>
      </trkpt>
      <trkpt lat="47.53092060796916484832763671875" lon="11.00653924047946929931640625">
        <ele>1795.199951171875</ele>
        <time>2026-09-01T08:04:14.000Z</time>
        <extensions>
          <ns3:TrackPointExtension>
            <ns3:hr>158</ns3:hr>
            <ns3:cad>44</ns3:cad>
          </ns3:TrackPointExtension>
        </extensions>
      </trkpt>
      <trkpt lat="47.53091633319854736328125" lon="11.006538234651088714599609375">
        <ele>1795.199951171875</ele>
        <time>2026-09-01T08:04:15.000Z</time>
        <extensions>
          <ns3:TrackPointExtension>
            <ns3:hr>158</ns3:hr>
            <ns3:cad>47</ns3:cad>
          </ns3:TrackPointExtension>
        </extensions>
      </trkpt>
      <trkpt lat="47.530912645161151885986328125" lon="11.00653764791786670684814453125">
        <ele>1795.4000244140625</ele>
        <time>2026-09-01T08:04:16.000Z</time>
        <extensions>
          <ns3:TrackPointExtension>
            <ns3:hr>158</ns3:hr>
            <ns3:cad>48</ns3:cad>
          </ns3:TrackPointExtension>
        </extensions>
      </trkpt>
      <trkpt lat="47.53090820275247097015380859375" lon="11.00654167123138904571533203125">
        <ele>1795.5999755859375</ele>
        <time>2026-09-01T08:04:17.000Z</time>
        <extensions>
          <ns3:TrackPointExtension>
            <ns3:hr>158</ns3:hr>
            <ns3:cad>48</ns3:cad>
          </ns3:TrackPointExtension>
        </extensions>
      </trkpt>
      <trkpt lat="47.530900575220584869384765625" lon="11.00654703564941883087158203125">
        <ele>1796</ele>
        <time>2026-09-01T08:04:18.000Z</time>
        <extensions>
          <ns3:TrackPointExtension>
            <ns3:hr>158</ns3:hr>
            <ns3:cad>47</ns3:cad>
          </ns3:TrackPointExtension>
        </extensions>
      </trkpt>
      <trkpt lat="47.5308943726122379302978515625" lon="11.0065447725355625152587890625">
        <ele>1796.4000244140625</ele>
        <time>2026-09-01T08:04:19.000Z</time>
        <extensions>
          <ns3:TrackPointExtension>
            <ns3:hr>159</ns3:hr>
            <ns3:cad>47</ns3:cad>
          </ns3:TrackPointExtension>
        </extensions>
      </trkpt>
      <trkpt lat="47.53088473342359066009521484375" lon="11.0065384022891521453857421875">
        <ele>1797</ele>
        <time>2026-09-01T08:04:20.000Z</time>
        <extensions>
          <ns3:TrackPointExtension>
            <ns3:hr>159</ns3:hr>
            <ns3:cad>47</ns3:cad>
          </ns3:TrackPointExtension>
        </extensions>
      </trkpt>
      <trkpt lat="47.530877105891704559326171875" lon="11.006538234651088714599609375">
        <ele>1797.199951171875</ele>
        <time>2026-09-01T08:04:21.000Z</time>
        <extensions>
          <ns3:TrackPointExtension>
            <ns3:hr>159</ns3:hr>
            <ns3:cad>47</ns3:cad>
          </ns3:TrackPointExtension>
        </extensions>
      </trkpt>
      <trkpt lat="47.53086679615080356597900390625" lon="11.00653446279466152191162109375">
        <ele>1797.5999755859375</ele>
        <time>2026-09-01T08:04:22.000Z</time>
        <extensions>
          <ns3:TrackPointExtension>
            <ns3:hr>160</ns3:hr>
            <ns3:cad>47</ns3:cad>
          </ns3:TrackPointExtension>
        </extensions>
      </trkpt>
      <trkpt lat="47.53085757605731487274169921875" lon="11.00653060711920261383056640625">
        <ele>1797.5999755859375</ele>
        <time>2026-09-01T08:04:23.000Z</time>
        <extensions>
          <ns3:TrackPointExtension>
            <ns3:hr>159</ns3:hr>
            <ns3:cad>47</ns3:cad>
          </ns3:TrackPointExtension>
        </extensions>
      </trkpt>
      <trkpt lat="47.53084726631641387939453125" lon="11.00653278641402721405029296875">
        <ele>1797.5999755859375</ele>
        <time>2026-09-01T08:04:24.000Z</time>
        <extensions>
          <ns3:TrackPointExtension>
            <ns3:hr>159</ns3:hr>
            <ns3:cad>48</ns3:cad>
          </ns3:TrackPointExtension>
        </extensions>
      </trkpt>
      <trkpt lat="47.5308358669281005859375" lon="11.0065280087292194366455078125">
        <ele>1797.5999755859375</ele>
        <time>2026-09-01T08:04:25.000Z</time>
        <extensions>
          <ns3:TrackPointExtension>
            <ns3:hr>159</ns3:hr>
            <ns3:cad>50</ns3:cad>
          </ns3:TrackPointExtension>
        </extensions>
      </trkpt>
      <trkpt lat="47.530822791159152984619140625" lon="11.00652473978698253631591796875">
        <ele>1797.800048828125</ele>
        <time>2026-09-01T08:04:26.000Z</time>
        <extensions>
          <ns3:TrackPointExtension>
            <ns3:hr>160</ns3:hr>
            <ns3:cad>50</ns3:cad>
          </ns3:TrackPointExtension>
        </extensions>
      </trkpt>
      <trkpt lat="47.53081239759922027587890625" lon="11.0065243206918239593505859375">
        <ele>1797.800048828125</ele>
        <time>2026-09-01T08:04:27.000Z</time>
        <extensions>
          <ns3:TrackPointExtension>
            <ns3:hr>160</ns3:hr>
            <ns3:cad>50</ns3:cad>
          </ns3:TrackPointExtension>
        </extensions>
      </trkpt>
      <trkpt lat="47.53079898655414581298828125" lon="11.006524153053760528564453125">
        <ele>1798</ele>
        <time>2026-09-01T08:04:28.000Z</time>
        <extensions>
          <ns3:TrackPointExtension>
            <ns3:hr>160</ns3:hr>
            <ns3:cad>51</ns3:cad>
          </ns3:TrackPointExtension>
        </extensions>
      </trkpt>
      <trkpt lat="47.53078599460422992706298828125" lon="11.006528846919536590576171875">
        <ele>1798</ele>
        <time>2026-09-01T08:04:29.000Z</time>
        <extensions>
          <ns3:TrackPointExtension>
            <ns3:hr>160</ns3:hr>
            <ns3:cad>51</ns3:cad>
          </ns3:TrackPointExtension>
        </extensions>
      </trkpt>
      <trkpt lat="47.5307763554155826568603515625" lon="11.0065291821956634521484375">
        <ele>1798.199951171875</ele>
        <time>2026-09-01T08:04:30.000Z</time>
        <extensions>
          <ns3:TrackPointExtension>
            <ns3:hr>160</ns3:hr>
            <ns3:cad>50</ns3:cad>
          </ns3:TrackPointExtension>
        </extensions>
      </trkpt>
      <trkpt lat="47.5307649560272693634033203125" lon="11.0065293498337268829345703125">
        <ele>1798.4000244140625</ele>
        <time>2026-09-01T08:04:31.000Z</time>
        <extensions>
          <ns3:TrackPointExtension>
            <ns3:hr>159</ns3:hr>
            <ns3:cad>50</ns3:cad>
          </ns3:TrackPointExtension>
        </extensions>
      </trkpt>
      <trkpt lat="47.5307528860867023468017578125" lon="11.00652909837663173675537109375">
        <ele>1798.5999755859375</ele>
        <time>2026-09-01T08:04:32.000Z</time>
        <extensions>
          <ns3:TrackPointExtension>
            <ns3:hr>159</ns3:hr>
            <ns3:cad>50</ns3:cad>
          </ns3:TrackPointExtension>
        </extensions>
      </trkpt>
      <trkpt lat="47.5307414866983890533447265625" lon="11.00652608089148998260498046875">
        <ele>1798.800048828125</ele>
        <time>2026-09-01T08:04:33.000Z</time>
        <extensions>
          <ns3:TrackPointExtension>
            <ns3:hr>158</ns3:hr>
            <ns3:cad>50</ns3:cad>
          </ns3:TrackPointExtension>
        </extensions>
      </trkpt>
      <trkpt lat="47.5307300873100757598876953125" lon="11.0065202973783016204833984375">
        <ele>1798.800048828125</ele>
        <time>2026-09-01T08:04:34.000Z</time>
        <extensions>
          <ns3:TrackPointExtension>
            <ns3:hr>158</ns3:hr>
            <ns3:cad>50</ns3:cad>
          </ns3:TrackPointExtension>
        </extensions>
      </trkpt>
      <trkpt lat="47.53071877174079418182373046875" lon="11.00652423687279224395751953125">
        <ele>1799</ele>
        <time>2026-09-01T08:04:35.000Z</time>
        <extensions>
          <ns3:TrackPointExtension>
            <ns3:hr>159</ns3:hr>
            <ns3:cad>51</ns3:cad>
          </ns3:TrackPointExtension>
        </extensions>
      </trkpt>
      <trkpt lat="47.53070871345698833465576171875" lon="11.006518788635730743408203125">
        <ele>1799</ele>
        <time>2026-09-01T08:04:36.000Z</time>
        <extensions>
          <ns3:TrackPointExtension>
            <ns3:hr>158</ns3:hr>
            <ns3:cad>51</ns3:cad>
          </ns3:TrackPointExtension>
        </extensions>
      </trkpt>
      <trkpt lat="47.5306985713541507720947265625" lon="11.00651778280735015869140625">
        <ele>1799</ele>
        <time>2026-09-01T08:04:37.000Z</time>
        <extensions>
          <ns3:TrackPointExtension>
            <ns3:hr>158</ns3:hr>
            <ns3:cad>51</ns3:cad>
          </ns3:TrackPointExtension>
        </extensions>
      </trkpt>
      <trkpt lat="47.53068960271775722503662109375" lon="11.00651585496962070465087890625">
        <ele>1799.199951171875</ele>
        <time>2026-09-01T08:04:38.000Z</time>
        <extensions>
          <ns3:TrackPointExtension>
            <ns3:hr>158</ns3:hr>
            <ns3:cad>51</ns3:cad>
          </ns3:TrackPointExtension>
        </extensions>
      </trkpt>
      <trkpt lat="47.53067426383495330810546875" lon="11.00651334039866924285888671875">
        <ele>1799.199951171875</ele>
        <time>2026-09-01T08:04:39.000Z</time>
        <extensions>
          <ns3:TrackPointExtension>
            <ns3:hr>158</ns3:hr>
            <ns3:cad>52</ns3:cad>
          </ns3:TrackPointExtension>
        </extensions>
      </trkpt>
      <trkpt lat="47.530664540827274322509765625" lon="11.00650747306644916534423828125">
        <ele>1799.4000244140625</ele>
        <time>2026-09-01T08:04:40.000Z</time>
        <extensions>
          <ns3:TrackPointExtension>
            <ns3:hr>158</ns3:hr>
            <ns3:cad>55</ns3:cad>
          </ns3:TrackPointExtension>
        </extensions>
      </trkpt>
      <trkpt lat="47.5306548178195953369140625" lon="11.00650931708514690399169921875">
        <ele>1799.4000244140625</ele>
        <time>2026-09-01T08:04:41.000Z</time>
        <extensions>
          <ns3:TrackPointExtension>
            <ns3:hr>158</ns3:hr>
            <ns3:cad>55</ns3:cad>
          </ns3:TrackPointExtension>
        </extensions>
      </trkpt>
      <trkpt lat="47.5306432507932186126708984375" lon="11.00650914944708347320556640625">
        <ele>1799.5999755859375</ele>
        <time>2026-09-01T08:04:42.000Z</time>
        <extensions>
          <ns3:TrackPointExtension>
            <ns3:hr>158</ns3:hr>
            <ns3:cad>51</ns3:cad>
          </ns3:TrackPointExtension>
        </extensions>
      </trkpt>
      <trkpt lat="47.5306325219571590423583984375" lon="11.0065090656280517578125">
        <ele>1799.5999755859375</ele>
        <time>2026-09-01T08:04:43.000Z</time>
        <extensions>
          <ns3:TrackPointExtension>
            <ns3:hr>157</ns3:hr>
            <ns3:cad>51</ns3:cad>
          </ns3:TrackPointExtension>
        </extensions>
      </trkpt>
      <trkpt lat="47.53062305040657520294189453125" lon="11.00651149637997150421142578125">
        <ele>1799.800048828125</ele>
        <time>2026-09-01T08:04:44.000Z</time>
        <extensions>
          <ns3:TrackPointExtension>
            <ns3:hr>157</ns3:hr>
            <ns3:cad>51</ns3:cad>
          </ns3:TrackPointExtension>
        </extensions>
      </trkpt>
      <trkpt lat="47.53061550669372081756591796875" lon="11.0065135918557643890380859375">
        <ele>1800</ele>
        <time>2026-09-01T08:04:45.000Z</time>
        <extensions>
          <ns3:TrackPointExtension>
            <ns3:hr>157</ns3:hr>
            <ns3:cad>52</ns3:cad>
          </ns3:TrackPointExtension>
        </extensions>
      </trkpt>
      <trkpt lat="47.5306080467998981475830078125" lon="11.0065166093409061431884765625">
        <ele>1800.4000244140625</ele>
        <time>2026-09-01T08:04:46.000Z</time>
        <extensions>
          <ns3:TrackPointExtension>
            <ns3:hr>157</ns3:hr>
            <ns3:cad>52</ns3:cad>
          </ns3:TrackPointExtension>
        </extensions>
      </trkpt>
      <trkpt lat="47.53059916198253631591796875" lon="11.0065206326544284820556640625">
        <ele>1800.5999755859375</ele>
        <time>2026-09-01T08:04:47.000Z</time>
        <extensions>
          <ns3:TrackPointExtension>
            <ns3:hr>158</ns3:hr>
            <ns3:cad>52</ns3:cad>
          </ns3:TrackPointExtension>
        </extensions>
      </trkpt>
      <trkpt lat="47.5305931270122528076171875" lon="11.00652641616761684417724609375">
        <ele>1800.800048828125</ele>
        <time>2026-09-01T08:04:48.000Z</time>
        <extensions>
          <ns3:TrackPointExtension>
            <ns3:hr>157</ns3:hr>
            <ns3:cad>52</ns3:cad>
          </ns3:TrackPointExtension>
        </extensions>
      </trkpt>
      <trkpt lat="47.53058667294681072235107421875" lon="11.0065320320427417755126953125">
        <ele>1801.199951171875</ele>
        <time>2026-09-01T08:04:49.000Z</time>
        <extensions>
          <ns3:TrackPointExtension>
            <ns3:hr>157</ns3:hr>
            <ns3:cad>52</ns3:cad>
          </ns3:TrackPointExtension>
        </extensions>
      </trkpt>
      <trkpt lat="47.53058281727135181427001953125" lon="11.0065363906323909759521484375">
        <ele>1801.4000244140625</ele>
        <time>2026-09-01T08:04:50.000Z</time>
        <extensions>
          <ns3:TrackPointExtension>
            <ns3:hr>157</ns3:hr>
            <ns3:cad>52</ns3:cad>
          </ns3:TrackPointExtension>
        </extensions>
      </trkpt>
      <trkpt lat="47.53058172762393951416015625" lon="11.0065491311252117156982421875">
        <ele>1801.5999755859375</ele>
        <time>2026-09-01T08:04:51.000Z</time>
        <extensions>
          <ns3:TrackPointExtension>
            <ns3:hr>157</ns3:hr>
            <ns3:cad>0</ns3:cad>
          </ns3:TrackPointExtension>
        </extensions>
      </trkpt>
      <trkpt lat="47.53057946451008319854736328125" lon="11.006559692323207855224609375">
        <ele>1801.800048828125</ele>
        <time>2026-09-01T08:04:52.000Z</time>
        <extensions>
          <ns3:TrackPointExtension>
            <ns3:hr>156</ns3:hr>
            <ns3:cad>52</ns3:cad>
          </ns3:TrackPointExtension>
        </extensions>
      </trkpt>
      <trkpt lat="47.5305718369781970977783203125" lon="11.0065682418644428253173828125">
        <ele>1802</ele>
        <time>2026-09-01T08:04:53.000Z</time>
        <extensions>
          <ns3:TrackPointExtension>
            <ns3:hr>156</ns3:hr>
            <ns3:cad>0</ns3:cad>
          </ns3:TrackPointExtension>
        </extensions>
      </trkpt>
      <trkpt lat="47.5305557437241077423095703125" lon="11.00657050497829914093017578125">
        <ele>1801.800048828125</ele>
        <time>2026-09-01T08:04:54.000Z</time>
        <extensions>
          <ns3:TrackPointExtension>
            <ns3:hr>156</ns3:hr>
            <ns3:cad>0</ns3:cad>
          </ns3:TrackPointExtension>
        </extensions>
      </trkpt>
      <trkpt lat="47.53054342232644557952880859375" lon="11.006566397845745086669921875">
        <ele>1801.800048828125</ele>
        <time>2026-09-01T08:04:55.000Z</time>
        <extensions>
          <ns3:TrackPointExtension>
            <ns3:hr>156</ns3:hr>
            <ns3:cad>0</ns3:cad>
          </ns3:TrackPointExtension>
        </extensions>
      </trkpt>
      <trkpt lat="47.53052816726267337799072265625" lon="11.006560027599334716796875">
        <ele>1801.800048828125</ele>
        <time>2026-09-01T08:04:56.000Z</time>
        <extensions>
          <ns3:TrackPointExtension>
            <ns3:hr>156</ns3:hr>
            <ns3:cad>0</ns3:cad>
          </ns3:TrackPointExtension>
        </extensions>
      </trkpt>
      <trkpt lat="47.53051006235182285308837890625" lon="11.0065524838864803314208984375">
        <ele>1801.5999755859375</ele>
        <time>2026-09-01T08:04:57.000Z</time>
        <extensions>
          <ns3:TrackPointExtension>
            <ns3:hr>155</ns3:hr>
            <ns3:cad>0</ns3:cad>
          </ns3:TrackPointExtension>
        </extensions>
      </trkpt>
      <trkpt lat="47.53049715422093868255615234375" lon="11.006542257964611053466796875">
        <ele>1801.800048828125</ele>
        <time>2026-09-01T08:04:58.000Z</time>
        <extensions>
          <ns3:TrackPointExtension>
            <ns3:hr>155</ns3:hr>
            <ns3:cad>79</ns3:cad>
          </ns3:TrackPointExtension>
        </extensions>
      </trkpt>
      <trkpt lat="47.53048039041459560394287109375" lon="11.00652993656694889068603515625">
        <ele>1801.800048828125</ele>
        <time>2026-09-01T08:04:59.000Z</time>
        <extensions>
          <ns3:TrackPointExtension>
            <ns3:hr>155</ns3:hr>
            <ns3:cad>79</ns3:cad>
          </ns3:TrackPointExtension>
        </extensions>
      </trkpt>
      <trkpt lat="47.53046094439923763275146484375" lon="11.0065305233001708984375">
        <ele>1802</ele>
        <time>2026-09-01T08:05:00.000Z</time>
        <extensions>
          <ns3:TrackPointExtension>
            <ns3:hr>155</ns3:hr>
            <ns3:cad>79</ns3:cad>
          </ns3:TrackPointExtension>
        </extensions>
      </trkpt>
      <trkpt lat="47.53043831326067447662353515625" lon="11.00653094239532947540283203125">
        <ele>1802.199951171875</ele>
        <time>2026-09-01T08:05:01.000Z</time>
        <extensions>
          <ns3:TrackPointExtension>
            <ns3:hr>155</ns3:hr>
            <ns3:cad>78</ns3:cad>
          </ns3:TrackPointExtension>
        </extensions>
      </trkpt>
      <trkpt lat="47.5304226391017436981201171875" lon="11.00654234178364276885986328125">
        <ele>1802.5999755859375</ele>
        <time>2026-09-01T08:05:02.000Z</time>
        <extensions>
          <ns3:TrackPointExtension>
            <ns3:hr>154</ns3:hr>
            <ns3:cad>78</ns3:cad>
          </ns3:TrackPointExtension>
        </extensions>
      </trkpt>
      <trkpt lat="47.5304011814296245574951171875" lon="11.00653211586177349090576171875">
        <ele>1803</ele>
        <time>2026-09-01T08:05:03.000Z</time>
        <extensions>
          <ns3:TrackPointExtension>
            <ns3:hr>155</ns3:hr>
            <ns3:cad>78</ns3:cad>
          </ns3:TrackPointExtension>
        </extensions>
      </trkpt>
      <trkpt lat="47.5303723476827144622802734375" lon="11.00652038119733333587646484375">
        <ele>1803.4000244140625</ele>
        <time>2026-09-01T08:05:04.000Z</time>
        <extensions>
          <ns3:TrackPointExtension>
            <ns3:hr>155</ns3:hr>
            <ns3:cad>78</ns3:cad>
          </ns3:TrackPointExtension>
        </extensions>
      </trkpt>
      <trkpt lat="47.5303505547344684600830078125" lon="11.0065119154751300811767578125">
        <ele>1803.800048828125</ele>
        <time>2026-09-01T08:05:05.000Z</time>
        <extensions>
          <ns3:TrackPointExtension>
            <ns3:hr>156</ns3:hr>
            <ns3:cad>77</ns3:cad>
          </ns3:TrackPointExtension>
        </extensions>
      </trkpt>
      <trkpt lat="47.53033228218555450439453125" lon="11.00649942643940448760986328125">
        <ele>1804.199951171875</ele>
        <time>2026-09-01T08:05:06.000Z</time>
        <extensions>
          <ns3:TrackPointExtension>
            <ns3:hr>156</ns3:hr>
            <ns3:cad>76</ns3:cad>
          </ns3:TrackPointExtension>
        </extensions>
      </trkpt>
      <trkpt lat="47.53031426109373569488525390625" lon="11.00649188272655010223388671875">
        <ele>1804.5999755859375</ele>
        <time>2026-09-01T08:05:07.000Z</time>
        <extensions>
          <ns3:TrackPointExtension>
            <ns3:hr>157</ns3:hr>
            <ns3:cad>76</ns3:cad>
          </ns3:TrackPointExtension>
        </extensions>
      </trkpt>
      <trkpt lat="47.53029967658221721649169921875" lon="11.00648785941302776336669921875">
        <ele>1805</ele>
        <time>2026-09-01T08:05:08.000Z</time>
        <extensions>
          <ns3:TrackPointExtension>
            <ns3:hr>158</ns3:hr>
            <ns3:cad>76</ns3:cad>
          </ns3:TrackPointExtension>
        </extensions>
      </trkpt>
      <trkpt lat="47.5302881933748722076416015625" lon="11.00649096071720123291015625">
        <ele>1805.4000244140625</ele>
        <time>2026-09-01T08:05:09.000Z</time>
        <extensions>
          <ns3:TrackPointExtension>
            <ns3:hr>158</ns3:hr>
            <ns3:cad>75</ns3:cad>
          </ns3:TrackPointExtension>
        </extensions>
      </trkpt>
      <trkpt lat="47.5302727706730365753173828125" lon="11.00649121217429637908935546875">
        <ele>1805.5999755859375</ele>
        <time>2026-09-01T08:05:10.000Z</time>
        <extensions>
          <ns3:TrackPointExtension>
            <ns3:hr>159</ns3:hr>
            <ns3:cad>75</ns3:cad>
          </ns3:TrackPointExtension>
        </extensions>
      </trkpt>
      <trkpt lat="47.530254833400249481201171875" lon="11.00649422965943813323974609375">
        <ele>1806</ele>
        <time>2026-09-01T08:05:11.000Z</time>
        <extensions>
          <ns3:TrackPointExtension>
            <ns3:hr>159</ns3:hr>
            <ns3:cad>75</ns3:cad>
          </ns3:TrackPointExtension>
        </extensions>
      </trkpt>
      <trkpt lat="47.53024184145033359527587890625" lon="11.00649900734424591064453125">
        <ele>1806.4000244140625</ele>
        <time>2026-09-01T08:05:12.000Z</time>
        <extensions>
          <ns3:TrackPointExtension>
            <ns3:hr>160</ns3:hr>
            <ns3:cad>65</ns3:cad>
          </ns3:TrackPointExtension>
        </extensions>
      </trkpt>
      <trkpt lat="47.5302251614630222320556640625" lon="11.00651535205543041229248046875">
        <ele>1806.5999755859375</ele>
        <time>2026-09-01T08:05:13.000Z</time>
        <extensions>
          <ns3:TrackPointExtension>
            <ns3:hr>160</ns3:hr>
            <ns3:cad>65</ns3:cad>
          </ns3:TrackPointExtension>
        </extensions>
      </trkpt>
      <trkpt lat="47.5302151031792163848876953125" lon="11.00653479807078838348388671875">
        <ele>1806.800048828125</ele>
        <time>2026-09-01T08:05:14.000Z</time>
        <extensions>
          <ns3:TrackPointExtension>
            <ns3:hr>159</ns3:hr>
            <ns3:cad>65</ns3:cad>
          </ns3:TrackPointExtension>
        </extensions>
      </trkpt>
      <trkpt lat="47.5302100740373134613037109375" lon="11.00655441172420978546142578125">
        <ele>1807</ele>
        <time>2026-09-01T08:05:15.000Z</time>
        <extensions>
          <ns3:TrackPointExtension>
            <ns3:hr>159</ns3:hr>
            <ns3:cad>65</ns3:cad>
          </ns3:TrackPointExtension>
        </extensions>
      </trkpt>
      <trkpt lat="47.53020144067704677581787109375" lon="11.00657486356794834136962890625">
        <ele>1807.199951171875</ele>
        <time>2026-09-01T08:05:16.000Z</time>
        <extensions>
          <ns3:TrackPointExtension>
            <ns3:hr>158</ns3:hr>
            <ns3:cad>62</ns3:cad>
          </ns3:TrackPointExtension>
        </extensions>
      </trkpt>
      <trkpt lat="47.53019389696419239044189453125" lon="11.0065880231559276580810546875">
        <ele>1807.4000244140625</ele>
        <time>2026-09-01T08:05:17.000Z</time>
        <extensions>
          <ns3:TrackPointExtension>
            <ns3:hr>158</ns3:hr>
            <ns3:cad>62</ns3:cad>
          </ns3:TrackPointExtension>
        </extensions>
      </trkpt>
      <trkpt lat="47.53019255585968494415283203125" lon="11.00661090575158596038818359375">
        <ele>1807.4000244140625</ele>
        <time>2026-09-01T08:05:18.000Z</time>
        <extensions>
          <ns3:TrackPointExtension>
            <ns3:hr>158</ns3:hr>
            <ns3:cad>62</ns3:cad>
          </ns3:TrackPointExtension>
        </extensions>
      </trkpt>
      <trkpt lat="47.5301886163651943206787109375" lon="11.00663269869983196258544921875">
        <ele>1807.5999755859375</ele>
        <time>2026-09-01T08:05:19.000Z</time>
        <extensions>
          <ns3:TrackPointExtension>
            <ns3:hr>157</ns3:hr>
            <ns3:cad>62</ns3:cad>
          </ns3:TrackPointExtension>
        </extensions>
      </trkpt>
      <trkpt lat="47.5301839224994182586669921875" lon="11.00665968842804431915283203125">
        <ele>1807.5999755859375</ele>
        <time>2026-09-01T08:05:20.000Z</time>
        <extensions>
          <ns3:TrackPointExtension>
            <ns3:hr>157</ns3:hr>
            <ns3:cad>62</ns3:cad>
          </ns3:TrackPointExtension>
        </extensions>
      </trkpt>
      <trkpt lat="47.53018065355718135833740234375" lon="11.00668676197528839111328125">
        <ele>1807.4000244140625</ele>
        <time>2026-09-01T08:05:21.000Z</time>
        <extensions>
          <ns3:TrackPointExtension>
            <ns3:hr>156</ns3:hr>
            <ns3:cad>0</ns3:cad>
          </ns3:TrackPointExtension>
        </extensions>
      </trkpt>
      <trkpt lat="47.530179731547832489013671875" lon="11.0067130811512470245361328125">
        <ele>1807.199951171875</ele>
        <time>2026-09-01T08:05:22.000Z</time>
        <extensions>
          <ns3:TrackPointExtension>
            <ns3:hr>156</ns3:hr>
            <ns3:cad>0</ns3:cad>
          </ns3:TrackPointExtension>
        </extensions>
      </trkpt>
      <trkpt lat="47.53018048591911792755126953125" lon="11.00674048997461795806884765625">
        <ele>1807</ele>
        <time>2026-09-01T08:05:23.000Z</time>
        <extensions>
          <ns3:TrackPointExtension>
            <ns3:hr>156</ns3:hr>
            <ns3:cad>0</ns3:cad>
          </ns3:TrackPointExtension>
        </extensions>
      </trkpt>
      <trkpt lat="47.5301822461187839508056640625" lon="11.00676588714122772216796875">
        <ele>1806.800048828125</ele>
        <time>2026-09-01T08:05:24.000Z</time>
        <extensions>
          <ns3:TrackPointExtension>
            <ns3:hr>155</ns3:hr>
            <ns3:cad>0</ns3:cad>
          </ns3:TrackPointExtension>
        </extensions>
      </trkpt>
      <trkpt lat="47.53018249757587909698486328125" lon="11.00678323768079280853271484375">
        <ele>1806.4000244140625</ele>
        <time>2026-09-01T08:05:25.000Z</time>
        <extensions>
          <ns3:TrackPointExtension>
            <ns3:hr>154</ns3:hr>
            <ns3:cad>76</ns3:cad>
          </ns3:TrackPointExtension>
        </extensions>
      </trkpt>
      <trkpt lat="47.53018333576619625091552734375" lon="11.00680218078196048736572265625">
        <ele>1806</ele>
        <time>2026-09-01T08:05:26.000Z</time>
        <extensions>
          <ns3:TrackPointExtension>
            <ns3:hr>153</ns3:hr>
            <ns3:cad>76</ns3:cad>
          </ns3:TrackPointExtension>
        </extensions>
      </trkpt>
      <trkpt lat="47.53018702380359172821044921875" lon="11.006817519664764404296875">
        <ele>1805.5999755859375</ele>
        <time>2026-09-01T08:05:27.000Z</time>
        <extensions>
          <ns3:TrackPointExtension>
            <ns3:hr>153</ns3:hr>
            <ns3:cad>76</ns3:cad>
          </ns3:TrackPointExtension>
        </extensions>
      </trkpt>
      <trkpt lat="47.530187778174877166748046875" lon="11.00683202035725116729736328125">
        <ele>1805.199951171875</ele>
        <time>2026-09-01T08:05:28.000Z</time>
        <extensions>
          <ns3:TrackPointExtension>
            <ns3:hr>152</ns3:hr>
            <ns3:cad>76</ns3:cad>
          </ns3:TrackPointExtension>
        </extensions>
      </trkpt>
      <trkpt lat="47.530187107622623443603515625" lon="11.0068435035645961761474609375">
        <ele>1804.800048828125</ele>
        <time>2026-09-01T08:05:29.000Z</time>
        <extensions>
          <ns3:TrackPointExtension>
            <ns3:hr>152</ns3:hr>
            <ns3:cad>76</ns3:cad>
          </ns3:TrackPointExtension>
        </extensions>
      </trkpt>
      <trkpt lat="47.53018501214683055877685546875" lon="11.0068564116954803466796875">
        <ele>1804.199951171875</ele>
        <time>2026-09-01T08:05:30.000Z</time>
        <extensions>
          <ns3:TrackPointExtension>
            <ns3:hr>151</ns3:hr>
            <ns3:cad>76</ns3:cad>
          </ns3:TrackPointExtension>
        </extensions>
      </trkpt>
      <trkpt lat="47.530175708234310150146484375" lon="11.00688256323337554931640625">
        <ele>1803.5999755859375</ele>
        <time>2026-09-01T08:05:31.000Z</time>
        <extensions>
          <ns3:TrackPointExtension>
            <ns3:hr>150</ns3:hr>
            <ns3:cad>76</ns3:cad>
          </ns3:TrackPointExtension>
        </extensions>
      </trkpt>
      <trkpt lat="47.53017260693013668060302734375" lon="11.0069088824093341827392578125">
        <ele>1803</ele>
        <time>2026-09-01T08:05:32.000Z</time>
        <extensions>
          <ns3:TrackPointExtension>
            <ns3:hr>149</ns3:hr>
            <ns3:cad>76</ns3:cad>
          </ns3:TrackPointExtension>
        </extensions>
      </trkpt>
      <trkpt lat="47.53016405738890171051025390625" lon="11.0069273225963115692138671875">
        <ele>1802.4000244140625</ele>
        <time>2026-09-01T08:05:33.000Z</time>
        <extensions>
          <ns3:TrackPointExtension>
            <ns3:hr>148</ns3:hr>
            <ns3:cad>71</ns3:cad>
          </ns3:TrackPointExtension>
        </extensions>
      </trkpt>
      <trkpt lat="47.5301591120660305023193359375" lon="11.00693981163203716278076171875">
        <ele>1801.800048828125</ele>
        <time>2026-09-01T08:05:34.000Z</time>
        <extensions>
          <ns3:TrackPointExtension>
            <ns3:hr>147</ns3:hr>
            <ns3:cad>71</ns3:cad>
          </ns3:TrackPointExtension>
        </extensions>
      </trkpt>
      <trkpt lat="47.5301534123718738555908203125" lon="11.00693444721400737762451171875">
        <ele>1801.5999755859375</ele>
        <time>2026-09-01T08:05:35.000Z</time>
        <extensions>
          <ns3:TrackPointExtension>
            <ns3:hr>146</ns3:hr>
            <ns3:cad>71</ns3:cad>
          </ns3:TrackPointExtension>
        </extensions>
      </trkpt>
      <trkpt lat="47.53014394082129001617431640625" lon="11.00693478249013423919677734375">
        <ele>1801.4000244140625</ele>
        <time>2026-09-01T08:05:36.000Z</time>
        <extensions>
          <ns3:TrackPointExtension>
            <ns3:hr>146</ns3:hr>
            <ns3:cad>65</ns3:cad>
          </ns3:TrackPointExtension>
        </extensions>
      </trkpt>
      <trkpt lat="47.5301369838416576385498046875" lon="11.00693964399397373199462890625">
        <ele>1801</ele>
        <time>2026-09-01T08:05:37.000Z</time>
        <extensions>
          <ns3:TrackPointExtension>
            <ns3:hr>145</ns3:hr>
            <ns3:cad>65</ns3:cad>
          </ns3:TrackPointExtension>
        </extensions>
      </trkpt>
      <trkpt lat="47.53012499772012233734130859375" lon="11.0069578327238559722900390625">
        <ele>1800.4000244140625</ele>
        <time>2026-09-01T08:05:38.000Z</time>
        <extensions>
          <ns3:TrackPointExtension>
            <ns3:hr>144</ns3:hr>
            <ns3:cad>65</ns3:cad>
          </ns3:TrackPointExtension>
        </extensions>
      </trkpt>
      <trkpt lat="47.53011644817888736724853515625" lon="11.006970070302486419677734375">
        <ele>1799.4000244140625</ele>
        <time>2026-09-01T08:05:39.000Z</time>
        <extensions>
          <ns3:TrackPointExtension>
            <ns3:hr>143</ns3:hr>
            <ns3:cad>65</ns3:cad>
          </ns3:TrackPointExtension>
        </extensions>
      </trkpt>
      <trkpt lat="47.5301078148186206817626953125" lon="11.00698390044271945953369140625">
        <ele>1798</ele>
        <time>2026-09-01T08:05:40.000Z</time>
        <extensions>
          <ns3:TrackPointExtension>
            <ns3:hr>142</ns3:hr>
            <ns3:cad>65</ns3:cad>
          </ns3:TrackPointExtension>
        </extensions>
      </trkpt>
      <trkpt lat="47.5300954096019268035888671875" lon="11.00699697621166706085205078125">
        <ele>1796.5999755859375</ele>
        <time>2026-09-01T08:05:41.000Z</time>
        <extensions>
          <ns3:TrackPointExtension>
            <ns3:hr>141</ns3:hr>
            <ns3:cad>50</ns3:cad>
          </ns3:TrackPointExtension>
        </extensions>
      </trkpt>
      <trkpt lat="47.53008962608873844146728515625" lon="11.00702933035790920257568359375">
        <ele>1796.199951171875</ele>
        <time>2026-09-01T08:05:42.000Z</time>
        <extensions>
          <ns3:TrackPointExtension>
            <ns3:hr>141</ns3:hr>
            <ns3:cad>50</ns3:cad>
          </ns3:TrackPointExtension>
        </extensions>
      </trkpt>
      <trkpt lat="47.53008225001394748687744140625" lon="11.00705154240131378173828125">
        <ele>1795.4000244140625</ele>
        <time>2026-09-01T08:05:43.000Z</time>
        <extensions>
          <ns3:TrackPointExtension>
            <ns3:hr>140</ns3:hr>
            <ns3:cad>50</ns3:cad>
          </ns3:TrackPointExtension>
        </extensions>
      </trkpt>
      <trkpt lat="47.53007604740560054779052734375" lon="11.00707140751183032989501953125">
        <ele>1794.5999755859375</ele>
        <time>2026-09-01T08:05:44.000Z</time>
        <extensions>
          <ns3:TrackPointExtension>
            <ns3:hr>139</ns3:hr>
            <ns3:cad>50</ns3:cad>
          </ns3:TrackPointExtension>
        </extensions>
      </trkpt>
      <trkpt lat="47.53006917424499988555908203125" lon="11.007093451917171478271484375">
        <ele>1794</ele>
        <time>2026-09-01T08:05:45.000Z</time>
        <extensions>
          <ns3:TrackPointExtension>
            <ns3:hr>138</ns3:hr>
            <ns3:cad>0</ns3:cad>
          </ns3:TrackPointExtension>
        </extensions>
      </trkpt>
      <trkpt lat="47.530063055455684661865234375" lon="11.007121615111827850341796875">
        <ele>1793.4000244140625</ele>
        <time>2026-09-01T08:05:46.000Z</time>
        <extensions>
          <ns3:TrackPointExtension>
            <ns3:hr>138</ns3:hr>
            <ns3:cad>0</ns3:cad>
          </ns3:TrackPointExtension>
        </extensions>
      </trkpt>
      <trkpt lat="47.5300612114369869232177734375" lon="11.00715321488678455352783203125">
        <ele>1792.800048828125</ele>
        <time>2026-09-01T08:05:47.000Z</time>
        <extensions>
          <ns3:TrackPointExtension>
            <ns3:hr>137</ns3:hr>
            <ns3:cad>0</ns3:cad>
          </ns3:TrackPointExtension>
        </extensions>
      </trkpt>
      <trkpt lat="47.530064396560192108154296875" lon="11.00718925707042217254638671875">
        <ele>1792.199951171875</ele>
        <time>2026-09-01T08:05:48.000Z</time>
        <extensions>
          <ns3:TrackPointExtension>
            <ns3:hr>137</ns3:hr>
            <ns3:cad>0</ns3:cad>
          </ns3:TrackPointExtension>
        </extensions>
      </trkpt>
      <trkpt lat="47.5300615467131137847900390625" lon="11.00721993483603000640869140625">
        <ele>1791.800048828125</ele>
        <time>2026-09-01T08:05:49.000Z</time>
        <extensions>
          <ns3:TrackPointExtension>
            <ns3:hr>136</ns3:hr>
            <ns3:cad>82</ns3:cad>
          </ns3:TrackPointExtension>
        </extensions>
      </trkpt>
      <trkpt lat="47.53006263636052608489990234375" lon="11.00724675692617893218994140625">
        <ele>1791.5999755859375</ele>
        <time>2026-09-01T08:05:50.000Z</time>
        <extensions>
          <ns3:TrackPointExtension>
            <ns3:hr>135</ns3:hr>
            <ns3:cad>82</ns3:cad>
          </ns3:TrackPointExtension>
        </extensions>
      </trkpt>
      <trkpt lat="47.53006682731211185455322265625" lon="11.00727357901632785797119140625">
        <ele>1791.5999755859375</ele>
        <time>2026-09-01T08:05:51.000Z</time>
        <extensions>
          <ns3:TrackPointExtension>
            <ns3:hr>134</ns3:hr>
            <ns3:cad>82</ns3:cad>
          </ns3:TrackPointExtension>
        </extensions>
      </trkpt>
      <trkpt lat="47.53007571212947368621826171875" lon="11.0073175840079784393310546875">
        <ele>1791.5999755859375</ele>
        <time>2026-09-01T08:05:52.000Z</time>
        <extensions>
          <ns3:TrackPointExtension>
            <ns3:hr>134</ns3:hr>
            <ns3:cad>0</ns3:cad>
          </ns3:TrackPointExtension>
        </extensions>
      </trkpt>
      <trkpt lat="47.53008258529007434844970703125" lon="11.00734432227909564971923828125">
        <ele>1791.4000244140625</ele>
        <time>2026-09-01T08:05:53.000Z</time>
        <extensions>
          <ns3:TrackPointExtension>
            <ns3:hr>133</ns3:hr>
            <ns3:cad>0</ns3:cad>
          </ns3:TrackPointExtension>
        </extensions>
      </trkpt>
      <trkpt lat="47.53008954226970672607421875" lon="11.0073732398450374603271484375">
        <ele>1791.4000244140625</ele>
        <time>2026-09-01T08:05:54.000Z</time>
        <extensions>
          <ns3:TrackPointExtension>
            <ns3:hr>133</ns3:hr>
            <ns3:cad>0</ns3:cad>
          </ns3:TrackPointExtension>
        </extensions>
      </trkpt>
      <trkpt lat="47.53010027110576629638671875" lon="11.007409282028675079345703125">
        <ele>1791.199951171875</ele>
        <time>2026-09-01T08:05:55.000Z</time>
        <extensions>
          <ns3:TrackPointExtension>
            <ns3:hr>132</ns3:hr>
            <ns3:cad>0</ns3:cad>
          </ns3:TrackPointExtension>
        </extensions>
      </trkpt>
      <trkpt lat="47.5301111675798892974853515625" lon="11.00743484683334827423095703125">
        <ele>1791.199951171875</ele>
        <time>2026-09-01T08:05:56.000Z</time>
        <extensions>
          <ns3:TrackPointExtension>
            <ns3:hr>131</ns3:hr>
            <ns3:cad>0</ns3:cad>
          </ns3:TrackPointExtension>
        </extensions>
      </trkpt>
      <trkpt lat="47.530119381844997406005859375" lon="11.00746083073318004608154296875">
        <ele>1791.199951171875</ele>
        <time>2026-09-01T08:05:57.000Z</time>
        <extensions>
          <ns3:TrackPointExtension>
            <ns3:hr>130</ns3:hr>
            <ns3:cad>0</ns3:cad>
          </ns3:TrackPointExtension>
        </extensions>
      </trkpt>
      <trkpt lat="47.5301277637481689453125" lon="11.0074912570416927337646484375">
        <ele>1791.199951171875</ele>
        <time>2026-09-01T08:05:58.000Z</time>
        <extensions>
          <ns3:TrackPointExtension>
            <ns3:hr>130</ns3:hr>
            <ns3:cad>0</ns3:cad>
          </ns3:TrackPointExtension>
        </extensions>
      </trkpt>
      <trkpt lat="47.5301403366029262542724609375" lon="11.0075234435498714447021484375">
        <ele>1791.4000244140625</ele>
        <time>2026-09-01T08:05:59.000Z</time>
        <extensions>
          <ns3:TrackPointExtension>
            <ns3:hr>130</ns3:hr>
            <ns3:cad>0</ns3:cad>
          </ns3:TrackPointExtension>
        </extensions>
      </trkpt>
      <trkpt lat="47.5301507301628589630126953125" lon="11.007552780210971832275390625">
        <ele>1791.5999755859375</ele>
        <time>2026-09-01T08:06:00.000Z</time>
        <extensions>
          <ns3:TrackPointExtension>
            <ns3:hr>130</ns3:hr>
            <ns3:cad>0</ns3:cad>
          </ns3:TrackPointExtension>
        </extensions>
      </trkpt>
      <trkpt lat="47.53016942180693149566650390625" lon="11.00757046602666378021240234375">
        <ele>1791.5999755859375</ele>
        <time>2026-09-01T08:06:01.000Z</time>
        <extensions>
          <ns3:TrackPointExtension>
            <ns3:hr>129</ns3:hr>
            <ns3:cad>0</ns3:cad>
          </ns3:TrackPointExtension>
        </extensions>
      </trkpt>
      <trkpt lat="47.53016757778823375701904296875" lon="11.00757868029177188873291015625">
        <ele>1791.5999755859375</ele>
        <time>2026-09-01T08:06:02.000Z</time>
        <extensions>
          <ns3:TrackPointExtension>
            <ns3:hr>129</ns3:hr>
            <ns3:cad>77</ns3:cad>
          </ns3:TrackPointExtension>
        </extensions>
      </trkpt>
      <trkpt lat="47.53017646260559558868408203125" lon="11.0075940191745758056640625">
        <ele>1791.4000244140625</ele>
        <time>2026-09-01T08:06:03.000Z</time>
        <extensions>
          <ns3:TrackPointExtension>
            <ns3:hr>129</ns3:hr>
            <ns3:cad>77</ns3:cad>
          </ns3:TrackPointExtension>
        </extensions>
      </trkpt>
      <trkpt lat="47.530181407928466796875" lon="11.00760365836322307586669921875">
        <ele>1791.199951171875</ele>
        <time>2026-09-01T08:06:04.000Z</time>
        <extensions>
          <ns3:TrackPointExtension>
            <ns3:hr>129</ns3:hr>
            <ns3:cad>77</ns3:cad>
          </ns3:TrackPointExtension>
        </extensions>
      </trkpt>
      <trkpt lat="47.530183754861354827880859375" lon="11.00760986097157001495361328125">
        <ele>1791.199951171875</ele>
        <time>2026-09-01T08:06:05.000Z</time>
        <extensions>
          <ns3:TrackPointExtension>
            <ns3:hr>129</ns3:hr>
            <ns3:cad>0</ns3:cad>
          </ns3:TrackPointExtension>
        </extensions>
      </trkpt>
      <trkpt lat="47.53018677234649658203125" lon="11.007617153227329254150390625">
        <ele>1791</ele>
        <time>2026-09-01T08:06:06.000Z</time>
        <extensions>
          <ns3:TrackPointExtension>
            <ns3:hr>128</ns3:hr>
            <ns3:cad>0</ns3:cad>
          </ns3:TrackPointExtension>
        </extensions>
      </trkpt>
      <trkpt lat="47.53018450923264026641845703125" lon="11.00762612186372280120849609375">
        <ele>1790.5999755859375</ele>
        <time>2026-09-01T08:06:07.000Z</time>
        <extensions>
          <ns3:TrackPointExtension>
            <ns3:hr>128</ns3:hr>
            <ns3:cad>81</ns3:cad>
          </ns3:TrackPointExtension>
        </extensions>
      </trkpt>
      <trkpt lat="47.53017998300492763519287109375" lon="11.0076324082911014556884765625">
        <ele>1790.4000244140625</ele>
        <time>2026-09-01T08:06:08.000Z</time>
        <extensions>
          <ns3:TrackPointExtension>
            <ns3:hr>128</ns3:hr>
            <ns3:cad>81</ns3:cad>
          </ns3:TrackPointExtension>
        </extensions>
      </trkpt>
      <trkpt lat="47.5301457010209560394287109375" lon="11.00764171220362186431884765625">
        <ele>1789.800048828125</ele>
        <time>2026-09-01T08:06:09.000Z</time>
        <extensions>
          <ns3:TrackPointExtension>
            <ns3:hr>127</ns3:hr>
            <ns3:cad>81</ns3:cad>
          </ns3:TrackPointExtension>
        </extensions>
      </trkpt>
      <trkpt lat="47.53013941459357738494873046875" lon="11.007654704153537750244140625">
        <ele>1788.800048828125</ele>
        <time>2026-09-01T08:06:10.000Z</time>
        <extensions>
          <ns3:TrackPointExtension>
            <ns3:hr>126</ns3:hr>
            <ns3:cad>0</ns3:cad>
          </ns3:TrackPointExtension>
        </extensions>
      </trkpt>
      <trkpt lat="47.53012575209140777587890625" lon="11.00766367278993129730224609375">
        <ele>1787.5999755859375</ele>
        <time>2026-09-01T08:06:11.000Z</time>
        <extensions>
          <ns3:TrackPointExtension>
            <ns3:hr>125</ns3:hr>
            <ns3:cad>0</ns3:cad>
          </ns3:TrackPointExtension>
        </extensions>
      </trkpt>
      <trkpt lat="47.53011259250342845916748046875" lon="11.00766769610345363616943359375">
        <ele>1786.4000244140625</ele>
        <time>2026-09-01T08:06:12.000Z</time>
        <extensions>
          <ns3:TrackPointExtension>
            <ns3:hr>124</ns3:hr>
            <ns3:cad>0</ns3:cad>
          </ns3:TrackPointExtension>
        </extensions>
      </trkpt>
      <trkpt lat="47.53010563552379608154296875" lon="11.00768529810011386871337890625">
        <ele>1785.5999755859375</ele>
        <time>2026-09-01T08:06:13.000Z</time>
        <extensions>
          <ns3:TrackPointExtension>
            <ns3:hr>123</ns3:hr>
            <ns3:cad>0</ns3:cad>
          </ns3:TrackPointExtension>
        </extensions>
      </trkpt>
      <trkpt lat="47.53009884618222713470458984375" lon="11.00769937969744205474853515625">
        <ele>1785</ele>
        <time>2026-09-01T08:06:14.000Z</time>
        <extensions>
          <ns3:TrackPointExtension>
            <ns3:hr>122</ns3:hr>
            <ns3:cad>0</ns3:cad>
          </ns3:TrackPointExtension>
        </extensions>
      </trkpt>
      <trkpt lat="47.53009314648807048797607421875" lon="11.00771178491413593292236328125">
        <ele>1784.199951171875</ele>
        <time>2026-09-01T08:06:15.000Z</time>
        <extensions>
          <ns3:TrackPointExtension>
            <ns3:hr>122</ns3:hr>
            <ns3:cad>0</ns3:cad>
          </ns3:TrackPointExtension>
        </extensions>
      </trkpt>
      <trkpt lat="47.53008593805134296417236328125" lon="11.00772553123533725738525390625">
        <ele>1783.4000244140625</ele>
        <time>2026-09-01T08:06:16.000Z</time>
        <extensions>
          <ns3:TrackPointExtension>
            <ns3:hr>122</ns3:hr>
            <ns3:cad>0</ns3:cad>
          </ns3:TrackPointExtension>
        </extensions>
      </trkpt>
      <trkpt lat="47.5300809927284717559814453125" lon="11.0077350027859210968017578125">
        <ele>1783</ele>
        <time>2026-09-01T08:06:17.000Z</time>
        <extensions>
          <ns3:TrackPointExtension>
            <ns3:hr>121</ns3:hr>
            <ns3:cad>42</ns3:cad>
          </ns3:TrackPointExtension>
        </extensions>
      </trkpt>
      <trkpt lat="47.53007202409207820892333984375" lon="11.0077524371445178985595703125">
        <ele>1782.4000244140625</ele>
        <time>2026-09-01T08:06:18.000Z</time>
        <extensions>
          <ns3:TrackPointExtension>
            <ns3:hr>121</ns3:hr>
            <ns3:cad>43</ns3:cad>
          </ns3:TrackPointExtension>
        </extensions>
      </trkpt>
      <trkpt lat="47.53006481565535068511962890625" lon="11.00776442326605319976806640625">
        <ele>1781.800048828125</ele>
        <time>2026-09-01T08:06:19.000Z</time>
        <extensions>
          <ns3:TrackPointExtension>
            <ns3:hr>120</ns3:hr>
            <ns3:cad>43</ns3:cad>
          </ns3:TrackPointExtension>
        </extensions>
      </trkpt>
      <trkpt lat="47.53005257807672023773193359375" lon="11.00778168998658657073974609375">
        <ele>1781.199951171875</ele>
        <time>2026-09-01T08:06:20.000Z</time>
        <extensions>
          <ns3:TrackPointExtension>
            <ns3:hr>120</ns3:hr>
            <ns3:cad>43</ns3:cad>
          </ns3:TrackPointExtension>
        </extensions>
      </trkpt>
      <trkpt lat="47.53004587255418300628662109375" lon="11.00779828615486621856689453125">
        <ele>1780.199951171875</ele>
        <time>2026-09-01T08:06:21.000Z</time>
        <extensions>
          <ns3:TrackPointExtension>
            <ns3:hr>120</ns3:hr>
            <ns3:cad>43</ns3:cad>
          </ns3:TrackPointExtension>
        </extensions>
      </trkpt>
      <trkpt lat="47.530036903917789459228515625" lon="11.00780683569610118865966796875">
        <ele>1779.4000244140625</ele>
        <time>2026-09-01T08:06:22.000Z</time>
        <extensions>
          <ns3:TrackPointExtension>
            <ns3:hr>119</ns3:hr>
            <ns3:cad>43</ns3:cad>
          </ns3:TrackPointExtension>
        </extensions>
      </trkpt>
      <trkpt lat="47.5300300307571887969970703125" lon="11.00780750624835491180419921875">
        <ele>1778.4000244140625</ele>
        <time>2026-09-01T08:06:23.000Z</time>
        <extensions>
          <ns3:TrackPointExtension>
            <ns3:hr>119</ns3:hr>
            <ns3:cad>43</ns3:cad>
          </ns3:TrackPointExtension>
        </extensions>
      </trkpt>
      <trkpt lat="47.53001402132213115692138671875" lon="11.007815301418304443359375">
        <ele>1777.4000244140625</ele>
        <time>2026-09-01T08:06:24.000Z</time>
        <extensions>
          <ns3:TrackPointExtension>
            <ns3:hr>119</ns3:hr>
            <ns3:cad>43</ns3:cad>
          </ns3:TrackPointExtension>
        </extensions>
      </trkpt>
      <trkpt lat="47.53000765107572078704833984375" lon="11.00782846100628376007080078125">
        <ele>1776.5999755859375</ele>
        <time>2026-09-01T08:06:25.000Z</time>
        <extensions>
          <ns3:TrackPointExtension>
            <ns3:hr>119</ns3:hr>
            <ns3:cad>43</ns3:cad>
          </ns3:TrackPointExtension>
        </extensions>
      </trkpt>
      <trkpt lat="47.5300022028386592864990234375" lon="11.00783298723399639129638671875">
        <ele>1776</ele>
        <time>2026-09-01T08:06:26.000Z</time>
        <extensions>
          <ns3:TrackPointExtension>
            <ns3:hr>119</ns3:hr>
            <ns3:cad>43</ns3:cad>
          </ns3:TrackPointExtension>
        </extensions>
      </trkpt>
      <trkpt lat="47.529988624155521392822265625" lon="11.00782711990177631378173828125">
        <ele>1775.4000244140625</ele>
        <time>2026-09-01T08:06:27.000Z</time>
        <extensions>
          <ns3:TrackPointExtension>
            <ns3:hr>118</ns3:hr>
            <ns3:cad>43</ns3:cad>
          </ns3:TrackPointExtension>
        </extensions>
      </trkpt>
      <trkpt lat="47.52997529692947864532470703125" lon="11.0078282095491886138916015625">
        <ele>1774.800048828125</ele>
        <time>2026-09-01T08:06:28.000Z</time>
        <extensions>
          <ns3:TrackPointExtension>
            <ns3:hr>118</ns3:hr>
            <ns3:cad>43</ns3:cad>
          </ns3:TrackPointExtension>
        </extensions>
      </trkpt>
      <trkpt lat="47.52996892668306827545166015625" lon="11.00782871246337890625">
        <ele>1774.199951171875</ele>
        <time>2026-09-01T08:06:29.000Z</time>
        <extensions>
          <ns3:TrackPointExtension>
            <ns3:hr>118</ns3:hr>
            <ns3:cad>43</ns3:cad>
          </ns3:TrackPointExtension>
        </extensions>
      </trkpt>
      <trkpt lat="47.529953084886074066162109375" lon="11.00782276131212711334228515625">
        <ele>1773.800048828125</ele>
        <time>2026-09-01T08:06:30.000Z</time>
        <extensions>
          <ns3:TrackPointExtension>
            <ns3:hr>118</ns3:hr>
            <ns3:cad>43</ns3:cad>
          </ns3:TrackPointExtension>
        </extensions>
      </trkpt>
      <trkpt lat="47.52993020229041576385498046875" lon="11.00781060755252838134765625">
        <ele>1773.4000244140625</ele>
        <time>2026-09-01T08:06:31.000Z</time>
        <extensions>
          <ns3:TrackPointExtension>
            <ns3:hr>118</ns3:hr>
            <ns3:cad>43</ns3:cad>
          </ns3:TrackPointExtension>
        </extensions>
      </trkpt>
      <trkpt lat="47.5299079902470111846923828125" lon="11.00781572051346302032470703125">
        <ele>1772.5999755859375</ele>
        <time>2026-09-01T08:06:32.000Z</time>
        <extensions>
          <ns3:TrackPointExtension>
            <ns3:hr>118</ns3:hr>
            <ns3:cad>0</ns3:cad>
          </ns3:TrackPointExtension>
        </extensions>
      </trkpt>
      <trkpt lat="47.5298917293548583984375" lon="11.00782074965536594390869140625">
        <ele>1771.800048828125</ele>
        <time>2026-09-01T08:06:33.000Z</time>
        <extensions>
          <ns3:TrackPointExtension>
            <ns3:hr>119</ns3:hr>
            <ns3:cad>0</ns3:cad>
          </ns3:TrackPointExtension>
        </extensions>
      </trkpt>
      <trkpt lat="47.52988410182297229766845703125" lon="11.00783734582364559173583984375">
        <ele>1771.199951171875</ele>
        <time>2026-09-01T08:06:34.000Z</time>
        <extensions>
          <ns3:TrackPointExtension>
            <ns3:hr>120</ns3:hr>
            <ns3:cad>0</ns3:cad>
          </ns3:TrackPointExtension>
        </extensions>
      </trkpt>
      <trkpt lat="47.52987622283399105072021484375" lon="11.00784857757389545440673828125">
        <ele>1770.199951171875</ele>
        <time>2026-09-01T08:06:35.000Z</time>
        <extensions>
          <ns3:TrackPointExtension>
            <ns3:hr>120</ns3:hr>
            <ns3:cad>0</ns3:cad>
          </ns3:TrackPointExtension>
        </extensions>
      </trkpt>
      <trkpt lat="47.52986247651278972625732421875" lon="11.00786098279058933258056640625">
        <ele>1769.199951171875</ele>
        <time>2026-09-01T08:06:36.000Z</time>
        <extensions>
          <ns3:TrackPointExtension>
            <ns3:hr>120</ns3:hr>
            <ns3:cad>0</ns3:cad>
          </ns3:TrackPointExtension>
        </extensions>
      </trkpt>
      <trkpt lat="47.529853172600269317626953125" lon="11.00787238217890262603759765625">
        <ele>1768.4000244140625</ele>
        <time>2026-09-01T08:06:37.000Z</time>
        <extensions>
          <ns3:TrackPointExtension>
            <ns3:hr>119</ns3:hr>
            <ns3:cad>0</ns3:cad>
          </ns3:TrackPointExtension>
        </extensions>
      </trkpt>
      <trkpt lat="47.52984546124935150146484375" lon="11.0078836977481842041015625">
        <ele>1767.5999755859375</ele>
        <time>2026-09-01T08:06:38.000Z</time>
        <extensions>
          <ns3:TrackPointExtension>
            <ns3:hr>119</ns3:hr>
            <ns3:cad>0</ns3:cad>
          </ns3:TrackPointExtension>
        </extensions>
      </trkpt>
      <trkpt lat="47.5298503227531909942626953125" lon="11.0079271160066127777099609375">
        <ele>1767.199951171875</ele>
        <time>2026-09-01T08:06:39.000Z</time>
        <extensions>
          <ns3:TrackPointExtension>
            <ns3:hr>119</ns3:hr>
            <ns3:cad>0</ns3:cad>
          </ns3:TrackPointExtension>
        </extensions>
      </trkpt>
      <trkpt lat="47.52985040657222270965576171875" lon="11.0079559497535228729248046875">
        <ele>1766.5999755859375</ele>
        <time>2026-09-01T08:06:40.000Z</time>
        <extensions>
          <ns3:TrackPointExtension>
            <ns3:hr>118</ns3:hr>
            <ns3:cad>0</ns3:cad>
          </ns3:TrackPointExtension>
        </extensions>
      </trkpt>
      <trkpt lat="47.52985216677188873291015625" lon="11.00798805244266986846923828125">
        <ele>1766</ele>
        <time>2026-09-01T08:06:41.000Z</time>
        <extensions>
          <ns3:TrackPointExtension>
            <ns3:hr>118</ns3:hr>
            <ns3:cad>0</ns3:cad>
          </ns3:TrackPointExtension>
        </extensions>
      </trkpt>
      <trkpt lat="47.52985694445669651031494140625" lon="11.00801202468574047088623046875">
        <ele>1765.199951171875</ele>
        <time>2026-09-01T08:06:42.000Z</time>
        <extensions>
          <ns3:TrackPointExtension>
            <ns3:hr>118</ns3:hr>
            <ns3:cad>0</ns3:cad>
          </ns3:TrackPointExtension>
        </extensions>
      </trkpt>
      <trkpt lat="47.52985962666571140289306640625" lon="11.00802962668240070343017578125">
        <ele>1764.4000244140625</ele>
        <time>2026-09-01T08:06:43.000Z</time>
        <extensions>
          <ns3:TrackPointExtension>
            <ns3:hr>118</ns3:hr>
            <ns3:cad>88</ns3:cad>
          </ns3:TrackPointExtension>
        </extensions>
      </trkpt>
      <trkpt lat="47.52986381761729717254638671875" lon="11.0080541856586933135986328125">
        <ele>1764</ele>
        <time>2026-09-01T08:06:44.000Z</time>
        <extensions>
          <ns3:TrackPointExtension>
            <ns3:hr>118</ns3:hr>
            <ns3:cad>88</ns3:cad>
          </ns3:TrackPointExtension>
        </extensions>
      </trkpt>
      <trkpt lat="47.52986817620694637298583984375" lon="11.00807941518723964691162109375">
        <ele>1763.5999755859375</ele>
        <time>2026-09-01T08:06:45.000Z</time>
        <extensions>
          <ns3:TrackPointExtension>
            <ns3:hr>118</ns3:hr>
            <ns3:cad>88</ns3:cad>
          </ns3:TrackPointExtension>
        </extensions>
      </trkpt>
      <trkpt lat="47.52987119369208812713623046875" lon="11.00810707546770572662353515625">
        <ele>1763.199951171875</ele>
        <time>2026-09-01T08:06:46.000Z</time>
        <extensions>
          <ns3:TrackPointExtension>
            <ns3:hr>117</ns3:hr>
            <ns3:cad>88</ns3:cad>
          </ns3:TrackPointExtension>
        </extensions>
      </trkpt>
      <trkpt lat="47.52987605519592761993408203125" lon="11.008124761283397674560546875">
        <ele>1762.800048828125</ele>
        <time>2026-09-01T08:06:47.000Z</time>
        <extensions>
          <ns3:TrackPointExtension>
            <ns3:hr>116</ns3:hr>
            <ns3:cad>88</ns3:cad>
          </ns3:TrackPointExtension>
        </extensions>
      </trkpt>
      <trkpt lat="47.5298741273581981658935546875" lon="11.00813875906169414520263671875">
        <ele>1762.5999755859375</ele>
        <time>2026-09-01T08:06:48.000Z</time>
        <extensions>
          <ns3:TrackPointExtension>
            <ns3:hr>115</ns3:hr>
            <ns3:cad>88</ns3:cad>
          </ns3:TrackPointExtension>
        </extensions>
      </trkpt>
      <trkpt lat="47.52987789921462535858154296875" lon="11.008164994418621063232421875">
        <ele>1761.800048828125</ele>
        <time>2026-09-01T08:06:49.000Z</time>
        <extensions>
          <ns3:TrackPointExtension>
            <ns3:hr>115</ns3:hr>
            <ns3:cad>88</ns3:cad>
          </ns3:TrackPointExtension>
        </extensions>
      </trkpt>
      <trkpt lat="47.52989063970744609832763671875" lon="11.0081976838409900665283203125">
        <ele>1761.5999755859375</ele>
        <time>2026-09-01T08:06:50.000Z</time>
        <extensions>
          <ns3:TrackPointExtension>
            <ns3:hr>114</ns3:hr>
            <ns3:cad>88</ns3:cad>
          </ns3:TrackPointExtension>
        </extensions>
      </trkpt>
      <trkpt lat="47.52991746179759502410888671875" lon="11.0082369111478328704833984375">
        <ele>1761.199951171875</ele>
        <time>2026-09-01T08:06:51.000Z</time>
        <extensions>
          <ns3:TrackPointExtension>
            <ns3:hr>113</ns3:hr>
            <ns3:cad>88</ns3:cad>
          </ns3:TrackPointExtension>
        </extensions>
      </trkpt>
      <trkpt lat="47.52992886118590831756591796875" lon="11.00826364941895008087158203125">
        <ele>1760.199951171875</ele>
        <time>2026-09-01T08:06:52.000Z</time>
        <extensions>
          <ns3:TrackPointExtension>
            <ns3:hr>113</ns3:hr>
            <ns3:cad>88</ns3:cad>
          </ns3:TrackPointExtension>
        </extensions>
      </trkpt>
      <trkpt lat="47.52994981594383716583251953125" lon="11.008298099040985107421875">
        <ele>1759.800048828125</ele>
        <time>2026-09-01T08:06:53.000Z</time>
        <extensions>
          <ns3:TrackPointExtension>
            <ns3:hr>113</ns3:hr>
            <ns3:cad>88</ns3:cad>
          </ns3:TrackPointExtension>
        </extensions>
      </trkpt>
      <trkpt lat="47.529976554214954376220703125" lon="11.00833288393914699554443359375">
        <ele>1759.4000244140625</ele>
        <time>2026-09-01T08:06:54.000Z</time>
        <extensions>
          <ns3:TrackPointExtension>
            <ns3:hr>113</ns3:hr>
            <ns3:cad>88</ns3:cad>
          </ns3:TrackPointExtension>
        </extensions>
      </trkpt>
      <trkpt lat="47.52999725751578807830810546875" lon="11.0083643160760402679443359375">
        <ele>1759.199951171875</ele>
        <time>2026-09-01T08:06:55.000Z</time>
        <extensions>
          <ns3:TrackPointExtension>
            <ns3:hr>113</ns3:hr>
            <ns3:cad>88</ns3:cad>
          </ns3:TrackPointExtension>
        </extensions>
      </trkpt>
      <trkpt lat="47.5300149433314800262451171875" lon="11.00838954560458660125732421875">
        <ele>1759.199951171875</ele>
        <time>2026-09-01T08:06:56.000Z</time>
        <extensions>
          <ns3:TrackPointExtension>
            <ns3:hr>114</ns3:hr>
            <ns3:cad>79</ns3:cad>
          </ns3:TrackPointExtension>
        </extensions>
      </trkpt>
      <trkpt lat="47.53003363497555255889892578125" lon="11.0084109194576740264892578125">
        <ele>1759.199951171875</ele>
        <time>2026-09-01T08:06:57.000Z</time>
        <extensions>
          <ns3:TrackPointExtension>
            <ns3:hr>115</ns3:hr>
            <ns3:cad>79</ns3:cad>
          </ns3:TrackPointExtension>
        </extensions>
      </trkpt>
      <trkpt lat="47.53004268743097782135009765625" lon="11.0084206424653530120849609375">
        <ele>1759</ele>
        <time>2026-09-01T08:06:58.000Z</time>
        <extensions>
          <ns3:TrackPointExtension>
            <ns3:hr>116</ns3:hr>
            <ns3:cad>79</ns3:cad>
          </ns3:TrackPointExtension>
        </extensions>
      </trkpt>
      <trkpt lat="47.5300498120486736297607421875" lon="11.0084421001374721527099609375">
        <ele>1758.800048828125</ele>
        <time>2026-09-01T08:06:59.000Z</time>
        <extensions>
          <ns3:TrackPointExtension>
            <ns3:hr>117</ns3:hr>
            <ns3:cad>79</ns3:cad>
          </ns3:TrackPointExtension>
        </extensions>
      </trkpt>
      <trkpt lat="47.530063055455684661865234375" lon="11.00846414454281330108642578125">
        <ele>1758.199951171875</ele>
        <time>2026-09-01T08:07:00.000Z</time>
        <extensions>
          <ns3:TrackPointExtension>
            <ns3:hr>117</ns3:hr>
            <ns3:cad>79</ns3:cad>
          </ns3:TrackPointExtension>
        </extensions>
      </trkpt>
      <trkpt lat="47.5300813280045986175537109375" lon="11.00847822614014148712158203125">
        <ele>1757.5999755859375</ele>
        <time>2026-09-01T08:07:01.000Z</time>
        <extensions>
          <ns3:TrackPointExtension>
            <ns3:hr>117</ns3:hr>
            <ns3:cad>79</ns3:cad>
          </ns3:TrackPointExtension>
        </extensions>
      </trkpt>
      <trkpt lat="47.53009700216352939605712890625" lon="11.008505634963512420654296875">
        <ele>1757</ele>
        <time>2026-09-01T08:07:02.000Z</time>
        <extensions>
          <ns3:TrackPointExtension>
            <ns3:hr>118</ns3:hr>
            <ns3:cad>79</ns3:cad>
          </ns3:TrackPointExtension>
        </extensions>
      </trkpt>
      <trkpt lat="47.5301084853708744049072265625" lon="11.00853505544364452362060546875">
        <ele>1756.199951171875</ele>
        <time>2026-09-01T08:07:03.000Z</time>
        <extensions>
          <ns3:TrackPointExtension>
            <ns3:hr>117</ns3:hr>
            <ns3:cad>105</ns3:cad>
          </ns3:TrackPointExtension>
        </extensions>
      </trkpt>
      <trkpt lat="47.5301242433488368988037109375" lon="11.00855668075382709503173828125">
        <ele>1755.4000244140625</ele>
        <time>2026-09-01T08:07:04.000Z</time>
        <extensions>
          <ns3:TrackPointExtension>
            <ns3:hr>117</ns3:hr>
            <ns3:cad>105</ns3:cad>
          </ns3:TrackPointExtension>
        </extensions>
      </trkpt>
      <trkpt lat="47.530136816203594207763671875" lon="11.00859205238521099090576171875">
        <ele>1754.5999755859375</ele>
        <time>2026-09-01T08:07:05.000Z</time>
        <extensions>
          <ns3:TrackPointExtension>
            <ns3:hr>118</ns3:hr>
            <ns3:cad>105</ns3:cad>
          </ns3:TrackPointExtension>
        </extensions>
      </trkpt>
      <trkpt lat="47.53013824112713336944580078125" lon="11.00861535407602787017822265625">
        <ele>1753.4000244140625</ele>
        <time>2026-09-01T08:07:06.000Z</time>
        <extensions>
          <ns3:TrackPointExtension>
            <ns3:hr>118</ns3:hr>
            <ns3:cad>105</ns3:cad>
          </ns3:TrackPointExtension>
        </extensions>
      </trkpt>
      <trkpt lat="47.53013824112713336944580078125" lon="11.00866178981959819793701171875">
        <ele>1752.199951171875</ele>
        <time>2026-09-01T08:07:07.000Z</time>
        <extensions>
          <ns3:TrackPointExtension>
            <ns3:hr>118</ns3:hr>
            <ns3:cad>105</ns3:cad>
          </ns3:TrackPointExtension>
        </extensions>
      </trkpt>
      <trkpt lat="47.53013648092746734619140625" lon="11.00869439542293548583984375">
        <ele>1751.5999755859375</ele>
        <time>2026-09-01T08:07:08.000Z</time>
        <extensions>
          <ns3:TrackPointExtension>
            <ns3:hr>117</ns3:hr>
            <ns3:cad>105</ns3:cad>
          </ns3:TrackPointExtension>
        </extensions>
      </trkpt>
      <trkpt lat="47.53013069741427898406982421875" lon="11.0087254084646701812744140625">
        <ele>1750.5999755859375</ele>
        <time>2026-09-01T08:07:09.000Z</time>
        <extensions>
          <ns3:TrackPointExtension>
            <ns3:hr>116</ns3:hr>
            <ns3:cad>88</ns3:cad>
          </ns3:TrackPointExtension>
        </extensions>
      </trkpt>
      <trkpt lat="47.53012516535818576812744140625" lon="11.0087632946670055389404296875">
        <ele>1750.199951171875</ele>
        <time>2026-09-01T08:07:10.000Z</time>
        <extensions>
          <ns3:TrackPointExtension>
            <ns3:hr>116</ns3:hr>
            <ns3:cad>85</ns3:cad>
          </ns3:TrackPointExtension>
        </extensions>
      </trkpt>
      <trkpt lat="47.5301183760166168212890625" lon="11.00879120640456676483154296875">
        <ele>1749.800048828125</ele>
        <time>2026-09-01T08:07:11.000Z</time>
        <extensions>
          <ns3:TrackPointExtension>
            <ns3:hr>117</ns3:hr>
            <ns3:cad>85</ns3:cad>
          </ns3:TrackPointExtension>
        </extensions>
      </trkpt>
      <trkpt lat="47.5301098264753818511962890625" lon="11.00881534628570079803466796875">
        <ele>1749.5999755859375</ele>
        <time>2026-09-01T08:07:12.000Z</time>
        <extensions>
          <ns3:TrackPointExtension>
            <ns3:hr>117</ns3:hr>
            <ns3:cad>85</ns3:cad>
          </ns3:TrackPointExtension>
        </extensions>
      </trkpt>
      <trkpt lat="47.530107982456684112548828125" lon="11.008851639926433563232421875">
        <ele>1749.800048828125</ele>
        <time>2026-09-01T08:07:13.000Z</time>
        <extensions>
          <ns3:TrackPointExtension>
            <ns3:hr>117</ns3:hr>
            <ns3:cad>85</ns3:cad>
          </ns3:TrackPointExtension>
        </extensions>
      </trkpt>
      <trkpt lat="47.5301091559231281280517578125" lon="11.00887435488402843475341796875">
        <ele>1749.5999755859375</ele>
        <time>2026-09-01T08:07:14.000Z</time>
        <extensions>
          <ns3:TrackPointExtension>
            <ns3:hr>117</ns3:hr>
            <ns3:cad>87</ns3:cad>
          </ns3:TrackPointExtension>
        </extensions>
      </trkpt>
      <trkpt lat="47.530103623867034912109375" lon="11.00891358219087123870849609375">
        <ele>1749.5999755859375</ele>
        <time>2026-09-01T08:07:15.000Z</time>
        <extensions>
          <ns3:TrackPointExtension>
            <ns3:hr>117</ns3:hr>
            <ns3:cad>87</ns3:cad>
          </ns3:TrackPointExtension>
        </extensions>
      </trkpt>
      <trkpt lat="47.5301084853708744049072265625" lon="11.00894451141357421875">
        <ele>1749.5999755859375</ele>
        <time>2026-09-01T08:07:16.000Z</time>
        <extensions>
          <ns3:TrackPointExtension>
            <ns3:hr>118</ns3:hr>
            <ns3:cad>82</ns3:cad>
          </ns3:TrackPointExtension>
        </extensions>
      </trkpt>
      <trkpt lat="47.5301131792366504669189453125" lon="11.00897896103560924530029296875">
        <ele>1749.5999755859375</ele>
        <time>2026-09-01T08:07:17.000Z</time>
        <extensions>
          <ns3:TrackPointExtension>
            <ns3:hr>118</ns3:hr>
            <ns3:cad>81</ns3:cad>
          </ns3:TrackPointExtension>
        </extensions>
      </trkpt>
      <trkpt lat="47.5301175378262996673583984375" lon="11.0090227983891963958740234375">
        <ele>1749.5999755859375</ele>
        <time>2026-09-01T08:07:18.000Z</time>
        <extensions>
          <ns3:TrackPointExtension>
            <ns3:hr>118</ns3:hr>
            <ns3:cad>81</ns3:cad>
          </ns3:TrackPointExtension>
        </extensions>
      </trkpt>
      <trkpt lat="47.5301210582256317138671875" lon="11.00905071012675762176513671875">
        <ele>1750</ele>
        <time>2026-09-01T08:07:19.000Z</time>
        <extensions>
          <ns3:TrackPointExtension>
            <ns3:hr>118</ns3:hr>
            <ns3:cad>81</ns3:cad>
          </ns3:TrackPointExtension>
        </extensions>
      </trkpt>
      <trkpt lat="47.53012575209140777587890625" lon="11.00908105261623859405517578125">
        <ele>1750.4000244140625</ele>
        <time>2026-09-01T08:07:20.000Z</time>
        <extensions>
          <ns3:TrackPointExtension>
            <ns3:hr>118</ns3:hr>
            <ns3:cad>81</ns3:cad>
          </ns3:TrackPointExtension>
        </extensions>
      </trkpt>
      <trkpt lat="47.53012441098690032958984375" lon="11.009121872484683990478515625">
        <ele>1750.800048828125</ele>
        <time>2026-09-01T08:07:21.000Z</time>
        <extensions>
          <ns3:TrackPointExtension>
            <ns3:hr>118</ns3:hr>
            <ns3:cad>82</ns3:cad>
          </ns3:TrackPointExtension>
        </extensions>
      </trkpt>
      <trkpt lat="47.53012214787304401397705078125" lon="11.00914659909904003143310546875">
        <ele>1751</ele>
        <time>2026-09-01T08:07:22.000Z</time>
        <extensions>
          <ns3:TrackPointExtension>
            <ns3:hr>118</ns3:hr>
            <ns3:cad>82</ns3:cad>
          </ns3:TrackPointExtension>
        </extensions>
      </trkpt>
      <trkpt lat="47.53011711873114109039306640625" lon="11.00916185416281223297119140625">
        <ele>1751.199951171875</ele>
        <time>2026-09-01T08:07:23.000Z</time>
        <extensions>
          <ns3:TrackPointExtension>
            <ns3:hr>119</ns3:hr>
            <ns3:cad>82</ns3:cad>
          </ns3:TrackPointExtension>
        </extensions>
      </trkpt>
      <trkpt lat="47.53010437823832035064697265625" lon="11.0092102177441120147705078125">
        <ele>1751.4000244140625</ele>
        <time>2026-09-01T08:07:24.000Z</time>
        <extensions>
          <ns3:TrackPointExtension>
            <ns3:hr>119</ns3:hr>
            <ns3:cad>82</ns3:cad>
          </ns3:TrackPointExtension>
        </extensions>
      </trkpt>
      <trkpt lat="47.53009901382029056549072265625" lon="11.00925439037382602691650390625">
        <ele>1751.199951171875</ele>
        <time>2026-09-01T08:07:25.000Z</time>
        <extensions>
          <ns3:TrackPointExtension>
            <ns3:hr>119</ns3:hr>
            <ns3:cad>79</ns3:cad>
          </ns3:TrackPointExtension>
        </extensions>
      </trkpt>
      <trkpt lat="47.5300947390496730804443359375" lon="11.00928825326263904571533203125">
        <ele>1751.199951171875</ele>
        <time>2026-09-01T08:07:26.000Z</time>
        <extensions>
          <ns3:TrackPointExtension>
            <ns3:hr>119</ns3:hr>
            <ns3:cad>76</ns3:cad>
          </ns3:TrackPointExtension>
        </extensions>
      </trkpt>
      <trkpt lat="47.53008686006069183349609375" lon="11.0093262232840061187744140625">
        <ele>1751.199951171875</ele>
        <time>2026-09-01T08:07:27.000Z</time>
        <extensions>
          <ns3:TrackPointExtension>
            <ns3:hr>120</ns3:hr>
            <ns3:cad>76</ns3:cad>
          </ns3:TrackPointExtension>
        </extensions>
      </trkpt>
      <trkpt lat="47.5300692580640316009521484375" lon="11.00937006063759326934814453125">
        <ele>1751</ele>
        <time>2026-09-01T08:07:28.000Z</time>
        <extensions>
          <ns3:TrackPointExtension>
            <ns3:hr>120</ns3:hr>
            <ns3:cad>76</ns3:cad>
          </ns3:TrackPointExtension>
        </extensions>
      </trkpt>
      <trkpt lat="47.53006716258823871612548828125" lon="11.00940761156380176544189453125">
        <ele>1751</ele>
        <time>2026-09-01T08:07:29.000Z</time>
        <extensions>
          <ns3:TrackPointExtension>
            <ns3:hr>120</ns3:hr>
            <ns3:cad>78</ns3:cad>
          </ns3:TrackPointExtension>
        </extensions>
      </trkpt>
      <trkpt lat="47.530068419873714447021484375" lon="11.00945957936346530914306640625">
        <ele>1750.800048828125</ele>
        <time>2026-09-01T08:07:30.000Z</time>
        <extensions>
          <ns3:TrackPointExtension>
            <ns3:hr>120</ns3:hr>
            <ns3:cad>78</ns3:cad>
          </ns3:TrackPointExtension>
        </extensions>
      </trkpt>
      <trkpt lat="47.530070431530475616455078125" lon="11.009505428373813629150390625">
        <ele>1750.800048828125</ele>
        <time>2026-09-01T08:07:31.000Z</time>
        <extensions>
          <ns3:TrackPointExtension>
            <ns3:hr>120</ns3:hr>
            <ns3:cad>78</ns3:cad>
          </ns3:TrackPointExtension>
        </extensions>
      </trkpt>
      <trkpt lat="47.5300759635865688323974609375" lon="11.009536273777484893798828125">
        <ele>1750.800048828125</ele>
        <time>2026-09-01T08:07:32.000Z</time>
        <extensions>
          <ns3:TrackPointExtension>
            <ns3:hr>120</ns3:hr>
            <ns3:cad>79</ns3:cad>
          </ns3:TrackPointExtension>
        </extensions>
      </trkpt>
      <trkpt lat="47.53008359111845493316650390625" lon="11.009569801390171051025390625">
        <ele>1751.199951171875</ele>
        <time>2026-09-01T08:07:33.000Z</time>
        <extensions>
          <ns3:TrackPointExtension>
            <ns3:hr>121</ns3:hr>
            <ns3:cad>79</ns3:cad>
          </ns3:TrackPointExtension>
        </extensions>
      </trkpt>
      <trkpt lat="47.53009616397321224212646484375" lon="11.009590923786163330078125">
        <ele>1751.5999755859375</ele>
        <time>2026-09-01T08:07:34.000Z</time>
        <extensions>
          <ns3:TrackPointExtension>
            <ns3:hr>121</ns3:hr>
            <ns3:cad>80</ns3:cad>
          </ns3:TrackPointExtension>
        </extensions>
      </trkpt>
      <trkpt lat="47.53010555170476436614990234375" lon="11.00960743613541126251220703125">
        <ele>1752.199951171875</ele>
        <time>2026-09-01T08:07:35.000Z</time>
        <extensions>
          <ns3:TrackPointExtension>
            <ns3:hr>121</ns3:hr>
            <ns3:cad>80</ns3:cad>
          </ns3:TrackPointExtension>
        </extensions>
      </trkpt>
      <trkpt lat="47.5301148556172847747802734375" lon="11.0096249543130397796630859375">
        <ele>1752.5999755859375</ele>
        <time>2026-09-01T08:07:36.000Z</time>
        <extensions>
          <ns3:TrackPointExtension>
            <ns3:hr>122</ns3:hr>
            <ns3:cad>80</ns3:cad>
          </ns3:TrackPointExtension>
        </extensions>
      </trkpt>
      <trkpt lat="47.5301212258636951446533203125" lon="11.0096393711864948272705078125">
        <ele>1753</ele>
        <time>2026-09-01T08:07:37.000Z</time>
        <extensions>
          <ns3:TrackPointExtension>
            <ns3:hr>122</ns3:hr>
            <ns3:cad>80</ns3:cad>
          </ns3:TrackPointExtension>
        </extensions>
      </trkpt>
      <trkpt lat="47.5301339663565158843994140625" lon="11.00965353660285472869873046875">
        <ele>1753.4000244140625</ele>
        <time>2026-09-01T08:07:38.000Z</time>
        <extensions>
          <ns3:TrackPointExtension>
            <ns3:hr>123</ns3:hr>
            <ns3:cad>80</ns3:cad>
          </ns3:TrackPointExtension>
        </extensions>
      </trkpt>
      <trkpt lat="47.530138157308101654052734375" lon="11.00966225378215312957763671875">
        <ele>1753.5999755859375</ele>
        <time>2026-09-01T08:07:39.000Z</time>
        <extensions>
          <ns3:TrackPointExtension>
            <ns3:hr>123</ns3:hr>
            <ns3:cad>80</ns3:cad>
          </ns3:TrackPointExtension>
        </extensions>
      </trkpt>
      <trkpt lat="47.53014159388840198516845703125" lon="11.0096728987991809844970703125">
        <ele>1754</ele>
        <time>2026-09-01T08:07:40.000Z</time>
        <extensions>
          <ns3:TrackPointExtension>
            <ns3:hr>123</ns3:hr>
            <ns3:cad>0</ns3:cad>
          </ns3:TrackPointExtension>
        </extensions>
      </trkpt>
      <trkpt lat="47.53014461137354373931884765625" lon="11.0096796043217182159423828125">
        <ele>1754.199951171875</ele>
        <time>2026-09-01T08:07:41.000Z</time>
        <extensions>
          <ns3:TrackPointExtension>
            <ns3:hr>124</ns3:hr>
            <ns3:cad>0</ns3:cad>
          </ns3:TrackPointExtension>
        </extensions>
      </trkpt>
      <trkpt lat="47.53014452755451202392578125" lon="11.00969209335744380950927734375">
        <ele>1754.5999755859375</ele>
        <time>2026-09-01T08:07:42.000Z</time>
        <extensions>
          <ns3:TrackPointExtension>
            <ns3:hr>125</ns3:hr>
            <ns3:cad>0</ns3:cad>
          </ns3:TrackPointExtension>
        </extensions>
      </trkpt>
      <trkpt lat="47.53014829941093921661376953125" lon="11.00970013998448848724365234375">
        <ele>1755</ele>
        <time>2026-09-01T08:07:43.000Z</time>
        <extensions>
          <ns3:TrackPointExtension>
            <ns3:hr>124</ns3:hr>
            <ns3:cad>0</ns3:cad>
          </ns3:TrackPointExtension>
        </extensions>
      </trkpt>
      <trkpt lat="47.5301524065434932708740234375" lon="11.0097129642963409423828125">
        <ele>1755.4000244140625</ele>
        <time>2026-09-01T08:07:44.000Z</time>
        <extensions>
          <ns3:TrackPointExtension>
            <ns3:hr>124</ns3:hr>
            <ns3:cad>0</ns3:cad>
          </ns3:TrackPointExtension>
        </extensions>
      </trkpt>
      <trkpt lat="47.53015668131411075592041015625" lon="11.0097419656813144683837890625">
        <ele>1755.5999755859375</ele>
        <time>2026-09-01T08:07:45.000Z</time>
        <extensions>
          <ns3:TrackPointExtension>
            <ns3:hr>124</ns3:hr>
            <ns3:cad>0</ns3:cad>
          </ns3:TrackPointExtension>
        </extensions>
      </trkpt>
      <trkpt lat="47.530161626636981964111328125" lon="11.00976820103824138641357421875">
        <ele>1755.800048828125</ele>
        <time>2026-09-01T08:07:46.000Z</time>
        <extensions>
          <ns3:TrackPointExtension>
            <ns3:hr>124</ns3:hr>
            <ns3:cad>0</ns3:cad>
          </ns3:TrackPointExtension>
        </extensions>
      </trkpt>
      <trkpt lat="47.530165649950504302978515625" lon="11.009785719215869903564453125">
        <ele>1755.800048828125</ele>
        <time>2026-09-01T08:07:47.000Z</time>
        <extensions>
          <ns3:TrackPointExtension>
            <ns3:hr>124</ns3:hr>
            <ns3:cad>0</ns3:cad>
          </ns3:TrackPointExtension>
        </extensions>
      </trkpt>
      <trkpt lat="47.5301691703498363494873046875" lon="11.00980021990835666656494140625">
        <ele>1755.800048828125</ele>
        <time>2026-09-01T08:07:48.000Z</time>
        <extensions>
          <ns3:TrackPointExtension>
            <ns3:hr>123</ns3:hr>
            <ns3:cad>0</ns3:cad>
          </ns3:TrackPointExtension>
        </extensions>
      </trkpt>
      <trkpt lat="47.53018216229975223541259765625" lon="11.0098281316459178924560546875">
        <ele>1755.800048828125</ele>
        <time>2026-09-01T08:07:49.000Z</time>
        <extensions>
          <ns3:TrackPointExtension>
            <ns3:hr>124</ns3:hr>
            <ns3:cad>0</ns3:cad>
          </ns3:TrackPointExtension>
        </extensions>
      </trkpt>
      <trkpt lat="47.5301906280219554901123046875" lon="11.00984640419483184814453125">
        <ele>1755.800048828125</ele>
        <time>2026-09-01T08:07:50.000Z</time>
        <extensions>
          <ns3:TrackPointExtension>
            <ns3:hr>125</ns3:hr>
            <ns3:cad>0</ns3:cad>
          </ns3:TrackPointExtension>
        </extensions>
      </trkpt>
      <trkpt lat="47.53019087947905063629150390625" lon="11.00986794568598270416259765625">
        <ele>1756.199951171875</ele>
        <time>2026-09-01T08:07:51.000Z</time>
        <extensions>
          <ns3:TrackPointExtension>
            <ns3:hr>127</ns3:hr>
            <ns3:cad>0</ns3:cad>
          </ns3:TrackPointExtension>
        </extensions>
      </trkpt>
      <trkpt lat="47.5301949866116046905517578125" lon="11.0098868049681186676025390625">
        <ele>1756.5999755859375</ele>
        <time>2026-09-01T08:07:52.000Z</time>
        <extensions>
          <ns3:TrackPointExtension>
            <ns3:hr>129</ns3:hr>
            <ns3:cad>0</ns3:cad>
          </ns3:TrackPointExtension>
        </extensions>
      </trkpt>
      <trkpt lat="47.53019859082996845245361328125" lon="11.009915806353092193603515625">
        <ele>1757</ele>
        <time>2026-09-01T08:07:53.000Z</time>
        <extensions>
          <ns3:TrackPointExtension>
            <ns3:hr>130</ns3:hr>
            <ns3:cad>0</ns3:cad>
          </ns3:TrackPointExtension>
        </extensions>
      </trkpt>
      <trkpt lat="47.5302047096192836761474609375" lon="11.00993516854941844940185546875">
        <ele>1757.4000244140625</ele>
        <time>2026-09-01T08:07:54.000Z</time>
        <extensions>
          <ns3:TrackPointExtension>
            <ns3:hr>131</ns3:hr>
            <ns3:cad>0</ns3:cad>
          </ns3:TrackPointExtension>
        </extensions>
      </trkpt>
      <trkpt lat="47.530211918056011199951171875" lon="11.00995394401252269744873046875">
        <ele>1757.800048828125</ele>
        <time>2026-09-01T08:07:55.000Z</time>
        <extensions>
          <ns3:TrackPointExtension>
            <ns3:hr>132</ns3:hr>
            <ns3:cad>0</ns3:cad>
          </ns3:TrackPointExtension>
        </extensions>
      </trkpt>
      <trkpt lat="47.5302147679030895233154296875" lon="11.0099759884178638458251953125">
        <ele>1757.800048828125</ele>
        <time>2026-09-01T08:07:56.000Z</time>
        <extensions>
          <ns3:TrackPointExtension>
            <ns3:hr>133</ns3:hr>
            <ns3:cad>0</ns3:cad>
          </ns3:TrackPointExtension>
        </extensions>
      </trkpt>
      <trkpt lat="47.53021560609340667724609375" lon="11.00999803282320499420166015625">
        <ele>1757.800048828125</ele>
        <time>2026-09-01T08:07:57.000Z</time>
        <extensions>
          <ns3:TrackPointExtension>
            <ns3:hr>134</ns3:hr>
            <ns3:cad>0</ns3:cad>
          </ns3:TrackPointExtension>
        </extensions>
      </trkpt>
      <trkpt lat="47.53021719865500926971435546875" lon="11.0100289620459079742431640625">
        <ele>1757.5999755859375</ele>
        <time>2026-09-01T08:07:58.000Z</time>
        <extensions>
          <ns3:TrackPointExtension>
            <ns3:hr>135</ns3:hr>
            <ns3:cad>0</ns3:cad>
          </ns3:TrackPointExtension>
        </extensions>
      </trkpt>
      <trkpt lat="47.53021585755050182342529296875" lon="11.01006709970533847808837890625">
        <ele>1757.5999755859375</ele>
        <time>2026-09-01T08:07:59.000Z</time>
        <extensions>
          <ns3:TrackPointExtension>
            <ns3:hr>136</ns3:hr>
            <ns3:cad>0</ns3:cad>
          </ns3:TrackPointExtension>
        </extensions>
      </trkpt>
      <trkpt lat="47.53022323362529277801513671875" lon="11.0101018846035003662109375">
        <ele>1757.4000244140625</ele>
        <time>2026-09-01T08:08:00.000Z</time>
        <extensions>
          <ns3:TrackPointExtension>
            <ns3:hr>137</ns3:hr>
            <ns3:cad>77</ns3:cad>
          </ns3:TrackPointExtension>
        </extensions>
      </trkpt>
      <trkpt lat="47.530225329101085662841796875" lon="11.01012862287461757659912109375">
        <ele>1757.4000244140625</ele>
        <time>2026-09-01T08:08:01.000Z</time>
        <extensions>
          <ns3:TrackPointExtension>
            <ns3:hr>138</ns3:hr>
            <ns3:cad>77</ns3:cad>
          </ns3:TrackPointExtension>
        </extensions>
      </trkpt>
      <trkpt lat="47.5302281789481639862060546875" lon="11.01015997119247913360595703125">
        <ele>1757.4000244140625</ele>
        <time>2026-09-01T08:08:02.000Z</time>
        <extensions>
          <ns3:TrackPointExtension>
            <ns3:hr>139</ns3:hr>
            <ns3:cad>80</ns3:cad>
          </ns3:TrackPointExtension>
        </extensions>
      </trkpt>
      <trkpt lat="47.53023111261427402496337890625" lon="11.01018930785357952117919921875">
        <ele>1757.4000244140625</ele>
        <time>2026-09-01T08:08:03.000Z</time>
        <extensions>
          <ns3:TrackPointExtension>
            <ns3:hr>140</ns3:hr>
            <ns3:cad>80</ns3:cad>
          </ns3:TrackPointExtension>
        </extensions>
      </trkpt>
      <trkpt lat="47.5302337110042572021484375" lon="11.0102180577814579010009765625">
        <ele>1757.4000244140625</ele>
        <time>2026-09-01T08:08:04.000Z</time>
        <extensions>
          <ns3:TrackPointExtension>
            <ns3:hr>141</ns3:hr>
            <ns3:cad>80</ns3:cad>
          </ns3:TrackPointExtension>
        </extensions>
      </trkpt>
      <trkpt lat="47.5302395783364772796630859375" lon="11.01025569252669811248779296875">
        <ele>1757.5999755859375</ele>
        <time>2026-09-01T08:08:05.000Z</time>
        <extensions>
          <ns3:TrackPointExtension>
            <ns3:hr>141</ns3:hr>
            <ns3:cad>80</ns3:cad>
          </ns3:TrackPointExtension>
        </extensions>
      </trkpt>
      <trkpt lat="47.53023949451744556427001953125" lon="11.01028167642652988433837890625">
        <ele>1757.4000244140625</ele>
        <time>2026-09-01T08:08:06.000Z</time>
        <extensions>
          <ns3:TrackPointExtension>
            <ns3:hr>142</ns3:hr>
            <ns3:cad>81</ns3:cad>
          </ns3:TrackPointExtension>
        </extensions>
      </trkpt>
      <trkpt lat="47.5302382372319698333740234375" lon="11.01031051017343997955322265625">
        <ele>1757.4000244140625</ele>
        <time>2026-09-01T08:08:07.000Z</time>
        <extensions>
          <ns3:TrackPointExtension>
            <ns3:hr>143</ns3:hr>
            <ns3:cad>81</ns3:cad>
          </ns3:TrackPointExtension>
        </extensions>
      </trkpt>
      <trkpt lat="47.530241422355175018310546875" lon="11.0103464685380458831787109375">
        <ele>1757.4000244140625</ele>
        <time>2026-09-01T08:08:08.000Z</time>
        <extensions>
          <ns3:TrackPointExtension>
            <ns3:hr>143</ns3:hr>
            <ns3:cad>81</ns3:cad>
          </ns3:TrackPointExtension>
        </extensions>
      </trkpt>
      <trkpt lat="47.5302471220493316650390625" lon="11.01037303917109966278076171875">
        <ele>1757.4000244140625</ele>
        <time>2026-09-01T08:08:09.000Z</time>
        <extensions>
          <ns3:TrackPointExtension>
            <ns3:hr>143</ns3:hr>
            <ns3:cad>81</ns3:cad>
          </ns3:TrackPointExtension>
        </extensions>
      </trkpt>
      <trkpt lat="47.53025743179023265838623046875" lon="11.01040455512702465057373046875">
        <ele>1757.5999755859375</ele>
        <time>2026-09-01T08:08:10.000Z</time>
        <extensions>
          <ns3:TrackPointExtension>
            <ns3:hr>144</ns3:hr>
            <ns3:cad>81</ns3:cad>
          </ns3:TrackPointExtension>
        </extensions>
      </trkpt>
      <trkpt lat="47.53025986254215240478515625" lon="11.0104343108832836151123046875">
        <ele>1757.5999755859375</ele>
        <time>2026-09-01T08:08:11.000Z</time>
        <extensions>
          <ns3:TrackPointExtension>
            <ns3:hr>144</ns3:hr>
            <ns3:cad>81</ns3:cad>
          </ns3:TrackPointExtension>
        </extensions>
      </trkpt>
      <trkpt lat="47.5302627123892307281494140625" lon="11.01046524010598659515380859375">
        <ele>1757.800048828125</ele>
        <time>2026-09-01T08:08:12.000Z</time>
        <extensions>
          <ns3:TrackPointExtension>
            <ns3:hr>144</ns3:hr>
            <ns3:cad>81</ns3:cad>
          </ns3:TrackPointExtension>
        </extensions>
      </trkpt>
      <trkpt lat="47.53027033992111682891845703125" lon="11.01049306802451610565185546875">
        <ele>1757.800048828125</ele>
        <time>2026-09-01T08:08:13.000Z</time>
        <extensions>
          <ns3:TrackPointExtension>
            <ns3:hr>145</ns3:hr>
            <ns3:cad>80</ns3:cad>
          </ns3:TrackPointExtension>
        </extensions>
      </trkpt>
      <trkpt lat="47.53027738071978092193603515625" lon="11.0105298645794391632080078125">
        <ele>1757.800048828125</ele>
        <time>2026-09-01T08:08:14.000Z</time>
        <extensions>
          <ns3:TrackPointExtension>
            <ns3:hr>145</ns3:hr>
            <ns3:cad>80</ns3:cad>
          </ns3:TrackPointExtension>
        </extensions>
      </trkpt>
      <trkpt lat="47.5302724353969097137451171875" lon="11.0105643980205059051513671875">
        <ele>1757.5999755859375</ele>
        <time>2026-09-01T08:08:15.000Z</time>
        <extensions>
          <ns3:TrackPointExtension>
            <ns3:hr>145</ns3:hr>
            <ns3:cad>80</ns3:cad>
          </ns3:TrackPointExtension>
        </extensions>
      </trkpt>
      <trkpt lat="47.5302573479712009429931640625" lon="11.01058191619813442230224609375">
        <ele>1757.199951171875</ele>
        <time>2026-09-01T08:08:16.000Z</time>
        <extensions>
          <ns3:TrackPointExtension>
            <ns3:hr>144</ns3:hr>
            <ns3:cad>80</ns3:cad>
          </ns3:TrackPointExtension>
        </extensions>
      </trkpt>
      <trkpt lat="47.53024150617420673370361328125" lon="11.0106173716485500335693359375">
        <ele>1757</ele>
        <time>2026-09-01T08:08:17.000Z</time>
        <extensions>
          <ns3:TrackPointExtension>
            <ns3:hr>144</ns3:hr>
            <ns3:cad>80</ns3:cad>
          </ns3:TrackPointExtension>
        </extensions>
      </trkpt>
      <trkpt lat="47.53023169934749603271484375" lon="11.01064779795706272125244140625">
        <ele>1757</ele>
        <time>2026-09-01T08:08:18.000Z</time>
        <extensions>
          <ns3:TrackPointExtension>
            <ns3:hr>144</ns3:hr>
            <ns3:cad>77</ns3:cad>
          </ns3:TrackPointExtension>
        </extensions>
      </trkpt>
      <trkpt lat="47.530214600265026092529296875" lon="11.01068736054003238677978515625">
        <ele>1757</ele>
        <time>2026-09-01T08:08:19.000Z</time>
        <extensions>
          <ns3:TrackPointExtension>
            <ns3:hr>144</ns3:hr>
            <ns3:cad>77</ns3:cad>
          </ns3:TrackPointExtension>
        </extensions>
      </trkpt>
      <trkpt lat="47.5301966629922389984130859375" lon="11.01074167527258396148681640625">
        <ele>1757</ele>
        <time>2026-09-01T08:08:20.000Z</time>
        <extensions>
          <ns3:TrackPointExtension>
            <ns3:hr>144</ns3:hr>
            <ns3:cad>77</ns3:cad>
          </ns3:TrackPointExtension>
        </extensions>
      </trkpt>
      <trkpt lat="47.53019087947905063629150390625" lon="11.0107823275029659271240234375">
        <ele>1757</ele>
        <time>2026-09-01T08:08:21.000Z</time>
        <extensions>
          <ns3:TrackPointExtension>
            <ns3:hr>144</ns3:hr>
            <ns3:cad>79</ns3:cad>
          </ns3:TrackPointExtension>
        </extensions>
      </trkpt>
      <trkpt lat="47.5301959924399852752685546875" lon="11.01083789952099323272705078125">
        <ele>1756.800048828125</ele>
        <time>2026-09-01T08:08:22.000Z</time>
        <extensions>
          <ns3:TrackPointExtension>
            <ns3:hr>144</ns3:hr>
            <ns3:cad>79</ns3:cad>
          </ns3:TrackPointExtension>
        </extensions>
      </trkpt>
      <trkpt lat="47.53019976429641246795654296875" lon="11.01088115014135837554931640625">
        <ele>1756.5999755859375</ele>
        <time>2026-09-01T08:08:23.000Z</time>
        <extensions>
          <ns3:TrackPointExtension>
            <ns3:hr>143</ns3:hr>
            <ns3:cad>79</ns3:cad>
          </ns3:TrackPointExtension>
        </extensions>
      </trkpt>
      <trkpt lat="47.53020110540091991424560546875" lon="11.01092138327658176422119140625">
        <ele>1756.4000244140625</ele>
        <time>2026-09-01T08:08:24.000Z</time>
        <extensions>
          <ns3:TrackPointExtension>
            <ns3:hr>143</ns3:hr>
            <ns3:cad>80</ns3:cad>
          </ns3:TrackPointExtension>
        </extensions>
      </trkpt>
      <trkpt lat="47.53018484450876712799072265625" lon="11.01096228696405887603759765625">
        <ele>1756.199951171875</ele>
        <time>2026-09-01T08:08:25.000Z</time>
        <extensions>
          <ns3:TrackPointExtension>
            <ns3:hr>143</ns3:hr>
            <ns3:cad>80</ns3:cad>
          </ns3:TrackPointExtension>
        </extensions>
      </trkpt>
      <trkpt lat="47.53017461858689785003662109375" lon="11.0109982453286647796630859375">
        <ele>1756</ele>
        <time>2026-09-01T08:08:26.000Z</time>
        <extensions>
          <ns3:TrackPointExtension>
            <ns3:hr>143</ns3:hr>
            <ns3:cad>82</ns3:cad>
          </ns3:TrackPointExtension>
        </extensions>
      </trkpt>
      <trkpt lat="47.53015751950442790985107421875" lon="11.01102263666689395904541015625">
        <ele>1756</ele>
        <time>2026-09-01T08:08:27.000Z</time>
        <extensions>
          <ns3:TrackPointExtension>
            <ns3:hr>143</ns3:hr>
            <ns3:cad>83</ns3:cad>
          </ns3:TrackPointExtension>
        </extensions>
      </trkpt>
      <trkpt lat="47.53013270907104015350341796875" lon="11.0110559128224849700927734375">
        <ele>1756</ele>
        <time>2026-09-01T08:08:28.000Z</time>
        <extensions>
          <ns3:TrackPointExtension>
            <ns3:hr>143</ns3:hr>
            <ns3:cad>83</ns3:cad>
          </ns3:TrackPointExtension>
        </extensions>
      </trkpt>
      <trkpt lat="47.53012231551110744476318359375" lon="11.01108348928391933441162109375">
        <ele>1756.199951171875</ele>
        <time>2026-09-01T08:08:29.000Z</time>
        <extensions>
          <ns3:TrackPointExtension>
            <ns3:hr>143</ns3:hr>
            <ns3:cad>83</ns3:cad>
          </ns3:TrackPointExtension>
        </extensions>
      </trkpt>
      <trkpt lat="47.53010940738022327423095703125" lon="11.01110125891864299774169921875">
        <ele>1756.199951171875</ele>
        <time>2026-09-01T08:08:30.000Z</time>
        <extensions>
          <ns3:TrackPointExtension>
            <ns3:hr>143</ns3:hr>
            <ns3:cad>80</ns3:cad>
          </ns3:TrackPointExtension>
        </extensions>
      </trkpt>
      <trkpt lat="47.530095577239990234375" lon="11.01111869327723979949951171875">
        <ele>1756.4000244140625</ele>
        <time>2026-09-01T08:08:31.000Z</time>
        <extensions>
          <ns3:TrackPointExtension>
            <ns3:hr>143</ns3:hr>
            <ns3:cad>80</ns3:cad>
          </ns3:TrackPointExtension>
        </extensions>
      </trkpt>
      <trkpt lat="47.53008551895618438720703125" lon="11.01113294251263141632080078125">
        <ele>1756.5999755859375</ele>
        <time>2026-09-01T08:08:32.000Z</time>
        <extensions>
          <ns3:TrackPointExtension>
            <ns3:hr>143</ns3:hr>
            <ns3:cad>81</ns3:cad>
          </ns3:TrackPointExtension>
        </extensions>
      </trkpt>
      <trkpt lat="47.5300759635865688323974609375" lon="11.01115155033767223358154296875">
        <ele>1756.800048828125</ele>
        <time>2026-09-01T08:08:33.000Z</time>
        <extensions>
          <ns3:TrackPointExtension>
            <ns3:hr>143</ns3:hr>
            <ns3:cad>81</ns3:cad>
          </ns3:TrackPointExtension>
        </extensions>
      </trkpt>
      <trkpt lat="47.53007822670042514801025390625" lon="11.01115708239376544952392578125">
        <ele>1757</ele>
        <time>2026-09-01T08:08:34.000Z</time>
        <extensions>
          <ns3:TrackPointExtension>
            <ns3:hr>143</ns3:hr>
            <ns3:cad>81</ns3:cad>
          </ns3:TrackPointExtension>
        </extensions>
      </trkpt>
      <trkpt lat="47.5300756283104419708251953125" lon="11.01117854006588459014892578125">
        <ele>1757.199951171875</ele>
        <time>2026-09-01T08:08:35.000Z</time>
        <extensions>
          <ns3:TrackPointExtension>
            <ns3:hr>142</ns3:hr>
            <ns3:cad>81</ns3:cad>
          </ns3:TrackPointExtension>
        </extensions>
      </trkpt>
      <trkpt lat="47.53008015453815460205078125" lon="11.0111970640718936920166015625">
        <ele>1757.4000244140625</ele>
        <time>2026-09-01T08:08:36.000Z</time>
        <extensions>
          <ns3:TrackPointExtension>
            <ns3:hr>142</ns3:hr>
            <ns3:cad>81</ns3:cad>
          </ns3:TrackPointExtension>
        </extensions>
      </trkpt>
      <trkpt lat="47.530085854232311248779296875" lon="11.0112096369266510009765625">
        <ele>1757.5999755859375</ele>
        <time>2026-09-01T08:08:37.000Z</time>
        <extensions>
          <ns3:TrackPointExtension>
            <ns3:hr>142</ns3:hr>
            <ns3:cad>81</ns3:cad>
          </ns3:TrackPointExtension>
        </extensions>
      </trkpt>
      <trkpt lat="47.530095241963863372802734375" lon="11.0112302564084529876708984375">
        <ele>1757.800048828125</ele>
        <time>2026-09-01T08:08:38.000Z</time>
        <extensions>
          <ns3:TrackPointExtension>
            <ns3:hr>142</ns3:hr>
            <ns3:cad>0</ns3:cad>
          </ns3:TrackPointExtension>
        </extensions>
      </trkpt>
      <trkpt lat="47.530105970799922943115234375" lon="11.01124777458608150482177734375">
        <ele>1758.199951171875</ele>
        <time>2026-09-01T08:08:39.000Z</time>
        <extensions>
          <ns3:TrackPointExtension>
            <ns3:hr>141</ns3:hr>
            <ns3:cad>0</ns3:cad>
          </ns3:TrackPointExtension>
        </extensions>
      </trkpt>
      <trkpt lat="47.53011276014149188995361328125" lon="11.01126655004918575286865234375">
        <ele>1758.5999755859375</ele>
        <time>2026-09-01T08:08:40.000Z</time>
        <extensions>
          <ns3:TrackPointExtension>
            <ns3:hr>141</ns3:hr>
            <ns3:cad>0</ns3:cad>
          </ns3:TrackPointExtension>
        </extensions>
      </trkpt>
      <trkpt lat="47.530120722949504852294921875" lon="11.01128515787422657012939453125">
        <ele>1758.800048828125</ele>
        <time>2026-09-01T08:08:41.000Z</time>
        <extensions>
          <ns3:TrackPointExtension>
            <ns3:hr>140</ns3:hr>
            <ns3:cad>0</ns3:cad>
          </ns3:TrackPointExtension>
        </extensions>
      </trkpt>
      <trkpt lat="47.530126757919788360595703125" lon="11.01129949092864990234375">
        <ele>1759.199951171875</ele>
        <time>2026-09-01T08:08:42.000Z</time>
        <extensions>
          <ns3:TrackPointExtension>
            <ns3:hr>140</ns3:hr>
            <ns3:cad>56</ns3:cad>
          </ns3:TrackPointExtension>
        </extensions>
      </trkpt>
      <trkpt lat="47.5301329605281352996826171875" lon="11.0113164223730564117431640625">
        <ele>1759.5999755859375</ele>
        <time>2026-09-01T08:08:43.000Z</time>
        <extensions>
          <ns3:TrackPointExtension>
            <ns3:hr>140</ns3:hr>
            <ns3:cad>56</ns3:cad>
          </ns3:TrackPointExtension>
        </extensions>
      </trkpt>
      <trkpt lat="47.53013589419424533843994140625" lon="11.0113294981420040130615234375">
        <ele>1760</ele>
        <time>2026-09-01T08:08:44.000Z</time>
        <extensions>
          <ns3:TrackPointExtension>
            <ns3:hr>139</ns3:hr>
            <ns3:cad>56</ns3:cad>
          </ns3:TrackPointExtension>
        </extensions>
      </trkpt>
      <trkpt lat="47.530140168964862823486328125" lon="11.01134550757706165313720703125">
        <ele>1760.4000244140625</ele>
        <time>2026-09-01T08:08:45.000Z</time>
        <extensions>
          <ns3:TrackPointExtension>
            <ns3:hr>140</ns3:hr>
            <ns3:cad>53</ns3:cad>
          </ns3:TrackPointExtension>
        </extensions>
      </trkpt>
      <trkpt lat="47.5301443599164485931396484375" lon="11.01136319339275360107421875">
        <ele>1760.5999755859375</ele>
        <time>2026-09-01T08:08:46.000Z</time>
        <extensions>
          <ns3:TrackPointExtension>
            <ns3:hr>142</ns3:hr>
            <ns3:cad>53</ns3:cad>
          </ns3:TrackPointExtension>
        </extensions>
      </trkpt>
      <trkpt lat="47.5301480479538440704345703125" lon="11.01137350313365459442138671875">
        <ele>1761</ele>
        <time>2026-09-01T08:08:47.000Z</time>
        <extensions>
          <ns3:TrackPointExtension>
            <ns3:hr>143</ns3:hr>
            <ns3:cad>0</ns3:cad>
          </ns3:TrackPointExtension>
        </extensions>
      </trkpt>
      <trkpt lat="47.5301514007151126861572265625" lon="11.01138557307422161102294921875">
        <ele>1761.199951171875</ele>
        <time>2026-09-01T08:08:48.000Z</time>
        <extensions>
          <ns3:TrackPointExtension>
            <ns3:hr>148</ns3:hr>
            <ns3:cad>0</ns3:cad>
          </ns3:TrackPointExtension>
        </extensions>
      </trkpt>
      <trkpt lat="47.53015601076185703277587890625" lon="11.01139646954834461212158203125">
        <ele>1761.4000244140625</ele>
        <time>2026-09-01T08:08:49.000Z</time>
        <extensions>
          <ns3:TrackPointExtension>
            <ns3:hr>149</ns3:hr>
            <ns3:cad>0</ns3:cad>
          </ns3:TrackPointExtension>
        </extensions>
      </trkpt>
      <trkpt lat="47.53016070462763309478759765625" lon="11.01141122169792652130126953125">
        <ele>1761.800048828125</ele>
        <time>2026-09-01T08:08:50.000Z</time>
        <extensions>
          <ns3:TrackPointExtension>
            <ns3:hr>151</ns3:hr>
            <ns3:cad>0</ns3:cad>
          </ns3:TrackPointExtension>
        </extensions>
      </trkpt>
      <trkpt lat="47.53016456030309200286865234375" lon="11.01142597384750843048095703125">
        <ele>1762</ele>
        <time>2026-09-01T08:08:51.000Z</time>
        <extensions>
          <ns3:TrackPointExtension>
            <ns3:hr>152</ns3:hr>
            <ns3:cad>0</ns3:cad>
          </ns3:TrackPointExtension>
        </extensions>
      </trkpt>
      <trkpt lat="47.53016774542629718780517578125" lon="11.01144609041512012481689453125">
        <ele>1762.4000244140625</ele>
        <time>2026-09-01T08:08:52.000Z</time>
        <extensions>
          <ns3:TrackPointExtension>
            <ns3:hr>153</ns3:hr>
            <ns3:cad>0</ns3:cad>
          </ns3:TrackPointExtension>
        </extensions>
      </trkpt>
      <trkpt lat="47.530172355473041534423828125" lon="11.011467464268207550048828125">
        <ele>1762.800048828125</ele>
        <time>2026-09-01T08:08:53.000Z</time>
        <extensions>
          <ns3:TrackPointExtension>
            <ns3:hr>154</ns3:hr>
            <ns3:cad>0</ns3:cad>
          </ns3:TrackPointExtension>
        </extensions>
      </trkpt>
      <trkpt lat="47.53017512150108814239501953125" lon="11.01148062385618686676025390625">
        <ele>1763.4000244140625</ele>
        <time>2026-09-01T08:08:54.000Z</time>
        <extensions>
          <ns3:TrackPointExtension>
            <ns3:hr>154</ns3:hr>
            <ns3:cad>0</ns3:cad>
          </ns3:TrackPointExtension>
        </extensions>
      </trkpt>
      <trkpt lat="47.53017730079591274261474609375" lon="11.01148984394967555999755859375">
        <ele>1763.800048828125</ele>
        <time>2026-09-01T08:08:55.000Z</time>
        <extensions>
          <ns3:TrackPointExtension>
            <ns3:hr>155</ns3:hr>
            <ns3:cad>0</ns3:cad>
          </ns3:TrackPointExtension>
        </extensions>
      </trkpt>
      <trkpt lat="47.530169673264026641845703125" lon="11.01150660775601863861083984375">
        <ele>1764</ele>
        <time>2026-09-01T08:08:56.000Z</time>
        <extensions>
          <ns3:TrackPointExtension>
            <ns3:hr>156</ns3:hr>
            <ns3:cad>0</ns3:cad>
          </ns3:TrackPointExtension>
        </extensions>
      </trkpt>
      <trkpt lat="47.53017461858689785003662109375" lon="11.01152068935334682464599609375">
        <ele>1764.4000244140625</ele>
        <time>2026-09-01T08:08:57.000Z</time>
        <extensions>
          <ns3:TrackPointExtension>
            <ns3:hr>156</ns3:hr>
            <ns3:cad>52</ns3:cad>
          </ns3:TrackPointExtension>
        </extensions>
      </trkpt>
      <trkpt lat="47.5301798991858959197998046875" lon="11.01154047064483165740966796875">
        <ele>1764.4000244140625</ele>
        <time>2026-09-01T08:08:58.000Z</time>
        <extensions>
          <ns3:TrackPointExtension>
            <ns3:hr>156</ns3:hr>
            <ns3:cad>52</ns3:cad>
          </ns3:TrackPointExtension>
        </extensions>
      </trkpt>
      <trkpt lat="47.53018333576619625091552734375" lon="11.01155689917504787445068359375">
        <ele>1764.5999755859375</ele>
        <time>2026-09-01T08:08:59.000Z</time>
        <extensions>
          <ns3:TrackPointExtension>
            <ns3:hr>156</ns3:hr>
            <ns3:cad>52</ns3:cad>
          </ns3:TrackPointExtension>
        </extensions>
      </trkpt>
      <trkpt lat="47.53018744289875030517578125" lon="11.01156930439174175262451171875">
        <ele>1764.800048828125</ele>
        <time>2026-09-01T08:09:00.000Z</time>
        <extensions>
          <ns3:TrackPointExtension>
            <ns3:hr>156</ns3:hr>
            <ns3:cad>52</ns3:cad>
          </ns3:TrackPointExtension>
        </extensions>
      </trkpt>
      <trkpt lat="47.53019146621227264404296875" lon="11.011587493121623992919921875">
        <ele>1765</ele>
        <time>2026-09-01T08:09:01.000Z</time>
        <extensions>
          <ns3:TrackPointExtension>
            <ns3:hr>156</ns3:hr>
            <ns3:cad>51</ns3:cad>
          </ns3:TrackPointExtension>
        </extensions>
      </trkpt>
      <trkpt lat="47.530195154249668121337890625" lon="11.011606268584728240966796875">
        <ele>1765.199951171875</ele>
        <time>2026-09-01T08:09:02.000Z</time>
        <extensions>
          <ns3:TrackPointExtension>
            <ns3:hr>156</ns3:hr>
            <ns3:cad>51</ns3:cad>
          </ns3:TrackPointExtension>
        </extensions>
      </trkpt>
      <trkpt lat="47.53019942902028560638427734375" lon="11.011629402637481689453125">
        <ele>1765.5999755859375</ele>
        <time>2026-09-01T08:09:03.000Z</time>
        <extensions>
          <ns3:TrackPointExtension>
            <ns3:hr>157</ns3:hr>
            <ns3:cad>51</ns3:cad>
          </ns3:TrackPointExtension>
        </extensions>
      </trkpt>
      <trkpt lat="47.53020211122930049896240234375" lon="11.011652536690235137939453125">
        <ele>1765.800048828125</ele>
        <time>2026-09-01T08:09:04.000Z</time>
        <extensions>
          <ns3:TrackPointExtension>
            <ns3:hr>157</ns3:hr>
            <ns3:cad>51</ns3:cad>
          </ns3:TrackPointExtension>
        </extensions>
      </trkpt>
      <trkpt lat="47.5302057154476642608642578125" lon="11.01168430410325527191162109375">
        <ele>1766.199951171875</ele>
        <time>2026-09-01T08:09:05.000Z</time>
        <extensions>
          <ns3:TrackPointExtension>
            <ns3:hr>158</ns3:hr>
            <ns3:cad>51</ns3:cad>
          </ns3:TrackPointExtension>
        </extensions>
      </trkpt>
      <trkpt lat="47.5302068889141082763671875" lon="11.0117097012698650360107421875">
        <ele>1766.4000244140625</ele>
        <time>2026-09-01T08:09:06.000Z</time>
        <extensions>
          <ns3:TrackPointExtension>
            <ns3:hr>158</ns3:hr>
            <ns3:cad>51</ns3:cad>
          </ns3:TrackPointExtension>
        </extensions>
      </trkpt>
      <trkpt lat="47.53020797856152057647705078125" lon="11.01173778064548969268798828125">
        <ele>1766.5999755859375</ele>
        <time>2026-09-01T08:09:07.000Z</time>
        <extensions>
          <ns3:TrackPointExtension>
            <ns3:hr>159</ns3:hr>
            <ns3:cad>51</ns3:cad>
          </ns3:TrackPointExtension>
        </extensions>
      </trkpt>
      <trkpt lat="47.53021024167537689208984375" lon="11.01176091469824314117431640625">
        <ele>1767</ele>
        <time>2026-09-01T08:09:08.000Z</time>
        <extensions>
          <ns3:TrackPointExtension>
            <ns3:hr>159</ns3:hr>
            <ns3:cad>51</ns3:cad>
          </ns3:TrackPointExtension>
        </extensions>
      </trkpt>
      <trkpt lat="47.53021426498889923095703125" lon="11.0117801092565059661865234375">
        <ele>1767.4000244140625</ele>
        <time>2026-09-01T08:09:09.000Z</time>
        <extensions>
          <ns3:TrackPointExtension>
            <ns3:hr>160</ns3:hr>
            <ns3:cad>51</ns3:cad>
          </ns3:TrackPointExtension>
        </extensions>
      </trkpt>
      <trkpt lat="47.53021954558789730072021484375" lon="11.01179930381476879119873046875">
        <ele>1767.5999755859375</ele>
        <time>2026-09-01T08:09:10.000Z</time>
        <extensions>
          <ns3:TrackPointExtension>
            <ns3:hr>160</ns3:hr>
            <ns3:cad>51</ns3:cad>
          </ns3:TrackPointExtension>
        </extensions>
      </trkpt>
      <trkpt lat="47.5302191264927387237548828125" lon="11.0118247009813785552978515625">
        <ele>1768</ele>
        <time>2026-09-01T08:09:11.000Z</time>
        <extensions>
          <ns3:TrackPointExtension>
            <ns3:hr>161</ns3:hr>
            <ns3:cad>54</ns3:cad>
          </ns3:TrackPointExtension>
        </extensions>
      </trkpt>
      <trkpt lat="47.5302241556346416473388671875" lon="11.01186183281242847442626953125">
        <ele>1768.199951171875</ele>
        <time>2026-09-01T08:09:12.000Z</time>
        <extensions>
          <ns3:TrackPointExtension>
            <ns3:hr>161</ns3:hr>
            <ns3:cad>54</ns3:cad>
          </ns3:TrackPointExtension>
        </extensions>
      </trkpt>
      <trkpt lat="47.53022759221494197845458984375" lon="11.011889241635799407958984375">
        <ele>1768.4000244140625</ele>
        <time>2026-09-01T08:09:13.000Z</time>
        <extensions>
          <ns3:TrackPointExtension>
            <ns3:hr>162</ns3:hr>
            <ns3:cad>71</ns3:cad>
          </ns3:TrackPointExtension>
        </extensions>
      </trkpt>
      <trkpt lat="47.5302332080900669097900390625" lon="11.0119128786027431488037109375">
        <ele>1768.5999755859375</ele>
        <time>2026-09-01T08:09:14.000Z</time>
        <extensions>
          <ns3:TrackPointExtension>
            <ns3:hr>162</ns3:hr>
            <ns3:cad>71</ns3:cad>
          </ns3:TrackPointExtension>
        </extensions>
      </trkpt>
      <trkpt lat="47.530238069593906402587890625" lon="11.011945568025112152099609375">
        <ele>1769</ele>
        <time>2026-09-01T08:09:15.000Z</time>
        <extensions>
          <ns3:TrackPointExtension>
            <ns3:hr>163</ns3:hr>
            <ns3:cad>71</ns3:cad>
          </ns3:TrackPointExtension>
        </extensions>
      </trkpt>
      <trkpt lat="47.530240751802921295166015625" lon="11.01196291856467723846435546875">
        <ele>1769.4000244140625</ele>
        <time>2026-09-01T08:09:16.000Z</time>
        <extensions>
          <ns3:TrackPointExtension>
            <ns3:hr>163</ns3:hr>
            <ns3:cad>72</ns3:cad>
          </ns3:TrackPointExtension>
        </extensions>
      </trkpt>
      <trkpt lat="47.53024469129741191864013671875" lon="11.0120023973286151885986328125">
        <ele>1769.5999755859375</ele>
        <time>2026-09-01T08:09:17.000Z</time>
        <extensions>
          <ns3:TrackPointExtension>
            <ns3:hr>164</ns3:hr>
            <ns3:cad>73</ns3:cad>
          </ns3:TrackPointExtension>
        </extensions>
      </trkpt>
      <trkpt lat="47.53025357611477375030517578125" lon="11.012039445340633392333984375">
        <ele>1769.800048828125</ele>
        <time>2026-09-01T08:09:18.000Z</time>
        <extensions>
          <ns3:TrackPointExtension>
            <ns3:hr>164</ns3:hr>
            <ns3:cad>73</ns3:cad>
          </ns3:TrackPointExtension>
        </extensions>
      </trkpt>
      <trkpt lat="47.53026296384632587432861328125" lon="11.012068279087543487548828125">
        <ele>1770</ele>
        <time>2026-09-01T08:09:19.000Z</time>
        <extensions>
          <ns3:TrackPointExtension>
            <ns3:hr>165</ns3:hr>
            <ns3:cad>73</ns3:cad>
          </ns3:TrackPointExtension>
        </extensions>
      </trkpt>
      <trkpt lat="47.53026547841727733612060546875" lon="11.0121095180511474609375">
        <ele>1770</ele>
        <time>2026-09-01T08:09:20.000Z</time>
        <extensions>
          <ns3:TrackPointExtension>
            <ns3:hr>166</ns3:hr>
            <ns3:cad>75</ns3:cad>
          </ns3:TrackPointExtension>
        </extensions>
      </trkpt>
      <trkpt lat="47.530272267758846282958984375" lon="11.01214480586349964141845703125">
        <ele>1770.199951171875</ele>
        <time>2026-09-01T08:09:21.000Z</time>
        <extensions>
          <ns3:TrackPointExtension>
            <ns3:hr>167</ns3:hr>
            <ns3:cad>75</ns3:cad>
          </ns3:TrackPointExtension>
        </extensions>
      </trkpt>
      <trkpt lat="47.53028090111911296844482421875" lon="11.01217196322977542877197265625">
        <ele>1770.199951171875</ele>
        <time>2026-09-01T08:09:22.000Z</time>
        <extensions>
          <ns3:TrackPointExtension>
            <ns3:hr>167</ns3:hr>
            <ns3:cad>77</ns3:cad>
          </ns3:TrackPointExtension>
        </extensions>
      </trkpt>
      <trkpt lat="47.530296407639980316162109375" lon="11.012208424508571624755859375">
        <ele>1770</ele>
        <time>2026-09-01T08:09:23.000Z</time>
        <extensions>
          <ns3:TrackPointExtension>
            <ns3:hr>168</ns3:hr>
            <ns3:cad>79</ns3:cad>
          </ns3:TrackPointExtension>
        </extensions>
      </trkpt>
      <trkpt lat="47.53030772320926189422607421875" lon="11.0122334025800228118896484375">
        <ele>1770</ele>
        <time>2026-09-01T08:09:24.000Z</time>
        <extensions>
          <ns3:TrackPointExtension>
            <ns3:hr>168</ns3:hr>
            <ns3:cad>81</ns3:cad>
          </ns3:TrackPointExtension>
        </extensions>
      </trkpt>
      <trkpt lat="47.53031576983630657196044921875" lon="11.01225594989955425262451171875">
        <ele>1770</ele>
        <time>2026-09-01T08:09:25.000Z</time>
        <extensions>
          <ns3:TrackPointExtension>
            <ns3:hr>168</ns3:hr>
            <ns3:cad>81</ns3:cad>
          </ns3:TrackPointExtension>
        </extensions>
      </trkpt>
      <trkpt lat="47.53032264299690723419189453125" lon="11.01228008978068828582763671875">
        <ele>1769.800048828125</ele>
        <time>2026-09-01T08:09:26.000Z</time>
        <extensions>
          <ns3:TrackPointExtension>
            <ns3:hr>169</ns3:hr>
            <ns3:cad>80</ns3:cad>
          </ns3:TrackPointExtension>
        </extensions>
      </trkpt>
      <trkpt lat="47.53033840097486972808837890625" lon="11.012289561331272125244140625">
        <ele>1769.800048828125</ele>
        <time>2026-09-01T08:09:27.000Z</time>
        <extensions>
          <ns3:TrackPointExtension>
            <ns3:hr>169</ns3:hr>
            <ns3:cad>80</ns3:cad>
          </ns3:TrackPointExtension>
        </extensions>
      </trkpt>
      <trkpt lat="47.53035181201994419097900390625" lon="11.012298278510570526123046875">
        <ele>1769.5999755859375</ele>
        <time>2026-09-01T08:09:28.000Z</time>
        <extensions>
          <ns3:TrackPointExtension>
            <ns3:hr>169</ns3:hr>
            <ns3:cad>80</ns3:cad>
          </ns3:TrackPointExtension>
        </extensions>
      </trkpt>
      <trkpt lat="47.530362792313098907470703125" lon="11.0123135335743427276611328125">
        <ele>1769.5999755859375</ele>
        <time>2026-09-01T08:09:29.000Z</time>
        <extensions>
          <ns3:TrackPointExtension>
            <ns3:hr>169</ns3:hr>
            <ns3:cad>80</ns3:cad>
          </ns3:TrackPointExtension>
        </extensions>
      </trkpt>
      <trkpt lat="47.53037192858755588531494140625" lon="11.0123227536678314208984375">
        <ele>1769.4000244140625</ele>
        <time>2026-09-01T08:09:30.000Z</time>
        <extensions>
          <ns3:TrackPointExtension>
            <ns3:hr>169</ns3:hr>
            <ns3:cad>80</ns3:cad>
          </ns3:TrackPointExtension>
        </extensions>
      </trkpt>
      <trkpt lat="47.5303814001381397247314453125" lon="11.0123299621045589447021484375">
        <ele>1769.4000244140625</ele>
        <time>2026-09-01T08:09:31.000Z</time>
        <extensions>
          <ns3:TrackPointExtension>
            <ns3:hr>169</ns3:hr>
            <ns3:cad>80</ns3:cad>
          </ns3:TrackPointExtension>
        </extensions>
      </trkpt>
      <trkpt lat="47.5303881056606769561767578125" lon="11.012331806123256683349609375">
        <ele>1769.4000244140625</ele>
        <time>2026-09-01T08:09:32.000Z</time>
        <extensions>
          <ns3:TrackPointExtension>
            <ns3:hr>169</ns3:hr>
            <ns3:cad>80</ns3:cad>
          </ns3:TrackPointExtension>
        </extensions>
      </trkpt>
      <trkpt lat="47.53039472736418247222900390625" lon="11.01234085857868194580078125">
        <ele>1769.4000244140625</ele>
        <time>2026-09-01T08:09:33.000Z</time>
        <extensions>
          <ns3:TrackPointExtension>
            <ns3:hr>169</ns3:hr>
            <ns3:cad>80</ns3:cad>
          </ns3:TrackPointExtension>
        </extensions>
      </trkpt>
      <trkpt lat="47.53039799630641937255859375" lon="11.01235519163310527801513671875">
        <ele>1769.5999755859375</ele>
        <time>2026-09-01T08:09:34.000Z</time>
        <extensions>
          <ns3:TrackPointExtension>
            <ns3:hr>169</ns3:hr>
            <ns3:cad>80</ns3:cad>
          </ns3:TrackPointExtension>
        </extensions>
      </trkpt>
      <trkpt lat="47.5304035283625125885009765625" lon="11.01237664930522441864013671875">
        <ele>1769.4000244140625</ele>
        <time>2026-09-01T08:09:35.000Z</time>
        <extensions>
          <ns3:TrackPointExtension>
            <ns3:hr>169</ns3:hr>
            <ns3:cad>80</ns3:cad>
          </ns3:TrackPointExtension>
        </extensions>
      </trkpt>
      <trkpt lat="47.53040830604732036590576171875" lon="11.0124020464718341827392578125">
        <ele>1769.199951171875</ele>
        <time>2026-09-01T08:09:36.000Z</time>
        <extensions>
          <ns3:TrackPointExtension>
            <ns3:hr>168</ns3:hr>
            <ns3:cad>80</ns3:cad>
          </ns3:TrackPointExtension>
        </extensions>
      </trkpt>
      <trkpt lat="47.53041165880858898162841796875" lon="11.01242023520171642303466796875">
        <ele>1768.800048828125</ele>
        <time>2026-09-01T08:09:37.000Z</time>
        <extensions>
          <ns3:TrackPointExtension>
            <ns3:hr>168</ns3:hr>
            <ns3:cad>0</ns3:cad>
          </ns3:TrackPointExtension>
        </extensions>
      </trkpt>
      <trkpt lat="47.5304236449301242828369140625" lon="11.01244018413126468658447265625">
        <ele>1768.4000244140625</ele>
        <time>2026-09-01T08:09:38.000Z</time>
        <extensions>
          <ns3:TrackPointExtension>
            <ns3:hr>168</ns3:hr>
            <ns3:cad>0</ns3:cad>
          </ns3:TrackPointExtension>
        </extensions>
      </trkpt>
      <trkpt lat="47.53042993135750293731689453125" lon="11.012457869946956634521484375">
        <ele>1768.199951171875</ele>
        <time>2026-09-01T08:09:39.000Z</time>
        <extensions>
          <ns3:TrackPointExtension>
            <ns3:hr>167</ns3:hr>
            <ns3:cad>79</ns3:cad>
          </ns3:TrackPointExtension>
        </extensions>
      </trkpt>
      <trkpt lat="47.53043378703296184539794921875" lon="11.0124734602868556976318359375">
        <ele>1767.800048828125</ele>
        <time>2026-09-01T08:09:40.000Z</time>
        <extensions>
          <ns3:TrackPointExtension>
            <ns3:hr>167</ns3:hr>
            <ns3:cad>79</ns3:cad>
          </ns3:TrackPointExtension>
        </extensions>
      </trkpt>
      <trkpt lat="47.53043948672711849212646484375" lon="11.01249500177800655364990234375">
        <ele>1767.5999755859375</ele>
        <time>2026-09-01T08:09:41.000Z</time>
        <extensions>
          <ns3:TrackPointExtension>
            <ns3:hr>166</ns3:hr>
            <ns3:cad>79</ns3:cad>
          </ns3:TrackPointExtension>
        </extensions>
      </trkpt>
      <trkpt lat="47.530444599688053131103515625" lon="11.01251243613660335540771484375">
        <ele>1767.4000244140625</ele>
        <time>2026-09-01T08:09:42.000Z</time>
        <extensions>
          <ns3:TrackPointExtension>
            <ns3:hr>165</ns3:hr>
            <ns3:cad>79</ns3:cad>
          </ns3:TrackPointExtension>
        </extensions>
      </trkpt>
      <trkpt lat="47.5304521434009075164794921875" lon="11.01253003813326358795166015625">
        <ele>1767</ele>
        <time>2026-09-01T08:09:43.000Z</time>
        <extensions>
          <ns3:TrackPointExtension>
            <ns3:hr>165</ns3:hr>
            <ns3:cad>79</ns3:cad>
          </ns3:TrackPointExtension>
        </extensions>
      </trkpt>
      <trkpt lat="47.5304575078189373016357421875" lon="11.012545712292194366455078125">
        <ele>1766.800048828125</ele>
        <time>2026-09-01T08:09:44.000Z</time>
        <extensions>
          <ns3:TrackPointExtension>
            <ns3:hr>164</ns3:hr>
            <ns3:cad>74</ns3:cad>
          </ns3:TrackPointExtension>
        </extensions>
      </trkpt>
      <trkpt lat="47.5304642133414745330810546875" lon="11.0125613026320934295654296875">
        <ele>1766.4000244140625</ele>
        <time>2026-09-01T08:09:45.000Z</time>
        <extensions>
          <ns3:TrackPointExtension>
            <ns3:hr>164</ns3:hr>
            <ns3:cad>74</ns3:cad>
          </ns3:TrackPointExtension>
        </extensions>
      </trkpt>
      <trkpt lat="47.5304722599685192108154296875" lon="11.0125829279422760009765625">
        <ele>1766.199951171875</ele>
        <time>2026-09-01T08:09:46.000Z</time>
        <extensions>
          <ns3:TrackPointExtension>
            <ns3:hr>163</ns3:hr>
            <ns3:cad>63</ns3:cad>
          </ns3:TrackPointExtension>
        </extensions>
      </trkpt>
      <trkpt lat="47.530481480062007904052734375" lon="11.01260765455663204193115234375">
        <ele>1766</ele>
        <time>2026-09-01T08:09:47.000Z</time>
        <extensions>
          <ns3:TrackPointExtension>
            <ns3:hr>162</ns3:hr>
            <ns3:cad>60</ns3:cad>
          </ns3:TrackPointExtension>
        </extensions>
      </trkpt>
      <trkpt lat="47.5304957292973995208740234375" lon="11.01262860931456089019775390625">
        <ele>1765.5999755859375</ele>
        <time>2026-09-01T08:09:48.000Z</time>
        <extensions>
          <ns3:TrackPointExtension>
            <ns3:hr>161</ns3:hr>
            <ns3:cad>60</ns3:cad>
          </ns3:TrackPointExtension>
        </extensions>
      </trkpt>
      <trkpt lat="47.53050637431442737579345703125" lon="11.01265735924243927001953125">
        <ele>1765.199951171875</ele>
        <time>2026-09-01T08:09:49.000Z</time>
        <extensions>
          <ns3:TrackPointExtension>
            <ns3:hr>160</ns3:hr>
            <ns3:cad>60</ns3:cad>
          </ns3:TrackPointExtension>
        </extensions>
      </trkpt>
      <trkpt lat="47.53052414394915103912353515625" lon="11.01269298233091831207275390625">
        <ele>1765</ele>
        <time>2026-09-01T08:09:50.000Z</time>
        <extensions>
          <ns3:TrackPointExtension>
            <ns3:hr>159</ns3:hr>
            <ns3:cad>60</ns3:cad>
          </ns3:TrackPointExtension>
        </extensions>
      </trkpt>
      <trkpt lat="47.53053789027035236358642578125" lon="11.01272198371589183807373046875">
        <ele>1764.800048828125</ele>
        <time>2026-09-01T08:09:51.000Z</time>
        <extensions>
          <ns3:TrackPointExtension>
            <ns3:hr>158</ns3:hr>
            <ns3:cad>60</ns3:cad>
          </ns3:TrackPointExtension>
        </extensions>
      </trkpt>
      <trkpt lat="47.530553229153156280517578125" lon="11.012758947908878326416015625">
        <ele>1764.5999755859375</ele>
        <time>2026-09-01T08:09:52.000Z</time>
        <extensions>
          <ns3:TrackPointExtension>
            <ns3:hr>157</ns3:hr>
            <ns3:cad>79</ns3:cad>
          </ns3:TrackPointExtension>
        </extensions>
      </trkpt>
      <trkpt lat="47.53057192079722881317138671875" lon="11.01280664093792438507080078125">
        <ele>1764.5999755859375</ele>
        <time>2026-09-01T08:09:53.000Z</time>
        <extensions>
          <ns3:TrackPointExtension>
            <ns3:hr>156</ns3:hr>
            <ns3:cad>79</ns3:cad>
          </ns3:TrackPointExtension>
        </extensions>
      </trkpt>
      <trkpt lat="47.53058332018554210662841796875" lon="11.012828685343265533447265625">
        <ele>1764.5999755859375</ele>
        <time>2026-09-01T08:09:54.000Z</time>
        <extensions>
          <ns3:TrackPointExtension>
            <ns3:hr>156</ns3:hr>
            <ns3:cad>78</ns3:cad>
          </ns3:TrackPointExtension>
        </extensions>
      </trkpt>
      <trkpt lat="47.5305993296205997467041015625" lon="11.01286263205111026763916015625">
        <ele>1764.4000244140625</ele>
        <time>2026-09-01T08:09:55.000Z</time>
        <extensions>
          <ns3:TrackPointExtension>
            <ns3:hr>156</ns3:hr>
            <ns3:cad>78</ns3:cad>
          </ns3:TrackPointExtension>
        </extensions>
      </trkpt>
      <trkpt lat="47.530614249408245086669921875" lon="11.01289699785411357879638671875">
        <ele>1764.4000244140625</ele>
        <time>2026-09-01T08:09:56.000Z</time>
        <extensions>
          <ns3:TrackPointExtension>
            <ns3:hr>156</ns3:hr>
            <ns3:cad>78</ns3:cad>
          </ns3:TrackPointExtension>
        </extensions>
      </trkpt>
      <trkpt lat="47.5306191109120845794677734375" lon="11.01292147301137447357177734375">
        <ele>1764.4000244140625</ele>
        <time>2026-09-01T08:09:57.000Z</time>
        <extensions>
          <ns3:TrackPointExtension>
            <ns3:hr>157</ns3:hr>
            <ns3:cad>80</ns3:cad>
          </ns3:TrackPointExtension>
        </extensions>
      </trkpt>
      <trkpt lat="47.53062841482460498809814453125" lon="11.01295768283307552337646484375">
        <ele>1764.5999755859375</ele>
        <time>2026-09-01T08:09:58.000Z</time>
        <extensions>
          <ns3:TrackPointExtension>
            <ns3:hr>157</ns3:hr>
            <ns3:cad>82</ns3:cad>
          </ns3:TrackPointExtension>
        </extensions>
      </trkpt>
      <trkpt lat="47.530637048184871673583984375" lon="11.01299875415861606597900390625">
        <ele>1765</ele>
        <time>2026-09-01T08:09:59.000Z</time>
        <extensions>
          <ns3:TrackPointExtension>
            <ns3:hr>157</ns3:hr>
            <ns3:cad>82</ns3:cad>
          </ns3:TrackPointExtension>
        </extensions>
      </trkpt>
      <trkpt lat="47.53064132295548915863037109375" lon="11.0130202956497669219970703125">
        <ele>1765.4000244140625</ele>
        <time>2026-09-01T08:10:00.000Z</time>
        <extensions>
          <ns3:TrackPointExtension>
            <ns3:hr>157</ns3:hr>
            <ns3:cad>82</ns3:cad>
          </ns3:TrackPointExtension>
        </extensions>
      </trkpt>
      <trkpt lat="47.53064819611608982086181640625" lon="11.013053320348262786865234375">
        <ele>1765.5999755859375</ele>
        <time>2026-09-01T08:10:01.000Z</time>
        <extensions>
          <ns3:TrackPointExtension>
            <ns3:hr>157</ns3:hr>
            <ns3:cad>82</ns3:cad>
          </ns3:TrackPointExtension>
        </extensions>
      </trkpt>
      <trkpt lat="47.5306539796292781829833984375" lon="11.01307435892522335052490234375">
        <ele>1765.800048828125</ele>
        <time>2026-09-01T08:10:02.000Z</time>
        <extensions>
          <ns3:TrackPointExtension>
            <ns3:hr>157</ns3:hr>
            <ns3:cad>80</ns3:cad>
          </ns3:TrackPointExtension>
        </extensions>
      </trkpt>
      <trkpt lat="47.53065942786633968353271484375" lon="11.013104617595672607421875">
        <ele>1766</ele>
        <time>2026-09-01T08:10:03.000Z</time>
        <extensions>
          <ns3:TrackPointExtension>
            <ns3:hr>157</ns3:hr>
            <ns3:cad>80</ns3:cad>
          </ns3:TrackPointExtension>
        </extensions>
      </trkpt>
      <trkpt lat="47.53066546283662319183349609375" lon="11.01312263868749141693115234375">
        <ele>1766.199951171875</ele>
        <time>2026-09-01T08:10:04.000Z</time>
        <extensions>
          <ns3:TrackPointExtension>
            <ns3:hr>156</ns3:hr>
            <ns3:cad>80</ns3:cad>
          </ns3:TrackPointExtension>
        </extensions>
      </trkpt>
      <trkpt lat="47.53067049197852611541748046875" lon="11.01314577274024486541748046875">
        <ele>1766.199951171875</ele>
        <time>2026-09-01T08:10:05.000Z</time>
        <extensions>
          <ns3:TrackPointExtension>
            <ns3:hr>156</ns3:hr>
            <ns3:cad>80</ns3:cad>
          </ns3:TrackPointExtension>
        </extensions>
      </trkpt>
      <trkpt lat="47.53067535348236560821533203125" lon="11.0131832398474216461181640625">
        <ele>1766.199951171875</ele>
        <time>2026-09-01T08:10:06.000Z</time>
        <extensions>
          <ns3:TrackPointExtension>
            <ns3:hr>155</ns3:hr>
            <ns3:cad>80</ns3:cad>
          </ns3:TrackPointExtension>
        </extensions>
      </trkpt>
      <trkpt lat="47.5306789577007293701171875" lon="11.0132063739001750946044921875">
        <ele>1766.4000244140625</ele>
        <time>2026-09-01T08:10:07.000Z</time>
        <extensions>
          <ns3:TrackPointExtension>
            <ns3:hr>155</ns3:hr>
            <ns3:cad>80</ns3:cad>
          </ns3:TrackPointExtension>
        </extensions>
      </trkpt>
      <trkpt lat="47.530677951872348785400390625" lon="11.01322171278297901153564453125">
        <ele>1766.5999755859375</ele>
        <time>2026-09-01T08:10:08.000Z</time>
        <extensions>
          <ns3:TrackPointExtension>
            <ns3:hr>154</ns3:hr>
            <ns3:cad>72</ns3:cad>
          </ns3:TrackPointExtension>
        </extensions>
      </trkpt>
      <trkpt lat="47.53066948615014553070068359375" lon="11.01325188763439655303955078125">
        <ele>1766.800048828125</ele>
        <time>2026-09-01T08:10:09.000Z</time>
        <extensions>
          <ns3:TrackPointExtension>
            <ns3:hr>154</ns3:hr>
            <ns3:cad>72</ns3:cad>
          </ns3:TrackPointExtension>
        </extensions>
      </trkpt>
      <trkpt lat="47.53066898323595523834228515625" lon="11.013283990323543548583984375">
        <ele>1767.199951171875</ele>
        <time>2026-09-01T08:10:10.000Z</time>
        <extensions>
          <ns3:TrackPointExtension>
            <ns3:hr>153</ns3:hr>
            <ns3:cad>75</ns3:cad>
          </ns3:TrackPointExtension>
        </extensions>
      </trkpt>
      <trkpt lat="47.530669905245304107666015625" lon="11.013301424682140350341796875">
        <ele>1767.5999755859375</ele>
        <time>2026-09-01T08:10:11.000Z</time>
        <extensions>
          <ns3:TrackPointExtension>
            <ns3:hr>153</ns3:hr>
            <ns3:cad>78</ns3:cad>
          </ns3:TrackPointExtension>
        </extensions>
      </trkpt>
      <trkpt lat="47.53067267127335071563720703125" lon="11.01332749240100383758544921875">
        <ele>1767.800048828125</ele>
        <time>2026-09-01T08:10:12.000Z</time>
        <extensions>
          <ns3:TrackPointExtension>
            <ns3:hr>152</ns3:hr>
            <ns3:cad>78</ns3:cad>
          </ns3:TrackPointExtension>
        </extensions>
      </trkpt>
      <trkpt lat="47.53067024052143096923828125" lon="11.01336286403238773345947265625">
        <ele>1768.199951171875</ele>
        <time>2026-09-01T08:10:13.000Z</time>
        <extensions>
          <ns3:TrackPointExtension>
            <ns3:hr>152</ns3:hr>
            <ns3:cad>77</ns3:cad>
          </ns3:TrackPointExtension>
        </extensions>
      </trkpt>
      <trkpt lat="47.5306730903685092926025390625" lon="11.01338180713355541229248046875">
        <ele>1768.5999755859375</ele>
        <time>2026-09-01T08:10:14.000Z</time>
        <extensions>
          <ns3:TrackPointExtension>
            <ns3:hr>152</ns3:hr>
            <ns3:cad>77</ns3:cad>
          </ns3:TrackPointExtension>
        </extensions>
      </trkpt>
      <trkpt lat="47.5306787900626659393310546875" lon="11.01340611465275287628173828125">
        <ele>1769</ele>
        <time>2026-09-01T08:10:15.000Z</time>
        <extensions>
          <ns3:TrackPointExtension>
            <ns3:hr>152</ns3:hr>
            <ns3:cad>77</ns3:cad>
          </ns3:TrackPointExtension>
        </extensions>
      </trkpt>
      <trkpt lat="47.53068541176617145538330078125" lon="11.01343276910483837127685546875">
        <ele>1769.4000244140625</ele>
        <time>2026-09-01T08:10:16.000Z</time>
        <extensions>
          <ns3:TrackPointExtension>
            <ns3:hr>153</ns3:hr>
            <ns3:cad>77</ns3:cad>
          </ns3:TrackPointExtension>
        </extensions>
      </trkpt>
      <trkpt lat="47.53068557940423488616943359375" lon="11.0134474374353885650634765625">
        <ele>1769.5999755859375</ele>
        <time>2026-09-01T08:10:17.000Z</time>
        <extensions>
          <ns3:TrackPointExtension>
            <ns3:hr>153</ns3:hr>
            <ns3:cad>77</ns3:cad>
          </ns3:TrackPointExtension>
        </extensions>
      </trkpt>
      <trkpt lat="47.530683986842632293701171875" lon="11.01346730254590511322021484375">
        <ele>1770</ele>
        <time>2026-09-01T08:10:18.000Z</time>
        <extensions>
          <ns3:TrackPointExtension>
            <ns3:hr>153</ns3:hr>
            <ns3:cad>77</ns3:cad>
          </ns3:TrackPointExtension>
        </extensions>
      </trkpt>
      <trkpt lat="47.53068541176617145538330078125" lon="11.01348792202770709991455078125">
        <ele>1770.199951171875</ele>
        <time>2026-09-01T08:10:19.000Z</time>
        <extensions>
          <ns3:TrackPointExtension>
            <ns3:hr>153</ns3:hr>
            <ns3:cad>77</ns3:cad>
          </ns3:TrackPointExtension>
        </extensions>
      </trkpt>
      <trkpt lat="47.53068499267101287841796875" lon="11.013501249253749847412109375">
        <ele>1770.4000244140625</ele>
        <time>2026-09-01T08:10:20.000Z</time>
        <extensions>
          <ns3:TrackPointExtension>
            <ns3:hr>153</ns3:hr>
            <ns3:cad>77</ns3:cad>
          </ns3:TrackPointExtension>
        </extensions>
      </trkpt>
      <trkpt lat="47.5306848250329494476318359375" lon="11.01352639496326446533203125">
        <ele>1770.800048828125</ele>
        <time>2026-09-01T08:10:21.000Z</time>
        <extensions>
          <ns3:TrackPointExtension>
            <ns3:hr>153</ns3:hr>
            <ns3:cad>0</ns3:cad>
          </ns3:TrackPointExtension>
        </extensions>
      </trkpt>
      <trkpt lat="47.53068692050874233245849609375" lon="11.01353419013321399688720703125">
        <ele>1771.199951171875</ele>
        <time>2026-09-01T08:10:22.000Z</time>
        <extensions>
          <ns3:TrackPointExtension>
            <ns3:hr>154</ns3:hr>
            <ns3:cad>0</ns3:cad>
          </ns3:TrackPointExtension>
        </extensions>
      </trkpt>
      <trkpt lat="47.53068909980356693267822265625" lon="11.013560928404331207275390625">
        <ele>1771.4000244140625</ele>
        <time>2026-09-01T08:10:23.000Z</time>
        <extensions>
          <ns3:TrackPointExtension>
            <ns3:hr>154</ns3:hr>
            <ns3:cad>0</ns3:cad>
          </ns3:TrackPointExtension>
        </extensions>
      </trkpt>
      <trkpt lat="47.53069211728870868682861328125" lon="11.013575010001659393310546875">
        <ele>1771.800048828125</ele>
        <time>2026-09-01T08:10:24.000Z</time>
        <extensions>
          <ns3:TrackPointExtension>
            <ns3:hr>154</ns3:hr>
            <ns3:cad>0</ns3:cad>
          </ns3:TrackPointExtension>
        </extensions>
      </trkpt>
      <trkpt lat="47.53069438040256500244140625" lon="11.0136023350059986114501953125">
        <ele>1772.199951171875</ele>
        <time>2026-09-01T08:10:25.000Z</time>
        <extensions>
          <ns3:TrackPointExtension>
            <ns3:hr>155</ns3:hr>
            <ns3:cad>0</ns3:cad>
          </ns3:TrackPointExtension>
        </extensions>
      </trkpt>
      <trkpt lat="47.53069798462092876434326171875" lon="11.0136190988123416900634765625">
        <ele>1772.4000244140625</ele>
        <time>2026-09-01T08:10:26.000Z</time>
        <extensions>
          <ns3:TrackPointExtension>
            <ns3:hr>156</ns3:hr>
            <ns3:cad>0</ns3:cad>
          </ns3:TrackPointExtension>
        </extensions>
      </trkpt>
      <trkpt lat="47.53070108592510223388671875" lon="11.013638712465763092041015625">
        <ele>1772.5999755859375</ele>
        <time>2026-09-01T08:10:27.000Z</time>
        <extensions>
          <ns3:TrackPointExtension>
            <ns3:hr>157</ns3:hr>
            <ns3:cad>0</ns3:cad>
          </ns3:TrackPointExtension>
        </extensions>
      </trkpt>
      <trkpt lat="47.53070318140089511871337890625" lon="11.0136611759662628173828125">
        <ele>1772.800048828125</ele>
        <time>2026-09-01T08:10:28.000Z</time>
        <extensions>
          <ns3:TrackPointExtension>
            <ns3:hr>157</ns3:hr>
            <ns3:cad>53</ns3:cad>
          </ns3:TrackPointExtension>
        </extensions>
      </trkpt>
      <trkpt lat="47.5307032652199268341064453125" lon="11.0136799514293670654296875">
        <ele>1772.800048828125</ele>
        <time>2026-09-01T08:10:29.000Z</time>
        <extensions>
          <ns3:TrackPointExtension>
            <ns3:hr>157</ns3:hr>
            <ns3:cad>53</ns3:cad>
          </ns3:TrackPointExtension>
        </extensions>
      </trkpt>
      <trkpt lat="47.53070452250540256500244140625" lon="11.0137086175382137298583984375">
        <ele>1773</ele>
        <time>2026-09-01T08:10:30.000Z</time>
        <extensions>
          <ns3:TrackPointExtension>
            <ns3:hr>156</ns3:hr>
            <ns3:cad>53</ns3:cad>
          </ns3:TrackPointExtension>
        </extensions>
      </trkpt>
      <trkpt lat="47.53070913255214691162109375" lon="11.01372680626809597015380859375">
        <ele>1773.4000244140625</ele>
        <time>2026-09-01T08:10:31.000Z</time>
        <extensions>
          <ns3:TrackPointExtension>
            <ns3:hr>156</ns3:hr>
            <ns3:cad>53</ns3:cad>
          </ns3:TrackPointExtension>
        </extensions>
      </trkpt>
      <trkpt lat="47.53071307204663753509521484375" lon="11.0137394629418849945068359375">
        <ele>1773.5999755859375</ele>
        <time>2026-09-01T08:10:32.000Z</time>
        <extensions>
          <ns3:TrackPointExtension>
            <ns3:hr>156</ns3:hr>
            <ns3:cad>53</ns3:cad>
          </ns3:TrackPointExtension>
        </extensions>
      </trkpt>
      <trkpt lat="47.5307160057127475738525390625" lon="11.0137562267482280731201171875">
        <ele>1773.5999755859375</ele>
        <time>2026-09-01T08:10:33.000Z</time>
        <extensions>
          <ns3:TrackPointExtension>
            <ns3:hr>156</ns3:hr>
            <ns3:cad>53</ns3:cad>
          </ns3:TrackPointExtension>
        </extensions>
      </trkpt>
      <trkpt lat="47.53071977756917476654052734375" lon="11.01376418955624103546142578125">
        <ele>1774</ele>
        <time>2026-09-01T08:10:34.000Z</time>
        <extensions>
          <ns3:TrackPointExtension>
            <ns3:hr>156</ns3:hr>
            <ns3:cad>53</ns3:cad>
          </ns3:TrackPointExtension>
        </extensions>
      </trkpt>
      <trkpt lat="47.5307218730449676513671875" lon="11.01378631778061389923095703125">
        <ele>1774</ele>
        <time>2026-09-01T08:10:35.000Z</time>
        <extensions>
          <ns3:TrackPointExtension>
            <ns3:hr>156</ns3:hr>
            <ns3:cad>53</ns3:cad>
          </ns3:TrackPointExtension>
        </extensions>
      </trkpt>
      <trkpt lat="47.530724890530109405517578125" lon="11.01380509324371814727783203125">
        <ele>1774.199951171875</ele>
        <time>2026-09-01T08:10:36.000Z</time>
        <extensions>
          <ns3:TrackPointExtension>
            <ns3:hr>156</ns3:hr>
            <ns3:cad>53</ns3:cad>
          </ns3:TrackPointExtension>
        </extensions>
      </trkpt>
      <trkpt lat="47.5307284109294414520263671875" lon="11.01382688619196414947509765625">
        <ele>1774.4000244140625</ele>
        <time>2026-09-01T08:10:37.000Z</time>
        <extensions>
          <ns3:TrackPointExtension>
            <ns3:hr>156</ns3:hr>
            <ns3:cad>49</ns3:cad>
          </ns3:TrackPointExtension>
        </extensions>
      </trkpt>
      <trkpt lat="47.5307310931384563446044921875" lon="11.01384960114955902099609375">
        <ele>1774.4000244140625</ele>
        <time>2026-09-01T08:10:38.000Z</time>
        <extensions>
          <ns3:TrackPointExtension>
            <ns3:hr>156</ns3:hr>
            <ns3:cad>49</ns3:cad>
          </ns3:TrackPointExtension>
        </extensions>
      </trkpt>
      <trkpt lat="47.53073251806199550628662109375" lon="11.0138796083629131317138671875">
        <ele>1774.5999755859375</ele>
        <time>2026-09-01T08:10:39.000Z</time>
        <extensions>
          <ns3:TrackPointExtension>
            <ns3:hr>155</ns3:hr>
            <ns3:cad>49</ns3:cad>
          </ns3:TrackPointExtension>
        </extensions>
      </trkpt>
      <trkpt lat="47.5307317636907100677490234375" lon="11.013904921710491180419921875">
        <ele>1774.5999755859375</ele>
        <time>2026-09-01T08:10:40.000Z</time>
        <extensions>
          <ns3:TrackPointExtension>
            <ns3:hr>156</ns3:hr>
            <ns3:cad>49</ns3:cad>
          </ns3:TrackPointExtension>
        </extensions>
      </trkpt>
      <trkpt lat="47.5307307578623294830322265625" lon="11.0139359347522258758544921875">
        <ele>1774.800048828125</ele>
        <time>2026-09-01T08:10:41.000Z</time>
        <extensions>
          <ns3:TrackPointExtension>
            <ns3:hr>156</ns3:hr>
            <ns3:cad>0</ns3:cad>
          </ns3:TrackPointExtension>
        </extensions>
      </trkpt>
      <trkpt lat="47.5307285785675048828125" lon="11.013965606689453125">
        <ele>1774.800048828125</ele>
        <time>2026-09-01T08:10:42.000Z</time>
        <extensions>
          <ns3:TrackPointExtension>
            <ns3:hr>156</ns3:hr>
            <ns3:cad>0</ns3:cad>
          </ns3:TrackPointExtension>
        </extensions>
      </trkpt>
      <trkpt lat="47.53072631545364856719970703125" lon="11.0139956139028072357177734375">
        <ele>1775</ele>
        <time>2026-09-01T08:10:43.000Z</time>
        <extensions>
          <ns3:TrackPointExtension>
            <ns3:hr>155</ns3:hr>
            <ns3:cad>71</ns3:cad>
          </ns3:TrackPointExtension>
        </extensions>
      </trkpt>
      <trkpt lat="47.53072388470172882080078125" lon="11.0140278004109859466552734375">
        <ele>1775</ele>
        <time>2026-09-01T08:10:44.000Z</time>
        <extensions>
          <ns3:TrackPointExtension>
            <ns3:hr>155</ns3:hr>
            <ns3:cad>71</ns3:cad>
          </ns3:TrackPointExtension>
        </extensions>
      </trkpt>
      <trkpt lat="47.530704103410243988037109375" lon="11.014050431549549102783203125">
        <ele>1775</ele>
        <time>2026-09-01T08:10:45.000Z</time>
        <extensions>
          <ns3:TrackPointExtension>
            <ns3:hr>155</ns3:hr>
            <ns3:cad>75</ns3:cad>
          </ns3:TrackPointExtension>
        </extensions>
      </trkpt>
      <trkpt lat="47.53069840371608734130859375" lon="11.01407893002033233642578125">
        <ele>1775</ele>
        <time>2026-09-01T08:10:46.000Z</time>
        <extensions>
          <ns3:TrackPointExtension>
            <ns3:hr>155</ns3:hr>
            <ns3:cad>75</ns3:cad>
          </ns3:TrackPointExtension>
        </extensions>
      </trkpt>
      <trkpt lat="47.5306935422122478485107421875" lon="11.0141099430620670318603515625">
        <ele>1775</ele>
        <time>2026-09-01T08:10:47.000Z</time>
        <extensions>
          <ns3:TrackPointExtension>
            <ns3:hr>156</ns3:hr>
            <ns3:cad>75</ns3:cad>
          </ns3:TrackPointExtension>
        </extensions>
      </trkpt>
      <trkpt lat="47.530685998499393463134765625" lon="11.01413953118026256561279296875">
        <ele>1775</ele>
        <time>2026-09-01T08:10:48.000Z</time>
        <extensions>
          <ns3:TrackPointExtension>
            <ns3:hr>156</ns3:hr>
            <ns3:cad>77</ns3:cad>
          </ns3:TrackPointExtension>
        </extensions>
      </trkpt>
      <trkpt lat="47.53068021498620510101318359375" lon="11.0141726396977901458740234375">
        <ele>1775</ele>
        <time>2026-09-01T08:10:49.000Z</time>
        <extensions>
          <ns3:TrackPointExtension>
            <ns3:hr>156</ns3:hr>
            <ns3:cad>77</ns3:cad>
          </ns3:TrackPointExtension>
        </extensions>
      </trkpt>
      <trkpt lat="47.53066663630306720733642578125" lon="11.014193594455718994140625">
        <ele>1775</ele>
        <time>2026-09-01T08:10:50.000Z</time>
        <extensions>
          <ns3:TrackPointExtension>
            <ns3:hr>156</ns3:hr>
            <ns3:cad>77</ns3:cad>
          </ns3:TrackPointExtension>
        </extensions>
      </trkpt>
      <trkpt lat="47.53064601682126522064208984375" lon="11.01422452367842197418212890625">
        <ele>1775</ele>
        <time>2026-09-01T08:10:51.000Z</time>
        <extensions>
          <ns3:TrackPointExtension>
            <ns3:hr>157</ns3:hr>
            <ns3:cad>76</ns3:cad>
          </ns3:TrackPointExtension>
        </extensions>
      </trkpt>
      <trkpt lat="47.53063210286200046539306640625" lon="11.01425059139728546142578125">
        <ele>1775</ele>
        <time>2026-09-01T08:10:52.000Z</time>
        <extensions>
          <ns3:TrackPointExtension>
            <ns3:hr>157</ns3:hr>
            <ns3:cad>75</ns3:cad>
          </ns3:TrackPointExtension>
        </extensions>
      </trkpt>
      <trkpt lat="47.5306174345314502716064453125" lon="11.01427967660129070281982421875">
        <ele>1774.800048828125</ele>
        <time>2026-09-01T08:10:53.000Z</time>
        <extensions>
          <ns3:TrackPointExtension>
            <ns3:hr>157</ns3:hr>
            <ns3:cad>73</ns3:cad>
          </ns3:TrackPointExtension>
        </extensions>
      </trkpt>
      <trkpt lat="47.53060854971408843994140625" lon="11.01431119255721569061279296875">
        <ele>1774.800048828125</ele>
        <time>2026-09-01T08:10:54.000Z</time>
        <extensions>
          <ns3:TrackPointExtension>
            <ns3:hr>156</ns3:hr>
            <ns3:cad>73</ns3:cad>
          </ns3:TrackPointExtension>
        </extensions>
      </trkpt>
      <trkpt lat="47.53060318529605865478515625" lon="11.0143489949405193328857421875">
        <ele>1774.800048828125</ele>
        <time>2026-09-01T08:10:55.000Z</time>
        <extensions>
          <ns3:TrackPointExtension>
            <ns3:hr>157</ns3:hr>
            <ns3:cad>73</ns3:cad>
          </ns3:TrackPointExtension>
        </extensions>
      </trkpt>
      <trkpt lat="47.53060008399188518524169921875" lon="11.014374308288097381591796875">
        <ele>1774.800048828125</ele>
        <time>2026-09-01T08:10:56.000Z</time>
        <extensions>
          <ns3:TrackPointExtension>
            <ns3:hr>157</ns3:hr>
            <ns3:cad>77</ns3:cad>
          </ns3:TrackPointExtension>
        </extensions>
      </trkpt>
      <trkpt lat="47.53059153445065021514892578125" lon="11.0144066624343395233154296875">
        <ele>1774.800048828125</ele>
        <time>2026-09-01T08:10:57.000Z</time>
        <extensions>
          <ns3:TrackPointExtension>
            <ns3:hr>157</ns3:hr>
            <ns3:cad>77</ns3:cad>
          </ns3:TrackPointExtension>
        </extensions>
      </trkpt>
      <trkpt lat="47.53058097325265407562255859375" lon="11.01444429717957973480224609375">
        <ele>1774.800048828125</ele>
        <time>2026-09-01T08:10:58.000Z</time>
        <extensions>
          <ns3:TrackPointExtension>
            <ns3:hr>158</ns3:hr>
            <ns3:cad>77</ns3:cad>
          </ns3:TrackPointExtension>
        </extensions>
      </trkpt>
      <trkpt lat="47.53057661466300487518310546875" lon="11.014475561678409576416015625">
        <ele>1774.800048828125</ele>
        <time>2026-09-01T08:10:59.000Z</time>
        <extensions>
          <ns3:TrackPointExtension>
            <ns3:hr>157</ns3:hr>
            <ns3:cad>78</ns3:cad>
          </ns3:TrackPointExtension>
        </extensions>
      </trkpt>
      <trkpt lat="47.530569322407245635986328125" lon="11.0145136155188083648681640625">
        <ele>1774.800048828125</ele>
        <time>2026-09-01T08:11:00.000Z</time>
        <extensions>
          <ns3:TrackPointExtension>
            <ns3:hr>157</ns3:hr>
            <ns3:cad>78</ns3:cad>
          </ns3:TrackPointExtension>
        </extensions>
      </trkpt>
      <trkpt lat="47.5305560790002346038818359375" lon="11.01454588584601879119873046875">
        <ele>1774.800048828125</ele>
        <time>2026-09-01T08:11:01.000Z</time>
        <extensions>
          <ns3:TrackPointExtension>
            <ns3:hr>157</ns3:hr>
            <ns3:cad>79</ns3:cad>
          </ns3:TrackPointExtension>
        </extensions>
      </trkpt>
      <trkpt lat="47.5305503793060779571533203125" lon="11.01457270793616771697998046875">
        <ele>1774.800048828125</ele>
        <time>2026-09-01T08:11:02.000Z</time>
        <extensions>
          <ns3:TrackPointExtension>
            <ns3:hr>156</ns3:hr>
            <ns3:cad>79</ns3:cad>
          </ns3:TrackPointExtension>
        </extensions>
      </trkpt>
      <trkpt lat="47.53054057247936725616455078125" lon="11.01459366269409656524658203125">
        <ele>1774.800048828125</ele>
        <time>2026-09-01T08:11:03.000Z</time>
        <extensions>
          <ns3:TrackPointExtension>
            <ns3:hr>155</ns3:hr>
            <ns3:cad>80</ns3:cad>
          </ns3:TrackPointExtension>
        </extensions>
      </trkpt>
      <trkpt lat="47.5305287539958953857421875" lon="11.0146162100136280059814453125">
        <ele>1775</ele>
        <time>2026-09-01T08:11:04.000Z</time>
        <extensions>
          <ns3:TrackPointExtension>
            <ns3:hr>155</ns3:hr>
            <ns3:cad>80</ns3:cad>
          </ns3:TrackPointExtension>
        </extensions>
      </trkpt>
      <trkpt lat="47.5305218808352947235107421875" lon="11.0146346502006053924560546875">
        <ele>1775</ele>
        <time>2026-09-01T08:11:05.000Z</time>
        <extensions>
          <ns3:TrackPointExtension>
            <ns3:hr>154</ns3:hr>
            <ns3:cad>80</ns3:cad>
          </ns3:TrackPointExtension>
        </extensions>
      </trkpt>
      <trkpt lat="47.5305195339024066925048828125" lon="11.014649234712123870849609375">
        <ele>1775</ele>
        <time>2026-09-01T08:11:06.000Z</time>
        <extensions>
          <ns3:TrackPointExtension>
            <ns3:hr>154</ns3:hr>
            <ns3:cad>80</ns3:cad>
          </ns3:TrackPointExtension>
        </extensions>
      </trkpt>
      <trkpt lat="47.530512325465679168701171875" lon="11.01466055028140544891357421875">
        <ele>1775</ele>
        <time>2026-09-01T08:11:07.000Z</time>
        <extensions>
          <ns3:TrackPointExtension>
            <ns3:hr>154</ns3:hr>
            <ns3:cad>79</ns3:cad>
          </ns3:TrackPointExtension>
        </extensions>
      </trkpt>
      <trkpt lat="47.53050821833312511444091796875" lon="11.0146812535822391510009765625">
        <ele>1775</ele>
        <time>2026-09-01T08:11:08.000Z</time>
        <extensions>
          <ns3:TrackPointExtension>
            <ns3:hr>153</ns3:hr>
            <ns3:cad>79</ns3:cad>
          </ns3:TrackPointExtension>
        </extensions>
      </trkpt>
      <trkpt lat="47.53050738014280796051025390625" lon="11.01469474844634532928466796875">
        <ele>1775.199951171875</ele>
        <time>2026-09-01T08:11:09.000Z</time>
        <extensions>
          <ns3:TrackPointExtension>
            <ns3:hr>153</ns3:hr>
            <ns3:cad>79</ns3:cad>
          </ns3:TrackPointExtension>
        </extensions>
      </trkpt>
      <trkpt lat="47.5305074639618396759033203125" lon="11.014708578586578369140625">
        <ele>1775.4000244140625</ele>
        <time>2026-09-01T08:11:10.000Z</time>
        <extensions>
          <ns3:TrackPointExtension>
            <ns3:hr>152</ns3:hr>
            <ns3:cad>79</ns3:cad>
          </ns3:TrackPointExtension>
        </extensions>
      </trkpt>
      <trkpt lat="47.5305044464766979217529296875" lon="11.0147278569638729095458984375">
        <ele>1775.5999755859375</ele>
        <time>2026-09-01T08:11:11.000Z</time>
        <extensions>
          <ns3:TrackPointExtension>
            <ns3:hr>152</ns3:hr>
            <ns3:cad>79</ns3:cad>
          </ns3:TrackPointExtension>
        </extensions>
      </trkpt>
      <trkpt lat="47.53050260245800018310546875" lon="11.01474051363766193389892578125">
        <ele>1775.5999755859375</ele>
        <time>2026-09-01T08:11:12.000Z</time>
        <extensions>
          <ns3:TrackPointExtension>
            <ns3:hr>152</ns3:hr>
            <ns3:cad>79</ns3:cad>
          </ns3:TrackPointExtension>
        </extensions>
      </trkpt>
      <trkpt lat="47.530499584972858428955078125" lon="11.0147563554346561431884765625">
        <ele>1775.800048828125</ele>
        <time>2026-09-01T08:11:13.000Z</time>
        <extensions>
          <ns3:TrackPointExtension>
            <ns3:hr>151</ns3:hr>
            <ns3:cad>79</ns3:cad>
          </ns3:TrackPointExtension>
        </extensions>
      </trkpt>
      <trkpt lat="47.5305017642676830291748046875" lon="11.01477236486971378326416015625">
        <ele>1776</ele>
        <time>2026-09-01T08:11:14.000Z</time>
        <extensions>
          <ns3:TrackPointExtension>
            <ns3:hr>150</ns3:hr>
            <ns3:cad>79</ns3:cad>
          </ns3:TrackPointExtension>
        </extensions>
      </trkpt>
      <trkpt lat="47.53050184808671474456787109375" lon="11.01478778757154941558837890625">
        <ele>1776</ele>
        <time>2026-09-01T08:11:15.000Z</time>
        <extensions>
          <ns3:TrackPointExtension>
            <ns3:hr>149</ns3:hr>
            <ns3:cad>79</ns3:cad>
          </ns3:TrackPointExtension>
        </extensions>
      </trkpt>
      <trkpt lat="47.53050453029572963714599609375" lon="11.0148131847381591796875">
        <ele>1776.4000244140625</ele>
        <time>2026-09-01T08:11:16.000Z</time>
        <extensions>
          <ns3:TrackPointExtension>
            <ns3:hr>149</ns3:hr>
            <ns3:cad>79</ns3:cad>
          </ns3:TrackPointExtension>
        </extensions>
      </trkpt>
      <trkpt lat="47.53050587140023708343505859375" lon="11.0148408450186252593994140625">
        <ele>1776.5999755859375</ele>
        <time>2026-09-01T08:11:17.000Z</time>
        <extensions>
          <ns3:TrackPointExtension>
            <ns3:hr>148</ns3:hr>
            <ns3:cad>79</ns3:cad>
          </ns3:TrackPointExtension>
        </extensions>
      </trkpt>
      <trkpt lat="47.53050662577152252197265625" lon="11.0148639790713787078857421875">
        <ele>1776.800048828125</ele>
        <time>2026-09-01T08:11:18.000Z</time>
        <extensions>
          <ns3:TrackPointExtension>
            <ns3:hr>148</ns3:hr>
            <ns3:cad>79</ns3:cad>
          </ns3:TrackPointExtension>
        </extensions>
      </trkpt>
      <trkpt lat="47.53050369210541248321533203125" lon="11.0148824192583560943603515625">
        <ele>1777</ele>
        <time>2026-09-01T08:11:19.000Z</time>
        <extensions>
          <ns3:TrackPointExtension>
            <ns3:hr>148</ns3:hr>
            <ns3:cad>79</ns3:cad>
          </ns3:TrackPointExtension>
        </extensions>
      </trkpt>
      <trkpt lat="47.530503608286380767822265625" lon="11.01490773260593414306640625">
        <ele>1777.199951171875</ele>
        <time>2026-09-01T08:11:20.000Z</time>
        <extensions>
          <ns3:TrackPointExtension>
            <ns3:hr>148</ns3:hr>
            <ns3:cad>79</ns3:cad>
          </ns3:TrackPointExtension>
        </extensions>
      </trkpt>
      <trkpt lat="47.53050218336284160614013671875" lon="11.014917455613613128662109375">
        <ele>1777.5999755859375</ele>
        <time>2026-09-01T08:11:21.000Z</time>
        <extensions>
          <ns3:TrackPointExtension>
            <ns3:hr>151</ns3:hr>
            <ns3:cad>0</ns3:cad>
          </ns3:TrackPointExtension>
        </extensions>
      </trkpt>
      <trkpt lat="47.53049857914447784423828125" lon="11.014941595494747161865234375">
        <ele>1777.800048828125</ele>
        <time>2026-09-01T08:11:22.000Z</time>
        <extensions>
          <ns3:TrackPointExtension>
            <ns3:hr>153</ns3:hr>
            <ns3:cad>0</ns3:cad>
          </ns3:TrackPointExtension>
        </extensions>
      </trkpt>
      <trkpt lat="47.5304938852787017822265625" lon="11.014949977397918701171875">
        <ele>1778.199951171875</ele>
        <time>2026-09-01T08:11:23.000Z</time>
        <extensions>
          <ns3:TrackPointExtension>
            <ns3:hr>153</ns3:hr>
            <ns3:cad>0</ns3:cad>
          </ns3:TrackPointExtension>
        </extensions>
      </trkpt>
      <trkpt lat="47.5304876826703548431396484375" lon="11.0149833373725414276123046875">
        <ele>1778.5999755859375</ele>
        <time>2026-09-01T08:11:24.000Z</time>
        <extensions>
          <ns3:TrackPointExtension>
            <ns3:hr>153</ns3:hr>
            <ns3:cad>0</ns3:cad>
          </ns3:TrackPointExtension>
        </extensions>
      </trkpt>
      <trkpt lat="47.5304858386516571044921875" lon="11.01500135846436023712158203125">
        <ele>1779</ele>
        <time>2026-09-01T08:11:25.000Z</time>
        <extensions>
          <ns3:TrackPointExtension>
            <ns3:hr>153</ns3:hr>
            <ns3:cad>0</ns3:cad>
          </ns3:TrackPointExtension>
        </extensions>
      </trkpt>
      <trkpt lat="47.53048726357519626617431640625" lon="11.01501761935651302337646484375">
        <ele>1779.4000244140625</ele>
        <time>2026-09-01T08:11:26.000Z</time>
        <extensions>
          <ns3:TrackPointExtension>
            <ns3:hr>153</ns3:hr>
            <ns3:cad>0</ns3:cad>
          </ns3:TrackPointExtension>
        </extensions>
      </trkpt>
      <trkpt lat="47.53048692829906940460205078125" lon="11.015037484467029571533203125">
        <ele>1779.800048828125</ele>
        <time>2026-09-01T08:11:27.000Z</time>
        <extensions>
          <ns3:TrackPointExtension>
            <ns3:hr>153</ns3:hr>
            <ns3:cad>0</ns3:cad>
          </ns3:TrackPointExtension>
        </extensions>
      </trkpt>
      <trkpt lat="47.53048726357519626617431640625" lon="11.01505232043564319610595703125">
        <ele>1780.199951171875</ele>
        <time>2026-09-01T08:11:28.000Z</time>
        <extensions>
          <ns3:TrackPointExtension>
            <ns3:hr>152</ns3:hr>
            <ns3:cad>0</ns3:cad>
          </ns3:TrackPointExtension>
        </extensions>
      </trkpt>
      <trkpt lat="47.53048860467970371246337890625" lon="11.015069670975208282470703125">
        <ele>1780.5999755859375</ele>
        <time>2026-09-01T08:11:29.000Z</time>
        <extensions>
          <ns3:TrackPointExtension>
            <ns3:hr>152</ns3:hr>
            <ns3:cad>0</ns3:cad>
          </ns3:TrackPointExtension>
        </extensions>
      </trkpt>
      <trkpt lat="47.53049187362194061279296875" lon="11.015086434781551361083984375">
        <ele>1780.800048828125</ele>
        <time>2026-09-01T08:11:30.000Z</time>
        <extensions>
          <ns3:TrackPointExtension>
            <ns3:hr>152</ns3:hr>
            <ns3:cad>0</ns3:cad>
          </ns3:TrackPointExtension>
        </extensions>
      </trkpt>
      <trkpt lat="47.53048977814614772796630859375" lon="11.0150956548750400543212890625">
        <ele>1781.199951171875</ele>
        <time>2026-09-01T08:11:31.000Z</time>
        <extensions>
          <ns3:TrackPointExtension>
            <ns3:hr>151</ns3:hr>
            <ns3:cad>0</ns3:cad>
          </ns3:TrackPointExtension>
        </extensions>
      </trkpt>
      <trkpt lat="47.5304913707077503204345703125" lon="11.01512038148939609527587890625">
        <ele>1781.5999755859375</ele>
        <time>2026-09-01T08:11:32.000Z</time>
        <extensions>
          <ns3:TrackPointExtension>
            <ns3:hr>152</ns3:hr>
            <ns3:cad>0</ns3:cad>
          </ns3:TrackPointExtension>
        </extensions>
      </trkpt>
      <trkpt lat="47.53049681894481182098388671875" lon="11.01513563655316829681396484375">
        <ele>1781.800048828125</ele>
        <time>2026-09-01T08:11:33.000Z</time>
        <extensions>
          <ns3:TrackPointExtension>
            <ns3:hr>152</ns3:hr>
            <ns3:cad>0</ns3:cad>
          </ns3:TrackPointExtension>
        </extensions>
      </trkpt>
      <trkpt lat="47.53050168044865131378173828125" lon="11.01516790688037872314453125">
        <ele>1782</ele>
        <time>2026-09-01T08:11:34.000Z</time>
        <extensions>
          <ns3:TrackPointExtension>
            <ns3:hr>151</ns3:hr>
            <ns3:cad>52</ns3:cad>
          </ns3:TrackPointExtension>
        </extensions>
      </trkpt>
      <trkpt lat="47.5305081345140933990478515625" lon="11.01518073119223117828369140625">
        <ele>1782.199951171875</ele>
        <time>2026-09-01T08:11:35.000Z</time>
        <extensions>
          <ns3:TrackPointExtension>
            <ns3:hr>152</ns3:hr>
            <ns3:cad>52</ns3:cad>
          </ns3:TrackPointExtension>
        </extensions>
      </trkpt>
      <trkpt lat="47.53051391802728176116943359375" lon="11.01519933901727199554443359375">
        <ele>1782.5999755859375</ele>
        <time>2026-09-01T08:11:36.000Z</time>
        <extensions>
          <ns3:TrackPointExtension>
            <ns3:hr>153</ns3:hr>
            <ns3:cad>0</ns3:cad>
          </ns3:TrackPointExtension>
        </extensions>
      </trkpt>
      <trkpt lat="47.530519701540470123291015625" lon="11.01521979086101055145263671875">
        <ele>1782.800048828125</ele>
        <time>2026-09-01T08:11:37.000Z</time>
        <extensions>
          <ns3:TrackPointExtension>
            <ns3:hr>153</ns3:hr>
            <ns3:cad>0</ns3:cad>
          </ns3:TrackPointExtension>
        </extensions>
      </trkpt>
      <trkpt lat="47.53052146174013614654541015625" lon="11.01523001678287982940673828125">
        <ele>1783.199951171875</ele>
        <time>2026-09-01T08:11:38.000Z</time>
        <extensions>
          <ns3:TrackPointExtension>
            <ns3:hr>154</ns3:hr>
            <ns3:cad>0</ns3:cad>
          </ns3:TrackPointExtension>
        </extensions>
      </trkpt>
      <trkpt lat="47.53052540123462677001953125" lon="11.01524979807436466217041015625">
        <ele>1783.5999755859375</ele>
        <time>2026-09-01T08:11:39.000Z</time>
        <extensions>
          <ns3:TrackPointExtension>
            <ns3:hr>154</ns3:hr>
            <ns3:cad>55</ns3:cad>
          </ns3:TrackPointExtension>
        </extensions>
      </trkpt>
      <trkpt lat="47.53052732907235622406005859375" lon="11.01526069454848766326904296875">
        <ele>1783.800048828125</ele>
        <time>2026-09-01T08:11:40.000Z</time>
        <extensions>
          <ns3:TrackPointExtension>
            <ns3:hr>155</ns3:hr>
            <ns3:cad>55</ns3:cad>
          </ns3:TrackPointExtension>
        </extensions>
      </trkpt>
      <trkpt lat="47.53052917309105396270751953125" lon="11.01528047583997249603271484375">
        <ele>1784.199951171875</ele>
        <time>2026-09-01T08:11:41.000Z</time>
        <extensions>
          <ns3:TrackPointExtension>
            <ns3:hr>156</ns3:hr>
            <ns3:cad>55</ns3:cad>
          </ns3:TrackPointExtension>
        </extensions>
      </trkpt>
      <trkpt lat="47.530530430376529693603515625" lon="11.01529573090374469757080078125">
        <ele>1784.4000244140625</ele>
        <time>2026-09-01T08:11:42.000Z</time>
        <extensions>
          <ns3:TrackPointExtension>
            <ns3:hr>156</ns3:hr>
            <ns3:cad>55</ns3:cad>
          </ns3:TrackPointExtension>
        </extensions>
      </trkpt>
      <trkpt lat="47.53053302876651287078857421875" lon="11.01532205007970333099365234375">
        <ele>1784.5999755859375</ele>
        <time>2026-09-01T08:11:43.000Z</time>
        <extensions>
          <ns3:TrackPointExtension>
            <ns3:hr>156</ns3:hr>
            <ns3:cad>55</ns3:cad>
          </ns3:TrackPointExtension>
        </extensions>
      </trkpt>
      <trkpt lat="47.53053403459489345550537109375" lon="11.0153407417237758636474609375">
        <ele>1785</ele>
        <time>2026-09-01T08:11:44.000Z</time>
        <extensions>
          <ns3:TrackPointExtension>
            <ns3:hr>157</ns3:hr>
            <ns3:cad>55</ns3:cad>
          </ns3:TrackPointExtension>
        </extensions>
      </trkpt>
      <trkpt lat="47.5305322743952274322509765625" lon="11.01535825990140438079833984375">
        <ele>1785.4000244140625</ele>
        <time>2026-09-01T08:11:45.000Z</time>
        <extensions>
          <ns3:TrackPointExtension>
            <ns3:hr>157</ns3:hr>
            <ns3:cad>0</ns3:cad>
          </ns3:TrackPointExtension>
        </extensions>
      </trkpt>
      <trkpt lat="47.53052799962460994720458984375" lon="11.015371419489383697509765625">
        <ele>1785.5999755859375</ele>
        <time>2026-09-01T08:11:46.000Z</time>
        <extensions>
          <ns3:TrackPointExtension>
            <ns3:hr>158</ns3:hr>
            <ns3:cad>0</ns3:cad>
          </ns3:TrackPointExtension>
        </extensions>
      </trkpt>
      <trkpt lat="47.53052699379622936248779296875" lon="11.0153870098292827606201171875">
        <ele>1786</ele>
        <time>2026-09-01T08:11:47.000Z</time>
        <extensions>
          <ns3:TrackPointExtension>
            <ns3:hr>158</ns3:hr>
            <ns3:cad>0</ns3:cad>
          </ns3:TrackPointExtension>
        </extensions>
      </trkpt>
      <trkpt lat="47.5305285863578319549560546875" lon="11.01540260016918182373046875">
        <ele>1786.4000244140625</ele>
        <time>2026-09-01T08:11:48.000Z</time>
        <extensions>
          <ns3:TrackPointExtension>
            <ns3:hr>159</ns3:hr>
            <ns3:cad>0</ns3:cad>
          </ns3:TrackPointExtension>
        </extensions>
      </trkpt>
      <trkpt lat="47.5305312685668468475341796875" lon="11.0154342837631702423095703125">
        <ele>1786.5999755859375</ele>
        <time>2026-09-01T08:11:49.000Z</time>
        <extensions>
          <ns3:TrackPointExtension>
            <ns3:hr>160</ns3:hr>
            <ns3:cad>0</ns3:cad>
          </ns3:TrackPointExtension>
        </extensions>
      </trkpt>
      <trkpt lat="47.5305352918803691864013671875" lon="11.01545079611241817474365234375">
        <ele>1786.800048828125</ele>
        <time>2026-09-01T08:11:50.000Z</time>
        <extensions>
          <ns3:TrackPointExtension>
            <ns3:hr>160</ns3:hr>
            <ns3:cad>0</ns3:cad>
          </ns3:TrackPointExtension>
        </extensions>
      </trkpt>
      <trkpt lat="47.53053671680390834808349609375" lon="11.01545666344463825225830078125">
        <ele>1787.199951171875</ele>
        <time>2026-09-01T08:11:51.000Z</time>
        <extensions>
          <ns3:TrackPointExtension>
            <ns3:hr>161</ns3:hr>
            <ns3:cad>0</ns3:cad>
          </ns3:TrackPointExtension>
        </extensions>
      </trkpt>
      <trkpt lat="47.5305389799177646636962890625" lon="11.01546856574714183807373046875">
        <ele>1787.199951171875</ele>
        <time>2026-09-01T08:11:52.000Z</time>
        <extensions>
          <ns3:TrackPointExtension>
            <ns3:hr>162</ns3:hr>
            <ns3:cad>0</ns3:cad>
          </ns3:TrackPointExtension>
        </extensions>
      </trkpt>
      <trkpt lat="47.53054509870707988739013671875" lon="11.01547099649906158447265625">
        <ele>1787.5999755859375</ele>
        <time>2026-09-01T08:11:53.000Z</time>
        <extensions>
          <ns3:TrackPointExtension>
            <ns3:hr>167</ns3:hr>
            <ns3:cad>0</ns3:cad>
          </ns3:TrackPointExtension>
        </extensions>
      </trkpt>
      <trkpt lat="47.53056035377085208892822265625" lon="11.0154835693538188934326171875">
        <ele>1787.800048828125</ele>
        <time>2026-09-01T08:11:54.000Z</time>
        <extensions>
          <ns3:TrackPointExtension>
            <ns3:hr>168</ns3:hr>
            <ns3:cad>0</ns3:cad>
          </ns3:TrackPointExtension>
        </extensions>
      </trkpt>
      <trkpt lat="47.5305641256272792816162109375" lon="11.01549438200891017913818359375">
        <ele>1787.800048828125</ele>
        <time>2026-09-01T08:11:55.000Z</time>
        <extensions>
          <ns3:TrackPointExtension>
            <ns3:hr>168</ns3:hr>
            <ns3:cad>0</ns3:cad>
          </ns3:TrackPointExtension>
        </extensions>
      </trkpt>
      <trkpt lat="47.53056756220757961273193359375" lon="11.01550527848303318023681640625">
        <ele>1788</ele>
        <time>2026-09-01T08:11:56.000Z</time>
        <extensions>
          <ns3:TrackPointExtension>
            <ns3:hr>168</ns3:hr>
            <ns3:cad>0</ns3:cad>
          </ns3:TrackPointExtension>
        </extensions>
      </trkpt>
      <trkpt lat="47.53056890331208705902099609375" lon="11.0155113972723484039306640625">
        <ele>1788</ele>
        <time>2026-09-01T08:11:57.000Z</time>
        <extensions>
          <ns3:TrackPointExtension>
            <ns3:hr>167</ns3:hr>
            <ns3:cad>0</ns3:cad>
          </ns3:TrackPointExtension>
        </extensions>
      </trkpt>
      <trkpt lat="47.53057099878787994384765625" lon="11.01552673615515232086181640625">
        <ele>1788</ele>
        <time>2026-09-01T08:11:58.000Z</time>
        <extensions>
          <ns3:TrackPointExtension>
            <ns3:hr>167</ns3:hr>
            <ns3:cad>0</ns3:cad>
          </ns3:TrackPointExtension>
        </extensions>
      </trkpt>
      <trkpt lat="47.53057711757719516754150390625" lon="11.01554148830473423004150390625">
        <ele>1788.199951171875</ele>
        <time>2026-09-01T08:11:59.000Z</time>
        <extensions>
          <ns3:TrackPointExtension>
            <ns3:hr>164</ns3:hr>
            <ns3:cad>0</ns3:cad>
          </ns3:TrackPointExtension>
        </extensions>
      </trkpt>
      <trkpt lat="47.53058264963328838348388671875" lon="11.01556219160556793212890625">
        <ele>1788.199951171875</ele>
        <time>2026-09-01T08:12:00.000Z</time>
        <extensions>
          <ns3:TrackPointExtension>
            <ns3:hr>164</ns3:hr>
            <ns3:cad>0</ns3:cad>
          </ns3:TrackPointExtension>
        </extensions>
      </trkpt>
      <trkpt lat="47.53058700822293758392333984375" lon="11.01558205671608448028564453125">
        <ele>1788.4000244140625</ele>
        <time>2026-09-01T08:12:01.000Z</time>
        <extensions>
          <ns3:TrackPointExtension>
            <ns3:hr>162</ns3:hr>
            <ns3:cad>48</ns3:cad>
          </ns3:TrackPointExtension>
        </extensions>
      </trkpt>
      <trkpt lat="47.53058843314647674560546875" lon="11.0156116448342800140380859375">
        <ele>1788.4000244140625</ele>
        <time>2026-09-01T08:12:02.000Z</time>
        <extensions>
          <ns3:TrackPointExtension>
            <ns3:hr>156</ns3:hr>
            <ns3:cad>48</ns3:cad>
          </ns3:TrackPointExtension>
        </extensions>
      </trkpt>
      <trkpt lat="47.53059245645999908447265625" lon="11.01562933064997196197509765625">
        <ele>1788.5999755859375</ele>
        <time>2026-09-01T08:12:03.000Z</time>
        <extensions>
          <ns3:TrackPointExtension>
            <ns3:hr>153</ns3:hr>
            <ns3:cad>50</ns3:cad>
          </ns3:TrackPointExtension>
        </extensions>
      </trkpt>
      <trkpt lat="47.530596144497394561767578125" lon="11.0156458429992198944091796875">
        <ele>1788.5999755859375</ele>
        <time>2026-09-01T08:12:04.000Z</time>
        <extensions>
          <ns3:TrackPointExtension>
            <ns3:hr>152</ns3:hr>
            <ns3:cad>50</ns3:cad>
          </ns3:TrackPointExtension>
        </extensions>
      </trkpt>
      <trkpt lat="47.5305996648967266082763671875" lon="11.01566235534846782684326171875">
        <ele>1788.5999755859375</ele>
        <time>2026-09-01T08:12:05.000Z</time>
        <extensions>
          <ns3:TrackPointExtension>
            <ns3:hr>151</ns3:hr>
            <ns3:cad>50</ns3:cad>
          </ns3:TrackPointExtension>
        </extensions>
      </trkpt>
      <trkpt lat="47.53060276620090007781982421875" lon="11.0156820528209209442138671875">
        <ele>1788.5999755859375</ele>
        <time>2026-09-01T08:12:06.000Z</time>
        <extensions>
          <ns3:TrackPointExtension>
            <ns3:hr>151</ns3:hr>
            <ns3:cad>51</ns3:cad>
          </ns3:TrackPointExtension>
        </extensions>
      </trkpt>
      <trkpt lat="47.5306053645908832550048828125" lon="11.0157025046646595001220703125">
        <ele>1788.5999755859375</ele>
        <time>2026-09-01T08:12:07.000Z</time>
        <extensions>
          <ns3:TrackPointExtension>
            <ns3:hr>150</ns3:hr>
            <ns3:cad>52</ns3:cad>
          </ns3:TrackPointExtension>
        </extensions>
      </trkpt>
      <trkpt lat="47.530606202781200408935546875" lon="11.01572119630873203277587890625">
        <ele>1788.5999755859375</ele>
        <time>2026-09-01T08:12:08.000Z</time>
        <extensions>
          <ns3:TrackPointExtension>
            <ns3:hr>150</ns3:hr>
            <ns3:cad>53</ns3:cad>
          </ns3:TrackPointExtension>
        </extensions>
      </trkpt>
      <trkpt lat="47.5306080467998981475830078125" lon="11.01574516855180263519287109375">
        <ele>1788.5999755859375</ele>
        <time>2026-09-01T08:12:09.000Z</time>
        <extensions>
          <ns3:TrackPointExtension>
            <ns3:hr>150</ns3:hr>
            <ns3:cad>53</ns3:cad>
          </ns3:TrackPointExtension>
        </extensions>
      </trkpt>
      <trkpt lat="47.5306092202663421630859375" lon="11.01577006280422210693359375">
        <ele>1788.5999755859375</ele>
        <time>2026-09-01T08:12:10.000Z</time>
        <extensions>
          <ns3:TrackPointExtension>
            <ns3:hr>151</ns3:hr>
            <ns3:cad>53</ns3:cad>
          </ns3:TrackPointExtension>
        </extensions>
      </trkpt>
      <trkpt lat="47.53060695715248584747314453125" lon="11.015807278454303741455078125">
        <ele>1788.5999755859375</ele>
        <time>2026-09-01T08:12:11.000Z</time>
        <extensions>
          <ns3:TrackPointExtension>
            <ns3:hr>152</ns3:hr>
            <ns3:cad>53</ns3:cad>
          </ns3:TrackPointExtension>
        </extensions>
      </trkpt>
      <trkpt lat="47.5306092202663421630859375" lon="11.01583435200154781341552734375">
        <ele>1788.5999755859375</ele>
        <time>2026-09-01T08:12:12.000Z</time>
        <extensions>
          <ns3:TrackPointExtension>
            <ns3:hr>152</ns3:hr>
            <ns3:cad>52</ns3:cad>
          </ns3:TrackPointExtension>
        </extensions>
      </trkpt>
      <trkpt lat="47.53061047755181789398193359375" lon="11.0158634372055530548095703125">
        <ele>1788.5999755859375</ele>
        <time>2026-09-01T08:12:13.000Z</time>
        <extensions>
          <ns3:TrackPointExtension>
            <ns3:hr>152</ns3:hr>
            <ns3:cad>52</ns3:cad>
          </ns3:TrackPointExtension>
        </extensions>
      </trkpt>
      <trkpt lat="47.53061014227569103240966796875" lon="11.015891768038272857666015625">
        <ele>1788.800048828125</ele>
        <time>2026-09-01T08:12:14.000Z</time>
        <extensions>
          <ns3:TrackPointExtension>
            <ns3:hr>152</ns3:hr>
            <ns3:cad>52</ns3:cad>
          </ns3:TrackPointExtension>
        </extensions>
      </trkpt>
      <trkpt lat="47.5306113995611667633056640625" lon="11.01592051796615123748779296875">
        <ele>1789</ele>
        <time>2026-09-01T08:12:15.000Z</time>
        <extensions>
          <ns3:TrackPointExtension>
            <ns3:hr>152</ns3:hr>
            <ns3:cad>79</ns3:cad>
          </ns3:TrackPointExtension>
        </extensions>
      </trkpt>
      <trkpt lat="47.5306140817701816558837890625" lon="11.0159485973417758941650390625">
        <ele>1789</ele>
        <time>2026-09-01T08:12:16.000Z</time>
        <extensions>
          <ns3:TrackPointExtension>
            <ns3:hr>153</ns3:hr>
            <ns3:cad>79</ns3:cad>
          </ns3:TrackPointExtension>
        </extensions>
      </trkpt>
      <trkpt lat="47.53060813061892986297607421875" lon="11.015988327562808990478515625">
        <ele>1789.199951171875</ele>
        <time>2026-09-01T08:12:17.000Z</time>
        <extensions>
          <ns3:TrackPointExtension>
            <ns3:hr>152</ns3:hr>
            <ns3:cad>79</ns3:cad>
          </ns3:TrackPointExtension>
        </extensions>
      </trkpt>
      <trkpt lat="47.5305986590683460235595703125" lon="11.0160243697464466094970703125">
        <ele>1789.4000244140625</ele>
        <time>2026-09-01T08:12:18.000Z</time>
        <extensions>
          <ns3:TrackPointExtension>
            <ns3:hr>152</ns3:hr>
            <ns3:cad>78</ns3:cad>
          </ns3:TrackPointExtension>
        </extensions>
      </trkpt>
      <trkpt lat="47.5305886007845401763916015625" lon="11.0160545445978641510009765625">
        <ele>1789.4000244140625</ele>
        <time>2026-09-01T08:12:19.000Z</time>
        <extensions>
          <ns3:TrackPointExtension>
            <ns3:hr>153</ns3:hr>
            <ns3:cad>78</ns3:cad>
          </ns3:TrackPointExtension>
        </extensions>
      </trkpt>
      <trkpt lat="47.5305755250155925750732421875" lon="11.0160910896956920623779296875">
        <ele>1789.800048828125</ele>
        <time>2026-09-01T08:12:20.000Z</time>
        <extensions>
          <ns3:TrackPointExtension>
            <ns3:hr>152</ns3:hr>
            <ns3:cad>78</ns3:cad>
          </ns3:TrackPointExtension>
        </extensions>
      </trkpt>
      <trkpt lat="47.53056320361793041229248046875" lon="11.01613492704927921295166015625">
        <ele>1790</ele>
        <time>2026-09-01T08:12:21.000Z</time>
        <extensions>
          <ns3:TrackPointExtension>
            <ns3:hr>153</ns3:hr>
            <ns3:cad>77</ns3:cad>
          </ns3:TrackPointExtension>
        </extensions>
      </trkpt>
      <trkpt lat="47.53055918030440807342529296875" lon="11.01616627536714076995849609375">
        <ele>1790.199951171875</ele>
        <time>2026-09-01T08:12:22.000Z</time>
        <extensions>
          <ns3:TrackPointExtension>
            <ns3:hr>153</ns3:hr>
            <ns3:cad>76</ns3:cad>
          </ns3:TrackPointExtension>
        </extensions>
      </trkpt>
      <trkpt lat="47.530546523630619049072265625" lon="11.0161973722279071807861328125">
        <ele>1790.4000244140625</ele>
        <time>2026-09-01T08:12:23.000Z</time>
        <extensions>
          <ns3:TrackPointExtension>
            <ns3:hr>153</ns3:hr>
            <ns3:cad>76</ns3:cad>
          </ns3:TrackPointExtension>
        </extensions>
      </trkpt>
      <trkpt lat="47.53053805790841579437255859375" lon="11.016242466866970062255859375">
        <ele>1790.4000244140625</ele>
        <time>2026-09-01T08:12:24.000Z</time>
        <extensions>
          <ns3:TrackPointExtension>
            <ns3:hr>153</ns3:hr>
            <ns3:cad>77</ns3:cad>
          </ns3:TrackPointExtension>
        </extensions>
      </trkpt>
      <trkpt lat="47.5305393151938915252685546875" lon="11.01627607829868793487548828125">
        <ele>1790.5999755859375</ele>
        <time>2026-09-01T08:12:25.000Z</time>
        <extensions>
          <ns3:TrackPointExtension>
            <ns3:hr>152</ns3:hr>
            <ns3:cad>78</ns3:cad>
          </ns3:TrackPointExtension>
        </extensions>
      </trkpt>
      <trkpt lat="47.53053747117519378662109375" lon="11.016303487122058868408203125">
        <ele>1790.800048828125</ele>
        <time>2026-09-01T08:12:26.000Z</time>
        <extensions>
          <ns3:TrackPointExtension>
            <ns3:hr>150</ns3:hr>
            <ns3:cad>78</ns3:cad>
          </ns3:TrackPointExtension>
        </extensions>
      </trkpt>
      <trkpt lat="47.53053369931876659393310546875" lon="11.01633475162088871002197265625">
        <ele>1791</ele>
        <time>2026-09-01T08:12:27.000Z</time>
        <extensions>
          <ns3:TrackPointExtension>
            <ns3:hr>150</ns3:hr>
            <ns3:cad>78</ns3:cad>
          </ns3:TrackPointExtension>
        </extensions>
      </trkpt>
      <trkpt lat="47.53053344786167144775390625" lon="11.0163613222539424896240234375">
        <ele>1791.4000244140625</ele>
        <time>2026-09-01T08:12:28.000Z</time>
        <extensions>
          <ns3:TrackPointExtension>
            <ns3:hr>150</ns3:hr>
            <ns3:cad>79</ns3:cad>
          </ns3:TrackPointExtension>
        </extensions>
      </trkpt>
      <trkpt lat="47.5305282510817050933837890625" lon="11.01638001389801502227783203125">
        <ele>1791.800048828125</ele>
        <time>2026-09-01T08:12:29.000Z</time>
        <extensions>
          <ns3:TrackPointExtension>
            <ns3:hr>150</ns3:hr>
            <ns3:cad>80</ns3:cad>
          </ns3:TrackPointExtension>
        </extensions>
      </trkpt>
      <trkpt lat="47.5305238924920558929443359375" lon="11.0163998790085315704345703125">
        <ele>1792.199951171875</ele>
        <time>2026-09-01T08:12:30.000Z</time>
        <extensions>
          <ns3:TrackPointExtension>
            <ns3:hr>150</ns3:hr>
            <ns3:cad>80</ns3:cad>
          </ns3:TrackPointExtension>
        </extensions>
      </trkpt>
      <trkpt lat="47.53051408566534519195556640625" lon="11.01641806773841381072998046875">
        <ele>1792.4000244140625</ele>
        <time>2026-09-01T08:12:31.000Z</time>
        <extensions>
          <ns3:TrackPointExtension>
            <ns3:hr>150</ns3:hr>
            <ns3:cad>80</ns3:cad>
          </ns3:TrackPointExtension>
        </extensions>
      </trkpt>
      <trkpt lat="47.530505955219268798828125" lon="11.016432903707027435302734375">
        <ele>1792.5999755859375</ele>
        <time>2026-09-01T08:12:32.000Z</time>
        <extensions>
          <ns3:TrackPointExtension>
            <ns3:hr>150</ns3:hr>
            <ns3:cad>80</ns3:cad>
          </ns3:TrackPointExtension>
        </extensions>
      </trkpt>
      <trkpt lat="47.53049581311643123626708984375" lon="11.0164474882185459136962890625">
        <ele>1792.800048828125</ele>
        <time>2026-09-01T08:12:33.000Z</time>
        <extensions>
          <ns3:TrackPointExtension>
            <ns3:hr>150</ns3:hr>
            <ns3:cad>80</ns3:cad>
          </ns3:TrackPointExtension>
        </extensions>
      </trkpt>
      <trkpt lat="47.5304779596626758575439453125" lon="11.01647556759417057037353515625">
        <ele>1793</ele>
        <time>2026-09-01T08:12:34.000Z</time>
        <extensions>
          <ns3:TrackPointExtension>
            <ns3:hr>150</ns3:hr>
            <ns3:cad>80</ns3:cad>
          </ns3:TrackPointExtension>
        </extensions>
      </trkpt>
      <trkpt lat="47.53046371042728424072265625" lon="11.01650993339717388153076171875">
        <ele>1792.800048828125</ele>
        <time>2026-09-01T08:12:35.000Z</time>
        <extensions>
          <ns3:TrackPointExtension>
            <ns3:hr>151</ns3:hr>
            <ns3:cad>0</ns3:cad>
          </ns3:TrackPointExtension>
        </extensions>
      </trkpt>
      <trkpt lat="47.53045038320124149322509765625" lon="11.016542874276638031005859375">
        <ele>1792.5999755859375</ele>
        <time>2026-09-01T08:12:36.000Z</time>
        <extensions>
          <ns3:TrackPointExtension>
            <ns3:hr>150</ns3:hr>
            <ns3:cad>0</ns3:cad>
          </ns3:TrackPointExtension>
        </extensions>
      </trkpt>
      <trkpt lat="47.5304313562810420989990234375" lon="11.0165896452963352203369140625">
        <ele>1792.4000244140625</ele>
        <time>2026-09-01T08:12:37.000Z</time>
        <extensions>
          <ns3:TrackPointExtension>
            <ns3:hr>150</ns3:hr>
            <ns3:cad>0</ns3:cad>
          </ns3:TrackPointExtension>
        </extensions>
      </trkpt>
      <trkpt lat="47.530415765941143035888671875" lon="11.0166318900883197784423828125">
        <ele>1792.199951171875</ele>
        <time>2026-09-01T08:12:38.000Z</time>
        <extensions>
          <ns3:TrackPointExtension>
            <ns3:hr>149</ns3:hr>
            <ns3:cad>77</ns3:cad>
          </ns3:TrackPointExtension>
        </extensions>
      </trkpt>
      <trkpt lat="47.53039942122995853424072265625" lon="11.01666390895843505859375">
        <ele>1792</ele>
        <time>2026-09-01T08:12:39.000Z</time>
        <extensions>
          <ns3:TrackPointExtension>
            <ns3:hr>148</ns3:hr>
            <ns3:cad>77</ns3:cad>
          </ns3:TrackPointExtension>
        </extensions>
      </trkpt>
      <trkpt lat="47.53038056194782257080078125" lon="11.016707159578800201416015625">
        <ele>1792.199951171875</ele>
        <time>2026-09-01T08:12:40.000Z</time>
        <extensions>
          <ns3:TrackPointExtension>
            <ns3:hr>148</ns3:hr>
            <ns3:cad>79</ns3:cad>
          </ns3:TrackPointExtension>
        </extensions>
      </trkpt>
      <trkpt lat="47.53036807291209697723388671875" lon="11.01674244739115238189697265625">
        <ele>1792.5999755859375</ele>
        <time>2026-09-01T08:12:41.000Z</time>
        <extensions>
          <ns3:TrackPointExtension>
            <ns3:hr>149</ns3:hr>
            <ns3:cad>79</ns3:cad>
          </ns3:TrackPointExtension>
        </extensions>
      </trkpt>
      <trkpt lat="47.530356757342815399169921875" lon="11.0167720355093479156494140625">
        <ele>1793</ele>
        <time>2026-09-01T08:12:42.000Z</time>
        <extensions>
          <ns3:TrackPointExtension>
            <ns3:hr>148</ns3:hr>
            <ns3:cad>79</ns3:cad>
          </ns3:TrackPointExtension>
        </extensions>
      </trkpt>
      <trkpt lat="47.53034376539289951324462890625" lon="11.01681335829198360443115234375">
        <ele>1793.4000244140625</ele>
        <time>2026-09-01T08:12:43.000Z</time>
        <extensions>
          <ns3:TrackPointExtension>
            <ns3:hr>149</ns3:hr>
            <ns3:cad>80</ns3:cad>
          </ns3:TrackPointExtension>
        </extensions>
      </trkpt>
      <trkpt lat="47.53033404238522052764892578125" lon="11.01685233414173126220703125">
        <ele>1793.800048828125</ele>
        <time>2026-09-01T08:12:44.000Z</time>
        <extensions>
          <ns3:TrackPointExtension>
            <ns3:hr>150</ns3:hr>
            <ns3:cad>80</ns3:cad>
          </ns3:TrackPointExtension>
        </extensions>
      </trkpt>
      <trkpt lat="47.53032649867236614227294921875" lon="11.01688041351735591888427734375">
        <ele>1794</ele>
        <time>2026-09-01T08:12:45.000Z</time>
        <extensions>
          <ns3:TrackPointExtension>
            <ns3:hr>150</ns3:hr>
            <ns3:cad>80</ns3:cad>
          </ns3:TrackPointExtension>
        </extensions>
      </trkpt>
      <trkpt lat="47.530312500894069671630859375" lon="11.01692165248095989227294921875">
        <ele>1794.199951171875</ele>
        <time>2026-09-01T08:12:46.000Z</time>
        <extensions>
          <ns3:TrackPointExtension>
            <ns3:hr>150</ns3:hr>
            <ns3:cad>80</ns3:cad>
          </ns3:TrackPointExtension>
        </extensions>
      </trkpt>
      <trkpt lat="47.53030621446669101715087890625" lon="11.0169549286365509033203125">
        <ele>1794.4000244140625</ele>
        <time>2026-09-01T08:12:47.000Z</time>
        <extensions>
          <ns3:TrackPointExtension>
            <ns3:hr>150</ns3:hr>
            <ns3:cad>80</ns3:cad>
          </ns3:TrackPointExtension>
        </extensions>
      </trkpt>
      <trkpt lat="47.530300430953502655029296875" lon="11.016986109316349029541015625">
        <ele>1794.4000244140625</ele>
        <time>2026-09-01T08:12:48.000Z</time>
        <extensions>
          <ns3:TrackPointExtension>
            <ns3:hr>151</ns3:hr>
            <ns3:cad>80</ns3:cad>
          </ns3:TrackPointExtension>
        </extensions>
      </trkpt>
      <trkpt lat="47.53028878010809421539306640625" lon="11.01702927611768245697021484375">
        <ele>1794.5999755859375</ele>
        <time>2026-09-01T08:12:49.000Z</time>
        <extensions>
          <ns3:TrackPointExtension>
            <ns3:hr>151</ns3:hr>
            <ns3:cad>80</ns3:cad>
          </ns3:TrackPointExtension>
        </extensions>
      </trkpt>
      <trkpt lat="47.5302788056433200836181640625" lon="11.01706481538712978363037109375">
        <ele>1794.800048828125</ele>
        <time>2026-09-01T08:12:50.000Z</time>
        <extensions>
          <ns3:TrackPointExtension>
            <ns3:hr>151</ns3:hr>
            <ns3:cad>80</ns3:cad>
          </ns3:TrackPointExtension>
        </extensions>
      </trkpt>
      <trkpt lat="47.53026648424565792083740234375" lon="11.0170970857143402099609375">
        <ele>1794.800048828125</ele>
        <time>2026-09-01T08:12:51.000Z</time>
        <extensions>
          <ns3:TrackPointExtension>
            <ns3:hr>151</ns3:hr>
            <ns3:cad>80</ns3:cad>
          </ns3:TrackPointExtension>
        </extensions>
      </trkpt>
      <trkpt lat="47.5302560068666934967041015625" lon="11.01712935604155063629150390625">
        <ele>1795</ele>
        <time>2026-09-01T08:12:52.000Z</time>
        <extensions>
          <ns3:TrackPointExtension>
            <ns3:hr>152</ns3:hr>
            <ns3:cad>80</ns3:cad>
          </ns3:TrackPointExtension>
        </extensions>
      </trkpt>
      <trkpt lat="47.53024351783096790313720703125" lon="11.01716238074004650115966796875">
        <ele>1795</ele>
        <time>2026-09-01T08:12:53.000Z</time>
        <extensions>
          <ns3:TrackPointExtension>
            <ns3:hr>152</ns3:hr>
            <ns3:cad>80</ns3:cad>
          </ns3:TrackPointExtension>
        </extensions>
      </trkpt>
      <trkpt lat="47.5302352197468280792236328125" lon="11.017193309962749481201171875">
        <ele>1795.199951171875</ele>
        <time>2026-09-01T08:12:54.000Z</time>
        <extensions>
          <ns3:TrackPointExtension>
            <ns3:hr>153</ns3:hr>
            <ns3:cad>80</ns3:cad>
          </ns3:TrackPointExtension>
        </extensions>
      </trkpt>
      <trkpt lat="47.5302211381494998931884765625" lon="11.01723178289830684661865234375">
        <ele>1795.199951171875</ele>
        <time>2026-09-01T08:12:55.000Z</time>
        <extensions>
          <ns3:TrackPointExtension>
            <ns3:hr>153</ns3:hr>
            <ns3:cad>80</ns3:cad>
          </ns3:TrackPointExtension>
        </extensions>
      </trkpt>
      <trkpt lat="47.5302080623805522918701171875" lon="11.01726095192134380340576171875">
        <ele>1795.4000244140625</ele>
        <time>2026-09-01T08:12:56.000Z</time>
        <extensions>
          <ns3:TrackPointExtension>
            <ns3:hr>153</ns3:hr>
            <ns3:cad>79</ns3:cad>
          </ns3:TrackPointExtension>
        </extensions>
      </trkpt>
      <trkpt lat="47.5301976688206195831298828125" lon="11.017285846173763275146484375">
        <ele>1795.4000244140625</ele>
        <time>2026-09-01T08:12:57.000Z</time>
        <extensions>
          <ns3:TrackPointExtension>
            <ns3:hr>154</ns3:hr>
            <ns3:cad>79</ns3:cad>
          </ns3:TrackPointExtension>
        </extensions>
      </trkpt>
      <trkpt lat="47.530178390443325042724609375" lon="11.01732842624187469482421875">
        <ele>1795.4000244140625</ele>
        <time>2026-09-01T08:12:58.000Z</time>
        <extensions>
          <ns3:TrackPointExtension>
            <ns3:hr>154</ns3:hr>
            <ns3:cad>79</ns3:cad>
          </ns3:TrackPointExtension>
        </extensions>
      </trkpt>
      <trkpt lat="47.5301678292453289031982421875" lon="11.01736807264387607574462890625">
        <ele>1795.4000244140625</ele>
        <time>2026-09-01T08:12:59.000Z</time>
        <extensions>
          <ns3:TrackPointExtension>
            <ns3:hr>154</ns3:hr>
            <ns3:cad>79</ns3:cad>
          </ns3:TrackPointExtension>
        </extensions>
      </trkpt>
      <trkpt lat="47.53015517257153987884521484375" lon="11.0173990018665790557861328125">
        <ele>1795.4000244140625</ele>
        <time>2026-09-01T08:13:00.000Z</time>
        <extensions>
          <ns3:TrackPointExtension>
            <ns3:hr>154</ns3:hr>
            <ns3:cad>79</ns3:cad>
          </ns3:TrackPointExtension>
        </extensions>
      </trkpt>
      <trkpt lat="47.53013924695551395416259765625" lon="11.01743864826858043670654296875">
        <ele>1795.199951171875</ele>
        <time>2026-09-01T08:13:01.000Z</time>
        <extensions>
          <ns3:TrackPointExtension>
            <ns3:hr>155</ns3:hr>
            <ns3:cad>79</ns3:cad>
          </ns3:TrackPointExtension>
        </extensions>
      </trkpt>
      <trkpt lat="47.53012231551110744476318359375" lon="11.01747821085155010223388671875">
        <ele>1795.4000244140625</ele>
        <time>2026-09-01T08:13:02.000Z</time>
        <extensions>
          <ns3:TrackPointExtension>
            <ns3:hr>155</ns3:hr>
            <ns3:cad>78</ns3:cad>
          </ns3:TrackPointExtension>
        </extensions>
      </trkpt>
      <trkpt lat="47.53011208958923816680908203125" lon="11.017507798969745635986328125">
        <ele>1795.4000244140625</ele>
        <time>2026-09-01T08:13:03.000Z</time>
        <extensions>
          <ns3:TrackPointExtension>
            <ns3:hr>155</ns3:hr>
            <ns3:cad>78</ns3:cad>
          </ns3:TrackPointExtension>
        </extensions>
      </trkpt>
      <trkpt lat="47.530099265277385711669921875" lon="11.01754325442016124725341796875">
        <ele>1795.5999755859375</ele>
        <time>2026-09-01T08:13:04.000Z</time>
        <extensions>
          <ns3:TrackPointExtension>
            <ns3:hr>155</ns3:hr>
            <ns3:cad>78</ns3:cad>
          </ns3:TrackPointExtension>
        </extensions>
      </trkpt>
      <trkpt lat="47.53008996136486530303955078125" lon="11.0175850801169872283935546875">
        <ele>1795.5999755859375</ele>
        <time>2026-09-01T08:13:05.000Z</time>
        <extensions>
          <ns3:TrackPointExtension>
            <ns3:hr>155</ns3:hr>
            <ns3:cad>78</ns3:cad>
          </ns3:TrackPointExtension>
        </extensions>
      </trkpt>
      <trkpt lat="47.530084513127803802490234375" lon="11.01761148311197757720947265625">
        <ele>1795.800048828125</ele>
        <time>2026-09-01T08:13:06.000Z</time>
        <extensions>
          <ns3:TrackPointExtension>
            <ns3:hr>155</ns3:hr>
            <ns3:cad>78</ns3:cad>
          </ns3:TrackPointExtension>
        </extensions>
      </trkpt>
      <trkpt lat="47.53007638268172740936279296875" lon="11.0176417417824268341064453125">
        <ele>1795.800048828125</ele>
        <time>2026-09-01T08:13:07.000Z</time>
        <extensions>
          <ns3:TrackPointExtension>
            <ns3:hr>155</ns3:hr>
            <ns3:cad>78</ns3:cad>
          </ns3:TrackPointExtension>
        </extensions>
      </trkpt>
      <trkpt lat="47.530063055455684661865234375" lon="11.0176819749176502227783203125">
        <ele>1795.800048828125</ele>
        <time>2026-09-01T08:13:08.000Z</time>
        <extensions>
          <ns3:TrackPointExtension>
            <ns3:hr>155</ns3:hr>
            <ns3:cad>79</ns3:cad>
          </ns3:TrackPointExtension>
        </extensions>
      </trkpt>
      <trkpt lat="47.5300561822950839996337890625" lon="11.017707288265228271484375">
        <ele>1795.800048828125</ele>
        <time>2026-09-01T08:13:09.000Z</time>
        <extensions>
          <ns3:TrackPointExtension>
            <ns3:hr>155</ns3:hr>
            <ns3:cad>80</ns3:cad>
          </ns3:TrackPointExtension>
        </extensions>
      </trkpt>
      <trkpt lat="47.53003992140293121337890625" lon="11.01774106733500957489013671875">
        <ele>1795.800048828125</ele>
        <time>2026-09-01T08:13:10.000Z</time>
        <extensions>
          <ns3:TrackPointExtension>
            <ns3:hr>155</ns3:hr>
            <ns3:cad>80</ns3:cad>
          </ns3:TrackPointExtension>
        </extensions>
      </trkpt>
      <trkpt lat="47.53002307377755641937255859375" lon="11.01777945645153522491455078125">
        <ele>1795.800048828125</ele>
        <time>2026-09-01T08:13:11.000Z</time>
        <extensions>
          <ns3:TrackPointExtension>
            <ns3:hr>156</ns3:hr>
            <ns3:cad>80</ns3:cad>
          </ns3:TrackPointExtension>
        </extensions>
      </trkpt>
      <trkpt lat="47.5300089083611965179443359375" lon="11.01780644617974758148193359375">
        <ele>1795.5999755859375</ele>
        <time>2026-09-01T08:13:12.000Z</time>
        <extensions>
          <ns3:TrackPointExtension>
            <ns3:hr>156</ns3:hr>
            <ns3:cad>80</ns3:cad>
          </ns3:TrackPointExtension>
        </extensions>
      </trkpt>
      <trkpt lat="47.52999725751578807830810546875" lon="11.0178378783166408538818359375">
        <ele>1795.4000244140625</ele>
        <time>2026-09-01T08:13:13.000Z</time>
        <extensions>
          <ns3:TrackPointExtension>
            <ns3:hr>156</ns3:hr>
            <ns3:cad>77</ns3:cad>
          </ns3:TrackPointExtension>
        </extensions>
      </trkpt>
      <trkpt lat="47.529984600841999053955078125" lon="11.017872579395771026611328125">
        <ele>1795.4000244140625</ele>
        <time>2026-09-01T08:13:14.000Z</time>
        <extensions>
          <ns3:TrackPointExtension>
            <ns3:hr>155</ns3:hr>
            <ns3:cad>77</ns3:cad>
          </ns3:TrackPointExtension>
        </extensions>
      </trkpt>
      <trkpt lat="47.52997261472046375274658203125" lon="11.0179178416728973388671875">
        <ele>1795.199951171875</ele>
        <time>2026-09-01T08:13:15.000Z</time>
        <extensions>
          <ns3:TrackPointExtension>
            <ns3:hr>155</ns3:hr>
            <ns3:cad>77</ns3:cad>
          </ns3:TrackPointExtension>
        </extensions>
      </trkpt>
      <trkpt lat="47.52996423281729221343994140625" lon="11.01794759742915630340576171875">
        <ele>1795</ele>
        <time>2026-09-01T08:13:16.000Z</time>
        <extensions>
          <ns3:TrackPointExtension>
            <ns3:hr>155</ns3:hr>
            <ns3:cad>78</ns3:cad>
          </ns3:TrackPointExtension>
        </extensions>
      </trkpt>
      <trkpt lat="47.529953420162200927734375" lon="11.01798422634601593017578125">
        <ele>1794.800048828125</ele>
        <time>2026-09-01T08:13:17.000Z</time>
        <extensions>
          <ns3:TrackPointExtension>
            <ns3:hr>155</ns3:hr>
            <ns3:cad>78</ns3:cad>
          </ns3:TrackPointExtension>
        </extensions>
      </trkpt>
      <trkpt lat="47.5299385003745555877685546875" lon="11.01802689023315906524658203125">
        <ele>1794.5999755859375</ele>
        <time>2026-09-01T08:13:18.000Z</time>
        <extensions>
          <ns3:TrackPointExtension>
            <ns3:hr>155</ns3:hr>
            <ns3:cad>78</ns3:cad>
          </ns3:TrackPointExtension>
        </extensions>
      </trkpt>
      <trkpt lat="47.52993137575685977935791015625" lon="11.0180558077991008758544921875">
        <ele>1794.5999755859375</ele>
        <time>2026-09-01T08:13:19.000Z</time>
        <extensions>
          <ns3:TrackPointExtension>
            <ns3:hr>155</ns3:hr>
            <ns3:cad>78</ns3:cad>
          </ns3:TrackPointExtension>
        </extensions>
      </trkpt>
      <trkpt lat="47.529925592243671417236328125" lon="11.01809830404818058013916015625">
        <ele>1794.4000244140625</ele>
        <time>2026-09-01T08:13:20.000Z</time>
        <extensions>
          <ns3:TrackPointExtension>
            <ns3:hr>155</ns3:hr>
            <ns3:cad>78</ns3:cad>
          </ns3:TrackPointExtension>
        </extensions>
      </trkpt>
      <trkpt lat="47.52991511486470699310302734375" lon="11.01814247667789459228515625">
        <ele>1794.4000244140625</ele>
        <time>2026-09-01T08:13:21.000Z</time>
        <extensions>
          <ns3:TrackPointExtension>
            <ns3:hr>155</ns3:hr>
            <ns3:cad>78</ns3:cad>
          </ns3:TrackPointExtension>
        </extensions>
      </trkpt>
      <trkpt lat="47.529903464019298553466796875" lon="11.01817256771028041839599609375">
        <ele>1794.199951171875</ele>
        <time>2026-09-01T08:13:22.000Z</time>
        <extensions>
          <ns3:TrackPointExtension>
            <ns3:hr>155</ns3:hr>
            <ns3:cad>79</ns3:cad>
          </ns3:TrackPointExtension>
        </extensions>
      </trkpt>
      <trkpt lat="47.529884688556194305419921875" lon="11.01821229793131351470947265625">
        <ele>1794.199951171875</ele>
        <time>2026-09-01T08:13:23.000Z</time>
        <extensions>
          <ns3:TrackPointExtension>
            <ns3:hr>155</ns3:hr>
            <ns3:cad>81</ns3:cad>
          </ns3:TrackPointExtension>
        </extensions>
      </trkpt>
      <trkpt lat="47.52986582927405834197998046875" lon="11.01825135760009288787841796875">
        <ele>1794.199951171875</ele>
        <time>2026-09-01T08:13:24.000Z</time>
        <extensions>
          <ns3:TrackPointExtension>
            <ns3:hr>155</ns3:hr>
            <ns3:cad>81</ns3:cad>
          </ns3:TrackPointExtension>
        </extensions>
      </trkpt>
      <trkpt lat="47.5298530049622058868408203125" lon="11.018282286822795867919921875">
        <ele>1794.199951171875</ele>
        <time>2026-09-01T08:13:25.000Z</time>
        <extensions>
          <ns3:TrackPointExtension>
            <ns3:hr>155</ns3:hr>
            <ns3:cad>81</ns3:cad>
          </ns3:TrackPointExtension>
        </extensions>
      </trkpt>
      <trkpt lat="47.52983012236654758453369140625" lon="11.01831790991127490997314453125">
        <ele>1794</ele>
        <time>2026-09-01T08:13:26.000Z</time>
        <extensions>
          <ns3:TrackPointExtension>
            <ns3:hr>155</ns3:hr>
            <ns3:cad>81</ns3:cad>
          </ns3:TrackPointExtension>
        </extensions>
      </trkpt>
      <trkpt lat="47.529812268912792205810546875" lon="11.01835110224783420562744140625">
        <ele>1794</ele>
        <time>2026-09-01T08:13:27.000Z</time>
        <extensions>
          <ns3:TrackPointExtension>
            <ns3:hr>154</ns3:hr>
            <ns3:cad>80</ns3:cad>
          </ns3:TrackPointExtension>
        </extensions>
      </trkpt>
      <trkpt lat="47.5297966785728931427001953125" lon="11.01837876252830028533935546875">
        <ele>1793.800048828125</ele>
        <time>2026-09-01T08:13:28.000Z</time>
        <extensions>
          <ns3:TrackPointExtension>
            <ns3:hr>154</ns3:hr>
            <ns3:cad>80</ns3:cad>
          </ns3:TrackPointExtension>
        </extensions>
      </trkpt>
      <trkpt lat="47.52977899275720119476318359375" lon="11.01841731928288936614990234375">
        <ele>1793.4000244140625</ele>
        <time>2026-09-01T08:13:29.000Z</time>
        <extensions>
          <ns3:TrackPointExtension>
            <ns3:hr>154</ns3:hr>
            <ns3:cad>80</ns3:cad>
          </ns3:TrackPointExtension>
        </extensions>
      </trkpt>
      <trkpt lat="47.52977044321596622467041015625" lon="11.0184464044868946075439453125">
        <ele>1793</ele>
        <time>2026-09-01T08:13:30.000Z</time>
        <extensions>
          <ns3:TrackPointExtension>
            <ns3:hr>154</ns3:hr>
            <ns3:cad>80</ns3:cad>
          </ns3:TrackPointExtension>
        </extensions>
      </trkpt>
      <trkpt lat="47.5297589600086212158203125" lon="11.0184822790324687957763671875">
        <ele>1792.5999755859375</ele>
        <time>2026-09-01T08:13:31.000Z</time>
        <extensions>
          <ns3:TrackPointExtension>
            <ns3:hr>154</ns3:hr>
            <ns3:cad>80</ns3:cad>
          </ns3:TrackPointExtension>
        </extensions>
      </trkpt>
      <trkpt lat="47.5297514162957668304443359375" lon="11.0185131244361400604248046875">
        <ele>1792.199951171875</ele>
        <time>2026-09-01T08:13:32.000Z</time>
        <extensions>
          <ns3:TrackPointExtension>
            <ns3:hr>154</ns3:hr>
            <ns3:cad>80</ns3:cad>
          </ns3:TrackPointExtension>
        </extensions>
      </trkpt>
      <trkpt lat="47.5297437049448490142822265625" lon="11.01854053325951099395751953125">
        <ele>1791.800048828125</ele>
        <time>2026-09-01T08:13:33.000Z</time>
        <extensions>
          <ns3:TrackPointExtension>
            <ns3:hr>154</ns3:hr>
            <ns3:cad>80</ns3:cad>
          </ns3:TrackPointExtension>
        </extensions>
      </trkpt>
      <trkpt lat="47.5297199003398418426513671875" lon="11.0185535252094268798828125">
        <ele>1791.4000244140625</ele>
        <time>2026-09-01T08:13:34.000Z</time>
        <extensions>
          <ns3:TrackPointExtension>
            <ns3:hr>154</ns3:hr>
            <ns3:cad>82</ns3:cad>
          </ns3:TrackPointExtension>
        </extensions>
      </trkpt>
      <trkpt lat="47.529690898954868316650390625" lon="11.01856291294097900390625">
        <ele>1791.199951171875</ele>
        <time>2026-09-01T08:13:35.000Z</time>
        <extensions>
          <ns3:TrackPointExtension>
            <ns3:hr>153</ns3:hr>
            <ns3:cad>82</ns3:cad>
          </ns3:TrackPointExtension>
        </extensions>
      </trkpt>
      <trkpt lat="47.52966977655887603759765625" lon="11.0185684449970722198486328125">
        <ele>1791</ele>
        <time>2026-09-01T08:13:36.000Z</time>
        <extensions>
          <ns3:TrackPointExtension>
            <ns3:hr>153</ns3:hr>
            <ns3:cad>82</ns3:cad>
          </ns3:TrackPointExtension>
        </extensions>
      </trkpt>
      <trkpt lat="47.5296518392860889434814453125" lon="11.0185684449970722198486328125">
        <ele>1790.800048828125</ele>
        <time>2026-09-01T08:13:37.000Z</time>
        <extensions>
          <ns3:TrackPointExtension>
            <ns3:hr>153</ns3:hr>
            <ns3:cad>82</ns3:cad>
          </ns3:TrackPointExtension>
        </extensions>
      </trkpt>
      <trkpt lat="47.52963499166071414947509765625" lon="11.0185728035867214202880859375">
        <ele>1790.800048828125</ele>
        <time>2026-09-01T08:13:38.000Z</time>
        <extensions>
          <ns3:TrackPointExtension>
            <ns3:hr>153</ns3:hr>
            <ns3:cad>77</ns3:cad>
          </ns3:TrackPointExtension>
        </extensions>
      </trkpt>
      <trkpt lat="47.52961521036922931671142578125" lon="11.01859333924949169158935546875">
        <ele>1790.800048828125</ele>
        <time>2026-09-01T08:13:39.000Z</time>
        <extensions>
          <ns3:TrackPointExtension>
            <ns3:hr>153</ns3:hr>
            <ns3:cad>74</ns3:cad>
          </ns3:TrackPointExtension>
        </extensions>
      </trkpt>
      <trkpt lat="47.5295988656580448150634765625" lon="11.01861798204481601715087890625">
        <ele>1790.800048828125</ele>
        <time>2026-09-01T08:13:40.000Z</time>
        <extensions>
          <ns3:TrackPointExtension>
            <ns3:hr>152</ns3:hr>
            <ns3:cad>68</ns3:cad>
          </ns3:TrackPointExtension>
        </extensions>
      </trkpt>
      <trkpt lat="47.52958687953650951385498046875" lon="11.01863541640341281890869140625">
        <ele>1790.800048828125</ele>
        <time>2026-09-01T08:13:41.000Z</time>
        <extensions>
          <ns3:TrackPointExtension>
            <ns3:hr>152</ns3:hr>
            <ns3:cad>68</ns3:cad>
          </ns3:TrackPointExtension>
        </extensions>
      </trkpt>
      <trkpt lat="47.529572881758213043212890625" lon="11.01865368895232677459716796875">
        <ele>1790.800048828125</ele>
        <time>2026-09-01T08:13:42.000Z</time>
        <extensions>
          <ns3:TrackPointExtension>
            <ns3:hr>152</ns3:hr>
            <ns3:cad>76</ns3:cad>
          </ns3:TrackPointExtension>
        </extensions>
      </trkpt>
      <trkpt lat="47.529557459056377410888671875" lon="11.0186769068241119384765625">
        <ele>1790.800048828125</ele>
        <time>2026-09-01T08:13:43.000Z</time>
        <extensions>
          <ns3:TrackPointExtension>
            <ns3:hr>151</ns3:hr>
            <ns3:cad>76</ns3:cad>
          </ns3:TrackPointExtension>
        </extensions>
      </trkpt>
      <trkpt lat="47.529547400772571563720703125" lon="11.01869895122945308685302734375">
        <ele>1790.5999755859375</ele>
        <time>2026-09-01T08:13:44.000Z</time>
        <extensions>
          <ns3:TrackPointExtension>
            <ns3:hr>151</ns3:hr>
            <ns3:cad>76</ns3:cad>
          </ns3:TrackPointExtension>
        </extensions>
      </trkpt>
      <trkpt lat="47.52953030169010162353515625" lon="11.01873080246150493621826171875">
        <ele>1790.5999755859375</ele>
        <time>2026-09-01T08:13:45.000Z</time>
        <extensions>
          <ns3:TrackPointExtension>
            <ns3:hr>151</ns3:hr>
            <ns3:cad>76</ns3:cad>
          </ns3:TrackPointExtension>
        </extensions>
      </trkpt>
      <trkpt lat="47.52951328642666339874267578125" lon="11.01876382716000080108642578125">
        <ele>1790.5999755859375</ele>
        <time>2026-09-01T08:13:46.000Z</time>
        <extensions>
          <ns3:TrackPointExtension>
            <ns3:hr>150</ns3:hr>
            <ns3:cad>78</ns3:cad>
          </ns3:TrackPointExtension>
        </extensions>
      </trkpt>
      <trkpt lat="47.529500462114810943603515625" lon="11.01879249326884746551513671875">
        <ele>1790.4000244140625</ele>
        <time>2026-09-01T08:13:47.000Z</time>
        <extensions>
          <ns3:TrackPointExtension>
            <ns3:hr>150</ns3:hr>
            <ns3:cad>79</ns3:cad>
          </ns3:TrackPointExtension>
        </extensions>
      </trkpt>
      <trkpt lat="47.52948830835521221160888671875" lon="11.01882685907185077667236328125">
        <ele>1790.199951171875</ele>
        <time>2026-09-01T08:13:48.000Z</time>
        <extensions>
          <ns3:TrackPointExtension>
            <ns3:hr>149</ns3:hr>
            <ns3:cad>80</ns3:cad>
          </ns3:TrackPointExtension>
        </extensions>
      </trkpt>
      <trkpt lat="47.52947724424302577972412109375" lon="11.01886105723679065704345703125">
        <ele>1790</ele>
        <time>2026-09-01T08:13:49.000Z</time>
        <extensions>
          <ns3:TrackPointExtension>
            <ns3:hr>149</ns3:hr>
            <ns3:cad>80</ns3:cad>
          </ns3:TrackPointExtension>
        </extensions>
      </trkpt>
      <trkpt lat="47.52947154454886913299560546875" lon="11.018883101642131805419921875">
        <ele>1789.800048828125</ele>
        <time>2026-09-01T08:13:50.000Z</time>
        <extensions>
          <ns3:TrackPointExtension>
            <ns3:hr>149</ns3:hr>
            <ns3:cad>79</ns3:cad>
          </ns3:TrackPointExtension>
        </extensions>
      </trkpt>
      <trkpt lat="47.52945947460830211639404296875" lon="11.018920652568340301513671875">
        <ele>1789.800048828125</ele>
        <time>2026-09-01T08:13:51.000Z</time>
        <extensions>
          <ns3:TrackPointExtension>
            <ns3:hr>149</ns3:hr>
            <ns3:cad>79</ns3:cad>
          </ns3:TrackPointExtension>
        </extensions>
      </trkpt>
      <trkpt lat="47.52945327199995517730712890625" lon="11.0189489834010601043701171875">
        <ele>1789.800048828125</ele>
        <time>2026-09-01T08:13:52.000Z</time>
        <extensions>
          <ns3:TrackPointExtension>
            <ns3:hr>149</ns3:hr>
            <ns3:cad>79</ns3:cad>
          </ns3:TrackPointExtension>
        </extensions>
      </trkpt>
      <trkpt lat="47.52944447100162506103515625" lon="11.01897739805281162261962890625">
        <ele>1790</ele>
        <time>2026-09-01T08:13:53.000Z</time>
        <extensions>
          <ns3:TrackPointExtension>
            <ns3:hr>148</ns3:hr>
            <ns3:cad>80</ns3:cad>
          </ns3:TrackPointExtension>
        </extensions>
      </trkpt>
      <trkpt lat="47.52943935804069042205810546875" lon="11.0189880430698394775390625">
        <ele>1790</ele>
        <time>2026-09-01T08:13:54.000Z</time>
        <extensions>
          <ns3:TrackPointExtension>
            <ns3:hr>148</ns3:hr>
            <ns3:cad>80</ns3:cad>
          </ns3:TrackPointExtension>
        </extensions>
      </trkpt>
      <trkpt lat="47.52942812629044055938720703125" lon="11.019005812704563140869140625">
        <ele>1790</ele>
        <time>2026-09-01T08:13:55.000Z</time>
        <extensions>
          <ns3:TrackPointExtension>
            <ns3:hr>148</ns3:hr>
            <ns3:cad>80</ns3:cad>
          </ns3:TrackPointExtension>
        </extensions>
      </trkpt>
      <trkpt lat="47.5294238515198230743408203125" lon="11.0190136916935443878173828125">
        <ele>1790</ele>
        <time>2026-09-01T08:13:56.000Z</time>
        <extensions>
          <ns3:TrackPointExtension>
            <ns3:hr>147</ns3:hr>
            <ns3:cad>80</ns3:cad>
          </ns3:TrackPointExtension>
        </extensions>
      </trkpt>
      <trkpt lat="47.52940868027508258819580078125" lon="11.0190336406230926513671875">
        <ele>1790.199951171875</ele>
        <time>2026-09-01T08:13:57.000Z</time>
        <extensions>
          <ns3:TrackPointExtension>
            <ns3:hr>147</ns3:hr>
            <ns3:cad>80</ns3:cad>
          </ns3:TrackPointExtension>
        </extensions>
      </trkpt>
      <trkpt lat="47.529407925903797149658203125" lon="11.01904596202075481414794921875">
        <ele>1790.4000244140625</ele>
        <time>2026-09-01T08:13:58.000Z</time>
        <extensions>
          <ns3:TrackPointExtension>
            <ns3:hr>146</ns3:hr>
            <ns3:cad>80</ns3:cad>
          </ns3:TrackPointExtension>
        </extensions>
      </trkpt>
      <trkpt lat="47.52940423786640167236328125" lon="11.019071526825428009033203125">
        <ele>1790.800048828125</ele>
        <time>2026-09-01T08:13:59.000Z</time>
        <extensions>
          <ns3:TrackPointExtension>
            <ns3:hr>146</ns3:hr>
            <ns3:cad>80</ns3:cad>
          </ns3:TrackPointExtension>
        </extensions>
      </trkpt>
      <trkpt lat="47.52939845435321331024169921875" lon="11.01908770389854907989501953125">
        <ele>1791</ele>
        <time>2026-09-01T08:14:00.000Z</time>
        <extensions>
          <ns3:TrackPointExtension>
            <ns3:hr>145</ns3:hr>
            <ns3:cad>80</ns3:cad>
          </ns3:TrackPointExtension>
        </extensions>
      </trkpt>
      <trkpt lat="47.529392503201961517333984375" lon="11.01910673081874847412109375">
        <ele>1791.4000244140625</ele>
        <time>2026-09-01T08:14:01.000Z</time>
        <extensions>
          <ns3:TrackPointExtension>
            <ns3:hr>144</ns3:hr>
            <ns3:cad>80</ns3:cad>
          </ns3:TrackPointExtension>
        </extensions>
      </trkpt>
      <trkpt lat="47.52938671968877315521240234375" lon="11.01912726648151874542236328125">
        <ele>1791.5999755859375</ele>
        <time>2026-09-01T08:14:02.000Z</time>
        <extensions>
          <ns3:TrackPointExtension>
            <ns3:hr>143</ns3:hr>
            <ns3:cad>80</ns3:cad>
          </ns3:TrackPointExtension>
        </extensions>
      </trkpt>
      <trkpt lat="47.5293782539665699005126953125" lon="11.019144617021083831787109375">
        <ele>1791.800048828125</ele>
        <time>2026-09-01T08:14:03.000Z</time>
        <extensions>
          <ns3:TrackPointExtension>
            <ns3:hr>142</ns3:hr>
            <ns3:cad>80</ns3:cad>
          </ns3:TrackPointExtension>
        </extensions>
      </trkpt>
      <trkpt lat="47.52936777658760547637939453125" lon="11.0191649012267589569091796875">
        <ele>1792</ele>
        <time>2026-09-01T08:14:04.000Z</time>
        <extensions>
          <ns3:TrackPointExtension>
            <ns3:hr>141</ns3:hr>
            <ns3:cad>80</ns3:cad>
          </ns3:TrackPointExtension>
        </extensions>
      </trkpt>
      <trkpt lat="47.529361657798290252685546875" lon="11.019171439111232757568359375">
        <ele>1792</ele>
        <time>2026-09-01T08:14:05.000Z</time>
        <extensions>
          <ns3:TrackPointExtension>
            <ns3:hr>140</ns3:hr>
            <ns3:cad>80</ns3:cad>
          </ns3:TrackPointExtension>
        </extensions>
      </trkpt>
      <trkpt lat="47.52935268916189670562744140625" lon="11.01918912492692470550537109375">
        <ele>1791.800048828125</ele>
        <time>2026-09-01T08:14:06.000Z</time>
        <extensions>
          <ns3:TrackPointExtension>
            <ns3:hr>140</ns3:hr>
            <ns3:cad>52</ns3:cad>
          </ns3:TrackPointExtension>
        </extensions>
      </trkpt>
      <trkpt lat="47.5293514318764209747314453125" lon="11.01919868029654026031494140625">
        <ele>1792</ele>
        <time>2026-09-01T08:14:07.000Z</time>
        <extensions>
          <ns3:TrackPointExtension>
            <ns3:hr>140</ns3:hr>
            <ns3:cad>52</ns3:cad>
          </ns3:TrackPointExtension>
        </extensions>
      </trkpt>
      <trkpt lat="47.52934791147708892822265625" lon="11.0192215628921985626220703125">
        <ele>1792</ele>
        <time>2026-09-01T08:14:08.000Z</time>
        <extensions>
          <ns3:TrackPointExtension>
            <ns3:hr>140</ns3:hr>
            <ns3:cad>52</ns3:cad>
          </ns3:TrackPointExtension>
        </extensions>
      </trkpt>
      <trkpt lat="47.5293450616300106048583984375" lon="11.01923815906047821044921875">
        <ele>1792</ele>
        <time>2026-09-01T08:14:09.000Z</time>
        <extensions>
          <ns3:TrackPointExtension>
            <ns3:hr>139</ns3:hr>
            <ns3:cad>53</ns3:cad>
          </ns3:TrackPointExtension>
        </extensions>
      </trkpt>
      <trkpt lat="47.5293319858610630035400390625" lon="11.0192510671913623809814453125">
        <ele>1792.199951171875</ele>
        <time>2026-09-01T08:14:10.000Z</time>
        <extensions>
          <ns3:TrackPointExtension>
            <ns3:hr>139</ns3:hr>
            <ns3:cad>53</ns3:cad>
          </ns3:TrackPointExtension>
        </extensions>
      </trkpt>
      <trkpt lat="47.52931748516857624053955078125" lon="11.01926724426448345184326171875">
        <ele>1792.4000244140625</ele>
        <time>2026-09-01T08:14:11.000Z</time>
        <extensions>
          <ns3:TrackPointExtension>
            <ns3:hr>138</ns3:hr>
            <ns3:cad>53</ns3:cad>
          </ns3:TrackPointExtension>
        </extensions>
      </trkpt>
      <trkpt lat="47.52930943854153156280517578125" lon="11.01928375661373138427734375">
        <ele>1792.4000244140625</ele>
        <time>2026-09-01T08:14:12.000Z</time>
        <extensions>
          <ns3:TrackPointExtension>
            <ns3:hr>137</ns3:hr>
            <ns3:cad>54</ns3:cad>
          </ns3:TrackPointExtension>
        </extensions>
      </trkpt>
      <trkpt lat="47.52929954789578914642333984375" lon="11.01930043660104274749755859375">
        <ele>1792.5999755859375</ele>
        <time>2026-09-01T08:14:13.000Z</time>
        <extensions>
          <ns3:TrackPointExtension>
            <ns3:hr>137</ns3:hr>
            <ns3:cad>54</ns3:cad>
          </ns3:TrackPointExtension>
        </extensions>
      </trkpt>
      <trkpt lat="47.529295273125171661376953125" lon="11.01932222954928874969482421875">
        <ele>1792.800048828125</ele>
        <time>2026-09-01T08:14:14.000Z</time>
        <extensions>
          <ns3:TrackPointExtension>
            <ns3:hr>137</ns3:hr>
            <ns3:cad>54</ns3:cad>
          </ns3:TrackPointExtension>
        </extensions>
      </trkpt>
      <trkpt lat="47.52929066307842731475830078125" lon="11.0193395800888538360595703125">
        <ele>1793.199951171875</ele>
        <time>2026-09-01T08:14:15.000Z</time>
        <extensions>
          <ns3:TrackPointExtension>
            <ns3:hr>137</ns3:hr>
            <ns3:cad>55</ns3:cad>
          </ns3:TrackPointExtension>
        </extensions>
      </trkpt>
      <trkpt lat="47.52928487956523895263671875" lon="11.0193570144474506378173828125">
        <ele>1793.5999755859375</ele>
        <time>2026-09-01T08:14:16.000Z</time>
        <extensions>
          <ns3:TrackPointExtension>
            <ns3:hr>137</ns3:hr>
            <ns3:cad>55</ns3:cad>
          </ns3:TrackPointExtension>
        </extensions>
      </trkpt>
      <trkpt lat="47.52927809022367000579833984375" lon="11.01937503553926944732666015625">
        <ele>1794</ele>
        <time>2026-09-01T08:14:17.000Z</time>
        <extensions>
          <ns3:TrackPointExtension>
            <ns3:hr>137</ns3:hr>
            <ns3:cad>55</ns3:cad>
          </ns3:TrackPointExtension>
        </extensions>
      </trkpt>
      <trkpt lat="47.5292699597775936126708984375" lon="11.01939515210688114166259765625">
        <ele>1794.4000244140625</ele>
        <time>2026-09-01T08:14:18.000Z</time>
        <extensions>
          <ns3:TrackPointExtension>
            <ns3:hr>137</ns3:hr>
            <ns3:cad>55</ns3:cad>
          </ns3:TrackPointExtension>
        </extensions>
      </trkpt>
      <trkpt lat="47.52925872802734375" lon="11.01941325701773166656494140625">
        <ele>1794.5999755859375</ele>
        <time>2026-09-01T08:14:19.000Z</time>
        <extensions>
          <ns3:TrackPointExtension>
            <ns3:hr>137</ns3:hr>
            <ns3:cad>55</ns3:cad>
          </ns3:TrackPointExtension>
        </extensions>
      </trkpt>
      <trkpt lat="47.529245652258396148681640625" lon="11.0194327868521213531494140625">
        <ele>1794.5999755859375</ele>
        <time>2026-09-01T08:14:20.000Z</time>
        <extensions>
          <ns3:TrackPointExtension>
            <ns3:hr>139</ns3:hr>
            <ns3:cad>55</ns3:cad>
          </ns3:TrackPointExtension>
        </extensions>
      </trkpt>
      <trkpt lat="47.52923266030848026275634765625" lon="11.01944494061172008514404296875">
        <ele>1794.4000244140625</ele>
        <time>2026-09-01T08:14:21.000Z</time>
        <extensions>
          <ns3:TrackPointExtension>
            <ns3:hr>141</ns3:hr>
            <ns3:cad>55</ns3:cad>
          </ns3:TrackPointExtension>
        </extensions>
      </trkpt>
      <trkpt lat="47.52921857871115207672119140625" lon="11.0194569267332553863525390625">
        <ele>1794.199951171875</ele>
        <time>2026-09-01T08:14:22.000Z</time>
        <extensions>
          <ns3:TrackPointExtension>
            <ns3:hr>143</ns3:hr>
            <ns3:cad>55</ns3:cad>
          </ns3:TrackPointExtension>
        </extensions>
      </trkpt>
      <trkpt lat="47.52920701168477535247802734375" lon="11.019461117684841156005859375">
        <ele>1794</ele>
        <time>2026-09-01T08:14:23.000Z</time>
        <extensions>
          <ns3:TrackPointExtension>
            <ns3:hr>143</ns3:hr>
            <ns3:cad>55</ns3:cad>
          </ns3:TrackPointExtension>
        </extensions>
      </trkpt>
      <trkpt lat="47.52919770777225494384765625" lon="11.01946388371288776397705078125">
        <ele>1793.800048828125</ele>
        <time>2026-09-01T08:14:24.000Z</time>
        <extensions>
          <ns3:TrackPointExtension>
            <ns3:hr>147</ns3:hr>
            <ns3:cad>55</ns3:cad>
          </ns3:TrackPointExtension>
        </extensions>
      </trkpt>
      <trkpt lat="47.52919108606874942779541015625" lon="11.0194632969796657562255859375">
        <ele>1793.800048828125</ele>
        <time>2026-09-01T08:14:25.000Z</time>
        <extensions>
          <ns3:TrackPointExtension>
            <ns3:hr>153</ns3:hr>
            <ns3:cad>55</ns3:cad>
          </ns3:TrackPointExtension>
        </extensions>
      </trkpt>
      <trkpt lat="47.52918697893619537353515625" lon="11.0194579325616359710693359375">
        <ele>1794.199951171875</ele>
        <time>2026-09-01T08:14:26.000Z</time>
        <extensions>
          <ns3:TrackPointExtension>
            <ns3:hr>154</ns3:hr>
            <ns3:cad>55</ns3:cad>
          </ns3:TrackPointExtension>
        </extensions>
      </trkpt>
      <trkpt lat="47.5291784293949604034423828125" lon="11.01946069858968257904052734375">
        <ele>1794.5999755859375</ele>
        <time>2026-09-01T08:14:27.000Z</time>
        <extensions>
          <ns3:TrackPointExtension>
            <ns3:hr>155</ns3:hr>
            <ns3:cad>0</ns3:cad>
          </ns3:TrackPointExtension>
        </extensions>
      </trkpt>
      <trkpt lat="47.52916552126407623291015625" lon="11.01946673355996608734130859375">
        <ele>1795</ele>
        <time>2026-09-01T08:14:28.000Z</time>
        <extensions>
          <ns3:TrackPointExtension>
            <ns3:hr>155</ns3:hr>
            <ns3:cad>0</ns3:cad>
          </ns3:TrackPointExtension>
        </extensions>
      </trkpt>
      <trkpt lat="47.52915990538895130157470703125" lon="11.0194743610918521881103515625">
        <ele>1795.4000244140625</ele>
        <time>2026-09-01T08:14:29.000Z</time>
        <extensions>
          <ns3:TrackPointExtension>
            <ns3:hr>155</ns3:hr>
            <ns3:cad>0</ns3:cad>
          </ns3:TrackPointExtension>
        </extensions>
      </trkpt>
      <trkpt lat="47.5291526131331920623779296875" lon="11.01948651485145092010498046875">
        <ele>1795.5999755859375</ele>
        <time>2026-09-01T08:14:30.000Z</time>
        <extensions>
          <ns3:TrackPointExtension>
            <ns3:hr>155</ns3:hr>
            <ns3:cad>0</ns3:cad>
          </ns3:TrackPointExtension>
        </extensions>
      </trkpt>
      <trkpt lat="47.52914515323936939239501953125" lon="11.019500680267810821533203125">
        <ele>1796</ele>
        <time>2026-09-01T08:14:31.000Z</time>
        <extensions>
          <ns3:TrackPointExtension>
            <ns3:hr>155</ns3:hr>
            <ns3:cad>0</ns3:cad>
          </ns3:TrackPointExtension>
        </extensions>
      </trkpt>
      <trkpt lat="47.52913408912718296051025390625" lon="11.01951702497899532318115234375">
        <ele>1796.199951171875</ele>
        <time>2026-09-01T08:14:32.000Z</time>
        <extensions>
          <ns3:TrackPointExtension>
            <ns3:hr>155</ns3:hr>
            <ns3:cad>0</ns3:cad>
          </ns3:TrackPointExtension>
        </extensions>
      </trkpt>
      <trkpt lat="47.5291281379759311676025390625" lon="11.0195259936153888702392578125">
        <ele>1796.5999755859375</ele>
        <time>2026-09-01T08:14:33.000Z</time>
        <extensions>
          <ns3:TrackPointExtension>
            <ns3:hr>156</ns3:hr>
            <ns3:cad>0</ns3:cad>
          </ns3:TrackPointExtension>
        </extensions>
      </trkpt>
      <trkpt lat="47.5291170738637447357177734375" lon="11.0195420868694782257080078125">
        <ele>1796.800048828125</ele>
        <time>2026-09-01T08:14:34.000Z</time>
        <extensions>
          <ns3:TrackPointExtension>
            <ns3:hr>156</ns3:hr>
            <ns3:cad>0</ns3:cad>
          </ns3:TrackPointExtension>
        </extensions>
      </trkpt>
      <trkpt lat="47.5291137211024761199951171875" lon="11.0195501334965229034423828125">
        <ele>1797.199951171875</ele>
        <time>2026-09-01T08:14:35.000Z</time>
        <extensions>
          <ns3:TrackPointExtension>
            <ns3:hr>155</ns3:hr>
            <ns3:cad>0</ns3:cad>
          </ns3:TrackPointExtension>
        </extensions>
      </trkpt>
      <trkpt lat="47.52911380492150783538818359375" lon="11.01957268081605434417724609375">
        <ele>1797.5999755859375</ele>
        <time>2026-09-01T08:14:36.000Z</time>
        <extensions>
          <ns3:TrackPointExtension>
            <ns3:hr>155</ns3:hr>
            <ns3:cad>0</ns3:cad>
          </ns3:TrackPointExtension>
        </extensions>
      </trkpt>
      <trkpt lat="47.529106847941875457763671875" lon="11.01958709768950939178466796875">
        <ele>1797.5999755859375</ele>
        <time>2026-09-01T08:14:37.000Z</time>
        <extensions>
          <ns3:TrackPointExtension>
            <ns3:hr>155</ns3:hr>
            <ns3:cad>0</ns3:cad>
          </ns3:TrackPointExtension>
        </extensions>
      </trkpt>
      <trkpt lat="47.52909922040998935699462890625" lon="11.019601933658123016357421875">
        <ele>1798</ele>
        <time>2026-09-01T08:14:38.000Z</time>
        <extensions>
          <ns3:TrackPointExtension>
            <ns3:hr>155</ns3:hr>
            <ns3:cad>53</ns3:cad>
          </ns3:TrackPointExtension>
        </extensions>
      </trkpt>
      <trkpt lat="47.52909184433519840240478515625" lon="11.01961425505578517913818359375">
        <ele>1798.199951171875</ele>
        <time>2026-09-01T08:14:39.000Z</time>
        <extensions>
          <ns3:TrackPointExtension>
            <ns3:hr>155</ns3:hr>
            <ns3:cad>53</ns3:cad>
          </ns3:TrackPointExtension>
        </extensions>
      </trkpt>
      <trkpt lat="47.52908430062234401702880859375" lon="11.019627414643764495849609375">
        <ele>1798.5999755859375</ele>
        <time>2026-09-01T08:14:40.000Z</time>
        <extensions>
          <ns3:TrackPointExtension>
            <ns3:hr>155</ns3:hr>
            <ns3:cad>53</ns3:cad>
          </ns3:TrackPointExtension>
        </extensions>
      </trkpt>
      <trkpt lat="47.5290761701762676239013671875" lon="11.01964342407882213592529296875">
        <ele>1799</ele>
        <time>2026-09-01T08:14:41.000Z</time>
        <extensions>
          <ns3:TrackPointExtension>
            <ns3:hr>155</ns3:hr>
            <ns3:cad>53</ns3:cad>
          </ns3:TrackPointExtension>
        </extensions>
      </trkpt>
      <trkpt lat="47.529068626463413238525390625" lon="11.01965582929551601409912109375">
        <ele>1799.5999755859375</ele>
        <time>2026-09-01T08:14:42.000Z</time>
        <extensions>
          <ns3:TrackPointExtension>
            <ns3:hr>154</ns3:hr>
            <ns3:cad>53</ns3:cad>
          </ns3:TrackPointExtension>
        </extensions>
      </trkpt>
      <trkpt lat="47.52906703390181064605712890625" lon="11.019664965569972991943359375">
        <ele>1800</ele>
        <time>2026-09-01T08:14:43.000Z</time>
        <extensions>
          <ns3:TrackPointExtension>
            <ns3:hr>154</ns3:hr>
            <ns3:cad>53</ns3:cad>
          </ns3:TrackPointExtension>
        </extensions>
      </trkpt>
      <trkpt lat="47.5290614180266857147216796875" lon="11.01968231610953807830810546875">
        <ele>1800.4000244140625</ele>
        <time>2026-09-01T08:14:44.000Z</time>
        <extensions>
          <ns3:TrackPointExtension>
            <ns3:hr>154</ns3:hr>
            <ns3:cad>52</ns3:cad>
          </ns3:TrackPointExtension>
        </extensions>
      </trkpt>
      <trkpt lat="47.52905613742768764495849609375" lon="11.01971835829317569732666015625">
        <ele>1801</ele>
        <time>2026-09-01T08:14:45.000Z</time>
        <extensions>
          <ns3:TrackPointExtension>
            <ns3:hr>155</ns3:hr>
            <ns3:cad>52</ns3:cad>
          </ns3:TrackPointExtension>
        </extensions>
      </trkpt>
      <trkpt lat="47.52905613742768764495849609375" lon="11.01971835829317569732666015625">
        <ele>1801</ele>
        <time>2026-09-01T08:14:46.000Z</time>
        <extensions>
          <ns3:TrackPointExtension>
            <ns3:hr>156</ns3:hr>
            <ns3:cad>52</ns3:cad>
          </ns3:TrackPointExtension>
        </extensions>
      </trkpt>
      <trkpt lat="47.52905110828578472137451171875" lon="11.01973780430853366851806640625">
        <ele>1801.4000244140625</ele>
        <time>2026-09-01T08:14:47.000Z</time>
        <extensions>
          <ns3:TrackPointExtension>
            <ns3:hr>156</ns3:hr>
            <ns3:cad>53</ns3:cad>
          </ns3:TrackPointExtension>
        </extensions>
      </trkpt>
      <trkpt lat="47.529050521552562713623046875" lon="11.01974618621170520782470703125">
        <ele>1801.5999755859375</ele>
        <time>2026-09-01T08:14:48.000Z</time>
        <extensions>
          <ns3:TrackPointExtension>
            <ns3:hr>157</ns3:hr>
            <ns3:cad>53</ns3:cad>
          </ns3:TrackPointExtension>
        </extensions>
      </trkpt>
      <trkpt lat="47.52904389984905719757080078125" lon="11.0197616927325725555419921875">
        <ele>1802.199951171875</ele>
        <time>2026-09-01T08:14:49.000Z</time>
        <extensions>
          <ns3:TrackPointExtension>
            <ns3:hr>157</ns3:hr>
            <ns3:cad>53</ns3:cad>
          </ns3:TrackPointExtension>
        </extensions>
      </trkpt>
      <trkpt lat="47.52903987653553485870361328125" lon="11.01977384649217128753662109375">
        <ele>1802.5999755859375</ele>
        <time>2026-09-01T08:14:50.000Z</time>
        <extensions>
          <ns3:TrackPointExtension>
            <ns3:hr>157</ns3:hr>
            <ns3:cad>0</ns3:cad>
          </ns3:TrackPointExtension>
        </extensions>
      </trkpt>
      <trkpt lat="47.52903032116591930389404296875" lon="11.0197819769382476806640625">
        <ele>1803.199951171875</ele>
        <time>2026-09-01T08:14:51.000Z</time>
        <extensions>
          <ns3:TrackPointExtension>
            <ns3:hr>158</ns3:hr>
            <ns3:cad>0</ns3:cad>
          </ns3:TrackPointExtension>
        </extensions>
      </trkpt>
      <trkpt lat="47.52902160398662090301513671875" lon="11.0197905264794826507568359375">
        <ele>1803.5999755859375</ele>
        <time>2026-09-01T08:14:52.000Z</time>
        <extensions>
          <ns3:TrackPointExtension>
            <ns3:hr>158</ns3:hr>
            <ns3:cad>0</ns3:cad>
          </ns3:TrackPointExtension>
        </extensions>
      </trkpt>
      <trkpt lat="47.52901406027376651763916015625" lon="11.0197975672781467437744140625">
        <ele>1804.199951171875</ele>
        <time>2026-09-01T08:14:53.000Z</time>
        <extensions>
          <ns3:TrackPointExtension>
            <ns3:hr>158</ns3:hr>
            <ns3:cad>0</ns3:cad>
          </ns3:TrackPointExtension>
        </extensions>
      </trkpt>
      <trkpt lat="47.5290037505328655242919921875" lon="11.01980812847614288330078125">
        <ele>1804.800048828125</ele>
        <time>2026-09-01T08:14:54.000Z</time>
        <extensions>
          <ns3:TrackPointExtension>
            <ns3:hr>158</ns3:hr>
            <ns3:cad>0</ns3:cad>
          </ns3:TrackPointExtension>
        </extensions>
      </trkpt>
      <trkpt lat="47.52899897284805774688720703125" lon="11.01981081068515777587890625">
        <ele>1805.199951171875</ele>
        <time>2026-09-01T08:14:55.000Z</time>
        <extensions>
          <ns3:TrackPointExtension>
            <ns3:hr>157</ns3:hr>
            <ns3:cad>0</ns3:cad>
          </ns3:TrackPointExtension>
        </extensions>
      </trkpt>
      <trkpt lat="47.52898673526942729949951171875" lon="11.01981726475059986114501953125">
        <ele>1805.4000244140625</ele>
        <time>2026-09-01T08:14:56.000Z</time>
        <extensions>
          <ns3:TrackPointExtension>
            <ns3:hr>156</ns3:hr>
            <ns3:cad>0</ns3:cad>
          </ns3:TrackPointExtension>
        </extensions>
      </trkpt>
      <trkpt lat="47.52897684462368488311767578125" lon="11.01982824504375457763671875">
        <ele>1805.5999755859375</ele>
        <time>2026-09-01T08:14:57.000Z</time>
        <extensions>
          <ns3:TrackPointExtension>
            <ns3:hr>155</ns3:hr>
            <ns3:cad>57</ns3:cad>
          </ns3:TrackPointExtension>
        </extensions>
      </trkpt>
      <trkpt lat="47.5289655290544033050537109375" lon="11.0198374651372432708740234375">
        <ele>1805.5999755859375</ele>
        <time>2026-09-01T08:14:58.000Z</time>
        <extensions>
          <ns3:TrackPointExtension>
            <ns3:hr>155</ns3:hr>
            <ns3:cad>57</ns3:cad>
          </ns3:TrackPointExtension>
        </extensions>
      </trkpt>
      <trkpt lat="47.5289544649422168731689453125" lon="11.019848696887493133544921875">
        <ele>1805.800048828125</ele>
        <time>2026-09-01T08:14:59.000Z</time>
        <extensions>
          <ns3:TrackPointExtension>
            <ns3:hr>155</ns3:hr>
            <ns3:cad>57</ns3:cad>
          </ns3:TrackPointExtension>
        </extensions>
      </trkpt>
      <trkpt lat="47.5289480946958065032958984375" lon="11.01985565386712551116943359375">
        <ele>1806.199951171875</ele>
        <time>2026-09-01T08:15:00.000Z</time>
        <extensions>
          <ns3:TrackPointExtension>
            <ns3:hr>155</ns3:hr>
            <ns3:cad>57</ns3:cad>
          </ns3:TrackPointExtension>
        </extensions>
      </trkpt>
      <trkpt lat="47.528939209878444671630859375" lon="11.01987191475927829742431640625">
        <ele>1806.4000244140625</ele>
        <time>2026-09-01T08:15:01.000Z</time>
        <extensions>
          <ns3:TrackPointExtension>
            <ns3:hr>155</ns3:hr>
            <ns3:cad>57</ns3:cad>
          </ns3:TrackPointExtension>
        </extensions>
      </trkpt>
      <trkpt lat="47.52893242053687572479248046875" lon="11.01988683454692363739013671875">
        <ele>1806.800048828125</ele>
        <time>2026-09-01T08:15:02.000Z</time>
        <extensions>
          <ns3:TrackPointExtension>
            <ns3:hr>154</ns3:hr>
            <ns3:cad>0</ns3:cad>
          </ns3:TrackPointExtension>
        </extensions>
      </trkpt>
      <trkpt lat="47.52891900949180126190185546875" lon="11.01990544237196445465087890625">
        <ele>1807.199951171875</ele>
        <time>2026-09-01T08:15:03.000Z</time>
        <extensions>
          <ns3:TrackPointExtension>
            <ns3:hr>152</ns3:hr>
            <ns3:cad>0</ns3:cad>
          </ns3:TrackPointExtension>
        </extensions>
      </trkpt>
      <trkpt lat="47.52890962176024913787841796875" lon="11.01992078125476837158203125">
        <ele>1807.800048828125</ele>
        <time>2026-09-01T08:15:04.000Z</time>
        <extensions>
          <ns3:TrackPointExtension>
            <ns3:hr>152</ns3:hr>
            <ns3:cad>0</ns3:cad>
          </ns3:TrackPointExtension>
        </extensions>
      </trkpt>
      <trkpt lat="47.52890534698963165283203125" lon="11.0199286602437496185302734375">
        <ele>1808.199951171875</ele>
        <time>2026-09-01T08:15:05.000Z</time>
        <extensions>
          <ns3:TrackPointExtension>
            <ns3:hr>153</ns3:hr>
            <ns3:cad>0</ns3:cad>
          </ns3:TrackPointExtension>
        </extensions>
      </trkpt>
      <trkpt lat="47.52890140749514102935791015625" lon="11.01993561722338199615478515625">
        <ele>1808.800048828125</ele>
        <time>2026-09-01T08:15:06.000Z</time>
        <extensions>
          <ns3:TrackPointExtension>
            <ns3:hr>153</ns3:hr>
            <ns3:cad>0</ns3:cad>
          </ns3:TrackPointExtension>
        </extensions>
      </trkpt>
      <trkpt lat="47.52889889292418956756591796875" lon="11.0199447534978389739990234375">
        <ele>1809.199951171875</ele>
        <time>2026-09-01T08:15:07.000Z</time>
        <extensions>
          <ns3:TrackPointExtension>
            <ns3:hr>153</ns3:hr>
            <ns3:cad>0</ns3:cad>
          </ns3:TrackPointExtension>
        </extensions>
      </trkpt>
      <trkpt lat="47.528894282877445220947265625" lon="11.01995741017162799835205078125">
        <ele>1809.5999755859375</ele>
        <time>2026-09-01T08:15:08.000Z</time>
        <extensions>
          <ns3:TrackPointExtension>
            <ns3:hr>154</ns3:hr>
            <ns3:cad>0</ns3:cad>
          </ns3:TrackPointExtension>
        </extensions>
      </trkpt>
      <trkpt lat="47.5288917683064937591552734375" lon="11.019972078502178192138671875">
        <ele>1809.800048828125</ele>
        <time>2026-09-01T08:15:09.000Z</time>
        <extensions>
          <ns3:TrackPointExtension>
            <ns3:hr>154</ns3:hr>
            <ns3:cad>0</ns3:cad>
          </ns3:TrackPointExtension>
        </extensions>
      </trkpt>
      <trkpt lat="47.52888933755457401275634765625" lon="11.0199844837188720703125">
        <ele>1810.199951171875</ele>
        <time>2026-09-01T08:15:10.000Z</time>
        <extensions>
          <ns3:TrackPointExtension>
            <ns3:hr>155</ns3:hr>
            <ns3:cad>0</ns3:cad>
          </ns3:TrackPointExtension>
        </extensions>
      </trkpt>
      <trkpt lat="47.52888615243136882781982421875" lon="11.0199973918497562408447265625">
        <ele>1810.5999755859375</ele>
        <time>2026-09-01T08:15:11.000Z</time>
        <extensions>
          <ns3:TrackPointExtension>
            <ns3:hr>155</ns3:hr>
            <ns3:cad>50</ns3:cad>
          </ns3:TrackPointExtension>
        </extensions>
      </trkpt>
      <trkpt lat="47.5288810394704341888427734375" lon="11.020009629428386688232421875">
        <ele>1810.800048828125</ele>
        <time>2026-09-01T08:15:12.000Z</time>
        <extensions>
          <ns3:TrackPointExtension>
            <ns3:hr>156</ns3:hr>
            <ns3:cad>52</ns3:cad>
          </ns3:TrackPointExtension>
        </extensions>
      </trkpt>
      <trkpt lat="47.52887508831918239593505859375" lon="11.0200225375592708587646484375">
        <ele>1811.199951171875</ele>
        <time>2026-09-01T08:15:13.000Z</time>
        <extensions>
          <ns3:TrackPointExtension>
            <ns3:hr>157</ns3:hr>
            <ns3:cad>52</ns3:cad>
          </ns3:TrackPointExtension>
        </extensions>
      </trkpt>
      <trkpt lat="47.52886989153921604156494140625" lon="11.02003620006144046783447265625">
        <ele>1811.4000244140625</ele>
        <time>2026-09-01T08:15:14.000Z</time>
        <extensions>
          <ns3:TrackPointExtension>
            <ns3:hr>158</ns3:hr>
            <ns3:cad>49</ns3:cad>
          </ns3:TrackPointExtension>
        </extensions>
      </trkpt>
      <trkpt lat="47.52886637113988399505615234375" lon="11.02004743181169033050537109375">
        <ele>1811.5999755859375</ele>
        <time>2026-09-01T08:15:15.000Z</time>
        <extensions>
          <ns3:TrackPointExtension>
            <ns3:hr>159</ns3:hr>
            <ns3:cad>48</ns3:cad>
          </ns3:TrackPointExtension>
        </extensions>
      </trkpt>
      <trkpt lat="47.5288625992834568023681640625" lon="11.020059920847415924072265625">
        <ele>1811.800048828125</ele>
        <time>2026-09-01T08:15:16.000Z</time>
        <extensions>
          <ns3:TrackPointExtension>
            <ns3:hr>159</ns3:hr>
            <ns3:cad>47</ns3:cad>
          </ns3:TrackPointExtension>
        </extensions>
      </trkpt>
      <trkpt lat="47.528859078884124755859375" lon="11.0200765170156955718994140625">
        <ele>1812</ele>
        <time>2026-09-01T08:15:17.000Z</time>
        <extensions>
          <ns3:TrackPointExtension>
            <ns3:hr>160</ns3:hr>
            <ns3:cad>47</ns3:cad>
          </ns3:TrackPointExtension>
        </extensions>
      </trkpt>
      <trkpt lat="47.5288550555706024169921875" lon="11.0200912691652774810791015625">
        <ele>1812.4000244140625</ele>
        <time>2026-09-01T08:15:18.000Z</time>
        <extensions>
          <ns3:TrackPointExtension>
            <ns3:hr>160</ns3:hr>
            <ns3:cad>47</ns3:cad>
          </ns3:TrackPointExtension>
        </extensions>
      </trkpt>
      <trkpt lat="47.52884742803871631622314453125" lon="11.02009604685008525848388671875">
        <ele>1812.5999755859375</ele>
        <time>2026-09-01T08:15:19.000Z</time>
        <extensions>
          <ns3:TrackPointExtension>
            <ns3:hr>160</ns3:hr>
            <ns3:cad>49</ns3:cad>
          </ns3:TrackPointExtension>
        </extensions>
      </trkpt>
      <trkpt lat="47.52883904613554477691650390625" lon="11.02010375820100307464599609375">
        <ele>1813</ele>
        <time>2026-09-01T08:15:20.000Z</time>
        <extensions>
          <ns3:TrackPointExtension>
            <ns3:hr>160</ns3:hr>
            <ns3:cad>52</ns3:cad>
          </ns3:TrackPointExtension>
        </extensions>
      </trkpt>
      <trkpt lat="47.52883871085941791534423828125" lon="11.0201207734644412994384765625">
        <ele>1813.4000244140625</ele>
        <time>2026-09-01T08:15:21.000Z</time>
        <extensions>
          <ns3:TrackPointExtension>
            <ns3:hr>160</ns3:hr>
            <ns3:cad>52</ns3:cad>
          </ns3:TrackPointExtension>
        </extensions>
      </trkpt>
      <trkpt lat="47.52883954904973506927490234375" lon="11.0201288200914859771728515625">
        <ele>1813.5999755859375</ele>
        <time>2026-09-01T08:15:22.000Z</time>
        <extensions>
          <ns3:TrackPointExtension>
            <ns3:hr>160</ns3:hr>
            <ns3:cad>52</ns3:cad>
          </ns3:TrackPointExtension>
        </extensions>
      </trkpt>
      <trkpt lat="47.52883602865040302276611328125" lon="11.0201479308307170867919921875">
        <ele>1813.5999755859375</ele>
        <time>2026-09-01T08:15:23.000Z</time>
        <extensions>
          <ns3:TrackPointExtension>
            <ns3:hr>160</ns3:hr>
            <ns3:cad>47</ns3:cad>
          </ns3:TrackPointExtension>
        </extensions>
      </trkpt>
      <trkpt lat="47.52883401699364185333251953125" lon="11.020167209208011627197265625">
        <ele>1813.5999755859375</ele>
        <time>2026-09-01T08:15:24.000Z</time>
        <extensions>
          <ns3:TrackPointExtension>
            <ns3:hr>160</ns3:hr>
            <ns3:cad>0</ns3:cad>
          </ns3:TrackPointExtension>
        </extensions>
      </trkpt>
      <trkpt lat="47.52883426845073699951171875" lon="11.0201827995479106903076171875">
        <ele>1813.5999755859375</ele>
        <time>2026-09-01T08:15:25.000Z</time>
        <extensions>
          <ns3:TrackPointExtension>
            <ns3:hr>160</ns3:hr>
            <ns3:cad>0</ns3:cad>
          </ns3:TrackPointExtension>
        </extensions>
      </trkpt>
      <trkpt lat="47.528833933174610137939453125" lon="11.02019562385976314544677734375">
        <ele>1813.5999755859375</ele>
        <time>2026-09-01T08:15:26.000Z</time>
        <extensions>
          <ns3:TrackPointExtension>
            <ns3:hr>160</ns3:hr>
            <ns3:cad>0</ns3:cad>
          </ns3:TrackPointExtension>
        </extensions>
      </trkpt>
      <trkpt lat="47.528832256793975830078125" lon="11.020207107067108154296875">
        <ele>1813.5999755859375</ele>
        <time>2026-09-01T08:15:27.000Z</time>
        <extensions>
          <ns3:TrackPointExtension>
            <ns3:hr>160</ns3:hr>
            <ns3:cad>0</ns3:cad>
          </ns3:TrackPointExtension>
        </extensions>
      </trkpt>
      <trkpt lat="47.5288317538797855377197265625" lon="11.0202176682651042938232421875">
        <ele>1814</ele>
        <time>2026-09-01T08:15:28.000Z</time>
        <extensions>
          <ns3:TrackPointExtension>
            <ns3:hr>161</ns3:hr>
            <ns3:cad>0</ns3:cad>
          </ns3:TrackPointExtension>
        </extensions>
      </trkpt>
      <trkpt lat="47.5288309156894683837890625" lon="11.02023149840533733367919921875">
        <ele>1814.199951171875</ele>
        <time>2026-09-01T08:15:29.000Z</time>
        <extensions>
          <ns3:TrackPointExtension>
            <ns3:hr>161</ns3:hr>
            <ns3:cad>0</ns3:cad>
          </ns3:TrackPointExtension>
        </extensions>
      </trkpt>
      <trkpt lat="47.528830580413341522216796875" lon="11.02025127969682216644287109375">
        <ele>1814.5999755859375</ele>
        <time>2026-09-01T08:15:30.000Z</time>
        <extensions>
          <ns3:TrackPointExtension>
            <ns3:hr>161</ns3:hr>
            <ns3:cad>0</ns3:cad>
          </ns3:TrackPointExtension>
        </extensions>
      </trkpt>
      <trkpt lat="47.52883083187043666839599609375" lon="11.0202592425048351287841796875">
        <ele>1815</ele>
        <time>2026-09-01T08:15:31.000Z</time>
        <extensions>
          <ns3:TrackPointExtension>
            <ns3:hr>161</ns3:hr>
            <ns3:cad>0</ns3:cad>
          </ns3:TrackPointExtension>
        </extensions>
      </trkpt>
      <trkpt lat="47.528825886547565460205078125" lon="11.02026519365608692169189453125">
        <ele>1815.4000244140625</ele>
        <time>2026-09-01T08:15:32.000Z</time>
        <extensions>
          <ns3:TrackPointExtension>
            <ns3:hr>162</ns3:hr>
            <ns3:cad>0</ns3:cad>
          </ns3:TrackPointExtension>
        </extensions>
      </trkpt>
      <trkpt lat="47.528832592070102691650390625" lon="11.02027374319732189178466796875">
        <ele>1815.5999755859375</ele>
        <time>2026-09-01T08:15:33.000Z</time>
        <extensions>
          <ns3:TrackPointExtension>
            <ns3:hr>162</ns3:hr>
            <ns3:cad>0</ns3:cad>
          </ns3:TrackPointExtension>
        </extensions>
      </trkpt>
      <trkpt lat="47.52883317880332469940185546875" lon="11.02029335685074329376220703125">
        <ele>1815.800048828125</ele>
        <time>2026-09-01T08:15:34.000Z</time>
        <extensions>
          <ns3:TrackPointExtension>
            <ns3:hr>162</ns3:hr>
            <ns3:cad>72</ns3:cad>
          </ns3:TrackPointExtension>
        </extensions>
      </trkpt>
      <trkpt lat="47.5288324244320392608642578125" lon="11.0203071869909763336181640625">
        <ele>1815.800048828125</ele>
        <time>2026-09-01T08:15:35.000Z</time>
        <extensions>
          <ns3:TrackPointExtension>
            <ns3:hr>162</ns3:hr>
            <ns3:cad>72</ns3:cad>
          </ns3:TrackPointExtension>
        </extensions>
      </trkpt>
      <trkpt lat="47.52883267588913440704345703125" lon="11.02032353170216083526611328125">
        <ele>1816</ele>
        <time>2026-09-01T08:15:36.000Z</time>
        <extensions>
          <ns3:TrackPointExtension>
            <ns3:hr>161</ns3:hr>
            <ns3:cad>72</ns3:cad>
          </ns3:TrackPointExtension>
        </extensions>
      </trkpt>
      <trkpt lat="47.528831250965595245361328125" lon="11.02033828385174274444580078125">
        <ele>1816.199951171875</ele>
        <time>2026-09-01T08:15:37.000Z</time>
        <extensions>
          <ns3:TrackPointExtension>
            <ns3:hr>161</ns3:hr>
            <ns3:cad>0</ns3:cad>
          </ns3:TrackPointExtension>
        </extensions>
      </trkpt>
      <trkpt lat="47.52883032895624637603759765625" lon="11.02034247480332851409912109375">
        <ele>1816.4000244140625</ele>
        <time>2026-09-01T08:15:38.000Z</time>
        <extensions>
          <ns3:TrackPointExtension>
            <ns3:hr>161</ns3:hr>
            <ns3:cad>0</ns3:cad>
          </ns3:TrackPointExtension>
        </extensions>
      </trkpt>
      <trkpt lat="47.52882697619497776031494140625" lon="11.02035529911518096923828125">
        <ele>1816.5999755859375</ele>
        <time>2026-09-01T08:15:39.000Z</time>
        <extensions>
          <ns3:TrackPointExtension>
            <ns3:hr>161</ns3:hr>
            <ns3:cad>0</ns3:cad>
          </ns3:TrackPointExtension>
        </extensions>
      </trkpt>
      <trkpt lat="47.52882211469113826751708984375" lon="11.0203658603131771087646484375">
        <ele>1816.5999755859375</ele>
        <time>2026-09-01T08:15:40.000Z</time>
        <extensions>
          <ns3:TrackPointExtension>
            <ns3:hr>161</ns3:hr>
            <ns3:cad>0</ns3:cad>
          </ns3:TrackPointExtension>
        </extensions>
      </trkpt>
      <trkpt lat="47.52881540916860103607177734375" lon="11.02037399075925350189208984375">
        <ele>1816.800048828125</ele>
        <time>2026-09-01T08:15:41.000Z</time>
        <extensions>
          <ns3:TrackPointExtension>
            <ns3:hr>161</ns3:hr>
            <ns3:cad>0</ns3:cad>
          </ns3:TrackPointExtension>
        </extensions>
      </trkpt>
      <trkpt lat="47.5288102962076663970947265625" lon="11.0203816182911396026611328125">
        <ele>1817</ele>
        <time>2026-09-01T08:15:42.000Z</time>
        <extensions>
          <ns3:TrackPointExtension>
            <ns3:hr>162</ns3:hr>
            <ns3:cad>0</ns3:cad>
          </ns3:TrackPointExtension>
        </extensions>
      </trkpt>
      <trkpt lat="47.52880250103771686553955078125" lon="11.0203973762691020965576171875">
        <ele>1817.199951171875</ele>
        <time>2026-09-01T08:15:43.000Z</time>
        <extensions>
          <ns3:TrackPointExtension>
            <ns3:hr>162</ns3:hr>
            <ns3:cad>0</ns3:cad>
          </ns3:TrackPointExtension>
        </extensions>
      </trkpt>
      <trkpt lat="47.52879261039197444915771484375" lon="11.02041740901768207550048828125">
        <ele>1817.4000244140625</ele>
        <time>2026-09-01T08:15:44.000Z</time>
        <extensions>
          <ns3:TrackPointExtension>
            <ns3:hr>161</ns3:hr>
            <ns3:cad>0</ns3:cad>
          </ns3:TrackPointExtension>
        </extensions>
      </trkpt>
      <trkpt lat="47.52878221683204174041748046875" lon="11.0204439796507358551025390625">
        <ele>1817.800048828125</ele>
        <time>2026-09-01T08:15:45.000Z</time>
        <extensions>
          <ns3:TrackPointExtension>
            <ns3:hr>159</ns3:hr>
            <ns3:cad>0</ns3:cad>
          </ns3:TrackPointExtension>
        </extensions>
      </trkpt>
      <trkpt lat="47.5287767685949802398681640625" lon="11.02047641761600971221923828125">
        <ele>1818</ele>
        <time>2026-09-01T08:15:46.000Z</time>
        <extensions>
          <ns3:TrackPointExtension>
            <ns3:hr>158</ns3:hr>
            <ns3:cad>73</ns3:cad>
          </ns3:TrackPointExtension>
        </extensions>
      </trkpt>
      <trkpt lat="47.5287772715091705322265625" lon="11.02049619890749454498291015625">
        <ele>1818.199951171875</ele>
        <time>2026-09-01T08:15:47.000Z</time>
        <extensions>
          <ns3:TrackPointExtension>
            <ns3:hr>157</ns3:hr>
            <ns3:cad>73</ns3:cad>
          </ns3:TrackPointExtension>
        </extensions>
      </trkpt>
      <trkpt lat="47.52877417020499706268310546875" lon="11.02051815949380397796630859375">
        <ele>1818.199951171875</ele>
        <time>2026-09-01T08:15:48.000Z</time>
        <extensions>
          <ns3:TrackPointExtension>
            <ns3:hr>157</ns3:hr>
            <ns3:cad>73</ns3:cad>
          </ns3:TrackPointExtension>
        </extensions>
      </trkpt>
      <trkpt lat="47.52877165563404560089111328125" lon="11.02053877897560596466064453125">
        <ele>1818.4000244140625</ele>
        <time>2026-09-01T08:15:49.000Z</time>
        <extensions>
          <ns3:TrackPointExtension>
            <ns3:hr>156</ns3:hr>
            <ns3:cad>72</ns3:cad>
          </ns3:TrackPointExtension>
        </extensions>
      </trkpt>
      <trkpt lat="47.52876997925341129302978515625" lon="11.0205562971532344818115234375">
        <ele>1818.4000244140625</ele>
        <time>2026-09-01T08:15:50.000Z</time>
        <extensions>
          <ns3:TrackPointExtension>
            <ns3:hr>156</ns3:hr>
            <ns3:cad>72</ns3:cad>
          </ns3:TrackPointExtension>
        </extensions>
      </trkpt>
      <trkpt lat="47.52876545302569866180419921875" lon="11.020570881664752960205078125">
        <ele>1818.5999755859375</ele>
        <time>2026-09-01T08:15:51.000Z</time>
        <extensions>
          <ns3:TrackPointExtension>
            <ns3:hr>156</ns3:hr>
            <ns3:cad>0</ns3:cad>
          </ns3:TrackPointExtension>
        </extensions>
      </trkpt>
      <trkpt lat="47.52876310609281063079833984375" lon="11.02058370597660541534423828125">
        <ele>1819</ele>
        <time>2026-09-01T08:15:52.000Z</time>
        <extensions>
          <ns3:TrackPointExtension>
            <ns3:hr>156</ns3:hr>
            <ns3:cad>0</ns3:cad>
          </ns3:TrackPointExtension>
        </extensions>
      </trkpt>
      <trkpt lat="47.52875740639865398406982421875" lon="11.02060030214488506317138671875">
        <ele>1819.4000244140625</ele>
        <time>2026-09-01T08:15:53.000Z</time>
        <extensions>
          <ns3:TrackPointExtension>
            <ns3:hr>156</ns3:hr>
            <ns3:cad>0</ns3:cad>
          </ns3:TrackPointExtension>
        </extensions>
      </trkpt>
      <trkpt lat="47.528752125799655914306640625" lon="11.0206179879605770111083984375">
        <ele>1819.5999755859375</ele>
        <time>2026-09-01T08:15:54.000Z</time>
        <extensions>
          <ns3:TrackPointExtension>
            <ns3:hr>156</ns3:hr>
            <ns3:cad>0</ns3:cad>
          </ns3:TrackPointExtension>
        </extensions>
      </trkpt>
      <trkpt lat="47.52874298952519893646240234375" lon="11.02063952945172786712646484375">
        <ele>1820</ele>
        <time>2026-09-01T08:15:55.000Z</time>
        <extensions>
          <ns3:TrackPointExtension>
            <ns3:hr>156</ns3:hr>
            <ns3:cad>0</ns3:cad>
          </ns3:TrackPointExtension>
        </extensions>
      </trkpt>
      <trkpt lat="47.52873108722269535064697265625" lon="11.02067087776958942413330078125">
        <ele>1820.199951171875</ele>
        <time>2026-09-01T08:15:56.000Z</time>
        <extensions>
          <ns3:TrackPointExtension>
            <ns3:hr>156</ns3:hr>
            <ns3:cad>0</ns3:cad>
          </ns3:TrackPointExtension>
        </extensions>
      </trkpt>
      <trkpt lat="47.52871952019631862640380859375" lon="11.0206977836787700653076171875">
        <ele>1820.4000244140625</ele>
        <time>2026-09-01T08:15:57.000Z</time>
        <extensions>
          <ns3:TrackPointExtension>
            <ns3:hr>155</ns3:hr>
            <ns3:cad>71</ns3:cad>
          </ns3:TrackPointExtension>
        </extensions>
      </trkpt>
      <trkpt lat="47.5287123955786228179931640625" lon="11.02072276175022125244140625">
        <ele>1820.5999755859375</ele>
        <time>2026-09-01T08:15:58.000Z</time>
        <extensions>
          <ns3:TrackPointExtension>
            <ns3:hr>155</ns3:hr>
            <ns3:cad>71</ns3:cad>
          </ns3:TrackPointExtension>
        </extensions>
      </trkpt>
      <trkpt lat="47.5287107191979885101318359375" lon="11.020736508071422576904296875">
        <ele>1820.800048828125</ele>
        <time>2026-09-01T08:15:59.000Z</time>
        <extensions>
          <ns3:TrackPointExtension>
            <ns3:hr>155</ns3:hr>
            <ns3:cad>69</ns3:cad>
          </ns3:TrackPointExtension>
        </extensions>
      </trkpt>
      <trkpt lat="47.5287093780934810638427734375" lon="11.02075084112584590911865234375">
        <ele>1821</ele>
        <time>2026-09-01T08:16:00.000Z</time>
        <extensions>
          <ns3:TrackPointExtension>
            <ns3:hr>154</ns3:hr>
            <ns3:cad>69</ns3:cad>
          </ns3:TrackPointExtension>
        </extensions>
      </trkpt>
      <trkpt lat="47.52870745025575160980224609375" lon="11.0207641683518886566162109375">
        <ele>1821</ele>
        <time>2026-09-01T08:16:01.000Z</time>
        <extensions>
          <ns3:TrackPointExtension>
            <ns3:hr>154</ns3:hr>
            <ns3:cad>69</ns3:cad>
          </ns3:TrackPointExtension>
        </extensions>
      </trkpt>
      <trkpt lat="47.52870527096092700958251953125" lon="11.020786799490451812744140625">
        <ele>1821.199951171875</ele>
        <time>2026-09-01T08:16:02.000Z</time>
        <extensions>
          <ns3:TrackPointExtension>
            <ns3:hr>153</ns3:hr>
            <ns3:cad>69</ns3:cad>
          </ns3:TrackPointExtension>
        </extensions>
      </trkpt>
      <trkpt lat="47.528706528246402740478515625" lon="11.0208087600767612457275390625">
        <ele>1821.4000244140625</ele>
        <time>2026-09-01T08:16:03.000Z</time>
        <extensions>
          <ns3:TrackPointExtension>
            <ns3:hr>152</ns3:hr>
            <ns3:cad>69</ns3:cad>
          </ns3:TrackPointExtension>
        </extensions>
      </trkpt>
      <trkpt lat="47.52870661206543445587158203125" lon="11.02083398960530757904052734375">
        <ele>1821.4000244140625</ele>
        <time>2026-09-01T08:16:04.000Z</time>
        <extensions>
          <ns3:TrackPointExtension>
            <ns3:hr>152</ns3:hr>
            <ns3:cad>69</ns3:cad>
          </ns3:TrackPointExtension>
        </extensions>
      </trkpt>
      <trkpt lat="47.52870812080800533294677734375" lon="11.02085477672517299652099609375">
        <ele>1821.5999755859375</ele>
        <time>2026-09-01T08:16:05.000Z</time>
        <extensions>
          <ns3:TrackPointExtension>
            <ns3:hr>152</ns3:hr>
            <ns3:cad>69</ns3:cad>
          </ns3:TrackPointExtension>
        </extensions>
      </trkpt>
      <trkpt lat="47.528708875179290771484375" lon="11.02085553109645843505859375">
        <ele>1821.800048828125</ele>
        <time>2026-09-01T08:16:06.000Z</time>
        <extensions>
          <ns3:TrackPointExtension>
            <ns3:hr>153</ns3:hr>
            <ns3:cad>69</ns3:cad>
          </ns3:TrackPointExtension>
        </extensions>
      </trkpt>
      <trkpt lat="47.52871088683605194091796875" lon="11.02087422274053096771240234375">
        <ele>1822</ele>
        <time>2026-09-01T08:16:07.000Z</time>
        <extensions>
          <ns3:TrackPointExtension>
            <ns3:hr>153</ns3:hr>
            <ns3:cad>69</ns3:cad>
          </ns3:TrackPointExtension>
        </extensions>
      </trkpt>
      <trkpt lat="47.52871801145374774932861328125" lon="11.02089534513652324676513671875">
        <ele>1822.199951171875</ele>
        <time>2026-09-01T08:16:08.000Z</time>
        <extensions>
          <ns3:TrackPointExtension>
            <ns3:hr>154</ns3:hr>
            <ns3:cad>69</ns3:cad>
          </ns3:TrackPointExtension>
        </extensions>
      </trkpt>
      <trkpt lat="47.52872823737561702728271484375" lon="11.0209103487432003021240234375">
        <ele>1822.5999755859375</ele>
        <time>2026-09-01T08:16:09.000Z</time>
        <extensions>
          <ns3:TrackPointExtension>
            <ns3:hr>156</ns3:hr>
            <ns3:cad>69</ns3:cad>
          </ns3:TrackPointExtension>
        </extensions>
      </trkpt>
      <trkpt lat="47.52873846329748630523681640625" lon="11.0209240950644016265869140625">
        <ele>1822.800048828125</ele>
        <time>2026-09-01T08:16:10.000Z</time>
        <extensions>
          <ns3:TrackPointExtension>
            <ns3:hr>157</ns3:hr>
            <ns3:cad>69</ns3:cad>
          </ns3:TrackPointExtension>
        </extensions>
      </trkpt>
      <trkpt lat="47.52874483354389667510986328125" lon="11.02092786692082881927490234375">
        <ele>1823</ele>
        <time>2026-09-01T08:16:11.000Z</time>
        <extensions>
          <ns3:TrackPointExtension>
            <ns3:hr>158</ns3:hr>
            <ns3:cad>69</ns3:cad>
          </ns3:TrackPointExtension>
        </extensions>
      </trkpt>
      <trkpt lat="47.5287482701241970062255859375" lon="11.02095603011548519134521484375">
        <ele>1823</ele>
        <time>2026-09-01T08:16:12.000Z</time>
        <extensions>
          <ns3:TrackPointExtension>
            <ns3:hr>158</ns3:hr>
            <ns3:cad>69</ns3:cad>
          </ns3:TrackPointExtension>
        </extensions>
      </trkpt>
      <trkpt lat="47.528742738068103790283203125" lon="11.02097564376890659332275390625">
        <ele>1823</ele>
        <time>2026-09-01T08:16:13.000Z</time>
        <extensions>
          <ns3:TrackPointExtension>
            <ns3:hr>158</ns3:hr>
            <ns3:cad>69</ns3:cad>
          </ns3:TrackPointExtension>
        </extensions>
      </trkpt>
      <trkpt lat="47.52873997204005718231201171875" lon="11.02099710144102573394775390625">
        <ele>1822.800048828125</ele>
        <time>2026-09-01T08:16:14.000Z</time>
        <extensions>
          <ns3:TrackPointExtension>
            <ns3:hr>158</ns3:hr>
            <ns3:cad>69</ns3:cad>
          </ns3:TrackPointExtension>
        </extensions>
      </trkpt>
      <trkpt lat="47.52873896621167659759521484375" lon="11.0210184752941131591796875">
        <ele>1822.5999755859375</ele>
        <time>2026-09-01T08:16:15.000Z</time>
        <extensions>
          <ns3:TrackPointExtension>
            <ns3:hr>158</ns3:hr>
            <ns3:cad>55</ns3:cad>
          </ns3:TrackPointExtension>
        </extensions>
      </trkpt>
      <trkpt lat="47.5287408940494060516357421875" lon="11.02103582583367824554443359375">
        <ele>1822.800048828125</ele>
        <time>2026-09-01T08:16:16.000Z</time>
        <extensions>
          <ns3:TrackPointExtension>
            <ns3:hr>159</ns3:hr>
            <ns3:cad>55</ns3:cad>
          </ns3:TrackPointExtension>
        </extensions>
      </trkpt>
      <trkpt lat="47.52874500118196010589599609375" lon="11.0210528410971164703369140625">
        <ele>1823</ele>
        <time>2026-09-01T08:16:17.000Z</time>
        <extensions>
          <ns3:TrackPointExtension>
            <ns3:hr>159</ns3:hr>
            <ns3:cad>53</ns3:cad>
          </ns3:TrackPointExtension>
        </extensions>
      </trkpt>
      <trkpt lat="47.52874768339097499847412109375" lon="11.02107035927474498748779296875">
        <ele>1823.4000244140625</ele>
        <time>2026-09-01T08:16:18.000Z</time>
        <extensions>
          <ns3:TrackPointExtension>
            <ns3:hr>159</ns3:hr>
            <ns3:cad>52</ns3:cad>
          </ns3:TrackPointExtension>
        </extensions>
      </trkpt>
      <trkpt lat="47.52875036559998989105224609375" lon="11.0210846923291683197021484375">
        <ele>1823.4000244140625</ele>
        <time>2026-09-01T08:16:19.000Z</time>
        <extensions>
          <ns3:TrackPointExtension>
            <ns3:hr>159</ns3:hr>
            <ns3:cad>52</ns3:cad>
          </ns3:TrackPointExtension>
        </extensions>
      </trkpt>
      <trkpt lat="47.5287502817809581756591796875" lon="11.02110120467841625213623046875">
        <ele>1823.5999755859375</ele>
        <time>2026-09-01T08:16:20.000Z</time>
        <extensions>
          <ns3:TrackPointExtension>
            <ns3:hr>159</ns3:hr>
            <ns3:cad>53</ns3:cad>
          </ns3:TrackPointExtension>
        </extensions>
      </trkpt>
      <trkpt lat="47.52874969504773616790771484375" lon="11.021128110587596893310546875">
        <ele>1823.800048828125</ele>
        <time>2026-09-01T08:16:21.000Z</time>
        <extensions>
          <ns3:TrackPointExtension>
            <ns3:hr>159</ns3:hr>
            <ns3:cad>53</ns3:cad>
          </ns3:TrackPointExtension>
        </extensions>
      </trkpt>
      <trkpt lat="47.52874701283872127532958984375" lon="11.02115803398191928863525390625">
        <ele>1823.5999755859375</ele>
        <time>2026-09-01T08:16:22.000Z</time>
        <extensions>
          <ns3:TrackPointExtension>
            <ns3:hr>159</ns3:hr>
            <ns3:cad>52</ns3:cad>
          </ns3:TrackPointExtension>
        </extensions>
      </trkpt>
      <trkpt lat="47.52874298952519893646240234375" lon="11.02117530070245265960693359375">
        <ele>1823.4000244140625</ele>
        <time>2026-09-01T08:16:23.000Z</time>
        <extensions>
          <ns3:TrackPointExtension>
            <ns3:hr>159</ns3:hr>
            <ns3:cad>52</ns3:cad>
          </ns3:TrackPointExtension>
        </extensions>
      </trkpt>
      <trkpt lat="47.52874215133488178253173828125" lon="11.021197177469730377197265625">
        <ele>1823.4000244140625</ele>
        <time>2026-09-01T08:16:24.000Z</time>
        <extensions>
          <ns3:TrackPointExtension>
            <ns3:hr>159</ns3:hr>
            <ns3:cad>52</ns3:cad>
          </ns3:TrackPointExtension>
        </extensions>
      </trkpt>
      <trkpt lat="47.5287415646016597747802734375" lon="11.02122240699827671051025390625">
        <ele>1823.4000244140625</ele>
        <time>2026-09-01T08:16:25.000Z</time>
        <extensions>
          <ns3:TrackPointExtension>
            <ns3:hr>158</ns3:hr>
            <ns3:cad>52</ns3:cad>
          </ns3:TrackPointExtension>
        </extensions>
      </trkpt>
      <trkpt lat="47.5287435762584209442138671875" lon="11.02123866789042949676513671875">
        <ele>1823.4000244140625</ele>
        <time>2026-09-01T08:16:26.000Z</time>
        <extensions>
          <ns3:TrackPointExtension>
            <ns3:hr>159</ns3:hr>
            <ns3:cad>70</ns3:cad>
          </ns3:TrackPointExtension>
        </extensions>
      </trkpt>
      <trkpt lat="47.52874650992453098297119140625" lon="11.02125660516321659088134765625">
        <ele>1823.5999755859375</ele>
        <time>2026-09-01T08:16:27.000Z</time>
        <extensions>
          <ns3:TrackPointExtension>
            <ns3:hr>159</ns3:hr>
            <ns3:cad>70</ns3:cad>
          </ns3:TrackPointExtension>
        </extensions>
      </trkpt>
      <trkpt lat="47.5287502817809581756591796875" lon="11.02127730846405029296875">
        <ele>1823.5999755859375</ele>
        <time>2026-09-01T08:16:28.000Z</time>
        <extensions>
          <ns3:TrackPointExtension>
            <ns3:hr>158</ns3:hr>
            <ns3:cad>70</ns3:cad>
          </ns3:TrackPointExtension>
        </extensions>
      </trkpt>
      <trkpt lat="47.5287566520273685455322265625" lon="11.02129382081329822540283203125">
        <ele>1823.800048828125</ele>
        <time>2026-09-01T08:16:29.000Z</time>
        <extensions>
          <ns3:TrackPointExtension>
            <ns3:hr>158</ns3:hr>
            <ns3:cad>70</ns3:cad>
          </ns3:TrackPointExtension>
        </extensions>
      </trkpt>
      <trkpt lat="47.52875891514122486114501953125" lon="11.02130270563066005706787109375">
        <ele>1824</ele>
        <time>2026-09-01T08:16:30.000Z</time>
        <extensions>
          <ns3:TrackPointExtension>
            <ns3:hr>158</ns3:hr>
            <ns3:cad>70</ns3:cad>
          </ns3:TrackPointExtension>
        </extensions>
      </trkpt>
      <trkpt lat="47.52876863814890384674072265625" lon="11.02132567204535007476806640625">
        <ele>1824</ele>
        <time>2026-09-01T08:16:31.000Z</time>
        <extensions>
          <ns3:TrackPointExtension>
            <ns3:hr>158</ns3:hr>
            <ns3:cad>70</ns3:cad>
          </ns3:TrackPointExtension>
        </extensions>
      </trkpt>
      <trkpt lat="47.52877165563404560089111328125" lon="11.02133832871913909912109375">
        <ele>1824.199951171875</ele>
        <time>2026-09-01T08:16:32.000Z</time>
        <extensions>
          <ns3:TrackPointExtension>
            <ns3:hr>158</ns3:hr>
            <ns3:cad>70</ns3:cad>
          </ns3:TrackPointExtension>
        </extensions>
      </trkpt>
      <trkpt lat="47.5287717394530773162841796875" lon="11.02135534398257732391357421875">
        <ele>1824.4000244140625</ele>
        <time>2026-09-01T08:16:33.000Z</time>
        <extensions>
          <ns3:TrackPointExtension>
            <ns3:hr>157</ns3:hr>
            <ns3:cad>70</ns3:cad>
          </ns3:TrackPointExtension>
        </extensions>
      </trkpt>
      <trkpt lat="47.528778612613677978515625" lon="11.0213656537234783172607421875">
        <ele>1824.4000244140625</ele>
        <time>2026-09-01T08:16:34.000Z</time>
        <extensions>
          <ns3:TrackPointExtension>
            <ns3:hr>157</ns3:hr>
            <ns3:cad>0</ns3:cad>
          </ns3:TrackPointExtension>
        </extensions>
      </trkpt>
      <trkpt lat="47.52879093401134014129638671875" lon="11.02139289490878582000732421875">
        <ele>1824.4000244140625</ele>
        <time>2026-09-01T08:16:35.000Z</time>
        <extensions>
          <ns3:TrackPointExtension>
            <ns3:hr>156</ns3:hr>
            <ns3:cad>0</ns3:cad>
          </ns3:TrackPointExtension>
        </extensions>
      </trkpt>
      <trkpt lat="47.5287985615432262420654296875" lon="11.021413095295429229736328125">
        <ele>1824.4000244140625</ele>
        <time>2026-09-01T08:16:36.000Z</time>
        <extensions>
          <ns3:TrackPointExtension>
            <ns3:hr>155</ns3:hr>
            <ns3:cad>51</ns3:cad>
          </ns3:TrackPointExtension>
        </extensions>
      </trkpt>
      <trkpt lat="47.52880551852285861968994140625" lon="11.02142281830310821533203125">
        <ele>1824.4000244140625</ele>
        <time>2026-09-01T08:16:37.000Z</time>
        <extensions>
          <ns3:TrackPointExtension>
            <ns3:hr>154</ns3:hr>
            <ns3:cad>51</ns3:cad>
          </ns3:TrackPointExtension>
        </extensions>
      </trkpt>
      <trkpt lat="47.5288133136928081512451171875" lon="11.02143430151045322418212890625">
        <ele>1824.4000244140625</ele>
        <time>2026-09-01T08:16:38.000Z</time>
        <extensions>
          <ns3:TrackPointExtension>
            <ns3:hr>154</ns3:hr>
            <ns3:cad>51</ns3:cad>
          </ns3:TrackPointExtension>
        </extensions>
      </trkpt>
      <trkpt lat="47.5288233719766139984130859375" lon="11.0214476287364959716796875">
        <ele>1824.5999755859375</ele>
        <time>2026-09-01T08:16:39.000Z</time>
        <extensions>
          <ns3:TrackPointExtension>
            <ns3:hr>154</ns3:hr>
            <ns3:cad>51</ns3:cad>
          </ns3:TrackPointExtension>
        </extensions>
      </trkpt>
      <trkpt lat="47.52883284352719783782958984375" lon="11.02146380580961704254150390625">
        <ele>1825</ele>
        <time>2026-09-01T08:16:40.000Z</time>
        <extensions>
          <ns3:TrackPointExtension>
            <ns3:hr>153</ns3:hr>
            <ns3:cad>52</ns3:cad>
          </ns3:TrackPointExtension>
        </extensions>
      </trkpt>
      <trkpt lat="47.52883837558329105377197265625" lon="11.02146900258958339691162109375">
        <ele>1825.199951171875</ele>
        <time>2026-09-01T08:16:41.000Z</time>
        <extensions>
          <ns3:TrackPointExtension>
            <ns3:hr>153</ns3:hr>
            <ns3:cad>52</ns3:cad>
          </ns3:TrackPointExtension>
        </extensions>
      </trkpt>
      <trkpt lat="47.52884675748646259307861328125" lon="11.02148274891078472137451171875">
        <ele>1825.5999755859375</ele>
        <time>2026-09-01T08:16:42.000Z</time>
        <extensions>
          <ns3:TrackPointExtension>
            <ns3:hr>153</ns3:hr>
            <ns3:cad>52</ns3:cad>
          </ns3:TrackPointExtension>
        </extensions>
      </trkpt>
      <trkpt lat="47.52885648049414157867431640625" lon="11.02149934507906436920166015625">
        <ele>1826</ele>
        <time>2026-09-01T08:16:43.000Z</time>
        <extensions>
          <ns3:TrackPointExtension>
            <ns3:hr>153</ns3:hr>
            <ns3:cad>51</ns3:cad>
          </ns3:TrackPointExtension>
        </extensions>
      </trkpt>
      <trkpt lat="47.528864108026027679443359375" lon="11.0215128399431705474853515625">
        <ele>1826.4000244140625</ele>
        <time>2026-09-01T08:16:44.000Z</time>
        <extensions>
          <ns3:TrackPointExtension>
            <ns3:hr>153</ns3:hr>
            <ns3:cad>51</ns3:cad>
          </ns3:TrackPointExtension>
        </extensions>
      </trkpt>
      <trkpt lat="47.52887223847210407257080078125" lon="11.021541841328144073486328125">
        <ele>1826.4000244140625</ele>
        <time>2026-09-01T08:16:45.000Z</time>
        <extensions>
          <ns3:TrackPointExtension>
            <ns3:hr>153</ns3:hr>
            <ns3:cad>51</ns3:cad>
          </ns3:TrackPointExtension>
        </extensions>
      </trkpt>
      <trkpt lat="47.528877519071102142333984375" lon="11.02155935950577259063720703125">
        <ele>1826.5999755859375</ele>
        <time>2026-09-01T08:16:46.000Z</time>
        <extensions>
          <ns3:TrackPointExtension>
            <ns3:hr>153</ns3:hr>
            <ns3:cad>51</ns3:cad>
          </ns3:TrackPointExtension>
        </extensions>
      </trkpt>
      <trkpt lat="47.52888581715524196624755859375" lon="11.02158115245401859283447265625">
        <ele>1826.800048828125</ele>
        <time>2026-09-01T08:16:47.000Z</time>
        <extensions>
          <ns3:TrackPointExtension>
            <ns3:hr>153</ns3:hr>
            <ns3:cad>70</ns3:cad>
          </ns3:TrackPointExtension>
        </extensions>
      </trkpt>
      <trkpt lat="47.52889101393520832061767578125" lon="11.02159716188907623291015625">
        <ele>1826.800048828125</ele>
        <time>2026-09-01T08:16:48.000Z</time>
        <extensions>
          <ns3:TrackPointExtension>
            <ns3:hr>153</ns3:hr>
            <ns3:cad>70</ns3:cad>
          </ns3:TrackPointExtension>
        </extensions>
      </trkpt>
      <trkpt lat="47.52889185212552547454833984375" lon="11.02160386741161346435546875">
        <ele>1826.800048828125</ele>
        <time>2026-09-01T08:16:49.000Z</time>
        <extensions>
          <ns3:TrackPointExtension>
            <ns3:hr>153</ns3:hr>
            <ns3:cad>51</ns3:cad>
          </ns3:TrackPointExtension>
        </extensions>
      </trkpt>
      <trkpt lat="47.52889738418161869049072265625" lon="11.0216221399605274200439453125">
        <ele>1826.800048828125</ele>
        <time>2026-09-01T08:16:50.000Z</time>
        <extensions>
          <ns3:TrackPointExtension>
            <ns3:hr>153</ns3:hr>
            <ns3:cad>51</ns3:cad>
          </ns3:TrackPointExtension>
        </extensions>
      </trkpt>
      <trkpt lat="47.52889989875257015228271484375" lon="11.0216385684907436370849609375">
        <ele>1827</ele>
        <time>2026-09-01T08:16:51.000Z</time>
        <extensions>
          <ns3:TrackPointExtension>
            <ns3:hr>153</ns3:hr>
            <ns3:cad>67</ns3:cad>
          </ns3:TrackPointExtension>
        </extensions>
      </trkpt>
      <trkpt lat="47.52890107221901416778564453125" lon="11.0216560028493404388427734375">
        <ele>1827</ele>
        <time>2026-09-01T08:16:52.000Z</time>
        <extensions>
          <ns3:TrackPointExtension>
            <ns3:hr>153</ns3:hr>
            <ns3:cad>67</ns3:cad>
          </ns3:TrackPointExtension>
        </extensions>
      </trkpt>
      <trkpt lat="47.5289021618664264678955078125" lon="11.02168123237788677215576171875">
        <ele>1827</ele>
        <time>2026-09-01T08:16:53.000Z</time>
        <extensions>
          <ns3:TrackPointExtension>
            <ns3:hr>152</ns3:hr>
            <ns3:cad>0</ns3:cad>
          </ns3:TrackPointExtension>
        </extensions>
      </trkpt>
      <trkpt lat="47.5289033353328704833984375" lon="11.02170520462095737457275390625">
        <ele>1827.199951171875</ele>
        <time>2026-09-01T08:16:54.000Z</time>
        <extensions>
          <ns3:TrackPointExtension>
            <ns3:hr>152</ns3:hr>
            <ns3:cad>0</ns3:cad>
          </ns3:TrackPointExtension>
        </extensions>
      </trkpt>
      <trkpt lat="47.528904341161251068115234375" lon="11.021728925406932830810546875">
        <ele>1827.199951171875</ele>
        <time>2026-09-01T08:16:55.000Z</time>
        <extensions>
          <ns3:TrackPointExtension>
            <ns3:hr>151</ns3:hr>
            <ns3:cad>0</ns3:cad>
          </ns3:TrackPointExtension>
        </extensions>
      </trkpt>
      <trkpt lat="47.5289058499038219451904296875" lon="11.02174979634582996368408203125">
        <ele>1827.4000244140625</ele>
        <time>2026-09-01T08:16:56.000Z</time>
        <extensions>
          <ns3:TrackPointExtension>
            <ns3:hr>151</ns3:hr>
            <ns3:cad>72</ns3:cad>
          </ns3:TrackPointExtension>
        </extensions>
      </trkpt>
      <trkpt lat="47.52890693955123424530029296875" lon="11.0217743553221225738525390625">
        <ele>1827.4000244140625</ele>
        <time>2026-09-01T08:16:57.000Z</time>
        <extensions>
          <ns3:TrackPointExtension>
            <ns3:hr>151</ns3:hr>
            <ns3:cad>74</ns3:cad>
          </ns3:TrackPointExtension>
        </extensions>
      </trkpt>
      <trkpt lat="47.52890861593186855316162109375" lon="11.02179572917520999908447265625">
        <ele>1827.5999755859375</ele>
        <time>2026-09-01T08:16:58.000Z</time>
        <extensions>
          <ns3:TrackPointExtension>
            <ns3:hr>151</ns3:hr>
            <ns3:cad>74</ns3:cad>
          </ns3:TrackPointExtension>
        </extensions>
      </trkpt>
      <trkpt lat="47.52891163341701030731201171875" lon="11.0218152590095996856689453125">
        <ele>1827.5999755859375</ele>
        <time>2026-09-01T08:16:59.000Z</time>
        <extensions>
          <ns3:TrackPointExtension>
            <ns3:hr>150</ns3:hr>
            <ns3:cad>74</ns3:cad>
          </ns3:TrackPointExtension>
        </extensions>
      </trkpt>
      <trkpt lat="47.5289142318069934844970703125" lon="11.02183126844465732574462890625">
        <ele>1827.800048828125</ele>
        <time>2026-09-01T08:17:00.000Z</time>
        <extensions>
          <ns3:TrackPointExtension>
            <ns3:hr>150</ns3:hr>
            <ns3:cad>74</ns3:cad>
          </ns3:TrackPointExtension>
        </extensions>
      </trkpt>
      <trkpt lat="47.52891733311116695404052734375" lon="11.02184250019490718841552734375">
        <ele>1828</ele>
        <time>2026-09-01T08:17:01.000Z</time>
        <extensions>
          <ns3:TrackPointExtension>
            <ns3:hr>150</ns3:hr>
            <ns3:cad>74</ns3:cad>
          </ns3:TrackPointExtension>
        </extensions>
      </trkpt>
      <trkpt lat="47.52893694676458835601806640625" lon="11.02184786461293697357177734375">
        <ele>1828.4000244140625</ele>
        <time>2026-09-01T08:17:02.000Z</time>
        <extensions>
          <ns3:TrackPointExtension>
            <ns3:hr>150</ns3:hr>
            <ns3:cad>74</ns3:cad>
          </ns3:TrackPointExtension>
        </extensions>
      </trkpt>
      <trkpt lat="47.52894465811550617218017578125" lon="11.02185775525867938995361328125">
        <ele>1828.5999755859375</ele>
        <time>2026-09-01T08:17:03.000Z</time>
        <extensions>
          <ns3:TrackPointExtension>
            <ns3:hr>150</ns3:hr>
            <ns3:cad>72</ns3:cad>
          </ns3:TrackPointExtension>
        </extensions>
      </trkpt>
      <trkpt lat="47.52895337529480457305908203125" lon="11.02186731062829494476318359375">
        <ele>1829</ele>
        <time>2026-09-01T08:17:04.000Z</time>
        <extensions>
          <ns3:TrackPointExtension>
            <ns3:hr>150</ns3:hr>
            <ns3:cad>72</ns3:cad>
          </ns3:TrackPointExtension>
        </extensions>
      </trkpt>
      <trkpt lat="47.52895873971283435821533203125" lon="11.02187720127403736114501953125">
        <ele>1829.199951171875</ele>
        <time>2026-09-01T08:17:05.000Z</time>
        <extensions>
          <ns3:TrackPointExtension>
            <ns3:hr>150</ns3:hr>
            <ns3:cad>0</ns3:cad>
          </ns3:TrackPointExtension>
        </extensions>
      </trkpt>
      <trkpt lat="47.52896376885473728179931640625" lon="11.02188776247203350067138671875">
        <ele>1829.4000244140625</ele>
        <time>2026-09-01T08:17:06.000Z</time>
        <extensions>
          <ns3:TrackPointExtension>
            <ns3:hr>150</ns3:hr>
            <ns3:cad>0</ns3:cad>
          </ns3:TrackPointExtension>
        </extensions>
      </trkpt>
      <trkpt lat="47.52896611578762531280517578125" lon="11.021902598440647125244140625">
        <ele>1829.5999755859375</ele>
        <time>2026-09-01T08:17:07.000Z</time>
        <extensions>
          <ns3:TrackPointExtension>
            <ns3:hr>151</ns3:hr>
            <ns3:cad>47</ns3:cad>
          </ns3:TrackPointExtension>
        </extensions>
      </trkpt>
      <trkpt lat="47.528973408043384552001953125" lon="11.02191257290542125701904296875">
        <ele>1829.5999755859375</ele>
        <time>2026-09-01T08:17:08.000Z</time>
        <extensions>
          <ns3:TrackPointExtension>
            <ns3:hr>152</ns3:hr>
            <ns3:cad>48</ns3:cad>
          </ns3:TrackPointExtension>
        </extensions>
      </trkpt>
      <trkpt lat="47.52897106111049652099609375" lon="11.02193377912044525146484375">
        <ele>1829.5999755859375</ele>
        <time>2026-09-01T08:17:09.000Z</time>
        <extensions>
          <ns3:TrackPointExtension>
            <ns3:hr>155</ns3:hr>
            <ns3:cad>48</ns3:cad>
          </ns3:TrackPointExtension>
        </extensions>
      </trkpt>
      <trkpt lat="47.5289705581963062286376953125" lon="11.0219560749828815460205078125">
        <ele>1829.800048828125</ele>
        <time>2026-09-01T08:17:10.000Z</time>
        <extensions>
          <ns3:TrackPointExtension>
            <ns3:hr>160</ns3:hr>
            <ns3:cad>0</ns3:cad>
          </ns3:TrackPointExtension>
        </extensions>
      </trkpt>
      <trkpt lat="47.52897483296692371368408203125" lon="11.0219733417034149169921875">
        <ele>1829.800048828125</ele>
        <time>2026-09-01T08:17:11.000Z</time>
        <extensions>
          <ns3:TrackPointExtension>
            <ns3:hr>161</ns3:hr>
            <ns3:cad>0</ns3:cad>
          </ns3:TrackPointExtension>
        </extensions>
      </trkpt>
      <trkpt lat="47.52897785045206546783447265625" lon="11.02199454791843891143798828125">
        <ele>1830</ele>
        <time>2026-09-01T08:17:12.000Z</time>
        <extensions>
          <ns3:TrackPointExtension>
            <ns3:hr>161</ns3:hr>
            <ns3:cad>0</ns3:cad>
          </ns3:TrackPointExtension>
        </extensions>
      </trkpt>
      <trkpt lat="47.52898170612752437591552734375" lon="11.0220177657902240753173828125">
        <ele>1830</ele>
        <time>2026-09-01T08:17:13.000Z</time>
        <extensions>
          <ns3:TrackPointExtension>
            <ns3:hr>161</ns3:hr>
            <ns3:cad>0</ns3:cad>
          </ns3:TrackPointExtension>
        </extensions>
      </trkpt>
      <trkpt lat="47.52898774109780788421630859375" lon="11.02204031310975551605224609375">
        <ele>1830.199951171875</ele>
        <time>2026-09-01T08:17:14.000Z</time>
        <extensions>
          <ns3:TrackPointExtension>
            <ns3:hr>160</ns3:hr>
            <ns3:cad>0</ns3:cad>
          </ns3:TrackPointExtension>
        </extensions>
      </trkpt>
      <trkpt lat="47.52899545244872570037841796875" lon="11.02206654846668243408203125">
        <ele>1830.199951171875</ele>
        <time>2026-09-01T08:17:15.000Z</time>
        <extensions>
          <ns3:TrackPointExtension>
            <ns3:hr>160</ns3:hr>
            <ns3:cad>0</ns3:cad>
          </ns3:TrackPointExtension>
        </extensions>
      </trkpt>
      <trkpt lat="47.52900048159062862396240234375" lon="11.02208909578621387481689453125">
        <ele>1830.4000244140625</ele>
        <time>2026-09-01T08:17:16.000Z</time>
        <extensions>
          <ns3:TrackPointExtension>
            <ns3:hr>159</ns3:hr>
            <ns3:cad>0</ns3:cad>
          </ns3:TrackPointExtension>
        </extensions>
      </trkpt>
      <trkpt lat="47.52900282852351665496826171875" lon="11.02210946381092071533203125">
        <ele>1830.4000244140625</ele>
        <time>2026-09-01T08:17:17.000Z</time>
        <extensions>
          <ns3:TrackPointExtension>
            <ns3:hr>160</ns3:hr>
            <ns3:cad>0</ns3:cad>
          </ns3:TrackPointExtension>
        </extensions>
      </trkpt>
      <trkpt lat="47.529002912342548370361328125" lon="11.02213494479656219482421875">
        <ele>1830.5999755859375</ele>
        <time>2026-09-01T08:17:18.000Z</time>
        <extensions>
          <ns3:TrackPointExtension>
            <ns3:hr>160</ns3:hr>
            <ns3:cad>0</ns3:cad>
          </ns3:TrackPointExtension>
        </extensions>
      </trkpt>
      <trkpt lat="47.5290027447044849395751953125" lon="11.02214558981359004974365234375">
        <ele>1830.800048828125</ele>
        <time>2026-09-01T08:17:19.000Z</time>
        <extensions>
          <ns3:TrackPointExtension>
            <ns3:hr>160</ns3:hr>
            <ns3:cad>0</ns3:cad>
          </ns3:TrackPointExtension>
        </extensions>
      </trkpt>
      <trkpt lat="47.52900634892284870147705078125" lon="11.022163443267345428466796875">
        <ele>1831</ele>
        <time>2026-09-01T08:17:20.000Z</time>
        <extensions>
          <ns3:TrackPointExtension>
            <ns3:hr>161</ns3:hr>
            <ns3:cad>0</ns3:cad>
          </ns3:TrackPointExtension>
        </extensions>
      </trkpt>
      <trkpt lat="47.5290104560554027557373046875" lon="11.02218230254948139190673828125">
        <ele>1831.199951171875</ele>
        <time>2026-09-01T08:17:21.000Z</time>
        <extensions>
          <ns3:TrackPointExtension>
            <ns3:hr>162</ns3:hr>
            <ns3:cad>0</ns3:cad>
          </ns3:TrackPointExtension>
        </extensions>
      </trkpt>
      <trkpt lat="47.52901338972151279449462890625" lon="11.02219873107969760894775390625">
        <ele>1831.199951171875</ele>
        <time>2026-09-01T08:17:22.000Z</time>
        <extensions>
          <ns3:TrackPointExtension>
            <ns3:hr>162</ns3:hr>
            <ns3:cad>0</ns3:cad>
          </ns3:TrackPointExtension>
        </extensions>
      </trkpt>
      <trkpt lat="47.52900651656091213226318359375" lon="11.02221230976283550262451171875">
        <ele>1831.199951171875</ele>
        <time>2026-09-01T08:17:23.000Z</time>
        <extensions>
          <ns3:TrackPointExtension>
            <ns3:hr>163</ns3:hr>
            <ns3:cad>0</ns3:cad>
          </ns3:TrackPointExtension>
        </extensions>
      </trkpt>
      <trkpt lat="47.528998889029026031494140625" lon="11.02222144603729248046875">
        <ele>1831.4000244140625</ele>
        <time>2026-09-01T08:17:24.000Z</time>
        <extensions>
          <ns3:TrackPointExtension>
            <ns3:hr>163</ns3:hr>
            <ns3:cad>0</ns3:cad>
          </ns3:TrackPointExtension>
        </extensions>
      </trkpt>
      <trkpt lat="47.5289946980774402618408203125" lon="11.02223712019622325897216796875">
        <ele>1831.4000244140625</ele>
        <time>2026-09-01T08:17:25.000Z</time>
        <extensions>
          <ns3:TrackPointExtension>
            <ns3:hr>163</ns3:hr>
            <ns3:cad>0</ns3:cad>
          </ns3:TrackPointExtension>
        </extensions>
      </trkpt>
      <trkpt lat="47.52899360843002796173095703125" lon="11.02225773967802524566650390625">
        <ele>1831.4000244140625</ele>
        <time>2026-09-01T08:17:26.000Z</time>
        <extensions>
          <ns3:TrackPointExtension>
            <ns3:hr>162</ns3:hr>
            <ns3:cad>0</ns3:cad>
          </ns3:TrackPointExtension>
        </extensions>
      </trkpt>
      <trkpt lat="47.52899612300097942352294921875" lon="11.0222725756466388702392578125">
        <ele>1831.199951171875</ele>
        <time>2026-09-01T08:17:27.000Z</time>
        <extensions>
          <ns3:TrackPointExtension>
            <ns3:hr>162</ns3:hr>
            <ns3:cad>65</ns3:cad>
          </ns3:TrackPointExtension>
        </extensions>
      </trkpt>
      <trkpt lat="47.5289953686296939849853515625" lon="11.022294200956821441650390625">
        <ele>1831.199951171875</ele>
        <time>2026-09-01T08:17:28.000Z</time>
        <extensions>
          <ns3:TrackPointExtension>
            <ns3:hr>162</ns3:hr>
            <ns3:cad>65</ns3:cad>
          </ns3:TrackPointExtension>
        </extensions>
      </trkpt>
      <trkpt lat="47.52899545244872570037841796875" lon="11.02231322787702083587646484375">
        <ele>1831.199951171875</ele>
        <time>2026-09-01T08:17:29.000Z</time>
        <extensions>
          <ns3:TrackPointExtension>
            <ns3:hr>161</ns3:hr>
            <ns3:cad>0</ns3:cad>
          </ns3:TrackPointExtension>
        </extensions>
      </trkpt>
      <trkpt lat="47.5289950333535671234130859375" lon="11.0223292373120784759521484375">
        <ele>1831.199951171875</ele>
        <time>2026-09-01T08:17:30.000Z</time>
        <extensions>
          <ns3:TrackPointExtension>
            <ns3:hr>161</ns3:hr>
            <ns3:cad>0</ns3:cad>
          </ns3:TrackPointExtension>
        </extensions>
      </trkpt>
      <trkpt lat="47.52899528481066226959228515625" lon="11.02234658785164356231689453125">
        <ele>1831.199951171875</ele>
        <time>2026-09-01T08:17:31.000Z</time>
        <extensions>
          <ns3:TrackPointExtension>
            <ns3:hr>161</ns3:hr>
            <ns3:cad>0</ns3:cad>
          </ns3:TrackPointExtension>
        </extensions>
      </trkpt>
      <trkpt lat="47.5289987213909626007080078125" lon="11.02236553095281124114990234375">
        <ele>1831.199951171875</ele>
        <time>2026-09-01T08:17:32.000Z</time>
        <extensions>
          <ns3:TrackPointExtension>
            <ns3:hr>161</ns3:hr>
            <ns3:cad>62</ns3:cad>
          </ns3:TrackPointExtension>
        </extensions>
      </trkpt>
      <trkpt lat="47.5290020741522312164306640625" lon="11.02238615043461322784423828125">
        <ele>1831.199951171875</ele>
        <time>2026-09-01T08:17:33.000Z</time>
        <extensions>
          <ns3:TrackPointExtension>
            <ns3:hr>160</ns3:hr>
            <ns3:cad>62</ns3:cad>
          </ns3:TrackPointExtension>
        </extensions>
      </trkpt>
      <trkpt lat="47.52900618128478527069091796875" lon="11.022408865392208099365234375">
        <ele>1831.199951171875</ele>
        <time>2026-09-01T08:17:34.000Z</time>
        <extensions>
          <ns3:TrackPointExtension>
            <ns3:hr>160</ns3:hr>
            <ns3:cad>52</ns3:cad>
          </ns3:TrackPointExtension>
        </extensions>
      </trkpt>
      <trkpt lat="47.52901263535022735595703125" lon="11.02244147099554538726806640625">
        <ele>1831.199951171875</ele>
        <time>2026-09-01T08:17:35.000Z</time>
        <extensions>
          <ns3:TrackPointExtension>
            <ns3:hr>160</ns3:hr>
            <ns3:cad>52</ns3:cad>
          </ns3:TrackPointExtension>
        </extensions>
      </trkpt>
      <trkpt lat="47.5290174968540668487548828125" lon="11.02246594615280628204345703125">
        <ele>1831</ele>
        <time>2026-09-01T08:17:36.000Z</time>
        <extensions>
          <ns3:TrackPointExtension>
            <ns3:hr>160</ns3:hr>
            <ns3:cad>52</ns3:cad>
          </ns3:TrackPointExtension>
        </extensions>
      </trkpt>
      <trkpt lat="47.5290228612720966339111328125" lon="11.0224908404052257537841796875">
        <ele>1831.199951171875</ele>
        <time>2026-09-01T08:17:37.000Z</time>
        <extensions>
          <ns3:TrackPointExtension>
            <ns3:hr>159</ns3:hr>
            <ns3:cad>52</ns3:cad>
          </ns3:TrackPointExtension>
        </extensions>
      </trkpt>
      <trkpt lat="47.52902830950915813446044921875" lon="11.02251984179019927978515625">
        <ele>1831.4000244140625</ele>
        <time>2026-09-01T08:17:38.000Z</time>
        <extensions>
          <ns3:TrackPointExtension>
            <ns3:hr>159</ns3:hr>
            <ns3:cad>76</ns3:cad>
          </ns3:TrackPointExtension>
        </extensions>
      </trkpt>
      <trkpt lat="47.52903384156525135040283203125" lon="11.022553034126758575439453125">
        <ele>1831.5999755859375</ele>
        <time>2026-09-01T08:17:39.000Z</time>
        <extensions>
          <ns3:TrackPointExtension>
            <ns3:hr>159</ns3:hr>
            <ns3:cad>76</ns3:cad>
          </ns3:TrackPointExtension>
        </extensions>
      </trkpt>
      <trkpt lat="47.52903836779296398162841796875" lon="11.02258614264428615570068359375">
        <ele>1831.800048828125</ele>
        <time>2026-09-01T08:17:40.000Z</time>
        <extensions>
          <ns3:TrackPointExtension>
            <ns3:hr>158</ns3:hr>
            <ns3:cad>76</ns3:cad>
          </ns3:TrackPointExtension>
        </extensions>
      </trkpt>
      <trkpt lat="47.5290379486978054046630859375" lon="11.0226105339825153350830078125">
        <ele>1831.800048828125</ele>
        <time>2026-09-01T08:17:41.000Z</time>
        <extensions>
          <ns3:TrackPointExtension>
            <ns3:hr>158</ns3:hr>
            <ns3:cad>76</ns3:cad>
          </ns3:TrackPointExtension>
        </extensions>
      </trkpt>
      <trkpt lat="47.5290419720113277435302734375" lon="11.02265872992575168609619140625">
        <ele>1831.800048828125</ele>
        <time>2026-09-01T08:17:42.000Z</time>
        <extensions>
          <ns3:TrackPointExtension>
            <ns3:hr>158</ns3:hr>
            <ns3:cad>76</ns3:cad>
          </ns3:TrackPointExtension>
        </extensions>
      </trkpt>
      <trkpt lat="47.52904373221099376678466796875" lon="11.02269644849002361297607421875">
        <ele>1831.800048828125</ele>
        <time>2026-09-01T08:17:43.000Z</time>
        <extensions>
          <ns3:TrackPointExtension>
            <ns3:hr>159</ns3:hr>
            <ns3:cad>76</ns3:cad>
          </ns3:TrackPointExtension>
        </extensions>
      </trkpt>
      <trkpt lat="47.52904775552451610565185546875" lon="11.02272209711372852325439453125">
        <ele>1832</ele>
        <time>2026-09-01T08:17:44.000Z</time>
        <extensions>
          <ns3:TrackPointExtension>
            <ns3:hr>158</ns3:hr>
            <ns3:cad>76</ns3:cad>
          </ns3:TrackPointExtension>
        </extensions>
      </trkpt>
      <trkpt lat="47.529060579836368560791015625" lon="11.02275243960320949554443359375">
        <ele>1832.199951171875</ele>
        <time>2026-09-01T08:17:45.000Z</time>
        <extensions>
          <ns3:TrackPointExtension>
            <ns3:hr>158</ns3:hr>
            <ns3:cad>78</ns3:cad>
          </ns3:TrackPointExtension>
        </extensions>
      </trkpt>
      <trkpt lat="47.52906468696892261505126953125" lon="11.02278814651072025299072265625">
        <ele>1832.4000244140625</ele>
        <time>2026-09-01T08:17:46.000Z</time>
        <extensions>
          <ns3:TrackPointExtension>
            <ns3:hr>158</ns3:hr>
            <ns3:cad>78</ns3:cad>
          </ns3:TrackPointExtension>
        </extensions>
      </trkpt>
      <trkpt lat="47.5290667824447154998779296875" lon="11.0228153876960277557373046875">
        <ele>1832.5999755859375</ele>
        <time>2026-09-01T08:17:47.000Z</time>
        <extensions>
          <ns3:TrackPointExtension>
            <ns3:hr>159</ns3:hr>
            <ns3:cad>78</ns3:cad>
          </ns3:TrackPointExtension>
        </extensions>
      </trkpt>
      <trkpt lat="47.52906703390181064605712890625" lon="11.02284229360520839691162109375">
        <ele>1832.800048828125</ele>
        <time>2026-09-01T08:17:48.000Z</time>
        <extensions>
          <ns3:TrackPointExtension>
            <ns3:hr>159</ns3:hr>
            <ns3:cad>77</ns3:cad>
          </ns3:TrackPointExtension>
        </extensions>
      </trkpt>
      <trkpt lat="47.52906653098762035369873046875" lon="11.02289132773876190185546875">
        <ele>1832.800048828125</ele>
        <time>2026-09-01T08:17:49.000Z</time>
        <extensions>
          <ns3:TrackPointExtension>
            <ns3:hr>159</ns3:hr>
            <ns3:cad>77</ns3:cad>
          </ns3:TrackPointExtension>
        </extensions>
      </trkpt>
      <trkpt lat="47.52907390706241130828857421875" lon="11.0229256935417652130126953125">
        <ele>1832.800048828125</ele>
        <time>2026-09-01T08:17:50.000Z</time>
        <extensions>
          <ns3:TrackPointExtension>
            <ns3:hr>159</ns3:hr>
            <ns3:cad>78</ns3:cad>
          </ns3:TrackPointExtension>
        </extensions>
      </trkpt>
      <trkpt lat="47.52907776273787021636962890625" lon="11.0229528509080410003662109375">
        <ele>1833</ele>
        <time>2026-09-01T08:17:51.000Z</time>
        <extensions>
          <ns3:TrackPointExtension>
            <ns3:hr>158</ns3:hr>
            <ns3:cad>78</ns3:cad>
          </ns3:TrackPointExtension>
        </extensions>
      </trkpt>
      <trkpt lat="47.52907960675656795501708984375" lon="11.02297313511371612548828125">
        <ele>1833</ele>
        <time>2026-09-01T08:17:52.000Z</time>
        <extensions>
          <ns3:TrackPointExtension>
            <ns3:hr>159</ns3:hr>
            <ns3:cad>78</ns3:cad>
          </ns3:TrackPointExtension>
        </extensions>
      </trkpt>
      <trkpt lat="47.52908010967075824737548828125" lon="11.0230098478496074676513671875">
        <ele>1833</ele>
        <time>2026-09-01T08:17:53.000Z</time>
        <extensions>
          <ns3:TrackPointExtension>
            <ns3:hr>159</ns3:hr>
            <ns3:cad>78</ns3:cad>
          </ns3:TrackPointExtension>
        </extensions>
      </trkpt>
      <trkpt lat="47.52908346243202686309814453125" lon="11.0230433754622936248779296875">
        <ele>1833.199951171875</ele>
        <time>2026-09-01T08:17:54.000Z</time>
        <extensions>
          <ns3:TrackPointExtension>
            <ns3:hr>160</ns3:hr>
            <ns3:cad>78</ns3:cad>
          </ns3:TrackPointExtension>
        </extensions>
      </trkpt>
      <trkpt lat="47.5290848873555660247802734375" lon="11.02306743152439594268798828125">
        <ele>1833.4000244140625</ele>
        <time>2026-09-01T08:17:55.000Z</time>
        <extensions>
          <ns3:TrackPointExtension>
            <ns3:hr>160</ns3:hr>
            <ns3:cad>76</ns3:cad>
          </ns3:TrackPointExtension>
        </extensions>
      </trkpt>
      <trkpt lat="47.5290852226316928863525390625" lon="11.02310515008866786956787109375">
        <ele>1833.4000244140625</ele>
        <time>2026-09-01T08:17:56.000Z</time>
        <extensions>
          <ns3:TrackPointExtension>
            <ns3:hr>160</ns3:hr>
            <ns3:cad>76</ns3:cad>
          </ns3:TrackPointExtension>
        </extensions>
      </trkpt>
      <trkpt lat="47.529082037508487701416015625" lon="11.023149825632572174072265625">
        <ele>1833.5999755859375</ele>
        <time>2026-09-01T08:17:57.000Z</time>
        <extensions>
          <ns3:TrackPointExtension>
            <ns3:hr>160</ns3:hr>
            <ns3:cad>76</ns3:cad>
          </ns3:TrackPointExtension>
        </extensions>
      </trkpt>
      <trkpt lat="47.52907793037593364715576171875" lon="11.02318041957914829254150390625">
        <ele>1833.800048828125</ele>
        <time>2026-09-01T08:17:58.000Z</time>
        <extensions>
          <ns3:TrackPointExtension>
            <ns3:hr>159</ns3:hr>
            <ns3:cad>76</ns3:cad>
          </ns3:TrackPointExtension>
        </extensions>
      </trkpt>
      <trkpt lat="47.52907508052885532379150390625" lon="11.02321721613407135009765625">
        <ele>1833.800048828125</ele>
        <time>2026-09-01T08:17:59.000Z</time>
        <extensions>
          <ns3:TrackPointExtension>
            <ns3:hr>160</ns3:hr>
            <ns3:cad>77</ns3:cad>
          </ns3:TrackPointExtension>
        </extensions>
      </trkpt>
      <trkpt lat="47.5290830433368682861328125" lon="11.02325786836445331573486328125">
        <ele>1834</ele>
        <time>2026-09-01T08:18:00.000Z</time>
        <extensions>
          <ns3:TrackPointExtension>
            <ns3:hr>160</ns3:hr>
            <ns3:cad>77</ns3:cad>
          </ns3:TrackPointExtension>
        </extensions>
      </trkpt>
      <trkpt lat="47.5290857255458831787109375" lon="11.02328318171203136444091796875">
        <ele>1834</ele>
        <time>2026-09-01T08:18:01.000Z</time>
        <extensions>
          <ns3:TrackPointExtension>
            <ns3:hr>160</ns3:hr>
            <ns3:cad>78</ns3:cad>
          </ns3:TrackPointExtension>
        </extensions>
      </trkpt>
      <trkpt lat="47.52909050323069095611572265625" lon="11.02330631576478481292724609375">
        <ele>1834</ele>
        <time>2026-09-01T08:18:02.000Z</time>
        <extensions>
          <ns3:TrackPointExtension>
            <ns3:hr>160</ns3:hr>
            <ns3:cad>79</ns3:cad>
          </ns3:TrackPointExtension>
        </extensions>
      </trkpt>
      <trkpt lat="47.5290956161916255950927734375" lon="11.02332592941820621490478515625">
        <ele>1834.199951171875</ele>
        <time>2026-09-01T08:18:03.000Z</time>
        <extensions>
          <ns3:TrackPointExtension>
            <ns3:hr>160</ns3:hr>
            <ns3:cad>79</ns3:cad>
          </ns3:TrackPointExtension>
        </extensions>
      </trkpt>
      <trkpt lat="47.52909620292484760284423828125" lon="11.023335568606853485107421875">
        <ele>1834.5999755859375</ele>
        <time>2026-09-01T08:18:04.000Z</time>
        <extensions>
          <ns3:TrackPointExtension>
            <ns3:hr>161</ns3:hr>
            <ns3:cad>79</ns3:cad>
          </ns3:TrackPointExtension>
        </extensions>
      </trkpt>
      <trkpt lat="47.52910307608544826507568359375" lon="11.02335861884057521820068359375">
        <ele>1834.5999755859375</ele>
        <time>2026-09-01T08:18:05.000Z</time>
        <extensions>
          <ns3:TrackPointExtension>
            <ns3:hr>161</ns3:hr>
            <ns3:cad>79</ns3:cad>
          </ns3:TrackPointExtension>
        </extensions>
      </trkpt>
      <trkpt lat="47.5291073508560657501220703125" lon="11.02337018586695194244384765625">
        <ele>1834.800048828125</ele>
        <time>2026-09-01T08:18:06.000Z</time>
        <extensions>
          <ns3:TrackPointExtension>
            <ns3:hr>162</ns3:hr>
            <ns3:cad>79</ns3:cad>
          </ns3:TrackPointExtension>
        </extensions>
      </trkpt>
      <trkpt lat="47.52911078743636608123779296875" lon="11.0233870334923267364501953125">
        <ele>1835</ele>
        <time>2026-09-01T08:18:07.000Z</time>
        <extensions>
          <ns3:TrackPointExtension>
            <ns3:hr>163</ns3:hr>
            <ns3:cad>79</ns3:cad>
          </ns3:TrackPointExtension>
        </extensions>
      </trkpt>
      <trkpt lat="47.5291123799979686737060546875" lon="11.02340857498347759246826171875">
        <ele>1835</ele>
        <time>2026-09-01T08:18:08.000Z</time>
        <extensions>
          <ns3:TrackPointExtension>
            <ns3:hr>164</ns3:hr>
            <ns3:cad>79</ns3:cad>
          </ns3:TrackPointExtension>
        </extensions>
      </trkpt>
      <trkpt lat="47.5291137211024761199951171875" lon="11.0234376601874828338623046875">
        <ele>1835.199951171875</ele>
        <time>2026-09-01T08:18:09.000Z</time>
        <extensions>
          <ns3:TrackPointExtension>
            <ns3:hr>165</ns3:hr>
            <ns3:cad>79</ns3:cad>
          </ns3:TrackPointExtension>
        </extensions>
      </trkpt>
      <trkpt lat="47.52911665476858615875244140625" lon="11.0234701819717884063720703125">
        <ele>1835.199951171875</ele>
        <time>2026-09-01T08:18:10.000Z</time>
        <extensions>
          <ns3:TrackPointExtension>
            <ns3:hr>165</ns3:hr>
            <ns3:cad>0</ns3:cad>
          </ns3:TrackPointExtension>
        </extensions>
      </trkpt>
      <trkpt lat="47.52911631949245929718017578125" lon="11.0234923101961612701416015625">
        <ele>1835.4000244140625</ele>
        <time>2026-09-01T08:18:11.000Z</time>
        <extensions>
          <ns3:TrackPointExtension>
            <ns3:hr>165</ns3:hr>
            <ns3:cad>0</ns3:cad>
          </ns3:TrackPointExtension>
        </extensions>
      </trkpt>
      <trkpt lat="47.52911967225372791290283203125" lon="11.0235156118869781494140625">
        <ele>1835.5999755859375</ele>
        <time>2026-09-01T08:18:12.000Z</time>
        <extensions>
          <ns3:TrackPointExtension>
            <ns3:hr>164</ns3:hr>
            <ns3:cad>0</ns3:cad>
          </ns3:TrackPointExtension>
        </extensions>
      </trkpt>
      <trkpt lat="47.52912989817559719085693359375" lon="11.02354578673839569091796875">
        <ele>1835.800048828125</ele>
        <time>2026-09-01T08:18:13.000Z</time>
        <extensions>
          <ns3:TrackPointExtension>
            <ns3:hr>164</ns3:hr>
            <ns3:cad>0</ns3:cad>
          </ns3:TrackPointExtension>
        </extensions>
      </trkpt>
      <trkpt lat="47.52913475967943668365478515625" lon="11.0235674120485782623291015625">
        <ele>1836</ele>
        <time>2026-09-01T08:18:14.000Z</time>
        <extensions>
          <ns3:TrackPointExtension>
            <ns3:hr>163</ns3:hr>
            <ns3:cad>0</ns3:cad>
          </ns3:TrackPointExtension>
        </extensions>
      </trkpt>
      <trkpt lat="47.52914230339229106903076171875" lon="11.0235933959484100341796875">
        <ele>1836.199951171875</ele>
        <time>2026-09-01T08:18:15.000Z</time>
        <extensions>
          <ns3:TrackPointExtension>
            <ns3:hr>162</ns3:hr>
            <ns3:cad>0</ns3:cad>
          </ns3:TrackPointExtension>
        </extensions>
      </trkpt>
      <trkpt lat="47.529149092733860015869140625" lon="11.02361175231635570526123046875">
        <ele>1836.199951171875</ele>
        <time>2026-09-01T08:18:16.000Z</time>
        <extensions>
          <ns3:TrackPointExtension>
            <ns3:hr>161</ns3:hr>
            <ns3:cad>52</ns3:cad>
          </ns3:TrackPointExtension>
        </extensions>
      </trkpt>
      <trkpt lat="47.5291546247899532318115234375" lon="11.023625917732715606689453125">
        <ele>1836.4000244140625</ele>
        <time>2026-09-01T08:18:17.000Z</time>
        <extensions>
          <ns3:TrackPointExtension>
            <ns3:hr>161</ns3:hr>
            <ns3:cad>52</ns3:cad>
          </ns3:TrackPointExtension>
        </extensions>
      </trkpt>
      <trkpt lat="47.52915856428444385528564453125" lon="11.023635305464267730712890625">
        <ele>1836.4000244140625</ele>
        <time>2026-09-01T08:18:18.000Z</time>
        <extensions>
          <ns3:TrackPointExtension>
            <ns3:hr>160</ns3:hr>
            <ns3:cad>52</ns3:cad>
          </ns3:TrackPointExtension>
        </extensions>
      </trkpt>
      <trkpt lat="47.52916225232183933258056640625" lon="11.023651063442230224609375">
        <ele>1836.5999755859375</ele>
        <time>2026-09-01T08:18:19.000Z</time>
        <extensions>
          <ns3:TrackPointExtension>
            <ns3:hr>160</ns3:hr>
            <ns3:cad>52</ns3:cad>
          </ns3:TrackPointExtension>
        </extensions>
      </trkpt>
      <trkpt lat="47.5291661918163299560546875" lon="11.02366472594439983367919921875">
        <ele>1836.800048828125</ele>
        <time>2026-09-01T08:18:20.000Z</time>
        <extensions>
          <ns3:TrackPointExtension>
            <ns3:hr>161</ns3:hr>
            <ns3:cad>52</ns3:cad>
          </ns3:TrackPointExtension>
        </extensions>
      </trkpt>
      <trkpt lat="47.5291740708053112030029296875" lon="11.02368802763521671295166015625">
        <ele>1837</ele>
        <time>2026-09-01T08:18:21.000Z</time>
        <extensions>
          <ns3:TrackPointExtension>
            <ns3:hr>161</ns3:hr>
            <ns3:cad>52</ns3:cad>
          </ns3:TrackPointExtension>
        </extensions>
      </trkpt>
      <trkpt lat="47.52918002195656299591064453125" lon="11.02370143868029117584228515625">
        <ele>1837.4000244140625</ele>
        <time>2026-09-01T08:18:22.000Z</time>
        <extensions>
          <ns3:TrackPointExtension>
            <ns3:hr>161</ns3:hr>
            <ns3:cad>52</ns3:cad>
          </ns3:TrackPointExtension>
        </extensions>
      </trkpt>
      <trkpt lat="47.52918387763202190399169921875" lon="11.02371610701084136962890625">
        <ele>1837.5999755859375</ele>
        <time>2026-09-01T08:18:23.000Z</time>
        <extensions>
          <ns3:TrackPointExtension>
            <ns3:hr>161</ns3:hr>
            <ns3:cad>52</ns3:cad>
          </ns3:TrackPointExtension>
        </extensions>
      </trkpt>
      <trkpt lat="47.52918655984103679656982421875" lon="11.02373421192169189453125">
        <ele>1837.800048828125</ele>
        <time>2026-09-01T08:18:24.000Z</time>
        <extensions>
          <ns3:TrackPointExtension>
            <ns3:hr>161</ns3:hr>
            <ns3:cad>0</ns3:cad>
          </ns3:TrackPointExtension>
        </extensions>
      </trkpt>
      <trkpt lat="47.52919225953519344329833984375" lon="11.02376329712569713592529296875">
        <ele>1838</ele>
        <time>2026-09-01T08:18:25.000Z</time>
        <extensions>
          <ns3:TrackPointExtension>
            <ns3:hr>161</ns3:hr>
            <ns3:cad>0</ns3:cad>
          </ns3:TrackPointExtension>
        </extensions>
      </trkpt>
      <trkpt lat="47.52919770777225494384765625" lon="11.023794226348400115966796875">
        <ele>1838.199951171875</ele>
        <time>2026-09-01T08:18:26.000Z</time>
        <extensions>
          <ns3:TrackPointExtension>
            <ns3:hr>161</ns3:hr>
            <ns3:cad>0</ns3:cad>
          </ns3:TrackPointExtension>
        </extensions>
      </trkpt>
      <trkpt lat="47.5291995517909526824951171875" lon="11.0238215513527393341064453125">
        <ele>1838.4000244140625</ele>
        <time>2026-09-01T08:18:27.000Z</time>
        <extensions>
          <ns3:TrackPointExtension>
            <ns3:hr>160</ns3:hr>
            <ns3:cad>0</ns3:cad>
          </ns3:TrackPointExtension>
        </extensions>
      </trkpt>
      <trkpt lat="47.52920231781899929046630859375" lon="11.0238535702228546142578125">
        <ele>1838.800048828125</ele>
        <time>2026-09-01T08:18:28.000Z</time>
        <extensions>
          <ns3:TrackPointExtension>
            <ns3:hr>160</ns3:hr>
            <ns3:cad>0</ns3:cad>
          </ns3:TrackPointExtension>
        </extensions>
      </trkpt>
      <trkpt lat="47.52920265309512615203857421875" lon="11.02388198487460613250732421875">
        <ele>1839</ele>
        <time>2026-09-01T08:18:29.000Z</time>
        <extensions>
          <ns3:TrackPointExtension>
            <ns3:hr>160</ns3:hr>
            <ns3:cad>80</ns3:cad>
          </ns3:TrackPointExtension>
        </extensions>
      </trkpt>
      <trkpt lat="47.529204078018665313720703125" lon="11.02390880696475505828857421875">
        <ele>1839.4000244140625</ele>
        <time>2026-09-01T08:18:30.000Z</time>
        <extensions>
          <ns3:TrackPointExtension>
            <ns3:hr>160</ns3:hr>
            <ns3:cad>80</ns3:cad>
          </ns3:TrackPointExtension>
        </extensions>
      </trkpt>
      <trkpt lat="47.52920248545706272125244140625" lon="11.0239425860345363616943359375">
        <ele>1839.4000244140625</ele>
        <time>2026-09-01T08:18:31.000Z</time>
        <extensions>
          <ns3:TrackPointExtension>
            <ns3:hr>160</ns3:hr>
            <ns3:cad>80</ns3:cad>
          </ns3:TrackPointExtension>
        </extensions>
      </trkpt>
      <trkpt lat="47.52919846214354038238525390625" lon="11.02397083304822444915771484375">
        <ele>1839.5999755859375</ele>
        <time>2026-09-01T08:18:32.000Z</time>
        <extensions>
          <ns3:TrackPointExtension>
            <ns3:hr>160</ns3:hr>
            <ns3:cad>77</ns3:cad>
          </ns3:TrackPointExtension>
        </extensions>
      </trkpt>
      <trkpt lat="47.52919293008744716644287109375" lon="11.0240019299089908599853515625">
        <ele>1839.5999755859375</ele>
        <time>2026-09-01T08:18:33.000Z</time>
        <extensions>
          <ns3:TrackPointExtension>
            <ns3:hr>160</ns3:hr>
            <ns3:cad>77</ns3:cad>
          </ns3:TrackPointExtension>
        </extensions>
      </trkpt>
      <trkpt lat="47.5291904993355274200439453125" lon="11.0240223817527294158935546875">
        <ele>1839.4000244140625</ele>
        <time>2026-09-01T08:18:34.000Z</time>
        <extensions>
          <ns3:TrackPointExtension>
            <ns3:hr>160</ns3:hr>
            <ns3:cad>76</ns3:cad>
          </ns3:TrackPointExtension>
        </extensions>
      </trkpt>
      <trkpt lat="47.529192678630352020263671875" lon="11.02405750192701816558837890625">
        <ele>1839.4000244140625</ele>
        <time>2026-09-01T08:18:35.000Z</time>
        <extensions>
          <ns3:TrackPointExtension>
            <ns3:hr>161</ns3:hr>
            <ns3:cad>76</ns3:cad>
          </ns3:TrackPointExtension>
        </extensions>
      </trkpt>
      <trkpt lat="47.52919770777225494384765625" lon="11.02409186773002147674560546875">
        <ele>1839.199951171875</ele>
        <time>2026-09-01T08:18:36.000Z</time>
        <extensions>
          <ns3:TrackPointExtension>
            <ns3:hr>161</ns3:hr>
            <ns3:cad>76</ns3:cad>
          </ns3:TrackPointExtension>
        </extensions>
      </trkpt>
      <trkpt lat="47.52920265309512615203857421875" lon="11.02411801926791667938232421875">
        <ele>1839.199951171875</ele>
        <time>2026-09-01T08:18:37.000Z</time>
        <extensions>
          <ns3:TrackPointExtension>
            <ns3:hr>161</ns3:hr>
            <ns3:cad>76</ns3:cad>
          </ns3:TrackPointExtension>
        </extensions>
      </trkpt>
      <trkpt lat="47.52920307219028472900390625" lon="11.0241325199604034423828125">
        <ele>1839.4000244140625</ele>
        <time>2026-09-01T08:18:38.000Z</time>
        <extensions>
          <ns3:TrackPointExtension>
            <ns3:hr>161</ns3:hr>
            <ns3:cad>76</ns3:cad>
          </ns3:TrackPointExtension>
        </extensions>
      </trkpt>
      <trkpt lat="47.529201395809650421142578125" lon="11.02415330708026885986328125">
        <ele>1839.4000244140625</ele>
        <time>2026-09-01T08:18:39.000Z</time>
        <extensions>
          <ns3:TrackPointExtension>
            <ns3:hr>161</ns3:hr>
            <ns3:cad>76</ns3:cad>
          </ns3:TrackPointExtension>
        </extensions>
      </trkpt>
      <trkpt lat="47.5291982106864452362060546875" lon="11.02417618967592716217041015625">
        <ele>1839.5999755859375</ele>
        <time>2026-09-01T08:18:40.000Z</time>
        <extensions>
          <ns3:TrackPointExtension>
            <ns3:hr>162</ns3:hr>
            <ns3:cad>76</ns3:cad>
          </ns3:TrackPointExtension>
        </extensions>
      </trkpt>
      <trkpt lat="47.5291948579251766204833984375" lon="11.024198569357395172119140625">
        <ele>1839.800048828125</ele>
        <time>2026-09-01T08:18:41.000Z</time>
        <extensions>
          <ns3:TrackPointExtension>
            <ns3:hr>162</ns3:hr>
            <ns3:cad>76</ns3:cad>
          </ns3:TrackPointExtension>
        </extensions>
      </trkpt>
      <trkpt lat="47.52919209189713001251220703125" lon="11.02423285134136676788330078125">
        <ele>1839.800048828125</ele>
        <time>2026-09-01T08:18:42.000Z</time>
        <extensions>
          <ns3:TrackPointExtension>
            <ns3:hr>162</ns3:hr>
            <ns3:cad>76</ns3:cad>
          </ns3:TrackPointExtension>
        </extensions>
      </trkpt>
      <trkpt lat="47.5291881524026393890380859375" lon="11.0242644511163234710693359375">
        <ele>1839.800048828125</ele>
        <time>2026-09-01T08:18:43.000Z</time>
        <extensions>
          <ns3:TrackPointExtension>
            <ns3:hr>162</ns3:hr>
            <ns3:cad>76</ns3:cad>
          </ns3:TrackPointExtension>
        </extensions>
      </trkpt>
      <trkpt lat="47.52918940968811511993408203125" lon="11.02429018355906009674072265625">
        <ele>1839.800048828125</ele>
        <time>2026-09-01T08:18:44.000Z</time>
        <extensions>
          <ns3:TrackPointExtension>
            <ns3:hr>162</ns3:hr>
            <ns3:cad>76</ns3:cad>
          </ns3:TrackPointExtension>
        </extensions>
      </trkpt>
      <trkpt lat="47.5291878171265125274658203125" lon="11.02431692183017730712890625">
        <ele>1840</ele>
        <time>2026-09-01T08:18:45.000Z</time>
        <extensions>
          <ns3:TrackPointExtension>
            <ns3:hr>162</ns3:hr>
            <ns3:cad>76</ns3:cad>
          </ns3:TrackPointExtension>
        </extensions>
      </trkpt>
      <trkpt lat="47.529181949794292449951171875" lon="11.02435237728059291839599609375">
        <ele>1840.199951171875</ele>
        <time>2026-09-01T08:18:46.000Z</time>
        <extensions>
          <ns3:TrackPointExtension>
            <ns3:hr>161</ns3:hr>
            <ns3:cad>76</ns3:cad>
          </ns3:TrackPointExtension>
        </extensions>
      </trkpt>
      <trkpt lat="47.52918387763202190399169921875" lon="11.02437970228493213653564453125">
        <ele>1840.4000244140625</ele>
        <time>2026-09-01T08:18:47.000Z</time>
        <extensions>
          <ns3:TrackPointExtension>
            <ns3:hr>160</ns3:hr>
            <ns3:cad>76</ns3:cad>
          </ns3:TrackPointExtension>
        </extensions>
      </trkpt>
      <trkpt lat="47.52918119542300701141357421875" lon="11.02440400980412960052490234375">
        <ele>1840.5999755859375</ele>
        <time>2026-09-01T08:18:48.000Z</time>
        <extensions>
          <ns3:TrackPointExtension>
            <ns3:hr>160</ns3:hr>
            <ns3:cad>75</ns3:cad>
          </ns3:TrackPointExtension>
        </extensions>
      </trkpt>
      <trkpt lat="47.52918136306107044219970703125" lon="11.02441792376339435577392578125">
        <ele>1841</ele>
        <time>2026-09-01T08:18:49.000Z</time>
        <extensions>
          <ns3:TrackPointExtension>
            <ns3:hr>160</ns3:hr>
            <ns3:cad>75</ns3:cad>
          </ns3:TrackPointExtension>
        </extensions>
      </trkpt>
      <trkpt lat="47.52917951904237270355224609375" lon="11.0244361124932765960693359375">
        <ele>1841.199951171875</ele>
        <time>2026-09-01T08:18:50.000Z</time>
        <extensions>
          <ns3:TrackPointExtension>
            <ns3:hr>159</ns3:hr>
            <ns3:cad>75</ns3:cad>
          </ns3:TrackPointExtension>
        </extensions>
      </trkpt>
      <trkpt lat="47.52918052487075328826904296875" lon="11.024452038109302520751953125">
        <ele>1841.5999755859375</ele>
        <time>2026-09-01T08:18:51.000Z</time>
        <extensions>
          <ns3:TrackPointExtension>
            <ns3:hr>160</ns3:hr>
            <ns3:cad>75</ns3:cad>
          </ns3:TrackPointExtension>
        </extensions>
      </trkpt>
      <trkpt lat="47.529183961451053619384765625" lon="11.02446184493601322174072265625">
        <ele>1842</ele>
        <time>2026-09-01T08:18:52.000Z</time>
        <extensions>
          <ns3:TrackPointExtension>
            <ns3:hr>160</ns3:hr>
            <ns3:cad>75</ns3:cad>
          </ns3:TrackPointExtension>
        </extensions>
      </trkpt>
      <trkpt lat="47.52918832004070281982421875" lon="11.02448078803718090057373046875">
        <ele>1842.199951171875</ele>
        <time>2026-09-01T08:18:53.000Z</time>
        <extensions>
          <ns3:TrackPointExtension>
            <ns3:hr>160</ns3:hr>
            <ns3:cad>75</ns3:cad>
          </ns3:TrackPointExtension>
        </extensions>
      </trkpt>
      <trkpt lat="47.52919192425906658172607421875" lon="11.024496294558048248291015625">
        <ele>1842.4000244140625</ele>
        <time>2026-09-01T08:18:54.000Z</time>
        <extensions>
          <ns3:TrackPointExtension>
            <ns3:hr>160</ns3:hr>
            <ns3:cad>75</ns3:cad>
          </ns3:TrackPointExtension>
        </extensions>
      </trkpt>
      <trkpt lat="47.52919645048677921295166015625" lon="11.0245061852037906646728515625">
        <ele>1842.800048828125</ele>
        <time>2026-09-01T08:18:55.000Z</time>
        <extensions>
          <ns3:TrackPointExtension>
            <ns3:hr>160</ns3:hr>
            <ns3:cad>75</ns3:cad>
          </ns3:TrackPointExtension>
        </extensions>
      </trkpt>
      <trkpt lat="47.5291965343058109283447265625" lon="11.02452881634235382080078125">
        <ele>1843</ele>
        <time>2026-09-01T08:18:56.000Z</time>
        <extensions>
          <ns3:TrackPointExtension>
            <ns3:hr>160</ns3:hr>
            <ns3:cad>75</ns3:cad>
          </ns3:TrackPointExtension>
        </extensions>
      </trkpt>
      <trkpt lat="47.52920164726674556732177734375" lon="11.02453929372131824493408203125">
        <ele>1843.199951171875</ele>
        <time>2026-09-01T08:18:57.000Z</time>
        <extensions>
          <ns3:TrackPointExtension>
            <ns3:hr>160</ns3:hr>
            <ns3:cad>18</ns3:cad>
          </ns3:TrackPointExtension>
        </extensions>
      </trkpt>
      <trkpt lat="47.52920349128544330596923828125" lon="11.0245568118989467620849609375">
        <ele>1843.5999755859375</ele>
        <time>2026-09-01T08:18:58.000Z</time>
        <extensions>
          <ns3:TrackPointExtension>
            <ns3:hr>159</ns3:hr>
            <ns3:cad>0</ns3:cad>
          </ns3:TrackPointExtension>
        </extensions>
      </trkpt>
      <trkpt lat="47.52920701168477535247802734375" lon="11.02456879802048206329345703125">
        <ele>1843.800048828125</ele>
        <time>2026-09-01T08:18:59.000Z</time>
        <extensions>
          <ns3:TrackPointExtension>
            <ns3:hr>159</ns3:hr>
            <ns3:cad>0</ns3:cad>
          </ns3:TrackPointExtension>
        </extensions>
      </trkpt>
      <trkpt lat="47.529208771884441375732421875" lon="11.0245900042355060577392578125">
        <ele>1844</ele>
        <time>2026-09-01T08:19:00.000Z</time>
        <extensions>
          <ns3:TrackPointExtension>
            <ns3:hr>158</ns3:hr>
            <ns3:cad>0</ns3:cad>
          </ns3:TrackPointExtension>
        </extensions>
      </trkpt>
      <trkpt lat="47.5292136333882808685302734375" lon="11.0246144793927669525146484375">
        <ele>1844.4000244140625</ele>
        <time>2026-09-01T08:19:01.000Z</time>
        <extensions>
          <ns3:TrackPointExtension>
            <ns3:hr>158</ns3:hr>
            <ns3:cad>0</ns3:cad>
          </ns3:TrackPointExtension>
        </extensions>
      </trkpt>
      <trkpt lat="47.5292143039405345916748046875" lon="11.02463744580745697021484375">
        <ele>1844.5999755859375</ele>
        <time>2026-09-01T08:19:02.000Z</time>
        <extensions>
          <ns3:TrackPointExtension>
            <ns3:hr>157</ns3:hr>
            <ns3:cad>0</ns3:cad>
          </ns3:TrackPointExtension>
        </extensions>
      </trkpt>
      <trkpt lat="47.52921706996858119964599609375" lon="11.024654209613800048828125">
        <ele>1845</ele>
        <time>2026-09-01T08:19:03.000Z</time>
        <extensions>
          <ns3:TrackPointExtension>
            <ns3:hr>156</ns3:hr>
            <ns3:cad>0</ns3:cad>
          </ns3:TrackPointExtension>
        </extensions>
      </trkpt>
      <trkpt lat="47.52922042272984981536865234375" lon="11.02466954849660396575927734375">
        <ele>1845.4000244140625</ele>
        <time>2026-09-01T08:19:04.000Z</time>
        <extensions>
          <ns3:TrackPointExtension>
            <ns3:hr>157</ns3:hr>
            <ns3:cad>53</ns3:cad>
          </ns3:TrackPointExtension>
        </extensions>
      </trkpt>
      <trkpt lat="47.52922394312918186187744140625" lon="11.02467843331396579742431640625">
        <ele>1845.800048828125</ele>
        <time>2026-09-01T08:19:05.000Z</time>
        <extensions>
          <ns3:TrackPointExtension>
            <ns3:hr>158</ns3:hr>
            <ns3:cad>53</ns3:cad>
          </ns3:TrackPointExtension>
        </extensions>
      </trkpt>
      <trkpt lat="47.52922545187175273895263671875" lon="11.0246868990361690521240234375">
        <ele>1846</ele>
        <time>2026-09-01T08:19:06.000Z</time>
        <extensions>
          <ns3:TrackPointExtension>
            <ns3:hr>158</ns3:hr>
            <ns3:cad>53</ns3:cad>
          </ns3:TrackPointExtension>
        </extensions>
      </trkpt>
      <trkpt lat="47.52922595478594303131103515625" lon="11.02469989098608493804931640625">
        <ele>1846</ele>
        <time>2026-09-01T08:19:07.000Z</time>
        <extensions>
          <ns3:TrackPointExtension>
            <ns3:hr>159</ns3:hr>
            <ns3:cad>53</ns3:cad>
          </ns3:TrackPointExtension>
        </extensions>
      </trkpt>
      <trkpt lat="47.52922411076724529266357421875" lon="11.02471631951630115509033203125">
        <ele>1846.199951171875</ele>
        <time>2026-09-01T08:19:08.000Z</time>
        <extensions>
          <ns3:TrackPointExtension>
            <ns3:hr>160</ns3:hr>
            <ns3:cad>53</ns3:cad>
          </ns3:TrackPointExtension>
        </extensions>
      </trkpt>
      <trkpt lat="47.52922494895756244659423828125" lon="11.02473023347556591033935546875">
        <ele>1846.4000244140625</ele>
        <time>2026-09-01T08:19:09.000Z</time>
        <extensions>
          <ns3:TrackPointExtension>
            <ns3:hr>161</ns3:hr>
            <ns3:cad>53</ns3:cad>
          </ns3:TrackPointExtension>
        </extensions>
      </trkpt>
      <trkpt lat="47.52922360785305500030517578125" lon="11.02474263869225978851318359375">
        <ele>1846.5999755859375</ele>
        <time>2026-09-01T08:19:10.000Z</time>
        <extensions>
          <ns3:TrackPointExtension>
            <ns3:hr>161</ns3:hr>
            <ns3:cad>53</ns3:cad>
          </ns3:TrackPointExtension>
        </extensions>
      </trkpt>
      <trkpt lat="47.52922293730080127716064453125" lon="11.02476082742214202880859375">
        <ele>1846.800048828125</ele>
        <time>2026-09-01T08:19:11.000Z</time>
        <extensions>
          <ns3:TrackPointExtension>
            <ns3:hr>162</ns3:hr>
            <ns3:cad>0</ns3:cad>
          </ns3:TrackPointExtension>
        </extensions>
      </trkpt>
      <trkpt lat="47.52922092564404010772705078125" lon="11.02477080188691616058349609375">
        <ele>1847</ele>
        <time>2026-09-01T08:19:12.000Z</time>
        <extensions>
          <ns3:TrackPointExtension>
            <ns3:hr>162</ns3:hr>
            <ns3:cad>0</ns3:cad>
          </ns3:TrackPointExtension>
        </extensions>
      </trkpt>
      <trkpt lat="47.5292198359966278076171875" lon="11.024785302579402923583984375">
        <ele>1847.199951171875</ele>
        <time>2026-09-01T08:19:13.000Z</time>
        <extensions>
          <ns3:TrackPointExtension>
            <ns3:hr>162</ns3:hr>
            <ns3:cad>0</ns3:cad>
          </ns3:TrackPointExtension>
        </extensions>
      </trkpt>
      <trkpt lat="47.52921991981565952301025390625" lon="11.02479997090995311737060546875">
        <ele>1847.4000244140625</ele>
        <time>2026-09-01T08:19:14.000Z</time>
        <extensions>
          <ns3:TrackPointExtension>
            <ns3:hr>163</ns3:hr>
            <ns3:cad>0</ns3:cad>
          </ns3:TrackPointExtension>
        </extensions>
      </trkpt>
      <trkpt lat="47.52922193147242069244384765625" lon="11.0248169861733913421630859375">
        <ele>1847.4000244140625</ele>
        <time>2026-09-01T08:19:15.000Z</time>
        <extensions>
          <ns3:TrackPointExtension>
            <ns3:hr>163</ns3:hr>
            <ns3:cad>53</ns3:cad>
          </ns3:TrackPointExtension>
        </extensions>
      </trkpt>
      <trkpt lat="47.5292225182056427001953125" lon="11.02483785711228847503662109375">
        <ele>1847.5999755859375</ele>
        <time>2026-09-01T08:19:16.000Z</time>
        <extensions>
          <ns3:TrackPointExtension>
            <ns3:hr>163</ns3:hr>
            <ns3:cad>53</ns3:cad>
          </ns3:TrackPointExtension>
        </extensions>
      </trkpt>
      <trkpt lat="47.52922545187175273895263671875" lon="11.02485747076570987701416015625">
        <ele>1848</ele>
        <time>2026-09-01T08:19:17.000Z</time>
        <extensions>
          <ns3:TrackPointExtension>
            <ns3:hr>163</ns3:hr>
            <ns3:cad>53</ns3:cad>
          </ns3:TrackPointExtension>
        </extensions>
      </trkpt>
      <trkpt lat="47.5292270444333553314208984375" lon="11.0248808562755584716796875">
        <ele>1848.199951171875</ele>
        <time>2026-09-01T08:19:18.000Z</time>
        <extensions>
          <ns3:TrackPointExtension>
            <ns3:hr>163</ns3:hr>
            <ns3:cad>53</ns3:cad>
          </ns3:TrackPointExtension>
        </extensions>
      </trkpt>
      <trkpt lat="47.52922855317592620849609375" lon="11.02490432560443878173828125">
        <ele>1848.199951171875</ele>
        <time>2026-09-01T08:19:19.000Z</time>
        <extensions>
          <ns3:TrackPointExtension>
            <ns3:hr>164</ns3:hr>
            <ns3:cad>53</ns3:cad>
          </ns3:TrackPointExtension>
        </extensions>
      </trkpt>
      <trkpt lat="47.5292303971946239471435546875" lon="11.02492419071495532989501953125">
        <ele>1848.4000244140625</ele>
        <time>2026-09-01T08:19:20.000Z</time>
        <extensions>
          <ns3:TrackPointExtension>
            <ns3:hr>164</ns3:hr>
            <ns3:cad>53</ns3:cad>
          </ns3:TrackPointExtension>
        </extensions>
      </trkpt>
      <trkpt lat="47.5292320735752582550048828125" lon="11.024947576224803924560546875">
        <ele>1848.5999755859375</ele>
        <time>2026-09-01T08:19:21.000Z</time>
        <extensions>
          <ns3:TrackPointExtension>
            <ns3:hr>164</ns3:hr>
            <ns3:cad>53</ns3:cad>
          </ns3:TrackPointExtension>
        </extensions>
      </trkpt>
      <trkpt lat="47.52923098392784595489501953125" lon="11.02495185099542140960693359375">
        <ele>1848.800048828125</ele>
        <time>2026-09-01T08:19:22.000Z</time>
        <extensions>
          <ns3:TrackPointExtension>
            <ns3:hr>164</ns3:hr>
            <ns3:cad>53</ns3:cad>
          </ns3:TrackPointExtension>
        </extensions>
      </trkpt>
      <trkpt lat="47.52923266030848026275634765625" lon="11.024971716105937957763671875">
        <ele>1849</ele>
        <time>2026-09-01T08:19:23.000Z</time>
        <extensions>
          <ns3:TrackPointExtension>
            <ns3:hr>164</ns3:hr>
            <ns3:cad>53</ns3:cad>
          </ns3:TrackPointExtension>
        </extensions>
      </trkpt>
      <trkpt lat="47.529234923422336578369140625" lon="11.0249846242368221282958984375">
        <ele>1849.4000244140625</ele>
        <time>2026-09-01T08:19:24.000Z</time>
        <extensions>
          <ns3:TrackPointExtension>
            <ns3:hr>164</ns3:hr>
            <ns3:cad>53</ns3:cad>
          </ns3:TrackPointExtension>
        </extensions>
      </trkpt>
      <trkpt lat="47.529237270355224609375" lon="11.025005914270877838134765625">
        <ele>1849.800048828125</ele>
        <time>2026-09-01T08:19:25.000Z</time>
        <extensions>
          <ns3:TrackPointExtension>
            <ns3:hr>165</ns3:hr>
            <ns3:cad>53</ns3:cad>
          </ns3:TrackPointExtension>
        </extensions>
      </trkpt>
      <trkpt lat="47.52924037165939807891845703125" lon="11.0250178165733814239501953125">
        <ele>1850.199951171875</ele>
        <time>2026-09-01T08:19:26.000Z</time>
        <extensions>
          <ns3:TrackPointExtension>
            <ns3:hr>164</ns3:hr>
            <ns3:cad>53</ns3:cad>
          </ns3:TrackPointExtension>
        </extensions>
      </trkpt>
      <trkpt lat="47.529244311153888702392578125" lon="11.0250245220959186553955078125">
        <ele>1850.4000244140625</ele>
        <time>2026-09-01T08:19:27.000Z</time>
        <extensions>
          <ns3:TrackPointExtension>
            <ns3:hr>165</ns3:hr>
            <ns3:cad>0</ns3:cad>
          </ns3:TrackPointExtension>
        </extensions>
      </trkpt>
      <trkpt lat="47.529250681400299072265625" lon="11.02503449656069278717041015625">
        <ele>1850.5999755859375</ele>
        <time>2026-09-01T08:19:28.000Z</time>
        <extensions>
          <ns3:TrackPointExtension>
            <ns3:hr>165</ns3:hr>
            <ns3:cad>0</ns3:cad>
          </ns3:TrackPointExtension>
        </extensions>
      </trkpt>
      <trkpt lat="47.52925462089478969573974609375" lon="11.02503986097872257232666015625">
        <ele>1851</ele>
        <time>2026-09-01T08:19:29.000Z</time>
        <extensions>
          <ns3:TrackPointExtension>
            <ns3:hr>165</ns3:hr>
            <ns3:cad>0</ns3:cad>
          </ns3:TrackPointExtension>
        </extensions>
      </trkpt>
      <trkpt lat="47.5292627513408660888671875" lon="11.02505855262279510498046875">
        <ele>1851.4000244140625</ele>
        <time>2026-09-01T08:19:30.000Z</time>
        <extensions>
          <ns3:TrackPointExtension>
            <ns3:hr>166</ns3:hr>
            <ns3:cad>0</ns3:cad>
          </ns3:TrackPointExtension>
        </extensions>
      </trkpt>
      <trkpt lat="47.5292706303298473358154296875" lon="11.02507137693464756011962890625">
        <ele>1852</ele>
        <time>2026-09-01T08:19:31.000Z</time>
        <extensions>
          <ns3:TrackPointExtension>
            <ns3:hr>166</ns3:hr>
            <ns3:cad>0</ns3:cad>
          </ns3:TrackPointExtension>
        </extensions>
      </trkpt>
      <trkpt lat="47.5292773358523845672607421875" lon="11.0250847041606903076171875">
        <ele>1852.4000244140625</ele>
        <time>2026-09-01T08:19:32.000Z</time>
        <extensions>
          <ns3:TrackPointExtension>
            <ns3:hr>166</ns3:hr>
            <ns3:cad>0</ns3:cad>
          </ns3:TrackPointExtension>
        </extensions>
      </trkpt>
      <trkpt lat="47.529282867908477783203125" lon="11.0250952653586864471435546875">
        <ele>1852.800048828125</ele>
        <time>2026-09-01T08:19:33.000Z</time>
        <extensions>
          <ns3:TrackPointExtension>
            <ns3:hr>166</ns3:hr>
            <ns3:cad>0</ns3:cad>
          </ns3:TrackPointExtension>
        </extensions>
      </trkpt>
      <trkpt lat="47.5292895734310150146484375" lon="11.025105826556682586669921875">
        <ele>1853.199951171875</ele>
        <time>2026-09-01T08:19:34.000Z</time>
        <extensions>
          <ns3:TrackPointExtension>
            <ns3:hr>167</ns3:hr>
            <ns3:cad>0</ns3:cad>
          </ns3:TrackPointExtension>
        </extensions>
      </trkpt>
      <trkpt lat="47.5292914174497127532958984375" lon="11.0251056589186191558837890625">
        <ele>1853.4000244140625</ele>
        <time>2026-09-01T08:19:35.000Z</time>
        <extensions>
          <ns3:TrackPointExtension>
            <ns3:hr>168</ns3:hr>
            <ns3:cad>0</ns3:cad>
          </ns3:TrackPointExtension>
        </extensions>
      </trkpt>
      <trkpt lat="47.52930072136223316192626953125" lon="11.0251168906688690185546875">
        <ele>1853.5999755859375</ele>
        <time>2026-09-01T08:19:36.000Z</time>
        <extensions>
          <ns3:TrackPointExtension>
            <ns3:hr>169</ns3:hr>
            <ns3:cad>0</ns3:cad>
          </ns3:TrackPointExtension>
        </extensions>
      </trkpt>
      <trkpt lat="47.5293021462857723236083984375" lon="11.02511613629758358001708984375">
        <ele>1853.800048828125</ele>
        <time>2026-09-01T08:19:37.000Z</time>
        <extensions>
          <ns3:TrackPointExtension>
            <ns3:hr>169</ns3:hr>
            <ns3:cad>0</ns3:cad>
          </ns3:TrackPointExtension>
        </extensions>
      </trkpt>
      <trkpt lat="47.529297284781932830810546875" lon="11.02511814795434474945068359375">
        <ele>1854</ele>
        <time>2026-09-01T08:19:38.000Z</time>
        <extensions>
          <ns3:TrackPointExtension>
            <ns3:hr>169</ns3:hr>
            <ns3:cad>0</ns3:cad>
          </ns3:TrackPointExtension>
        </extensions>
      </trkpt>
      <trkpt lat="47.52929954789578914642333984375" lon="11.02514614351093769073486328125">
        <ele>1854.199951171875</ele>
        <time>2026-09-01T08:19:39.000Z</time>
        <extensions>
          <ns3:TrackPointExtension>
            <ns3:hr>170</ns3:hr>
            <ns3:cad>0</ns3:cad>
          </ns3:TrackPointExtension>
        </extensions>
      </trkpt>
      <trkpt lat="47.5292951054871082305908203125" lon="11.02515787817537784576416015625">
        <ele>1854.4000244140625</ele>
        <time>2026-09-01T08:19:40.000Z</time>
        <extensions>
          <ns3:TrackPointExtension>
            <ns3:hr>170</ns3:hr>
            <ns3:cad>0</ns3:cad>
          </ns3:TrackPointExtension>
        </extensions>
      </trkpt>
      <trkpt lat="47.529292590916156768798828125" lon="11.02516693063080310821533203125">
        <ele>1854.5999755859375</ele>
        <time>2026-09-01T08:19:41.000Z</time>
        <extensions>
          <ns3:TrackPointExtension>
            <ns3:hr>170</ns3:hr>
            <ns3:cad>0</ns3:cad>
          </ns3:TrackPointExtension>
        </extensions>
      </trkpt>
      <trkpt lat="47.5292907468974590301513671875" lon="11.025176234543323516845703125">
        <ele>1854.800048828125</ele>
        <time>2026-09-01T08:19:42.000Z</time>
        <extensions>
          <ns3:TrackPointExtension>
            <ns3:hr>170</ns3:hr>
            <ns3:cad>0</ns3:cad>
          </ns3:TrackPointExtension>
        </extensions>
      </trkpt>
      <trkpt lat="47.5292910821735858917236328125" lon="11.02518117986619472503662109375">
        <ele>1855</ele>
        <time>2026-09-01T08:19:43.000Z</time>
        <extensions>
          <ns3:TrackPointExtension>
            <ns3:hr>170</ns3:hr>
            <ns3:cad>0</ns3:cad>
          </ns3:TrackPointExtension>
        </extensions>
      </trkpt>
      <trkpt lat="47.52929502166807651519775390625" lon="11.02519241161644458770751953125">
        <ele>1855.199951171875</ele>
        <time>2026-09-01T08:19:44.000Z</time>
        <extensions>
          <ns3:TrackPointExtension>
            <ns3:hr>170</ns3:hr>
            <ns3:cad>0</ns3:cad>
          </ns3:TrackPointExtension>
        </extensions>
      </trkpt>
      <trkpt lat="47.5293001346290111541748046875" lon="11.0252025537192821502685546875">
        <ele>1855.4000244140625</ele>
        <time>2026-09-01T08:19:45.000Z</time>
        <extensions>
          <ns3:TrackPointExtension>
            <ns3:hr>169</ns3:hr>
            <ns3:cad>66</ns3:cad>
          </ns3:TrackPointExtension>
        </extensions>
      </trkpt>
      <trkpt lat="47.5293038226664066314697265625" lon="11.02520431391894817352294921875">
        <ele>1855.800048828125</ele>
        <time>2026-09-01T08:19:46.000Z</time>
        <extensions>
          <ns3:TrackPointExtension>
            <ns3:hr>169</ns3:hr>
            <ns3:cad>66</ns3:cad>
          </ns3:TrackPointExtension>
        </extensions>
      </trkpt>
      <trkpt lat="47.5293085165321826934814453125" lon="11.025211773812770843505859375">
        <ele>1856</ele>
        <time>2026-09-01T08:19:47.000Z</time>
        <extensions>
          <ns3:TrackPointExtension>
            <ns3:hr>169</ns3:hr>
            <ns3:cad>66</ns3:cad>
          </ns3:TrackPointExtension>
        </extensions>
      </trkpt>
      <trkpt lat="47.52931245602667331695556640625" lon="11.02521923370659351348876953125">
        <ele>1856.199951171875</ele>
        <time>2026-09-01T08:19:48.000Z</time>
        <extensions>
          <ns3:TrackPointExtension>
            <ns3:hr>169</ns3:hr>
            <ns3:cad>0</ns3:cad>
          </ns3:TrackPointExtension>
        </extensions>
      </trkpt>
      <trkpt lat="47.5293158926069736480712890625" lon="11.025227196514606475830078125">
        <ele>1856.5999755859375</ele>
        <time>2026-09-01T08:19:49.000Z</time>
        <extensions>
          <ns3:TrackPointExtension>
            <ns3:hr>170</ns3:hr>
            <ns3:cad>0</ns3:cad>
          </ns3:TrackPointExtension>
        </extensions>
      </trkpt>
      <trkpt lat="47.52931530587375164031982421875" lon="11.0252349078655242919921875">
        <ele>1857</ele>
        <time>2026-09-01T08:19:50.000Z</time>
        <extensions>
          <ns3:TrackPointExtension>
            <ns3:hr>170</ns3:hr>
            <ns3:cad>47</ns3:cad>
          </ns3:TrackPointExtension>
        </extensions>
      </trkpt>
      <trkpt lat="47.529316060245037078857421875" lon="11.0252427868545055389404296875">
        <ele>1857.4000244140625</ele>
        <time>2026-09-01T08:19:51.000Z</time>
        <extensions>
          <ns3:TrackPointExtension>
            <ns3:hr>169</ns3:hr>
            <ns3:cad>47</ns3:cad>
          </ns3:TrackPointExtension>
        </extensions>
      </trkpt>
      <trkpt lat="47.52931614406406879425048828125" lon="11.0252617299556732177734375">
        <ele>1857.5999755859375</ele>
        <time>2026-09-01T08:19:52.000Z</time>
        <extensions>
          <ns3:TrackPointExtension>
            <ns3:hr>169</ns3:hr>
            <ns3:cad>0</ns3:cad>
          </ns3:TrackPointExtension>
        </extensions>
      </trkpt>
      <trkpt lat="47.52931572496891021728515625" lon="11.0252793319523334503173828125">
        <ele>1858</ele>
        <time>2026-09-01T08:19:53.000Z</time>
        <extensions>
          <ns3:TrackPointExtension>
            <ns3:hr>169</ns3:hr>
            <ns3:cad>0</ns3:cad>
          </ns3:TrackPointExtension>
        </extensions>
      </trkpt>
      <trkpt lat="47.52931480295956134796142578125" lon="11.0252920724451541900634765625">
        <ele>1858.4000244140625</ele>
        <time>2026-09-01T08:19:54.000Z</time>
        <extensions>
          <ns3:TrackPointExtension>
            <ns3:hr>169</ns3:hr>
            <ns3:cad>52</ns3:cad>
          </ns3:TrackPointExtension>
        </extensions>
      </trkpt>
      <trkpt lat="47.52931430004537105560302734375" lon="11.025308333337306976318359375">
        <ele>1858.5999755859375</ele>
        <time>2026-09-01T08:19:55.000Z</time>
        <extensions>
          <ns3:TrackPointExtension>
            <ns3:hr>169</ns3:hr>
            <ns3:cad>52</ns3:cad>
          </ns3:TrackPointExtension>
        </extensions>
      </trkpt>
      <trkpt lat="47.52931396476924419403076171875" lon="11.0253269411623477935791015625">
        <ele>1858.5999755859375</ele>
        <time>2026-09-01T08:19:56.000Z</time>
        <extensions>
          <ns3:TrackPointExtension>
            <ns3:hr>169</ns3:hr>
            <ns3:cad>52</ns3:cad>
          </ns3:TrackPointExtension>
        </extensions>
      </trkpt>
      <trkpt lat="47.5293152220547199249267578125" lon="11.02534228004515171051025390625">
        <ele>1859</ele>
        <time>2026-09-01T08:19:57.000Z</time>
        <extensions>
          <ns3:TrackPointExtension>
            <ns3:hr>169</ns3:hr>
            <ns3:cad>52</ns3:cad>
          </ns3:TrackPointExtension>
        </extensions>
      </trkpt>
      <trkpt lat="47.52931706607341766357421875" lon="11.025357283651828765869140625">
        <ele>1859.4000244140625</ele>
        <time>2026-09-01T08:19:58.000Z</time>
        <extensions>
          <ns3:TrackPointExtension>
            <ns3:hr>169</ns3:hr>
            <ns3:cad>51</ns3:cad>
          </ns3:TrackPointExtension>
        </extensions>
      </trkpt>
      <trkpt lat="47.529320083558559417724609375" lon="11.02537530474364757537841796875">
        <ele>1859.800048828125</ele>
        <time>2026-09-01T08:19:59.000Z</time>
        <extensions>
          <ns3:TrackPointExtension>
            <ns3:hr>169</ns3:hr>
            <ns3:cad>51</ns3:cad>
          </ns3:TrackPointExtension>
        </extensions>
      </trkpt>
      <trkpt lat="47.52932335250079631805419921875" lon="11.025390811264514923095703125">
        <ele>1860.199951171875</ele>
        <time>2026-09-01T08:20:00.000Z</time>
        <extensions>
          <ns3:TrackPointExtension>
            <ns3:hr>168</ns3:hr>
            <ns3:cad>51</ns3:cad>
          </ns3:TrackPointExtension>
        </extensions>
      </trkpt>
      <trkpt lat="47.5293269567191600799560546875" lon="11.025404892861843109130859375">
        <ele>1860.5999755859375</ele>
        <time>2026-09-01T08:20:01.000Z</time>
        <extensions>
          <ns3:TrackPointExtension>
            <ns3:hr>168</ns3:hr>
            <ns3:cad>51</ns3:cad>
          </ns3:TrackPointExtension>
        </extensions>
      </trkpt>
      <trkpt lat="47.52933047711849212646484375" lon="11.02541604079306125640869140625">
        <ele>1861</ele>
        <time>2026-09-01T08:20:02.000Z</time>
        <extensions>
          <ns3:TrackPointExtension>
            <ns3:hr>168</ns3:hr>
            <ns3:cad>51</ns3:cad>
          </ns3:TrackPointExtension>
        </extensions>
      </trkpt>
      <trkpt lat="47.529334165155887603759765625" lon="11.02542609907686710357666015625">
        <ele>1861.5999755859375</ele>
        <time>2026-09-01T08:20:03.000Z</time>
        <extensions>
          <ns3:TrackPointExtension>
            <ns3:hr>168</ns3:hr>
            <ns3:cad>51</ns3:cad>
          </ns3:TrackPointExtension>
        </extensions>
      </trkpt>
      <trkpt lat="47.529336847364902496337890625" lon="11.0254288651049137115478515625">
        <ele>1861.800048828125</ele>
        <time>2026-09-01T08:20:04.000Z</time>
        <extensions>
          <ns3:TrackPointExtension>
            <ns3:hr>169</ns3:hr>
            <ns3:cad>51</ns3:cad>
          </ns3:TrackPointExtension>
        </extensions>
      </trkpt>
      <trkpt lat="47.5293390266597270965576171875" lon="11.02544386871159076690673828125">
        <ele>1862.199951171875</ele>
        <time>2026-09-01T08:20:05.000Z</time>
        <extensions>
          <ns3:TrackPointExtension>
            <ns3:hr>169</ns3:hr>
            <ns3:cad>0</ns3:cad>
          </ns3:TrackPointExtension>
        </extensions>
      </trkpt>
      <trkpt lat="47.5293420441448688507080078125" lon="11.02544747292995452880859375">
        <ele>1862.4000244140625</ele>
        <time>2026-09-01T08:20:06.000Z</time>
        <extensions>
          <ns3:TrackPointExtension>
            <ns3:hr>169</ns3:hr>
            <ns3:cad>0</ns3:cad>
          </ns3:TrackPointExtension>
        </extensions>
      </trkpt>
      <trkpt lat="47.52934950403869152069091796875" lon="11.0254587046802043914794921875">
        <ele>1862.800048828125</ele>
        <time>2026-09-01T08:20:07.000Z</time>
        <extensions>
          <ns3:TrackPointExtension>
            <ns3:hr>170</ns3:hr>
            <ns3:cad>0</ns3:cad>
          </ns3:TrackPointExtension>
        </extensions>
      </trkpt>
      <trkpt lat="47.5293539464473724365234375" lon="11.02547588758170604705810546875">
        <ele>1863</ele>
        <time>2026-09-01T08:20:08.000Z</time>
        <extensions>
          <ns3:TrackPointExtension>
            <ns3:hr>170</ns3:hr>
            <ns3:cad>44</ns3:cad>
          </ns3:TrackPointExtension>
        </extensions>
      </trkpt>
      <trkpt lat="47.5293551199138164520263671875" lon="11.0254848562180995941162109375">
        <ele>1863.4000244140625</ele>
        <time>2026-09-01T08:20:09.000Z</time>
        <extensions>
          <ns3:TrackPointExtension>
            <ns3:hr>171</ns3:hr>
            <ns3:cad>44</ns3:cad>
          </ns3:TrackPointExtension>
        </extensions>
      </trkpt>
      <trkpt lat="47.52935738302767276763916015625" lon="11.02549851872026920318603515625">
        <ele>1863.5999755859375</ele>
        <time>2026-09-01T08:20:10.000Z</time>
        <extensions>
          <ns3:TrackPointExtension>
            <ns3:hr>172</ns3:hr>
            <ns3:cad>44</ns3:cad>
          </ns3:TrackPointExtension>
        </extensions>
      </trkpt>
      <trkpt lat="47.52935604192316532135009765625" lon="11.0255120135843753814697265625">
        <ele>1864</ele>
        <time>2026-09-01T08:20:11.000Z</time>
        <extensions>
          <ns3:TrackPointExtension>
            <ns3:hr>172</ns3:hr>
            <ns3:cad>44</ns3:cad>
          </ns3:TrackPointExtension>
        </extensions>
      </trkpt>
      <trkpt lat="47.52936291508376598358154296875" lon="11.02552525699138641357421875">
        <ele>1864.4000244140625</ele>
        <time>2026-09-01T08:20:12.000Z</time>
        <extensions>
          <ns3:TrackPointExtension>
            <ns3:hr>172</ns3:hr>
            <ns3:cad>44</ns3:cad>
          </ns3:TrackPointExtension>
        </extensions>
      </trkpt>
      <trkpt lat="47.529367692768573760986328125" lon="11.02553539909422397613525390625">
        <ele>1864.5999755859375</ele>
        <time>2026-09-01T08:20:13.000Z</time>
        <extensions>
          <ns3:TrackPointExtension>
            <ns3:hr>172</ns3:hr>
            <ns3:cad>44</ns3:cad>
          </ns3:TrackPointExtension>
        </extensions>
      </trkpt>
      <trkpt lat="47.52937263809144496917724609375" lon="11.0255488939583301544189453125">
        <ele>1865</ele>
        <time>2026-09-01T08:20:14.000Z</time>
        <extensions>
          <ns3:TrackPointExtension>
            <ns3:hr>173</ns3:hr>
            <ns3:cad>45</ns3:cad>
          </ns3:TrackPointExtension>
        </extensions>
      </trkpt>
      <trkpt lat="47.52937498502433300018310546875" lon="11.02556104771792888641357421875">
        <ele>1865.4000244140625</ele>
        <time>2026-09-01T08:20:15.000Z</time>
        <extensions>
          <ns3:TrackPointExtension>
            <ns3:hr>173</ns3:hr>
            <ns3:cad>45</ns3:cad>
          </ns3:TrackPointExtension>
        </extensions>
      </trkpt>
      <trkpt lat="47.52937817014753818511962890625" lon="11.02557211183011531829833984375">
        <ele>1865.800048828125</ele>
        <time>2026-09-01T08:20:16.000Z</time>
        <extensions>
          <ns3:TrackPointExtension>
            <ns3:hr>173</ns3:hr>
            <ns3:cad>45</ns3:cad>
          </ns3:TrackPointExtension>
        </extensions>
      </trkpt>
      <trkpt lat="47.52937967889010906219482421875" lon="11.02558284066617488861083984375">
        <ele>1866.199951171875</ele>
        <time>2026-09-01T08:20:17.000Z</time>
        <extensions>
          <ns3:TrackPointExtension>
            <ns3:hr>173</ns3:hr>
            <ns3:cad>45</ns3:cad>
          </ns3:TrackPointExtension>
        </extensions>
      </trkpt>
      <trkpt lat="47.529383115470409393310546875" lon="11.0255931504070758819580078125">
        <ele>1866.4000244140625</ele>
        <time>2026-09-01T08:20:18.000Z</time>
        <extensions>
          <ns3:TrackPointExtension>
            <ns3:hr>174</ns3:hr>
            <ns3:cad>45</ns3:cad>
          </ns3:TrackPointExtension>
        </extensions>
      </trkpt>
      <trkpt lat="47.52938822843134403228759765625" lon="11.02560563944280147552490234375">
        <ele>1866.800048828125</ele>
        <time>2026-09-01T08:20:19.000Z</time>
        <extensions>
          <ns3:TrackPointExtension>
            <ns3:hr>174</ns3:hr>
            <ns3:cad>45</ns3:cad>
          </ns3:TrackPointExtension>
        </extensions>
      </trkpt>
      <trkpt lat="47.529390156269073486328125" lon="11.0256206430494785308837890625">
        <ele>1867.199951171875</ele>
        <time>2026-09-01T08:20:20.000Z</time>
        <extensions>
          <ns3:TrackPointExtension>
            <ns3:hr>173</ns3:hr>
            <ns3:cad>46</ns3:cad>
          </ns3:TrackPointExtension>
        </extensions>
      </trkpt>
      <trkpt lat="47.52938655205070972442626953125" lon="11.025630198419094085693359375">
        <ele>1867.4000244140625</ele>
        <time>2026-09-01T08:20:21.000Z</time>
        <extensions>
          <ns3:TrackPointExtension>
            <ns3:hr>172</ns3:hr>
            <ns3:cad>46</ns3:cad>
          </ns3:TrackPointExtension>
        </extensions>
      </trkpt>
      <trkpt lat="47.52938487567007541656494140625" lon="11.02564319036900997161865234375">
        <ele>1867.800048828125</ele>
        <time>2026-09-01T08:20:22.000Z</time>
        <extensions>
          <ns3:TrackPointExtension>
            <ns3:hr>172</ns3:hr>
            <ns3:cad>45</ns3:cad>
          </ns3:TrackPointExtension>
        </extensions>
      </trkpt>
      <trkpt lat="47.5293846242129802703857421875" lon="11.0256615467369556427001953125">
        <ele>1868</ele>
        <time>2026-09-01T08:20:23.000Z</time>
        <extensions>
          <ns3:TrackPointExtension>
            <ns3:hr>172</ns3:hr>
            <ns3:cad>45</ns3:cad>
          </ns3:TrackPointExtension>
        </extensions>
      </trkpt>
      <trkpt lat="47.5293849594891071319580078125" lon="11.02566967718303203582763671875">
        <ele>1868.4000244140625</ele>
        <time>2026-09-01T08:20:24.000Z</time>
        <extensions>
          <ns3:TrackPointExtension>
            <ns3:hr>172</ns3:hr>
            <ns3:cad>45</ns3:cad>
          </ns3:TrackPointExtension>
        </extensions>
      </trkpt>
      <trkpt lat="47.52938680350780487060546875" lon="11.02568107657134532928466796875">
        <ele>1868.800048828125</ele>
        <time>2026-09-01T08:20:25.000Z</time>
        <extensions>
          <ns3:TrackPointExtension>
            <ns3:hr>171</ns3:hr>
            <ns3:cad>45</ns3:cad>
          </ns3:TrackPointExtension>
        </extensions>
      </trkpt>
      <trkpt lat="47.52938856370747089385986328125" lon="11.0256897099316120147705078125">
        <ele>1869.199951171875</ele>
        <time>2026-09-01T08:20:26.000Z</time>
        <extensions>
          <ns3:TrackPointExtension>
            <ns3:hr>172</ns3:hr>
            <ns3:cad>45</ns3:cad>
          </ns3:TrackPointExtension>
        </extensions>
      </trkpt>
      <trkpt lat="47.52939082682132720947265625" lon="11.02569716982543468475341796875">
        <ele>1869.800048828125</ele>
        <time>2026-09-01T08:20:27.000Z</time>
        <extensions>
          <ns3:TrackPointExtension>
            <ns3:hr>172</ns3:hr>
            <ns3:cad>47</ns3:cad>
          </ns3:TrackPointExtension>
        </extensions>
      </trkpt>
      <trkpt lat="47.5293914973735809326171875" lon="11.02571695111691951751708984375">
        <ele>1870</ele>
        <time>2026-09-01T08:20:28.000Z</time>
        <extensions>
          <ns3:TrackPointExtension>
            <ns3:hr>172</ns3:hr>
            <ns3:cad>47</ns3:cad>
          </ns3:TrackPointExtension>
        </extensions>
      </trkpt>
      <trkpt lat="47.52939459867775440216064453125" lon="11.02573052980005741119384765625">
        <ele>1870.199951171875</ele>
        <time>2026-09-01T08:20:29.000Z</time>
        <extensions>
          <ns3:TrackPointExtension>
            <ns3:hr>172</ns3:hr>
            <ns3:cad>41</ns3:cad>
          </ns3:TrackPointExtension>
        </extensions>
      </trkpt>
      <trkpt lat="47.5294003821909427642822265625" lon="11.02574712596833705902099609375">
        <ele>1870.4000244140625</ele>
        <time>2026-09-01T08:20:30.000Z</time>
        <extensions>
          <ns3:TrackPointExtension>
            <ns3:hr>172</ns3:hr>
            <ns3:cad>0</ns3:cad>
          </ns3:TrackPointExtension>
        </extensions>
      </trkpt>
      <trkpt lat="47.52940381877124309539794921875" lon="11.02575860917568206787109375">
        <ele>1870.5999755859375</ele>
        <time>2026-09-01T08:20:31.000Z</time>
        <extensions>
          <ns3:TrackPointExtension>
            <ns3:hr>172</ns3:hr>
            <ns3:cad>0</ns3:cad>
          </ns3:TrackPointExtension>
        </extensions>
      </trkpt>
      <trkpt lat="47.52940834499895572662353515625" lon="11.02576942183077335357666015625">
        <ele>1870.800048828125</ele>
        <time>2026-09-01T08:20:32.000Z</time>
        <extensions>
          <ns3:TrackPointExtension>
            <ns3:hr>172</ns3:hr>
            <ns3:cad>0</ns3:cad>
          </ns3:TrackPointExtension>
        </extensions>
      </trkpt>
      <trkpt lat="47.5294127874076366424560546875" lon="11.02579020895063877105712890625">
        <ele>1871.199951171875</ele>
        <time>2026-09-01T08:20:33.000Z</time>
        <extensions>
          <ns3:TrackPointExtension>
            <ns3:hr>171</ns3:hr>
            <ns3:cad>0</ns3:cad>
          </ns3:TrackPointExtension>
        </extensions>
      </trkpt>
      <trkpt lat="47.52941756509244441986083984375" lon="11.025811918079853057861328125">
        <ele>1872</ele>
        <time>2026-09-01T08:20:34.000Z</time>
        <extensions>
          <ns3:TrackPointExtension>
            <ns3:hr>172</ns3:hr>
            <ns3:cad>50</ns3:cad>
          </ns3:TrackPointExtension>
        </extensions>
      </trkpt>
      <trkpt lat="47.52942075021564960479736328125" lon="11.02582993917167186737060546875">
        <ele>1872.5999755859375</ele>
        <time>2026-09-01T08:20:35.000Z</time>
        <extensions>
          <ns3:TrackPointExtension>
            <ns3:hr>172</ns3:hr>
            <ns3:cad>50</ns3:cad>
          </ns3:TrackPointExtension>
        </extensions>
      </trkpt>
      <trkpt lat="47.52942703664302825927734375" lon="11.0258422605693340301513671875">
        <ele>1873.4000244140625</ele>
        <time>2026-09-01T08:20:36.000Z</time>
        <extensions>
          <ns3:TrackPointExtension>
            <ns3:hr>172</ns3:hr>
            <ns3:cad>49</ns3:cad>
          </ns3:TrackPointExtension>
        </extensions>
      </trkpt>
      <trkpt lat="47.52942879684269428253173828125" lon="11.02584921754896640777587890625">
        <ele>1874.199951171875</ele>
        <time>2026-09-01T08:20:37.000Z</time>
        <extensions>
          <ns3:TrackPointExtension>
            <ns3:hr>172</ns3:hr>
            <ns3:cad>49</ns3:cad>
          </ns3:TrackPointExtension>
        </extensions>
      </trkpt>
      <trkpt lat="47.5294312275946140289306640625" lon="11.0258607007563114166259765625">
        <ele>1875</ele>
        <time>2026-09-01T08:20:38.000Z</time>
        <extensions>
          <ns3:TrackPointExtension>
            <ns3:hr>173</ns3:hr>
            <ns3:cad>48</ns3:cad>
          </ns3:TrackPointExtension>
        </extensions>
      </trkpt>
      <trkpt lat="47.52943164668977260589599609375" lon="11.0258705914020538330078125">
        <ele>1875.5999755859375</ele>
        <time>2026-09-01T08:20:39.000Z</time>
        <extensions>
          <ns3:TrackPointExtension>
            <ns3:hr>173</ns3:hr>
            <ns3:cad>0</ns3:cad>
          </ns3:TrackPointExtension>
        </extensions>
      </trkpt>
      <trkpt lat="47.5294317305088043212890625" lon="11.025880314409732818603515625">
        <ele>1876.4000244140625</ele>
        <time>2026-09-01T08:20:40.000Z</time>
        <extensions>
          <ns3:TrackPointExtension>
            <ns3:hr>174</ns3:hr>
            <ns3:cad>0</ns3:cad>
          </ns3:TrackPointExtension>
        </extensions>
      </trkpt>
      <trkpt lat="47.52943105995655059814453125" lon="11.02589699439704418182373046875">
        <ele>1877</ele>
        <time>2026-09-01T08:20:41.000Z</time>
        <extensions>
          <ns3:TrackPointExtension>
            <ns3:hr>174</ns3:hr>
            <ns3:cad>0</ns3:cad>
          </ns3:TrackPointExtension>
        </extensions>
      </trkpt>
      <trkpt lat="47.52943483181297779083251953125" lon="11.0259022749960422515869140625">
        <ele>1877.800048828125</ele>
        <time>2026-09-01T08:20:42.000Z</time>
        <extensions>
          <ns3:TrackPointExtension>
            <ns3:hr>174</ns3:hr>
            <ns3:cad>0</ns3:cad>
          </ns3:TrackPointExtension>
        </extensions>
      </trkpt>
      <trkpt lat="47.529436759650707244873046875" lon="11.02591292001307010650634765625">
        <ele>1878.4000244140625</ele>
        <time>2026-09-01T08:20:43.000Z</time>
        <extensions>
          <ns3:TrackPointExtension>
            <ns3:hr>174</ns3:hr>
            <ns3:cad>0</ns3:cad>
          </ns3:TrackPointExtension>
        </extensions>
      </trkpt>
      <trkpt lat="47.52943919040262699127197265625" lon="11.02592750452458858489990234375">
        <ele>1879</ele>
        <time>2026-09-01T08:20:44.000Z</time>
        <extensions>
          <ns3:TrackPointExtension>
            <ns3:hr>173</ns3:hr>
            <ns3:cad>0</ns3:cad>
          </ns3:TrackPointExtension>
        </extensions>
      </trkpt>
      <trkpt lat="47.52944103442132472991943359375" lon="11.02594208903610706329345703125">
        <ele>1879.5999755859375</ele>
        <time>2026-09-01T08:20:45.000Z</time>
        <extensions>
          <ns3:TrackPointExtension>
            <ns3:hr>174</ns3:hr>
            <ns3:cad>0</ns3:cad>
          </ns3:TrackPointExtension>
        </extensions>
      </trkpt>
      <trkpt lat="47.52944271080195903778076171875" lon="11.02595265023410320281982421875">
        <ele>1880</ele>
        <time>2026-09-01T08:20:46.000Z</time>
        <extensions>
          <ns3:TrackPointExtension>
            <ns3:hr>174</ns3:hr>
            <ns3:cad>0</ns3:cad>
          </ns3:TrackPointExtension>
        </extensions>
      </trkpt>
      <trkpt lat="47.52943516708910465240478515625" lon="11.0259713418781757354736328125">
        <ele>1880.4000244140625</ele>
        <time>2026-09-01T08:20:47.000Z</time>
        <extensions>
          <ns3:TrackPointExtension>
            <ns3:hr>173</ns3:hr>
            <ns3:cad>0</ns3:cad>
          </ns3:TrackPointExtension>
        </extensions>
      </trkpt>
      <trkpt lat="47.5294382683932781219482421875" lon="11.02598634548485279083251953125">
        <ele>1881</ele>
        <time>2026-09-01T08:20:48.000Z</time>
        <extensions>
          <ns3:TrackPointExtension>
            <ns3:hr>173</ns3:hr>
            <ns3:cad>0</ns3:cad>
          </ns3:TrackPointExtension>
        </extensions>
      </trkpt>
      <trkpt lat="47.5294451415538787841796875" lon="11.025996990501880645751953125">
        <ele>1881.4000244140625</ele>
        <time>2026-09-01T08:20:49.000Z</time>
        <extensions>
          <ns3:TrackPointExtension>
            <ns3:hr>173</ns3:hr>
            <ns3:cad>0</ns3:cad>
          </ns3:TrackPointExtension>
        </extensions>
      </trkpt>
      <trkpt lat="47.5294543616473674774169921875" lon="11.02599523030221462249755859375">
        <ele>1882</ele>
        <time>2026-09-01T08:20:50.000Z</time>
        <extensions>
          <ns3:TrackPointExtension>
            <ns3:hr>173</ns3:hr>
            <ns3:cad>0</ns3:cad>
          </ns3:TrackPointExtension>
        </extensions>
      </trkpt>
      <trkpt lat="47.5294644199311733245849609375" lon="11.0260085575282573699951171875">
        <ele>1882.199951171875</ele>
        <time>2026-09-01T08:20:51.000Z</time>
        <extensions>
          <ns3:TrackPointExtension>
            <ns3:hr>173</ns3:hr>
            <ns3:cad>0</ns3:cad>
          </ns3:TrackPointExtension>
        </extensions>
      </trkpt>
      <trkpt lat="47.5294674374163150787353515625" lon="11.0260109044611454010009765625">
        <ele>1882.800048828125</ele>
        <time>2026-09-01T08:20:52.000Z</time>
        <extensions>
          <ns3:TrackPointExtension>
            <ns3:hr>173</ns3:hr>
            <ns3:cad>0</ns3:cad>
          </ns3:TrackPointExtension>
        </extensions>
      </trkpt>
      <trkpt lat="47.529474310576915740966796875" lon="11.0260236449539661407470703125">
        <ele>1883</ele>
        <time>2026-09-01T08:20:53.000Z</time>
        <extensions>
          <ns3:TrackPointExtension>
            <ns3:hr>173</ns3:hr>
            <ns3:cad>0</ns3:cad>
          </ns3:TrackPointExtension>
        </extensions>
      </trkpt>
      <trkpt lat="47.52947757951915264129638671875" lon="11.02603864856064319610595703125">
        <ele>1883.4000244140625</ele>
        <time>2026-09-01T08:20:54.000Z</time>
        <extensions>
          <ns3:TrackPointExtension>
            <ns3:hr>173</ns3:hr>
            <ns3:cad>0</ns3:cad>
          </ns3:TrackPointExtension>
        </extensions>
      </trkpt>
      <trkpt lat="47.52947925589978694915771484375" lon="11.0260491259396076202392578125">
        <ele>1884</ele>
        <time>2026-09-01T08:20:55.000Z</time>
        <extensions>
          <ns3:TrackPointExtension>
            <ns3:hr>173</ns3:hr>
            <ns3:cad>0</ns3:cad>
          </ns3:TrackPointExtension>
        </extensions>
      </trkpt>
      <trkpt lat="47.529483698308467864990234375" lon="11.0260625369846820831298828125">
        <ele>1884.4000244140625</ele>
        <time>2026-09-01T08:20:56.000Z</time>
        <extensions>
          <ns3:TrackPointExtension>
            <ns3:hr>173</ns3:hr>
            <ns3:cad>0</ns3:cad>
          </ns3:TrackPointExtension>
        </extensions>
      </trkpt>
      <trkpt lat="47.529485709965229034423828125" lon="11.0260663926601409912109375">
        <ele>1884.800048828125</ele>
        <time>2026-09-01T08:20:57.000Z</time>
        <extensions>
          <ns3:TrackPointExtension>
            <ns3:hr>173</ns3:hr>
            <ns3:cad>0</ns3:cad>
          </ns3:TrackPointExtension>
        </extensions>
      </trkpt>
      <trkpt lat="47.529494762420654296875" lon="11.02607787586748600006103515625">
        <ele>1885.199951171875</ele>
        <time>2026-09-01T08:20:58.000Z</time>
        <extensions>
          <ns3:TrackPointExtension>
            <ns3:hr>173</ns3:hr>
            <ns3:cad>0</ns3:cad>
          </ns3:TrackPointExtension>
        </extensions>
      </trkpt>
      <trkpt lat="47.52950037829577922821044921875" lon="11.02607385255396366119384765625">
        <ele>1885.5999755859375</ele>
        <time>2026-09-01T08:20:59.000Z</time>
        <extensions>
          <ns3:TrackPointExtension>
            <ns3:hr>173</ns3:hr>
            <ns3:cad>50</ns3:cad>
          </ns3:TrackPointExtension>
        </extensions>
      </trkpt>
      <trkpt lat="47.52949987538158893585205078125" lon="11.0260798037052154541015625">
        <ele>1886.199951171875</ele>
        <time>2026-09-01T08:21:00.000Z</time>
        <extensions>
          <ns3:TrackPointExtension>
            <ns3:hr>173</ns3:hr>
            <ns3:cad>50</ns3:cad>
          </ns3:TrackPointExtension>
        </extensions>
      </trkpt>
      <trkpt lat="47.52950205467641353607177734375" lon="11.0260873474180698394775390625">
        <ele>1886.4000244140625</ele>
        <time>2026-09-01T08:21:01.000Z</time>
        <extensions>
          <ns3:TrackPointExtension>
            <ns3:hr>173</ns3:hr>
            <ns3:cad>50</ns3:cad>
          </ns3:TrackPointExtension>
        </extensions>
      </trkpt>
      <trkpt lat="47.52950289286673069000244140625" lon="11.02609933353960514068603515625">
        <ele>1886.800048828125</ele>
        <time>2026-09-01T08:21:02.000Z</time>
        <extensions>
          <ns3:TrackPointExtension>
            <ns3:hr>173</ns3:hr>
            <ns3:cad>0</ns3:cad>
          </ns3:TrackPointExtension>
        </extensions>
      </trkpt>
      <trkpt lat="47.5295046530663967132568359375" lon="11.02611224167048931121826171875">
        <ele>1887</ele>
        <time>2026-09-01T08:21:03.000Z</time>
        <extensions>
          <ns3:TrackPointExtension>
            <ns3:hr>173</ns3:hr>
            <ns3:cad>0</ns3:cad>
          </ns3:TrackPointExtension>
        </extensions>
      </trkpt>
      <trkpt lat="47.5295059941709041595458984375" lon="11.02612875401973724365234375">
        <ele>1887</ele>
        <time>2026-09-01T08:21:04.000Z</time>
        <extensions>
          <ns3:TrackPointExtension>
            <ns3:hr>173</ns3:hr>
            <ns3:cad>0</ns3:cad>
          </ns3:TrackPointExtension>
        </extensions>
      </trkpt>
      <trkpt lat="47.52950976602733135223388671875" lon="11.02614124305546283721923828125">
        <ele>1887</ele>
        <time>2026-09-01T08:21:05.000Z</time>
        <extensions>
          <ns3:TrackPointExtension>
            <ns3:hr>173</ns3:hr>
            <ns3:cad>0</ns3:cad>
          </ns3:TrackPointExtension>
        </extensions>
      </trkpt>
      <trkpt lat="47.5295150466263294219970703125" lon="11.02615691721439361572265625">
        <ele>1887</ele>
        <time>2026-09-01T08:21:06.000Z</time>
        <extensions>
          <ns3:TrackPointExtension>
            <ns3:hr>173</ns3:hr>
            <ns3:cad>0</ns3:cad>
          </ns3:TrackPointExtension>
        </extensions>
      </trkpt>
      <trkpt lat="47.5295200757682323455810546875" lon="11.02617242373526096343994140625">
        <ele>1887.199951171875</ele>
        <time>2026-09-01T08:21:07.000Z</time>
        <extensions>
          <ns3:TrackPointExtension>
            <ns3:hr>171</ns3:hr>
            <ns3:cad>0</ns3:cad>
          </ns3:TrackPointExtension>
        </extensions>
      </trkpt>
      <trkpt lat="47.5295261107385158538818359375" lon="11.0261870920658111572265625">
        <ele>1887.5999755859375</ele>
        <time>2026-09-01T08:21:08.000Z</time>
        <extensions>
          <ns3:TrackPointExtension>
            <ns3:hr>169</ns3:hr>
            <ns3:cad>0</ns3:cad>
          </ns3:TrackPointExtension>
        </extensions>
      </trkpt>
      <trkpt lat="47.52953172661364078521728515625" lon="11.026201508939266204833984375">
        <ele>1887.800048828125</ele>
        <time>2026-09-01T08:21:09.000Z</time>
        <extensions>
          <ns3:TrackPointExtension>
            <ns3:hr>167</ns3:hr>
            <ns3:cad>50</ns3:cad>
          </ns3:TrackPointExtension>
        </extensions>
      </trkpt>
      <trkpt lat="47.52953558228909969329833984375" lon="11.0262204520404338836669921875">
        <ele>1888.199951171875</ele>
        <time>2026-09-01T08:21:10.000Z</time>
        <extensions>
          <ns3:TrackPointExtension>
            <ns3:hr>166</ns3:hr>
            <ns3:cad>50</ns3:cad>
          </ns3:TrackPointExtension>
        </extensions>
      </trkpt>
      <trkpt lat="47.52953968942165374755859375" lon="11.02624031715095043182373046875">
        <ele>1888.4000244140625</ele>
        <time>2026-09-01T08:21:11.000Z</time>
        <extensions>
          <ns3:TrackPointExtension>
            <ns3:hr>166</ns3:hr>
            <ns3:cad>50</ns3:cad>
          </ns3:TrackPointExtension>
        </extensions>
      </trkpt>
      <trkpt lat="47.52954304218292236328125" lon="11.026260517537593841552734375">
        <ele>1888.5999755859375</ele>
        <time>2026-09-01T08:21:12.000Z</time>
        <extensions>
          <ns3:TrackPointExtension>
            <ns3:hr>166</ns3:hr>
            <ns3:cad>50</ns3:cad>
          </ns3:TrackPointExtension>
        </extensions>
      </trkpt>
      <trkpt lat="47.529543377459049224853515625" lon="11.0262814722955226898193359375">
        <ele>1888.800048828125</ele>
        <time>2026-09-01T08:21:13.000Z</time>
        <extensions>
          <ns3:TrackPointExtension>
            <ns3:hr>166</ns3:hr>
            <ns3:cad>48</ns3:cad>
          </ns3:TrackPointExtension>
        </extensions>
      </trkpt>
      <trkpt lat="47.52954295836389064788818359375" lon="11.02630318142473697662353515625">
        <ele>1888.800048828125</ele>
        <time>2026-09-01T08:21:14.000Z</time>
        <extensions>
          <ns3:TrackPointExtension>
            <ns3:hr>166</ns3:hr>
            <ns3:cad>48</ns3:cad>
          </ns3:TrackPointExtension>
        </extensions>
      </trkpt>
      <trkpt lat="47.52954111434519290924072265625" lon="11.02632111869752407073974609375">
        <ele>1888.800048828125</ele>
        <time>2026-09-01T08:21:15.000Z</time>
        <extensions>
          <ns3:TrackPointExtension>
            <ns3:hr>166</ns3:hr>
            <ns3:cad>48</ns3:cad>
          </ns3:TrackPointExtension>
        </extensions>
      </trkpt>
      <trkpt lat="47.529541365802288055419921875" lon="11.02634173817932605743408203125">
        <ele>1888.800048828125</ele>
        <time>2026-09-01T08:21:16.000Z</time>
        <extensions>
          <ns3:TrackPointExtension>
            <ns3:hr>165</ns3:hr>
            <ns3:cad>53</ns3:cad>
          </ns3:TrackPointExtension>
        </extensions>
      </trkpt>
      <trkpt lat="47.52954371273517608642578125" lon="11.0263592563569545745849609375">
        <ele>1888.800048828125</ele>
        <time>2026-09-01T08:21:17.000Z</time>
        <extensions>
          <ns3:TrackPointExtension>
            <ns3:hr>166</ns3:hr>
            <ns3:cad>53</ns3:cad>
          </ns3:TrackPointExtension>
        </extensions>
      </trkpt>
      <trkpt lat="47.52954597584903240203857421875" lon="11.0263793729245662689208984375">
        <ele>1888.800048828125</ele>
        <time>2026-09-01T08:21:18.000Z</time>
        <extensions>
          <ns3:TrackPointExtension>
            <ns3:hr>166</ns3:hr>
            <ns3:cad>53</ns3:cad>
          </ns3:TrackPointExtension>
        </extensions>
      </trkpt>
      <trkpt lat="47.5295489095151424407958984375" lon="11.0263988189399242401123046875">
        <ele>1888.800048828125</ele>
        <time>2026-09-01T08:21:19.000Z</time>
        <extensions>
          <ns3:TrackPointExtension>
            <ns3:hr>166</ns3:hr>
            <ns3:cad>53</ns3:cad>
          </ns3:TrackPointExtension>
        </extensions>
      </trkpt>
      <trkpt lat="47.5295522622764110565185546875" lon="11.02642119862139225006103515625">
        <ele>1889</ele>
        <time>2026-09-01T08:21:20.000Z</time>
        <extensions>
          <ns3:TrackPointExtension>
            <ns3:hr>165</ns3:hr>
            <ns3:cad>53</ns3:cad>
          </ns3:TrackPointExtension>
        </extensions>
      </trkpt>
      <trkpt lat="47.5295577943325042724609375" lon="11.02643796242773532867431640625">
        <ele>1889</ele>
        <time>2026-09-01T08:21:21.000Z</time>
        <extensions>
          <ns3:TrackPointExtension>
            <ns3:hr>166</ns3:hr>
            <ns3:cad>56</ns3:cad>
          </ns3:TrackPointExtension>
        </extensions>
      </trkpt>
      <trkpt lat="47.52956139855086803436279296875" lon="11.02645271457731723785400390625">
        <ele>1889.199951171875</ele>
        <time>2026-09-01T08:21:22.000Z</time>
        <extensions>
          <ns3:TrackPointExtension>
            <ns3:hr>166</ns3:hr>
            <ns3:cad>56</ns3:cad>
          </ns3:TrackPointExtension>
        </extensions>
      </trkpt>
      <trkpt lat="47.52956575714051723480224609375" lon="11.02646671235561370849609375">
        <ele>1889.199951171875</ele>
        <time>2026-09-01T08:21:23.000Z</time>
        <extensions>
          <ns3:TrackPointExtension>
            <ns3:hr>166</ns3:hr>
            <ns3:cad>52</ns3:cad>
          </ns3:TrackPointExtension>
        </extensions>
      </trkpt>
      <trkpt lat="47.52956726588308811187744140625" lon="11.02647903375327587127685546875">
        <ele>1889.4000244140625</ele>
        <time>2026-09-01T08:21:24.000Z</time>
        <extensions>
          <ns3:TrackPointExtension>
            <ns3:hr>167</ns3:hr>
            <ns3:cad>52</ns3:cad>
          </ns3:TrackPointExtension>
        </extensions>
      </trkpt>
      <trkpt lat="47.5295680202543735504150390625" lon="11.02648682892322540283203125">
        <ele>1889.5999755859375</ele>
        <time>2026-09-01T08:21:25.000Z</time>
        <extensions>
          <ns3:TrackPointExtension>
            <ns3:hr>167</ns3:hr>
            <ns3:cad>52</ns3:cad>
          </ns3:TrackPointExtension>
        </extensions>
      </trkpt>
      <trkpt lat="47.529568187892436981201171875" lon="11.02650023996829986572265625">
        <ele>1889.800048828125</ele>
        <time>2026-09-01T08:21:26.000Z</time>
        <extensions>
          <ns3:TrackPointExtension>
            <ns3:hr>167</ns3:hr>
            <ns3:cad>52</ns3:cad>
          </ns3:TrackPointExtension>
        </extensions>
      </trkpt>
      <trkpt lat="47.52956793643534183502197265625" lon="11.02652169764041900634765625">
        <ele>1889.800048828125</ele>
        <time>2026-09-01T08:21:27.000Z</time>
        <extensions>
          <ns3:TrackPointExtension>
            <ns3:hr>167</ns3:hr>
            <ns3:cad>52</ns3:cad>
          </ns3:TrackPointExtension>
        </extensions>
      </trkpt>
      <trkpt lat="47.529570199549198150634765625" lon="11.0265443287789821624755859375">
        <ele>1890</ele>
        <time>2026-09-01T08:21:28.000Z</time>
        <extensions>
          <ns3:TrackPointExtension>
            <ns3:hr>168</ns3:hr>
            <ns3:cad>52</ns3:cad>
          </ns3:TrackPointExtension>
        </extensions>
      </trkpt>
      <trkpt lat="47.5295713730156421661376953125" lon="11.0265671275556087493896484375">
        <ele>1890</ele>
        <time>2026-09-01T08:21:29.000Z</time>
        <extensions>
          <ns3:TrackPointExtension>
            <ns3:hr>167</ns3:hr>
            <ns3:cad>60</ns3:cad>
          </ns3:TrackPointExtension>
        </extensions>
      </trkpt>
      <trkpt lat="47.52957187592983245849609375" lon="11.0265902616083621978759765625">
        <ele>1890</ele>
        <time>2026-09-01T08:21:30.000Z</time>
        <extensions>
          <ns3:TrackPointExtension>
            <ns3:hr>166</ns3:hr>
            <ns3:cad>60</ns3:cad>
          </ns3:TrackPointExtension>
        </extensions>
      </trkpt>
      <trkpt lat="47.529571540653705596923828125" lon="11.02661699987947940826416015625">
        <ele>1889.800048828125</ele>
        <time>2026-09-01T08:21:31.000Z</time>
        <extensions>
          <ns3:TrackPointExtension>
            <ns3:hr>166</ns3:hr>
            <ns3:cad>60</ns3:cad>
          </ns3:TrackPointExtension>
        </extensions>
      </trkpt>
      <trkpt lat="47.52957212738692760467529296875" lon="11.026640050113201141357421875">
        <ele>1889.800048828125</ele>
        <time>2026-09-01T08:21:32.000Z</time>
        <extensions>
          <ns3:TrackPointExtension>
            <ns3:hr>166</ns3:hr>
            <ns3:cad>60</ns3:cad>
          </ns3:TrackPointExtension>
        </extensions>
      </trkpt>
      <trkpt lat="47.52957145683467388153076171875" lon="11.02666209451854228973388671875">
        <ele>1889.5999755859375</ele>
        <time>2026-09-01T08:21:33.000Z</time>
        <extensions>
          <ns3:TrackPointExtension>
            <ns3:hr>166</ns3:hr>
            <ns3:cad>60</ns3:cad>
          </ns3:TrackPointExtension>
        </extensions>
      </trkpt>
      <trkpt lat="47.52957179211080074310302734375" lon="11.0266817919909954071044921875">
        <ele>1889.5999755859375</ele>
        <time>2026-09-01T08:21:34.000Z</time>
        <extensions>
          <ns3:TrackPointExtension>
            <ns3:hr>165</ns3:hr>
            <ns3:cad>56</ns3:cad>
          </ns3:TrackPointExtension>
        </extensions>
      </trkpt>
      <trkpt lat="47.5295727141201496124267578125" lon="11.02669880725443363189697265625">
        <ele>1889.5999755859375</ele>
        <time>2026-09-01T08:21:35.000Z</time>
        <extensions>
          <ns3:TrackPointExtension>
            <ns3:hr>165</ns3:hr>
            <ns3:cad>56</ns3:cad>
          </ns3:TrackPointExtension>
        </extensions>
      </trkpt>
      <trkpt lat="47.529576234519481658935546875" lon="11.02671808563172817230224609375">
        <ele>1889.800048828125</ele>
        <time>2026-09-01T08:21:36.000Z</time>
        <extensions>
          <ns3:TrackPointExtension>
            <ns3:hr>165</ns3:hr>
            <ns3:cad>55</ns3:cad>
          </ns3:TrackPointExtension>
        </extensions>
      </trkpt>
      <trkpt lat="47.5295790843665599822998046875" lon="11.026737280189990997314453125">
        <ele>1890</ele>
        <time>2026-09-01T08:21:37.000Z</time>
        <extensions>
          <ns3:TrackPointExtension>
            <ns3:hr>165</ns3:hr>
            <ns3:cad>55</ns3:cad>
          </ns3:TrackPointExtension>
        </extensions>
      </trkpt>
      <trkpt lat="47.52958252094686031341552734375" lon="11.0267612524330615997314453125">
        <ele>1890.199951171875</ele>
        <time>2026-09-01T08:21:38.000Z</time>
        <extensions>
          <ns3:TrackPointExtension>
            <ns3:hr>165</ns3:hr>
            <ns3:cad>55</ns3:cad>
          </ns3:TrackPointExtension>
        </extensions>
      </trkpt>
      <trkpt lat="47.52958528697490692138671875" lon="11.0267843864858150482177734375">
        <ele>1890.4000244140625</ele>
        <time>2026-09-01T08:21:39.000Z</time>
        <extensions>
          <ns3:TrackPointExtension>
            <ns3:hr>165</ns3:hr>
            <ns3:cad>0</ns3:cad>
          </ns3:TrackPointExtension>
        </extensions>
      </trkpt>
      <trkpt lat="47.52958872355520725250244140625" lon="11.02680676616728305816650390625">
        <ele>1890.5999755859375</ele>
        <time>2026-09-01T08:21:40.000Z</time>
        <extensions>
          <ns3:TrackPointExtension>
            <ns3:hr>165</ns3:hr>
            <ns3:cad>0</ns3:cad>
          </ns3:TrackPointExtension>
        </extensions>
      </trkpt>
      <trkpt lat="47.52959333360195159912109375" lon="11.026830486953258514404296875">
        <ele>1890.800048828125</ele>
        <time>2026-09-01T08:21:41.000Z</time>
        <extensions>
          <ns3:TrackPointExtension>
            <ns3:hr>165</ns3:hr>
            <ns3:cad>0</ns3:cad>
          </ns3:TrackPointExtension>
        </extensions>
      </trkpt>
      <trkpt lat="47.52959794364869594573974609375" lon="11.02685705758631229400634765625">
        <ele>1891</ele>
        <time>2026-09-01T08:21:42.000Z</time>
        <extensions>
          <ns3:TrackPointExtension>
            <ns3:hr>164</ns3:hr>
            <ns3:cad>69</ns3:cad>
          </ns3:TrackPointExtension>
        </extensions>
      </trkpt>
      <trkpt lat="47.52960096113383769989013671875" lon="11.0268779285252094268798828125">
        <ele>1891.199951171875</ele>
        <time>2026-09-01T08:21:43.000Z</time>
        <extensions>
          <ns3:TrackPointExtension>
            <ns3:hr>164</ns3:hr>
            <ns3:cad>70</ns3:cad>
          </ns3:TrackPointExtension>
        </extensions>
      </trkpt>
      <trkpt lat="47.529602386057376861572265625" lon="11.026897542178630828857421875">
        <ele>1891.4000244140625</ele>
        <time>2026-09-01T08:21:44.000Z</time>
        <extensions>
          <ns3:TrackPointExtension>
            <ns3:hr>164</ns3:hr>
            <ns3:cad>70</ns3:cad>
          </ns3:TrackPointExtension>
        </extensions>
      </trkpt>
      <trkpt lat="47.52960498444736003875732421875" lon="11.0269184969365596771240234375">
        <ele>1891.5999755859375</ele>
        <time>2026-09-01T08:21:45.000Z</time>
        <extensions>
          <ns3:TrackPointExtension>
            <ns3:hr>163</ns3:hr>
            <ns3:cad>70</ns3:cad>
          </ns3:TrackPointExtension>
        </extensions>
      </trkpt>
      <trkpt lat="47.52960808575153350830078125" lon="11.02694020606577396392822265625">
        <ele>1891.5999755859375</ele>
        <time>2026-09-01T08:21:46.000Z</time>
        <extensions>
          <ns3:TrackPointExtension>
            <ns3:hr>163</ns3:hr>
            <ns3:cad>70</ns3:cad>
          </ns3:TrackPointExtension>
        </extensions>
      </trkpt>
      <trkpt lat="47.5296112708747386932373046875" lon="11.0269580595195293426513671875">
        <ele>1891.800048828125</ele>
        <time>2026-09-01T08:21:47.000Z</time>
        <extensions>
          <ns3:TrackPointExtension>
            <ns3:hr>163</ns3:hr>
            <ns3:cad>70</ns3:cad>
          </ns3:TrackPointExtension>
        </extensions>
      </trkpt>
      <trkpt lat="47.52961588092148303985595703125" lon="11.0269756615161895751953125">
        <ele>1891.800048828125</ele>
        <time>2026-09-01T08:21:48.000Z</time>
        <extensions>
          <ns3:TrackPointExtension>
            <ns3:hr>162</ns3:hr>
            <ns3:cad>70</ns3:cad>
          </ns3:TrackPointExtension>
        </extensions>
      </trkpt>
      <trkpt lat="47.529620490968227386474609375" lon="11.0269882343709468841552734375">
        <ele>1891.800048828125</ele>
        <time>2026-09-01T08:21:49.000Z</time>
        <extensions>
          <ns3:TrackPointExtension>
            <ns3:hr>162</ns3:hr>
            <ns3:cad>70</ns3:cad>
          </ns3:TrackPointExtension>
        </extensions>
      </trkpt>
      <trkpt lat="47.5296260230243206024169921875" lon="11.027004830539226531982421875">
        <ele>1892</ele>
        <time>2026-09-01T08:21:50.000Z</time>
        <extensions>
          <ns3:TrackPointExtension>
            <ns3:hr>161</ns3:hr>
            <ns3:cad>70</ns3:cad>
          </ns3:TrackPointExtension>
        </extensions>
      </trkpt>
      <trkpt lat="47.52963113598525524139404296875" lon="11.0270167328417301177978515625">
        <ele>1892.199951171875</ele>
        <time>2026-09-01T08:21:51.000Z</time>
        <extensions>
          <ns3:TrackPointExtension>
            <ns3:hr>161</ns3:hr>
            <ns3:cad>70</ns3:cad>
          </ns3:TrackPointExtension>
        </extensions>
      </trkpt>
      <trkpt lat="47.52963901497423648834228515625" lon="11.0270308144390583038330078125">
        <ele>1892.199951171875</ele>
        <time>2026-09-01T08:21:52.000Z</time>
        <extensions>
          <ns3:TrackPointExtension>
            <ns3:hr>161</ns3:hr>
            <ns3:cad>70</ns3:cad>
          </ns3:TrackPointExtension>
        </extensions>
      </trkpt>
      <trkpt lat="47.52964295446872711181640625" lon="11.02704648859798908233642578125">
        <ele>1892.4000244140625</ele>
        <time>2026-09-01T08:21:53.000Z</time>
        <extensions>
          <ns3:TrackPointExtension>
            <ns3:hr>161</ns3:hr>
            <ns3:cad>70</ns3:cad>
          </ns3:TrackPointExtension>
        </extensions>
      </trkpt>
      <trkpt lat="47.52964857034385204315185546875" lon="11.027063168585300445556640625">
        <ele>1892.5999755859375</ele>
        <time>2026-09-01T08:21:54.000Z</time>
        <extensions>
          <ns3:TrackPointExtension>
            <ns3:hr>162</ns3:hr>
            <ns3:cad>70</ns3:cad>
          </ns3:TrackPointExtension>
        </extensions>
      </trkpt>
      <trkpt lat="47.52965259365737438201904296875" lon="11.02707951329648494720458984375">
        <ele>1892.800048828125</ele>
        <time>2026-09-01T08:21:55.000Z</time>
        <extensions>
          <ns3:TrackPointExtension>
            <ns3:hr>161</ns3:hr>
            <ns3:cad>53</ns3:cad>
          </ns3:TrackPointExtension>
        </extensions>
      </trkpt>
      <trkpt lat="47.52965661697089672088623046875" lon="11.027095019817352294921875">
        <ele>1893</ele>
        <time>2026-09-01T08:21:56.000Z</time>
        <extensions>
          <ns3:TrackPointExtension>
            <ns3:hr>161</ns3:hr>
            <ns3:cad>53</ns3:cad>
          </ns3:TrackPointExtension>
        </extensions>
      </trkpt>
      <trkpt lat="47.52965862862765789031982421875" lon="11.027113460004329681396484375">
        <ele>1893.199951171875</ele>
        <time>2026-09-01T08:21:57.000Z</time>
        <extensions>
          <ns3:TrackPointExtension>
            <ns3:hr>161</ns3:hr>
            <ns3:cad>53</ns3:cad>
          </ns3:TrackPointExtension>
        </extensions>
      </trkpt>
      <trkpt lat="47.529664076864719390869140625" lon="11.02712410502135753631591796875">
        <ele>1893.4000244140625</ele>
        <time>2026-09-01T08:21:58.000Z</time>
        <extensions>
          <ns3:TrackPointExtension>
            <ns3:hr>161</ns3:hr>
            <ns3:cad>53</ns3:cad>
          </ns3:TrackPointExtension>
        </extensions>
      </trkpt>
      <trkpt lat="47.52967388369143009185791015625" lon="11.02712812833487987518310546875">
        <ele>1893.4000244140625</ele>
        <time>2026-09-01T08:21:59.000Z</time>
        <extensions>
          <ns3:TrackPointExtension>
            <ns3:hr>161</ns3:hr>
            <ns3:cad>52</ns3:cad>
          </ns3:TrackPointExtension>
        </extensions>
      </trkpt>
      <trkpt lat="47.52968184649944305419921875" lon="11.0271392762660980224609375">
        <ele>1893.4000244140625</ele>
        <time>2026-09-01T08:22:00.000Z</time>
        <extensions>
          <ns3:TrackPointExtension>
            <ns3:hr>160</ns3:hr>
            <ns3:cad>52</ns3:cad>
          </ns3:TrackPointExtension>
        </extensions>
      </trkpt>
      <trkpt lat="47.5296887196600437164306640625" lon="11.027150340378284454345703125">
        <ele>1893.5999755859375</ele>
        <time>2026-09-01T08:22:01.000Z</time>
        <extensions>
          <ns3:TrackPointExtension>
            <ns3:hr>160</ns3:hr>
            <ns3:cad>53</ns3:cad>
          </ns3:TrackPointExtension>
        </extensions>
      </trkpt>
      <trkpt lat="47.52969953231513500213623046875" lon="11.027168445289134979248046875">
        <ele>1893.5999755859375</ele>
        <time>2026-09-01T08:22:02.000Z</time>
        <extensions>
          <ns3:TrackPointExtension>
            <ns3:hr>160</ns3:hr>
            <ns3:cad>53</ns3:cad>
          </ns3:TrackPointExtension>
        </extensions>
      </trkpt>
      <trkpt lat="47.529708333313465118408203125" lon="11.0271853767335414886474609375">
        <ele>1893.800048828125</ele>
        <time>2026-09-01T08:22:03.000Z</time>
        <extensions>
          <ns3:TrackPointExtension>
            <ns3:hr>160</ns3:hr>
            <ns3:cad>51</ns3:cad>
          </ns3:TrackPointExtension>
        </extensions>
      </trkpt>
      <trkpt lat="47.52971696667373180389404296875" lon="11.0272028110921382904052734375">
        <ele>1893.800048828125</ele>
        <time>2026-09-01T08:22:04.000Z</time>
        <extensions>
          <ns3:TrackPointExtension>
            <ns3:hr>160</ns3:hr>
            <ns3:cad>51</ns3:cad>
          </ns3:TrackPointExtension>
        </extensions>
      </trkpt>
      <trkpt lat="47.5297245942056179046630859375" lon="11.027218736708164215087890625">
        <ele>1894</ele>
        <time>2026-09-01T08:22:05.000Z</time>
        <extensions>
          <ns3:TrackPointExtension>
            <ns3:hr>159</ns3:hr>
            <ns3:cad>51</ns3:cad>
          </ns3:TrackPointExtension>
        </extensions>
      </trkpt>
      <trkpt lat="47.5297323055565357208251953125" lon="11.02723659016191959381103515625">
        <ele>1894</ele>
        <time>2026-09-01T08:22:06.000Z</time>
        <extensions>
          <ns3:TrackPointExtension>
            <ns3:hr>159</ns3:hr>
            <ns3:cad>51</ns3:cad>
          </ns3:TrackPointExtension>
        </extensions>
      </trkpt>
      <trkpt lat="47.529738843441009521484375" lon="11.02725218050181865692138671875">
        <ele>1894</ele>
        <time>2026-09-01T08:22:07.000Z</time>
        <extensions>
          <ns3:TrackPointExtension>
            <ns3:hr>156</ns3:hr>
            <ns3:cad>51</ns3:cad>
          </ns3:TrackPointExtension>
        </extensions>
      </trkpt>
      <trkpt lat="47.52974529750645160675048828125" lon="11.0272733867168426513671875">
        <ele>1894</ele>
        <time>2026-09-01T08:22:08.000Z</time>
        <extensions>
          <ns3:TrackPointExtension>
            <ns3:hr>153</ns3:hr>
            <ns3:cad>53</ns3:cad>
          </ns3:TrackPointExtension>
        </extensions>
      </trkpt>
      <trkpt lat="47.52975233830511569976806640625" lon="11.0273007117211818695068359375">
        <ele>1893.800048828125</ele>
        <time>2026-09-01T08:22:09.000Z</time>
        <extensions>
          <ns3:TrackPointExtension>
            <ns3:hr>151</ns3:hr>
            <ns3:cad>53</ns3:cad>
          </ns3:TrackPointExtension>
        </extensions>
      </trkpt>
      <trkpt lat="47.52975569106638431549072265625" lon="11.02731973864138126373291015625">
        <ele>1893.800048828125</ele>
        <time>2026-09-01T08:22:10.000Z</time>
        <extensions>
          <ns3:TrackPointExtension>
            <ns3:hr>150</ns3:hr>
            <ns3:cad>53</ns3:cad>
          </ns3:TrackPointExtension>
        </extensions>
      </trkpt>
      <trkpt lat="47.52976139076054096221923828125" lon="11.02734069339931011199951171875">
        <ele>1894</ele>
        <time>2026-09-01T08:22:11.000Z</time>
        <extensions>
          <ns3:TrackPointExtension>
            <ns3:hr>150</ns3:hr>
            <ns3:cad>53</ns3:cad>
          </ns3:TrackPointExtension>
        </extensions>
      </trkpt>
      <trkpt lat="47.52976457588374614715576171875" lon="11.02735586464405059814453125">
        <ele>1894.199951171875</ele>
        <time>2026-09-01T08:22:12.000Z</time>
        <extensions>
          <ns3:TrackPointExtension>
            <ns3:hr>149</ns3:hr>
            <ns3:cad>0</ns3:cad>
          </ns3:TrackPointExtension>
        </extensions>
      </trkpt>
      <trkpt lat="47.52976524643599987030029296875" lon="11.027391068637371063232421875">
        <ele>1894.199951171875</ele>
        <time>2026-09-01T08:22:13.000Z</time>
        <extensions>
          <ns3:TrackPointExtension>
            <ns3:hr>149</ns3:hr>
            <ns3:cad>0</ns3:cad>
          </ns3:TrackPointExtension>
        </extensions>
      </trkpt>
      <trkpt lat="47.529771029949188232421875" lon="11.02742157876491546630859375">
        <ele>1894.199951171875</ele>
        <time>2026-09-01T08:22:14.000Z</time>
        <extensions>
          <ns3:TrackPointExtension>
            <ns3:hr>149</ns3:hr>
            <ns3:cad>71</ns3:cad>
          </ns3:TrackPointExtension>
        </extensions>
      </trkpt>
      <trkpt lat="47.529776729643344879150390625" lon="11.0274556092917919158935546875">
        <ele>1894.199951171875</ele>
        <time>2026-09-01T08:22:15.000Z</time>
        <extensions>
          <ns3:TrackPointExtension>
            <ns3:hr>149</ns3:hr>
            <ns3:cad>71</ns3:cad>
          </ns3:TrackPointExtension>
        </extensions>
      </trkpt>
      <trkpt lat="47.5297872908413410186767578125" lon="11.027486622333526611328125">
        <ele>1894</ele>
        <time>2026-09-01T08:22:16.000Z</time>
        <extensions>
          <ns3:TrackPointExtension>
            <ns3:hr>148</ns3:hr>
            <ns3:cad>71</ns3:cad>
          </ns3:TrackPointExtension>
        </extensions>
      </trkpt>
      <trkpt lat="47.5297976844012737274169921875" lon="11.02751101367175579071044921875">
        <ele>1894</ele>
        <time>2026-09-01T08:22:17.000Z</time>
        <extensions>
          <ns3:TrackPointExtension>
            <ns3:hr>148</ns3:hr>
            <ns3:cad>71</ns3:cad>
          </ns3:TrackPointExtension>
        </extensions>
      </trkpt>
      <trkpt lat="47.52981134690344333648681640625" lon="11.02753750048577785491943359375">
        <ele>1893.800048828125</ele>
        <time>2026-09-01T08:22:18.000Z</time>
        <extensions>
          <ns3:TrackPointExtension>
            <ns3:hr>148</ns3:hr>
            <ns3:cad>90</ns3:cad>
          </ns3:TrackPointExtension>
        </extensions>
      </trkpt>
      <trkpt lat="47.52984588034451007843017578125" lon="11.02754051797091960906982421875">
        <ele>1894.199951171875</ele>
        <time>2026-09-01T08:22:19.000Z</time>
        <extensions>
          <ns3:TrackPointExtension>
            <ns3:hr>147</ns3:hr>
            <ns3:cad>90</ns3:cad>
          </ns3:TrackPointExtension>
        </extensions>
      </trkpt>
      <trkpt lat="47.5298556871712207794189453125" lon="11.0275612212717533111572265625">
        <ele>1894.5999755859375</ele>
        <time>2026-09-01T08:22:20.000Z</time>
        <extensions>
          <ns3:TrackPointExtension>
            <ns3:hr>147</ns3:hr>
            <ns3:cad>90</ns3:cad>
          </ns3:TrackPointExtension>
        </extensions>
      </trkpt>
      <trkpt lat="47.52986163832247257232666015625" lon="11.02757438085973262786865234375">
        <ele>1895.199951171875</ele>
        <time>2026-09-01T08:22:21.000Z</time>
        <extensions>
          <ns3:TrackPointExtension>
            <ns3:hr>147</ns3:hr>
            <ns3:cad>90</ns3:cad>
          </ns3:TrackPointExtension>
        </extensions>
      </trkpt>
      <trkpt lat="47.52986465580761432647705078125" lon="11.02759131230413913726806640625">
        <ele>1895.800048828125</ele>
        <time>2026-09-01T08:22:22.000Z</time>
        <extensions>
          <ns3:TrackPointExtension>
            <ns3:hr>147</ns3:hr>
            <ns3:cad>90</ns3:cad>
          </ns3:TrackPointExtension>
        </extensions>
      </trkpt>
      <trkpt lat="47.52987018786370754241943359375" lon="11.02760958485305309295654296875">
        <ele>1896.199951171875</ele>
        <time>2026-09-01T08:22:23.000Z</time>
        <extensions>
          <ns3:TrackPointExtension>
            <ns3:hr>147</ns3:hr>
            <ns3:cad>90</ns3:cad>
          </ns3:TrackPointExtension>
        </extensions>
      </trkpt>
      <trkpt lat="47.52987706102430820465087890625" lon="11.027629114687442779541015625">
        <ele>1896.5999755859375</ele>
        <time>2026-09-01T08:22:24.000Z</time>
        <extensions>
          <ns3:TrackPointExtension>
            <ns3:hr>148</ns3:hr>
            <ns3:cad>90</ns3:cad>
          </ns3:TrackPointExtension>
        </extensions>
      </trkpt>
      <trkpt lat="47.529882676899433135986328125" lon="11.02763573639094829559326171875">
        <ele>1897</ele>
        <time>2026-09-01T08:22:25.000Z</time>
        <extensions>
          <ns3:TrackPointExtension>
            <ns3:hr>147</ns3:hr>
            <ns3:cad>90</ns3:cad>
          </ns3:TrackPointExtension>
        </extensions>
      </trkpt>
      <trkpt lat="47.52989131025969982147216796875" lon="11.027644537389278411865234375">
        <ele>1897.199951171875</ele>
        <time>2026-09-01T08:22:26.000Z</time>
        <extensions>
          <ns3:TrackPointExtension>
            <ns3:hr>148</ns3:hr>
            <ns3:cad>90</ns3:cad>
          </ns3:TrackPointExtension>
        </extensions>
      </trkpt>
      <trkpt lat="47.52990446984767913818359375" lon="11.027663648128509521484375">
        <ele>1897.4000244140625</ele>
        <time>2026-09-01T08:22:27.000Z</time>
        <extensions>
          <ns3:TrackPointExtension>
            <ns3:hr>148</ns3:hr>
            <ns3:cad>90</ns3:cad>
          </ns3:TrackPointExtension>
        </extensions>
      </trkpt>
      <trkpt lat="47.52990941517055034637451171875" lon="11.0276909731328487396240234375">
        <ele>1897.800048828125</ele>
        <time>2026-09-01T08:22:28.000Z</time>
        <extensions>
          <ns3:TrackPointExtension>
            <ns3:hr>149</ns3:hr>
            <ns3:cad>90</ns3:cad>
          </ns3:TrackPointExtension>
        </extensions>
      </trkpt>
      <trkpt lat="47.529914192855358123779296875" lon="11.0277231596410274505615234375">
        <ele>1898</ele>
        <time>2026-09-01T08:22:29.000Z</time>
        <extensions>
          <ns3:TrackPointExtension>
            <ns3:hr>148</ns3:hr>
            <ns3:cad>90</ns3:cad>
          </ns3:TrackPointExtension>
        </extensions>
      </trkpt>
      <trkpt lat="47.52991779707372188568115234375" lon="11.027755849063396453857421875">
        <ele>1898.199951171875</ele>
        <time>2026-09-01T08:22:30.000Z</time>
        <extensions>
          <ns3:TrackPointExtension>
            <ns3:hr>148</ns3:hr>
            <ns3:cad>90</ns3:cad>
          </ns3:TrackPointExtension>
        </extensions>
      </trkpt>
      <trkpt lat="47.529925592243671417236328125" lon="11.02778107859194278717041015625">
        <ele>1898.4000244140625</ele>
        <time>2026-09-01T08:22:31.000Z</time>
        <extensions>
          <ns3:TrackPointExtension>
            <ns3:hr>147</ns3:hr>
            <ns3:cad>90</ns3:cad>
          </ns3:TrackPointExtension>
        </extensions>
      </trkpt>
      <trkpt lat="47.5299351476132869720458984375" lon="11.027802787721157073974609375">
        <ele>1898.4000244140625</ele>
        <time>2026-09-01T08:22:32.000Z</time>
        <extensions>
          <ns3:TrackPointExtension>
            <ns3:hr>147</ns3:hr>
            <ns3:cad>0</ns3:cad>
          </ns3:TrackPointExtension>
        </extensions>
      </trkpt>
      <trkpt lat="47.52994897775352001190185546875" lon="11.0278395004570484161376953125">
        <ele>1898.4000244140625</ele>
        <time>2026-09-01T08:22:33.000Z</time>
        <extensions>
          <ns3:TrackPointExtension>
            <ns3:hr>146</ns3:hr>
            <ns3:cad>0</ns3:cad>
          </ns3:TrackPointExtension>
        </extensions>
      </trkpt>
      <trkpt lat="47.52996088005602359771728515625" lon="11.0278626345098018646240234375">
        <ele>1898.199951171875</ele>
        <time>2026-09-01T08:22:34.000Z</time>
        <extensions>
          <ns3:TrackPointExtension>
            <ns3:hr>147</ns3:hr>
            <ns3:cad>0</ns3:cad>
          </ns3:TrackPointExtension>
        </extensions>
      </trkpt>
      <trkpt lat="47.5299576111137866973876953125" lon="11.02788937278091907501220703125">
        <ele>1898.199951171875</ele>
        <time>2026-09-01T08:22:35.000Z</time>
        <extensions>
          <ns3:TrackPointExtension>
            <ns3:hr>147</ns3:hr>
            <ns3:cad>0</ns3:cad>
          </ns3:TrackPointExtension>
        </extensions>
      </trkpt>
      <trkpt lat="47.52996406517922878265380859375" lon="11.02792524732649326324462890625">
        <ele>1898</ele>
        <time>2026-09-01T08:22:36.000Z</time>
        <extensions>
          <ns3:TrackPointExtension>
            <ns3:hr>147</ns3:hr>
            <ns3:cad>0</ns3:cad>
          </ns3:TrackPointExtension>
        </extensions>
      </trkpt>
      <trkpt lat="47.52996557392179965972900390625" lon="11.02795399725437164306640625">
        <ele>1898</ele>
        <time>2026-09-01T08:22:37.000Z</time>
        <extensions>
          <ns3:TrackPointExtension>
            <ns3:hr>148</ns3:hr>
            <ns3:cad>76</ns3:cad>
          </ns3:TrackPointExtension>
        </extensions>
      </trkpt>
      <trkpt lat="47.52996884286403656005859375" lon="11.02797939442098140716552734375">
        <ele>1898</ele>
        <time>2026-09-01T08:22:38.000Z</time>
        <extensions>
          <ns3:TrackPointExtension>
            <ns3:hr>148</ns3:hr>
            <ns3:cad>76</ns3:cad>
          </ns3:TrackPointExtension>
        </extensions>
      </trkpt>
      <trkpt lat="47.52997512929141521453857421875" lon="11.0280158556997776031494140625">
        <ele>1898</ele>
        <time>2026-09-01T08:22:39.000Z</time>
        <extensions>
          <ns3:TrackPointExtension>
            <ns3:hr>148</ns3:hr>
            <ns3:cad>76</ns3:cad>
          </ns3:TrackPointExtension>
        </extensions>
      </trkpt>
      <trkpt lat="47.5299780629575252532958984375" lon="11.0280446894466876983642578125">
        <ele>1898.199951171875</ele>
        <time>2026-09-01T08:22:40.000Z</time>
        <extensions>
          <ns3:TrackPointExtension>
            <ns3:hr>148</ns3:hr>
            <ns3:cad>77</ns3:cad>
          </ns3:TrackPointExtension>
        </extensions>
      </trkpt>
      <trkpt lat="47.52998300828039646148681640625" lon="11.02806706912815570831298828125">
        <ele>1898.4000244140625</ele>
        <time>2026-09-01T08:22:41.000Z</time>
        <extensions>
          <ns3:TrackPointExtension>
            <ns3:hr>148</ns3:hr>
            <ns3:cad>77</ns3:cad>
          </ns3:TrackPointExtension>
        </extensions>
      </trkpt>
      <trkpt lat="47.52998820506036281585693359375" lon="11.02808902971446514129638671875">
        <ele>1898.5999755859375</ele>
        <time>2026-09-01T08:22:42.000Z</time>
        <extensions>
          <ns3:TrackPointExtension>
            <ns3:hr>148</ns3:hr>
            <ns3:cad>79</ns3:cad>
          </ns3:TrackPointExtension>
        </extensions>
      </trkpt>
      <trkpt lat="47.529994659125804901123046875" lon="11.02810763753950595855712890625">
        <ele>1898.5999755859375</ele>
        <time>2026-09-01T08:22:43.000Z</time>
        <extensions>
          <ns3:TrackPointExtension>
            <ns3:hr>149</ns3:hr>
            <ns3:cad>79</ns3:cad>
          </ns3:TrackPointExtension>
        </extensions>
      </trkpt>
      <trkpt lat="47.529998011887073516845703125" lon="11.028119288384914398193359375">
        <ele>1898.800048828125</ele>
        <time>2026-09-01T08:22:44.000Z</time>
        <extensions>
          <ns3:TrackPointExtension>
            <ns3:hr>148</ns3:hr>
            <ns3:cad>79</ns3:cad>
          </ns3:TrackPointExtension>
        </extensions>
      </trkpt>
      <trkpt lat="47.5299990177154541015625" lon="11.02813479490578174591064453125">
        <ele>1899</ele>
        <time>2026-09-01T08:22:45.000Z</time>
        <extensions>
          <ns3:TrackPointExtension>
            <ns3:hr>148</ns3:hr>
            <ns3:cad>79</ns3:cad>
          </ns3:TrackPointExtension>
        </extensions>
      </trkpt>
      <trkpt lat="47.53000161610543727874755859375" lon="11.0281442664563655853271484375">
        <ele>1899</ele>
        <time>2026-09-01T08:22:46.000Z</time>
        <extensions>
          <ns3:TrackPointExtension>
            <ns3:hr>148</ns3:hr>
            <ns3:cad>79</ns3:cad>
          </ns3:TrackPointExtension>
        </extensions>
      </trkpt>
      <trkpt lat="47.52999507822096347808837890625" lon="11.028148122131824493408203125">
        <ele>1899.199951171875</ele>
        <time>2026-09-01T08:22:47.000Z</time>
        <extensions>
          <ns3:TrackPointExtension>
            <ns3:hr>148</ns3:hr>
            <ns3:cad>79</ns3:cad>
          </ns3:TrackPointExtension>
        </extensions>
      </trkpt>
      <trkpt lat="47.529987953603267669677734375" lon="11.0281657241284847259521484375">
        <ele>1899.4000244140625</ele>
        <time>2026-09-01T08:22:48.000Z</time>
        <extensions>
          <ns3:TrackPointExtension>
            <ns3:hr>148</ns3:hr>
            <ns3:cad>79</ns3:cad>
          </ns3:TrackPointExtension>
        </extensions>
      </trkpt>
      <trkpt lat="47.52998468466103076934814453125" lon="11.02818223647773265838623046875">
        <ele>1899.199951171875</ele>
        <time>2026-09-01T08:22:49.000Z</time>
        <extensions>
          <ns3:TrackPointExtension>
            <ns3:hr>148</ns3:hr>
            <ns3:cad>79</ns3:cad>
          </ns3:TrackPointExtension>
        </extensions>
      </trkpt>
      <trkpt lat="47.52998451702296733856201171875" lon="11.0282022692263126373291015625">
        <ele>1899.199951171875</ele>
        <time>2026-09-01T08:22:50.000Z</time>
        <extensions>
          <ns3:TrackPointExtension>
            <ns3:hr>148</ns3:hr>
            <ns3:cad>79</ns3:cad>
          </ns3:TrackPointExtension>
        </extensions>
      </trkpt>
      <trkpt lat="47.52998937852680683135986328125" lon="11.02823336608707904815673828125">
        <ele>1899</ele>
        <time>2026-09-01T08:22:51.000Z</time>
        <extensions>
          <ns3:TrackPointExtension>
            <ns3:hr>148</ns3:hr>
            <ns3:cad>79</ns3:cad>
          </ns3:TrackPointExtension>
        </extensions>
      </trkpt>
      <trkpt lat="47.52999692223966121673583984375" lon="11.028253398835659027099609375">
        <ele>1898.5999755859375</ele>
        <time>2026-09-01T08:22:52.000Z</time>
        <extensions>
          <ns3:TrackPointExtension>
            <ns3:hr>148</ns3:hr>
            <ns3:cad>71</ns3:cad>
          </ns3:TrackPointExtension>
        </extensions>
      </trkpt>
      <trkpt lat="47.53000614233314990997314453125" lon="11.02827376686036586761474609375">
        <ele>1898.5999755859375</ele>
        <time>2026-09-01T08:22:53.000Z</time>
        <extensions>
          <ns3:TrackPointExtension>
            <ns3:hr>148</ns3:hr>
            <ns3:cad>71</ns3:cad>
          </ns3:TrackPointExtension>
        </extensions>
      </trkpt>
      <trkpt lat="47.5300119258463382720947265625" lon="11.0282854177057743072509765625">
        <ele>1898.5999755859375</ele>
        <time>2026-09-01T08:22:54.000Z</time>
        <extensions>
          <ns3:TrackPointExtension>
            <ns3:hr>147</ns3:hr>
            <ns3:cad>75</ns3:cad>
          </ns3:TrackPointExtension>
        </extensions>
      </trkpt>
      <trkpt lat="47.53002843819558620452880859375" lon="11.028302349150180816650390625">
        <ele>1898.5999755859375</ele>
        <time>2026-09-01T08:22:55.000Z</time>
        <extensions>
          <ns3:TrackPointExtension>
            <ns3:hr>147</ns3:hr>
            <ns3:cad>75</ns3:cad>
          </ns3:TrackPointExtension>
        </extensions>
      </trkpt>
      <trkpt lat="47.53003514371812343597412109375" lon="11.02831064723432064056396484375">
        <ele>1898.800048828125</ele>
        <time>2026-09-01T08:22:56.000Z</time>
        <extensions>
          <ns3:TrackPointExtension>
            <ns3:hr>147</ns3:hr>
            <ns3:cad>75</ns3:cad>
          </ns3:TrackPointExtension>
        </extensions>
      </trkpt>
      <trkpt lat="47.5300397537648677825927734375" lon="11.02831902913749217987060546875">
        <ele>1899</ele>
        <time>2026-09-01T08:22:57.000Z</time>
        <extensions>
          <ns3:TrackPointExtension>
            <ns3:hr>147</ns3:hr>
            <ns3:cad>75</ns3:cad>
          </ns3:TrackPointExtension>
        </extensions>
      </trkpt>
      <trkpt lat="47.53004386089742183685302734375" lon="11.02832816541194915771484375">
        <ele>1899.199951171875</ele>
        <time>2026-09-01T08:22:58.000Z</time>
        <extensions>
          <ns3:TrackPointExtension>
            <ns3:hr>146</ns3:hr>
            <ns3:cad>75</ns3:cad>
          </ns3:TrackPointExtension>
        </extensions>
      </trkpt>
      <trkpt lat="47.5300434418022632598876953125" lon="11.028338558971881866455078125">
        <ele>1899.199951171875</ele>
        <time>2026-09-01T08:22:59.000Z</time>
        <extensions>
          <ns3:TrackPointExtension>
            <ns3:hr>146</ns3:hr>
            <ns3:cad>47</ns3:cad>
          </ns3:TrackPointExtension>
        </extensions>
      </trkpt>
      <trkpt lat="47.53004134632647037506103515625" lon="11.02836194448173046112060546875">
        <ele>1899.4000244140625</ele>
        <time>2026-09-01T08:23:00.000Z</time>
        <extensions>
          <ns3:TrackPointExtension>
            <ns3:hr>145</ns3:hr>
            <ns3:cad>0</ns3:cad>
          </ns3:TrackPointExtension>
        </extensions>
      </trkpt>
      <trkpt lat="47.53004251979291439056396484375" lon="11.02838558144867420196533203125">
        <ele>1899.5999755859375</ele>
        <time>2026-09-01T08:23:01.000Z</time>
        <extensions>
          <ns3:TrackPointExtension>
            <ns3:hr>145</ns3:hr>
            <ns3:cad>0</ns3:cad>
          </ns3:TrackPointExtension>
        </extensions>
      </trkpt>
      <trkpt lat="47.53004235215485095977783203125" lon="11.02840435691177845001220703125">
        <ele>1899.5999755859375</ele>
        <time>2026-09-01T08:23:02.000Z</time>
        <extensions>
          <ns3:TrackPointExtension>
            <ns3:hr>144</ns3:hr>
            <ns3:cad>0</ns3:cad>
          </ns3:TrackPointExtension>
        </extensions>
      </trkpt>
      <trkpt lat="47.53004386089742183685302734375" lon="11.0284238867461681365966796875">
        <ele>1899.800048828125</ele>
        <time>2026-09-01T08:23:03.000Z</time>
        <extensions>
          <ns3:TrackPointExtension>
            <ns3:hr>144</ns3:hr>
            <ns3:cad>0</ns3:cad>
          </ns3:TrackPointExtension>
        </extensions>
      </trkpt>
      <trkpt lat="47.53004771657288074493408203125" lon="11.0284379683434963226318359375">
        <ele>1900</ele>
        <time>2026-09-01T08:23:04.000Z</time>
        <extensions>
          <ns3:TrackPointExtension>
            <ns3:hr>143</ns3:hr>
            <ns3:cad>0</ns3:cad>
          </ns3:TrackPointExtension>
        </extensions>
      </trkpt>
      <trkpt lat="47.53005291335284709930419921875" lon="11.028453223407268524169921875">
        <ele>1900.199951171875</ele>
        <time>2026-09-01T08:23:05.000Z</time>
        <extensions>
          <ns3:TrackPointExtension>
            <ns3:hr>143</ns3:hr>
            <ns3:cad>0</ns3:cad>
          </ns3:TrackPointExtension>
        </extensions>
      </trkpt>
      <trkpt lat="47.53006045706570148468017578125" lon="11.0284616053104400634765625">
        <ele>1900.4000244140625</ele>
        <time>2026-09-01T08:23:06.000Z</time>
        <extensions>
          <ns3:TrackPointExtension>
            <ns3:hr>143</ns3:hr>
            <ns3:cad>50</ns3:cad>
          </ns3:TrackPointExtension>
        </extensions>
      </trkpt>
      <trkpt lat="47.5300679169595241546630859375" lon="11.0284701548516750335693359375">
        <ele>1900.5999755859375</ele>
        <time>2026-09-01T08:23:07.000Z</time>
        <extensions>
          <ns3:TrackPointExtension>
            <ns3:hr>143</ns3:hr>
            <ns3:cad>50</ns3:cad>
          </ns3:TrackPointExtension>
        </extensions>
      </trkpt>
      <trkpt lat="47.5300746224820613861083984375" lon="11.0284792073071002960205078125">
        <ele>1901</ele>
        <time>2026-09-01T08:23:08.000Z</time>
        <extensions>
          <ns3:TrackPointExtension>
            <ns3:hr>143</ns3:hr>
            <ns3:cad>50</ns3:cad>
          </ns3:TrackPointExtension>
        </extensions>
      </trkpt>
      <trkpt lat="47.5300809927284717559814453125" lon="11.0284892655909061431884765625">
        <ele>1901.4000244140625</ele>
        <time>2026-09-01T08:23:09.000Z</time>
        <extensions>
          <ns3:TrackPointExtension>
            <ns3:hr>143</ns3:hr>
            <ns3:cad>50</ns3:cad>
          </ns3:TrackPointExtension>
        </extensions>
      </trkpt>
      <trkpt lat="47.5300860218703746795654296875" lon="11.0284937918186187744140625">
        <ele>1901.800048828125</ele>
        <time>2026-09-01T08:23:10.000Z</time>
        <extensions>
          <ns3:TrackPointExtension>
            <ns3:hr>143</ns3:hr>
            <ns3:cad>48</ns3:cad>
          </ns3:TrackPointExtension>
        </extensions>
      </trkpt>
      <trkpt lat="47.53009029664099216461181640625" lon="11.02849580347537994384765625">
        <ele>1902.199951171875</ele>
        <time>2026-09-01T08:23:11.000Z</time>
        <extensions>
          <ns3:TrackPointExtension>
            <ns3:hr>143</ns3:hr>
            <ns3:cad>48</ns3:cad>
          </ns3:TrackPointExtension>
        </extensions>
      </trkpt>
      <trkpt lat="47.5300970859825611114501953125" lon="11.02849974296987056732177734375">
        <ele>1902.4000244140625</ele>
        <time>2026-09-01T08:23:12.000Z</time>
        <extensions>
          <ns3:TrackPointExtension>
            <ns3:hr>145</ns3:hr>
            <ns3:cad>48</ns3:cad>
          </ns3:TrackPointExtension>
        </extensions>
      </trkpt>
      <trkpt lat="47.5301054678857326507568359375" lon="11.0285098850727081298828125">
        <ele>1902.5999755859375</ele>
        <time>2026-09-01T08:23:13.000Z</time>
        <extensions>
          <ns3:TrackPointExtension>
            <ns3:hr>148</ns3:hr>
            <ns3:cad>48</ns3:cad>
          </ns3:TrackPointExtension>
        </extensions>
      </trkpt>
      <trkpt lat="47.53011141903698444366455078125" lon="11.0285237990319728851318359375">
        <ele>1902.5999755859375</ele>
        <time>2026-09-01T08:23:14.000Z</time>
        <extensions>
          <ns3:TrackPointExtension>
            <ns3:hr>150</ns3:hr>
            <ns3:cad>48</ns3:cad>
          </ns3:TrackPointExtension>
        </extensions>
      </trkpt>
      <trkpt lat="47.5300977565348148345947265625" lon="11.028535366058349609375">
        <ele>1902.5999755859375</ele>
        <time>2026-09-01T08:23:15.000Z</time>
        <extensions>
          <ns3:TrackPointExtension>
            <ns3:hr>151</ns3:hr>
            <ns3:cad>48</ns3:cad>
          </ns3:TrackPointExtension>
        </extensions>
      </trkpt>
      <trkpt lat="47.530101947486400604248046875" lon="11.0285581648349761962890625">
        <ele>1902.800048828125</ele>
        <time>2026-09-01T08:23:16.000Z</time>
        <extensions>
          <ns3:TrackPointExtension>
            <ns3:hr>151</ns3:hr>
            <ns3:cad>48</ns3:cad>
          </ns3:TrackPointExtension>
        </extensions>
      </trkpt>
      <trkpt lat="47.5301115028560161590576171875" lon="11.0285680554807186126708984375">
        <ele>1903</ele>
        <time>2026-09-01T08:23:17.000Z</time>
        <extensions>
          <ns3:TrackPointExtension>
            <ns3:hr>151</ns3:hr>
            <ns3:cad>48</ns3:cad>
          </ns3:TrackPointExtension>
        </extensions>
      </trkpt>
      <trkpt lat="47.5301210582256317138671875" lon="11.0285801254212856292724609375">
        <ele>1903.199951171875</ele>
        <time>2026-09-01T08:23:18.000Z</time>
        <extensions>
          <ns3:TrackPointExtension>
            <ns3:hr>152</ns3:hr>
            <ns3:cad>48</ns3:cad>
          </ns3:TrackPointExtension>
        </extensions>
      </trkpt>
      <trkpt lat="47.5301265902817249298095703125" lon="11.0285958833992481231689453125">
        <ele>1903.5999755859375</ele>
        <time>2026-09-01T08:23:19.000Z</time>
        <extensions>
          <ns3:TrackPointExtension>
            <ns3:hr>152</ns3:hr>
            <ns3:cad>50</ns3:cad>
          </ns3:TrackPointExtension>
        </extensions>
      </trkpt>
      <trkpt lat="47.5301322899758815765380859375" lon="11.0286096297204494476318359375">
        <ele>1903.800048828125</ele>
        <time>2026-09-01T08:23:20.000Z</time>
        <extensions>
          <ns3:TrackPointExtension>
            <ns3:hr>152</ns3:hr>
            <ns3:cad>50</ns3:cad>
          </ns3:TrackPointExtension>
        </extensions>
      </trkpt>
      <trkpt lat="47.530138157308101654052734375" lon="11.02862345986068248748779296875">
        <ele>1904.199951171875</ele>
        <time>2026-09-01T08:23:21.000Z</time>
        <extensions>
          <ns3:TrackPointExtension>
            <ns3:hr>152</ns3:hr>
            <ns3:cad>50</ns3:cad>
          </ns3:TrackPointExtension>
        </extensions>
      </trkpt>
      <trkpt lat="47.53014477901160717010498046875" lon="11.0286371223628520965576171875">
        <ele>1904.5999755859375</ele>
        <time>2026-09-01T08:23:22.000Z</time>
        <extensions>
          <ns3:TrackPointExtension>
            <ns3:hr>153</ns3:hr>
            <ns3:cad>50</ns3:cad>
          </ns3:TrackPointExtension>
        </extensions>
      </trkpt>
      <trkpt lat="47.5301510654389858245849609375" lon="11.028650701045989990234375">
        <ele>1905</ele>
        <time>2026-09-01T08:23:23.000Z</time>
        <extensions>
          <ns3:TrackPointExtension>
            <ns3:hr>156</ns3:hr>
            <ns3:cad>50</ns3:cad>
          </ns3:TrackPointExtension>
        </extensions>
      </trkpt>
      <trkpt lat="47.53015718422830104827880859375" lon="11.028666459023952484130859375">
        <ele>1905.199951171875</ele>
        <time>2026-09-01T08:23:24.000Z</time>
        <extensions>
          <ns3:TrackPointExtension>
            <ns3:hr>157</ns3:hr>
            <ns3:cad>50</ns3:cad>
          </ns3:TrackPointExtension>
        </extensions>
      </trkpt>
      <trkpt lat="47.530159614980220794677734375" lon="11.02868481539189815521240234375">
        <ele>1905.5999755859375</ele>
        <time>2026-09-01T08:23:25.000Z</time>
        <extensions>
          <ns3:TrackPointExtension>
            <ns3:hr>158</ns3:hr>
            <ns3:cad>50</ns3:cad>
          </ns3:TrackPointExtension>
        </extensions>
      </trkpt>
      <trkpt lat="47.53015768714249134063720703125" lon="11.02870794944465160369873046875">
        <ele>1906</ele>
        <time>2026-09-01T08:23:26.000Z</time>
        <extensions>
          <ns3:TrackPointExtension>
            <ns3:hr>161</ns3:hr>
            <ns3:cad>48</ns3:cad>
          </ns3:TrackPointExtension>
        </extensions>
      </trkpt>
      <trkpt lat="47.5301564298570156097412109375" lon="11.02872571907937526702880859375">
        <ele>1906.199951171875</ele>
        <time>2026-09-01T08:23:27.000Z</time>
        <extensions>
          <ns3:TrackPointExtension>
            <ns3:hr>161</ns3:hr>
            <ns3:cad>48</ns3:cad>
          </ns3:TrackPointExtension>
        </extensions>
      </trkpt>
      <trkpt lat="47.53014964051544666290283203125" lon="11.0287450812757015228271484375">
        <ele>1906.5999755859375</ele>
        <time>2026-09-01T08:23:28.000Z</time>
        <extensions>
          <ns3:TrackPointExtension>
            <ns3:hr>161</ns3:hr>
            <ns3:cad>48</ns3:cad>
          </ns3:TrackPointExtension>
        </extensions>
      </trkpt>
      <trkpt lat="47.53014762885868549346923828125" lon="11.0287578217685222625732421875">
        <ele>1907</ele>
        <time>2026-09-01T08:23:29.000Z</time>
        <extensions>
          <ns3:TrackPointExtension>
            <ns3:hr>162</ns3:hr>
            <ns3:cad>48</ns3:cad>
          </ns3:TrackPointExtension>
        </extensions>
      </trkpt>
      <trkpt lat="47.53014964051544666290283203125" lon="11.02877416647970676422119140625">
        <ele>1907.199951171875</ele>
        <time>2026-09-01T08:23:30.000Z</time>
        <extensions>
          <ns3:TrackPointExtension>
            <ns3:hr>162</ns3:hr>
            <ns3:cad>0</ns3:cad>
          </ns3:TrackPointExtension>
        </extensions>
      </trkpt>
      <trkpt lat="47.53014544956386089324951171875" lon="11.028796546161174774169921875">
        <ele>1907.4000244140625</ele>
        <time>2026-09-01T08:23:31.000Z</time>
        <extensions>
          <ns3:TrackPointExtension>
            <ns3:hr>162</ns3:hr>
            <ns3:cad>0</ns3:cad>
          </ns3:TrackPointExtension>
        </extensions>
      </trkpt>
      <trkpt lat="47.53013907931745052337646484375" lon="11.02883418090641498565673828125">
        <ele>1907.5999755859375</ele>
        <time>2026-09-01T08:23:32.000Z</time>
        <extensions>
          <ns3:TrackPointExtension>
            <ns3:hr>163</ns3:hr>
            <ns3:cad>0</ns3:cad>
          </ns3:TrackPointExtension>
        </extensions>
      </trkpt>
      <trkpt lat="47.530134133994579315185546875" lon="11.02886821143329143524169921875">
        <ele>1907.5999755859375</ele>
        <time>2026-09-01T08:23:33.000Z</time>
        <extensions>
          <ns3:TrackPointExtension>
            <ns3:hr>163</ns3:hr>
            <ns3:cad>0</ns3:cad>
          </ns3:TrackPointExtension>
        </extensions>
      </trkpt>
      <trkpt lat="47.53013111650943756103515625" lon="11.02889570407569408416748046875">
        <ele>1907.800048828125</ele>
        <time>2026-09-01T08:23:34.000Z</time>
        <extensions>
          <ns3:TrackPointExtension>
            <ns3:hr>163</ns3:hr>
            <ns3:cad>0</ns3:cad>
          </ns3:TrackPointExtension>
        </extensions>
      </trkpt>
      <trkpt lat="47.530130781233310699462890625" lon="11.02891280315816402435302734375">
        <ele>1907.800048828125</ele>
        <time>2026-09-01T08:23:35.000Z</time>
        <extensions>
          <ns3:TrackPointExtension>
            <ns3:hr>164</ns3:hr>
            <ns3:cad>0</ns3:cad>
          </ns3:TrackPointExtension>
        </extensions>
      </trkpt>
      <trkpt lat="47.53013120032846927642822265625" lon="11.02893392555415630340576171875">
        <ele>1907.800048828125</ele>
        <time>2026-09-01T08:23:36.000Z</time>
        <extensions>
          <ns3:TrackPointExtension>
            <ns3:hr>164</ns3:hr>
            <ns3:cad>0</ns3:cad>
          </ns3:TrackPointExtension>
        </extensions>
      </trkpt>
      <trkpt lat="47.53013111650943756103515625" lon="11.02895135991275310516357421875">
        <ele>1908</ele>
        <time>2026-09-01T08:23:37.000Z</time>
        <extensions>
          <ns3:TrackPointExtension>
            <ns3:hr>165</ns3:hr>
            <ns3:cad>77</ns3:cad>
          </ns3:TrackPointExtension>
        </extensions>
      </trkpt>
      <trkpt lat="47.53013522364199161529541015625" lon="11.0289616696536540985107421875">
        <ele>1908.199951171875</ele>
        <time>2026-09-01T08:23:38.000Z</time>
        <extensions>
          <ns3:TrackPointExtension>
            <ns3:hr>166</ns3:hr>
            <ns3:cad>77</ns3:cad>
          </ns3:TrackPointExtension>
        </extensions>
      </trkpt>
      <trkpt lat="47.53014008514583110809326171875" lon="11.0289737395942211151123046875">
        <ele>1908.5999755859375</ele>
        <time>2026-09-01T08:23:39.000Z</time>
        <extensions>
          <ns3:TrackPointExtension>
            <ns3:hr>166</ns3:hr>
            <ns3:cad>41</ns3:cad>
          </ns3:TrackPointExtension>
        </extensions>
      </trkpt>
      <trkpt lat="47.53014595247805118560791015625" lon="11.028984971344470977783203125">
        <ele>1908.800048828125</ele>
        <time>2026-09-01T08:23:40.000Z</time>
        <extensions>
          <ns3:TrackPointExtension>
            <ns3:hr>166</ns3:hr>
            <ns3:cad>41</ns3:cad>
          </ns3:TrackPointExtension>
        </extensions>
      </trkpt>
      <trkpt lat="47.53015098161995410919189453125" lon="11.0289881564676761627197265625">
        <ele>1909</ele>
        <time>2026-09-01T08:23:41.000Z</time>
        <extensions>
          <ns3:TrackPointExtension>
            <ns3:hr>167</ns3:hr>
            <ns3:cad>41</ns3:cad>
          </ns3:TrackPointExtension>
        </extensions>
      </trkpt>
      <trkpt lat="47.53016590140759944915771484375" lon="11.02898639626801013946533203125">
        <ele>1909.199951171875</ele>
        <time>2026-09-01T08:23:42.000Z</time>
        <extensions>
          <ns3:TrackPointExtension>
            <ns3:hr>167</ns3:hr>
            <ns3:cad>41</ns3:cad>
          </ns3:TrackPointExtension>
        </extensions>
      </trkpt>
      <trkpt lat="47.53017847426235675811767578125" lon="11.028987653553485870361328125">
        <ele>1909.5999755859375</ele>
        <time>2026-09-01T08:23:43.000Z</time>
        <extensions>
          <ns3:TrackPointExtension>
            <ns3:hr>167</ns3:hr>
            <ns3:cad>0</ns3:cad>
          </ns3:TrackPointExtension>
        </extensions>
      </trkpt>
      <trkpt lat="47.53018878400325775146484375" lon="11.0289891622960567474365234375">
        <ele>1910</ele>
        <time>2026-09-01T08:23:44.000Z</time>
        <extensions>
          <ns3:TrackPointExtension>
            <ns3:hr>164</ns3:hr>
            <ns3:cad>0</ns3:cad>
          </ns3:TrackPointExtension>
        </extensions>
      </trkpt>
      <trkpt lat="47.53019121475517749786376953125" lon="11.0289972089231014251708984375">
        <ele>1910.4000244140625</ele>
        <time>2026-09-01T08:23:45.000Z</time>
        <extensions>
          <ns3:TrackPointExtension>
            <ns3:hr>164</ns3:hr>
            <ns3:cad>0</ns3:cad>
          </ns3:TrackPointExtension>
        </extensions>
      </trkpt>
      <trkpt lat="47.5301980040967464447021484375" lon="11.02900701574981212615966796875">
        <ele>1910.5999755859375</ele>
        <time>2026-09-01T08:23:46.000Z</time>
        <extensions>
          <ns3:TrackPointExtension>
            <ns3:hr>164</ns3:hr>
            <ns3:cad>0</ns3:cad>
          </ns3:TrackPointExtension>
        </extensions>
      </trkpt>
      <trkpt lat="47.53020898438990116119384765625" lon="11.02901472710072994232177734375">
        <ele>1910.800048828125</ele>
        <time>2026-09-01T08:23:47.000Z</time>
        <extensions>
          <ns3:TrackPointExtension>
            <ns3:hr>163</ns3:hr>
            <ns3:cad>43</ns3:cad>
          </ns3:TrackPointExtension>
        </extensions>
      </trkpt>
      <trkpt lat="47.530219964683055877685546875" lon="11.0290233604609966278076171875">
        <ele>1911</ele>
        <time>2026-09-01T08:23:48.000Z</time>
        <extensions>
          <ns3:TrackPointExtension>
            <ns3:hr>163</ns3:hr>
            <ns3:cad>44</ns3:cad>
          </ns3:TrackPointExtension>
        </extensions>
      </trkpt>
      <trkpt lat="47.53023010678589344024658203125" lon="11.02903467603027820587158203125">
        <ele>1911</ele>
        <time>2026-09-01T08:23:49.000Z</time>
        <extensions>
          <ns3:TrackPointExtension>
            <ns3:hr>162</ns3:hr>
            <ns3:cad>44</ns3:cad>
          </ns3:TrackPointExtension>
        </extensions>
      </trkpt>
      <trkpt lat="47.53024066798388957977294921875" lon="11.0290490090847015380859375">
        <ele>1911</ele>
        <time>2026-09-01T08:23:50.000Z</time>
        <extensions>
          <ns3:TrackPointExtension>
            <ns3:hr>162</ns3:hr>
            <ns3:cad>44</ns3:cad>
          </ns3:TrackPointExtension>
        </extensions>
      </trkpt>
      <trkpt lat="47.53025039099156856536865234375" lon="11.02906183339655399322509765625">
        <ele>1911.199951171875</ele>
        <time>2026-09-01T08:23:51.000Z</time>
        <extensions>
          <ns3:TrackPointExtension>
            <ns3:hr>162</ns3:hr>
            <ns3:cad>44</ns3:cad>
          </ns3:TrackPointExtension>
        </extensions>
      </trkpt>
      <trkpt lat="47.53026464022696018218994140625" lon="11.02907708846032619476318359375">
        <ele>1911.199951171875</ele>
        <time>2026-09-01T08:23:52.000Z</time>
        <extensions>
          <ns3:TrackPointExtension>
            <ns3:hr>162</ns3:hr>
            <ns3:cad>44</ns3:cad>
          </ns3:TrackPointExtension>
        </extensions>
      </trkpt>
      <trkpt lat="47.5302761234343051910400390625" lon="11.0290947742760181427001953125">
        <ele>1911</ele>
        <time>2026-09-01T08:23:53.000Z</time>
        <extensions>
          <ns3:TrackPointExtension>
            <ns3:hr>162</ns3:hr>
            <ns3:cad>47</ns3:cad>
          </ns3:TrackPointExtension>
        </extensions>
      </trkpt>
      <trkpt lat="47.53028576262295246124267578125" lon="11.0291080176830291748046875">
        <ele>1911</ele>
        <time>2026-09-01T08:23:54.000Z</time>
        <extensions>
          <ns3:TrackPointExtension>
            <ns3:hr>162</ns3:hr>
            <ns3:cad>47</ns3:cad>
          </ns3:TrackPointExtension>
        </extensions>
      </trkpt>
      <trkpt lat="47.530294395983219146728515625" lon="11.0291202552616596221923828125">
        <ele>1911</ele>
        <time>2026-09-01T08:23:55.000Z</time>
        <extensions>
          <ns3:TrackPointExtension>
            <ns3:hr>162</ns3:hr>
            <ns3:cad>53</ns3:cad>
          </ns3:TrackPointExtension>
        </extensions>
      </trkpt>
      <trkpt lat="47.5302989222109317779541015625" lon="11.0291336663067340850830078125">
        <ele>1911</ele>
        <time>2026-09-01T08:23:56.000Z</time>
        <extensions>
          <ns3:TrackPointExtension>
            <ns3:hr>162</ns3:hr>
            <ns3:cad>53</ns3:cad>
          </ns3:TrackPointExtension>
        </extensions>
      </trkpt>
      <trkpt lat="47.53029850311577320098876953125" lon="11.02914892137050628662109375">
        <ele>1911.199951171875</ele>
        <time>2026-09-01T08:23:57.000Z</time>
        <extensions>
          <ns3:TrackPointExtension>
            <ns3:hr>162</ns3:hr>
            <ns3:cad>53</ns3:cad>
          </ns3:TrackPointExtension>
        </extensions>
      </trkpt>
      <trkpt lat="47.53029204905033111572265625" lon="11.029178760945796966552734375">
        <ele>1911.199951171875</ele>
        <time>2026-09-01T08:23:58.000Z</time>
        <extensions>
          <ns3:TrackPointExtension>
            <ns3:hr>163</ns3:hr>
            <ns3:cad>53</ns3:cad>
          </ns3:TrackPointExtension>
        </extensions>
      </trkpt>
      <trkpt lat="47.5302873551845550537109375" lon="11.0292047448456287384033203125">
        <ele>1911.199951171875</ele>
        <time>2026-09-01T08:23:59.000Z</time>
        <extensions>
          <ns3:TrackPointExtension>
            <ns3:hr>162</ns3:hr>
            <ns3:cad>53</ns3:cad>
          </ns3:TrackPointExtension>
        </extensions>
      </trkpt>
      <trkpt lat="47.5302886962890625" lon="11.02922108955681324005126953125">
        <ele>1911.199951171875</ele>
        <time>2026-09-01T08:24:00.000Z</time>
        <extensions>
          <ns3:TrackPointExtension>
            <ns3:hr>162</ns3:hr>
            <ns3:cad>51</ns3:cad>
          </ns3:TrackPointExtension>
        </extensions>
      </trkpt>
      <trkpt lat="47.53028190694749355316162109375" lon="11.02924975566565990447998046875">
        <ele>1910.4000244140625</ele>
        <time>2026-09-01T08:24:01.000Z</time>
        <extensions>
          <ns3:TrackPointExtension>
            <ns3:hr>162</ns3:hr>
            <ns3:cad>0</ns3:cad>
          </ns3:TrackPointExtension>
        </extensions>
      </trkpt>
      <trkpt lat="47.53027872182428836822509765625" lon="11.02927071042358875274658203125">
        <ele>1909</ele>
        <time>2026-09-01T08:24:02.000Z</time>
        <extensions>
          <ns3:TrackPointExtension>
            <ns3:hr>162</ns3:hr>
            <ns3:cad>0</ns3:cad>
          </ns3:TrackPointExtension>
        </extensions>
      </trkpt>
      <trkpt lat="47.5302710942924022674560546875" lon="11.02929099462926387786865234375">
        <ele>1907.800048828125</ele>
        <time>2026-09-01T08:24:03.000Z</time>
        <extensions>
          <ns3:TrackPointExtension>
            <ns3:hr>162</ns3:hr>
            <ns3:cad>88</ns3:cad>
          </ns3:TrackPointExtension>
        </extensions>
      </trkpt>
      <trkpt lat="47.5302653945982456207275390625" lon="11.02932452224195003509521484375">
        <ele>1907.5999755859375</ele>
        <time>2026-09-01T08:24:04.000Z</time>
        <extensions>
          <ns3:TrackPointExtension>
            <ns3:hr>162</ns3:hr>
            <ns3:cad>88</ns3:cad>
          </ns3:TrackPointExtension>
        </extensions>
      </trkpt>
      <trkpt lat="47.530280984938144683837890625" lon="11.02935922332108020782470703125">
        <ele>1906.800048828125</ele>
        <time>2026-09-01T08:24:05.000Z</time>
        <extensions>
          <ns3:TrackPointExtension>
            <ns3:hr>162</ns3:hr>
            <ns3:cad>88</ns3:cad>
          </ns3:TrackPointExtension>
        </extensions>
      </trkpt>
      <trkpt lat="47.53028542734682559967041015625" lon="11.02938872762024402618408203125">
        <ele>1906.4000244140625</ele>
        <time>2026-09-01T08:24:06.000Z</time>
        <extensions>
          <ns3:TrackPointExtension>
            <ns3:hr>161</ns3:hr>
            <ns3:cad>88</ns3:cad>
          </ns3:TrackPointExtension>
        </extensions>
      </trkpt>
      <trkpt lat="47.53028643317520618438720703125" lon="11.02941353805363178253173828125">
        <ele>1906</ele>
        <time>2026-09-01T08:24:07.000Z</time>
        <extensions>
          <ns3:TrackPointExtension>
            <ns3:hr>161</ns3:hr>
            <ns3:cad>88</ns3:cad>
          </ns3:TrackPointExtension>
        </extensions>
      </trkpt>
      <trkpt lat="47.53029431216418743133544921875" lon="11.02945829741656780242919921875">
        <ele>1905.199951171875</ele>
        <time>2026-09-01T08:24:08.000Z</time>
        <extensions>
          <ns3:TrackPointExtension>
            <ns3:hr>161</ns3:hr>
            <ns3:cad>84</ns3:cad>
          </ns3:TrackPointExtension>
        </extensions>
      </trkpt>
      <trkpt lat="47.53029632382094860076904296875" lon="11.02947941981256008148193359375">
        <ele>1905</ele>
        <time>2026-09-01T08:24:09.000Z</time>
        <extensions>
          <ns3:TrackPointExtension>
            <ns3:hr>161</ns3:hr>
            <ns3:cad>84</ns3:cad>
          </ns3:TrackPointExtension>
        </extensions>
      </trkpt>
      <trkpt lat="47.53030939958989620208740234375" lon="11.0295269452035427093505859375">
        <ele>1904.5999755859375</ele>
        <time>2026-09-01T08:24:10.000Z</time>
        <extensions>
          <ns3:TrackPointExtension>
            <ns3:hr>161</ns3:hr>
            <ns3:cad>84</ns3:cad>
          </ns3:TrackPointExtension>
        </extensions>
      </trkpt>
      <trkpt lat="47.53032716922461986541748046875" lon="11.029564999043941497802734375">
        <ele>1903.4000244140625</ele>
        <time>2026-09-01T08:24:11.000Z</time>
        <extensions>
          <ns3:TrackPointExtension>
            <ns3:hr>160</ns3:hr>
            <ns3:cad>84</ns3:cad>
          </ns3:TrackPointExtension>
        </extensions>
      </trkpt>
      <trkpt lat="47.5303388200700283050537109375" lon="11.0296007059514522552490234375">
        <ele>1903</ele>
        <time>2026-09-01T08:24:12.000Z</time>
        <extensions>
          <ns3:TrackPointExtension>
            <ns3:hr>160</ns3:hr>
            <ns3:cad>84</ns3:cad>
          </ns3:TrackPointExtension>
        </extensions>
      </trkpt>
      <trkpt lat="47.53034963272511959075927734375" lon="11.02962040342390537261962890625">
        <ele>1902.800048828125</ele>
        <time>2026-09-01T08:24:13.000Z</time>
        <extensions>
          <ns3:TrackPointExtension>
            <ns3:hr>160</ns3:hr>
            <ns3:cad>84</ns3:cad>
          </ns3:TrackPointExtension>
        </extensions>
      </trkpt>
      <trkpt lat="47.53035382367670536041259765625" lon="11.02963599376380443572998046875">
        <ele>1903</ele>
        <time>2026-09-01T08:24:14.000Z</time>
        <extensions>
          <ns3:TrackPointExtension>
            <ns3:hr>160</ns3:hr>
            <ns3:cad>84</ns3:cad>
          </ns3:TrackPointExtension>
        </extensions>
      </trkpt>
      <trkpt lat="47.5303525663912296295166015625" lon="11.02966533042490482330322265625">
        <ele>1903</ele>
        <time>2026-09-01T08:24:15.000Z</time>
        <extensions>
          <ns3:TrackPointExtension>
            <ns3:hr>159</ns3:hr>
            <ns3:cad>84</ns3:cad>
          </ns3:TrackPointExtension>
        </extensions>
      </trkpt>
      <trkpt lat="47.530352063477039337158203125" lon="11.02969533763825893402099609375">
        <ele>1902.800048828125</ele>
        <time>2026-09-01T08:24:16.000Z</time>
        <extensions>
          <ns3:TrackPointExtension>
            <ns3:hr>159</ns3:hr>
            <ns3:cad>84</ns3:cad>
          </ns3:TrackPointExtension>
        </extensions>
      </trkpt>
      <trkpt lat="47.530361115932464599609375" lon="11.02971444837749004364013671875">
        <ele>1902.5999755859375</ele>
        <time>2026-09-01T08:24:17.000Z</time>
        <extensions>
          <ns3:TrackPointExtension>
            <ns3:hr>159</ns3:hr>
            <ns3:cad>84</ns3:cad>
          </ns3:TrackPointExtension>
        </extensions>
      </trkpt>
      <trkpt lat="47.530379556119441986083984375" lon="11.02974931709468364715576171875">
        <ele>1902</ele>
        <time>2026-09-01T08:24:18.000Z</time>
        <extensions>
          <ns3:TrackPointExtension>
            <ns3:hr>159</ns3:hr>
            <ns3:cad>84</ns3:cad>
          </ns3:TrackPointExtension>
        </extensions>
      </trkpt>
      <trkpt lat="47.53039556555449962615966796875" lon="11.0297730378806591033935546875">
        <ele>1901.4000244140625</ele>
        <time>2026-09-01T08:24:19.000Z</time>
        <extensions>
          <ns3:TrackPointExtension>
            <ns3:hr>159</ns3:hr>
            <ns3:cad>84</ns3:cad>
          </ns3:TrackPointExtension>
        </extensions>
      </trkpt>
      <trkpt lat="47.53041752614080905914306640625" lon="11.0297918133437633514404296875">
        <ele>1900.800048828125</ele>
        <time>2026-09-01T08:24:20.000Z</time>
        <extensions>
          <ns3:TrackPointExtension>
            <ns3:hr>158</ns3:hr>
            <ns3:cad>84</ns3:cad>
          </ns3:TrackPointExtension>
        </extensions>
      </trkpt>
      <trkpt lat="47.53042892552912235260009765625" lon="11.02981285192072391510009765625">
        <ele>1900.4000244140625</ele>
        <time>2026-09-01T08:24:21.000Z</time>
        <extensions>
          <ns3:TrackPointExtension>
            <ns3:hr>157</ns3:hr>
            <ns3:cad>84</ns3:cad>
          </ns3:TrackPointExtension>
        </extensions>
      </trkpt>
      <trkpt lat="47.5304509699344635009765625" lon="11.02981955744326114654541015625">
        <ele>1900</ele>
        <time>2026-09-01T08:24:22.000Z</time>
        <extensions>
          <ns3:TrackPointExtension>
            <ns3:hr>156</ns3:hr>
            <ns3:cad>87</ns3:cad>
          </ns3:TrackPointExtension>
        </extensions>
      </trkpt>
      <trkpt lat="47.530473768711090087890625" lon="11.0298162885010242462158203125">
        <ele>1899.5999755859375</ele>
        <time>2026-09-01T08:24:23.000Z</time>
        <extensions>
          <ns3:TrackPointExtension>
            <ns3:hr>155</ns3:hr>
            <ns3:cad>87</ns3:cad>
          </ns3:TrackPointExtension>
        </extensions>
      </trkpt>
      <trkpt lat="47.5304933823645114898681640625" lon="11.02981955744326114654541015625">
        <ele>1899</ele>
        <time>2026-09-01T08:24:24.000Z</time>
        <extensions>
          <ns3:TrackPointExtension>
            <ns3:hr>154</ns3:hr>
            <ns3:cad>87</ns3:cad>
          </ns3:TrackPointExtension>
        </extensions>
      </trkpt>
      <trkpt lat="47.5305222161114215850830078125" lon="11.0298085771501064300537109375">
        <ele>1898.199951171875</ele>
        <time>2026-09-01T08:24:25.000Z</time>
        <extensions>
          <ns3:TrackPointExtension>
            <ns3:hr>153</ns3:hr>
            <ns3:cad>87</ns3:cad>
          </ns3:TrackPointExtension>
        </extensions>
      </trkpt>
      <trkpt lat="47.53053235821425914764404296875" lon="11.0298045538365840911865234375">
        <ele>1897.4000244140625</ele>
        <time>2026-09-01T08:24:26.000Z</time>
        <extensions>
          <ns3:TrackPointExtension>
            <ns3:hr>153</ns3:hr>
            <ns3:cad>87</ns3:cad>
          </ns3:TrackPointExtension>
        </extensions>
      </trkpt>
      <trkpt lat="47.5305483676493167877197265625" lon="11.029804050922393798828125">
        <ele>1897</ele>
        <time>2026-09-01T08:24:27.000Z</time>
        <extensions>
          <ns3:TrackPointExtension>
            <ns3:hr>152</ns3:hr>
            <ns3:cad>87</ns3:cad>
          </ns3:TrackPointExtension>
        </extensions>
      </trkpt>
      <trkpt lat="47.53057091496884822845458984375" lon="11.02978955022990703582763671875">
        <ele>1896.4000244140625</ele>
        <time>2026-09-01T08:24:28.000Z</time>
        <extensions>
          <ns3:TrackPointExtension>
            <ns3:hr>152</ns3:hr>
            <ns3:cad>87</ns3:cad>
          </ns3:TrackPointExtension>
        </extensions>
      </trkpt>
      <trkpt lat="47.53057661466300487518310546875" lon="11.02977379225194454193115234375">
        <ele>1895.800048828125</ele>
        <time>2026-09-01T08:24:29.000Z</time>
        <extensions>
          <ns3:TrackPointExtension>
            <ns3:hr>152</ns3:hr>
            <ns3:cad>0</ns3:cad>
          </ns3:TrackPointExtension>
        </extensions>
      </trkpt>
      <trkpt lat="47.53058633767068386077880859375" lon="11.02975535206496715545654296875">
        <ele>1895.199951171875</ele>
        <time>2026-09-01T08:24:30.000Z</time>
        <extensions>
          <ns3:TrackPointExtension>
            <ns3:hr>151</ns3:hr>
            <ns3:cad>0</ns3:cad>
          </ns3:TrackPointExtension>
        </extensions>
      </trkpt>
      <trkpt lat="47.530595473945140838623046875" lon="11.02974479086697101593017578125">
        <ele>1895</ele>
        <time>2026-09-01T08:24:31.000Z</time>
        <extensions>
          <ns3:TrackPointExtension>
            <ns3:hr>151</ns3:hr>
            <ns3:cad>0</ns3:cad>
          </ns3:TrackPointExtension>
        </extensions>
      </trkpt>
      <trkpt lat="47.5306060351431369781494140625" lon="11.02974227629601955413818359375">
        <ele>1894.5999755859375</ele>
        <time>2026-09-01T08:24:32.000Z</time>
        <extensions>
          <ns3:TrackPointExtension>
            <ns3:hr>150</ns3:hr>
            <ns3:cad>0</ns3:cad>
          </ns3:TrackPointExtension>
        </extensions>
      </trkpt>
      <trkpt lat="47.53060695715248584747314453125" lon="11.02974076755344867706298828125">
        <ele>1894.4000244140625</ele>
        <time>2026-09-01T08:24:33.000Z</time>
        <extensions>
          <ns3:TrackPointExtension>
            <ns3:hr>150</ns3:hr>
            <ns3:cad>0</ns3:cad>
          </ns3:TrackPointExtension>
        </extensions>
      </trkpt>
      <trkpt lat="47.53060913644731044769287109375" lon="11.02973909117281436920166015625">
        <ele>1894.199951171875</ele>
        <time>2026-09-01T08:24:34.000Z</time>
        <extensions>
          <ns3:TrackPointExtension>
            <ns3:hr>150</ns3:hr>
            <ns3:cad>0</ns3:cad>
          </ns3:TrackPointExtension>
        </extensions>
      </trkpt>
      <trkpt lat="47.53061315976083278656005859375" lon="11.0297338105738162994384765625">
        <ele>1894</ele>
        <time>2026-09-01T08:24:35.000Z</time>
        <extensions>
          <ns3:TrackPointExtension>
            <ns3:hr>149</ns3:hr>
            <ns3:cad>0</ns3:cad>
          </ns3:TrackPointExtension>
        </extensions>
      </trkpt>
      <trkpt lat="47.53061902709305286407470703125" lon="11.0297302901744842529296875">
        <ele>1893.5999755859375</ele>
        <time>2026-09-01T08:24:36.000Z</time>
        <extensions>
          <ns3:TrackPointExtension>
            <ns3:hr>149</ns3:hr>
            <ns3:cad>0</ns3:cad>
          </ns3:TrackPointExtension>
        </extensions>
      </trkpt>
      <trkpt lat="47.5306254811584949493408203125" lon="11.0297264344990253448486328125">
        <ele>1893.199951171875</ele>
        <time>2026-09-01T08:24:37.000Z</time>
        <extensions>
          <ns3:TrackPointExtension>
            <ns3:hr>148</ns3:hr>
            <ns3:cad>0</ns3:cad>
          </ns3:TrackPointExtension>
        </extensions>
      </trkpt>
      <trkpt lat="47.530622966587543487548828125" lon="11.0297143645584583282470703125">
        <ele>1892.5999755859375</ele>
        <time>2026-09-01T08:24:38.000Z</time>
        <extensions>
          <ns3:TrackPointExtension>
            <ns3:hr>148</ns3:hr>
            <ns3:cad>0</ns3:cad>
          </ns3:TrackPointExtension>
        </extensions>
      </trkpt>
      <trkpt lat="47.53063713200390338897705078125" lon="11.0297026298940181732177734375">
        <ele>1892.199951171875</ele>
        <time>2026-09-01T08:24:39.000Z</time>
        <extensions>
          <ns3:TrackPointExtension>
            <ns3:hr>147</ns3:hr>
            <ns3:cad>0</ns3:cad>
          </ns3:TrackPointExtension>
        </extensions>
      </trkpt>
      <trkpt lat="47.5306512974202632904052734375" lon="11.02968980558216571807861328125">
        <ele>1891.5999755859375</ele>
        <time>2026-09-01T08:24:40.000Z</time>
        <extensions>
          <ns3:TrackPointExtension>
            <ns3:hr>147</ns3:hr>
            <ns3:cad>0</ns3:cad>
          </ns3:TrackPointExtension>
        </extensions>
      </trkpt>
      <trkpt lat="47.53066227771341800689697265625" lon="11.0296774841845035552978515625">
        <ele>1890.800048828125</ele>
        <time>2026-09-01T08:24:41.000Z</time>
        <extensions>
          <ns3:TrackPointExtension>
            <ns3:hr>147</ns3:hr>
            <ns3:cad>57</ns3:cad>
          </ns3:TrackPointExtension>
        </extensions>
      </trkpt>
      <trkpt lat="47.53067149780690670013427734375" lon="11.02968402206897735595703125">
        <ele>1890</ele>
        <time>2026-09-01T08:24:42.000Z</time>
        <extensions>
          <ns3:TrackPointExtension>
            <ns3:hr>146</ns3:hr>
            <ns3:cad>57</ns3:cad>
          </ns3:TrackPointExtension>
        </extensions>
      </trkpt>
      <trkpt lat="47.5306814722716808319091796875" lon="11.029689721763134002685546875">
        <ele>1889.199951171875</ele>
        <time>2026-09-01T08:24:43.000Z</time>
        <extensions>
          <ns3:TrackPointExtension>
            <ns3:hr>146</ns3:hr>
            <ns3:cad>57</ns3:cad>
          </ns3:TrackPointExtension>
        </extensions>
      </trkpt>
      <trkpt lat="47.5306911952793598175048828125" lon="11.02969466708600521087646484375">
        <ele>1888.4000244140625</ele>
        <time>2026-09-01T08:24:44.000Z</time>
        <extensions>
          <ns3:TrackPointExtension>
            <ns3:hr>146</ns3:hr>
            <ns3:cad>0</ns3:cad>
          </ns3:TrackPointExtension>
        </extensions>
      </trkpt>
      <trkpt lat="47.53070217557251453399658203125" lon="11.0297069884836673736572265625">
        <ele>1887.4000244140625</ele>
        <time>2026-09-01T08:24:45.000Z</time>
        <extensions>
          <ns3:TrackPointExtension>
            <ns3:hr>147</ns3:hr>
            <ns3:cad>0</ns3:cad>
          </ns3:TrackPointExtension>
        </extensions>
      </trkpt>
      <trkpt lat="47.5307116471230983734130859375" lon="11.02972383610904216766357421875">
        <ele>1886.4000244140625</ele>
        <time>2026-09-01T08:24:46.000Z</time>
        <extensions>
          <ns3:TrackPointExtension>
            <ns3:hr>147</ns3:hr>
            <ns3:cad>0</ns3:cad>
          </ns3:TrackPointExtension>
        </extensions>
      </trkpt>
      <trkpt lat="47.53072011284530162811279296875" lon="11.02973364293575286865234375">
        <ele>1885.4000244140625</ele>
        <time>2026-09-01T08:24:47.000Z</time>
        <extensions>
          <ns3:TrackPointExtension>
            <ns3:hr>148</ns3:hr>
            <ns3:cad>0</ns3:cad>
          </ns3:TrackPointExtension>
        </extensions>
      </trkpt>
      <trkpt lat="47.53073059022426605224609375" lon="11.029734648764133453369140625">
        <ele>1884.199951171875</ele>
        <time>2026-09-01T08:24:48.000Z</time>
        <extensions>
          <ns3:TrackPointExtension>
            <ns3:hr>148</ns3:hr>
            <ns3:cad>0</ns3:cad>
          </ns3:TrackPointExtension>
        </extensions>
      </trkpt>
      <trkpt lat="47.53074022941291332244873046875" lon="11.02973573841154575347900390625">
        <ele>1883.5999755859375</ele>
        <time>2026-09-01T08:24:49.000Z</time>
        <extensions>
          <ns3:TrackPointExtension>
            <ns3:hr>148</ns3:hr>
            <ns3:cad>0</ns3:cad>
          </ns3:TrackPointExtension>
        </extensions>
      </trkpt>
      <trkpt lat="47.5307485274970531463623046875" lon="11.02973137982189655303955078125">
        <ele>1882.800048828125</ele>
        <time>2026-09-01T08:24:50.000Z</time>
        <extensions>
          <ns3:TrackPointExtension>
            <ns3:hr>148</ns3:hr>
            <ns3:cad>77</ns3:cad>
          </ns3:TrackPointExtension>
        </extensions>
      </trkpt>
      <trkpt lat="47.53076286055147647857666015625" lon="11.029715873301029205322265625">
        <ele>1882</ele>
        <time>2026-09-01T08:24:51.000Z</time>
        <extensions>
          <ns3:TrackPointExtension>
            <ns3:hr>147</ns3:hr>
            <ns3:cad>77</ns3:cad>
          </ns3:TrackPointExtension>
        </extensions>
      </trkpt>
      <trkpt lat="47.53077350556850433349609375" lon="11.02971159853041172027587890625">
        <ele>1881.5999755859375</ele>
        <time>2026-09-01T08:24:52.000Z</time>
        <extensions>
          <ns3:TrackPointExtension>
            <ns3:hr>147</ns3:hr>
            <ns3:cad>77</ns3:cad>
          </ns3:TrackPointExtension>
        </extensions>
      </trkpt>
      <trkpt lat="47.5307860784232616424560546875" lon="11.0297120176255702972412109375">
        <ele>1881</ele>
        <time>2026-09-01T08:24:53.000Z</time>
        <extensions>
          <ns3:TrackPointExtension>
            <ns3:hr>147</ns3:hr>
            <ns3:cad>77</ns3:cad>
          </ns3:TrackPointExtension>
        </extensions>
      </trkpt>
      <trkpt lat="47.530799992382526397705078125" lon="11.029715202748775482177734375">
        <ele>1880.4000244140625</ele>
        <time>2026-09-01T08:24:54.000Z</time>
        <extensions>
          <ns3:TrackPointExtension>
            <ns3:hr>146</ns3:hr>
            <ns3:cad>77</ns3:cad>
          </ns3:TrackPointExtension>
        </extensions>
      </trkpt>
      <trkpt lat="47.530816085636615753173828125" lon="11.02973171509802341461181640625">
        <ele>1880</ele>
        <time>2026-09-01T08:24:55.000Z</time>
        <extensions>
          <ns3:TrackPointExtension>
            <ns3:hr>146</ns3:hr>
            <ns3:cad>77</ns3:cad>
          </ns3:TrackPointExtension>
        </extensions>
      </trkpt>
      <trkpt lat="47.5308286584913730621337890625" lon="11.029753424227237701416015625">
        <ele>1879.199951171875</ele>
        <time>2026-09-01T08:24:56.000Z</time>
        <extensions>
          <ns3:TrackPointExtension>
            <ns3:hr>145</ns3:hr>
            <ns3:cad>77</ns3:cad>
          </ns3:TrackPointExtension>
        </extensions>
      </trkpt>
      <trkpt lat="47.5308511219918727874755859375" lon="11.02976172231137752532958984375">
        <ele>1878.5999755859375</ele>
        <time>2026-09-01T08:24:57.000Z</time>
        <extensions>
          <ns3:TrackPointExtension>
            <ns3:hr>145</ns3:hr>
            <ns3:cad>77</ns3:cad>
          </ns3:TrackPointExtension>
        </extensions>
      </trkpt>
      <trkpt lat="47.5308672152459621429443359375" lon="11.02976557798683643341064453125">
        <ele>1877.5999755859375</ele>
        <time>2026-09-01T08:24:58.000Z</time>
        <extensions>
          <ns3:TrackPointExtension>
            <ns3:hr>145</ns3:hr>
            <ns3:cad>77</ns3:cad>
          </ns3:TrackPointExtension>
        </extensions>
      </trkpt>
      <trkpt lat="47.530883811414241790771484375" lon="11.0297495685517787933349609375">
        <ele>1876.800048828125</ele>
        <time>2026-09-01T08:24:59.000Z</time>
        <extensions>
          <ns3:TrackPointExtension>
            <ns3:hr>145</ns3:hr>
            <ns3:cad>77</ns3:cad>
          </ns3:TrackPointExtension>
        </extensions>
      </trkpt>
      <trkpt lat="47.53090065903961658477783203125" lon="11.0297485627233982086181640625">
        <ele>1876</ele>
        <time>2026-09-01T08:25:00.000Z</time>
        <extensions>
          <ns3:TrackPointExtension>
            <ns3:hr>145</ns3:hr>
            <ns3:cad>77</ns3:cad>
          </ns3:TrackPointExtension>
        </extensions>
      </trkpt>
      <trkpt lat="47.53089495934545993804931640625" lon="11.02975803427398204803466796875">
        <ele>1875.4000244140625</ele>
        <time>2026-09-01T08:25:01.000Z</time>
        <extensions>
          <ns3:TrackPointExtension>
            <ns3:hr>145</ns3:hr>
            <ns3:cad>77</ns3:cad>
          </ns3:TrackPointExtension>
        </extensions>
      </trkpt>
      <trkpt lat="47.530893199145793914794921875" lon="11.02977211587131023406982421875">
        <ele>1875</ele>
        <time>2026-09-01T08:25:02.000Z</time>
        <extensions>
          <ns3:TrackPointExtension>
            <ns3:hr>144</ns3:hr>
            <ns3:cad>77</ns3:cad>
          </ns3:TrackPointExtension>
        </extensions>
      </trkpt>
      <trkpt lat="47.5309104658663272857666015625" lon="11.0297773964703083038330078125">
        <ele>1874.800048828125</ele>
        <time>2026-09-01T08:25:03.000Z</time>
        <extensions>
          <ns3:TrackPointExtension>
            <ns3:hr>144</ns3:hr>
            <ns3:cad>77</ns3:cad>
          </ns3:TrackPointExtension>
        </extensions>
      </trkpt>
      <trkpt lat="47.53092295490205287933349609375" lon="11.0297824256122112274169921875">
        <ele>1874.5999755859375</ele>
        <time>2026-09-01T08:25:04.000Z</time>
        <extensions>
          <ns3:TrackPointExtension>
            <ns3:hr>144</ns3:hr>
            <ns3:cad>77</ns3:cad>
          </ns3:TrackPointExtension>
        </extensions>
      </trkpt>
      <trkpt lat="47.53094508312642574310302734375" lon="11.02978955022990703582763671875">
        <ele>1874.4000244140625</ele>
        <time>2026-09-01T08:25:05.000Z</time>
        <extensions>
          <ns3:TrackPointExtension>
            <ns3:hr>144</ns3:hr>
            <ns3:cad>77</ns3:cad>
          </ns3:TrackPointExtension>
        </extensions>
      </trkpt>
      <trkpt lat="47.53096620552241802215576171875" lon="11.0297918133437633514404296875">
        <ele>1873.199951171875</ele>
        <time>2026-09-01T08:25:06.000Z</time>
        <extensions>
          <ns3:TrackPointExtension>
            <ns3:hr>143</ns3:hr>
            <ns3:cad>77</ns3:cad>
          </ns3:TrackPointExtension>
        </extensions>
      </trkpt>
      <trkpt lat="47.5309755094349384307861328125" lon="11.0297991894185543060302734375">
        <ele>1872.199951171875</ele>
        <time>2026-09-01T08:25:07.000Z</time>
        <extensions>
          <ns3:TrackPointExtension>
            <ns3:hr>142</ns3:hr>
            <ns3:cad>77</ns3:cad>
          </ns3:TrackPointExtension>
        </extensions>
      </trkpt>
      <trkpt lat="47.53099034540355205535888671875" lon="11.02981335483491420745849609375">
        <ele>1871.4000244140625</ele>
        <time>2026-09-01T08:25:08.000Z</time>
        <extensions>
          <ns3:TrackPointExtension>
            <ns3:hr>142</ns3:hr>
            <ns3:cad>77</ns3:cad>
          </ns3:TrackPointExtension>
        </extensions>
      </trkpt>
      <trkpt lat="47.5310061872005462646484375" lon="11.02983196265995502471923828125">
        <ele>1871</ele>
        <time>2026-09-01T08:25:09.000Z</time>
        <extensions>
          <ns3:TrackPointExtension>
            <ns3:hr>142</ns3:hr>
            <ns3:cad>77</ns3:cad>
          </ns3:TrackPointExtension>
        </extensions>
      </trkpt>
      <trkpt lat="47.531017251312732696533203125" lon="11.02984084747731685638427734375">
        <ele>1870.4000244140625</ele>
        <time>2026-09-01T08:25:10.000Z</time>
        <extensions>
          <ns3:TrackPointExtension>
            <ns3:hr>142</ns3:hr>
            <ns3:cad>77</ns3:cad>
          </ns3:TrackPointExtension>
        </extensions>
      </trkpt>
      <trkpt lat="47.5310398824512958526611328125" lon="11.0298585332930088043212890625">
        <ele>1869.800048828125</ele>
        <time>2026-09-01T08:25:11.000Z</time>
        <extensions>
          <ns3:TrackPointExtension>
            <ns3:hr>141</ns3:hr>
            <ns3:cad>77</ns3:cad>
          </ns3:TrackPointExtension>
        </extensions>
      </trkpt>
      <trkpt lat="47.53106192685663700103759765625" lon="11.02987102232873439788818359375">
        <ele>1869.199951171875</ele>
        <time>2026-09-01T08:25:12.000Z</time>
        <extensions>
          <ns3:TrackPointExtension>
            <ns3:hr>141</ns3:hr>
            <ns3:cad>77</ns3:cad>
          </ns3:TrackPointExtension>
        </extensions>
      </trkpt>
      <trkpt lat="47.53108103759586811065673828125" lon="11.02988443337380886077880859375">
        <ele>1868.4000244140625</ele>
        <time>2026-09-01T08:25:13.000Z</time>
        <extensions>
          <ns3:TrackPointExtension>
            <ns3:hr>140</ns3:hr>
            <ns3:cad>77</ns3:cad>
          </ns3:TrackPointExtension>
        </extensions>
      </trkpt>
      <trkpt lat="47.53110199235379695892333984375" lon="11.0298930667340755462646484375">
        <ele>1867.5999755859375</ele>
        <time>2026-09-01T08:25:14.000Z</time>
        <extensions>
          <ns3:TrackPointExtension>
            <ns3:hr>140</ns3:hr>
            <ns3:cad>77</ns3:cad>
          </ns3:TrackPointExtension>
        </extensions>
      </trkpt>
      <trkpt lat="47.5311223603785037994384765625" lon="11.02990572340786457061767578125">
        <ele>1866.800048828125</ele>
        <time>2026-09-01T08:25:15.000Z</time>
        <extensions>
          <ns3:TrackPointExtension>
            <ns3:hr>139</ns3:hr>
            <ns3:cad>0</ns3:cad>
          </ns3:TrackPointExtension>
        </extensions>
      </trkpt>
      <trkpt lat="47.5311465002596378326416015625" lon="11.02991335093975067138671875">
        <ele>1866</ele>
        <time>2026-09-01T08:25:16.000Z</time>
        <extensions>
          <ns3:TrackPointExtension>
            <ns3:hr>138</ns3:hr>
            <ns3:cad>0</ns3:cad>
          </ns3:TrackPointExtension>
        </extensions>
      </trkpt>
      <trkpt lat="47.531171143054962158203125" lon="11.02993321605026721954345703125">
        <ele>1865.199951171875</ele>
        <time>2026-09-01T08:25:17.000Z</time>
        <extensions>
          <ns3:TrackPointExtension>
            <ns3:hr>137</ns3:hr>
            <ns3:cad>0</ns3:cad>
          </ns3:TrackPointExtension>
        </extensions>
      </trkpt>
      <trkpt lat="47.5311914272606372833251953125" lon="11.02993355132639408111572265625">
        <ele>1864.800048828125</ele>
        <time>2026-09-01T08:25:18.000Z</time>
        <extensions>
          <ns3:TrackPointExtension>
            <ns3:hr>136</ns3:hr>
            <ns3:cad>0</ns3:cad>
          </ns3:TrackPointExtension>
        </extensions>
      </trkpt>
      <trkpt lat="47.5312234461307525634765625" lon="11.0299292765557765960693359375">
        <ele>1864</ele>
        <time>2026-09-01T08:25:19.000Z</time>
        <extensions>
          <ns3:TrackPointExtension>
            <ns3:hr>135</ns3:hr>
            <ns3:cad>0</ns3:cad>
          </ns3:TrackPointExtension>
        </extensions>
      </trkpt>
      <trkpt lat="47.5312480889260768890380859375" lon="11.02992148138582706451416015625">
        <ele>1863.199951171875</ele>
        <time>2026-09-01T08:25:20.000Z</time>
        <extensions>
          <ns3:TrackPointExtension>
            <ns3:hr>134</ns3:hr>
            <ns3:cad>0</ns3:cad>
          </ns3:TrackPointExtension>
        </extensions>
      </trkpt>
      <trkpt lat="47.53127868287265300750732421875" lon="11.02991259656846523284912109375">
        <ele>1862.800048828125</ele>
        <time>2026-09-01T08:25:21.000Z</time>
        <extensions>
          <ns3:TrackPointExtension>
            <ns3:hr>135</ns3:hr>
            <ns3:cad>0</ns3:cad>
          </ns3:TrackPointExtension>
        </extensions>
      </trkpt>
      <trkpt lat="47.5313127972185611724853515625" lon="11.02990153245627880096435546875">
        <ele>1861.5999755859375</ele>
        <time>2026-09-01T08:25:22.000Z</time>
        <extensions>
          <ns3:TrackPointExtension>
            <ns3:hr>135</ns3:hr>
            <ns3:cad>0</ns3:cad>
          </ns3:TrackPointExtension>
        </extensions>
      </trkpt>
      <trkpt lat="47.5313349254429340362548828125" lon="11.0298927314579486846923828125">
        <ele>1861.5999755859375</ele>
        <time>2026-09-01T08:25:23.000Z</time>
        <extensions>
          <ns3:TrackPointExtension>
            <ns3:hr>135</ns3:hr>
            <ns3:cad>0</ns3:cad>
          </ns3:TrackPointExtension>
        </extensions>
      </trkpt>
      <trkpt lat="47.5313714705407619476318359375" lon="11.02991175837814807891845703125">
        <ele>1861.4000244140625</ele>
        <time>2026-09-01T08:25:24.000Z</time>
        <extensions>
          <ns3:TrackPointExtension>
            <ns3:hr>135</ns3:hr>
            <ns3:cad>0</ns3:cad>
          </ns3:TrackPointExtension>
        </extensions>
      </trkpt>
      <trkpt lat="47.531398124992847442626953125" lon="11.0299178771674633026123046875">
        <ele>1861.4000244140625</ele>
        <time>2026-09-01T08:25:25.000Z</time>
        <extensions>
          <ns3:TrackPointExtension>
            <ns3:hr>136</ns3:hr>
            <ns3:cad>88</ns3:cad>
          </ns3:TrackPointExtension>
        </extensions>
      </trkpt>
      <trkpt lat="47.5314246118068695068359375" lon="11.0299319587647914886474609375">
        <ele>1861.199951171875</ele>
        <time>2026-09-01T08:25:26.000Z</time>
        <extensions>
          <ns3:TrackPointExtension>
            <ns3:hr>136</ns3:hr>
            <ns3:cad>88</ns3:cad>
          </ns3:TrackPointExtension>
        </extensions>
      </trkpt>
      <trkpt lat="47.5314505957067012786865234375" lon="11.02993774227797985076904296875">
        <ele>1861</ele>
        <time>2026-09-01T08:25:27.000Z</time>
        <extensions>
          <ns3:TrackPointExtension>
            <ns3:hr>136</ns3:hr>
            <ns3:cad>88</ns3:cad>
          </ns3:TrackPointExtension>
        </extensions>
      </trkpt>
      <trkpt lat="47.53147833980619907379150390625" lon="11.0299480520188808441162109375">
        <ele>1860.5999755859375</ele>
        <time>2026-09-01T08:25:28.000Z</time>
        <extensions>
          <ns3:TrackPointExtension>
            <ns3:hr>137</ns3:hr>
            <ns3:cad>88</ns3:cad>
          </ns3:TrackPointExtension>
        </extensions>
      </trkpt>
      <trkpt lat="47.53149912692606449127197265625" lon="11.02996858768165111541748046875">
        <ele>1860</ele>
        <time>2026-09-01T08:25:29.000Z</time>
        <extensions>
          <ns3:TrackPointExtension>
            <ns3:hr>137</ns3:hr>
            <ns3:cad>88</ns3:cad>
          </ns3:TrackPointExtension>
        </extensions>
      </trkpt>
      <trkpt lat="47.53152661956846714019775390625" lon="11.029988117516040802001953125">
        <ele>1859.4000244140625</ele>
        <time>2026-09-01T08:25:30.000Z</time>
        <extensions>
          <ns3:TrackPointExtension>
            <ns3:hr>137</ns3:hr>
            <ns3:cad>88</ns3:cad>
          </ns3:TrackPointExtension>
        </extensions>
      </trkpt>
      <trkpt lat="47.53155461512506008148193359375" lon="11.03000530041754245758056640625">
        <ele>1858.199951171875</ele>
        <time>2026-09-01T08:25:31.000Z</time>
        <extensions>
          <ns3:TrackPointExtension>
            <ns3:hr>138</ns3:hr>
            <ns3:cad>88</ns3:cad>
          </ns3:TrackPointExtension>
        </extensions>
      </trkpt>
      <trkpt lat="47.5315833650529384613037109375" lon="11.0300244949758052825927734375">
        <ele>1857</ele>
        <time>2026-09-01T08:25:32.000Z</time>
        <extensions>
          <ns3:TrackPointExtension>
            <ns3:hr>139</ns3:hr>
            <ns3:cad>88</ns3:cad>
          </ns3:TrackPointExtension>
        </extensions>
      </trkpt>
      <trkpt lat="47.53160490654408931732177734375" lon="11.03003245778381824493408203125">
        <ele>1856.199951171875</ele>
        <time>2026-09-01T08:25:33.000Z</time>
        <extensions>
          <ns3:TrackPointExtension>
            <ns3:hr>140</ns3:hr>
            <ns3:cad>0</ns3:cad>
          </ns3:TrackPointExtension>
        </extensions>
      </trkpt>
      <trkpt lat="47.53162988461554050445556640625" lon="11.0300415940582752227783203125">
        <ele>1855.5999755859375</ele>
        <time>2026-09-01T08:25:34.000Z</time>
        <extensions>
          <ns3:TrackPointExtension>
            <ns3:hr>141</ns3:hr>
            <ns3:cad>0</ns3:cad>
          </ns3:TrackPointExtension>
        </extensions>
      </trkpt>
      <trkpt lat="47.53164832480251789093017578125" lon="11.030061207711696624755859375">
        <ele>1855.199951171875</ele>
        <time>2026-09-01T08:25:35.000Z</time>
        <extensions>
          <ns3:TrackPointExtension>
            <ns3:hr>141</ns3:hr>
            <ns3:cad>0</ns3:cad>
          </ns3:TrackPointExtension>
        </extensions>
      </trkpt>
      <trkpt lat="47.5316767394542694091796875" lon="11.03007419966161251068115234375">
        <ele>1855</ele>
        <time>2026-09-01T08:25:36.000Z</time>
        <extensions>
          <ns3:TrackPointExtension>
            <ns3:hr>142</ns3:hr>
            <ns3:cad>0</ns3:cad>
          </ns3:TrackPointExtension>
        </extensions>
      </trkpt>
      <trkpt lat="47.53170414827764034271240234375" lon="11.0300798155367374420166015625">
        <ele>1854.4000244140625</ele>
        <time>2026-09-01T08:25:37.000Z</time>
        <extensions>
          <ns3:TrackPointExtension>
            <ns3:hr>143</ns3:hr>
            <ns3:cad>0</ns3:cad>
          </ns3:TrackPointExtension>
        </extensions>
      </trkpt>
      <trkpt lat="47.53172946162521839141845703125" lon="11.030080318450927734375">
        <ele>1853.800048828125</ele>
        <time>2026-09-01T08:25:38.000Z</time>
        <extensions>
          <ns3:TrackPointExtension>
            <ns3:hr>144</ns3:hr>
            <ns3:cad>0</ns3:cad>
          </ns3:TrackPointExtension>
        </extensions>
      </trkpt>
      <trkpt lat="47.53175561316311359405517578125" lon="11.0300724394619464874267578125">
        <ele>1853.199951171875</ele>
        <time>2026-09-01T08:25:39.000Z</time>
        <extensions>
          <ns3:TrackPointExtension>
            <ns3:hr>144</ns3:hr>
            <ns3:cad>0</ns3:cad>
          </ns3:TrackPointExtension>
        </extensions>
      </trkpt>
      <trkpt lat="47.5317732989788055419921875" lon="11.030069924890995025634765625">
        <ele>1852.4000244140625</ele>
        <time>2026-09-01T08:25:40.000Z</time>
        <extensions>
          <ns3:TrackPointExtension>
            <ns3:hr>145</ns3:hr>
            <ns3:cad>84</ns3:cad>
          </ns3:TrackPointExtension>
        </extensions>
      </trkpt>
      <trkpt lat="47.5317974388599395751953125" lon="11.03006866760551929473876953125">
        <ele>1852</ele>
        <time>2026-09-01T08:25:41.000Z</time>
        <extensions>
          <ns3:TrackPointExtension>
            <ns3:hr>145</ns3:hr>
            <ns3:cad>84</ns3:cad>
          </ns3:TrackPointExtension>
        </extensions>
      </trkpt>
      <trkpt lat="47.53181830979883670806884765625" lon="11.0300784744322299957275390625">
        <ele>1851.5999755859375</ele>
        <time>2026-09-01T08:25:42.000Z</time>
        <extensions>
          <ns3:TrackPointExtension>
            <ns3:hr>145</ns3:hr>
            <ns3:cad>84</ns3:cad>
          </ns3:TrackPointExtension>
        </extensions>
      </trkpt>
      <trkpt lat="47.53184043802320957183837890625" lon="11.03009171783924102783203125">
        <ele>1851</ele>
        <time>2026-09-01T08:25:43.000Z</time>
        <extensions>
          <ns3:TrackPointExtension>
            <ns3:hr>145</ns3:hr>
            <ns3:cad>84</ns3:cad>
          </ns3:TrackPointExtension>
        </extensions>
      </trkpt>
      <trkpt lat="47.53185837529599666595458984375" lon="11.03012750856578350067138671875">
        <ele>1850.4000244140625</ele>
        <time>2026-09-01T08:25:44.000Z</time>
        <extensions>
          <ns3:TrackPointExtension>
            <ns3:hr>145</ns3:hr>
            <ns3:cad>84</ns3:cad>
          </ns3:TrackPointExtension>
        </extensions>
      </trkpt>
      <trkpt lat="47.5318740494549274444580078125" lon="11.03016086854040622711181640625">
        <ele>1849.800048828125</ele>
        <time>2026-09-01T08:25:45.000Z</time>
        <extensions>
          <ns3:TrackPointExtension>
            <ns3:hr>145</ns3:hr>
            <ns3:cad>84</ns3:cad>
          </ns3:TrackPointExtension>
        </extensions>
      </trkpt>
      <trkpt lat="47.53188419155776500701904296875" lon="11.03018500842154026031494140625">
        <ele>1849.199951171875</ele>
        <time>2026-09-01T08:25:46.000Z</time>
        <extensions>
          <ns3:TrackPointExtension>
            <ns3:hr>145</ns3:hr>
            <ns3:cad>84</ns3:cad>
          </ns3:TrackPointExtension>
        </extensions>
      </trkpt>
      <trkpt lat="47.531892322003841400146484375" lon="11.0302162729203701019287109375">
        <ele>1848.199951171875</ele>
        <time>2026-09-01T08:25:47.000Z</time>
        <extensions>
          <ns3:TrackPointExtension>
            <ns3:hr>145</ns3:hr>
            <ns3:cad>84</ns3:cad>
          </ns3:TrackPointExtension>
        </extensions>
      </trkpt>
      <trkpt lat="47.53190212883055210113525390625" lon="11.030237562954425811767578125">
        <ele>1847.4000244140625</ele>
        <time>2026-09-01T08:25:48.000Z</time>
        <extensions>
          <ns3:TrackPointExtension>
            <ns3:hr>145</ns3:hr>
            <ns3:cad>84</ns3:cad>
          </ns3:TrackPointExtension>
        </extensions>
      </trkpt>
      <trkpt lat="47.5319189764559268951416015625" lon="11.03026363067328929901123046875">
        <ele>1846.5999755859375</ele>
        <time>2026-09-01T08:25:49.000Z</time>
        <extensions>
          <ns3:TrackPointExtension>
            <ns3:hr>145</ns3:hr>
            <ns3:cad>45</ns3:cad>
          </ns3:TrackPointExtension>
        </extensions>
      </trkpt>
      <trkpt lat="47.53193398006260395050048828125" lon="11.0302893631160259246826171875">
        <ele>1845.800048828125</ele>
        <time>2026-09-01T08:25:50.000Z</time>
        <extensions>
          <ns3:TrackPointExtension>
            <ns3:hr>144</ns3:hr>
            <ns3:cad>45</ns3:cad>
          </ns3:TrackPointExtension>
        </extensions>
      </trkpt>
      <trkpt lat="47.5319437868893146514892578125" lon="11.0303021036088466644287109375">
        <ele>1845.4000244140625</ele>
        <time>2026-09-01T08:25:51.000Z</time>
        <extensions>
          <ns3:TrackPointExtension>
            <ns3:hr>144</ns3:hr>
            <ns3:cad>45</ns3:cad>
          </ns3:TrackPointExtension>
        </extensions>
      </trkpt>
      <trkpt lat="47.53196172416210174560546875" lon="11.0303232260048389434814453125">
        <ele>1844.5999755859375</ele>
        <time>2026-09-01T08:25:52.000Z</time>
        <extensions>
          <ns3:TrackPointExtension>
            <ns3:hr>144</ns3:hr>
            <ns3:cad>45</ns3:cad>
          </ns3:TrackPointExtension>
        </extensions>
      </trkpt>
      <trkpt lat="47.53197907470166683197021484375" lon="11.03033177554607391357421875">
        <ele>1844</ele>
        <time>2026-09-01T08:25:53.000Z</time>
        <extensions>
          <ns3:TrackPointExtension>
            <ns3:hr>144</ns3:hr>
            <ns3:cad>45</ns3:cad>
          </ns3:TrackPointExtension>
        </extensions>
      </trkpt>
      <trkpt lat="47.53200531005859375" lon="11.0303389839828014373779296875">
        <ele>1843.4000244140625</ele>
        <time>2026-09-01T08:25:54.000Z</time>
        <extensions>
          <ns3:TrackPointExtension>
            <ns3:hr>143</ns3:hr>
            <ns3:cad>45</ns3:cad>
          </ns3:TrackPointExtension>
        </extensions>
      </trkpt>
      <trkpt lat="47.532020397484302520751953125" lon="11.0303337872028350830078125">
        <ele>1842.5999755859375</ele>
        <time>2026-09-01T08:25:55.000Z</time>
        <extensions>
          <ns3:TrackPointExtension>
            <ns3:hr>142</ns3:hr>
            <ns3:cad>45</ns3:cad>
          </ns3:TrackPointExtension>
        </extensions>
      </trkpt>
      <trkpt lat="47.5320504046976566314697265625" lon="11.03032599203288555145263671875">
        <ele>1842.199951171875</ele>
        <time>2026-09-01T08:25:56.000Z</time>
        <extensions>
          <ns3:TrackPointExtension>
            <ns3:hr>142</ns3:hr>
            <ns3:cad>45</ns3:cad>
          </ns3:TrackPointExtension>
        </extensions>
      </trkpt>
      <trkpt lat="47.5320648215711116790771484375" lon="11.0303269140422344207763671875">
        <ele>1841.4000244140625</ele>
        <time>2026-09-01T08:25:57.000Z</time>
        <extensions>
          <ns3:TrackPointExtension>
            <ns3:hr>142</ns3:hr>
            <ns3:cad>45</ns3:cad>
          </ns3:TrackPointExtension>
        </extensions>
      </trkpt>
      <trkpt lat="47.53208368085324764251708984375" lon="11.03035264648497104644775390625">
        <ele>1840.800048828125</ele>
        <time>2026-09-01T08:25:58.000Z</time>
        <extensions>
          <ns3:TrackPointExtension>
            <ns3:hr>142</ns3:hr>
            <ns3:cad>45</ns3:cad>
          </ns3:TrackPointExtension>
        </extensions>
      </trkpt>
      <trkpt lat="47.53209910355508327484130859375" lon="11.03037075139582157135009765625">
        <ele>1840.4000244140625</ele>
        <time>2026-09-01T08:25:59.000Z</time>
        <extensions>
          <ns3:TrackPointExtension>
            <ns3:hr>142</ns3:hr>
            <ns3:cad>0</ns3:cad>
          </ns3:TrackPointExtension>
        </extensions>
      </trkpt>
      <trkpt lat="47.53212693147361278533935546875" lon="11.0303874313831329345703125">
        <ele>1840.199951171875</ele>
        <time>2026-09-01T08:26:00.000Z</time>
        <extensions>
          <ns3:TrackPointExtension>
            <ns3:hr>142</ns3:hr>
            <ns3:cad>0</ns3:cad>
          </ns3:TrackPointExtension>
        </extensions>
      </trkpt>
      <trkpt lat="47.53214813768863677978515625" lon="11.03040218353271484375">
        <ele>1839.800048828125</ele>
        <time>2026-09-01T08:26:01.000Z</time>
        <extensions>
          <ns3:TrackPointExtension>
            <ns3:hr>142</ns3:hr>
            <ns3:cad>0</ns3:cad>
          </ns3:TrackPointExtension>
        </extensions>
      </trkpt>
      <trkpt lat="47.532179653644561767578125" lon="11.030419953167438507080078125">
        <ele>1839.4000244140625</ele>
        <time>2026-09-01T08:26:02.000Z</time>
        <extensions>
          <ns3:TrackPointExtension>
            <ns3:hr>142</ns3:hr>
            <ns3:cad>0</ns3:cad>
          </ns3:TrackPointExtension>
        </extensions>
      </trkpt>
      <trkpt lat="47.53220907412469387054443359375" lon="11.03044442832469940185546875">
        <ele>1839.199951171875</ele>
        <time>2026-09-01T08:26:03.000Z</time>
        <extensions>
          <ns3:TrackPointExtension>
            <ns3:hr>143</ns3:hr>
            <ns3:cad>0</ns3:cad>
          </ns3:TrackPointExtension>
        </extensions>
      </trkpt>
      <trkpt lat="47.5322368182241916656494140625" lon="11.0304660536348819732666015625">
        <ele>1838.4000244140625</ele>
        <time>2026-09-01T08:26:04.000Z</time>
        <extensions>
          <ns3:TrackPointExtension>
            <ns3:hr>143</ns3:hr>
            <ns3:cad>0</ns3:cad>
          </ns3:TrackPointExtension>
        </extensions>
      </trkpt>
      <trkpt lat="47.5322659872472286224365234375" lon="11.03049078024923801422119140625">
        <ele>1838</ele>
        <time>2026-09-01T08:26:05.000Z</time>
        <extensions>
          <ns3:TrackPointExtension>
            <ns3:hr>143</ns3:hr>
            <ns3:cad>0</ns3:cad>
          </ns3:TrackPointExtension>
        </extensions>
      </trkpt>
      <trkpt lat="47.5323005206882953643798828125" lon="11.03051626123487949371337890625">
        <ele>1837.800048828125</ele>
        <time>2026-09-01T08:26:06.000Z</time>
        <extensions>
          <ns3:TrackPointExtension>
            <ns3:hr>143</ns3:hr>
            <ns3:cad>0</ns3:cad>
          </ns3:TrackPointExtension>
        </extensions>
      </trkpt>
      <trkpt lat="47.53231585957109928131103515625" lon="11.03051609359681606292724609375">
        <ele>1837.800048828125</ele>
        <time>2026-09-01T08:26:07.000Z</time>
        <extensions>
          <ns3:TrackPointExtension>
            <ns3:hr>144</ns3:hr>
            <ns3:cad>0</ns3:cad>
          </ns3:TrackPointExtension>
        </extensions>
      </trkpt>
      <trkpt lat="47.53234335221350193023681640625" lon="11.03052464313805103302001953125">
        <ele>1838</ele>
        <time>2026-09-01T08:26:08.000Z</time>
        <extensions>
          <ns3:TrackPointExtension>
            <ns3:hr>144</ns3:hr>
            <ns3:cad>79</ns3:cad>
          </ns3:TrackPointExtension>
        </extensions>
      </trkpt>
      <trkpt lat="47.53237889148294925689697265625" lon="11.03054325096309185028076171875">
        <ele>1838.199951171875</ele>
        <time>2026-09-01T08:26:09.000Z</time>
        <extensions>
          <ns3:TrackPointExtension>
            <ns3:hr>144</ns3:hr>
            <ns3:cad>79</ns3:cad>
          </ns3:TrackPointExtension>
        </extensions>
      </trkpt>
      <trkpt lat="47.53240655176341533660888671875" lon="11.0305590927600860595703125">
        <ele>1838.4000244140625</ele>
        <time>2026-09-01T08:26:10.000Z</time>
        <extensions>
          <ns3:TrackPointExtension>
            <ns3:hr>145</ns3:hr>
            <ns3:cad>79</ns3:cad>
          </ns3:TrackPointExtension>
        </extensions>
      </trkpt>
      <trkpt lat="47.53243111073970794677734375" lon="11.03057376109063625335693359375">
        <ele>1838.5999755859375</ele>
        <time>2026-09-01T08:26:11.000Z</time>
        <extensions>
          <ns3:TrackPointExtension>
            <ns3:hr>145</ns3:hr>
            <ns3:cad>80</ns3:cad>
          </ns3:TrackPointExtension>
        </extensions>
      </trkpt>
      <trkpt lat="47.53245667554438114166259765625" lon="11.03059655986726284027099609375">
        <ele>1838.800048828125</ele>
        <time>2026-09-01T08:26:12.000Z</time>
        <extensions>
          <ns3:TrackPointExtension>
            <ns3:hr>145</ns3:hr>
            <ns3:cad>80</ns3:cad>
          </ns3:TrackPointExtension>
        </extensions>
      </trkpt>
      <trkpt lat="47.532474696636199951171875" lon="11.03059991262853145599365234375">
        <ele>1839</ele>
        <time>2026-09-01T08:26:13.000Z</time>
        <extensions>
          <ns3:TrackPointExtension>
            <ns3:hr>144</ns3:hr>
            <ns3:cad>80</ns3:cad>
          </ns3:TrackPointExtension>
        </extensions>
      </trkpt>
      <trkpt lat="47.5324936397373676300048828125" lon="11.03061935864388942718505859375">
        <ele>1839</ele>
        <time>2026-09-01T08:26:14.000Z</time>
        <extensions>
          <ns3:TrackPointExtension>
            <ns3:hr>143</ns3:hr>
            <ns3:cad>80</ns3:cad>
          </ns3:TrackPointExtension>
        </extensions>
      </trkpt>
      <trkpt lat="47.53251803107559680938720703125" lon="11.03062950074672698974609375">
        <ele>1839.199951171875</ele>
        <time>2026-09-01T08:26:15.000Z</time>
        <extensions>
          <ns3:TrackPointExtension>
            <ns3:hr>142</ns3:hr>
            <ns3:cad>79</ns3:cad>
          </ns3:TrackPointExtension>
        </extensions>
      </trkpt>
      <trkpt lat="47.53254518844187259674072265625" lon="11.0306481085717678070068359375">
        <ele>1839.4000244140625</ele>
        <time>2026-09-01T08:26:16.000Z</time>
        <extensions>
          <ns3:TrackPointExtension>
            <ns3:hr>142</ns3:hr>
            <ns3:cad>79</ns3:cad>
          </ns3:TrackPointExtension>
        </extensions>
      </trkpt>
      <trkpt lat="47.532558180391788482666015625" lon="11.03066244162619113922119140625">
        <ele>1839.5999755859375</ele>
        <time>2026-09-01T08:26:17.000Z</time>
        <extensions>
          <ns3:TrackPointExtension>
            <ns3:hr>142</ns3:hr>
            <ns3:cad>80</ns3:cad>
          </ns3:TrackPointExtension>
        </extensions>
      </trkpt>
      <trkpt lat="47.53258005715906620025634765625" lon="11.030680797994136810302734375">
        <ele>1839.800048828125</ele>
        <time>2026-09-01T08:26:18.000Z</time>
        <extensions>
          <ns3:TrackPointExtension>
            <ns3:hr>143</ns3:hr>
            <ns3:cad>80</ns3:cad>
          </ns3:TrackPointExtension>
        </extensions>
      </trkpt>
      <trkpt lat="47.5325992517173290252685546875" lon="11.03070192039012908935546875">
        <ele>1840</ele>
        <time>2026-09-01T08:26:19.000Z</time>
        <extensions>
          <ns3:TrackPointExtension>
            <ns3:hr>143</ns3:hr>
            <ns3:cad>79</ns3:cad>
          </ns3:TrackPointExtension>
        </extensions>
      </trkpt>
      <trkpt lat="47.53260956145823001861572265625" lon="11.03071541525423526763916015625">
        <ele>1840.4000244140625</ele>
        <time>2026-09-01T08:26:20.000Z</time>
        <extensions>
          <ns3:TrackPointExtension>
            <ns3:hr>143</ns3:hr>
            <ns3:cad>79</ns3:cad>
          </ns3:TrackPointExtension>
        </extensions>
      </trkpt>
      <trkpt lat="47.53262288868427276611328125" lon="11.030742488801479339599609375">
        <ele>1841</ele>
        <time>2026-09-01T08:26:21.000Z</time>
        <extensions>
          <ns3:TrackPointExtension>
            <ns3:hr>143</ns3:hr>
            <ns3:cad>79</ns3:cad>
          </ns3:TrackPointExtension>
        </extensions>
      </trkpt>
      <trkpt lat="47.53263386897742748260498046875" lon="11.030757911503314971923828125">
        <ele>1841.5999755859375</ele>
        <time>2026-09-01T08:26:22.000Z</time>
        <extensions>
          <ns3:TrackPointExtension>
            <ns3:hr>143</ns3:hr>
            <ns3:cad>79</ns3:cad>
          </ns3:TrackPointExtension>
        </extensions>
      </trkpt>
      <trkpt lat="47.53264090977609157562255859375" lon="11.03077911771833896636962890625">
        <ele>1841.800048828125</ele>
        <time>2026-09-01T08:26:23.000Z</time>
        <extensions>
          <ns3:TrackPointExtension>
            <ns3:hr>144</ns3:hr>
            <ns3:cad>80</ns3:cad>
          </ns3:TrackPointExtension>
        </extensions>
      </trkpt>
      <trkpt lat="47.5326505489647388458251953125" lon="11.03079990483820438385009765625">
        <ele>1842</ele>
        <time>2026-09-01T08:26:24.000Z</time>
        <extensions>
          <ns3:TrackPointExtension>
            <ns3:hr>144</ns3:hr>
            <ns3:cad>80</ns3:cad>
          </ns3:TrackPointExtension>
        </extensions>
      </trkpt>
      <trkpt lat="47.53266555257141590118408203125" lon="11.030826307833194732666015625">
        <ele>1842.199951171875</ele>
        <time>2026-09-01T08:26:25.000Z</time>
        <extensions>
          <ns3:TrackPointExtension>
            <ns3:hr>145</ns3:hr>
            <ns3:cad>77</ns3:cad>
          </ns3:TrackPointExtension>
        </extensions>
      </trkpt>
      <trkpt lat="47.5326733477413654327392578125" lon="11.0308539681136608123779296875">
        <ele>1842.199951171875</ele>
        <time>2026-09-01T08:26:26.000Z</time>
        <extensions>
          <ns3:TrackPointExtension>
            <ns3:hr>145</ns3:hr>
            <ns3:cad>77</ns3:cad>
          </ns3:TrackPointExtension>
        </extensions>
      </trkpt>
      <trkpt lat="47.5326867587864398956298828125" lon="11.03087802417576313018798828125">
        <ele>1842</ele>
        <time>2026-09-01T08:26:27.000Z</time>
        <extensions>
          <ns3:TrackPointExtension>
            <ns3:hr>146</ns3:hr>
            <ns3:cad>82</ns3:cad>
          </ns3:TrackPointExtension>
        </extensions>
      </trkpt>
      <trkpt lat="47.5327026844024658203125" lon="11.030902080237865447998046875">
        <ele>1842</ele>
        <time>2026-09-01T08:26:28.000Z</time>
        <extensions>
          <ns3:TrackPointExtension>
            <ns3:hr>146</ns3:hr>
            <ns3:cad>82</ns3:cad>
          </ns3:TrackPointExtension>
        </extensions>
      </trkpt>
      <trkpt lat="47.5327165983617305755615234375" lon="11.0309233702719211578369140625">
        <ele>1842</ele>
        <time>2026-09-01T08:26:29.000Z</time>
        <extensions>
          <ns3:TrackPointExtension>
            <ns3:hr>147</ns3:hr>
            <ns3:cad>78</ns3:cad>
          </ns3:TrackPointExtension>
        </extensions>
      </trkpt>
      <trkpt lat="47.532726489007472991943359375" lon="11.03095128200948238372802734375">
        <ele>1842</ele>
        <time>2026-09-01T08:26:30.000Z</time>
        <extensions>
          <ns3:TrackPointExtension>
            <ns3:hr>148</ns3:hr>
            <ns3:cad>78</ns3:cad>
          </ns3:TrackPointExtension>
        </extensions>
      </trkpt>
      <trkpt lat="47.53274484537541866302490234375" lon="11.0309801995754241943359375">
        <ele>1842</ele>
        <time>2026-09-01T08:26:31.000Z</time>
        <extensions>
          <ns3:TrackPointExtension>
            <ns3:hr>148</ns3:hr>
            <ns3:cad>77</ns3:cad>
          </ns3:TrackPointExtension>
        </extensions>
      </trkpt>
      <trkpt lat="47.5327632017433643341064453125" lon="11.03099905885756015777587890625">
        <ele>1841.800048828125</ele>
        <time>2026-09-01T08:26:32.000Z</time>
        <extensions>
          <ns3:TrackPointExtension>
            <ns3:hr>149</ns3:hr>
            <ns3:cad>77</ns3:cad>
          </ns3:TrackPointExtension>
        </extensions>
      </trkpt>
      <trkpt lat="47.53277434967458248138427734375" lon="11.03101397864520549774169921875">
        <ele>1842</ele>
        <time>2026-09-01T08:26:33.000Z</time>
        <extensions>
          <ns3:TrackPointExtension>
            <ns3:hr>150</ns3:hr>
            <ns3:cad>77</ns3:cad>
          </ns3:TrackPointExtension>
        </extensions>
      </trkpt>
      <trkpt lat="47.532788179814815521240234375" lon="11.03102437220513820648193359375">
        <ele>1842.199951171875</ele>
        <time>2026-09-01T08:26:34.000Z</time>
        <extensions>
          <ns3:TrackPointExtension>
            <ns3:hr>150</ns3:hr>
            <ns3:cad>79</ns3:cad>
          </ns3:TrackPointExtension>
        </extensions>
      </trkpt>
      <trkpt lat="47.53281558863818645477294921875" lon="11.0310407169163227081298828125">
        <ele>1842.5999755859375</ele>
        <time>2026-09-01T08:26:35.000Z</time>
        <extensions>
          <ns3:TrackPointExtension>
            <ns3:hr>151</ns3:hr>
            <ns3:cad>79</ns3:cad>
          </ns3:TrackPointExtension>
        </extensions>
      </trkpt>
      <trkpt lat="47.53282967023551464080810546875" lon="11.0310472548007965087890625">
        <ele>1843</ele>
        <time>2026-09-01T08:26:36.000Z</time>
        <extensions>
          <ns3:TrackPointExtension>
            <ns3:hr>152</ns3:hr>
            <ns3:cad>79</ns3:cad>
          </ns3:TrackPointExtension>
        </extensions>
      </trkpt>
      <trkpt lat="47.5328440032899379730224609375" lon="11.03106024675071239471435546875">
        <ele>1843.4000244140625</ele>
        <time>2026-09-01T08:26:37.000Z</time>
        <extensions>
          <ns3:TrackPointExtension>
            <ns3:hr>152</ns3:hr>
            <ns3:cad>77</ns3:cad>
          </ns3:TrackPointExtension>
        </extensions>
      </trkpt>
      <trkpt lat="47.53285230137407779693603515625" lon="11.0310767590999603271484375">
        <ele>1843.5999755859375</ele>
        <time>2026-09-01T08:26:38.000Z</time>
        <extensions>
          <ns3:TrackPointExtension>
            <ns3:hr>152</ns3:hr>
            <ns3:cad>77</ns3:cad>
          </ns3:TrackPointExtension>
        </extensions>
      </trkpt>
      <trkpt lat="47.53285816870629787445068359375" lon="11.031096875667572021484375">
        <ele>1843.800048828125</ele>
        <time>2026-09-01T08:26:39.000Z</time>
        <extensions>
          <ns3:TrackPointExtension>
            <ns3:hr>153</ns3:hr>
            <ns3:cad>78</ns3:cad>
          </ns3:TrackPointExtension>
        </extensions>
      </trkpt>
      <trkpt lat="47.53286160528659820556640625" lon="11.03111724369227886199951171875">
        <ele>1844</ele>
        <time>2026-09-01T08:26:40.000Z</time>
        <extensions>
          <ns3:TrackPointExtension>
            <ns3:hr>153</ns3:hr>
            <ns3:cad>78</ns3:cad>
          </ns3:TrackPointExtension>
        </extensions>
      </trkpt>
      <trkpt lat="47.53285355865955352783203125" lon="11.031153537333011627197265625">
        <ele>1843.800048828125</ele>
        <time>2026-09-01T08:26:41.000Z</time>
        <extensions>
          <ns3:TrackPointExtension>
            <ns3:hr>154</ns3:hr>
            <ns3:cad>77</ns3:cad>
          </ns3:TrackPointExtension>
        </extensions>
      </trkpt>
      <trkpt lat="47.53285481594502925872802734375" lon="11.0311751626431941986083984375">
        <ele>1843.5999755859375</ele>
        <time>2026-09-01T08:26:42.000Z</time>
        <extensions>
          <ns3:TrackPointExtension>
            <ns3:hr>154</ns3:hr>
            <ns3:cad>76</ns3:cad>
          </ns3:TrackPointExtension>
        </extensions>
      </trkpt>
      <trkpt lat="47.53285079263150691986083984375" lon="11.03122436441481113433837890625">
        <ele>1843.4000244140625</ele>
        <time>2026-09-01T08:26:43.000Z</time>
        <extensions>
          <ns3:TrackPointExtension>
            <ns3:hr>155</ns3:hr>
            <ns3:cad>75</ns3:cad>
          </ns3:TrackPointExtension>
        </extensions>
      </trkpt>
      <trkpt lat="47.53285347484052181243896484375" lon="11.03127214126288890838623046875">
        <ele>1842.800048828125</ele>
        <time>2026-09-01T08:26:44.000Z</time>
        <extensions>
          <ns3:TrackPointExtension>
            <ns3:hr>155</ns3:hr>
            <ns3:cad>75</ns3:cad>
          </ns3:TrackPointExtension>
        </extensions>
      </trkpt>
      <trkpt lat="47.53287292085587978363037109375" lon="11.03132662363350391387939453125">
        <ele>1841.800048828125</ele>
        <time>2026-09-01T08:26:45.000Z</time>
        <extensions>
          <ns3:TrackPointExtension>
            <ns3:hr>155</ns3:hr>
            <ns3:cad>81</ns3:cad>
          </ns3:TrackPointExtension>
        </extensions>
      </trkpt>
      <trkpt lat="47.53287292085587978363037109375" lon="11.03132662363350391387939453125">
        <ele>1841.5999755859375</ele>
        <time>2026-09-01T08:26:46.000Z</time>
        <extensions>
          <ns3:TrackPointExtension>
            <ns3:hr>154</ns3:hr>
            <ns3:cad>81</ns3:cad>
          </ns3:TrackPointExtension>
        </extensions>
      </trkpt>
      <trkpt lat="47.532876692712306976318359375" lon="11.031350679695606231689453125">
        <ele>1841.800048828125</ele>
        <time>2026-09-01T08:26:47.000Z</time>
        <extensions>
          <ns3:TrackPointExtension>
            <ns3:hr>155</ns3:hr>
            <ns3:cad>81</ns3:cad>
          </ns3:TrackPointExtension>
        </extensions>
      </trkpt>
      <trkpt lat="47.5328869186341762542724609375" lon="11.03137088008224964141845703125">
        <ele>1842.199951171875</ele>
        <time>2026-09-01T08:26:48.000Z</time>
        <extensions>
          <ns3:TrackPointExtension>
            <ns3:hr>155</ns3:hr>
            <ns3:cad>81</ns3:cad>
          </ns3:TrackPointExtension>
        </extensions>
      </trkpt>
      <trkpt lat="47.532891444861888885498046875" lon="11.03138864971697330474853515625">
        <ele>1842.5999755859375</ele>
        <time>2026-09-01T08:26:49.000Z</time>
        <extensions>
          <ns3:TrackPointExtension>
            <ns3:hr>155</ns3:hr>
            <ns3:cad>81</ns3:cad>
          </ns3:TrackPointExtension>
        </extensions>
      </trkpt>
      <trkpt lat="47.53289605490863323211669921875" lon="11.0314061678946018218994140625">
        <ele>1843</ele>
        <time>2026-09-01T08:26:50.000Z</time>
        <extensions>
          <ns3:TrackPointExtension>
            <ns3:hr>155</ns3:hr>
            <ns3:cad>79</ns3:cad>
          </ns3:TrackPointExtension>
        </extensions>
      </trkpt>
      <trkpt lat="47.53289890475571155548095703125" lon="11.03141999803483486175537109375">
        <ele>1843.4000244140625</ele>
        <time>2026-09-01T08:26:51.000Z</time>
        <extensions>
          <ns3:TrackPointExtension>
            <ns3:hr>155</ns3:hr>
            <ns3:cad>79</ns3:cad>
          </ns3:TrackPointExtension>
        </extensions>
      </trkpt>
      <trkpt lat="47.53290561027824878692626953125" lon="11.0314309783279895782470703125">
        <ele>1843.4000244140625</ele>
        <time>2026-09-01T08:26:52.000Z</time>
        <extensions>
          <ns3:TrackPointExtension>
            <ns3:hr>154</ns3:hr>
            <ns3:cad>79</ns3:cad>
          </ns3:TrackPointExtension>
        </extensions>
      </trkpt>
      <trkpt lat="47.53290913067758083343505859375" lon="11.03143944405019283294677734375">
        <ele>1843.4000244140625</ele>
        <time>2026-09-01T08:26:53.000Z</time>
        <extensions>
          <ns3:TrackPointExtension>
            <ns3:hr>154</ns3:hr>
            <ns3:cad>0</ns3:cad>
          </ns3:TrackPointExtension>
        </extensions>
      </trkpt>
      <trkpt lat="47.53291659057140350341796875" lon="11.031443886458873748779296875">
        <ele>1843.4000244140625</ele>
        <time>2026-09-01T08:26:54.000Z</time>
        <extensions>
          <ns3:TrackPointExtension>
            <ns3:hr>154</ns3:hr>
            <ns3:cad>0</ns3:cad>
          </ns3:TrackPointExtension>
        </extensions>
      </trkpt>
      <trkpt lat="47.532931677997112274169921875" lon="11.03146375156939029693603515625">
        <ele>1843.4000244140625</ele>
        <time>2026-09-01T08:26:55.000Z</time>
        <extensions>
          <ns3:TrackPointExtension>
            <ns3:hr>154</ns3:hr>
            <ns3:cad>0</ns3:cad>
          </ns3:TrackPointExtension>
        </extensions>
      </trkpt>
      <trkpt lat="47.532952129840850830078125" lon="11.0314876399934291839599609375">
        <ele>1843.4000244140625</ele>
        <time>2026-09-01T08:26:56.000Z</time>
        <extensions>
          <ns3:TrackPointExtension>
            <ns3:hr>153</ns3:hr>
            <ns3:cad>0</ns3:cad>
          </ns3:TrackPointExtension>
        </extensions>
      </trkpt>
      <trkpt lat="47.532962523400783538818359375" lon="11.03150029666721820831298828125">
        <ele>1843.4000244140625</ele>
        <time>2026-09-01T08:26:57.000Z</time>
        <extensions>
          <ns3:TrackPointExtension>
            <ns3:hr>154</ns3:hr>
            <ns3:cad>0</ns3:cad>
          </ns3:TrackPointExtension>
        </extensions>
      </trkpt>
      <trkpt lat="47.5329757668077945709228515625" lon="11.0315184853971004486083984375">
        <ele>1843.5999755859375</ele>
        <time>2026-09-01T08:26:58.000Z</time>
        <extensions>
          <ns3:TrackPointExtension>
            <ns3:hr>153</ns3:hr>
            <ns3:cad>0</ns3:cad>
          </ns3:TrackPointExtension>
        </extensions>
      </trkpt>
      <trkpt lat="47.532989680767059326171875" lon="11.0315402783453464508056640625">
        <ele>1843.800048828125</ele>
        <time>2026-09-01T08:26:59.000Z</time>
        <extensions>
          <ns3:TrackPointExtension>
            <ns3:hr>152</ns3:hr>
            <ns3:cad>0</ns3:cad>
          </ns3:TrackPointExtension>
        </extensions>
      </trkpt>
      <trkpt lat="47.53300216980278491973876953125" lon="11.0315587185323238372802734375">
        <ele>1844</ele>
        <time>2026-09-01T08:27:00.000Z</time>
        <extensions>
          <ns3:TrackPointExtension>
            <ns3:hr>152</ns3:hr>
            <ns3:cad>76</ns3:cad>
          </ns3:TrackPointExtension>
        </extensions>
      </trkpt>
      <trkpt lat="47.5330178439617156982421875" lon="11.03158093057572841644287109375">
        <ele>1844.199951171875</ele>
        <time>2026-09-01T08:27:01.000Z</time>
        <extensions>
          <ns3:TrackPointExtension>
            <ns3:hr>151</ns3:hr>
            <ns3:cad>77</ns3:cad>
          </ns3:TrackPointExtension>
        </extensions>
      </trkpt>
      <trkpt lat="47.5330287404358386993408203125" lon="11.03160238824784755706787109375">
        <ele>1844.4000244140625</ele>
        <time>2026-09-01T08:27:02.000Z</time>
        <extensions>
          <ns3:TrackPointExtension>
            <ns3:hr>151</ns3:hr>
            <ns3:cad>78</ns3:cad>
          </ns3:TrackPointExtension>
        </extensions>
      </trkpt>
      <trkpt lat="47.5330354459583759307861328125" lon="11.03161328472197055816650390625">
        <ele>1844.5999755859375</ele>
        <time>2026-09-01T08:27:03.000Z</time>
        <extensions>
          <ns3:TrackPointExtension>
            <ns3:hr>151</ns3:hr>
            <ns3:cad>78</ns3:cad>
          </ns3:TrackPointExtension>
        </extensions>
      </trkpt>
      <trkpt lat="47.53304139710962772369384765625" lon="11.031622923910617828369140625">
        <ele>1844.5999755859375</ele>
        <time>2026-09-01T08:27:04.000Z</time>
        <extensions>
          <ns3:TrackPointExtension>
            <ns3:hr>152</ns3:hr>
            <ns3:cad>78</ns3:cad>
          </ns3:TrackPointExtension>
        </extensions>
      </trkpt>
      <trkpt lat="47.5330580770969390869140625" lon="11.03164178319275379180908203125">
        <ele>1844.5999755859375</ele>
        <time>2026-09-01T08:27:05.000Z</time>
        <extensions>
          <ns3:TrackPointExtension>
            <ns3:hr>152</ns3:hr>
            <ns3:cad>78</ns3:cad>
          </ns3:TrackPointExtension>
        </extensions>
      </trkpt>
      <trkpt lat="47.5330661237239837646484375" lon="11.0316562838852405548095703125">
        <ele>1844.5999755859375</ele>
        <time>2026-09-01T08:27:06.000Z</time>
        <extensions>
          <ns3:TrackPointExtension>
            <ns3:hr>153</ns3:hr>
            <ns3:cad>0</ns3:cad>
          </ns3:TrackPointExtension>
        </extensions>
      </trkpt>
      <trkpt lat="47.533081211149692535400390625" lon="11.03168629109859466552734375">
        <ele>1844.5999755859375</ele>
        <time>2026-09-01T08:27:07.000Z</time>
        <extensions>
          <ns3:TrackPointExtension>
            <ns3:hr>154</ns3:hr>
            <ns3:cad>0</ns3:cad>
          </ns3:TrackPointExtension>
        </extensions>
      </trkpt>
      <trkpt lat="47.5330927781760692596435546875" lon="11.03170716203749179840087890625">
        <ele>1844.800048828125</ele>
        <time>2026-09-01T08:27:08.000Z</time>
        <extensions>
          <ns3:TrackPointExtension>
            <ns3:hr>156</ns3:hr>
            <ns3:cad>0</ns3:cad>
          </ns3:TrackPointExtension>
        </extensions>
      </trkpt>
      <trkpt lat="47.53310426138341426849365234375" lon="11.0317263565957546234130859375">
        <ele>1845</ele>
        <time>2026-09-01T08:27:09.000Z</time>
        <extensions>
          <ns3:TrackPointExtension>
            <ns3:hr>157</ns3:hr>
            <ns3:cad>0</ns3:cad>
          </ns3:TrackPointExtension>
        </extensions>
      </trkpt>
      <trkpt lat="47.533113397657871246337890625" lon="11.0317407734692096710205078125">
        <ele>1845</ele>
        <time>2026-09-01T08:27:10.000Z</time>
        <extensions>
          <ns3:TrackPointExtension>
            <ns3:hr>158</ns3:hr>
            <ns3:cad>0</ns3:cad>
          </ns3:TrackPointExtension>
        </extensions>
      </trkpt>
      <trkpt lat="47.53312303684651851654052734375" lon="11.03175678290426731109619140625">
        <ele>1845</ele>
        <time>2026-09-01T08:27:11.000Z</time>
        <extensions>
          <ns3:TrackPointExtension>
            <ns3:hr>159</ns3:hr>
            <ns3:cad>0</ns3:cad>
          </ns3:TrackPointExtension>
        </extensions>
      </trkpt>
      <trkpt lat="47.53313041292130947113037109375" lon="11.03176885284483432769775390625">
        <ele>1845</ele>
        <time>2026-09-01T08:27:12.000Z</time>
        <extensions>
          <ns3:TrackPointExtension>
            <ns3:hr>160</ns3:hr>
            <ns3:cad>0</ns3:cad>
          </ns3:TrackPointExtension>
        </extensions>
      </trkpt>
      <trkpt lat="47.5331390462815761566162109375" lon="11.03178377263247966766357421875">
        <ele>1844.800048828125</ele>
        <time>2026-09-01T08:27:13.000Z</time>
        <extensions>
          <ns3:TrackPointExtension>
            <ns3:hr>160</ns3:hr>
            <ns3:cad>0</ns3:cad>
          </ns3:TrackPointExtension>
        </extensions>
      </trkpt>
      <trkpt lat="47.533150948584079742431640625" lon="11.03180707432329654693603515625">
        <ele>1844.5999755859375</ele>
        <time>2026-09-01T08:27:14.000Z</time>
        <extensions>
          <ns3:TrackPointExtension>
            <ns3:hr>160</ns3:hr>
            <ns3:cad>0</ns3:cad>
          </ns3:TrackPointExtension>
        </extensions>
      </trkpt>
      <trkpt lat="47.53315706737339496612548828125" lon="11.03182040154933929443359375">
        <ele>1844.5999755859375</ele>
        <time>2026-09-01T08:27:15.000Z</time>
        <extensions>
          <ns3:TrackPointExtension>
            <ns3:hr>160</ns3:hr>
            <ns3:cad>0</ns3:cad>
          </ns3:TrackPointExtension>
        </extensions>
      </trkpt>
      <trkpt lat="47.53316377289593219757080078125" lon="11.03183138184249401092529296875">
        <ele>1844.800048828125</ele>
        <time>2026-09-01T08:27:16.000Z</time>
        <extensions>
          <ns3:TrackPointExtension>
            <ns3:hr>159</ns3:hr>
            <ns3:cad>0</ns3:cad>
          </ns3:TrackPointExtension>
        </extensions>
      </trkpt>
      <trkpt lat="47.533172406256198883056640625" lon="11.03184646926820278167724609375">
        <ele>1844.800048828125</ele>
        <time>2026-09-01T08:27:17.000Z</time>
        <extensions>
          <ns3:TrackPointExtension>
            <ns3:hr>159</ns3:hr>
            <ns3:cad>54</ns3:cad>
          </ns3:TrackPointExtension>
        </extensions>
      </trkpt>
      <trkpt lat="47.53317542374134063720703125" lon="11.031864322721958160400390625">
        <ele>1845</ele>
        <time>2026-09-01T08:27:18.000Z</time>
        <extensions>
          <ns3:TrackPointExtension>
            <ns3:hr>159</ns3:hr>
            <ns3:cad>54</ns3:cad>
          </ns3:TrackPointExtension>
        </extensions>
      </trkpt>
      <trkpt lat="47.533179782330989837646484375" lon="11.031880080699920654296875">
        <ele>1845.199951171875</ele>
        <time>2026-09-01T08:27:19.000Z</time>
        <extensions>
          <ns3:TrackPointExtension>
            <ns3:hr>159</ns3:hr>
            <ns3:cad>54</ns3:cad>
          </ns3:TrackPointExtension>
        </extensions>
      </trkpt>
      <trkpt lat="47.533184476196765899658203125" lon="11.031897179782390594482421875">
        <ele>1845.199951171875</ele>
        <time>2026-09-01T08:27:20.000Z</time>
        <extensions>
          <ns3:TrackPointExtension>
            <ns3:hr>159</ns3:hr>
            <ns3:cad>54</ns3:cad>
          </ns3:TrackPointExtension>
        </extensions>
      </trkpt>
      <trkpt lat="47.53318942151963710784912109375" lon="11.03191553615033626556396484375">
        <ele>1845</ele>
        <time>2026-09-01T08:27:21.000Z</time>
        <extensions>
          <ns3:TrackPointExtension>
            <ns3:hr>159</ns3:hr>
            <ns3:cad>54</ns3:cad>
          </ns3:TrackPointExtension>
        </extensions>
      </trkpt>
      <trkpt lat="47.53319243900477886199951171875" lon="11.03193498216569423675537109375">
        <ele>1845</ele>
        <time>2026-09-01T08:27:22.000Z</time>
        <extensions>
          <ns3:TrackPointExtension>
            <ns3:hr>160</ns3:hr>
            <ns3:cad>52</ns3:cad>
          </ns3:TrackPointExtension>
        </extensions>
      </trkpt>
      <trkpt lat="47.53319612704217433929443359375" lon="11.03194780647754669189453125">
        <ele>1845</ele>
        <time>2026-09-01T08:27:23.000Z</time>
        <extensions>
          <ns3:TrackPointExtension>
            <ns3:hr>160</ns3:hr>
            <ns3:cad>52</ns3:cad>
          </ns3:TrackPointExtension>
        </extensions>
      </trkpt>
      <trkpt lat="47.53320031799376010894775390625" lon="11.03196255862712860107421875">
        <ele>1845</ele>
        <time>2026-09-01T08:27:24.000Z</time>
        <extensions>
          <ns3:TrackPointExtension>
            <ns3:hr>160</ns3:hr>
            <ns3:cad>52</ns3:cad>
          </ns3:TrackPointExtension>
        </extensions>
      </trkpt>
      <trkpt lat="47.53320316784083843231201171875" lon="11.03196348063647747039794921875">
        <ele>1845</ele>
        <time>2026-09-01T08:27:25.000Z</time>
        <extensions>
          <ns3:TrackPointExtension>
            <ns3:hr>160</ns3:hr>
            <ns3:cad>52</ns3:cad>
          </ns3:TrackPointExtension>
        </extensions>
      </trkpt>
      <trkpt lat="47.53320492804050445556640625" lon="11.03196683339774608612060546875">
        <ele>1845</ele>
        <time>2026-09-01T08:27:26.000Z</time>
        <extensions>
          <ns3:TrackPointExtension>
            <ns3:hr>160</ns3:hr>
            <ns3:cad>53</ns3:cad>
          </ns3:TrackPointExtension>
        </extensions>
      </trkpt>
      <trkpt lat="47.53320886753499507904052734375" lon="11.03196389973163604736328125">
        <ele>1844.800048828125</ele>
        <time>2026-09-01T08:27:27.000Z</time>
        <extensions>
          <ns3:TrackPointExtension>
            <ns3:hr>159</ns3:hr>
            <ns3:cad>53</ns3:cad>
          </ns3:TrackPointExtension>
        </extensions>
      </trkpt>
      <trkpt lat="47.5332158245146274566650390625" lon="11.0319644026458263397216796875">
        <ele>1844.800048828125</ele>
        <time>2026-09-01T08:27:28.000Z</time>
        <extensions>
          <ns3:TrackPointExtension>
            <ns3:hr>159</ns3:hr>
            <ns3:cad>53</ns3:cad>
          </ns3:TrackPointExtension>
        </extensions>
      </trkpt>
      <trkpt lat="47.53322546370327472686767578125" lon="11.03196633048355579376220703125">
        <ele>1844.800048828125</ele>
        <time>2026-09-01T08:27:29.000Z</time>
        <extensions>
          <ns3:TrackPointExtension>
            <ns3:hr>159</ns3:hr>
            <ns3:cad>53</ns3:cad>
          </ns3:TrackPointExtension>
        </extensions>
      </trkpt>
      <trkpt lat="47.5332369469106197357177734375" lon="11.03197203017771244049072265625">
        <ele>1844.800048828125</ele>
        <time>2026-09-01T08:27:30.000Z</time>
        <extensions>
          <ns3:TrackPointExtension>
            <ns3:hr>158</ns3:hr>
            <ns3:cad>53</ns3:cad>
          </ns3:TrackPointExtension>
        </extensions>
      </trkpt>
      <trkpt lat="47.53324926830828189849853515625" lon="11.03197353892028331756591796875">
        <ele>1844.5999755859375</ele>
        <time>2026-09-01T08:27:31.000Z</time>
        <extensions>
          <ns3:TrackPointExtension>
            <ns3:hr>158</ns3:hr>
            <ns3:cad>53</ns3:cad>
          </ns3:TrackPointExtension>
        </extensions>
      </trkpt>
      <trkpt lat="47.53326418809592723846435546875" lon="11.0319778136909008026123046875">
        <ele>1844.4000244140625</ele>
        <time>2026-09-01T08:27:32.000Z</time>
        <extensions>
          <ns3:TrackPointExtension>
            <ns3:hr>158</ns3:hr>
            <ns3:cad>0</ns3:cad>
          </ns3:TrackPointExtension>
        </extensions>
      </trkpt>
      <trkpt lat="47.53327558748424053192138671875" lon="11.031981669366359710693359375">
        <ele>1844</ele>
        <time>2026-09-01T08:27:33.000Z</time>
        <extensions>
          <ns3:TrackPointExtension>
            <ns3:hr>158</ns3:hr>
            <ns3:cad>0</ns3:cad>
          </ns3:TrackPointExtension>
        </extensions>
      </trkpt>
      <trkpt lat="47.53328212536871433258056640625" lon="11.0319833457469940185546875">
        <ele>1843.800048828125</ele>
        <time>2026-09-01T08:27:34.000Z</time>
        <extensions>
          <ns3:TrackPointExtension>
            <ns3:hr>157</ns3:hr>
            <ns3:cad>66</ns3:cad>
          </ns3:TrackPointExtension>
        </extensions>
      </trkpt>
      <trkpt lat="47.5332959555089473724365234375" lon="11.03199130855500698089599609375">
        <ele>1843.5999755859375</ele>
        <time>2026-09-01T08:27:35.000Z</time>
        <extensions>
          <ns3:TrackPointExtension>
            <ns3:hr>157</ns3:hr>
            <ns3:cad>66</ns3:cad>
          </ns3:TrackPointExtension>
        </extensions>
      </trkpt>
      <trkpt lat="47.5333090312778949737548828125" lon="11.03199985809624195098876953125">
        <ele>1843.800048828125</ele>
        <time>2026-09-01T08:27:36.000Z</time>
        <extensions>
          <ns3:TrackPointExtension>
            <ns3:hr>157</ns3:hr>
            <ns3:cad>66</ns3:cad>
          </ns3:TrackPointExtension>
        </extensions>
      </trkpt>
      <trkpt lat="47.53332202322781085968017578125" lon="11.03200505487620830535888671875">
        <ele>1844</ele>
        <time>2026-09-01T08:27:37.000Z</time>
        <extensions>
          <ns3:TrackPointExtension>
            <ns3:hr>157</ns3:hr>
            <ns3:cad>57</ns3:cad>
          </ns3:TrackPointExtension>
        </extensions>
      </trkpt>
      <trkpt lat="47.5333370268344879150390625" lon="11.03200949728488922119140625">
        <ele>1844.4000244140625</ele>
        <time>2026-09-01T08:27:38.000Z</time>
        <extensions>
          <ns3:TrackPointExtension>
            <ns3:hr>157</ns3:hr>
            <ns3:cad>57</ns3:cad>
          </ns3:TrackPointExtension>
        </extensions>
      </trkpt>
      <trkpt lat="47.5333479233086109161376953125" lon="11.0320182144641876220703125">
        <ele>1844.5999755859375</ele>
        <time>2026-09-01T08:27:39.000Z</time>
        <extensions>
          <ns3:TrackPointExtension>
            <ns3:hr>157</ns3:hr>
            <ns3:cad>57</ns3:cad>
          </ns3:TrackPointExtension>
        </extensions>
      </trkpt>
      <trkpt lat="47.5333546288311481475830078125" lon="11.0320284403860569000244140625">
        <ele>1845</ele>
        <time>2026-09-01T08:27:40.000Z</time>
        <extensions>
          <ns3:TrackPointExtension>
            <ns3:hr>157</ns3:hr>
            <ns3:cad>57</ns3:cad>
          </ns3:TrackPointExtension>
        </extensions>
      </trkpt>
      <trkpt lat="47.53335773013532161712646484375" lon="11.0320401750504970550537109375">
        <ele>1845.5999755859375</ele>
        <time>2026-09-01T08:27:41.000Z</time>
        <extensions>
          <ns3:TrackPointExtension>
            <ns3:hr>157</ns3:hr>
            <ns3:cad>57</ns3:cad>
          </ns3:TrackPointExtension>
        </extensions>
      </trkpt>
      <trkpt lat="47.5333626754581928253173828125" lon="11.032049395143985748291015625">
        <ele>1845.800048828125</ele>
        <time>2026-09-01T08:27:42.000Z</time>
        <extensions>
          <ns3:TrackPointExtension>
            <ns3:hr>157</ns3:hr>
            <ns3:cad>57</ns3:cad>
          </ns3:TrackPointExtension>
        </extensions>
      </trkpt>
      <trkpt lat="47.53336829133331775665283203125" lon="11.03205920197069644927978515625">
        <ele>1846.199951171875</ele>
        <time>2026-09-01T08:27:43.000Z</time>
        <extensions>
          <ns3:TrackPointExtension>
            <ns3:hr>158</ns3:hr>
            <ns3:cad>57</ns3:cad>
          </ns3:TrackPointExtension>
        </extensions>
      </trkpt>
      <trkpt lat="47.5333740748465061187744140625" lon="11.03206590749323368072509765625">
        <ele>1846.800048828125</ele>
        <time>2026-09-01T08:27:44.000Z</time>
        <extensions>
          <ns3:TrackPointExtension>
            <ns3:hr>157</ns3:hr>
            <ns3:cad>0</ns3:cad>
          </ns3:TrackPointExtension>
        </extensions>
      </trkpt>
      <trkpt lat="47.5333794392645359039306640625" lon="11.03207529522478580474853515625">
        <ele>1847</ele>
        <time>2026-09-01T08:27:45.000Z</time>
        <extensions>
          <ns3:TrackPointExtension>
            <ns3:hr>157</ns3:hr>
            <ns3:cad>0</ns3:cad>
          </ns3:TrackPointExtension>
        </extensions>
      </trkpt>
      <trkpt lat="47.53338153474032878875732421875" lon="11.03208568878471851348876953125">
        <ele>1847.199951171875</ele>
        <time>2026-09-01T08:27:46.000Z</time>
        <extensions>
          <ns3:TrackPointExtension>
            <ns3:hr>157</ns3:hr>
            <ns3:cad>0</ns3:cad>
          </ns3:TrackPointExtension>
        </extensions>
      </trkpt>
      <trkpt lat="47.53338606096804141998291015625" lon="11.03209775872528553009033203125">
        <ele>1847.4000244140625</ele>
        <time>2026-09-01T08:27:47.000Z</time>
        <extensions>
          <ns3:TrackPointExtension>
            <ns3:hr>156</ns3:hr>
            <ns3:cad>0</ns3:cad>
          </ns3:TrackPointExtension>
        </extensions>
      </trkpt>
      <trkpt lat="47.5333881564438343048095703125" lon="11.032110415399074554443359375">
        <ele>1847.4000244140625</ele>
        <time>2026-09-01T08:27:48.000Z</time>
        <extensions>
          <ns3:TrackPointExtension>
            <ns3:hr>157</ns3:hr>
            <ns3:cad>0</ns3:cad>
          </ns3:TrackPointExtension>
        </extensions>
      </trkpt>
      <trkpt lat="47.53339134156703948974609375" lon="11.0321206413209438323974609375">
        <ele>1847.5999755859375</ele>
        <time>2026-09-01T08:27:49.000Z</time>
        <extensions>
          <ns3:TrackPointExtension>
            <ns3:hr>157</ns3:hr>
            <ns3:cad>0</ns3:cad>
          </ns3:TrackPointExtension>
        </extensions>
      </trkpt>
      <trkpt lat="47.5333888269960880279541015625" lon="11.03212340734899044036865234375">
        <ele>1847.800048828125</ele>
        <time>2026-09-01T08:27:50.000Z</time>
        <extensions>
          <ns3:TrackPointExtension>
            <ns3:hr>157</ns3:hr>
            <ns3:cad>0</ns3:cad>
          </ns3:TrackPointExtension>
        </extensions>
      </trkpt>
      <trkpt lat="47.53338656388223171234130859375" lon="11.03213463909924030303955078125">
        <ele>1848</ele>
        <time>2026-09-01T08:27:51.000Z</time>
        <extensions>
          <ns3:TrackPointExtension>
            <ns3:hr>157</ns3:hr>
            <ns3:cad>0</ns3:cad>
          </ns3:TrackPointExtension>
        </extensions>
      </trkpt>
      <trkpt lat="47.53338891081511974334716796875" lon="11.03214670903980731964111328125">
        <ele>1848.4000244140625</ele>
        <time>2026-09-01T08:27:52.000Z</time>
        <extensions>
          <ns3:TrackPointExtension>
            <ns3:hr>158</ns3:hr>
            <ns3:cad>0</ns3:cad>
          </ns3:TrackPointExtension>
        </extensions>
      </trkpt>
      <trkpt lat="47.5333881564438343048095703125" lon="11.03214084170758724212646484375">
        <ele>1848.5999755859375</ele>
        <time>2026-09-01T08:27:53.000Z</time>
        <extensions>
          <ns3:TrackPointExtension>
            <ns3:hr>158</ns3:hr>
            <ns3:cad>0</ns3:cad>
          </ns3:TrackPointExtension>
        </extensions>
      </trkpt>
      <trkpt lat="47.53338488750159740447998046875" lon="11.03214628994464874267578125">
        <ele>1849</ele>
        <time>2026-09-01T08:27:54.000Z</time>
        <extensions>
          <ns3:TrackPointExtension>
            <ns3:hr>157</ns3:hr>
            <ns3:cad>0</ns3:cad>
          </ns3:TrackPointExtension>
        </extensions>
      </trkpt>
      <trkpt lat="47.53338371403515338897705078125" lon="11.0321457870304584503173828125">
        <ele>1849.4000244140625</ele>
        <time>2026-09-01T08:27:55.000Z</time>
        <extensions>
          <ns3:TrackPointExtension>
            <ns3:hr>157</ns3:hr>
            <ns3:cad>0</ns3:cad>
          </ns3:TrackPointExtension>
        </extensions>
      </trkpt>
      <trkpt lat="47.5333797745406627655029296875" lon="11.03215165436267852783203125">
        <ele>1849.5999755859375</ele>
        <time>2026-09-01T08:27:56.000Z</time>
        <extensions>
          <ns3:TrackPointExtension>
            <ns3:hr>158</ns3:hr>
            <ns3:cad>0</ns3:cad>
          </ns3:TrackPointExtension>
        </extensions>
      </trkpt>
      <trkpt lat="47.53337767906486988067626953125" lon="11.03216179646551609039306640625">
        <ele>1849.800048828125</ele>
        <time>2026-09-01T08:27:57.000Z</time>
        <extensions>
          <ns3:TrackPointExtension>
            <ns3:hr>159</ns3:hr>
            <ns3:cad>0</ns3:cad>
          </ns3:TrackPointExtension>
        </extensions>
      </trkpt>
      <trkpt lat="47.53338455222547054290771484375" lon="11.03216372430324554443359375">
        <ele>1850.199951171875</ele>
        <time>2026-09-01T08:27:58.000Z</time>
        <extensions>
          <ns3:TrackPointExtension>
            <ns3:hr>158</ns3:hr>
            <ns3:cad>0</ns3:cad>
          </ns3:TrackPointExtension>
        </extensions>
      </trkpt>
      <trkpt lat="47.53339360468089580535888671875" lon="11.03216866962611675262451171875">
        <ele>1850.5999755859375</ele>
        <time>2026-09-01T08:27:59.000Z</time>
        <extensions>
          <ns3:TrackPointExtension>
            <ns3:hr>158</ns3:hr>
            <ns3:cad>0</ns3:cad>
          </ns3:TrackPointExtension>
        </extensions>
      </trkpt>
      <trkpt lat="47.53339645452797412872314453125" lon="11.03217034600675106048583984375">
        <ele>1851</ele>
        <time>2026-09-01T08:28:00.000Z</time>
        <extensions>
          <ns3:TrackPointExtension>
            <ns3:hr>158</ns3:hr>
            <ns3:cad>0</ns3:cad>
          </ns3:TrackPointExtension>
        </extensions>
      </trkpt>
      <trkpt lat="47.5334019027650356292724609375" lon="11.03218191303312778472900390625">
        <ele>1851.199951171875</ele>
        <time>2026-09-01T08:28:01.000Z</time>
        <extensions>
          <ns3:TrackPointExtension>
            <ns3:hr>157</ns3:hr>
            <ns3:cad>0</ns3:cad>
          </ns3:TrackPointExtension>
        </extensions>
      </trkpt>
      <trkpt lat="47.53340802155435085296630859375" lon="11.0321974195539951324462890625">
        <ele>1851.5999755859375</ele>
        <time>2026-09-01T08:28:02.000Z</time>
        <extensions>
          <ns3:TrackPointExtension>
            <ns3:hr>158</ns3:hr>
            <ns3:cad>0</ns3:cad>
          </ns3:TrackPointExtension>
        </extensions>
      </trkpt>
      <trkpt lat="47.53341338597238063812255859375" lon="11.03221359662711620330810546875">
        <ele>1852</ele>
        <time>2026-09-01T08:28:03.000Z</time>
        <extensions>
          <ns3:TrackPointExtension>
            <ns3:hr>159</ns3:hr>
            <ns3:cad>0</ns3:cad>
          </ns3:TrackPointExtension>
        </extensions>
      </trkpt>
      <trkpt lat="47.5334220193326473236083984375" lon="11.0322188772261142730712890625">
        <ele>1852.199951171875</ele>
        <time>2026-09-01T08:28:04.000Z</time>
        <extensions>
          <ns3:TrackPointExtension>
            <ns3:hr>160</ns3:hr>
            <ns3:cad>0</ns3:cad>
          </ns3:TrackPointExtension>
        </extensions>
      </trkpt>
      <trkpt lat="47.5334290601313114166259765625" lon="11.03222449310123920440673828125">
        <ele>1852.800048828125</ele>
        <time>2026-09-01T08:28:05.000Z</time>
        <extensions>
          <ns3:TrackPointExtension>
            <ns3:hr>161</ns3:hr>
            <ns3:cad>0</ns3:cad>
          </ns3:TrackPointExtension>
        </extensions>
      </trkpt>
      <trkpt lat="47.5334394536912441253662109375" lon="11.03223538957536220550537109375">
        <ele>1853</ele>
        <time>2026-09-01T08:28:06.000Z</time>
        <extensions>
          <ns3:TrackPointExtension>
            <ns3:hr>162</ns3:hr>
            <ns3:cad>0</ns3:cad>
          </ns3:TrackPointExtension>
        </extensions>
      </trkpt>
      <trkpt lat="47.5334461592137813568115234375" lon="11.03224410675466060638427734375">
        <ele>1853.4000244140625</ele>
        <time>2026-09-01T08:28:07.000Z</time>
        <extensions>
          <ns3:TrackPointExtension>
            <ns3:hr>163</ns3:hr>
            <ns3:cad>0</ns3:cad>
          </ns3:TrackPointExtension>
        </extensions>
      </trkpt>
      <trkpt lat="47.53345663659274578094482421875" lon="11.03224955499172210693359375">
        <ele>1853.5999755859375</ele>
        <time>2026-09-01T08:28:08.000Z</time>
        <extensions>
          <ns3:TrackPointExtension>
            <ns3:hr>164</ns3:hr>
            <ns3:cad>0</ns3:cad>
          </ns3:TrackPointExtension>
        </extensions>
      </trkpt>
      <trkpt lat="47.5334632582962512969970703125" lon="11.03224947117269039154052734375">
        <ele>1853.800048828125</ele>
        <time>2026-09-01T08:28:09.000Z</time>
        <extensions>
          <ns3:TrackPointExtension>
            <ns3:hr>165</ns3:hr>
            <ns3:cad>0</ns3:cad>
          </ns3:TrackPointExtension>
        </extensions>
      </trkpt>
      <trkpt lat="47.533470802009105682373046875" lon="11.03225533850491046905517578125">
        <ele>1854.199951171875</ele>
        <time>2026-09-01T08:28:10.000Z</time>
        <extensions>
          <ns3:TrackPointExtension>
            <ns3:hr>165</ns3:hr>
            <ns3:cad>0</ns3:cad>
          </ns3:TrackPointExtension>
        </extensions>
      </trkpt>
      <trkpt lat="47.53347474150359630584716796875" lon="11.0322584398090839385986328125">
        <ele>1854.4000244140625</ele>
        <time>2026-09-01T08:28:11.000Z</time>
        <extensions>
          <ns3:TrackPointExtension>
            <ns3:hr>166</ns3:hr>
            <ns3:cad>0</ns3:cad>
          </ns3:TrackPointExtension>
        </extensions>
      </trkpt>
      <trkpt lat="47.533475495874881744384765625" lon="11.03226874954998493194580078125">
        <ele>1854.800048828125</ele>
        <time>2026-09-01T08:28:12.000Z</time>
        <extensions>
          <ns3:TrackPointExtension>
            <ns3:hr>166</ns3:hr>
            <ns3:cad>0</ns3:cad>
          </ns3:TrackPointExtension>
        </extensions>
      </trkpt>
      <trkpt lat="47.5334738194942474365234375" lon="11.03227771818637847900390625">
        <ele>1855.199951171875</ele>
        <time>2026-09-01T08:28:13.000Z</time>
        <extensions>
          <ns3:TrackPointExtension>
            <ns3:hr>163</ns3:hr>
            <ns3:cad>0</ns3:cad>
          </ns3:TrackPointExtension>
        </extensions>
      </trkpt>
      <trkpt lat="47.53347314894199371337890625" lon="11.03228551335632801055908203125">
        <ele>1855.5999755859375</ele>
        <time>2026-09-01T08:28:14.000Z</time>
        <extensions>
          <ns3:TrackPointExtension>
            <ns3:hr>162</ns3:hr>
            <ns3:cad>0</ns3:cad>
          </ns3:TrackPointExtension>
        </extensions>
      </trkpt>
      <trkpt lat="47.53346778452396392822265625" lon="11.03228467516601085662841796875">
        <ele>1856</ele>
        <time>2026-09-01T08:28:15.000Z</time>
        <extensions>
          <ns3:TrackPointExtension>
            <ns3:hr>161</ns3:hr>
            <ns3:cad>0</ns3:cad>
          </ns3:TrackPointExtension>
        </extensions>
      </trkpt>
      <trkpt lat="47.5334652699530124664306640625" lon="11.03229506872594356536865234375">
        <ele>1856</ele>
        <time>2026-09-01T08:28:16.000Z</time>
        <extensions>
          <ns3:TrackPointExtension>
            <ns3:hr>161</ns3:hr>
            <ns3:cad>40</ns3:cad>
          </ns3:TrackPointExtension>
        </extensions>
      </trkpt>
      <trkpt lat="47.53346376121044158935546875" lon="11.032303869724273681640625">
        <ele>1856.199951171875</ele>
        <time>2026-09-01T08:28:17.000Z</time>
        <extensions>
          <ns3:TrackPointExtension>
            <ns3:hr>161</ns3:hr>
            <ns3:cad>42</ns3:cad>
          </ns3:TrackPointExtension>
        </extensions>
      </trkpt>
      <trkpt lat="47.53346334211528301239013671875" lon="11.03230588138103485107421875">
        <ele>1856.4000244140625</ele>
        <time>2026-09-01T08:28:18.000Z</time>
        <extensions>
          <ns3:TrackPointExtension>
            <ns3:hr>161</ns3:hr>
            <ns3:cad>42</ns3:cad>
          </ns3:TrackPointExtension>
        </extensions>
      </trkpt>
      <trkpt lat="47.53346283920109272003173828125" lon="11.03230428881943225860595703125">
        <ele>1856.5999755859375</ele>
        <time>2026-09-01T08:28:19.000Z</time>
        <extensions>
          <ns3:TrackPointExtension>
            <ns3:hr>161</ns3:hr>
            <ns3:cad>43</ns3:cad>
          </ns3:TrackPointExtension>
        </extensions>
      </trkpt>
      <trkpt lat="47.5334630906581878662109375" lon="11.0323100723326206207275390625">
        <ele>1857</ele>
        <time>2026-09-01T08:28:20.000Z</time>
        <extensions>
          <ns3:TrackPointExtension>
            <ns3:hr>162</ns3:hr>
            <ns3:cad>43</ns3:cad>
          </ns3:TrackPointExtension>
        </extensions>
      </trkpt>
      <trkpt lat="47.5334713049232959747314453125" lon="11.03231401182711124420166015625">
        <ele>1857.4000244140625</ele>
        <time>2026-09-01T08:28:21.000Z</time>
        <extensions>
          <ns3:TrackPointExtension>
            <ns3:hr>162</ns3:hr>
            <ns3:cad>0</ns3:cad>
          </ns3:TrackPointExtension>
        </extensions>
      </trkpt>
      <trkpt lat="47.53347692079842090606689453125" lon="11.032320298254489898681640625">
        <ele>1857.5999755859375</ele>
        <time>2026-09-01T08:28:22.000Z</time>
        <extensions>
          <ns3:TrackPointExtension>
            <ns3:hr>162</ns3:hr>
            <ns3:cad>0</ns3:cad>
          </ns3:TrackPointExtension>
        </extensions>
      </trkpt>
      <trkpt lat="47.53348010592162609100341796875" lon="11.032323651015758514404296875">
        <ele>1857.800048828125</ele>
        <time>2026-09-01T08:28:23.000Z</time>
        <extensions>
          <ns3:TrackPointExtension>
            <ns3:hr>163</ns3:hr>
            <ns3:cad>0</ns3:cad>
          </ns3:TrackPointExtension>
        </extensions>
      </trkpt>
      <trkpt lat="47.5334816984832286834716796875" lon="11.032332368195056915283203125">
        <ele>1858</ele>
        <time>2026-09-01T08:28:24.000Z</time>
        <extensions>
          <ns3:TrackPointExtension>
            <ns3:hr>164</ns3:hr>
            <ns3:cad>0</ns3:cad>
          </ns3:TrackPointExtension>
        </extensions>
      </trkpt>
      <trkpt lat="47.53347859717905521392822265625" lon="11.03233261965215206146240234375">
        <ele>1858.199951171875</ele>
        <time>2026-09-01T08:28:25.000Z</time>
        <extensions>
          <ns3:TrackPointExtension>
            <ns3:hr>167</ns3:hr>
            <ns3:cad>0</ns3:cad>
          </ns3:TrackPointExtension>
        </extensions>
      </trkpt>
      <trkpt lat="47.5334662757813930511474609375" lon="11.032340414822101593017578125">
        <ele>1858.4000244140625</ele>
        <time>2026-09-01T08:28:26.000Z</time>
        <extensions>
          <ns3:TrackPointExtension>
            <ns3:hr>167</ns3:hr>
            <ns3:cad>0</ns3:cad>
          </ns3:TrackPointExtension>
        </extensions>
      </trkpt>
      <trkpt lat="47.5334582291543483734130859375" lon="11.03234401904046535491943359375">
        <ele>1858.4000244140625</ele>
        <time>2026-09-01T08:28:27.000Z</time>
        <extensions>
          <ns3:TrackPointExtension>
            <ns3:hr>165</ns3:hr>
            <ns3:cad>0</ns3:cad>
          </ns3:TrackPointExtension>
        </extensions>
      </trkpt>
      <trkpt lat="47.53345060162246227264404296875" lon="11.03234904818236827850341796875">
        <ele>1858.5999755859375</ele>
        <time>2026-09-01T08:28:28.000Z</time>
        <extensions>
          <ns3:TrackPointExtension>
            <ns3:hr>164</ns3:hr>
            <ns3:cad>0</ns3:cad>
          </ns3:TrackPointExtension>
        </extensions>
      </trkpt>
      <trkpt lat="47.53347993828356266021728515625" lon="11.03237017057836055755615234375">
        <ele>1859</ele>
        <time>2026-09-01T08:28:29.000Z</time>
        <extensions>
          <ns3:TrackPointExtension>
            <ns3:hr>164</ns3:hr>
            <ns3:cad>0</ns3:cad>
          </ns3:TrackPointExtension>
        </extensions>
      </trkpt>
      <trkpt lat="47.5334837101399898529052734375" lon="11.03237151168286800384521484375">
        <ele>1859.5999755859375</ele>
        <time>2026-09-01T08:28:30.000Z</time>
        <extensions>
          <ns3:TrackPointExtension>
            <ns3:hr>165</ns3:hr>
            <ns3:cad>0</ns3:cad>
          </ns3:TrackPointExtension>
        </extensions>
      </trkpt>
      <trkpt lat="47.533485554158687591552734375" lon="11.03237553499639034271240234375">
        <ele>1859.800048828125</ele>
        <time>2026-09-01T08:28:31.000Z</time>
        <extensions>
          <ns3:TrackPointExtension>
            <ns3:hr>165</ns3:hr>
            <ns3:cad>0</ns3:cad>
          </ns3:TrackPointExtension>
        </extensions>
      </trkpt>
      <trkpt lat="47.53349502570927143096923828125" lon="11.03239095769822597503662109375">
        <ele>1860.199951171875</ele>
        <time>2026-09-01T08:28:32.000Z</time>
        <extensions>
          <ns3:TrackPointExtension>
            <ns3:hr>165</ns3:hr>
            <ns3:cad>0</ns3:cad>
          </ns3:TrackPointExtension>
        </extensions>
      </trkpt>
      <trkpt lat="47.53350122831761837005615234375" lon="11.03239917196333408355712890625">
        <ele>1860.5999755859375</ele>
        <time>2026-09-01T08:28:33.000Z</time>
        <extensions>
          <ns3:TrackPointExtension>
            <ns3:hr>165</ns3:hr>
            <ns3:cad>0</ns3:cad>
          </ns3:TrackPointExtension>
        </extensions>
      </trkpt>
      <trkpt lat="47.53350089304149150848388671875" lon="11.03239850141108036041259765625">
        <ele>1860.5999755859375</ele>
        <time>2026-09-01T08:28:34.000Z</time>
        <extensions>
          <ns3:TrackPointExtension>
            <ns3:hr>165</ns3:hr>
            <ns3:cad>0</ns3:cad>
          </ns3:TrackPointExtension>
        </extensions>
      </trkpt>
      <trkpt lat="47.53350407816469669342041015625" lon="11.0323992557823657989501953125">
        <ele>1860.800048828125</ele>
        <time>2026-09-01T08:28:35.000Z</time>
        <extensions>
          <ns3:TrackPointExtension>
            <ns3:hr>165</ns3:hr>
            <ns3:cad>0</ns3:cad>
          </ns3:TrackPointExtension>
        </extensions>
      </trkpt>
      <trkpt lat="47.533507682383060455322265625" lon="11.03240353055298328399658203125">
        <ele>1861</ele>
        <time>2026-09-01T08:28:36.000Z</time>
        <extensions>
          <ns3:TrackPointExtension>
            <ns3:hr>165</ns3:hr>
            <ns3:cad>0</ns3:cad>
          </ns3:TrackPointExtension>
        </extensions>
      </trkpt>
      <trkpt lat="47.53351430408656597137451171875" lon="11.03241040371358394622802734375">
        <ele>1861.199951171875</ele>
        <time>2026-09-01T08:28:37.000Z</time>
        <extensions>
          <ns3:TrackPointExtension>
            <ns3:hr>165</ns3:hr>
            <ns3:cad>0</ns3:cad>
          </ns3:TrackPointExtension>
        </extensions>
      </trkpt>
      <trkpt lat="47.533523105084896087646484375" lon="11.03242079727351665496826171875">
        <ele>1861.4000244140625</ele>
        <time>2026-09-01T08:28:38.000Z</time>
        <extensions>
          <ns3:TrackPointExtension>
            <ns3:hr>165</ns3:hr>
            <ns3:cad>0</ns3:cad>
          </ns3:TrackPointExtension>
        </extensions>
      </trkpt>
      <trkpt lat="47.53352888859808444976806640625" lon="11.03243102319538593292236328125">
        <ele>1861.5999755859375</ele>
        <time>2026-09-01T08:28:39.000Z</time>
        <extensions>
          <ns3:TrackPointExtension>
            <ns3:hr>165</ns3:hr>
            <ns3:cad>0</ns3:cad>
          </ns3:TrackPointExtension>
        </extensions>
      </trkpt>
      <trkpt lat="47.53353509120643138885498046875" lon="11.03244594298303127288818359375">
        <ele>1862</ele>
        <time>2026-09-01T08:28:40.000Z</time>
        <extensions>
          <ns3:TrackPointExtension>
            <ns3:hr>164</ns3:hr>
            <ns3:cad>0</ns3:cad>
          </ns3:TrackPointExtension>
        </extensions>
      </trkpt>
      <trkpt lat="47.53354012034833431243896484375" lon="11.03245549835264682769775390625">
        <ele>1862.4000244140625</ele>
        <time>2026-09-01T08:28:41.000Z</time>
        <extensions>
          <ns3:TrackPointExtension>
            <ns3:hr>164</ns3:hr>
            <ns3:cad>0</ns3:cad>
          </ns3:TrackPointExtension>
        </extensions>
      </trkpt>
      <trkpt lat="47.5335437245666980743408203125" lon="11.0324666462838649749755859375">
        <ele>1862.800048828125</ele>
        <time>2026-09-01T08:28:42.000Z</time>
        <extensions>
          <ns3:TrackPointExtension>
            <ns3:hr>164</ns3:hr>
            <ns3:cad>0</ns3:cad>
          </ns3:TrackPointExtension>
        </extensions>
      </trkpt>
      <trkpt lat="47.533549256622791290283203125" lon="11.03247779421508312225341796875">
        <ele>1863</ele>
        <time>2026-09-01T08:28:43.000Z</time>
        <extensions>
          <ns3:TrackPointExtension>
            <ns3:hr>164</ns3:hr>
            <ns3:cad>0</ns3:cad>
          </ns3:TrackPointExtension>
        </extensions>
      </trkpt>
      <trkpt lat="47.5335542857646942138671875" lon="11.0324907861649990081787109375">
        <ele>1863.4000244140625</ele>
        <time>2026-09-01T08:28:44.000Z</time>
        <extensions>
          <ns3:TrackPointExtension>
            <ns3:hr>165</ns3:hr>
            <ns3:cad>0</ns3:cad>
          </ns3:TrackPointExtension>
        </extensions>
      </trkpt>
      <trkpt lat="47.533551268279552459716796875" lon="11.0325010120868682861328125">
        <ele>1863.800048828125</ele>
        <time>2026-09-01T08:28:45.000Z</time>
        <extensions>
          <ns3:TrackPointExtension>
            <ns3:hr>165</ns3:hr>
            <ns3:cad>0</ns3:cad>
          </ns3:TrackPointExtension>
        </extensions>
      </trkpt>
      <trkpt lat="47.53354313783347606658935546875" lon="11.032518446445465087890625">
        <ele>1864</ele>
        <time>2026-09-01T08:28:46.000Z</time>
        <extensions>
          <ns3:TrackPointExtension>
            <ns3:hr>166</ns3:hr>
            <ns3:cad>0</ns3:cad>
          </ns3:TrackPointExtension>
        </extensions>
      </trkpt>
      <trkpt lat="47.53353341482579708099365234375" lon="11.032530181109905242919921875">
        <ele>1864.199951171875</ele>
        <time>2026-09-01T08:28:47.000Z</time>
        <extensions>
          <ns3:TrackPointExtension>
            <ns3:hr>166</ns3:hr>
            <ns3:cad>0</ns3:cad>
          </ns3:TrackPointExtension>
        </extensions>
      </trkpt>
      <trkpt lat="47.5335319899022579193115234375" lon="11.03253847919404506683349609375">
        <ele>1864.5999755859375</ele>
        <time>2026-09-01T08:28:48.000Z</time>
        <extensions>
          <ns3:TrackPointExtension>
            <ns3:hr>166</ns3:hr>
            <ns3:cad>42</ns3:cad>
          </ns3:TrackPointExtension>
        </extensions>
      </trkpt>
      <trkpt lat="47.53353190608322620391845703125" lon="11.03254987858235836029052734375">
        <ele>1864.800048828125</ele>
        <time>2026-09-01T08:28:49.000Z</time>
        <extensions>
          <ns3:TrackPointExtension>
            <ns3:hr>167</ns3:hr>
            <ns3:cad>42</ns3:cad>
          </ns3:TrackPointExtension>
        </extensions>
      </trkpt>
      <trkpt lat="47.53353157080709934234619140625" lon="11.0325531475245952606201171875">
        <ele>1864.800048828125</ele>
        <time>2026-09-01T08:28:50.000Z</time>
        <extensions>
          <ns3:TrackPointExtension>
            <ns3:hr>167</ns3:hr>
            <ns3:cad>0</ns3:cad>
          </ns3:TrackPointExtension>
        </extensions>
      </trkpt>
      <trkpt lat="47.5335296429693698883056640625" lon="11.03256010450422763824462890625">
        <ele>1865</ele>
        <time>2026-09-01T08:28:51.000Z</time>
        <extensions>
          <ns3:TrackPointExtension>
            <ns3:hr>167</ns3:hr>
            <ns3:cad>0</ns3:cad>
          </ns3:TrackPointExtension>
        </extensions>
      </trkpt>
      <trkpt lat="47.5335363484919071197509765625" lon="11.0325632058084011077880859375">
        <ele>1865.199951171875</ele>
        <time>2026-09-01T08:28:52.000Z</time>
        <extensions>
          <ns3:TrackPointExtension>
            <ns3:hr>168</ns3:hr>
            <ns3:cad>41</ns3:cad>
          </ns3:TrackPointExtension>
        </extensions>
      </trkpt>
      <trkpt lat="47.5335403718054294586181640625" lon="11.03256345726549625396728515625">
        <ele>1865.4000244140625</ele>
        <time>2026-09-01T08:28:53.000Z</time>
        <extensions>
          <ns3:TrackPointExtension>
            <ns3:hr>168</ns3:hr>
            <ns3:cad>41</ns3:cad>
          </ns3:TrackPointExtension>
        </extensions>
      </trkpt>
      <trkpt lat="47.5335417129099369049072265625" lon="11.03256496600806713104248046875">
        <ele>1865.5999755859375</ele>
        <time>2026-09-01T08:28:54.000Z</time>
        <extensions>
          <ns3:TrackPointExtension>
            <ns3:hr>168</ns3:hr>
            <ns3:cad>41</ns3:cad>
          </ns3:TrackPointExtension>
        </extensions>
      </trkpt>
      <trkpt lat="47.5335464067757129669189453125" lon="11.03256379254162311553955078125">
        <ele>1866.199951171875</ele>
        <time>2026-09-01T08:28:55.000Z</time>
        <extensions>
          <ns3:TrackPointExtension>
            <ns3:hr>168</ns3:hr>
            <ns3:cad>0</ns3:cad>
          </ns3:TrackPointExtension>
        </extensions>
      </trkpt>
      <trkpt lat="47.5335484184324741363525390625" lon="11.03257167153060436248779296875">
        <ele>1866.4000244140625</ele>
        <time>2026-09-01T08:28:56.000Z</time>
        <extensions>
          <ns3:TrackPointExtension>
            <ns3:hr>168</ns3:hr>
            <ns3:cad>0</ns3:cad>
          </ns3:TrackPointExtension>
        </extensions>
      </trkpt>
      <trkpt lat="47.53354732878506183624267578125" lon="11.032576449215412139892578125">
        <ele>1866.800048828125</ele>
        <time>2026-09-01T08:28:57.000Z</time>
        <extensions>
          <ns3:TrackPointExtension>
            <ns3:hr>168</ns3:hr>
            <ns3:cad>0</ns3:cad>
          </ns3:TrackPointExtension>
        </extensions>
      </trkpt>
      <trkpt lat="47.5335464067757129669189453125" lon="11.03258022107183933258056640625">
        <ele>1867.199951171875</ele>
        <time>2026-09-01T08:28:58.000Z</time>
        <extensions>
          <ns3:TrackPointExtension>
            <ns3:hr>167</ns3:hr>
            <ns3:cad>0</ns3:cad>
          </ns3:TrackPointExtension>
        </extensions>
      </trkpt>
      <trkpt lat="47.5335460714995861053466796875" lon="11.03258793242275714874267578125">
        <ele>1867.4000244140625</ele>
        <time>2026-09-01T08:28:59.000Z</time>
        <extensions>
          <ns3:TrackPointExtension>
            <ns3:hr>167</ns3:hr>
            <ns3:cad>0</ns3:cad>
          </ns3:TrackPointExtension>
        </extensions>
      </trkpt>
      <trkpt lat="47.53354682587087154388427734375" lon="11.03259555995464324951171875">
        <ele>1867.800048828125</ele>
        <time>2026-09-01T08:29:00.000Z</time>
        <extensions>
          <ns3:TrackPointExtension>
            <ns3:hr>167</ns3:hr>
            <ns3:cad>0</ns3:cad>
          </ns3:TrackPointExtension>
        </extensions>
      </trkpt>
      <trkpt lat="47.5335477478802204132080078125" lon="11.03260117582976818084716796875">
        <ele>1868.199951171875</ele>
        <time>2026-09-01T08:29:01.000Z</time>
        <extensions>
          <ns3:TrackPointExtension>
            <ns3:hr>168</ns3:hr>
            <ns3:cad>0</ns3:cad>
          </ns3:TrackPointExtension>
        </extensions>
      </trkpt>
      <trkpt lat="47.53355151973664760589599609375" lon="11.0326136648654937744140625">
        <ele>1868.4000244140625</ele>
        <time>2026-09-01T08:29:02.000Z</time>
        <extensions>
          <ns3:TrackPointExtension>
            <ns3:hr>168</ns3:hr>
            <ns3:cad>0</ns3:cad>
          </ns3:TrackPointExtension>
        </extensions>
      </trkpt>
      <trkpt lat="47.53355554305016994476318359375" lon="11.0326217114925384521484375">
        <ele>1868.5999755859375</ele>
        <time>2026-09-01T08:29:03.000Z</time>
        <extensions>
          <ns3:TrackPointExtension>
            <ns3:hr>168</ns3:hr>
            <ns3:cad>0</ns3:cad>
          </ns3:TrackPointExtension>
        </extensions>
      </trkpt>
      <trkpt lat="47.53355369903147220611572265625" lon="11.032616682350635528564453125">
        <ele>1868.800048828125</ele>
        <time>2026-09-01T08:29:04.000Z</time>
        <extensions>
          <ns3:TrackPointExtension>
            <ns3:hr>167</ns3:hr>
            <ns3:cad>0</ns3:cad>
          </ns3:TrackPointExtension>
        </extensions>
      </trkpt>
      <trkpt lat="47.53355487249791622161865234375" lon="11.0326259024441242218017578125">
        <ele>1869.199951171875</ele>
        <time>2026-09-01T08:29:05.000Z</time>
        <extensions>
          <ns3:TrackPointExtension>
            <ns3:hr>167</ns3:hr>
            <ns3:cad>0</ns3:cad>
          </ns3:TrackPointExtension>
        </extensions>
      </trkpt>
      <trkpt lat="47.53355939872562885284423828125" lon="11.032638140022754669189453125">
        <ele>1869.4000244140625</ele>
        <time>2026-09-01T08:29:06.000Z</time>
        <extensions>
          <ns3:TrackPointExtension>
            <ns3:hr>167</ns3:hr>
            <ns3:cad>0</ns3:cad>
          </ns3:TrackPointExtension>
        </extensions>
      </trkpt>
      <trkpt lat="47.53355386666953563690185546875" lon="11.03263914585113525390625">
        <ele>1869.800048828125</ele>
        <time>2026-09-01T08:29:07.000Z</time>
        <extensions>
          <ns3:TrackPointExtension>
            <ns3:hr>168</ns3:hr>
            <ns3:cad>0</ns3:cad>
          </ns3:TrackPointExtension>
        </extensions>
      </trkpt>
      <trkpt lat="47.533558309078216552734375" lon="11.032648198306560516357421875">
        <ele>1870</ele>
        <time>2026-09-01T08:29:08.000Z</time>
        <extensions>
          <ns3:TrackPointExtension>
            <ns3:hr>168</ns3:hr>
            <ns3:cad>0</ns3:cad>
          </ns3:TrackPointExtension>
        </extensions>
      </trkpt>
      <trkpt lat="47.53356509841978549957275390625" lon="11.03265062905848026275634765625">
        <ele>1870.199951171875</ele>
        <time>2026-09-01T08:29:09.000Z</time>
        <extensions>
          <ns3:TrackPointExtension>
            <ns3:hr>169</ns3:hr>
            <ns3:cad>0</ns3:cad>
          </ns3:TrackPointExtension>
        </extensions>
      </trkpt>
      <trkpt lat="47.53357297740876674652099609375" lon="11.0326597653329372406005859375">
        <ele>1870.4000244140625</ele>
        <time>2026-09-01T08:29:10.000Z</time>
        <extensions>
          <ns3:TrackPointExtension>
            <ns3:hr>169</ns3:hr>
            <ns3:cad>0</ns3:cad>
          </ns3:TrackPointExtension>
        </extensions>
      </trkpt>
      <trkpt lat="47.533576078712940216064453125" lon="11.03266789577901363372802734375">
        <ele>1870.5999755859375</ele>
        <time>2026-09-01T08:29:11.000Z</time>
        <extensions>
          <ns3:TrackPointExtension>
            <ns3:hr>169</ns3:hr>
            <ns3:cad>58</ns3:cad>
          </ns3:TrackPointExtension>
        </extensions>
      </trkpt>
      <trkpt lat="47.53357909619808197021484375" lon="11.0326738469302654266357421875">
        <ele>1870.800048828125</ele>
        <time>2026-09-01T08:29:12.000Z</time>
        <extensions>
          <ns3:TrackPointExtension>
            <ns3:hr>169</ns3:hr>
            <ns3:cad>58</ns3:cad>
          </ns3:TrackPointExtension>
        </extensions>
      </trkpt>
      <trkpt lat="47.53358471207320690155029296875" lon="11.03268533013761043548583984375">
        <ele>1871</ele>
        <time>2026-09-01T08:29:13.000Z</time>
        <extensions>
          <ns3:TrackPointExtension>
            <ns3:hr>169</ns3:hr>
            <ns3:cad>58</ns3:cad>
          </ns3:TrackPointExtension>
        </extensions>
      </trkpt>
      <trkpt lat="47.53359158523380756378173828125" lon="11.032697819173336029052734375">
        <ele>1871.4000244140625</ele>
        <time>2026-09-01T08:29:14.000Z</time>
        <extensions>
          <ns3:TrackPointExtension>
            <ns3:hr>169</ns3:hr>
            <ns3:cad>58</ns3:cad>
          </ns3:TrackPointExtension>
        </extensions>
      </trkpt>
      <trkpt lat="47.533595524728298187255859375" lon="11.03270377032458782196044921875">
        <ele>1871.800048828125</ele>
        <time>2026-09-01T08:29:15.000Z</time>
        <extensions>
          <ns3:TrackPointExtension>
            <ns3:hr>169</ns3:hr>
            <ns3:cad>41</ns3:cad>
          </ns3:TrackPointExtension>
        </extensions>
      </trkpt>
      <trkpt lat="47.5336023978888988494873046875" lon="11.0327127389609813690185546875">
        <ele>1872.199951171875</ele>
        <time>2026-09-01T08:29:16.000Z</time>
        <extensions>
          <ns3:TrackPointExtension>
            <ns3:hr>169</ns3:hr>
            <ns3:cad>41</ns3:cad>
          </ns3:TrackPointExtension>
        </extensions>
      </trkpt>
      <trkpt lat="47.5336070917546749114990234375" lon="11.03271600790321826934814453125">
        <ele>1872.5999755859375</ele>
        <time>2026-09-01T08:29:17.000Z</time>
        <extensions>
          <ns3:TrackPointExtension>
            <ns3:hr>170</ns3:hr>
            <ns3:cad>41</ns3:cad>
          </ns3:TrackPointExtension>
        </extensions>
      </trkpt>
      <trkpt lat="47.5336132943630218505859375" lon="11.03271869011223316192626953125">
        <ele>1873</ele>
        <time>2026-09-01T08:29:18.000Z</time>
        <extensions>
          <ns3:TrackPointExtension>
            <ns3:hr>170</ns3:hr>
            <ns3:cad>41</ns3:cad>
          </ns3:TrackPointExtension>
        </extensions>
      </trkpt>
      <trkpt lat="47.53361589275300502777099609375" lon="11.032723300158977508544921875">
        <ele>1873.199951171875</ele>
        <time>2026-09-01T08:29:19.000Z</time>
        <extensions>
          <ns3:TrackPointExtension>
            <ns3:hr>170</ns3:hr>
            <ns3:cad>77</ns3:cad>
          </ns3:TrackPointExtension>
        </extensions>
      </trkpt>
      <trkpt lat="47.53362335264682769775390625" lon="11.03273143060505390167236328125">
        <ele>1873.4000244140625</ele>
        <time>2026-09-01T08:29:20.000Z</time>
        <extensions>
          <ns3:TrackPointExtension>
            <ns3:hr>171</ns3:hr>
            <ns3:cad>77</ns3:cad>
          </ns3:TrackPointExtension>
        </extensions>
      </trkpt>
      <trkpt lat="47.53363131545484066009521484375" lon="11.0327398963272571563720703125">
        <ele>1873.5999755859375</ele>
        <time>2026-09-01T08:29:21.000Z</time>
        <extensions>
          <ns3:TrackPointExtension>
            <ns3:hr>172</ns3:hr>
            <ns3:cad>51</ns3:cad>
          </ns3:TrackPointExtension>
        </extensions>
      </trkpt>
      <trkpt lat="47.533637769520282745361328125" lon="11.03274970315396785736083984375">
        <ele>1873.800048828125</ele>
        <time>2026-09-01T08:29:22.000Z</time>
        <extensions>
          <ns3:TrackPointExtension>
            <ns3:hr>170</ns3:hr>
            <ns3:cad>51</ns3:cad>
          </ns3:TrackPointExtension>
        </extensions>
      </trkpt>
      <trkpt lat="47.53365126438438892364501953125" lon="11.03276328183710575103759765625">
        <ele>1874</ele>
        <time>2026-09-01T08:29:23.000Z</time>
        <extensions>
          <ns3:TrackPointExtension>
            <ns3:hr>167</ns3:hr>
            <ns3:cad>47</ns3:cad>
          </ns3:TrackPointExtension>
        </extensions>
      </trkpt>
      <trkpt lat="47.53366266377270221710205078125" lon="11.03277392685413360595703125">
        <ele>1874</ele>
        <time>2026-09-01T08:29:24.000Z</time>
        <extensions>
          <ns3:TrackPointExtension>
            <ns3:hr>166</ns3:hr>
            <ns3:cad>47</ns3:cad>
          </ns3:TrackPointExtension>
        </extensions>
      </trkpt>
      <trkpt lat="47.53367791883647441864013671875" lon="11.03278356604278087615966796875">
        <ele>1874.199951171875</ele>
        <time>2026-09-01T08:29:25.000Z</time>
        <extensions>
          <ns3:TrackPointExtension>
            <ns3:hr>166</ns3:hr>
            <ns3:cad>46</ns3:cad>
          </ns3:TrackPointExtension>
        </extensions>
      </trkpt>
      <trkpt lat="47.5336883962154388427734375" lon="11.0327911935746669769287109375">
        <ele>1874.199951171875</ele>
        <time>2026-09-01T08:29:26.000Z</time>
        <extensions>
          <ns3:TrackPointExtension>
            <ns3:hr>166</ns3:hr>
            <ns3:cad>46</ns3:cad>
          </ns3:TrackPointExtension>
        </extensions>
      </trkpt>
      <trkpt lat="47.53370323218405246734619140625" lon="11.0327968932688236236572265625">
        <ele>1874</ele>
        <time>2026-09-01T08:29:27.000Z</time>
        <extensions>
          <ns3:TrackPointExtension>
            <ns3:hr>165</ns3:hr>
            <ns3:cad>71</ns3:cad>
          </ns3:TrackPointExtension>
        </extensions>
      </trkpt>
      <trkpt lat="47.53371077589690685272216796875" lon="11.03280116803944110870361328125">
        <ele>1873.800048828125</ele>
        <time>2026-09-01T08:29:28.000Z</time>
        <extensions>
          <ns3:TrackPointExtension>
            <ns3:hr>165</ns3:hr>
            <ns3:cad>71</ns3:cad>
          </ns3:TrackPointExtension>
        </extensions>
      </trkpt>
      <trkpt lat="47.53371563740074634552001953125" lon="11.0328094661235809326171875">
        <ele>1873.5999755859375</ele>
        <time>2026-09-01T08:29:29.000Z</time>
        <extensions>
          <ns3:TrackPointExtension>
            <ns3:hr>165</ns3:hr>
            <ns3:cad>71</ns3:cad>
          </ns3:TrackPointExtension>
        </extensions>
      </trkpt>
      <trkpt lat="47.53372401930391788482666015625" lon="11.0328148305416107177734375">
        <ele>1873.199951171875</ele>
        <time>2026-09-01T08:29:30.000Z</time>
        <extensions>
          <ns3:TrackPointExtension>
            <ns3:hr>165</ns3:hr>
            <ns3:cad>74</ns3:cad>
          </ns3:TrackPointExtension>
        </extensions>
      </trkpt>
      <trkpt lat="47.53373089246451854705810546875" lon="11.03281927295029163360595703125">
        <ele>1872.800048828125</ele>
        <time>2026-09-01T08:29:31.000Z</time>
        <extensions>
          <ns3:TrackPointExtension>
            <ns3:hr>165</ns3:hr>
            <ns3:cad>74</ns3:cad>
          </ns3:TrackPointExtension>
        </extensions>
      </trkpt>
      <trkpt lat="47.5337393581867218017578125" lon="11.03282145224511623382568359375">
        <ele>1872.5999755859375</ele>
        <time>2026-09-01T08:29:32.000Z</time>
        <extensions>
          <ns3:TrackPointExtension>
            <ns3:hr>166</ns3:hr>
            <ns3:cad>64</ns3:cad>
          </ns3:TrackPointExtension>
        </extensions>
      </trkpt>
      <trkpt lat="47.5337502546608448028564453125" lon="11.032828576862812042236328125">
        <ele>1872.199951171875</ele>
        <time>2026-09-01T08:29:33.000Z</time>
        <extensions>
          <ns3:TrackPointExtension>
            <ns3:hr>166</ns3:hr>
            <ns3:cad>64</ns3:cad>
          </ns3:TrackPointExtension>
        </extensions>
      </trkpt>
      <trkpt lat="47.5337576307356357574462890625" lon="11.03283503092825412750244140625">
        <ele>1872</ele>
        <time>2026-09-01T08:29:34.000Z</time>
        <extensions>
          <ns3:TrackPointExtension>
            <ns3:hr>166</ns3:hr>
            <ns3:cad>64</ns3:cad>
          </ns3:TrackPointExtension>
        </extensions>
      </trkpt>
      <trkpt lat="47.53376157023012638092041015625" lon="11.0328367911279201507568359375">
        <ele>1871.800048828125</ele>
        <time>2026-09-01T08:29:35.000Z</time>
        <extensions>
          <ns3:TrackPointExtension>
            <ns3:hr>166</ns3:hr>
            <ns3:cad>64</ns3:cad>
          </ns3:TrackPointExtension>
        </extensions>
      </trkpt>
      <trkpt lat="47.53376726992428302764892578125" lon="11.03283964097499847412109375">
        <ele>1871.5999755859375</ele>
        <time>2026-09-01T08:29:36.000Z</time>
        <extensions>
          <ns3:TrackPointExtension>
            <ns3:hr>166</ns3:hr>
            <ns3:cad>64</ns3:cad>
          </ns3:TrackPointExtension>
        </extensions>
      </trkpt>
      <trkpt lat="47.533767521381378173828125" lon="11.0328438319265842437744140625">
        <ele>1871.4000244140625</ele>
        <time>2026-09-01T08:29:37.000Z</time>
        <extensions>
          <ns3:TrackPointExtension>
            <ns3:hr>165</ns3:hr>
            <ns3:cad>0</ns3:cad>
          </ns3:TrackPointExtension>
        </extensions>
      </trkpt>
      <trkpt lat="47.53376944921910762786865234375" lon="11.0328528843820095062255859375">
        <ele>1871.199951171875</ele>
        <time>2026-09-01T08:29:38.000Z</time>
        <extensions>
          <ns3:TrackPointExtension>
            <ns3:hr>165</ns3:hr>
            <ns3:cad>0</ns3:cad>
          </ns3:TrackPointExtension>
        </extensions>
      </trkpt>
      <trkpt lat="47.53377179615199565887451171875" lon="11.03285632096230983734130859375">
        <ele>1871.199951171875</ele>
        <time>2026-09-01T08:29:39.000Z</time>
        <extensions>
          <ns3:TrackPointExtension>
            <ns3:hr>165</ns3:hr>
            <ns3:cad>0</ns3:cad>
          </ns3:TrackPointExtension>
        </extensions>
      </trkpt>
      <trkpt lat="47.5337720476090908050537109375" lon="11.03285866789519786834716796875">
        <ele>1871.199951171875</ele>
        <time>2026-09-01T08:29:40.000Z</time>
        <extensions>
          <ns3:TrackPointExtension>
            <ns3:hr>165</ns3:hr>
            <ns3:cad>0</ns3:cad>
          </ns3:TrackPointExtension>
        </extensions>
      </trkpt>
      <trkpt lat="47.5337737239897251129150390625" lon="11.03286118246614933013916015625">
        <ele>1871.199951171875</ele>
        <time>2026-09-01T08:29:41.000Z</time>
        <extensions>
          <ns3:TrackPointExtension>
            <ns3:hr>165</ns3:hr>
            <ns3:cad>0</ns3:cad>
          </ns3:TrackPointExtension>
        </extensions>
      </trkpt>
      <trkpt lat="47.53377489745616912841796875" lon="11.0328626073896884918212890625">
        <ele>1871.5999755859375</ele>
        <time>2026-09-01T08:29:42.000Z</time>
        <extensions>
          <ns3:TrackPointExtension>
            <ns3:hr>165</ns3:hr>
            <ns3:cad>0</ns3:cad>
          </ns3:TrackPointExtension>
        </extensions>
      </trkpt>
      <trkpt lat="47.53378235734999179840087890625" lon="11.032861433923244476318359375">
        <ele>1871.800048828125</ele>
        <time>2026-09-01T08:29:43.000Z</time>
        <extensions>
          <ns3:TrackPointExtension>
            <ns3:hr>165</ns3:hr>
            <ns3:cad>0</ns3:cad>
          </ns3:TrackPointExtension>
        </extensions>
      </trkpt>
      <trkpt lat="47.5337854586541652679443359375" lon="11.03286419995129108428955078125">
        <ele>1872</ele>
        <time>2026-09-01T08:29:44.000Z</time>
        <extensions>
          <ns3:TrackPointExtension>
            <ns3:hr>165</ns3:hr>
            <ns3:cad>0</ns3:cad>
          </ns3:TrackPointExtension>
        </extensions>
      </trkpt>
      <trkpt lat="47.53379241563379764556884765625" lon="11.03286604396998882293701171875">
        <ele>1872.199951171875</ele>
        <time>2026-09-01T08:29:45.000Z</time>
        <extensions>
          <ns3:TrackPointExtension>
            <ns3:hr>165</ns3:hr>
            <ns3:cad>0</ns3:cad>
          </ns3:TrackPointExtension>
        </extensions>
      </trkpt>
      <trkpt lat="47.5338025577366352081298828125" lon="11.03287459351122379302978515625">
        <ele>1872.199951171875</ele>
        <time>2026-09-01T08:29:46.000Z</time>
        <extensions>
          <ns3:TrackPointExtension>
            <ns3:hr>166</ns3:hr>
            <ns3:cad>0</ns3:cad>
          </ns3:TrackPointExtension>
        </extensions>
      </trkpt>
      <trkpt lat="47.5338069163262844085693359375" lon="11.0328773595392704010009765625">
        <ele>1872</ele>
        <time>2026-09-01T08:29:47.000Z</time>
        <extensions>
          <ns3:TrackPointExtension>
            <ns3:hr>165</ns3:hr>
            <ns3:cad>0</ns3:cad>
          </ns3:TrackPointExtension>
        </extensions>
      </trkpt>
      <trkpt lat="47.53381269983947277069091796875" lon="11.03288515470921993255615234375">
        <ele>1871.800048828125</ele>
        <time>2026-09-01T08:29:48.000Z</time>
        <extensions>
          <ns3:TrackPointExtension>
            <ns3:hr>165</ns3:hr>
            <ns3:cad>0</ns3:cad>
          </ns3:TrackPointExtension>
        </extensions>
      </trkpt>
      <trkpt lat="47.53382451832294464111328125" lon="11.0329001583158969879150390625">
        <ele>1871.5999755859375</ele>
        <time>2026-09-01T08:29:49.000Z</time>
        <extensions>
          <ns3:TrackPointExtension>
            <ns3:hr>165</ns3:hr>
            <ns3:cad>0</ns3:cad>
          </ns3:TrackPointExtension>
        </extensions>
      </trkpt>
      <trkpt lat="47.5338364206254482269287109375" lon="11.03291247971355915069580078125">
        <ele>1871.199951171875</ele>
        <time>2026-09-01T08:29:50.000Z</time>
        <extensions>
          <ns3:TrackPointExtension>
            <ns3:hr>165</ns3:hr>
            <ns3:cad>0</ns3:cad>
          </ns3:TrackPointExtension>
        </extensions>
      </trkpt>
      <trkpt lat="47.53384807147085666656494140625" lon="11.03292454965412616729736328125">
        <ele>1870.5999755859375</ele>
        <time>2026-09-01T08:29:51.000Z</time>
        <extensions>
          <ns3:TrackPointExtension>
            <ns3:hr>164</ns3:hr>
            <ns3:cad>0</ns3:cad>
          </ns3:TrackPointExtension>
        </extensions>
      </trkpt>
      <trkpt lat="47.53386550582945346832275390625" lon="11.03293863125145435333251953125">
        <ele>1870</ele>
        <time>2026-09-01T08:29:52.000Z</time>
        <extensions>
          <ns3:TrackPointExtension>
            <ns3:hr>163</ns3:hr>
            <ns3:cad>0</ns3:cad>
          </ns3:TrackPointExtension>
        </extensions>
      </trkpt>
      <trkpt lat="47.533883191645145416259765625" lon="11.03296034038066864013671875">
        <ele>1869.4000244140625</ele>
        <time>2026-09-01T08:29:53.000Z</time>
        <extensions>
          <ns3:TrackPointExtension>
            <ns3:hr>163</ns3:hr>
            <ns3:cad>72</ns3:cad>
          </ns3:TrackPointExtension>
        </extensions>
      </trkpt>
      <trkpt lat="47.5338922441005706787109375" lon="11.0329826362431049346923828125">
        <ele>1869.199951171875</ele>
        <time>2026-09-01T08:29:54.000Z</time>
        <extensions>
          <ns3:TrackPointExtension>
            <ns3:hr>162</ns3:hr>
            <ns3:cad>77</ns3:cad>
          </ns3:TrackPointExtension>
        </extensions>
      </trkpt>
      <trkpt lat="47.53390506841242313385009765625" lon="11.03300484828650951385498046875">
        <ele>1869</ele>
        <time>2026-09-01T08:29:55.000Z</time>
        <extensions>
          <ns3:TrackPointExtension>
            <ns3:hr>160</ns3:hr>
            <ns3:cad>77</ns3:cad>
          </ns3:TrackPointExtension>
        </extensions>
      </trkpt>
      <trkpt lat="47.53391663543879985809326171875" lon="11.0330406390130519866943359375">
        <ele>1868.5999755859375</ele>
        <time>2026-09-01T08:29:56.000Z</time>
        <extensions>
          <ns3:TrackPointExtension>
            <ns3:hr>159</ns3:hr>
            <ns3:cad>77</ns3:cad>
          </ns3:TrackPointExtension>
        </extensions>
      </trkpt>
      <trkpt lat="47.53392619080841541290283203125" lon="11.03307123295962810516357421875">
        <ele>1868.5999755859375</ele>
        <time>2026-09-01T08:29:57.000Z</time>
        <extensions>
          <ns3:TrackPointExtension>
            <ns3:hr>158</ns3:hr>
            <ns3:cad>77</ns3:cad>
          </ns3:TrackPointExtension>
        </extensions>
      </trkpt>
      <trkpt lat="47.53393239341676235198974609375" lon="11.03309822268784046173095703125">
        <ele>1868.5999755859375</ele>
        <time>2026-09-01T08:29:58.000Z</time>
        <extensions>
          <ns3:TrackPointExtension>
            <ns3:hr>158</ns3:hr>
            <ns3:cad>77</ns3:cad>
          </ns3:TrackPointExtension>
        </extensions>
      </trkpt>
      <trkpt lat="47.53393557853996753692626953125" lon="11.03312822990119457244873046875">
        <ele>1868.4000244140625</ele>
        <time>2026-09-01T08:29:59.000Z</time>
        <extensions>
          <ns3:TrackPointExtension>
            <ns3:hr>157</ns3:hr>
            <ns3:cad>77</ns3:cad>
          </ns3:TrackPointExtension>
        </extensions>
      </trkpt>
      <trkpt lat="47.5339353270828723907470703125" lon="11.0331459157168865203857421875">
        <ele>1868.4000244140625</ele>
        <time>2026-09-01T08:30:00.000Z</time>
        <extensions>
          <ns3:TrackPointExtension>
            <ns3:hr>156</ns3:hr>
            <ns3:cad>77</ns3:cad>
          </ns3:TrackPointExtension>
        </extensions>
      </trkpt>
      <trkpt lat="47.53394044004380702972412109375" lon="11.03316125459969043731689453125">
        <ele>1868.4000244140625</ele>
        <time>2026-09-01T08:30:01.000Z</time>
        <extensions>
          <ns3:TrackPointExtension>
            <ns3:hr>155</ns3:hr>
            <ns3:cad>77</ns3:cad>
          </ns3:TrackPointExtension>
        </extensions>
      </trkpt>
      <trkpt lat="47.5339430384337902069091796875" lon="11.03318698704242706298828125">
        <ele>1868.4000244140625</ele>
        <time>2026-09-01T08:30:02.000Z</time>
        <extensions>
          <ns3:TrackPointExtension>
            <ns3:hr>155</ns3:hr>
            <ns3:cad>77</ns3:cad>
          </ns3:TrackPointExtension>
        </extensions>
      </trkpt>
      <trkpt lat="47.53395217470824718475341796875" lon="11.0331930220127105712890625">
        <ele>1868.4000244140625</ele>
        <time>2026-09-01T08:30:03.000Z</time>
        <extensions>
          <ns3:TrackPointExtension>
            <ns3:hr>154</ns3:hr>
            <ns3:cad>77</ns3:cad>
          </ns3:TrackPointExtension>
        </extensions>
      </trkpt>
      <trkpt lat="47.53396960906684398651123046875" lon="11.03321037255227565765380859375">
        <ele>1868.199951171875</ele>
        <time>2026-09-01T08:30:04.000Z</time>
        <extensions>
          <ns3:TrackPointExtension>
            <ns3:hr>153</ns3:hr>
            <ns3:cad>77</ns3:cad>
          </ns3:TrackPointExtension>
        </extensions>
      </trkpt>
      <trkpt lat="47.5339789129793643951416015625" lon="11.03321573697030544281005859375">
        <ele>1868.199951171875</ele>
        <time>2026-09-01T08:30:05.000Z</time>
        <extensions>
          <ns3:TrackPointExtension>
            <ns3:hr>153</ns3:hr>
            <ns3:cad>71</ns3:cad>
          </ns3:TrackPointExtension>
        </extensions>
      </trkpt>
      <trkpt lat="47.5339852832257747650146484375" lon="11.03322059847414493560791015625">
        <ele>1868</ele>
        <time>2026-09-01T08:30:06.000Z</time>
        <extensions>
          <ns3:TrackPointExtension>
            <ns3:hr>152</ns3:hr>
            <ns3:cad>71</ns3:cad>
          </ns3:TrackPointExtension>
        </extensions>
      </trkpt>
      <trkpt lat="47.53398737870156764984130859375" lon="11.03322328068315982818603515625">
        <ele>1867.800048828125</ele>
        <time>2026-09-01T08:30:07.000Z</time>
        <extensions>
          <ns3:TrackPointExtension>
            <ns3:hr>151</ns3:hr>
            <ns3:cad>71</ns3:cad>
          </ns3:TrackPointExtension>
        </extensions>
      </trkpt>
      <trkpt lat="47.53398804925382137298583984375" lon="11.03322160430252552032470703125">
        <ele>1867.4000244140625</ele>
        <time>2026-09-01T08:30:08.000Z</time>
        <extensions>
          <ns3:TrackPointExtension>
            <ns3:hr>150</ns3:hr>
            <ns3:cad>0</ns3:cad>
          </ns3:TrackPointExtension>
        </extensions>
      </trkpt>
      <trkpt lat="47.53398888744413852691650390625" lon="11.0332233645021915435791015625">
        <ele>1867.199951171875</ele>
        <time>2026-09-01T08:30:09.000Z</time>
        <extensions>
          <ns3:TrackPointExtension>
            <ns3:hr>150</ns3:hr>
            <ns3:cad>0</ns3:cad>
          </ns3:TrackPointExtension>
        </extensions>
      </trkpt>
      <trkpt lat="47.5339980237185955047607421875" lon="11.033226549625396728515625">
        <ele>1866.800048828125</ele>
        <time>2026-09-01T08:30:10.000Z</time>
        <extensions>
          <ns3:TrackPointExtension>
            <ns3:hr>149</ns3:hr>
            <ns3:cad>0</ns3:cad>
          </ns3:TrackPointExtension>
        </extensions>
      </trkpt>
      <trkpt lat="47.53401084803044795989990234375" lon="11.03323501534759998321533203125">
        <ele>1866.4000244140625</ele>
        <time>2026-09-01T08:30:11.000Z</time>
        <extensions>
          <ns3:TrackPointExtension>
            <ns3:hr>149</ns3:hr>
            <ns3:cad>0</ns3:cad>
          </ns3:TrackPointExtension>
        </extensions>
      </trkpt>
      <trkpt lat="47.5340241752564907073974609375" lon="11.0332448221743106842041015625">
        <ele>1866</ele>
        <time>2026-09-01T08:30:12.000Z</time>
        <extensions>
          <ns3:TrackPointExtension>
            <ns3:hr>149</ns3:hr>
            <ns3:cad>0</ns3:cad>
          </ns3:TrackPointExtension>
        </extensions>
      </trkpt>
      <trkpt lat="47.5340338982641696929931640625" lon="11.033255048096179962158203125">
        <ele>1865.800048828125</ele>
        <time>2026-09-01T08:30:13.000Z</time>
        <extensions>
          <ns3:TrackPointExtension>
            <ns3:hr>150</ns3:hr>
            <ns3:cad>0</ns3:cad>
          </ns3:TrackPointExtension>
        </extensions>
      </trkpt>
      <trkpt lat="47.53404923714697360992431640625" lon="11.03327357210218906402587890625">
        <ele>1865.199951171875</ele>
        <time>2026-09-01T08:30:14.000Z</time>
        <extensions>
          <ns3:TrackPointExtension>
            <ns3:hr>150</ns3:hr>
            <ns3:cad>0</ns3:cad>
          </ns3:TrackPointExtension>
        </extensions>
      </trkpt>
      <trkpt lat="47.53406566567718982696533203125" lon="11.03329435922205448150634765625">
        <ele>1864.800048828125</ele>
        <time>2026-09-01T08:30:15.000Z</time>
        <extensions>
          <ns3:TrackPointExtension>
            <ns3:hr>149</ns3:hr>
            <ns3:cad>0</ns3:cad>
          </ns3:TrackPointExtension>
        </extensions>
      </trkpt>
      <trkpt lat="47.534079663455486297607421875" lon="11.03331246413290500640869140625">
        <ele>1864.4000244140625</ele>
        <time>2026-09-01T08:30:16.000Z</time>
        <extensions>
          <ns3:TrackPointExtension>
            <ns3:hr>149</ns3:hr>
            <ns3:cad>70</ns3:cad>
          </ns3:TrackPointExtension>
        </extensions>
      </trkpt>
      <trkpt lat="47.534095086157321929931640625" lon="11.033331491053104400634765625">
        <ele>1864.199951171875</ele>
        <time>2026-09-01T08:30:17.000Z</time>
        <extensions>
          <ns3:TrackPointExtension>
            <ns3:hr>149</ns3:hr>
            <ns3:cad>70</ns3:cad>
          </ns3:TrackPointExtension>
        </extensions>
      </trkpt>
      <trkpt lat="47.5341146998107433319091796875" lon="11.033358313143253326416015625">
        <ele>1864.199951171875</ele>
        <time>2026-09-01T08:30:18.000Z</time>
        <extensions>
          <ns3:TrackPointExtension>
            <ns3:hr>148</ns3:hr>
            <ns3:cad>70</ns3:cad>
          </ns3:TrackPointExtension>
        </extensions>
      </trkpt>
      <trkpt lat="47.53413054160773754119873046875" lon="11.0333834588527679443359375">
        <ele>1864.199951171875</ele>
        <time>2026-09-01T08:30:19.000Z</time>
        <extensions>
          <ns3:TrackPointExtension>
            <ns3:hr>149</ns3:hr>
            <ns3:cad>70</ns3:cad>
          </ns3:TrackPointExtension>
        </extensions>
      </trkpt>
      <trkpt lat="47.53413758240640163421630859375" lon="11.033399887382984161376953125">
        <ele>1864.199951171875</ele>
        <time>2026-09-01T08:30:20.000Z</time>
        <extensions>
          <ns3:TrackPointExtension>
            <ns3:hr>149</ns3:hr>
            <ns3:cad>76</ns3:cad>
          </ns3:TrackPointExtension>
        </extensions>
      </trkpt>
      <trkpt lat="47.5341448746621608734130859375" lon="11.03342008776962757110595703125">
        <ele>1864</ele>
        <time>2026-09-01T08:30:21.000Z</time>
        <extensions>
          <ns3:TrackPointExtension>
            <ns3:hr>150</ns3:hr>
            <ns3:cad>80</ns3:cad>
          </ns3:TrackPointExtension>
        </extensions>
      </trkpt>
      <trkpt lat="47.534150741994380950927734375" lon="11.03343299590051174163818359375">
        <ele>1863.4000244140625</ele>
        <time>2026-09-01T08:30:22.000Z</time>
        <extensions>
          <ns3:TrackPointExtension>
            <ns3:hr>150</ns3:hr>
            <ns3:cad>80</ns3:cad>
          </ns3:TrackPointExtension>
        </extensions>
      </trkpt>
      <trkpt lat="47.5341673381626605987548828125" lon="11.03347088210284709930419921875">
        <ele>1862.800048828125</ele>
        <time>2026-09-01T08:30:23.000Z</time>
        <extensions>
          <ns3:TrackPointExtension>
            <ns3:hr>150</ns3:hr>
            <ns3:cad>76</ns3:cad>
          </ns3:TrackPointExtension>
        </extensions>
      </trkpt>
      <trkpt lat="47.53418100066483020782470703125" lon="11.03349083103239536285400390625">
        <ele>1862.4000244140625</ele>
        <time>2026-09-01T08:30:24.000Z</time>
        <extensions>
          <ns3:TrackPointExtension>
            <ns3:hr>149</ns3:hr>
            <ns3:cad>76</ns3:cad>
          </ns3:TrackPointExtension>
        </extensions>
      </trkpt>
      <trkpt lat="47.53420145250856876373291015625" lon="11.03350591845810413360595703125">
        <ele>1862</ele>
        <time>2026-09-01T08:30:25.000Z</time>
        <extensions>
          <ns3:TrackPointExtension>
            <ns3:hr>149</ns3:hr>
            <ns3:cad>76</ns3:cad>
          </ns3:TrackPointExtension>
        </extensions>
      </trkpt>
      <trkpt lat="47.53422425128519535064697265625" lon="11.0335318185389041900634765625">
        <ele>1861.800048828125</ele>
        <time>2026-09-01T08:30:26.000Z</time>
        <extensions>
          <ns3:TrackPointExtension>
            <ns3:hr>148</ns3:hr>
            <ns3:cad>76</ns3:cad>
          </ns3:TrackPointExtension>
        </extensions>
      </trkpt>
      <trkpt lat="47.534237913787364959716796875" lon="11.033546067774295806884765625">
        <ele>1861.5999755859375</ele>
        <time>2026-09-01T08:30:27.000Z</time>
        <extensions>
          <ns3:TrackPointExtension>
            <ns3:hr>148</ns3:hr>
            <ns3:cad>88</ns3:cad>
          </ns3:TrackPointExtension>
        </extensions>
      </trkpt>
      <trkpt lat="47.5342498160898685455322265625" lon="11.03356274776160717010498046875">
        <ele>1861.5999755859375</ele>
        <time>2026-09-01T08:30:28.000Z</time>
        <extensions>
          <ns3:TrackPointExtension>
            <ns3:hr>146</ns3:hr>
            <ns3:cad>88</ns3:cad>
          </ns3:TrackPointExtension>
        </extensions>
      </trkpt>
      <trkpt lat="47.53426046110689640045166015625" lon="11.03357666172087192535400390625">
        <ele>1861.4000244140625</ele>
        <time>2026-09-01T08:30:29.000Z</time>
        <extensions>
          <ns3:TrackPointExtension>
            <ns3:hr>145</ns3:hr>
            <ns3:cad>88</ns3:cad>
          </ns3:TrackPointExtension>
        </extensions>
      </trkpt>
      <trkpt lat="47.53427169285714626312255859375" lon="11.03358152322471141815185546875">
        <ele>1861.199951171875</ele>
        <time>2026-09-01T08:30:30.000Z</time>
        <extensions>
          <ns3:TrackPointExtension>
            <ns3:hr>145</ns3:hr>
            <ns3:cad>88</ns3:cad>
          </ns3:TrackPointExtension>
        </extensions>
      </trkpt>
      <trkpt lat="47.5342863611876964569091796875" lon="11.03358604945242404937744140625">
        <ele>1860.800048828125</ele>
        <time>2026-09-01T08:30:31.000Z</time>
        <extensions>
          <ns3:TrackPointExtension>
            <ns3:hr>145</ns3:hr>
            <ns3:cad>88</ns3:cad>
          </ns3:TrackPointExtension>
        </extensions>
      </trkpt>
      <trkpt lat="47.53429667092859745025634765625" lon="11.03359661065042018890380859375">
        <ele>1860.4000244140625</ele>
        <time>2026-09-01T08:30:32.000Z</time>
        <extensions>
          <ns3:TrackPointExtension>
            <ns3:hr>145</ns3:hr>
            <ns3:cad>88</ns3:cad>
          </ns3:TrackPointExtension>
        </extensions>
      </trkpt>
      <trkpt lat="47.53430119715631008148193359375" lon="11.03360180743038654327392578125">
        <ele>1860.199951171875</ele>
        <time>2026-09-01T08:30:33.000Z</time>
        <extensions>
          <ns3:TrackPointExtension>
            <ns3:hr>144</ns3:hr>
            <ns3:cad>88</ns3:cad>
          </ns3:TrackPointExtension>
        </extensions>
      </trkpt>
      <trkpt lat="47.53431779332458972930908203125" lon="11.03361924178898334503173828125">
        <ele>1859.800048828125</ele>
        <time>2026-09-01T08:30:34.000Z</time>
        <extensions>
          <ns3:TrackPointExtension>
            <ns3:hr>143</ns3:hr>
            <ns3:cad>88</ns3:cad>
          </ns3:TrackPointExtension>
        </extensions>
      </trkpt>
      <trkpt lat="47.53433153964579105377197265625" lon="11.03363181464374065399169921875">
        <ele>1859.5999755859375</ele>
        <time>2026-09-01T08:30:35.000Z</time>
        <extensions>
          <ns3:TrackPointExtension>
            <ns3:hr>142</ns3:hr>
            <ns3:cad>0</ns3:cad>
          </ns3:TrackPointExtension>
        </extensions>
      </trkpt>
      <trkpt lat="47.53435232676565647125244140625" lon="11.03365092538297176361083984375">
        <ele>1859.4000244140625</ele>
        <time>2026-09-01T08:30:36.000Z</time>
        <extensions>
          <ns3:TrackPointExtension>
            <ns3:hr>141</ns3:hr>
            <ns3:cad>0</ns3:cad>
          </ns3:TrackPointExtension>
        </extensions>
      </trkpt>
      <trkpt lat="47.53437344916164875030517578125" lon="11.0336696170270442962646484375">
        <ele>1859.199951171875</ele>
        <time>2026-09-01T08:30:37.000Z</time>
        <extensions>
          <ns3:TrackPointExtension>
            <ns3:hr>141</ns3:hr>
            <ns3:cad>80</ns3:cad>
          </ns3:TrackPointExtension>
        </extensions>
      </trkpt>
      <trkpt lat="47.53438920713961124420166015625" lon="11.0336823575198650360107421875">
        <ele>1858.800048828125</ele>
        <time>2026-09-01T08:30:38.000Z</time>
        <extensions>
          <ns3:TrackPointExtension>
            <ns3:hr>140</ns3:hr>
            <ns3:cad>80</ns3:cad>
          </ns3:TrackPointExtension>
        </extensions>
      </trkpt>
      <trkpt lat="47.53440882079303264617919921875" lon="11.0336977802217006683349609375">
        <ele>1858.4000244140625</ele>
        <time>2026-09-01T08:30:39.000Z</time>
        <extensions>
          <ns3:TrackPointExtension>
            <ns3:hr>139</ns3:hr>
            <ns3:cad>80</ns3:cad>
          </ns3:TrackPointExtension>
        </extensions>
      </trkpt>
      <trkpt lat="47.53442776389420032501220703125" lon="11.03370867669582366943359375">
        <ele>1857.800048828125</ele>
        <time>2026-09-01T08:30:40.000Z</time>
        <extensions>
          <ns3:TrackPointExtension>
            <ns3:hr>139</ns3:hr>
            <ns3:cad>83</ns3:cad>
          </ns3:TrackPointExtension>
        </extensions>
      </trkpt>
      <trkpt lat="47.5344466231763362884521484375" lon="11.03372200392186641693115234375">
        <ele>1857.199951171875</ele>
        <time>2026-09-01T08:30:41.000Z</time>
        <extensions>
          <ns3:TrackPointExtension>
            <ns3:hr>139</ns3:hr>
            <ns3:cad>83</ns3:cad>
          </ns3:TrackPointExtension>
        </extensions>
      </trkpt>
      <trkpt lat="47.53446179442107677459716796875" lon="11.03373256511986255645751953125">
        <ele>1856.5999755859375</ele>
        <time>2026-09-01T08:30:42.000Z</time>
        <extensions>
          <ns3:TrackPointExtension>
            <ns3:hr>138</ns3:hr>
            <ns3:cad>83</ns3:cad>
          </ns3:TrackPointExtension>
        </extensions>
      </trkpt>
      <trkpt lat="47.53447989933192729949951171875" lon="11.03375134058296680450439453125">
        <ele>1856</ele>
        <time>2026-09-01T08:30:43.000Z</time>
        <extensions>
          <ns3:TrackPointExtension>
            <ns3:hr>138</ns3:hr>
            <ns3:cad>83</ns3:cad>
          </ns3:TrackPointExtension>
        </extensions>
      </trkpt>
      <trkpt lat="47.53449465148150920867919921875" lon="11.0337725467979907989501953125">
        <ele>1855.4000244140625</ele>
        <time>2026-09-01T08:30:44.000Z</time>
        <extensions>
          <ns3:TrackPointExtension>
            <ns3:hr>138</ns3:hr>
            <ns3:cad>85</ns3:cad>
          </ns3:TrackPointExtension>
        </extensions>
      </trkpt>
      <trkpt lat="47.53450504504144191741943359375" lon="11.03379777632653713226318359375">
        <ele>1855</ele>
        <time>2026-09-01T08:30:45.000Z</time>
        <extensions>
          <ns3:TrackPointExtension>
            <ns3:hr>137</ns3:hr>
            <ns3:cad>85</ns3:cad>
          </ns3:TrackPointExtension>
        </extensions>
      </trkpt>
      <trkpt lat="47.53451376222074031829833984375" lon="11.033816970884799957275390625">
        <ele>1854.4000244140625</ele>
        <time>2026-09-01T08:30:46.000Z</time>
        <extensions>
          <ns3:TrackPointExtension>
            <ns3:hr>137</ns3:hr>
            <ns3:cad>85</ns3:cad>
          </ns3:TrackPointExtension>
        </extensions>
      </trkpt>
      <trkpt lat="47.53453304059803485870361328125" lon="11.0338496603071689605712890625">
        <ele>1853.800048828125</ele>
        <time>2026-09-01T08:30:47.000Z</time>
        <extensions>
          <ns3:TrackPointExtension>
            <ns3:hr>136</ns3:hr>
            <ns3:cad>85</ns3:cad>
          </ns3:TrackPointExtension>
        </extensions>
      </trkpt>
      <trkpt lat="47.53454469144344329833984375" lon="11.033866591751575469970703125">
        <ele>1853.4000244140625</ele>
        <time>2026-09-01T08:30:48.000Z</time>
        <extensions>
          <ns3:TrackPointExtension>
            <ns3:hr>136</ns3:hr>
            <ns3:cad>85</ns3:cad>
          </ns3:TrackPointExtension>
        </extensions>
      </trkpt>
      <trkpt lat="47.5345716811716556549072265625" lon="11.03389869444072246551513671875">
        <ele>1853</ele>
        <time>2026-09-01T08:30:49.000Z</time>
        <extensions>
          <ns3:TrackPointExtension>
            <ns3:hr>135</ns3:hr>
            <ns3:cad>85</ns3:cad>
          </ns3:TrackPointExtension>
        </extensions>
      </trkpt>
      <trkpt lat="47.5345954857766628265380859375" lon="11.033924259245395660400390625">
        <ele>1851.800048828125</ele>
        <time>2026-09-01T08:30:50.000Z</time>
        <extensions>
          <ns3:TrackPointExtension>
            <ns3:hr>135</ns3:hr>
            <ns3:cad>85</ns3:cad>
          </ns3:TrackPointExtension>
        </extensions>
      </trkpt>
      <trkpt lat="47.534610070288181304931640625" lon="11.03394412435591220855712890625">
        <ele>1851.4000244140625</ele>
        <time>2026-09-01T08:30:51.000Z</time>
        <extensions>
          <ns3:TrackPointExtension>
            <ns3:hr>134</ns3:hr>
            <ns3:cad>85</ns3:cad>
          </ns3:TrackPointExtension>
        </extensions>
      </trkpt>
      <trkpt lat="47.5346266664564609527587890625" lon="11.03397714905440807342529296875">
        <ele>1850.800048828125</ele>
        <time>2026-09-01T08:30:52.000Z</time>
        <extensions>
          <ns3:TrackPointExtension>
            <ns3:hr>133</ns3:hr>
            <ns3:cad>85</ns3:cad>
          </ns3:TrackPointExtension>
        </extensions>
      </trkpt>
      <trkpt lat="47.5346378982067108154296875" lon="11.03399458341300487518310546875">
        <ele>1850.4000244140625</ele>
        <time>2026-09-01T08:30:53.000Z</time>
        <extensions>
          <ns3:TrackPointExtension>
            <ns3:hr>132</ns3:hr>
            <ns3:cad>85</ns3:cad>
          </ns3:TrackPointExtension>
        </extensions>
      </trkpt>
      <trkpt lat="47.5346471183001995086669921875" lon="11.034027524292469024658203125">
        <ele>1850.199951171875</ele>
        <time>2026-09-01T08:30:54.000Z</time>
        <extensions>
          <ns3:TrackPointExtension>
            <ns3:hr>131</ns3:hr>
            <ns3:cad>85</ns3:cad>
          </ns3:TrackPointExtension>
        </extensions>
      </trkpt>
      <trkpt lat="47.53465508110821247100830078125" lon="11.03405443020164966583251953125">
        <ele>1850</ele>
        <time>2026-09-01T08:30:55.000Z</time>
        <extensions>
          <ns3:TrackPointExtension>
            <ns3:hr>132</ns3:hr>
            <ns3:cad>85</ns3:cad>
          </ns3:TrackPointExtension>
        </extensions>
      </trkpt>
      <trkpt lat="47.53466497175395488739013671875" lon="11.0340810008347034454345703125">
        <ele>1849.5999755859375</ele>
        <time>2026-09-01T08:30:56.000Z</time>
        <extensions>
          <ns3:TrackPointExtension>
            <ns3:hr>132</ns3:hr>
            <ns3:cad>85</ns3:cad>
          </ns3:TrackPointExtension>
        </extensions>
      </trkpt>
      <trkpt lat="47.53467938862740993499755859375" lon="11.03411092422902584075927734375">
        <ele>1849.199951171875</ele>
        <time>2026-09-01T08:30:57.000Z</time>
        <extensions>
          <ns3:TrackPointExtension>
            <ns3:hr>132</ns3:hr>
            <ns3:cad>85</ns3:cad>
          </ns3:TrackPointExtension>
        </extensions>
      </trkpt>
      <trkpt lat="47.5346880219876766204833984375" lon="11.03414453566074371337890625">
        <ele>1849</ele>
        <time>2026-09-01T08:30:58.000Z</time>
        <extensions>
          <ns3:TrackPointExtension>
            <ns3:hr>133</ns3:hr>
            <ns3:cad>85</ns3:cad>
          </ns3:TrackPointExtension>
        </extensions>
      </trkpt>
      <trkpt lat="47.53470160067081451416015625" lon="11.034169681370258331298828125">
        <ele>1848.5999755859375</ele>
        <time>2026-09-01T08:30:59.000Z</time>
        <extensions>
          <ns3:TrackPointExtension>
            <ns3:hr>133</ns3:hr>
            <ns3:cad>85</ns3:cad>
          </ns3:TrackPointExtension>
        </extensions>
      </trkpt>
      <trkpt lat="47.53471543081104755401611328125" lon="11.03417160920798778533935546875">
        <ele>1848.199951171875</ele>
        <time>2026-09-01T08:31:00.000Z</time>
        <extensions>
          <ns3:TrackPointExtension>
            <ns3:hr>134</ns3:hr>
            <ns3:cad>82</ns3:cad>
          </ns3:TrackPointExtension>
        </extensions>
      </trkpt>
      <trkpt lat="47.534736134111881256103515625" lon="11.03417663834989070892333984375">
        <ele>1847.5999755859375</ele>
        <time>2026-09-01T08:31:01.000Z</time>
        <extensions>
          <ns3:TrackPointExtension>
            <ns3:hr>134</ns3:hr>
            <ns3:cad>82</ns3:cad>
          </ns3:TrackPointExtension>
        </extensions>
      </trkpt>
      <trkpt lat="47.53475080244243144989013671875" lon="11.0341745428740978240966796875">
        <ele>1847</ele>
        <time>2026-09-01T08:31:02.000Z</time>
        <extensions>
          <ns3:TrackPointExtension>
            <ns3:hr>134</ns3:hr>
            <ns3:cad>82</ns3:cad>
          </ns3:TrackPointExtension>
        </extensions>
      </trkpt>
      <trkpt lat="47.53477259539067745208740234375" lon="11.03417378850281238555908203125">
        <ele>1846.199951171875</ele>
        <time>2026-09-01T08:31:03.000Z</time>
        <extensions>
          <ns3:TrackPointExtension>
            <ns3:hr>133</ns3:hr>
            <ns3:cad>82</ns3:cad>
          </ns3:TrackPointExtension>
        </extensions>
      </trkpt>
      <trkpt lat="47.53478516824543476104736328125" lon="11.03414964862167835235595703125">
        <ele>1845.199951171875</ele>
        <time>2026-09-01T08:31:04.000Z</time>
        <extensions>
          <ns3:TrackPointExtension>
            <ns3:hr>134</ns3:hr>
            <ns3:cad>82</ns3:cad>
          </ns3:TrackPointExtension>
        </extensions>
      </trkpt>
      <trkpt lat="47.534790448844432830810546875" lon="11.03413405828177928924560546875">
        <ele>1844.4000244140625</ele>
        <time>2026-09-01T08:31:05.000Z</time>
        <extensions>
          <ns3:TrackPointExtension>
            <ns3:hr>134</ns3:hr>
            <ns3:cad>82</ns3:cad>
          </ns3:TrackPointExtension>
        </extensions>
      </trkpt>
      <trkpt lat="47.53480729646980762481689453125" lon="11.03412307798862457275390625">
        <ele>1843.4000244140625</ele>
        <time>2026-09-01T08:31:06.000Z</time>
        <extensions>
          <ns3:TrackPointExtension>
            <ns3:hr>134</ns3:hr>
            <ns3:cad>82</ns3:cad>
          </ns3:TrackPointExtension>
        </extensions>
      </trkpt>
      <trkpt lat="47.5348278321325778961181640625" lon="11.0341151989996433258056640625">
        <ele>1842.800048828125</ele>
        <time>2026-09-01T08:31:07.000Z</time>
        <extensions>
          <ns3:TrackPointExtension>
            <ns3:hr>134</ns3:hr>
            <ns3:cad>82</ns3:cad>
          </ns3:TrackPointExtension>
        </extensions>
      </trkpt>
      <trkpt lat="47.534846104681491851806640625" lon="11.0341036319732666015625">
        <ele>1841.800048828125</ele>
        <time>2026-09-01T08:31:08.000Z</time>
        <extensions>
          <ns3:TrackPointExtension>
            <ns3:hr>134</ns3:hr>
            <ns3:cad>82</ns3:cad>
          </ns3:TrackPointExtension>
        </extensions>
      </trkpt>
      <trkpt lat="47.534866221249103546142578125" lon="11.034099943935871124267578125">
        <ele>1841</ele>
        <time>2026-09-01T08:31:09.000Z</time>
        <extensions>
          <ns3:TrackPointExtension>
            <ns3:hr>134</ns3:hr>
            <ns3:cad>82</ns3:cad>
          </ns3:TrackPointExtension>
        </extensions>
      </trkpt>
      <trkpt lat="47.53488440997898578643798828125" lon="11.03410690091550350189208984375">
        <ele>1840.199951171875</ele>
        <time>2026-09-01T08:31:10.000Z</time>
        <extensions>
          <ns3:TrackPointExtension>
            <ns3:hr>135</ns3:hr>
            <ns3:cad>82</ns3:cad>
          </ns3:TrackPointExtension>
        </extensions>
      </trkpt>
      <trkpt lat="47.53490217961370944976806640625" lon="11.03411176241934299468994140625">
        <ele>1839.4000244140625</ele>
        <time>2026-09-01T08:31:11.000Z</time>
        <extensions>
          <ns3:TrackPointExtension>
            <ns3:hr>135</ns3:hr>
            <ns3:cad>82</ns3:cad>
          </ns3:TrackPointExtension>
        </extensions>
      </trkpt>
      <trkpt lat="47.53492263145744800567626953125" lon="11.03412115015089511871337890625">
        <ele>1838.5999755859375</ele>
        <time>2026-09-01T08:31:12.000Z</time>
        <extensions>
          <ns3:TrackPointExtension>
            <ns3:hr>134</ns3:hr>
            <ns3:cad>82</ns3:cad>
          </ns3:TrackPointExtension>
        </extensions>
      </trkpt>
      <trkpt lat="47.5349384732544422149658203125" lon="11.03413171134889125823974609375">
        <ele>1838</ele>
        <time>2026-09-01T08:31:13.000Z</time>
        <extensions>
          <ns3:TrackPointExtension>
            <ns3:hr>134</ns3:hr>
            <ns3:cad>82</ns3:cad>
          </ns3:TrackPointExtension>
        </extensions>
      </trkpt>
      <trkpt lat="47.53494895063340663909912109375" lon="11.0341396741569042205810546875">
        <ele>1837.4000244140625</ele>
        <time>2026-09-01T08:31:14.000Z</time>
        <extensions>
          <ns3:TrackPointExtension>
            <ns3:hr>133</ns3:hr>
            <ns3:cad>82</ns3:cad>
          </ns3:TrackPointExtension>
        </extensions>
      </trkpt>
      <trkpt lat="47.5349602662026882171630859375" lon="11.0341574437916278839111328125">
        <ele>1837</ele>
        <time>2026-09-01T08:31:15.000Z</time>
        <extensions>
          <ns3:TrackPointExtension>
            <ns3:hr>132</ns3:hr>
            <ns3:cad>82</ns3:cad>
          </ns3:TrackPointExtension>
        </extensions>
      </trkpt>
      <trkpt lat="47.53497342579066753387451171875" lon="11.0341688431799411773681640625">
        <ele>1836.4000244140625</ele>
        <time>2026-09-01T08:31:16.000Z</time>
        <extensions>
          <ns3:TrackPointExtension>
            <ns3:hr>132</ns3:hr>
            <ns3:cad>82</ns3:cad>
          </ns3:TrackPointExtension>
        </extensions>
      </trkpt>
      <trkpt lat="47.53498993813991546630859375" lon="11.03417915292084217071533203125">
        <ele>1835.800048828125</ele>
        <time>2026-09-01T08:31:17.000Z</time>
        <extensions>
          <ns3:TrackPointExtension>
            <ns3:hr>132</ns3:hr>
            <ns3:cad>82</ns3:cad>
          </ns3:TrackPointExtension>
        </extensions>
      </trkpt>
      <trkpt lat="47.53500334918498992919921875" lon="11.034189127385616302490234375">
        <ele>1835</ele>
        <time>2026-09-01T08:31:18.000Z</time>
        <extensions>
          <ns3:TrackPointExtension>
            <ns3:hr>133</ns3:hr>
            <ns3:cad>82</ns3:cad>
          </ns3:TrackPointExtension>
        </extensions>
      </trkpt>
      <trkpt lat="47.5350078754127025604248046875" lon="11.034189797937870025634765625">
        <ele>1834.4000244140625</ele>
        <time>2026-09-01T08:31:19.000Z</time>
        <extensions>
          <ns3:TrackPointExtension>
            <ns3:hr>132</ns3:hr>
            <ns3:cad>48</ns3:cad>
          </ns3:TrackPointExtension>
        </extensions>
      </trkpt>
      <trkpt lat="47.53501533530652523040771484375" lon="11.0342027060687541961669921875">
        <ele>1833.800048828125</ele>
        <time>2026-09-01T08:31:20.000Z</time>
        <extensions>
          <ns3:TrackPointExtension>
            <ns3:hr>132</ns3:hr>
            <ns3:cad>48</ns3:cad>
          </ns3:TrackPointExtension>
        </extensions>
      </trkpt>
      <trkpt lat="47.5350268185138702392578125" lon="11.034221649169921875">
        <ele>1833.199951171875</ele>
        <time>2026-09-01T08:31:21.000Z</time>
        <extensions>
          <ns3:TrackPointExtension>
            <ns3:hr>132</ns3:hr>
            <ns3:cad>48</ns3:cad>
          </ns3:TrackPointExtension>
        </extensions>
      </trkpt>
      <trkpt lat="47.5350348651409149169921875" lon="11.03423095308244228363037109375">
        <ele>1832.800048828125</ele>
        <time>2026-09-01T08:31:22.000Z</time>
        <extensions>
          <ns3:TrackPointExtension>
            <ns3:hr>133</ns3:hr>
            <ns3:cad>48</ns3:cad>
          </ns3:TrackPointExtension>
        </extensions>
      </trkpt>
      <trkpt lat="47.535043917596340179443359375" lon="11.03424302302300930023193359375">
        <ele>1832.4000244140625</ele>
        <time>2026-09-01T08:31:23.000Z</time>
        <extensions>
          <ns3:TrackPointExtension>
            <ns3:hr>132</ns3:hr>
            <ns3:cad>48</ns3:cad>
          </ns3:TrackPointExtension>
        </extensions>
      </trkpt>
      <trkpt lat="47.53505590371787548065185546875" lon="11.0342617146670818328857421875">
        <ele>1831.800048828125</ele>
        <time>2026-09-01T08:31:24.000Z</time>
        <extensions>
          <ns3:TrackPointExtension>
            <ns3:hr>132</ns3:hr>
            <ns3:cad>48</ns3:cad>
          </ns3:TrackPointExtension>
        </extensions>
      </trkpt>
      <trkpt lat="47.53506478853523731231689453125" lon="11.0342788137495517730712890625">
        <ele>1831.4000244140625</ele>
        <time>2026-09-01T08:31:25.000Z</time>
        <extensions>
          <ns3:TrackPointExtension>
            <ns3:hr>132</ns3:hr>
            <ns3:cad>48</ns3:cad>
          </ns3:TrackPointExtension>
        </extensions>
      </trkpt>
      <trkpt lat="47.53507417626678943634033203125" lon="11.0343006066977977752685546875">
        <ele>1831</ele>
        <time>2026-09-01T08:31:26.000Z</time>
        <extensions>
          <ns3:TrackPointExtension>
            <ns3:hr>131</ns3:hr>
            <ns3:cad>48</ns3:cad>
          </ns3:TrackPointExtension>
        </extensions>
      </trkpt>
      <trkpt lat="47.5350843183696269989013671875" lon="11.0343227349221706390380859375">
        <ele>1830</ele>
        <time>2026-09-01T08:31:27.000Z</time>
        <extensions>
          <ns3:TrackPointExtension>
            <ns3:hr>131</ns3:hr>
            <ns3:cad>48</ns3:cad>
          </ns3:TrackPointExtension>
        </extensions>
      </trkpt>
      <trkpt lat="47.53510083071887493133544921875" lon="11.03433505631983280181884765625">
        <ele>1829.4000244140625</ele>
        <time>2026-09-01T08:31:28.000Z</time>
        <extensions>
          <ns3:TrackPointExtension>
            <ns3:hr>131</ns3:hr>
            <ns3:cad>48</ns3:cad>
          </ns3:TrackPointExtension>
        </extensions>
      </trkpt>
      <trkpt lat="47.5351138226687908172607421875" lon="11.034355424344539642333984375">
        <ele>1828.800048828125</ele>
        <time>2026-09-01T08:31:29.000Z</time>
        <extensions>
          <ns3:TrackPointExtension>
            <ns3:hr>131</ns3:hr>
            <ns3:cad>48</ns3:cad>
          </ns3:TrackPointExtension>
        </extensions>
      </trkpt>
      <trkpt lat="47.5351262278854846954345703125" lon="11.034367494285106658935546875">
        <ele>1828.199951171875</ele>
        <time>2026-09-01T08:31:30.000Z</time>
        <extensions>
          <ns3:TrackPointExtension>
            <ns3:hr>131</ns3:hr>
            <ns3:cad>82</ns3:cad>
          </ns3:TrackPointExtension>
        </extensions>
      </trkpt>
      <trkpt lat="47.53514349460601806640625" lon="11.03438434191048145294189453125">
        <ele>1828</ele>
        <time>2026-09-01T08:31:31.000Z</time>
        <extensions>
          <ns3:TrackPointExtension>
            <ns3:hr>131</ns3:hr>
            <ns3:cad>82</ns3:cad>
          </ns3:TrackPointExtension>
        </extensions>
      </trkpt>
      <trkpt lat="47.53515489399433135986328125" lon="11.034399010241031646728515625">
        <ele>1827.4000244140625</ele>
        <time>2026-09-01T08:31:32.000Z</time>
        <extensions>
          <ns3:TrackPointExtension>
            <ns3:hr>132</ns3:hr>
            <ns3:cad>82</ns3:cad>
          </ns3:TrackPointExtension>
        </extensions>
      </trkpt>
      <trkpt lat="47.535161934792995452880859375" lon="11.03442482650279998779296875">
        <ele>1827</ele>
        <time>2026-09-01T08:31:33.000Z</time>
        <extensions>
          <ns3:TrackPointExtension>
            <ns3:hr>132</ns3:hr>
            <ns3:cad>82</ns3:cad>
          </ns3:TrackPointExtension>
        </extensions>
      </trkpt>
      <trkpt lat="47.53517501056194305419921875" lon="11.03446078486740589141845703125">
        <ele>1826.4000244140625</ele>
        <time>2026-09-01T08:31:34.000Z</time>
        <extensions>
          <ns3:TrackPointExtension>
            <ns3:hr>132</ns3:hr>
            <ns3:cad>82</ns3:cad>
          </ns3:TrackPointExtension>
        </extensions>
      </trkpt>
      <trkpt lat="47.53517492674291133880615234375" lon="11.03450537659227848052978515625">
        <ele>1825.800048828125</ele>
        <time>2026-09-01T08:31:35.000Z</time>
        <extensions>
          <ns3:TrackPointExtension>
            <ns3:hr>132</ns3:hr>
            <ns3:cad>82</ns3:cad>
          </ns3:TrackPointExtension>
        </extensions>
      </trkpt>
      <trkpt lat="47.5351751782000064849853515625" lon="11.03454477153718471527099609375">
        <ele>1825.199951171875</ele>
        <time>2026-09-01T08:31:36.000Z</time>
        <extensions>
          <ns3:TrackPointExtension>
            <ns3:hr>133</ns3:hr>
            <ns3:cad>77</ns3:cad>
          </ns3:TrackPointExtension>
        </extensions>
      </trkpt>
      <trkpt lat="47.53518842160701751708984375" lon="11.03457528166472911834716796875">
        <ele>1825.199951171875</ele>
        <time>2026-09-01T08:31:37.000Z</time>
        <extensions>
          <ns3:TrackPointExtension>
            <ns3:hr>133</ns3:hr>
            <ns3:cad>77</ns3:cad>
          </ns3:TrackPointExtension>
        </extensions>
      </trkpt>
      <trkpt lat="47.53519722260534763336181640625" lon="11.034605205059051513671875">
        <ele>1825.4000244140625</ele>
        <time>2026-09-01T08:31:38.000Z</time>
        <extensions>
          <ns3:TrackPointExtension>
            <ns3:hr>134</ns3:hr>
            <ns3:cad>77</ns3:cad>
          </ns3:TrackPointExtension>
        </extensions>
      </trkpt>
      <trkpt lat="47.5352040119469165802001953125" lon="11.03463294915854930877685546875">
        <ele>1825.800048828125</ele>
        <time>2026-09-01T08:31:39.000Z</time>
        <extensions>
          <ns3:TrackPointExtension>
            <ns3:hr>135</ns3:hr>
            <ns3:cad>77</ns3:cad>
          </ns3:TrackPointExtension>
        </extensions>
      </trkpt>
      <trkpt lat="47.53521331585943698883056640625" lon="11.034652478992938995361328125">
        <ele>1826.199951171875</ele>
        <time>2026-09-01T08:31:40.000Z</time>
        <extensions>
          <ns3:TrackPointExtension>
            <ns3:hr>136</ns3:hr>
            <ns3:cad>79</ns3:cad>
          </ns3:TrackPointExtension>
        </extensions>
      </trkpt>
      <trkpt lat="47.53521968610584735870361328125" lon="11.03466245345771312713623046875">
        <ele>1826.5999755859375</ele>
        <time>2026-09-01T08:31:41.000Z</time>
        <extensions>
          <ns3:TrackPointExtension>
            <ns3:hr>138</ns3:hr>
            <ns3:cad>80</ns3:cad>
          </ns3:TrackPointExtension>
        </extensions>
      </trkpt>
      <trkpt lat="47.53522555343806743621826171875" lon="11.03467066772282123565673828125">
        <ele>1827</ele>
        <time>2026-09-01T08:31:42.000Z</time>
        <extensions>
          <ns3:TrackPointExtension>
            <ns3:hr>138</ns3:hr>
            <ns3:cad>80</ns3:cad>
          </ns3:TrackPointExtension>
        </extensions>
      </trkpt>
      <trkpt lat="47.53523376770317554473876953125" lon="11.03467988781630992889404296875">
        <ele>1827</ele>
        <time>2026-09-01T08:31:43.000Z</time>
        <extensions>
          <ns3:TrackPointExtension>
            <ns3:hr>139</ns3:hr>
            <ns3:cad>80</ns3:cad>
          </ns3:TrackPointExtension>
        </extensions>
      </trkpt>
      <trkpt lat="47.5352378748357295989990234375" lon="11.03469011373817920684814453125">
        <ele>1827.199951171875</ele>
        <time>2026-09-01T08:31:44.000Z</time>
        <extensions>
          <ns3:TrackPointExtension>
            <ns3:hr>139</ns3:hr>
            <ns3:cad>80</ns3:cad>
          </ns3:TrackPointExtension>
        </extensions>
      </trkpt>
      <trkpt lat="47.535240389406681060791015625" lon="11.03470109403133392333984375">
        <ele>1827.199951171875</ele>
        <time>2026-09-01T08:31:45.000Z</time>
        <extensions>
          <ns3:TrackPointExtension>
            <ns3:hr>139</ns3:hr>
            <ns3:cad>80</ns3:cad>
          </ns3:TrackPointExtension>
        </extensions>
      </trkpt>
      <trkpt lat="47.535248436033725738525390625" lon="11.0347057878971099853515625">
        <ele>1827.4000244140625</ele>
        <time>2026-09-01T08:31:46.000Z</time>
        <extensions>
          <ns3:TrackPointExtension>
            <ns3:hr>140</ns3:hr>
            <ns3:cad>80</ns3:cad>
          </ns3:TrackPointExtension>
        </extensions>
      </trkpt>
      <trkpt lat="47.53526846878230571746826171875" lon="11.03471190668642520904541015625">
        <ele>1827.4000244140625</ele>
        <time>2026-09-01T08:31:47.000Z</time>
        <extensions>
          <ns3:TrackPointExtension>
            <ns3:hr>140</ns3:hr>
            <ns3:cad>80</ns3:cad>
          </ns3:TrackPointExtension>
        </extensions>
      </trkpt>
      <trkpt lat="47.5352881662547588348388671875" lon="11.03472246788442134857177734375">
        <ele>1827.4000244140625</ele>
        <time>2026-09-01T08:31:48.000Z</time>
        <extensions>
          <ns3:TrackPointExtension>
            <ns3:hr>139</ns3:hr>
            <ns3:cad>80</ns3:cad>
          </ns3:TrackPointExtension>
        </extensions>
      </trkpt>
      <trkpt lat="47.53530912101268768310546875" lon="11.0347381420433521270751953125">
        <ele>1827.199951171875</ele>
        <time>2026-09-01T08:31:49.000Z</time>
        <extensions>
          <ns3:TrackPointExtension>
            <ns3:hr>140</ns3:hr>
            <ns3:cad>80</ns3:cad>
          </ns3:TrackPointExtension>
        </extensions>
      </trkpt>
      <trkpt lat="47.535328902304172515869140625" lon="11.03475272655487060546875">
        <ele>1827</ele>
        <time>2026-09-01T08:31:50.000Z</time>
        <extensions>
          <ns3:TrackPointExtension>
            <ns3:hr>140</ns3:hr>
            <ns3:cad>80</ns3:cad>
          </ns3:TrackPointExtension>
        </extensions>
      </trkpt>
      <trkpt lat="47.53534709103405475616455078125" lon="11.03476705960929393768310546875">
        <ele>1826.800048828125</ele>
        <time>2026-09-01T08:31:51.000Z</time>
        <extensions>
          <ns3:TrackPointExtension>
            <ns3:hr>140</ns3:hr>
            <ns3:cad>75</ns3:cad>
          </ns3:TrackPointExtension>
        </extensions>
      </trkpt>
      <trkpt lat="47.53536117263138294219970703125" lon="11.0347884334623813629150390625">
        <ele>1826.5999755859375</ele>
        <time>2026-09-01T08:31:52.000Z</time>
        <extensions>
          <ns3:TrackPointExtension>
            <ns3:hr>140</ns3:hr>
            <ns3:cad>75</ns3:cad>
          </ns3:TrackPointExtension>
        </extensions>
      </trkpt>
      <trkpt lat="47.535377182066440582275390625" lon="11.03480176068842411041259765625">
        <ele>1826.4000244140625</ele>
        <time>2026-09-01T08:31:53.000Z</time>
        <extensions>
          <ns3:TrackPointExtension>
            <ns3:hr>140</ns3:hr>
            <ns3:cad>76</ns3:cad>
          </ns3:TrackPointExtension>
        </extensions>
      </trkpt>
      <trkpt lat="47.53539134748280048370361328125" lon="11.03482539765536785125732421875">
        <ele>1826.199951171875</ele>
        <time>2026-09-01T08:31:54.000Z</time>
        <extensions>
          <ns3:TrackPointExtension>
            <ns3:hr>140</ns3:hr>
            <ns3:cad>76</ns3:cad>
          </ns3:TrackPointExtension>
        </extensions>
      </trkpt>
      <trkpt lat="47.53540165722370147705078125" lon="11.03484735824167728424072265625">
        <ele>1826.199951171875</ele>
        <time>2026-09-01T08:31:55.000Z</time>
        <extensions>
          <ns3:TrackPointExtension>
            <ns3:hr>141</ns3:hr>
            <ns3:cad>76</ns3:cad>
          </ns3:TrackPointExtension>
        </extensions>
      </trkpt>
      <trkpt lat="47.5354103744029998779296875" lon="11.0348648764193058013916015625">
        <ele>1826.4000244140625</ele>
        <time>2026-09-01T08:31:56.000Z</time>
        <extensions>
          <ns3:TrackPointExtension>
            <ns3:hr>141</ns3:hr>
            <ns3:cad>76</ns3:cad>
          </ns3:TrackPointExtension>
        </extensions>
      </trkpt>
      <trkpt lat="47.53541867248713970184326171875" lon="11.03488021530210971832275390625">
        <ele>1826.4000244140625</ele>
        <time>2026-09-01T08:31:57.000Z</time>
        <extensions>
          <ns3:TrackPointExtension>
            <ns3:hr>142</ns3:hr>
            <ns3:cad>77</ns3:cad>
          </ns3:TrackPointExtension>
        </extensions>
      </trkpt>
      <trkpt lat="47.5354293175041675567626953125" lon="11.03489144705235958099365234375">
        <ele>1826.4000244140625</ele>
        <time>2026-09-01T08:31:58.000Z</time>
        <extensions>
          <ns3:TrackPointExtension>
            <ns3:hr>143</ns3:hr>
            <ns3:cad>77</ns3:cad>
          </ns3:TrackPointExtension>
        </extensions>
      </trkpt>
      <trkpt lat="47.535441555082798004150390625" lon="11.0348990745842456817626953125">
        <ele>1826.5999755859375</ele>
        <time>2026-09-01T08:31:59.000Z</time>
        <extensions>
          <ns3:TrackPointExtension>
            <ns3:hr>144</ns3:hr>
            <ns3:cad>77</ns3:cad>
          </ns3:TrackPointExtension>
        </extensions>
      </trkpt>
      <trkpt lat="47.53544884733855724334716796875" lon="11.03491692803800106048583984375">
        <ele>1826.5999755859375</ele>
        <time>2026-09-01T08:32:00.000Z</time>
        <extensions>
          <ns3:TrackPointExtension>
            <ns3:hr>144</ns3:hr>
            <ns3:cad>71</ns3:cad>
          </ns3:TrackPointExtension>
        </extensions>
      </trkpt>
      <trkpt lat="47.5354514457285404205322265625" lon="11.03494140319526195526123046875">
        <ele>1826.5999755859375</ele>
        <time>2026-09-01T08:32:01.000Z</time>
        <extensions>
          <ns3:TrackPointExtension>
            <ns3:hr>144</ns3:hr>
            <ns3:cad>71</ns3:cad>
          </ns3:TrackPointExtension>
        </extensions>
      </trkpt>
      <trkpt lat="47.53545287065207958221435546875" lon="11.0349607653915882110595703125">
        <ele>1826.800048828125</ele>
        <time>2026-09-01T08:32:02.000Z</time>
        <extensions>
          <ns3:TrackPointExtension>
            <ns3:hr>144</ns3:hr>
            <ns3:cad>56</ns3:cad>
          </ns3:TrackPointExtension>
        </extensions>
      </trkpt>
      <trkpt lat="47.5354564748704433441162109375" lon="11.03497727774083614349365234375">
        <ele>1826.800048828125</ele>
        <time>2026-09-01T08:32:03.000Z</time>
        <extensions>
          <ns3:TrackPointExtension>
            <ns3:hr>144</ns3:hr>
            <ns3:cad>55</ns3:cad>
          </ns3:TrackPointExtension>
        </extensions>
      </trkpt>
      <trkpt lat="47.53546359948813915252685546875" lon="11.03499186225235462188720703125">
        <ele>1827</ele>
        <time>2026-09-01T08:32:04.000Z</time>
        <extensions>
          <ns3:TrackPointExtension>
            <ns3:hr>144</ns3:hr>
            <ns3:cad>56</ns3:cad>
          </ns3:TrackPointExtension>
        </extensions>
      </trkpt>
      <trkpt lat="47.53546728752553462982177734375" lon="11.03500150144100189208984375">
        <ele>1827</ele>
        <time>2026-09-01T08:32:05.000Z</time>
        <extensions>
          <ns3:TrackPointExtension>
            <ns3:hr>143</ns3:hr>
            <ns3:cad>57</ns3:cad>
          </ns3:TrackPointExtension>
        </extensions>
      </trkpt>
      <trkpt lat="47.5354720652103424072265625" lon="11.0350214503705501556396484375">
        <ele>1827.199951171875</ele>
        <time>2026-09-01T08:32:06.000Z</time>
        <extensions>
          <ns3:TrackPointExtension>
            <ns3:hr>143</ns3:hr>
            <ns3:cad>57</ns3:cad>
          </ns3:TrackPointExtension>
        </extensions>
      </trkpt>
      <trkpt lat="47.535477094352245330810546875" lon="11.03504936210811138153076171875">
        <ele>1827</ele>
        <time>2026-09-01T08:32:07.000Z</time>
        <extensions>
          <ns3:TrackPointExtension>
            <ns3:hr>143</ns3:hr>
            <ns3:cad>56</ns3:cad>
          </ns3:TrackPointExtension>
        </extensions>
      </trkpt>
      <trkpt lat="47.53548505716025829315185546875" lon="11.0350724123418331146240234375">
        <ele>1827</ele>
        <time>2026-09-01T08:32:08.000Z</time>
        <extensions>
          <ns3:TrackPointExtension>
            <ns3:hr>144</ns3:hr>
            <ns3:cad>56</ns3:cad>
          </ns3:TrackPointExtension>
        </extensions>
      </trkpt>
      <trkpt lat="47.53548421896994113922119140625" lon="11.03510350920259952545166015625">
        <ele>1827</ele>
        <time>2026-09-01T08:32:09.000Z</time>
        <extensions>
          <ns3:TrackPointExtension>
            <ns3:hr>144</ns3:hr>
            <ns3:cad>56</ns3:cad>
          </ns3:TrackPointExtension>
        </extensions>
      </trkpt>
      <trkpt lat="47.53549209795892238616943359375" lon="11.03512228466570377349853515625">
        <ele>1827</ele>
        <time>2026-09-01T08:32:10.000Z</time>
        <extensions>
          <ns3:TrackPointExtension>
            <ns3:hr>144</ns3:hr>
            <ns3:cad>62</ns3:cad>
          </ns3:TrackPointExtension>
        </extensions>
      </trkpt>
      <trkpt lat="47.53549813292920589447021484375" lon="11.03514005430042743682861328125">
        <ele>1827.199951171875</ele>
        <time>2026-09-01T08:32:11.000Z</time>
        <extensions>
          <ns3:TrackPointExtension>
            <ns3:hr>144</ns3:hr>
            <ns3:cad>62</ns3:cad>
          </ns3:TrackPointExtension>
        </extensions>
      </trkpt>
      <trkpt lat="47.5355034135282039642333984375" lon="11.03515438735485076904296875">
        <ele>1827.4000244140625</ele>
        <time>2026-09-01T08:32:12.000Z</time>
        <extensions>
          <ns3:TrackPointExtension>
            <ns3:hr>144</ns3:hr>
            <ns3:cad>62</ns3:cad>
          </ns3:TrackPointExtension>
        </extensions>
      </trkpt>
      <trkpt lat="47.53550517372786998748779296875" lon="11.03516779839992523193359375">
        <ele>1827.4000244140625</ele>
        <time>2026-09-01T08:32:13.000Z</time>
        <extensions>
          <ns3:TrackPointExtension>
            <ns3:hr>145</ns3:hr>
            <ns3:cad>61</ns3:cad>
          </ns3:TrackPointExtension>
        </extensions>
      </trkpt>
      <trkpt lat="47.53550802357494831085205078125" lon="11.035182215273380279541015625">
        <ele>1827.5999755859375</ele>
        <time>2026-09-01T08:32:14.000Z</time>
        <extensions>
          <ns3:TrackPointExtension>
            <ns3:hr>145</ns3:hr>
            <ns3:cad>61</ns3:cad>
          </ns3:TrackPointExtension>
        </extensions>
      </trkpt>
      <trkpt lat="47.535507939755916595458984375" lon="11.03520174510776996612548828125">
        <ele>1827.800048828125</ele>
        <time>2026-09-01T08:32:15.000Z</time>
        <extensions>
          <ns3:TrackPointExtension>
            <ns3:hr>146</ns3:hr>
            <ns3:cad>61</ns3:cad>
          </ns3:TrackPointExtension>
        </extensions>
      </trkpt>
      <trkpt lat="47.5355087779462337493896484375" lon="11.03522085584700107574462890625">
        <ele>1827.800048828125</ele>
        <time>2026-09-01T08:32:16.000Z</time>
        <extensions>
          <ns3:TrackPointExtension>
            <ns3:hr>147</ns3:hr>
            <ns3:cad>79</ns3:cad>
          </ns3:TrackPointExtension>
        </extensions>
      </trkpt>
      <trkpt lat="47.5355124659836292266845703125" lon="11.0352449119091033935546875">
        <ele>1828</ele>
        <time>2026-09-01T08:32:17.000Z</time>
        <extensions>
          <ns3:TrackPointExtension>
            <ns3:hr>149</ns3:hr>
            <ns3:cad>79</ns3:cad>
          </ns3:TrackPointExtension>
        </extensions>
      </trkpt>
      <trkpt lat="47.535515315830707550048828125" lon="11.03526947088539600372314453125">
        <ele>1828.199951171875</ele>
        <time>2026-09-01T08:32:18.000Z</time>
        <extensions>
          <ns3:TrackPointExtension>
            <ns3:hr>151</ns3:hr>
            <ns3:cad>79</ns3:cad>
          </ns3:TrackPointExtension>
        </extensions>
      </trkpt>
      <trkpt lat="47.535519339144229888916015625" lon="11.035298891365528106689453125">
        <ele>1828.4000244140625</ele>
        <time>2026-09-01T08:32:19.000Z</time>
        <extensions>
          <ns3:TrackPointExtension>
            <ns3:hr>151</ns3:hr>
            <ns3:cad>79</ns3:cad>
          </ns3:TrackPointExtension>
        </extensions>
      </trkpt>
      <trkpt lat="47.53552193753421306610107421875" lon="11.035319678485393524169921875">
        <ele>1828.4000244140625</ele>
        <time>2026-09-01T08:32:20.000Z</time>
        <extensions>
          <ns3:TrackPointExtension>
            <ns3:hr>152</ns3:hr>
            <ns3:cad>79</ns3:cad>
          </ns3:TrackPointExtension>
        </extensions>
      </trkpt>
      <trkpt lat="47.53553082235157489776611328125" lon="11.0353436507284641265869140625">
        <ele>1828.5999755859375</ele>
        <time>2026-09-01T08:32:21.000Z</time>
        <extensions>
          <ns3:TrackPointExtension>
            <ns3:hr>152</ns3:hr>
            <ns3:cad>79</ns3:cad>
          </ns3:TrackPointExtension>
        </extensions>
      </trkpt>
      <trkpt lat="47.5355366058647632598876953125" lon="11.03536351583898067474365234375">
        <ele>1828.5999755859375</ele>
        <time>2026-09-01T08:32:22.000Z</time>
        <extensions>
          <ns3:TrackPointExtension>
            <ns3:hr>152</ns3:hr>
            <ns3:cad>58</ns3:cad>
          </ns3:TrackPointExtension>
        </extensions>
      </trkpt>
      <trkpt lat="47.53554247319698333740234375" lon="11.0353815369307994842529296875">
        <ele>1828.5999755859375</ele>
        <time>2026-09-01T08:32:23.000Z</time>
        <extensions>
          <ns3:TrackPointExtension>
            <ns3:hr>153</ns3:hr>
            <ns3:cad>58</ns3:cad>
          </ns3:TrackPointExtension>
        </extensions>
      </trkpt>
      <trkpt lat="47.5355433113873004913330078125" lon="11.0353977978229522705078125">
        <ele>1828.5999755859375</ele>
        <time>2026-09-01T08:32:24.000Z</time>
        <extensions>
          <ns3:TrackPointExtension>
            <ns3:hr>153</ns3:hr>
            <ns3:cad>58</ns3:cad>
          </ns3:TrackPointExtension>
        </extensions>
      </trkpt>
      <trkpt lat="47.5355480052530765533447265625" lon="11.0354187525808811187744140625">
        <ele>1828.5999755859375</ele>
        <time>2026-09-01T08:32:25.000Z</time>
        <extensions>
          <ns3:TrackPointExtension>
            <ns3:hr>153</ns3:hr>
            <ns3:cad>58</ns3:cad>
          </ns3:TrackPointExtension>
        </extensions>
      </trkpt>
      <trkpt lat="47.535552196204662322998046875" lon="11.03543744422495365142822265625">
        <ele>1828.5999755859375</ele>
        <time>2026-09-01T08:32:26.000Z</time>
        <extensions>
          <ns3:TrackPointExtension>
            <ns3:hr>154</ns3:hr>
            <ns3:cad>58</ns3:cad>
          </ns3:TrackPointExtension>
        </extensions>
      </trkpt>
      <trkpt lat="47.53556367941200733184814453125" lon="11.03546409867703914642333984375">
        <ele>1828.800048828125</ele>
        <time>2026-09-01T08:32:27.000Z</time>
        <extensions>
          <ns3:TrackPointExtension>
            <ns3:hr>153</ns3:hr>
            <ns3:cad>59</ns3:cad>
          </ns3:TrackPointExtension>
        </extensions>
      </trkpt>
      <trkpt lat="47.5355704687535762786865234375" lon="11.03548656217753887176513671875">
        <ele>1828.800048828125</ele>
        <time>2026-09-01T08:32:28.000Z</time>
        <extensions>
          <ns3:TrackPointExtension>
            <ns3:hr>153</ns3:hr>
            <ns3:cad>59</ns3:cad>
          </ns3:TrackPointExtension>
        </extensions>
      </trkpt>
      <trkpt lat="47.5355788506567478179931640625" lon="11.03550709784030914306640625">
        <ele>1828.800048828125</ele>
        <time>2026-09-01T08:32:29.000Z</time>
        <extensions>
          <ns3:TrackPointExtension>
            <ns3:hr>153</ns3:hr>
            <ns3:cad>61</ns3:cad>
          </ns3:TrackPointExtension>
        </extensions>
      </trkpt>
      <trkpt lat="47.53558681346476078033447265625" lon="11.0355293937027454376220703125">
        <ele>1828.5999755859375</ele>
        <time>2026-09-01T08:32:30.000Z</time>
        <extensions>
          <ns3:TrackPointExtension>
            <ns3:hr>153</ns3:hr>
            <ns3:cad>75</ns3:cad>
          </ns3:TrackPointExtension>
        </extensions>
      </trkpt>
      <trkpt lat="47.5355972908437252044677734375" lon="11.035552360117435455322265625">
        <ele>1828.5999755859375</ele>
        <time>2026-09-01T08:32:31.000Z</time>
        <extensions>
          <ns3:TrackPointExtension>
            <ns3:hr>153</ns3:hr>
            <ns3:cad>75</ns3:cad>
          </ns3:TrackPointExtension>
        </extensions>
      </trkpt>
      <trkpt lat="47.53560726530849933624267578125" lon="11.0355692915618419647216796875">
        <ele>1828.4000244140625</ele>
        <time>2026-09-01T08:32:32.000Z</time>
        <extensions>
          <ns3:TrackPointExtension>
            <ns3:hr>153</ns3:hr>
            <ns3:cad>76</ns3:cad>
          </ns3:TrackPointExtension>
        </extensions>
      </trkpt>
      <trkpt lat="47.535617910325527191162109375" lon="11.0355873964726924896240234375">
        <ele>1828.4000244140625</ele>
        <time>2026-09-01T08:32:33.000Z</time>
        <extensions>
          <ns3:TrackPointExtension>
            <ns3:hr>154</ns3:hr>
            <ns3:cad>76</ns3:cad>
          </ns3:TrackPointExtension>
        </extensions>
      </trkpt>
      <trkpt lat="47.53562620840966701507568359375" lon="11.0355977900326251983642578125">
        <ele>1828.199951171875</ele>
        <time>2026-09-01T08:32:34.000Z</time>
        <extensions>
          <ns3:TrackPointExtension>
            <ns3:hr>153</ns3:hr>
            <ns3:cad>76</ns3:cad>
          </ns3:TrackPointExtension>
        </extensions>
      </trkpt>
      <trkpt lat="47.53563593141734600067138671875" lon="11.03561430238187313079833984375">
        <ele>1828</ele>
        <time>2026-09-01T08:32:35.000Z</time>
        <extensions>
          <ns3:TrackPointExtension>
            <ns3:hr>153</ns3:hr>
            <ns3:cad>76</ns3:cad>
          </ns3:TrackPointExtension>
        </extensions>
      </trkpt>
      <trkpt lat="47.53565655089914798736572265625" lon="11.0356311500072479248046875">
        <ele>1827.800048828125</ele>
        <time>2026-09-01T08:32:36.000Z</time>
        <extensions>
          <ns3:TrackPointExtension>
            <ns3:hr>153</ns3:hr>
            <ns3:cad>76</ns3:cad>
          </ns3:TrackPointExtension>
        </extensions>
      </trkpt>
      <trkpt lat="47.535667531192302703857421875" lon="11.035648249089717864990234375">
        <ele>1827.4000244140625</ele>
        <time>2026-09-01T08:32:37.000Z</time>
        <extensions>
          <ns3:TrackPointExtension>
            <ns3:hr>154</ns3:hr>
            <ns3:cad>76</ns3:cad>
          </ns3:TrackPointExtension>
        </extensions>
      </trkpt>
      <trkpt lat="47.53567951731383800506591796875" lon="11.0356715507805347442626953125">
        <ele>1827.199951171875</ele>
        <time>2026-09-01T08:32:38.000Z</time>
        <extensions>
          <ns3:TrackPointExtension>
            <ns3:hr>153</ns3:hr>
            <ns3:cad>76</ns3:cad>
          </ns3:TrackPointExtension>
        </extensions>
      </trkpt>
      <trkpt lat="47.53569443710148334503173828125" lon="11.0357007198035717010498046875">
        <ele>1826.800048828125</ele>
        <time>2026-09-01T08:32:39.000Z</time>
        <extensions>
          <ns3:TrackPointExtension>
            <ns3:hr>153</ns3:hr>
            <ns3:cad>76</ns3:cad>
          </ns3:TrackPointExtension>
        </extensions>
      </trkpt>
      <trkpt lat="47.53570885397493839263916015625" lon="11.03572192601859569549560546875">
        <ele>1826.4000244140625</ele>
        <time>2026-09-01T08:32:40.000Z</time>
        <extensions>
          <ns3:TrackPointExtension>
            <ns3:hr>152</ns3:hr>
            <ns3:cad>76</ns3:cad>
          </ns3:TrackPointExtension>
        </extensions>
      </trkpt>
      <trkpt lat="47.53572595305740833282470703125" lon="11.0357520170509815216064453125">
        <ele>1826</ele>
        <time>2026-09-01T08:32:41.000Z</time>
        <extensions>
          <ns3:TrackPointExtension>
            <ns3:hr>152</ns3:hr>
            <ns3:cad>76</ns3:cad>
          </ns3:TrackPointExtension>
        </extensions>
      </trkpt>
      <trkpt lat="47.535745985805988311767578125" lon="11.03578311391174793243408203125">
        <ele>1825.800048828125</ele>
        <time>2026-09-01T08:32:42.000Z</time>
        <extensions>
          <ns3:TrackPointExtension>
            <ns3:hr>151</ns3:hr>
            <ns3:cad>76</ns3:cad>
          </ns3:TrackPointExtension>
        </extensions>
      </trkpt>
      <trkpt lat="47.53576165996491909027099609375" lon="11.035817898809909820556640625">
        <ele>1825</ele>
        <time>2026-09-01T08:32:43.000Z</time>
        <extensions>
          <ns3:TrackPointExtension>
            <ns3:hr>150</ns3:hr>
            <ns3:cad>77</ns3:cad>
          </ns3:TrackPointExtension>
        </extensions>
      </trkpt>
      <trkpt lat="47.53576777875423431396484375" lon="11.03585821576416492462158203125">
        <ele>1824.5999755859375</ele>
        <time>2026-09-01T08:32:44.000Z</time>
        <extensions>
          <ns3:TrackPointExtension>
            <ns3:hr>149</ns3:hr>
            <ns3:cad>77</ns3:cad>
          </ns3:TrackPointExtension>
        </extensions>
      </trkpt>
      <trkpt lat="47.53578093834221363067626953125" lon="11.03590163402259349822998046875">
        <ele>1824.199951171875</ele>
        <time>2026-09-01T08:32:45.000Z</time>
        <extensions>
          <ns3:TrackPointExtension>
            <ns3:hr>148</ns3:hr>
            <ns3:cad>81</ns3:cad>
          </ns3:TrackPointExtension>
        </extensions>
      </trkpt>
      <trkpt lat="47.53578848205506801605224609375" lon="11.035935580730438232421875">
        <ele>1823.4000244140625</ele>
        <time>2026-09-01T08:32:46.000Z</time>
        <extensions>
          <ns3:TrackPointExtension>
            <ns3:hr>147</ns3:hr>
            <ns3:cad>81</ns3:cad>
          </ns3:TrackPointExtension>
        </extensions>
      </trkpt>
      <trkpt lat="47.53579133190214633941650390625" lon="11.035971455276012420654296875">
        <ele>1823.199951171875</ele>
        <time>2026-09-01T08:32:47.000Z</time>
        <extensions>
          <ns3:TrackPointExtension>
            <ns3:hr>147</ns3:hr>
            <ns3:cad>80</ns3:cad>
          </ns3:TrackPointExtension>
        </extensions>
      </trkpt>
      <trkpt lat="47.53579434938728809356689453125" lon="11.0360131971538066864013671875">
        <ele>1823.199951171875</ele>
        <time>2026-09-01T08:32:48.000Z</time>
        <extensions>
          <ns3:TrackPointExtension>
            <ns3:hr>148</ns3:hr>
            <ns3:cad>79</ns3:cad>
          </ns3:TrackPointExtension>
        </extensions>
      </trkpt>
      <trkpt lat="47.53579183481633663177490234375" lon="11.0360480658710002899169921875">
        <ele>1823.4000244140625</ele>
        <time>2026-09-01T08:32:49.000Z</time>
        <extensions>
          <ns3:TrackPointExtension>
            <ns3:hr>148</ns3:hr>
            <ns3:cad>78</ns3:cad>
          </ns3:TrackPointExtension>
        </extensions>
      </trkpt>
      <trkpt lat="47.53579334355890750885009765625" lon="11.03608033619821071624755859375">
        <ele>1823.5999755859375</ele>
        <time>2026-09-01T08:32:50.000Z</time>
        <extensions>
          <ns3:TrackPointExtension>
            <ns3:hr>148</ns3:hr>
            <ns3:cad>77</ns3:cad>
          </ns3:TrackPointExtension>
        </extensions>
      </trkpt>
      <trkpt lat="47.53581329248845577239990234375" lon="11.036098189651966094970703125">
        <ele>1823.5999755859375</ele>
        <time>2026-09-01T08:32:51.000Z</time>
        <extensions>
          <ns3:TrackPointExtension>
            <ns3:hr>149</ns3:hr>
            <ns3:cad>77</ns3:cad>
          </ns3:TrackPointExtension>
        </extensions>
      </trkpt>
      <trkpt lat="47.5358234345912933349609375" lon="11.03611059486865997314453125">
        <ele>1823.800048828125</ele>
        <time>2026-09-01T08:32:52.000Z</time>
        <extensions>
          <ns3:TrackPointExtension>
            <ns3:hr>149</ns3:hr>
            <ns3:cad>77</ns3:cad>
          </ns3:TrackPointExtension>
        </extensions>
      </trkpt>
      <trkpt lat="47.53583055920898914337158203125" lon="11.03614085353910923004150390625">
        <ele>1823.5999755859375</ele>
        <time>2026-09-01T08:32:53.000Z</time>
        <extensions>
          <ns3:TrackPointExtension>
            <ns3:hr>149</ns3:hr>
            <ns3:cad>77</ns3:cad>
          </ns3:TrackPointExtension>
        </extensions>
      </trkpt>
      <trkpt lat="47.53584480844438076019287109375" lon="11.03617890737950801849365234375">
        <ele>1823.199951171875</ele>
        <time>2026-09-01T08:32:54.000Z</time>
        <extensions>
          <ns3:TrackPointExtension>
            <ns3:hr>149</ns3:hr>
            <ns3:cad>74</ns3:cad>
          </ns3:TrackPointExtension>
        </extensions>
      </trkpt>
      <trkpt lat="47.5358497537672519683837890625" lon="11.036195419728755950927734375">
        <ele>1823</ele>
        <time>2026-09-01T08:32:55.000Z</time>
        <extensions>
          <ns3:TrackPointExtension>
            <ns3:hr>149</ns3:hr>
            <ns3:cad>74</ns3:cad>
          </ns3:TrackPointExtension>
        </extensions>
      </trkpt>
      <trkpt lat="47.53584883175790309906005859375" lon="11.03622266091406345367431640625">
        <ele>1822.800048828125</ele>
        <time>2026-09-01T08:32:56.000Z</time>
        <extensions>
          <ns3:TrackPointExtension>
            <ns3:hr>150</ns3:hr>
            <ns3:cad>74</ns3:cad>
          </ns3:TrackPointExtension>
        </extensions>
      </trkpt>
      <trkpt lat="47.535859644412994384765625" lon="11.03625752963125705718994140625">
        <ele>1822.800048828125</ele>
        <time>2026-09-01T08:32:57.000Z</time>
        <extensions>
          <ns3:TrackPointExtension>
            <ns3:hr>149</ns3:hr>
            <ns3:cad>74</ns3:cad>
          </ns3:TrackPointExtension>
        </extensions>
      </trkpt>
      <trkpt lat="47.5358725525438785552978515625" lon="11.03628602810204029083251953125">
        <ele>1822.5999755859375</ele>
        <time>2026-09-01T08:32:58.000Z</time>
        <extensions>
          <ns3:TrackPointExtension>
            <ns3:hr>149</ns3:hr>
            <ns3:cad>76</ns3:cad>
          </ns3:TrackPointExtension>
        </extensions>
      </trkpt>
      <trkpt lat="47.53589308820664882659912109375" lon="11.03631586767733097076416015625">
        <ele>1822.4000244140625</ele>
        <time>2026-09-01T08:32:59.000Z</time>
        <extensions>
          <ns3:TrackPointExtension>
            <ns3:hr>150</ns3:hr>
            <ns3:cad>76</ns3:cad>
          </ns3:TrackPointExtension>
        </extensions>
      </trkpt>
      <trkpt lat="47.53591119311749935150146484375" lon="11.036346293985843658447265625">
        <ele>1822.4000244140625</ele>
        <time>2026-09-01T08:33:00.000Z</time>
        <extensions>
          <ns3:TrackPointExtension>
            <ns3:hr>150</ns3:hr>
            <ns3:cad>76</ns3:cad>
          </ns3:TrackPointExtension>
        </extensions>
      </trkpt>
      <trkpt lat="47.535933069884777069091796875" lon="11.03637319989502429962158203125">
        <ele>1822.199951171875</ele>
        <time>2026-09-01T08:33:01.000Z</time>
        <extensions>
          <ns3:TrackPointExtension>
            <ns3:hr>150</ns3:hr>
            <ns3:cad>76</ns3:cad>
          </ns3:TrackPointExtension>
        </extensions>
      </trkpt>
      <trkpt lat="47.535959221422672271728515625" lon="11.0363900475203990936279296875">
        <ele>1822.199951171875</ele>
        <time>2026-09-01T08:33:02.000Z</time>
        <extensions>
          <ns3:TrackPointExtension>
            <ns3:hr>150</ns3:hr>
            <ns3:cad>76</ns3:cad>
          </ns3:TrackPointExtension>
        </extensions>
      </trkpt>
      <trkpt lat="47.53598394803702831268310546875" lon="11.0364047996699810028076171875">
        <ele>1822.199951171875</ele>
        <time>2026-09-01T08:33:03.000Z</time>
        <extensions>
          <ns3:TrackPointExtension>
            <ns3:hr>149</ns3:hr>
            <ns3:cad>76</ns3:cad>
          </ns3:TrackPointExtension>
        </extensions>
      </trkpt>
      <trkpt lat="47.5360066629946231842041015625" lon="11.0364339686930179595947265625">
        <ele>1822.199951171875</ele>
        <time>2026-09-01T08:33:04.000Z</time>
        <extensions>
          <ns3:TrackPointExtension>
            <ns3:hr>150</ns3:hr>
            <ns3:cad>77</ns3:cad>
          </ns3:TrackPointExtension>
        </extensions>
      </trkpt>
      <trkpt lat="47.536014877259731292724609375" lon="11.03646892122924327850341796875">
        <ele>1822.199951171875</ele>
        <time>2026-09-01T08:33:05.000Z</time>
        <extensions>
          <ns3:TrackPointExtension>
            <ns3:hr>150</ns3:hr>
            <ns3:cad>77</ns3:cad>
          </ns3:TrackPointExtension>
        </extensions>
      </trkpt>
      <trkpt lat="47.536007501184940338134765625" lon="11.036490462720394134521484375">
        <ele>1822.199951171875</ele>
        <time>2026-09-01T08:33:06.000Z</time>
        <extensions>
          <ns3:TrackPointExtension>
            <ns3:hr>150</ns3:hr>
            <ns3:cad>77</ns3:cad>
          </ns3:TrackPointExtension>
        </extensions>
      </trkpt>
      <trkpt lat="47.53601127304136753082275390625" lon="11.03653170168399810791015625">
        <ele>1822.199951171875</ele>
        <time>2026-09-01T08:33:07.000Z</time>
        <extensions>
          <ns3:TrackPointExtension>
            <ns3:hr>150</ns3:hr>
            <ns3:cad>77</ns3:cad>
          </ns3:TrackPointExtension>
        </extensions>
      </trkpt>
      <trkpt lat="47.5360197387635707855224609375" lon="11.03656698949635028839111328125">
        <ele>1822.199951171875</ele>
        <time>2026-09-01T08:33:08.000Z</time>
        <extensions>
          <ns3:TrackPointExtension>
            <ns3:hr>151</ns3:hr>
            <ns3:cad>79</ns3:cad>
          </ns3:TrackPointExtension>
        </extensions>
      </trkpt>
      <trkpt lat="47.5360331498086452484130859375" lon="11.0365895368158817291259765625">
        <ele>1822.5999755859375</ele>
        <time>2026-09-01T08:33:09.000Z</time>
        <extensions>
          <ns3:TrackPointExtension>
            <ns3:hr>151</ns3:hr>
            <ns3:cad>80</ns3:cad>
          </ns3:TrackPointExtension>
        </extensions>
      </trkpt>
      <trkpt lat="47.536059804260730743408203125" lon="11.0366187058389186859130859375">
        <ele>1822.800048828125</ele>
        <time>2026-09-01T08:33:10.000Z</time>
        <extensions>
          <ns3:TrackPointExtension>
            <ns3:hr>151</ns3:hr>
            <ns3:cad>80</ns3:cad>
          </ns3:TrackPointExtension>
        </extensions>
      </trkpt>
      <trkpt lat="47.53607396967709064483642578125" lon="11.0366415046155452728271484375">
        <ele>1822.800048828125</ele>
        <time>2026-09-01T08:33:11.000Z</time>
        <extensions>
          <ns3:TrackPointExtension>
            <ns3:hr>151</ns3:hr>
            <ns3:cad>83</ns3:cad>
          </ns3:TrackPointExtension>
        </extensions>
      </trkpt>
      <trkpt lat="47.53609391860663890838623046875" lon="11.03667025454342365264892578125">
        <ele>1822.4000244140625</ele>
        <time>2026-09-01T08:33:12.000Z</time>
        <extensions>
          <ns3:TrackPointExtension>
            <ns3:hr>152</ns3:hr>
            <ns3:cad>83</ns3:cad>
          </ns3:TrackPointExtension>
        </extensions>
      </trkpt>
      <trkpt lat="47.536111772060394287109375" lon="11.0366700030863285064697265625">
        <ele>1822.199951171875</ele>
        <time>2026-09-01T08:33:13.000Z</time>
        <extensions>
          <ns3:TrackPointExtension>
            <ns3:hr>152</ns3:hr>
            <ns3:cad>83</ns3:cad>
          </ns3:TrackPointExtension>
        </extensions>
      </trkpt>
      <trkpt lat="47.53613851033151149749755859375" lon="11.036681234836578369140625">
        <ele>1821.5999755859375</ele>
        <time>2026-09-01T08:33:14.000Z</time>
        <extensions>
          <ns3:TrackPointExtension>
            <ns3:hr>153</ns3:hr>
            <ns3:cad>83</ns3:cad>
          </ns3:TrackPointExtension>
        </extensions>
      </trkpt>
      <trkpt lat="47.53615912981331348419189453125" lon="11.0366924665868282318115234375">
        <ele>1820.4000244140625</ele>
        <time>2026-09-01T08:33:15.000Z</time>
        <extensions>
          <ns3:TrackPointExtension>
            <ns3:hr>153</ns3:hr>
            <ns3:cad>83</ns3:cad>
          </ns3:TrackPointExtension>
        </extensions>
      </trkpt>
      <trkpt lat="47.5361766479909420013427734375" lon="11.03668919764459133148193359375">
        <ele>1819.800048828125</ele>
        <time>2026-09-01T08:33:16.000Z</time>
        <extensions>
          <ns3:TrackPointExtension>
            <ns3:hr>153</ns3:hr>
            <ns3:cad>83</ns3:cad>
          </ns3:TrackPointExtension>
        </extensions>
      </trkpt>
      <trkpt lat="47.536197602748870849609375" lon="11.03669489733874797821044921875">
        <ele>1819.199951171875</ele>
        <time>2026-09-01T08:33:17.000Z</time>
        <extensions>
          <ns3:TrackPointExtension>
            <ns3:hr>153</ns3:hr>
            <ns3:cad>83</ns3:cad>
          </ns3:TrackPointExtension>
        </extensions>
      </trkpt>
      <trkpt lat="47.5362108461558818817138671875" lon="11.03669791482388973236083984375">
        <ele>1818.5999755859375</ele>
        <time>2026-09-01T08:33:18.000Z</time>
        <extensions>
          <ns3:TrackPointExtension>
            <ns3:hr>154</ns3:hr>
            <ns3:cad>83</ns3:cad>
          </ns3:TrackPointExtension>
        </extensions>
      </trkpt>
      <trkpt lat="47.5362329743802547454833984375" lon="11.0367031954228878021240234375">
        <ele>1818</ele>
        <time>2026-09-01T08:33:19.000Z</time>
        <extensions>
          <ns3:TrackPointExtension>
            <ns3:hr>154</ns3:hr>
            <ns3:cad>83</ns3:cad>
          </ns3:TrackPointExtension>
        </extensions>
      </trkpt>
      <trkpt lat="47.536244876682758331298828125" lon="11.03672616183757781982421875">
        <ele>1817.4000244140625</ele>
        <time>2026-09-01T08:33:20.000Z</time>
        <extensions>
          <ns3:TrackPointExtension>
            <ns3:hr>153</ns3:hr>
            <ns3:cad>83</ns3:cad>
          </ns3:TrackPointExtension>
        </extensions>
      </trkpt>
      <trkpt lat="47.5362557731568813323974609375" lon="11.0367531515657901763916015625">
        <ele>1816.800048828125</ele>
        <time>2026-09-01T08:33:21.000Z</time>
        <extensions>
          <ns3:TrackPointExtension>
            <ns3:hr>152</ns3:hr>
            <ns3:cad>83</ns3:cad>
          </ns3:TrackPointExtension>
        </extensions>
      </trkpt>
      <trkpt lat="47.53625166602432727813720703125" lon="11.036776117980480194091796875">
        <ele>1816</ele>
        <time>2026-09-01T08:33:22.000Z</time>
        <extensions>
          <ns3:TrackPointExtension>
            <ns3:hr>151</ns3:hr>
            <ns3:cad>83</ns3:cad>
          </ns3:TrackPointExtension>
        </extensions>
      </trkpt>
      <trkpt lat="47.5362447090446949005126953125" lon="11.03680235333740711212158203125">
        <ele>1815.5999755859375</ele>
        <time>2026-09-01T08:33:23.000Z</time>
        <extensions>
          <ns3:TrackPointExtension>
            <ns3:hr>150</ns3:hr>
            <ns3:cad>83</ns3:cad>
          </ns3:TrackPointExtension>
        </extensions>
      </trkpt>
      <trkpt lat="47.53623180091381072998046875" lon="11.03682733140885829925537109375">
        <ele>1815</ele>
        <time>2026-09-01T08:33:24.000Z</time>
        <extensions>
          <ns3:TrackPointExtension>
            <ns3:hr>149</ns3:hr>
            <ns3:cad>0</ns3:cad>
          </ns3:TrackPointExtension>
        </extensions>
      </trkpt>
      <trkpt lat="47.5362172164022922515869140625" lon="11.03685582987964153289794921875">
        <ele>1814.5999755859375</ele>
        <time>2026-09-01T08:33:25.000Z</time>
        <extensions>
          <ns3:TrackPointExtension>
            <ns3:hr>148</ns3:hr>
            <ns3:cad>0</ns3:cad>
          </ns3:TrackPointExtension>
        </extensions>
      </trkpt>
      <trkpt lat="47.536204643547534942626953125" lon="11.036882735788822174072265625">
        <ele>1814.5999755859375</ele>
        <time>2026-09-01T08:33:26.000Z</time>
        <extensions>
          <ns3:TrackPointExtension>
            <ns3:hr>148</ns3:hr>
            <ns3:cad>0</ns3:cad>
          </ns3:TrackPointExtension>
        </extensions>
      </trkpt>
      <trkpt lat="47.53620254807174205780029296875" lon="11.03692104108631610870361328125">
        <ele>1813.800048828125</ele>
        <time>2026-09-01T08:33:27.000Z</time>
        <extensions>
          <ns3:TrackPointExtension>
            <ns3:hr>147</ns3:hr>
            <ns3:cad>0</ns3:cad>
          </ns3:TrackPointExtension>
        </extensions>
      </trkpt>
      <trkpt lat="47.53620338626205921173095703125" lon="11.036945097148418426513671875">
        <ele>1813.199951171875</ele>
        <time>2026-09-01T08:33:28.000Z</time>
        <extensions>
          <ns3:TrackPointExtension>
            <ns3:hr>147</ns3:hr>
            <ns3:cad>0</ns3:cad>
          </ns3:TrackPointExtension>
        </extensions>
      </trkpt>
      <trkpt lat="47.53619852475821971893310546875" lon="11.036961190402507781982421875">
        <ele>1812.4000244140625</ele>
        <time>2026-09-01T08:33:29.000Z</time>
        <extensions>
          <ns3:TrackPointExtension>
            <ns3:hr>147</ns3:hr>
            <ns3:cad>0</ns3:cad>
          </ns3:TrackPointExtension>
        </extensions>
      </trkpt>
      <trkpt lat="47.5362021289765834808349609375" lon="11.03697049431502819061279296875">
        <ele>1811.800048828125</ele>
        <time>2026-09-01T08:33:30.000Z</time>
        <extensions>
          <ns3:TrackPointExtension>
            <ns3:hr>148</ns3:hr>
            <ns3:cad>0</ns3:cad>
          </ns3:TrackPointExtension>
        </extensions>
      </trkpt>
      <trkpt lat="47.53620573319494724273681640625" lon="11.03697963058948516845703125">
        <ele>1811.4000244140625</ele>
        <time>2026-09-01T08:33:31.000Z</time>
        <extensions>
          <ns3:TrackPointExtension>
            <ns3:hr>147</ns3:hr>
            <ns3:cad>0</ns3:cad>
          </ns3:TrackPointExtension>
        </extensions>
      </trkpt>
      <trkpt lat="47.53621143288910388946533203125" lon="11.036989688873291015625">
        <ele>1811</ele>
        <time>2026-09-01T08:33:32.000Z</time>
        <extensions>
          <ns3:TrackPointExtension>
            <ns3:hr>147</ns3:hr>
            <ns3:cad>0</ns3:cad>
          </ns3:TrackPointExtension>
        </extensions>
      </trkpt>
      <trkpt lat="47.5362118519842624664306640625" lon="11.0370079614222049713134765625">
        <ele>1810.4000244140625</ele>
        <time>2026-09-01T08:33:33.000Z</time>
        <extensions>
          <ns3:TrackPointExtension>
            <ns3:hr>147</ns3:hr>
            <ns3:cad>48</ns3:cad>
          </ns3:TrackPointExtension>
        </extensions>
      </trkpt>
      <trkpt lat="47.53620992414653301239013671875" lon="11.03702925145626068115234375">
        <ele>1809.800048828125</ele>
        <time>2026-09-01T08:33:34.000Z</time>
        <extensions>
          <ns3:TrackPointExtension>
            <ns3:hr>147</ns3:hr>
            <ns3:cad>48</ns3:cad>
          </ns3:TrackPointExtension>
        </extensions>
      </trkpt>
      <trkpt lat="47.536206655204296112060546875" lon="11.0370569117367267608642578125">
        <ele>1809.199951171875</ele>
        <time>2026-09-01T08:33:35.000Z</time>
        <extensions>
          <ns3:TrackPointExtension>
            <ns3:hr>148</ns3:hr>
            <ns3:cad>48</ns3:cad>
          </ns3:TrackPointExtension>
        </extensions>
      </trkpt>
      <trkpt lat="47.53620523028075695037841796875" lon="11.03707610629498958587646484375">
        <ele>1808.4000244140625</ele>
        <time>2026-09-01T08:33:36.000Z</time>
        <extensions>
          <ns3:TrackPointExtension>
            <ns3:hr>148</ns3:hr>
            <ns3:cad>48</ns3:cad>
          </ns3:TrackPointExtension>
        </extensions>
      </trkpt>
      <trkpt lat="47.536202631890773773193359375" lon="11.03709706105291843414306640625">
        <ele>1808</ele>
        <time>2026-09-01T08:33:37.000Z</time>
        <extensions>
          <ns3:TrackPointExtension>
            <ns3:hr>148</ns3:hr>
            <ns3:cad>48</ns3:cad>
          </ns3:TrackPointExtension>
        </extensions>
      </trkpt>
      <trkpt lat="47.5362002849578857421875" lon="11.0371226258575916290283203125">
        <ele>1807.4000244140625</ele>
        <time>2026-09-01T08:33:38.000Z</time>
        <extensions>
          <ns3:TrackPointExtension>
            <ns3:hr>147</ns3:hr>
            <ns3:cad>48</ns3:cad>
          </ns3:TrackPointExtension>
        </extensions>
      </trkpt>
      <trkpt lat="47.53619668073952198028564453125" lon="11.037140227854251861572265625">
        <ele>1807</ele>
        <time>2026-09-01T08:33:39.000Z</time>
        <extensions>
          <ns3:TrackPointExtension>
            <ns3:hr>147</ns3:hr>
            <ns3:cad>48</ns3:cad>
          </ns3:TrackPointExtension>
        </extensions>
      </trkpt>
      <trkpt lat="47.5361940823495388031005859375" lon="11.03715808130800724029541015625">
        <ele>1806.4000244140625</ele>
        <time>2026-09-01T08:33:40.000Z</time>
        <extensions>
          <ns3:TrackPointExtension>
            <ns3:hr>146</ns3:hr>
            <ns3:cad>79</ns3:cad>
          </ns3:TrackPointExtension>
        </extensions>
      </trkpt>
      <trkpt lat="47.536198608577251434326171875" lon="11.03716864250600337982177734375">
        <ele>1805.800048828125</ele>
        <time>2026-09-01T08:33:41.000Z</time>
        <extensions>
          <ns3:TrackPointExtension>
            <ns3:hr>146</ns3:hr>
            <ns3:cad>79</ns3:cad>
          </ns3:TrackPointExtension>
        </extensions>
      </trkpt>
      <trkpt lat="47.53620523028075695037841796875" lon="11.0371900163590908050537109375">
        <ele>1805.199951171875</ele>
        <time>2026-09-01T08:33:42.000Z</time>
        <extensions>
          <ns3:TrackPointExtension>
            <ns3:hr>146</ns3:hr>
            <ns3:cad>79</ns3:cad>
          </ns3:TrackPointExtension>
        </extensions>
      </trkpt>
      <trkpt lat="47.53621394746005535125732421875" lon="11.03721608407795429229736328125">
        <ele>1804.5999755859375</ele>
        <time>2026-09-01T08:33:43.000Z</time>
        <extensions>
          <ns3:TrackPointExtension>
            <ns3:hr>146</ns3:hr>
            <ns3:cad>79</ns3:cad>
          </ns3:TrackPointExtension>
        </extensions>
      </trkpt>
      <trkpt lat="47.536218725144863128662109375" lon="11.03724760003387928009033203125">
        <ele>1803.800048828125</ele>
        <time>2026-09-01T08:33:44.000Z</time>
        <extensions>
          <ns3:TrackPointExtension>
            <ns3:hr>146</ns3:hr>
            <ns3:cad>79</ns3:cad>
          </ns3:TrackPointExtension>
        </extensions>
      </trkpt>
      <trkpt lat="47.53621461801230907440185546875" lon="11.0372795350849628448486328125">
        <ele>1803.199951171875</ele>
        <time>2026-09-01T08:33:45.000Z</time>
        <extensions>
          <ns3:TrackPointExtension>
            <ns3:hr>146</ns3:hr>
            <ns3:cad>79</ns3:cad>
          </ns3:TrackPointExtension>
        </extensions>
      </trkpt>
      <trkpt lat="47.5362279452383518218994140625" lon="11.0373140685260295867919921875">
        <ele>1802.5999755859375</ele>
        <time>2026-09-01T08:33:46.000Z</time>
        <extensions>
          <ns3:TrackPointExtension>
            <ns3:hr>146</ns3:hr>
            <ns3:cad>79</ns3:cad>
          </ns3:TrackPointExtension>
        </extensions>
      </trkpt>
      <trkpt lat="47.5362326391041278839111328125" lon="11.037335693836212158203125">
        <ele>1802.199951171875</ele>
        <time>2026-09-01T08:33:47.000Z</time>
        <extensions>
          <ns3:TrackPointExtension>
            <ns3:hr>146</ns3:hr>
            <ns3:cad>79</ns3:cad>
          </ns3:TrackPointExtension>
        </extensions>
      </trkpt>
      <trkpt lat="47.53623942844569683074951171875" lon="11.03735824115574359893798828125">
        <ele>1801.800048828125</ele>
        <time>2026-09-01T08:33:48.000Z</time>
        <extensions>
          <ns3:TrackPointExtension>
            <ns3:hr>146</ns3:hr>
            <ns3:cad>79</ns3:cad>
          </ns3:TrackPointExtension>
        </extensions>
      </trkpt>
      <trkpt lat="47.5362432003021240234375" lon="11.03738732635974884033203125">
        <ele>1801.5999755859375</ele>
        <time>2026-09-01T08:33:49.000Z</time>
        <extensions>
          <ns3:TrackPointExtension>
            <ns3:hr>146</ns3:hr>
            <ns3:cad>79</ns3:cad>
          </ns3:TrackPointExtension>
        </extensions>
      </trkpt>
      <trkpt lat="47.5362517498433589935302734375" lon="11.03741339407861232757568359375">
        <ele>1801.199951171875</ele>
        <time>2026-09-01T08:33:50.000Z</time>
        <extensions>
          <ns3:TrackPointExtension>
            <ns3:hr>145</ns3:hr>
            <ns3:cad>79</ns3:cad>
          </ns3:TrackPointExtension>
        </extensions>
      </trkpt>
      <trkpt lat="47.53626189194619655609130859375" lon="11.03743954561650753021240234375">
        <ele>1800.5999755859375</ele>
        <time>2026-09-01T08:33:51.000Z</time>
        <extensions>
          <ns3:TrackPointExtension>
            <ns3:hr>145</ns3:hr>
            <ns3:cad>75</ns3:cad>
          </ns3:TrackPointExtension>
        </extensions>
      </trkpt>
      <trkpt lat="47.53626960329711437225341796875" lon="11.03746645152568817138671875">
        <ele>1800</ele>
        <time>2026-09-01T08:33:52.000Z</time>
        <extensions>
          <ns3:TrackPointExtension>
            <ns3:hr>145</ns3:hr>
            <ns3:cad>75</ns3:cad>
          </ns3:TrackPointExtension>
        </extensions>
      </trkpt>
      <trkpt lat="47.53628049977123737335205078125" lon="11.03749268688261508941650390625">
        <ele>1799.4000244140625</ele>
        <time>2026-09-01T08:33:53.000Z</time>
        <extensions>
          <ns3:TrackPointExtension>
            <ns3:hr>144</ns3:hr>
            <ns3:cad>75</ns3:cad>
          </ns3:TrackPointExtension>
        </extensions>
      </trkpt>
      <trkpt lat="47.53628955222666263580322265625" lon="11.03751515038311481475830078125">
        <ele>1799</ele>
        <time>2026-09-01T08:33:54.000Z</time>
        <extensions>
          <ns3:TrackPointExtension>
            <ns3:hr>143</ns3:hr>
            <ns3:cad>77</ns3:cad>
          </ns3:TrackPointExtension>
        </extensions>
      </trkpt>
      <trkpt lat="47.53630111925303936004638671875" lon="11.03753576986491680145263671875">
        <ele>1798.199951171875</ele>
        <time>2026-09-01T08:33:55.000Z</time>
        <extensions>
          <ns3:TrackPointExtension>
            <ns3:hr>143</ns3:hr>
            <ns3:cad>77</ns3:cad>
          </ns3:TrackPointExtension>
        </extensions>
      </trkpt>
      <trkpt lat="47.53630866296589374542236328125" lon="11.03756091557443141937255859375">
        <ele>1797.4000244140625</ele>
        <time>2026-09-01T08:33:56.000Z</time>
        <extensions>
          <ns3:TrackPointExtension>
            <ns3:hr>142</ns3:hr>
            <ns3:cad>77</ns3:cad>
          </ns3:TrackPointExtension>
        </extensions>
      </trkpt>
      <trkpt lat="47.536304891109466552734375" lon="11.0375923477113246917724609375">
        <ele>1796.4000244140625</ele>
        <time>2026-09-01T08:33:57.000Z</time>
        <extensions>
          <ns3:TrackPointExtension>
            <ns3:hr>142</ns3:hr>
            <ns3:cad>77</ns3:cad>
          </ns3:TrackPointExtension>
        </extensions>
      </trkpt>
      <trkpt lat="47.5363137759268283843994140625" lon="11.03761891834437847137451171875">
        <ele>1795.5999755859375</ele>
        <time>2026-09-01T08:33:58.000Z</time>
        <extensions>
          <ns3:TrackPointExtension>
            <ns3:hr>142</ns3:hr>
            <ns3:cad>77</ns3:cad>
          </ns3:TrackPointExtension>
        </extensions>
      </trkpt>
      <trkpt lat="47.53633095882833003997802734375" lon="11.03765328414738178253173828125">
        <ele>1795</ele>
        <time>2026-09-01T08:33:59.000Z</time>
        <extensions>
          <ns3:TrackPointExtension>
            <ns3:hr>142</ns3:hr>
            <ns3:cad>77</ns3:cad>
          </ns3:TrackPointExtension>
        </extensions>
      </trkpt>
      <trkpt lat="47.536353170871734619140625" lon="11.0376723110675811767578125">
        <ele>1794.5999755859375</ele>
        <time>2026-09-01T08:34:00.000Z</time>
        <extensions>
          <ns3:TrackPointExtension>
            <ns3:hr>142</ns3:hr>
            <ns3:cad>77</ns3:cad>
          </ns3:TrackPointExtension>
        </extensions>
      </trkpt>
      <trkpt lat="47.53637303598225116729736328125" lon="11.0376884043216705322265625">
        <ele>1794.199951171875</ele>
        <time>2026-09-01T08:34:01.000Z</time>
        <extensions>
          <ns3:TrackPointExtension>
            <ns3:hr>141</ns3:hr>
            <ns3:cad>82</ns3:cad>
          </ns3:TrackPointExtension>
        </extensions>
      </trkpt>
      <trkpt lat="47.5363932363688945770263671875" lon="11.03770642541348934173583984375">
        <ele>1793.800048828125</ele>
        <time>2026-09-01T08:34:02.000Z</time>
        <extensions>
          <ns3:TrackPointExtension>
            <ns3:hr>141</ns3:hr>
            <ns3:cad>82</ns3:cad>
          </ns3:TrackPointExtension>
        </extensions>
      </trkpt>
      <trkpt lat="47.53639482893049716949462890625" lon="11.03772637434303760528564453125">
        <ele>1793.5999755859375</ele>
        <time>2026-09-01T08:34:03.000Z</time>
        <extensions>
          <ns3:TrackPointExtension>
            <ns3:hr>140</ns3:hr>
            <ns3:cad>82</ns3:cad>
          </ns3:TrackPointExtension>
        </extensions>
      </trkpt>
      <trkpt lat="47.53639767877757549285888671875" lon="11.03775001130998134613037109375">
        <ele>1793.4000244140625</ele>
        <time>2026-09-01T08:34:04.000Z</time>
        <extensions>
          <ns3:TrackPointExtension>
            <ns3:hr>139</ns3:hr>
            <ns3:cad>82</ns3:cad>
          </ns3:TrackPointExtension>
        </extensions>
      </trkpt>
      <trkpt lat="47.5364006124436855316162109375" lon="11.0377593152225017547607421875">
        <ele>1793.199951171875</ele>
        <time>2026-09-01T08:34:05.000Z</time>
        <extensions>
          <ns3:TrackPointExtension>
            <ns3:hr>140</ns3:hr>
            <ns3:cad>83</ns3:cad>
          </ns3:TrackPointExtension>
        </extensions>
      </trkpt>
      <trkpt lat="47.53639139235019683837890625" lon="11.03777482174336910247802734375">
        <ele>1793.199951171875</ele>
        <time>2026-09-01T08:34:06.000Z</time>
        <extensions>
          <ns3:TrackPointExtension>
            <ns3:hr>140</ns3:hr>
            <ns3:cad>83</ns3:cad>
          </ns3:TrackPointExtension>
        </extensions>
      </trkpt>
      <trkpt lat="47.53638334572315216064453125" lon="11.03779996745288372039794921875">
        <ele>1793.199951171875</ele>
        <time>2026-09-01T08:34:07.000Z</time>
        <extensions>
          <ns3:TrackPointExtension>
            <ns3:hr>140</ns3:hr>
            <ns3:cad>83</ns3:cad>
          </ns3:TrackPointExtension>
        </extensions>
      </trkpt>
      <trkpt lat="47.53638468682765960693359375" lon="11.03781321085989475250244140625">
        <ele>1793.4000244140625</ele>
        <time>2026-09-01T08:34:08.000Z</time>
        <extensions>
          <ns3:TrackPointExtension>
            <ns3:hr>141</ns3:hr>
            <ns3:cad>83</ns3:cad>
          </ns3:TrackPointExtension>
        </extensions>
      </trkpt>
      <trkpt lat="47.53638443537056446075439453125" lon="11.0378303937613964080810546875">
        <ele>1793.4000244140625</ele>
        <time>2026-09-01T08:34:09.000Z</time>
        <extensions>
          <ns3:TrackPointExtension>
            <ns3:hr>140</ns3:hr>
            <ns3:cad>83</ns3:cad>
          </ns3:TrackPointExtension>
        </extensions>
      </trkpt>
      <trkpt lat="47.536391727626323699951171875" lon="11.03785336017608642578125">
        <ele>1793.4000244140625</ele>
        <time>2026-09-01T08:34:10.000Z</time>
        <extensions>
          <ns3:TrackPointExtension>
            <ns3:hr>139</ns3:hr>
            <ns3:cad>83</ns3:cad>
          </ns3:TrackPointExtension>
        </extensions>
      </trkpt>
      <trkpt lat="47.5363965891301631927490234375" lon="11.03786769323050975799560546875">
        <ele>1793</ele>
        <time>2026-09-01T08:34:11.000Z</time>
        <extensions>
          <ns3:TrackPointExtension>
            <ns3:hr>139</ns3:hr>
            <ns3:cad>83</ns3:cad>
          </ns3:TrackPointExtension>
        </extensions>
      </trkpt>
      <trkpt lat="47.5363915599882602691650390625" lon="11.03787523694336414337158203125">
        <ele>1792.199951171875</ele>
        <time>2026-09-01T08:34:12.000Z</time>
        <extensions>
          <ns3:TrackPointExtension>
            <ns3:hr>138</ns3:hr>
            <ns3:cad>83</ns3:cad>
          </ns3:TrackPointExtension>
        </extensions>
      </trkpt>
      <trkpt lat="47.53638611175119876861572265625" lon="11.037893593311309814453125">
        <ele>1791.5999755859375</ele>
        <time>2026-09-01T08:34:13.000Z</time>
        <extensions>
          <ns3:TrackPointExtension>
            <ns3:hr>139</ns3:hr>
            <ns3:cad>83</ns3:cad>
          </ns3:TrackPointExtension>
        </extensions>
      </trkpt>
      <trkpt lat="47.53638644702732563018798828125" lon="11.03790809400379657745361328125">
        <ele>1790.800048828125</ele>
        <time>2026-09-01T08:34:14.000Z</time>
        <extensions>
          <ns3:TrackPointExtension>
            <ns3:hr>139</ns3:hr>
            <ns3:cad>79</ns3:cad>
          </ns3:TrackPointExtension>
        </extensions>
      </trkpt>
      <trkpt lat="47.53638275898993015289306640625" lon="11.037926115095615386962890625">
        <ele>1790</ele>
        <time>2026-09-01T08:34:15.000Z</time>
        <extensions>
          <ns3:TrackPointExtension>
            <ns3:hr>139</ns3:hr>
            <ns3:cad>79</ns3:cad>
          </ns3:TrackPointExtension>
        </extensions>
      </trkpt>
      <trkpt lat="47.53637370653450489044189453125" lon="11.0379460640251636505126953125">
        <ele>1789.199951171875</ele>
        <time>2026-09-01T08:34:16.000Z</time>
        <extensions>
          <ns3:TrackPointExtension>
            <ns3:hr>140</ns3:hr>
            <ns3:cad>79</ns3:cad>
          </ns3:TrackPointExtension>
        </extensions>
      </trkpt>
      <trkpt lat="47.53636415116488933563232421875" lon="11.03794279508292675018310546875">
        <ele>1788.5999755859375</ele>
        <time>2026-09-01T08:34:17.000Z</time>
        <extensions>
          <ns3:TrackPointExtension>
            <ns3:hr>140</ns3:hr>
            <ns3:cad>75</ns3:cad>
          </ns3:TrackPointExtension>
        </extensions>
      </trkpt>
      <trkpt lat="47.536358870565891265869140625" lon="11.03796073235571384429931640625">
        <ele>1788</ele>
        <time>2026-09-01T08:34:18.000Z</time>
        <extensions>
          <ns3:TrackPointExtension>
            <ns3:hr>140</ns3:hr>
            <ns3:cad>75</ns3:cad>
          </ns3:TrackPointExtension>
        </extensions>
      </trkpt>
      <trkpt lat="47.53637286834418773651123046875" lon="11.0379836149513721466064453125">
        <ele>1787.199951171875</ele>
        <time>2026-09-01T08:34:19.000Z</time>
        <extensions>
          <ns3:TrackPointExtension>
            <ns3:hr>140</ns3:hr>
            <ns3:cad>75</ns3:cad>
          </ns3:TrackPointExtension>
        </extensions>
      </trkpt>
      <trkpt lat="47.53638334572315216064453125" lon="11.0380144603550434112548828125">
        <ele>1786.4000244140625</ele>
        <time>2026-09-01T08:34:20.000Z</time>
        <extensions>
          <ns3:TrackPointExtension>
            <ns3:hr>140</ns3:hr>
            <ns3:cad>75</ns3:cad>
          </ns3:TrackPointExtension>
        </extensions>
      </trkpt>
      <trkpt lat="47.536387033760547637939453125" lon="11.0380272008478641510009765625">
        <ele>1785.5999755859375</ele>
        <time>2026-09-01T08:34:21.000Z</time>
        <extensions>
          <ns3:TrackPointExtension>
            <ns3:hr>140</ns3:hr>
            <ns3:cad>75</ns3:cad>
          </ns3:TrackPointExtension>
        </extensions>
      </trkpt>
      <trkpt lat="47.5363882072269916534423828125" lon="11.03805444203317165374755859375">
        <ele>1784.5999755859375</ele>
        <time>2026-09-01T08:34:22.000Z</time>
        <extensions>
          <ns3:TrackPointExtension>
            <ns3:hr>140</ns3:hr>
            <ns3:cad>75</ns3:cad>
          </ns3:TrackPointExtension>
        </extensions>
      </trkpt>
      <trkpt lat="47.536393739283084869384765625" lon="11.0380748100578784942626953125">
        <ele>1783.800048828125</ele>
        <time>2026-09-01T08:34:23.000Z</time>
        <extensions>
          <ns3:TrackPointExtension>
            <ns3:hr>140</ns3:hr>
            <ns3:cad>75</ns3:cad>
          </ns3:TrackPointExtension>
        </extensions>
      </trkpt>
      <trkpt lat="47.53639499656856060028076171875" lon="11.03810213506221771240234375">
        <ele>1782.800048828125</ele>
        <time>2026-09-01T08:34:24.000Z</time>
        <extensions>
          <ns3:TrackPointExtension>
            <ns3:hr>140</ns3:hr>
            <ns3:cad>75</ns3:cad>
          </ns3:TrackPointExtension>
        </extensions>
      </trkpt>
      <trkpt lat="47.53640019334852695465087890625" lon="11.03812904097139835357666015625">
        <ele>1782</ele>
        <time>2026-09-01T08:34:25.000Z</time>
        <extensions>
          <ns3:TrackPointExtension>
            <ns3:hr>139</ns3:hr>
            <ns3:cad>75</ns3:cad>
          </ns3:TrackPointExtension>
        </extensions>
      </trkpt>
      <trkpt lat="47.5364019535481929779052734375" lon="11.03814898990094661712646484375">
        <ele>1781.4000244140625</ele>
        <time>2026-09-01T08:34:26.000Z</time>
        <extensions>
          <ns3:TrackPointExtension>
            <ns3:hr>139</ns3:hr>
            <ns3:cad>75</ns3:cad>
          </ns3:TrackPointExtension>
        </extensions>
      </trkpt>
      <trkpt lat="47.53639868460595607757568359375" lon="11.0381747223436832427978515625">
        <ele>1780.5999755859375</ele>
        <time>2026-09-01T08:34:27.000Z</time>
        <extensions>
          <ns3:TrackPointExtension>
            <ns3:hr>138</ns3:hr>
            <ns3:cad>75</ns3:cad>
          </ns3:TrackPointExtension>
        </extensions>
      </trkpt>
      <trkpt lat="47.53639415837824344635009765625" lon="11.0381985269486904144287109375">
        <ele>1779.800048828125</ele>
        <time>2026-09-01T08:34:28.000Z</time>
        <extensions>
          <ns3:TrackPointExtension>
            <ns3:hr>138</ns3:hr>
            <ns3:cad>86</ns3:cad>
          </ns3:TrackPointExtension>
        </extensions>
      </trkpt>
      <trkpt lat="47.53640237264335155487060546875" lon="11.03822526521980762481689453125">
        <ele>1779</ele>
        <time>2026-09-01T08:34:29.000Z</time>
        <extensions>
          <ns3:TrackPointExtension>
            <ns3:hr>137</ns3:hr>
            <ns3:cad>86</ns3:cad>
          </ns3:TrackPointExtension>
        </extensions>
      </trkpt>
      <trkpt lat="47.53642047755420207977294921875" lon="11.0382427833974361419677734375">
        <ele>1778.199951171875</ele>
        <time>2026-09-01T08:34:30.000Z</time>
        <extensions>
          <ns3:TrackPointExtension>
            <ns3:hr>138</ns3:hr>
            <ns3:cad>0</ns3:cad>
          </ns3:TrackPointExtension>
        </extensions>
      </trkpt>
      <trkpt lat="47.53643967211246490478515625" lon="11.03825963102281093597412109375">
        <ele>1777.800048828125</ele>
        <time>2026-09-01T08:34:31.000Z</time>
        <extensions>
          <ns3:TrackPointExtension>
            <ns3:hr>138</ns3:hr>
            <ns3:cad>0</ns3:cad>
          </ns3:TrackPointExtension>
        </extensions>
      </trkpt>
      <trkpt lat="47.53644905984401702880859375" lon="11.0382731258869171142578125">
        <ele>1777.4000244140625</ele>
        <time>2026-09-01T08:34:32.000Z</time>
        <extensions>
          <ns3:TrackPointExtension>
            <ns3:hr>138</ns3:hr>
            <ns3:cad>83</ns3:cad>
          </ns3:TrackPointExtension>
        </extensions>
      </trkpt>
      <trkpt lat="47.536466158926486968994140625" lon="11.03827178478240966796875">
        <ele>1777.199951171875</ele>
        <time>2026-09-01T08:34:33.000Z</time>
        <extensions>
          <ns3:TrackPointExtension>
            <ns3:hr>138</ns3:hr>
            <ns3:cad>83</ns3:cad>
          </ns3:TrackPointExtension>
        </extensions>
      </trkpt>
      <trkpt lat="47.53647445701062679290771484375" lon="11.03827781975269317626953125">
        <ele>1777.4000244140625</ele>
        <time>2026-09-01T08:34:34.000Z</time>
        <extensions>
          <ns3:TrackPointExtension>
            <ns3:hr>138</ns3:hr>
            <ns3:cad>83</ns3:cad>
          </ns3:TrackPointExtension>
        </extensions>
      </trkpt>
      <trkpt lat="47.53648468293249607086181640625" lon="11.0382846929132938385009765625">
        <ele>1777.5999755859375</ele>
        <time>2026-09-01T08:34:35.000Z</time>
        <extensions>
          <ns3:TrackPointExtension>
            <ns3:hr>137</ns3:hr>
            <ns3:cad>83</ns3:cad>
          </ns3:TrackPointExtension>
        </extensions>
      </trkpt>
      <trkpt lat="47.53649189136922359466552734375" lon="11.03830464184284210205078125">
        <ele>1777.800048828125</ele>
        <time>2026-09-01T08:34:36.000Z</time>
        <extensions>
          <ns3:TrackPointExtension>
            <ns3:hr>138</ns3:hr>
            <ns3:cad>83</ns3:cad>
          </ns3:TrackPointExtension>
        </extensions>
      </trkpt>
      <trkpt lat="47.53648929297924041748046875" lon="11.0383440367877483367919921875">
        <ele>1777.800048828125</ele>
        <time>2026-09-01T08:34:37.000Z</time>
        <extensions>
          <ns3:TrackPointExtension>
            <ns3:hr>138</ns3:hr>
            <ns3:cad>73</ns3:cad>
          </ns3:TrackPointExtension>
        </extensions>
      </trkpt>
      <trkpt lat="47.53648418001830577850341796875" lon="11.0383614711463451385498046875">
        <ele>1777.4000244140625</ele>
        <time>2026-09-01T08:34:38.000Z</time>
        <extensions>
          <ns3:TrackPointExtension>
            <ns3:hr>138</ns3:hr>
            <ns3:cad>0</ns3:cad>
          </ns3:TrackPointExtension>
        </extensions>
      </trkpt>
      <trkpt lat="47.53648233599960803985595703125" lon="11.0383857786655426025390625">
        <ele>1777</ele>
        <time>2026-09-01T08:34:39.000Z</time>
        <extensions>
          <ns3:TrackPointExtension>
            <ns3:hr>138</ns3:hr>
            <ns3:cad>0</ns3:cad>
          </ns3:TrackPointExtension>
        </extensions>
      </trkpt>
      <trkpt lat="47.5364894606173038482666015625" lon="11.03839541785418987274169921875">
        <ele>1776.4000244140625</ele>
        <time>2026-09-01T08:34:40.000Z</time>
        <extensions>
          <ns3:TrackPointExtension>
            <ns3:hr>137</ns3:hr>
            <ns3:cad>0</ns3:cad>
          </ns3:TrackPointExtension>
        </extensions>
      </trkpt>
      <trkpt lat="47.53649440594017505645751953125" lon="11.03840698488056659698486328125">
        <ele>1775.800048828125</ele>
        <time>2026-09-01T08:34:41.000Z</time>
        <extensions>
          <ns3:TrackPointExtension>
            <ns3:hr>137</ns3:hr>
            <ns3:cad>0</ns3:cad>
          </ns3:TrackPointExtension>
        </extensions>
      </trkpt>
      <trkpt lat="47.53649868071079254150390625" lon="11.03841570205986499786376953125">
        <ele>1775.199951171875</ele>
        <time>2026-09-01T08:34:42.000Z</time>
        <extensions>
          <ns3:TrackPointExtension>
            <ns3:hr>136</ns3:hr>
            <ns3:cad>0</ns3:cad>
          </ns3:TrackPointExtension>
        </extensions>
      </trkpt>
      <trkpt lat="47.5364965014159679412841796875" lon="11.03843280114233493804931640625">
        <ele>1774.4000244140625</ele>
        <time>2026-09-01T08:34:43.000Z</time>
        <extensions>
          <ns3:TrackPointExtension>
            <ns3:hr>136</ns3:hr>
            <ns3:cad>76</ns3:cad>
          </ns3:TrackPointExtension>
        </extensions>
      </trkpt>
      <trkpt lat="47.536496333777904510498046875" lon="11.03843732737004756927490234375">
        <ele>1773.800048828125</ele>
        <time>2026-09-01T08:34:44.000Z</time>
        <extensions>
          <ns3:TrackPointExtension>
            <ns3:hr>135</ns3:hr>
            <ns3:cad>76</ns3:cad>
          </ns3:TrackPointExtension>
        </extensions>
      </trkpt>
      <trkpt lat="47.53649122081696987152099609375" lon="11.038451492786407470703125">
        <ele>1773</ele>
        <time>2026-09-01T08:34:45.000Z</time>
        <extensions>
          <ns3:TrackPointExtension>
            <ns3:hr>134</ns3:hr>
            <ns3:cad>76</ns3:cad>
          </ns3:TrackPointExtension>
        </extensions>
      </trkpt>
      <trkpt lat="47.53648786805570125579833984375" lon="11.038463898003101348876953125">
        <ele>1772.199951171875</ele>
        <time>2026-09-01T08:34:46.000Z</time>
        <extensions>
          <ns3:TrackPointExtension>
            <ns3:hr>134</ns3:hr>
            <ns3:cad>76</ns3:cad>
          </ns3:TrackPointExtension>
        </extensions>
      </trkpt>
      <trkpt lat="47.5364847667515277862548828125" lon="11.0384737886488437652587890625">
        <ele>1771.5999755859375</ele>
        <time>2026-09-01T08:34:47.000Z</time>
        <extensions>
          <ns3:TrackPointExtension>
            <ns3:hr>134</ns3:hr>
            <ns3:cad>0</ns3:cad>
          </ns3:TrackPointExtension>
        </extensions>
      </trkpt>
      <trkpt lat="47.5364834256470203399658203125" lon="11.03848476894199848175048828125">
        <ele>1770.800048828125</ele>
        <time>2026-09-01T08:34:48.000Z</time>
        <extensions>
          <ns3:TrackPointExtension>
            <ns3:hr>134</ns3:hr>
            <ns3:cad>0</ns3:cad>
          </ns3:TrackPointExtension>
        </extensions>
      </trkpt>
      <trkpt lat="47.5364805757999420166015625" lon="11.0384908877313137054443359375">
        <ele>1770.199951171875</ele>
        <time>2026-09-01T08:34:49.000Z</time>
        <extensions>
          <ns3:TrackPointExtension>
            <ns3:hr>133</ns3:hr>
            <ns3:cad>0</ns3:cad>
          </ns3:TrackPointExtension>
        </extensions>
      </trkpt>
      <trkpt lat="47.53647646866738796234130859375" lon="11.0385049693286418914794921875">
        <ele>1769.4000244140625</ele>
        <time>2026-09-01T08:34:50.000Z</time>
        <extensions>
          <ns3:TrackPointExtension>
            <ns3:hr>133</ns3:hr>
            <ns3:cad>0</ns3:cad>
          </ns3:TrackPointExtension>
        </extensions>
      </trkpt>
      <trkpt lat="47.5364720262587070465087890625" lon="11.0385198891162872314453125">
        <ele>1768.5999755859375</ele>
        <time>2026-09-01T08:34:51.000Z</time>
        <extensions>
          <ns3:TrackPointExtension>
            <ns3:hr>133</ns3:hr>
            <ns3:cad>0</ns3:cad>
          </ns3:TrackPointExtension>
        </extensions>
      </trkpt>
      <trkpt lat="47.5364683382213115692138671875" lon="11.03853623382747173309326171875">
        <ele>1768</ele>
        <time>2026-09-01T08:34:52.000Z</time>
        <extensions>
          <ns3:TrackPointExtension>
            <ns3:hr>134</ns3:hr>
            <ns3:cad>49</ns3:cad>
          </ns3:TrackPointExtension>
        </extensions>
      </trkpt>
      <trkpt lat="47.5364676676690578460693359375" lon="11.03854830376803874969482421875">
        <ele>1767.199951171875</ele>
        <time>2026-09-01T08:34:53.000Z</time>
        <extensions>
          <ns3:TrackPointExtension>
            <ns3:hr>134</ns3:hr>
            <ns3:cad>49</ns3:cad>
          </ns3:TrackPointExtension>
        </extensions>
      </trkpt>
      <trkpt lat="47.536463476717472076416015625" lon="11.038566492497920989990234375">
        <ele>1766.4000244140625</ele>
        <time>2026-09-01T08:34:54.000Z</time>
        <extensions>
          <ns3:TrackPointExtension>
            <ns3:hr>134</ns3:hr>
            <ns3:cad>49</ns3:cad>
          </ns3:TrackPointExtension>
        </extensions>
      </trkpt>
      <trkpt lat="47.5364577770233154296875" lon="11.03858417831361293792724609375">
        <ele>1765.5999755859375</ele>
        <time>2026-09-01T08:34:55.000Z</time>
        <extensions>
          <ns3:TrackPointExtension>
            <ns3:hr>134</ns3:hr>
            <ns3:cad>49</ns3:cad>
          </ns3:TrackPointExtension>
        </extensions>
      </trkpt>
      <trkpt lat="47.536448724567890167236328125" lon="11.038602702319622039794921875">
        <ele>1764.800048828125</ele>
        <time>2026-09-01T08:34:56.000Z</time>
        <extensions>
          <ns3:TrackPointExtension>
            <ns3:hr>134</ns3:hr>
            <ns3:cad>49</ns3:cad>
          </ns3:TrackPointExtension>
        </extensions>
      </trkpt>
      <trkpt lat="47.5364398397505283355712890625" lon="11.0386213101446628570556640625">
        <ele>1764</ele>
        <time>2026-09-01T08:34:57.000Z</time>
        <extensions>
          <ns3:TrackPointExtension>
            <ns3:hr>133</ns3:hr>
            <ns3:cad>49</ns3:cad>
          </ns3:TrackPointExtension>
        </extensions>
      </trkpt>
      <trkpt lat="47.5364294461905956268310546875" lon="11.03863514028489589691162109375">
        <ele>1763</ele>
        <time>2026-09-01T08:34:58.000Z</time>
        <extensions>
          <ns3:TrackPointExtension>
            <ns3:hr>134</ns3:hr>
            <ns3:cad>49</ns3:cad>
          </ns3:TrackPointExtension>
        </extensions>
      </trkpt>
      <trkpt lat="47.53641678951680660247802734375" lon="11.03865601122379302978515625">
        <ele>1762.4000244140625</ele>
        <time>2026-09-01T08:34:59.000Z</time>
        <extensions>
          <ns3:TrackPointExtension>
            <ns3:hr>134</ns3:hr>
            <ns3:cad>49</ns3:cad>
          </ns3:TrackPointExtension>
        </extensions>
      </trkpt>
      <trkpt lat="47.5364220701158046722412109375" lon="11.0386846773326396942138671875">
        <ele>1761.199951171875</ele>
        <time>2026-09-01T08:35:00.000Z</time>
        <extensions>
          <ns3:TrackPointExtension>
            <ns3:hr>134</ns3:hr>
            <ns3:cad>49</ns3:cad>
          </ns3:TrackPointExtension>
        </extensions>
      </trkpt>
      <trkpt lat="47.536427937448024749755859375" lon="11.03873119689524173736572265625">
        <ele>1760.4000244140625</ele>
        <time>2026-09-01T08:35:01.000Z</time>
        <extensions>
          <ns3:TrackPointExtension>
            <ns3:hr>133</ns3:hr>
            <ns3:cad>97</ns3:cad>
          </ns3:TrackPointExtension>
        </extensions>
      </trkpt>
      <trkpt lat="47.53644947893917560577392578125" lon="11.038737483322620391845703125">
        <ele>1759.5999755859375</ele>
        <time>2026-09-01T08:35:02.000Z</time>
        <extensions>
          <ns3:TrackPointExtension>
            <ns3:hr>133</ns3:hr>
            <ns3:cad>97</ns3:cad>
          </ns3:TrackPointExtension>
        </extensions>
      </trkpt>
      <trkpt lat="47.5364576093852519989013671875" lon="11.03874309919774532318115234375">
        <ele>1759.199951171875</ele>
        <time>2026-09-01T08:35:03.000Z</time>
        <extensions>
          <ns3:TrackPointExtension>
            <ns3:hr>134</ns3:hr>
            <ns3:cad>97</ns3:cad>
          </ns3:TrackPointExtension>
        </extensions>
      </trkpt>
      <trkpt lat="47.5364686734974384307861328125" lon="11.0387594439089298248291015625">
        <ele>1759.199951171875</ele>
        <time>2026-09-01T08:35:04.000Z</time>
        <extensions>
          <ns3:TrackPointExtension>
            <ns3:hr>135</ns3:hr>
            <ns3:cad>97</ns3:cad>
          </ns3:TrackPointExtension>
        </extensions>
      </trkpt>
      <trkpt lat="47.53647579811513423919677734375" lon="11.0387772135436534881591796875">
        <ele>1759.4000244140625</ele>
        <time>2026-09-01T08:35:05.000Z</time>
        <extensions>
          <ns3:TrackPointExtension>
            <ns3:hr>136</ns3:hr>
            <ns3:cad>97</ns3:cad>
          </ns3:TrackPointExtension>
        </extensions>
      </trkpt>
      <trkpt lat="47.53648585639894008636474609375" lon="11.03880730457603931427001953125">
        <ele>1760</ele>
        <time>2026-09-01T08:35:06.000Z</time>
        <extensions>
          <ns3:TrackPointExtension>
            <ns3:hr>137</ns3:hr>
            <ns3:cad>97</ns3:cad>
          </ns3:TrackPointExtension>
        </extensions>
      </trkpt>
      <trkpt lat="47.53649331629276275634765625" lon="11.038830019533634185791015625">
        <ele>1760.199951171875</ele>
        <time>2026-09-01T08:35:07.000Z</time>
        <extensions>
          <ns3:TrackPointExtension>
            <ns3:hr>137</ns3:hr>
            <ns3:cad>97</ns3:cad>
          </ns3:TrackPointExtension>
        </extensions>
      </trkpt>
      <trkpt lat="47.5365015305578708648681640625" lon="11.038850136101245880126953125">
        <ele>1760.4000244140625</ele>
        <time>2026-09-01T08:35:08.000Z</time>
        <extensions>
          <ns3:TrackPointExtension>
            <ns3:hr>137</ns3:hr>
            <ns3:cad>80</ns3:cad>
          </ns3:TrackPointExtension>
        </extensions>
      </trkpt>
      <trkpt lat="47.53651318140327930450439453125" lon="11.03886187076568603515625">
        <ele>1760.4000244140625</ele>
        <time>2026-09-01T08:35:09.000Z</time>
        <extensions>
          <ns3:TrackPointExtension>
            <ns3:hr>138</ns3:hr>
            <ns3:cad>80</ns3:cad>
          </ns3:TrackPointExtension>
        </extensions>
      </trkpt>
      <trkpt lat="47.5365209765732288360595703125" lon="11.03887922130525112152099609375">
        <ele>1760.199951171875</ele>
        <time>2026-09-01T08:35:10.000Z</time>
        <extensions>
          <ns3:TrackPointExtension>
            <ns3:hr>137</ns3:hr>
            <ns3:cad>80</ns3:cad>
          </ns3:TrackPointExtension>
        </extensions>
      </trkpt>
      <trkpt lat="47.53652575425803661346435546875" lon="11.03889799676835536956787109375">
        <ele>1760.199951171875</ele>
        <time>2026-09-01T08:35:11.000Z</time>
        <extensions>
          <ns3:TrackPointExtension>
            <ns3:hr>137</ns3:hr>
            <ns3:cad>80</ns3:cad>
          </ns3:TrackPointExtension>
        </extensions>
      </trkpt>
      <trkpt lat="47.53652860410511493682861328125" lon="11.0389304347336292266845703125">
        <ele>1760.199951171875</ele>
        <time>2026-09-01T08:35:12.000Z</time>
        <extensions>
          <ns3:TrackPointExtension>
            <ns3:hr>137</ns3:hr>
            <ns3:cad>80</ns3:cad>
          </ns3:TrackPointExtension>
        </extensions>
      </trkpt>
      <trkpt lat="47.53653614781796932220458984375" lon="11.0389646328985691070556640625">
        <ele>1760.4000244140625</ele>
        <time>2026-09-01T08:35:13.000Z</time>
        <extensions>
          <ns3:TrackPointExtension>
            <ns3:hr>137</ns3:hr>
            <ns3:cad>80</ns3:cad>
          </ns3:TrackPointExtension>
        </extensions>
      </trkpt>
      <trkpt lat="47.5365395843982696533203125" lon="11.03899128735065460205078125">
        <ele>1760.800048828125</ele>
        <time>2026-09-01T08:35:14.000Z</time>
        <extensions>
          <ns3:TrackPointExtension>
            <ns3:hr>137</ns3:hr>
            <ns3:cad>80</ns3:cad>
          </ns3:TrackPointExtension>
        </extensions>
      </trkpt>
      <trkpt lat="47.53654620610177516937255859375" lon="11.03901852853596210479736328125">
        <ele>1761</ele>
        <time>2026-09-01T08:35:15.000Z</time>
        <extensions>
          <ns3:TrackPointExtension>
            <ns3:hr>137</ns3:hr>
            <ns3:cad>80</ns3:cad>
          </ns3:TrackPointExtension>
        </extensions>
      </trkpt>
      <trkpt lat="47.53655877895653247833251953125" lon="11.03906529955565929412841796875">
        <ele>1761.199951171875</ele>
        <time>2026-09-01T08:35:16.000Z</time>
        <extensions>
          <ns3:TrackPointExtension>
            <ns3:hr>137</ns3:hr>
            <ns3:cad>80</ns3:cad>
          </ns3:TrackPointExtension>
        </extensions>
      </trkpt>
      <trkpt lat="47.536566741764545440673828125" lon="11.03910050354897975921630859375">
        <ele>1761.199951171875</ele>
        <time>2026-09-01T08:35:17.000Z</time>
        <extensions>
          <ns3:TrackPointExtension>
            <ns3:hr>137</ns3:hr>
            <ns3:cad>80</ns3:cad>
          </ns3:TrackPointExtension>
        </extensions>
      </trkpt>
      <trkpt lat="47.5365749560296535491943359375" lon="11.03912883438169956207275390625">
        <ele>1761</ele>
        <time>2026-09-01T08:35:18.000Z</time>
        <extensions>
          <ns3:TrackPointExtension>
            <ns3:hr>138</ns3:hr>
            <ns3:cad>77</ns3:cad>
          </ns3:TrackPointExtension>
        </extensions>
      </trkpt>
      <trkpt lat="47.53658040426671504974365234375" lon="11.039165966212749481201171875">
        <ele>1760.5999755859375</ele>
        <time>2026-09-01T08:35:19.000Z</time>
        <extensions>
          <ns3:TrackPointExtension>
            <ns3:hr>137</ns3:hr>
            <ns3:cad>77</ns3:cad>
          </ns3:TrackPointExtension>
        </extensions>
      </trkpt>
      <trkpt lat="47.5365836732089519500732421875" lon="11.039191447198390960693359375">
        <ele>1760.4000244140625</ele>
        <time>2026-09-01T08:35:20.000Z</time>
        <extensions>
          <ns3:TrackPointExtension>
            <ns3:hr>136</ns3:hr>
            <ns3:cad>77</ns3:cad>
          </ns3:TrackPointExtension>
        </extensions>
      </trkpt>
      <trkpt lat="47.53659666515886783599853515625" lon="11.039231009781360626220703125">
        <ele>1760</ele>
        <time>2026-09-01T08:35:21.000Z</time>
        <extensions>
          <ns3:TrackPointExtension>
            <ns3:hr>136</ns3:hr>
            <ns3:cad>77</ns3:cad>
          </ns3:TrackPointExtension>
        </extensions>
      </trkpt>
      <trkpt lat="47.53660387359559535980224609375" lon="11.03925992734730243682861328125">
        <ele>1759.5999755859375</ele>
        <time>2026-09-01T08:35:22.000Z</time>
        <extensions>
          <ns3:TrackPointExtension>
            <ns3:hr>136</ns3:hr>
            <ns3:cad>77</ns3:cad>
          </ns3:TrackPointExtension>
        </extensions>
      </trkpt>
      <trkpt lat="47.53660907037556171417236328125" lon="11.03929496370255947113037109375">
        <ele>1759.4000244140625</ele>
        <time>2026-09-01T08:35:23.000Z</time>
        <extensions>
          <ns3:TrackPointExtension>
            <ns3:hr>137</ns3:hr>
            <ns3:cad>77</ns3:cad>
          </ns3:TrackPointExtension>
        </extensions>
      </trkpt>
      <trkpt lat="47.53661158494651317596435546875" lon="11.03931047022342681884765625">
        <ele>1759</ele>
        <time>2026-09-01T08:35:24.000Z</time>
        <extensions>
          <ns3:TrackPointExtension>
            <ns3:hr>137</ns3:hr>
            <ns3:cad>77</ns3:cad>
          </ns3:TrackPointExtension>
        </extensions>
      </trkpt>
      <trkpt lat="47.5366061367094516754150390625" lon="11.03933469392359256744384765625">
        <ele>1758.5999755859375</ele>
        <time>2026-09-01T08:35:25.000Z</time>
        <extensions>
          <ns3:TrackPointExtension>
            <ns3:hr>137</ns3:hr>
            <ns3:cad>77</ns3:cad>
          </ns3:TrackPointExtension>
        </extensions>
      </trkpt>
      <trkpt lat="47.53661259077489376068115234375" lon="11.03936268948018550872802734375">
        <ele>1758.199951171875</ele>
        <time>2026-09-01T08:35:26.000Z</time>
        <extensions>
          <ns3:TrackPointExtension>
            <ns3:hr>138</ns3:hr>
            <ns3:cad>77</ns3:cad>
          </ns3:TrackPointExtension>
        </extensions>
      </trkpt>
      <trkpt lat="47.5366172008216381072998046875" lon="11.0393701493740081787109375">
        <ele>1757.800048828125</ele>
        <time>2026-09-01T08:35:27.000Z</time>
        <extensions>
          <ns3:TrackPointExtension>
            <ns3:hr>137</ns3:hr>
            <ns3:cad>77</ns3:cad>
          </ns3:TrackPointExtension>
        </extensions>
      </trkpt>
      <trkpt lat="47.53662432543933391571044921875" lon="11.039361767470836639404296875">
        <ele>1757</ele>
        <time>2026-09-01T08:35:28.000Z</time>
        <extensions>
          <ns3:TrackPointExtension>
            <ns3:hr>136</ns3:hr>
            <ns3:cad>77</ns3:cad>
          </ns3:TrackPointExtension>
        </extensions>
      </trkpt>
      <trkpt lat="47.53663145005702972412109375" lon="11.0393621027469635009765625">
        <ele>1756.5999755859375</ele>
        <time>2026-09-01T08:35:29.000Z</time>
        <extensions>
          <ns3:TrackPointExtension>
            <ns3:hr>136</ns3:hr>
            <ns3:cad>77</ns3:cad>
          </ns3:TrackPointExtension>
        </extensions>
      </trkpt>
      <trkpt lat="47.53664460964500904083251953125" lon="11.03937325067818164825439453125">
        <ele>1756</ele>
        <time>2026-09-01T08:35:30.000Z</time>
        <extensions>
          <ns3:TrackPointExtension>
            <ns3:hr>135</ns3:hr>
            <ns3:cad>77</ns3:cad>
          </ns3:TrackPointExtension>
        </extensions>
      </trkpt>
      <trkpt lat="47.53665248863399028778076171875" lon="11.039389930665493011474609375">
        <ele>1755.199951171875</ele>
        <time>2026-09-01T08:35:31.000Z</time>
        <extensions>
          <ns3:TrackPointExtension>
            <ns3:hr>134</ns3:hr>
            <ns3:cad>77</ns3:cad>
          </ns3:TrackPointExtension>
        </extensions>
      </trkpt>
      <trkpt lat="47.5366584397852420806884765625" lon="11.03939655236899852752685546875">
        <ele>1754</ele>
        <time>2026-09-01T08:35:32.000Z</time>
        <extensions>
          <ns3:TrackPointExtension>
            <ns3:hr>133</ns3:hr>
            <ns3:cad>77</ns3:cad>
          </ns3:TrackPointExtension>
        </extensions>
      </trkpt>
      <trkpt lat="47.53666791133582592010498046875" lon="11.0394202731549739837646484375">
        <ele>1752.800048828125</ele>
        <time>2026-09-01T08:35:33.000Z</time>
        <extensions>
          <ns3:TrackPointExtension>
            <ns3:hr>133</ns3:hr>
            <ns3:cad>52</ns3:cad>
          </ns3:TrackPointExtension>
        </extensions>
      </trkpt>
      <trkpt lat="47.536675035953521728515625" lon="11.039433181285858154296875">
        <ele>1751.5999755859375</ele>
        <time>2026-09-01T08:35:34.000Z</time>
        <extensions>
          <ns3:TrackPointExtension>
            <ns3:hr>132</ns3:hr>
            <ns3:cad>52</ns3:cad>
          </ns3:TrackPointExtension>
        </extensions>
      </trkpt>
      <trkpt lat="47.5366815738379955291748046875" lon="11.0394479334354400634765625">
        <ele>1750.800048828125</ele>
        <time>2026-09-01T08:35:35.000Z</time>
        <extensions>
          <ns3:TrackPointExtension>
            <ns3:hr>132</ns3:hr>
            <ns3:cad>52</ns3:cad>
          </ns3:TrackPointExtension>
        </extensions>
      </trkpt>
      <trkpt lat="47.5366924703121185302734375" lon="11.0394682176411151885986328125">
        <ele>1749.800048828125</ele>
        <time>2026-09-01T08:35:36.000Z</time>
        <extensions>
          <ns3:TrackPointExtension>
            <ns3:hr>131</ns3:hr>
            <ns3:cad>52</ns3:cad>
          </ns3:TrackPointExtension>
        </extensions>
      </trkpt>
      <trkpt lat="47.53670244477689266204833984375" lon="11.03947936557233333587646484375">
        <ele>1749</ele>
        <time>2026-09-01T08:35:37.000Z</time>
        <extensions>
          <ns3:TrackPointExtension>
            <ns3:hr>131</ns3:hr>
            <ns3:cad>52</ns3:cad>
          </ns3:TrackPointExtension>
        </extensions>
      </trkpt>
      <trkpt lat="47.53670831210911273956298828125" lon="11.03948825038969516754150390625">
        <ele>1748.199951171875</ele>
        <time>2026-09-01T08:35:38.000Z</time>
        <extensions>
          <ns3:TrackPointExtension>
            <ns3:hr>131</ns3:hr>
            <ns3:cad>0</ns3:cad>
          </ns3:TrackPointExtension>
        </extensions>
      </trkpt>
      <trkpt lat="47.53670931793749332427978515625" lon="11.03950719349086284637451171875">
        <ele>1747.4000244140625</ele>
        <time>2026-09-01T08:35:39.000Z</time>
        <extensions>
          <ns3:TrackPointExtension>
            <ns3:hr>131</ns3:hr>
            <ns3:cad>0</ns3:cad>
          </ns3:TrackPointExtension>
        </extensions>
      </trkpt>
      <trkpt lat="47.53671267069876194000244140625" lon="11.03952496312558650970458984375">
        <ele>1746.800048828125</ele>
        <time>2026-09-01T08:35:40.000Z</time>
        <extensions>
          <ns3:TrackPointExtension>
            <ns3:hr>130</ns3:hr>
            <ns3:cad>0</ns3:cad>
          </ns3:TrackPointExtension>
        </extensions>
      </trkpt>
      <trkpt lat="47.53671593964099884033203125" lon="11.0395399667322635650634765625">
        <ele>1746</ele>
        <time>2026-09-01T08:35:41.000Z</time>
        <extensions>
          <ns3:TrackPointExtension>
            <ns3:hr>130</ns3:hr>
            <ns3:cad>0</ns3:cad>
          </ns3:TrackPointExtension>
        </extensions>
      </trkpt>
      <trkpt lat="47.53671870566904544830322265625" lon="11.0395579040050506591796875">
        <ele>1745.4000244140625</ele>
        <time>2026-09-01T08:35:42.000Z</time>
        <extensions>
          <ns3:TrackPointExtension>
            <ns3:hr>130</ns3:hr>
            <ns3:cad>0</ns3:cad>
          </ns3:TrackPointExtension>
        </extensions>
      </trkpt>
      <trkpt lat="47.5367231480777263641357421875" lon="11.03957626037299633026123046875">
        <ele>1744.5999755859375</ele>
        <time>2026-09-01T08:35:43.000Z</time>
        <extensions>
          <ns3:TrackPointExtension>
            <ns3:hr>130</ns3:hr>
            <ns3:cad>0</ns3:cad>
          </ns3:TrackPointExtension>
        </extensions>
      </trkpt>
      <trkpt lat="47.5367254950106143951416015625" lon="11.03958967141807079315185546875">
        <ele>1744</ele>
        <time>2026-09-01T08:35:44.000Z</time>
        <extensions>
          <ns3:TrackPointExtension>
            <ns3:hr>130</ns3:hr>
            <ns3:cad>0</ns3:cad>
          </ns3:TrackPointExtension>
        </extensions>
      </trkpt>
      <trkpt lat="47.53672557882964611053466796875" lon="11.0395999811589717864990234375">
        <ele>1743.199951171875</ele>
        <time>2026-09-01T08:35:45.000Z</time>
        <extensions>
          <ns3:TrackPointExtension>
            <ns3:hr>130</ns3:hr>
            <ns3:cad>0</ns3:cad>
          </ns3:TrackPointExtension>
        </extensions>
      </trkpt>
      <trkpt lat="47.5367301888763904571533203125" lon="11.03961247019469738006591796875">
        <ele>1742.4000244140625</ele>
        <time>2026-09-01T08:35:46.000Z</time>
        <extensions>
          <ns3:TrackPointExtension>
            <ns3:hr>130</ns3:hr>
            <ns3:cad>53</ns3:cad>
          </ns3:TrackPointExtension>
        </extensions>
      </trkpt>
      <trkpt lat="47.53673337399959564208984375" lon="11.03962236084043979644775390625">
        <ele>1741.5999755859375</ele>
        <time>2026-09-01T08:35:47.000Z</time>
        <extensions>
          <ns3:TrackPointExtension>
            <ns3:hr>129</ns3:hr>
            <ns3:cad>69</ns3:cad>
          </ns3:TrackPointExtension>
        </extensions>
      </trkpt>
      <trkpt lat="47.53673605620861053466796875" lon="11.039637029170989990234375">
        <ele>1741</ele>
        <time>2026-09-01T08:35:48.000Z</time>
        <extensions>
          <ns3:TrackPointExtension>
            <ns3:hr>130</ns3:hr>
            <ns3:cad>69</ns3:cad>
          </ns3:TrackPointExtension>
        </extensions>
      </trkpt>
      <trkpt lat="47.53673714585602283477783203125" lon="11.03964650072157382965087890625">
        <ele>1740.199951171875</ele>
        <time>2026-09-01T08:35:49.000Z</time>
        <extensions>
          <ns3:TrackPointExtension>
            <ns3:hr>130</ns3:hr>
            <ns3:cad>69</ns3:cad>
          </ns3:TrackPointExtension>
        </extensions>
      </trkpt>
      <trkpt lat="47.53673396073281764984130859375" lon="11.03964817710220813751220703125">
        <ele>1739.5999755859375</ele>
        <time>2026-09-01T08:35:50.000Z</time>
        <extensions>
          <ns3:TrackPointExtension>
            <ns3:hr>129</ns3:hr>
            <ns3:cad>69</ns3:cad>
          </ns3:TrackPointExtension>
        </extensions>
      </trkpt>
      <trkpt lat="47.53672792576253414154052734375" lon="11.03965538553893566131591796875">
        <ele>1739</ele>
        <time>2026-09-01T08:35:51.000Z</time>
        <extensions>
          <ns3:TrackPointExtension>
            <ns3:hr>130</ns3:hr>
            <ns3:cad>69</ns3:cad>
          </ns3:TrackPointExtension>
        </extensions>
      </trkpt>
      <trkpt lat="47.53673060797154903411865234375" lon="11.0396734066307544708251953125">
        <ele>1738.4000244140625</ele>
        <time>2026-09-01T08:35:52.000Z</time>
        <extensions>
          <ns3:TrackPointExtension>
            <ns3:hr>130</ns3:hr>
            <ns3:cad>69</ns3:cad>
          </ns3:TrackPointExtension>
        </extensions>
      </trkpt>
      <trkpt lat="47.5367295183241367340087890625" lon="11.03968321345746517181396484375">
        <ele>1737.800048828125</ele>
        <time>2026-09-01T08:35:53.000Z</time>
        <extensions>
          <ns3:TrackPointExtension>
            <ns3:hr>130</ns3:hr>
            <ns3:cad>69</ns3:cad>
          </ns3:TrackPointExtension>
        </extensions>
      </trkpt>
      <trkpt lat="47.53673094324767589569091796875" lon="11.0397005639970302581787109375">
        <ele>1737.4000244140625</ele>
        <time>2026-09-01T08:35:54.000Z</time>
        <extensions>
          <ns3:TrackPointExtension>
            <ns3:hr>131</ns3:hr>
            <ns3:cad>69</ns3:cad>
          </ns3:TrackPointExtension>
        </extensions>
      </trkpt>
      <trkpt lat="47.53673396073281764984130859375" lon="11.03973283432424068450927734375">
        <ele>1737</ele>
        <time>2026-09-01T08:35:55.000Z</time>
        <extensions>
          <ns3:TrackPointExtension>
            <ns3:hr>131</ns3:hr>
            <ns3:cad>69</ns3:cad>
          </ns3:TrackPointExtension>
        </extensions>
      </trkpt>
      <trkpt lat="47.5367549993097782135009765625" lon="11.0397622548043727874755859375">
        <ele>1736.4000244140625</ele>
        <time>2026-09-01T08:35:56.000Z</time>
        <extensions>
          <ns3:TrackPointExtension>
            <ns3:hr>131</ns3:hr>
            <ns3:cad>69</ns3:cad>
          </ns3:TrackPointExtension>
        </extensions>
      </trkpt>
      <trkpt lat="47.53676958382129669189453125" lon="11.03979201056063175201416015625">
        <ele>1735.800048828125</ele>
        <time>2026-09-01T08:35:57.000Z</time>
        <extensions>
          <ns3:TrackPointExtension>
            <ns3:hr>130</ns3:hr>
            <ns3:cad>69</ns3:cad>
          </ns3:TrackPointExtension>
        </extensions>
      </trkpt>
      <trkpt lat="47.5367902033030986785888671875" lon="11.03982604108750820159912109375">
        <ele>1735.4000244140625</ele>
        <time>2026-09-01T08:35:58.000Z</time>
        <extensions>
          <ns3:TrackPointExtension>
            <ns3:hr>130</ns3:hr>
            <ns3:cad>0</ns3:cad>
          </ns3:TrackPointExtension>
        </extensions>
      </trkpt>
      <trkpt lat="47.5368069671094417572021484375" lon="11.0398591496050357818603515625">
        <ele>1734</ele>
        <time>2026-09-01T08:35:59.000Z</time>
        <extensions>
          <ns3:TrackPointExtension>
            <ns3:hr>130</ns3:hr>
            <ns3:cad>0</ns3:cad>
          </ns3:TrackPointExtension>
        </extensions>
      </trkpt>
      <trkpt lat="47.53682012669742107391357421875" lon="11.03988186456263065338134765625">
        <ele>1734</ele>
        <time>2026-09-01T08:36:00.000Z</time>
        <extensions>
          <ns3:TrackPointExtension>
            <ns3:hr>130</ns3:hr>
            <ns3:cad>0</ns3:cad>
          </ns3:TrackPointExtension>
        </extensions>
      </trkpt>
      <trkpt lat="47.536834292113780975341796875" lon="11.03990902192890644073486328125">
        <ele>1734</ele>
        <time>2026-09-01T08:36:01.000Z</time>
        <extensions>
          <ns3:TrackPointExtension>
            <ns3:hr>131</ns3:hr>
            <ns3:cad>0</ns3:cad>
          </ns3:TrackPointExtension>
        </extensions>
      </trkpt>
      <trkpt lat="47.53685273230075836181640625" lon="11.039944477379322052001953125">
        <ele>1734.199951171875</ele>
        <time>2026-09-01T08:36:02.000Z</time>
        <extensions>
          <ns3:TrackPointExtension>
            <ns3:hr>133</ns3:hr>
            <ns3:cad>80</ns3:cad>
          </ns3:TrackPointExtension>
        </extensions>
      </trkpt>
      <trkpt lat="47.53686823882162570953369140625" lon="11.03997222147881984710693359375">
        <ele>1734.4000244140625</ele>
        <time>2026-09-01T08:36:03.000Z</time>
        <extensions>
          <ns3:TrackPointExtension>
            <ns3:hr>134</ns3:hr>
            <ns3:cad>80</ns3:cad>
          </ns3:TrackPointExtension>
        </extensions>
      </trkpt>
      <trkpt lat="47.536883912980556488037109375" lon="11.03999787010252475738525390625">
        <ele>1734.5999755859375</ele>
        <time>2026-09-01T08:36:04.000Z</time>
        <extensions>
          <ns3:TrackPointExtension>
            <ns3:hr>136</ns3:hr>
            <ns3:cad>78</ns3:cad>
          </ns3:TrackPointExtension>
        </extensions>
      </trkpt>
      <trkpt lat="47.53688064403831958770751953125" lon="11.04003106243908405303955078125">
        <ele>1734.5999755859375</ele>
        <time>2026-09-01T08:36:05.000Z</time>
        <extensions>
          <ns3:TrackPointExtension>
            <ns3:hr>137</ns3:hr>
            <ns3:cad>77</ns3:cad>
          </ns3:TrackPointExtension>
        </extensions>
      </trkpt>
      <trkpt lat="47.53688600845634937286376953125" lon="11.04007598944008350372314453125">
        <ele>1734.5999755859375</ele>
        <time>2026-09-01T08:36:06.000Z</time>
        <extensions>
          <ns3:TrackPointExtension>
            <ns3:hr>138</ns3:hr>
            <ns3:cad>77</ns3:cad>
          </ns3:TrackPointExtension>
        </extensions>
      </trkpt>
      <trkpt lat="47.53689606674015522003173828125" lon="11.04009903967380523681640625">
        <ele>1734.800048828125</ele>
        <time>2026-09-01T08:36:07.000Z</time>
        <extensions>
          <ns3:TrackPointExtension>
            <ns3:hr>139</ns3:hr>
            <ns3:cad>77</ns3:cad>
          </ns3:TrackPointExtension>
        </extensions>
      </trkpt>
      <trkpt lat="47.53690981306135654449462890625" lon="11.0401340760290622711181640625">
        <ele>1734.5999755859375</ele>
        <time>2026-09-01T08:36:08.000Z</time>
        <extensions>
          <ns3:TrackPointExtension>
            <ns3:hr>140</ns3:hr>
            <ns3:cad>78</ns3:cad>
          </ns3:TrackPointExtension>
        </extensions>
      </trkpt>
      <trkpt lat="47.536925487220287322998046875" lon="11.04017472825944423675537109375">
        <ele>1734.199951171875</ele>
        <time>2026-09-01T08:36:09.000Z</time>
        <extensions>
          <ns3:TrackPointExtension>
            <ns3:hr>140</ns3:hr>
            <ns3:cad>79</ns3:cad>
          </ns3:TrackPointExtension>
        </extensions>
      </trkpt>
      <trkpt lat="47.53693562932312488555908203125" lon="11.0402064956724643707275390625">
        <ele>1734</ele>
        <time>2026-09-01T08:36:10.000Z</time>
        <extensions>
          <ns3:TrackPointExtension>
            <ns3:hr>140</ns3:hr>
            <ns3:cad>79</ns3:cad>
          </ns3:TrackPointExtension>
        </extensions>
      </trkpt>
      <trkpt lat="47.5369471125304698944091796875" lon="11.04024061001837253570556640625">
        <ele>1733.800048828125</ele>
        <time>2026-09-01T08:36:11.000Z</time>
        <extensions>
          <ns3:TrackPointExtension>
            <ns3:hr>140</ns3:hr>
            <ns3:cad>79</ns3:cad>
          </ns3:TrackPointExtension>
        </extensions>
      </trkpt>
      <trkpt lat="47.53696278668940067291259765625" lon="11.040278412401676177978515625">
        <ele>1733.800048828125</ele>
        <time>2026-09-01T08:36:12.000Z</time>
        <extensions>
          <ns3:TrackPointExtension>
            <ns3:hr>141</ns3:hr>
            <ns3:cad>79</ns3:cad>
          </ns3:TrackPointExtension>
        </extensions>
      </trkpt>
      <trkpt lat="47.53697209060192108154296875" lon="11.04030012153089046478271484375">
        <ele>1733.800048828125</ele>
        <time>2026-09-01T08:36:13.000Z</time>
        <extensions>
          <ns3:TrackPointExtension>
            <ns3:hr>141</ns3:hr>
            <ns3:cad>79</ns3:cad>
          </ns3:TrackPointExtension>
        </extensions>
      </trkpt>
      <trkpt lat="47.53698055632412433624267578125" lon="11.0403295420110225677490234375">
        <ele>1734</ele>
        <time>2026-09-01T08:36:14.000Z</time>
        <extensions>
          <ns3:TrackPointExtension>
            <ns3:hr>142</ns3:hr>
            <ns3:cad>79</ns3:cad>
          </ns3:TrackPointExtension>
        </extensions>
      </trkpt>
      <trkpt lat="47.53700268454849720001220703125" lon="11.04035795666277408599853515625">
        <ele>1734.199951171875</ele>
        <time>2026-09-01T08:36:15.000Z</time>
        <extensions>
          <ns3:TrackPointExtension>
            <ns3:hr>142</ns3:hr>
            <ns3:cad>80</ns3:cad>
          </ns3:TrackPointExtension>
        </extensions>
      </trkpt>
      <trkpt lat="47.537008635699748992919921875" lon="11.04037798941135406494140625">
        <ele>1734.4000244140625</ele>
        <time>2026-09-01T08:36:16.000Z</time>
        <extensions>
          <ns3:TrackPointExtension>
            <ns3:hr>143</ns3:hr>
            <ns3:cad>79</ns3:cad>
          </ns3:TrackPointExtension>
        </extensions>
      </trkpt>
      <trkpt lat="47.5370077975094318389892578125" lon="11.04039919562637805938720703125">
        <ele>1734.800048828125</ele>
        <time>2026-09-01T08:36:17.000Z</time>
        <extensions>
          <ns3:TrackPointExtension>
            <ns3:hr>143</ns3:hr>
            <ns3:cad>79</ns3:cad>
          </ns3:TrackPointExtension>
        </extensions>
      </trkpt>
      <trkpt lat="47.537007965147495269775390625" lon="11.040436327457427978515625">
        <ele>1735</ele>
        <time>2026-09-01T08:36:18.000Z</time>
        <extensions>
          <ns3:TrackPointExtension>
            <ns3:hr>143</ns3:hr>
            <ns3:cad>79</ns3:cad>
          </ns3:TrackPointExtension>
        </extensions>
      </trkpt>
      <trkpt lat="47.5370171852409839630126953125" lon="11.04046641848981380462646484375">
        <ele>1735.4000244140625</ele>
        <time>2026-09-01T08:36:19.000Z</time>
        <extensions>
          <ns3:TrackPointExtension>
            <ns3:hr>144</ns3:hr>
            <ns3:cad>79</ns3:cad>
          </ns3:TrackPointExtension>
        </extensions>
      </trkpt>
      <trkpt lat="47.53702682442963123321533203125" lon="11.04048586450517177581787109375">
        <ele>1735.4000244140625</ele>
        <time>2026-09-01T08:36:20.000Z</time>
        <extensions>
          <ns3:TrackPointExtension>
            <ns3:hr>144</ns3:hr>
            <ns3:cad>79</ns3:cad>
          </ns3:TrackPointExtension>
        </extensions>
      </trkpt>
      <trkpt lat="47.5370316021144390106201171875" lon="11.04051302187144756317138671875">
        <ele>1735.5999755859375</ele>
        <time>2026-09-01T08:36:21.000Z</time>
        <extensions>
          <ns3:TrackPointExtension>
            <ns3:hr>144</ns3:hr>
            <ns3:cad>78</ns3:cad>
          </ns3:TrackPointExtension>
        </extensions>
      </trkpt>
      <trkpt lat="47.53703352995216846466064453125" lon="11.04055367410182952880859375">
        <ele>1735.800048828125</ele>
        <time>2026-09-01T08:36:22.000Z</time>
        <extensions>
          <ns3:TrackPointExtension>
            <ns3:hr>144</ns3:hr>
            <ns3:cad>77</ns3:cad>
          </ns3:TrackPointExtension>
        </extensions>
      </trkpt>
      <trkpt lat="47.5370371341705322265625" lon="11.04058192111551761627197265625">
        <ele>1735.800048828125</ele>
        <time>2026-09-01T08:36:23.000Z</time>
        <extensions>
          <ns3:TrackPointExtension>
            <ns3:hr>145</ns3:hr>
            <ns3:cad>77</ns3:cad>
          </ns3:TrackPointExtension>
        </extensions>
      </trkpt>
      <trkpt lat="47.53704425878822803497314453125" lon="11.0406125150620937347412109375">
        <ele>1736</ele>
        <time>2026-09-01T08:36:24.000Z</time>
        <extensions>
          <ns3:TrackPointExtension>
            <ns3:hr>145</ns3:hr>
            <ns3:cad>77</ns3:cad>
          </ns3:TrackPointExtension>
        </extensions>
      </trkpt>
      <trkpt lat="47.5370518863201141357421875" lon="11.0406597889959812164306640625">
        <ele>1736</ele>
        <time>2026-09-01T08:36:25.000Z</time>
        <extensions>
          <ns3:TrackPointExtension>
            <ns3:hr>146</ns3:hr>
            <ns3:cad>77</ns3:cad>
          </ns3:TrackPointExtension>
        </extensions>
      </trkpt>
      <trkpt lat="47.53706186078488826751708984375" lon="11.04068552143871784210205078125">
        <ele>1736</ele>
        <time>2026-09-01T08:36:26.000Z</time>
        <extensions>
          <ns3:TrackPointExtension>
            <ns3:hr>146</ns3:hr>
            <ns3:cad>77</ns3:cad>
          </ns3:TrackPointExtension>
        </extensions>
      </trkpt>
      <trkpt lat="47.5370698235929012298583984375" lon="11.04071418754756450653076171875">
        <ele>1736</ele>
        <time>2026-09-01T08:36:27.000Z</time>
        <extensions>
          <ns3:TrackPointExtension>
            <ns3:hr>146</ns3:hr>
            <ns3:cad>77</ns3:cad>
          </ns3:TrackPointExtension>
        </extensions>
      </trkpt>
      <trkpt lat="47.53707711584866046905517578125" lon="11.04075090028345584869384765625">
        <ele>1736</ele>
        <time>2026-09-01T08:36:28.000Z</time>
        <extensions>
          <ns3:TrackPointExtension>
            <ns3:hr>147</ns3:hr>
            <ns3:cad>77</ns3:cad>
          </ns3:TrackPointExtension>
        </extensions>
      </trkpt>
      <trkpt lat="47.53708449192345142364501953125" lon="11.04078928939998149871826171875">
        <ele>1736</ele>
        <time>2026-09-01T08:36:29.000Z</time>
        <extensions>
          <ns3:TrackPointExtension>
            <ns3:hr>148</ns3:hr>
            <ns3:cad>80</ns3:cad>
          </ns3:TrackPointExtension>
        </extensions>
      </trkpt>
      <trkpt lat="47.53708817996084690093994140625" lon="11.0408131778240203857421875">
        <ele>1736.4000244140625</ele>
        <time>2026-09-01T08:36:30.000Z</time>
        <extensions>
          <ns3:TrackPointExtension>
            <ns3:hr>149</ns3:hr>
            <ns3:cad>80</ns3:cad>
          </ns3:TrackPointExtension>
        </extensions>
      </trkpt>
      <trkpt lat="47.537093125283718109130859375" lon="11.04084628634154796600341796875">
        <ele>1736.800048828125</ele>
        <time>2026-09-01T08:36:31.000Z</time>
        <extensions>
          <ns3:TrackPointExtension>
            <ns3:hr>149</ns3:hr>
            <ns3:cad>79</ns3:cad>
          </ns3:TrackPointExtension>
        </extensions>
      </trkpt>
      <trkpt lat="47.53709874115884304046630859375" lon="11.04088760912418365478515625">
        <ele>1737.199951171875</ele>
        <time>2026-09-01T08:36:32.000Z</time>
        <extensions>
          <ns3:TrackPointExtension>
            <ns3:hr>150</ns3:hr>
            <ns3:cad>79</ns3:cad>
          </ns3:TrackPointExtension>
        </extensions>
      </trkpt>
      <trkpt lat="47.5371063686907291412353515625" lon="11.04092155583202838897705078125">
        <ele>1737.5999755859375</ele>
        <time>2026-09-01T08:36:33.000Z</time>
        <extensions>
          <ns3:TrackPointExtension>
            <ns3:hr>151</ns3:hr>
            <ns3:cad>77</ns3:cad>
          </ns3:TrackPointExtension>
        </extensions>
      </trkpt>
      <trkpt lat="47.53711164928972721099853515625" lon="11.04095508344471454620361328125">
        <ele>1738</ele>
        <time>2026-09-01T08:36:34.000Z</time>
        <extensions>
          <ns3:TrackPointExtension>
            <ns3:hr>152</ns3:hr>
            <ns3:cad>77</ns3:cad>
          </ns3:TrackPointExtension>
        </extensions>
      </trkpt>
      <trkpt lat="47.53712086938321590423583984375" lon="11.04099531657993793487548828125">
        <ele>1738.199951171875</ele>
        <time>2026-09-01T08:36:35.000Z</time>
        <extensions>
          <ns3:TrackPointExtension>
            <ns3:hr>153</ns3:hr>
            <ns3:cad>77</ns3:cad>
          </ns3:TrackPointExtension>
        </extensions>
      </trkpt>
      <trkpt lat="47.537132687866687774658203125" lon="11.0410306043922901153564453125">
        <ele>1738.4000244140625</ele>
        <time>2026-09-01T08:36:36.000Z</time>
        <extensions>
          <ns3:TrackPointExtension>
            <ns3:hr>154</ns3:hr>
            <ns3:cad>77</ns3:cad>
          </ns3:TrackPointExtension>
        </extensions>
      </trkpt>
      <trkpt lat="47.53713763318955898284912109375" lon="11.04105466045439243316650390625">
        <ele>1738.5999755859375</ele>
        <time>2026-09-01T08:36:37.000Z</time>
        <extensions>
          <ns3:TrackPointExtension>
            <ns3:hr>155</ns3:hr>
            <ns3:cad>78</ns3:cad>
          </ns3:TrackPointExtension>
        </extensions>
      </trkpt>
      <trkpt lat="47.5371372140944004058837890625" lon="11.04107134044170379638671875">
        <ele>1738.800048828125</ele>
        <time>2026-09-01T08:36:38.000Z</time>
        <extensions>
          <ns3:TrackPointExtension>
            <ns3:hr>157</ns3:hr>
            <ns3:cad>78</ns3:cad>
          </ns3:TrackPointExtension>
        </extensions>
      </trkpt>
      <trkpt lat="47.53714333288371562957763671875" lon="11.04108718223869800567626953125">
        <ele>1739</ele>
        <time>2026-09-01T08:36:39.000Z</time>
        <extensions>
          <ns3:TrackPointExtension>
            <ns3:hr>158</ns3:hr>
            <ns3:cad>78</ns3:cad>
          </ns3:TrackPointExtension>
        </extensions>
      </trkpt>
      <trkpt lat="47.5371516309678554534912109375" lon="11.0411150939762592315673828125">
        <ele>1739.199951171875</ele>
        <time>2026-09-01T08:36:40.000Z</time>
        <extensions>
          <ns3:TrackPointExtension>
            <ns3:hr>160</ns3:hr>
            <ns3:cad>78</ns3:cad>
          </ns3:TrackPointExtension>
        </extensions>
      </trkpt>
      <trkpt lat="47.5371586717665195465087890625" lon="11.0411295108497142791748046875">
        <ele>1739.4000244140625</ele>
        <time>2026-09-01T08:36:41.000Z</time>
        <extensions>
          <ns3:TrackPointExtension>
            <ns3:hr>161</ns3:hr>
            <ns3:cad>78</ns3:cad>
          </ns3:TrackPointExtension>
        </extensions>
      </trkpt>
      <trkpt lat="47.537164874374866485595703125" lon="11.0411445982754230499267578125">
        <ele>1739.4000244140625</ele>
        <time>2026-09-01T08:36:42.000Z</time>
        <extensions>
          <ns3:TrackPointExtension>
            <ns3:hr>163</ns3:hr>
            <ns3:cad>78</ns3:cad>
          </ns3:TrackPointExtension>
        </extensions>
      </trkpt>
      <trkpt lat="47.53717384301126003265380859375" lon="11.04115742258727550506591796875">
        <ele>1739.5999755859375</ele>
        <time>2026-09-01T08:36:43.000Z</time>
        <extensions>
          <ns3:TrackPointExtension>
            <ns3:hr>164</ns3:hr>
            <ns3:cad>78</ns3:cad>
          </ns3:TrackPointExtension>
        </extensions>
      </trkpt>
      <trkpt lat="47.53717635758221149444580078125" lon="11.0411687381565570831298828125">
        <ele>1739.800048828125</ele>
        <time>2026-09-01T08:36:44.000Z</time>
        <extensions>
          <ns3:TrackPointExtension>
            <ns3:hr>165</ns3:hr>
            <ns3:cad>78</ns3:cad>
          </ns3:TrackPointExtension>
        </extensions>
      </trkpt>
      <trkpt lat="47.53718071617186069488525390625" lon="11.041198410093784332275390625">
        <ele>1740</ele>
        <time>2026-09-01T08:36:45.000Z</time>
        <extensions>
          <ns3:TrackPointExtension>
            <ns3:hr>166</ns3:hr>
            <ns3:cad>78</ns3:cad>
          </ns3:TrackPointExtension>
        </extensions>
      </trkpt>
      <trkpt lat="47.53718993626534938812255859375" lon="11.041208803653717041015625">
        <ele>1740.4000244140625</ele>
        <time>2026-09-01T08:36:46.000Z</time>
        <extensions>
          <ns3:TrackPointExtension>
            <ns3:hr>167</ns3:hr>
            <ns3:cad>78</ns3:cad>
          </ns3:TrackPointExtension>
        </extensions>
      </trkpt>
      <trkpt lat="47.53719345666468143463134765625" lon="11.04122154414653778076171875">
        <ele>1740.5999755859375</ele>
        <time>2026-09-01T08:36:47.000Z</time>
        <extensions>
          <ns3:TrackPointExtension>
            <ns3:hr>166</ns3:hr>
            <ns3:cad>61</ns3:cad>
          </ns3:TrackPointExtension>
        </extensions>
      </trkpt>
      <trkpt lat="47.53719463013112545013427734375" lon="11.04123629629611968994140625">
        <ele>1740.5999755859375</ele>
        <time>2026-09-01T08:36:48.000Z</time>
        <extensions>
          <ns3:TrackPointExtension>
            <ns3:hr>166</ns3:hr>
            <ns3:cad>0</ns3:cad>
          </ns3:TrackPointExtension>
        </extensions>
      </trkpt>
      <trkpt lat="47.53719530068337917327880859375" lon="11.0412478633224964141845703125">
        <ele>1740.5999755859375</ele>
        <time>2026-09-01T08:36:49.000Z</time>
        <extensions>
          <ns3:TrackPointExtension>
            <ns3:hr>166</ns3:hr>
            <ns3:cad>0</ns3:cad>
          </ns3:TrackPointExtension>
        </extensions>
      </trkpt>
      <trkpt lat="47.53719982691109180450439453125" lon="11.041262447834014892578125">
        <ele>1741</ele>
        <time>2026-09-01T08:36:50.000Z</time>
        <extensions>
          <ns3:TrackPointExtension>
            <ns3:hr>165</ns3:hr>
            <ns3:cad>57</ns3:cad>
          </ns3:TrackPointExtension>
        </extensions>
      </trkpt>
      <trkpt lat="47.53720317967236042022705078125" lon="11.04128046892583370208740234375">
        <ele>1741.199951171875</ele>
        <time>2026-09-01T08:36:51.000Z</time>
        <extensions>
          <ns3:TrackPointExtension>
            <ns3:hr>166</ns3:hr>
            <ns3:cad>57</ns3:cad>
          </ns3:TrackPointExtension>
        </extensions>
      </trkpt>
      <trkpt lat="47.5372052751481533050537109375" lon="11.0412932932376861572265625">
        <ele>1741.5999755859375</ele>
        <time>2026-09-01T08:36:52.000Z</time>
        <extensions>
          <ns3:TrackPointExtension>
            <ns3:hr>165</ns3:hr>
            <ns3:cad>57</ns3:cad>
          </ns3:TrackPointExtension>
        </extensions>
      </trkpt>
      <trkpt lat="47.537208460271358489990234375" lon="11.04130871593952178955078125">
        <ele>1742</ele>
        <time>2026-09-01T08:36:53.000Z</time>
        <extensions>
          <ns3:TrackPointExtension>
            <ns3:hr>164</ns3:hr>
            <ns3:cad>55</ns3:cad>
          </ns3:TrackPointExtension>
        </extensions>
      </trkpt>
      <trkpt lat="47.53721172921359539031982421875" lon="11.04132154025137424468994140625">
        <ele>1742.4000244140625</ele>
        <time>2026-09-01T08:36:54.000Z</time>
        <extensions>
          <ns3:TrackPointExtension>
            <ns3:hr>164</ns3:hr>
            <ns3:cad>55</ns3:cad>
          </ns3:TrackPointExtension>
        </extensions>
      </trkpt>
      <trkpt lat="47.5372160039842128753662109375" lon="11.04133176617324352264404296875">
        <ele>1742.5999755859375</ele>
        <time>2026-09-01T08:36:55.000Z</time>
        <extensions>
          <ns3:TrackPointExtension>
            <ns3:hr>165</ns3:hr>
            <ns3:cad>55</ns3:cad>
          </ns3:TrackPointExtension>
        </extensions>
      </trkpt>
      <trkpt lat="47.53722413443028926849365234375" lon="11.04135029017925262451171875">
        <ele>1742.4000244140625</ele>
        <time>2026-09-01T08:36:56.000Z</time>
        <extensions>
          <ns3:TrackPointExtension>
            <ns3:hr>165</ns3:hr>
            <ns3:cad>55</ns3:cad>
          </ns3:TrackPointExtension>
        </extensions>
      </trkpt>
      <trkpt lat="47.53723285160958766937255859375" lon="11.0413712449371814727783203125">
        <ele>1742.4000244140625</ele>
        <time>2026-09-01T08:36:57.000Z</time>
        <extensions>
          <ns3:TrackPointExtension>
            <ns3:hr>165</ns3:hr>
            <ns3:cad>55</ns3:cad>
          </ns3:TrackPointExtension>
        </extensions>
      </trkpt>
      <trkpt lat="47.53723955713212490081787109375" lon="11.0413866676390171051025390625">
        <ele>1742.5999755859375</ele>
        <time>2026-09-01T08:36:58.000Z</time>
        <extensions>
          <ns3:TrackPointExtension>
            <ns3:hr>165</ns3:hr>
            <ns3:cad>55</ns3:cad>
          </ns3:TrackPointExtension>
        </extensions>
      </trkpt>
      <trkpt lat="47.5372461788356304168701171875" lon="11.041400916874408721923828125">
        <ele>1742.5999755859375</ele>
        <time>2026-09-01T08:36:59.000Z</time>
        <extensions>
          <ns3:TrackPointExtension>
            <ns3:hr>166</ns3:hr>
            <ns3:cad>55</ns3:cad>
          </ns3:TrackPointExtension>
        </extensions>
      </trkpt>
      <trkpt lat="47.53725347109138965606689453125" lon="11.0414175130426883697509765625">
        <ele>1742.5999755859375</ele>
        <time>2026-09-01T08:37:00.000Z</time>
        <extensions>
          <ns3:TrackPointExtension>
            <ns3:hr>166</ns3:hr>
            <ns3:cad>55</ns3:cad>
          </ns3:TrackPointExtension>
        </extensions>
      </trkpt>
      <trkpt lat="47.53726218827068805694580078125" lon="11.04143771342933177947998046875">
        <ele>1742.800048828125</ele>
        <time>2026-09-01T08:37:01.000Z</time>
        <extensions>
          <ns3:TrackPointExtension>
            <ns3:hr>166</ns3:hr>
            <ns3:cad>55</ns3:cad>
          </ns3:TrackPointExtension>
        </extensions>
      </trkpt>
      <trkpt lat="47.53726822324097156524658203125" lon="11.04145447723567485809326171875">
        <ele>1743</ele>
        <time>2026-09-01T08:37:02.000Z</time>
        <extensions>
          <ns3:TrackPointExtension>
            <ns3:hr>166</ns3:hr>
            <ns3:cad>55</ns3:cad>
          </ns3:TrackPointExtension>
        </extensions>
      </trkpt>
      <trkpt lat="47.5372746773064136505126953125" lon="11.0414785332977771759033203125">
        <ele>1743.199951171875</ele>
        <time>2026-09-01T08:37:03.000Z</time>
        <extensions>
          <ns3:TrackPointExtension>
            <ns3:hr>167</ns3:hr>
            <ns3:cad>55</ns3:cad>
          </ns3:TrackPointExtension>
        </extensions>
      </trkpt>
      <trkpt lat="47.53727895207703113555908203125" lon="11.0414998233318328857421875">
        <ele>1743.4000244140625</ele>
        <time>2026-09-01T08:37:04.000Z</time>
        <extensions>
          <ns3:TrackPointExtension>
            <ns3:hr>167</ns3:hr>
            <ns3:cad>55</ns3:cad>
          </ns3:TrackPointExtension>
        </extensions>
      </trkpt>
      <trkpt lat="47.53728347830474376678466796875" lon="11.0415212810039520263671875">
        <ele>1743.5999755859375</ele>
        <time>2026-09-01T08:37:05.000Z</time>
        <extensions>
          <ns3:TrackPointExtension>
            <ns3:hr>168</ns3:hr>
            <ns3:cad>55</ns3:cad>
          </ns3:TrackPointExtension>
        </extensions>
      </trkpt>
      <trkpt lat="47.5372877530753612518310546875" lon="11.0415489412844181060791015625">
        <ele>1743.800048828125</ele>
        <time>2026-09-01T08:37:06.000Z</time>
        <extensions>
          <ns3:TrackPointExtension>
            <ns3:hr>166</ns3:hr>
            <ns3:cad>55</ns3:cad>
          </ns3:TrackPointExtension>
        </extensions>
      </trkpt>
      <trkpt lat="47.53729261457920074462890625" lon="11.041577942669391632080078125">
        <ele>1743.800048828125</ele>
        <time>2026-09-01T08:37:07.000Z</time>
        <extensions>
          <ns3:TrackPointExtension>
            <ns3:hr>164</ns3:hr>
            <ns3:cad>55</ns3:cad>
          </ns3:TrackPointExtension>
        </extensions>
      </trkpt>
      <trkpt lat="47.53729806281626224517822265625" lon="11.041608788073062896728515625">
        <ele>1743.800048828125</ele>
        <time>2026-09-01T08:37:08.000Z</time>
        <extensions>
          <ns3:TrackPointExtension>
            <ns3:hr>162</ns3:hr>
            <ns3:cad>73</ns3:cad>
          </ns3:TrackPointExtension>
        </extensions>
      </trkpt>
      <trkpt lat="47.5373025052249431610107421875" lon="11.04163837619125843048095703125">
        <ele>1743.800048828125</ele>
        <time>2026-09-01T08:37:09.000Z</time>
        <extensions>
          <ns3:TrackPointExtension>
            <ns3:hr>161</ns3:hr>
            <ns3:cad>73</ns3:cad>
          </ns3:TrackPointExtension>
        </extensions>
      </trkpt>
      <trkpt lat="47.53730845637619495391845703125" lon="11.04167156852781772613525390625">
        <ele>1743.800048828125</ele>
        <time>2026-09-01T08:37:10.000Z</time>
        <extensions>
          <ns3:TrackPointExtension>
            <ns3:hr>162</ns3:hr>
            <ns3:cad>72</ns3:cad>
          </ns3:TrackPointExtension>
        </extensions>
      </trkpt>
      <trkpt lat="47.5373128987848758697509765625" lon="11.041702330112457275390625">
        <ele>1743.800048828125</ele>
        <time>2026-09-01T08:37:11.000Z</time>
        <extensions>
          <ns3:TrackPointExtension>
            <ns3:hr>162</ns3:hr>
            <ns3:cad>72</ns3:cad>
          </ns3:TrackPointExtension>
        </extensions>
      </trkpt>
      <trkpt lat="47.53732052631676197052001953125" lon="11.04173409752547740936279296875">
        <ele>1743.800048828125</ele>
        <time>2026-09-01T08:37:12.000Z</time>
        <extensions>
          <ns3:TrackPointExtension>
            <ns3:hr>162</ns3:hr>
            <ns3:cad>75</ns3:cad>
          </ns3:TrackPointExtension>
        </extensions>
      </trkpt>
      <trkpt lat="47.53733259625732898712158203125" lon="11.04175572283565998077392578125">
        <ele>1744</ele>
        <time>2026-09-01T08:37:13.000Z</time>
        <extensions>
          <ns3:TrackPointExtension>
            <ns3:hr>162</ns3:hr>
            <ns3:cad>77</ns3:cad>
          </ns3:TrackPointExtension>
        </extensions>
      </trkpt>
      <trkpt lat="47.5373390503227710723876953125" lon="11.04177885688841342926025390625">
        <ele>1744</ele>
        <time>2026-09-01T08:37:14.000Z</time>
        <extensions>
          <ns3:TrackPointExtension>
            <ns3:hr>163</ns3:hr>
            <ns3:cad>78</ns3:cad>
          </ns3:TrackPointExtension>
        </extensions>
      </trkpt>
      <trkpt lat="47.5373460911214351654052734375" lon="11.04179645888507366180419921875">
        <ele>1744</ele>
        <time>2026-09-01T08:37:15.000Z</time>
        <extensions>
          <ns3:TrackPointExtension>
            <ns3:hr>163</ns3:hr>
            <ns3:cad>78</ns3:cad>
          </ns3:TrackPointExtension>
        </extensions>
      </trkpt>
      <trkpt lat="47.53735271282494068145751953125" lon="11.04180358350276947021484375">
        <ele>1744</ele>
        <time>2026-09-01T08:37:16.000Z</time>
        <extensions>
          <ns3:TrackPointExtension>
            <ns3:hr>163</ns3:hr>
            <ns3:cad>78</ns3:cad>
          </ns3:TrackPointExtension>
        </extensions>
      </trkpt>
      <trkpt lat="47.53735966980457305908203125" lon="11.04181540198624134063720703125">
        <ele>1744</ele>
        <time>2026-09-01T08:37:17.000Z</time>
        <extensions>
          <ns3:TrackPointExtension>
            <ns3:hr>164</ns3:hr>
            <ns3:cad>0</ns3:cad>
          </ns3:TrackPointExtension>
        </extensions>
      </trkpt>
      <trkpt lat="47.5373655371367931365966796875" lon="11.04183065705001354217529296875">
        <ele>1744.199951171875</ele>
        <time>2026-09-01T08:37:18.000Z</time>
        <extensions>
          <ns3:TrackPointExtension>
            <ns3:hr>164</ns3:hr>
            <ns3:cad>0</ns3:cad>
          </ns3:TrackPointExtension>
        </extensions>
      </trkpt>
      <trkpt lat="47.53737182356417179107666015625" lon="11.04184381663799285888671875">
        <ele>1744.4000244140625</ele>
        <time>2026-09-01T08:37:19.000Z</time>
        <extensions>
          <ns3:TrackPointExtension>
            <ns3:hr>164</ns3:hr>
            <ns3:cad>0</ns3:cad>
          </ns3:TrackPointExtension>
        </extensions>
      </trkpt>
      <trkpt lat="47.5373796187341213226318359375" lon="11.041855551302433013916015625">
        <ele>1744.800048828125</ele>
        <time>2026-09-01T08:37:20.000Z</time>
        <extensions>
          <ns3:TrackPointExtension>
            <ns3:hr>164</ns3:hr>
            <ns3:cad>0</ns3:cad>
          </ns3:TrackPointExtension>
        </extensions>
      </trkpt>
      <trkpt lat="47.5373947061598300933837890625" lon="11.04186929762363433837890625">
        <ele>1745.4000244140625</ele>
        <time>2026-09-01T08:37:21.000Z</time>
        <extensions>
          <ns3:TrackPointExtension>
            <ns3:hr>163</ns3:hr>
            <ns3:cad>0</ns3:cad>
          </ns3:TrackPointExtension>
        </extensions>
      </trkpt>
      <trkpt lat="47.5374010764062404632568359375" lon="11.0418806970119476318359375">
        <ele>1745.800048828125</ele>
        <time>2026-09-01T08:37:22.000Z</time>
        <extensions>
          <ns3:TrackPointExtension>
            <ns3:hr>163</ns3:hr>
            <ns3:cad>0</ns3:cad>
          </ns3:TrackPointExtension>
        </extensions>
      </trkpt>
      <trkpt lat="47.53741155378520488739013671875" lon="11.0418956167995929718017578125">
        <ele>1746.199951171875</ele>
        <time>2026-09-01T08:37:23.000Z</time>
        <extensions>
          <ns3:TrackPointExtension>
            <ns3:hr>163</ns3:hr>
            <ns3:cad>0</ns3:cad>
          </ns3:TrackPointExtension>
        </extensions>
      </trkpt>
      <trkpt lat="47.5374215282499790191650390625" lon="11.04190953075885772705078125">
        <ele>1746.5999755859375</ele>
        <time>2026-09-01T08:37:24.000Z</time>
        <extensions>
          <ns3:TrackPointExtension>
            <ns3:hr>162</ns3:hr>
            <ns3:cad>0</ns3:cad>
          </ns3:TrackPointExtension>
        </extensions>
      </trkpt>
      <trkpt lat="47.5374272279441356658935546875" lon="11.04191866703331470489501953125">
        <ele>1747</ele>
        <time>2026-09-01T08:37:25.000Z</time>
        <extensions>
          <ns3:TrackPointExtension>
            <ns3:hr>162</ns3:hr>
            <ns3:cad>56</ns3:cad>
          </ns3:TrackPointExtension>
        </extensions>
      </trkpt>
      <trkpt lat="47.53743477165699005126953125" lon="11.04192989878356456756591796875">
        <ele>1747.199951171875</ele>
        <time>2026-09-01T08:37:26.000Z</time>
        <extensions>
          <ns3:TrackPointExtension>
            <ns3:hr>161</ns3:hr>
            <ns3:cad>56</ns3:cad>
          </ns3:TrackPointExtension>
        </extensions>
      </trkpt>
      <trkpt lat="47.53743787296116352081298828125" lon="11.04193476028740406036376953125">
        <ele>1747.4000244140625</ele>
        <time>2026-09-01T08:37:27.000Z</time>
        <extensions>
          <ns3:TrackPointExtension>
            <ns3:hr>161</ns3:hr>
            <ns3:cad>56</ns3:cad>
          </ns3:TrackPointExtension>
        </extensions>
      </trkpt>
      <trkpt lat="47.53744558431208133697509765625" lon="11.0419506020843982696533203125">
        <ele>1747.5999755859375</ele>
        <time>2026-09-01T08:37:28.000Z</time>
        <extensions>
          <ns3:TrackPointExtension>
            <ns3:hr>161</ns3:hr>
            <ns3:cad>56</ns3:cad>
          </ns3:TrackPointExtension>
        </extensions>
      </trkpt>
      <trkpt lat="47.53745296038687229156494140625" lon="11.0419579781591892242431640625">
        <ele>1747.800048828125</ele>
        <time>2026-09-01T08:37:29.000Z</time>
        <extensions>
          <ns3:TrackPointExtension>
            <ns3:hr>161</ns3:hr>
            <ns3:cad>56</ns3:cad>
          </ns3:TrackPointExtension>
        </extensions>
      </trkpt>
      <trkpt lat="47.53746335394680500030517578125" lon="11.04196795262396335601806640625">
        <ele>1748.199951171875</ele>
        <time>2026-09-01T08:37:30.000Z</time>
        <extensions>
          <ns3:TrackPointExtension>
            <ns3:hr>162</ns3:hr>
            <ns3:cad>56</ns3:cad>
          </ns3:TrackPointExtension>
        </extensions>
      </trkpt>
      <trkpt lat="47.53747290931642055511474609375" lon="11.04197465814650058746337890625">
        <ele>1748.5999755859375</ele>
        <time>2026-09-01T08:37:31.000Z</time>
        <extensions>
          <ns3:TrackPointExtension>
            <ns3:hr>162</ns3:hr>
            <ns3:cad>0</ns3:cad>
          </ns3:TrackPointExtension>
        </extensions>
      </trkpt>
      <trkpt lat="47.53748145885765552520751953125" lon="11.04198421351611614227294921875">
        <ele>1749</ele>
        <time>2026-09-01T08:37:32.000Z</time>
        <extensions>
          <ns3:TrackPointExtension>
            <ns3:hr>163</ns3:hr>
            <ns3:cad>0</ns3:cad>
          </ns3:TrackPointExtension>
        </extensions>
      </trkpt>
      <trkpt lat="47.53749109804630279541015625" lon="11.04199913330376148223876953125">
        <ele>1749.199951171875</ele>
        <time>2026-09-01T08:37:33.000Z</time>
        <extensions>
          <ns3:TrackPointExtension>
            <ns3:hr>163</ns3:hr>
            <ns3:cad>0</ns3:cad>
          </ns3:TrackPointExtension>
        </extensions>
      </trkpt>
      <trkpt lat="47.53749780356884002685546875" lon="11.04201145470142364501953125">
        <ele>1749.5999755859375</ele>
        <time>2026-09-01T08:37:34.000Z</time>
        <extensions>
          <ns3:TrackPointExtension>
            <ns3:hr>163</ns3:hr>
            <ns3:cad>0</ns3:cad>
          </ns3:TrackPointExtension>
        </extensions>
      </trkpt>
      <trkpt lat="47.53750375472009181976318359375" lon="11.04202293790876865386962890625">
        <ele>1750</ele>
        <time>2026-09-01T08:37:35.000Z</time>
        <extensions>
          <ns3:TrackPointExtension>
            <ns3:hr>164</ns3:hr>
            <ns3:cad>0</ns3:cad>
          </ns3:TrackPointExtension>
        </extensions>
      </trkpt>
      <trkpt lat="47.53750878386199474334716796875" lon="11.04203852824866771697998046875">
        <ele>1750.199951171875</ele>
        <time>2026-09-01T08:37:36.000Z</time>
        <extensions>
          <ns3:TrackPointExtension>
            <ns3:hr>164</ns3:hr>
            <ns3:cad>0</ns3:cad>
          </ns3:TrackPointExtension>
        </extensions>
      </trkpt>
      <trkpt lat="47.53751381300389766693115234375" lon="11.04205143637955188751220703125">
        <ele>1750.5999755859375</ele>
        <time>2026-09-01T08:37:37.000Z</time>
        <extensions>
          <ns3:TrackPointExtension>
            <ns3:hr>164</ns3:hr>
            <ns3:cad>0</ns3:cad>
          </ns3:TrackPointExtension>
        </extensions>
      </trkpt>
      <trkpt lat="47.53751716576516628265380859375" lon="11.0420669429004192352294921875">
        <ele>1750.800048828125</ele>
        <time>2026-09-01T08:37:38.000Z</time>
        <extensions>
          <ns3:TrackPointExtension>
            <ns3:hr>165</ns3:hr>
            <ns3:cad>0</ns3:cad>
          </ns3:TrackPointExtension>
        </extensions>
      </trkpt>
      <trkpt lat="47.53752420656383037567138671875" lon="11.042088568210601806640625">
        <ele>1751</ele>
        <time>2026-09-01T08:37:39.000Z</time>
        <extensions>
          <ns3:TrackPointExtension>
            <ns3:hr>165</ns3:hr>
            <ns3:cad>0</ns3:cad>
          </ns3:TrackPointExtension>
        </extensions>
      </trkpt>
      <trkpt lat="47.53752437420189380645751953125" lon="11.04210373945534229278564453125">
        <ele>1751.199951171875</ele>
        <time>2026-09-01T08:37:40.000Z</time>
        <extensions>
          <ns3:TrackPointExtension>
            <ns3:hr>166</ns3:hr>
            <ns3:cad>0</ns3:cad>
          </ns3:TrackPointExtension>
        </extensions>
      </trkpt>
      <trkpt lat="47.53752403892576694488525390625" lon="11.0421212576329708099365234375">
        <ele>1751.4000244140625</ele>
        <time>2026-09-01T08:37:41.000Z</time>
        <extensions>
          <ns3:TrackPointExtension>
            <ns3:hr>166</ns3:hr>
            <ns3:cad>47</ns3:cad>
          </ns3:TrackPointExtension>
        </extensions>
      </trkpt>
      <trkpt lat="47.53752806223928928375244140625" lon="11.04214556515216827392578125">
        <ele>1751.4000244140625</ele>
        <time>2026-09-01T08:37:42.000Z</time>
        <extensions>
          <ns3:TrackPointExtension>
            <ns3:hr>166</ns3:hr>
            <ns3:cad>49</ns3:cad>
          </ns3:TrackPointExtension>
        </extensions>
      </trkpt>
      <trkpt lat="47.53753527067601680755615234375" lon="11.04216341860592365264892578125">
        <ele>1751.5999755859375</ele>
        <time>2026-09-01T08:37:43.000Z</time>
        <extensions>
          <ns3:TrackPointExtension>
            <ns3:hr>167</ns3:hr>
            <ns3:cad>49</ns3:cad>
          </ns3:TrackPointExtension>
        </extensions>
      </trkpt>
      <trkpt lat="47.5375385396182537078857421875" lon="11.04218043386936187744140625">
        <ele>1751.800048828125</ele>
        <time>2026-09-01T08:37:44.000Z</time>
        <extensions>
          <ns3:TrackPointExtension>
            <ns3:hr>167</ns3:hr>
            <ns3:cad>49</ns3:cad>
          </ns3:TrackPointExtension>
        </extensions>
      </trkpt>
      <trkpt lat="47.53754147328436374664306640625" lon="11.0421960242092609405517578125">
        <ele>1752</ele>
        <time>2026-09-01T08:37:45.000Z</time>
        <extensions>
          <ns3:TrackPointExtension>
            <ns3:hr>168</ns3:hr>
            <ns3:cad>49</ns3:cad>
          </ns3:TrackPointExtension>
        </extensions>
      </trkpt>
      <trkpt lat="47.53754516132175922393798828125" lon="11.042208261787891387939453125">
        <ele>1752.199951171875</ele>
        <time>2026-09-01T08:37:46.000Z</time>
        <extensions>
          <ns3:TrackPointExtension>
            <ns3:hr>168</ns3:hr>
            <ns3:cad>51</ns3:cad>
          </ns3:TrackPointExtension>
        </extensions>
      </trkpt>
      <trkpt lat="47.53754876554012298583984375" lon="11.042219661176204681396484375">
        <ele>1752.4000244140625</ele>
        <time>2026-09-01T08:37:47.000Z</time>
        <extensions>
          <ns3:TrackPointExtension>
            <ns3:hr>168</ns3:hr>
            <ns3:cad>51</ns3:cad>
          </ns3:TrackPointExtension>
        </extensions>
      </trkpt>
      <trkpt lat="47.5375542975962162017822265625" lon="11.04223500005900859832763671875">
        <ele>1752.800048828125</ele>
        <time>2026-09-01T08:37:48.000Z</time>
        <extensions>
          <ns3:TrackPointExtension>
            <ns3:hr>167</ns3:hr>
            <ns3:cad>51</ns3:cad>
          </ns3:TrackPointExtension>
        </extensions>
      </trkpt>
      <trkpt lat="47.53755957819521427154541015625" lon="11.04225285351276397705078125">
        <ele>1753</ele>
        <time>2026-09-01T08:37:49.000Z</time>
        <extensions>
          <ns3:TrackPointExtension>
            <ns3:hr>165</ns3:hr>
            <ns3:cad>51</ns3:cad>
          </ns3:TrackPointExtension>
        </extensions>
      </trkpt>
      <trkpt lat="47.53757030703127384185791015625" lon="11.04227137751877307891845703125">
        <ele>1753.4000244140625</ele>
        <time>2026-09-01T08:37:50.000Z</time>
        <extensions>
          <ns3:TrackPointExtension>
            <ns3:hr>164</ns3:hr>
            <ns3:cad>51</ns3:cad>
          </ns3:TrackPointExtension>
        </extensions>
      </trkpt>
      <trkpt lat="47.5375749170780181884765625" lon="11.0422883927822113037109375">
        <ele>1753.800048828125</ele>
        <time>2026-09-01T08:37:51.000Z</time>
        <extensions>
          <ns3:TrackPointExtension>
            <ns3:hr>162</ns3:hr>
            <ns3:cad>51</ns3:cad>
          </ns3:TrackPointExtension>
        </extensions>
      </trkpt>
      <trkpt lat="47.53758103586733341217041015625" lon="11.04230473749339580535888671875">
        <ele>1754.199951171875</ele>
        <time>2026-09-01T08:37:52.000Z</time>
        <extensions>
          <ns3:TrackPointExtension>
            <ns3:hr>162</ns3:hr>
            <ns3:cad>52</ns3:cad>
          </ns3:TrackPointExtension>
        </extensions>
      </trkpt>
      <trkpt lat="47.537583969533443450927734375" lon="11.0423090122640132904052734375">
        <ele>1754.5999755859375</ele>
        <time>2026-09-01T08:37:53.000Z</time>
        <extensions>
          <ns3:TrackPointExtension>
            <ns3:hr>162</ns3:hr>
            <ns3:cad>52</ns3:cad>
          </ns3:TrackPointExtension>
        </extensions>
      </trkpt>
      <trkpt lat="47.537587992846965789794921875" lon="11.0423227585852146148681640625">
        <ele>1755</ele>
        <time>2026-09-01T08:37:54.000Z</time>
        <extensions>
          <ns3:TrackPointExtension>
            <ns3:hr>162</ns3:hr>
            <ns3:cad>51</ns3:cad>
          </ns3:TrackPointExtension>
        </extensions>
      </trkpt>
      <trkpt lat="47.53759209997951984405517578125" lon="11.042332984507083892822265625">
        <ele>1755.199951171875</ele>
        <time>2026-09-01T08:37:55.000Z</time>
        <extensions>
          <ns3:TrackPointExtension>
            <ns3:hr>163</ns3:hr>
            <ns3:cad>50</ns3:cad>
          </ns3:TrackPointExtension>
        </extensions>
      </trkpt>
      <trkpt lat="47.53759277053177356719970703125" lon="11.0423472337424755096435546875">
        <ele>1755.5999755859375</ele>
        <time>2026-09-01T08:37:56.000Z</time>
        <extensions>
          <ns3:TrackPointExtension>
            <ns3:hr>163</ns3:hr>
            <ns3:cad>50</ns3:cad>
          </ns3:TrackPointExtension>
        </extensions>
      </trkpt>
      <trkpt lat="47.53759645856916904449462890625" lon="11.042354106903076171875">
        <ele>1755.5999755859375</ele>
        <time>2026-09-01T08:37:57.000Z</time>
        <extensions>
          <ns3:TrackPointExtension>
            <ns3:hr>163</ns3:hr>
            <ns3:cad>51</ns3:cad>
          </ns3:TrackPointExtension>
        </extensions>
      </trkpt>
      <trkpt lat="47.537598051130771636962890625" lon="11.04236374609172344207763671875">
        <ele>1755.800048828125</ele>
        <time>2026-09-01T08:37:58.000Z</time>
        <extensions>
          <ns3:TrackPointExtension>
            <ns3:hr>164</ns3:hr>
            <ns3:cad>51</ns3:cad>
          </ns3:TrackPointExtension>
        </extensions>
      </trkpt>
      <trkpt lat="47.53760450519621372222900390625" lon="11.0423713736236095428466796875">
        <ele>1756.199951171875</ele>
        <time>2026-09-01T08:37:59.000Z</time>
        <extensions>
          <ns3:TrackPointExtension>
            <ns3:hr>163</ns3:hr>
            <ns3:cad>51</ns3:cad>
          </ns3:TrackPointExtension>
        </extensions>
      </trkpt>
      <trkpt lat="47.53760869614779949188232421875" lon="11.04237866587936878204345703125">
        <ele>1756.5999755859375</ele>
        <time>2026-09-01T08:38:00.000Z</time>
        <extensions>
          <ns3:TrackPointExtension>
            <ns3:hr>163</ns3:hr>
            <ns3:cad>51</ns3:cad>
          </ns3:TrackPointExtension>
        </extensions>
      </trkpt>
      <trkpt lat="47.53761506639420986175537109375" lon="11.0423911549150943756103515625">
        <ele>1757</ele>
        <time>2026-09-01T08:38:01.000Z</time>
        <extensions>
          <ns3:TrackPointExtension>
            <ns3:hr>164</ns3:hr>
            <ns3:cad>0</ns3:cad>
          </ns3:TrackPointExtension>
        </extensions>
      </trkpt>
      <trkpt lat="47.5376200117170810699462890625" lon="11.042402721941471099853515625">
        <ele>1757.4000244140625</ele>
        <time>2026-09-01T08:38:02.000Z</time>
        <extensions>
          <ns3:TrackPointExtension>
            <ns3:hr>166</ns3:hr>
            <ns3:cad>0</ns3:cad>
          </ns3:TrackPointExtension>
        </extensions>
      </trkpt>
      <trkpt lat="47.5376257114112377166748046875" lon="11.04242024011909961700439453125">
        <ele>1757.800048828125</ele>
        <time>2026-09-01T08:38:03.000Z</time>
        <extensions>
          <ns3:TrackPointExtension>
            <ns3:hr>167</ns3:hr>
            <ns3:cad>0</ns3:cad>
          </ns3:TrackPointExtension>
        </extensions>
      </trkpt>
      <trkpt lat="47.53762613050639629364013671875" lon="11.0424290411174297332763671875">
        <ele>1758.199951171875</ele>
        <time>2026-09-01T08:38:04.000Z</time>
        <extensions>
          <ns3:TrackPointExtension>
            <ns3:hr>167</ns3:hr>
            <ns3:cad>49</ns3:cad>
          </ns3:TrackPointExtension>
        </extensions>
      </trkpt>
      <trkpt lat="47.5376285612583160400390625" lon="11.0424431227147579193115234375">
        <ele>1758.199951171875</ele>
        <time>2026-09-01T08:38:05.000Z</time>
        <extensions>
          <ns3:TrackPointExtension>
            <ns3:hr>168</ns3:hr>
            <ns3:cad>49</ns3:cad>
          </ns3:TrackPointExtension>
        </extensions>
      </trkpt>
      <trkpt lat="47.5376307405531406402587890625" lon="11.04245393536984920501708984375">
        <ele>1758.4000244140625</ele>
        <time>2026-09-01T08:38:06.000Z</time>
        <extensions>
          <ns3:TrackPointExtension>
            <ns3:hr>168</ns3:hr>
            <ns3:cad>49</ns3:cad>
          </ns3:TrackPointExtension>
        </extensions>
      </trkpt>
      <trkpt lat="47.537632919847965240478515625" lon="11.0424679331481456756591796875">
        <ele>1758.4000244140625</ele>
        <time>2026-09-01T08:38:07.000Z</time>
        <extensions>
          <ns3:TrackPointExtension>
            <ns3:hr>168</ns3:hr>
            <ns3:cad>49</ns3:cad>
          </ns3:TrackPointExtension>
        </extensions>
      </trkpt>
      <trkpt lat="47.5376384519040584564208984375" lon="11.0424833558499813079833984375">
        <ele>1758.4000244140625</ele>
        <time>2026-09-01T08:38:08.000Z</time>
        <extensions>
          <ns3:TrackPointExtension>
            <ns3:hr>169</ns3:hr>
            <ns3:cad>51</ns3:cad>
          </ns3:TrackPointExtension>
        </extensions>
      </trkpt>
      <trkpt lat="47.53764105029404163360595703125" lon="11.04250355623662471771240234375">
        <ele>1758.5999755859375</ele>
        <time>2026-09-01T08:38:09.000Z</time>
        <extensions>
          <ns3:TrackPointExtension>
            <ns3:hr>169</ns3:hr>
            <ns3:cad>51</ns3:cad>
          </ns3:TrackPointExtension>
        </extensions>
      </trkpt>
      <trkpt lat="47.537644319236278533935546875" lon="11.04252249933779239654541015625">
        <ele>1759</ele>
        <time>2026-09-01T08:38:10.000Z</time>
        <extensions>
          <ns3:TrackPointExtension>
            <ns3:hr>169</ns3:hr>
            <ns3:cad>51</ns3:cad>
          </ns3:TrackPointExtension>
        </extensions>
      </trkpt>
      <trkpt lat="47.53764758817851543426513671875" lon="11.0425380058586597442626953125">
        <ele>1759.199951171875</ele>
        <time>2026-09-01T08:38:11.000Z</time>
        <extensions>
          <ns3:TrackPointExtension>
            <ns3:hr>169</ns3:hr>
            <ns3:cad>50</ns3:cad>
          </ns3:TrackPointExtension>
        </extensions>
      </trkpt>
      <trkpt lat="47.53765161149203777313232421875" lon="11.04254647158086299896240234375">
        <ele>1759.5999755859375</ele>
        <time>2026-09-01T08:38:12.000Z</time>
        <extensions>
          <ns3:TrackPointExtension>
            <ns3:hr>166</ns3:hr>
            <ns3:cad>50</ns3:cad>
          </ns3:TrackPointExtension>
        </extensions>
      </trkpt>
      <trkpt lat="47.5376580655574798583984375" lon="11.04255418293178081512451171875">
        <ele>1760</ele>
        <time>2026-09-01T08:38:13.000Z</time>
        <extensions>
          <ns3:TrackPointExtension>
            <ns3:hr>164</ns3:hr>
            <ns3:cad>50</ns3:cad>
          </ns3:TrackPointExtension>
        </extensions>
      </trkpt>
      <trkpt lat="47.5376592390239238739013671875" lon="11.0425604693591594696044921875">
        <ele>1760.5999755859375</ele>
        <time>2026-09-01T08:38:14.000Z</time>
        <extensions>
          <ns3:TrackPointExtension>
            <ns3:hr>163</ns3:hr>
            <ns3:cad>50</ns3:cad>
          </ns3:TrackPointExtension>
        </extensions>
      </trkpt>
      <trkpt lat="47.53766099922358989715576171875" lon="11.0425665043294429779052734375">
        <ele>1761.199951171875</ele>
        <time>2026-09-01T08:38:15.000Z</time>
        <extensions>
          <ns3:TrackPointExtension>
            <ns3:hr>163</ns3:hr>
            <ns3:cad>48</ns3:cad>
          </ns3:TrackPointExtension>
        </extensions>
      </trkpt>
      <trkpt lat="47.53766586072742938995361328125" lon="11.04257513768970966339111328125">
        <ele>1761.5999755859375</ele>
        <time>2026-09-01T08:38:16.000Z</time>
        <extensions>
          <ns3:TrackPointExtension>
            <ns3:hr>164</ns3:hr>
            <ns3:cad>48</ns3:cad>
          </ns3:TrackPointExtension>
        </extensions>
      </trkpt>
      <trkpt lat="47.537670470774173736572265625" lon="11.04259014129638671875">
        <ele>1762</ele>
        <time>2026-09-01T08:38:17.000Z</time>
        <extensions>
          <ns3:TrackPointExtension>
            <ns3:hr>165</ns3:hr>
            <ns3:cad>0</ns3:cad>
          </ns3:TrackPointExtension>
        </extensions>
      </trkpt>
      <trkpt lat="47.53767323680222034454345703125" lon="11.04259827174246311187744140625">
        <ele>1762.199951171875</ele>
        <time>2026-09-01T08:38:18.000Z</time>
        <extensions>
          <ns3:TrackPointExtension>
            <ns3:hr>166</ns3:hr>
            <ns3:cad>0</ns3:cad>
          </ns3:TrackPointExtension>
        </extensions>
      </trkpt>
      <trkpt lat="47.5376776792109012603759765625" lon="11.0426090843975543975830078125">
        <ele>1762.4000244140625</ele>
        <time>2026-09-01T08:38:19.000Z</time>
        <extensions>
          <ns3:TrackPointExtension>
            <ns3:hr>166</ns3:hr>
            <ns3:cad>48</ns3:cad>
          </ns3:TrackPointExtension>
        </extensions>
      </trkpt>
      <trkpt lat="47.5376796908676624298095703125" lon="11.0426157899200916290283203125">
        <ele>1762.4000244140625</ele>
        <time>2026-09-01T08:38:20.000Z</time>
        <extensions>
          <ns3:TrackPointExtension>
            <ns3:hr>167</ns3:hr>
            <ns3:cad>48</ns3:cad>
          </ns3:TrackPointExtension>
        </extensions>
      </trkpt>
      <trkpt lat="47.53768094815313816070556640625" lon="11.042622663080692291259765625">
        <ele>1762.5999755859375</ele>
        <time>2026-09-01T08:38:21.000Z</time>
        <extensions>
          <ns3:TrackPointExtension>
            <ns3:hr>168</ns3:hr>
            <ns3:cad>48</ns3:cad>
          </ns3:TrackPointExtension>
        </extensions>
      </trkpt>
      <trkpt lat="47.53768279217183589935302734375" lon="11.042641438543796539306640625">
        <ele>1763</ele>
        <time>2026-09-01T08:38:22.000Z</time>
        <extensions>
          <ns3:TrackPointExtension>
            <ns3:hr>168</ns3:hr>
            <ns3:cad>48</ns3:cad>
          </ns3:TrackPointExtension>
        </extensions>
      </trkpt>
      <trkpt lat="47.5376853905618190765380859375" lon="11.04265258647501468658447265625">
        <ele>1763.4000244140625</ele>
        <time>2026-09-01T08:38:23.000Z</time>
        <extensions>
          <ns3:TrackPointExtension>
            <ns3:hr>167</ns3:hr>
            <ns3:cad>47</ns3:cad>
          </ns3:TrackPointExtension>
        </extensions>
      </trkpt>
      <trkpt lat="47.53769016824662685394287109375" lon="11.04266457259654998779296875">
        <ele>1763.800048828125</ele>
        <time>2026-09-01T08:38:24.000Z</time>
        <extensions>
          <ns3:TrackPointExtension>
            <ns3:hr>167</ns3:hr>
            <ns3:cad>47</ns3:cad>
          </ns3:TrackPointExtension>
        </extensions>
      </trkpt>
      <trkpt lat="47.5376887433230876922607421875" lon="11.0426788218319416046142578125">
        <ele>1764.199951171875</ele>
        <time>2026-09-01T08:38:25.000Z</time>
        <extensions>
          <ns3:TrackPointExtension>
            <ns3:hr>167</ns3:hr>
            <ns3:cad>47</ns3:cad>
          </ns3:TrackPointExtension>
        </extensions>
      </trkpt>
      <trkpt lat="47.537691928446292877197265625" lon="11.04269298724830150604248046875">
        <ele>1764.800048828125</ele>
        <time>2026-09-01T08:38:26.000Z</time>
        <extensions>
          <ns3:TrackPointExtension>
            <ns3:hr>165</ns3:hr>
            <ns3:cad>47</ns3:cad>
          </ns3:TrackPointExtension>
        </extensions>
      </trkpt>
      <trkpt lat="47.5376967899501323699951171875" lon="11.0427022911608219146728515625">
        <ele>1765.4000244140625</ele>
        <time>2026-09-01T08:38:27.000Z</time>
        <extensions>
          <ns3:TrackPointExtension>
            <ns3:hr>164</ns3:hr>
            <ns3:cad>48</ns3:cad>
          </ns3:TrackPointExtension>
        </extensions>
      </trkpt>
      <trkpt lat="47.53769670613110065460205078125" lon="11.04272198863327503204345703125">
        <ele>1765.5999755859375</ele>
        <time>2026-09-01T08:38:28.000Z</time>
        <extensions>
          <ns3:TrackPointExtension>
            <ns3:hr>164</ns3:hr>
            <ns3:cad>48</ns3:cad>
          </ns3:TrackPointExtension>
        </extensions>
      </trkpt>
      <trkpt lat="47.5377021543681621551513671875" lon="11.04273162782192230224609375">
        <ele>1766.199951171875</ele>
        <time>2026-09-01T08:38:29.000Z</time>
        <extensions>
          <ns3:TrackPointExtension>
            <ns3:hr>164</ns3:hr>
            <ns3:cad>48</ns3:cad>
          </ns3:TrackPointExtension>
        </extensions>
      </trkpt>
      <trkpt lat="47.53770341165363788604736328125" lon="11.042731963098049163818359375">
        <ele>1766.5999755859375</ele>
        <time>2026-09-01T08:38:30.000Z</time>
        <extensions>
          <ns3:TrackPointExtension>
            <ns3:hr>164</ns3:hr>
            <ns3:cad>48</ns3:cad>
          </ns3:TrackPointExtension>
        </extensions>
      </trkpt>
      <trkpt lat="47.5377085246145725250244140625" lon="11.042748726904392242431640625">
        <ele>1766.800048828125</ele>
        <time>2026-09-01T08:38:31.000Z</time>
        <extensions>
          <ns3:TrackPointExtension>
            <ns3:hr>164</ns3:hr>
            <ns3:cad>48</ns3:cad>
          </ns3:TrackPointExtension>
        </extensions>
      </trkpt>
      <trkpt lat="47.537710033357143402099609375" lon="11.04275736026465892791748046875">
        <ele>1767.199951171875</ele>
        <time>2026-09-01T08:38:32.000Z</time>
        <extensions>
          <ns3:TrackPointExtension>
            <ns3:hr>163</ns3:hr>
            <ns3:cad>48</ns3:cad>
          </ns3:TrackPointExtension>
        </extensions>
      </trkpt>
      <trkpt lat="47.5377185828983783721923828125" lon="11.0427901335060596466064453125">
        <ele>1767.5999755859375</ele>
        <time>2026-09-01T08:38:33.000Z</time>
        <extensions>
          <ns3:TrackPointExtension>
            <ns3:hr>163</ns3:hr>
            <ns3:cad>48</ns3:cad>
          </ns3:TrackPointExtension>
        </extensions>
      </trkpt>
      <trkpt lat="47.5377232767641544342041015625" lon="11.04280564002692699432373046875">
        <ele>1768</ele>
        <time>2026-09-01T08:38:34.000Z</time>
        <extensions>
          <ns3:TrackPointExtension>
            <ns3:hr>163</ns3:hr>
            <ns3:cad>48</ns3:cad>
          </ns3:TrackPointExtension>
        </extensions>
      </trkpt>
      <trkpt lat="47.53773174248635768890380859375" lon="11.0428149439394474029541015625">
        <ele>1768.4000244140625</ele>
        <time>2026-09-01T08:38:35.000Z</time>
        <extensions>
          <ns3:TrackPointExtension>
            <ns3:hr>163</ns3:hr>
            <ns3:cad>0</ns3:cad>
          </ns3:TrackPointExtension>
        </extensions>
      </trkpt>
      <trkpt lat="47.53774515353143215179443359375" lon="11.04284034110605716705322265625">
        <ele>1768.5999755859375</ele>
        <time>2026-09-01T08:38:36.000Z</time>
        <extensions>
          <ns3:TrackPointExtension>
            <ns3:hr>162</ns3:hr>
            <ns3:cad>0</ns3:cad>
          </ns3:TrackPointExtension>
        </extensions>
      </trkpt>
      <trkpt lat="47.53775269724428653717041015625" lon="11.04285090230405330657958984375">
        <ele>1769</ele>
        <time>2026-09-01T08:38:37.000Z</time>
        <extensions>
          <ns3:TrackPointExtension>
            <ns3:hr>162</ns3:hr>
            <ns3:cad>0</ns3:cad>
          </ns3:TrackPointExtension>
        </extensions>
      </trkpt>
      <trkpt lat="47.53776091150939464569091796875" lon="11.04286096058785915374755859375">
        <ele>1769.199951171875</ele>
        <time>2026-09-01T08:38:38.000Z</time>
        <extensions>
          <ns3:TrackPointExtension>
            <ns3:hr>162</ns3:hr>
            <ns3:cad>0</ns3:cad>
          </ns3:TrackPointExtension>
        </extensions>
      </trkpt>
      <trkpt lat="47.53776845522224903106689453125" lon="11.0428756289184093475341796875">
        <ele>1769.199951171875</ele>
        <time>2026-09-01T08:38:39.000Z</time>
        <extensions>
          <ns3:TrackPointExtension>
            <ns3:hr>163</ns3:hr>
            <ns3:cad>0</ns3:cad>
          </ns3:TrackPointExtension>
        </extensions>
      </trkpt>
      <trkpt lat="47.53777583129703998565673828125" lon="11.04289331473410129547119140625">
        <ele>1769.4000244140625</ele>
        <time>2026-09-01T08:38:40.000Z</time>
        <extensions>
          <ns3:TrackPointExtension>
            <ns3:hr>163</ns3:hr>
            <ns3:cad>48</ns3:cad>
          </ns3:TrackPointExtension>
        </extensions>
      </trkpt>
      <trkpt lat="47.5377802737057209014892578125" lon="11.04290387593209743499755859375">
        <ele>1769.800048828125</ele>
        <time>2026-09-01T08:38:41.000Z</time>
        <extensions>
          <ns3:TrackPointExtension>
            <ns3:hr>164</ns3:hr>
            <ns3:cad>50</ns3:cad>
          </ns3:TrackPointExtension>
        </extensions>
      </trkpt>
      <trkpt lat="47.53778555430471897125244140625" lon="11.0429187119007110595703125">
        <ele>1770.4000244140625</ele>
        <time>2026-09-01T08:38:42.000Z</time>
        <extensions>
          <ns3:TrackPointExtension>
            <ns3:hr>164</ns3:hr>
            <ns3:cad>50</ns3:cad>
          </ns3:TrackPointExtension>
        </extensions>
      </trkpt>
      <trkpt lat="47.53779125399887561798095703125" lon="11.04292550124228000640869140625">
        <ele>1771</ele>
        <time>2026-09-01T08:38:43.000Z</time>
        <extensions>
          <ns3:TrackPointExtension>
            <ns3:hr>164</ns3:hr>
            <ns3:cad>50</ns3:cad>
          </ns3:TrackPointExtension>
        </extensions>
      </trkpt>
      <trkpt lat="47.53779879771173000335693359375" lon="11.04293874464929103851318359375">
        <ele>1771.5999755859375</ele>
        <time>2026-09-01T08:38:44.000Z</time>
        <extensions>
          <ns3:TrackPointExtension>
            <ns3:hr>164</ns3:hr>
            <ns3:cad>50</ns3:cad>
          </ns3:TrackPointExtension>
        </extensions>
      </trkpt>
      <trkpt lat="47.53780935890972614288330078125" lon="11.04295634664595127105712890625">
        <ele>1772</ele>
        <time>2026-09-01T08:38:45.000Z</time>
        <extensions>
          <ns3:TrackPointExtension>
            <ns3:hr>165</ns3:hr>
            <ns3:cad>50</ns3:cad>
          </ns3:TrackPointExtension>
        </extensions>
      </trkpt>
      <trkpt lat="47.5378201715648174285888671875" lon="11.04297009296715259552001953125">
        <ele>1772.199951171875</ele>
        <time>2026-09-01T08:38:46.000Z</time>
        <extensions>
          <ns3:TrackPointExtension>
            <ns3:hr>165</ns3:hr>
            <ns3:cad>50</ns3:cad>
          </ns3:TrackPointExtension>
        </extensions>
      </trkpt>
      <trkpt lat="47.53783098421990871429443359375" lon="11.04298719204962253570556640625">
        <ele>1772.4000244140625</ele>
        <time>2026-09-01T08:38:47.000Z</time>
        <extensions>
          <ns3:TrackPointExtension>
            <ns3:hr>165</ns3:hr>
            <ns3:cad>44</ns3:cad>
          </ns3:TrackPointExtension>
        </extensions>
      </trkpt>
      <trkpt lat="47.53783199004828929901123046875" lon="11.04302893392741680145263671875">
        <ele>1772.5999755859375</ele>
        <time>2026-09-01T08:38:48.000Z</time>
        <extensions>
          <ns3:TrackPointExtension>
            <ns3:hr>165</ns3:hr>
            <ns3:cad>44</ns3:cad>
          </ns3:TrackPointExtension>
        </extensions>
      </trkpt>
      <trkpt lat="47.5378379411995410919189453125" lon="11.04305156506597995758056640625">
        <ele>1772.5999755859375</ele>
        <time>2026-09-01T08:38:49.000Z</time>
        <extensions>
          <ns3:TrackPointExtension>
            <ns3:hr>165</ns3:hr>
            <ns3:cad>44</ns3:cad>
          </ns3:TrackPointExtension>
        </extensions>
      </trkpt>
      <trkpt lat="47.537844143807888031005859375" lon="11.04308106936514377593994140625">
        <ele>1772.5999755859375</ele>
        <time>2026-09-01T08:38:50.000Z</time>
        <extensions>
          <ns3:TrackPointExtension>
            <ns3:hr>165</ns3:hr>
            <ns3:cad>44</ns3:cad>
          </ns3:TrackPointExtension>
        </extensions>
      </trkpt>
      <trkpt lat="47.5378547050058841705322265625" lon="11.04311694391071796417236328125">
        <ele>1772.4000244140625</ele>
        <time>2026-09-01T08:38:51.000Z</time>
        <extensions>
          <ns3:TrackPointExtension>
            <ns3:hr>165</ns3:hr>
            <ns3:cad>44</ns3:cad>
          </ns3:TrackPointExtension>
        </extensions>
      </trkpt>
      <trkpt lat="47.53785680048167705535888671875" lon="11.043151058256626129150390625">
        <ele>1772</ele>
        <time>2026-09-01T08:38:52.000Z</time>
        <extensions>
          <ns3:TrackPointExtension>
            <ns3:hr>165</ns3:hr>
            <ns3:cad>78</ns3:cad>
          </ns3:TrackPointExtension>
        </extensions>
      </trkpt>
      <trkpt lat="47.53786258399486541748046875" lon="11.043177209794521331787109375">
        <ele>1771.5999755859375</ele>
        <time>2026-09-01T08:38:53.000Z</time>
        <extensions>
          <ns3:TrackPointExtension>
            <ns3:hr>166</ns3:hr>
            <ns3:cad>78</ns3:cad>
          </ns3:TrackPointExtension>
        </extensions>
      </trkpt>
      <trkpt lat="47.53786216489970684051513671875" lon="11.0432068817317485809326171875">
        <ele>1771.4000244140625</ele>
        <time>2026-09-01T08:38:54.000Z</time>
        <extensions>
          <ns3:TrackPointExtension>
            <ns3:hr>166</ns3:hr>
            <ns3:cad>78</ns3:cad>
          </ns3:TrackPointExtension>
        </extensions>
      </trkpt>
      <trkpt lat="47.53786132670938968658447265625" lon="11.0432330332696437835693359375">
        <ele>1771</ele>
        <time>2026-09-01T08:38:55.000Z</time>
        <extensions>
          <ns3:TrackPointExtension>
            <ns3:hr>167</ns3:hr>
            <ns3:cad>78</ns3:cad>
          </ns3:TrackPointExtension>
        </extensions>
      </trkpt>
      <trkpt lat="47.53786702640354633331298828125" lon="11.04326060973107814788818359375">
        <ele>1770.5999755859375</ele>
        <time>2026-09-01T08:38:56.000Z</time>
        <extensions>
          <ns3:TrackPointExtension>
            <ns3:hr>167</ns3:hr>
            <ns3:cad>79</ns3:cad>
          </ns3:TrackPointExtension>
        </extensions>
      </trkpt>
      <trkpt lat="47.5378878973424434661865234375" lon="11.0432875156402587890625">
        <ele>1770.199951171875</ele>
        <time>2026-09-01T08:38:57.000Z</time>
        <extensions>
          <ns3:TrackPointExtension>
            <ns3:hr>168</ns3:hr>
            <ns3:cad>79</ns3:cad>
          </ns3:TrackPointExtension>
        </extensions>
      </trkpt>
      <trkpt lat="47.53790508024394512176513671875" lon="11.04330050759017467498779296875">
        <ele>1769.800048828125</ele>
        <time>2026-09-01T08:38:58.000Z</time>
        <extensions>
          <ns3:TrackPointExtension>
            <ns3:hr>168</ns3:hr>
            <ns3:cad>79</ns3:cad>
          </ns3:TrackPointExtension>
        </extensions>
      </trkpt>
      <trkpt lat="47.53792100585997104644775390625" lon="11.04331743903458118438720703125">
        <ele>1769.4000244140625</ele>
        <time>2026-09-01T08:38:59.000Z</time>
        <extensions>
          <ns3:TrackPointExtension>
            <ns3:hr>168</ns3:hr>
            <ns3:cad>79</ns3:cad>
          </ns3:TrackPointExtension>
        </extensions>
      </trkpt>
      <trkpt lat="47.5379375182092189788818359375" lon="11.04334711097180843353271484375">
        <ele>1769</ele>
        <time>2026-09-01T08:39:00.000Z</time>
        <extensions>
          <ns3:TrackPointExtension>
            <ns3:hr>168</ns3:hr>
            <ns3:cad>79</ns3:cad>
          </ns3:TrackPointExtension>
        </extensions>
      </trkpt>
      <trkpt lat="47.5379556231200695037841796875" lon="11.0433693230152130126953125">
        <ele>1768.800048828125</ele>
        <time>2026-09-01T08:39:01.000Z</time>
        <extensions>
          <ns3:TrackPointExtension>
            <ns3:hr>168</ns3:hr>
            <ns3:cad>79</ns3:cad>
          </ns3:TrackPointExtension>
        </extensions>
      </trkpt>
      <trkpt lat="47.53796928562223911285400390625" lon="11.04338600300252437591552734375">
        <ele>1768.5999755859375</ele>
        <time>2026-09-01T08:39:02.000Z</time>
        <extensions>
          <ns3:TrackPointExtension>
            <ns3:hr>167</ns3:hr>
            <ns3:cad>79</ns3:cad>
          </ns3:TrackPointExtension>
        </extensions>
      </trkpt>
      <trkpt lat="47.53798034973442554473876953125" lon="11.0434184409677982330322265625">
        <ele>1768.5999755859375</ele>
        <time>2026-09-01T08:39:03.000Z</time>
        <extensions>
          <ns3:TrackPointExtension>
            <ns3:hr>167</ns3:hr>
            <ns3:cad>79</ns3:cad>
          </ns3:TrackPointExtension>
        </extensions>
      </trkpt>
      <trkpt lat="47.53799677826464176177978515625" lon="11.04344584979116916656494140625">
        <ele>1768.4000244140625</ele>
        <time>2026-09-01T08:39:04.000Z</time>
        <extensions>
          <ns3:TrackPointExtension>
            <ns3:hr>167</ns3:hr>
            <ns3:cad>78</ns3:cad>
          </ns3:TrackPointExtension>
        </extensions>
      </trkpt>
      <trkpt lat="47.53800951875746250152587890625" lon="11.043475605547428131103515625">
        <ele>1768.4000244140625</ele>
        <time>2026-09-01T08:39:05.000Z</time>
        <extensions>
          <ns3:TrackPointExtension>
            <ns3:hr>166</ns3:hr>
            <ns3:cad>78</ns3:cad>
          </ns3:TrackPointExtension>
        </extensions>
      </trkpt>
      <trkpt lat="47.53802561201155185699462890625" lon="11.043493710458278656005859375">
        <ele>1768.199951171875</ele>
        <time>2026-09-01T08:39:06.000Z</time>
        <extensions>
          <ns3:TrackPointExtension>
            <ns3:hr>166</ns3:hr>
            <ns3:cad>76</ns3:cad>
          </ns3:TrackPointExtension>
        </extensions>
      </trkpt>
      <trkpt lat="47.5380464829504489898681640625" lon="11.04351743124425411224365234375">
        <ele>1768</ele>
        <time>2026-09-01T08:39:07.000Z</time>
        <extensions>
          <ns3:TrackPointExtension>
            <ns3:hr>166</ns3:hr>
            <ns3:cad>76</ns3:cad>
          </ns3:TrackPointExtension>
        </extensions>
      </trkpt>
      <trkpt lat="47.5380598939955234527587890625" lon="11.04353888891637325286865234375">
        <ele>1767.800048828125</ele>
        <time>2026-09-01T08:39:08.000Z</time>
        <extensions>
          <ns3:TrackPointExtension>
            <ns3:hr>166</ns3:hr>
            <ns3:cad>76</ns3:cad>
          </ns3:TrackPointExtension>
        </extensions>
      </trkpt>
      <trkpt lat="47.5380803458392620086669921875" lon="11.04356805793941020965576171875">
        <ele>1767.800048828125</ele>
        <time>2026-09-01T08:39:09.000Z</time>
        <extensions>
          <ns3:TrackPointExtension>
            <ns3:hr>166</ns3:hr>
            <ns3:cad>75</ns3:cad>
          </ns3:TrackPointExtension>
        </extensions>
      </trkpt>
      <trkpt lat="47.538090907037258148193359375" lon="11.04359437711536884307861328125">
        <ele>1767.199951171875</ele>
        <time>2026-09-01T08:39:10.000Z</time>
        <extensions>
          <ns3:TrackPointExtension>
            <ns3:hr>166</ns3:hr>
            <ns3:cad>75</ns3:cad>
          </ns3:TrackPointExtension>
        </extensions>
      </trkpt>
      <trkpt lat="47.53809987567365169525146484375" lon="11.0436266474425792694091796875">
        <ele>1766.800048828125</ele>
        <time>2026-09-01T08:39:11.000Z</time>
        <extensions>
          <ns3:TrackPointExtension>
            <ns3:hr>166</ns3:hr>
            <ns3:cad>76</ns3:cad>
          </ns3:TrackPointExtension>
        </extensions>
      </trkpt>
      <trkpt lat="47.53810959868133068084716796875" lon="11.04365833103656768798828125">
        <ele>1766.199951171875</ele>
        <time>2026-09-01T08:39:12.000Z</time>
        <extensions>
          <ns3:TrackPointExtension>
            <ns3:hr>165</ns3:hr>
            <ns3:cad>77</ns3:cad>
          </ns3:TrackPointExtension>
        </extensions>
      </trkpt>
      <trkpt lat="47.5381249375641345977783203125" lon="11.04369596578180789947509765625">
        <ele>1765.800048828125</ele>
        <time>2026-09-01T08:39:13.000Z</time>
        <extensions>
          <ns3:TrackPointExtension>
            <ns3:hr>165</ns3:hr>
            <ns3:cad>77</ns3:cad>
          </ns3:TrackPointExtension>
        </extensions>
      </trkpt>
      <trkpt lat="47.53814279101788997650146484375" lon="11.04371608234941959381103515625">
        <ele>1765.4000244140625</ele>
        <time>2026-09-01T08:39:14.000Z</time>
        <extensions>
          <ns3:TrackPointExtension>
            <ns3:hr>165</ns3:hr>
            <ns3:cad>77</ns3:cad>
          </ns3:TrackPointExtension>
        </extensions>
      </trkpt>
      <trkpt lat="47.53816961310803890228271484375" lon="11.043755225837230682373046875">
        <ele>1765.199951171875</ele>
        <time>2026-09-01T08:39:15.000Z</time>
        <extensions>
          <ns3:TrackPointExtension>
            <ns3:hr>164</ns3:hr>
            <ns3:cad>78</ns3:cad>
          </ns3:TrackPointExtension>
        </extensions>
      </trkpt>
      <trkpt lat="47.538190148770809173583984375" lon="11.04378079064190387725830078125">
        <ele>1765</ele>
        <time>2026-09-01T08:39:16.000Z</time>
        <extensions>
          <ns3:TrackPointExtension>
            <ns3:hr>164</ns3:hr>
            <ns3:cad>78</ns3:cad>
          </ns3:TrackPointExtension>
        </extensions>
      </trkpt>
      <trkpt lat="47.53820766694843769073486328125" lon="11.0438076965510845184326171875">
        <ele>1765.4000244140625</ele>
        <time>2026-09-01T08:39:17.000Z</time>
        <extensions>
          <ns3:TrackPointExtension>
            <ns3:hr>164</ns3:hr>
            <ns3:cad>78</ns3:cad>
          </ns3:TrackPointExtension>
        </extensions>
      </trkpt>
      <trkpt lat="47.5382231734693050384521484375" lon="11.04384046979248523712158203125">
        <ele>1765.800048828125</ele>
        <time>2026-09-01T08:39:18.000Z</time>
        <extensions>
          <ns3:TrackPointExtension>
            <ns3:hr>163</ns3:hr>
            <ns3:cad>79</ns3:cad>
          </ns3:TrackPointExtension>
        </extensions>
      </trkpt>
      <trkpt lat="47.53824152983725070953369140625" lon="11.04386578314006328582763671875">
        <ele>1766.199951171875</ele>
        <time>2026-09-01T08:39:19.000Z</time>
        <extensions>
          <ns3:TrackPointExtension>
            <ns3:hr>163</ns3:hr>
            <ns3:cad>79</ns3:cad>
          </ns3:TrackPointExtension>
        </extensions>
      </trkpt>
      <trkpt lat="47.5382580421864986419677734375" lon="11.04387265630066394805908203125">
        <ele>1766.800048828125</ele>
        <time>2026-09-01T08:39:20.000Z</time>
        <extensions>
          <ns3:TrackPointExtension>
            <ns3:hr>162</ns3:hr>
            <ns3:cad>79</ns3:cad>
          </ns3:TrackPointExtension>
        </extensions>
      </trkpt>
      <trkpt lat="47.53828369081020355224609375" lon="11.04389176703989505767822265625">
        <ele>1767.199951171875</ele>
        <time>2026-09-01T08:39:21.000Z</time>
        <extensions>
          <ns3:TrackPointExtension>
            <ns3:hr>162</ns3:hr>
            <ns3:cad>81</ns3:cad>
          </ns3:TrackPointExtension>
        </extensions>
      </trkpt>
      <trkpt lat="47.5383043102920055389404296875" lon="11.043910793960094451904296875">
        <ele>1767.5999755859375</ele>
        <time>2026-09-01T08:39:22.000Z</time>
        <extensions>
          <ns3:TrackPointExtension>
            <ns3:hr>162</ns3:hr>
            <ns3:cad>81</ns3:cad>
          </ns3:TrackPointExtension>
        </extensions>
      </trkpt>
      <trkpt lat="47.53831931389868259429931640625" lon="11.0439352691173553466796875">
        <ele>1768</ele>
        <time>2026-09-01T08:39:23.000Z</time>
        <extensions>
          <ns3:TrackPointExtension>
            <ns3:hr>161</ns3:hr>
            <ns3:cad>81</ns3:cad>
          </ns3:TrackPointExtension>
        </extensions>
      </trkpt>
      <trkpt lat="47.53832451067864894866943359375" lon="11.04397374205291271209716796875">
        <ele>1768.199951171875</ele>
        <time>2026-09-01T08:39:24.000Z</time>
        <extensions>
          <ns3:TrackPointExtension>
            <ns3:hr>161</ns3:hr>
            <ns3:cad>79</ns3:cad>
          </ns3:TrackPointExtension>
        </extensions>
      </trkpt>
      <trkpt lat="47.53832484595477581024169921875" lon="11.0440058447420597076416015625">
        <ele>1768.4000244140625</ele>
        <time>2026-09-01T08:39:25.000Z</time>
        <extensions>
          <ns3:TrackPointExtension>
            <ns3:hr>161</ns3:hr>
            <ns3:cad>79</ns3:cad>
          </ns3:TrackPointExtension>
        </extensions>
      </trkpt>
      <trkpt lat="47.53831445239484310150146484375" lon="11.04403492994606494903564453125">
        <ele>1768.5999755859375</ele>
        <time>2026-09-01T08:39:26.000Z</time>
        <extensions>
          <ns3:TrackPointExtension>
            <ns3:hr>161</ns3:hr>
            <ns3:cad>79</ns3:cad>
          </ns3:TrackPointExtension>
        </extensions>
      </trkpt>
      <trkpt lat="47.53831009380519390106201171875" lon="11.04406242258846759796142578125">
        <ele>1768.800048828125</ele>
        <time>2026-09-01T08:39:27.000Z</time>
        <extensions>
          <ns3:TrackPointExtension>
            <ns3:hr>161</ns3:hr>
            <ns3:cad>78</ns3:cad>
          </ns3:TrackPointExtension>
        </extensions>
      </trkpt>
      <trkpt lat="47.5383086688816547393798828125" lon="11.04409754276275634765625">
        <ele>1768.5999755859375</ele>
        <time>2026-09-01T08:39:28.000Z</time>
        <extensions>
          <ns3:TrackPointExtension>
            <ns3:hr>161</ns3:hr>
            <ns3:cad>78</ns3:cad>
          </ns3:TrackPointExtension>
        </extensions>
      </trkpt>
      <trkpt lat="47.5383096747100353240966796875" lon="11.04412813670933246612548828125">
        <ele>1768.4000244140625</ele>
        <time>2026-09-01T08:39:29.000Z</time>
        <extensions>
          <ns3:TrackPointExtension>
            <ns3:hr>160</ns3:hr>
            <ns3:cad>78</ns3:cad>
          </ns3:TrackPointExtension>
        </extensions>
      </trkpt>
      <trkpt lat="47.53830875270068645477294921875" lon="11.04416317306458950042724609375">
        <ele>1768</ele>
        <time>2026-09-01T08:39:30.000Z</time>
        <extensions>
          <ns3:TrackPointExtension>
            <ns3:hr>160</ns3:hr>
            <ns3:cad>78</ns3:cad>
          </ns3:TrackPointExtension>
        </extensions>
      </trkpt>
      <trkpt lat="47.538318224251270294189453125" lon="11.04420952498912811279296875">
        <ele>1767.5999755859375</ele>
        <time>2026-09-01T08:39:31.000Z</time>
        <extensions>
          <ns3:TrackPointExtension>
            <ns3:hr>160</ns3:hr>
            <ns3:cad>76</ns3:cad>
          </ns3:TrackPointExtension>
        </extensions>
      </trkpt>
      <trkpt lat="47.53832995891571044921875" lon="11.044238023459911346435546875">
        <ele>1767.4000244140625</ele>
        <time>2026-09-01T08:39:32.000Z</time>
        <extensions>
          <ns3:TrackPointExtension>
            <ns3:hr>160</ns3:hr>
            <ns3:cad>76</ns3:cad>
          </ns3:TrackPointExtension>
        </extensions>
      </trkpt>
      <trkpt lat="47.5383395142853260040283203125" lon="11.04427884332835674285888671875">
        <ele>1767.199951171875</ele>
        <time>2026-09-01T08:39:33.000Z</time>
        <extensions>
          <ns3:TrackPointExtension>
            <ns3:hr>160</ns3:hr>
            <ns3:cad>81</ns3:cad>
          </ns3:TrackPointExtension>
        </extensions>
      </trkpt>
      <trkpt lat="47.53835141658782958984375" lon="11.0443186573684215545654296875">
        <ele>1767.4000244140625</ele>
        <time>2026-09-01T08:39:34.000Z</time>
        <extensions>
          <ns3:TrackPointExtension>
            <ns3:hr>160</ns3:hr>
            <ns3:cad>82</ns3:cad>
          </ns3:TrackPointExtension>
        </extensions>
      </trkpt>
      <trkpt lat="47.53835736773908138275146484375" lon="11.0443498380482196807861328125">
        <ele>1767.5999755859375</ele>
        <time>2026-09-01T08:39:35.000Z</time>
        <extensions>
          <ns3:TrackPointExtension>
            <ns3:hr>159</ns3:hr>
            <ns3:cad>81</ns3:cad>
          </ns3:TrackPointExtension>
        </extensions>
      </trkpt>
      <trkpt lat="47.53836072050034999847412109375" lon="11.0443753190338611602783203125">
        <ele>1768.199951171875</ele>
        <time>2026-09-01T08:39:36.000Z</time>
        <extensions>
          <ns3:TrackPointExtension>
            <ns3:hr>159</ns3:hr>
            <ns3:cad>81</ns3:cad>
          </ns3:TrackPointExtension>
        </extensions>
      </trkpt>
      <trkpt lat="47.53836340270936489105224609375" lon="11.04439049027860164642333984375">
        <ele>1768.800048828125</ele>
        <time>2026-09-01T08:39:37.000Z</time>
        <extensions>
          <ns3:TrackPointExtension>
            <ns3:hr>159</ns3:hr>
            <ns3:cad>81</ns3:cad>
          </ns3:TrackPointExtension>
        </extensions>
      </trkpt>
      <trkpt lat="47.53836549818515777587890625" lon="11.04441278614103794097900390625">
        <ele>1769</ele>
        <time>2026-09-01T08:39:38.000Z</time>
        <extensions>
          <ns3:TrackPointExtension>
            <ns3:hr>159</ns3:hr>
            <ns3:cad>81</ns3:cad>
          </ns3:TrackPointExtension>
        </extensions>
      </trkpt>
      <trkpt lat="47.538364827632904052734375" lon="11.0444314777851104736328125">
        <ele>1769.4000244140625</ele>
        <time>2026-09-01T08:39:39.000Z</time>
        <extensions>
          <ns3:TrackPointExtension>
            <ns3:hr>159</ns3:hr>
            <ns3:cad>81</ns3:cad>
          </ns3:TrackPointExtension>
        </extensions>
      </trkpt>
      <trkpt lat="47.5383666716516017913818359375" lon="11.0444447211921215057373046875">
        <ele>1769.5999755859375</ele>
        <time>2026-09-01T08:39:40.000Z</time>
        <extensions>
          <ns3:TrackPointExtension>
            <ns3:hr>159</ns3:hr>
            <ns3:cad>81</ns3:cad>
          </ns3:TrackPointExtension>
        </extensions>
      </trkpt>
      <trkpt lat="47.538362480700016021728515625" lon="11.04446056298911571502685546875">
        <ele>1769.800048828125</ele>
        <time>2026-09-01T08:39:41.000Z</time>
        <extensions>
          <ns3:TrackPointExtension>
            <ns3:hr>159</ns3:hr>
            <ns3:cad>0</ns3:cad>
          </ns3:TrackPointExtension>
        </extensions>
      </trkpt>
      <trkpt lat="47.5383559428155422210693359375" lon="11.04446969926357269287109375">
        <ele>1770</ele>
        <time>2026-09-01T08:39:42.000Z</time>
        <extensions>
          <ns3:TrackPointExtension>
            <ns3:hr>159</ns3:hr>
            <ns3:cad>0</ns3:cad>
          </ns3:TrackPointExtension>
        </extensions>
      </trkpt>
      <trkpt lat="47.5383556075394153594970703125" lon="11.04448302648961544036865234375">
        <ele>1770.199951171875</ele>
        <time>2026-09-01T08:39:43.000Z</time>
        <extensions>
          <ns3:TrackPointExtension>
            <ns3:hr>159</ns3:hr>
            <ns3:cad>0</ns3:cad>
          </ns3:TrackPointExtension>
        </extensions>
      </trkpt>
      <trkpt lat="47.5383572839200496673583984375" lon="11.044494174420833587646484375">
        <ele>1770.4000244140625</ele>
        <time>2026-09-01T08:39:44.000Z</time>
        <extensions>
          <ns3:TrackPointExtension>
            <ns3:hr>158</ns3:hr>
            <ns3:cad>0</ns3:cad>
          </ns3:TrackPointExtension>
        </extensions>
      </trkpt>
      <trkpt lat="47.5383592955768108367919921875" lon="11.04450616054236888885498046875">
        <ele>1770.800048828125</ele>
        <time>2026-09-01T08:39:45.000Z</time>
        <extensions>
          <ns3:TrackPointExtension>
            <ns3:hr>158</ns3:hr>
            <ns3:cad>0</ns3:cad>
          </ns3:TrackPointExtension>
        </extensions>
      </trkpt>
      <trkpt lat="47.53836155869066715240478515625" lon="11.04451873339712619781494140625">
        <ele>1771.199951171875</ele>
        <time>2026-09-01T08:39:46.000Z</time>
        <extensions>
          <ns3:TrackPointExtension>
            <ns3:hr>158</ns3:hr>
            <ns3:cad>0</ns3:cad>
          </ns3:TrackPointExtension>
        </extensions>
      </trkpt>
      <trkpt lat="47.538358457386493682861328125" lon="11.04453097097575664520263671875">
        <ele>1771.800048828125</ele>
        <time>2026-09-01T08:39:47.000Z</time>
        <extensions>
          <ns3:TrackPointExtension>
            <ns3:hr>157</ns3:hr>
            <ns3:cad>0</ns3:cad>
          </ns3:TrackPointExtension>
        </extensions>
      </trkpt>
      <trkpt lat="47.53835904411971569061279296875" lon="11.04454387910664081573486328125">
        <ele>1772.5999755859375</ele>
        <time>2026-09-01T08:39:48.000Z</time>
        <extensions>
          <ns3:TrackPointExtension>
            <ns3:hr>156</ns3:hr>
            <ns3:cad>0</ns3:cad>
          </ns3:TrackPointExtension>
        </extensions>
      </trkpt>
      <trkpt lat="47.53836088813841342926025390625" lon="11.044555194675922393798828125">
        <ele>1773.199951171875</ele>
        <time>2026-09-01T08:39:49.000Z</time>
        <extensions>
          <ns3:TrackPointExtension>
            <ns3:hr>155</ns3:hr>
            <ns3:cad>48</ns3:cad>
          </ns3:TrackPointExtension>
        </extensions>
      </trkpt>
      <trkpt lat="47.53836340270936489105224609375" lon="11.04456399567425251007080078125">
        <ele>1773.800048828125</ele>
        <time>2026-09-01T08:39:50.000Z</time>
        <extensions>
          <ns3:TrackPointExtension>
            <ns3:hr>155</ns3:hr>
            <ns3:cad>48</ns3:cad>
          </ns3:TrackPointExtension>
        </extensions>
      </trkpt>
      <trkpt lat="47.53837714903056621551513671875" lon="11.04457371868193149566650390625">
        <ele>1774</ele>
        <time>2026-09-01T08:39:51.000Z</time>
        <extensions>
          <ns3:TrackPointExtension>
            <ns3:hr>154</ns3:hr>
            <ns3:cad>48</ns3:cad>
          </ns3:TrackPointExtension>
        </extensions>
      </trkpt>
      <trkpt lat="47.5383841060101985931396484375" lon="11.0445848666131496429443359375">
        <ele>1774.199951171875</ele>
        <time>2026-09-01T08:39:52.000Z</time>
        <extensions>
          <ns3:TrackPointExtension>
            <ns3:hr>154</ns3:hr>
            <ns3:cad>0</ns3:cad>
          </ns3:TrackPointExtension>
        </extensions>
      </trkpt>
      <trkpt lat="47.53839097917079925537109375" lon="11.044596098363399505615234375">
        <ele>1774.199951171875</ele>
        <time>2026-09-01T08:39:53.000Z</time>
        <extensions>
          <ns3:TrackPointExtension>
            <ns3:hr>153</ns3:hr>
            <ns3:cad>0</ns3:cad>
          </ns3:TrackPointExtension>
        </extensions>
      </trkpt>
      <trkpt lat="47.538397349417209625244140625" lon="11.04460707865655422210693359375">
        <ele>1774</ele>
        <time>2026-09-01T08:39:54.000Z</time>
        <extensions>
          <ns3:TrackPointExtension>
            <ns3:hr>153</ns3:hr>
            <ns3:cad>0</ns3:cad>
          </ns3:TrackPointExtension>
        </extensions>
      </trkpt>
      <trkpt lat="47.538404725492000579833984375" lon="11.0446197353303432464599609375">
        <ele>1773.800048828125</ele>
        <time>2026-09-01T08:39:55.000Z</time>
        <extensions>
          <ns3:TrackPointExtension>
            <ns3:hr>153</ns3:hr>
            <ns3:cad>50</ns3:cad>
          </ns3:TrackPointExtension>
        </extensions>
      </trkpt>
      <trkpt lat="47.53841235302388668060302734375" lon="11.04463197290897369384765625">
        <ele>1774</ele>
        <time>2026-09-01T08:39:56.000Z</time>
        <extensions>
          <ns3:TrackPointExtension>
            <ns3:hr>154</ns3:hr>
            <ns3:cad>50</ns3:cad>
          </ns3:TrackPointExtension>
        </extensions>
      </trkpt>
      <trkpt lat="47.53841620869934558868408203125" lon="11.04464027099311351776123046875">
        <ele>1774.5999755859375</ele>
        <time>2026-09-01T08:39:57.000Z</time>
        <extensions>
          <ns3:TrackPointExtension>
            <ns3:hr>155</ns3:hr>
            <ns3:cad>49</ns3:cad>
          </ns3:TrackPointExtension>
        </extensions>
      </trkpt>
      <trkpt lat="47.53842324949800968170166015625" lon="11.044656448066234588623046875">
        <ele>1775</ele>
        <time>2026-09-01T08:39:58.000Z</time>
        <extensions>
          <ns3:TrackPointExtension>
            <ns3:hr>157</ns3:hr>
            <ns3:cad>49</ns3:cad>
          </ns3:TrackPointExtension>
        </extensions>
      </trkpt>
      <trkpt lat="47.5384276919066905975341796875" lon="11.04466726072132587432861328125">
        <ele>1775.800048828125</ele>
        <time>2026-09-01T08:39:59.000Z</time>
        <extensions>
          <ns3:TrackPointExtension>
            <ns3:hr>157</ns3:hr>
            <ns3:cad>50</ns3:cad>
          </ns3:TrackPointExtension>
        </extensions>
      </trkpt>
      <trkpt lat="47.53842894919216632843017578125" lon="11.04467530734837055206298828125">
        <ele>1776</ele>
        <time>2026-09-01T08:40:00.000Z</time>
        <extensions>
          <ns3:TrackPointExtension>
            <ns3:hr>158</ns3:hr>
            <ns3:cad>50</ns3:cad>
          </ns3:TrackPointExtension>
        </extensions>
      </trkpt>
      <trkpt lat="47.53843246959149837493896484375" lon="11.044687293469905853271484375">
        <ele>1776.199951171875</ele>
        <time>2026-09-01T08:40:01.000Z</time>
        <extensions>
          <ns3:TrackPointExtension>
            <ns3:hr>158</ns3:hr>
            <ns3:cad>50</ns3:cad>
          </ns3:TrackPointExtension>
        </extensions>
      </trkpt>
      <trkpt lat="47.53843481652438640594482421875" lon="11.04470229707658290863037109375">
        <ele>1776.5999755859375</ele>
        <time>2026-09-01T08:40:02.000Z</time>
        <extensions>
          <ns3:TrackPointExtension>
            <ns3:hr>159</ns3:hr>
            <ns3:cad>50</ns3:cad>
          </ns3:TrackPointExtension>
        </extensions>
      </trkpt>
      <trkpt lat="47.538434900343418121337890625" lon="11.04470984078943729400634765625">
        <ele>1776.800048828125</ele>
        <time>2026-09-01T08:40:03.000Z</time>
        <extensions>
          <ns3:TrackPointExtension>
            <ns3:hr>159</ns3:hr>
            <ns3:cad>50</ns3:cad>
          </ns3:TrackPointExtension>
        </extensions>
      </trkpt>
      <trkpt lat="47.53843951039016246795654296875" lon="11.0447276942431926727294921875">
        <ele>1777</ele>
        <time>2026-09-01T08:40:04.000Z</time>
        <extensions>
          <ns3:TrackPointExtension>
            <ns3:hr>160</ns3:hr>
            <ns3:cad>50</ns3:cad>
          </ns3:TrackPointExtension>
        </extensions>
      </trkpt>
      <trkpt lat="47.5384354032576084136962890625" lon="11.04473783634603023529052734375">
        <ele>1777.199951171875</ele>
        <time>2026-09-01T08:40:05.000Z</time>
        <extensions>
          <ns3:TrackPointExtension>
            <ns3:hr>160</ns3:hr>
            <ns3:cad>50</ns3:cad>
          </ns3:TrackPointExtension>
        </extensions>
      </trkpt>
      <trkpt lat="47.5384407676756381988525390625" lon="11.04474755935370922088623046875">
        <ele>1777.5999755859375</ele>
        <time>2026-09-01T08:40:06.000Z</time>
        <extensions>
          <ns3:TrackPointExtension>
            <ns3:hr>160</ns3:hr>
            <ns3:cad>50</ns3:cad>
          </ns3:TrackPointExtension>
        </extensions>
      </trkpt>
      <trkpt lat="47.53844135440886020660400390625" lon="11.04475795291364192962646484375">
        <ele>1777.800048828125</ele>
        <time>2026-09-01T08:40:07.000Z</time>
        <extensions>
          <ns3:TrackPointExtension>
            <ns3:hr>161</ns3:hr>
            <ns3:cad>50</ns3:cad>
          </ns3:TrackPointExtension>
        </extensions>
      </trkpt>
      <trkpt lat="47.53844453953206539154052734375" lon="11.044770441949367523193359375">
        <ele>1778</ele>
        <time>2026-09-01T08:40:08.000Z</time>
        <extensions>
          <ns3:TrackPointExtension>
            <ns3:hr>161</ns3:hr>
            <ns3:cad>50</ns3:cad>
          </ns3:TrackPointExtension>
        </extensions>
      </trkpt>
      <trkpt lat="47.53845174796879291534423828125" lon="11.04478192515671253204345703125">
        <ele>1778.199951171875</ele>
        <time>2026-09-01T08:40:09.000Z</time>
        <extensions>
          <ns3:TrackPointExtension>
            <ns3:hr>161</ns3:hr>
            <ns3:cad>50</ns3:cad>
          </ns3:TrackPointExtension>
        </extensions>
      </trkpt>
      <trkpt lat="47.53845677711069583892822265625" lon="11.04479399509727954864501953125">
        <ele>1778.4000244140625</ele>
        <time>2026-09-01T08:40:10.000Z</time>
        <extensions>
          <ns3:TrackPointExtension>
            <ns3:hr>162</ns3:hr>
            <ns3:cad>50</ns3:cad>
          </ns3:TrackPointExtension>
        </extensions>
      </trkpt>
      <trkpt lat="47.538464404642581939697265625" lon="11.04480941779911518096923828125">
        <ele>1778.5999755859375</ele>
        <time>2026-09-01T08:40:11.000Z</time>
        <extensions>
          <ns3:TrackPointExtension>
            <ns3:hr>162</ns3:hr>
            <ns3:cad>50</ns3:cad>
          </ns3:TrackPointExtension>
        </extensions>
      </trkpt>
      <trkpt lat="47.5384719483554363250732421875" lon="11.04482148773968219757080078125">
        <ele>1779</ele>
        <time>2026-09-01T08:40:12.000Z</time>
        <extensions>
          <ns3:TrackPointExtension>
            <ns3:hr>162</ns3:hr>
            <ns3:cad>50</ns3:cad>
          </ns3:TrackPointExtension>
        </extensions>
      </trkpt>
      <trkpt lat="47.53847689367830753326416015625" lon="11.04483355768024921417236328125">
        <ele>1779.199951171875</ele>
        <time>2026-09-01T08:40:13.000Z</time>
        <extensions>
          <ns3:TrackPointExtension>
            <ns3:hr>163</ns3:hr>
            <ns3:cad>50</ns3:cad>
          </ns3:TrackPointExtension>
        </extensions>
      </trkpt>
      <trkpt lat="47.5384799949824810028076171875" lon="11.04484562762081623077392578125">
        <ele>1779.5999755859375</ele>
        <time>2026-09-01T08:40:14.000Z</time>
        <extensions>
          <ns3:TrackPointExtension>
            <ns3:hr>163</ns3:hr>
            <ns3:cad>50</ns3:cad>
          </ns3:TrackPointExtension>
        </extensions>
      </trkpt>
      <trkpt lat="47.53848577849566936492919921875" lon="11.04486473836004734039306640625">
        <ele>1779.800048828125</ele>
        <time>2026-09-01T08:40:15.000Z</time>
        <extensions>
          <ns3:TrackPointExtension>
            <ns3:hr>163</ns3:hr>
            <ns3:cad>53</ns3:cad>
          </ns3:TrackPointExtension>
        </extensions>
      </trkpt>
      <trkpt lat="47.5384843535721302032470703125" lon="11.04488485492765903472900390625">
        <ele>1779.800048828125</ele>
        <time>2026-09-01T08:40:16.000Z</time>
        <extensions>
          <ns3:TrackPointExtension>
            <ns3:hr>163</ns3:hr>
            <ns3:cad>56</ns3:cad>
          </ns3:TrackPointExtension>
        </extensions>
      </trkpt>
      <trkpt lat="47.53847219981253147125244140625" lon="11.0449063964188098907470703125">
        <ele>1779.800048828125</ele>
        <time>2026-09-01T08:40:17.000Z</time>
        <extensions>
          <ns3:TrackPointExtension>
            <ns3:hr>163</ns3:hr>
            <ns3:cad>56</ns3:cad>
          </ns3:TrackPointExtension>
        </extensions>
      </trkpt>
      <trkpt lat="47.5384669192135334014892578125" lon="11.0449228249490261077880859375">
        <ele>1780</ele>
        <time>2026-09-01T08:40:18.000Z</time>
        <extensions>
          <ns3:TrackPointExtension>
            <ns3:hr>162</ns3:hr>
            <ns3:cad>53</ns3:cad>
          </ns3:TrackPointExtension>
        </extensions>
      </trkpt>
      <trkpt lat="47.53846113570034503936767578125" lon="11.04493430815637111663818359375">
        <ele>1780</ele>
        <time>2026-09-01T08:40:19.000Z</time>
        <extensions>
          <ns3:TrackPointExtension>
            <ns3:hr>162</ns3:hr>
            <ns3:cad>53</ns3:cad>
          </ns3:TrackPointExtension>
        </extensions>
      </trkpt>
      <trkpt lat="47.53845510073006153106689453125" lon="11.04495056904852390289306640625">
        <ele>1780</ele>
        <time>2026-09-01T08:40:20.000Z</time>
        <extensions>
          <ns3:TrackPointExtension>
            <ns3:hr>161</ns3:hr>
            <ns3:cad>53</ns3:cad>
          </ns3:TrackPointExtension>
        </extensions>
      </trkpt>
      <trkpt lat="47.5384493172168731689453125" lon="11.04496724903583526611328125">
        <ele>1780.199951171875</ele>
        <time>2026-09-01T08:40:21.000Z</time>
        <extensions>
          <ns3:TrackPointExtension>
            <ns3:hr>160</ns3:hr>
            <ns3:cad>0</ns3:cad>
          </ns3:TrackPointExtension>
        </extensions>
      </trkpt>
      <trkpt lat="47.538448311388492584228515625" lon="11.04497856460511684417724609375">
        <ele>1780.5999755859375</ele>
        <time>2026-09-01T08:40:22.000Z</time>
        <extensions>
          <ns3:TrackPointExtension>
            <ns3:hr>161</ns3:hr>
            <ns3:cad>0</ns3:cad>
          </ns3:TrackPointExtension>
        </extensions>
      </trkpt>
      <trkpt lat="47.538446299731731414794921875" lon="11.044986359775066375732421875">
        <ele>1781</ele>
        <time>2026-09-01T08:40:23.000Z</time>
        <extensions>
          <ns3:TrackPointExtension>
            <ns3:hr>161</ns3:hr>
            <ns3:cad>0</ns3:cad>
          </ns3:TrackPointExtension>
        </extensions>
      </trkpt>
      <trkpt lat="47.538445629179477691650390625" lon="11.044998429715633392333984375">
        <ele>1781.4000244140625</ele>
        <time>2026-09-01T08:40:24.000Z</time>
        <extensions>
          <ns3:TrackPointExtension>
            <ns3:hr>161</ns3:hr>
            <ns3:cad>0</ns3:cad>
          </ns3:TrackPointExtension>
        </extensions>
      </trkpt>
      <trkpt lat="47.5384454615414142608642578125" lon="11.04501209221780300140380859375">
        <ele>1781.800048828125</ele>
        <time>2026-09-01T08:40:25.000Z</time>
        <extensions>
          <ns3:TrackPointExtension>
            <ns3:hr>162</ns3:hr>
            <ns3:cad>0</ns3:cad>
          </ns3:TrackPointExtension>
        </extensions>
      </trkpt>
      <trkpt lat="47.53844789229333400726318359375" lon="11.04502533562481403350830078125">
        <ele>1782</ele>
        <time>2026-09-01T08:40:26.000Z</time>
        <extensions>
          <ns3:TrackPointExtension>
            <ns3:hr>162</ns3:hr>
            <ns3:cad>48</ns3:cad>
          </ns3:TrackPointExtension>
        </extensions>
      </trkpt>
      <trkpt lat="47.538450323045253753662109375" lon="11.04504427872598171234130859375">
        <ele>1782</ele>
        <time>2026-09-01T08:40:27.000Z</time>
        <extensions>
          <ns3:TrackPointExtension>
            <ns3:hr>162</ns3:hr>
            <ns3:cad>48</ns3:cad>
          </ns3:TrackPointExtension>
        </extensions>
      </trkpt>
      <trkpt lat="47.53845308907330036163330078125" lon="11.04506070725619792938232421875">
        <ele>1782</ele>
        <time>2026-09-01T08:40:28.000Z</time>
        <extensions>
          <ns3:TrackPointExtension>
            <ns3:hr>162</ns3:hr>
            <ns3:cad>48</ns3:cad>
          </ns3:TrackPointExtension>
        </extensions>
      </trkpt>
      <trkpt lat="47.53845577128231525421142578125" lon="11.0450807400047779083251953125">
        <ele>1782.199951171875</ele>
        <time>2026-09-01T08:40:29.000Z</time>
        <extensions>
          <ns3:TrackPointExtension>
            <ns3:hr>162</ns3:hr>
            <ns3:cad>48</ns3:cad>
          </ns3:TrackPointExtension>
        </extensions>
      </trkpt>
      <trkpt lat="47.5384618900716304779052734375" lon="11.0450886189937591552734375">
        <ele>1782.4000244140625</ele>
        <time>2026-09-01T08:40:30.000Z</time>
        <extensions>
          <ns3:TrackPointExtension>
            <ns3:hr>163</ns3:hr>
            <ns3:cad>48</ns3:cad>
          </ns3:TrackPointExtension>
        </extensions>
      </trkpt>
      <trkpt lat="47.53846616484224796295166015625" lon="11.04510680772364139556884765625">
        <ele>1782.800048828125</ele>
        <time>2026-09-01T08:40:31.000Z</time>
        <extensions>
          <ns3:TrackPointExtension>
            <ns3:hr>163</ns3:hr>
            <ns3:cad>48</ns3:cad>
          </ns3:TrackPointExtension>
        </extensions>
      </trkpt>
      <trkpt lat="47.53846867941319942474365234375" lon="11.0451249964535236358642578125">
        <ele>1783.199951171875</ele>
        <time>2026-09-01T08:40:32.000Z</time>
        <extensions>
          <ns3:TrackPointExtension>
            <ns3:hr>163</ns3:hr>
            <ns3:cad>48</ns3:cad>
          </ns3:TrackPointExtension>
        </extensions>
      </trkpt>
      <trkpt lat="47.5384682603180408477783203125" lon="11.04513899423182010650634765625">
        <ele>1783.800048828125</ele>
        <time>2026-09-01T08:40:33.000Z</time>
        <extensions>
          <ns3:TrackPointExtension>
            <ns3:hr>163</ns3:hr>
            <ns3:cad>48</ns3:cad>
          </ns3:TrackPointExtension>
        </extensions>
      </trkpt>
      <trkpt lat="47.53846297971904277801513671875" lon="11.04514251463115215301513671875">
        <ele>1784.199951171875</ele>
        <time>2026-09-01T08:40:34.000Z</time>
        <extensions>
          <ns3:TrackPointExtension>
            <ns3:hr>163</ns3:hr>
            <ns3:cad>0</ns3:cad>
          </ns3:TrackPointExtension>
        </extensions>
      </trkpt>
      <trkpt lat="47.53846817649900913238525390625" lon="11.04514586739242076873779296875">
        <ele>1784.199951171875</ele>
        <time>2026-09-01T08:40:35.000Z</time>
        <extensions>
          <ns3:TrackPointExtension>
            <ns3:hr>163</ns3:hr>
            <ns3:cad>0</ns3:cad>
          </ns3:TrackPointExtension>
        </extensions>
      </trkpt>
      <trkpt lat="47.53847337327897548675537109375" lon="11.04515139944851398468017578125">
        <ele>1784.4000244140625</ele>
        <time>2026-09-01T08:40:36.000Z</time>
        <extensions>
          <ns3:TrackPointExtension>
            <ns3:hr>163</ns3:hr>
            <ns3:cad>0</ns3:cad>
          </ns3:TrackPointExtension>
        </extensions>
      </trkpt>
      <trkpt lat="47.5384763069450855255126953125" lon="11.0451605357229709625244140625">
        <ele>1784.4000244140625</ele>
        <time>2026-09-01T08:40:37.000Z</time>
        <extensions>
          <ns3:TrackPointExtension>
            <ns3:hr>163</ns3:hr>
            <ns3:cad>0</ns3:cad>
          </ns3:TrackPointExtension>
        </extensions>
      </trkpt>
      <trkpt lat="47.5384796597063541412353515625" lon="11.04517042636871337890625">
        <ele>1784.4000244140625</ele>
        <time>2026-09-01T08:40:38.000Z</time>
        <extensions>
          <ns3:TrackPointExtension>
            <ns3:hr>163</ns3:hr>
            <ns3:cad>52</ns3:cad>
          </ns3:TrackPointExtension>
        </extensions>
      </trkpt>
      <trkpt lat="47.538482509553432464599609375" lon="11.0451752878725528717041015625">
        <ele>1784.4000244140625</ele>
        <time>2026-09-01T08:40:39.000Z</time>
        <extensions>
          <ns3:TrackPointExtension>
            <ns3:hr>164</ns3:hr>
            <ns3:cad>52</ns3:cad>
          </ns3:TrackPointExtension>
        </extensions>
      </trkpt>
      <trkpt lat="47.53848510794341564178466796875" lon="11.04518626816570758819580078125">
        <ele>1784.5999755859375</ele>
        <time>2026-09-01T08:40:40.000Z</time>
        <extensions>
          <ns3:TrackPointExtension>
            <ns3:hr>164</ns3:hr>
            <ns3:cad>52</ns3:cad>
          </ns3:TrackPointExtension>
        </extensions>
      </trkpt>
      <trkpt lat="47.538489215075969696044921875" lon="11.045202277600765228271484375">
        <ele>1785</ele>
        <time>2026-09-01T08:40:41.000Z</time>
        <extensions>
          <ns3:TrackPointExtension>
            <ns3:hr>164</ns3:hr>
            <ns3:cad>49</ns3:cad>
          </ns3:TrackPointExtension>
        </extensions>
      </trkpt>
      <trkpt lat="47.5384940765798091888427734375" lon="11.04520990513265132904052734375">
        <ele>1785.199951171875</ele>
        <time>2026-09-01T08:40:42.000Z</time>
        <extensions>
          <ns3:TrackPointExtension>
            <ns3:hr>164</ns3:hr>
            <ns3:cad>49</ns3:cad>
          </ns3:TrackPointExtension>
        </extensions>
      </trkpt>
      <trkpt lat="47.5385007821023464202880859375" lon="11.0452200472354888916015625">
        <ele>1785.5999755859375</ele>
        <time>2026-09-01T08:40:43.000Z</time>
        <extensions>
          <ns3:TrackPointExtension>
            <ns3:hr>163</ns3:hr>
            <ns3:cad>49</ns3:cad>
          </ns3:TrackPointExtension>
        </extensions>
      </trkpt>
      <trkpt lat="47.538509331643581390380859375" lon="11.0452349670231342315673828125">
        <ele>1785.800048828125</ele>
        <time>2026-09-01T08:40:44.000Z</time>
        <extensions>
          <ns3:TrackPointExtension>
            <ns3:hr>162</ns3:hr>
            <ns3:cad>49</ns3:cad>
          </ns3:TrackPointExtension>
        </extensions>
      </trkpt>
      <trkpt lat="47.5385131873190402984619140625" lon="11.0452507250010967254638671875">
        <ele>1786</ele>
        <time>2026-09-01T08:40:45.000Z</time>
        <extensions>
          <ns3:TrackPointExtension>
            <ns3:hr>161</ns3:hr>
            <ns3:cad>49</ns3:cad>
          </ns3:TrackPointExtension>
        </extensions>
      </trkpt>
      <trkpt lat="47.538515366613864898681640625" lon="11.04526891373097896575927734375">
        <ele>1786</ele>
        <time>2026-09-01T08:40:46.000Z</time>
        <extensions>
          <ns3:TrackPointExtension>
            <ns3:hr>160</ns3:hr>
            <ns3:cad>49</ns3:cad>
          </ns3:TrackPointExtension>
        </extensions>
      </trkpt>
      <trkpt lat="47.538490556180477142333984375" lon="11.04528919793665409088134765625">
        <ele>1786</ele>
        <time>2026-09-01T08:40:47.000Z</time>
        <extensions>
          <ns3:TrackPointExtension>
            <ns3:hr>158</ns3:hr>
            <ns3:cad>49</ns3:cad>
          </ns3:TrackPointExtension>
        </extensions>
      </trkpt>
      <trkpt lat="47.538484521210193634033203125" lon="11.045302860438823699951171875">
        <ele>1786</ele>
        <time>2026-09-01T08:40:48.000Z</time>
        <extensions>
          <ns3:TrackPointExtension>
            <ns3:hr>157</ns3:hr>
            <ns3:cad>49</ns3:cad>
          </ns3:TrackPointExtension>
        </extensions>
      </trkpt>
      <trkpt lat="47.53848058171570301055908203125" lon="11.04531451128423213958740234375">
        <ele>1786.199951171875</ele>
        <time>2026-09-01T08:40:49.000Z</time>
        <extensions>
          <ns3:TrackPointExtension>
            <ns3:hr>156</ns3:hr>
            <ns3:cad>52</ns3:cad>
          </ns3:TrackPointExtension>
        </extensions>
      </trkpt>
      <trkpt lat="47.53847974352538585662841796875" lon="11.04533605277538299560546875">
        <ele>1786.4000244140625</ele>
        <time>2026-09-01T08:40:50.000Z</time>
        <extensions>
          <ns3:TrackPointExtension>
            <ns3:hr>156</ns3:hr>
            <ns3:cad>52</ns3:cad>
          </ns3:TrackPointExtension>
        </extensions>
      </trkpt>
      <trkpt lat="47.53848217427730560302734375" lon="11.04536144994199275970458984375">
        <ele>1786.4000244140625</ele>
        <time>2026-09-01T08:40:51.000Z</time>
        <extensions>
          <ns3:TrackPointExtension>
            <ns3:hr>156</ns3:hr>
            <ns3:cad>52</ns3:cad>
          </ns3:TrackPointExtension>
        </extensions>
      </trkpt>
      <trkpt lat="47.53848963417112827301025390625" lon="11.0453938879072666168212890625">
        <ele>1786.5999755859375</ele>
        <time>2026-09-01T08:40:52.000Z</time>
        <extensions>
          <ns3:TrackPointExtension>
            <ns3:hr>156</ns3:hr>
            <ns3:cad>52</ns3:cad>
          </ns3:TrackPointExtension>
        </extensions>
      </trkpt>
      <trkpt lat="47.53849265165627002716064453125" lon="11.04541911743581295013427734375">
        <ele>1786.5999755859375</ele>
        <time>2026-09-01T08:40:53.000Z</time>
        <extensions>
          <ns3:TrackPointExtension>
            <ns3:hr>156</ns3:hr>
            <ns3:cad>52</ns3:cad>
          </ns3:TrackPointExtension>
        </extensions>
      </trkpt>
      <trkpt lat="47.5385004468262195587158203125" lon="11.04544334113597869873046875">
        <ele>1786.5999755859375</ele>
        <time>2026-09-01T08:40:54.000Z</time>
        <extensions>
          <ns3:TrackPointExtension>
            <ns3:hr>156</ns3:hr>
            <ns3:cad>52</ns3:cad>
          </ns3:TrackPointExtension>
        </extensions>
      </trkpt>
      <trkpt lat="47.5385061465203762054443359375" lon="11.04546538554131984710693359375">
        <ele>1786.800048828125</ele>
        <time>2026-09-01T08:40:55.000Z</time>
        <extensions>
          <ns3:TrackPointExtension>
            <ns3:hr>156</ns3:hr>
            <ns3:cad>79</ns3:cad>
          </ns3:TrackPointExtension>
        </extensions>
      </trkpt>
      <trkpt lat="47.53851176239550113677978515625" lon="11.04548030532896518707275390625">
        <ele>1787</ele>
        <time>2026-09-01T08:40:56.000Z</time>
        <extensions>
          <ns3:TrackPointExtension>
            <ns3:hr>157</ns3:hr>
            <ns3:cad>79</ns3:cad>
          </ns3:TrackPointExtension>
        </extensions>
      </trkpt>
      <trkpt lat="47.5385195575654506683349609375" lon="11.04550578631460666656494140625">
        <ele>1787.199951171875</ele>
        <time>2026-09-01T08:40:57.000Z</time>
        <extensions>
          <ns3:TrackPointExtension>
            <ns3:hr>157</ns3:hr>
            <ns3:cad>0</ns3:cad>
          </ns3:TrackPointExtension>
        </extensions>
      </trkpt>
      <trkpt lat="47.538525760173797607421875" lon="11.04552590288221836090087890625">
        <ele>1787.5999755859375</ele>
        <time>2026-09-01T08:40:58.000Z</time>
        <extensions>
          <ns3:TrackPointExtension>
            <ns3:hr>157</ns3:hr>
            <ns3:cad>0</ns3:cad>
          </ns3:TrackPointExtension>
        </extensions>
      </trkpt>
      <trkpt lat="47.53852785564959049224853515625" lon="11.04553093202412128448486328125">
        <ele>1788</ele>
        <time>2026-09-01T08:40:59.000Z</time>
        <extensions>
          <ns3:TrackPointExtension>
            <ns3:hr>157</ns3:hr>
            <ns3:cad>0</ns3:cad>
          </ns3:TrackPointExtension>
        </extensions>
      </trkpt>
      <trkpt lat="47.5385316275060176849365234375" lon="11.0455410741269588470458984375">
        <ele>1788.199951171875</ele>
        <time>2026-09-01T08:41:00.000Z</time>
        <extensions>
          <ns3:TrackPointExtension>
            <ns3:hr>157</ns3:hr>
            <ns3:cad>0</ns3:cad>
          </ns3:TrackPointExtension>
        </extensions>
      </trkpt>
      <trkpt lat="47.538532800972461700439453125" lon="11.04554660618305206298828125">
        <ele>1788.5999755859375</ele>
        <time>2026-09-01T08:41:01.000Z</time>
        <extensions>
          <ns3:TrackPointExtension>
            <ns3:hr>157</ns3:hr>
            <ns3:cad>0</ns3:cad>
          </ns3:TrackPointExtension>
        </extensions>
      </trkpt>
      <trkpt lat="47.538536489009857177734375" lon="11.04555909521877765655517578125">
        <ele>1789</ele>
        <time>2026-09-01T08:41:02.000Z</time>
        <extensions>
          <ns3:TrackPointExtension>
            <ns3:hr>157</ns3:hr>
            <ns3:cad>0</ns3:cad>
          </ns3:TrackPointExtension>
        </extensions>
      </trkpt>
      <trkpt lat="47.5385386683046817779541015625" lon="11.0455662198364734649658203125">
        <ele>1789.4000244140625</ele>
        <time>2026-09-01T08:41:03.000Z</time>
        <extensions>
          <ns3:TrackPointExtension>
            <ns3:hr>156</ns3:hr>
            <ns3:cad>75</ns3:cad>
          </ns3:TrackPointExtension>
        </extensions>
      </trkpt>
      <trkpt lat="47.5385406799614429473876953125" lon="11.04557703249156475067138671875">
        <ele>1789.800048828125</ele>
        <time>2026-09-01T08:41:04.000Z</time>
        <extensions>
          <ns3:TrackPointExtension>
            <ns3:hr>155</ns3:hr>
            <ns3:cad>75</ns3:cad>
          </ns3:TrackPointExtension>
        </extensions>
      </trkpt>
      <trkpt lat="47.538541518151760101318359375" lon="11.04559161700308322906494140625">
        <ele>1790</ele>
        <time>2026-09-01T08:41:05.000Z</time>
        <extensions>
          <ns3:TrackPointExtension>
            <ns3:hr>153</ns3:hr>
            <ns3:cad>75</ns3:cad>
          </ns3:TrackPointExtension>
        </extensions>
      </trkpt>
      <trkpt lat="47.538542859256267547607421875" lon="11.0456047765910625457763671875">
        <ele>1790.199951171875</ele>
        <time>2026-09-01T08:41:06.000Z</time>
        <extensions>
          <ns3:TrackPointExtension>
            <ns3:hr>152</ns3:hr>
            <ns3:cad>75</ns3:cad>
          </ns3:TrackPointExtension>
        </extensions>
      </trkpt>
      <trkpt lat="47.5385420210659503936767578125" lon="11.0456295870244503021240234375">
        <ele>1790.199951171875</ele>
        <time>2026-09-01T08:41:07.000Z</time>
        <extensions>
          <ns3:TrackPointExtension>
            <ns3:hr>151</ns3:hr>
            <ns3:cad>75</ns3:cad>
          </ns3:TrackPointExtension>
        </extensions>
      </trkpt>
      <trkpt lat="47.5385400094091892242431640625" lon="11.045647524297237396240234375">
        <ele>1790.199951171875</ele>
        <time>2026-09-01T08:41:08.000Z</time>
        <extensions>
          <ns3:TrackPointExtension>
            <ns3:hr>150</ns3:hr>
            <ns3:cad>47</ns3:cad>
          </ns3:TrackPointExtension>
        </extensions>
      </trkpt>
      <trkpt lat="47.53852969966828823089599609375" lon="11.0456607677042484283447265625">
        <ele>1790.4000244140625</ele>
        <time>2026-09-01T08:41:09.000Z</time>
        <extensions>
          <ns3:TrackPointExtension>
            <ns3:hr>150</ns3:hr>
            <ns3:cad>0</ns3:cad>
          </ns3:TrackPointExtension>
        </extensions>
      </trkpt>
      <trkpt lat="47.538526095449924468994140625" lon="11.0456765256822109222412109375">
        <ele>1790.4000244140625</ele>
        <time>2026-09-01T08:41:10.000Z</time>
        <extensions>
          <ns3:TrackPointExtension>
            <ns3:hr>150</ns3:hr>
            <ns3:cad>0</ns3:cad>
          </ns3:TrackPointExtension>
        </extensions>
      </trkpt>
      <trkpt lat="47.53852416761219501495361328125" lon="11.04569303803145885467529296875">
        <ele>1790.4000244140625</ele>
        <time>2026-09-01T08:41:11.000Z</time>
        <extensions>
          <ns3:TrackPointExtension>
            <ns3:hr>150</ns3:hr>
            <ns3:cad>0</ns3:cad>
          </ns3:TrackPointExtension>
        </extensions>
      </trkpt>
      <trkpt lat="47.53852399997413158416748046875" lon="11.0457077063620090484619140625">
        <ele>1790.5999755859375</ele>
        <time>2026-09-01T08:41:12.000Z</time>
        <extensions>
          <ns3:TrackPointExtension>
            <ns3:hr>151</ns3:hr>
            <ns3:cad>0</ns3:cad>
          </ns3:TrackPointExtension>
        </extensions>
      </trkpt>
      <trkpt lat="47.5385297834873199462890625" lon="11.04571969248354434967041015625">
        <ele>1790.5999755859375</ele>
        <time>2026-09-01T08:41:13.000Z</time>
        <extensions>
          <ns3:TrackPointExtension>
            <ns3:hr>154</ns3:hr>
            <ns3:cad>49</ns3:cad>
          </ns3:TrackPointExtension>
        </extensions>
      </trkpt>
      <trkpt lat="47.53853154368698596954345703125" lon="11.04573176242411136627197265625">
        <ele>1790.800048828125</ele>
        <time>2026-09-01T08:41:14.000Z</time>
        <extensions>
          <ns3:TrackPointExtension>
            <ns3:hr>160</ns3:hr>
            <ns3:cad>50</ns3:cad>
          </ns3:TrackPointExtension>
        </extensions>
      </trkpt>
      <trkpt lat="47.5385336391627788543701171875" lon="11.0457430779933929443359375">
        <ele>1791.199951171875</ele>
        <time>2026-09-01T08:41:15.000Z</time>
        <extensions>
          <ns3:TrackPointExtension>
            <ns3:hr>162</ns3:hr>
            <ns3:cad>50</ns3:cad>
          </ns3:TrackPointExtension>
        </extensions>
      </trkpt>
      <trkpt lat="47.5385366566479206085205078125" lon="11.04575003497302532196044921875">
        <ele>1791.5999755859375</ele>
        <time>2026-09-01T08:41:16.000Z</time>
        <extensions>
          <ns3:TrackPointExtension>
            <ns3:hr>163</ns3:hr>
            <ns3:cad>50</ns3:cad>
          </ns3:TrackPointExtension>
        </extensions>
      </trkpt>
      <trkpt lat="47.5385396741330623626708984375" lon="11.04575975798070430755615234375">
        <ele>1792</ele>
        <time>2026-09-01T08:41:17.000Z</time>
        <extensions>
          <ns3:TrackPointExtension>
            <ns3:hr>163</ns3:hr>
            <ns3:cad>49</ns3:cad>
          </ns3:TrackPointExtension>
        </extensions>
      </trkpt>
      <trkpt lat="47.53854210488498210906982421875" lon="11.04577191174030303955078125">
        <ele>1792.199951171875</ele>
        <time>2026-09-01T08:41:18.000Z</time>
        <extensions>
          <ns3:TrackPointExtension>
            <ns3:hr>164</ns3:hr>
            <ns3:cad>49</ns3:cad>
          </ns3:TrackPointExtension>
        </extensions>
      </trkpt>
      <trkpt lat="47.538543529808521270751953125" lon="11.04577668942511081695556640625">
        <ele>1792.5999755859375</ele>
        <time>2026-09-01T08:41:19.000Z</time>
        <extensions>
          <ns3:TrackPointExtension>
            <ns3:hr>164</ns3:hr>
            <ns3:cad>49</ns3:cad>
          </ns3:TrackPointExtension>
        </extensions>
      </trkpt>
      <trkpt lat="47.53854478709399700164794921875" lon="11.04579010047018527984619140625">
        <ele>1792.800048828125</ele>
        <time>2026-09-01T08:41:20.000Z</time>
        <extensions>
          <ns3:TrackPointExtension>
            <ns3:hr>163</ns3:hr>
            <ns3:cad>49</ns3:cad>
          </ns3:TrackPointExtension>
        </extensions>
      </trkpt>
      <trkpt lat="47.538547217845916748046875" lon="11.0457995720207691192626953125">
        <ele>1793</ele>
        <time>2026-09-01T08:41:21.000Z</time>
        <extensions>
          <ns3:TrackPointExtension>
            <ns3:hr>163</ns3:hr>
            <ns3:cad>49</ns3:cad>
          </ns3:TrackPointExtension>
        </extensions>
      </trkpt>
      <trkpt lat="47.5385453738272190093994140625" lon="11.04580619372427463531494140625">
        <ele>1793.199951171875</ele>
        <time>2026-09-01T08:41:22.000Z</time>
        <extensions>
          <ns3:TrackPointExtension>
            <ns3:hr>163</ns3:hr>
            <ns3:cad>49</ns3:cad>
          </ns3:TrackPointExtension>
        </extensions>
      </trkpt>
      <trkpt lat="47.5385426916182041168212890625" lon="11.045812480151653289794921875">
        <ele>1793.199951171875</ele>
        <time>2026-09-01T08:41:23.000Z</time>
        <extensions>
          <ns3:TrackPointExtension>
            <ns3:hr>163</ns3:hr>
            <ns3:cad>0</ns3:cad>
          </ns3:TrackPointExtension>
        </extensions>
      </trkpt>
      <trkpt lat="47.5385430268943309783935546875" lon="11.045829243957996368408203125">
        <ele>1793.5999755859375</ele>
        <time>2026-09-01T08:41:24.000Z</time>
        <extensions>
          <ns3:TrackPointExtension>
            <ns3:hr>162</ns3:hr>
            <ns3:cad>0</ns3:cad>
          </ns3:TrackPointExtension>
        </extensions>
      </trkpt>
      <trkpt lat="47.5385440327227115631103515625" lon="11.045843325555324554443359375">
        <ele>1793.5999755859375</ele>
        <time>2026-09-01T08:41:25.000Z</time>
        <extensions>
          <ns3:TrackPointExtension>
            <ns3:hr>163</ns3:hr>
            <ns3:cad>0</ns3:cad>
          </ns3:TrackPointExtension>
        </extensions>
      </trkpt>
      <trkpt lat="47.53854344598948955535888671875" lon="11.04585397057235240936279296875">
        <ele>1793.5999755859375</ele>
        <time>2026-09-01T08:41:26.000Z</time>
        <extensions>
          <ns3:TrackPointExtension>
            <ns3:hr>163</ns3:hr>
            <ns3:cad>0</ns3:cad>
          </ns3:TrackPointExtension>
        </extensions>
      </trkpt>
      <trkpt lat="47.5385393388569355010986328125" lon="11.04585916735231876373291015625">
        <ele>1793.800048828125</ele>
        <time>2026-09-01T08:41:27.000Z</time>
        <extensions>
          <ns3:TrackPointExtension>
            <ns3:hr>163</ns3:hr>
            <ns3:cad>0</ns3:cad>
          </ns3:TrackPointExtension>
        </extensions>
      </trkpt>
      <trkpt lat="47.53853824920952320098876953125" lon="11.04586453177034854888916015625">
        <ele>1794</ele>
        <time>2026-09-01T08:41:28.000Z</time>
        <extensions>
          <ns3:TrackPointExtension>
            <ns3:hr>162</ns3:hr>
            <ns3:cad>0</ns3:cad>
          </ns3:TrackPointExtension>
        </extensions>
      </trkpt>
      <trkpt lat="47.53853640519082546234130859375" lon="11.04587492533028125762939453125">
        <ele>1794</ele>
        <time>2026-09-01T08:41:29.000Z</time>
        <extensions>
          <ns3:TrackPointExtension>
            <ns3:hr>162</ns3:hr>
            <ns3:cad>44</ns3:cad>
          </ns3:TrackPointExtension>
        </extensions>
      </trkpt>
      <trkpt lat="47.5385369919240474700927734375" lon="11.04588950984179973602294921875">
        <ele>1794</ele>
        <time>2026-09-01T08:41:30.000Z</time>
        <extensions>
          <ns3:TrackPointExtension>
            <ns3:hr>161</ns3:hr>
            <ns3:cad>44</ns3:cad>
          </ns3:TrackPointExtension>
        </extensions>
      </trkpt>
      <trkpt lat="47.53853908739984035491943359375" lon="11.04590828530490398406982421875">
        <ele>1794.199951171875</ele>
        <time>2026-09-01T08:41:31.000Z</time>
        <extensions>
          <ns3:TrackPointExtension>
            <ns3:hr>160</ns3:hr>
            <ns3:cad>44</ns3:cad>
          </ns3:TrackPointExtension>
        </extensions>
      </trkpt>
      <trkpt lat="47.5385400094091892242431640625" lon="11.0459256358444690704345703125">
        <ele>1794.4000244140625</ele>
        <time>2026-09-01T08:41:32.000Z</time>
        <extensions>
          <ns3:TrackPointExtension>
            <ns3:hr>160</ns3:hr>
            <ns3:cad>44</ns3:cad>
          </ns3:TrackPointExtension>
        </extensions>
      </trkpt>
      <trkpt lat="47.5385426916182041168212890625" lon="11.04595170356333255767822265625">
        <ele>1794.4000244140625</ele>
        <time>2026-09-01T08:41:33.000Z</time>
        <extensions>
          <ns3:TrackPointExtension>
            <ns3:hr>159</ns3:hr>
            <ns3:cad>47</ns3:cad>
          </ns3:TrackPointExtension>
        </extensions>
      </trkpt>
      <trkpt lat="47.53854453563690185546875" lon="11.04596679098904132843017578125">
        <ele>1794.5999755859375</ele>
        <time>2026-09-01T08:41:34.000Z</time>
        <extensions>
          <ns3:TrackPointExtension>
            <ns3:hr>156</ns3:hr>
            <ns3:cad>47</ns3:cad>
          </ns3:TrackPointExtension>
        </extensions>
      </trkpt>
      <trkpt lat="47.53854646347463130950927734375" lon="11.04598372243344783782958984375">
        <ele>1794.800048828125</ele>
        <time>2026-09-01T08:41:35.000Z</time>
        <extensions>
          <ns3:TrackPointExtension>
            <ns3:hr>155</ns3:hr>
            <ns3:cad>47</ns3:cad>
          </ns3:TrackPointExtension>
        </extensions>
      </trkpt>
      <trkpt lat="47.5385534204542636871337890625" lon="11.04600685648620128631591796875">
        <ele>1794.800048828125</ele>
        <time>2026-09-01T08:41:36.000Z</time>
        <extensions>
          <ns3:TrackPointExtension>
            <ns3:hr>155</ns3:hr>
            <ns3:cad>47</ns3:cad>
          </ns3:TrackPointExtension>
        </extensions>
      </trkpt>
      <trkpt lat="47.53855861723423004150390625" lon="11.04602915234863758087158203125">
        <ele>1794.800048828125</ele>
        <time>2026-09-01T08:41:37.000Z</time>
        <extensions>
          <ns3:TrackPointExtension>
            <ns3:hr>154</ns3:hr>
            <ns3:cad>48</ns3:cad>
          </ns3:TrackPointExtension>
        </extensions>
      </trkpt>
      <trkpt lat="47.538563646376132965087890625" lon="11.04604952037334442138671875">
        <ele>1795</ele>
        <time>2026-09-01T08:41:38.000Z</time>
        <extensions>
          <ns3:TrackPointExtension>
            <ns3:hr>154</ns3:hr>
            <ns3:cad>62</ns3:cad>
          </ns3:TrackPointExtension>
        </extensions>
      </trkpt>
      <trkpt lat="47.5385664962232112884521484375" lon="11.0460577346384525299072265625">
        <ele>1794.800048828125</ele>
        <time>2026-09-01T08:41:39.000Z</time>
        <extensions>
          <ns3:TrackPointExtension>
            <ns3:hr>154</ns3:hr>
            <ns3:cad>64</ns3:cad>
          </ns3:TrackPointExtension>
        </extensions>
      </trkpt>
      <trkpt lat="47.53857529722154140472412109375" lon="11.04608195833861827850341796875">
        <ele>1795</ele>
        <time>2026-09-01T08:41:40.000Z</time>
        <extensions>
          <ns3:TrackPointExtension>
            <ns3:hr>155</ns3:hr>
            <ns3:cad>64</ns3:cad>
          </ns3:TrackPointExtension>
        </extensions>
      </trkpt>
      <trkpt lat="47.53858300857245922088623046875" lon="11.04609956033527851104736328125">
        <ele>1795</ele>
        <time>2026-09-01T08:41:41.000Z</time>
        <extensions>
          <ns3:TrackPointExtension>
            <ns3:hr>156</ns3:hr>
            <ns3:cad>0</ns3:cad>
          </ns3:TrackPointExtension>
        </extensions>
      </trkpt>
      <trkpt lat="47.538588456809520721435546875" lon="11.04611498303711414337158203125">
        <ele>1795</ele>
        <time>2026-09-01T08:41:42.000Z</time>
        <extensions>
          <ns3:TrackPointExtension>
            <ns3:hr>156</ns3:hr>
            <ns3:cad>0</ns3:cad>
          </ns3:TrackPointExtension>
        </extensions>
      </trkpt>
      <trkpt lat="47.5385933183133602142333984375" lon="11.04612755589187145233154296875">
        <ele>1795.199951171875</ele>
        <time>2026-09-01T08:41:43.000Z</time>
        <extensions>
          <ns3:TrackPointExtension>
            <ns3:hr>155</ns3:hr>
            <ns3:cad>0</ns3:cad>
          </ns3:TrackPointExtension>
        </extensions>
      </trkpt>
      <trkpt lat="47.53859709016978740692138671875" lon="11.04613862000405788421630859375">
        <ele>1795.199951171875</ele>
        <time>2026-09-01T08:41:44.000Z</time>
        <extensions>
          <ns3:TrackPointExtension>
            <ns3:hr>155</ns3:hr>
            <ns3:cad>0</ns3:cad>
          </ns3:TrackPointExtension>
        </extensions>
      </trkpt>
      <trkpt lat="47.53860262222588062286376953125" lon="11.046155802905559539794921875">
        <ele>1795.4000244140625</ele>
        <time>2026-09-01T08:41:45.000Z</time>
        <extensions>
          <ns3:TrackPointExtension>
            <ns3:hr>155</ns3:hr>
            <ns3:cad>0</ns3:cad>
          </ns3:TrackPointExtension>
        </extensions>
      </trkpt>
      <trkpt lat="47.53860848955810070037841796875" lon="11.04617499746382236480712890625">
        <ele>1795.5999755859375</ele>
        <time>2026-09-01T08:41:46.000Z</time>
        <extensions>
          <ns3:TrackPointExtension>
            <ns3:hr>155</ns3:hr>
            <ns3:cad>0</ns3:cad>
          </ns3:TrackPointExtension>
        </extensions>
      </trkpt>
      <trkpt lat="47.53861368633806705474853515625" lon="11.0461936891078948974609375">
        <ele>1795.800048828125</ele>
        <time>2026-09-01T08:41:47.000Z</time>
        <extensions>
          <ns3:TrackPointExtension>
            <ns3:hr>154</ns3:hr>
            <ns3:cad>0</ns3:cad>
          </ns3:TrackPointExtension>
        </extensions>
      </trkpt>
      <trkpt lat="47.53861905075609683990478515625" lon="11.04620953090488910675048828125">
        <ele>1796</ele>
        <time>2026-09-01T08:41:48.000Z</time>
        <extensions>
          <ns3:TrackPointExtension>
            <ns3:hr>154</ns3:hr>
            <ns3:cad>0</ns3:cad>
          </ns3:TrackPointExtension>
        </extensions>
      </trkpt>
      <trkpt lat="47.5386268459260463714599609375" lon="11.04623048566281795501708984375">
        <ele>1796.199951171875</ele>
        <time>2026-09-01T08:41:49.000Z</time>
        <extensions>
          <ns3:TrackPointExtension>
            <ns3:hr>153</ns3:hr>
            <ns3:cad>0</ns3:cad>
          </ns3:TrackPointExtension>
        </extensions>
      </trkpt>
      <trkpt lat="47.53862827084958553314208984375" lon="11.046230234205722808837890625">
        <ele>1796.4000244140625</ele>
        <time>2026-09-01T08:41:50.000Z</time>
        <extensions>
          <ns3:TrackPointExtension>
            <ns3:hr>153</ns3:hr>
            <ns3:cad>0</ns3:cad>
          </ns3:TrackPointExtension>
        </extensions>
      </trkpt>
      <trkpt lat="47.53862609155476093292236328125" lon="11.04623383842408657073974609375">
        <ele>1796.4000244140625</ele>
        <time>2026-09-01T08:41:51.000Z</time>
        <extensions>
          <ns3:TrackPointExtension>
            <ns3:hr>153</ns3:hr>
            <ns3:cad>0</ns3:cad>
          </ns3:TrackPointExtension>
        </extensions>
      </trkpt>
      <trkpt lat="47.53862659446895122528076171875" lon="11.04624263942241668701171875">
        <ele>1796.199951171875</ele>
        <time>2026-09-01T08:41:52.000Z</time>
        <extensions>
          <ns3:TrackPointExtension>
            <ns3:hr>153</ns3:hr>
            <ns3:cad>0</ns3:cad>
          </ns3:TrackPointExtension>
        </extensions>
      </trkpt>
      <trkpt lat="47.53862575627863407135009765625" lon="11.04625579901039600372314453125">
        <ele>1796.199951171875</ele>
        <time>2026-09-01T08:41:53.000Z</time>
        <extensions>
          <ns3:TrackPointExtension>
            <ns3:hr>153</ns3:hr>
            <ns3:cad>0</ns3:cad>
          </ns3:TrackPointExtension>
        </extensions>
      </trkpt>
      <trkpt lat="47.53862299025058746337890625" lon="11.04628580622375011444091796875">
        <ele>1796</ele>
        <time>2026-09-01T08:41:54.000Z</time>
        <extensions>
          <ns3:TrackPointExtension>
            <ns3:hr>153</ns3:hr>
            <ns3:cad>0</ns3:cad>
          </ns3:TrackPointExtension>
        </extensions>
      </trkpt>
      <trkpt lat="47.5386164523661136627197265625" lon="11.0463048331439495086669921875">
        <ele>1796</ele>
        <time>2026-09-01T08:41:55.000Z</time>
        <extensions>
          <ns3:TrackPointExtension>
            <ns3:hr>153</ns3:hr>
            <ns3:cad>0</ns3:cad>
          </ns3:TrackPointExtension>
        </extensions>
      </trkpt>
      <trkpt lat="47.53860815428197383880615234375" lon="11.0463313199579715728759765625">
        <ele>1796</ele>
        <time>2026-09-01T08:41:56.000Z</time>
        <extensions>
          <ns3:TrackPointExtension>
            <ns3:hr>152</ns3:hr>
            <ns3:cad>0</ns3:cad>
          </ns3:TrackPointExtension>
        </extensions>
      </trkpt>
      <trkpt lat="47.5385993532836437225341796875" lon="11.04636023752391338348388671875">
        <ele>1795.800048828125</ele>
        <time>2026-09-01T08:41:57.000Z</time>
        <extensions>
          <ns3:TrackPointExtension>
            <ns3:hr>152</ns3:hr>
            <ns3:cad>0</ns3:cad>
          </ns3:TrackPointExtension>
        </extensions>
      </trkpt>
      <trkpt lat="47.5385976769030094146728515625" lon="11.04640868492424488067626953125">
        <ele>1795.4000244140625</ele>
        <time>2026-09-01T08:41:58.000Z</time>
        <extensions>
          <ns3:TrackPointExtension>
            <ns3:hr>152</ns3:hr>
            <ns3:cad>0</ns3:cad>
          </ns3:TrackPointExtension>
        </extensions>
      </trkpt>
      <trkpt lat="47.53860329277813434600830078125" lon="11.04644112288951873779296875">
        <ele>1794.800048828125</ele>
        <time>2026-09-01T08:41:59.000Z</time>
        <extensions>
          <ns3:TrackPointExtension>
            <ns3:hr>152</ns3:hr>
            <ns3:cad>0</ns3:cad>
          </ns3:TrackPointExtension>
        </extensions>
      </trkpt>
      <trkpt lat="47.53860413096845149993896484375" lon="11.04648294858634471893310546875">
        <ele>1794.199951171875</ele>
        <time>2026-09-01T08:42:00.000Z</time>
        <extensions>
          <ns3:TrackPointExtension>
            <ns3:hr>152</ns3:hr>
            <ns3:cad>0</ns3:cad>
          </ns3:TrackPointExtension>
        </extensions>
      </trkpt>
      <trkpt lat="47.53860580734908580780029296875" lon="11.0465180687606334686279296875">
        <ele>1793.800048828125</ele>
        <time>2026-09-01T08:42:01.000Z</time>
        <extensions>
          <ns3:TrackPointExtension>
            <ns3:hr>153</ns3:hr>
            <ns3:cad>0</ns3:cad>
          </ns3:TrackPointExtension>
        </extensions>
      </trkpt>
      <trkpt lat="47.53860689699649810791015625" lon="11.04654832743108272552490234375">
        <ele>1793.199951171875</ele>
        <time>2026-09-01T08:42:02.000Z</time>
        <extensions>
          <ns3:TrackPointExtension>
            <ns3:hr>154</ns3:hr>
            <ns3:cad>0</ns3:cad>
          </ns3:TrackPointExtension>
        </extensions>
      </trkpt>
      <trkpt lat="47.53860890865325927734375" lon="11.04657313786447048187255859375">
        <ele>1792.5999755859375</ele>
        <time>2026-09-01T08:42:03.000Z</time>
        <extensions>
          <ns3:TrackPointExtension>
            <ns3:hr>155</ns3:hr>
            <ns3:cad>0</ns3:cad>
          </ns3:TrackPointExtension>
        </extensions>
      </trkpt>
      <trkpt lat="47.5386073999106884002685546875" lon="11.04659534990787506103515625">
        <ele>1791.800048828125</ele>
        <time>2026-09-01T08:42:04.000Z</time>
        <extensions>
          <ns3:TrackPointExtension>
            <ns3:hr>155</ns3:hr>
            <ns3:cad>0</ns3:cad>
          </ns3:TrackPointExtension>
        </extensions>
      </trkpt>
      <trkpt lat="47.5386030413210391998291015625" lon="11.0466089285910129547119140625">
        <ele>1791</ele>
        <time>2026-09-01T08:42:05.000Z</time>
        <extensions>
          <ns3:TrackPointExtension>
            <ns3:hr>156</ns3:hr>
            <ns3:cad>0</ns3:cad>
          </ns3:TrackPointExtension>
        </extensions>
      </trkpt>
      <trkpt lat="47.53859776072204113006591796875" lon="11.0466213338077068328857421875">
        <ele>1790.4000244140625</ele>
        <time>2026-09-01T08:42:06.000Z</time>
        <extensions>
          <ns3:TrackPointExtension>
            <ns3:hr>155</ns3:hr>
            <ns3:cad>0</ns3:cad>
          </ns3:TrackPointExtension>
        </extensions>
      </trkpt>
      <trkpt lat="47.53859440796077251434326171875" lon="11.0466147959232330322265625">
        <ele>1790</ele>
        <time>2026-09-01T08:42:07.000Z</time>
        <extensions>
          <ns3:TrackPointExtension>
            <ns3:hr>154</ns3:hr>
            <ns3:cad>0</ns3:cad>
          </ns3:TrackPointExtension>
        </extensions>
      </trkpt>
      <trkpt lat="47.53858300857245922088623046875" lon="11.04662024416029453277587890625">
        <ele>1789</ele>
        <time>2026-09-01T08:42:08.000Z</time>
        <extensions>
          <ns3:TrackPointExtension>
            <ns3:hr>154</ns3:hr>
            <ns3:cad>0</ns3:cad>
          </ns3:TrackPointExtension>
        </extensions>
      </trkpt>
      <trkpt lat="47.538577057421207427978515625" lon="11.04663013480603694915771484375">
        <ele>1788.199951171875</ele>
        <time>2026-09-01T08:42:09.000Z</time>
        <extensions>
          <ns3:TrackPointExtension>
            <ns3:hr>153</ns3:hr>
            <ns3:cad>0</ns3:cad>
          </ns3:TrackPointExtension>
        </extensions>
      </trkpt>
      <trkpt lat="47.53857596777379512786865234375" lon="11.04664203710854053497314453125">
        <ele>1787.4000244140625</ele>
        <time>2026-09-01T08:42:10.000Z</time>
        <extensions>
          <ns3:TrackPointExtension>
            <ns3:hr>152</ns3:hr>
            <ns3:cad>0</ns3:cad>
          </ns3:TrackPointExtension>
        </extensions>
      </trkpt>
      <trkpt lat="47.53857596777379512786865234375" lon="11.0466541908681392669677734375">
        <ele>1786.4000244140625</ele>
        <time>2026-09-01T08:42:11.000Z</time>
        <extensions>
          <ns3:TrackPointExtension>
            <ns3:hr>152</ns3:hr>
            <ns3:cad>0</ns3:cad>
          </ns3:TrackPointExtension>
        </extensions>
      </trkpt>
      <trkpt lat="47.5385732017457485198974609375" lon="11.04666911065578460693359375">
        <ele>1785.800048828125</ele>
        <time>2026-09-01T08:42:12.000Z</time>
        <extensions>
          <ns3:TrackPointExtension>
            <ns3:hr>151</ns3:hr>
            <ns3:cad>0</ns3:cad>
          </ns3:TrackPointExtension>
        </extensions>
      </trkpt>
      <trkpt lat="47.53856255672872066497802734375" lon="11.046692915260791778564453125">
        <ele>1785</ele>
        <time>2026-09-01T08:42:13.000Z</time>
        <extensions>
          <ns3:TrackPointExtension>
            <ns3:hr>150</ns3:hr>
            <ns3:cad>0</ns3:cad>
          </ns3:TrackPointExtension>
        </extensions>
      </trkpt>
      <trkpt lat="47.53855585120618343353271484375" lon="11.0467242635786533355712890625">
        <ele>1784.199951171875</ele>
        <time>2026-09-01T08:42:14.000Z</time>
        <extensions>
          <ns3:TrackPointExtension>
            <ns3:hr>150</ns3:hr>
            <ns3:cad>0</ns3:cad>
          </ns3:TrackPointExtension>
        </extensions>
      </trkpt>
      <trkpt lat="47.53856406547129154205322265625" lon="11.04676826857030391693115234375">
        <ele>1783.199951171875</ele>
        <time>2026-09-01T08:42:15.000Z</time>
        <extensions>
          <ns3:TrackPointExtension>
            <ns3:hr>150</ns3:hr>
            <ns3:cad>0</ns3:cad>
          </ns3:TrackPointExtension>
        </extensions>
      </trkpt>
      <trkpt lat="47.53856725059449672698974609375" lon="11.04678989388048648834228515625">
        <ele>1782.5999755859375</ele>
        <time>2026-09-01T08:42:16.000Z</time>
        <extensions>
          <ns3:TrackPointExtension>
            <ns3:hr>148</ns3:hr>
            <ns3:cad>0</ns3:cad>
          </ns3:TrackPointExtension>
        </extensions>
      </trkpt>
      <trkpt lat="47.538572363555431365966796875" lon="11.04681101627647876739501953125">
        <ele>1782</ele>
        <time>2026-09-01T08:42:17.000Z</time>
        <extensions>
          <ns3:TrackPointExtension>
            <ns3:hr>147</ns3:hr>
            <ns3:cad>82</ns3:cad>
          </ns3:TrackPointExtension>
        </extensions>
      </trkpt>
      <trkpt lat="47.538574375212192535400390625" lon="11.04684077203273773193359375">
        <ele>1781.199951171875</ele>
        <time>2026-09-01T08:42:18.000Z</time>
        <extensions>
          <ns3:TrackPointExtension>
            <ns3:hr>146</ns3:hr>
            <ns3:cad>82</ns3:cad>
          </ns3:TrackPointExtension>
        </extensions>
      </trkpt>
      <trkpt lat="47.53857596777379512786865234375" lon="11.04687186889350414276123046875">
        <ele>1780.5999755859375</ele>
        <time>2026-09-01T08:42:19.000Z</time>
        <extensions>
          <ns3:TrackPointExtension>
            <ns3:hr>145</ns3:hr>
            <ns3:cad>82</ns3:cad>
          </ns3:TrackPointExtension>
        </extensions>
      </trkpt>
      <trkpt lat="47.53857965581119060516357421875" lon="11.0469022952020168304443359375">
        <ele>1780.199951171875</ele>
        <time>2026-09-01T08:42:20.000Z</time>
        <extensions>
          <ns3:TrackPointExtension>
            <ns3:hr>145</ns3:hr>
            <ns3:cad>82</ns3:cad>
          </ns3:TrackPointExtension>
        </extensions>
      </trkpt>
      <trkpt lat="47.53858585841953754425048828125" lon="11.0469230823218822479248046875">
        <ele>1779.4000244140625</ele>
        <time>2026-09-01T08:42:21.000Z</time>
        <extensions>
          <ns3:TrackPointExtension>
            <ns3:hr>145</ns3:hr>
            <ns3:cad>82</ns3:cad>
          </ns3:TrackPointExtension>
        </extensions>
      </trkpt>
      <trkpt lat="47.53859038464725017547607421875" lon="11.04694847948849201202392578125">
        <ele>1778.800048828125</ele>
        <time>2026-09-01T08:42:22.000Z</time>
        <extensions>
          <ns3:TrackPointExtension>
            <ns3:hr>145</ns3:hr>
            <ns3:cad>82</ns3:cad>
          </ns3:TrackPointExtension>
        </extensions>
      </trkpt>
      <trkpt lat="47.53859482705593109130859375" lon="11.04697530157864093780517578125">
        <ele>1778.199951171875</ele>
        <time>2026-09-01T08:42:23.000Z</time>
        <extensions>
          <ns3:TrackPointExtension>
            <ns3:hr>144</ns3:hr>
            <ns3:cad>82</ns3:cad>
          </ns3:TrackPointExtension>
        </extensions>
      </trkpt>
      <trkpt lat="47.538597844541072845458984375" lon="11.04699390940368175506591796875">
        <ele>1777.4000244140625</ele>
        <time>2026-09-01T08:42:24.000Z</time>
        <extensions>
          <ns3:TrackPointExtension>
            <ns3:hr>144</ns3:hr>
            <ns3:cad>82</ns3:cad>
          </ns3:TrackPointExtension>
        </extensions>
      </trkpt>
      <trkpt lat="47.5385936535894870758056640625" lon="11.04702257551252841949462890625">
        <ele>1777</ele>
        <time>2026-09-01T08:42:25.000Z</time>
        <extensions>
          <ns3:TrackPointExtension>
            <ns3:hr>144</ns3:hr>
            <ns3:cad>82</ns3:cad>
          </ns3:TrackPointExtension>
        </extensions>
      </trkpt>
      <trkpt lat="47.53859424032270908355712890625" lon="11.0470451228320598602294921875">
        <ele>1776.4000244140625</ele>
        <time>2026-09-01T08:42:26.000Z</time>
        <extensions>
          <ns3:TrackPointExtension>
            <ns3:hr>143</ns3:hr>
            <ns3:cad>82</ns3:cad>
          </ns3:TrackPointExtension>
        </extensions>
      </trkpt>
      <trkpt lat="47.53858988173305988311767578125" lon="11.047067753970623016357421875">
        <ele>1775.800048828125</ele>
        <time>2026-09-01T08:42:27.000Z</time>
        <extensions>
          <ns3:TrackPointExtension>
            <ns3:hr>143</ns3:hr>
            <ns3:cad>82</ns3:cad>
          </ns3:TrackPointExtension>
        </extensions>
      </trkpt>
      <trkpt lat="47.53858485259115695953369140625" lon="11.04708393104374408721923828125">
        <ele>1775.199951171875</ele>
        <time>2026-09-01T08:42:28.000Z</time>
        <extensions>
          <ns3:TrackPointExtension>
            <ns3:hr>142</ns3:hr>
            <ns3:cad>80</ns3:cad>
          </ns3:TrackPointExtension>
        </extensions>
      </trkpt>
      <trkpt lat="47.53857730887830257415771484375" lon="11.04710186831653118133544921875">
        <ele>1774.4000244140625</ele>
        <time>2026-09-01T08:42:29.000Z</time>
        <extensions>
          <ns3:TrackPointExtension>
            <ns3:hr>142</ns3:hr>
            <ns3:cad>80</ns3:cad>
          </ns3:TrackPointExtension>
        </extensions>
      </trkpt>
      <trkpt lat="47.5385768897831439971923828125" lon="11.0471125133335590362548828125">
        <ele>1773.800048828125</ele>
        <time>2026-09-01T08:42:30.000Z</time>
        <extensions>
          <ns3:TrackPointExtension>
            <ns3:hr>141</ns3:hr>
            <ns3:cad>80</ns3:cad>
          </ns3:TrackPointExtension>
        </extensions>
      </trkpt>
      <trkpt lat="47.538572363555431365966796875" lon="11.04713556356728076934814453125">
        <ele>1772.800048828125</ele>
        <time>2026-09-01T08:42:31.000Z</time>
        <extensions>
          <ns3:TrackPointExtension>
            <ns3:hr>141</ns3:hr>
            <ns3:cad>80</ns3:cad>
          </ns3:TrackPointExtension>
        </extensions>
      </trkpt>
      <trkpt lat="47.53857194446027278900146484375" lon="11.047158278524875640869140625">
        <ele>1771.800048828125</ele>
        <time>2026-09-01T08:42:32.000Z</time>
        <extensions>
          <ns3:TrackPointExtension>
            <ns3:hr>140</ns3:hr>
            <ns3:cad>80</ns3:cad>
          </ns3:TrackPointExtension>
        </extensions>
      </trkpt>
      <trkpt lat="47.5385715253651142120361328125" lon="11.047187782824039459228515625">
        <ele>1771.199951171875</ele>
        <time>2026-09-01T08:42:33.000Z</time>
        <extensions>
          <ns3:TrackPointExtension>
            <ns3:hr>140</ns3:hr>
            <ns3:cad>80</ns3:cad>
          </ns3:TrackPointExtension>
        </extensions>
      </trkpt>
      <trkpt lat="47.53855819813907146453857421875" lon="11.04722994379699230194091796875">
        <ele>1770.5999755859375</ele>
        <time>2026-09-01T08:42:34.000Z</time>
        <extensions>
          <ns3:TrackPointExtension>
            <ns3:hr>139</ns3:hr>
            <ns3:cad>80</ns3:cad>
          </ns3:TrackPointExtension>
        </extensions>
      </trkpt>
      <trkpt lat="47.538558281958103179931640625" lon="11.04726967401802539825439453125">
        <ele>1769.199951171875</ele>
        <time>2026-09-01T08:42:35.000Z</time>
        <extensions>
          <ns3:TrackPointExtension>
            <ns3:hr>138</ns3:hr>
            <ns3:cad>80</ns3:cad>
          </ns3:TrackPointExtension>
        </extensions>
      </trkpt>
      <trkpt lat="47.53855920396745204925537109375" lon="11.04731728322803974151611328125">
        <ele>1768.800048828125</ele>
        <time>2026-09-01T08:42:36.000Z</time>
        <extensions>
          <ns3:TrackPointExtension>
            <ns3:hr>138</ns3:hr>
            <ns3:cad>80</ns3:cad>
          </ns3:TrackPointExtension>
        </extensions>
      </trkpt>
      <trkpt lat="47.5385557673871517181396484375" lon="11.0473626293241977691650390625">
        <ele>1767.5999755859375</ele>
        <time>2026-09-01T08:42:37.000Z</time>
        <extensions>
          <ns3:TrackPointExtension>
            <ns3:hr>136</ns3:hr>
            <ns3:cad>80</ns3:cad>
          </ns3:TrackPointExtension>
        </extensions>
      </trkpt>
      <trkpt lat="47.53854864276945590972900390625" lon="11.04739758186042308807373046875">
        <ele>1767.5999755859375</ele>
        <time>2026-09-01T08:42:38.000Z</time>
        <extensions>
          <ns3:TrackPointExtension>
            <ns3:hr>135</ns3:hr>
            <ns3:cad>80</ns3:cad>
          </ns3:TrackPointExtension>
        </extensions>
      </trkpt>
      <trkpt lat="47.5385373272001743316650390625" lon="11.0474430955946445465087890625">
        <ele>1767.4000244140625</ele>
        <time>2026-09-01T08:42:39.000Z</time>
        <extensions>
          <ns3:TrackPointExtension>
            <ns3:hr>135</ns3:hr>
            <ns3:cad>80</ns3:cad>
          </ns3:TrackPointExtension>
        </extensions>
      </trkpt>
      <trkpt lat="47.53853037022054195404052734375" lon="11.04749011807143688201904296875">
        <ele>1767.199951171875</ele>
        <time>2026-09-01T08:42:40.000Z</time>
        <extensions>
          <ns3:TrackPointExtension>
            <ns3:hr>134</ns3:hr>
            <ns3:cad>80</ns3:cad>
          </ns3:TrackPointExtension>
        </extensions>
      </trkpt>
      <trkpt lat="47.53852517344057559967041015625" lon="11.0475238971412181854248046875">
        <ele>1767</ele>
        <time>2026-09-01T08:42:41.000Z</time>
        <extensions>
          <ns3:TrackPointExtension>
            <ns3:hr>134</ns3:hr>
            <ns3:cad>80</ns3:cad>
          </ns3:TrackPointExtension>
        </extensions>
      </trkpt>
      <trkpt lat="47.53851980902254581451416015625" lon="11.04757561348378658294677734375">
        <ele>1766.800048828125</ele>
        <time>2026-09-01T08:42:42.000Z</time>
        <extensions>
          <ns3:TrackPointExtension>
            <ns3:hr>135</ns3:hr>
            <ns3:cad>85</ns3:cad>
          </ns3:TrackPointExtension>
        </extensions>
      </trkpt>
      <trkpt lat="47.53851226530969142913818359375" lon="11.04761132039129734039306640625">
        <ele>1766.800048828125</ele>
        <time>2026-09-01T08:42:43.000Z</time>
        <extensions>
          <ns3:TrackPointExtension>
            <ns3:hr>135</ns3:hr>
            <ns3:cad>85</ns3:cad>
          </ns3:TrackPointExtension>
        </extensions>
      </trkpt>
      <trkpt lat="47.53849701024591922760009765625" lon="11.04764099232852458953857421875">
        <ele>1766.800048828125</ele>
        <time>2026-09-01T08:42:44.000Z</time>
        <extensions>
          <ns3:TrackPointExtension>
            <ns3:hr>137</ns3:hr>
            <ns3:cad>85</ns3:cad>
          </ns3:TrackPointExtension>
        </extensions>
      </trkpt>
      <trkpt lat="47.5384803302586078643798828125" lon="11.04767971672117710113525390625">
        <ele>1766.800048828125</ele>
        <time>2026-09-01T08:42:45.000Z</time>
        <extensions>
          <ns3:TrackPointExtension>
            <ns3:hr>137</ns3:hr>
            <ns3:cad>81</ns3:cad>
          </ns3:TrackPointExtension>
        </extensions>
      </trkpt>
      <trkpt lat="47.5384706072509288787841796875" lon="11.04772028513252735137939453125">
        <ele>1767</ele>
        <time>2026-09-01T08:42:46.000Z</time>
        <extensions>
          <ns3:TrackPointExtension>
            <ns3:hr>137</ns3:hr>
            <ns3:cad>81</ns3:cad>
          </ns3:TrackPointExtension>
        </extensions>
      </trkpt>
      <trkpt lat="47.53846742212772369384765625" lon="11.047754399478435516357421875">
        <ele>1767.199951171875</ele>
        <time>2026-09-01T08:42:47.000Z</time>
        <extensions>
          <ns3:TrackPointExtension>
            <ns3:hr>137</ns3:hr>
            <ns3:cad>81</ns3:cad>
          </ns3:TrackPointExtension>
        </extensions>
      </trkpt>
      <trkpt lat="47.53846465609967708587646484375" lon="11.04780276305973529815673828125">
        <ele>1767.199951171875</ele>
        <time>2026-09-01T08:42:48.000Z</time>
        <extensions>
          <ns3:TrackPointExtension>
            <ns3:hr>137</ns3:hr>
            <ns3:cad>81</ns3:cad>
          </ns3:TrackPointExtension>
        </extensions>
      </trkpt>
      <trkpt lat="47.5384592078626155853271484375" lon="11.04783260263502597808837890625">
        <ele>1767.199951171875</ele>
        <time>2026-09-01T08:42:49.000Z</time>
        <extensions>
          <ns3:TrackPointExtension>
            <ns3:hr>137</ns3:hr>
            <ns3:cad>81</ns3:cad>
          </ns3:TrackPointExtension>
        </extensions>
      </trkpt>
      <trkpt lat="47.53844219259917736053466796875" lon="11.04786629788577556610107421875">
        <ele>1767.199951171875</ele>
        <time>2026-09-01T08:42:50.000Z</time>
        <extensions>
          <ns3:TrackPointExtension>
            <ns3:hr>137</ns3:hr>
            <ns3:cad>81</ns3:cad>
          </ns3:TrackPointExtension>
        </extensions>
      </trkpt>
      <trkpt lat="47.53843523561954498291015625" lon="11.0478994064033031463623046875">
        <ele>1767</ele>
        <time>2026-09-01T08:42:51.000Z</time>
        <extensions>
          <ns3:TrackPointExtension>
            <ns3:hr>137</ns3:hr>
            <ns3:cad>81</ns3:cad>
          </ns3:TrackPointExtension>
        </extensions>
      </trkpt>
      <trkpt lat="47.53842651844024658203125" lon="11.04792312718927860260009765625">
        <ele>1767.199951171875</ele>
        <time>2026-09-01T08:42:52.000Z</time>
        <extensions>
          <ns3:TrackPointExtension>
            <ns3:hr>137</ns3:hr>
            <ns3:cad>81</ns3:cad>
          </ns3:TrackPointExtension>
        </extensions>
      </trkpt>
      <trkpt lat="47.53842241130769252777099609375" lon="11.0479523800313472747802734375">
        <ele>1767.4000244140625</ele>
        <time>2026-09-01T08:42:53.000Z</time>
        <extensions>
          <ns3:TrackPointExtension>
            <ns3:hr>137</ns3:hr>
            <ns3:cad>81</ns3:cad>
          </ns3:TrackPointExtension>
        </extensions>
      </trkpt>
      <trkpt lat="47.53842039965093135833740234375" lon="11.0479832254350185394287109375">
        <ele>1767.4000244140625</ele>
        <time>2026-09-01T08:42:54.000Z</time>
        <extensions>
          <ns3:TrackPointExtension>
            <ns3:hr>137</ns3:hr>
            <ns3:cad>81</ns3:cad>
          </ns3:TrackPointExtension>
        </extensions>
      </trkpt>
      <trkpt lat="47.5384189747273921966552734375" lon="11.0480214469134807586669921875">
        <ele>1767.4000244140625</ele>
        <time>2026-09-01T08:42:55.000Z</time>
        <extensions>
          <ns3:TrackPointExtension>
            <ns3:hr>137</ns3:hr>
            <ns3:cad>81</ns3:cad>
          </ns3:TrackPointExtension>
        </extensions>
      </trkpt>
      <trkpt lat="47.5384119339287281036376953125" lon="11.04808188043534755706787109375">
        <ele>1767.199951171875</ele>
        <time>2026-09-01T08:42:56.000Z</time>
        <extensions>
          <ns3:TrackPointExtension>
            <ns3:hr>136</ns3:hr>
            <ns3:cad>81</ns3:cad>
          </ns3:TrackPointExtension>
        </extensions>
      </trkpt>
      <trkpt lat="47.53841671161353588104248046875" lon="11.048119179904460906982421875">
        <ele>1766.800048828125</ele>
        <time>2026-09-01T08:42:57.000Z</time>
        <extensions>
          <ns3:TrackPointExtension>
            <ns3:hr>136</ns3:hr>
            <ns3:cad>81</ns3:cad>
          </ns3:TrackPointExtension>
        </extensions>
      </trkpt>
      <trkpt lat="47.53841419704258441925048828125" lon="11.048160754144191741943359375">
        <ele>1766.4000244140625</ele>
        <time>2026-09-01T08:42:58.000Z</time>
        <extensions>
          <ns3:TrackPointExtension>
            <ns3:hr>136</ns3:hr>
            <ns3:cad>81</ns3:cad>
          </ns3:TrackPointExtension>
        </extensions>
      </trkpt>
      <trkpt lat="47.5384065695106983184814453125" lon="11.0482004843652248382568359375">
        <ele>1766.199951171875</ele>
        <time>2026-09-01T08:42:59.000Z</time>
        <extensions>
          <ns3:TrackPointExtension>
            <ns3:hr>134</ns3:hr>
            <ns3:cad>80</ns3:cad>
          </ns3:TrackPointExtension>
        </extensions>
      </trkpt>
      <trkpt lat="47.5384022109210491180419921875" lon="11.04822571389377117156982421875">
        <ele>1766</ele>
        <time>2026-09-01T08:43:00.000Z</time>
        <extensions>
          <ns3:TrackPointExtension>
            <ns3:hr>133</ns3:hr>
            <ns3:cad>80</ns3:cad>
          </ns3:TrackPointExtension>
        </extensions>
      </trkpt>
      <trkpt lat="47.53840983845293521881103515625" lon="11.048241555690765380859375">
        <ele>1766</ele>
        <time>2026-09-01T08:43:01.000Z</time>
        <extensions>
          <ns3:TrackPointExtension>
            <ns3:hr>132</ns3:hr>
            <ns3:cad>80</ns3:cad>
          </ns3:TrackPointExtension>
        </extensions>
      </trkpt>
      <trkpt lat="47.53841335885226726531982421875" lon="11.04827533476054668426513671875">
        <ele>1765.800048828125</ele>
        <time>2026-09-01T08:43:02.000Z</time>
        <extensions>
          <ns3:TrackPointExtension>
            <ns3:hr>131</ns3:hr>
            <ns3:cad>80</ns3:cad>
          </ns3:TrackPointExtension>
        </extensions>
      </trkpt>
      <trkpt lat="47.53841889090836048126220703125" lon="11.04831540025770664215087890625">
        <ele>1765.4000244140625</ele>
        <time>2026-09-01T08:43:03.000Z</time>
        <extensions>
          <ns3:TrackPointExtension>
            <ns3:hr>131</ns3:hr>
            <ns3:cad>80</ns3:cad>
          </ns3:TrackPointExtension>
        </extensions>
      </trkpt>
      <trkpt lat="47.53842241130769252777099609375" lon="11.04834523983299732208251953125">
        <ele>1764.800048828125</ele>
        <time>2026-09-01T08:43:04.000Z</time>
        <extensions>
          <ns3:TrackPointExtension>
            <ns3:hr>132</ns3:hr>
            <ns3:cad>80</ns3:cad>
          </ns3:TrackPointExtension>
        </extensions>
      </trkpt>
      <trkpt lat="47.53841855563223361968994140625" lon="11.04838899336755275726318359375">
        <ele>1764.4000244140625</ele>
        <time>2026-09-01T08:43:05.000Z</time>
        <extensions>
          <ns3:TrackPointExtension>
            <ns3:hr>133</ns3:hr>
            <ns3:cad>80</ns3:cad>
          </ns3:TrackPointExtension>
        </extensions>
      </trkpt>
      <trkpt lat="47.53841771744191646575927734375" lon="11.048426963388919830322265625">
        <ele>1763.800048828125</ele>
        <time>2026-09-01T08:43:06.000Z</time>
        <extensions>
          <ns3:TrackPointExtension>
            <ns3:hr>133</ns3:hr>
            <ns3:cad>80</ns3:cad>
          </ns3:TrackPointExtension>
        </extensions>
      </trkpt>
      <trkpt lat="47.5384152866899967193603515625" lon="11.04845772497355937957763671875">
        <ele>1763.5999755859375</ele>
        <time>2026-09-01T08:43:07.000Z</time>
        <extensions>
          <ns3:TrackPointExtension>
            <ns3:hr>134</ns3:hr>
            <ns3:cad>83</ns3:cad>
          </ns3:TrackPointExtension>
        </extensions>
      </trkpt>
      <trkpt lat="47.53841570578515529632568359375" lon="11.048494689166545867919921875">
        <ele>1763.199951171875</ele>
        <time>2026-09-01T08:43:08.000Z</time>
        <extensions>
          <ns3:TrackPointExtension>
            <ns3:hr>134</ns3:hr>
            <ns3:cad>83</ns3:cad>
          </ns3:TrackPointExtension>
        </extensions>
      </trkpt>
      <trkpt lat="47.538410760462284088134765625" lon="11.0485474951565265655517578125">
        <ele>1763</ele>
        <time>2026-09-01T08:43:09.000Z</time>
        <extensions>
          <ns3:TrackPointExtension>
            <ns3:hr>134</ns3:hr>
            <ns3:cad>82</ns3:cad>
          </ns3:TrackPointExtension>
        </extensions>
      </trkpt>
      <trkpt lat="47.53840380348265171051025390625" lon="11.04858043603599071502685546875">
        <ele>1762.5999755859375</ele>
        <time>2026-09-01T08:43:10.000Z</time>
        <extensions>
          <ns3:TrackPointExtension>
            <ns3:hr>135</ns3:hr>
            <ns3:cad>82</ns3:cad>
          </ns3:TrackPointExtension>
        </extensions>
      </trkpt>
      <trkpt lat="47.5383894704282283782958984375" lon="11.04862217791378498077392578125">
        <ele>1762.5999755859375</ele>
        <time>2026-09-01T08:43:11.000Z</time>
        <extensions>
          <ns3:TrackPointExtension>
            <ns3:hr>135</ns3:hr>
            <ns3:cad>80</ns3:cad>
          </ns3:TrackPointExtension>
        </extensions>
      </trkpt>
      <trkpt lat="47.53837094642221927642822265625" lon="11.0486604832112789154052734375">
        <ele>1762</ele>
        <time>2026-09-01T08:43:12.000Z</time>
        <extensions>
          <ns3:TrackPointExtension>
            <ns3:hr>135</ns3:hr>
            <ns3:cad>80</ns3:cad>
          </ns3:TrackPointExtension>
        </extensions>
      </trkpt>
      <trkpt lat="47.53835937939584255218505859375" lon="11.0486919991672039031982421875">
        <ele>1761.800048828125</ele>
        <time>2026-09-01T08:43:13.000Z</time>
        <extensions>
          <ns3:TrackPointExtension>
            <ns3:hr>135</ns3:hr>
            <ns3:cad>78</ns3:cad>
          </ns3:TrackPointExtension>
        </extensions>
      </trkpt>
      <trkpt lat="47.538349069654941558837890625" lon="11.048729382455348968505859375">
        <ele>1761.800048828125</ele>
        <time>2026-09-01T08:43:14.000Z</time>
        <extensions>
          <ns3:TrackPointExtension>
            <ns3:hr>135</ns3:hr>
            <ns3:cad>78</ns3:cad>
          </ns3:TrackPointExtension>
        </extensions>
      </trkpt>
      <trkpt lat="47.5383535958826541900634765625" lon="11.0487632453441619873046875">
        <ele>1761.5999755859375</ele>
        <time>2026-09-01T08:43:15.000Z</time>
        <extensions>
          <ns3:TrackPointExtension>
            <ns3:hr>136</ns3:hr>
            <ns3:cad>79</ns3:cad>
          </ns3:TrackPointExtension>
        </extensions>
      </trkpt>
      <trkpt lat="47.53835569135844707489013671875" lon="11.0487981140613555908203125">
        <ele>1761.4000244140625</ele>
        <time>2026-09-01T08:43:16.000Z</time>
        <extensions>
          <ns3:TrackPointExtension>
            <ns3:hr>136</ns3:hr>
            <ns3:cad>79</ns3:cad>
          </ns3:TrackPointExtension>
        </extensions>
      </trkpt>
      <trkpt lat="47.53835602663457393646240234375" lon="11.048820577561855316162109375">
        <ele>1761.199951171875</ele>
        <time>2026-09-01T08:43:17.000Z</time>
        <extensions>
          <ns3:TrackPointExtension>
            <ns3:hr>136</ns3:hr>
            <ns3:cad>79</ns3:cad>
          </ns3:TrackPointExtension>
        </extensions>
      </trkpt>
      <trkpt lat="47.53835686482489109039306640625" lon="11.04883977212011814117431640625">
        <ele>1760.800048828125</ele>
        <time>2026-09-01T08:43:18.000Z</time>
        <extensions>
          <ns3:TrackPointExtension>
            <ns3:hr>136</ns3:hr>
            <ns3:cad>79</ns3:cad>
          </ns3:TrackPointExtension>
        </extensions>
      </trkpt>
      <trkpt lat="47.538366504013538360595703125" lon="11.04884228669106960296630859375">
        <ele>1760.4000244140625</ele>
        <time>2026-09-01T08:43:19.000Z</time>
        <extensions>
          <ns3:TrackPointExtension>
            <ns3:hr>136</ns3:hr>
            <ns3:cad>79</ns3:cad>
          </ns3:TrackPointExtension>
        </extensions>
      </trkpt>
      <trkpt lat="47.5383690185844898223876953125" lon="11.0488465614616870880126953125">
        <ele>1760</ele>
        <time>2026-09-01T08:43:20.000Z</time>
        <extensions>
          <ns3:TrackPointExtension>
            <ns3:hr>136</ns3:hr>
            <ns3:cad>79</ns3:cad>
          </ns3:TrackPointExtension>
        </extensions>
      </trkpt>
      <trkpt lat="47.53836977295577526092529296875" lon="11.04884396307170391082763671875">
        <ele>1759.800048828125</ele>
        <time>2026-09-01T08:43:21.000Z</time>
        <extensions>
          <ns3:TrackPointExtension>
            <ns3:hr>137</ns3:hr>
            <ns3:cad>0</ns3:cad>
          </ns3:TrackPointExtension>
        </extensions>
      </trkpt>
      <trkpt lat="47.5383700244128704071044921875" lon="11.048837006092071533203125">
        <ele>1759.4000244140625</ele>
        <time>2026-09-01T08:43:22.000Z</time>
        <extensions>
          <ns3:TrackPointExtension>
            <ns3:hr>137</ns3:hr>
            <ns3:cad>0</ns3:cad>
          </ns3:TrackPointExtension>
        </extensions>
      </trkpt>
      <trkpt lat="47.5383693538606166839599609375" lon="11.04883457534015178680419921875">
        <ele>1759.4000244140625</ele>
        <time>2026-09-01T08:43:23.000Z</time>
        <extensions>
          <ns3:TrackPointExtension>
            <ns3:hr>138</ns3:hr>
            <ns3:cad>0</ns3:cad>
          </ns3:TrackPointExtension>
        </extensions>
      </trkpt>
      <trkpt lat="47.53837077878415584564208984375" lon="11.04883968830108642578125">
        <ele>1759.199951171875</ele>
        <time>2026-09-01T08:43:24.000Z</time>
        <extensions>
          <ns3:TrackPointExtension>
            <ns3:hr>139</ns3:hr>
            <ns3:cad>0</ns3:cad>
          </ns3:TrackPointExtension>
        </extensions>
      </trkpt>
      <trkpt lat="47.5383710302412509918212890625" lon="11.048839353024959564208984375">
        <ele>1759.199951171875</ele>
        <time>2026-09-01T08:43:25.000Z</time>
        <extensions>
          <ns3:TrackPointExtension>
            <ns3:hr>142</ns3:hr>
            <ns3:cad>0</ns3:cad>
          </ns3:TrackPointExtension>
        </extensions>
      </trkpt>
      <trkpt lat="47.53837354481220245361328125" lon="11.04884178377687931060791015625">
        <ele>1759</ele>
        <time>2026-09-01T08:43:26.000Z</time>
        <extensions>
          <ns3:TrackPointExtension>
            <ns3:hr>143</ns3:hr>
            <ns3:cad>0</ns3:cad>
          </ns3:TrackPointExtension>
        </extensions>
      </trkpt>
      <trkpt lat="47.53837480209767818450927734375" lon="11.0488435439765453338623046875">
        <ele>1758.800048828125</ele>
        <time>2026-09-01T08:43:27.000Z</time>
        <extensions>
          <ns3:TrackPointExtension>
            <ns3:hr>144</ns3:hr>
            <ns3:cad>0</ns3:cad>
          </ns3:TrackPointExtension>
        </extensions>
      </trkpt>
      <trkpt lat="47.53837488591670989990234375" lon="11.04884094558656215667724609375">
        <ele>1758.4000244140625</ele>
        <time>2026-09-01T08:43:28.000Z</time>
        <extensions>
          <ns3:TrackPointExtension>
            <ns3:hr>145</ns3:hr>
            <ns3:cad>0</ns3:cad>
          </ns3:TrackPointExtension>
        </extensions>
      </trkpt>
      <trkpt lat="47.53837396390736103057861328125" lon="11.0488408617675304412841796875">
        <ele>1758.199951171875</ele>
        <time>2026-09-01T08:43:29.000Z</time>
        <extensions>
          <ns3:TrackPointExtension>
            <ns3:hr>145</ns3:hr>
            <ns3:cad>0</ns3:cad>
          </ns3:TrackPointExtension>
        </extensions>
      </trkpt>
      <trkpt lat="47.5383768975734710693359375" lon="11.04883407242596149444580078125">
        <ele>1758.199951171875</ele>
        <time>2026-09-01T08:43:30.000Z</time>
        <extensions>
          <ns3:TrackPointExtension>
            <ns3:hr>144</ns3:hr>
            <ns3:cad>0</ns3:cad>
          </ns3:TrackPointExtension>
        </extensions>
      </trkpt>
      <trkpt lat="47.538369856774806976318359375" lon="11.0488183982670307159423828125">
        <ele>1758</ele>
        <time>2026-09-01T08:43:31.000Z</time>
        <extensions>
          <ns3:TrackPointExtension>
            <ns3:hr>143</ns3:hr>
            <ns3:cad>0</ns3:cad>
          </ns3:TrackPointExtension>
        </extensions>
      </trkpt>
      <trkpt lat="47.53835837356746196746826171875" lon="11.048791073262691497802734375">
        <ele>1758</ele>
        <time>2026-09-01T08:43:32.000Z</time>
        <extensions>
          <ns3:TrackPointExtension>
            <ns3:hr>143</ns3:hr>
            <ns3:cad>0</ns3:cad>
          </ns3:TrackPointExtension>
        </extensions>
      </trkpt>
      <trkpt lat="47.53835485316812992095947265625" lon="11.04877539910376071929931640625">
        <ele>1758</ele>
        <time>2026-09-01T08:43:33.000Z</time>
        <extensions>
          <ns3:TrackPointExtension>
            <ns3:hr>144</ns3:hr>
            <ns3:cad>0</ns3:cad>
          </ns3:TrackPointExtension>
        </extensions>
      </trkpt>
      <trkpt lat="47.53834881819784641265869140625" lon="11.04875461198389530181884765625">
        <ele>1758.199951171875</ele>
        <time>2026-09-01T08:43:34.000Z</time>
        <extensions>
          <ns3:TrackPointExtension>
            <ns3:hr>145</ns3:hr>
            <ns3:cad>0</ns3:cad>
          </ns3:TrackPointExtension>
        </extensions>
      </trkpt>
      <trkpt lat="47.5383473932743072509765625" lon="11.04874824173748493194580078125">
        <ele>1758.199951171875</ele>
        <time>2026-09-01T08:43:35.000Z</time>
        <extensions>
          <ns3:TrackPointExtension>
            <ns3:hr>144</ns3:hr>
            <ns3:cad>0</ns3:cad>
          </ns3:TrackPointExtension>
        </extensions>
      </trkpt>
      <trkpt lat="47.53834680654108524322509765625" lon="11.0487332381308078765869140625">
        <ele>1758.4000244140625</ele>
        <time>2026-09-01T08:43:36.000Z</time>
        <extensions>
          <ns3:TrackPointExtension>
            <ns3:hr>143</ns3:hr>
            <ns3:cad>0</ns3:cad>
          </ns3:TrackPointExtension>
        </extensions>
      </trkpt>
      <trkpt lat="47.53835208714008331298828125" lon="11.04872192256152629852294921875">
        <ele>1758.5999755859375</ele>
        <time>2026-09-01T08:43:37.000Z</time>
        <extensions>
          <ns3:TrackPointExtension>
            <ns3:hr>145</ns3:hr>
            <ns3:cad>67</ns3:cad>
          </ns3:TrackPointExtension>
        </extensions>
      </trkpt>
      <trkpt lat="47.53835636191070079803466796875" lon="11.0487060807645320892333984375">
        <ele>1758.800048828125</ele>
        <time>2026-09-01T08:43:38.000Z</time>
        <extensions>
          <ns3:TrackPointExtension>
            <ns3:hr>149</ns3:hr>
            <ns3:cad>67</ns3:cad>
          </ns3:TrackPointExtension>
        </extensions>
      </trkpt>
      <trkpt lat="47.53835971467196941375732421875" lon="11.0486869700253009796142578125">
        <ele>1758.5999755859375</ele>
        <time>2026-09-01T08:43:39.000Z</time>
        <extensions>
          <ns3:TrackPointExtension>
            <ns3:hr>151</ns3:hr>
            <ns3:cad>54</ns3:cad>
          </ns3:TrackPointExtension>
        </extensions>
      </trkpt>
      <trkpt lat="47.538363151252269744873046875" lon="11.048670709133148193359375">
        <ele>1758.5999755859375</ele>
        <time>2026-09-01T08:43:40.000Z</time>
        <extensions>
          <ns3:TrackPointExtension>
            <ns3:hr>151</ns3:hr>
            <ns3:cad>0</ns3:cad>
          </ns3:TrackPointExtension>
        </extensions>
      </trkpt>
      <trkpt lat="47.5383730418980121612548828125" lon="11.0486420430243015289306640625">
        <ele>1758.5999755859375</ele>
        <time>2026-09-01T08:43:41.000Z</time>
        <extensions>
          <ns3:TrackPointExtension>
            <ns3:hr>152</ns3:hr>
            <ns3:cad>0</ns3:cad>
          </ns3:TrackPointExtension>
        </extensions>
      </trkpt>
      <trkpt lat="47.53837916068732738494873046875" lon="11.0486157238483428955078125">
        <ele>1758.5999755859375</ele>
        <time>2026-09-01T08:43:42.000Z</time>
        <extensions>
          <ns3:TrackPointExtension>
            <ns3:hr>152</ns3:hr>
            <ns3:cad>0</ns3:cad>
          </ns3:TrackPointExtension>
        </extensions>
      </trkpt>
      <trkpt lat="47.538386285305023193359375" lon="11.04858714155852794647216796875">
        <ele>1758.5999755859375</ele>
        <time>2026-09-01T08:43:43.000Z</time>
        <extensions>
          <ns3:TrackPointExtension>
            <ns3:hr>153</ns3:hr>
            <ns3:cad>0</ns3:cad>
          </ns3:TrackPointExtension>
        </extensions>
      </trkpt>
      <trkpt lat="47.5383961759507656097412109375" lon="11.0485446453094482421875">
        <ele>1758.800048828125</ele>
        <time>2026-09-01T08:43:44.000Z</time>
        <extensions>
          <ns3:TrackPointExtension>
            <ns3:hr>154</ns3:hr>
            <ns3:cad>0</ns3:cad>
          </ns3:TrackPointExtension>
        </extensions>
      </trkpt>
      <trkpt lat="47.5384025461971759796142578125" lon="11.0485049150884151458740234375">
        <ele>1758.800048828125</ele>
        <time>2026-09-01T08:43:45.000Z</time>
        <extensions>
          <ns3:TrackPointExtension>
            <ns3:hr>155</ns3:hr>
            <ns3:cad>0</ns3:cad>
          </ns3:TrackPointExtension>
        </extensions>
      </trkpt>
      <trkpt lat="47.538406066596508026123046875" lon="11.04847532697021961212158203125">
        <ele>1759.199951171875</ele>
        <time>2026-09-01T08:43:46.000Z</time>
        <extensions>
          <ns3:TrackPointExtension>
            <ns3:hr>155</ns3:hr>
            <ns3:cad>77</ns3:cad>
          </ns3:TrackPointExtension>
        </extensions>
      </trkpt>
      <trkpt lat="47.53841654397547245025634765625" lon="11.0484301485121250152587890625">
        <ele>1759.4000244140625</ele>
        <time>2026-09-01T08:43:47.000Z</time>
        <extensions>
          <ns3:TrackPointExtension>
            <ns3:hr>157</ns3:hr>
            <ns3:cad>79</ns3:cad>
          </ns3:TrackPointExtension>
        </extensions>
      </trkpt>
      <trkpt lat="47.53842174075543880462646484375" lon="11.04838706552982330322265625">
        <ele>1759.5999755859375</ele>
        <time>2026-09-01T08:43:48.000Z</time>
        <extensions>
          <ns3:TrackPointExtension>
            <ns3:hr>158</ns3:hr>
            <ns3:cad>79</ns3:cad>
          </ns3:TrackPointExtension>
        </extensions>
      </trkpt>
      <trkpt lat="47.53842526115477085113525390625" lon="11.04835479520261287689208984375">
        <ele>1760</ele>
        <time>2026-09-01T08:43:49.000Z</time>
        <extensions>
          <ns3:TrackPointExtension>
            <ns3:hr>159</ns3:hr>
            <ns3:cad>80</ns3:cad>
          </ns3:TrackPointExtension>
        </extensions>
      </trkpt>
      <trkpt lat="47.5384276919066905975341796875" lon="11.0483205132186412811279296875">
        <ele>1760.4000244140625</ele>
        <time>2026-09-01T08:43:50.000Z</time>
        <extensions>
          <ns3:TrackPointExtension>
            <ns3:hr>160</ns3:hr>
            <ns3:cad>80</ns3:cad>
          </ns3:TrackPointExtension>
        </extensions>
      </trkpt>
      <trkpt lat="47.53843263722956180572509765625" lon="11.04829947464168071746826171875">
        <ele>1760.5999755859375</ele>
        <time>2026-09-01T08:43:51.000Z</time>
        <extensions>
          <ns3:TrackPointExtension>
            <ns3:hr>160</ns3:hr>
            <ns3:cad>78</ns3:cad>
          </ns3:TrackPointExtension>
        </extensions>
      </trkpt>
      <trkpt lat="47.5384266860783100128173828125" lon="11.048278771340847015380859375">
        <ele>1760.800048828125</ele>
        <time>2026-09-01T08:43:52.000Z</time>
        <extensions>
          <ns3:TrackPointExtension>
            <ns3:hr>160</ns3:hr>
            <ns3:cad>78</ns3:cad>
          </ns3:TrackPointExtension>
        </extensions>
      </trkpt>
      <trkpt lat="47.538426183164119720458984375" lon="11.048272736370563507080078125">
        <ele>1761</ele>
        <time>2026-09-01T08:43:53.000Z</time>
        <extensions>
          <ns3:TrackPointExtension>
            <ns3:hr>161</ns3:hr>
            <ns3:cad>78</ns3:cad>
          </ns3:TrackPointExtension>
        </extensions>
      </trkpt>
      <trkpt lat="47.5384323857724666595458984375" lon="11.04825002141296863555908203125">
        <ele>1761</ele>
        <time>2026-09-01T08:43:54.000Z</time>
        <extensions>
          <ns3:TrackPointExtension>
            <ns3:hr>161</ns3:hr>
            <ns3:cad>78</ns3:cad>
          </ns3:TrackPointExtension>
        </extensions>
      </trkpt>
      <trkpt lat="47.5384377501904964447021484375" lon="11.04823158122599124908447265625">
        <ele>1761.199951171875</ele>
        <time>2026-09-01T08:43:55.000Z</time>
        <extensions>
          <ns3:TrackPointExtension>
            <ns3:hr>161</ns3:hr>
            <ns3:cad>78</ns3:cad>
          </ns3:TrackPointExtension>
        </extensions>
      </trkpt>
      <trkpt lat="47.5384357385337352752685546875" lon="11.0482071898877620697021484375">
        <ele>1761.5999755859375</ele>
        <time>2026-09-01T08:43:56.000Z</time>
        <extensions>
          <ns3:TrackPointExtension>
            <ns3:hr>160</ns3:hr>
            <ns3:cad>71</ns3:cad>
          </ns3:TrackPointExtension>
        </extensions>
      </trkpt>
      <trkpt lat="47.5384390912950038909912109375" lon="11.04818045161664485931396484375">
        <ele>1762.199951171875</ele>
        <time>2026-09-01T08:43:57.000Z</time>
        <extensions>
          <ns3:TrackPointExtension>
            <ns3:hr>160</ns3:hr>
            <ns3:cad>71</ns3:cad>
          </ns3:TrackPointExtension>
        </extensions>
      </trkpt>
      <trkpt lat="47.5384421087801456451416015625" lon="11.04815899394452571868896484375">
        <ele>1762.800048828125</ele>
        <time>2026-09-01T08:43:58.000Z</time>
        <extensions>
          <ns3:TrackPointExtension>
            <ns3:hr>159</ns3:hr>
            <ns3:cad>71</ns3:cad>
          </ns3:TrackPointExtension>
        </extensions>
      </trkpt>
      <trkpt lat="47.53843984566628932952880859375" lon="11.04813954792916774749755859375">
        <ele>1763.199951171875</ele>
        <time>2026-09-01T08:43:59.000Z</time>
        <extensions>
          <ns3:TrackPointExtension>
            <ns3:hr>159</ns3:hr>
            <ns3:cad>71</ns3:cad>
          </ns3:TrackPointExtension>
        </extensions>
      </trkpt>
      <trkpt lat="47.53843984566628932952880859375" lon="11.04812278412282466888427734375">
        <ele>1763.5999755859375</ele>
        <time>2026-09-01T08:44:00.000Z</time>
        <extensions>
          <ns3:TrackPointExtension>
            <ns3:hr>159</ns3:hr>
            <ns3:cad>66</ns3:cad>
          </ns3:TrackPointExtension>
        </extensions>
      </trkpt>
      <trkpt lat="47.5384427793323993682861328125" lon="11.04811725206673145294189453125">
        <ele>1763.800048828125</ele>
        <time>2026-09-01T08:44:01.000Z</time>
        <extensions>
          <ns3:TrackPointExtension>
            <ns3:hr>158</ns3:hr>
            <ns3:cad>66</ns3:cad>
          </ns3:TrackPointExtension>
        </extensions>
      </trkpt>
      <trkpt lat="47.5384404323995113372802734375" lon="11.0481253825128078460693359375">
        <ele>1763.800048828125</ele>
        <time>2026-09-01T08:44:02.000Z</time>
        <extensions>
          <ns3:TrackPointExtension>
            <ns3:hr>157</ns3:hr>
            <ns3:cad>0</ns3:cad>
          </ns3:TrackPointExtension>
        </extensions>
      </trkpt>
      <trkpt lat="47.53843816928565502166748046875" lon="11.048123873770236968994140625">
        <ele>1764</ele>
        <time>2026-09-01T08:44:03.000Z</time>
        <extensions>
          <ns3:TrackPointExtension>
            <ns3:hr>156</ns3:hr>
            <ns3:cad>0</ns3:cad>
          </ns3:TrackPointExtension>
        </extensions>
      </trkpt>
      <trkpt lat="47.53843598999083042144775390625" lon="11.04812395758926868438720703125">
        <ele>1764</ele>
        <time>2026-09-01T08:44:04.000Z</time>
        <extensions>
          <ns3:TrackPointExtension>
            <ns3:hr>157</ns3:hr>
            <ns3:cad>0</ns3:cad>
          </ns3:TrackPointExtension>
        </extensions>
      </trkpt>
      <trkpt lat="47.53843498416244983673095703125" lon="11.0481243766844272613525390625">
        <ele>1764.199951171875</ele>
        <time>2026-09-01T08:44:05.000Z</time>
        <extensions>
          <ns3:TrackPointExtension>
            <ns3:hr>158</ns3:hr>
            <ns3:cad>0</ns3:cad>
          </ns3:TrackPointExtension>
        </extensions>
      </trkpt>
      <trkpt lat="47.53843481652438640594482421875" lon="11.0481240414083003997802734375">
        <ele>1764.199951171875</ele>
        <time>2026-09-01T08:44:06.000Z</time>
        <extensions>
          <ns3:TrackPointExtension>
            <ns3:hr>158</ns3:hr>
            <ns3:cad>0</ns3:cad>
          </ns3:TrackPointExtension>
        </extensions>
      </trkpt>
      <trkpt lat="47.5384323857724666595458984375" lon="11.04812513105571269989013671875">
        <ele>1764.199951171875</ele>
        <time>2026-09-01T08:44:07.000Z</time>
        <extensions>
          <ns3:TrackPointExtension>
            <ns3:hr>158</ns3:hr>
            <ns3:cad>0</ns3:cad>
          </ns3:TrackPointExtension>
        </extensions>
      </trkpt>
      <trkpt lat="47.53843196667730808258056640625" lon="11.04812429286539554595947265625">
        <ele>1764.199951171875</ele>
        <time>2026-09-01T08:44:08.000Z</time>
        <extensions>
          <ns3:TrackPointExtension>
            <ns3:hr>158</ns3:hr>
            <ns3:cad>0</ns3:cad>
          </ns3:TrackPointExtension>
        </extensions>
      </trkpt>
      <trkpt lat="47.5384307093918323516845703125" lon="11.0481109656393527984619140625">
        <ele>1764.199951171875</ele>
        <time>2026-09-01T08:44:09.000Z</time>
        <extensions>
          <ns3:TrackPointExtension>
            <ns3:hr>158</ns3:hr>
            <ns3:cad>0</ns3:cad>
          </ns3:TrackPointExtension>
        </extensions>
      </trkpt>
      <trkpt lat="47.53843045793473720550537109375" lon="11.048105098307132720947265625">
        <ele>1764.199951171875</ele>
        <time>2026-09-01T08:44:10.000Z</time>
        <extensions>
          <ns3:TrackPointExtension>
            <ns3:hr>157</ns3:hr>
            <ns3:cad>0</ns3:cad>
          </ns3:TrackPointExtension>
        </extensions>
      </trkpt>
      <trkpt lat="47.5384305417537689208984375" lon="11.048089675605297088623046875">
        <ele>1764</ele>
        <time>2026-09-01T08:44:11.000Z</time>
        <extensions>
          <ns3:TrackPointExtension>
            <ns3:hr>157</ns3:hr>
            <ns3:cad>0</ns3:cad>
          </ns3:TrackPointExtension>
        </extensions>
      </trkpt>
      <trkpt lat="47.5384318828582763671875" lon="11.04805103503167629241943359375">
        <ele>1764</ele>
        <time>2026-09-01T08:44:12.000Z</time>
        <extensions>
          <ns3:TrackPointExtension>
            <ns3:hr>156</ns3:hr>
            <ns3:cad>0</ns3:cad>
          </ns3:TrackPointExtension>
        </extensions>
      </trkpt>
      <trkpt lat="47.53842978738248348236083984375" lon="11.0480070300400257110595703125">
        <ele>1763.800048828125</ele>
        <time>2026-09-01T08:44:13.000Z</time>
        <extensions>
          <ns3:TrackPointExtension>
            <ns3:hr>156</ns3:hr>
            <ns3:cad>0</ns3:cad>
          </ns3:TrackPointExtension>
        </extensions>
      </trkpt>
      <trkpt lat="47.538433559238910675048828125" lon="11.0479808785021305084228515625">
        <ele>1764</ele>
        <time>2026-09-01T08:44:14.000Z</time>
        <extensions>
          <ns3:TrackPointExtension>
            <ns3:hr>156</ns3:hr>
            <ns3:cad>0</ns3:cad>
          </ns3:TrackPointExtension>
        </extensions>
      </trkpt>
      <trkpt lat="47.5384347327053546905517578125" lon="11.047954559326171875">
        <ele>1764.4000244140625</ele>
        <time>2026-09-01T08:44:15.000Z</time>
        <extensions>
          <ns3:TrackPointExtension>
            <ns3:hr>156</ns3:hr>
            <ns3:cad>0</ns3:cad>
          </ns3:TrackPointExtension>
        </extensions>
      </trkpt>
      <trkpt lat="47.538439929485321044921875" lon="11.0479329340159893035888671875">
        <ele>1765</ele>
        <time>2026-09-01T08:44:16.000Z</time>
        <extensions>
          <ns3:TrackPointExtension>
            <ns3:hr>157</ns3:hr>
            <ns3:cad>70</ns3:cad>
          </ns3:TrackPointExtension>
        </extensions>
      </trkpt>
      <trkpt lat="47.53844554536044597625732421875" lon="11.0479074530303478240966796875">
        <ele>1765.800048828125</ele>
        <time>2026-09-01T08:44:17.000Z</time>
        <extensions>
          <ns3:TrackPointExtension>
            <ns3:hr>159</ns3:hr>
            <ns3:cad>75</ns3:cad>
          </ns3:TrackPointExtension>
        </extensions>
      </trkpt>
      <trkpt lat="47.538449652493000030517578125" lon="11.04787987656891345977783203125">
        <ele>1766</ele>
        <time>2026-09-01T08:44:18.000Z</time>
        <extensions>
          <ns3:TrackPointExtension>
            <ns3:hr>160</ns3:hr>
            <ns3:cad>76</ns3:cad>
          </ns3:TrackPointExtension>
        </extensions>
      </trkpt>
      <trkpt lat="47.5384558551013469696044921875" lon="11.04785556904971599578857421875">
        <ele>1766.199951171875</ele>
        <time>2026-09-01T08:44:19.000Z</time>
        <extensions>
          <ns3:TrackPointExtension>
            <ns3:hr>160</ns3:hr>
            <ns3:cad>76</ns3:cad>
          </ns3:TrackPointExtension>
        </extensions>
      </trkpt>
      <trkpt lat="47.53846230916678905487060546875" lon="11.0478333570063114166259765625">
        <ele>1766.4000244140625</ele>
        <time>2026-09-01T08:44:20.000Z</time>
        <extensions>
          <ns3:TrackPointExtension>
            <ns3:hr>161</ns3:hr>
            <ns3:cad>73</ns3:cad>
          </ns3:TrackPointExtension>
        </extensions>
      </trkpt>
      <trkpt lat="47.53846784122288227081298828125" lon="11.04781030677258968353271484375">
        <ele>1766.5999755859375</ele>
        <time>2026-09-01T08:44:21.000Z</time>
        <extensions>
          <ns3:TrackPointExtension>
            <ns3:hr>162</ns3:hr>
            <ns3:cad>70</ns3:cad>
          </ns3:TrackPointExtension>
        </extensions>
      </trkpt>
      <trkpt lat="47.538471110165119171142578125" lon="11.0477803833782672882080078125">
        <ele>1766.5999755859375</ele>
        <time>2026-09-01T08:44:22.000Z</time>
        <extensions>
          <ns3:TrackPointExtension>
            <ns3:hr>162</ns3:hr>
            <ns3:cad>70</ns3:cad>
          </ns3:TrackPointExtension>
        </extensions>
      </trkpt>
      <trkpt lat="47.53846180625259876251220703125" lon="11.0477428324520587921142578125">
        <ele>1766.5999755859375</ele>
        <time>2026-09-01T08:44:23.000Z</time>
        <extensions>
          <ns3:TrackPointExtension>
            <ns3:hr>163</ns3:hr>
            <ns3:cad>71</ns3:cad>
          </ns3:TrackPointExtension>
        </extensions>
      </trkpt>
      <trkpt lat="47.53846549428999423980712890625" lon="11.0477109812200069427490234375">
        <ele>1766.800048828125</ele>
        <time>2026-09-01T08:44:24.000Z</time>
        <extensions>
          <ns3:TrackPointExtension>
            <ns3:hr>163</ns3:hr>
            <ns3:cad>71</ns3:cad>
          </ns3:TrackPointExtension>
        </extensions>
      </trkpt>
      <trkpt lat="47.5384786538779735565185546875" lon="11.04769430123269557952880859375">
        <ele>1767</ele>
        <time>2026-09-01T08:44:25.000Z</time>
        <extensions>
          <ns3:TrackPointExtension>
            <ns3:hr>164</ns3:hr>
            <ns3:cad>72</ns3:cad>
          </ns3:TrackPointExtension>
        </extensions>
      </trkpt>
      <trkpt lat="47.538490556180477142333984375" lon="11.04768189601600170135498046875">
        <ele>1767.199951171875</ele>
        <time>2026-09-01T08:44:26.000Z</time>
        <extensions>
          <ns3:TrackPointExtension>
            <ns3:hr>164</ns3:hr>
            <ns3:cad>72</ns3:cad>
          </ns3:TrackPointExtension>
        </extensions>
      </trkpt>
      <trkpt lat="47.53849969245493412017822265625" lon="11.04766613803803920745849609375">
        <ele>1767.4000244140625</ele>
        <time>2026-09-01T08:44:27.000Z</time>
        <extensions>
          <ns3:TrackPointExtension>
            <ns3:hr>165</ns3:hr>
            <ns3:cad>72</ns3:cad>
          </ns3:TrackPointExtension>
        </extensions>
      </trkpt>
      <trkpt lat="47.53851293586194515228271484375" lon="11.04764166288077831268310546875">
        <ele>1767.5999755859375</ele>
        <time>2026-09-01T08:44:28.000Z</time>
        <extensions>
          <ns3:TrackPointExtension>
            <ns3:hr>166</ns3:hr>
            <ns3:cad>75</ns3:cad>
          </ns3:TrackPointExtension>
        </extensions>
      </trkpt>
      <trkpt lat="47.53852240741252899169921875" lon="11.04761165566742420196533203125">
        <ele>1767.5999755859375</ele>
        <time>2026-09-01T08:44:29.000Z</time>
        <extensions>
          <ns3:TrackPointExtension>
            <ns3:hr>166</ns3:hr>
            <ns3:cad>75</ns3:cad>
          </ns3:TrackPointExtension>
        </extensions>
      </trkpt>
      <trkpt lat="47.53852643072605133056640625" lon="11.0475936345756053924560546875">
        <ele>1767.5999755859375</ele>
        <time>2026-09-01T08:44:30.000Z</time>
        <extensions>
          <ns3:TrackPointExtension>
            <ns3:hr>167</ns3:hr>
            <ns3:cad>75</ns3:cad>
          </ns3:TrackPointExtension>
        </extensions>
      </trkpt>
      <trkpt lat="47.5385296158492565155029296875" lon="11.04756136424839496612548828125">
        <ele>1767.5999755859375</ele>
        <time>2026-09-01T08:44:31.000Z</time>
        <extensions>
          <ns3:TrackPointExtension>
            <ns3:hr>167</ns3:hr>
            <ns3:cad>75</ns3:cad>
          </ns3:TrackPointExtension>
        </extensions>
      </trkpt>
      <trkpt lat="47.53853238187730312347412109375" lon="11.04752046056091785430908203125">
        <ele>1767.4000244140625</ele>
        <time>2026-09-01T08:44:32.000Z</time>
        <extensions>
          <ns3:TrackPointExtension>
            <ns3:hr>167</ns3:hr>
            <ns3:cad>75</ns3:cad>
          </ns3:TrackPointExtension>
        </extensions>
      </trkpt>
      <trkpt lat="47.53853322006762027740478515625" lon="11.04748659767210483551025390625">
        <ele>1767.4000244140625</ele>
        <time>2026-09-01T08:44:33.000Z</time>
        <extensions>
          <ns3:TrackPointExtension>
            <ns3:hr>167</ns3:hr>
            <ns3:cad>75</ns3:cad>
          </ns3:TrackPointExtension>
        </extensions>
      </trkpt>
      <trkpt lat="47.538541853427886962890625" lon="11.04746304452419281005859375">
        <ele>1767.4000244140625</ele>
        <time>2026-09-01T08:44:34.000Z</time>
        <extensions>
          <ns3:TrackPointExtension>
            <ns3:hr>167</ns3:hr>
            <ns3:cad>76</ns3:cad>
          </ns3:TrackPointExtension>
        </extensions>
      </trkpt>
      <trkpt lat="47.53855048678815364837646484375" lon="11.0474377311766147613525390625">
        <ele>1767.800048828125</ele>
        <time>2026-09-01T08:44:35.000Z</time>
        <extensions>
          <ns3:TrackPointExtension>
            <ns3:hr>167</ns3:hr>
            <ns3:cad>76</ns3:cad>
          </ns3:TrackPointExtension>
        </extensions>
      </trkpt>
      <trkpt lat="47.53855585120618343353271484375" lon="11.04741032235324382781982421875">
        <ele>1768.4000244140625</ele>
        <time>2026-09-01T08:44:36.000Z</time>
        <extensions>
          <ns3:TrackPointExtension>
            <ns3:hr>167</ns3:hr>
            <ns3:cad>76</ns3:cad>
          </ns3:TrackPointExtension>
        </extensions>
      </trkpt>
      <trkpt lat="47.53856473602354526519775390625" lon="11.04738852940499782562255859375">
        <ele>1768.800048828125</ele>
        <time>2026-09-01T08:44:37.000Z</time>
        <extensions>
          <ns3:TrackPointExtension>
            <ns3:hr>168</ns3:hr>
            <ns3:cad>76</ns3:cad>
          </ns3:TrackPointExtension>
        </extensions>
      </trkpt>
      <trkpt lat="47.53856875933706760406494140625" lon="11.0473730228841304779052734375">
        <ele>1769.199951171875</ele>
        <time>2026-09-01T08:44:38.000Z</time>
        <extensions>
          <ns3:TrackPointExtension>
            <ns3:hr>168</ns3:hr>
            <ns3:cad>76</ns3:cad>
          </ns3:TrackPointExtension>
        </extensions>
      </trkpt>
      <trkpt lat="47.53857177682220935821533203125" lon="11.04735575616359710693359375">
        <ele>1769.5999755859375</ele>
        <time>2026-09-01T08:44:39.000Z</time>
        <extensions>
          <ns3:TrackPointExtension>
            <ns3:hr>169</ns3:hr>
            <ns3:cad>0</ns3:cad>
          </ns3:TrackPointExtension>
        </extensions>
      </trkpt>
      <trkpt lat="47.538569681346416473388671875" lon="11.0473430156707763671875">
        <ele>1770</ele>
        <time>2026-09-01T08:44:40.000Z</time>
        <extensions>
          <ns3:TrackPointExtension>
            <ns3:hr>169</ns3:hr>
            <ns3:cad>0</ns3:cad>
          </ns3:TrackPointExtension>
        </extensions>
      </trkpt>
      <trkpt lat="47.53856691531836986541748046875" lon="11.04731845669448375701904296875">
        <ele>1770.199951171875</ele>
        <time>2026-09-01T08:44:41.000Z</time>
        <extensions>
          <ns3:TrackPointExtension>
            <ns3:hr>169</ns3:hr>
            <ns3:cad>0</ns3:cad>
          </ns3:TrackPointExtension>
        </extensions>
      </trkpt>
      <trkpt lat="47.5385646522045135498046875" lon="11.047297753393650054931640625">
        <ele>1770.5999755859375</ele>
        <time>2026-09-01T08:44:42.000Z</time>
        <extensions>
          <ns3:TrackPointExtension>
            <ns3:hr>169</ns3:hr>
            <ns3:cad>0</ns3:cad>
          </ns3:TrackPointExtension>
        </extensions>
      </trkpt>
      <trkpt lat="47.53856305964291095733642578125" lon="11.0472774691879749298095703125">
        <ele>1771.199951171875</ele>
        <time>2026-09-01T08:44:43.000Z</time>
        <extensions>
          <ns3:TrackPointExtension>
            <ns3:hr>168</ns3:hr>
            <ns3:cad>0</ns3:cad>
          </ns3:TrackPointExtension>
        </extensions>
      </trkpt>
      <trkpt lat="47.53856121562421321868896484375" lon="11.0472550056874752044677734375">
        <ele>1771.5999755859375</ele>
        <time>2026-09-01T08:44:44.000Z</time>
        <extensions>
          <ns3:TrackPointExtension>
            <ns3:hr>163</ns3:hr>
            <ns3:cad>56</ns3:cad>
          </ns3:TrackPointExtension>
        </extensions>
      </trkpt>
      <trkpt lat="47.53855995833873748779296875" lon="11.047233045101165771484375">
        <ele>1772</ele>
        <time>2026-09-01T08:44:45.000Z</time>
        <extensions>
          <ns3:TrackPointExtension>
            <ns3:hr>160</ns3:hr>
            <ns3:cad>56</ns3:cad>
          </ns3:TrackPointExtension>
        </extensions>
      </trkpt>
      <trkpt lat="47.53855886869132518768310546875" lon="11.04721225798130035400390625">
        <ele>1772.4000244140625</ele>
        <time>2026-09-01T08:44:46.000Z</time>
        <extensions>
          <ns3:TrackPointExtension>
            <ns3:hr>159</ns3:hr>
            <ns3:cad>56</ns3:cad>
          </ns3:TrackPointExtension>
        </extensions>
      </trkpt>
      <trkpt lat="47.53855803050100803375244140625" lon="11.0471939854323863983154296875">
        <ele>1772.800048828125</ele>
        <time>2026-09-01T08:44:47.000Z</time>
        <extensions>
          <ns3:TrackPointExtension>
            <ns3:hr>160</ns3:hr>
            <ns3:cad>55</ns3:cad>
          </ns3:TrackPointExtension>
        </extensions>
      </trkpt>
      <trkpt lat="47.5385574437677860260009765625" lon="11.04718099348247051239013671875">
        <ele>1772.800048828125</ele>
        <time>2026-09-01T08:44:48.000Z</time>
        <extensions>
          <ns3:TrackPointExtension>
            <ns3:hr>160</ns3:hr>
            <ns3:cad>53</ns3:cad>
          </ns3:TrackPointExtension>
        </extensions>
      </trkpt>
      <trkpt lat="47.53855702467262744903564453125" lon="11.04716800153255462646484375">
        <ele>1773</ele>
        <time>2026-09-01T08:44:49.000Z</time>
        <extensions>
          <ns3:TrackPointExtension>
            <ns3:hr>160</ns3:hr>
            <ns3:cad>53</ns3:cad>
          </ns3:TrackPointExtension>
        </extensions>
      </trkpt>
      <trkpt lat="47.53855526447296142578125" lon="11.04715702123939990997314453125">
        <ele>1773.199951171875</ele>
        <time>2026-09-01T08:44:50.000Z</time>
        <extensions>
          <ns3:TrackPointExtension>
            <ns3:hr>160</ns3:hr>
            <ns3:cad>53</ns3:cad>
          </ns3:TrackPointExtension>
        </extensions>
      </trkpt>
      <trkpt lat="47.53855316899716854095458984375" lon="11.04714511893689632415771484375">
        <ele>1773.5999755859375</ele>
        <time>2026-09-01T08:44:51.000Z</time>
        <extensions>
          <ns3:TrackPointExtension>
            <ns3:hr>160</ns3:hr>
            <ns3:cad>52</ns3:cad>
          </ns3:TrackPointExtension>
        </extensions>
      </trkpt>
      <trkpt lat="47.5385512411594390869140625" lon="11.047135479748249053955078125">
        <ele>1774</ele>
        <time>2026-09-01T08:44:52.000Z</time>
        <extensions>
          <ns3:TrackPointExtension>
            <ns3:hr>160</ns3:hr>
            <ns3:cad>50</ns3:cad>
          </ns3:TrackPointExtension>
        </extensions>
      </trkpt>
      <trkpt lat="47.5385485589504241943359375" lon="11.047121398150920867919921875">
        <ele>1774.5999755859375</ele>
        <time>2026-09-01T08:44:53.000Z</time>
        <extensions>
          <ns3:TrackPointExtension>
            <ns3:hr>160</ns3:hr>
            <ns3:cad>49</ns3:cad>
          </ns3:TrackPointExtension>
        </extensions>
      </trkpt>
      <trkpt lat="47.53854881040751934051513671875" lon="11.04710874147713184356689453125">
        <ele>1775</ele>
        <time>2026-09-01T08:44:54.000Z</time>
        <extensions>
          <ns3:TrackPointExtension>
            <ns3:hr>160</ns3:hr>
            <ns3:cad>49</ns3:cad>
          </ns3:TrackPointExtension>
        </extensions>
      </trkpt>
      <trkpt lat="47.53855283372104167938232421875" lon="11.04709231294691562652587890625">
        <ele>1775.800048828125</ele>
        <time>2026-09-01T08:44:55.000Z</time>
        <extensions>
          <ns3:TrackPointExtension>
            <ns3:hr>160</ns3:hr>
            <ns3:cad>49</ns3:cad>
          </ns3:TrackPointExtension>
        </extensions>
      </trkpt>
      <trkpt lat="47.538555599749088287353515625" lon="11.047077812254428863525390625">
        <ele>1776.5999755859375</ele>
        <time>2026-09-01T08:44:56.000Z</time>
        <extensions>
          <ns3:TrackPointExtension>
            <ns3:hr>161</ns3:hr>
            <ns3:cad>49</ns3:cad>
          </ns3:TrackPointExtension>
        </extensions>
      </trkpt>
      <trkpt lat="47.538558952510356903076171875" lon="11.047070436179637908935546875">
        <ele>1777.199951171875</ele>
        <time>2026-09-01T08:44:57.000Z</time>
        <extensions>
          <ns3:TrackPointExtension>
            <ns3:hr>161</ns3:hr>
            <ns3:cad>49</ns3:cad>
          </ns3:TrackPointExtension>
        </extensions>
      </trkpt>
      <trkpt lat="47.5385752134025096893310546875" lon="11.04705794714391231536865234375">
        <ele>1777.800048828125</ele>
        <time>2026-09-01T08:44:58.000Z</time>
        <extensions>
          <ns3:TrackPointExtension>
            <ns3:hr>161</ns3:hr>
            <ns3:cad>0</ns3:cad>
          </ns3:TrackPointExtension>
        </extensions>
      </trkpt>
      <trkpt lat="47.53858082927763462066650390625" lon="11.04705400764942169189453125">
        <ele>1778.199951171875</ele>
        <time>2026-09-01T08:44:59.000Z</time>
        <extensions>
          <ns3:TrackPointExtension>
            <ns3:hr>161</ns3:hr>
            <ns3:cad>0</ns3:cad>
          </ns3:TrackPointExtension>
        </extensions>
      </trkpt>
      <trkpt lat="47.53858569078147411346435546875" lon="11.04704252444207668304443359375">
        <ele>1778.5999755859375</ele>
        <time>2026-09-01T08:45:00.000Z</time>
        <extensions>
          <ns3:TrackPointExtension>
            <ns3:hr>162</ns3:hr>
            <ns3:cad>0</ns3:cad>
          </ns3:TrackPointExtension>
        </extensions>
      </trkpt>
      <trkpt lat="47.5385862775146961212158203125" lon="11.0470303706824779510498046875">
        <ele>1779</ele>
        <time>2026-09-01T08:45:01.000Z</time>
        <extensions>
          <ns3:TrackPointExtension>
            <ns3:hr>162</ns3:hr>
            <ns3:cad>0</ns3:cad>
          </ns3:TrackPointExtension>
        </extensions>
      </trkpt>
      <trkpt lat="47.53858602605760097503662109375" lon="11.0470171272754669189453125">
        <ele>1779.4000244140625</ele>
        <time>2026-09-01T08:45:02.000Z</time>
        <extensions>
          <ns3:TrackPointExtension>
            <ns3:hr>163</ns3:hr>
            <ns3:cad>0</ns3:cad>
          </ns3:TrackPointExtension>
        </extensions>
      </trkpt>
      <trkpt lat="47.53858543932437896728515625" lon="11.04700413532555103302001953125">
        <ele>1779.800048828125</ele>
        <time>2026-09-01T08:45:03.000Z</time>
        <extensions>
          <ns3:TrackPointExtension>
            <ns3:hr>163</ns3:hr>
            <ns3:cad>0</ns3:cad>
          </ns3:TrackPointExtension>
        </extensions>
      </trkpt>
      <trkpt lat="47.5385859422385692596435546875" lon="11.0469958372414112091064453125">
        <ele>1780</ele>
        <time>2026-09-01T08:45:04.000Z</time>
        <extensions>
          <ns3:TrackPointExtension>
            <ns3:hr>163</ns3:hr>
            <ns3:cad>0</ns3:cad>
          </ns3:TrackPointExtension>
        </extensions>
      </trkpt>
      <trkpt lat="47.5385852716863155364990234375" lon="11.04698820970952510833740234375">
        <ele>1780.199951171875</ele>
        <time>2026-09-01T08:45:05.000Z</time>
        <extensions>
          <ns3:TrackPointExtension>
            <ns3:hr>164</ns3:hr>
            <ns3:cad>0</ns3:cad>
          </ns3:TrackPointExtension>
        </extensions>
      </trkpt>
      <trkpt lat="47.53859105519950389862060546875" lon="11.04697697795927524566650390625">
        <ele>1780.5999755859375</ele>
        <time>2026-09-01T08:45:06.000Z</time>
        <extensions>
          <ns3:TrackPointExtension>
            <ns3:hr>164</ns3:hr>
            <ns3:cad>0</ns3:cad>
          </ns3:TrackPointExtension>
        </extensions>
      </trkpt>
      <trkpt lat="47.5385933183133602142333984375" lon="11.0469663329422473907470703125">
        <ele>1781</ele>
        <time>2026-09-01T08:45:07.000Z</time>
        <extensions>
          <ns3:TrackPointExtension>
            <ns3:hr>165</ns3:hr>
            <ns3:cad>0</ns3:cad>
          </ns3:TrackPointExtension>
        </extensions>
      </trkpt>
      <trkpt lat="47.53859256394207477569580078125" lon="11.046964824199676513671875">
        <ele>1781.4000244140625</ele>
        <time>2026-09-01T08:45:08.000Z</time>
        <extensions>
          <ns3:TrackPointExtension>
            <ns3:hr>165</ns3:hr>
            <ns3:cad>0</ns3:cad>
          </ns3:TrackPointExtension>
        </extensions>
      </trkpt>
      <trkpt lat="47.53859541378915309906005859375" lon="11.0469447076320648193359375">
        <ele>1782</ele>
        <time>2026-09-01T08:45:09.000Z</time>
        <extensions>
          <ns3:TrackPointExtension>
            <ns3:hr>165</ns3:hr>
            <ns3:cad>0</ns3:cad>
          </ns3:TrackPointExtension>
        </extensions>
      </trkpt>
      <trkpt lat="47.5385933183133602142333984375" lon="11.04693406261503696441650390625">
        <ele>1782.4000244140625</ele>
        <time>2026-09-01T08:45:10.000Z</time>
        <extensions>
          <ns3:TrackPointExtension>
            <ns3:hr>165</ns3:hr>
            <ns3:cad>0</ns3:cad>
          </ns3:TrackPointExtension>
        </extensions>
      </trkpt>
      <trkpt lat="47.53859206102788448333740234375" lon="11.04691294021904468536376953125">
        <ele>1782.5999755859375</ele>
        <time>2026-09-01T08:45:11.000Z</time>
        <extensions>
          <ns3:TrackPointExtension>
            <ns3:hr>166</ns3:hr>
            <ns3:cad>44</ns3:cad>
          </ns3:TrackPointExtension>
        </extensions>
      </trkpt>
      <trkpt lat="47.53858787007629871368408203125" lon="11.04690556414425373077392578125">
        <ele>1782.5999755859375</ele>
        <time>2026-09-01T08:45:12.000Z</time>
        <extensions>
          <ns3:TrackPointExtension>
            <ns3:hr>166</ns3:hr>
            <ns3:cad>44</ns3:cad>
          </ns3:TrackPointExtension>
        </extensions>
      </trkpt>
      <trkpt lat="47.538585104048252105712890625" lon="11.04689064435660839080810546875">
        <ele>1782.800048828125</ele>
        <time>2026-09-01T08:45:13.000Z</time>
        <extensions>
          <ns3:TrackPointExtension>
            <ns3:hr>166</ns3:hr>
            <ns3:cad>0</ns3:cad>
          </ns3:TrackPointExtension>
        </extensions>
      </trkpt>
      <trkpt lat="47.53858351148664951324462890625" lon="11.04688444174826145172119140625">
        <ele>1783</ele>
        <time>2026-09-01T08:45:14.000Z</time>
        <extensions>
          <ns3:TrackPointExtension>
            <ns3:hr>166</ns3:hr>
            <ns3:cad>0</ns3:cad>
          </ns3:TrackPointExtension>
        </extensions>
      </trkpt>
      <trkpt lat="47.53857529722154140472412109375" lon="11.0468722879886627197265625">
        <ele>1783.4000244140625</ele>
        <time>2026-09-01T08:45:15.000Z</time>
        <extensions>
          <ns3:TrackPointExtension>
            <ns3:hr>166</ns3:hr>
            <ns3:cad>0</ns3:cad>
          </ns3:TrackPointExtension>
        </extensions>
      </trkpt>
      <trkpt lat="47.538572363555431365966796875" lon="11.04686298407614231109619140625">
        <ele>1784</ele>
        <time>2026-09-01T08:45:16.000Z</time>
        <extensions>
          <ns3:TrackPointExtension>
            <ns3:hr>166</ns3:hr>
            <ns3:cad>0</ns3:cad>
          </ns3:TrackPointExtension>
        </extensions>
      </trkpt>
      <trkpt lat="47.53857336938381195068359375" lon="11.04685208760201930999755859375">
        <ele>1784.4000244140625</ele>
        <time>2026-09-01T08:45:17.000Z</time>
        <extensions>
          <ns3:TrackPointExtension>
            <ns3:hr>166</ns3:hr>
            <ns3:cad>0</ns3:cad>
          </ns3:TrackPointExtension>
        </extensions>
      </trkpt>
      <trkpt lat="47.53857563249766826629638671875" lon="11.04684412479400634765625">
        <ele>1785</ele>
        <time>2026-09-01T08:45:18.000Z</time>
        <extensions>
          <ns3:TrackPointExtension>
            <ns3:hr>166</ns3:hr>
            <ns3:cad>0</ns3:cad>
          </ns3:TrackPointExtension>
        </extensions>
      </trkpt>
      <trkpt lat="47.53857412375509738922119140625" lon="11.04682643897831439971923828125">
        <ele>1785.4000244140625</ele>
        <time>2026-09-01T08:45:19.000Z</time>
        <extensions>
          <ns3:TrackPointExtension>
            <ns3:hr>166</ns3:hr>
            <ns3:cad>0</ns3:cad>
          </ns3:TrackPointExtension>
        </extensions>
      </trkpt>
      <trkpt lat="47.5385715253651142120361328125" lon="11.04682375676929950714111328125">
        <ele>1786</ele>
        <time>2026-09-01T08:45:20.000Z</time>
        <extensions>
          <ns3:TrackPointExtension>
            <ns3:hr>165</ns3:hr>
            <ns3:cad>0</ns3:cad>
          </ns3:TrackPointExtension>
        </extensions>
      </trkpt>
      <trkpt lat="47.53857160918414592742919921875" lon="11.04681638069450855255126953125">
        <ele>1786.199951171875</ele>
        <time>2026-09-01T08:45:21.000Z</time>
        <extensions>
          <ns3:TrackPointExtension>
            <ns3:hr>164</ns3:hr>
            <ns3:cad>0</ns3:cad>
          </ns3:TrackPointExtension>
        </extensions>
      </trkpt>
      <trkpt lat="47.53856666386127471923828125" lon="11.04680330492556095123291015625">
        <ele>1786.4000244140625</ele>
        <time>2026-09-01T08:45:22.000Z</time>
        <extensions>
          <ns3:TrackPointExtension>
            <ns3:hr>162</ns3:hr>
            <ns3:cad>0</ns3:cad>
          </ns3:TrackPointExtension>
        </extensions>
      </trkpt>
      <trkpt lat="47.53856356255710124969482421875" lon="11.04679157026112079620361328125">
        <ele>1786.800048828125</ele>
        <time>2026-09-01T08:45:23.000Z</time>
        <extensions>
          <ns3:TrackPointExtension>
            <ns3:hr>159</ns3:hr>
            <ns3:cad>0</ns3:cad>
          </ns3:TrackPointExtension>
        </extensions>
      </trkpt>
      <trkpt lat="47.53856129944324493408203125" lon="11.0467805899679660797119140625">
        <ele>1786.800048828125</ele>
        <time>2026-09-01T08:45:24.000Z</time>
        <extensions>
          <ns3:TrackPointExtension>
            <ns3:hr>157</ns3:hr>
            <ns3:cad>48</ns3:cad>
          </ns3:TrackPointExtension>
        </extensions>
      </trkpt>
      <trkpt lat="47.53855752758681774139404296875" lon="11.04676960967481136322021484375">
        <ele>1787</ele>
        <time>2026-09-01T08:45:25.000Z</time>
        <extensions>
          <ns3:TrackPointExtension>
            <ns3:hr>156</ns3:hr>
            <ns3:cad>48</ns3:cad>
          </ns3:TrackPointExtension>
        </extensions>
      </trkpt>
      <trkpt lat="47.538556940853595733642578125" lon="11.0467581264674663543701171875">
        <ele>1787.199951171875</ele>
        <time>2026-09-01T08:45:26.000Z</time>
        <extensions>
          <ns3:TrackPointExtension>
            <ns3:hr>156</ns3:hr>
            <ns3:cad>0</ns3:cad>
          </ns3:TrackPointExtension>
        </extensions>
      </trkpt>
      <trkpt lat="47.53855870105326175689697265625" lon="11.04674831964075565338134765625">
        <ele>1787.5999755859375</ele>
        <time>2026-09-01T08:45:27.000Z</time>
        <extensions>
          <ns3:TrackPointExtension>
            <ns3:hr>155</ns3:hr>
            <ns3:cad>0</ns3:cad>
          </ns3:TrackPointExtension>
        </extensions>
      </trkpt>
      <trkpt lat="47.53856205381453037261962890625" lon="11.04674077592790126800537109375">
        <ele>1787.800048828125</ele>
        <time>2026-09-01T08:45:28.000Z</time>
        <extensions>
          <ns3:TrackPointExtension>
            <ns3:hr>158</ns3:hr>
            <ns3:cad>0</ns3:cad>
          </ns3:TrackPointExtension>
        </extensions>
      </trkpt>
      <trkpt lat="47.53856691531836986541748046875" lon="11.04671898297965526580810546875">
        <ele>1788.199951171875</ele>
        <time>2026-09-01T08:45:29.000Z</time>
        <extensions>
          <ns3:TrackPointExtension>
            <ns3:hr>162</ns3:hr>
            <ns3:cad>46</ns3:cad>
          </ns3:TrackPointExtension>
        </extensions>
      </trkpt>
      <trkpt lat="47.53856942988932132720947265625" lon="11.04670121334493160247802734375">
        <ele>1788.5999755859375</ele>
        <time>2026-09-01T08:45:30.000Z</time>
        <extensions>
          <ns3:TrackPointExtension>
            <ns3:hr>165</ns3:hr>
            <ns3:cad>46</ns3:cad>
          </ns3:TrackPointExtension>
        </extensions>
      </trkpt>
      <trkpt lat="47.5385735370218753814697265625" lon="11.04668428190052509307861328125">
        <ele>1789</ele>
        <time>2026-09-01T08:45:31.000Z</time>
        <extensions>
          <ns3:TrackPointExtension>
            <ns3:hr>167</ns3:hr>
            <ns3:cad>0</ns3:cad>
          </ns3:TrackPointExtension>
        </extensions>
      </trkpt>
      <trkpt lat="47.53857697360217571258544921875" lon="11.04667388834059238433837890625">
        <ele>1789.4000244140625</ele>
        <time>2026-09-01T08:45:32.000Z</time>
        <extensions>
          <ns3:TrackPointExtension>
            <ns3:hr>168</ns3:hr>
            <ns3:cad>0</ns3:cad>
          </ns3:TrackPointExtension>
        </extensions>
      </trkpt>
      <trkpt lat="47.5385829247534275054931640625" lon="11.0466696135699748992919921875">
        <ele>1790</ele>
        <time>2026-09-01T08:45:33.000Z</time>
        <extensions>
          <ns3:TrackPointExtension>
            <ns3:hr>169</ns3:hr>
            <ns3:cad>0</ns3:cad>
          </ns3:TrackPointExtension>
        </extensions>
      </trkpt>
      <trkpt lat="47.5385882891714572906494140625" lon="11.0466630756855010986328125">
        <ele>1790.4000244140625</ele>
        <time>2026-09-01T08:45:34.000Z</time>
        <extensions>
          <ns3:TrackPointExtension>
            <ns3:hr>170</ns3:hr>
            <ns3:cad>0</ns3:cad>
          </ns3:TrackPointExtension>
        </extensions>
      </trkpt>
      <trkpt lat="47.53859373740851879119873046875" lon="11.04665494523942470550537109375">
        <ele>1790.5999755859375</ele>
        <time>2026-09-01T08:45:35.000Z</time>
        <extensions>
          <ns3:TrackPointExtension>
            <ns3:hr>171</ns3:hr>
            <ns3:cad>0</ns3:cad>
          </ns3:TrackPointExtension>
        </extensions>
      </trkpt>
      <trkpt lat="47.5386167876422405242919921875" lon="11.04665176011621952056884765625">
        <ele>1790.5999755859375</ele>
        <time>2026-09-01T08:45:36.000Z</time>
        <extensions>
          <ns3:TrackPointExtension>
            <ns3:hr>171</ns3:hr>
            <ns3:cad>0</ns3:cad>
          </ns3:TrackPointExtension>
        </extensions>
      </trkpt>
      <trkpt lat="47.53862508572638034820556640625" lon="11.04664974845945835113525390625">
        <ele>1790.800048828125</ele>
        <time>2026-09-01T08:45:37.000Z</time>
        <extensions>
          <ns3:TrackPointExtension>
            <ns3:hr>172</ns3:hr>
            <ns3:cad>43</ns3:cad>
          </ns3:TrackPointExtension>
        </extensions>
      </trkpt>
      <trkpt lat="47.53863237798213958740234375" lon="11.0466464795172214508056640625">
        <ele>1791</ele>
        <time>2026-09-01T08:45:38.000Z</time>
        <extensions>
          <ns3:TrackPointExtension>
            <ns3:hr>171</ns3:hr>
            <ns3:cad>43</ns3:cad>
          </ns3:TrackPointExtension>
        </extensions>
      </trkpt>
      <trkpt lat="47.538638748228549957275390625" lon="11.04664119891822338104248046875">
        <ele>1791.199951171875</ele>
        <time>2026-09-01T08:45:39.000Z</time>
        <extensions>
          <ns3:TrackPointExtension>
            <ns3:hr>171</ns3:hr>
            <ns3:cad>43</ns3:cad>
          </ns3:TrackPointExtension>
        </extensions>
      </trkpt>
      <trkpt lat="47.5386446155607700347900390625" lon="11.04663415811955928802490234375">
        <ele>1791.4000244140625</ele>
        <time>2026-09-01T08:45:40.000Z</time>
        <extensions>
          <ns3:TrackPointExtension>
            <ns3:hr>171</ns3:hr>
            <ns3:cad>43</ns3:cad>
          </ns3:TrackPointExtension>
        </extensions>
      </trkpt>
      <trkpt lat="47.53865123726427555084228515625" lon="11.04662527330219745635986328125">
        <ele>1791.5999755859375</ele>
        <time>2026-09-01T08:45:41.000Z</time>
        <extensions>
          <ns3:TrackPointExtension>
            <ns3:hr>170</ns3:hr>
            <ns3:cad>43</ns3:cad>
          </ns3:TrackPointExtension>
        </extensions>
      </trkpt>
      <trkpt lat="47.5386540032923221588134765625" lon="11.04661303572356700897216796875">
        <ele>1792.199951171875</ele>
        <time>2026-09-01T08:45:42.000Z</time>
        <extensions>
          <ns3:TrackPointExtension>
            <ns3:hr>170</ns3:hr>
            <ns3:cad>43</ns3:cad>
          </ns3:TrackPointExtension>
        </extensions>
      </trkpt>
      <trkpt lat="47.538633383810520172119140625" lon="11.0466018877923488616943359375">
        <ele>1792.5999755859375</ele>
        <time>2026-09-01T08:45:43.000Z</time>
        <extensions>
          <ns3:TrackPointExtension>
            <ns3:hr>169</ns3:hr>
            <ns3:cad>0</ns3:cad>
          </ns3:TrackPointExtension>
        </extensions>
      </trkpt>
      <trkpt lat="47.5386255048215389251708984375" lon="11.04660197161138057708740234375">
        <ele>1793</ele>
        <time>2026-09-01T08:45:44.000Z</time>
        <extensions>
          <ns3:TrackPointExtension>
            <ns3:hr>169</ns3:hr>
            <ns3:cad>0</ns3:cad>
          </ns3:TrackPointExtension>
        </extensions>
      </trkpt>
      <trkpt lat="47.53861586563289165496826171875" lon="11.0465988703072071075439453125">
        <ele>1793.800048828125</ele>
        <time>2026-09-01T08:45:45.000Z</time>
        <extensions>
          <ns3:TrackPointExtension>
            <ns3:hr>169</ns3:hr>
            <ns3:cad>0</ns3:cad>
          </ns3:TrackPointExtension>
        </extensions>
      </trkpt>
      <trkpt lat="47.53861100412905216217041015625" lon="11.046594679355621337890625">
        <ele>1793.800048828125</ele>
        <time>2026-09-01T08:45:46.000Z</time>
        <extensions>
          <ns3:TrackPointExtension>
            <ns3:hr>168</ns3:hr>
            <ns3:cad>0</ns3:cad>
          </ns3:TrackPointExtension>
        </extensions>
      </trkpt>
      <trkpt lat="47.53860580734908580780029296875" lon="11.0465968586504459381103515625">
        <ele>1794.199951171875</ele>
        <time>2026-09-01T08:45:47.000Z</time>
        <extensions>
          <ns3:TrackPointExtension>
            <ns3:hr>169</ns3:hr>
            <ns3:cad>0</ns3:cad>
          </ns3:TrackPointExtension>
        </extensions>
      </trkpt>
      <trkpt lat="47.5385995209217071533203125" lon="11.0465935058891773223876953125">
        <ele>1794.4000244140625</ele>
        <time>2026-09-01T08:45:48.000Z</time>
        <extensions>
          <ns3:TrackPointExtension>
            <ns3:hr>169</ns3:hr>
            <ns3:cad>0</ns3:cad>
          </ns3:TrackPointExtension>
        </extensions>
      </trkpt>
      <trkpt lat="47.53859440796077251434326171875" lon="11.04659132659435272216796875">
        <ele>1794.4000244140625</ele>
        <time>2026-09-01T08:45:49.000Z</time>
        <extensions>
          <ns3:TrackPointExtension>
            <ns3:hr>170</ns3:hr>
            <ns3:cad>0</ns3:cad>
          </ns3:TrackPointExtension>
        </extensions>
      </trkpt>
      <trkpt lat="47.53859206102788448333740234375" lon="11.04658755473792552947998046875">
        <ele>1794.4000244140625</ele>
        <time>2026-09-01T08:45:50.000Z</time>
        <extensions>
          <ns3:TrackPointExtension>
            <ns3:hr>169</ns3:hr>
            <ns3:cad>0</ns3:cad>
          </ns3:TrackPointExtension>
        </extensions>
      </trkpt>
      <trkpt lat="47.5386003591120243072509765625" lon="11.04657799936830997467041015625">
        <ele>1794.5999755859375</ele>
        <time>2026-09-01T08:45:51.000Z</time>
        <extensions>
          <ns3:TrackPointExtension>
            <ns3:hr>169</ns3:hr>
            <ns3:cad>0</ns3:cad>
          </ns3:TrackPointExtension>
        </extensions>
      </trkpt>
      <trkpt lat="47.5386006943881511688232421875" lon="11.046571545302867889404296875">
        <ele>1795.199951171875</ele>
        <time>2026-09-01T08:45:52.000Z</time>
        <extensions>
          <ns3:TrackPointExtension>
            <ns3:hr>169</ns3:hr>
            <ns3:cad>0</ns3:cad>
          </ns3:TrackPointExtension>
        </extensions>
      </trkpt>
      <trkpt lat="47.53859641961753368377685546875" lon="11.0465611517429351806640625">
        <ele>1795.5999755859375</ele>
        <time>2026-09-01T08:45:53.000Z</time>
        <extensions>
          <ns3:TrackPointExtension>
            <ns3:hr>169</ns3:hr>
            <ns3:cad>0</ns3:cad>
          </ns3:TrackPointExtension>
        </extensions>
      </trkpt>
      <trkpt lat="47.53859482705593109130859375" lon="11.04655084200203418731689453125">
        <ele>1796</ele>
        <time>2026-09-01T08:45:54.000Z</time>
        <extensions>
          <ns3:TrackPointExtension>
            <ns3:hr>169</ns3:hr>
            <ns3:cad>0</ns3:cad>
          </ns3:TrackPointExtension>
        </extensions>
      </trkpt>
      <trkpt lat="47.5385933183133602142333984375" lon="11.0465344972908496856689453125">
        <ele>1796.199951171875</ele>
        <time>2026-09-01T08:45:55.000Z</time>
        <extensions>
          <ns3:TrackPointExtension>
            <ns3:hr>168</ns3:hr>
            <ns3:cad>0</ns3:cad>
          </ns3:TrackPointExtension>
        </extensions>
      </trkpt>
      <trkpt lat="47.538593150675296783447265625" lon="11.04651999659836292266845703125">
        <ele>1796.4000244140625</ele>
        <time>2026-09-01T08:45:56.000Z</time>
        <extensions>
          <ns3:TrackPointExtension>
            <ns3:hr>168</ns3:hr>
            <ns3:cad>0</ns3:cad>
          </ns3:TrackPointExtension>
        </extensions>
      </trkpt>
      <trkpt lat="47.53858988173305988311767578125" lon="11.04650004766881465911865234375">
        <ele>1796.800048828125</ele>
        <time>2026-09-01T08:45:57.000Z</time>
        <extensions>
          <ns3:TrackPointExtension>
            <ns3:hr>167</ns3:hr>
            <ns3:cad>0</ns3:cad>
          </ns3:TrackPointExtension>
        </extensions>
      </trkpt>
      <trkpt lat="47.5385909713804721832275390625" lon="11.046482361853122711181640625">
        <ele>1797</ele>
        <time>2026-09-01T08:45:58.000Z</time>
        <extensions>
          <ns3:TrackPointExtension>
            <ns3:hr>167</ns3:hr>
            <ns3:cad>0</ns3:cad>
          </ns3:TrackPointExtension>
        </extensions>
      </trkpt>
      <trkpt lat="47.53859356977045536041259765625" lon="11.04646467603743076324462890625">
        <ele>1797.4000244140625</ele>
        <time>2026-09-01T08:45:59.000Z</time>
        <extensions>
          <ns3:TrackPointExtension>
            <ns3:hr>167</ns3:hr>
            <ns3:cad>0</ns3:cad>
          </ns3:TrackPointExtension>
        </extensions>
      </trkpt>
      <trkpt lat="47.538592480123043060302734375" lon="11.0464409552514553070068359375">
        <ele>1797.5999755859375</ele>
        <time>2026-09-01T08:46:00.000Z</time>
        <extensions>
          <ns3:TrackPointExtension>
            <ns3:hr>168</ns3:hr>
            <ns3:cad>0</ns3:cad>
          </ns3:TrackPointExtension>
        </extensions>
      </trkpt>
      <trkpt lat="47.5385923124849796295166015625" lon="11.04642109014093875885009765625">
        <ele>1798</ele>
        <time>2026-09-01T08:46:01.000Z</time>
        <extensions>
          <ns3:TrackPointExtension>
            <ns3:hr>168</ns3:hr>
            <ns3:cad>0</ns3:cad>
          </ns3:TrackPointExtension>
        </extensions>
      </trkpt>
      <trkpt lat="47.53858904354274272918701171875" lon="11.0463970340788364410400390625">
        <ele>1798</ele>
        <time>2026-09-01T08:46:02.000Z</time>
        <extensions>
          <ns3:TrackPointExtension>
            <ns3:hr>169</ns3:hr>
            <ns3:cad>0</ns3:cad>
          </ns3:TrackPointExtension>
        </extensions>
      </trkpt>
      <trkpt lat="47.53859289921820163726806640625" lon="11.04637515731155872344970703125">
        <ele>1798.199951171875</ele>
        <time>2026-09-01T08:46:03.000Z</time>
        <extensions>
          <ns3:TrackPointExtension>
            <ns3:hr>169</ns3:hr>
            <ns3:cad>0</ns3:cad>
          </ns3:TrackPointExtension>
        </extensions>
      </trkpt>
      <trkpt lat="47.53859373740851879119873046875" lon="11.0463541187345981597900390625">
        <ele>1798.5999755859375</ele>
        <time>2026-09-01T08:46:04.000Z</time>
        <extensions>
          <ns3:TrackPointExtension>
            <ns3:hr>170</ns3:hr>
            <ns3:cad>0</ns3:cad>
          </ns3:TrackPointExtension>
        </extensions>
      </trkpt>
      <trkpt lat="47.53859742544591426849365234375" lon="11.0463524423539638519287109375">
        <ele>1798.800048828125</ele>
        <time>2026-09-01T08:46:05.000Z</time>
        <extensions>
          <ns3:TrackPointExtension>
            <ns3:hr>171</ns3:hr>
            <ns3:cad>0</ns3:cad>
          </ns3:TrackPointExtension>
        </extensions>
      </trkpt>
      <trkpt lat="47.53860379569232463836669921875" lon="11.0463345050811767578125">
        <ele>1799.199951171875</ele>
        <time>2026-09-01T08:46:06.000Z</time>
        <extensions>
          <ns3:TrackPointExtension>
            <ns3:hr>171</ns3:hr>
            <ns3:cad>0</ns3:cad>
          </ns3:TrackPointExtension>
        </extensions>
      </trkpt>
      <trkpt lat="47.53860689699649810791015625" lon="11.046321429312229156494140625">
        <ele>1799.4000244140625</ele>
        <time>2026-09-01T08:46:07.000Z</time>
        <extensions>
          <ns3:TrackPointExtension>
            <ns3:hr>172</ns3:hr>
            <ns3:cad>0</ns3:cad>
          </ns3:TrackPointExtension>
        </extensions>
      </trkpt>
      <trkpt lat="47.53861402161419391632080078125" lon="11.04628597386181354522705078125">
        <ele>1799.5999755859375</ele>
        <time>2026-09-01T08:46:08.000Z</time>
        <extensions>
          <ns3:TrackPointExtension>
            <ns3:hr>172</ns3:hr>
            <ns3:cad>0</ns3:cad>
          </ns3:TrackPointExtension>
        </extensions>
      </trkpt>
      <trkpt lat="47.53862030804157257080078125" lon="11.046246327459812164306640625">
        <ele>1799.800048828125</ele>
        <time>2026-09-01T08:46:09.000Z</time>
        <extensions>
          <ns3:TrackPointExtension>
            <ns3:hr>172</ns3:hr>
            <ns3:cad>0</ns3:cad>
          </ns3:TrackPointExtension>
        </extensions>
      </trkpt>
      <trkpt lat="47.5386228226125240325927734375" lon="11.0462146438658237457275390625">
        <ele>1800</ele>
        <time>2026-09-01T08:46:10.000Z</time>
        <extensions>
          <ns3:TrackPointExtension>
            <ns3:hr>172</ns3:hr>
            <ns3:cad>0</ns3:cad>
          </ns3:TrackPointExtension>
        </extensions>
      </trkpt>
      <trkpt lat="47.5386278517544269561767578125" lon="11.046179942786693572998046875">
        <ele>1800</ele>
        <time>2026-09-01T08:46:11.000Z</time>
        <extensions>
          <ns3:TrackPointExtension>
            <ns3:hr>171</ns3:hr>
            <ns3:cad>0</ns3:cad>
          </ns3:TrackPointExtension>
        </extensions>
      </trkpt>
      <trkpt lat="47.53863413818180561065673828125" lon="11.04614448733627796173095703125">
        <ele>1800</ele>
        <time>2026-09-01T08:46:12.000Z</time>
        <extensions>
          <ns3:TrackPointExtension>
            <ns3:hr>171</ns3:hr>
            <ns3:cad>75</ns3:cad>
          </ns3:TrackPointExtension>
        </extensions>
      </trkpt>
      <trkpt lat="47.53863908350467681884765625" lon="11.0461239516735076904296875">
        <ele>1800.199951171875</ele>
        <time>2026-09-01T08:46:13.000Z</time>
        <extensions>
          <ns3:TrackPointExtension>
            <ns3:hr>171</ns3:hr>
            <ns3:cad>79</ns3:cad>
          </ns3:TrackPointExtension>
        </extensions>
      </trkpt>
      <trkpt lat="47.53864536993205547332763671875" lon="11.0461009852588176727294921875">
        <ele>1800.199951171875</ele>
        <time>2026-09-01T08:46:14.000Z</time>
        <extensions>
          <ns3:TrackPointExtension>
            <ns3:hr>172</ns3:hr>
            <ns3:cad>79</ns3:cad>
          </ns3:TrackPointExtension>
        </extensions>
      </trkpt>
      <trkpt lat="47.53864989615976810455322265625" lon="11.04607676155865192413330078125">
        <ele>1800.4000244140625</ele>
        <time>2026-09-01T08:46:15.000Z</time>
        <extensions>
          <ns3:TrackPointExtension>
            <ns3:hr>173</ns3:hr>
            <ns3:cad>79</ns3:cad>
          </ns3:TrackPointExtension>
        </extensions>
      </trkpt>
      <trkpt lat="47.5386540032923221588134765625" lon="11.04604960419237613677978515625">
        <ele>1800.199951171875</ele>
        <time>2026-09-01T08:46:16.000Z</time>
        <extensions>
          <ns3:TrackPointExtension>
            <ns3:hr>174</ns3:hr>
            <ns3:cad>79</ns3:cad>
          </ns3:TrackPointExtension>
        </extensions>
      </trkpt>
      <trkpt lat="47.53865106962621212005615234375" lon="11.04602697305381298065185546875">
        <ele>1800</ele>
        <time>2026-09-01T08:46:17.000Z</time>
        <extensions>
          <ns3:TrackPointExtension>
            <ns3:hr>174</ns3:hr>
            <ns3:cad>79</ns3:cad>
          </ns3:TrackPointExtension>
        </extensions>
      </trkpt>
      <trkpt lat="47.53865676932036876678466796875" lon="11.04600283317267894744873046875">
        <ele>1799.800048828125</ele>
        <time>2026-09-01T08:46:18.000Z</time>
        <extensions>
          <ns3:TrackPointExtension>
            <ns3:hr>175</ns3:hr>
            <ns3:cad>76</ns3:cad>
          </ns3:TrackPointExtension>
        </extensions>
      </trkpt>
      <trkpt lat="47.53866456449031829833984375" lon="11.04598112404346466064453125">
        <ele>1799.4000244140625</ele>
        <time>2026-09-01T08:46:19.000Z</time>
        <extensions>
          <ns3:TrackPointExtension>
            <ns3:hr>177</ns3:hr>
            <ns3:cad>75</ns3:cad>
          </ns3:TrackPointExtension>
        </extensions>
      </trkpt>
      <trkpt lat="47.53867822699248790740966796875" lon="11.04596176184713840484619140625">
        <ele>1799</ele>
        <time>2026-09-01T08:46:20.000Z</time>
        <extensions>
          <ns3:TrackPointExtension>
            <ns3:hr>179</ns3:hr>
            <ns3:cad>75</ns3:cad>
          </ns3:TrackPointExtension>
        </extensions>
      </trkpt>
      <trkpt lat="47.53869348205626010894775390625" lon="11.045941896736621856689453125">
        <ele>1798.5999755859375</ele>
        <time>2026-09-01T08:46:21.000Z</time>
        <extensions>
          <ns3:TrackPointExtension>
            <ns3:hr>179</ns3:hr>
            <ns3:cad>75</ns3:cad>
          </ns3:TrackPointExtension>
        </extensions>
      </trkpt>
      <trkpt lat="47.53870303742587566375732421875" lon="11.04592504911124706268310546875">
        <ele>1798</ele>
        <time>2026-09-01T08:46:22.000Z</time>
        <extensions>
          <ns3:TrackPointExtension>
            <ns3:hr>180</ns3:hr>
            <ns3:cad>69</ns3:cad>
          </ns3:TrackPointExtension>
        </extensions>
      </trkpt>
      <trkpt lat="47.538719885051250457763671875" lon="11.04592655785381793975830078125">
        <ele>1797.5999755859375</ele>
        <time>2026-09-01T08:46:23.000Z</time>
        <extensions>
          <ns3:TrackPointExtension>
            <ns3:hr>181</ns3:hr>
            <ns3:cad>69</ns3:cad>
          </ns3:TrackPointExtension>
        </extensions>
      </trkpt>
      <trkpt lat="47.538737319409847259521484375" lon="11.0459370352327823638916015625">
        <ele>1796.5999755859375</ele>
        <time>2026-09-01T08:46:24.000Z</time>
        <extensions>
          <ns3:TrackPointExtension>
            <ns3:hr>181</ns3:hr>
            <ns3:cad>70</ns3:cad>
          </ns3:TrackPointExtension>
        </extensions>
      </trkpt>
      <trkpt lat="47.538745701313018798828125" lon="11.0459497757256031036376953125">
        <ele>1796</ele>
        <time>2026-09-01T08:46:25.000Z</time>
        <extensions>
          <ns3:TrackPointExtension>
            <ns3:hr>181</ns3:hr>
            <ns3:cad>72</ns3:cad>
          </ns3:TrackPointExtension>
        </extensions>
      </trkpt>
      <trkpt lat="47.5387532450258731842041015625" lon="11.04595958255231380462646484375">
        <ele>1795.4000244140625</ele>
        <time>2026-09-01T08:46:26.000Z</time>
        <extensions>
          <ns3:TrackPointExtension>
            <ns3:hr>182</ns3:hr>
            <ns3:cad>72</ns3:cad>
          </ns3:TrackPointExtension>
        </extensions>
      </trkpt>
      <trkpt lat="47.53876305185258388519287109375" lon="11.04596905410289764404296875">
        <ele>1795.199951171875</ele>
        <time>2026-09-01T08:46:27.000Z</time>
        <extensions>
          <ns3:TrackPointExtension>
            <ns3:hr>183</ns3:hr>
            <ns3:cad>70</ns3:cad>
          </ns3:TrackPointExtension>
        </extensions>
      </trkpt>
      <trkpt lat="47.53877545706927776336669921875" lon="11.04599109850823879241943359375">
        <ele>1794.800048828125</ele>
        <time>2026-09-01T08:46:28.000Z</time>
        <extensions>
          <ns3:TrackPointExtension>
            <ns3:hr>183</ns3:hr>
            <ns3:cad>70</ns3:cad>
          </ns3:TrackPointExtension>
        </extensions>
      </trkpt>
      <trkpt lat="47.53879071213304996490478515625" lon="11.04600668884813785552978515625">
        <ele>1794.5999755859375</ele>
        <time>2026-09-01T08:46:29.000Z</time>
        <extensions>
          <ns3:TrackPointExtension>
            <ns3:hr>183</ns3:hr>
            <ns3:cad>70</ns3:cad>
          </ns3:TrackPointExtension>
        </extensions>
      </trkpt>
      <trkpt lat="47.53880663774907588958740234375" lon="11.0460148192942142486572265625">
        <ele>1793.5999755859375</ele>
        <time>2026-09-01T08:46:30.000Z</time>
        <extensions>
          <ns3:TrackPointExtension>
            <ns3:hr>183</ns3:hr>
            <ns3:cad>69</ns3:cad>
          </ns3:TrackPointExtension>
        </extensions>
      </trkpt>
      <trkpt lat="47.53882725723087787628173828125" lon="11.04602244682610034942626953125">
        <ele>1792.4000244140625</ele>
        <time>2026-09-01T08:46:31.000Z</time>
        <extensions>
          <ns3:TrackPointExtension>
            <ns3:hr>182</ns3:hr>
            <ns3:cad>57</ns3:cad>
          </ns3:TrackPointExtension>
        </extensions>
      </trkpt>
      <trkpt lat="47.53884754143655300140380859375" lon="11.04603342711925506591796875">
        <ele>1791.5999755859375</ele>
        <time>2026-09-01T08:46:32.000Z</time>
        <extensions>
          <ns3:TrackPointExtension>
            <ns3:hr>181</ns3:hr>
            <ns3:cad>57</ns3:cad>
          </ns3:TrackPointExtension>
        </extensions>
      </trkpt>
      <trkpt lat="47.53886413760483264923095703125" lon="11.0460506938397884368896484375">
        <ele>1790.800048828125</ele>
        <time>2026-09-01T08:46:33.000Z</time>
        <extensions>
          <ns3:TrackPointExtension>
            <ns3:hr>180</ns3:hr>
            <ns3:cad>57</ns3:cad>
          </ns3:TrackPointExtension>
        </extensions>
      </trkpt>
      <trkpt lat="47.53888023085892200469970703125" lon="11.04606519453227519989013671875">
        <ele>1789.800048828125</ele>
        <time>2026-09-01T08:46:34.000Z</time>
        <extensions>
          <ns3:TrackPointExtension>
            <ns3:hr>179</ns3:hr>
            <ns3:cad>57</ns3:cad>
          </ns3:TrackPointExtension>
        </extensions>
      </trkpt>
      <trkpt lat="47.5388964079320430755615234375" lon="11.04607642628252506256103515625">
        <ele>1789</ele>
        <time>2026-09-01T08:46:35.000Z</time>
        <extensions>
          <ns3:TrackPointExtension>
            <ns3:hr>179</ns3:hr>
            <ns3:cad>83</ns3:cad>
          </ns3:TrackPointExtension>
        </extensions>
      </trkpt>
      <trkpt lat="47.53891526721417903900146484375" lon="11.0460895858705043792724609375">
        <ele>1788.4000244140625</ele>
        <time>2026-09-01T08:46:36.000Z</time>
        <extensions>
          <ns3:TrackPointExtension>
            <ns3:hr>178</ns3:hr>
            <ns3:cad>83</ns3:cad>
          </ns3:TrackPointExtension>
        </extensions>
      </trkpt>
      <trkpt lat="47.5389249064028263092041015625" lon="11.0461147315800189971923828125">
        <ele>1787.5999755859375</ele>
        <time>2026-09-01T08:46:37.000Z</time>
        <extensions>
          <ns3:TrackPointExtension>
            <ns3:hr>177</ns3:hr>
            <ns3:cad>83</ns3:cad>
          </ns3:TrackPointExtension>
        </extensions>
      </trkpt>
      <trkpt lat="47.5389430113136768341064453125" lon="11.046133339405059814453125">
        <ele>1787.199951171875</ele>
        <time>2026-09-01T08:46:38.000Z</time>
        <extensions>
          <ns3:TrackPointExtension>
            <ns3:hr>177</ns3:hr>
            <ns3:cad>83</ns3:cad>
          </ns3:TrackPointExtension>
        </extensions>
      </trkpt>
      <trkpt lat="47.5389617867767810821533203125" lon="11.04613929055631160736083984375">
        <ele>1786.5999755859375</ele>
        <time>2026-09-01T08:46:39.000Z</time>
        <extensions>
          <ns3:TrackPointExtension>
            <ns3:hr>176</ns3:hr>
            <ns3:cad>83</ns3:cad>
          </ns3:TrackPointExtension>
        </extensions>
      </trkpt>
      <trkpt lat="47.53897704184055328369140625" lon="11.0461522825062274932861328125">
        <ele>1786</ele>
        <time>2026-09-01T08:46:40.000Z</time>
        <extensions>
          <ns3:TrackPointExtension>
            <ns3:hr>176</ns3:hr>
            <ns3:cad>83</ns3:cad>
          </ns3:TrackPointExtension>
        </extensions>
      </trkpt>
      <trkpt lat="47.53898969851434230804443359375" lon="11.04616896249353885650634765625">
        <ele>1785.5999755859375</ele>
        <time>2026-09-01T08:46:41.000Z</time>
        <extensions>
          <ns3:TrackPointExtension>
            <ns3:hr>175</ns3:hr>
            <ns3:cad>83</ns3:cad>
          </ns3:TrackPointExtension>
        </extensions>
      </trkpt>
      <trkpt lat="47.53900595940649509429931640625" lon="11.0461780987679958343505859375">
        <ele>1785</ele>
        <time>2026-09-01T08:46:42.000Z</time>
        <extensions>
          <ns3:TrackPointExtension>
            <ns3:hr>175</ns3:hr>
            <ns3:cad>83</ns3:cad>
          </ns3:TrackPointExtension>
        </extensions>
      </trkpt>
      <trkpt lat="47.539013922214508056640625" lon="11.04618321172893047332763671875">
        <ele>1784.5999755859375</ele>
        <time>2026-09-01T08:46:43.000Z</time>
        <extensions>
          <ns3:TrackPointExtension>
            <ns3:hr>174</ns3:hr>
            <ns3:cad>83</ns3:cad>
          </ns3:TrackPointExtension>
        </extensions>
      </trkpt>
      <trkpt lat="47.5390244834125041961669921875" lon="11.0461998917162418365478515625">
        <ele>1783.800048828125</ele>
        <time>2026-09-01T08:46:44.000Z</time>
        <extensions>
          <ns3:TrackPointExtension>
            <ns3:hr>174</ns3:hr>
            <ns3:cad>83</ns3:cad>
          </ns3:TrackPointExtension>
        </extensions>
      </trkpt>
      <trkpt lat="47.53903739154338836669921875" lon="11.046216487884521484375">
        <ele>1783</ele>
        <time>2026-09-01T08:46:45.000Z</time>
        <extensions>
          <ns3:TrackPointExtension>
            <ns3:hr>173</ns3:hr>
            <ns3:cad>83</ns3:cad>
          </ns3:TrackPointExtension>
        </extensions>
      </trkpt>
      <trkpt lat="47.539054490625858306884765625" lon="11.04623450897634029388427734375">
        <ele>1782.4000244140625</ele>
        <time>2026-09-01T08:46:46.000Z</time>
        <extensions>
          <ns3:TrackPointExtension>
            <ns3:hr>174</ns3:hr>
            <ns3:cad>83</ns3:cad>
          </ns3:TrackPointExtension>
        </extensions>
      </trkpt>
      <trkpt lat="47.5390687398612499237060546875" lon="11.04623987339437007904052734375">
        <ele>1781.800048828125</ele>
        <time>2026-09-01T08:46:47.000Z</time>
        <extensions>
          <ns3:TrackPointExtension>
            <ns3:hr>174</ns3:hr>
            <ns3:cad>83</ns3:cad>
          </ns3:TrackPointExtension>
        </extensions>
      </trkpt>
      <trkpt lat="47.53908776678144931793212890625" lon="11.0462392866611480712890625">
        <ele>1781</ele>
        <time>2026-09-01T08:46:48.000Z</time>
        <extensions>
          <ns3:TrackPointExtension>
            <ns3:hr>173</ns3:hr>
            <ns3:cad>83</ns3:cad>
          </ns3:TrackPointExtension>
        </extensions>
      </trkpt>
      <trkpt lat="47.53910536877810955047607421875" lon="11.0462473332881927490234375">
        <ele>1780.199951171875</ele>
        <time>2026-09-01T08:46:49.000Z</time>
        <extensions>
          <ns3:TrackPointExtension>
            <ns3:hr>173</ns3:hr>
            <ns3:cad>41</ns3:cad>
          </ns3:TrackPointExtension>
        </extensions>
      </trkpt>
      <trkpt lat="47.5391183607280254364013671875" lon="11.046261750161647796630859375">
        <ele>1779.5999755859375</ele>
        <time>2026-09-01T08:46:50.000Z</time>
        <extensions>
          <ns3:TrackPointExtension>
            <ns3:hr>172</ns3:hr>
            <ns3:cad>41</ns3:cad>
          </ns3:TrackPointExtension>
        </extensions>
      </trkpt>
      <trkpt lat="47.53913269378244876861572265625" lon="11.04627993889153003692626953125">
        <ele>1779</ele>
        <time>2026-09-01T08:46:51.000Z</time>
        <extensions>
          <ns3:TrackPointExtension>
            <ns3:hr>172</ns3:hr>
            <ns3:cad>55</ns3:cad>
          </ns3:TrackPointExtension>
        </extensions>
      </trkpt>
      <trkpt lat="47.53915431909263134002685546875" lon="11.04629904963076114654541015625">
        <ele>1778.199951171875</ele>
        <time>2026-09-01T08:46:52.000Z</time>
        <extensions>
          <ns3:TrackPointExtension>
            <ns3:hr>172</ns3:hr>
            <ns3:cad>55</ns3:cad>
          </ns3:TrackPointExtension>
        </extensions>
      </trkpt>
      <trkpt lat="47.53916337154805660247802734375" lon="11.0463117063045501708984375">
        <ele>1777.5999755859375</ele>
        <time>2026-09-01T08:46:53.000Z</time>
        <extensions>
          <ns3:TrackPointExtension>
            <ns3:hr>171</ns3:hr>
            <ns3:cad>93</ns3:cad>
          </ns3:TrackPointExtension>
        </extensions>
      </trkpt>
      <trkpt lat="47.53918415866792201995849609375" lon="11.04633559472858905792236328125">
        <ele>1777</ele>
        <time>2026-09-01T08:46:54.000Z</time>
        <extensions>
          <ns3:TrackPointExtension>
            <ns3:hr>170</ns3:hr>
            <ns3:cad>93</ns3:cad>
          </ns3:TrackPointExtension>
        </extensions>
      </trkpt>
      <trkpt lat="47.53920058719813823699951171875" lon="11.046346239745616912841796875">
        <ele>1776.199951171875</ele>
        <time>2026-09-01T08:46:55.000Z</time>
        <extensions>
          <ns3:TrackPointExtension>
            <ns3:hr>169</ns3:hr>
            <ns3:cad>93</ns3:cad>
          </ns3:TrackPointExtension>
        </extensions>
      </trkpt>
      <trkpt lat="47.5392246432602405548095703125" lon="11.0463641770184040069580078125">
        <ele>1775.800048828125</ele>
        <time>2026-09-01T08:46:56.000Z</time>
        <extensions>
          <ns3:TrackPointExtension>
            <ns3:hr>168</ns3:hr>
            <ns3:cad>0</ns3:cad>
          </ns3:TrackPointExtension>
        </extensions>
      </trkpt>
      <trkpt lat="47.53924190998077392578125" lon="11.0463733971118927001953125">
        <ele>1775</ele>
        <time>2026-09-01T08:46:57.000Z</time>
        <extensions>
          <ns3:TrackPointExtension>
            <ns3:hr>168</ns3:hr>
            <ns3:cad>0</ns3:cad>
          </ns3:TrackPointExtension>
        </extensions>
      </trkpt>
      <trkpt lat="47.53926076926290988922119140625" lon="11.04636811651289463043212890625">
        <ele>1774.4000244140625</ele>
        <time>2026-09-01T08:46:58.000Z</time>
        <extensions>
          <ns3:TrackPointExtension>
            <ns3:hr>166</ns3:hr>
            <ns3:cad>51</ns3:cad>
          </ns3:TrackPointExtension>
        </extensions>
      </trkpt>
      <trkpt lat="47.539277784526348114013671875" lon="11.046345569193363189697265625">
        <ele>1773.5999755859375</ele>
        <time>2026-09-01T08:46:59.000Z</time>
        <extensions>
          <ns3:TrackPointExtension>
            <ns3:hr>164</ns3:hr>
            <ns3:cad>51</ns3:cad>
          </ns3:TrackPointExtension>
        </extensions>
      </trkpt>
      <trkpt lat="47.53930267877876758575439453125" lon="11.046329475939273834228515625">
        <ele>1773</ele>
        <time>2026-09-01T08:47:00.000Z</time>
        <extensions>
          <ns3:TrackPointExtension>
            <ns3:hr>161</ns3:hr>
            <ns3:cad>46</ns3:cad>
          </ns3:TrackPointExtension>
        </extensions>
      </trkpt>
      <trkpt lat="47.53932313062250614166259765625" lon="11.0463143885135650634765625">
        <ele>1772.199951171875</ele>
        <time>2026-09-01T08:47:01.000Z</time>
        <extensions>
          <ns3:TrackPointExtension>
            <ns3:hr>159</ns3:hr>
            <ns3:cad>46</ns3:cad>
          </ns3:TrackPointExtension>
        </extensions>
      </trkpt>
      <trkpt lat="47.53934056498110294342041015625" lon="11.04631044901907444000244140625">
        <ele>1771.5999755859375</ele>
        <time>2026-09-01T08:47:02.000Z</time>
        <extensions>
          <ns3:TrackPointExtension>
            <ns3:hr>158</ns3:hr>
            <ns3:cad>46</ns3:cad>
          </ns3:TrackPointExtension>
        </extensions>
      </trkpt>
      <trkpt lat="47.53936939872801303863525390625" lon="11.04630106128752231597900390625">
        <ele>1770.800048828125</ele>
        <time>2026-09-01T08:47:03.000Z</time>
        <extensions>
          <ns3:TrackPointExtension>
            <ns3:hr>155</ns3:hr>
            <ns3:cad>104</ns3:cad>
          </ns3:TrackPointExtension>
        </extensions>
      </trkpt>
      <trkpt lat="47.53939387388527393341064453125" lon="11.0462977923452854156494140625">
        <ele>1770</ele>
        <time>2026-09-01T08:47:04.000Z</time>
        <extensions>
          <ns3:TrackPointExtension>
            <ns3:hr>154</ns3:hr>
            <ns3:cad>104</ns3:cad>
          </ns3:TrackPointExtension>
        </extensions>
      </trkpt>
      <trkpt lat="47.53941700793802738189697265625" lon="11.0463071800768375396728515625">
        <ele>1769.4000244140625</ele>
        <time>2026-09-01T08:47:05.000Z</time>
        <extensions>
          <ns3:TrackPointExtension>
            <ns3:hr>152</ns3:hr>
            <ns3:cad>104</ns3:cad>
          </ns3:TrackPointExtension>
        </extensions>
      </trkpt>
      <trkpt lat="47.53943561576306819915771484375" lon="11.0463169030845165252685546875">
        <ele>1768.800048828125</ele>
        <time>2026-09-01T08:47:06.000Z</time>
        <extensions>
          <ns3:TrackPointExtension>
            <ns3:hr>151</ns3:hr>
            <ns3:cad>83</ns3:cad>
          </ns3:TrackPointExtension>
        </extensions>
      </trkpt>
      <trkpt lat="47.539453469216823577880859375" lon="11.04632444679737091064453125">
        <ele>1768.199951171875</ele>
        <time>2026-09-01T08:47:07.000Z</time>
        <extensions>
          <ns3:TrackPointExtension>
            <ns3:hr>150</ns3:hr>
            <ns3:cad>83</ns3:cad>
          </ns3:TrackPointExtension>
        </extensions>
      </trkpt>
      <trkpt lat="47.5394739210605621337890625" lon="11.046330817043781280517578125">
        <ele>1767.800048828125</ele>
        <time>2026-09-01T08:47:08.000Z</time>
        <extensions>
          <ns3:TrackPointExtension>
            <ns3:hr>149</ns3:hr>
            <ns3:cad>83</ns3:cad>
          </ns3:TrackPointExtension>
        </extensions>
      </trkpt>
      <trkpt lat="47.539495043456554412841796875" lon="11.04633894748985767364501953125">
        <ele>1767.199951171875</ele>
        <time>2026-09-01T08:47:09.000Z</time>
        <extensions>
          <ns3:TrackPointExtension>
            <ns3:hr>149</ns3:hr>
            <ns3:cad>83</ns3:cad>
          </ns3:TrackPointExtension>
        </extensions>
      </trkpt>
      <trkpt lat="47.53951742313802242279052734375" lon="11.04633593000471591949462890625">
        <ele>1766.4000244140625</ele>
        <time>2026-09-01T08:47:10.000Z</time>
        <extensions>
          <ns3:TrackPointExtension>
            <ns3:hr>149</ns3:hr>
            <ns3:cad>83</ns3:cad>
          </ns3:TrackPointExtension>
        </extensions>
      </trkpt>
      <trkpt lat="47.53952982835471630096435546875" lon="11.04633743874728679656982421875">
        <ele>1765.800048828125</ele>
        <time>2026-09-01T08:47:11.000Z</time>
        <extensions>
          <ns3:TrackPointExtension>
            <ns3:hr>149</ns3:hr>
            <ns3:cad>83</ns3:cad>
          </ns3:TrackPointExtension>
        </extensions>
      </trkpt>
      <trkpt lat="47.53954910673201084136962890625" lon="11.04635235853493213653564453125">
        <ele>1765</ele>
        <time>2026-09-01T08:47:12.000Z</time>
        <extensions>
          <ns3:TrackPointExtension>
            <ns3:hr>149</ns3:hr>
            <ns3:cad>85</ns3:cad>
          </ns3:TrackPointExtension>
        </extensions>
      </trkpt>
      <trkpt lat="47.5395595841109752655029296875" lon="11.04635931551456451416015625">
        <ele>1764.4000244140625</ele>
        <time>2026-09-01T08:47:13.000Z</time>
        <extensions>
          <ns3:TrackPointExtension>
            <ns3:hr>148</ns3:hr>
            <ns3:cad>85</ns3:cad>
          </ns3:TrackPointExtension>
        </extensions>
      </trkpt>
      <trkpt lat="47.53957517445087432861328125" lon="11.0463651828467845916748046875">
        <ele>1763.5999755859375</ele>
        <time>2026-09-01T08:47:14.000Z</time>
        <extensions>
          <ns3:TrackPointExtension>
            <ns3:hr>148</ns3:hr>
            <ns3:cad>85</ns3:cad>
          </ns3:TrackPointExtension>
        </extensions>
      </trkpt>
      <trkpt lat="47.53959336318075656890869140625" lon="11.046371720731258392333984375">
        <ele>1762.800048828125</ele>
        <time>2026-09-01T08:47:15.000Z</time>
        <extensions>
          <ns3:TrackPointExtension>
            <ns3:hr>148</ns3:hr>
            <ns3:cad>0</ns3:cad>
          </ns3:TrackPointExtension>
        </extensions>
      </trkpt>
      <trkpt lat="47.5395998172461986541748046875" lon="11.04637767188251018524169921875">
        <ele>1762</ele>
        <time>2026-09-01T08:47:16.000Z</time>
        <extensions>
          <ns3:TrackPointExtension>
            <ns3:hr>147</ns3:hr>
            <ns3:cad>0</ns3:cad>
          </ns3:TrackPointExtension>
        </extensions>
      </trkpt>
      <trkpt lat="47.53960811533033847808837890625" lon="11.046386472880840301513671875">
        <ele>1761.4000244140625</ele>
        <time>2026-09-01T08:47:17.000Z</time>
        <extensions>
          <ns3:TrackPointExtension>
            <ns3:hr>147</ns3:hr>
            <ns3:cad>0</ns3:cad>
          </ns3:TrackPointExtension>
        </extensions>
      </trkpt>
      <trkpt lat="47.539618425071239471435546875" lon="11.046392507851123809814453125">
        <ele>1760.800048828125</ele>
        <time>2026-09-01T08:47:18.000Z</time>
        <extensions>
          <ns3:TrackPointExtension>
            <ns3:hr>147</ns3:hr>
            <ns3:cad>0</ns3:cad>
          </ns3:TrackPointExtension>
        </extensions>
      </trkpt>
      <trkpt lat="47.53961532376706600189208984375" lon="11.04638823308050632476806640625">
        <ele>1760.199951171875</ele>
        <time>2026-09-01T08:47:19.000Z</time>
        <extensions>
          <ns3:TrackPointExtension>
            <ns3:hr>146</ns3:hr>
            <ns3:cad>0</ns3:cad>
          </ns3:TrackPointExtension>
        </extensions>
      </trkpt>
      <trkpt lat="47.53961197100579738616943359375" lon="11.04639024473726749420166015625">
        <ele>1760</ele>
        <time>2026-09-01T08:47:20.000Z</time>
        <extensions>
          <ns3:TrackPointExtension>
            <ns3:hr>146</ns3:hr>
            <ns3:cad>0</ns3:cad>
          </ns3:TrackPointExtension>
        </extensions>
      </trkpt>
      <trkpt lat="47.53962571732699871063232421875" lon="11.0464055836200714111328125">
        <ele>1759.5999755859375</ele>
        <time>2026-09-01T08:47:21.000Z</time>
        <extensions>
          <ns3:TrackPointExtension>
            <ns3:hr>146</ns3:hr>
            <ns3:cad>0</ns3:cad>
          </ns3:TrackPointExtension>
        </extensions>
      </trkpt>
      <trkpt lat="47.53963418304920196533203125" lon="11.046417318284511566162109375">
        <ele>1759.199951171875</ele>
        <time>2026-09-01T08:47:22.000Z</time>
        <extensions>
          <ns3:TrackPointExtension>
            <ns3:hr>146</ns3:hr>
            <ns3:cad>0</ns3:cad>
          </ns3:TrackPointExtension>
        </extensions>
      </trkpt>
      <trkpt lat="47.53964382223784923553466796875" lon="11.046425364911556243896484375">
        <ele>1758.800048828125</ele>
        <time>2026-09-01T08:47:23.000Z</time>
        <extensions>
          <ns3:TrackPointExtension>
            <ns3:hr>145</ns3:hr>
            <ns3:cad>0</ns3:cad>
          </ns3:TrackPointExtension>
        </extensions>
      </trkpt>
      <trkpt lat="47.53966142423450946807861328125" lon="11.04640449397265911102294921875">
        <ele>1758</ele>
        <time>2026-09-01T08:47:24.000Z</time>
        <extensions>
          <ns3:TrackPointExtension>
            <ns3:hr>145</ns3:hr>
            <ns3:cad>0</ns3:cad>
          </ns3:TrackPointExtension>
        </extensions>
      </trkpt>
      <trkpt lat="47.53966628573834896087646484375" lon="11.0464060865342617034912109375">
        <ele>1757.4000244140625</ele>
        <time>2026-09-01T08:47:25.000Z</time>
        <extensions>
          <ns3:TrackPointExtension>
            <ns3:hr>144</ns3:hr>
            <ns3:cad>0</ns3:cad>
          </ns3:TrackPointExtension>
        </extensions>
      </trkpt>
      <trkpt lat="47.53967533819377422332763671875" lon="11.0464114509522914886474609375">
        <ele>1756.800048828125</ele>
        <time>2026-09-01T08:47:26.000Z</time>
        <extensions>
          <ns3:TrackPointExtension>
            <ns3:hr>144</ns3:hr>
            <ns3:cad>0</ns3:cad>
          </ns3:TrackPointExtension>
        </extensions>
      </trkpt>
      <trkpt lat="47.5396849773824214935302734375" lon="11.046411953866481781005859375">
        <ele>1756</ele>
        <time>2026-09-01T08:47:27.000Z</time>
        <extensions>
          <ns3:TrackPointExtension>
            <ns3:hr>143</ns3:hr>
            <ns3:cad>0</ns3:cad>
          </ns3:TrackPointExtension>
        </extensions>
      </trkpt>
      <trkpt lat="47.5396993942558765411376953125" lon="11.046409942209720611572265625">
        <ele>1755.4000244140625</ele>
        <time>2026-09-01T08:47:28.000Z</time>
        <extensions>
          <ns3:TrackPointExtension>
            <ns3:hr>143</ns3:hr>
            <ns3:cad>0</ns3:cad>
          </ns3:TrackPointExtension>
        </extensions>
      </trkpt>
      <trkpt lat="47.5397097878158092498779296875" lon="11.04641161859035491943359375">
        <ele>1754.800048828125</ele>
        <time>2026-09-01T08:47:29.000Z</time>
        <extensions>
          <ns3:TrackPointExtension>
            <ns3:hr>142</ns3:hr>
            <ns3:cad>0</ns3:cad>
          </ns3:TrackPointExtension>
        </extensions>
      </trkpt>
      <trkpt lat="47.53972244448959827423095703125" lon="11.0464134626090526580810546875">
        <ele>1754.4000244140625</ele>
        <time>2026-09-01T08:47:30.000Z</time>
        <extensions>
          <ns3:TrackPointExtension>
            <ns3:hr>141</ns3:hr>
            <ns3:cad>0</ns3:cad>
          </ns3:TrackPointExtension>
        </extensions>
      </trkpt>
      <trkpt lat="47.53973619081079959869384765625" lon="11.04639963246881961822509765625">
        <ele>1753.5999755859375</ele>
        <time>2026-09-01T08:47:31.000Z</time>
        <extensions>
          <ns3:TrackPointExtension>
            <ns3:hr>141</ns3:hr>
            <ns3:cad>0</ns3:cad>
          </ns3:TrackPointExtension>
        </extensions>
      </trkpt>
      <trkpt lat="47.53975312225520610809326171875" lon="11.04638622142374515533447265625">
        <ele>1753.199951171875</ele>
        <time>2026-09-01T08:47:32.000Z</time>
        <extensions>
          <ns3:TrackPointExtension>
            <ns3:hr>141</ns3:hr>
            <ns3:cad>0</ns3:cad>
          </ns3:TrackPointExtension>
        </extensions>
      </trkpt>
      <trkpt lat="47.5397607497870922088623046875" lon="11.04638077318668365478515625">
        <ele>1752.4000244140625</ele>
        <time>2026-09-01T08:47:33.000Z</time>
        <extensions>
          <ns3:TrackPointExtension>
            <ns3:hr>140</ns3:hr>
            <ns3:cad>0</ns3:cad>
          </ns3:TrackPointExtension>
        </extensions>
      </trkpt>
      <trkpt lat="47.53978212364017963409423828125" lon="11.04638001881539821624755859375">
        <ele>1751.800048828125</ele>
        <time>2026-09-01T08:47:34.000Z</time>
        <extensions>
          <ns3:TrackPointExtension>
            <ns3:hr>140</ns3:hr>
            <ns3:cad>0</ns3:cad>
          </ns3:TrackPointExtension>
        </extensions>
      </trkpt>
      <trkpt lat="47.53979134373366832733154296875" lon="11.04636861942708492279052734375">
        <ele>1751.199951171875</ele>
        <time>2026-09-01T08:47:35.000Z</time>
        <extensions>
          <ns3:TrackPointExtension>
            <ns3:hr>139</ns3:hr>
            <ns3:cad>0</ns3:cad>
          </ns3:TrackPointExtension>
        </extensions>
      </trkpt>
      <trkpt lat="47.539808861911296844482421875" lon="11.04635487310588359832763671875">
        <ele>1750.5999755859375</ele>
        <time>2026-09-01T08:47:36.000Z</time>
        <extensions>
          <ns3:TrackPointExtension>
            <ns3:hr>139</ns3:hr>
            <ns3:cad>0</ns3:cad>
          </ns3:TrackPointExtension>
        </extensions>
      </trkpt>
      <trkpt lat="47.53982135094702243804931640625" lon="11.046351604163646697998046875">
        <ele>1750</ele>
        <time>2026-09-01T08:47:37.000Z</time>
        <extensions>
          <ns3:TrackPointExtension>
            <ns3:hr>140</ns3:hr>
            <ns3:cad>0</ns3:cad>
          </ns3:TrackPointExtension>
        </extensions>
      </trkpt>
      <trkpt lat="47.5398338399827480316162109375" lon="11.04635135270655155181884765625">
        <ele>1749.5999755859375</ele>
        <time>2026-09-01T08:47:38.000Z</time>
        <extensions>
          <ns3:TrackPointExtension>
            <ns3:hr>140</ns3:hr>
            <ns3:cad>0</ns3:cad>
          </ns3:TrackPointExtension>
        </extensions>
      </trkpt>
      <trkpt lat="47.53984834067523479461669921875" lon="11.04635755531489849090576171875">
        <ele>1748.800048828125</ele>
        <time>2026-09-01T08:47:39.000Z</time>
        <extensions>
          <ns3:TrackPointExtension>
            <ns3:hr>142</ns3:hr>
            <ns3:cad>0</ns3:cad>
          </ns3:TrackPointExtension>
        </extensions>
      </trkpt>
      <trkpt lat="47.5398650206625461578369140625" lon="11.04635470546782016754150390625">
        <ele>1748.199951171875</ele>
        <time>2026-09-01T08:47:40.000Z</time>
        <extensions>
          <ns3:TrackPointExtension>
            <ns3:hr>142</ns3:hr>
            <ns3:cad>0</ns3:cad>
          </ns3:TrackPointExtension>
        </extensions>
      </trkpt>
      <trkpt lat="47.53987918607890605926513671875" lon="11.0463400371372699737548828125">
        <ele>1747.5999755859375</ele>
        <time>2026-09-01T08:47:41.000Z</time>
        <extensions>
          <ns3:TrackPointExtension>
            <ns3:hr>143</ns3:hr>
            <ns3:cad>0</ns3:cad>
          </ns3:TrackPointExtension>
        </extensions>
      </trkpt>
      <trkpt lat="47.539884634315967559814453125" lon="11.04634012095630168914794921875">
        <ele>1746.800048828125</ele>
        <time>2026-09-01T08:47:42.000Z</time>
        <extensions>
          <ns3:TrackPointExtension>
            <ns3:hr>143</ns3:hr>
            <ns3:cad>43</ns3:cad>
          </ns3:TrackPointExtension>
        </extensions>
      </trkpt>
      <trkpt lat="47.5399032421410083770751953125" lon="11.0463350079953670501708984375">
        <ele>1746.199951171875</ele>
        <time>2026-09-01T08:47:43.000Z</time>
        <extensions>
          <ns3:TrackPointExtension>
            <ns3:hr>143</ns3:hr>
            <ns3:cad>45</ns3:cad>
          </ns3:TrackPointExtension>
        </extensions>
      </trkpt>
      <trkpt lat="47.53991405479609966278076171875" lon="11.04633961804211139678955078125">
        <ele>1745.5999755859375</ele>
        <time>2026-09-01T08:47:44.000Z</time>
        <extensions>
          <ns3:TrackPointExtension>
            <ns3:hr>142</ns3:hr>
            <ns3:cad>45</ns3:cad>
          </ns3:TrackPointExtension>
        </extensions>
      </trkpt>
      <trkpt lat="47.53992788493633270263671875" lon="11.0463410429656505584716796875">
        <ele>1745</ele>
        <time>2026-09-01T08:47:45.000Z</time>
        <extensions>
          <ns3:TrackPointExtension>
            <ns3:hr>142</ns3:hr>
            <ns3:cad>45</ns3:cad>
          </ns3:TrackPointExtension>
        </extensions>
      </trkpt>
      <trkpt lat="47.5399444811046123504638671875" lon="11.04634079150855541229248046875">
        <ele>1744.4000244140625</ele>
        <time>2026-09-01T08:47:46.000Z</time>
        <extensions>
          <ns3:TrackPointExtension>
            <ns3:hr>142</ns3:hr>
            <ns3:cad>45</ns3:cad>
          </ns3:TrackPointExtension>
        </extensions>
      </trkpt>
      <trkpt lat="47.53995873034000396728515625" lon="11.0463390313088893890380859375">
        <ele>1743.800048828125</ele>
        <time>2026-09-01T08:47:47.000Z</time>
        <extensions>
          <ns3:TrackPointExtension>
            <ns3:hr>141</ns3:hr>
            <ns3:cad>45</ns3:cad>
          </ns3:TrackPointExtension>
        </extensions>
      </trkpt>
      <trkpt lat="47.53997138701379299163818359375" lon="11.0463272966444492340087890625">
        <ele>1743</ele>
        <time>2026-09-01T08:47:48.000Z</time>
        <extensions>
          <ns3:TrackPointExtension>
            <ns3:hr>141</ns3:hr>
            <ns3:cad>45</ns3:cad>
          </ns3:TrackPointExtension>
        </extensions>
      </trkpt>
      <trkpt lat="47.53998815082013607025146484375" lon="11.04630843736231327056884765625">
        <ele>1742.4000244140625</ele>
        <time>2026-09-01T08:47:49.000Z</time>
        <extensions>
          <ns3:TrackPointExtension>
            <ns3:hr>140</ns3:hr>
            <ns3:cad>45</ns3:cad>
          </ns3:TrackPointExtension>
        </extensions>
      </trkpt>
      <trkpt lat="47.539999969303607940673828125" lon="11.04630567133426666259765625">
        <ele>1741.5999755859375</ele>
        <time>2026-09-01T08:47:50.000Z</time>
        <extensions>
          <ns3:TrackPointExtension>
            <ns3:hr>140</ns3:hr>
            <ns3:cad>45</ns3:cad>
          </ns3:TrackPointExtension>
        </extensions>
      </trkpt>
      <trkpt lat="47.54000290296971797943115234375" lon="11.0463132150471210479736328125">
        <ele>1741.199951171875</ele>
        <time>2026-09-01T08:47:51.000Z</time>
        <extensions>
          <ns3:TrackPointExtension>
            <ns3:hr>140</ns3:hr>
            <ns3:cad>45</ns3:cad>
          </ns3:TrackPointExtension>
        </extensions>
      </trkpt>
      <trkpt lat="47.540007345378398895263671875" lon="11.04631547816097736358642578125">
        <ele>1740.5999755859375</ele>
        <time>2026-09-01T08:47:52.000Z</time>
        <extensions>
          <ns3:TrackPointExtension>
            <ns3:hr>140</ns3:hr>
            <ns3:cad>45</ns3:cad>
          </ns3:TrackPointExtension>
        </extensions>
      </trkpt>
      <trkpt lat="47.54001162014901638031005859375" lon="11.04631748981773853302001953125">
        <ele>1740.199951171875</ele>
        <time>2026-09-01T08:47:53.000Z</time>
        <extensions>
          <ns3:TrackPointExtension>
            <ns3:hr>139</ns3:hr>
            <ns3:cad>0</ns3:cad>
          </ns3:TrackPointExtension>
        </extensions>
      </trkpt>
      <trkpt lat="47.54001564346253871917724609375" lon="11.0463175736367702484130859375">
        <ele>1739.5999755859375</ele>
        <time>2026-09-01T08:47:54.000Z</time>
        <extensions>
          <ns3:TrackPointExtension>
            <ns3:hr>139</ns3:hr>
            <ns3:cad>0</ns3:cad>
          </ns3:TrackPointExtension>
        </extensions>
      </trkpt>
      <trkpt lat="47.540016062557697296142578125" lon="11.04632067494094371795654296875">
        <ele>1739.4000244140625</ele>
        <time>2026-09-01T08:47:55.000Z</time>
        <extensions>
          <ns3:TrackPointExtension>
            <ns3:hr>139</ns3:hr>
            <ns3:cad>0</ns3:cad>
          </ns3:TrackPointExtension>
        </extensions>
      </trkpt>
      <trkpt lat="47.54002310335636138916015625" lon="11.04632419534027576446533203125">
        <ele>1739.199951171875</ele>
        <time>2026-09-01T08:47:56.000Z</time>
        <extensions>
          <ns3:TrackPointExtension>
            <ns3:hr>139</ns3:hr>
            <ns3:cad>0</ns3:cad>
          </ns3:TrackPointExtension>
        </extensions>
      </trkpt>
      <trkpt lat="47.54002637229859828948974609375" lon="11.046322099864482879638671875">
        <ele>1738.800048828125</ele>
        <time>2026-09-01T08:47:57.000Z</time>
        <extensions>
          <ns3:TrackPointExtension>
            <ns3:hr>139</ns3:hr>
            <ns3:cad>0</ns3:cad>
          </ns3:TrackPointExtension>
        </extensions>
      </trkpt>
      <trkpt lat="47.54002871923148632049560546875" lon="11.04632067494094371795654296875">
        <ele>1738.4000244140625</ele>
        <time>2026-09-01T08:47:58.000Z</time>
        <extensions>
          <ns3:TrackPointExtension>
            <ns3:hr>138</ns3:hr>
            <ns3:cad>53</ns3:cad>
          </ns3:TrackPointExtension>
        </extensions>
      </trkpt>
      <trkpt lat="47.54003793932497501373291015625" lon="11.04631547816097736358642578125">
        <ele>1738.199951171875</ele>
        <time>2026-09-01T08:47:59.000Z</time>
        <extensions>
          <ns3:TrackPointExtension>
            <ns3:hr>138</ns3:hr>
            <ns3:cad>53</ns3:cad>
          </ns3:TrackPointExtension>
        </extensions>
      </trkpt>
      <trkpt lat="47.54004213027656078338623046875" lon="11.04631598107516765594482421875">
        <ele>1737.800048828125</ele>
        <time>2026-09-01T08:48:00.000Z</time>
        <extensions>
          <ns3:TrackPointExtension>
            <ns3:hr>136</ns3:hr>
            <ns3:cad>51</ns3:cad>
          </ns3:TrackPointExtension>
        </extensions>
      </trkpt>
      <trkpt lat="47.54004581831395626068115234375" lon="11.0463132150471210479736328125">
        <ele>1737.4000244140625</ele>
        <time>2026-09-01T08:48:01.000Z</time>
        <extensions>
          <ns3:TrackPointExtension>
            <ns3:hr>133</ns3:hr>
            <ns3:cad>51</ns3:cad>
          </ns3:TrackPointExtension>
        </extensions>
      </trkpt>
      <trkpt lat="47.5400487519800662994384765625" lon="11.0463112033903598785400390625">
        <ele>1737.199951171875</ele>
        <time>2026-09-01T08:48:02.000Z</time>
        <extensions>
          <ns3:TrackPointExtension>
            <ns3:hr>132</ns3:hr>
            <ns3:cad>51</ns3:cad>
          </ns3:TrackPointExtension>
        </extensions>
      </trkpt>
      <trkpt lat="47.540054954588413238525390625" lon="11.04631246067583560943603515625">
        <ele>1736.800048828125</ele>
        <time>2026-09-01T08:48:03.000Z</time>
        <extensions>
          <ns3:TrackPointExtension>
            <ns3:hr>132</ns3:hr>
            <ns3:cad>0</ns3:cad>
          </ns3:TrackPointExtension>
        </extensions>
      </trkpt>
      <trkpt lat="47.54005855880677700042724609375" lon="11.04631329886615276336669921875">
        <ele>1736.199951171875</ele>
        <time>2026-09-01T08:48:04.000Z</time>
        <extensions>
          <ns3:TrackPointExtension>
            <ns3:hr>132</ns3:hr>
            <ns3:cad>0</ns3:cad>
          </ns3:TrackPointExtension>
        </extensions>
      </trkpt>
      <trkpt lat="47.54006425850093364715576171875" lon="11.0463158972561359405517578125">
        <ele>1735.5999755859375</ele>
        <time>2026-09-01T08:48:05.000Z</time>
        <extensions>
          <ns3:TrackPointExtension>
            <ns3:hr>132</ns3:hr>
            <ns3:cad>0</ns3:cad>
          </ns3:TrackPointExtension>
        </extensions>
      </trkpt>
      <trkpt lat="47.54006694070994853973388671875" lon="11.0463170707225799560546875">
        <ele>1735</ele>
        <time>2026-09-01T08:48:06.000Z</time>
        <extensions>
          <ns3:TrackPointExtension>
            <ns3:hr>132</ns3:hr>
            <ns3:cad>0</ns3:cad>
          </ns3:TrackPointExtension>
        </extensions>
      </trkpt>
      <trkpt lat="47.54007138311862945556640625" lon="11.0463226027786731719970703125">
        <ele>1734.4000244140625</ele>
        <time>2026-09-01T08:48:07.000Z</time>
        <extensions>
          <ns3:TrackPointExtension>
            <ns3:hr>133</ns3:hr>
            <ns3:cad>0</ns3:cad>
          </ns3:TrackPointExtension>
        </extensions>
      </trkpt>
      <trkpt lat="47.54007347859442234039306640625" lon="11.04632738046348094940185546875">
        <ele>1733.800048828125</ele>
        <time>2026-09-01T08:48:08.000Z</time>
        <extensions>
          <ns3:TrackPointExtension>
            <ns3:hr>133</ns3:hr>
            <ns3:cad>0</ns3:cad>
          </ns3:TrackPointExtension>
        </extensions>
      </trkpt>
      <trkpt lat="47.54007280804216861724853515625" lon="11.0463326610624790191650390625">
        <ele>1733.199951171875</ele>
        <time>2026-09-01T08:48:09.000Z</time>
        <extensions>
          <ns3:TrackPointExtension>
            <ns3:hr>133</ns3:hr>
            <ns3:cad>0</ns3:cad>
          </ns3:TrackPointExtension>
        </extensions>
      </trkpt>
      <trkpt lat="47.5400765798985958099365234375" lon="11.04633945040404796600341796875">
        <ele>1732.800048828125</ele>
        <time>2026-09-01T08:48:10.000Z</time>
        <extensions>
          <ns3:TrackPointExtension>
            <ns3:hr>134</ns3:hr>
            <ns3:cad>0</ns3:cad>
          </ns3:TrackPointExtension>
        </extensions>
      </trkpt>
      <trkpt lat="47.54008035175502300262451171875" lon="11.04634917341172695159912109375">
        <ele>1732.199951171875</ele>
        <time>2026-09-01T08:48:11.000Z</time>
        <extensions>
          <ns3:TrackPointExtension>
            <ns3:hr>133</ns3:hr>
            <ns3:cad>0</ns3:cad>
          </ns3:TrackPointExtension>
        </extensions>
      </trkpt>
      <trkpt lat="47.54006928764283657073974609375" lon="11.046361662447452545166015625">
        <ele>1731.5999755859375</ele>
        <time>2026-09-01T08:48:12.000Z</time>
        <extensions>
          <ns3:TrackPointExtension>
            <ns3:hr>133</ns3:hr>
            <ns3:cad>0</ns3:cad>
          </ns3:TrackPointExtension>
        </extensions>
      </trkpt>
      <trkpt lat="47.5400752387940883636474609375" lon="11.04637230746448040008544921875">
        <ele>1731</ele>
        <time>2026-09-01T08:48:13.000Z</time>
        <extensions>
          <ns3:TrackPointExtension>
            <ns3:hr>134</ns3:hr>
            <ns3:cad>0</ns3:cad>
          </ns3:TrackPointExtension>
        </extensions>
      </trkpt>
      <trkpt lat="47.540084458887577056884765625" lon="11.046363674104213714599609375">
        <ele>1730.4000244140625</ele>
        <time>2026-09-01T08:48:14.000Z</time>
        <extensions>
          <ns3:TrackPointExtension>
            <ns3:hr>134</ns3:hr>
            <ns3:cad>0</ns3:cad>
          </ns3:TrackPointExtension>
        </extensions>
      </trkpt>
      <trkpt lat="47.54008613526821136474609375" lon="11.0463511012494564056396484375">
        <ele>1730</ele>
        <time>2026-09-01T08:48:15.000Z</time>
        <extensions>
          <ns3:TrackPointExtension>
            <ns3:hr>134</ns3:hr>
            <ns3:cad>0</ns3:cad>
          </ns3:TrackPointExtension>
        </extensions>
      </trkpt>
      <trkpt lat="47.540085129439830780029296875" lon="11.04635755531489849090576171875">
        <ele>1729.4000244140625</ele>
        <time>2026-09-01T08:48:16.000Z</time>
        <extensions>
          <ns3:TrackPointExtension>
            <ns3:hr>134</ns3:hr>
            <ns3:cad>0</ns3:cad>
          </ns3:TrackPointExtension>
        </extensions>
      </trkpt>
      <trkpt lat="47.54009418189525604248046875" lon="11.04634934104979038238525390625">
        <ele>1729</ele>
        <time>2026-09-01T08:48:17.000Z</time>
        <extensions>
          <ns3:TrackPointExtension>
            <ns3:hr>134</ns3:hr>
            <ns3:cad>0</ns3:cad>
          </ns3:TrackPointExtension>
        </extensions>
      </trkpt>
      <trkpt lat="47.54009057767689228057861328125" lon="11.04635420255362987518310546875">
        <ele>1728.5999755859375</ele>
        <time>2026-09-01T08:48:18.000Z</time>
        <extensions>
          <ns3:TrackPointExtension>
            <ns3:hr>134</ns3:hr>
            <ns3:cad>0</ns3:cad>
          </ns3:TrackPointExtension>
        </extensions>
      </trkpt>
      <trkpt lat="47.5400993786752223968505859375" lon="11.04635621421039104461669921875">
        <ele>1728.199951171875</ele>
        <time>2026-09-01T08:48:19.000Z</time>
        <extensions>
          <ns3:TrackPointExtension>
            <ns3:hr>133</ns3:hr>
            <ns3:cad>0</ns3:cad>
          </ns3:TrackPointExtension>
        </extensions>
      </trkpt>
      <trkpt lat="47.5401087664067745208740234375" lon="11.0463618300855159759521484375">
        <ele>1727.800048828125</ele>
        <time>2026-09-01T08:48:20.000Z</time>
        <extensions>
          <ns3:TrackPointExtension>
            <ns3:hr>133</ns3:hr>
            <ns3:cad>0</ns3:cad>
          </ns3:TrackPointExtension>
        </extensions>
      </trkpt>
      <trkpt lat="47.54011563956737518310546875" lon="11.046365015208721160888671875">
        <ele>1727.199951171875</ele>
        <time>2026-09-01T08:48:21.000Z</time>
        <extensions>
          <ns3:TrackPointExtension>
            <ns3:hr>133</ns3:hr>
            <ns3:cad>0</ns3:cad>
          </ns3:TrackPointExtension>
        </extensions>
      </trkpt>
      <trkpt lat="47.54012729041278362274169921875" lon="11.0463722236454486846923828125">
        <ele>1726.800048828125</ele>
        <time>2026-09-01T08:48:22.000Z</time>
        <extensions>
          <ns3:TrackPointExtension>
            <ns3:hr>133</ns3:hr>
            <ns3:cad>0</ns3:cad>
          </ns3:TrackPointExtension>
        </extensions>
      </trkpt>
      <trkpt lat="47.54014036618173122406005859375" lon="11.0463739000260829925537109375">
        <ele>1726.199951171875</ele>
        <time>2026-09-01T08:48:23.000Z</time>
        <extensions>
          <ns3:TrackPointExtension>
            <ns3:hr>133</ns3:hr>
            <ns3:cad>0</ns3:cad>
          </ns3:TrackPointExtension>
        </extensions>
      </trkpt>
      <trkpt lat="47.540148161351680755615234375" lon="11.04636132717132568359375">
        <ele>1725.5999755859375</ele>
        <time>2026-09-01T08:48:24.000Z</time>
        <extensions>
          <ns3:TrackPointExtension>
            <ns3:hr>132</ns3:hr>
            <ns3:cad>0</ns3:cad>
          </ns3:TrackPointExtension>
        </extensions>
      </trkpt>
      <trkpt lat="47.5401627458631992340087890625" lon="11.04635554365813732147216796875">
        <ele>1725</ele>
        <time>2026-09-01T08:48:25.000Z</time>
        <extensions>
          <ns3:TrackPointExtension>
            <ns3:hr>131</ns3:hr>
            <ns3:cad>0</ns3:cad>
          </ns3:TrackPointExtension>
        </extensions>
      </trkpt>
      <trkpt lat="47.5401758216321468353271484375" lon="11.04635101743042469024658203125">
        <ele>1724.4000244140625</ele>
        <time>2026-09-01T08:48:26.000Z</time>
        <extensions>
          <ns3:TrackPointExtension>
            <ns3:hr>131</ns3:hr>
            <ns3:cad>0</ns3:cad>
          </ns3:TrackPointExtension>
        </extensions>
      </trkpt>
      <trkpt lat="47.5401914119720458984375" lon="11.04635336436331272125244140625">
        <ele>1723.800048828125</ele>
        <time>2026-09-01T08:48:27.000Z</time>
        <extensions>
          <ns3:TrackPointExtension>
            <ns3:hr>131</ns3:hr>
            <ns3:cad>0</ns3:cad>
          </ns3:TrackPointExtension>
        </extensions>
      </trkpt>
      <trkpt lat="47.54020557738840579986572265625" lon="11.04635537602007389068603515625">
        <ele>1723</ele>
        <time>2026-09-01T08:48:28.000Z</time>
        <extensions>
          <ns3:TrackPointExtension>
            <ns3:hr>131</ns3:hr>
            <ns3:cad>0</ns3:cad>
          </ns3:TrackPointExtension>
        </extensions>
      </trkpt>
      <trkpt lat="47.54022116772830486297607421875" lon="11.04634967632591724395751953125">
        <ele>1722.5999755859375</ele>
        <time>2026-09-01T08:48:29.000Z</time>
        <extensions>
          <ns3:TrackPointExtension>
            <ns3:hr>130</ns3:hr>
            <ns3:cad>0</ns3:cad>
          </ns3:TrackPointExtension>
        </extensions>
      </trkpt>
      <trkpt lat="47.54022871144115924835205078125" lon="11.04633425362408161163330078125">
        <ele>1722.199951171875</ele>
        <time>2026-09-01T08:48:30.000Z</time>
        <extensions>
          <ns3:TrackPointExtension>
            <ns3:hr>131</ns3:hr>
            <ns3:cad>43</ns3:cad>
          </ns3:TrackPointExtension>
        </extensions>
      </trkpt>
      <trkpt lat="47.5402458943426609039306640625" lon="11.04633375070989131927490234375">
        <ele>1721.4000244140625</ele>
        <time>2026-09-01T08:48:31.000Z</time>
        <extensions>
          <ns3:TrackPointExtension>
            <ns3:hr>131</ns3:hr>
            <ns3:cad>43</ns3:cad>
          </ns3:TrackPointExtension>
        </extensions>
      </trkpt>
      <trkpt lat="47.54026005975902080535888671875" lon="11.04632637463510036468505859375">
        <ele>1720.800048828125</ele>
        <time>2026-09-01T08:48:32.000Z</time>
        <extensions>
          <ns3:TrackPointExtension>
            <ns3:hr>132</ns3:hr>
            <ns3:cad>95</ns3:cad>
          </ns3:TrackPointExtension>
        </extensions>
      </trkpt>
      <trkpt lat="47.54027900286018848419189453125" lon="11.04632268659770488739013671875">
        <ele>1720.4000244140625</ele>
        <time>2026-09-01T08:48:33.000Z</time>
        <extensions>
          <ns3:TrackPointExtension>
            <ns3:hr>133</ns3:hr>
            <ns3:cad>95</ns3:cad>
          </ns3:TrackPointExtension>
        </extensions>
      </trkpt>
      <trkpt lat="47.54029861651360988616943359375" lon="11.04631681926548480987548828125">
        <ele>1719.800048828125</ele>
        <time>2026-09-01T08:48:34.000Z</time>
        <extensions>
          <ns3:TrackPointExtension>
            <ns3:hr>133</ns3:hr>
            <ns3:cad>95</ns3:cad>
          </ns3:TrackPointExtension>
        </extensions>
      </trkpt>
      <trkpt lat="47.540312111377716064453125" lon="11.04630977846682071685791015625">
        <ele>1719.199951171875</ele>
        <time>2026-09-01T08:48:35.000Z</time>
        <extensions>
          <ns3:TrackPointExtension>
            <ns3:hr>133</ns3:hr>
            <ns3:cad>95</ns3:cad>
          </ns3:TrackPointExtension>
        </extensions>
      </trkpt>
      <trkpt lat="47.5403206609189510345458984375" lon="11.046319417655467987060546875">
        <ele>1718.4000244140625</ele>
        <time>2026-09-01T08:48:36.000Z</time>
        <extensions>
          <ns3:TrackPointExtension>
            <ns3:hr>133</ns3:hr>
            <ns3:cad>95</ns3:cad>
          </ns3:TrackPointExtension>
        </extensions>
      </trkpt>
      <trkpt lat="47.54033398814499378204345703125" lon="11.0463170707225799560546875">
        <ele>1718</ele>
        <time>2026-09-01T08:48:37.000Z</time>
        <extensions>
          <ns3:TrackPointExtension>
            <ns3:hr>133</ns3:hr>
            <ns3:cad>0</ns3:cad>
          </ns3:TrackPointExtension>
        </extensions>
      </trkpt>
      <trkpt lat="47.5403414480388164520263671875" lon="11.0463135503232479095458984375">
        <ele>1717.4000244140625</ele>
        <time>2026-09-01T08:48:38.000Z</time>
        <extensions>
          <ns3:TrackPointExtension>
            <ns3:hr>134</ns3:hr>
            <ns3:cad>0</ns3:cad>
          </ns3:TrackPointExtension>
        </extensions>
      </trkpt>
      <trkpt lat="47.54035075195133686065673828125" lon="11.04631078429520130157470703125">
        <ele>1717</ele>
        <time>2026-09-01T08:48:39.000Z</time>
        <extensions>
          <ns3:TrackPointExtension>
            <ns3:hr>134</ns3:hr>
            <ns3:cad>0</ns3:cad>
          </ns3:TrackPointExtension>
        </extensions>
      </trkpt>
      <trkpt lat="47.54035846330225467681884765625" lon="11.0463065095245838165283203125">
        <ele>1716.800048828125</ele>
        <time>2026-09-01T08:48:40.000Z</time>
        <extensions>
          <ns3:TrackPointExtension>
            <ns3:hr>134</ns3:hr>
            <ns3:cad>0</ns3:cad>
          </ns3:TrackPointExtension>
        </extensions>
      </trkpt>
      <trkpt lat="47.540376484394073486328125" lon="11.04630642570555210113525390625">
        <ele>1716.199951171875</ele>
        <time>2026-09-01T08:48:41.000Z</time>
        <extensions>
          <ns3:TrackPointExtension>
            <ns3:hr>134</ns3:hr>
            <ns3:cad>0</ns3:cad>
          </ns3:TrackPointExtension>
        </extensions>
      </trkpt>
      <trkpt lat="47.5403830222785472869873046875" lon="11.04630759917199611663818359375">
        <ele>1715.800048828125</ele>
        <time>2026-09-01T08:48:42.000Z</time>
        <extensions>
          <ns3:TrackPointExtension>
            <ns3:hr>134</ns3:hr>
            <ns3:cad>0</ns3:cad>
          </ns3:TrackPointExtension>
        </extensions>
      </trkpt>
      <trkpt lat="47.54038059152662754058837890625" lon="11.0463135503232479095458984375">
        <ele>1715.199951171875</ele>
        <time>2026-09-01T08:48:43.000Z</time>
        <extensions>
          <ns3:TrackPointExtension>
            <ns3:hr>134</ns3:hr>
            <ns3:cad>0</ns3:cad>
          </ns3:TrackPointExtension>
        </extensions>
      </trkpt>
      <trkpt lat="47.54038210026919841766357421875" lon="11.04631816036999225616455078125">
        <ele>1714.800048828125</ele>
        <time>2026-09-01T08:48:44.000Z</time>
        <extensions>
          <ns3:TrackPointExtension>
            <ns3:hr>134</ns3:hr>
            <ns3:cad>0</ns3:cad>
          </ns3:TrackPointExtension>
        </extensions>
      </trkpt>
      <trkpt lat="47.54038981162011623382568359375" lon="11.0463205911219120025634765625">
        <ele>1714.5999755859375</ele>
        <time>2026-09-01T08:48:45.000Z</time>
        <extensions>
          <ns3:TrackPointExtension>
            <ns3:hr>135</ns3:hr>
            <ns3:cad>0</ns3:cad>
          </ns3:TrackPointExtension>
        </extensions>
      </trkpt>
      <trkpt lat="47.54038981162011623382568359375" lon="11.04632176458835601806640625">
        <ele>1714.4000244140625</ele>
        <time>2026-09-01T08:48:46.000Z</time>
        <extensions>
          <ns3:TrackPointExtension>
            <ns3:hr>135</ns3:hr>
            <ns3:cad>0</ns3:cad>
          </ns3:TrackPointExtension>
        </extensions>
      </trkpt>
      <trkpt lat="47.54040129482746124267578125" lon="11.0463091917335987091064453125">
        <ele>1714.199951171875</ele>
        <time>2026-09-01T08:48:47.000Z</time>
        <extensions>
          <ns3:TrackPointExtension>
            <ns3:hr>135</ns3:hr>
            <ns3:cad>0</ns3:cad>
          </ns3:TrackPointExtension>
        </extensions>
      </trkpt>
      <trkpt lat="47.54041160456836223602294921875" lon="11.04630575515329837799072265625">
        <ele>1713.800048828125</ele>
        <time>2026-09-01T08:48:48.000Z</time>
        <extensions>
          <ns3:TrackPointExtension>
            <ns3:hr>135</ns3:hr>
            <ns3:cad>0</ns3:cad>
          </ns3:TrackPointExtension>
        </extensions>
      </trkpt>
      <trkpt lat="47.54042166285216808319091796875" lon="11.046299301087856292724609375">
        <ele>1713.4000244140625</ele>
        <time>2026-09-01T08:48:49.000Z</time>
        <extensions>
          <ns3:TrackPointExtension>
            <ns3:hr>135</ns3:hr>
            <ns3:cad>62</ns3:cad>
          </ns3:TrackPointExtension>
        </extensions>
      </trkpt>
      <trkpt lat="47.54043004475533962249755859375" lon="11.04629100300371646881103515625">
        <ele>1713</ele>
        <time>2026-09-01T08:48:50.000Z</time>
        <extensions>
          <ns3:TrackPointExtension>
            <ns3:hr>135</ns3:hr>
            <ns3:cad>62</ns3:cad>
          </ns3:TrackPointExtension>
        </extensions>
      </trkpt>
      <trkpt lat="47.5404368340969085693359375" lon="11.04628480039536952972412109375">
        <ele>1712.4000244140625</ele>
        <time>2026-09-01T08:48:51.000Z</time>
        <extensions>
          <ns3:TrackPointExtension>
            <ns3:hr>135</ns3:hr>
            <ns3:cad>62</ns3:cad>
          </ns3:TrackPointExtension>
        </extensions>
      </trkpt>
      <trkpt lat="47.54044144414365291595458984375" lon="11.0462822020053863525390625">
        <ele>1711.5999755859375</ele>
        <time>2026-09-01T08:48:52.000Z</time>
        <extensions>
          <ns3:TrackPointExtension>
            <ns3:hr>135</ns3:hr>
            <ns3:cad>0</ns3:cad>
          </ns3:TrackPointExtension>
        </extensions>
      </trkpt>
      <trkpt lat="47.54044714383780956268310546875" lon="11.04628077708184719085693359375">
        <ele>1711</ele>
        <time>2026-09-01T08:48:53.000Z</time>
        <extensions>
          <ns3:TrackPointExtension>
            <ns3:hr>136</ns3:hr>
            <ns3:cad>0</ns3:cad>
          </ns3:TrackPointExtension>
        </extensions>
      </trkpt>
      <trkpt lat="47.54045435227453708648681640625" lon="11.0462766699492931365966796875">
        <ele>1710.4000244140625</ele>
        <time>2026-09-01T08:48:54.000Z</time>
        <extensions>
          <ns3:TrackPointExtension>
            <ns3:hr>136</ns3:hr>
            <ns3:cad>0</ns3:cad>
          </ns3:TrackPointExtension>
        </extensions>
      </trkpt>
      <trkpt lat="47.54045871086418628692626953125" lon="11.0462766699492931365966796875">
        <ele>1709.800048828125</ele>
        <time>2026-09-01T08:48:55.000Z</time>
        <extensions>
          <ns3:TrackPointExtension>
            <ns3:hr>136</ns3:hr>
            <ns3:cad>0</ns3:cad>
          </ns3:TrackPointExtension>
        </extensions>
      </trkpt>
      <trkpt lat="47.5404665060341358184814453125" lon="11.04627490974962711334228515625">
        <ele>1709.199951171875</ele>
        <time>2026-09-01T08:48:56.000Z</time>
        <extensions>
          <ns3:TrackPointExtension>
            <ns3:hr>136</ns3:hr>
            <ns3:cad>0</ns3:cad>
          </ns3:TrackPointExtension>
        </extensions>
      </trkpt>
      <trkpt lat="47.54047597758471965789794921875" lon="11.04626434855163097381591796875">
        <ele>1708.800048828125</ele>
        <time>2026-09-01T08:48:57.000Z</time>
        <extensions>
          <ns3:TrackPointExtension>
            <ns3:hr>136</ns3:hr>
            <ns3:cad>0</ns3:cad>
          </ns3:TrackPointExtension>
        </extensions>
      </trkpt>
      <trkpt lat="47.54048385657370090484619140625" lon="11.04625512845814228057861328125">
        <ele>1708.199951171875</ele>
        <time>2026-09-01T08:48:58.000Z</time>
        <extensions>
          <ns3:TrackPointExtension>
            <ns3:hr>135</ns3:hr>
            <ns3:cad>0</ns3:cad>
          </ns3:TrackPointExtension>
        </extensions>
      </trkpt>
      <trkpt lat="47.54049877636134624481201171875" lon="11.04624171741306781768798828125">
        <ele>1707.5999755859375</ele>
        <time>2026-09-01T08:48:59.000Z</time>
        <extensions>
          <ns3:TrackPointExtension>
            <ns3:hr>135</ns3:hr>
            <ns3:cad>0</ns3:cad>
          </ns3:TrackPointExtension>
        </extensions>
      </trkpt>
      <trkpt lat="47.5405080802738666534423828125" lon="11.0462297312915325164794921875">
        <ele>1707.4000244140625</ele>
        <time>2026-09-01T08:49:00.000Z</time>
        <extensions>
          <ns3:TrackPointExtension>
            <ns3:hr>134</ns3:hr>
            <ns3:cad>0</ns3:cad>
          </ns3:TrackPointExtension>
        </extensions>
      </trkpt>
      <trkpt lat="47.5405144505202770233154296875" lon="11.04622260667383670806884765625">
        <ele>1706.800048828125</ele>
        <time>2026-09-01T08:49:01.000Z</time>
        <extensions>
          <ns3:TrackPointExtension>
            <ns3:hr>134</ns3:hr>
            <ns3:cad>0</ns3:cad>
          </ns3:TrackPointExtension>
        </extensions>
      </trkpt>
      <trkpt lat="47.54052425734698772430419921875" lon="11.0462143085896968841552734375">
        <ele>1706.199951171875</ele>
        <time>2026-09-01T08:49:02.000Z</time>
        <extensions>
          <ns3:TrackPointExtension>
            <ns3:hr>133</ns3:hr>
            <ns3:cad>0</ns3:cad>
          </ns3:TrackPointExtension>
        </extensions>
      </trkpt>
      <trkpt lat="47.5405253469944000244140625" lon="11.04621045291423797607421875">
        <ele>1705.4000244140625</ele>
        <time>2026-09-01T08:49:03.000Z</time>
        <extensions>
          <ns3:TrackPointExtension>
            <ns3:hr>132</ns3:hr>
            <ns3:cad>0</ns3:cad>
          </ns3:TrackPointExtension>
        </extensions>
      </trkpt>
      <trkpt lat="47.5405231676995754241943359375" lon="11.04621489532291889190673828125">
        <ele>1705</ele>
        <time>2026-09-01T08:49:04.000Z</time>
        <extensions>
          <ns3:TrackPointExtension>
            <ns3:hr>132</ns3:hr>
            <ns3:cad>0</ns3:cad>
          </ns3:TrackPointExtension>
        </extensions>
      </trkpt>
      <trkpt lat="47.54053272306919097900390625" lon="11.046211458742618560791015625">
        <ele>1704.4000244140625</ele>
        <time>2026-09-01T08:49:05.000Z</time>
        <extensions>
          <ns3:TrackPointExtension>
            <ns3:hr>131</ns3:hr>
            <ns3:cad>0</ns3:cad>
          </ns3:TrackPointExtension>
        </extensions>
      </trkpt>
      <trkpt lat="47.54054102115333080291748046875" lon="11.04619611985981464385986328125">
        <ele>1704</ele>
        <time>2026-09-01T08:49:06.000Z</time>
        <extensions>
          <ns3:TrackPointExtension>
            <ns3:hr>130</ns3:hr>
            <ns3:cad>0</ns3:cad>
          </ns3:TrackPointExtension>
        </extensions>
      </trkpt>
      <trkpt lat="47.54055057652294635772705078125" lon="11.046181954443454742431640625">
        <ele>1703.199951171875</ele>
        <time>2026-09-01T08:49:07.000Z</time>
        <extensions>
          <ns3:TrackPointExtension>
            <ns3:hr>129</ns3:hr>
            <ns3:cad>0</ns3:cad>
          </ns3:TrackPointExtension>
        </extensions>
      </trkpt>
      <trkpt lat="47.54056013189256191253662109375" lon="11.04617818258702754974365234375">
        <ele>1702.800048828125</ele>
        <time>2026-09-01T08:49:08.000Z</time>
        <extensions>
          <ns3:TrackPointExtension>
            <ns3:hr>128</ns3:hr>
            <ns3:cad>0</ns3:cad>
          </ns3:TrackPointExtension>
        </extensions>
      </trkpt>
      <trkpt lat="47.540575973689556121826171875" lon="11.04617935605347156524658203125">
        <ele>1702.199951171875</ele>
        <time>2026-09-01T08:49:09.000Z</time>
        <extensions>
          <ns3:TrackPointExtension>
            <ns3:hr>128</ns3:hr>
            <ns3:cad>47</ns3:cad>
          </ns3:TrackPointExtension>
        </extensions>
      </trkpt>
      <trkpt lat="47.54059131257236003875732421875" lon="11.046192012727260589599609375">
        <ele>1701.4000244140625</ele>
        <time>2026-09-01T08:49:10.000Z</time>
        <extensions>
          <ns3:TrackPointExtension>
            <ns3:hr>127</ns3:hr>
            <ns3:cad>47</ns3:cad>
          </ns3:TrackPointExtension>
        </extensions>
      </trkpt>
      <trkpt lat="47.540604807436466217041015625" lon="11.04619394056499004364013671875">
        <ele>1700.5999755859375</ele>
        <time>2026-09-01T08:49:11.000Z</time>
        <extensions>
          <ns3:TrackPointExtension>
            <ns3:hr>127</ns3:hr>
            <ns3:cad>47</ns3:cad>
          </ns3:TrackPointExtension>
        </extensions>
      </trkpt>
      <trkpt lat="47.54061310552060604095458984375" lon="11.04619243182241916656494140625">
        <ele>1699.800048828125</ele>
        <time>2026-09-01T08:49:12.000Z</time>
        <extensions>
          <ns3:TrackPointExtension>
            <ns3:hr>126</ns3:hr>
            <ns3:cad>45</ns3:cad>
          </ns3:TrackPointExtension>
        </extensions>
      </trkpt>
      <trkpt lat="47.54062232561409473419189453125" lon="11.04619796387851238250732421875">
        <ele>1699.199951171875</ele>
        <time>2026-09-01T08:49:13.000Z</time>
        <extensions>
          <ns3:TrackPointExtension>
            <ns3:hr>126</ns3:hr>
            <ns3:cad>0</ns3:cad>
          </ns3:TrackPointExtension>
        </extensions>
      </trkpt>
      <trkpt lat="47.5406331382691860198974609375" lon="11.04620818980038166046142578125">
        <ele>1698.5999755859375</ele>
        <time>2026-09-01T08:49:14.000Z</time>
        <extensions>
          <ns3:TrackPointExtension>
            <ns3:hr>126</ns3:hr>
            <ns3:cad>0</ns3:cad>
          </ns3:TrackPointExtension>
        </extensions>
      </trkpt>
      <trkpt lat="47.5406475551426410675048828125" lon="11.046219505369663238525390625">
        <ele>1698.4000244140625</ele>
        <time>2026-09-01T08:49:15.000Z</time>
        <extensions>
          <ns3:TrackPointExtension>
            <ns3:hr>126</ns3:hr>
            <ns3:cad>0</ns3:cad>
          </ns3:TrackPointExtension>
        </extensions>
      </trkpt>
      <trkpt lat="47.54065887071192264556884765625" lon="11.04622847400605678558349609375">
        <ele>1697.5999755859375</ele>
        <time>2026-09-01T08:49:16.000Z</time>
        <extensions>
          <ns3:TrackPointExtension>
            <ns3:hr>126</ns3:hr>
            <ns3:cad>48</ns3:cad>
          </ns3:TrackPointExtension>
        </extensions>
      </trkpt>
      <trkpt lat="47.54067479632794857025146484375" lon="11.04623769409954547882080078125">
        <ele>1696.800048828125</ele>
        <time>2026-09-01T08:49:17.000Z</time>
        <extensions>
          <ns3:TrackPointExtension>
            <ns3:hr>127</ns3:hr>
            <ns3:cad>93</ns3:cad>
          </ns3:TrackPointExtension>
        </extensions>
      </trkpt>
      <trkpt lat="47.540685944259166717529296875" lon="11.0462505184113979339599609375">
        <ele>1696</ele>
        <time>2026-09-01T08:49:18.000Z</time>
        <extensions>
          <ns3:TrackPointExtension>
            <ns3:hr>127</ns3:hr>
            <ns3:cad>93</ns3:cad>
          </ns3:TrackPointExtension>
        </extensions>
      </trkpt>
      <trkpt lat="47.54070078022778034210205078125" lon="11.0462709702551364898681640625">
        <ele>1695.199951171875</ele>
        <time>2026-09-01T08:49:19.000Z</time>
        <extensions>
          <ns3:TrackPointExtension>
            <ns3:hr>127</ns3:hr>
            <ns3:cad>93</ns3:cad>
          </ns3:TrackPointExtension>
        </extensions>
      </trkpt>
      <trkpt lat="47.540713436901569366455078125" lon="11.0462880693376064300537109375">
        <ele>1694.800048828125</ele>
        <time>2026-09-01T08:49:20.000Z</time>
        <extensions>
          <ns3:TrackPointExtension>
            <ns3:hr>127</ns3:hr>
            <ns3:cad>93</ns3:cad>
          </ns3:TrackPointExtension>
        </extensions>
      </trkpt>
      <trkpt lat="47.54072391428053379058837890625" lon="11.04630701243877410888671875">
        <ele>1694.199951171875</ele>
        <time>2026-09-01T08:49:21.000Z</time>
        <extensions>
          <ns3:TrackPointExtension>
            <ns3:hr>128</ns3:hr>
            <ns3:cad>93</ns3:cad>
          </ns3:TrackPointExtension>
        </extensions>
      </trkpt>
      <trkpt lat="47.54073950462043285369873046875" lon="11.04631841182708740234375">
        <ele>1693.5999755859375</ele>
        <time>2026-09-01T08:49:22.000Z</time>
        <extensions>
          <ns3:TrackPointExtension>
            <ns3:hr>129</ns3:hr>
            <ns3:cad>93</ns3:cad>
          </ns3:TrackPointExtension>
        </extensions>
      </trkpt>
      <trkpt lat="47.54076280631124973297119140625" lon="11.046301983296871185302734375">
        <ele>1693</ele>
        <time>2026-09-01T08:49:23.000Z</time>
        <extensions>
          <ns3:TrackPointExtension>
            <ns3:hr>130</ns3:hr>
            <ns3:cad>93</ns3:cad>
          </ns3:TrackPointExtension>
        </extensions>
      </trkpt>
      <trkpt lat="47.54078275524079799652099609375" lon="11.0462887398898601531982421875">
        <ele>1692.199951171875</ele>
        <time>2026-09-01T08:49:24.000Z</time>
        <extensions>
          <ns3:TrackPointExtension>
            <ns3:hr>130</ns3:hr>
            <ns3:cad>93</ns3:cad>
          </ns3:TrackPointExtension>
        </extensions>
      </trkpt>
      <trkpt lat="47.54079499281942844390869140625" lon="11.04627273045480251312255859375">
        <ele>1691.5999755859375</ele>
        <time>2026-09-01T08:49:25.000Z</time>
        <extensions>
          <ns3:TrackPointExtension>
            <ns3:hr>131</ns3:hr>
            <ns3:cad>93</ns3:cad>
          </ns3:TrackPointExtension>
        </extensions>
      </trkpt>
      <trkpt lat="47.540809325873851776123046875" lon="11.0462538711726665496826171875">
        <ele>1691</ele>
        <time>2026-09-01T08:49:26.000Z</time>
        <extensions>
          <ns3:TrackPointExtension>
            <ns3:hr>131</ns3:hr>
            <ns3:cad>93</ns3:cad>
          </ns3:TrackPointExtension>
        </extensions>
      </trkpt>
      <trkpt lat="47.54082667641341686248779296875" lon="11.04623325169086456298828125">
        <ele>1690.5999755859375</ele>
        <time>2026-09-01T08:49:27.000Z</time>
        <extensions>
          <ns3:TrackPointExtension>
            <ns3:hr>131</ns3:hr>
            <ns3:cad>93</ns3:cad>
          </ns3:TrackPointExtension>
        </extensions>
      </trkpt>
      <trkpt lat="47.540832795202732086181640625" lon="11.04622595943510532379150390625">
        <ele>1690.199951171875</ele>
        <time>2026-09-01T08:49:28.000Z</time>
        <extensions>
          <ns3:TrackPointExtension>
            <ns3:hr>131</ns3:hr>
            <ns3:cad>93</ns3:cad>
          </ns3:TrackPointExtension>
        </extensions>
      </trkpt>
      <trkpt lat="47.540844194591045379638671875" lon="11.04622260667383670806884765625">
        <ele>1689.800048828125</ele>
        <time>2026-09-01T08:49:29.000Z</time>
        <extensions>
          <ns3:TrackPointExtension>
            <ns3:hr>131</ns3:hr>
            <ns3:cad>93</ns3:cad>
          </ns3:TrackPointExtension>
        </extensions>
      </trkpt>
      <trkpt lat="47.54085903055965900421142578125" lon="11.04621824808418750762939453125">
        <ele>1689.4000244140625</ele>
        <time>2026-09-01T08:49:30.000Z</time>
        <extensions>
          <ns3:TrackPointExtension>
            <ns3:hr>130</ns3:hr>
            <ns3:cad>93</ns3:cad>
          </ns3:TrackPointExtension>
        </extensions>
      </trkpt>
      <trkpt lat="47.54087076522409915924072265625" lon="11.04622243903577327728271484375">
        <ele>1688.800048828125</ele>
        <time>2026-09-01T08:49:31.000Z</time>
        <extensions>
          <ns3:TrackPointExtension>
            <ns3:hr>130</ns3:hr>
            <ns3:cad>93</ns3:cad>
          </ns3:TrackPointExtension>
        </extensions>
      </trkpt>
      <trkpt lat="47.540886104106903076171875" lon="11.0462163202464580535888671875">
        <ele>1688.199951171875</ele>
        <time>2026-09-01T08:49:32.000Z</time>
        <extensions>
          <ns3:TrackPointExtension>
            <ns3:hr>130</ns3:hr>
            <ns3:cad>93</ns3:cad>
          </ns3:TrackPointExtension>
        </extensions>
      </trkpt>
      <trkpt lat="47.54089616239070892333984375" lon="11.046219505369663238525390625">
        <ele>1687.5999755859375</ele>
        <time>2026-09-01T08:49:33.000Z</time>
        <extensions>
          <ns3:TrackPointExtension>
            <ns3:hr>130</ns3:hr>
            <ns3:cad>93</ns3:cad>
          </ns3:TrackPointExtension>
        </extensions>
      </trkpt>
      <trkpt lat="47.54090311937034130096435546875" lon="11.04621824808418750762939453125">
        <ele>1687.199951171875</ele>
        <time>2026-09-01T08:49:34.000Z</time>
        <extensions>
          <ns3:TrackPointExtension>
            <ns3:hr>129</ns3:hr>
            <ns3:cad>93</ns3:cad>
          </ns3:TrackPointExtension>
        </extensions>
      </trkpt>
      <trkpt lat="47.540915273129940032958984375" lon="11.0462151467800140380859375">
        <ele>1686.5999755859375</ele>
        <time>2026-09-01T08:49:35.000Z</time>
        <extensions>
          <ns3:TrackPointExtension>
            <ns3:hr>130</ns3:hr>
            <ns3:cad>93</ns3:cad>
          </ns3:TrackPointExtension>
        </extensions>
      </trkpt>
      <trkpt lat="47.54092960618436336517333984375" lon="11.04621388949453830718994140625">
        <ele>1686</ele>
        <time>2026-09-01T08:49:36.000Z</time>
        <extensions>
          <ns3:TrackPointExtension>
            <ns3:hr>130</ns3:hr>
            <ns3:cad>93</ns3:cad>
          </ns3:TrackPointExtension>
        </extensions>
      </trkpt>
      <trkpt lat="47.54094016738235950469970703125" lon="11.0462233610451221466064453125">
        <ele>1685.4000244140625</ele>
        <time>2026-09-01T08:49:37.000Z</time>
        <extensions>
          <ns3:TrackPointExtension>
            <ns3:hr>129</ns3:hr>
            <ns3:cad>93</ns3:cad>
          </ns3:TrackPointExtension>
        </extensions>
      </trkpt>
      <trkpt lat="47.54095408134162425994873046875" lon="11.04622914455831050872802734375">
        <ele>1684.800048828125</ele>
        <time>2026-09-01T08:49:38.000Z</time>
        <extensions>
          <ns3:TrackPointExtension>
            <ns3:hr>129</ns3:hr>
            <ns3:cad>93</ns3:cad>
          </ns3:TrackPointExtension>
        </extensions>
      </trkpt>
      <trkpt lat="47.5409694202244281768798828125" lon="11.04623886756598949432373046875">
        <ele>1684.4000244140625</ele>
        <time>2026-09-01T08:49:39.000Z</time>
        <extensions>
          <ns3:TrackPointExtension>
            <ns3:hr>128</ns3:hr>
            <ns3:cad>93</ns3:cad>
          </ns3:TrackPointExtension>
        </extensions>
      </trkpt>
      <trkpt lat="47.54098123870790004730224609375" lon="11.0462505184113979339599609375">
        <ele>1683.5999755859375</ele>
        <time>2026-09-01T08:49:40.000Z</time>
        <extensions>
          <ns3:TrackPointExtension>
            <ns3:hr>128</ns3:hr>
            <ns3:cad>0</ns3:cad>
          </ns3:TrackPointExtension>
        </extensions>
      </trkpt>
      <trkpt lat="47.54099532030522823333740234375" lon="11.04625403881072998046875">
        <ele>1683</ele>
        <time>2026-09-01T08:49:41.000Z</time>
        <extensions>
          <ns3:TrackPointExtension>
            <ns3:hr>127</ns3:hr>
            <ns3:cad>0</ns3:cad>
          </ns3:TrackPointExtension>
        </extensions>
      </trkpt>
      <trkpt lat="47.54101283848285675048828125" lon="11.04626233689486980438232421875">
        <ele>1682.4000244140625</ele>
        <time>2026-09-01T08:49:42.000Z</time>
        <extensions>
          <ns3:TrackPointExtension>
            <ns3:hr>126</ns3:hr>
            <ns3:cad>0</ns3:cad>
          </ns3:TrackPointExtension>
        </extensions>
      </trkpt>
      <trkpt lat="47.5410282611846923828125" lon="11.046266444027423858642578125">
        <ele>1681.5999755859375</ele>
        <time>2026-09-01T08:49:43.000Z</time>
        <extensions>
          <ns3:TrackPointExtension>
            <ns3:hr>126</ns3:hr>
            <ns3:cad>0</ns3:cad>
          </ns3:TrackPointExtension>
        </extensions>
      </trkpt>
      <trkpt lat="47.54103655926883220672607421875" lon="11.046281196177005767822265625">
        <ele>1681.199951171875</ele>
        <time>2026-09-01T08:49:44.000Z</time>
        <extensions>
          <ns3:TrackPointExtension>
            <ns3:hr>126</ns3:hr>
            <ns3:cad>0</ns3:cad>
          </ns3:TrackPointExtension>
        </extensions>
      </trkpt>
      <trkpt lat="47.54103873856365680694580078125" lon="11.04628689587116241455078125">
        <ele>1680.4000244140625</ele>
        <time>2026-09-01T08:49:45.000Z</time>
        <extensions>
          <ns3:TrackPointExtension>
            <ns3:hr>125</ns3:hr>
            <ns3:cad>0</ns3:cad>
          </ns3:TrackPointExtension>
        </extensions>
      </trkpt>
      <trkpt lat="47.5410497188568115234375" lon="11.0462927632033824920654296875">
        <ele>1679.800048828125</ele>
        <time>2026-09-01T08:49:46.000Z</time>
        <extensions>
          <ns3:TrackPointExtension>
            <ns3:hr>125</ns3:hr>
            <ns3:cad>0</ns3:cad>
          </ns3:TrackPointExtension>
        </extensions>
      </trkpt>
      <trkpt lat="47.5410622917115688323974609375" lon="11.04629628360271453857421875">
        <ele>1679</ele>
        <time>2026-09-01T08:49:47.000Z</time>
        <extensions>
          <ns3:TrackPointExtension>
            <ns3:hr>125</ns3:hr>
            <ns3:cad>0</ns3:cad>
          </ns3:TrackPointExtension>
        </extensions>
      </trkpt>
      <trkpt lat="47.5410757027566432952880859375" lon="11.046302318572998046875">
        <ele>1678.4000244140625</ele>
        <time>2026-09-01T08:49:48.000Z</time>
        <extensions>
          <ns3:TrackPointExtension>
            <ns3:hr>125</ns3:hr>
            <ns3:cad>0</ns3:cad>
          </ns3:TrackPointExtension>
        </extensions>
      </trkpt>
      <trkpt lat="47.54108634777367115020751953125" lon="11.046315729618072509765625">
        <ele>1678</ele>
        <time>2026-09-01T08:49:49.000Z</time>
        <extensions>
          <ns3:TrackPointExtension>
            <ns3:hr>124</ns3:hr>
            <ns3:cad>0</ns3:cad>
          </ns3:TrackPointExtension>
        </extensions>
      </trkpt>
      <trkpt lat="47.54109271802008152008056640625" lon="11.04631581343710422515869140625">
        <ele>1677.199951171875</ele>
        <time>2026-09-01T08:49:50.000Z</time>
        <extensions>
          <ns3:TrackPointExtension>
            <ns3:hr>124</ns3:hr>
            <ns3:cad>0</ns3:cad>
          </ns3:TrackPointExtension>
        </extensions>
      </trkpt>
      <trkpt lat="47.54109925590455532073974609375" lon="11.046320088207721710205078125">
        <ele>1676.5999755859375</ele>
        <time>2026-09-01T08:49:51.000Z</time>
        <extensions>
          <ns3:TrackPointExtension>
            <ns3:hr>124</ns3:hr>
            <ns3:cad>0</ns3:cad>
          </ns3:TrackPointExtension>
        </extensions>
      </trkpt>
      <trkpt lat="47.5411068834364414215087890625" lon="11.04633023031055927276611328125">
        <ele>1676</ele>
        <time>2026-09-01T08:49:52.000Z</time>
        <extensions>
          <ns3:TrackPointExtension>
            <ns3:hr>123</ns3:hr>
            <ns3:cad>0</ns3:cad>
          </ns3:TrackPointExtension>
        </extensions>
      </trkpt>
      <trkpt lat="47.541112415492534637451171875" lon="11.0463386960327625274658203125">
        <ele>1675.199951171875</ele>
        <time>2026-09-01T08:49:53.000Z</time>
        <extensions>
          <ns3:TrackPointExtension>
            <ns3:hr>123</ns3:hr>
            <ns3:cad>0</ns3:cad>
          </ns3:TrackPointExtension>
        </extensions>
      </trkpt>
      <trkpt lat="47.541122473776340484619140625" lon="11.0463412106037139892578125">
        <ele>1674.5999755859375</ele>
        <time>2026-09-01T08:49:54.000Z</time>
        <extensions>
          <ns3:TrackPointExtension>
            <ns3:hr>122</ns3:hr>
            <ns3:cad>0</ns3:cad>
          </ns3:TrackPointExtension>
        </extensions>
      </trkpt>
      <trkpt lat="47.541132532060146331787109375" lon="11.046342216432094573974609375">
        <ele>1674</ele>
        <time>2026-09-01T08:49:55.000Z</time>
        <extensions>
          <ns3:TrackPointExtension>
            <ns3:hr>121</ns3:hr>
            <ns3:cad>0</ns3:cad>
          </ns3:TrackPointExtension>
        </extensions>
      </trkpt>
      <trkpt lat="47.541139908134937286376953125" lon="11.046342216432094573974609375">
        <ele>1673.5999755859375</ele>
        <time>2026-09-01T08:49:56.000Z</time>
        <extensions>
          <ns3:TrackPointExtension>
            <ns3:hr>120</ns3:hr>
            <ns3:cad>45</ns3:cad>
          </ns3:TrackPointExtension>
        </extensions>
      </trkpt>
      <trkpt lat="47.54115574993193149566650390625" lon="11.0463524423539638519287109375">
        <ele>1673.199951171875</ele>
        <time>2026-09-01T08:49:57.000Z</time>
        <extensions>
          <ns3:TrackPointExtension>
            <ns3:hr>120</ns3:hr>
            <ns3:cad>45</ns3:cad>
          </ns3:TrackPointExtension>
        </extensions>
      </trkpt>
      <trkpt lat="47.54117167554795742034912109375" lon="11.04635705240070819854736328125">
        <ele>1672.800048828125</ele>
        <time>2026-09-01T08:49:58.000Z</time>
        <extensions>
          <ns3:TrackPointExtension>
            <ns3:hr>119</ns3:hr>
            <ns3:cad>45</ns3:cad>
          </ns3:TrackPointExtension>
        </extensions>
      </trkpt>
      <trkpt lat="47.54118659533560276031494140625" lon="11.0463611595332622528076171875">
        <ele>1672</ele>
        <time>2026-09-01T08:49:59.000Z</time>
        <extensions>
          <ns3:TrackPointExtension>
            <ns3:hr>119</ns3:hr>
            <ns3:cad>43</ns3:cad>
          </ns3:TrackPointExtension>
        </extensions>
      </trkpt>
      <trkpt lat="47.541200257837772369384765625" lon="11.04636157862842082977294921875">
        <ele>1671.4000244140625</ele>
        <time>2026-09-01T08:50:00.000Z</time>
        <extensions>
          <ns3:TrackPointExtension>
            <ns3:hr>119</ns3:hr>
            <ns3:cad>43</ns3:cad>
          </ns3:TrackPointExtension>
        </extensions>
      </trkpt>
      <trkpt lat="47.5412151776254177093505859375" lon="11.04635487310588359832763671875">
        <ele>1670.800048828125</ele>
        <time>2026-09-01T08:50:01.000Z</time>
        <extensions>
          <ns3:TrackPointExtension>
            <ns3:hr>118</ns3:hr>
            <ns3:cad>43</ns3:cad>
          </ns3:TrackPointExtension>
        </extensions>
      </trkpt>
      <trkpt lat="47.54122682847082614898681640625" lon="11.04632855392992496490478515625">
        <ele>1670.4000244140625</ele>
        <time>2026-09-01T08:50:02.000Z</time>
        <extensions>
          <ns3:TrackPointExtension>
            <ns3:hr>118</ns3:hr>
            <ns3:cad>43</ns3:cad>
          </ns3:TrackPointExtension>
        </extensions>
      </trkpt>
      <trkpt lat="47.54124107770621776580810546875" lon="11.04628999717533588409423828125">
        <ele>1670.199951171875</ele>
        <time>2026-09-01T08:50:03.000Z</time>
        <extensions>
          <ns3:TrackPointExtension>
            <ns3:hr>117</ns3:hr>
            <ns3:cad>43</ns3:cad>
          </ns3:TrackPointExtension>
        </extensions>
      </trkpt>
      <trkpt lat="47.54124753177165985107421875" lon="11.0462706349790096282958984375">
        <ele>1669.800048828125</ele>
        <time>2026-09-01T08:50:04.000Z</time>
        <extensions>
          <ns3:TrackPointExtension>
            <ns3:hr>117</ns3:hr>
            <ns3:cad>77</ns3:cad>
          </ns3:TrackPointExtension>
        </extensions>
      </trkpt>
      <trkpt lat="47.54125733859837055206298828125" lon="11.046247668564319610595703125">
        <ele>1669.5999755859375</ele>
        <time>2026-09-01T08:50:05.000Z</time>
        <extensions>
          <ns3:TrackPointExtension>
            <ns3:hr>118</ns3:hr>
            <ns3:cad>77</ns3:cad>
          </ns3:TrackPointExtension>
        </extensions>
      </trkpt>
      <trkpt lat="47.5412711687386035919189453125" lon="11.04623132385313510894775390625">
        <ele>1669.4000244140625</ele>
        <time>2026-09-01T08:50:06.000Z</time>
        <extensions>
          <ns3:TrackPointExtension>
            <ns3:hr>118</ns3:hr>
            <ns3:cad>77</ns3:cad>
          </ns3:TrackPointExtension>
        </extensions>
      </trkpt>
      <trkpt lat="47.54128349013626575469970703125" lon="11.046222187578678131103515625">
        <ele>1669</ele>
        <time>2026-09-01T08:50:07.000Z</time>
        <extensions>
          <ns3:TrackPointExtension>
            <ns3:hr>119</ns3:hr>
            <ns3:cad>0</ns3:cad>
          </ns3:TrackPointExtension>
        </extensions>
      </trkpt>
      <trkpt lat="47.54129807464778423309326171875" lon="11.04621271602809429168701171875">
        <ele>1668.4000244140625</ele>
        <time>2026-09-01T08:50:08.000Z</time>
        <extensions>
          <ns3:TrackPointExtension>
            <ns3:hr>119</ns3:hr>
            <ns3:cad>0</ns3:cad>
          </ns3:TrackPointExtension>
        </extensions>
      </trkpt>
      <trkpt lat="47.54131416790187358856201171875" lon="11.04620165191590785980224609375">
        <ele>1668</ele>
        <time>2026-09-01T08:50:09.000Z</time>
        <extensions>
          <ns3:TrackPointExtension>
            <ns3:hr>119</ns3:hr>
            <ns3:cad>0</ns3:cad>
          </ns3:TrackPointExtension>
        </extensions>
      </trkpt>
      <trkpt lat="47.54132757894694805145263671875" lon="11.04619729332625865936279296875">
        <ele>1667.4000244140625</ele>
        <time>2026-09-01T08:50:10.000Z</time>
        <extensions>
          <ns3:TrackPointExtension>
            <ns3:hr>120</ns3:hr>
            <ns3:cad>76</ns3:cad>
          </ns3:TrackPointExtension>
        </extensions>
      </trkpt>
      <trkpt lat="47.54134266637265682220458984375" lon="11.04618974961340427398681640625">
        <ele>1666.800048828125</ele>
        <time>2026-09-01T08:50:11.000Z</time>
        <extensions>
          <ns3:TrackPointExtension>
            <ns3:hr>119</ns3:hr>
            <ns3:cad>76</ns3:cad>
          </ns3:TrackPointExtension>
        </extensions>
      </trkpt>
      <trkpt lat="47.54135473631322383880615234375" lon="11.04618472047150135040283203125">
        <ele>1666.4000244140625</ele>
        <time>2026-09-01T08:50:12.000Z</time>
        <extensions>
          <ns3:TrackPointExtension>
            <ns3:hr>119</ns3:hr>
            <ns3:cad>76</ns3:cad>
          </ns3:TrackPointExtension>
        </extensions>
      </trkpt>
      <trkpt lat="47.541367225348949432373046875" lon="11.04617952369153499603271484375">
        <ele>1665.5999755859375</ele>
        <time>2026-09-01T08:50:13.000Z</time>
        <extensions>
          <ns3:TrackPointExtension>
            <ns3:hr>118</ns3:hr>
            <ns3:cad>76</ns3:cad>
          </ns3:TrackPointExtension>
        </extensions>
      </trkpt>
      <trkpt lat="47.5413777865469455718994140625" lon="11.046179942786693572998046875">
        <ele>1664.800048828125</ele>
        <time>2026-09-01T08:50:14.000Z</time>
        <extensions>
          <ns3:TrackPointExtension>
            <ns3:hr>119</ns3:hr>
            <ns3:cad>76</ns3:cad>
          </ns3:TrackPointExtension>
        </extensions>
      </trkpt>
      <trkpt lat="47.5413898564875125885009765625" lon="11.0461802780628204345703125">
        <ele>1664.4000244140625</ele>
        <time>2026-09-01T08:50:15.000Z</time>
        <extensions>
          <ns3:TrackPointExtension>
            <ns3:hr>119</ns3:hr>
            <ns3:cad>76</ns3:cad>
          </ns3:TrackPointExtension>
        </extensions>
      </trkpt>
      <trkpt lat="47.54140150733292102813720703125" lon="11.04618052951991558074951171875">
        <ele>1663.800048828125</ele>
        <time>2026-09-01T08:50:16.000Z</time>
        <extensions>
          <ns3:TrackPointExtension>
            <ns3:hr>119</ns3:hr>
            <ns3:cad>76</ns3:cad>
          </ns3:TrackPointExtension>
        </extensions>
      </trkpt>
      <trkpt lat="47.54141625948250293731689453125" lon="11.0461747460067272186279296875">
        <ele>1663.4000244140625</ele>
        <time>2026-09-01T08:50:17.000Z</time>
        <extensions>
          <ns3:TrackPointExtension>
            <ns3:hr>118</ns3:hr>
            <ns3:cad>76</ns3:cad>
          </ns3:TrackPointExtension>
        </extensions>
      </trkpt>
      <trkpt lat="47.54143201746046543121337890625" lon="11.0461710579693317413330078125">
        <ele>1663.199951171875</ele>
        <time>2026-09-01T08:50:18.000Z</time>
        <extensions>
          <ns3:TrackPointExtension>
            <ns3:hr>117</ns3:hr>
            <ns3:cad>76</ns3:cad>
          </ns3:TrackPointExtension>
        </extensions>
      </trkpt>
      <trkpt lat="47.5414525531232357025146484375" lon="11.0461744107306003570556640625">
        <ele>1662.800048828125</ele>
        <time>2026-09-01T08:50:19.000Z</time>
        <extensions>
          <ns3:TrackPointExtension>
            <ns3:hr>116</ns3:hr>
            <ns3:cad>76</ns3:cad>
          </ns3:TrackPointExtension>
        </extensions>
      </trkpt>
      <trkpt lat="47.541468143463134765625" lon="11.0461821220815181732177734375">
        <ele>1662.4000244140625</ele>
        <time>2026-09-01T08:50:20.000Z</time>
        <extensions>
          <ns3:TrackPointExtension>
            <ns3:hr>115</ns3:hr>
            <ns3:cad>76</ns3:cad>
          </ns3:TrackPointExtension>
        </extensions>
      </trkpt>
      <trkpt lat="47.5414820574223995208740234375" lon="11.04618757031857967376708984375">
        <ele>1662</ele>
        <time>2026-09-01T08:50:21.000Z</time>
        <extensions>
          <ns3:TrackPointExtension>
            <ns3:hr>115</ns3:hr>
            <ns3:cad>76</ns3:cad>
          </ns3:TrackPointExtension>
        </extensions>
      </trkpt>
      <trkpt lat="47.5415015034377574920654296875" lon="11.0461898334324359893798828125">
        <ele>1661.800048828125</ele>
        <time>2026-09-01T08:50:22.000Z</time>
        <extensions>
          <ns3:TrackPointExtension>
            <ns3:hr>115</ns3:hr>
            <ns3:cad>72</ns3:cad>
          </ns3:TrackPointExtension>
        </extensions>
      </trkpt>
      <trkpt lat="47.54152203910052776336669921875" lon="11.0461951978504657745361328125">
        <ele>1661.4000244140625</ele>
        <time>2026-09-01T08:50:23.000Z</time>
        <extensions>
          <ns3:TrackPointExtension>
            <ns3:hr>114</ns3:hr>
            <ns3:cad>72</ns3:cad>
          </ns3:TrackPointExtension>
        </extensions>
      </trkpt>
      <trkpt lat="47.54154902882874011993408203125" lon="11.04619343765079975128173828125">
        <ele>1660.800048828125</ele>
        <time>2026-09-01T08:50:24.000Z</time>
        <extensions>
          <ns3:TrackPointExtension>
            <ns3:hr>113</ns3:hr>
            <ns3:cad>72</ns3:cad>
          </ns3:TrackPointExtension>
        </extensions>
      </trkpt>
      <trkpt lat="47.54157886840403079986572265625" lon="11.0461905039846897125244140625">
        <ele>1660.4000244140625</ele>
        <time>2026-09-01T08:50:25.000Z</time>
        <extensions>
          <ns3:TrackPointExtension>
            <ns3:hr>113</ns3:hr>
            <ns3:cad>72</ns3:cad>
          </ns3:TrackPointExtension>
        </extensions>
      </trkpt>
      <trkpt lat="47.541601248085498809814453125" lon="11.0461804457008838653564453125">
        <ele>1659.800048828125</ele>
        <time>2026-09-01T08:50:26.000Z</time>
        <extensions>
          <ns3:TrackPointExtension>
            <ns3:hr>113</ns3:hr>
            <ns3:cad>75</ns3:cad>
          </ns3:TrackPointExtension>
        </extensions>
      </trkpt>
      <trkpt lat="47.54163511097431182861328125" lon="11.0461807809770107269287109375">
        <ele>1659.4000244140625</ele>
        <time>2026-09-01T08:50:27.000Z</time>
        <extensions>
          <ns3:TrackPointExtension>
            <ns3:hr>113</ns3:hr>
            <ns3:cad>75</ns3:cad>
          </ns3:TrackPointExtension>
        </extensions>
      </trkpt>
      <trkpt lat="47.54166595637798309326171875" lon="11.04618388228118419647216796875">
        <ele>1658.800048828125</ele>
        <time>2026-09-01T08:50:28.000Z</time>
        <extensions>
          <ns3:TrackPointExtension>
            <ns3:hr>113</ns3:hr>
            <ns3:cad>79</ns3:cad>
          </ns3:TrackPointExtension>
        </extensions>
      </trkpt>
      <trkpt lat="47.54168816842138767242431640625" lon="11.04618656449019908905029296875">
        <ele>1658.5999755859375</ele>
        <time>2026-09-01T08:50:29.000Z</time>
        <extensions>
          <ns3:TrackPointExtension>
            <ns3:hr>114</ns3:hr>
            <ns3:cad>80</ns3:cad>
          </ns3:TrackPointExtension>
        </extensions>
      </trkpt>
      <trkpt lat="47.54172169603407382965087890625" lon="11.04619528166949748992919921875">
        <ele>1658.800048828125</ele>
        <time>2026-09-01T08:50:30.000Z</time>
        <extensions>
          <ns3:TrackPointExtension>
            <ns3:hr>115</ns3:hr>
            <ns3:cad>80</ns3:cad>
          </ns3:TrackPointExtension>
        </extensions>
      </trkpt>
      <trkpt lat="47.54174709320068359375" lon="11.0461995564401149749755859375">
        <ele>1659</ele>
        <time>2026-09-01T08:50:31.000Z</time>
        <extensions>
          <ns3:TrackPointExtension>
            <ns3:hr>116</ns3:hr>
            <ns3:cad>80</ns3:cad>
          </ns3:TrackPointExtension>
        </extensions>
      </trkpt>
      <trkpt lat="47.5417672097682952880859375" lon="11.046192012727260589599609375">
        <ele>1659.199951171875</ele>
        <time>2026-09-01T08:50:32.000Z</time>
        <extensions>
          <ns3:TrackPointExtension>
            <ns3:hr>117</ns3:hr>
            <ns3:cad>80</ns3:cad>
          </ns3:TrackPointExtension>
        </extensions>
      </trkpt>
      <trkpt lat="47.54178858362138271331787109375" lon="11.04618371464312076568603515625">
        <ele>1659.5999755859375</ele>
        <time>2026-09-01T08:50:33.000Z</time>
        <extensions>
          <ns3:TrackPointExtension>
            <ns3:hr>117</ns3:hr>
            <ns3:cad>80</ns3:cad>
          </ns3:TrackPointExtension>
        </extensions>
      </trkpt>
      <trkpt lat="47.54180383868515491485595703125" lon="11.0461774282157421112060546875">
        <ele>1659.800048828125</ele>
        <time>2026-09-01T08:50:34.000Z</time>
        <extensions>
          <ns3:TrackPointExtension>
            <ns3:hr>119</ns3:hr>
            <ns3:cad>80</ns3:cad>
          </ns3:TrackPointExtension>
        </extensions>
      </trkpt>
      <trkpt lat="47.5418206863105297088623046875" lon="11.04617097415030002593994140625">
        <ele>1660</ele>
        <time>2026-09-01T08:50:35.000Z</time>
        <extensions>
          <ns3:TrackPointExtension>
            <ns3:hr>119</ns3:hr>
            <ns3:cad>80</ns3:cad>
          </ns3:TrackPointExtension>
        </extensions>
      </trkpt>
      <trkpt lat="47.54183434881269931793212890625" lon="11.04616913013160228729248046875">
        <ele>1660.199951171875</ele>
        <time>2026-09-01T08:50:36.000Z</time>
        <extensions>
          <ns3:TrackPointExtension>
            <ns3:hr>119</ns3:hr>
            <ns3:cad>80</ns3:cad>
          </ns3:TrackPointExtension>
        </extensions>
      </trkpt>
      <trkpt lat="47.54184700548648834228515625" lon="11.04617751203477382659912109375">
        <ele>1660.4000244140625</ele>
        <time>2026-09-01T08:50:37.000Z</time>
        <extensions>
          <ns3:TrackPointExtension>
            <ns3:hr>118</ns3:hr>
            <ns3:cad>80</ns3:cad>
          </ns3:TrackPointExtension>
        </extensions>
      </trkpt>
      <trkpt lat="47.541858740150928497314453125" lon="11.0461908392608165740966796875">
        <ele>1660.4000244140625</ele>
        <time>2026-09-01T08:50:38.000Z</time>
        <extensions>
          <ns3:TrackPointExtension>
            <ns3:hr>117</ns3:hr>
            <ns3:cad>80</ns3:cad>
          </ns3:TrackPointExtension>
        </extensions>
      </trkpt>
      <trkpt lat="47.54187324084341526031494140625" lon="11.046218164265155792236328125">
        <ele>1660.4000244140625</ele>
        <time>2026-09-01T08:50:39.000Z</time>
        <extensions>
          <ns3:TrackPointExtension>
            <ns3:hr>117</ns3:hr>
            <ns3:cad>80</ns3:cad>
          </ns3:TrackPointExtension>
        </extensions>
      </trkpt>
      <trkpt lat="47.54188430495560169219970703125" lon="11.0462320782244205474853515625">
        <ele>1660.4000244140625</ele>
        <time>2026-09-01T08:50:40.000Z</time>
        <extensions>
          <ns3:TrackPointExtension>
            <ns3:hr>117</ns3:hr>
            <ns3:cad>80</ns3:cad>
          </ns3:TrackPointExtension>
        </extensions>
      </trkpt>
      <trkpt lat="47.5418988056480884552001953125" lon="11.0462471656501293182373046875">
        <ele>1660.4000244140625</ele>
        <time>2026-09-01T08:50:41.000Z</time>
        <extensions>
          <ns3:TrackPointExtension>
            <ns3:hr>116</ns3:hr>
            <ns3:cad>79</ns3:cad>
          </ns3:TrackPointExtension>
        </extensions>
      </trkpt>
      <trkpt lat="47.54191313870251178741455078125" lon="11.046259067952632904052734375">
        <ele>1660.4000244140625</ele>
        <time>2026-09-01T08:50:42.000Z</time>
        <extensions>
          <ns3:TrackPointExtension>
            <ns3:hr>117</ns3:hr>
            <ns3:cad>79</ns3:cad>
          </ns3:TrackPointExtension>
        </extensions>
      </trkpt>
      <trkpt lat="47.54192621447145938873291015625" lon="11.0462692938745021820068359375">
        <ele>1660.199951171875</ele>
        <time>2026-09-01T08:50:43.000Z</time>
        <extensions>
          <ns3:TrackPointExtension>
            <ns3:hr>116</ns3:hr>
            <ns3:cad>79</ns3:cad>
          </ns3:TrackPointExtension>
        </extensions>
      </trkpt>
      <trkpt lat="47.541935853660106658935546875" lon="11.04628044180572032928466796875">
        <ele>1660.199951171875</ele>
        <time>2026-09-01T08:50:44.000Z</time>
        <extensions>
          <ns3:TrackPointExtension>
            <ns3:hr>115</ns3:hr>
            <ns3:cad>79</ns3:cad>
          </ns3:TrackPointExtension>
        </extensions>
      </trkpt>
      <trkpt lat="47.541950605809688568115234375" lon="11.04629485867917537689208984375">
        <ele>1660</ele>
        <time>2026-09-01T08:50:45.000Z</time>
        <extensions>
          <ns3:TrackPointExtension>
            <ns3:hr>114</ns3:hr>
            <ns3:cad>79</ns3:cad>
          </ns3:TrackPointExtension>
        </extensions>
      </trkpt>
      <trkpt lat="47.54196099936962127685546875" lon="11.0463148914277553558349609375">
        <ele>1659.800048828125</ele>
        <time>2026-09-01T08:50:46.000Z</time>
        <extensions>
          <ns3:TrackPointExtension>
            <ns3:hr>114</ns3:hr>
            <ns3:cad>71</ns3:cad>
          </ns3:TrackPointExtension>
        </extensions>
      </trkpt>
      <trkpt lat="47.54196912981569766998291015625" lon="11.0463366843760013580322265625">
        <ele>1659.5999755859375</ele>
        <time>2026-09-01T08:50:47.000Z</time>
        <extensions>
          <ns3:TrackPointExtension>
            <ns3:hr>113</ns3:hr>
            <ns3:cad>0</ns3:cad>
          </ns3:TrackPointExtension>
        </extensions>
      </trkpt>
      <trkpt lat="47.541985474526882171630859375" lon="11.04636493138968944549560546875">
        <ele>1659</ele>
        <time>2026-09-01T08:50:48.000Z</time>
        <extensions>
          <ns3:TrackPointExtension>
            <ns3:hr>113</ns3:hr>
            <ns3:cad>0</ns3:cad>
          </ns3:TrackPointExtension>
        </extensions>
      </trkpt>
      <trkpt lat="47.5419993884861469268798828125" lon="11.04638504795730113983154296875">
        <ele>1658.5999755859375</ele>
        <time>2026-09-01T08:50:49.000Z</time>
        <extensions>
          <ns3:TrackPointExtension>
            <ns3:hr>113</ns3:hr>
            <ns3:cad>0</ns3:cad>
          </ns3:TrackPointExtension>
        </extensions>
      </trkpt>
      <trkpt lat="47.542016990482807159423828125" lon="11.0464094392955303192138671875">
        <ele>1658.199951171875</ele>
        <time>2026-09-01T08:50:50.000Z</time>
        <extensions>
          <ns3:TrackPointExtension>
            <ns3:hr>113</ns3:hr>
            <ns3:cad>79</ns3:cad>
          </ns3:TrackPointExtension>
        </extensions>
      </trkpt>
      <trkpt lat="47.5420382805168628692626953125" lon="11.0464238561689853668212890625">
        <ele>1657.4000244140625</ele>
        <time>2026-09-01T08:50:51.000Z</time>
        <extensions>
          <ns3:TrackPointExtension>
            <ns3:hr>113</ns3:hr>
            <ns3:cad>79</ns3:cad>
          </ns3:TrackPointExtension>
        </extensions>
      </trkpt>
      <trkpt lat="47.5420550443232059478759765625" lon="11.04644690640270709991455078125">
        <ele>1657</ele>
        <time>2026-09-01T08:50:52.000Z</time>
        <extensions>
          <ns3:TrackPointExtension>
            <ns3:hr>113</ns3:hr>
            <ns3:cad>79</ns3:cad>
          </ns3:TrackPointExtension>
        </extensions>
      </trkpt>
      <trkpt lat="47.542073987424373626708984375" lon="11.04646618478000164031982421875">
        <ele>1656.5999755859375</ele>
        <time>2026-09-01T08:50:53.000Z</time>
        <extensions>
          <ns3:TrackPointExtension>
            <ns3:hr>114</ns3:hr>
            <ns3:cad>81</ns3:cad>
          </ns3:TrackPointExtension>
        </extensions>
      </trkpt>
      <trkpt lat="47.54209821112453937530517578125" lon="11.0464808531105518341064453125">
        <ele>1656.4000244140625</ele>
        <time>2026-09-01T08:50:54.000Z</time>
        <extensions>
          <ns3:TrackPointExtension>
            <ns3:hr>114</ns3:hr>
            <ns3:cad>81</ns3:cad>
          </ns3:TrackPointExtension>
        </extensions>
      </trkpt>
      <trkpt lat="47.54211782477796077728271484375" lon="11.04649879038333892822265625">
        <ele>1656.199951171875</ele>
        <time>2026-09-01T08:50:55.000Z</time>
        <extensions>
          <ns3:TrackPointExtension>
            <ns3:hr>114</ns3:hr>
            <ns3:cad>81</ns3:cad>
          </ns3:TrackPointExtension>
        </extensions>
      </trkpt>
      <trkpt lat="47.5421277992427349090576171875" lon="11.04649250395596027374267578125">
        <ele>1656</ele>
        <time>2026-09-01T08:50:56.000Z</time>
        <extensions>
          <ns3:TrackPointExtension>
            <ns3:hr>114</ns3:hr>
            <ns3:cad>41</ns3:cad>
          </ns3:TrackPointExtension>
        </extensions>
      </trkpt>
      <trkpt lat="47.542141713201999664306640625" lon="11.04649619199335575103759765625">
        <ele>1656</ele>
        <time>2026-09-01T08:50:57.000Z</time>
        <extensions>
          <ns3:TrackPointExtension>
            <ns3:hr>115</ns3:hr>
            <ns3:cad>41</ns3:cad>
          </ns3:TrackPointExtension>
        </extensions>
      </trkpt>
      <trkpt lat="47.54215252585709095001220703125" lon="11.04650725610554218292236328125">
        <ele>1655.800048828125</ele>
        <time>2026-09-01T08:50:58.000Z</time>
        <extensions>
          <ns3:TrackPointExtension>
            <ns3:hr>114</ns3:hr>
            <ns3:cad>41</ns3:cad>
          </ns3:TrackPointExtension>
        </extensions>
      </trkpt>
      <trkpt lat="47.54216526634991168975830078125" lon="11.04651329107582569122314453125">
        <ele>1655.5999755859375</ele>
        <time>2026-09-01T08:50:59.000Z</time>
        <extensions>
          <ns3:TrackPointExtension>
            <ns3:hr>114</ns3:hr>
            <ns3:cad>41</ns3:cad>
          </ns3:TrackPointExtension>
        </extensions>
      </trkpt>
      <trkpt lat="47.54217683337628841400146484375" lon="11.04652619920670986175537109375">
        <ele>1655.199951171875</ele>
        <time>2026-09-01T08:51:00.000Z</time>
        <extensions>
          <ns3:TrackPointExtension>
            <ns3:hr>114</ns3:hr>
            <ns3:cad>41</ns3:cad>
          </ns3:TrackPointExtension>
        </extensions>
      </trkpt>
      <trkpt lat="47.54218907095491886138916015625" lon="11.04653407819569110870361328125">
        <ele>1654.800048828125</ele>
        <time>2026-09-01T08:51:01.000Z</time>
        <extensions>
          <ns3:TrackPointExtension>
            <ns3:hr>114</ns3:hr>
            <ns3:cad>41</ns3:cad>
          </ns3:TrackPointExtension>
        </extensions>
      </trkpt>
      <trkpt lat="47.5421992130577564239501953125" lon="11.04653575457632541656494140625">
        <ele>1654.4000244140625</ele>
        <time>2026-09-01T08:51:02.000Z</time>
        <extensions>
          <ns3:TrackPointExtension>
            <ns3:hr>114</ns3:hr>
            <ns3:cad>41</ns3:cad>
          </ns3:TrackPointExtension>
        </extensions>
      </trkpt>
      <trkpt lat="47.54221974872052669525146484375" lon="11.0465423762798309326171875">
        <ele>1654.199951171875</ele>
        <time>2026-09-01T08:51:03.000Z</time>
        <extensions>
          <ns3:TrackPointExtension>
            <ns3:hr>113</ns3:hr>
            <ns3:cad>41</ns3:cad>
          </ns3:TrackPointExtension>
        </extensions>
      </trkpt>
      <trkpt lat="47.542227208614349365234375" lon="11.046535335481166839599609375">
        <ele>1654.199951171875</ele>
        <time>2026-09-01T08:51:04.000Z</time>
        <extensions>
          <ns3:TrackPointExtension>
            <ns3:hr>113</ns3:hr>
            <ns3:cad>41</ns3:cad>
          </ns3:TrackPointExtension>
        </extensions>
      </trkpt>
      <trkpt lat="47.54224263131618499755859375" lon="11.04653977788984775543212890625">
        <ele>1654.199951171875</ele>
        <time>2026-09-01T08:51:05.000Z</time>
        <extensions>
          <ns3:TrackPointExtension>
            <ns3:hr>113</ns3:hr>
            <ns3:cad>41</ns3:cad>
          </ns3:TrackPointExtension>
        </extensions>
      </trkpt>
      <trkpt lat="47.542253695428371429443359375" lon="11.04655352421104907989501953125">
        <ele>1654.199951171875</ele>
        <time>2026-09-01T08:51:06.000Z</time>
        <extensions>
          <ns3:TrackPointExtension>
            <ns3:hr>113</ns3:hr>
            <ns3:cad>41</ns3:cad>
          </ns3:TrackPointExtension>
        </extensions>
      </trkpt>
      <trkpt lat="47.54227213561534881591796875" lon="11.0465596430003643035888671875">
        <ele>1654.4000244140625</ele>
        <time>2026-09-01T08:51:07.000Z</time>
        <extensions>
          <ns3:TrackPointExtension>
            <ns3:hr>112</ns3:hr>
            <ns3:cad>41</ns3:cad>
          </ns3:TrackPointExtension>
        </extensions>
      </trkpt>
      <trkpt lat="47.5422843731939792633056640625" lon="11.046565510332584381103515625">
        <ele>1654.4000244140625</ele>
        <time>2026-09-01T08:51:08.000Z</time>
        <extensions>
          <ns3:TrackPointExtension>
            <ns3:hr>113</ns3:hr>
            <ns3:cad>41</ns3:cad>
          </ns3:TrackPointExtension>
        </extensions>
      </trkpt>
      <trkpt lat="47.54230205900967121124267578125" lon="11.04657833464443683624267578125">
        <ele>1654.4000244140625</ele>
        <time>2026-09-01T08:51:09.000Z</time>
        <extensions>
          <ns3:TrackPointExtension>
            <ns3:hr>113</ns3:hr>
            <ns3:cad>41</ns3:cad>
          </ns3:TrackPointExtension>
        </extensions>
      </trkpt>
      <trkpt lat="47.542316056787967681884765625" lon="11.04659174568951129913330078125">
        <ele>1654.199951171875</ele>
        <time>2026-09-01T08:51:10.000Z</time>
        <extensions>
          <ns3:TrackPointExtension>
            <ns3:hr>113</ns3:hr>
            <ns3:cad>41</ns3:cad>
          </ns3:TrackPointExtension>
        </extensions>
      </trkpt>
      <trkpt lat="47.5423277914524078369140625" lon="11.046601049602031707763671875">
        <ele>1654.199951171875</ele>
        <time>2026-09-01T08:51:11.000Z</time>
        <extensions>
          <ns3:TrackPointExtension>
            <ns3:hr>113</ns3:hr>
            <ns3:cad>79</ns3:cad>
          </ns3:TrackPointExtension>
        </extensions>
      </trkpt>
      <trkpt lat="47.5423370115458965301513671875" lon="11.04661135934293270111083984375">
        <ele>1654.199951171875</ele>
        <time>2026-09-01T08:51:12.000Z</time>
        <extensions>
          <ns3:TrackPointExtension>
            <ns3:hr>113</ns3:hr>
            <ns3:cad>79</ns3:cad>
          </ns3:TrackPointExtension>
        </extensions>
      </trkpt>
      <trkpt lat="47.54234329797327518463134765625" lon="11.04662074707448482513427734375">
        <ele>1654</ele>
        <time>2026-09-01T08:51:13.000Z</time>
        <extensions>
          <ns3:TrackPointExtension>
            <ns3:hr>113</ns3:hr>
            <ns3:cad>0</ns3:cad>
          </ns3:TrackPointExtension>
        </extensions>
      </trkpt>
      <trkpt lat="47.5423467345535755157470703125" lon="11.04662359692156314849853515625">
        <ele>1654</ele>
        <time>2026-09-01T08:51:14.000Z</time>
        <extensions>
          <ns3:TrackPointExtension>
            <ns3:hr>112</ns3:hr>
            <ns3:cad>0</ns3:cad>
          </ns3:TrackPointExtension>
        </extensions>
      </trkpt>
      <trkpt lat="47.5423507578670978546142578125" lon="11.04663155972957611083984375">
        <ele>1653.800048828125</ele>
        <time>2026-09-01T08:51:15.000Z</time>
        <extensions>
          <ns3:TrackPointExtension>
            <ns3:hr>113</ns3:hr>
            <ns3:cad>0</ns3:cad>
          </ns3:TrackPointExtension>
        </extensions>
      </trkpt>
      <trkpt lat="47.5423588044941425323486328125" lon="11.0466421209275722503662109375">
        <ele>1653.4000244140625</ele>
        <time>2026-09-01T08:51:16.000Z</time>
        <extensions>
          <ns3:TrackPointExtension>
            <ns3:hr>113</ns3:hr>
            <ns3:cad>0</ns3:cad>
          </ns3:TrackPointExtension>
        </extensions>
      </trkpt>
      <trkpt lat="47.5423624925315380096435546875" lon="11.0466535203158855438232421875">
        <ele>1653</ele>
        <time>2026-09-01T08:51:17.000Z</time>
        <extensions>
          <ns3:TrackPointExtension>
            <ns3:hr>113</ns3:hr>
            <ns3:cad>0</ns3:cad>
          </ns3:TrackPointExtension>
        </extensions>
      </trkpt>
      <trkpt lat="47.54237137734889984130859375" lon="11.046670787036418914794921875">
        <ele>1652.5999755859375</ele>
        <time>2026-09-01T08:51:18.000Z</time>
        <extensions>
          <ns3:TrackPointExtension>
            <ns3:hr>113</ns3:hr>
            <ns3:cad>0</ns3:cad>
          </ns3:TrackPointExtension>
        </extensions>
      </trkpt>
      <trkpt lat="47.5423795916140079498291015625" lon="11.04668713174760341644287109375">
        <ele>1652.199951171875</ele>
        <time>2026-09-01T08:51:19.000Z</time>
        <extensions>
          <ns3:TrackPointExtension>
            <ns3:hr>113</ns3:hr>
            <ns3:cad>0</ns3:cad>
          </ns3:TrackPointExtension>
        </extensions>
      </trkpt>
      <trkpt lat="47.5423903204500675201416015625" lon="11.0467064939439296722412109375">
        <ele>1651.800048828125</ele>
        <time>2026-09-01T08:51:20.000Z</time>
        <extensions>
          <ns3:TrackPointExtension>
            <ns3:hr>113</ns3:hr>
            <ns3:cad>0</ns3:cad>
          </ns3:TrackPointExtension>
        </extensions>
      </trkpt>
      <trkpt lat="47.5424023903906345367431640625" lon="11.04672887362539768218994140625">
        <ele>1651.4000244140625</ele>
        <time>2026-09-01T08:51:21.000Z</time>
        <extensions>
          <ns3:TrackPointExtension>
            <ns3:hr>112</ns3:hr>
            <ns3:cad>0</ns3:cad>
          </ns3:TrackPointExtension>
        </extensions>
      </trkpt>
      <trkpt lat="47.5424127839505672454833984375" lon="11.0467537678778171539306640625">
        <ele>1651.199951171875</ele>
        <time>2026-09-01T08:51:22.000Z</time>
        <extensions>
          <ns3:TrackPointExtension>
            <ns3:hr>113</ns3:hr>
            <ns3:cad>0</ns3:cad>
          </ns3:TrackPointExtension>
        </extensions>
      </trkpt>
      <trkpt lat="47.54242611117660999298095703125" lon="11.0467712022364139556884765625">
        <ele>1650.800048828125</ele>
        <time>2026-09-01T08:51:23.000Z</time>
        <extensions>
          <ns3:TrackPointExtension>
            <ns3:hr>114</ns3:hr>
            <ns3:cad>0</ns3:cad>
          </ns3:TrackPointExtension>
        </extensions>
      </trkpt>
      <trkpt lat="47.54243415780365467071533203125" lon="11.0467879660427570343017578125">
        <ele>1650.199951171875</ele>
        <time>2026-09-01T08:51:24.000Z</time>
        <extensions>
          <ns3:TrackPointExtension>
            <ns3:hr>115</ns3:hr>
            <ns3:cad>0</ns3:cad>
          </ns3:TrackPointExtension>
        </extensions>
      </trkpt>
      <trkpt lat="47.54243977367877960205078125" lon="11.0468070767819881439208984375">
        <ele>1649.5999755859375</ele>
        <time>2026-09-01T08:51:25.000Z</time>
        <extensions>
          <ns3:TrackPointExtension>
            <ns3:hr>115</ns3:hr>
            <ns3:cad>0</ns3:cad>
          </ns3:TrackPointExtension>
        </extensions>
      </trkpt>
      <trkpt lat="47.542445473372936248779296875" lon="11.0468288697302341461181640625">
        <ele>1649</ele>
        <time>2026-09-01T08:51:26.000Z</time>
        <extensions>
          <ns3:TrackPointExtension>
            <ns3:hr>116</ns3:hr>
            <ns3:cad>0</ns3:cad>
          </ns3:TrackPointExtension>
        </extensions>
      </trkpt>
      <trkpt lat="47.54244287498295307159423828125" lon="11.0468493215739727020263671875">
        <ele>1648.4000244140625</ele>
        <time>2026-09-01T08:51:27.000Z</time>
        <extensions>
          <ns3:TrackPointExtension>
            <ns3:hr>117</ns3:hr>
            <ns3:cad>0</ns3:cad>
          </ns3:TrackPointExtension>
        </extensions>
      </trkpt>
      <trkpt lat="47.542444132268428802490234375" lon="11.04687337763607501983642578125">
        <ele>1647.800048828125</ele>
        <time>2026-09-01T08:51:28.000Z</time>
        <extensions>
          <ns3:TrackPointExtension>
            <ns3:hr>118</ns3:hr>
            <ns3:cad>0</ns3:cad>
          </ns3:TrackPointExtension>
        </extensions>
      </trkpt>
      <trkpt lat="47.5424432940781116485595703125" lon="11.046884357929229736328125">
        <ele>1647.199951171875</ele>
        <time>2026-09-01T08:51:29.000Z</time>
        <extensions>
          <ns3:TrackPointExtension>
            <ns3:hr>118</ns3:hr>
            <ns3:cad>0</ns3:cad>
          </ns3:TrackPointExtension>
        </extensions>
      </trkpt>
      <trkpt lat="47.54244203679263591766357421875" lon="11.0469063185155391693115234375">
        <ele>1646.4000244140625</ele>
        <time>2026-09-01T08:51:30.000Z</time>
        <extensions>
          <ns3:TrackPointExtension>
            <ns3:hr>118</ns3:hr>
            <ns3:cad>0</ns3:cad>
          </ns3:TrackPointExtension>
        </extensions>
      </trkpt>
      <trkpt lat="47.54244740121066570281982421875" lon="11.04691914282739162445068359375">
        <ele>1645.5999755859375</ele>
        <time>2026-09-01T08:51:31.000Z</time>
        <extensions>
          <ns3:TrackPointExtension>
            <ns3:hr>118</ns3:hr>
            <ns3:cad>0</ns3:cad>
          </ns3:TrackPointExtension>
        </extensions>
      </trkpt>
      <trkpt lat="47.5424484908580780029296875" lon="11.04694110341370105743408203125">
        <ele>1644.800048828125</ele>
        <time>2026-09-01T08:51:32.000Z</time>
        <extensions>
          <ns3:TrackPointExtension>
            <ns3:hr>118</ns3:hr>
            <ns3:cad>0</ns3:cad>
          </ns3:TrackPointExtension>
        </extensions>
      </trkpt>
      <trkpt lat="47.5424486584961414337158203125" lon="11.04695610702037811279296875">
        <ele>1644</ele>
        <time>2026-09-01T08:51:33.000Z</time>
        <extensions>
          <ns3:TrackPointExtension>
            <ns3:hr>118</ns3:hr>
            <ns3:cad>0</ns3:cad>
          </ns3:TrackPointExtension>
        </extensions>
      </trkpt>
      <trkpt lat="47.54244513809680938720703125" lon="11.0469849407672882080078125">
        <ele>1643.4000244140625</ele>
        <time>2026-09-01T08:51:34.000Z</time>
        <extensions>
          <ns3:TrackPointExtension>
            <ns3:hr>117</ns3:hr>
            <ns3:cad>47</ns3:cad>
          </ns3:TrackPointExtension>
        </extensions>
      </trkpt>
      <trkpt lat="47.54244036041200160980224609375" lon="11.0470065660774707794189453125">
        <ele>1642.800048828125</ele>
        <time>2026-09-01T08:51:35.000Z</time>
        <extensions>
          <ns3:TrackPointExtension>
            <ns3:hr>118</ns3:hr>
            <ns3:cad>71</ns3:cad>
          </ns3:TrackPointExtension>
        </extensions>
      </trkpt>
      <trkpt lat="47.54244220443069934844970703125" lon="11.0470251739025115966796875">
        <ele>1642.199951171875</ele>
        <time>2026-09-01T08:51:36.000Z</time>
        <extensions>
          <ns3:TrackPointExtension>
            <ns3:hr>118</ns3:hr>
            <ns3:cad>75</ns3:cad>
          </ns3:TrackPointExtension>
        </extensions>
      </trkpt>
      <trkpt lat="47.5424449704587459564208984375" lon="11.047044955193996429443359375">
        <ele>1641.5999755859375</ele>
        <time>2026-09-01T08:51:37.000Z</time>
        <extensions>
          <ns3:TrackPointExtension>
            <ns3:hr>118</ns3:hr>
            <ns3:cad>75</ns3:cad>
          </ns3:TrackPointExtension>
        </extensions>
      </trkpt>
      <trkpt lat="47.542447485029697418212890625" lon="11.04706901125609874725341796875">
        <ele>1641.199951171875</ele>
        <time>2026-09-01T08:51:38.000Z</time>
        <extensions>
          <ns3:TrackPointExtension>
            <ns3:hr>118</ns3:hr>
            <ns3:cad>73</ns3:cad>
          </ns3:TrackPointExtension>
        </extensions>
      </trkpt>
      <trkpt lat="47.54245729185640811920166015625" lon="11.0470970906317234039306640625">
        <ele>1640.800048828125</ele>
        <time>2026-09-01T08:51:39.000Z</time>
        <extensions>
          <ns3:TrackPointExtension>
            <ns3:hr>118</ns3:hr>
            <ns3:cad>73</ns3:cad>
          </ns3:TrackPointExtension>
        </extensions>
      </trkpt>
      <trkpt lat="47.542463243007659912109375" lon="11.04713003151118755340576171875">
        <ele>1640.199951171875</ele>
        <time>2026-09-01T08:51:40.000Z</time>
        <extensions>
          <ns3:TrackPointExtension>
            <ns3:hr>118</ns3:hr>
            <ns3:cad>73</ns3:cad>
          </ns3:TrackPointExtension>
        </extensions>
      </trkpt>
      <trkpt lat="47.5425002910196781158447265625" lon="11.047156266868114471435546875">
        <ele>1639.800048828125</ele>
        <time>2026-09-01T08:51:41.000Z</time>
        <extensions>
          <ns3:TrackPointExtension>
            <ns3:hr>118</ns3:hr>
            <ns3:cad>77</ns3:cad>
          </ns3:TrackPointExtension>
        </extensions>
      </trkpt>
      <trkpt lat="47.54252049140632152557373046875" lon="11.04716758243739604949951171875">
        <ele>1639.4000244140625</ele>
        <time>2026-09-01T08:51:42.000Z</time>
        <extensions>
          <ns3:TrackPointExtension>
            <ns3:hr>119</ns3:hr>
            <ns3:cad>77</ns3:cad>
          </ns3:TrackPointExtension>
        </extensions>
      </trkpt>
      <trkpt lat="47.54255334846675395965576171875" lon="11.0471916384994983673095703125">
        <ele>1639</ele>
        <time>2026-09-01T08:51:43.000Z</time>
        <extensions>
          <ns3:TrackPointExtension>
            <ns3:hr>119</ns3:hr>
            <ns3:cad>77</ns3:cad>
          </ns3:TrackPointExtension>
        </extensions>
      </trkpt>
      <trkpt lat="47.5425733812153339385986328125" lon="11.04720764793455600738525390625">
        <ele>1638.800048828125</ele>
        <time>2026-09-01T08:51:44.000Z</time>
        <extensions>
          <ns3:TrackPointExtension>
            <ns3:hr>119</ns3:hr>
            <ns3:cad>77</ns3:cad>
          </ns3:TrackPointExtension>
        </extensions>
      </trkpt>
      <trkpt lat="47.54259173758327960968017578125" lon="11.04723983444273471832275390625">
        <ele>1638.5999755859375</ele>
        <time>2026-09-01T08:51:45.000Z</time>
        <extensions>
          <ns3:TrackPointExtension>
            <ns3:hr>120</ns3:hr>
            <ns3:cad>84</ns3:cad>
          </ns3:TrackPointExtension>
        </extensions>
      </trkpt>
      <trkpt lat="47.54261503927409648895263671875" lon="11.0472531616687774658203125">
        <ele>1638.5999755859375</ele>
        <time>2026-09-01T08:51:46.000Z</time>
        <extensions>
          <ns3:TrackPointExtension>
            <ns3:hr>121</ns3:hr>
            <ns3:cad>84</ns3:cad>
          </ns3:TrackPointExtension>
        </extensions>
      </trkpt>
      <trkpt lat="47.54263398237526416778564453125" lon="11.047264225780963897705078125">
        <ele>1638.4000244140625</ele>
        <time>2026-09-01T08:51:47.000Z</time>
        <extensions>
          <ns3:TrackPointExtension>
            <ns3:hr>122</ns3:hr>
            <ns3:cad>84</ns3:cad>
          </ns3:TrackPointExtension>
        </extensions>
      </trkpt>
      <trkpt lat="47.54265569150447845458984375" lon="11.0472724400460720062255859375">
        <ele>1638.4000244140625</ele>
        <time>2026-09-01T08:51:48.000Z</time>
        <extensions>
          <ns3:TrackPointExtension>
            <ns3:hr>123</ns3:hr>
            <ns3:cad>84</ns3:cad>
          </ns3:TrackPointExtension>
        </extensions>
      </trkpt>
      <trkpt lat="47.54267555661499500274658203125" lon="11.04727688245475292205810546875">
        <ele>1638.199951171875</ele>
        <time>2026-09-01T08:51:49.000Z</time>
        <extensions>
          <ns3:TrackPointExtension>
            <ns3:hr>125</ns3:hr>
            <ns3:cad>84</ns3:cad>
          </ns3:TrackPointExtension>
        </extensions>
      </trkpt>
      <trkpt lat="47.54270254634320735931396484375" lon="11.04727989993989467620849609375">
        <ele>1638.199951171875</ele>
        <time>2026-09-01T08:51:50.000Z</time>
        <extensions>
          <ns3:TrackPointExtension>
            <ns3:hr>126</ns3:hr>
            <ns3:cad>84</ns3:cad>
          </ns3:TrackPointExtension>
        </extensions>
      </trkpt>
      <trkpt lat="47.54272266291081905364990234375" lon="11.04727797210216522216796875">
        <ele>1638</ele>
        <time>2026-09-01T08:51:51.000Z</time>
        <extensions>
          <ns3:TrackPointExtension>
            <ns3:hr>127</ns3:hr>
            <ns3:cad>88</ns3:cad>
          </ns3:TrackPointExtension>
        </extensions>
      </trkpt>
      <trkpt lat="47.54274780862033367156982421875" lon="11.0472804866731166839599609375">
        <ele>1638</ele>
        <time>2026-09-01T08:51:52.000Z</time>
        <extensions>
          <ns3:TrackPointExtension>
            <ns3:hr>128</ns3:hr>
            <ns3:cad>88</ns3:cad>
          </ns3:TrackPointExtension>
        </extensions>
      </trkpt>
      <trkpt lat="47.54276189021766185760498046875" lon="11.0472801513969898223876953125">
        <ele>1637.800048828125</ele>
        <time>2026-09-01T08:51:53.000Z</time>
        <extensions>
          <ns3:TrackPointExtension>
            <ns3:hr>128</ns3:hr>
            <ns3:cad>88</ns3:cad>
          </ns3:TrackPointExtension>
        </extensions>
      </trkpt>
      <trkpt lat="47.54277949221432209014892578125" lon="11.047272942960262298583984375">
        <ele>1637.4000244140625</ele>
        <time>2026-09-01T08:51:54.000Z</time>
        <extensions>
          <ns3:TrackPointExtension>
            <ns3:hr>129</ns3:hr>
            <ns3:cad>88</ns3:cad>
          </ns3:TrackPointExtension>
        </extensions>
      </trkpt>
      <trkpt lat="47.54279608838260173797607421875" lon="11.04727185331284999847412109375">
        <ele>1637.199951171875</ele>
        <time>2026-09-01T08:51:55.000Z</time>
        <extensions>
          <ns3:TrackPointExtension>
            <ns3:hr>129</ns3:hr>
            <ns3:cad>0</ns3:cad>
          </ns3:TrackPointExtension>
        </extensions>
      </trkpt>
      <trkpt lat="47.54281402565538883209228515625" lon="11.0472801513969898223876953125">
        <ele>1637</ele>
        <time>2026-09-01T08:51:56.000Z</time>
        <extensions>
          <ns3:TrackPointExtension>
            <ns3:hr>130</ns3:hr>
            <ns3:cad>0</ns3:cad>
          </ns3:TrackPointExtension>
        </extensions>
      </trkpt>
      <trkpt lat="47.542841099202632904052734375" lon="11.0472871921956539154052734375">
        <ele>1636.800048828125</ele>
        <time>2026-09-01T08:51:57.000Z</time>
        <extensions>
          <ns3:TrackPointExtension>
            <ns3:hr>130</ns3:hr>
            <ns3:cad>0</ns3:cad>
          </ns3:TrackPointExtension>
        </extensions>
      </trkpt>
      <trkpt lat="47.5428590364754199981689453125" lon="11.047283001244068145751953125">
        <ele>1636.5999755859375</ele>
        <time>2026-09-01T08:51:58.000Z</time>
        <extensions>
          <ns3:TrackPointExtension>
            <ns3:hr>130</ns3:hr>
            <ns3:cad>0</ns3:cad>
          </ns3:TrackPointExtension>
        </extensions>
      </trkpt>
      <trkpt lat="47.54288124851882457733154296875" lon="11.0472868569195270538330078125">
        <ele>1636.4000244140625</ele>
        <time>2026-09-01T08:51:59.000Z</time>
        <extensions>
          <ns3:TrackPointExtension>
            <ns3:hr>130</ns3:hr>
            <ns3:cad>81</ns3:cad>
          </ns3:TrackPointExtension>
        </extensions>
      </trkpt>
      <trkpt lat="47.5429029576480388641357421875" lon="11.04729146696627140045166015625">
        <ele>1636.199951171875</ele>
        <time>2026-09-01T08:52:00.000Z</time>
        <extensions>
          <ns3:TrackPointExtension>
            <ns3:hr>130</ns3:hr>
            <ns3:cad>81</ns3:cad>
          </ns3:TrackPointExtension>
        </extensions>
      </trkpt>
      <trkpt lat="47.542934305965900421142578125" lon="11.04729465208947658538818359375">
        <ele>1636.199951171875</ele>
        <time>2026-09-01T08:52:01.000Z</time>
        <extensions>
          <ns3:TrackPointExtension>
            <ns3:hr>131</ns3:hr>
            <ns3:cad>81</ns3:cad>
          </ns3:TrackPointExtension>
        </extensions>
      </trkpt>
      <trkpt lat="47.54296104423701763153076171875" lon="11.04729465208947658538818359375">
        <ele>1635.800048828125</ele>
        <time>2026-09-01T08:52:02.000Z</time>
        <extensions>
          <ns3:TrackPointExtension>
            <ns3:hr>130</ns3:hr>
            <ns3:cad>82</ns3:cad>
          </ns3:TrackPointExtension>
        </extensions>
      </trkpt>
      <trkpt lat="47.54297730512917041778564453125" lon="11.0472925566136837005615234375">
        <ele>1635.5999755859375</ele>
        <time>2026-09-01T08:52:03.000Z</time>
        <extensions>
          <ns3:TrackPointExtension>
            <ns3:hr>129</ns3:hr>
            <ns3:cad>82</ns3:cad>
          </ns3:TrackPointExtension>
        </extensions>
      </trkpt>
      <trkpt lat="47.5430072285234928131103515625" lon="11.04730638675391674041748046875">
        <ele>1635.4000244140625</ele>
        <time>2026-09-01T08:52:04.000Z</time>
        <extensions>
          <ns3:TrackPointExtension>
            <ns3:hr>128</ns3:hr>
            <ns3:cad>82</ns3:cad>
          </ns3:TrackPointExtension>
        </extensions>
      </trkpt>
      <trkpt lat="47.54301913082599639892578125" lon="11.047303788363933563232421875">
        <ele>1635.199951171875</ele>
        <time>2026-09-01T08:52:05.000Z</time>
        <extensions>
          <ns3:TrackPointExtension>
            <ns3:hr>127</ns3:hr>
            <ns3:cad>82</ns3:cad>
          </ns3:TrackPointExtension>
        </extensions>
      </trkpt>
      <trkpt lat="47.543037571012973785400390625" lon="11.04730554856359958648681640625">
        <ele>1635.199951171875</ele>
        <time>2026-09-01T08:52:06.000Z</time>
        <extensions>
          <ns3:TrackPointExtension>
            <ns3:hr>128</ns3:hr>
            <ns3:cad>82</ns3:cad>
          </ns3:TrackPointExtension>
        </extensions>
      </trkpt>
      <trkpt lat="47.54306112416088581085205078125" lon="11.04731493629515171051025390625">
        <ele>1635.199951171875</ele>
        <time>2026-09-01T08:52:07.000Z</time>
        <extensions>
          <ns3:TrackPointExtension>
            <ns3:hr>128</ns3:hr>
            <ns3:cad>82</ns3:cad>
          </ns3:TrackPointExtension>
        </extensions>
      </trkpt>
      <trkpt lat="47.54307570867240428924560546875" lon="11.0473160259425640106201171875">
        <ele>1635.199951171875</ele>
        <time>2026-09-01T08:52:08.000Z</time>
        <extensions>
          <ns3:TrackPointExtension>
            <ns3:hr>128</ns3:hr>
            <ns3:cad>82</ns3:cad>
          </ns3:TrackPointExtension>
        </extensions>
      </trkpt>
      <trkpt lat="47.54309884272515773773193359375" lon="11.04731543920934200286865234375">
        <ele>1635</ele>
        <time>2026-09-01T08:52:09.000Z</time>
        <extensions>
          <ns3:TrackPointExtension>
            <ns3:hr>129</ns3:hr>
            <ns3:cad>82</ns3:cad>
          </ns3:TrackPointExtension>
        </extensions>
      </trkpt>
      <trkpt lat="47.54312432371079921722412109375" lon="11.047289036214351654052734375">
        <ele>1635</ele>
        <time>2026-09-01T08:52:10.000Z</time>
        <extensions>
          <ns3:TrackPointExtension>
            <ns3:hr>130</ns3:hr>
            <ns3:cad>82</ns3:cad>
          </ns3:TrackPointExtension>
        </extensions>
      </trkpt>
      <trkpt lat="47.5431436859071254730224609375" lon="11.04727570898830890655517578125">
        <ele>1635</ele>
        <time>2026-09-01T08:52:11.000Z</time>
        <extensions>
          <ns3:TrackPointExtension>
            <ns3:hr>130</ns3:hr>
            <ns3:cad>82</ns3:cad>
          </ns3:TrackPointExtension>
        </extensions>
      </trkpt>
      <trkpt lat="47.54316019825637340545654296875" lon="11.0472757928073406219482421875">
        <ele>1634.800048828125</ele>
        <time>2026-09-01T08:52:12.000Z</time>
        <extensions>
          <ns3:TrackPointExtension>
            <ns3:hr>131</ns3:hr>
            <ns3:cad>82</ns3:cad>
          </ns3:TrackPointExtension>
        </extensions>
      </trkpt>
      <trkpt lat="47.54317511804401874542236328125" lon="11.047278977930545806884765625">
        <ele>1634.800048828125</ele>
        <time>2026-09-01T08:52:13.000Z</time>
        <extensions>
          <ns3:TrackPointExtension>
            <ns3:hr>131</ns3:hr>
            <ns3:cad>80</ns3:cad>
          </ns3:TrackPointExtension>
        </extensions>
      </trkpt>
      <trkpt lat="47.54320177249610424041748046875" lon="11.047280319035053253173828125">
        <ele>1635</ele>
        <time>2026-09-01T08:52:14.000Z</time>
        <extensions>
          <ns3:TrackPointExtension>
            <ns3:hr>131</ns3:hr>
            <ns3:cad>80</ns3:cad>
          </ns3:TrackPointExtension>
        </extensions>
      </trkpt>
      <trkpt lat="47.543216608464717864990234375" lon="11.0472788102924823760986328125">
        <ele>1635.199951171875</ele>
        <time>2026-09-01T08:52:15.000Z</time>
        <extensions>
          <ns3:TrackPointExtension>
            <ns3:hr>131</ns3:hr>
            <ns3:cad>80</ns3:cad>
          </ns3:TrackPointExtension>
        </extensions>
      </trkpt>
      <trkpt lat="47.543231360614299774169921875" lon="11.0472935624420642852783203125">
        <ele>1635.199951171875</ele>
        <time>2026-09-01T08:52:16.000Z</time>
        <extensions>
          <ns3:TrackPointExtension>
            <ns3:hr>131</ns3:hr>
            <ns3:cad>78</ns3:cad>
          </ns3:TrackPointExtension>
        </extensions>
      </trkpt>
      <trkpt lat="47.54324167035520076751708984375" lon="11.047303117811679840087890625">
        <ele>1635</ele>
        <time>2026-09-01T08:52:17.000Z</time>
        <extensions>
          <ns3:TrackPointExtension>
            <ns3:hr>131</ns3:hr>
            <ns3:cad>77</ns3:cad>
          </ns3:TrackPointExtension>
        </extensions>
      </trkpt>
      <trkpt lat="47.54325524903833866119384765625" lon="11.04730940423905849456787109375">
        <ele>1634.5999755859375</ele>
        <time>2026-09-01T08:52:18.000Z</time>
        <extensions>
          <ns3:TrackPointExtension>
            <ns3:hr>131</ns3:hr>
            <ns3:cad>77</ns3:cad>
          </ns3:TrackPointExtension>
        </extensions>
      </trkpt>
      <trkpt lat="47.54326061345636844635009765625" lon="11.04732382111251354217529296875">
        <ele>1634</ele>
        <time>2026-09-01T08:52:19.000Z</time>
        <extensions>
          <ns3:TrackPointExtension>
            <ns3:hr>131</ns3:hr>
            <ns3:cad>77</ns3:cad>
          </ns3:TrackPointExtension>
        </extensions>
      </trkpt>
      <trkpt lat="47.54327930510044097900390625" lon="11.0473411716520786285400390625">
        <ele>1633.4000244140625</ele>
        <time>2026-09-01T08:52:20.000Z</time>
        <extensions>
          <ns3:TrackPointExtension>
            <ns3:hr>132</ns3:hr>
            <ns3:cad>77</ns3:cad>
          </ns3:TrackPointExtension>
        </extensions>
      </trkpt>
      <trkpt lat="47.54329497925937175750732421875" lon="11.047350727021694183349609375">
        <ele>1632.5999755859375</ele>
        <time>2026-09-01T08:52:21.000Z</time>
        <extensions>
          <ns3:TrackPointExtension>
            <ns3:hr>132</ns3:hr>
            <ns3:cad>77</ns3:cad>
          </ns3:TrackPointExtension>
        </extensions>
      </trkpt>
      <trkpt lat="47.5433086417615413665771484375" lon="11.0473577678203582763671875">
        <ele>1631.800048828125</ele>
        <time>2026-09-01T08:52:22.000Z</time>
        <extensions>
          <ns3:TrackPointExtension>
            <ns3:hr>132</ns3:hr>
            <ns3:cad>77</ns3:cad>
          </ns3:TrackPointExtension>
        </extensions>
      </trkpt>
      <trkpt lat="47.54333906807005405426025390625" lon="11.0473576001822948455810546875">
        <ele>1631.199951171875</ele>
        <time>2026-09-01T08:52:23.000Z</time>
        <extensions>
          <ns3:TrackPointExtension>
            <ns3:hr>132</ns3:hr>
            <ns3:cad>77</ns3:cad>
          </ns3:TrackPointExtension>
        </extensions>
      </trkpt>
      <trkpt lat="47.5433579273521900177001953125" lon="11.04735567234456539154052734375">
        <ele>1630.5999755859375</ele>
        <time>2026-09-01T08:52:24.000Z</time>
        <extensions>
          <ns3:TrackPointExtension>
            <ns3:hr>131</ns3:hr>
            <ns3:cad>125</ns3:cad>
          </ns3:TrackPointExtension>
        </extensions>
      </trkpt>
      <trkpt lat="47.5433827377855777740478515625" lon="11.04735164903104305267333984375">
        <ele>1630.199951171875</ele>
        <time>2026-09-01T08:52:25.000Z</time>
        <extensions>
          <ns3:TrackPointExtension>
            <ns3:hr>131</ns3:hr>
            <ns3:cad>125</ns3:cad>
          </ns3:TrackPointExtension>
        </extensions>
      </trkpt>
      <trkpt lat="47.54340042360126972198486328125" lon="11.04734125547111034393310546875">
        <ele>1629.5999755859375</ele>
        <time>2026-09-01T08:52:26.000Z</time>
        <extensions>
          <ns3:TrackPointExtension>
            <ns3:hr>131</ns3:hr>
            <ns3:cad>125</ns3:cad>
          </ns3:TrackPointExtension>
        </extensions>
      </trkpt>
      <trkpt lat="47.54340427927672863006591796875" lon="11.04733555577695369720458984375">
        <ele>1629.199951171875</ele>
        <time>2026-09-01T08:52:27.000Z</time>
        <extensions>
          <ns3:TrackPointExtension>
            <ns3:hr>131</ns3:hr>
            <ns3:cad>125</ns3:cad>
          </ns3:TrackPointExtension>
        </extensions>
      </trkpt>
      <trkpt lat="47.54341098479926586151123046875" lon="11.04731929488480091094970703125">
        <ele>1628.800048828125</ele>
        <time>2026-09-01T08:52:28.000Z</time>
        <extensions>
          <ns3:TrackPointExtension>
            <ns3:hr>132</ns3:hr>
            <ns3:cad>0</ns3:cad>
          </ns3:TrackPointExtension>
        </extensions>
      </trkpt>
      <trkpt lat="47.54341132007539272308349609375" lon="11.04731627739965915679931640625">
        <ele>1628.4000244140625</ele>
        <time>2026-09-01T08:52:29.000Z</time>
        <extensions>
          <ns3:TrackPointExtension>
            <ns3:hr>131</ns3:hr>
            <ns3:cad>0</ns3:cad>
          </ns3:TrackPointExtension>
        </extensions>
      </trkpt>
      <trkpt lat="47.5434155948460102081298828125" lon="11.04731191881000995635986328125">
        <ele>1628</ele>
        <time>2026-09-01T08:52:30.000Z</time>
        <extensions>
          <ns3:TrackPointExtension>
            <ns3:hr>131</ns3:hr>
            <ns3:cad>0</ns3:cad>
          </ns3:TrackPointExtension>
        </extensions>
      </trkpt>
      <trkpt lat="47.54341584630310535430908203125" lon="11.04730152525007724761962890625">
        <ele>1627.5999755859375</ele>
        <time>2026-09-01T08:52:31.000Z</time>
        <extensions>
          <ns3:TrackPointExtension>
            <ns3:hr>131</ns3:hr>
            <ns3:cad>0</ns3:cad>
          </ns3:TrackPointExtension>
        </extensions>
      </trkpt>
      <trkpt lat="47.54342188127338886260986328125" lon="11.0472987592220306396484375">
        <ele>1627.4000244140625</ele>
        <time>2026-09-01T08:52:32.000Z</time>
        <extensions>
          <ns3:TrackPointExtension>
            <ns3:hr>131</ns3:hr>
            <ns3:cad>0</ns3:cad>
          </ns3:TrackPointExtension>
        </extensions>
      </trkpt>
      <trkpt lat="47.54343277774751186370849609375" lon="11.04728962294757366180419921875">
        <ele>1627</ele>
        <time>2026-09-01T08:52:33.000Z</time>
        <extensions>
          <ns3:TrackPointExtension>
            <ns3:hr>131</ns3:hr>
            <ns3:cad>0</ns3:cad>
          </ns3:TrackPointExtension>
        </extensions>
      </trkpt>
      <trkpt lat="47.5434454344213008880615234375" lon="11.04726816527545452117919921875">
        <ele>1626.5999755859375</ele>
        <time>2026-09-01T08:52:34.000Z</time>
        <extensions>
          <ns3:TrackPointExtension>
            <ns3:hr>130</ns3:hr>
            <ns3:cad>0</ns3:cad>
          </ns3:TrackPointExtension>
        </extensions>
      </trkpt>
      <trkpt lat="47.5434575043618679046630859375" lon="11.04726330377161502838134765625">
        <ele>1626</ele>
        <time>2026-09-01T08:52:35.000Z</time>
        <extensions>
          <ns3:TrackPointExtension>
            <ns3:hr>129</ns3:hr>
            <ns3:cad>0</ns3:cad>
          </ns3:TrackPointExtension>
        </extensions>
      </trkpt>
      <trkpt lat="47.5434735976159572601318359375" lon="11.047260202467441558837890625">
        <ele>1625.4000244140625</ele>
        <time>2026-09-01T08:52:36.000Z</time>
        <extensions>
          <ns3:TrackPointExtension>
            <ns3:hr>127</ns3:hr>
            <ns3:cad>0</ns3:cad>
          </ns3:TrackPointExtension>
        </extensions>
      </trkpt>
      <trkpt lat="47.543487846851348876953125" lon="11.0472556762397289276123046875">
        <ele>1625</ele>
        <time>2026-09-01T08:52:37.000Z</time>
        <extensions>
          <ns3:TrackPointExtension>
            <ns3:hr>126</ns3:hr>
            <ns3:cad>0</ns3:cad>
          </ns3:TrackPointExtension>
        </extensions>
      </trkpt>
      <trkpt lat="47.5435208715498447418212890625" lon="11.04727202095091342926025390625">
        <ele>1624.199951171875</ele>
        <time>2026-09-01T08:52:38.000Z</time>
        <extensions>
          <ns3:TrackPointExtension>
            <ns3:hr>126</ns3:hr>
            <ns3:cad>0</ns3:cad>
          </ns3:TrackPointExtension>
        </extensions>
      </trkpt>
      <trkpt lat="47.54354626871645450592041015625" lon="11.04727218858897686004638671875">
        <ele>1623.4000244140625</ele>
        <time>2026-09-01T08:52:39.000Z</time>
        <extensions>
          <ns3:TrackPointExtension>
            <ns3:hr>126</ns3:hr>
            <ns3:cad>85</ns3:cad>
          </ns3:TrackPointExtension>
        </extensions>
      </trkpt>
      <trkpt lat="47.5435550697147846221923828125" lon="11.0472767986357212066650390625">
        <ele>1622.800048828125</ele>
        <time>2026-09-01T08:52:40.000Z</time>
        <extensions>
          <ns3:TrackPointExtension>
            <ns3:hr>126</ns3:hr>
            <ns3:cad>85</ns3:cad>
          </ns3:TrackPointExtension>
        </extensions>
      </trkpt>
      <trkpt lat="47.54357459954917430877685546875" lon="11.047280989587306976318359375">
        <ele>1622.199951171875</ele>
        <time>2026-09-01T08:52:41.000Z</time>
        <extensions>
          <ns3:TrackPointExtension>
            <ns3:hr>126</ns3:hr>
            <ns3:cad>85</ns3:cad>
          </ns3:TrackPointExtension>
        </extensions>
      </trkpt>
      <trkpt lat="47.54359287209808826446533203125" lon="11.0472851805388927459716796875">
        <ele>1621.5999755859375</ele>
        <time>2026-09-01T08:52:42.000Z</time>
        <extensions>
          <ns3:TrackPointExtension>
            <ns3:hr>127</ns3:hr>
            <ns3:cad>85</ns3:cad>
          </ns3:TrackPointExtension>
        </extensions>
      </trkpt>
      <trkpt lat="47.54360594786703586578369140625" lon="11.0472848452627658843994140625">
        <ele>1621.199951171875</ele>
        <time>2026-09-01T08:52:43.000Z</time>
        <extensions>
          <ns3:TrackPointExtension>
            <ns3:hr>126</ns3:hr>
            <ns3:cad>77</ns3:cad>
          </ns3:TrackPointExtension>
        </extensions>
      </trkpt>
      <trkpt lat="47.54362338222563266754150390625" lon="11.04730186052620410919189453125">
        <ele>1620.800048828125</ele>
        <time>2026-09-01T08:52:44.000Z</time>
        <extensions>
          <ns3:TrackPointExtension>
            <ns3:hr>126</ns3:hr>
            <ns3:cad>77</ns3:cad>
          </ns3:TrackPointExtension>
        </extensions>
      </trkpt>
      <trkpt lat="47.54364064894616603851318359375" lon="11.0473073087632656097412109375">
        <ele>1620.199951171875</ele>
        <time>2026-09-01T08:52:45.000Z</time>
        <extensions>
          <ns3:TrackPointExtension>
            <ns3:hr>125</ns3:hr>
            <ns3:cad>77</ns3:cad>
          </ns3:TrackPointExtension>
        </extensions>
      </trkpt>
      <trkpt lat="47.54366378299891948699951171875" lon="11.04731543920934200286865234375">
        <ele>1619.800048828125</ele>
        <time>2026-09-01T08:52:46.000Z</time>
        <extensions>
          <ns3:TrackPointExtension>
            <ns3:hr>125</ns3:hr>
            <ns3:cad>77</ns3:cad>
          </ns3:TrackPointExtension>
        </extensions>
      </trkpt>
      <trkpt lat="47.54368473775684833526611328125" lon="11.0473146848380565643310546875">
        <ele>1619.199951171875</ele>
        <time>2026-09-01T08:52:47.000Z</time>
        <extensions>
          <ns3:TrackPointExtension>
            <ns3:hr>124</ns3:hr>
            <ns3:cad>41</ns3:cad>
          </ns3:TrackPointExtension>
        </extensions>
      </trkpt>
      <trkpt lat="47.5437089614570140838623046875" lon="11.04731627739965915679931640625">
        <ele>1618.4000244140625</ele>
        <time>2026-09-01T08:52:48.000Z</time>
        <extensions>
          <ns3:TrackPointExtension>
            <ns3:hr>124</ns3:hr>
            <ns3:cad>41</ns3:cad>
          </ns3:TrackPointExtension>
        </extensions>
      </trkpt>
      <trkpt lat="47.54372513853013515472412109375" lon="11.0473116673529148101806640625">
        <ele>1617.800048828125</ele>
        <time>2026-09-01T08:52:49.000Z</time>
        <extensions>
          <ns3:TrackPointExtension>
            <ns3:hr>124</ns3:hr>
            <ns3:cad>41</ns3:cad>
          </ns3:TrackPointExtension>
        </extensions>
      </trkpt>
      <trkpt lat="47.543749697506427764892578125" lon="11.0473148524761199951171875">
        <ele>1617.199951171875</ele>
        <time>2026-09-01T08:52:50.000Z</time>
        <extensions>
          <ns3:TrackPointExtension>
            <ns3:hr>124</ns3:hr>
            <ns3:cad>45</ns3:cad>
          </ns3:TrackPointExtension>
        </extensions>
      </trkpt>
      <trkpt lat="47.543771825730800628662109375" lon="11.047320552170276641845703125">
        <ele>1616.800048828125</ele>
        <time>2026-09-01T08:52:51.000Z</time>
        <extensions>
          <ns3:TrackPointExtension>
            <ns3:hr>124</ns3:hr>
            <ns3:cad>45</ns3:cad>
          </ns3:TrackPointExtension>
        </extensions>
      </trkpt>
      <trkpt lat="47.5437921099364757537841796875" lon="11.04733739979565143585205078125">
        <ele>1616.5999755859375</ele>
        <time>2026-09-01T08:52:52.000Z</time>
        <extensions>
          <ns3:TrackPointExtension>
            <ns3:hr>124</ns3:hr>
            <ns3:cad>45</ns3:cad>
          </ns3:TrackPointExtension>
        </extensions>
      </trkpt>
      <trkpt lat="47.5438071973621845245361328125" lon="11.047337986528873443603515625">
        <ele>1615.800048828125</ele>
        <time>2026-09-01T08:52:53.000Z</time>
        <extensions>
          <ns3:TrackPointExtension>
            <ns3:hr>125</ns3:hr>
            <ns3:cad>45</ns3:cad>
          </ns3:TrackPointExtension>
        </extensions>
      </trkpt>
      <trkpt lat="47.5438313372433185577392578125" lon="11.047345362603664398193359375">
        <ele>1615</ele>
        <time>2026-09-01T08:52:54.000Z</time>
        <extensions>
          <ns3:TrackPointExtension>
            <ns3:hr>125</ns3:hr>
            <ns3:cad>45</ns3:cad>
          </ns3:TrackPointExtension>
        </extensions>
      </trkpt>
      <trkpt lat="47.543859668076038360595703125" lon="11.047360114753246307373046875">
        <ele>1614.4000244140625</ele>
        <time>2026-09-01T08:52:55.000Z</time>
        <extensions>
          <ns3:TrackPointExtension>
            <ns3:hr>126</ns3:hr>
            <ns3:cad>45</ns3:cad>
          </ns3:TrackPointExtension>
        </extensions>
      </trkpt>
      <trkpt lat="47.5438725762069225311279296875" lon="11.04736489243805408477783203125">
        <ele>1613.5999755859375</ele>
        <time>2026-09-01T08:52:56.000Z</time>
        <extensions>
          <ns3:TrackPointExtension>
            <ns3:hr>127</ns3:hr>
            <ns3:cad>45</ns3:cad>
          </ns3:TrackPointExtension>
        </extensions>
      </trkpt>
      <trkpt lat="47.54390182904899120330810546875" lon="11.04738215915858745574951171875">
        <ele>1613</ele>
        <time>2026-09-01T08:52:57.000Z</time>
        <extensions>
          <ns3:TrackPointExtension>
            <ns3:hr>127</ns3:hr>
            <ns3:cad>45</ns3:cad>
          </ns3:TrackPointExtension>
        </extensions>
      </trkpt>
      <trkpt lat="47.5439232029020786285400390625" lon="11.04737545363605022430419921875">
        <ele>1612.5999755859375</ele>
        <time>2026-09-01T08:52:58.000Z</time>
        <extensions>
          <ns3:TrackPointExtension>
            <ns3:hr>127</ns3:hr>
            <ns3:cad>45</ns3:cad>
          </ns3:TrackPointExtension>
        </extensions>
      </trkpt>
      <trkpt lat="47.5439352728426456451416015625" lon="11.0473792254924774169921875">
        <ele>1612</ele>
        <time>2026-09-01T08:52:59.000Z</time>
        <extensions>
          <ns3:TrackPointExtension>
            <ns3:hr>127</ns3:hr>
            <ns3:cad>45</ns3:cad>
          </ns3:TrackPointExtension>
        </extensions>
      </trkpt>
      <trkpt lat="47.5439543835818767547607421875" lon="11.0473830811679363250732421875">
        <ele>1611.5999755859375</ele>
        <time>2026-09-01T08:53:00.000Z</time>
        <extensions>
          <ns3:TrackPointExtension>
            <ns3:hr>126</ns3:hr>
            <ns3:cad>80</ns3:cad>
          </ns3:TrackPointExtension>
        </extensions>
      </trkpt>
      <trkpt lat="47.54397106356918811798095703125" lon="11.0473981685936450958251953125">
        <ele>1611.199951171875</ele>
        <time>2026-09-01T08:53:01.000Z</time>
        <extensions>
          <ns3:TrackPointExtension>
            <ns3:hr>126</ns3:hr>
            <ns3:cad>80</ns3:cad>
          </ns3:TrackPointExtension>
        </extensions>
      </trkpt>
      <trkpt lat="47.54398413933813571929931640625" lon="11.047409735620021820068359375">
        <ele>1610.800048828125</ele>
        <time>2026-09-01T08:53:02.000Z</time>
        <extensions>
          <ns3:TrackPointExtension>
            <ns3:hr>125</ns3:hr>
            <ns3:cad>80</ns3:cad>
          </ns3:TrackPointExtension>
        </extensions>
      </trkpt>
      <trkpt lat="47.5439919345080852508544921875" lon="11.04742306284606456756591796875">
        <ele>1610.4000244140625</ele>
        <time>2026-09-01T08:53:03.000Z</time>
        <extensions>
          <ns3:TrackPointExtension>
            <ns3:hr>125</ns3:hr>
            <ns3:cad>80</ns3:cad>
          </ns3:TrackPointExtension>
        </extensions>
      </trkpt>
      <trkpt lat="47.544007860124111175537109375" lon="11.0474511422216892242431640625">
        <ele>1610.199951171875</ele>
        <time>2026-09-01T08:53:04.000Z</time>
        <extensions>
          <ns3:TrackPointExtension>
            <ns3:hr>125</ns3:hr>
            <ns3:cad>80</ns3:cad>
          </ns3:TrackPointExtension>
        </extensions>
      </trkpt>
      <trkpt lat="47.54402856342494487762451171875" lon="11.0474749468266963958740234375">
        <ele>1609.4000244140625</ele>
        <time>2026-09-01T08:53:05.000Z</time>
        <extensions>
          <ns3:TrackPointExtension>
            <ns3:hr>125</ns3:hr>
            <ns3:cad>80</ns3:cad>
          </ns3:TrackPointExtension>
        </extensions>
      </trkpt>
      <trkpt lat="47.54404415376484394073486328125" lon="11.04749095626175403594970703125">
        <ele>1608.800048828125</ele>
        <time>2026-09-01T08:53:06.000Z</time>
        <extensions>
          <ns3:TrackPointExtension>
            <ns3:hr>125</ns3:hr>
            <ns3:cad>80</ns3:cad>
          </ns3:TrackPointExtension>
        </extensions>
      </trkpt>
      <trkpt lat="47.54406812600791454315185546875" lon="11.047515012323856353759765625">
        <ele>1608</ele>
        <time>2026-09-01T08:53:07.000Z</time>
        <extensions>
          <ns3:TrackPointExtension>
            <ns3:hr>126</ns3:hr>
            <ns3:cad>80</ns3:cad>
          </ns3:TrackPointExtension>
        </extensions>
      </trkpt>
      <trkpt lat="47.54408589564263820648193359375" lon="11.04753454215824604034423828125">
        <ele>1607.199951171875</ele>
        <time>2026-09-01T08:53:08.000Z</time>
        <extensions>
          <ns3:TrackPointExtension>
            <ns3:hr>125</ns3:hr>
            <ns3:cad>80</ns3:cad>
          </ns3:TrackPointExtension>
        </extensions>
      </trkpt>
      <trkpt lat="47.54409737884998321533203125" lon="11.04755298234522342681884765625">
        <ele>1606.800048828125</ele>
        <time>2026-09-01T08:53:09.000Z</time>
        <extensions>
          <ns3:TrackPointExtension>
            <ns3:hr>126</ns3:hr>
            <ns3:cad>80</ns3:cad>
          </ns3:TrackPointExtension>
        </extensions>
      </trkpt>
      <trkpt lat="47.544105090200901031494140625" lon="11.04756454937160015106201171875">
        <ele>1606.5999755859375</ele>
        <time>2026-09-01T08:53:10.000Z</time>
        <extensions>
          <ns3:TrackPointExtension>
            <ns3:hr>126</ns3:hr>
            <ns3:cad>80</ns3:cad>
          </ns3:TrackPointExtension>
        </extensions>
      </trkpt>
      <trkpt lat="47.5441176630556583404541015625" lon="11.0475671477615833282470703125">
        <ele>1606.4000244140625</ele>
        <time>2026-09-01T08:53:11.000Z</time>
        <extensions>
          <ns3:TrackPointExtension>
            <ns3:hr>126</ns3:hr>
            <ns3:cad>80</ns3:cad>
          </ns3:TrackPointExtension>
        </extensions>
      </trkpt>
      <trkpt lat="47.5441401265561580657958984375" lon="11.04757972061634063720703125">
        <ele>1606</ele>
        <time>2026-09-01T08:53:12.000Z</time>
        <extensions>
          <ns3:TrackPointExtension>
            <ns3:hr>126</ns3:hr>
            <ns3:cad>0</ns3:cad>
          </ns3:TrackPointExtension>
        </extensions>
      </trkpt>
      <trkpt lat="47.5441545434296131134033203125" lon="11.04758298955857753753662109375">
        <ele>1605.800048828125</ele>
        <time>2026-09-01T08:53:13.000Z</time>
        <extensions>
          <ns3:TrackPointExtension>
            <ns3:hr>126</ns3:hr>
            <ns3:cad>0</ns3:cad>
          </ns3:TrackPointExtension>
        </extensions>
      </trkpt>
      <trkpt lat="47.5441746599972248077392578125" lon="11.0475912876427173614501953125">
        <ele>1605.800048828125</ele>
        <time>2026-09-01T08:53:14.000Z</time>
        <extensions>
          <ns3:TrackPointExtension>
            <ns3:hr>126</ns3:hr>
            <ns3:cad>0</ns3:cad>
          </ns3:TrackPointExtension>
        </extensions>
      </trkpt>
      <trkpt lat="47.544198967516422271728515625" lon="11.04760520160198211669921875">
        <ele>1605.5999755859375</ele>
        <time>2026-09-01T08:53:15.000Z</time>
        <extensions>
          <ns3:TrackPointExtension>
            <ns3:hr>127</ns3:hr>
            <ns3:cad>0</ns3:cad>
          </ns3:TrackPointExtension>
        </extensions>
      </trkpt>
      <trkpt lat="47.54421263001859188079833984375" lon="11.0476206243038177490234375">
        <ele>1605.4000244140625</ele>
        <time>2026-09-01T08:53:16.000Z</time>
        <extensions>
          <ns3:TrackPointExtension>
            <ns3:hr>127</ns3:hr>
            <ns3:cad>0</ns3:cad>
          </ns3:TrackPointExtension>
        </extensions>
      </trkpt>
      <trkpt lat="47.5442306511104106903076171875" lon="11.0476482845842838287353515625">
        <ele>1605.199951171875</ele>
        <time>2026-09-01T08:53:17.000Z</time>
        <extensions>
          <ns3:TrackPointExtension>
            <ns3:hr>127</ns3:hr>
            <ns3:cad>0</ns3:cad>
          </ns3:TrackPointExtension>
        </extensions>
      </trkpt>
      <trkpt lat="47.544246576726436614990234375" lon="11.04767016135156154632568359375">
        <ele>1604.800048828125</ele>
        <time>2026-09-01T08:53:18.000Z</time>
        <extensions>
          <ns3:TrackPointExtension>
            <ns3:hr>127</ns3:hr>
            <ns3:cad>68</ns3:cad>
          </ns3:TrackPointExtension>
        </extensions>
      </trkpt>
      <trkpt lat="47.54426409490406513214111328125" lon="11.04769413359463214874267578125">
        <ele>1604.199951171875</ele>
        <time>2026-09-01T08:53:19.000Z</time>
        <extensions>
          <ns3:TrackPointExtension>
            <ns3:hr>127</ns3:hr>
            <ns3:cad>68</ns3:cad>
          </ns3:TrackPointExtension>
        </extensions>
      </trkpt>
      <trkpt lat="47.5442812778055667877197265625" lon="11.04771642945706844329833984375">
        <ele>1603.5999755859375</ele>
        <time>2026-09-01T08:53:20.000Z</time>
        <extensions>
          <ns3:TrackPointExtension>
            <ns3:hr>126</ns3:hr>
            <ns3:cad>68</ns3:cad>
          </ns3:TrackPointExtension>
        </extensions>
      </trkpt>
      <trkpt lat="47.54429695196449756622314453125" lon="11.04773453436791896820068359375">
        <ele>1602.5999755859375</ele>
        <time>2026-09-01T08:53:21.000Z</time>
        <extensions>
          <ns3:TrackPointExtension>
            <ns3:hr>126</ns3:hr>
            <ns3:cad>68</ns3:cad>
          </ns3:TrackPointExtension>
        </extensions>
      </trkpt>
      <trkpt lat="47.54431254230439662933349609375" lon="11.04775381274521350860595703125">
        <ele>1601.5999755859375</ele>
        <time>2026-09-01T08:53:22.000Z</time>
        <extensions>
          <ns3:TrackPointExtension>
            <ns3:hr>125</ns3:hr>
            <ns3:cad>68</ns3:cad>
          </ns3:TrackPointExtension>
        </extensions>
      </trkpt>
      <trkpt lat="47.5443275459110736846923828125" lon="11.04777309112250804901123046875">
        <ele>1600.800048828125</ele>
        <time>2026-09-01T08:53:23.000Z</time>
        <extensions>
          <ns3:TrackPointExtension>
            <ns3:hr>124</ns3:hr>
            <ns3:cad>68</ns3:cad>
          </ns3:TrackPointExtension>
        </extensions>
      </trkpt>
      <trkpt lat="47.544340789318084716796875" lon="11.0477924533188343048095703125">
        <ele>1600.199951171875</ele>
        <time>2026-09-01T08:53:24.000Z</time>
        <extensions>
          <ns3:TrackPointExtension>
            <ns3:hr>125</ns3:hr>
            <ns3:cad>68</ns3:cad>
          </ns3:TrackPointExtension>
        </extensions>
      </trkpt>
      <trkpt lat="47.54435059614479541778564453125" lon="11.0478155873715877532958984375">
        <ele>1599.800048828125</ele>
        <time>2026-09-01T08:53:25.000Z</time>
        <extensions>
          <ns3:TrackPointExtension>
            <ns3:hr>125</ns3:hr>
            <ns3:cad>68</ns3:cad>
          </ns3:TrackPointExtension>
        </extensions>
      </trkpt>
      <trkpt lat="47.54435881040990352630615234375" lon="11.04783662594854831695556640625">
        <ele>1599.4000244140625</ele>
        <time>2026-09-01T08:53:26.000Z</time>
        <extensions>
          <ns3:TrackPointExtension>
            <ns3:hr>126</ns3:hr>
            <ns3:cad>68</ns3:cad>
          </ns3:TrackPointExtension>
        </extensions>
      </trkpt>
      <trkpt lat="47.5443697907030582427978515625" lon="11.04785867035388946533203125">
        <ele>1598.800048828125</ele>
        <time>2026-09-01T08:53:27.000Z</time>
        <extensions>
          <ns3:TrackPointExtension>
            <ns3:hr>127</ns3:hr>
            <ns3:cad>68</ns3:cad>
          </ns3:TrackPointExtension>
        </extensions>
      </trkpt>
      <trkpt lat="47.5443716347217559814453125" lon="11.0478782840073108673095703125">
        <ele>1598.4000244140625</ele>
        <time>2026-09-01T08:53:28.000Z</time>
        <extensions>
          <ns3:TrackPointExtension>
            <ns3:hr>127</ns3:hr>
            <ns3:cad>68</ns3:cad>
          </ns3:TrackPointExtension>
        </extensions>
      </trkpt>
      <trkpt lat="47.54437674768269062042236328125" lon="11.04789488017559051513671875">
        <ele>1598</ele>
        <time>2026-09-01T08:53:29.000Z</time>
        <extensions>
          <ns3:TrackPointExtension>
            <ns3:hr>128</ns3:hr>
            <ns3:cad>68</ns3:cad>
          </ns3:TrackPointExtension>
        </extensions>
      </trkpt>
      <trkpt lat="47.544386386871337890625" lon="11.0479178465902805328369140625">
        <ele>1597.5999755859375</ele>
        <time>2026-09-01T08:53:30.000Z</time>
        <extensions>
          <ns3:TrackPointExtension>
            <ns3:hr>129</ns3:hr>
            <ns3:cad>59</ns3:cad>
          </ns3:TrackPointExtension>
        </extensions>
      </trkpt>
      <trkpt lat="47.54440273158252239227294921875" lon="11.0479342751204967498779296875">
        <ele>1597.199951171875</ele>
        <time>2026-09-01T08:53:31.000Z</time>
        <extensions>
          <ns3:TrackPointExtension>
            <ns3:hr>129</ns3:hr>
            <ns3:cad>59</ns3:cad>
          </ns3:TrackPointExtension>
        </extensions>
      </trkpt>
      <trkpt lat="47.54441815428435802459716796875" lon="11.04795112274587154388427734375">
        <ele>1596.5999755859375</ele>
        <time>2026-09-01T08:53:32.000Z</time>
        <extensions>
          <ns3:TrackPointExtension>
            <ns3:hr>130</ns3:hr>
            <ns3:cad>59</ns3:cad>
          </ns3:TrackPointExtension>
        </extensions>
      </trkpt>
      <trkpt lat="47.544431649148464202880859375" lon="11.04796134866774082183837890625">
        <ele>1596</ele>
        <time>2026-09-01T08:53:33.000Z</time>
        <extensions>
          <ns3:TrackPointExtension>
            <ns3:hr>130</ns3:hr>
            <ns3:cad>59</ns3:cad>
          </ns3:TrackPointExtension>
        </extensions>
      </trkpt>
      <trkpt lat="47.54444740712642669677734375" lon="11.0479771904647350311279296875">
        <ele>1595.199951171875</ele>
        <time>2026-09-01T08:53:34.000Z</time>
        <extensions>
          <ns3:TrackPointExtension>
            <ns3:hr>130</ns3:hr>
            <ns3:cad>59</ns3:cad>
          </ns3:TrackPointExtension>
        </extensions>
      </trkpt>
      <trkpt lat="47.5444663502275943756103515625" lon="11.04799705557525157928466796875">
        <ele>1594.800048828125</ele>
        <time>2026-09-01T08:53:35.000Z</time>
        <extensions>
          <ns3:TrackPointExtension>
            <ns3:hr>131</ns3:hr>
            <ns3:cad>0</ns3:cad>
          </ns3:TrackPointExtension>
        </extensions>
      </trkpt>
      <trkpt lat="47.54448856227099895477294921875" lon="11.0480157472193241119384765625">
        <ele>1594.5999755859375</ele>
        <time>2026-09-01T08:53:36.000Z</time>
        <extensions>
          <ns3:TrackPointExtension>
            <ns3:hr>131</ns3:hr>
            <ns3:cad>0</ns3:cad>
          </ns3:TrackPointExtension>
        </extensions>
      </trkpt>
      <trkpt lat="47.54451957531273365020751953125" lon="11.04804164730012416839599609375">
        <ele>1593.800048828125</ele>
        <time>2026-09-01T08:53:37.000Z</time>
        <extensions>
          <ns3:TrackPointExtension>
            <ns3:hr>130</ns3:hr>
            <ns3:cad>0</ns3:cad>
          </ns3:TrackPointExtension>
        </extensions>
      </trkpt>
      <trkpt lat="47.5445521809160709381103515625" lon="11.048064529895782470703125">
        <ele>1593.199951171875</ele>
        <time>2026-09-01T08:53:38.000Z</time>
        <extensions>
          <ns3:TrackPointExtension>
            <ns3:hr>130</ns3:hr>
            <ns3:cad>0</ns3:cad>
          </ns3:TrackPointExtension>
        </extensions>
      </trkpt>
      <trkpt lat="47.54458461888134479522705078125" lon="11.04809210635721683502197265625">
        <ele>1592.800048828125</ele>
        <time>2026-09-01T08:53:39.000Z</time>
        <extensions>
          <ns3:TrackPointExtension>
            <ns3:hr>130</ns3:hr>
            <ns3:cad>0</ns3:cad>
          </ns3:TrackPointExtension>
        </extensions>
      </trkpt>
      <trkpt lat="47.54461211152374744415283203125" lon="11.04811348021030426025390625">
        <ele>1592</ele>
        <time>2026-09-01T08:53:40.000Z</time>
        <extensions>
          <ns3:TrackPointExtension>
            <ns3:hr>130</ns3:hr>
            <ns3:cad>0</ns3:cad>
          </ns3:TrackPointExtension>
        </extensions>
      </trkpt>
      <trkpt lat="47.544635497033596038818359375" lon="11.048131920397281646728515625">
        <ele>1591.4000244140625</ele>
        <time>2026-09-01T08:53:41.000Z</time>
        <extensions>
          <ns3:TrackPointExtension>
            <ns3:hr>130</ns3:hr>
            <ns3:cad>0</ns3:cad>
          </ns3:TrackPointExtension>
        </extensions>
      </trkpt>
      <trkpt lat="47.54465569742023944854736328125" lon="11.048150695860385894775390625">
        <ele>1591</ele>
        <time>2026-09-01T08:53:42.000Z</time>
        <extensions>
          <ns3:TrackPointExtension>
            <ns3:hr>130</ns3:hr>
            <ns3:cad>0</ns3:cad>
          </ns3:TrackPointExtension>
        </extensions>
      </trkpt>
      <trkpt lat="47.54467631690204143524169921875" lon="11.04817575775086879730224609375">
        <ele>1590.5999755859375</ele>
        <time>2026-09-01T08:53:43.000Z</time>
        <extensions>
          <ns3:TrackPointExtension>
            <ns3:hr>131</ns3:hr>
            <ns3:cad>0</ns3:cad>
          </ns3:TrackPointExtension>
        </extensions>
      </trkpt>
      <trkpt lat="47.54468704573810100555419921875" lon="11.0481931082904338836669921875">
        <ele>1590.5999755859375</ele>
        <time>2026-09-01T08:53:44.000Z</time>
        <extensions>
          <ns3:TrackPointExtension>
            <ns3:hr>131</ns3:hr>
            <ns3:cad>84</ns3:cad>
          </ns3:TrackPointExtension>
        </extensions>
      </trkpt>
      <trkpt lat="47.544704563915729522705078125" lon="11.0482246242463588714599609375">
        <ele>1590.800048828125</ele>
        <time>2026-09-01T08:53:45.000Z</time>
        <extensions>
          <ns3:TrackPointExtension>
            <ns3:hr>131</ns3:hr>
            <ns3:cad>84</ns3:cad>
          </ns3:TrackPointExtension>
        </extensions>
      </trkpt>
      <trkpt lat="47.5447248481214046478271484375" lon="11.04824583046138286590576171875">
        <ele>1591</ele>
        <time>2026-09-01T08:53:46.000Z</time>
        <extensions>
          <ns3:TrackPointExtension>
            <ns3:hr>132</ns3:hr>
            <ns3:cad>84</ns3:cad>
          </ns3:TrackPointExtension>
        </extensions>
      </trkpt>
      <trkpt lat="47.54474001936614513397216796875" lon="11.04826594702899456024169921875">
        <ele>1591.199951171875</ele>
        <time>2026-09-01T08:53:47.000Z</time>
        <extensions>
          <ns3:TrackPointExtension>
            <ns3:hr>132</ns3:hr>
            <ns3:cad>83</ns3:cad>
          </ns3:TrackPointExtension>
        </extensions>
      </trkpt>
      <trkpt lat="47.5447493232786655426025390625" lon="11.04827617295086383819580078125">
        <ele>1591.5999755859375</ele>
        <time>2026-09-01T08:53:48.000Z</time>
        <extensions>
          <ns3:TrackPointExtension>
            <ns3:hr>133</ns3:hr>
            <ns3:cad>82</ns3:cad>
          </ns3:TrackPointExtension>
        </extensions>
      </trkpt>
      <trkpt lat="47.5447805039584636688232421875" lon="11.0482786037027835845947265625">
        <ele>1591.800048828125</ele>
        <time>2026-09-01T08:53:49.000Z</time>
        <extensions>
          <ns3:TrackPointExtension>
            <ns3:hr>133</ns3:hr>
            <ns3:cad>80</ns3:cad>
          </ns3:TrackPointExtension>
        </extensions>
      </trkpt>
      <trkpt lat="47.54479869268834590911865234375" lon="11.0482829622924327850341796875">
        <ele>1592.4000244140625</ele>
        <time>2026-09-01T08:53:50.000Z</time>
        <extensions>
          <ns3:TrackPointExtension>
            <ns3:hr>134</ns3:hr>
            <ns3:cad>79</ns3:cad>
          </ns3:TrackPointExtension>
        </extensions>
      </trkpt>
      <trkpt lat="47.54482157528400421142578125" lon="11.04828136973083019256591796875">
        <ele>1592.800048828125</ele>
        <time>2026-09-01T08:53:51.000Z</time>
        <extensions>
          <ns3:TrackPointExtension>
            <ns3:hr>134</ns3:hr>
            <ns3:cad>79</ns3:cad>
          </ns3:TrackPointExtension>
        </extensions>
      </trkpt>
      <trkpt lat="47.54483842290937900543212890625" lon="11.0482762567698955535888671875">
        <ele>1593</ele>
        <time>2026-09-01T08:53:52.000Z</time>
        <extensions>
          <ns3:TrackPointExtension>
            <ns3:hr>134</ns3:hr>
            <ns3:cad>79</ns3:cad>
          </ns3:TrackPointExtension>
        </extensions>
      </trkpt>
      <trkpt lat="47.54485351033508777618408203125" lon="11.04827650822699069976806640625">
        <ele>1593.199951171875</ele>
        <time>2026-09-01T08:53:53.000Z</time>
        <extensions>
          <ns3:TrackPointExtension>
            <ns3:hr>134</ns3:hr>
            <ns3:cad>0</ns3:cad>
          </ns3:TrackPointExtension>
        </extensions>
      </trkpt>
      <trkpt lat="47.54486725665628910064697265625" lon="11.0482933558523654937744140625">
        <ele>1593.4000244140625</ele>
        <time>2026-09-01T08:53:54.000Z</time>
        <extensions>
          <ns3:TrackPointExtension>
            <ns3:hr>135</ns3:hr>
            <ns3:cad>0</ns3:cad>
          </ns3:TrackPointExtension>
        </extensions>
      </trkpt>
      <trkpt lat="47.54487798549234867095947265625" lon="11.0483045876026153564453125">
        <ele>1593.4000244140625</ele>
        <time>2026-09-01T08:53:55.000Z</time>
        <extensions>
          <ns3:TrackPointExtension>
            <ns3:hr>133</ns3:hr>
            <ns3:cad>0</ns3:cad>
          </ns3:TrackPointExtension>
        </extensions>
      </trkpt>
      <trkpt lat="47.54488200880587100982666015625" lon="11.0483153164386749267578125">
        <ele>1593.5999755859375</ele>
        <time>2026-09-01T08:53:56.000Z</time>
        <extensions>
          <ns3:TrackPointExtension>
            <ns3:hr>133</ns3:hr>
            <ns3:cad>0</ns3:cad>
          </ns3:TrackPointExtension>
        </extensions>
      </trkpt>
      <trkpt lat="47.5448911450803279876708984375" lon="11.0483278892934322357177734375">
        <ele>1593.5999755859375</ele>
        <time>2026-09-01T08:53:57.000Z</time>
        <extensions>
          <ns3:TrackPointExtension>
            <ns3:hr>132</ns3:hr>
            <ns3:cad>0</ns3:cad>
          </ns3:TrackPointExtension>
        </extensions>
      </trkpt>
      <trkpt lat="47.5449048914015293121337890625" lon="11.0483319126069545745849609375">
        <ele>1593.800048828125</ele>
        <time>2026-09-01T08:53:58.000Z</time>
        <extensions>
          <ns3:TrackPointExtension>
            <ns3:hr>132</ns3:hr>
            <ns3:cad>54</ns3:cad>
          </ns3:TrackPointExtension>
        </extensions>
      </trkpt>
      <trkpt lat="47.5449189729988574981689453125" lon="11.04834037832915782928466796875">
        <ele>1594</ele>
        <time>2026-09-01T08:53:59.000Z</time>
        <extensions>
          <ns3:TrackPointExtension>
            <ns3:hr>131</ns3:hr>
            <ns3:cad>54</ns3:cad>
          </ns3:TrackPointExtension>
        </extensions>
      </trkpt>
      <trkpt lat="47.544933222234249114990234375" lon="11.04834976606070995330810546875">
        <ele>1594.4000244140625</ele>
        <time>2026-09-01T08:54:00.000Z</time>
        <extensions>
          <ns3:TrackPointExtension>
            <ns3:hr>132</ns3:hr>
            <ns3:cad>54</ns3:cad>
          </ns3:TrackPointExtension>
        </extensions>
      </trkpt>
      <trkpt lat="47.544944286346435546875" lon="11.0483553819358348846435546875">
        <ele>1594.800048828125</ele>
        <time>2026-09-01T08:54:01.000Z</time>
        <extensions>
          <ns3:TrackPointExtension>
            <ns3:hr>132</ns3:hr>
            <ns3:cad>55</ns3:cad>
          </ns3:TrackPointExtension>
        </extensions>
      </trkpt>
      <trkpt lat="47.54495761357247829437255859375" lon="11.0483617521822452545166015625">
        <ele>1595.199951171875</ele>
        <time>2026-09-01T08:54:02.000Z</time>
        <extensions>
          <ns3:TrackPointExtension>
            <ns3:hr>133</ns3:hr>
            <ns3:cad>55</ns3:cad>
          </ns3:TrackPointExtension>
        </extensions>
      </trkpt>
      <trkpt lat="47.54497152753174304962158203125" lon="11.04836736805737018585205078125">
        <ele>1595.5999755859375</ele>
        <time>2026-09-01T08:54:03.000Z</time>
        <extensions>
          <ns3:TrackPointExtension>
            <ns3:hr>134</ns3:hr>
            <ns3:cad>55</ns3:cad>
          </ns3:TrackPointExtension>
        </extensions>
      </trkpt>
      <trkpt lat="47.54498309455811977386474609375" lon="11.0483765043318271636962890625">
        <ele>1596</ele>
        <time>2026-09-01T08:54:04.000Z</time>
        <extensions>
          <ns3:TrackPointExtension>
            <ns3:hr>135</ns3:hr>
            <ns3:cad>55</ns3:cad>
          </ns3:TrackPointExtension>
        </extensions>
      </trkpt>
      <trkpt lat="47.5449893809854984283447265625" lon="11.04838262312114238739013671875">
        <ele>1596.199951171875</ele>
        <time>2026-09-01T08:54:05.000Z</time>
        <extensions>
          <ns3:TrackPointExtension>
            <ns3:hr>138</ns3:hr>
            <ns3:cad>55</ns3:cad>
          </ns3:TrackPointExtension>
        </extensions>
      </trkpt>
      <trkpt lat="47.5449980981647968292236328125" lon="11.04838815517723560333251953125">
        <ele>1596.5999755859375</ele>
        <time>2026-09-01T08:54:06.000Z</time>
        <extensions>
          <ns3:TrackPointExtension>
            <ns3:hr>139</ns3:hr>
            <ns3:cad>55</ns3:cad>
          </ns3:TrackPointExtension>
        </extensions>
      </trkpt>
      <trkpt lat="47.545005977153778076171875" lon="11.0483939386904239654541015625">
        <ele>1596.800048828125</ele>
        <time>2026-09-01T08:54:07.000Z</time>
        <extensions>
          <ns3:TrackPointExtension>
            <ns3:hr>141</ns3:hr>
            <ns3:cad>55</ns3:cad>
          </ns3:TrackPointExtension>
        </extensions>
      </trkpt>
      <trkpt lat="47.5450100004673004150390625" lon="11.0484003089368343353271484375">
        <ele>1596.800048828125</ele>
        <time>2026-09-01T08:54:08.000Z</time>
        <extensions>
          <ns3:TrackPointExtension>
            <ns3:hr>142</ns3:hr>
            <ns3:cad>55</ns3:cad>
          </ns3:TrackPointExtension>
        </extensions>
      </trkpt>
      <trkpt lat="47.5450126826763153076171875" lon="11.0484127141535282135009765625">
        <ele>1597</ele>
        <time>2026-09-01T08:54:09.000Z</time>
        <extensions>
          <ns3:TrackPointExtension>
            <ns3:hr>143</ns3:hr>
            <ns3:cad>55</ns3:cad>
          </ns3:TrackPointExtension>
        </extensions>
      </trkpt>
      <trkpt lat="47.545019052922725677490234375" lon="11.04842553846538066864013671875">
        <ele>1597.199951171875</ele>
        <time>2026-09-01T08:54:10.000Z</time>
        <extensions>
          <ns3:TrackPointExtension>
            <ns3:hr>144</ns3:hr>
            <ns3:cad>55</ns3:cad>
          </ns3:TrackPointExtension>
        </extensions>
      </trkpt>
      <trkpt lat="47.54503472708165645599365234375" lon="11.04844330810010433197021484375">
        <ele>1597.4000244140625</ele>
        <time>2026-09-01T08:54:11.000Z</time>
        <extensions>
          <ns3:TrackPointExtension>
            <ns3:hr>145</ns3:hr>
            <ns3:cad>55</ns3:cad>
          </ns3:TrackPointExtension>
        </extensions>
      </trkpt>
      <trkpt lat="47.545045204460620880126953125" lon="11.04845269583165645599365234375">
        <ele>1597.5999755859375</ele>
        <time>2026-09-01T08:54:12.000Z</time>
        <extensions>
          <ns3:TrackPointExtension>
            <ns3:hr>146</ns3:hr>
            <ns3:cad>55</ns3:cad>
          </ns3:TrackPointExtension>
        </extensions>
      </trkpt>
      <trkpt lat="47.54505283199250698089599609375" lon="11.04846392758190631866455078125">
        <ele>1597.800048828125</ele>
        <time>2026-09-01T08:54:13.000Z</time>
        <extensions>
          <ns3:TrackPointExtension>
            <ns3:hr>147</ns3:hr>
            <ns3:cad>44</ns3:cad>
          </ns3:TrackPointExtension>
        </extensions>
      </trkpt>
      <trkpt lat="47.5450628064572811126708984375" lon="11.0484720580279827117919921875">
        <ele>1598</ele>
        <time>2026-09-01T08:54:14.000Z</time>
        <extensions>
          <ns3:TrackPointExtension>
            <ns3:hr>148</ns3:hr>
            <ns3:cad>44</ns3:cad>
          </ns3:TrackPointExtension>
        </extensions>
      </trkpt>
      <trkpt lat="47.54507613368332386016845703125" lon="11.04848756454885005950927734375">
        <ele>1598.199951171875</ele>
        <time>2026-09-01T08:54:15.000Z</time>
        <extensions>
          <ns3:TrackPointExtension>
            <ns3:hr>149</ns3:hr>
            <ns3:cad>44</ns3:cad>
          </ns3:TrackPointExtension>
        </extensions>
      </trkpt>
      <trkpt lat="47.54509071819484233856201171875" lon="11.048507429659366607666015625">
        <ele>1598.199951171875</ele>
        <time>2026-09-01T08:54:16.000Z</time>
        <extensions>
          <ns3:TrackPointExtension>
            <ns3:hr>150</ns3:hr>
            <ns3:cad>44</ns3:cad>
          </ns3:TrackPointExtension>
        </extensions>
      </trkpt>
      <trkpt lat="47.545096166431903839111328125" lon="11.04851069860160350799560546875">
        <ele>1598.199951171875</ele>
        <time>2026-09-01T08:54:17.000Z</time>
        <extensions>
          <ns3:TrackPointExtension>
            <ns3:hr>151</ns3:hr>
            <ns3:cad>71</ns3:cad>
          </ns3:TrackPointExtension>
        </extensions>
      </trkpt>
      <trkpt lat="47.54510731436312198638916015625" lon="11.04852788150310516357421875">
        <ele>1598.199951171875</ele>
        <time>2026-09-01T08:54:18.000Z</time>
        <extensions>
          <ns3:TrackPointExtension>
            <ns3:hr>152</ns3:hr>
            <ns3:cad>71</ns3:cad>
          </ns3:TrackPointExtension>
        </extensions>
      </trkpt>
      <trkpt lat="47.54512407816946506500244140625" lon="11.048547662794589996337890625">
        <ele>1598</ele>
        <time>2026-09-01T08:54:19.000Z</time>
        <extensions>
          <ns3:TrackPointExtension>
            <ns3:hr>153</ns3:hr>
            <ns3:cad>71</ns3:cad>
          </ns3:TrackPointExtension>
        </extensions>
      </trkpt>
      <trkpt lat="47.545138411223888397216796875" lon="11.04858060367405414581298828125">
        <ele>1598</ele>
        <time>2026-09-01T08:54:20.000Z</time>
        <extensions>
          <ns3:TrackPointExtension>
            <ns3:hr>154</ns3:hr>
            <ns3:cad>71</ns3:cad>
          </ns3:TrackPointExtension>
        </extensions>
      </trkpt>
      <trkpt lat="47.54515676759183406829833984375" lon="11.04860172607004642486572265625">
        <ele>1597.800048828125</ele>
        <time>2026-09-01T08:54:21.000Z</time>
        <extensions>
          <ns3:TrackPointExtension>
            <ns3:hr>155</ns3:hr>
            <ns3:cad>75</ns3:cad>
          </ns3:TrackPointExtension>
        </extensions>
      </trkpt>
      <trkpt lat="47.545176632702350616455078125" lon="11.048626117408275604248046875">
        <ele>1597.4000244140625</ele>
        <time>2026-09-01T08:54:22.000Z</time>
        <extensions>
          <ns3:TrackPointExtension>
            <ns3:hr>155</ns3:hr>
            <ns3:cad>75</ns3:cad>
          </ns3:TrackPointExtension>
        </extensions>
      </trkpt>
      <trkpt lat="47.5452019460499286651611328125" lon="11.0486417077481746673583984375">
        <ele>1596.800048828125</ele>
        <time>2026-09-01T08:54:23.000Z</time>
        <extensions>
          <ns3:TrackPointExtension>
            <ns3:hr>156</ns3:hr>
            <ns3:cad>75</ns3:cad>
          </ns3:TrackPointExtension>
        </extensions>
      </trkpt>
      <trkpt lat="47.54523874260485172271728515625" lon="11.0486460663378238677978515625">
        <ele>1596.4000244140625</ele>
        <time>2026-09-01T08:54:24.000Z</time>
        <extensions>
          <ns3:TrackPointExtension>
            <ns3:hr>157</ns3:hr>
            <ns3:cad>79</ns3:cad>
          </ns3:TrackPointExtension>
        </extensions>
      </trkpt>
      <trkpt lat="47.5452669896185398101806640625" lon="11.048665344715118408203125">
        <ele>1595.800048828125</ele>
        <time>2026-09-01T08:54:25.000Z</time>
        <extensions>
          <ns3:TrackPointExtension>
            <ns3:hr>157</ns3:hr>
            <ns3:cad>79</ns3:cad>
          </ns3:TrackPointExtension>
        </extensions>
      </trkpt>
      <trkpt lat="47.54529020749032497406005859375" lon="11.04869459755718708038330078125">
        <ele>1595.4000244140625</ele>
        <time>2026-09-01T08:54:26.000Z</time>
        <extensions>
          <ns3:TrackPointExtension>
            <ns3:hr>158</ns3:hr>
            <ns3:cad>79</ns3:cad>
          </ns3:TrackPointExtension>
        </extensions>
      </trkpt>
      <trkpt lat="47.5453085638582706451416015625" lon="11.04871119372546672821044921875">
        <ele>1594.800048828125</ele>
        <time>2026-09-01T08:54:27.000Z</time>
        <extensions>
          <ns3:TrackPointExtension>
            <ns3:hr>158</ns3:hr>
            <ns3:cad>80</ns3:cad>
          </ns3:TrackPointExtension>
        </extensions>
      </trkpt>
      <trkpt lat="47.54532524384558200836181640625" lon="11.04874237440526485443115234375">
        <ele>1594.5999755859375</ele>
        <time>2026-09-01T08:54:28.000Z</time>
        <extensions>
          <ns3:TrackPointExtension>
            <ns3:hr>158</ns3:hr>
            <ns3:cad>81</ns3:cad>
          </ns3:TrackPointExtension>
        </extensions>
      </trkpt>
      <trkpt lat="47.54534619860351085662841796875" lon="11.04877254925668239593505859375">
        <ele>1594.5999755859375</ele>
        <time>2026-09-01T08:54:29.000Z</time>
        <extensions>
          <ns3:TrackPointExtension>
            <ns3:hr>159</ns3:hr>
            <ns3:cad>83</ns3:cad>
          </ns3:TrackPointExtension>
        </extensions>
      </trkpt>
      <trkpt lat="47.54536698572337627410888671875" lon="11.0487954318523406982421875">
        <ele>1594.800048828125</ele>
        <time>2026-09-01T08:54:30.000Z</time>
        <extensions>
          <ns3:TrackPointExtension>
            <ns3:hr>159</ns3:hr>
            <ns3:cad>83</ns3:cad>
          </ns3:TrackPointExtension>
        </extensions>
      </trkpt>
      <trkpt lat="47.5453883595764636993408203125" lon="11.04882854036986827850341796875">
        <ele>1595</ele>
        <time>2026-09-01T08:54:31.000Z</time>
        <extensions>
          <ns3:TrackPointExtension>
            <ns3:hr>159</ns3:hr>
            <ns3:cad>82</ns3:cad>
          </ns3:TrackPointExtension>
        </extensions>
      </trkpt>
      <trkpt lat="47.545402608811855316162109375" lon="11.04884983040392398834228515625">
        <ele>1595.199951171875</ele>
        <time>2026-09-01T08:54:32.000Z</time>
        <extensions>
          <ns3:TrackPointExtension>
            <ns3:hr>159</ns3:hr>
            <ns3:cad>82</ns3:cad>
          </ns3:TrackPointExtension>
        </extensions>
      </trkpt>
      <trkpt lat="47.54541694186627864837646484375" lon="11.0488747246563434600830078125">
        <ele>1595.5999755859375</ele>
        <time>2026-09-01T08:54:33.000Z</time>
        <extensions>
          <ns3:TrackPointExtension>
            <ns3:hr>159</ns3:hr>
            <ns3:cad>82</ns3:cad>
          </ns3:TrackPointExtension>
        </extensions>
      </trkpt>
      <trkpt lat="47.54543253220617771148681640625" lon="11.04889878071844577789306640625">
        <ele>1596</ele>
        <time>2026-09-01T08:54:34.000Z</time>
        <extensions>
          <ns3:TrackPointExtension>
            <ns3:hr>159</ns3:hr>
            <ns3:cad>82</ns3:cad>
          </ns3:TrackPointExtension>
        </extensions>
      </trkpt>
      <trkpt lat="47.5454473681747913360595703125" lon="11.0489196516573429107666015625">
        <ele>1596.4000244140625</ele>
        <time>2026-09-01T08:54:35.000Z</time>
        <extensions>
          <ns3:TrackPointExtension>
            <ns3:hr>159</ns3:hr>
            <ns3:cad>82</ns3:cad>
          </ns3:TrackPointExtension>
        </extensions>
      </trkpt>
      <trkpt lat="47.54545667208731174468994140625" lon="11.04893566109240055084228515625">
        <ele>1596.800048828125</ele>
        <time>2026-09-01T08:54:36.000Z</time>
        <extensions>
          <ns3:TrackPointExtension>
            <ns3:hr>160</ns3:hr>
            <ns3:cad>81</ns3:cad>
          </ns3:TrackPointExtension>
        </extensions>
      </trkpt>
      <trkpt lat="47.54546622745692729949951171875" lon="11.0489545203745365142822265625">
        <ele>1597.199951171875</ele>
        <time>2026-09-01T08:54:37.000Z</time>
        <extensions>
          <ns3:TrackPointExtension>
            <ns3:hr>160</ns3:hr>
            <ns3:cad>81</ns3:cad>
          </ns3:TrackPointExtension>
        </extensions>
      </trkpt>
      <trkpt lat="47.5454671494662761688232421875" lon="11.04897455312311649322509765625">
        <ele>1597.5999755859375</ele>
        <time>2026-09-01T08:54:38.000Z</time>
        <extensions>
          <ns3:TrackPointExtension>
            <ns3:hr>160</ns3:hr>
            <ns3:cad>81</ns3:cad>
          </ns3:TrackPointExtension>
        </extensions>
      </trkpt>
      <trkpt lat="47.54547192715108394622802734375" lon="11.04898989200592041015625">
        <ele>1597.800048828125</ele>
        <time>2026-09-01T08:54:39.000Z</time>
        <extensions>
          <ns3:TrackPointExtension>
            <ns3:hr>160</ns3:hr>
            <ns3:cad>0</ns3:cad>
          </ns3:TrackPointExtension>
        </extensions>
      </trkpt>
      <trkpt lat="47.54547880031168460845947265625" lon="11.04900657199323177337646484375">
        <ele>1598</ele>
        <time>2026-09-01T08:54:40.000Z</time>
        <extensions>
          <ns3:TrackPointExtension>
            <ns3:hr>159</ns3:hr>
            <ns3:cad>0</ns3:cad>
          </ns3:TrackPointExtension>
        </extensions>
      </trkpt>
      <trkpt lat="47.5454949773848056793212890625" lon="11.0490172170102596282958984375">
        <ele>1598.199951171875</ele>
        <time>2026-09-01T08:54:41.000Z</time>
        <extensions>
          <ns3:TrackPointExtension>
            <ns3:hr>160</ns3:hr>
            <ns3:cad>55</ns3:cad>
          </ns3:TrackPointExtension>
        </extensions>
      </trkpt>
      <trkpt lat="47.54550553858280181884765625" lon="11.04903356172144412994384765625">
        <ele>1598.4000244140625</ele>
        <time>2026-09-01T08:54:42.000Z</time>
        <extensions>
          <ns3:TrackPointExtension>
            <ns3:hr>159</ns3:hr>
            <ns3:cad>55</ns3:cad>
          </ns3:TrackPointExtension>
        </extensions>
      </trkpt>
      <trkpt lat="47.54551568068563938140869140625" lon="11.04903976432979106903076171875">
        <ele>1598.800048828125</ele>
        <time>2026-09-01T08:54:43.000Z</time>
        <extensions>
          <ns3:TrackPointExtension>
            <ns3:hr>159</ns3:hr>
            <ns3:cad>55</ns3:cad>
          </ns3:TrackPointExtension>
        </extensions>
      </trkpt>
      <trkpt lat="47.54552473314106464385986328125" lon="11.0490537621080875396728515625">
        <ele>1599</ele>
        <time>2026-09-01T08:54:44.000Z</time>
        <extensions>
          <ns3:TrackPointExtension>
            <ns3:hr>159</ns3:hr>
            <ns3:cad>55</ns3:cad>
          </ns3:TrackPointExtension>
        </extensions>
      </trkpt>
      <trkpt lat="47.54553512670099735260009765625" lon="11.0490631498396396636962890625">
        <ele>1599.4000244140625</ele>
        <time>2026-09-01T08:54:45.000Z</time>
        <extensions>
          <ns3:TrackPointExtension>
            <ns3:hr>160</ns3:hr>
            <ns3:cad>55</ns3:cad>
          </ns3:TrackPointExtension>
        </extensions>
      </trkpt>
      <trkpt lat="47.54554845392704010009765625" lon="11.049073040485382080078125">
        <ele>1599.5999755859375</ele>
        <time>2026-09-01T08:54:46.000Z</time>
        <extensions>
          <ns3:TrackPointExtension>
            <ns3:hr>160</ns3:hr>
            <ns3:cad>54</ns3:cad>
          </ns3:TrackPointExtension>
        </extensions>
      </trkpt>
      <trkpt lat="47.5455553270876407623291015625" lon="11.04908519424498081207275390625">
        <ele>1599.800048828125</ele>
        <time>2026-09-01T08:54:47.000Z</time>
        <extensions>
          <ns3:TrackPointExtension>
            <ns3:hr>162</ns3:hr>
            <ns3:cad>53</ns3:cad>
          </ns3:TrackPointExtension>
        </extensions>
      </trkpt>
      <trkpt lat="47.54556479863822460174560546875" lon="11.04909516870975494384765625">
        <ele>1600</ele>
        <time>2026-09-01T08:54:48.000Z</time>
        <extensions>
          <ns3:TrackPointExtension>
            <ns3:hr>163</ns3:hr>
            <ns3:cad>53</ns3:cad>
          </ns3:TrackPointExtension>
        </extensions>
      </trkpt>
      <trkpt lat="47.54557200707495212554931640625" lon="11.0491060651838779449462890625">
        <ele>1600</ele>
        <time>2026-09-01T08:54:49.000Z</time>
        <extensions>
          <ns3:TrackPointExtension>
            <ns3:hr>165</ns3:hr>
            <ns3:cad>53</ns3:cad>
          </ns3:TrackPointExtension>
        </extensions>
      </trkpt>
      <trkpt lat="47.54558038897812366485595703125" lon="11.049118973314762115478515625">
        <ele>1600.199951171875</ele>
        <time>2026-09-01T08:54:50.000Z</time>
        <extensions>
          <ns3:TrackPointExtension>
            <ns3:hr>167</ns3:hr>
            <ns3:cad>54</ns3:cad>
          </ns3:TrackPointExtension>
        </extensions>
      </trkpt>
      <trkpt lat="47.545587681233882904052734375" lon="11.0491315461695194244384765625">
        <ele>1600.199951171875</ele>
        <time>2026-09-01T08:54:51.000Z</time>
        <extensions>
          <ns3:TrackPointExtension>
            <ns3:hr>167</ns3:hr>
            <ns3:cad>54</ns3:cad>
          </ns3:TrackPointExtension>
        </extensions>
      </trkpt>
      <trkpt lat="47.5455974042415618896484375" lon="11.0491486452519893646240234375">
        <ele>1600.4000244140625</ele>
        <time>2026-09-01T08:54:52.000Z</time>
        <extensions>
          <ns3:TrackPointExtension>
            <ns3:hr>167</ns3:hr>
            <ns3:cad>54</ns3:cad>
          </ns3:TrackPointExtension>
        </extensions>
      </trkpt>
      <trkpt lat="47.54560251720249652862548828125" lon="11.04916616342961788177490234375">
        <ele>1600.800048828125</ele>
        <time>2026-09-01T08:54:53.000Z</time>
        <extensions>
          <ns3:TrackPointExtension>
            <ns3:hr>166</ns3:hr>
            <ns3:cad>53</ns3:cad>
          </ns3:TrackPointExtension>
        </extensions>
      </trkpt>
      <trkpt lat="47.54560486413538455963134765625" lon="11.04918242432177066802978515625">
        <ele>1601</ele>
        <time>2026-09-01T08:54:54.000Z</time>
        <extensions>
          <ns3:TrackPointExtension>
            <ns3:hr>166</ns3:hr>
            <ns3:cad>52</ns3:cad>
          </ns3:TrackPointExtension>
        </extensions>
      </trkpt>
      <trkpt lat="47.5456069596111774444580078125" lon="11.04919935576617717742919921875">
        <ele>1601.199951171875</ele>
        <time>2026-09-01T08:54:55.000Z</time>
        <extensions>
          <ns3:TrackPointExtension>
            <ns3:hr>166</ns3:hr>
            <ns3:cad>51</ns3:cad>
          </ns3:TrackPointExtension>
        </extensions>
      </trkpt>
      <trkpt lat="47.5456106476485729217529296875" lon="11.04921679012477397918701171875">
        <ele>1601.4000244140625</ele>
        <time>2026-09-01T08:54:56.000Z</time>
        <extensions>
          <ns3:TrackPointExtension>
            <ns3:hr>166</ns3:hr>
            <ns3:cad>49</ns3:cad>
          </ns3:TrackPointExtension>
        </extensions>
      </trkpt>
      <trkpt lat="47.5456116534769535064697265625" lon="11.0492341406643390655517578125">
        <ele>1601.5999755859375</ele>
        <time>2026-09-01T08:54:57.000Z</time>
        <extensions>
          <ns3:TrackPointExtension>
            <ns3:hr>166</ns3:hr>
            <ns3:cad>48</ns3:cad>
          </ns3:TrackPointExtension>
        </extensions>
      </trkpt>
      <trkpt lat="47.54561483860015869140625" lon="11.04925400577485561370849609375">
        <ele>1601.800048828125</ele>
        <time>2026-09-01T08:54:58.000Z</time>
        <extensions>
          <ns3:TrackPointExtension>
            <ns3:hr>166</ns3:hr>
            <ns3:cad>48</ns3:cad>
          </ns3:TrackPointExtension>
        </extensions>
      </trkpt>
      <trkpt lat="47.54561877809464931488037109375" lon="11.04928116314113140106201171875">
        <ele>1602</ele>
        <time>2026-09-01T08:54:59.000Z</time>
        <extensions>
          <ns3:TrackPointExtension>
            <ns3:hr>166</ns3:hr>
            <ns3:cad>50</ns3:cad>
          </ns3:TrackPointExtension>
        </extensions>
      </trkpt>
      <trkpt lat="47.54562045447528362274169921875" lon="11.049295999109745025634765625">
        <ele>1602.199951171875</ele>
        <time>2026-09-01T08:55:00.000Z</time>
        <extensions>
          <ns3:TrackPointExtension>
            <ns3:hr>166</ns3:hr>
            <ns3:cad>50</ns3:cad>
          </ns3:TrackPointExtension>
        </extensions>
      </trkpt>
      <trkpt lat="47.54563788883388042449951171875" lon="11.04928669519722461700439453125">
        <ele>1602.4000244140625</ele>
        <time>2026-09-01T08:55:01.000Z</time>
        <extensions>
          <ns3:TrackPointExtension>
            <ns3:hr>166</ns3:hr>
            <ns3:cad>51</ns3:cad>
          </ns3:TrackPointExtension>
        </extensions>
      </trkpt>
      <trkpt lat="47.54564459435641765594482421875" lon="11.0492904670536518096923828125">
        <ele>1602.800048828125</ele>
        <time>2026-09-01T08:55:02.000Z</time>
        <extensions>
          <ns3:TrackPointExtension>
            <ns3:hr>166</ns3:hr>
            <ns3:cad>54</ns3:cad>
          </ns3:TrackPointExtension>
        </extensions>
      </trkpt>
      <trkpt lat="47.54565398208796977996826171875" lon="11.04928485117852687835693359375">
        <ele>1603</ele>
        <time>2026-09-01T08:55:03.000Z</time>
        <extensions>
          <ns3:TrackPointExtension>
            <ns3:hr>166</ns3:hr>
            <ns3:cad>55</ns3:cad>
          </ns3:TrackPointExtension>
        </extensions>
      </trkpt>
      <trkpt lat="47.54565733484923839569091796875" lon="11.04929088614881038665771484375">
        <ele>1603.199951171875</ele>
        <time>2026-09-01T08:55:04.000Z</time>
        <extensions>
          <ns3:TrackPointExtension>
            <ns3:hr>165</ns3:hr>
            <ns3:cad>55</ns3:cad>
          </ns3:TrackPointExtension>
        </extensions>
      </trkpt>
      <trkpt lat="47.54566320218145847320556640625" lon="11.0492965020239353179931640625">
        <ele>1603.199951171875</ele>
        <time>2026-09-01T08:55:05.000Z</time>
        <extensions>
          <ns3:TrackPointExtension>
            <ns3:hr>165</ns3:hr>
            <ns3:cad>55</ns3:cad>
          </ns3:TrackPointExtension>
        </extensions>
      </trkpt>
      <trkpt lat="47.54567183554172515869140625" lon="11.04930044151842594146728515625">
        <ele>1603.199951171875</ele>
        <time>2026-09-01T08:55:06.000Z</time>
        <extensions>
          <ns3:TrackPointExtension>
            <ns3:hr>164</ns3:hr>
            <ns3:cad>55</ns3:cad>
          </ns3:TrackPointExtension>
        </extensions>
      </trkpt>
      <trkpt lat="47.5456805527210235595703125" lon="11.04930362664163112640380859375">
        <ele>1603.4000244140625</ele>
        <time>2026-09-01T08:55:07.000Z</time>
        <extensions>
          <ns3:TrackPointExtension>
            <ns3:hr>164</ns3:hr>
            <ns3:cad>50</ns3:cad>
          </ns3:TrackPointExtension>
        </extensions>
      </trkpt>
      <trkpt lat="47.54568851552903652191162109375" lon="11.04930664412677288055419921875">
        <ele>1603.5999755859375</ele>
        <time>2026-09-01T08:55:08.000Z</time>
        <extensions>
          <ns3:TrackPointExtension>
            <ns3:hr>164</ns3:hr>
            <ns3:cad>50</ns3:cad>
          </ns3:TrackPointExtension>
        </extensions>
      </trkpt>
      <trkpt lat="47.54569061100482940673828125" lon="11.04931385256350040435791015625">
        <ele>1604</ele>
        <time>2026-09-01T08:55:09.000Z</time>
        <extensions>
          <ns3:TrackPointExtension>
            <ns3:hr>163</ns3:hr>
            <ns3:cad>50</ns3:cad>
          </ns3:TrackPointExtension>
        </extensions>
      </trkpt>
      <trkpt lat="47.5456931255757808685302734375" lon="11.04932776652276515960693359375">
        <ele>1604.4000244140625</ele>
        <time>2026-09-01T08:55:10.000Z</time>
        <extensions>
          <ns3:TrackPointExtension>
            <ns3:hr>163</ns3:hr>
            <ns3:cad>50</ns3:cad>
          </ns3:TrackPointExtension>
        </extensions>
      </trkpt>
      <trkpt lat="47.545697987079620361328125" lon="11.0493360646069049835205078125">
        <ele>1604.5999755859375</ele>
        <time>2026-09-01T08:55:11.000Z</time>
        <extensions>
          <ns3:TrackPointExtension>
            <ns3:hr>163</ns3:hr>
            <ns3:cad>53</ns3:cad>
          </ns3:TrackPointExtension>
        </extensions>
      </trkpt>
      <trkpt lat="47.54570460878312587738037109375" lon="11.049348302185535430908203125">
        <ele>1605</ele>
        <time>2026-09-01T08:55:12.000Z</time>
        <extensions>
          <ns3:TrackPointExtension>
            <ns3:hr>163</ns3:hr>
            <ns3:cad>53</ns3:cad>
          </ns3:TrackPointExtension>
        </extensions>
      </trkpt>
      <trkpt lat="47.54571131430566310882568359375" lon="11.049352325499057769775390625">
        <ele>1605.199951171875</ele>
        <time>2026-09-01T08:55:13.000Z</time>
        <extensions>
          <ns3:TrackPointExtension>
            <ns3:hr>163</ns3:hr>
            <ns3:cad>53</ns3:cad>
          </ns3:TrackPointExtension>
        </extensions>
      </trkpt>
      <trkpt lat="47.54571936093270778656005859375" lon="11.04935827665030956268310546875">
        <ele>1605.4000244140625</ele>
        <time>2026-09-01T08:55:14.000Z</time>
        <extensions>
          <ns3:TrackPointExtension>
            <ns3:hr>162</ns3:hr>
            <ns3:cad>51</ns3:cad>
          </ns3:TrackPointExtension>
        </extensions>
      </trkpt>
      <trkpt lat="47.545728497207164764404296875" lon="11.04936246760189533233642578125">
        <ele>1605.5999755859375</ele>
        <time>2026-09-01T08:55:15.000Z</time>
        <extensions>
          <ns3:TrackPointExtension>
            <ns3:hr>163</ns3:hr>
            <ns3:cad>51</ns3:cad>
          </ns3:TrackPointExtension>
        </extensions>
      </trkpt>
      <trkpt lat="47.5457340292632579803466796875" lon="11.04937152005732059478759765625">
        <ele>1605.800048828125</ele>
        <time>2026-09-01T08:55:16.000Z</time>
        <extensions>
          <ns3:TrackPointExtension>
            <ns3:hr>162</ns3:hr>
            <ns3:cad>51</ns3:cad>
          </ns3:TrackPointExtension>
        </extensions>
      </trkpt>
      <trkpt lat="47.5457414053380489349365234375" lon="11.04937772266566753387451171875">
        <ele>1606</ele>
        <time>2026-09-01T08:55:17.000Z</time>
        <extensions>
          <ns3:TrackPointExtension>
            <ns3:hr>162</ns3:hr>
            <ns3:cad>51</ns3:cad>
          </ns3:TrackPointExtension>
        </extensions>
      </trkpt>
      <trkpt lat="47.5457531400024890899658203125" lon="11.0493873618543148040771484375">
        <ele>1606</ele>
        <time>2026-09-01T08:55:18.000Z</time>
        <extensions>
          <ns3:TrackPointExtension>
            <ns3:hr>162</ns3:hr>
            <ns3:cad>51</ns3:cad>
          </ns3:TrackPointExtension>
        </extensions>
      </trkpt>
      <trkpt lat="47.5457635335624217987060546875" lon="11.04939666576683521270751953125">
        <ele>1606</ele>
        <time>2026-09-01T08:55:19.000Z</time>
        <extensions>
          <ns3:TrackPointExtension>
            <ns3:hr>162</ns3:hr>
            <ns3:cad>52</ns3:cad>
          </ns3:TrackPointExtension>
        </extensions>
      </trkpt>
      <trkpt lat="47.545773424208164215087890625" lon="11.04940320365130901336669921875">
        <ele>1606</ele>
        <time>2026-09-01T08:55:20.000Z</time>
        <extensions>
          <ns3:TrackPointExtension>
            <ns3:hr>162</ns3:hr>
            <ns3:cad>53</ns3:cad>
          </ns3:TrackPointExtension>
        </extensions>
      </trkpt>
      <trkpt lat="47.54578188993036746978759765625" lon="11.04940471239387989044189453125">
        <ele>1605.800048828125</ele>
        <time>2026-09-01T08:55:21.000Z</time>
        <extensions>
          <ns3:TrackPointExtension>
            <ns3:hr>161</ns3:hr>
            <ns3:cad>53</ns3:cad>
          </ns3:TrackPointExtension>
        </extensions>
      </trkpt>
      <trkpt lat="47.545792199671268463134765625" lon="11.0494051314890384674072265625">
        <ele>1605.800048828125</ele>
        <time>2026-09-01T08:55:22.000Z</time>
        <extensions>
          <ns3:TrackPointExtension>
            <ns3:hr>161</ns3:hr>
            <ns3:cad>53</ns3:cad>
          </ns3:TrackPointExtension>
        </extensions>
      </trkpt>
      <trkpt lat="47.54579714499413967132568359375" lon="11.04940521530807018280029296875">
        <ele>1606</ele>
        <time>2026-09-01T08:55:23.000Z</time>
        <extensions>
          <ns3:TrackPointExtension>
            <ns3:hr>160</ns3:hr>
            <ns3:cad>52</ns3:cad>
          </ns3:TrackPointExtension>
        </extensions>
      </trkpt>
      <trkpt lat="47.54581407643854618072509765625" lon="11.04940320365130901336669921875">
        <ele>1606.4000244140625</ele>
        <time>2026-09-01T08:55:24.000Z</time>
        <extensions>
          <ns3:TrackPointExtension>
            <ns3:hr>159</ns3:hr>
            <ns3:cad>52</ns3:cad>
          </ns3:TrackPointExtension>
        </extensions>
      </trkpt>
      <trkpt lat="47.54581927321851253509521484375" lon="11.0494042932987213134765625">
        <ele>1606.5999755859375</ele>
        <time>2026-09-01T08:55:25.000Z</time>
        <extensions>
          <ns3:TrackPointExtension>
            <ns3:hr>158</ns3:hr>
            <ns3:cad>53</ns3:cad>
          </ns3:TrackPointExtension>
        </extensions>
      </trkpt>
      <trkpt lat="47.54582866095006465911865234375" lon="11.04940496385097503662109375">
        <ele>1607</ele>
        <time>2026-09-01T08:55:26.000Z</time>
        <extensions>
          <ns3:TrackPointExtension>
            <ns3:hr>157</ns3:hr>
            <ns3:cad>53</ns3:cad>
          </ns3:TrackPointExtension>
        </extensions>
      </trkpt>
      <trkpt lat="47.5458347797393798828125" lon="11.04940638877451419830322265625">
        <ele>1607.199951171875</ele>
        <time>2026-09-01T08:55:27.000Z</time>
        <extensions>
          <ns3:TrackPointExtension>
            <ns3:hr>156</ns3:hr>
            <ns3:cad>53</ns3:cad>
          </ns3:TrackPointExtension>
        </extensions>
      </trkpt>
      <trkpt lat="47.54583871923387050628662109375" lon="11.04941158555448055267333984375">
        <ele>1607.5999755859375</ele>
        <time>2026-09-01T08:55:28.000Z</time>
        <extensions>
          <ns3:TrackPointExtension>
            <ns3:hr>156</ns3:hr>
            <ns3:cad>50</ns3:cad>
          </ns3:TrackPointExtension>
        </extensions>
      </trkpt>
      <trkpt lat="47.5458439998328685760498046875" lon="11.04941837489604949951171875">
        <ele>1607.800048828125</ele>
        <time>2026-09-01T08:55:29.000Z</time>
        <extensions>
          <ns3:TrackPointExtension>
            <ns3:hr>155</ns3:hr>
            <ns3:cad>49</ns3:cad>
          </ns3:TrackPointExtension>
        </extensions>
      </trkpt>
      <trkpt lat="47.54584911279380321502685546875" lon="11.049423404037952423095703125">
        <ele>1608.199951171875</ele>
        <time>2026-09-01T08:55:30.000Z</time>
        <extensions>
          <ns3:TrackPointExtension>
            <ns3:hr>155</ns3:hr>
            <ns3:cad>49</ns3:cad>
          </ns3:TrackPointExtension>
        </extensions>
      </trkpt>
      <trkpt lat="47.545855902135372161865234375" lon="11.04942784644663333892822265625">
        <ele>1608.4000244140625</ele>
        <time>2026-09-01T08:55:31.000Z</time>
        <extensions>
          <ns3:TrackPointExtension>
            <ns3:hr>155</ns3:hr>
            <ns3:cad>48</ns3:cad>
          </ns3:TrackPointExtension>
        </extensions>
      </trkpt>
      <trkpt lat="47.54586805589497089385986328125" lon="11.04943136684596538543701171875">
        <ele>1608.800048828125</ele>
        <time>2026-09-01T08:55:32.000Z</time>
        <extensions>
          <ns3:TrackPointExtension>
            <ns3:hr>154</ns3:hr>
            <ns3:cad>48</ns3:cad>
          </ns3:TrackPointExtension>
        </extensions>
      </trkpt>
      <trkpt lat="47.5458738394081592559814453125" lon="11.04943958111107349395751953125">
        <ele>1609</ele>
        <time>2026-09-01T08:55:33.000Z</time>
        <extensions>
          <ns3:TrackPointExtension>
            <ns3:hr>154</ns3:hr>
            <ns3:cad>47</ns3:cad>
          </ns3:TrackPointExtension>
        </extensions>
      </trkpt>
      <trkpt lat="47.54587794654071331024169921875" lon="11.04945265688002109527587890625">
        <ele>1609.4000244140625</ele>
        <time>2026-09-01T08:55:34.000Z</time>
        <extensions>
          <ns3:TrackPointExtension>
            <ns3:hr>153</ns3:hr>
            <ns3:cad>47</ns3:cad>
          </ns3:TrackPointExtension>
        </extensions>
      </trkpt>
      <trkpt lat="47.5458889268338680267333984375" lon="11.0494554229080677032470703125">
        <ele>1609.800048828125</ele>
        <time>2026-09-01T08:55:35.000Z</time>
        <extensions>
          <ns3:TrackPointExtension>
            <ns3:hr>153</ns3:hr>
            <ns3:cad>47</ns3:cad>
          </ns3:TrackPointExtension>
        </extensions>
      </trkpt>
      <trkpt lat="47.5459031760692596435546875" lon="11.04945466853678226470947265625">
        <ele>1610.199951171875</ele>
        <time>2026-09-01T08:55:36.000Z</time>
        <extensions>
          <ns3:TrackPointExtension>
            <ns3:hr>153</ns3:hr>
            <ns3:cad>47</ns3:cad>
          </ns3:TrackPointExtension>
        </extensions>
      </trkpt>
      <trkpt lat="47.5459157489240169525146484375" lon="11.0494579374790191650390625">
        <ele>1610.4000244140625</ele>
        <time>2026-09-01T08:55:37.000Z</time>
        <extensions>
          <ns3:TrackPointExtension>
            <ns3:hr>153</ns3:hr>
            <ns3:cad>49</ns3:cad>
          </ns3:TrackPointExtension>
        </extensions>
      </trkpt>
      <trkpt lat="47.545925639569759368896484375" lon="11.0494718514382839202880859375">
        <ele>1610.800048828125</ele>
        <time>2026-09-01T08:55:38.000Z</time>
        <extensions>
          <ns3:TrackPointExtension>
            <ns3:hr>154</ns3:hr>
            <ns3:cad>49</ns3:cad>
          </ns3:TrackPointExtension>
        </extensions>
      </trkpt>
      <trkpt lat="47.54593796096742153167724609375" lon="11.04948232881724834442138671875">
        <ele>1611</ele>
        <time>2026-09-01T08:55:39.000Z</time>
        <extensions>
          <ns3:TrackPointExtension>
            <ns3:hr>154</ns3:hr>
            <ns3:cad>0</ns3:cad>
          </ns3:TrackPointExtension>
        </extensions>
      </trkpt>
      <trkpt lat="47.5459465943276882171630859375" lon="11.04949138127267360687255859375">
        <ele>1611.199951171875</ele>
        <time>2026-09-01T08:55:40.000Z</time>
        <extensions>
          <ns3:TrackPointExtension>
            <ns3:hr>155</ns3:hr>
            <ns3:cad>0</ns3:cad>
          </ns3:TrackPointExtension>
        </extensions>
      </trkpt>
      <trkpt lat="47.54595556296408176422119140625" lon="11.049501188099384307861328125">
        <ele>1611.5999755859375</ele>
        <time>2026-09-01T08:55:41.000Z</time>
        <extensions>
          <ns3:TrackPointExtension>
            <ns3:hr>155</ns3:hr>
            <ns3:cad>49</ns3:cad>
          </ns3:TrackPointExtension>
        </extensions>
      </trkpt>
      <trkpt lat="47.54596444778144359588623046875" lon="11.04950864799320697784423828125">
        <ele>1612</ele>
        <time>2026-09-01T08:55:42.000Z</time>
        <extensions>
          <ns3:TrackPointExtension>
            <ns3:hr>155</ns3:hr>
            <ns3:cad>50</ns3:cad>
          </ns3:TrackPointExtension>
        </extensions>
      </trkpt>
      <trkpt lat="47.5459754280745983123779296875" lon="11.04951585642993450164794921875">
        <ele>1612.5999755859375</ele>
        <time>2026-09-01T08:55:43.000Z</time>
        <extensions>
          <ns3:TrackPointExtension>
            <ns3:hr>154</ns3:hr>
            <ns3:cad>50</ns3:cad>
          </ns3:TrackPointExtension>
        </extensions>
      </trkpt>
      <trkpt lat="47.545988671481609344482421875" lon="11.04951300658285617828369140625">
        <ele>1613.199951171875</ele>
        <time>2026-09-01T08:55:44.000Z</time>
        <extensions>
          <ns3:TrackPointExtension>
            <ns3:hr>155</ns3:hr>
            <ns3:cad>48</ns3:cad>
          </ns3:TrackPointExtension>
        </extensions>
      </trkpt>
      <trkpt lat="47.54599579609930515289306640625" lon="11.04951451532542705535888671875">
        <ele>1613.5999755859375</ele>
        <time>2026-09-01T08:55:45.000Z</time>
        <extensions>
          <ns3:TrackPointExtension>
            <ns3:hr>155</ns3:hr>
            <ns3:cad>48</ns3:cad>
          </ns3:TrackPointExtension>
        </extensions>
      </trkpt>
      <trkpt lat="47.546006105840206146240234375" lon="11.04951334185898303985595703125">
        <ele>1613.800048828125</ele>
        <time>2026-09-01T08:55:46.000Z</time>
        <extensions>
          <ns3:TrackPointExtension>
            <ns3:hr>155</ns3:hr>
            <ns3:cad>48</ns3:cad>
          </ns3:TrackPointExtension>
        </extensions>
      </trkpt>
      <trkpt lat="47.54602261818945407867431640625" lon="11.049503199756145477294921875">
        <ele>1613.800048828125</ele>
        <time>2026-09-01T08:55:47.000Z</time>
        <extensions>
          <ns3:TrackPointExtension>
            <ns3:hr>156</ns3:hr>
            <ns3:cad>48</ns3:cad>
          </ns3:TrackPointExtension>
        </extensions>
      </trkpt>
      <trkpt lat="47.54603116773068904876708984375" lon="11.0494845919311046600341796875">
        <ele>1613.800048828125</ele>
        <time>2026-09-01T08:55:48.000Z</time>
        <extensions>
          <ns3:TrackPointExtension>
            <ns3:hr>156</ns3:hr>
            <ns3:cad>48</ns3:cad>
          </ns3:TrackPointExtension>
        </extensions>
      </trkpt>
      <trkpt lat="47.546036951243877410888671875" lon="11.049479059875011444091796875">
        <ele>1613.800048828125</ele>
        <time>2026-09-01T08:55:49.000Z</time>
        <extensions>
          <ns3:TrackPointExtension>
            <ns3:hr>156</ns3:hr>
            <ns3:cad>50</ns3:cad>
          </ns3:TrackPointExtension>
        </extensions>
      </trkpt>
      <trkpt lat="47.546046338975429534912109375" lon="11.0494820773601531982421875">
        <ele>1614</ele>
        <time>2026-09-01T08:55:50.000Z</time>
        <extensions>
          <ns3:TrackPointExtension>
            <ns3:hr>157</ns3:hr>
            <ns3:cad>50</ns3:cad>
          </ns3:TrackPointExtension>
        </extensions>
      </trkpt>
      <trkpt lat="47.54605136811733245849609375" lon="11.0494912974536418914794921875">
        <ele>1614.199951171875</ele>
        <time>2026-09-01T08:55:51.000Z</time>
        <extensions>
          <ns3:TrackPointExtension>
            <ns3:hr>157</ns3:hr>
            <ns3:cad>50</ns3:cad>
          </ns3:TrackPointExtension>
        </extensions>
      </trkpt>
      <trkpt lat="47.5460569001734256744384765625" lon="11.04950361885130405426025390625">
        <ele>1614.5999755859375</ele>
        <time>2026-09-01T08:55:52.000Z</time>
        <extensions>
          <ns3:TrackPointExtension>
            <ns3:hr>158</ns3:hr>
            <ns3:cad>50</ns3:cad>
          </ns3:TrackPointExtension>
        </extensions>
      </trkpt>
      <trkpt lat="47.54605539143085479736328125" lon="11.0495191253721714019775390625">
        <ele>1615.199951171875</ele>
        <time>2026-09-01T08:55:53.000Z</time>
        <extensions>
          <ns3:TrackPointExtension>
            <ns3:hr>158</ns3:hr>
            <ns3:cad>50</ns3:cad>
          </ns3:TrackPointExtension>
        </extensions>
      </trkpt>
      <trkpt lat="47.54606117494404315948486328125" lon="11.04952792637050151824951171875">
        <ele>1615.5999755859375</ele>
        <time>2026-09-01T08:55:54.000Z</time>
        <extensions>
          <ns3:TrackPointExtension>
            <ns3:hr>158</ns3:hr>
            <ns3:cad>50</ns3:cad>
          </ns3:TrackPointExtension>
        </extensions>
      </trkpt>
      <trkpt lat="47.54606301896274089813232421875" lon="11.04953848756849765777587890625">
        <ele>1616</ele>
        <time>2026-09-01T08:55:55.000Z</time>
        <extensions>
          <ns3:TrackPointExtension>
            <ns3:hr>159</ns3:hr>
            <ns3:cad>50</ns3:cad>
          </ns3:TrackPointExtension>
        </extensions>
      </trkpt>
      <trkpt lat="47.5460656173527240753173828125" lon="11.0495459474623203277587890625">
        <ele>1616.4000244140625</ele>
        <time>2026-09-01T08:55:56.000Z</time>
        <extensions>
          <ns3:TrackPointExtension>
            <ns3:hr>159</ns3:hr>
            <ns3:cad>47</ns3:cad>
          </ns3:TrackPointExtension>
        </extensions>
      </trkpt>
      <trkpt lat="47.546067126095294952392578125" lon="11.04954971931874752044677734375">
        <ele>1616.800048828125</ele>
        <time>2026-09-01T08:55:57.000Z</time>
        <extensions>
          <ns3:TrackPointExtension>
            <ns3:hr>159</ns3:hr>
            <ns3:cad>47</ns3:cad>
          </ns3:TrackPointExtension>
        </extensions>
      </trkpt>
      <trkpt lat="47.54607089795172214508056640625" lon="11.04955860413610935211181640625">
        <ele>1617.199951171875</ele>
        <time>2026-09-01T08:55:58.000Z</time>
        <extensions>
          <ns3:TrackPointExtension>
            <ns3:hr>158</ns3:hr>
            <ns3:cad>47</ns3:cad>
          </ns3:TrackPointExtension>
        </extensions>
      </trkpt>
      <trkpt lat="47.54607743583619594573974609375" lon="11.04956329800188541412353515625">
        <ele>1617.4000244140625</ele>
        <time>2026-09-01T08:55:59.000Z</time>
        <extensions>
          <ns3:TrackPointExtension>
            <ns3:hr>158</ns3:hr>
            <ns3:cad>47</ns3:cad>
          </ns3:TrackPointExtension>
        </extensions>
      </trkpt>
      <trkpt lat="47.54607978276908397674560546875" lon="11.049571596086025238037109375">
        <ele>1617.800048828125</ele>
        <time>2026-09-01T08:56:00.000Z</time>
        <extensions>
          <ns3:TrackPointExtension>
            <ns3:hr>158</ns3:hr>
            <ns3:cad>46</ns3:cad>
          </ns3:TrackPointExtension>
        </extensions>
      </trkpt>
      <trkpt lat="47.54607877694070339202880859375" lon="11.04956715367734432220458984375">
        <ele>1618</ele>
        <time>2026-09-01T08:56:01.000Z</time>
        <extensions>
          <ns3:TrackPointExtension>
            <ns3:hr>159</ns3:hr>
            <ns3:cad>44</ns3:cad>
          </ns3:TrackPointExtension>
        </extensions>
      </trkpt>
      <trkpt lat="47.54608363844454288482666015625" lon="11.04956530965864658355712890625">
        <ele>1618.199951171875</ele>
        <time>2026-09-01T08:56:02.000Z</time>
        <extensions>
          <ns3:TrackPointExtension>
            <ns3:hr>159</ns3:hr>
            <ns3:cad>44</ns3:cad>
          </ns3:TrackPointExtension>
        </extensions>
      </trkpt>
      <trkpt lat="47.5460880808532238006591796875" lon="11.04956564493477344512939453125">
        <ele>1618.4000244140625</ele>
        <time>2026-09-01T08:56:03.000Z</time>
        <extensions>
          <ns3:TrackPointExtension>
            <ns3:hr>159</ns3:hr>
            <ns3:cad>44</ns3:cad>
          </ns3:TrackPointExtension>
        </extensions>
      </trkpt>
      <trkpt lat="47.54609352909028530120849609375" lon="11.04956363327801227569580078125">
        <ele>1618.5999755859375</ele>
        <time>2026-09-01T08:56:04.000Z</time>
        <extensions>
          <ns3:TrackPointExtension>
            <ns3:hr>159</ns3:hr>
            <ns3:cad>44</ns3:cad>
          </ns3:TrackPointExtension>
        </extensions>
      </trkpt>
      <trkpt lat="47.54609830677509307861328125" lon="11.04956614784896373748779296875">
        <ele>1618.800048828125</ele>
        <time>2026-09-01T08:56:05.000Z</time>
        <extensions>
          <ns3:TrackPointExtension>
            <ns3:hr>159</ns3:hr>
            <ns3:cad>44</ns3:cad>
          </ns3:TrackPointExtension>
        </extensions>
      </trkpt>
      <trkpt lat="47.546107359230518341064453125" lon="11.04956715367734432220458984375">
        <ele>1619</ele>
        <time>2026-09-01T08:56:06.000Z</time>
        <extensions>
          <ns3:TrackPointExtension>
            <ns3:hr>159</ns3:hr>
            <ns3:cad>44</ns3:cad>
          </ns3:TrackPointExtension>
        </extensions>
      </trkpt>
      <trkpt lat="47.54611280746757984161376953125" lon="11.0495714284479618072509765625">
        <ele>1619.199951171875</ele>
        <time>2026-09-01T08:56:07.000Z</time>
        <extensions>
          <ns3:TrackPointExtension>
            <ns3:hr>159</ns3:hr>
            <ns3:cad>44</ns3:cad>
          </ns3:TrackPointExtension>
        </extensions>
      </trkpt>
      <trkpt lat="47.5461232848465442657470703125" lon="11.0495751164853572845458984375">
        <ele>1619.5999755859375</ele>
        <time>2026-09-01T08:56:08.000Z</time>
        <extensions>
          <ns3:TrackPointExtension>
            <ns3:hr>160</ns3:hr>
            <ns3:cad>44</ns3:cad>
          </ns3:TrackPointExtension>
        </extensions>
      </trkpt>
      <trkpt lat="47.54612982273101806640625" lon="11.0495764575898647308349609375">
        <ele>1619.800048828125</ele>
        <time>2026-09-01T08:56:09.000Z</time>
        <extensions>
          <ns3:TrackPointExtension>
            <ns3:hr>160</ns3:hr>
            <ns3:cad>46</ns3:cad>
          </ns3:TrackPointExtension>
        </extensions>
      </trkpt>
      <trkpt lat="47.54612873308360576629638671875" lon="11.0495741106569766998291015625">
        <ele>1620.199951171875</ele>
        <time>2026-09-01T08:56:10.000Z</time>
        <extensions>
          <ns3:TrackPointExtension>
            <ns3:hr>160</ns3:hr>
            <ns3:cad>46</ns3:cad>
          </ns3:TrackPointExtension>
        </extensions>
      </trkpt>
      <trkpt lat="47.54613560624420642852783203125" lon="11.04957788251340389251708984375">
        <ele>1620.4000244140625</ele>
        <time>2026-09-01T08:56:11.000Z</time>
        <extensions>
          <ns3:TrackPointExtension>
            <ns3:hr>161</ns3:hr>
            <ns3:cad>44</ns3:cad>
          </ns3:TrackPointExtension>
        </extensions>
      </trkpt>
      <trkpt lat="47.54614348523318767547607421875" lon="11.0495885275304317474365234375">
        <ele>1620.5999755859375</ele>
        <time>2026-09-01T08:56:12.000Z</time>
        <extensions>
          <ns3:TrackPointExtension>
            <ns3:hr>161</ns3:hr>
            <ns3:cad>44</ns3:cad>
          </ns3:TrackPointExtension>
        </extensions>
      </trkpt>
      <trkpt lat="47.5461544655263423919677734375" lon="11.04958794079720973968505859375">
        <ele>1621</ele>
        <time>2026-09-01T08:56:13.000Z</time>
        <extensions>
          <ns3:TrackPointExtension>
            <ns3:hr>161</ns3:hr>
            <ns3:cad>44</ns3:cad>
          </ns3:TrackPointExtension>
        </extensions>
      </trkpt>
      <trkpt lat="47.54616527818143367767333984375" lon="11.0495905391871929168701171875">
        <ele>1621.199951171875</ele>
        <time>2026-09-01T08:56:14.000Z</time>
        <extensions>
          <ns3:TrackPointExtension>
            <ns3:hr>161</ns3:hr>
            <ns3:cad>44</ns3:cad>
          </ns3:TrackPointExtension>
        </extensions>
      </trkpt>
      <trkpt lat="47.54617231898009777069091796875" lon="11.04958869516849517822265625">
        <ele>1621.4000244140625</ele>
        <time>2026-09-01T08:56:15.000Z</time>
        <extensions>
          <ns3:TrackPointExtension>
            <ns3:hr>161</ns3:hr>
            <ns3:cad>44</ns3:cad>
          </ns3:TrackPointExtension>
        </extensions>
      </trkpt>
      <trkpt lat="47.5461769290268421173095703125" lon="11.04958693496882915496826171875">
        <ele>1621.800048828125</ele>
        <time>2026-09-01T08:56:16.000Z</time>
        <extensions>
          <ns3:TrackPointExtension>
            <ns3:hr>161</ns3:hr>
            <ns3:cad>46</ns3:cad>
          </ns3:TrackPointExtension>
        </extensions>
      </trkpt>
      <trkpt lat="47.54618338309228420257568359375" lon="11.04958961717784404754638671875">
        <ele>1622.199951171875</ele>
        <time>2026-09-01T08:56:17.000Z</time>
        <extensions>
          <ns3:TrackPointExtension>
            <ns3:hr>162</ns3:hr>
            <ns3:cad>46</ns3:cad>
          </ns3:TrackPointExtension>
        </extensions>
      </trkpt>
      <trkpt lat="47.546183802187442779541015625" lon="11.0496027767658233642578125">
        <ele>1622.4000244140625</ele>
        <time>2026-09-01T08:56:18.000Z</time>
        <extensions>
          <ns3:TrackPointExtension>
            <ns3:hr>162</ns3:hr>
            <ns3:cad>44</ns3:cad>
          </ns3:TrackPointExtension>
        </extensions>
      </trkpt>
      <trkpt lat="47.54618941806256771087646484375" lon="11.04961409233510494232177734375">
        <ele>1622.5999755859375</ele>
        <time>2026-09-01T08:56:19.000Z</time>
        <extensions>
          <ns3:TrackPointExtension>
            <ns3:hr>163</ns3:hr>
            <ns3:cad>43</ns3:cad>
          </ns3:TrackPointExtension>
        </extensions>
      </trkpt>
      <trkpt lat="47.5461970455944538116455078125" lon="11.04962264187633991241455078125">
        <ele>1622.800048828125</ele>
        <time>2026-09-01T08:56:20.000Z</time>
        <extensions>
          <ns3:TrackPointExtension>
            <ns3:hr>163</ns3:hr>
            <ns3:cad>43</ns3:cad>
          </ns3:TrackPointExtension>
        </extensions>
      </trkpt>
      <trkpt lat="47.546202242374420166015625" lon="11.0496294312179088592529296875">
        <ele>1623</ele>
        <time>2026-09-01T08:56:21.000Z</time>
        <extensions>
          <ns3:TrackPointExtension>
            <ns3:hr>164</ns3:hr>
            <ns3:cad>44</ns3:cad>
          </ns3:TrackPointExtension>
        </extensions>
      </trkpt>
      <trkpt lat="47.54620752297341823577880859375" lon="11.04963588528335094451904296875">
        <ele>1623.199951171875</ele>
        <time>2026-09-01T08:56:22.000Z</time>
        <extensions>
          <ns3:TrackPointExtension>
            <ns3:hr>164</ns3:hr>
            <ns3:cad>44</ns3:cad>
          </ns3:TrackPointExtension>
        </extensions>
      </trkpt>
      <trkpt lat="47.546211965382099151611328125" lon="11.049642674624919891357421875">
        <ele>1623.4000244140625</ele>
        <time>2026-09-01T08:56:23.000Z</time>
        <extensions>
          <ns3:TrackPointExtension>
            <ns3:hr>164</ns3:hr>
            <ns3:cad>44</ns3:cad>
          </ns3:TrackPointExtension>
        </extensions>
      </trkpt>
      <trkpt lat="47.5462151505053043365478515625" lon="11.04965248145163059234619140625">
        <ele>1623.800048828125</ele>
        <time>2026-09-01T08:56:24.000Z</time>
        <extensions>
          <ns3:TrackPointExtension>
            <ns3:hr>164</ns3:hr>
            <ns3:cad>44</ns3:cad>
          </ns3:TrackPointExtension>
        </extensions>
      </trkpt>
      <trkpt lat="47.546222023665904998779296875" lon="11.04965784586966037750244140625">
        <ele>1624</ele>
        <time>2026-09-01T08:56:25.000Z</time>
        <extensions>
          <ns3:TrackPointExtension>
            <ns3:hr>164</ns3:hr>
            <ns3:cad>44</ns3:cad>
          </ns3:TrackPointExtension>
        </extensions>
      </trkpt>
      <trkpt lat="47.5462201796472072601318359375" lon="11.049659438431262969970703125">
        <ele>1624.199951171875</ele>
        <time>2026-09-01T08:56:26.000Z</time>
        <extensions>
          <ns3:TrackPointExtension>
            <ns3:hr>164</ns3:hr>
            <ns3:cad>44</ns3:cad>
          </ns3:TrackPointExtension>
        </extensions>
      </trkpt>
      <trkpt lat="47.54622646607458591461181640625" lon="11.049659438431262969970703125">
        <ele>1624.4000244140625</ele>
        <time>2026-09-01T08:56:27.000Z</time>
        <extensions>
          <ns3:TrackPointExtension>
            <ns3:hr>164</ns3:hr>
            <ns3:cad>44</ns3:cad>
          </ns3:TrackPointExtension>
        </extensions>
      </trkpt>
      <trkpt lat="47.5462357699871063232421875" lon="11.04965843260288238525390625">
        <ele>1624.800048828125</ele>
        <time>2026-09-01T08:56:28.000Z</time>
        <extensions>
          <ns3:TrackPointExtension>
            <ns3:hr>165</ns3:hr>
            <ns3:cad>44</ns3:cad>
          </ns3:TrackPointExtension>
        </extensions>
      </trkpt>
      <trkpt lat="47.5462424755096435546875" lon="11.0496510565280914306640625">
        <ele>1625</ele>
        <time>2026-09-01T08:56:29.000Z</time>
        <extensions>
          <ns3:TrackPointExtension>
            <ns3:hr>165</ns3:hr>
            <ns3:cad>43</ns3:cad>
          </ns3:TrackPointExtension>
        </extensions>
      </trkpt>
      <trkpt lat="47.5462456606328487396240234375" lon="11.04964644648134708404541015625">
        <ele>1625.199951171875</ele>
        <time>2026-09-01T08:56:30.000Z</time>
        <extensions>
          <ns3:TrackPointExtension>
            <ns3:hr>165</ns3:hr>
            <ns3:cad>43</ns3:cad>
          </ns3:TrackPointExtension>
        </extensions>
      </trkpt>
      <trkpt lat="47.54624892957508563995361328125" lon="11.04964435100555419921875">
        <ele>1625.4000244140625</ele>
        <time>2026-09-01T08:56:31.000Z</time>
        <extensions>
          <ns3:TrackPointExtension>
            <ns3:hr>165</ns3:hr>
            <ns3:cad>43</ns3:cad>
          </ns3:TrackPointExtension>
        </extensions>
      </trkpt>
      <trkpt lat="47.54625094123184680938720703125" lon="11.049648039042949676513671875">
        <ele>1625.5999755859375</ele>
        <time>2026-09-01T08:56:32.000Z</time>
        <extensions>
          <ns3:TrackPointExtension>
            <ns3:hr>165</ns3:hr>
            <ns3:cad>40</ns3:cad>
          </ns3:TrackPointExtension>
        </extensions>
      </trkpt>
      <trkpt lat="47.54625295288860797882080078125" lon="11.0496485419571399688720703125">
        <ele>1625.800048828125</ele>
        <time>2026-09-01T08:56:33.000Z</time>
        <extensions>
          <ns3:TrackPointExtension>
            <ns3:hr>165</ns3:hr>
            <ns3:cad>40</ns3:cad>
          </ns3:TrackPointExtension>
        </extensions>
      </trkpt>
      <trkpt lat="47.5462604127824306488037109375" lon="11.04964963160455226898193359375">
        <ele>1626</ele>
        <time>2026-09-01T08:56:34.000Z</time>
        <extensions>
          <ns3:TrackPointExtension>
            <ns3:hr>165</ns3:hr>
            <ns3:cad>42</ns3:cad>
          </ns3:TrackPointExtension>
        </extensions>
      </trkpt>
      <trkpt lat="47.5462681241333484649658203125" lon="11.0496512241661548614501953125">
        <ele>1626.4000244140625</ele>
        <time>2026-09-01T08:56:35.000Z</time>
        <extensions>
          <ns3:TrackPointExtension>
            <ns3:hr>165</ns3:hr>
            <ns3:cad>44</ns3:cad>
          </ns3:TrackPointExtension>
        </extensions>
      </trkpt>
      <trkpt lat="47.546273656189441680908203125" lon="11.04965046979486942291259765625">
        <ele>1626.5999755859375</ele>
        <time>2026-09-01T08:56:36.000Z</time>
        <extensions>
          <ns3:TrackPointExtension>
            <ns3:hr>165</ns3:hr>
            <ns3:cad>44</ns3:cad>
          </ns3:TrackPointExtension>
        </extensions>
      </trkpt>
      <trkpt lat="47.54628161899745464324951171875" lon="11.04964435100555419921875">
        <ele>1627</ele>
        <time>2026-09-01T08:56:37.000Z</time>
        <extensions>
          <ns3:TrackPointExtension>
            <ns3:hr>165</ns3:hr>
            <ns3:cad>44</ns3:cad>
          </ns3:TrackPointExtension>
        </extensions>
      </trkpt>
      <trkpt lat="47.54628681577742099761962890625" lon="11.04963638819754123687744140625">
        <ele>1627.199951171875</ele>
        <time>2026-09-01T08:56:38.000Z</time>
        <extensions>
          <ns3:TrackPointExtension>
            <ns3:hr>165</ns3:hr>
            <ns3:cad>44</ns3:cad>
          </ns3:TrackPointExtension>
        </extensions>
      </trkpt>
      <trkpt lat="47.54629368893802165985107421875" lon="11.049638651311397552490234375">
        <ele>1627.5999755859375</ele>
        <time>2026-09-01T08:56:39.000Z</time>
        <extensions>
          <ns3:TrackPointExtension>
            <ns3:hr>165</ns3:hr>
            <ns3:cad>43</ns3:cad>
          </ns3:TrackPointExtension>
        </extensions>
      </trkpt>
      <trkpt lat="47.54630022682249546051025390625" lon="11.0496378131210803985595703125">
        <ele>1627.800048828125</ele>
        <time>2026-09-01T08:56:40.000Z</time>
        <extensions>
          <ns3:TrackPointExtension>
            <ns3:hr>165</ns3:hr>
            <ns3:cad>43</ns3:cad>
          </ns3:TrackPointExtension>
        </extensions>
      </trkpt>
      <trkpt lat="47.5463063456118106842041015625" lon="11.04964259080588817596435546875">
        <ele>1628</ele>
        <time>2026-09-01T08:56:41.000Z</time>
        <extensions>
          <ns3:TrackPointExtension>
            <ns3:hr>165</ns3:hr>
            <ns3:cad>43</ns3:cad>
          </ns3:TrackPointExtension>
        </extensions>
      </trkpt>
      <trkpt lat="47.54631481133401393890380859375" lon="11.04965365491807460784912109375">
        <ele>1628</ele>
        <time>2026-09-01T08:56:42.000Z</time>
        <extensions>
          <ns3:TrackPointExtension>
            <ns3:hr>165</ns3:hr>
            <ns3:cad>43</ns3:cad>
          </ns3:TrackPointExtension>
        </extensions>
      </trkpt>
      <trkpt lat="47.54632369615137577056884765625" lon="11.04965834878385066986083984375">
        <ele>1628.4000244140625</ele>
        <time>2026-09-01T08:56:43.000Z</time>
        <extensions>
          <ns3:TrackPointExtension>
            <ns3:hr>164</ns3:hr>
            <ns3:cad>43</ns3:cad>
          </ns3:TrackPointExtension>
        </extensions>
      </trkpt>
      <trkpt lat="47.54632956348359584808349609375" lon="11.04965331964194774627685546875">
        <ele>1628.5999755859375</ele>
        <time>2026-09-01T08:56:44.000Z</time>
        <extensions>
          <ns3:TrackPointExtension>
            <ns3:hr>164</ns3:hr>
            <ns3:cad>43</ns3:cad>
          </ns3:TrackPointExtension>
        </extensions>
      </trkpt>
      <trkpt lat="47.54633358679711818695068359375" lon="11.04964812286198139190673828125">
        <ele>1629</ele>
        <time>2026-09-01T08:56:45.000Z</time>
        <extensions>
          <ns3:TrackPointExtension>
            <ns3:hr>164</ns3:hr>
            <ns3:cad>43</ns3:cad>
          </ns3:TrackPointExtension>
        </extensions>
      </trkpt>
      <trkpt lat="47.54633677192032337188720703125" lon="11.04964409954845905303955078125">
        <ele>1629.199951171875</ele>
        <time>2026-09-01T08:56:46.000Z</time>
        <extensions>
          <ns3:TrackPointExtension>
            <ns3:hr>164</ns3:hr>
            <ns3:cad>45</ns3:cad>
          </ns3:TrackPointExtension>
        </extensions>
      </trkpt>
      <trkpt lat="47.54633761011064052581787109375" lon="11.049652732908725738525390625">
        <ele>1629.5999755859375</ele>
        <time>2026-09-01T08:56:47.000Z</time>
        <extensions>
          <ns3:TrackPointExtension>
            <ns3:hr>164</ns3:hr>
            <ns3:cad>45</ns3:cad>
          </ns3:TrackPointExtension>
        </extensions>
      </trkpt>
      <trkpt lat="47.54633945412933826446533203125" lon="11.0496589355170726776123046875">
        <ele>1629.800048828125</ele>
        <time>2026-09-01T08:56:48.000Z</time>
        <extensions>
          <ns3:TrackPointExtension>
            <ns3:hr>164</ns3:hr>
            <ns3:cad>45</ns3:cad>
          </ns3:TrackPointExtension>
        </extensions>
      </trkpt>
      <trkpt lat="47.546342723071575164794921875" lon="11.0496689938008785247802734375">
        <ele>1630.199951171875</ele>
        <time>2026-09-01T08:56:49.000Z</time>
        <extensions>
          <ns3:TrackPointExtension>
            <ns3:hr>164</ns3:hr>
            <ns3:cad>45</ns3:cad>
          </ns3:TrackPointExtension>
        </extensions>
      </trkpt>
      <trkpt lat="47.5463509373366832733154296875" lon="11.04969824664294719696044921875">
        <ele>1630.4000244140625</ele>
        <time>2026-09-01T08:56:50.000Z</time>
        <extensions>
          <ns3:TrackPointExtension>
            <ns3:hr>163</ns3:hr>
            <ns3:cad>48</ns3:cad>
          </ns3:TrackPointExtension>
        </extensions>
      </trkpt>
      <trkpt lat="47.5463509373366832733154296875" lon="11.04969824664294719696044921875">
        <ele>1630.5999755859375</ele>
        <time>2026-09-01T08:56:51.000Z</time>
        <extensions>
          <ns3:TrackPointExtension>
            <ns3:hr>163</ns3:hr>
            <ns3:cad>48</ns3:cad>
          </ns3:TrackPointExtension>
        </extensions>
      </trkpt>
      <trkpt lat="47.5463532842695713043212890625" lon="11.049700677394866943359375">
        <ele>1631</ele>
        <time>2026-09-01T08:56:52.000Z</time>
        <extensions>
          <ns3:TrackPointExtension>
            <ns3:hr>163</ns3:hr>
            <ns3:cad>48</ns3:cad>
          </ns3:TrackPointExtension>
        </extensions>
      </trkpt>
      <trkpt lat="47.54635789431631565093994140625" lon="11.04969036765396595001220703125">
        <ele>1631.199951171875</ele>
        <time>2026-09-01T08:56:53.000Z</time>
        <extensions>
          <ns3:TrackPointExtension>
            <ns3:hr>163</ns3:hr>
            <ns3:cad>48</ns3:cad>
          </ns3:TrackPointExtension>
        </extensions>
      </trkpt>
      <trkpt lat="47.54636392928659915924072265625" lon="11.049686260521411895751953125">
        <ele>1631.800048828125</ele>
        <time>2026-09-01T08:56:54.000Z</time>
        <extensions>
          <ns3:TrackPointExtension>
            <ns3:hr>163</ns3:hr>
            <ns3:cad>48</ns3:cad>
          </ns3:TrackPointExtension>
        </extensions>
      </trkpt>
      <trkpt lat="47.5463710539042949676513671875" lon="11.049684919416904449462890625">
        <ele>1632.199951171875</ele>
        <time>2026-09-01T08:56:55.000Z</time>
        <extensions>
          <ns3:TrackPointExtension>
            <ns3:hr>162</ns3:hr>
            <ns3:cad>0</ns3:cad>
          </ns3:TrackPointExtension>
        </extensions>
      </trkpt>
      <trkpt lat="47.54637784324586391448974609375" lon="11.0496864281594753265380859375">
        <ele>1632.5999755859375</ele>
        <time>2026-09-01T08:56:56.000Z</time>
        <extensions>
          <ns3:TrackPointExtension>
            <ns3:hr>162</ns3:hr>
            <ns3:cad>0</ns3:cad>
          </ns3:TrackPointExtension>
        </extensions>
      </trkpt>
      <trkpt lat="47.54638404585421085357666015625" lon="11.0496877692639827728271484375">
        <ele>1633</ele>
        <time>2026-09-01T08:56:57.000Z</time>
        <extensions>
          <ns3:TrackPointExtension>
            <ns3:hr>162</ns3:hr>
            <ns3:cad>50</ns3:cad>
          </ns3:TrackPointExtension>
        </extensions>
      </trkpt>
      <trkpt lat="47.5463861413300037384033203125" lon="11.04968869127333164215087890625">
        <ele>1633</ele>
        <time>2026-09-01T08:56:58.000Z</time>
        <extensions>
          <ns3:TrackPointExtension>
            <ns3:hr>162</ns3:hr>
            <ns3:cad>50</ns3:cad>
          </ns3:TrackPointExtension>
        </extensions>
      </trkpt>
      <trkpt lat="47.546389661729335784912109375" lon="11.04968726634979248046875">
        <ele>1633.199951171875</ele>
        <time>2026-09-01T08:56:59.000Z</time>
        <extensions>
          <ns3:TrackPointExtension>
            <ns3:hr>162</ns3:hr>
            <ns3:cad>50</ns3:cad>
          </ns3:TrackPointExtension>
        </extensions>
      </trkpt>
      <trkpt lat="47.54639494232833385467529296875" lon="11.04969120584428310394287109375">
        <ele>1633.199951171875</ele>
        <time>2026-09-01T08:57:00.000Z</time>
        <extensions>
          <ns3:TrackPointExtension>
            <ns3:hr>163</ns3:hr>
            <ns3:cad>50</ns3:cad>
          </ns3:TrackPointExtension>
        </extensions>
      </trkpt>
      <trkpt lat="47.54639779217541217803955078125" lon="11.0496978275477886199951171875">
        <ele>1633.4000244140625</ele>
        <time>2026-09-01T08:57:01.000Z</time>
        <extensions>
          <ns3:TrackPointExtension>
            <ns3:hr>162</ns3:hr>
            <ns3:cad>0</ns3:cad>
          </ns3:TrackPointExtension>
        </extensions>
      </trkpt>
      <trkpt lat="47.54640215076506137847900390625" lon="11.04970277287065982818603515625">
        <ele>1633.5999755859375</ele>
        <time>2026-09-01T08:57:02.000Z</time>
        <extensions>
          <ns3:TrackPointExtension>
            <ns3:hr>162</ns3:hr>
            <ns3:cad>0</ns3:cad>
          </ns3:TrackPointExtension>
        </extensions>
      </trkpt>
      <trkpt lat="47.546407096087932586669921875" lon="11.0497085563838481903076171875">
        <ele>1634</ele>
        <time>2026-09-01T08:57:03.000Z</time>
        <extensions>
          <ns3:TrackPointExtension>
            <ns3:hr>162</ns3:hr>
            <ns3:cad>0</ns3:cad>
          </ns3:TrackPointExtension>
        </extensions>
      </trkpt>
      <trkpt lat="47.546415813267230987548828125" lon="11.0497192852199077606201171875">
        <ele>1634.4000244140625</ele>
        <time>2026-09-01T08:57:04.000Z</time>
        <extensions>
          <ns3:TrackPointExtension>
            <ns3:hr>162</ns3:hr>
            <ns3:cad>0</ns3:cad>
          </ns3:TrackPointExtension>
        </extensions>
      </trkpt>
      <trkpt lat="47.54642092622816562652587890625" lon="11.04972708038985729217529296875">
        <ele>1635</ele>
        <time>2026-09-01T08:57:05.000Z</time>
        <extensions>
          <ns3:TrackPointExtension>
            <ns3:hr>162</ns3:hr>
            <ns3:cad>0</ns3:cad>
          </ns3:TrackPointExtension>
        </extensions>
      </trkpt>
      <trkpt lat="47.54642897285521030426025390625" lon="11.04973278008401393890380859375">
        <ele>1635.5999755859375</ele>
        <time>2026-09-01T08:57:06.000Z</time>
        <extensions>
          <ns3:TrackPointExtension>
            <ns3:hr>162</ns3:hr>
            <ns3:cad>0</ns3:cad>
          </ns3:TrackPointExtension>
        </extensions>
      </trkpt>
      <trkpt lat="47.5464334152638912200927734375" lon="11.04973546229302883148193359375">
        <ele>1636.199951171875</ele>
        <time>2026-09-01T08:57:07.000Z</time>
        <extensions>
          <ns3:TrackPointExtension>
            <ns3:hr>162</ns3:hr>
            <ns3:cad>0</ns3:cad>
          </ns3:TrackPointExtension>
        </extensions>
      </trkpt>
      <trkpt lat="47.54643333144485950469970703125" lon="11.04973177425563335418701171875">
        <ele>1636.800048828125</ele>
        <time>2026-09-01T08:57:08.000Z</time>
        <extensions>
          <ns3:TrackPointExtension>
            <ns3:hr>163</ns3:hr>
            <ns3:cad>0</ns3:cad>
          </ns3:TrackPointExtension>
        </extensions>
      </trkpt>
      <trkpt lat="47.546435929834842681884765625" lon="11.04972557164728641510009765625">
        <ele>1637.4000244140625</ele>
        <time>2026-09-01T08:57:09.000Z</time>
        <extensions>
          <ns3:TrackPointExtension>
            <ns3:hr>163</ns3:hr>
            <ns3:cad>0</ns3:cad>
          </ns3:TrackPointExtension>
        </extensions>
      </trkpt>
      <trkpt lat="47.54643760621547698974609375" lon="11.04971936903893947601318359375">
        <ele>1637.5999755859375</ele>
        <time>2026-09-01T08:57:10.000Z</time>
        <extensions>
          <ns3:TrackPointExtension>
            <ns3:hr>162</ns3:hr>
            <ns3:cad>0</ns3:cad>
          </ns3:TrackPointExtension>
        </extensions>
      </trkpt>
      <trkpt lat="47.54644070751965045928955078125" lon="11.0497078858315944671630859375">
        <ele>1637.800048828125</ele>
        <time>2026-09-01T08:57:11.000Z</time>
        <extensions>
          <ns3:TrackPointExtension>
            <ns3:hr>162</ns3:hr>
            <ns3:cad>0</ns3:cad>
          </ns3:TrackPointExtension>
        </extensions>
      </trkpt>
      <trkpt lat="47.54644221626222133636474609375" lon="11.0497125796973705291748046875">
        <ele>1637.800048828125</ele>
        <time>2026-09-01T08:57:12.000Z</time>
        <extensions>
          <ns3:TrackPointExtension>
            <ns3:hr>162</ns3:hr>
            <ns3:cad>0</ns3:cad>
          </ns3:TrackPointExtension>
        </extensions>
      </trkpt>
      <trkpt lat="47.54644858650863170623779296875" lon="11.0497072152793407440185546875">
        <ele>1637.5999755859375</ele>
        <time>2026-09-01T08:57:13.000Z</time>
        <extensions>
          <ns3:TrackPointExtension>
            <ns3:hr>162</ns3:hr>
            <ns3:cad>45</ns3:cad>
          </ns3:TrackPointExtension>
        </extensions>
      </trkpt>
      <trkpt lat="47.5464498437941074371337890625" lon="11.0497088916599750518798828125">
        <ele>1637.800048828125</ele>
        <time>2026-09-01T08:57:14.000Z</time>
        <extensions>
          <ns3:TrackPointExtension>
            <ns3:hr>161</ns3:hr>
            <ns3:cad>46</ns3:cad>
          </ns3:TrackPointExtension>
        </extensions>
      </trkpt>
      <trkpt lat="47.5464449822902679443359375" lon="11.04970880784094333648681640625">
        <ele>1638</ele>
        <time>2026-09-01T08:57:15.000Z</time>
        <extensions>
          <ns3:TrackPointExtension>
            <ns3:hr>161</ns3:hr>
            <ns3:cad>46</ns3:cad>
          </ns3:TrackPointExtension>
        </extensions>
      </trkpt>
      <trkpt lat="47.54644238390028476715087890625" lon="11.04971048422157764434814453125">
        <ele>1638.5999755859375</ele>
        <time>2026-09-01T08:57:16.000Z</time>
        <extensions>
          <ns3:TrackPointExtension>
            <ns3:hr>161</ns3:hr>
            <ns3:cad>46</ns3:cad>
          </ns3:TrackPointExtension>
        </extensions>
      </trkpt>
      <trkpt lat="47.54644171334803104400634765625" lon="11.04971199296414852142333984375">
        <ele>1639.199951171875</ele>
        <time>2026-09-01T08:57:17.000Z</time>
        <extensions>
          <ns3:TrackPointExtension>
            <ns3:hr>160</ns3:hr>
            <ns3:cad>45</ns3:cad>
          </ns3:TrackPointExtension>
        </extensions>
      </trkpt>
      <trkpt lat="47.54644238390028476715087890625" lon="11.04971450753509998321533203125">
        <ele>1639.800048828125</ele>
        <time>2026-09-01T08:57:18.000Z</time>
        <extensions>
          <ns3:TrackPointExtension>
            <ns3:hr>161</ns3:hr>
            <ns3:cad>45</ns3:cad>
          </ns3:TrackPointExtension>
        </extensions>
      </trkpt>
      <trkpt lat="47.54644406028091907501220703125" lon="11.049715094268321990966796875">
        <ele>1640.199951171875</ele>
        <time>2026-09-01T08:57:19.000Z</time>
        <extensions>
          <ns3:TrackPointExtension>
            <ns3:hr>161</ns3:hr>
            <ns3:cad>45</ns3:cad>
          </ns3:TrackPointExtension>
        </extensions>
      </trkpt>
      <trkpt lat="47.546449005603790283203125" lon="11.04971551336348056793212890625">
        <ele>1640.5999755859375</ele>
        <time>2026-09-01T08:57:20.000Z</time>
        <extensions>
          <ns3:TrackPointExtension>
            <ns3:hr>161</ns3:hr>
            <ns3:cad>46</ns3:cad>
          </ns3:TrackPointExtension>
        </extensions>
      </trkpt>
      <trkpt lat="47.5464515201747417449951171875" lon="11.04971182532608509063720703125">
        <ele>1640.800048828125</ele>
        <time>2026-09-01T08:57:21.000Z</time>
        <extensions>
          <ns3:TrackPointExtension>
            <ns3:hr>161</ns3:hr>
            <ns3:cad>47</ns3:cad>
          </ns3:TrackPointExtension>
        </extensions>
      </trkpt>
      <trkpt lat="47.54645328037440776824951171875" lon="11.0497068800032138824462890625">
        <ele>1641</ele>
        <time>2026-09-01T08:57:22.000Z</time>
        <extensions>
          <ns3:TrackPointExtension>
            <ns3:hr>161</ns3:hr>
            <ns3:cad>48</ns3:cad>
          </ns3:TrackPointExtension>
        </extensions>
      </trkpt>
      <trkpt lat="47.5464570522308349609375" lon="11.0497095622122287750244140625">
        <ele>1641.199951171875</ele>
        <time>2026-09-01T08:57:23.000Z</time>
        <extensions>
          <ns3:TrackPointExtension>
            <ns3:hr>161</ns3:hr>
            <ns3:cad>49</ns3:cad>
          </ns3:TrackPointExtension>
        </extensions>
      </trkpt>
      <trkpt lat="47.5464645959436893463134765625" lon="11.049711070954799652099609375">
        <ele>1641.4000244140625</ele>
        <time>2026-09-01T08:57:24.000Z</time>
        <extensions>
          <ns3:TrackPointExtension>
            <ns3:hr>161</ns3:hr>
            <ns3:cad>49</ns3:cad>
          </ns3:TrackPointExtension>
        </extensions>
      </trkpt>
      <trkpt lat="47.5464756600558757781982421875" lon="11.049715094268321990966796875">
        <ele>1641.5999755859375</ele>
        <time>2026-09-01T08:57:25.000Z</time>
        <extensions>
          <ns3:TrackPointExtension>
            <ns3:hr>161</ns3:hr>
            <ns3:cad>49</ns3:cad>
          </ns3:TrackPointExtension>
        </extensions>
      </trkpt>
      <trkpt lat="47.5464863888919353485107421875" lon="11.049716435372829437255859375">
        <ele>1642</ele>
        <time>2026-09-01T08:57:26.000Z</time>
        <extensions>
          <ns3:TrackPointExtension>
            <ns3:hr>161</ns3:hr>
            <ns3:cad>46</ns3:cad>
          </ns3:TrackPointExtension>
        </extensions>
      </trkpt>
      <trkpt lat="47.546492926776409149169921875" lon="11.049723140895366668701171875">
        <ele>1642.199951171875</ele>
        <time>2026-09-01T08:57:27.000Z</time>
        <extensions>
          <ns3:TrackPointExtension>
            <ns3:hr>162</ns3:hr>
            <ns3:cad>46</ns3:cad>
          </ns3:TrackPointExtension>
        </extensions>
      </trkpt>
      <trkpt lat="47.54649736918509006500244140625" lon="11.04973043315112590789794921875">
        <ele>1642.199951171875</ele>
        <time>2026-09-01T08:57:28.000Z</time>
        <extensions>
          <ns3:TrackPointExtension>
            <ns3:hr>162</ns3:hr>
            <ns3:cad>44</ns3:cad>
          </ns3:TrackPointExtension>
        </extensions>
      </trkpt>
      <trkpt lat="47.54650021903216838836669921875" lon="11.04973127134144306182861328125">
        <ele>1642.4000244140625</ele>
        <time>2026-09-01T08:57:29.000Z</time>
        <extensions>
          <ns3:TrackPointExtension>
            <ns3:hr>163</ns3:hr>
            <ns3:cad>42</ns3:cad>
          </ns3:TrackPointExtension>
        </extensions>
      </trkpt>
      <trkpt lat="47.54650809802114963531494140625" lon="11.0497357137501239776611328125">
        <ele>1642.5999755859375</ele>
        <time>2026-09-01T08:57:30.000Z</time>
        <extensions>
          <ns3:TrackPointExtension>
            <ns3:hr>163</ns3:hr>
            <ns3:cad>42</ns3:cad>
          </ns3:TrackPointExtension>
        </extensions>
      </trkpt>
      <trkpt lat="47.54651212133467197418212890625" lon="11.04973948560655117034912109375">
        <ele>1643</ele>
        <time>2026-09-01T08:57:31.000Z</time>
        <extensions>
          <ns3:TrackPointExtension>
            <ns3:hr>163</ns3:hr>
            <ns3:cad>42</ns3:cad>
          </ns3:TrackPointExtension>
        </extensions>
      </trkpt>
      <trkpt lat="47.5465145520865917205810546875" lon="11.04974065907299518585205078125">
        <ele>1643.4000244140625</ele>
        <time>2026-09-01T08:57:32.000Z</time>
        <extensions>
          <ns3:TrackPointExtension>
            <ns3:hr>164</ns3:hr>
            <ns3:cad>42</ns3:cad>
          </ns3:TrackPointExtension>
        </extensions>
      </trkpt>
      <trkpt lat="47.5465209223330020904541015625" lon="11.04973948560655117034912109375">
        <ele>1643.5999755859375</ele>
        <time>2026-09-01T08:57:33.000Z</time>
        <extensions>
          <ns3:TrackPointExtension>
            <ns3:hr>164</ns3:hr>
            <ns3:cad>42</ns3:cad>
          </ns3:TrackPointExtension>
        </extensions>
      </trkpt>
      <trkpt lat="47.54653341136872768402099609375" lon="11.049732528626918792724609375">
        <ele>1643.800048828125</ele>
        <time>2026-09-01T08:57:34.000Z</time>
        <extensions>
          <ns3:TrackPointExtension>
            <ns3:hr>165</ns3:hr>
            <ns3:cad>42</ns3:cad>
          </ns3:TrackPointExtension>
        </extensions>
      </trkpt>
      <trkpt lat="47.5465437211096286773681640625" lon="11.0497315227985382080078125">
        <ele>1644</ele>
        <time>2026-09-01T08:57:35.000Z</time>
        <extensions>
          <ns3:TrackPointExtension>
            <ns3:hr>165</ns3:hr>
            <ns3:cad>42</ns3:cad>
          </ns3:TrackPointExtension>
        </extensions>
      </trkpt>
      <trkpt lat="47.546552605926990509033203125" lon="11.04973889887332916259765625">
        <ele>1644.199951171875</ele>
        <time>2026-09-01T08:57:36.000Z</time>
        <extensions>
          <ns3:TrackPointExtension>
            <ns3:hr>166</ns3:hr>
            <ns3:cad>42</ns3:cad>
          </ns3:TrackPointExtension>
        </extensions>
      </trkpt>
      <trkpt lat="47.5465541146695613861083984375" lon="11.04974216781556606292724609375">
        <ele>1644.4000244140625</ele>
        <time>2026-09-01T08:57:37.000Z</time>
        <extensions>
          <ns3:TrackPointExtension>
            <ns3:hr>166</ns3:hr>
            <ns3:cad>0</ns3:cad>
          </ns3:TrackPointExtension>
        </extensions>
      </trkpt>
      <trkpt lat="47.546561993658542633056640625" lon="11.0497534833848476409912109375">
        <ele>1644.4000244140625</ele>
        <time>2026-09-01T08:57:38.000Z</time>
        <extensions>
          <ns3:TrackPointExtension>
            <ns3:hr>166</ns3:hr>
            <ns3:cad>0</ns3:cad>
          </ns3:TrackPointExtension>
        </extensions>
      </trkpt>
      <trkpt lat="47.54656978882849216461181640625" lon="11.04974828660488128662109375">
        <ele>1644.5999755859375</ele>
        <time>2026-09-01T08:57:39.000Z</time>
        <extensions>
          <ns3:TrackPointExtension>
            <ns3:hr>166</ns3:hr>
            <ns3:cad>0</ns3:cad>
          </ns3:TrackPointExtension>
        </extensions>
      </trkpt>
      <trkpt lat="47.5465785898268222808837890625" lon="11.04975373484194278717041015625">
        <ele>1644.800048828125</ele>
        <time>2026-09-01T08:57:40.000Z</time>
        <extensions>
          <ns3:TrackPointExtension>
            <ns3:hr>166</ns3:hr>
            <ns3:cad>0</ns3:cad>
          </ns3:TrackPointExtension>
        </extensions>
      </trkpt>
      <trkpt lat="47.54658043384552001953125" lon="11.04975909925997257232666015625">
        <ele>1645</ele>
        <time>2026-09-01T08:57:41.000Z</time>
        <extensions>
          <ns3:TrackPointExtension>
            <ns3:hr>166</ns3:hr>
            <ns3:cad>0</ns3:cad>
          </ns3:TrackPointExtension>
        </extensions>
      </trkpt>
      <trkpt lat="47.54658915102481842041015625" lon="11.049760691821575164794921875">
        <ele>1645.4000244140625</ele>
        <time>2026-09-01T08:57:42.000Z</time>
        <extensions>
          <ns3:TrackPointExtension>
            <ns3:hr>166</ns3:hr>
            <ns3:cad>0</ns3:cad>
          </ns3:TrackPointExtension>
        </extensions>
      </trkpt>
      <trkpt lat="47.54659493453800678253173828125" lon="11.04976412840187549591064453125">
        <ele>1646</ele>
        <time>2026-09-01T08:57:43.000Z</time>
        <extensions>
          <ns3:TrackPointExtension>
            <ns3:hr>166</ns3:hr>
            <ns3:cad>0</ns3:cad>
          </ns3:TrackPointExtension>
        </extensions>
      </trkpt>
      <trkpt lat="47.5466003827750682830810546875" lon="11.04976530186831951141357421875">
        <ele>1646.199951171875</ele>
        <time>2026-09-01T08:57:44.000Z</time>
        <extensions>
          <ns3:TrackPointExtension>
            <ns3:hr>167</ns3:hr>
            <ns3:cad>0</ns3:cad>
          </ns3:TrackPointExtension>
        </extensions>
      </trkpt>
      <trkpt lat="47.546606250107288360595703125" lon="11.04976764880120754241943359375">
        <ele>1646.5999755859375</ele>
        <time>2026-09-01T08:57:45.000Z</time>
        <extensions>
          <ns3:TrackPointExtension>
            <ns3:hr>166</ns3:hr>
            <ns3:cad>0</ns3:cad>
          </ns3:TrackPointExtension>
        </extensions>
      </trkpt>
      <trkpt lat="47.5466181524097919464111328125" lon="11.04976781643927097320556640625">
        <ele>1646.800048828125</ele>
        <time>2026-09-01T08:57:46.000Z</time>
        <extensions>
          <ns3:TrackPointExtension>
            <ns3:hr>167</ns3:hr>
            <ns3:cad>0</ns3:cad>
          </ns3:TrackPointExtension>
        </extensions>
      </trkpt>
      <trkpt lat="47.5466265343129634857177734375" lon="11.04977200739085674285888671875">
        <ele>1647.199951171875</ele>
        <time>2026-09-01T08:57:47.000Z</time>
        <extensions>
          <ns3:TrackPointExtension>
            <ns3:hr>168</ns3:hr>
            <ns3:cad>0</ns3:cad>
          </ns3:TrackPointExtension>
        </extensions>
      </trkpt>
      <trkpt lat="47.54662561230361461639404296875" lon="11.0497772879898548126220703125">
        <ele>1647.4000244140625</ele>
        <time>2026-09-01T08:57:48.000Z</time>
        <extensions>
          <ns3:TrackPointExtension>
            <ns3:hr>167</ns3:hr>
            <ns3:cad>0</ns3:cad>
          </ns3:TrackPointExtension>
        </extensions>
      </trkpt>
      <trkpt lat="47.54663349129259586334228515625" lon="11.04977619834244251251220703125">
        <ele>1647.800048828125</ele>
        <time>2026-09-01T08:57:49.000Z</time>
        <extensions>
          <ns3:TrackPointExtension>
            <ns3:hr>166</ns3:hr>
            <ns3:cad>0</ns3:cad>
          </ns3:TrackPointExtension>
        </extensions>
      </trkpt>
      <trkpt lat="47.54663349129259586334228515625" lon="11.0497792996466159820556640625">
        <ele>1648.199951171875</ele>
        <time>2026-09-01T08:57:50.000Z</time>
        <extensions>
          <ns3:TrackPointExtension>
            <ns3:hr>165</ns3:hr>
            <ns3:cad>0</ns3:cad>
          </ns3:TrackPointExtension>
        </extensions>
      </trkpt>
      <trkpt lat="47.54663608968257904052734375" lon="11.049782820045948028564453125">
        <ele>1648.800048828125</ele>
        <time>2026-09-01T08:57:51.000Z</time>
        <extensions>
          <ns3:TrackPointExtension>
            <ns3:hr>165</ns3:hr>
            <ns3:cad>0</ns3:cad>
          </ns3:TrackPointExtension>
        </extensions>
      </trkpt>
      <trkpt lat="47.5466352514922618865966796875" lon="11.04977988637983798980712890625">
        <ele>1649</ele>
        <time>2026-09-01T08:57:52.000Z</time>
        <extensions>
          <ns3:TrackPointExtension>
            <ns3:hr>164</ns3:hr>
            <ns3:cad>0</ns3:cad>
          </ns3:TrackPointExtension>
        </extensions>
      </trkpt>
      <trkpt lat="47.54663600586354732513427734375" lon="11.04978692717850208282470703125">
        <ele>1649</ele>
        <time>2026-09-01T08:57:53.000Z</time>
        <extensions>
          <ns3:TrackPointExtension>
            <ns3:hr>164</ns3:hr>
            <ns3:cad>0</ns3:cad>
          </ns3:TrackPointExtension>
        </extensions>
      </trkpt>
      <trkpt lat="47.54663617350161075592041015625" lon="11.04979522526264190673828125">
        <ele>1649.4000244140625</ele>
        <time>2026-09-01T08:57:54.000Z</time>
        <extensions>
          <ns3:TrackPointExtension>
            <ns3:hr>164</ns3:hr>
            <ns3:cad>0</ns3:cad>
          </ns3:TrackPointExtension>
        </extensions>
      </trkpt>
      <trkpt lat="47.54663567058742046356201171875" lon="11.0498017631471157073974609375">
        <ele>1649.5999755859375</ele>
        <time>2026-09-01T08:57:55.000Z</time>
        <extensions>
          <ns3:TrackPointExtension>
            <ns3:hr>164</ns3:hr>
            <ns3:cad>0</ns3:cad>
          </ns3:TrackPointExtension>
        </extensions>
      </trkpt>
      <trkpt lat="47.54663340747356414794921875" lon="11.049804277718067169189453125">
        <ele>1650</ele>
        <time>2026-09-01T08:57:56.000Z</time>
        <extensions>
          <ns3:TrackPointExtension>
            <ns3:hr>163</ns3:hr>
            <ns3:cad>0</ns3:cad>
          </ns3:TrackPointExtension>
        </extensions>
      </trkpt>
      <trkpt lat="47.5466322340071201324462890625" lon="11.04980193078517913818359375">
        <ele>1650.5999755859375</ele>
        <time>2026-09-01T08:57:57.000Z</time>
        <extensions>
          <ns3:TrackPointExtension>
            <ns3:hr>162</ns3:hr>
            <ns3:cad>0</ns3:cad>
          </ns3:TrackPointExtension>
        </extensions>
      </trkpt>
      <trkpt lat="47.54663315601646900177001953125" lon="11.04980100877583026885986328125">
        <ele>1651</ele>
        <time>2026-09-01T08:57:58.000Z</time>
        <extensions>
          <ns3:TrackPointExtension>
            <ns3:hr>161</ns3:hr>
            <ns3:cad>0</ns3:cad>
          </ns3:TrackPointExtension>
        </extensions>
      </trkpt>
      <trkpt lat="47.54663583822548389434814453125" lon="11.04980402626097202301025390625">
        <ele>1651.4000244140625</ele>
        <time>2026-09-01T08:57:59.000Z</time>
        <extensions>
          <ns3:TrackPointExtension>
            <ns3:hr>161</ns3:hr>
            <ns3:cad>0</ns3:cad>
          </ns3:TrackPointExtension>
        </extensions>
      </trkpt>
      <trkpt lat="47.5466392748057842254638671875" lon="11.04980419389903545379638671875">
        <ele>1652</ele>
        <time>2026-09-01T08:58:00.000Z</time>
        <extensions>
          <ns3:TrackPointExtension>
            <ns3:hr>160</ns3:hr>
            <ns3:cad>0</ns3:cad>
          </ns3:TrackPointExtension>
        </extensions>
      </trkpt>
      <trkpt lat="47.5466426275670528411865234375" lon="11.04980461299419403076171875">
        <ele>1652.4000244140625</ele>
        <time>2026-09-01T08:58:01.000Z</time>
        <extensions>
          <ns3:TrackPointExtension>
            <ns3:hr>159</ns3:hr>
            <ns3:cad>0</ns3:cad>
          </ns3:TrackPointExtension>
        </extensions>
      </trkpt>
      <trkpt lat="47.54664958454668521881103515625" lon="11.0498067922890186309814453125">
        <ele>1652.5999755859375</ele>
        <time>2026-09-01T08:58:02.000Z</time>
        <extensions>
          <ns3:TrackPointExtension>
            <ns3:hr>158</ns3:hr>
            <ns3:cad>0</ns3:cad>
          </ns3:TrackPointExtension>
        </extensions>
      </trkpt>
      <trkpt lat="47.546657882630825042724609375" lon="11.0498134978115558624267578125">
        <ele>1653</ele>
        <time>2026-09-01T08:58:03.000Z</time>
        <extensions>
          <ns3:TrackPointExtension>
            <ns3:hr>158</ns3:hr>
            <ns3:cad>0</ns3:cad>
          </ns3:TrackPointExtension>
        </extensions>
      </trkpt>
      <trkpt lat="47.546663582324981689453125" lon="11.04981894604861736297607421875">
        <ele>1653.199951171875</ele>
        <time>2026-09-01T08:58:04.000Z</time>
        <extensions>
          <ns3:TrackPointExtension>
            <ns3:hr>158</ns3:hr>
            <ns3:cad>0</ns3:cad>
          </ns3:TrackPointExtension>
        </extensions>
      </trkpt>
      <trkpt lat="47.5466667674481868743896484375" lon="11.04982129298150539398193359375">
        <ele>1653.5999755859375</ele>
        <time>2026-09-01T08:58:05.000Z</time>
        <extensions>
          <ns3:TrackPointExtension>
            <ns3:hr>157</ns3:hr>
            <ns3:cad>0</ns3:cad>
          </ns3:TrackPointExtension>
        </extensions>
      </trkpt>
      <trkpt lat="47.5466711260378360748291015625" lon="11.04982095770537853240966796875">
        <ele>1654.199951171875</ele>
        <time>2026-09-01T08:58:06.000Z</time>
        <extensions>
          <ns3:TrackPointExtension>
            <ns3:hr>157</ns3:hr>
            <ns3:cad>0</ns3:cad>
          </ns3:TrackPointExtension>
        </extensions>
      </trkpt>
      <trkpt lat="47.546674311161041259765625" lon="11.04982129298150539398193359375">
        <ele>1654.800048828125</ele>
        <time>2026-09-01T08:58:07.000Z</time>
        <extensions>
          <ns3:TrackPointExtension>
            <ns3:hr>157</ns3:hr>
            <ns3:cad>0</ns3:cad>
          </ns3:TrackPointExtension>
        </extensions>
      </trkpt>
      <trkpt lat="47.54667724482715129852294921875" lon="11.0498145036399364471435546875">
        <ele>1655</ele>
        <time>2026-09-01T08:58:08.000Z</time>
        <extensions>
          <ns3:TrackPointExtension>
            <ns3:hr>156</ns3:hr>
            <ns3:cad>0</ns3:cad>
          </ns3:TrackPointExtension>
        </extensions>
      </trkpt>
      <trkpt lat="47.54667992703616619110107421875" lon="11.04980737902224063873291015625">
        <ele>1655.4000244140625</ele>
        <time>2026-09-01T08:58:09.000Z</time>
        <extensions>
          <ns3:TrackPointExtension>
            <ns3:hr>156</ns3:hr>
            <ns3:cad>0</ns3:cad>
          </ns3:TrackPointExtension>
        </extensions>
      </trkpt>
      <trkpt lat="47.54668143577873706817626953125" lon="11.04979866184294223785400390625">
        <ele>1655.5999755859375</ele>
        <time>2026-09-01T08:58:10.000Z</time>
        <extensions>
          <ns3:TrackPointExtension>
            <ns3:hr>156</ns3:hr>
            <ns3:cad>0</ns3:cad>
          </ns3:TrackPointExtension>
        </extensions>
      </trkpt>
      <trkpt lat="47.54668277688324451446533203125" lon="11.04979396797716617584228515625">
        <ele>1655.800048828125</ele>
        <time>2026-09-01T08:58:11.000Z</time>
        <extensions>
          <ns3:TrackPointExtension>
            <ns3:hr>155</ns3:hr>
            <ns3:cad>0</ns3:cad>
          </ns3:TrackPointExtension>
        </extensions>
      </trkpt>
      <trkpt lat="47.54668529145419597625732421875" lon="11.049788855016231536865234375">
        <ele>1655.800048828125</ele>
        <time>2026-09-01T08:58:12.000Z</time>
        <extensions>
          <ns3:TrackPointExtension>
            <ns3:hr>155</ns3:hr>
            <ns3:cad>0</ns3:cad>
          </ns3:TrackPointExtension>
        </extensions>
      </trkpt>
      <trkpt lat="47.54668973386287689208984375" lon="11.04976915754377841949462890625">
        <ele>1656</ele>
        <time>2026-09-01T08:58:13.000Z</time>
        <extensions>
          <ns3:TrackPointExtension>
            <ns3:hr>154</ns3:hr>
            <ns3:cad>0</ns3:cad>
          </ns3:TrackPointExtension>
        </extensions>
      </trkpt>
      <trkpt lat="47.54669534973800182342529296875" lon="11.04974518530070781707763671875">
        <ele>1656</ele>
        <time>2026-09-01T08:58:14.000Z</time>
        <extensions>
          <ns3:TrackPointExtension>
            <ns3:hr>154</ns3:hr>
            <ns3:cad>0</ns3:cad>
          </ns3:TrackPointExtension>
        </extensions>
      </trkpt>
      <trkpt lat="47.5467140413820743560791015625" lon="11.0497207939624786376953125">
        <ele>1656.199951171875</ele>
        <time>2026-09-01T08:58:15.000Z</time>
        <extensions>
          <ns3:TrackPointExtension>
            <ns3:hr>153</ns3:hr>
            <ns3:cad>0</ns3:cad>
          </ns3:TrackPointExtension>
        </extensions>
      </trkpt>
      <trkpt lat="47.546725608408451080322265625" lon="11.0497098974883556365966796875">
        <ele>1656.5999755859375</ele>
        <time>2026-09-01T08:58:16.000Z</time>
        <extensions>
          <ns3:TrackPointExtension>
            <ns3:hr>152</ns3:hr>
            <ns3:cad>0</ns3:cad>
          </ns3:TrackPointExtension>
        </extensions>
      </trkpt>
      <trkpt lat="47.5467319786548614501953125" lon="11.049703024327754974365234375">
        <ele>1656.800048828125</ele>
        <time>2026-09-01T08:58:17.000Z</time>
        <extensions>
          <ns3:TrackPointExtension>
            <ns3:hr>152</ns3:hr>
            <ns3:cad>41</ns3:cad>
          </ns3:TrackPointExtension>
        </extensions>
      </trkpt>
      <trkpt lat="47.54674329422414302825927734375" lon="11.04969539679586887359619140625">
        <ele>1657.199951171875</ele>
        <time>2026-09-01T08:58:18.000Z</time>
        <extensions>
          <ns3:TrackPointExtension>
            <ns3:hr>151</ns3:hr>
            <ns3:cad>41</ns3:cad>
          </ns3:TrackPointExtension>
        </extensions>
      </trkpt>
      <trkpt lat="47.54674832336604595184326171875" lon="11.0496911220252513885498046875">
        <ele>1657.4000244140625</ele>
        <time>2026-09-01T08:58:19.000Z</time>
        <extensions>
          <ns3:TrackPointExtension>
            <ns3:hr>151</ns3:hr>
            <ns3:cad>0</ns3:cad>
          </ns3:TrackPointExtension>
        </extensions>
      </trkpt>
      <trkpt lat="47.54676357842981815338134765625" lon="11.04968181811273097991943359375">
        <ele>1657.5999755859375</ele>
        <time>2026-09-01T08:58:20.000Z</time>
        <extensions>
          <ns3:TrackPointExtension>
            <ns3:hr>150</ns3:hr>
            <ns3:cad>0</ns3:cad>
          </ns3:TrackPointExtension>
        </extensions>
      </trkpt>
      <trkpt lat="47.54676978103816509246826171875" lon="11.0496864281594753265380859375">
        <ele>1657.800048828125</ele>
        <time>2026-09-01T08:58:21.000Z</time>
        <extensions>
          <ns3:TrackPointExtension>
            <ns3:hr>149</ns3:hr>
            <ns3:cad>0</ns3:cad>
          </ns3:TrackPointExtension>
        </extensions>
      </trkpt>
      <trkpt lat="47.54677816294133663177490234375" lon="11.04968952946364879608154296875">
        <ele>1658.4000244140625</ele>
        <time>2026-09-01T08:58:22.000Z</time>
        <extensions>
          <ns3:TrackPointExtension>
            <ns3:hr>149</ns3:hr>
            <ns3:cad>0</ns3:cad>
          </ns3:TrackPointExtension>
        </extensions>
      </trkpt>
      <trkpt lat="47.546785958111286163330078125" lon="11.0497072152793407440185546875">
        <ele>1658.5999755859375</ele>
        <time>2026-09-01T08:58:23.000Z</time>
        <extensions>
          <ns3:TrackPointExtension>
            <ns3:hr>149</ns3:hr>
            <ns3:cad>0</ns3:cad>
          </ns3:TrackPointExtension>
        </extensions>
      </trkpt>
      <trkpt lat="47.5467894785106182098388671875" lon="11.0497152619063854217529296875">
        <ele>1659</ele>
        <time>2026-09-01T08:58:24.000Z</time>
        <extensions>
          <ns3:TrackPointExtension>
            <ns3:hr>149</ns3:hr>
            <ns3:cad>0</ns3:cad>
          </ns3:TrackPointExtension>
        </extensions>
      </trkpt>
      <trkpt lat="47.54680179990828037261962890625" lon="11.04973177425563335418701171875">
        <ele>1659.4000244140625</ele>
        <time>2026-09-01T08:58:25.000Z</time>
        <extensions>
          <ns3:TrackPointExtension>
            <ns3:hr>149</ns3:hr>
            <ns3:cad>0</ns3:cad>
          </ns3:TrackPointExtension>
        </extensions>
      </trkpt>
      <trkpt lat="47.546810097992420196533203125" lon="11.04973227716982364654541015625">
        <ele>1659.800048828125</ele>
        <time>2026-09-01T08:58:26.000Z</time>
        <extensions>
          <ns3:TrackPointExtension>
            <ns3:hr>148</ns3:hr>
            <ns3:cad>0</ns3:cad>
          </ns3:TrackPointExtension>
        </extensions>
      </trkpt>
      <trkpt lat="47.54682225175201892852783203125" lon="11.04974099434912204742431640625">
        <ele>1660.4000244140625</ele>
        <time>2026-09-01T08:58:27.000Z</time>
        <extensions>
          <ns3:TrackPointExtension>
            <ns3:hr>148</ns3:hr>
            <ns3:cad>0</ns3:cad>
          </ns3:TrackPointExtension>
        </extensions>
      </trkpt>
      <trkpt lat="47.5468230061233043670654296875" lon="11.0497370548546314239501953125">
        <ele>1660.800048828125</ele>
        <time>2026-09-01T08:58:28.000Z</time>
        <extensions>
          <ns3:TrackPointExtension>
            <ns3:hr>147</ns3:hr>
            <ns3:cad>0</ns3:cad>
          </ns3:TrackPointExtension>
        </extensions>
      </trkpt>
      <trkpt lat="47.54683096893131732940673828125" lon="11.0497320257127285003662109375">
        <ele>1661.199951171875</ele>
        <time>2026-09-01T08:58:29.000Z</time>
        <extensions>
          <ns3:TrackPointExtension>
            <ns3:hr>146</ns3:hr>
            <ns3:cad>0</ns3:cad>
          </ns3:TrackPointExtension>
        </extensions>
      </trkpt>
      <trkpt lat="47.54684127867221832275390625" lon="11.04972355999052524566650390625">
        <ele>1661.199951171875</ele>
        <time>2026-09-01T08:58:30.000Z</time>
        <extensions>
          <ns3:TrackPointExtension>
            <ns3:hr>146</ns3:hr>
            <ns3:cad>0</ns3:cad>
          </ns3:TrackPointExtension>
        </extensions>
      </trkpt>
      <trkpt lat="47.546851001679897308349609375" lon="11.04971341788768768310546875">
        <ele>1661.4000244140625</ele>
        <time>2026-09-01T08:58:31.000Z</time>
        <extensions>
          <ns3:TrackPointExtension>
            <ns3:hr>146</ns3:hr>
            <ns3:cad>0</ns3:cad>
          </ns3:TrackPointExtension>
        </extensions>
      </trkpt>
      <trkpt lat="47.546857036650180816650390625" lon="11.0497135855257511138916015625">
        <ele>1661.4000244140625</ele>
        <time>2026-09-01T08:58:32.000Z</time>
        <extensions>
          <ns3:TrackPointExtension>
            <ns3:hr>145</ns3:hr>
            <ns3:cad>0</ns3:cad>
          </ns3:TrackPointExtension>
        </extensions>
      </trkpt>
      <trkpt lat="47.5468639098107814788818359375" lon="11.04970528744161128997802734375">
        <ele>1661.5999755859375</ele>
        <time>2026-09-01T08:58:33.000Z</time>
        <extensions>
          <ns3:TrackPointExtension>
            <ns3:hr>145</ns3:hr>
            <ns3:cad>79</ns3:cad>
          </ns3:TrackPointExtension>
        </extensions>
      </trkpt>
      <trkpt lat="47.5468665920197963714599609375" lon="11.04969573207199573516845703125">
        <ele>1662</ele>
        <time>2026-09-01T08:58:34.000Z</time>
        <extensions>
          <ns3:TrackPointExtension>
            <ns3:hr>145</ns3:hr>
            <ns3:cad>79</ns3:cad>
          </ns3:TrackPointExtension>
        </extensions>
      </trkpt>
      <trkpt lat="47.54687388427555561065673828125" lon="11.04968793690204620361328125">
        <ele>1662.4000244140625</ele>
        <time>2026-09-01T08:58:35.000Z</time>
        <extensions>
          <ns3:TrackPointExtension>
            <ns3:hr>144</ns3:hr>
            <ns3:cad>45</ns3:cad>
          </ns3:TrackPointExtension>
        </extensions>
      </trkpt>
      <trkpt lat="47.54688176326453685760498046875" lon="11.04968315921723842620849609375">
        <ele>1662.800048828125</ele>
        <time>2026-09-01T08:58:36.000Z</time>
        <extensions>
          <ns3:TrackPointExtension>
            <ns3:hr>144</ns3:hr>
            <ns3:cad>45</ns3:cad>
          </ns3:TrackPointExtension>
        </extensions>
      </trkpt>
      <trkpt lat="47.546890564262866973876953125" lon="11.04967997409403324127197265625">
        <ele>1663.4000244140625</ele>
        <time>2026-09-01T08:58:37.000Z</time>
        <extensions>
          <ns3:TrackPointExtension>
            <ns3:hr>144</ns3:hr>
            <ns3:cad>45</ns3:cad>
          </ns3:TrackPointExtension>
        </extensions>
      </trkpt>
      <trkpt lat="47.54689584486186504364013671875" lon="11.04967989027500152587890625">
        <ele>1663.5999755859375</ele>
        <time>2026-09-01T08:58:38.000Z</time>
        <extensions>
          <ns3:TrackPointExtension>
            <ns3:hr>144</ns3:hr>
            <ns3:cad>45</ns3:cad>
          </ns3:TrackPointExtension>
        </extensions>
      </trkpt>
      <trkpt lat="47.546906657516956329345703125" lon="11.0496981628239154815673828125">
        <ele>1663.800048828125</ele>
        <time>2026-09-01T08:58:39.000Z</time>
        <extensions>
          <ns3:TrackPointExtension>
            <ns3:hr>144</ns3:hr>
            <ns3:cad>0</ns3:cad>
          </ns3:TrackPointExtension>
        </extensions>
      </trkpt>
      <trkpt lat="47.54691344685852527618408203125" lon="11.04970277287065982818603515625">
        <ele>1664.199951171875</ele>
        <time>2026-09-01T08:58:40.000Z</time>
        <extensions>
          <ns3:TrackPointExtension>
            <ns3:hr>143</ns3:hr>
            <ns3:cad>0</ns3:cad>
          </ns3:TrackPointExtension>
        </extensions>
      </trkpt>
      <trkpt lat="47.54691562615334987640380859375" lon="11.04970830492675304412841796875">
        <ele>1664.5999755859375</ele>
        <time>2026-09-01T08:58:41.000Z</time>
        <extensions>
          <ns3:TrackPointExtension>
            <ns3:hr>143</ns3:hr>
            <ns3:cad>0</ns3:cad>
          </ns3:TrackPointExtension>
        </extensions>
      </trkpt>
      <trkpt lat="47.54692115820944309234619140625" lon="11.04970981366932392120361328125">
        <ele>1665</ele>
        <time>2026-09-01T08:58:42.000Z</time>
        <extensions>
          <ns3:TrackPointExtension>
            <ns3:hr>143</ns3:hr>
            <ns3:cad>0</ns3:cad>
          </ns3:TrackPointExtension>
        </extensions>
      </trkpt>
      <trkpt lat="47.5469242595136165618896484375" lon="11.04970813728868961334228515625">
        <ele>1665.199951171875</ele>
        <time>2026-09-01T08:58:43.000Z</time>
        <extensions>
          <ns3:TrackPointExtension>
            <ns3:hr>143</ns3:hr>
            <ns3:cad>0</ns3:cad>
          </ns3:TrackPointExtension>
        </extensions>
      </trkpt>
      <trkpt lat="47.54692736081779003143310546875" lon="11.04971048422157764434814453125">
        <ele>1665.5999755859375</ele>
        <time>2026-09-01T08:58:44.000Z</time>
        <extensions>
          <ns3:TrackPointExtension>
            <ns3:hr>144</ns3:hr>
            <ns3:cad>0</ns3:cad>
          </ns3:TrackPointExtension>
        </extensions>
      </trkpt>
      <trkpt lat="47.54693448543548583984375" lon="11.04971266351640224456787109375">
        <ele>1665.800048828125</ele>
        <time>2026-09-01T08:58:45.000Z</time>
        <extensions>
          <ns3:TrackPointExtension>
            <ns3:hr>146</ns3:hr>
            <ns3:cad>0</ns3:cad>
          </ns3:TrackPointExtension>
        </extensions>
      </trkpt>
      <trkpt lat="47.5469383411109447479248046875" lon="11.0497154295444488525390625">
        <ele>1666</ele>
        <time>2026-09-01T08:58:46.000Z</time>
        <extensions>
          <ns3:TrackPointExtension>
            <ns3:hr>146</ns3:hr>
            <ns3:cad>0</ns3:cad>
          </ns3:TrackPointExtension>
        </extensions>
      </trkpt>
      <trkpt lat="47.54693993367254734039306640625" lon="11.04970931075513362884521484375">
        <ele>1666.199951171875</ele>
        <time>2026-09-01T08:58:47.000Z</time>
        <extensions>
          <ns3:TrackPointExtension>
            <ns3:hr>147</ns3:hr>
            <ns3:cad>0</ns3:cad>
          </ns3:TrackPointExtension>
        </extensions>
      </trkpt>
      <trkpt lat="47.54694630391895771026611328125" lon="11.04970394633710384368896484375">
        <ele>1666.4000244140625</ele>
        <time>2026-09-01T08:58:48.000Z</time>
        <extensions>
          <ns3:TrackPointExtension>
            <ns3:hr>147</ns3:hr>
            <ns3:cad>0</ns3:cad>
          </ns3:TrackPointExtension>
        </extensions>
      </trkpt>
      <trkpt lat="47.54695300944149494171142578125" lon="11.0497005097568035125732421875">
        <ele>1666.5999755859375</ele>
        <time>2026-09-01T08:58:49.000Z</time>
        <extensions>
          <ns3:TrackPointExtension>
            <ns3:hr>148</ns3:hr>
            <ns3:cad>0</ns3:cad>
          </ns3:TrackPointExtension>
        </extensions>
      </trkpt>
      <trkpt lat="47.5469571165740489959716796875" lon="11.04970327578485012054443359375">
        <ele>1666.5999755859375</ele>
        <time>2026-09-01T08:58:50.000Z</time>
        <extensions>
          <ns3:TrackPointExtension>
            <ns3:hr>148</ns3:hr>
            <ns3:cad>0</ns3:cad>
          </ns3:TrackPointExtension>
        </extensions>
      </trkpt>
      <trkpt lat="47.546963654458522796630859375" lon="11.0497062094509601593017578125">
        <ele>1667</ele>
        <time>2026-09-01T08:58:51.000Z</time>
        <extensions>
          <ns3:TrackPointExtension>
            <ns3:hr>148</ns3:hr>
            <ns3:cad>0</ns3:cad>
          </ns3:TrackPointExtension>
        </extensions>
      </trkpt>
      <trkpt lat="47.5469577871263027191162109375" lon="11.04971249587833881378173828125">
        <ele>1667.199951171875</ele>
        <time>2026-09-01T08:58:52.000Z</time>
        <extensions>
          <ns3:TrackPointExtension>
            <ns3:hr>149</ns3:hr>
            <ns3:cad>0</ns3:cad>
          </ns3:TrackPointExtension>
        </extensions>
      </trkpt>
      <trkpt lat="47.546964995563030242919921875" lon="11.04970579035580158233642578125">
        <ele>1667.5999755859375</ele>
        <time>2026-09-01T08:58:53.000Z</time>
        <extensions>
          <ns3:TrackPointExtension>
            <ns3:hr>150</ns3:hr>
            <ns3:cad>0</ns3:cad>
          </ns3:TrackPointExtension>
        </extensions>
      </trkpt>
      <trkpt lat="47.54697195254266262054443359375" lon="11.04970947839319705963134765625">
        <ele>1668.199951171875</ele>
        <time>2026-09-01T08:58:54.000Z</time>
        <extensions>
          <ns3:TrackPointExtension>
            <ns3:hr>152</ns3:hr>
            <ns3:cad>0</ns3:cad>
          </ns3:TrackPointExtension>
        </extensions>
      </trkpt>
      <trkpt lat="47.54697949625551700592041015625" lon="11.0497176088392734527587890625">
        <ele>1668.4000244140625</ele>
        <time>2026-09-01T08:58:55.000Z</time>
        <extensions>
          <ns3:TrackPointExtension>
            <ns3:hr>152</ns3:hr>
            <ns3:cad>0</ns3:cad>
          </ns3:TrackPointExtension>
        </extensions>
      </trkpt>
      <trkpt lat="47.5469789095222949981689453125" lon="11.0497249849140644073486328125">
        <ele>1668.4000244140625</ele>
        <time>2026-09-01T08:58:56.000Z</time>
        <extensions>
          <ns3:TrackPointExtension>
            <ns3:hr>154</ns3:hr>
            <ns3:cad>0</ns3:cad>
          </ns3:TrackPointExtension>
        </extensions>
      </trkpt>
      <trkpt lat="47.5469720363616943359375" lon="11.04972775094211101531982421875">
        <ele>1668.800048828125</ele>
        <time>2026-09-01T08:58:57.000Z</time>
        <extensions>
          <ns3:TrackPointExtension>
            <ns3:hr>155</ns3:hr>
            <ns3:cad>0</ns3:cad>
          </ns3:TrackPointExtension>
        </extensions>
      </trkpt>
      <trkpt lat="47.54697245545685291290283203125" lon="11.0497330315411090850830078125">
        <ele>1669</ele>
        <time>2026-09-01T08:58:58.000Z</time>
        <extensions>
          <ns3:TrackPointExtension>
            <ns3:hr>156</ns3:hr>
            <ns3:cad>0</ns3:cad>
          </ns3:TrackPointExtension>
        </extensions>
      </trkpt>
      <trkpt lat="47.54697295837104320526123046875" lon="11.04974149726331233978271484375">
        <ele>1669.199951171875</ele>
        <time>2026-09-01T08:58:59.000Z</time>
        <extensions>
          <ns3:TrackPointExtension>
            <ns3:hr>156</ns3:hr>
            <ns3:cad>0</ns3:cad>
          </ns3:TrackPointExtension>
        </extensions>
      </trkpt>
      <trkpt lat="47.5469738803803920745849609375" lon="11.0497518070042133331298828125">
        <ele>1669.5999755859375</ele>
        <time>2026-09-01T08:59:00.000Z</time>
        <extensions>
          <ns3:TrackPointExtension>
            <ns3:hr>156</ns3:hr>
            <ns3:cad>0</ns3:cad>
          </ns3:TrackPointExtension>
        </extensions>
      </trkpt>
      <trkpt lat="47.54697765223681926727294921875" lon="11.04975474067032337188720703125">
        <ele>1670</ele>
        <time>2026-09-01T08:59:01.000Z</time>
        <extensions>
          <ns3:TrackPointExtension>
            <ns3:hr>156</ns3:hr>
            <ns3:cad>0</ns3:cad>
          </ns3:TrackPointExtension>
        </extensions>
      </trkpt>
      <trkpt lat="47.5469725392758846282958984375" lon="11.04975390248000621795654296875">
        <ele>1670.199951171875</ele>
        <time>2026-09-01T08:59:02.000Z</time>
        <extensions>
          <ns3:TrackPointExtension>
            <ns3:hr>156</ns3:hr>
            <ns3:cad>0</ns3:cad>
          </ns3:TrackPointExtension>
        </extensions>
      </trkpt>
      <trkpt lat="47.54696792922914028167724609375" lon="11.04976362548768520355224609375">
        <ele>1670.5999755859375</ele>
        <time>2026-09-01T08:59:03.000Z</time>
        <extensions>
          <ns3:TrackPointExtension>
            <ns3:hr>155</ns3:hr>
            <ns3:cad>0</ns3:cad>
          </ns3:TrackPointExtension>
        </extensions>
      </trkpt>
      <trkpt lat="47.546962983906269073486328125" lon="11.04977309703826904296875">
        <ele>1670.800048828125</ele>
        <time>2026-09-01T08:59:04.000Z</time>
        <extensions>
          <ns3:TrackPointExtension>
            <ns3:hr>155</ns3:hr>
            <ns3:cad>0</ns3:cad>
          </ns3:TrackPointExtension>
        </extensions>
      </trkpt>
      <trkpt lat="47.54696440882980823516845703125" lon="11.04978038929402828216552734375">
        <ele>1671</ele>
        <time>2026-09-01T08:59:05.000Z</time>
        <extensions>
          <ns3:TrackPointExtension>
            <ns3:hr>157</ns3:hr>
            <ns3:cad>0</ns3:cad>
          </ns3:TrackPointExtension>
        </extensions>
      </trkpt>
      <trkpt lat="47.5469658337533473968505859375" lon="11.0497970692813396453857421875">
        <ele>1671.4000244140625</ele>
        <time>2026-09-01T08:59:06.000Z</time>
        <extensions>
          <ns3:TrackPointExtension>
            <ns3:hr>157</ns3:hr>
            <ns3:cad>0</ns3:cad>
          </ns3:TrackPointExtension>
        </extensions>
      </trkpt>
      <trkpt lat="47.5469685159623622894287109375" lon="11.04979522526264190673828125">
        <ele>1671.800048828125</ele>
        <time>2026-09-01T08:59:07.000Z</time>
        <extensions>
          <ns3:TrackPointExtension>
            <ns3:hr>157</ns3:hr>
            <ns3:cad>0</ns3:cad>
          </ns3:TrackPointExtension>
        </extensions>
      </trkpt>
      <trkpt lat="47.54696558229625225067138671875" lon="11.04979849420487880706787109375">
        <ele>1672.199951171875</ele>
        <time>2026-09-01T08:59:08.000Z</time>
        <extensions>
          <ns3:TrackPointExtension>
            <ns3:hr>157</ns3:hr>
            <ns3:cad>0</ns3:cad>
          </ns3:TrackPointExtension>
        </extensions>
      </trkpt>
      <trkpt lat="47.5469641573727130889892578125" lon="11.04980654083192348480224609375">
        <ele>1672.5999755859375</ele>
        <time>2026-09-01T08:59:09.000Z</time>
        <extensions>
          <ns3:TrackPointExtension>
            <ns3:hr>157</ns3:hr>
            <ns3:cad>0</ns3:cad>
          </ns3:TrackPointExtension>
        </extensions>
      </trkpt>
      <trkpt lat="47.54696910269558429718017578125" lon="11.0498145036399364471435546875">
        <ele>1673</ele>
        <time>2026-09-01T08:59:10.000Z</time>
        <extensions>
          <ns3:TrackPointExtension>
            <ns3:hr>158</ns3:hr>
            <ns3:cad>0</ns3:cad>
          </ns3:TrackPointExtension>
        </extensions>
      </trkpt>
      <trkpt lat="47.54698075354099273681640625" lon="11.04981131851673126220703125">
        <ele>1673.5999755859375</ele>
        <time>2026-09-01T08:59:11.000Z</time>
        <extensions>
          <ns3:TrackPointExtension>
            <ns3:hr>158</ns3:hr>
            <ns3:cad>0</ns3:cad>
          </ns3:TrackPointExtension>
        </extensions>
      </trkpt>
      <trkpt lat="47.54698486067354679107666015625" lon="11.0498093068599700927734375">
        <ele>1674</ele>
        <time>2026-09-01T08:59:12.000Z</time>
        <extensions>
          <ns3:TrackPointExtension>
            <ns3:hr>159</ns3:hr>
            <ns3:cad>0</ns3:cad>
          </ns3:TrackPointExtension>
        </extensions>
      </trkpt>
      <trkpt lat="47.54698150791227817535400390625" lon="11.0498020984232425689697265625">
        <ele>1674.5999755859375</ele>
        <time>2026-09-01T08:59:13.000Z</time>
        <extensions>
          <ns3:TrackPointExtension>
            <ns3:hr>159</ns3:hr>
            <ns3:cad>0</ns3:cad>
          </ns3:TrackPointExtension>
        </extensions>
      </trkpt>
      <trkpt lat="47.547001875936985015869140625" lon="11.04980151169002056121826171875">
        <ele>1675</ele>
        <time>2026-09-01T08:59:14.000Z</time>
        <extensions>
          <ns3:TrackPointExtension>
            <ns3:hr>160</ns3:hr>
            <ns3:cad>0</ns3:cad>
          </ns3:TrackPointExtension>
        </extensions>
      </trkpt>
      <trkpt lat="47.547010593116283416748046875" lon="11.04979899711906909942626953125">
        <ele>1675.199951171875</ele>
        <time>2026-09-01T08:59:15.000Z</time>
        <extensions>
          <ns3:TrackPointExtension>
            <ns3:hr>160</ns3:hr>
            <ns3:cad>0</ns3:cad>
          </ns3:TrackPointExtension>
        </extensions>
      </trkpt>
      <trkpt lat="47.54701838828623294830322265625" lon="11.0498014278709888458251953125">
        <ele>1675</ele>
        <time>2026-09-01T08:59:16.000Z</time>
        <extensions>
          <ns3:TrackPointExtension>
            <ns3:hr>162</ns3:hr>
            <ns3:cad>0</ns3:cad>
          </ns3:TrackPointExtension>
        </extensions>
      </trkpt>
      <trkpt lat="47.54703104496002197265625" lon="11.049802601337432861328125">
        <ele>1675</ele>
        <time>2026-09-01T08:59:17.000Z</time>
        <extensions>
          <ns3:TrackPointExtension>
            <ns3:hr>162</ns3:hr>
            <ns3:cad>0</ns3:cad>
          </ns3:TrackPointExtension>
        </extensions>
      </trkpt>
      <trkpt lat="47.54703498445451259613037109375" lon="11.04980654083192348480224609375">
        <ele>1675</ele>
        <time>2026-09-01T08:59:18.000Z</time>
        <extensions>
          <ns3:TrackPointExtension>
            <ns3:hr>163</ns3:hr>
            <ns3:cad>0</ns3:cad>
          </ns3:TrackPointExtension>
        </extensions>
      </trkpt>
      <trkpt lat="47.5470452941954135894775390625" lon="11.04980536736547946929931640625">
        <ele>1675.199951171875</ele>
        <time>2026-09-01T08:59:19.000Z</time>
        <extensions>
          <ns3:TrackPointExtension>
            <ns3:hr>163</ns3:hr>
            <ns3:cad>0</ns3:cad>
          </ns3:TrackPointExtension>
        </extensions>
      </trkpt>
      <trkpt lat="47.54705912433564662933349609375" lon="11.04980184696614742279052734375">
        <ele>1675.4000244140625</ele>
        <time>2026-09-01T08:59:20.000Z</time>
        <extensions>
          <ns3:TrackPointExtension>
            <ns3:hr>163</ns3:hr>
            <ns3:cad>0</ns3:cad>
          </ns3:TrackPointExtension>
        </extensions>
      </trkpt>
      <trkpt lat="47.54706717096269130706787109375" lon="11.0498024336993694305419921875">
        <ele>1675.5999755859375</ele>
        <time>2026-09-01T08:59:21.000Z</time>
        <extensions>
          <ns3:TrackPointExtension>
            <ns3:hr>163</ns3:hr>
            <ns3:cad>0</ns3:cad>
          </ns3:TrackPointExtension>
        </extensions>
      </trkpt>
      <trkpt lat="47.5470657460391521453857421875" lon="11.04978977702558040618896484375">
        <ele>1675.800048828125</ele>
        <time>2026-09-01T08:59:22.000Z</time>
        <extensions>
          <ns3:TrackPointExtension>
            <ns3:hr>164</ns3:hr>
            <ns3:cad>0</ns3:cad>
          </ns3:TrackPointExtension>
        </extensions>
      </trkpt>
      <trkpt lat="47.54707454703748226165771484375" lon="11.0497833229601383209228515625">
        <ele>1676</ele>
        <time>2026-09-01T08:59:23.000Z</time>
        <extensions>
          <ns3:TrackPointExtension>
            <ns3:hr>164</ns3:hr>
            <ns3:cad>0</ns3:cad>
          </ns3:TrackPointExtension>
        </extensions>
      </trkpt>
      <trkpt lat="47.5470784865319728851318359375" lon="11.04977779090404510498046875">
        <ele>1676.199951171875</ele>
        <time>2026-09-01T08:59:24.000Z</time>
        <extensions>
          <ns3:TrackPointExtension>
            <ns3:hr>164</ns3:hr>
            <ns3:cad>0</ns3:cad>
          </ns3:TrackPointExtension>
        </extensions>
      </trkpt>
      <trkpt lat="47.54709717817604541778564453125" lon="11.04977284558117389678955078125">
        <ele>1676.199951171875</ele>
        <time>2026-09-01T08:59:25.000Z</time>
        <extensions>
          <ns3:TrackPointExtension>
            <ns3:hr>164</ns3:hr>
            <ns3:cad>0</ns3:cad>
          </ns3:TrackPointExtension>
        </extensions>
      </trkpt>
      <trkpt lat="47.54710547626018524169921875" lon="11.04977217502892017364501953125">
        <ele>1676.5999755859375</ele>
        <time>2026-09-01T08:59:26.000Z</time>
        <extensions>
          <ns3:TrackPointExtension>
            <ns3:hr>165</ns3:hr>
            <ns3:cad>0</ns3:cad>
          </ns3:TrackPointExtension>
        </extensions>
      </trkpt>
      <trkpt lat="47.547107823193073272705078125" lon="11.04977334849536418914794921875">
        <ele>1676.800048828125</ele>
        <time>2026-09-01T08:59:27.000Z</time>
        <extensions>
          <ns3:TrackPointExtension>
            <ns3:hr>165</ns3:hr>
            <ns3:cad>0</ns3:cad>
          </ns3:TrackPointExtension>
        </extensions>
      </trkpt>
      <trkpt lat="47.5471183843910694122314453125" lon="11.04977485723793506622314453125">
        <ele>1677</ele>
        <time>2026-09-01T08:59:28.000Z</time>
        <extensions>
          <ns3:TrackPointExtension>
            <ns3:hr>165</ns3:hr>
            <ns3:cad>0</ns3:cad>
          </ns3:TrackPointExtension>
        </extensions>
      </trkpt>
      <trkpt lat="47.54712584428489208221435546875" lon="11.0497746057808399200439453125">
        <ele>1677</ele>
        <time>2026-09-01T08:59:29.000Z</time>
        <extensions>
          <ns3:TrackPointExtension>
            <ns3:hr>165</ns3:hr>
            <ns3:cad>0</ns3:cad>
          </ns3:TrackPointExtension>
        </extensions>
      </trkpt>
      <trkpt lat="47.54713355563580989837646484375" lon="11.0497690737247467041015625">
        <ele>1677.4000244140625</ele>
        <time>2026-09-01T08:59:30.000Z</time>
        <extensions>
          <ns3:TrackPointExtension>
            <ns3:hr>165</ns3:hr>
            <ns3:cad>0</ns3:cad>
          </ns3:TrackPointExtension>
        </extensions>
      </trkpt>
      <trkpt lat="47.5471418537199497222900390625" lon="11.049772091209888458251953125">
        <ele>1677.5999755859375</ele>
        <time>2026-09-01T08:59:31.000Z</time>
        <extensions>
          <ns3:TrackPointExtension>
            <ns3:hr>165</ns3:hr>
            <ns3:cad>0</ns3:cad>
          </ns3:TrackPointExtension>
        </extensions>
      </trkpt>
      <trkpt lat="47.54714344628155231475830078125" lon="11.04977108538150787353515625">
        <ele>1677.800048828125</ele>
        <time>2026-09-01T08:59:32.000Z</time>
        <extensions>
          <ns3:TrackPointExtension>
            <ns3:hr>165</ns3:hr>
            <ns3:cad>0</ns3:cad>
          </ns3:TrackPointExtension>
        </extensions>
      </trkpt>
      <trkpt lat="47.547150738537311553955078125" lon="11.04977368377149105072021484375">
        <ele>1678.199951171875</ele>
        <time>2026-09-01T08:59:33.000Z</time>
        <extensions>
          <ns3:TrackPointExtension>
            <ns3:hr>164</ns3:hr>
            <ns3:cad>0</ns3:cad>
          </ns3:TrackPointExtension>
        </extensions>
      </trkpt>
      <trkpt lat="47.54715769551694393157958984375" lon="11.0497762821614742279052734375">
        <ele>1678.4000244140625</ele>
        <time>2026-09-01T08:59:34.000Z</time>
        <extensions>
          <ns3:TrackPointExtension>
            <ns3:hr>165</ns3:hr>
            <ns3:cad>0</ns3:cad>
          </ns3:TrackPointExtension>
        </extensions>
      </trkpt>
      <trkpt lat="47.54717512987554073333740234375" lon="11.049778126180171966552734375">
        <ele>1678.800048828125</ele>
        <time>2026-09-01T08:59:35.000Z</time>
        <extensions>
          <ns3:TrackPointExtension>
            <ns3:hr>165</ns3:hr>
            <ns3:cad>0</ns3:cad>
          </ns3:TrackPointExtension>
        </extensions>
      </trkpt>
      <trkpt lat="47.54717881791293621063232421875" lon="11.04977619834244251251220703125">
        <ele>1679</ele>
        <time>2026-09-01T08:59:36.000Z</time>
        <extensions>
          <ns3:TrackPointExtension>
            <ns3:hr>166</ns3:hr>
            <ns3:cad>0</ns3:cad>
          </ns3:TrackPointExtension>
        </extensions>
      </trkpt>
      <trkpt lat="47.547176890075206756591796875" lon="11.049775443971157073974609375">
        <ele>1679.4000244140625</ele>
        <time>2026-09-01T08:59:37.000Z</time>
        <extensions>
          <ns3:TrackPointExtension>
            <ns3:hr>166</ns3:hr>
            <ns3:cad>0</ns3:cad>
          </ns3:TrackPointExtension>
        </extensions>
      </trkpt>
      <trkpt lat="47.5471840985119342803955078125" lon="11.04978592135012149810791015625">
        <ele>1679.5999755859375</ele>
        <time>2026-09-01T08:59:38.000Z</time>
        <extensions>
          <ns3:TrackPointExtension>
            <ns3:hr>166</ns3:hr>
            <ns3:cad>0</ns3:cad>
          </ns3:TrackPointExtension>
        </extensions>
      </trkpt>
      <trkpt lat="47.54719222895801067352294921875" lon="11.0497987456619739532470703125">
        <ele>1680</ele>
        <time>2026-09-01T08:59:39.000Z</time>
        <extensions>
          <ns3:TrackPointExtension>
            <ns3:hr>167</ns3:hr>
            <ns3:cad>0</ns3:cad>
          </ns3:TrackPointExtension>
        </extensions>
      </trkpt>
      <trkpt lat="47.54718921147286891937255859375" lon="11.04980603791773319244384765625">
        <ele>1680.199951171875</ele>
        <time>2026-09-01T08:59:40.000Z</time>
        <extensions>
          <ns3:TrackPointExtension>
            <ns3:hr>167</ns3:hr>
            <ns3:cad>0</ns3:cad>
          </ns3:TrackPointExtension>
        </extensions>
      </trkpt>
      <trkpt lat="47.54719105549156665802001953125" lon="11.04981307871639728546142578125">
        <ele>1680.4000244140625</ele>
        <time>2026-09-01T08:59:41.000Z</time>
        <extensions>
          <ns3:TrackPointExtension>
            <ns3:hr>167</ns3:hr>
            <ns3:cad>0</ns3:cad>
          </ns3:TrackPointExtension>
        </extensions>
      </trkpt>
      <trkpt lat="47.5471944920718669891357421875" lon="11.04982682503759860992431640625">
        <ele>1681</ele>
        <time>2026-09-01T08:59:42.000Z</time>
        <extensions>
          <ns3:TrackPointExtension>
            <ns3:hr>166</ns3:hr>
            <ns3:cad>0</ns3:cad>
          </ns3:TrackPointExtension>
        </extensions>
      </trkpt>
      <trkpt lat="47.5471960008144378662109375" lon="11.04982799850404262542724609375">
        <ele>1681.4000244140625</ele>
        <time>2026-09-01T08:59:43.000Z</time>
        <extensions>
          <ns3:TrackPointExtension>
            <ns3:hr>166</ns3:hr>
            <ns3:cad>0</ns3:cad>
          </ns3:TrackPointExtension>
        </extensions>
      </trkpt>
      <trkpt lat="47.547195665538311004638671875" lon="11.0498396493494510650634765625">
        <ele>1681.800048828125</ele>
        <time>2026-09-01T08:59:44.000Z</time>
        <extensions>
          <ns3:TrackPointExtension>
            <ns3:hr>166</ns3:hr>
            <ns3:cad>0</ns3:cad>
          </ns3:TrackPointExtension>
        </extensions>
      </trkpt>
      <trkpt lat="47.5471881218254566192626953125" lon="11.0498436726629734039306640625">
        <ele>1681.800048828125</ele>
        <time>2026-09-01T08:59:45.000Z</time>
        <extensions>
          <ns3:TrackPointExtension>
            <ns3:hr>165</ns3:hr>
            <ns3:cad>0</ns3:cad>
          </ns3:TrackPointExtension>
        </extensions>
      </trkpt>
      <trkpt lat="47.5471827574074268341064453125" lon="11.04984828270971775054931640625">
        <ele>1682.199951171875</ele>
        <time>2026-09-01T08:59:46.000Z</time>
        <extensions>
          <ns3:TrackPointExtension>
            <ns3:hr>166</ns3:hr>
            <ns3:cad>0</ns3:cad>
          </ns3:TrackPointExtension>
        </extensions>
      </trkpt>
      <trkpt lat="47.54717730917036533355712890625" lon="11.0498577542603015899658203125">
        <ele>1682.5999755859375</ele>
        <time>2026-09-01T08:59:47.000Z</time>
        <extensions>
          <ns3:TrackPointExtension>
            <ns3:hr>166</ns3:hr>
            <ns3:cad>0</ns3:cad>
          </ns3:TrackPointExtension>
        </extensions>
      </trkpt>
      <trkpt lat="47.54717512987554073333740234375" lon="11.04985632933676242828369140625">
        <ele>1683</ele>
        <time>2026-09-01T08:59:48.000Z</time>
        <extensions>
          <ns3:TrackPointExtension>
            <ns3:hr>165</ns3:hr>
            <ns3:cad>0</ns3:cad>
          </ns3:TrackPointExtension>
        </extensions>
      </trkpt>
      <trkpt lat="47.5471693463623523712158203125" lon="11.04987510479986667633056640625">
        <ele>1683.4000244140625</ele>
        <time>2026-09-01T08:59:49.000Z</time>
        <extensions>
          <ns3:TrackPointExtension>
            <ns3:hr>165</ns3:hr>
            <ns3:cad>0</ns3:cad>
          </ns3:TrackPointExtension>
        </extensions>
      </trkpt>
      <trkpt lat="47.54716875962913036346435546875" lon="11.049887426197528839111328125">
        <ele>1683.800048828125</ele>
        <time>2026-09-01T08:59:50.000Z</time>
        <extensions>
          <ns3:TrackPointExtension>
            <ns3:hr>165</ns3:hr>
            <ns3:cad>0</ns3:cad>
          </ns3:TrackPointExtension>
        </extensions>
      </trkpt>
      <trkpt lat="47.5471720285713672637939453125" lon="11.04989421553909778594970703125">
        <ele>1684.199951171875</ele>
        <time>2026-09-01T08:59:51.000Z</time>
        <extensions>
          <ns3:TrackPointExtension>
            <ns3:hr>164</ns3:hr>
            <ns3:cad>0</ns3:cad>
          </ns3:TrackPointExtension>
        </extensions>
      </trkpt>
      <trkpt lat="47.54716339521110057830810546875" lon="11.049911566078662872314453125">
        <ele>1684.4000244140625</ele>
        <time>2026-09-01T08:59:52.000Z</time>
        <extensions>
          <ns3:TrackPointExtension>
            <ns3:hr>164</ns3:hr>
            <ns3:cad>0</ns3:cad>
          </ns3:TrackPointExtension>
        </extensions>
      </trkpt>
      <trkpt lat="47.54716121591627597808837890625" lon="11.049925647675991058349609375">
        <ele>1684.5999755859375</ele>
        <time>2026-09-01T08:59:53.000Z</time>
        <extensions>
          <ns3:TrackPointExtension>
            <ns3:hr>164</ns3:hr>
            <ns3:cad>0</ns3:cad>
          </ns3:TrackPointExtension>
        </extensions>
      </trkpt>
      <trkpt lat="47.5471616350114345550537109375" lon="11.04994551278650760650634765625">
        <ele>1684.800048828125</ele>
        <time>2026-09-01T08:59:54.000Z</time>
        <extensions>
          <ns3:TrackPointExtension>
            <ns3:hr>163</ns3:hr>
            <ns3:cad>0</ns3:cad>
          </ns3:TrackPointExtension>
        </extensions>
      </trkpt>
      <trkpt lat="47.54715903662145137786865234375" lon="11.04995288886129856109619140625">
        <ele>1685.4000244140625</ele>
        <time>2026-09-01T08:59:55.000Z</time>
        <extensions>
          <ns3:TrackPointExtension>
            <ns3:hr>164</ns3:hr>
            <ns3:cad>0</ns3:cad>
          </ns3:TrackPointExtension>
        </extensions>
      </trkpt>
      <trkpt lat="47.54715819843113422393798828125" lon="11.04995992965996265411376953125">
        <ele>1685.800048828125</ele>
        <time>2026-09-01T08:59:56.000Z</time>
        <extensions>
          <ns3:TrackPointExtension>
            <ns3:hr>164</ns3:hr>
            <ns3:cad>0</ns3:cad>
          </ns3:TrackPointExtension>
        </extensions>
      </trkpt>
      <trkpt lat="47.54715509712696075439453125" lon="11.0499590076506137847900390625">
        <ele>1686.4000244140625</ele>
        <time>2026-09-01T08:59:57.000Z</time>
        <extensions>
          <ns3:TrackPointExtension>
            <ns3:hr>165</ns3:hr>
            <ns3:cad>0</ns3:cad>
          </ns3:TrackPointExtension>
        </extensions>
      </trkpt>
      <trkpt lat="47.54713506437838077545166015625" lon="11.04996822774410247802734375">
        <ele>1686.800048828125</ele>
        <time>2026-09-01T08:59:58.000Z</time>
        <extensions>
          <ns3:TrackPointExtension>
            <ns3:hr>166</ns3:hr>
            <ns3:cad>0</ns3:cad>
          </ns3:TrackPointExtension>
        </extensions>
      </trkpt>
      <trkpt lat="47.54713523201644420623779296875" lon="11.049975268542766571044921875">
        <ele>1687.199951171875</ele>
        <time>2026-09-01T08:59:59.000Z</time>
        <extensions>
          <ns3:TrackPointExtension>
            <ns3:hr>166</ns3:hr>
            <ns3:cad>0</ns3:cad>
          </ns3:TrackPointExtension>
        </extensions>
      </trkpt>
      <trkpt lat="47.54712902940809726715087890625" lon="11.04998557828366756439208984375">
        <ele>1687.4000244140625</ele>
        <time>2026-09-01T09:00:00.000Z</time>
        <extensions>
          <ns3:TrackPointExtension>
            <ns3:hr>167</ns3:hr>
            <ns3:cad>0</ns3:cad>
          </ns3:TrackPointExtension>
        </extensions>
      </trkpt>
      <trkpt lat="47.54713271744549274444580078125" lon="11.04999504983425140380859375">
        <ele>1687.5999755859375</ele>
        <time>2026-09-01T09:00:01.000Z</time>
        <extensions>
          <ns3:TrackPointExtension>
            <ns3:hr>167</ns3:hr>
            <ns3:cad>0</ns3:cad>
          </ns3:TrackPointExtension>
        </extensions>
      </trkpt>
      <trkpt lat="47.54712827503681182861328125" lon="11.049992032349109649658203125">
        <ele>1687.800048828125</ele>
        <time>2026-09-01T09:00:02.000Z</time>
        <extensions>
          <ns3:TrackPointExtension>
            <ns3:hr>166</ns3:hr>
            <ns3:cad>0</ns3:cad>
          </ns3:TrackPointExtension>
        </extensions>
      </trkpt>
      <trkpt lat="47.5471317954361438751220703125" lon="11.05001055635511875152587890625">
        <ele>1687.800048828125</ele>
        <time>2026-09-01T09:00:03.000Z</time>
        <extensions>
          <ns3:TrackPointExtension>
            <ns3:hr>166</ns3:hr>
            <ns3:cad>0</ns3:cad>
          </ns3:TrackPointExtension>
        </extensions>
      </trkpt>
      <trkpt lat="47.54713757894933223724365234375" lon="11.0500089637935161590576171875">
        <ele>1688</ele>
        <time>2026-09-01T09:00:04.000Z</time>
        <extensions>
          <ns3:TrackPointExtension>
            <ns3:hr>166</ns3:hr>
            <ns3:cad>0</ns3:cad>
          </ns3:TrackPointExtension>
        </extensions>
      </trkpt>
      <trkpt lat="47.54714042879641056060791015625" lon="11.0500092990696430206298828125">
        <ele>1688.4000244140625</ele>
        <time>2026-09-01T09:00:05.000Z</time>
        <extensions>
          <ns3:TrackPointExtension>
            <ns3:hr>168</ns3:hr>
            <ns3:cad>0</ns3:cad>
          </ns3:TrackPointExtension>
        </extensions>
      </trkpt>
      <trkpt lat="47.54715107381343841552734375" lon="11.0500217042863368988037109375">
        <ele>1688.4000244140625</ele>
        <time>2026-09-01T09:00:06.000Z</time>
        <extensions>
          <ns3:TrackPointExtension>
            <ns3:hr>169</ns3:hr>
            <ns3:cad>0</ns3:cad>
          </ns3:TrackPointExtension>
        </extensions>
      </trkpt>
      <trkpt lat="47.547158114612102508544921875" lon="11.0500210337340831756591796875">
        <ele>1688.800048828125</ele>
        <time>2026-09-01T09:00:07.000Z</time>
        <extensions>
          <ns3:TrackPointExtension>
            <ns3:hr>171</ns3:hr>
            <ns3:cad>0</ns3:cad>
          </ns3:TrackPointExtension>
        </extensions>
      </trkpt>
      <trkpt lat="47.54717814736068248748779296875" lon="11.05002614669501781463623046875">
        <ele>1689</ele>
        <time>2026-09-01T09:00:08.000Z</time>
        <extensions>
          <ns3:TrackPointExtension>
            <ns3:hr>170</ns3:hr>
            <ns3:cad>0</ns3:cad>
          </ns3:TrackPointExtension>
        </extensions>
      </trkpt>
      <trkpt lat="47.54718937911093235015869140625" lon="11.05002455413341522216796875">
        <ele>1689.199951171875</ele>
        <time>2026-09-01T09:00:09.000Z</time>
        <extensions>
          <ns3:TrackPointExtension>
            <ns3:hr>169</ns3:hr>
            <ns3:cad>0</ns3:cad>
          </ns3:TrackPointExtension>
        </extensions>
      </trkpt>
      <trkpt lat="47.54719675518572330474853515625" lon="11.0500310920178890228271484375">
        <ele>1689.4000244140625</ele>
        <time>2026-09-01T09:00:10.000Z</time>
        <extensions>
          <ns3:TrackPointExtension>
            <ns3:hr>168</ns3:hr>
            <ns3:cad>0</ns3:cad>
          </ns3:TrackPointExtension>
        </extensions>
      </trkpt>
      <trkpt lat="47.54720731638371944427490234375" lon="11.0500347800552845001220703125">
        <ele>1689.800048828125</ele>
        <time>2026-09-01T09:00:11.000Z</time>
        <extensions>
          <ns3:TrackPointExtension>
            <ns3:hr>167</ns3:hr>
            <ns3:cad>0</ns3:cad>
          </ns3:TrackPointExtension>
        </extensions>
      </trkpt>
      <trkpt lat="47.54720279015600681304931640625" lon="11.05002849362790584564208984375">
        <ele>1690.199951171875</ele>
        <time>2026-09-01T09:00:12.000Z</time>
        <extensions>
          <ns3:TrackPointExtension>
            <ns3:hr>166</ns3:hr>
            <ns3:cad>0</ns3:cad>
          </ns3:TrackPointExtension>
        </extensions>
      </trkpt>
      <trkpt lat="47.5472122617065906524658203125" lon="11.05004056356847286224365234375">
        <ele>1690.4000244140625</ele>
        <time>2026-09-01T09:00:13.000Z</time>
        <extensions>
          <ns3:TrackPointExtension>
            <ns3:hr>165</ns3:hr>
            <ns3:cad>0</ns3:cad>
          </ns3:TrackPointExtension>
        </extensions>
      </trkpt>
      <trkpt lat="47.54721770994365215301513671875" lon="11.0500465147197246551513671875">
        <ele>1690.800048828125</ele>
        <time>2026-09-01T09:00:14.000Z</time>
        <extensions>
          <ns3:TrackPointExtension>
            <ns3:hr>165</ns3:hr>
            <ns3:cad>0</ns3:cad>
          </ns3:TrackPointExtension>
        </extensions>
      </trkpt>
      <trkpt lat="47.54722340963780879974365234375" lon="11.0500538907945156097412109375">
        <ele>1691</ele>
        <time>2026-09-01T09:00:15.000Z</time>
        <extensions>
          <ns3:TrackPointExtension>
            <ns3:hr>165</ns3:hr>
            <ns3:cad>0</ns3:cad>
          </ns3:TrackPointExtension>
        </extensions>
      </trkpt>
      <trkpt lat="47.54722927697002887725830078125" lon="11.0500656254589557647705078125">
        <ele>1691.199951171875</ele>
        <time>2026-09-01T09:00:16.000Z</time>
        <extensions>
          <ns3:TrackPointExtension>
            <ns3:hr>164</ns3:hr>
            <ns3:cad>0</ns3:cad>
          </ns3:TrackPointExtension>
        </extensions>
      </trkpt>
      <trkpt lat="47.547231875360012054443359375" lon="11.0500719957053661346435546875">
        <ele>1691.4000244140625</ele>
        <time>2026-09-01T09:00:17.000Z</time>
        <extensions>
          <ns3:TrackPointExtension>
            <ns3:hr>165</ns3:hr>
            <ns3:cad>0</ns3:cad>
          </ns3:TrackPointExtension>
        </extensions>
      </trkpt>
      <trkpt lat="47.5472353957593441009521484375" lon="11.05008624494075775146484375">
        <ele>1691.5999755859375</ele>
        <time>2026-09-01T09:00:18.000Z</time>
        <extensions>
          <ns3:TrackPointExtension>
            <ns3:hr>164</ns3:hr>
            <ns3:cad>0</ns3:cad>
          </ns3:TrackPointExtension>
        </extensions>
      </trkpt>
      <trkpt lat="47.54724050872027873992919921875" lon="11.0500963032245635986328125">
        <ele>1691.5999755859375</ele>
        <time>2026-09-01T09:00:19.000Z</time>
        <extensions>
          <ns3:TrackPointExtension>
            <ns3:hr>164</ns3:hr>
            <ns3:cad>0</ns3:cad>
          </ns3:TrackPointExtension>
        </extensions>
      </trkpt>
      <trkpt lat="47.54724436439573764801025390625" lon="11.0501004941761493682861328125">
        <ele>1691.800048828125</ele>
        <time>2026-09-01T09:00:20.000Z</time>
        <extensions>
          <ns3:TrackPointExtension>
            <ns3:hr>164</ns3:hr>
            <ns3:cad>0</ns3:cad>
          </ns3:TrackPointExtension>
        </extensions>
      </trkpt>
      <trkpt lat="47.54725190810859203338623046875" lon="11.050102002918720245361328125">
        <ele>1692</ele>
        <time>2026-09-01T09:00:21.000Z</time>
        <extensions>
          <ns3:TrackPointExtension>
            <ns3:hr>165</ns3:hr>
            <ns3:cad>0</ns3:cad>
          </ns3:TrackPointExtension>
        </extensions>
      </trkpt>
      <trkpt lat="47.54725794307887554168701171875" lon="11.050108708441257476806640625">
        <ele>1692.4000244140625</ele>
        <time>2026-09-01T09:00:22.000Z</time>
        <extensions>
          <ns3:TrackPointExtension>
            <ns3:hr>165</ns3:hr>
            <ns3:cad>45</ns3:cad>
          </ns3:TrackPointExtension>
        </extensions>
      </trkpt>
      <trkpt lat="47.54726598970592021942138671875" lon="11.05011868290603160858154296875">
        <ele>1692.800048828125</ele>
        <time>2026-09-01T09:00:23.000Z</time>
        <extensions>
          <ns3:TrackPointExtension>
            <ns3:hr>165</ns3:hr>
            <ns3:cad>45</ns3:cad>
          </ns3:TrackPointExtension>
        </extensions>
      </trkpt>
      <trkpt lat="47.54727185703814029693603515625" lon="11.0501155816018581390380859375">
        <ele>1693.4000244140625</ele>
        <time>2026-09-01T09:00:24.000Z</time>
        <extensions>
          <ns3:TrackPointExtension>
            <ns3:hr>166</ns3:hr>
            <ns3:cad>44</ns3:cad>
          </ns3:TrackPointExtension>
        </extensions>
      </trkpt>
      <trkpt lat="47.54727923311293125152587890625" lon="11.05011935345828533172607421875">
        <ele>1693.800048828125</ele>
        <time>2026-09-01T09:00:25.000Z</time>
        <extensions>
          <ns3:TrackPointExtension>
            <ns3:hr>166</ns3:hr>
            <ns3:cad>44</ns3:cad>
          </ns3:TrackPointExtension>
        </extensions>
      </trkpt>
      <trkpt lat="47.5472870282828807830810546875" lon="11.05012773536145687103271484375">
        <ele>1694.199951171875</ele>
        <time>2026-09-01T09:00:26.000Z</time>
        <extensions>
          <ns3:TrackPointExtension>
            <ns3:hr>167</ns3:hr>
            <ns3:cad>44</ns3:cad>
          </ns3:TrackPointExtension>
        </extensions>
      </trkpt>
      <trkpt lat="47.54729054868221282958984375" lon="11.05013125576078891754150390625">
        <ele>1694.5999755859375</ele>
        <time>2026-09-01T09:00:27.000Z</time>
        <extensions>
          <ns3:TrackPointExtension>
            <ns3:hr>167</ns3:hr>
            <ns3:cad>44</ns3:cad>
          </ns3:TrackPointExtension>
        </extensions>
      </trkpt>
      <trkpt lat="47.5472930632531642913818359375" lon="11.05014952830970287322998046875">
        <ele>1695</ele>
        <time>2026-09-01T09:00:28.000Z</time>
        <extensions>
          <ns3:TrackPointExtension>
            <ns3:hr>167</ns3:hr>
            <ns3:cad>0</ns3:cad>
          </ns3:TrackPointExtension>
        </extensions>
      </trkpt>
      <trkpt lat="47.547301612794399261474609375" lon="11.05015304870903491973876953125">
        <ele>1695.199951171875</ele>
        <time>2026-09-01T09:00:29.000Z</time>
        <extensions>
          <ns3:TrackPointExtension>
            <ns3:hr>167</ns3:hr>
            <ns3:cad>0</ns3:cad>
          </ns3:TrackPointExtension>
        </extensions>
      </trkpt>
      <trkpt lat="47.54730354063212871551513671875" lon="11.05015187524259090423583984375">
        <ele>1695.4000244140625</ele>
        <time>2026-09-01T09:00:30.000Z</time>
        <extensions>
          <ns3:TrackPointExtension>
            <ns3:hr>166</ns3:hr>
            <ns3:cad>0</ns3:cad>
          </ns3:TrackPointExtension>
        </extensions>
      </trkpt>
      <trkpt lat="47.547305636107921600341796875" lon="11.05016428045928478240966796875">
        <ele>1695.4000244140625</ele>
        <time>2026-09-01T09:00:31.000Z</time>
        <extensions>
          <ns3:TrackPointExtension>
            <ns3:hr>166</ns3:hr>
            <ns3:cad>0</ns3:cad>
          </ns3:TrackPointExtension>
        </extensions>
      </trkpt>
      <trkpt lat="47.5473084859549999237060546875" lon="11.05017115361988544464111328125">
        <ele>1695.5999755859375</ele>
        <time>2026-09-01T09:00:32.000Z</time>
        <extensions>
          <ns3:TrackPointExtension>
            <ns3:hr>166</ns3:hr>
            <ns3:cad>0</ns3:cad>
          </ns3:TrackPointExtension>
        </extensions>
      </trkpt>
      <trkpt lat="47.547313012182712554931640625" lon="11.05018523521721363067626953125">
        <ele>1695.4000244140625</ele>
        <time>2026-09-01T09:00:33.000Z</time>
        <extensions>
          <ns3:TrackPointExtension>
            <ns3:hr>166</ns3:hr>
            <ns3:cad>0</ns3:cad>
          </ns3:TrackPointExtension>
        </extensions>
      </trkpt>
      <trkpt lat="47.54731879569590091705322265625" lon="11.0502010770142078399658203125">
        <ele>1695.4000244140625</ele>
        <time>2026-09-01T09:00:34.000Z</time>
        <extensions>
          <ns3:TrackPointExtension>
            <ns3:hr>166</ns3:hr>
            <ns3:cad>0</ns3:cad>
          </ns3:TrackPointExtension>
        </extensions>
      </trkpt>
      <trkpt lat="47.5473269261419773101806640625" lon="11.0502221994102001190185546875">
        <ele>1695.199951171875</ele>
        <time>2026-09-01T09:00:35.000Z</time>
        <extensions>
          <ns3:TrackPointExtension>
            <ns3:hr>166</ns3:hr>
            <ns3:cad>0</ns3:cad>
          </ns3:TrackPointExtension>
        </extensions>
      </trkpt>
      <trkpt lat="47.547352574765682220458984375" lon="11.05023200623691082000732421875">
        <ele>1695</ele>
        <time>2026-09-01T09:00:36.000Z</time>
        <extensions>
          <ns3:TrackPointExtension>
            <ns3:hr>165</ns3:hr>
            <ns3:cad>0</ns3:cad>
          </ns3:TrackPointExtension>
        </extensions>
      </trkpt>
      <trkpt lat="47.547368668019771575927734375" lon="11.0502480156719684600830078125">
        <ele>1694.800048828125</ele>
        <time>2026-09-01T09:00:37.000Z</time>
        <extensions>
          <ns3:TrackPointExtension>
            <ns3:hr>164</ns3:hr>
            <ns3:cad>0</ns3:cad>
          </ns3:TrackPointExtension>
        </extensions>
      </trkpt>
      <trkpt lat="47.54738266579806804656982421875" lon="11.0502738319337368011474609375">
        <ele>1694.4000244140625</ele>
        <time>2026-09-01T09:00:38.000Z</time>
        <extensions>
          <ns3:TrackPointExtension>
            <ns3:hr>164</ns3:hr>
            <ns3:cad>0</ns3:cad>
          </ns3:TrackPointExtension>
        </extensions>
      </trkpt>
      <trkpt lat="47.54739440046250820159912109375" lon="11.05029889382421970367431640625">
        <ele>1693.800048828125</ele>
        <time>2026-09-01T09:00:39.000Z</time>
        <extensions>
          <ns3:TrackPointExtension>
            <ns3:hr>163</ns3:hr>
            <ns3:cad>75</ns3:cad>
          </ns3:TrackPointExtension>
        </extensions>
      </trkpt>
      <trkpt lat="47.5473998486995697021484375" lon="11.05032621882855892181396484375">
        <ele>1693.199951171875</ele>
        <time>2026-09-01T09:00:40.000Z</time>
        <extensions>
          <ns3:TrackPointExtension>
            <ns3:hr>163</ns3:hr>
            <ns3:cad>77</ns3:cad>
          </ns3:TrackPointExtension>
        </extensions>
      </trkpt>
      <trkpt lat="47.54740781150758266448974609375" lon="11.050354801118373870849609375">
        <ele>1692.5999755859375</ele>
        <time>2026-09-01T09:00:41.000Z</time>
        <extensions>
          <ns3:TrackPointExtension>
            <ns3:hr>162</ns3:hr>
            <ns3:cad>75</ns3:cad>
          </ns3:TrackPointExtension>
        </extensions>
      </trkpt>
      <trkpt lat="47.5474154390394687652587890625" lon="11.050382293760776519775390625">
        <ele>1692.199951171875</ele>
        <time>2026-09-01T09:00:42.000Z</time>
        <extensions>
          <ns3:TrackPointExtension>
            <ns3:hr>162</ns3:hr>
            <ns3:cad>77</ns3:cad>
          </ns3:TrackPointExtension>
        </extensions>
      </trkpt>
      <trkpt lat="47.547425664961338043212890625" lon="11.05041389353573322296142578125">
        <ele>1691.5999755859375</ele>
        <time>2026-09-01T09:00:43.000Z</time>
        <extensions>
          <ns3:TrackPointExtension>
            <ns3:hr>162</ns3:hr>
            <ns3:cad>79</ns3:cad>
          </ns3:TrackPointExtension>
        </extensions>
      </trkpt>
      <trkpt lat="47.5474352203309535980224609375" lon="11.0504391230642795562744140625">
        <ele>1691</ele>
        <time>2026-09-01T09:00:44.000Z</time>
        <extensions>
          <ns3:TrackPointExtension>
            <ns3:hr>162</ns3:hr>
            <ns3:cad>81</ns3:cad>
          </ns3:TrackPointExtension>
        </extensions>
      </trkpt>
      <trkpt lat="47.54747000522911548614501953125" lon="11.05044976808130741119384765625">
        <ele>1690.4000244140625</ele>
        <time>2026-09-01T09:00:45.000Z</time>
        <extensions>
          <ns3:TrackPointExtension>
            <ns3:hr>162</ns3:hr>
            <ns3:cad>81</ns3:cad>
          </ns3:TrackPointExtension>
        </extensions>
      </trkpt>
      <trkpt lat="47.54748207516968250274658203125" lon="11.05049192905426025390625">
        <ele>1689.800048828125</ele>
        <time>2026-09-01T09:00:46.000Z</time>
        <extensions>
          <ns3:TrackPointExtension>
            <ns3:hr>161</ns3:hr>
            <ns3:cad>81</ns3:cad>
          </ns3:TrackPointExtension>
        </extensions>
      </trkpt>
      <trkpt lat="47.547499425709247589111328125" lon="11.0505195893347263336181640625">
        <ele>1689.199951171875</ele>
        <time>2026-09-01T09:00:47.000Z</time>
        <extensions>
          <ns3:TrackPointExtension>
            <ns3:hr>161</ns3:hr>
            <ns3:cad>81</ns3:cad>
          </ns3:TrackPointExtension>
        </extensions>
      </trkpt>
      <trkpt lat="47.547520212829113006591796875" lon="11.05055487714707851409912109375">
        <ele>1688.800048828125</ele>
        <time>2026-09-01T09:00:48.000Z</time>
        <extensions>
          <ns3:TrackPointExtension>
            <ns3:hr>161</ns3:hr>
            <ns3:cad>81</ns3:cad>
          </ns3:TrackPointExtension>
        </extensions>
      </trkpt>
      <trkpt lat="47.54753421060740947723388671875" lon="11.05058773420751094818115234375">
        <ele>1688.5999755859375</ele>
        <time>2026-09-01T09:00:49.000Z</time>
        <extensions>
          <ns3:TrackPointExtension>
            <ns3:hr>161</ns3:hr>
            <ns3:cad>81</ns3:cad>
          </ns3:TrackPointExtension>
        </extensions>
      </trkpt>
      <trkpt lat="47.54754510708153247833251953125" lon="11.050623357295989990234375">
        <ele>1688.4000244140625</ele>
        <time>2026-09-01T09:00:50.000Z</time>
        <extensions>
          <ns3:TrackPointExtension>
            <ns3:hr>161</ns3:hr>
            <ns3:cad>81</ns3:cad>
          </ns3:TrackPointExtension>
        </extensions>
      </trkpt>
      <trkpt lat="47.54755700938403606414794921875" lon="11.05066501535475254058837890625">
        <ele>1688.4000244140625</ele>
        <time>2026-09-01T09:00:51.000Z</time>
        <extensions>
          <ns3:TrackPointExtension>
            <ns3:hr>161</ns3:hr>
            <ns3:cad>81</ns3:cad>
          </ns3:TrackPointExtension>
        </extensions>
      </trkpt>
      <trkpt lat="47.5475743599236011505126953125" lon="11.05069921351969242095947265625">
        <ele>1688.4000244140625</ele>
        <time>2026-09-01T09:00:52.000Z</time>
        <extensions>
          <ns3:TrackPointExtension>
            <ns3:hr>161</ns3:hr>
            <ns3:cad>82</ns3:cad>
          </ns3:TrackPointExtension>
        </extensions>
      </trkpt>
      <trkpt lat="47.5475824065506458282470703125" lon="11.05072117410600185394287109375">
        <ele>1688.5999755859375</ele>
        <time>2026-09-01T09:00:53.000Z</time>
        <extensions>
          <ns3:TrackPointExtension>
            <ns3:hr>161</ns3:hr>
            <ns3:cad>82</ns3:cad>
          </ns3:TrackPointExtension>
        </extensions>
      </trkpt>
      <trkpt lat="47.5475917942821979522705078125" lon="11.0507427155971527099609375">
        <ele>1688.800048828125</ele>
        <time>2026-09-01T09:00:54.000Z</time>
        <extensions>
          <ns3:TrackPointExtension>
            <ns3:hr>160</ns3:hr>
            <ns3:cad>81</ns3:cad>
          </ns3:TrackPointExtension>
        </extensions>
      </trkpt>
      <trkpt lat="47.547595314681529998779296875" lon="11.05075000785291194915771484375">
        <ele>1689</ele>
        <time>2026-09-01T09:00:55.000Z</time>
        <extensions>
          <ns3:TrackPointExtension>
            <ns3:hr>161</ns3:hr>
            <ns3:cad>81</ns3:cad>
          </ns3:TrackPointExtension>
        </extensions>
      </trkpt>
      <trkpt lat="47.5476095639169216156005859375" lon="11.0507643409073352813720703125">
        <ele>1689.199951171875</ele>
        <time>2026-09-01T09:00:56.000Z</time>
        <extensions>
          <ns3:TrackPointExtension>
            <ns3:hr>160</ns3:hr>
            <ns3:cad>80</ns3:cad>
          </ns3:TrackPointExtension>
        </extensions>
      </trkpt>
      <trkpt lat="47.547616101801395416259765625" lon="11.050769872963428497314453125">
        <ele>1689.4000244140625</ele>
        <time>2026-09-01T09:00:57.000Z</time>
        <extensions>
          <ns3:TrackPointExtension>
            <ns3:hr>160</ns3:hr>
            <ns3:cad>80</ns3:cad>
          </ns3:TrackPointExtension>
        </extensions>
      </trkpt>
      <trkpt lat="47.54763211123645305633544921875" lon="11.050770543515682220458984375">
        <ele>1689.5999755859375</ele>
        <time>2026-09-01T09:00:58.000Z</time>
        <extensions>
          <ns3:TrackPointExtension>
            <ns3:hr>160</ns3:hr>
            <ns3:cad>40</ns3:cad>
          </ns3:TrackPointExtension>
        </extensions>
      </trkpt>
      <trkpt lat="47.547642923891544342041015625" lon="11.0507740639150142669677734375">
        <ele>1689.5999755859375</ele>
        <time>2026-09-01T09:00:59.000Z</time>
        <extensions>
          <ns3:TrackPointExtension>
            <ns3:hr>160</ns3:hr>
            <ns3:cad>40</ns3:cad>
          </ns3:TrackPointExtension>
        </extensions>
      </trkpt>
      <trkpt lat="47.54765541292726993560791015625" lon="11.05078169144690036773681640625">
        <ele>1689.800048828125</ele>
        <time>2026-09-01T09:01:00.000Z</time>
        <extensions>
          <ns3:TrackPointExtension>
            <ns3:hr>160</ns3:hr>
            <ns3:cad>40</ns3:cad>
          </ns3:TrackPointExtension>
        </extensions>
      </trkpt>
      <trkpt lat="47.547667734324932098388671875" lon="11.050798706710338592529296875">
        <ele>1690</ele>
        <time>2026-09-01T09:01:01.000Z</time>
        <extensions>
          <ns3:TrackPointExtension>
            <ns3:hr>159</ns3:hr>
            <ns3:cad>40</ns3:cad>
          </ns3:TrackPointExtension>
        </extensions>
      </trkpt>
      <trkpt lat="47.5476699136197566986083984375" lon="11.05080910027027130126953125">
        <ele>1690.199951171875</ele>
        <time>2026-09-01T09:01:02.000Z</time>
        <extensions>
          <ns3:TrackPointExtension>
            <ns3:hr>158</ns3:hr>
            <ns3:cad>51</ns3:cad>
          </ns3:TrackPointExtension>
        </extensions>
      </trkpt>
      <trkpt lat="47.54767066799104213714599609375" lon="11.0508186556398868560791015625">
        <ele>1690.5999755859375</ele>
        <time>2026-09-01T09:01:03.000Z</time>
        <extensions>
          <ns3:TrackPointExtension>
            <ns3:hr>157</ns3:hr>
            <ns3:cad>51</ns3:cad>
          </ns3:TrackPointExtension>
        </extensions>
      </trkpt>
      <trkpt lat="47.5476759485900402069091796875" lon="11.05083416216075420379638671875">
        <ele>1690.800048828125</ele>
        <time>2026-09-01T09:01:04.000Z</time>
        <extensions>
          <ns3:TrackPointExtension>
            <ns3:hr>157</ns3:hr>
            <ns3:cad>53</ns3:cad>
          </ns3:TrackPointExtension>
        </extensions>
      </trkpt>
      <trkpt lat="47.54768391139805316925048828125" lon="11.05084908194839954376220703125">
        <ele>1691.4000244140625</ele>
        <time>2026-09-01T09:01:05.000Z</time>
        <extensions>
          <ns3:TrackPointExtension>
            <ns3:hr>156</ns3:hr>
            <ns3:cad>53</ns3:cad>
          </ns3:TrackPointExtension>
        </extensions>
      </trkpt>
      <trkpt lat="47.5476873479783535003662109375" lon="11.0508548654615879058837890625">
        <ele>1691.5999755859375</ele>
        <time>2026-09-01T09:01:06.000Z</time>
        <extensions>
          <ns3:TrackPointExtension>
            <ns3:hr>156</ns3:hr>
            <ns3:cad>53</ns3:cad>
          </ns3:TrackPointExtension>
        </extensions>
      </trkpt>
      <trkpt lat="47.547689191997051239013671875" lon="11.05086140334606170654296875">
        <ele>1691.800048828125</ele>
        <time>2026-09-01T09:01:07.000Z</time>
        <extensions>
          <ns3:TrackPointExtension>
            <ns3:hr>156</ns3:hr>
            <ns3:cad>53</ns3:cad>
          </ns3:TrackPointExtension>
        </extensions>
      </trkpt>
      <trkpt lat="47.547694556415081024169921875" lon="11.0508716292679309844970703125">
        <ele>1692</ele>
        <time>2026-09-01T09:01:08.000Z</time>
        <extensions>
          <ns3:TrackPointExtension>
            <ns3:hr>155</ns3:hr>
            <ns3:cad>0</ns3:cad>
          </ns3:TrackPointExtension>
        </extensions>
      </trkpt>
      <trkpt lat="47.547698579728603363037109375" lon="11.050878502428531646728515625">
        <ele>1692.4000244140625</ele>
        <time>2026-09-01T09:01:09.000Z</time>
        <extensions>
          <ns3:TrackPointExtension>
            <ns3:hr>155</ns3:hr>
            <ns3:cad>0</ns3:cad>
          </ns3:TrackPointExtension>
        </extensions>
      </trkpt>
      <trkpt lat="47.5477031059563159942626953125" lon="11.0508867166936397552490234375">
        <ele>1692.800048828125</ele>
        <time>2026-09-01T09:01:10.000Z</time>
        <extensions>
          <ns3:TrackPointExtension>
            <ns3:hr>154</ns3:hr>
            <ns3:cad>0</ns3:cad>
          </ns3:TrackPointExtension>
        </extensions>
      </trkpt>
      <trkpt lat="47.54770704545080661773681640625" lon="11.0508920811116695404052734375">
        <ele>1693</ele>
        <time>2026-09-01T09:01:11.000Z</time>
        <extensions>
          <ns3:TrackPointExtension>
            <ns3:hr>153</ns3:hr>
            <ns3:cad>0</ns3:cad>
          </ns3:TrackPointExtension>
        </extensions>
      </trkpt>
      <trkpt lat="47.5477136671543121337890625" lon="11.05090071447193622589111328125">
        <ele>1693.4000244140625</ele>
        <time>2026-09-01T09:01:12.000Z</time>
        <extensions>
          <ns3:TrackPointExtension>
            <ns3:hr>152</ns3:hr>
            <ns3:cad>0</ns3:cad>
          </ns3:TrackPointExtension>
        </extensions>
      </trkpt>
      <trkpt lat="47.5477158464491367340087890625" lon="11.05090406723320484161376953125">
        <ele>1693.5999755859375</ele>
        <time>2026-09-01T09:01:13.000Z</time>
        <extensions>
          <ns3:TrackPointExtension>
            <ns3:hr>151</ns3:hr>
            <ns3:cad>0</ns3:cad>
          </ns3:TrackPointExtension>
        </extensions>
      </trkpt>
      <trkpt lat="47.54772313870489597320556640625" lon="11.05091772973537445068359375">
        <ele>1693.5999755859375</ele>
        <time>2026-09-01T09:01:14.000Z</time>
        <extensions>
          <ns3:TrackPointExtension>
            <ns3:hr>150</ns3:hr>
            <ns3:cad>0</ns3:cad>
          </ns3:TrackPointExtension>
        </extensions>
      </trkpt>
      <trkpt lat="47.5477299280464649200439453125" lon="11.05093390680849552154541015625">
        <ele>1693.5999755859375</ele>
        <time>2026-09-01T09:01:15.000Z</time>
        <extensions>
          <ns3:TrackPointExtension>
            <ns3:hr>150</ns3:hr>
            <ns3:cad>0</ns3:cad>
          </ns3:TrackPointExtension>
        </extensions>
      </trkpt>
      <trkpt lat="47.54773738794028759002685546875" lon="11.05095217935740947723388671875">
        <ele>1693.5999755859375</ele>
        <time>2026-09-01T09:01:16.000Z</time>
        <extensions>
          <ns3:TrackPointExtension>
            <ns3:hr>150</ns3:hr>
            <ns3:cad>0</ns3:cad>
          </ns3:TrackPointExtension>
        </extensions>
      </trkpt>
      <trkpt lat="47.54776035435497760772705078125" lon="11.0509779118001461029052734375">
        <ele>1693.5999755859375</ele>
        <time>2026-09-01T09:01:17.000Z</time>
        <extensions>
          <ns3:TrackPointExtension>
            <ns3:hr>150</ns3:hr>
            <ns3:cad>0</ns3:cad>
          </ns3:TrackPointExtension>
        </extensions>
      </trkpt>
      <trkpt lat="47.5477698259055614471435546875" lon="11.050987802445888519287109375">
        <ele>1693.800048828125</ele>
        <time>2026-09-01T09:01:18.000Z</time>
        <extensions>
          <ns3:TrackPointExtension>
            <ns3:hr>151</ns3:hr>
            <ns3:cad>0</ns3:cad>
          </ns3:TrackPointExtension>
        </extensions>
      </trkpt>
      <trkpt lat="47.5477748550474643707275390625" lon="11.050993166863918304443359375">
        <ele>1693.800048828125</ele>
        <time>2026-09-01T09:01:19.000Z</time>
        <extensions>
          <ns3:TrackPointExtension>
            <ns3:hr>150</ns3:hr>
            <ns3:cad>0</ns3:cad>
          </ns3:TrackPointExtension>
        </extensions>
      </trkpt>
      <trkpt lat="47.5477808900177478790283203125" lon="11.0510043986141681671142578125">
        <ele>1694</ele>
        <time>2026-09-01T09:01:20.000Z</time>
        <extensions>
          <ns3:TrackPointExtension>
            <ns3:hr>150</ns3:hr>
            <ns3:cad>0</ns3:cad>
          </ns3:TrackPointExtension>
        </extensions>
      </trkpt>
      <trkpt lat="47.54779078066349029541015625" lon="11.05101906694471836090087890625">
        <ele>1694</ele>
        <time>2026-09-01T09:01:21.000Z</time>
        <extensions>
          <ns3:TrackPointExtension>
            <ns3:hr>151</ns3:hr>
            <ns3:cad>71</ns3:cad>
          </ns3:TrackPointExtension>
        </extensions>
      </trkpt>
      <trkpt lat="47.54780259914696216583251953125" lon="11.0510419495403766632080078125">
        <ele>1694</ele>
        <time>2026-09-01T09:01:22.000Z</time>
        <extensions>
          <ns3:TrackPointExtension>
            <ns3:hr>151</ns3:hr>
            <ns3:cad>76</ns3:cad>
          </ns3:TrackPointExtension>
        </extensions>
      </trkpt>
      <trkpt lat="47.54781424999237060546875" lon="11.05106365866959095001220703125">
        <ele>1694</ele>
        <time>2026-09-01T09:01:23.000Z</time>
        <extensions>
          <ns3:TrackPointExtension>
            <ns3:hr>150</ns3:hr>
            <ns3:cad>79</ns3:cad>
          </ns3:TrackPointExtension>
        </extensions>
      </trkpt>
      <trkpt lat="47.547827325761318206787109375" lon="11.05108897201716899871826171875">
        <ele>1694</ele>
        <time>2026-09-01T09:01:24.000Z</time>
        <extensions>
          <ns3:TrackPointExtension>
            <ns3:hr>150</ns3:hr>
            <ns3:cad>79</ns3:cad>
          </ns3:TrackPointExtension>
        </extensions>
      </trkpt>
      <trkpt lat="47.54783746786415576934814453125" lon="11.05110841803252696990966796875">
        <ele>1694</ele>
        <time>2026-09-01T09:01:25.000Z</time>
        <extensions>
          <ns3:TrackPointExtension>
            <ns3:hr>150</ns3:hr>
            <ns3:cad>79</ns3:cad>
          </ns3:TrackPointExtension>
        </extensions>
      </trkpt>
      <trkpt lat="47.54784685559570789337158203125" lon="11.05112467892467975616455078125">
        <ele>1694</ele>
        <time>2026-09-01T09:01:26.000Z</time>
        <extensions>
          <ns3:TrackPointExtension>
            <ns3:hr>151</ns3:hr>
            <ns3:cad>79</ns3:cad>
          </ns3:TrackPointExtension>
        </extensions>
      </trkpt>
      <trkpt lat="47.54784635268151760101318359375" lon="11.051134653389453887939453125">
        <ele>1694</ele>
        <time>2026-09-01T09:01:27.000Z</time>
        <extensions>
          <ns3:TrackPointExtension>
            <ns3:hr>151</ns3:hr>
            <ns3:cad>79</ns3:cad>
          </ns3:TrackPointExtension>
        </extensions>
      </trkpt>
      <trkpt lat="47.5478566624224185943603515625" lon="11.0511452145874500274658203125">
        <ele>1694</ele>
        <time>2026-09-01T09:01:28.000Z</time>
        <extensions>
          <ns3:TrackPointExtension>
            <ns3:hr>151</ns3:hr>
            <ns3:cad>0</ns3:cad>
          </ns3:TrackPointExtension>
        </extensions>
      </trkpt>
      <trkpt lat="47.5478694029152393341064453125" lon="11.05116155929863452911376953125">
        <ele>1694</ele>
        <time>2026-09-01T09:01:29.000Z</time>
        <extensions>
          <ns3:TrackPointExtension>
            <ns3:hr>151</ns3:hr>
            <ns3:cad>0</ns3:cad>
          </ns3:TrackPointExtension>
        </extensions>
      </trkpt>
      <trkpt lat="47.54788599908351898193359375" lon="11.0511831007897853851318359375">
        <ele>1694</ele>
        <time>2026-09-01T09:01:30.000Z</time>
        <extensions>
          <ns3:TrackPointExtension>
            <ns3:hr>151</ns3:hr>
            <ns3:cad>75</ns3:cad>
          </ns3:TrackPointExtension>
        </extensions>
      </trkpt>
      <trkpt lat="47.54790008068084716796875" lon="11.0511981882154941558837890625">
        <ele>1694.199951171875</ele>
        <time>2026-09-01T09:01:31.000Z</time>
        <extensions>
          <ns3:TrackPointExtension>
            <ns3:hr>150</ns3:hr>
            <ns3:cad>75</ns3:cad>
          </ns3:TrackPointExtension>
        </extensions>
      </trkpt>
      <trkpt lat="47.5479113124310970306396484375" lon="11.0512052290141582489013671875">
        <ele>1694.4000244140625</ele>
        <time>2026-09-01T09:01:32.000Z</time>
        <extensions>
          <ns3:TrackPointExtension>
            <ns3:hr>150</ns3:hr>
            <ns3:cad>75</ns3:cad>
          </ns3:TrackPointExtension>
        </extensions>
      </trkpt>
      <trkpt lat="47.54792229272425174713134765625" lon="11.05121679604053497314453125">
        <ele>1694.5999755859375</ele>
        <time>2026-09-01T09:01:33.000Z</time>
        <extensions>
          <ns3:TrackPointExtension>
            <ns3:hr>150</ns3:hr>
            <ns3:cad>75</ns3:cad>
          </ns3:TrackPointExtension>
        </extensions>
      </trkpt>
      <trkpt lat="47.547941319644451141357421875" lon="11.0512397624552249908447265625">
        <ele>1694.800048828125</ele>
        <time>2026-09-01T09:01:34.000Z</time>
        <extensions>
          <ns3:TrackPointExtension>
            <ns3:hr>150</ns3:hr>
            <ns3:cad>73</ns3:cad>
          </ns3:TrackPointExtension>
        </extensions>
      </trkpt>
      <trkpt lat="47.547956742346286773681640625" lon="11.051254011690616607666015625">
        <ele>1695</ele>
        <time>2026-09-01T09:01:35.000Z</time>
        <extensions>
          <ns3:TrackPointExtension>
            <ns3:hr>150</ns3:hr>
            <ns3:cad>72</ns3:cad>
          </ns3:TrackPointExtension>
        </extensions>
      </trkpt>
      <trkpt lat="47.54796721972525119781494140625" lon="11.05126499198377132415771484375">
        <ele>1695.199951171875</ele>
        <time>2026-09-01T09:01:36.000Z</time>
        <extensions>
          <ns3:TrackPointExtension>
            <ns3:hr>150</ns3:hr>
            <ns3:cad>73</ns3:cad>
          </ns3:TrackPointExtension>
        </extensions>
      </trkpt>
      <trkpt lat="47.547978870570659637451171875" lon="11.0512776486575603485107421875">
        <ele>1695.4000244140625</ele>
        <time>2026-09-01T09:01:37.000Z</time>
        <extensions>
          <ns3:TrackPointExtension>
            <ns3:hr>150</ns3:hr>
            <ns3:cad>73</ns3:cad>
          </ns3:TrackPointExtension>
        </extensions>
      </trkpt>
      <trkpt lat="47.54798951558768749237060546875" lon="11.05129349045455455780029296875">
        <ele>1695.800048828125</ele>
        <time>2026-09-01T09:01:38.000Z</time>
        <extensions>
          <ns3:TrackPointExtension>
            <ns3:hr>150</ns3:hr>
            <ns3:cad>74</ns3:cad>
          </ns3:TrackPointExtension>
        </extensions>
      </trkpt>
      <trkpt lat="47.54799923859536647796630859375" lon="11.051310002803802490234375">
        <ele>1696</ele>
        <time>2026-09-01T09:01:39.000Z</time>
        <extensions>
          <ns3:TrackPointExtension>
            <ns3:hr>150</ns3:hr>
            <ns3:cad>74</ns3:cad>
          </ns3:TrackPointExtension>
        </extensions>
      </trkpt>
      <trkpt lat="47.5479988195002079010009765625" lon="11.051312349736690521240234375">
        <ele>1696.199951171875</ele>
        <time>2026-09-01T09:01:40.000Z</time>
        <extensions>
          <ns3:TrackPointExtension>
            <ns3:hr>150</ns3:hr>
            <ns3:cad>74</ns3:cad>
          </ns3:TrackPointExtension>
        </extensions>
      </trkpt>
      <trkpt lat="47.5480031780898571014404296875" lon="11.051323078572750091552734375">
        <ele>1696.199951171875</ele>
        <time>2026-09-01T09:01:41.000Z</time>
        <extensions>
          <ns3:TrackPointExtension>
            <ns3:hr>150</ns3:hr>
            <ns3:cad>74</ns3:cad>
          </ns3:TrackPointExtension>
        </extensions>
      </trkpt>
      <trkpt lat="47.54800745286047458648681640625" lon="11.0513306222856044769287109375">
        <ele>1696.199951171875</ele>
        <time>2026-09-01T09:01:42.000Z</time>
        <extensions>
          <ns3:TrackPointExtension>
            <ns3:hr>149</ns3:hr>
            <ns3:cad>74</ns3:cad>
          </ns3:TrackPointExtension>
        </extensions>
      </trkpt>
      <trkpt lat="47.548013739287853240966796875" lon="11.0513381659984588623046875">
        <ele>1696.4000244140625</ele>
        <time>2026-09-01T09:01:43.000Z</time>
        <extensions>
          <ns3:TrackPointExtension>
            <ns3:hr>150</ns3:hr>
            <ns3:cad>51</ns3:cad>
          </ns3:TrackPointExtension>
        </extensions>
      </trkpt>
      <trkpt lat="47.5480149127542972564697265625" lon="11.0513363219797611236572265625">
        <ele>1696.4000244140625</ele>
        <time>2026-09-01T09:01:44.000Z</time>
        <extensions>
          <ns3:TrackPointExtension>
            <ns3:hr>150</ns3:hr>
            <ns3:cad>50</ns3:cad>
          </ns3:TrackPointExtension>
        </extensions>
      </trkpt>
      <trkpt lat="47.54801969043910503387451171875" lon="11.05134612880647182464599609375">
        <ele>1696.800048828125</ele>
        <time>2026-09-01T09:01:45.000Z</time>
        <extensions>
          <ns3:TrackPointExtension>
            <ns3:hr>149</ns3:hr>
            <ns3:cad>50</ns3:cad>
          </ns3:TrackPointExtension>
        </extensions>
      </trkpt>
      <trkpt lat="47.54802388139069080352783203125" lon="11.05135233141481876373291015625">
        <ele>1697</ele>
        <time>2026-09-01T09:01:46.000Z</time>
        <extensions>
          <ns3:TrackPointExtension>
            <ns3:hr>148</ns3:hr>
            <ns3:cad>50</ns3:cad>
          </ns3:TrackPointExtension>
        </extensions>
      </trkpt>
      <trkpt lat="47.5480360351502895355224609375" lon="11.0513644851744174957275390625">
        <ele>1697.4000244140625</ele>
        <time>2026-09-01T09:01:47.000Z</time>
        <extensions>
          <ns3:TrackPointExtension>
            <ns3:hr>148</ns3:hr>
            <ns3:cad>50</ns3:cad>
          </ns3:TrackPointExtension>
        </extensions>
      </trkpt>
      <trkpt lat="47.54804416559636592864990234375" lon="11.05137781240046024322509765625">
        <ele>1697.5999755859375</ele>
        <time>2026-09-01T09:01:48.000Z</time>
        <extensions>
          <ns3:TrackPointExtension>
            <ns3:hr>147</ns3:hr>
            <ns3:cad>50</ns3:cad>
          </ns3:TrackPointExtension>
        </extensions>
      </trkpt>
      <trkpt lat="47.5480447523295879364013671875" lon="11.05137915350496768951416015625">
        <ele>1698</ele>
        <time>2026-09-01T09:01:49.000Z</time>
        <extensions>
          <ns3:TrackPointExtension>
            <ns3:hr>146</ns3:hr>
            <ns3:cad>0</ns3:cad>
          </ns3:TrackPointExtension>
        </extensions>
      </trkpt>
      <trkpt lat="47.54804693162441253662109375" lon="11.05138082988560199737548828125">
        <ele>1698.199951171875</ele>
        <time>2026-09-01T09:01:50.000Z</time>
        <extensions>
          <ns3:TrackPointExtension>
            <ns3:hr>146</ns3:hr>
            <ns3:cad>0</ns3:cad>
          </ns3:TrackPointExtension>
        </extensions>
      </trkpt>
      <trkpt lat="47.5480494461953639984130859375" lon="11.051388122141361236572265625">
        <ele>1698.4000244140625</ele>
        <time>2026-09-01T09:01:51.000Z</time>
        <extensions>
          <ns3:TrackPointExtension>
            <ns3:hr>145</ns3:hr>
            <ns3:cad>0</ns3:cad>
          </ns3:TrackPointExtension>
        </extensions>
      </trkpt>
      <trkpt lat="47.54805187694728374481201171875" lon="11.05139709077775478363037109375">
        <ele>1698.5999755859375</ele>
        <time>2026-09-01T09:01:52.000Z</time>
        <extensions>
          <ns3:TrackPointExtension>
            <ns3:hr>145</ns3:hr>
            <ns3:cad>0</ns3:cad>
          </ns3:TrackPointExtension>
        </extensions>
      </trkpt>
      <trkpt lat="47.5480595044791698455810546875" lon="11.0514157824218273162841796875">
        <ele>1698.5999755859375</ele>
        <time>2026-09-01T09:01:53.000Z</time>
        <extensions>
          <ns3:TrackPointExtension>
            <ns3:hr>145</ns3:hr>
            <ns3:cad>0</ns3:cad>
          </ns3:TrackPointExtension>
        </extensions>
      </trkpt>
      <trkpt lat="47.54806780256330966949462890625" lon="11.05142877437174320220947265625">
        <ele>1698.800048828125</ele>
        <time>2026-09-01T09:01:54.000Z</time>
        <extensions>
          <ns3:TrackPointExtension>
            <ns3:hr>145</ns3:hr>
            <ns3:cad>0</ns3:cad>
          </ns3:TrackPointExtension>
        </extensions>
      </trkpt>
      <trkpt lat="47.54807174205780029296875" lon="11.051439754664897918701171875">
        <ele>1699.199951171875</ele>
        <time>2026-09-01T09:01:55.000Z</time>
        <extensions>
          <ns3:TrackPointExtension>
            <ns3:hr>145</ns3:hr>
            <ns3:cad>0</ns3:cad>
          </ns3:TrackPointExtension>
        </extensions>
      </trkpt>
      <trkpt lat="47.54807752557098865509033203125" lon="11.05144855566322803497314453125">
        <ele>1699.4000244140625</ele>
        <time>2026-09-01T09:01:56.000Z</time>
        <extensions>
          <ns3:TrackPointExtension>
            <ns3:hr>145</ns3:hr>
            <ns3:cad>0</ns3:cad>
          </ns3:TrackPointExtension>
        </extensions>
      </trkpt>
      <trkpt lat="47.54808775149285793304443359375" lon="11.05146221816539764404296875">
        <ele>1699.5999755859375</ele>
        <time>2026-09-01T09:01:57.000Z</time>
        <extensions>
          <ns3:TrackPointExtension>
            <ns3:hr>145</ns3:hr>
            <ns3:cad>0</ns3:cad>
          </ns3:TrackPointExtension>
        </extensions>
      </trkpt>
      <trkpt lat="47.54810032434761524200439453125" lon="11.05148501694202423095703125">
        <ele>1699.800048828125</ele>
        <time>2026-09-01T09:01:58.000Z</time>
        <extensions>
          <ns3:TrackPointExtension>
            <ns3:hr>145</ns3:hr>
            <ns3:cad>0</ns3:cad>
          </ns3:TrackPointExtension>
        </extensions>
      </trkpt>
      <trkpt lat="47.548120357096195220947265625" lon="11.0515073128044605255126953125">
        <ele>1699.800048828125</ele>
        <time>2026-09-01T09:01:59.000Z</time>
        <extensions>
          <ns3:TrackPointExtension>
            <ns3:hr>146</ns3:hr>
            <ns3:cad>0</ns3:cad>
          </ns3:TrackPointExtension>
        </extensions>
      </trkpt>
      <trkpt lat="47.54813552834093570709228515625" lon="11.05151477269828319549560546875">
        <ele>1699.5999755859375</ele>
        <time>2026-09-01T09:02:00.000Z</time>
        <extensions>
          <ns3:TrackPointExtension>
            <ns3:hr>146</ns3:hr>
            <ns3:cad>0</ns3:cad>
          </ns3:TrackPointExtension>
        </extensions>
      </trkpt>
      <trkpt lat="47.5481543876230716705322265625" lon="11.0515247471630573272705078125">
        <ele>1699.5999755859375</ele>
        <time>2026-09-01T09:02:01.000Z</time>
        <extensions>
          <ns3:TrackPointExtension>
            <ns3:hr>146</ns3:hr>
            <ns3:cad>0</ns3:cad>
          </ns3:TrackPointExtension>
        </extensions>
      </trkpt>
      <trkpt lat="47.54816737957298755645751953125" lon="11.05153203941881656646728515625">
        <ele>1699.5999755859375</ele>
        <time>2026-09-01T09:02:02.000Z</time>
        <extensions>
          <ns3:TrackPointExtension>
            <ns3:hr>147</ns3:hr>
            <ns3:cad>0</ns3:cad>
          </ns3:TrackPointExtension>
        </extensions>
      </trkpt>
      <trkpt lat="47.54817903041839599609375" lon="11.0515297763049602508544921875">
        <ele>1699.800048828125</ele>
        <time>2026-09-01T09:02:03.000Z</time>
        <extensions>
          <ns3:TrackPointExtension>
            <ns3:hr>148</ns3:hr>
            <ns3:cad>80</ns3:cad>
          </ns3:TrackPointExtension>
        </extensions>
      </trkpt>
      <trkpt lat="47.5481895916163921356201171875" lon="11.05152902193367481231689453125">
        <ele>1700</ele>
        <time>2026-09-01T09:02:04.000Z</time>
        <extensions>
          <ns3:TrackPointExtension>
            <ns3:hr>149</ns3:hr>
            <ns3:cad>80</ns3:cad>
          </ns3:TrackPointExtension>
        </extensions>
      </trkpt>
      <trkpt lat="47.548203505575656890869140625" lon="11.0515311174094676971435546875">
        <ele>1700.199951171875</ele>
        <time>2026-09-01T09:02:05.000Z</time>
        <extensions>
          <ns3:TrackPointExtension>
            <ns3:hr>150</ns3:hr>
            <ns3:cad>80</ns3:cad>
          </ns3:TrackPointExtension>
        </extensions>
      </trkpt>
      <trkpt lat="47.548217587172985076904296875" lon="11.05153120122849941253662109375">
        <ele>1700.4000244140625</ele>
        <time>2026-09-01T09:02:06.000Z</time>
        <extensions>
          <ns3:TrackPointExtension>
            <ns3:hr>150</ns3:hr>
            <ns3:cad>80</ns3:cad>
          </ns3:TrackPointExtension>
        </extensions>
      </trkpt>
      <trkpt lat="47.548231668770313262939453125" lon="11.0515374876558780670166015625">
        <ele>1700.800048828125</ele>
        <time>2026-09-01T09:02:07.000Z</time>
        <extensions>
          <ns3:TrackPointExtension>
            <ns3:hr>150</ns3:hr>
            <ns3:cad>80</ns3:cad>
          </ns3:TrackPointExtension>
        </extensions>
      </trkpt>
      <trkpt lat="47.5482335127890110015869140625" lon="11.05154729448258876800537109375">
        <ele>1701</ele>
        <time>2026-09-01T09:02:08.000Z</time>
        <extensions>
          <ns3:TrackPointExtension>
            <ns3:hr>151</ns3:hr>
            <ns3:cad>80</ns3:cad>
          </ns3:TrackPointExtension>
        </extensions>
      </trkpt>
      <trkpt lat="47.54824097268283367156982421875" lon="11.05153975076973438262939453125">
        <ele>1701.4000244140625</ele>
        <time>2026-09-01T09:02:09.000Z</time>
        <extensions>
          <ns3:TrackPointExtension>
            <ns3:hr>151</ns3:hr>
            <ns3:cad>80</ns3:cad>
          </ns3:TrackPointExtension>
        </extensions>
      </trkpt>
      <trkpt lat="47.5482516176998615264892578125" lon="11.05154863558709621429443359375">
        <ele>1701.5999755859375</ele>
        <time>2026-09-01T09:02:10.000Z</time>
        <extensions>
          <ns3:TrackPointExtension>
            <ns3:hr>151</ns3:hr>
            <ns3:cad>80</ns3:cad>
          </ns3:TrackPointExtension>
        </extensions>
      </trkpt>
      <trkpt lat="47.54826880060136318206787109375" lon="11.05155064724385738372802734375">
        <ele>1701.5999755859375</ele>
        <time>2026-09-01T09:02:11.000Z</time>
        <extensions>
          <ns3:TrackPointExtension>
            <ns3:hr>151</ns3:hr>
            <ns3:cad>80</ns3:cad>
          </ns3:TrackPointExtension>
        </extensions>
      </trkpt>
      <trkpt lat="47.54828221164643764495849609375" lon="11.0515639744699001312255859375">
        <ele>1701.199951171875</ele>
        <time>2026-09-01T09:02:12.000Z</time>
        <extensions>
          <ns3:TrackPointExtension>
            <ns3:hr>151</ns3:hr>
            <ns3:cad>80</ns3:cad>
          </ns3:TrackPointExtension>
        </extensions>
      </trkpt>
      <trkpt lat="47.54830182529985904693603515625" lon="11.0515700094401836395263671875">
        <ele>1701</ele>
        <time>2026-09-01T09:02:13.000Z</time>
        <extensions>
          <ns3:TrackPointExtension>
            <ns3:hr>150</ns3:hr>
            <ns3:cad>80</ns3:cad>
          </ns3:TrackPointExtension>
        </extensions>
      </trkpt>
      <trkpt lat="47.5483243726193904876708984375" lon="11.05158601887524127960205078125">
        <ele>1700.5999755859375</ele>
        <time>2026-09-01T09:02:14.000Z</time>
        <extensions>
          <ns3:TrackPointExtension>
            <ns3:hr>150</ns3:hr>
            <ns3:cad>80</ns3:cad>
          </ns3:TrackPointExtension>
        </extensions>
      </trkpt>
      <trkpt lat="47.54834256134927272796630859375" lon="11.05159959755837917327880859375">
        <ele>1700.4000244140625</ele>
        <time>2026-09-01T09:02:15.000Z</time>
        <extensions>
          <ns3:TrackPointExtension>
            <ns3:hr>149</ns3:hr>
            <ns3:cad>79</ns3:cad>
          </ns3:TrackPointExtension>
        </extensions>
      </trkpt>
      <trkpt lat="47.54835697822272777557373046875" lon="11.05160529725253582000732421875">
        <ele>1700.4000244140625</ele>
        <time>2026-09-01T09:02:16.000Z</time>
        <extensions>
          <ns3:TrackPointExtension>
            <ns3:hr>148</ns3:hr>
            <ns3:cad>79</ns3:cad>
          </ns3:TrackPointExtension>
        </extensions>
      </trkpt>
      <trkpt lat="47.548387907445430755615234375" lon="11.05161619372665882110595703125">
        <ele>1700.4000244140625</ele>
        <time>2026-09-01T09:02:17.000Z</time>
        <extensions>
          <ns3:TrackPointExtension>
            <ns3:hr>148</ns3:hr>
            <ns3:cad>79</ns3:cad>
          </ns3:TrackPointExtension>
        </extensions>
      </trkpt>
      <trkpt lat="47.54840978421270847320556640625" lon="11.051622144877910614013671875">
        <ele>1700.4000244140625</ele>
        <time>2026-09-01T09:02:18.000Z</time>
        <extensions>
          <ns3:TrackPointExtension>
            <ns3:hr>148</ns3:hr>
            <ns3:cad>79</ns3:cad>
          </ns3:TrackPointExtension>
        </extensions>
      </trkpt>
      <trkpt lat="47.54843208007514476776123046875" lon="11.05162273161113262176513671875">
        <ele>1700.5999755859375</ele>
        <time>2026-09-01T09:02:19.000Z</time>
        <extensions>
          <ns3:TrackPointExtension>
            <ns3:hr>148</ns3:hr>
            <ns3:cad>79</ns3:cad>
          </ns3:TrackPointExtension>
        </extensions>
      </trkpt>
      <trkpt lat="47.54845722578465938568115234375" lon="11.0516306944191455841064453125">
        <ele>1700.5999755859375</ele>
        <time>2026-09-01T09:02:20.000Z</time>
        <extensions>
          <ns3:TrackPointExtension>
            <ns3:hr>149</ns3:hr>
            <ns3:cad>79</ns3:cad>
          </ns3:TrackPointExtension>
        </extensions>
      </trkpt>
      <trkpt lat="47.54847801290452480316162109375" lon="11.051636226475238800048828125">
        <ele>1700.800048828125</ele>
        <time>2026-09-01T09:02:21.000Z</time>
        <extensions>
          <ns3:TrackPointExtension>
            <ns3:hr>149</ns3:hr>
            <ns3:cad>79</ns3:cad>
          </ns3:TrackPointExtension>
        </extensions>
      </trkpt>
      <trkpt lat="47.54849175922572612762451171875" lon="11.05164335109293460845947265625">
        <ele>1701.199951171875</ele>
        <time>2026-09-01T09:02:22.000Z</time>
        <extensions>
          <ns3:TrackPointExtension>
            <ns3:hr>151</ns3:hr>
            <ns3:cad>79</ns3:cad>
          </ns3:TrackPointExtension>
        </extensions>
      </trkpt>
      <trkpt lat="47.5485007278621196746826171875" lon="11.0516420938074588775634765625">
        <ele>1701.5999755859375</ele>
        <time>2026-09-01T09:02:23.000Z</time>
        <extensions>
          <ns3:TrackPointExtension>
            <ns3:hr>151</ns3:hr>
            <ns3:cad>79</ns3:cad>
          </ns3:TrackPointExtension>
        </extensions>
      </trkpt>
      <trkpt lat="47.54851765930652618408203125" lon="11.05164502747356891632080078125">
        <ele>1702</ele>
        <time>2026-09-01T09:02:24.000Z</time>
        <extensions>
          <ns3:TrackPointExtension>
            <ns3:hr>152</ns3:hr>
            <ns3:cad>79</ns3:cad>
          </ns3:TrackPointExtension>
        </extensions>
      </trkpt>
      <trkpt lat="47.54852972924709320068359375" lon="11.05164703913033008575439453125">
        <ele>1702.4000244140625</ele>
        <time>2026-09-01T09:02:25.000Z</time>
        <extensions>
          <ns3:TrackPointExtension>
            <ns3:hr>152</ns3:hr>
            <ns3:cad>78</ns3:cad>
          </ns3:TrackPointExtension>
        </extensions>
      </trkpt>
      <trkpt lat="47.54854456521570682525634765625" lon="11.0516605339944362640380859375">
        <ele>1702.800048828125</ele>
        <time>2026-09-01T09:02:26.000Z</time>
        <extensions>
          <ns3:TrackPointExtension>
            <ns3:hr>152</ns3:hr>
            <ns3:cad>78</ns3:cad>
          </ns3:TrackPointExtension>
        </extensions>
      </trkpt>
      <trkpt lat="47.54855495877563953399658203125" lon="11.051670424640178680419921875">
        <ele>1703.199951171875</ele>
        <time>2026-09-01T09:02:27.000Z</time>
        <extensions>
          <ns3:TrackPointExtension>
            <ns3:hr>152</ns3:hr>
            <ns3:cad>78</ns3:cad>
          </ns3:TrackPointExtension>
        </extensions>
      </trkpt>
      <trkpt lat="47.54856635816395282745361328125" lon="11.05167637579143047332763671875">
        <ele>1703.5999755859375</ele>
        <time>2026-09-01T09:02:28.000Z</time>
        <extensions>
          <ns3:TrackPointExtension>
            <ns3:hr>152</ns3:hr>
            <ns3:cad>78</ns3:cad>
          </ns3:TrackPointExtension>
        </extensions>
      </trkpt>
      <trkpt lat="47.5485728122293949127197265625" lon="11.051687188446521759033203125">
        <ele>1704</ele>
        <time>2026-09-01T09:02:29.000Z</time>
        <extensions>
          <ns3:TrackPointExtension>
            <ns3:hr>151</ns3:hr>
            <ns3:cad>78</ns3:cad>
          </ns3:TrackPointExtension>
        </extensions>
      </trkpt>
      <trkpt lat="47.5485801883041858673095703125" lon="11.051690876483917236328125">
        <ele>1704.4000244140625</ele>
        <time>2026-09-01T09:02:30.000Z</time>
        <extensions>
          <ns3:TrackPointExtension>
            <ns3:hr>152</ns3:hr>
            <ns3:cad>78</ns3:cad>
          </ns3:TrackPointExtension>
        </extensions>
      </trkpt>
      <trkpt lat="47.54858563654124736785888671875" lon="11.0516937263309955596923828125">
        <ele>1704.5999755859375</ele>
        <time>2026-09-01T09:02:31.000Z</time>
        <extensions>
          <ns3:TrackPointExtension>
            <ns3:hr>151</ns3:hr>
            <ns3:cad>78</ns3:cad>
          </ns3:TrackPointExtension>
        </extensions>
      </trkpt>
      <trkpt lat="47.5485972873866558074951171875" lon="11.05169967748224735260009765625">
        <ele>1705</ele>
        <time>2026-09-01T09:02:32.000Z</time>
        <extensions>
          <ns3:TrackPointExtension>
            <ns3:hr>151</ns3:hr>
            <ns3:cad>55</ns3:cad>
          </ns3:TrackPointExtension>
        </extensions>
      </trkpt>
      <trkpt lat="47.548606507480144500732421875" lon="11.051699928939342498779296875">
        <ele>1705.4000244140625</ele>
        <time>2026-09-01T09:02:33.000Z</time>
        <extensions>
          <ns3:TrackPointExtension>
            <ns3:hr>149</ns3:hr>
            <ns3:cad>55</ns3:cad>
          </ns3:TrackPointExtension>
        </extensions>
      </trkpt>
      <trkpt lat="47.54861698485910892486572265625" lon="11.0517007671296596527099609375">
        <ele>1706</ele>
        <time>2026-09-01T09:02:34.000Z</time>
        <extensions>
          <ns3:TrackPointExtension>
            <ns3:hr>149</ns3:hr>
            <ns3:cad>54</ns3:cad>
          </ns3:TrackPointExtension>
        </extensions>
      </trkpt>
      <trkpt lat="47.54862654022872447967529296875" lon="11.05169900692999362945556640625">
        <ele>1706.5999755859375</ele>
        <time>2026-09-01T09:02:35.000Z</time>
        <extensions>
          <ns3:TrackPointExtension>
            <ns3:hr>148</ns3:hr>
            <ns3:cad>53</ns3:cad>
          </ns3:TrackPointExtension>
        </extensions>
      </trkpt>
      <trkpt lat="47.54863190464675426483154296875" lon="11.05169816873967647552490234375">
        <ele>1707.199951171875</ele>
        <time>2026-09-01T09:02:36.000Z</time>
        <extensions>
          <ns3:TrackPointExtension>
            <ns3:hr>148</ns3:hr>
            <ns3:cad>53</ns3:cad>
          </ns3:TrackPointExtension>
        </extensions>
      </trkpt>
      <trkpt lat="47.54864011891186237335205078125" lon="11.051700599491596221923828125">
        <ele>1707.800048828125</ele>
        <time>2026-09-01T09:02:37.000Z</time>
        <extensions>
          <ns3:TrackPointExtension>
            <ns3:hr>148</ns3:hr>
            <ns3:cad>53</ns3:cad>
          </ns3:TrackPointExtension>
        </extensions>
      </trkpt>
      <trkpt lat="47.54864481277763843536376953125" lon="11.05170361697673797607421875">
        <ele>1708.4000244140625</ele>
        <time>2026-09-01T09:02:38.000Z</time>
        <extensions>
          <ns3:TrackPointExtension>
            <ns3:hr>149</ns3:hr>
            <ns3:cad>53</ns3:cad>
          </ns3:TrackPointExtension>
        </extensions>
      </trkpt>
      <trkpt lat="47.54865805618464946746826171875" lon="11.05170772410929203033447265625">
        <ele>1708.800048828125</ele>
        <time>2026-09-01T09:02:39.000Z</time>
        <extensions>
          <ns3:TrackPointExtension>
            <ns3:hr>150</ns3:hr>
            <ns3:cad>53</ns3:cad>
          </ns3:TrackPointExtension>
        </extensions>
      </trkpt>
      <trkpt lat="47.5486673600971698760986328125" lon="11.0517118312418460845947265625">
        <ele>1709.199951171875</ele>
        <time>2026-09-01T09:02:40.000Z</time>
        <extensions>
          <ns3:TrackPointExtension>
            <ns3:hr>150</ns3:hr>
            <ns3:cad>53</ns3:cad>
          </ns3:TrackPointExtension>
        </extensions>
      </trkpt>
      <trkpt lat="47.5486790947616100311279296875" lon="11.0517171956598758697509765625">
        <ele>1709.5999755859375</ele>
        <time>2026-09-01T09:02:41.000Z</time>
        <extensions>
          <ns3:TrackPointExtension>
            <ns3:hr>151</ns3:hr>
            <ns3:cad>51</ns3:cad>
          </ns3:TrackPointExtension>
        </extensions>
      </trkpt>
      <trkpt lat="47.54869191907346248626708984375" lon="11.0517244040966033935546875">
        <ele>1710</ele>
        <time>2026-09-01T09:02:42.000Z</time>
        <extensions>
          <ns3:TrackPointExtension>
            <ns3:hr>151</ns3:hr>
            <ns3:cad>50</ns3:cad>
          </ns3:TrackPointExtension>
        </extensions>
      </trkpt>
      <trkpt lat="47.54870474338531494140625" lon="11.0517282597720623016357421875">
        <ele>1710.4000244140625</ele>
        <time>2026-09-01T09:02:43.000Z</time>
        <extensions>
          <ns3:TrackPointExtension>
            <ns3:hr>152</ns3:hr>
            <ns3:cad>50</ns3:cad>
          </ns3:TrackPointExtension>
        </extensions>
      </trkpt>
      <trkpt lat="47.5487193278968334197998046875" lon="11.05173303745687007904052734375">
        <ele>1710.5999755859375</ele>
        <time>2026-09-01T09:02:44.000Z</time>
        <extensions>
          <ns3:TrackPointExtension>
            <ns3:hr>153</ns3:hr>
            <ns3:cad>49</ns3:cad>
          </ns3:TrackPointExtension>
        </extensions>
      </trkpt>
      <trkpt lat="47.548734582960605621337890625" lon="11.051740162074565887451171875">
        <ele>1710.800048828125</ele>
        <time>2026-09-01T09:02:45.000Z</time>
        <extensions>
          <ns3:TrackPointExtension>
            <ns3:hr>154</ns3:hr>
            <ns3:cad>48</ns3:cad>
          </ns3:TrackPointExtension>
        </extensions>
      </trkpt>
      <trkpt lat="47.54874690435826778411865234375" lon="11.05174745433032512664794921875">
        <ele>1711</ele>
        <time>2026-09-01T09:02:46.000Z</time>
        <extensions>
          <ns3:TrackPointExtension>
            <ns3:hr>158</ns3:hr>
            <ns3:cad>48</ns3:cad>
          </ns3:TrackPointExtension>
        </extensions>
      </trkpt>
      <trkpt lat="47.54875528626143932342529296875" lon="11.051760949194431304931640625">
        <ele>1711.199951171875</ele>
        <time>2026-09-01T09:02:47.000Z</time>
        <extensions>
          <ns3:TrackPointExtension>
            <ns3:hr>160</ns3:hr>
            <ns3:cad>48</ns3:cad>
          </ns3:TrackPointExtension>
        </extensions>
      </trkpt>
      <trkpt lat="47.5487655960023403167724609375" lon="11.05177142657339572906494140625">
        <ele>1711.5999755859375</ele>
        <time>2026-09-01T09:02:48.000Z</time>
        <extensions>
          <ns3:TrackPointExtension>
            <ns3:hr>162</ns3:hr>
            <ns3:cad>48</ns3:cad>
          </ns3:TrackPointExtension>
        </extensions>
      </trkpt>
      <trkpt lat="47.548776827752590179443359375" lon="11.05177897028625011444091796875">
        <ele>1711.800048828125</ele>
        <time>2026-09-01T09:02:49.000Z</time>
        <extensions>
          <ns3:TrackPointExtension>
            <ns3:hr>161</ns3:hr>
            <ns3:cad>53</ns3:cad>
          </ns3:TrackPointExtension>
        </extensions>
      </trkpt>
      <trkpt lat="47.54879057407379150390625" lon="11.051784418523311614990234375">
        <ele>1712.199951171875</ele>
        <time>2026-09-01T09:02:50.000Z</time>
        <extensions>
          <ns3:TrackPointExtension>
            <ns3:hr>160</ns3:hr>
            <ns3:cad>53</ns3:cad>
          </ns3:TrackPointExtension>
        </extensions>
      </trkpt>
      <trkpt lat="47.548799626529216766357421875" lon="11.051793135702610015869140625">
        <ele>1712.4000244140625</ele>
        <time>2026-09-01T09:02:51.000Z</time>
        <extensions>
          <ns3:TrackPointExtension>
            <ns3:hr>160</ns3:hr>
            <ns3:cad>53</ns3:cad>
          </ns3:TrackPointExtension>
        </extensions>
      </trkpt>
      <trkpt lat="47.54881328903138637542724609375" lon="11.05180009268224239349365234375">
        <ele>1712.800048828125</ele>
        <time>2026-09-01T09:02:52.000Z</time>
        <extensions>
          <ns3:TrackPointExtension>
            <ns3:hr>158</ns3:hr>
            <ns3:cad>53</ns3:cad>
          </ns3:TrackPointExtension>
        </extensions>
      </trkpt>
      <trkpt lat="47.54882167093455791473388671875" lon="11.05180612765252590179443359375">
        <ele>1713</ele>
        <time>2026-09-01T09:02:53.000Z</time>
        <extensions>
          <ns3:TrackPointExtension>
            <ns3:hr>158</ns3:hr>
            <ns3:cad>52</ns3:cad>
          </ns3:TrackPointExtension>
        </extensions>
      </trkpt>
      <trkpt lat="47.54883357323706150054931640625" lon="11.0518150962889194488525390625">
        <ele>1713.199951171875</ele>
        <time>2026-09-01T09:02:54.000Z</time>
        <extensions>
          <ns3:TrackPointExtension>
            <ns3:hr>158</ns3:hr>
            <ns3:cad>52</ns3:cad>
          </ns3:TrackPointExtension>
        </extensions>
      </trkpt>
      <trkpt lat="47.54884480498731136322021484375" lon="11.05182029306888580322265625">
        <ele>1713.5999755859375</ele>
        <time>2026-09-01T09:02:55.000Z</time>
        <extensions>
          <ns3:TrackPointExtension>
            <ns3:hr>158</ns3:hr>
            <ns3:cad>52</ns3:cad>
          </ns3:TrackPointExtension>
        </extensions>
      </trkpt>
      <trkpt lat="47.5488544441759586334228515625" lon="11.051825992763042449951171875">
        <ele>1714</ele>
        <time>2026-09-01T09:02:56.000Z</time>
        <extensions>
          <ns3:TrackPointExtension>
            <ns3:hr>158</ns3:hr>
            <ns3:cad>52</ns3:cad>
          </ns3:TrackPointExtension>
        </extensions>
      </trkpt>
      <trkpt lat="47.54886567592620849609375" lon="11.0518321953713893890380859375">
        <ele>1714.199951171875</ele>
        <time>2026-09-01T09:02:57.000Z</time>
        <extensions>
          <ns3:TrackPointExtension>
            <ns3:hr>159</ns3:hr>
            <ns3:cad>51</ns3:cad>
          </ns3:TrackPointExtension>
        </extensions>
      </trkpt>
      <trkpt lat="47.54887280054390430450439453125" lon="11.05183613486588001251220703125">
        <ele>1714.5999755859375</ele>
        <time>2026-09-01T09:02:58.000Z</time>
        <extensions>
          <ns3:TrackPointExtension>
            <ns3:hr>159</ns3:hr>
            <ns3:cad>51</ns3:cad>
          </ns3:TrackPointExtension>
        </extensions>
      </trkpt>
      <trkpt lat="47.54887841641902923583984375" lon="11.0518405772745609283447265625">
        <ele>1714.800048828125</ele>
        <time>2026-09-01T09:02:59.000Z</time>
        <extensions>
          <ns3:TrackPointExtension>
            <ns3:hr>160</ns3:hr>
            <ns3:cad>51</ns3:cad>
          </ns3:TrackPointExtension>
        </extensions>
      </trkpt>
      <trkpt lat="47.548885457217693328857421875" lon="11.0518439300358295440673828125">
        <ele>1715.199951171875</ele>
        <time>2026-09-01T09:03:00.000Z</time>
        <extensions>
          <ns3:TrackPointExtension>
            <ns3:hr>160</ns3:hr>
            <ns3:cad>51</ns3:cad>
          </ns3:TrackPointExtension>
        </extensions>
      </trkpt>
      <trkpt lat="47.548886798322200775146484375" lon="11.05184443295001983642578125">
        <ele>1715.5999755859375</ele>
        <time>2026-09-01T09:03:01.000Z</time>
        <extensions>
          <ns3:TrackPointExtension>
            <ns3:hr>160</ns3:hr>
            <ns3:cad>51</ns3:cad>
          </ns3:TrackPointExtension>
        </extensions>
      </trkpt>
      <trkpt lat="47.54888922907412052154541015625" lon="11.05184577405452728271484375">
        <ele>1716</ele>
        <time>2026-09-01T09:03:02.000Z</time>
        <extensions>
          <ns3:TrackPointExtension>
            <ns3:hr>161</ns3:hr>
            <ns3:cad>0</ns3:cad>
          </ns3:TrackPointExtension>
        </extensions>
      </trkpt>
      <trkpt lat="47.54890213720500469207763671875" lon="11.05185759253799915313720703125">
        <ele>1716.4000244140625</ele>
        <time>2026-09-01T09:03:03.000Z</time>
        <extensions>
          <ns3:TrackPointExtension>
            <ns3:hr>161</ns3:hr>
            <ns3:cad>0</ns3:cad>
          </ns3:TrackPointExtension>
        </extensions>
      </trkpt>
      <trkpt lat="47.54891328513622283935546875" lon="11.05186312459409236907958984375">
        <ele>1716.5999755859375</ele>
        <time>2026-09-01T09:03:04.000Z</time>
        <extensions>
          <ns3:TrackPointExtension>
            <ns3:hr>161</ns3:hr>
            <ns3:cad>0</ns3:cad>
          </ns3:TrackPointExtension>
        </extensions>
      </trkpt>
      <trkpt lat="47.54892191849648952484130859375" lon="11.05186731554567813873291015625">
        <ele>1716.5999755859375</ele>
        <time>2026-09-01T09:03:05.000Z</time>
        <extensions>
          <ns3:TrackPointExtension>
            <ns3:hr>160</ns3:hr>
            <ns3:cad>0</ns3:cad>
          </ns3:TrackPointExtension>
        </extensions>
      </trkpt>
      <trkpt lat="47.5489396043121814727783203125" lon="11.051873601973056793212890625">
        <ele>1716.5999755859375</ele>
        <time>2026-09-01T09:03:06.000Z</time>
        <extensions>
          <ns3:TrackPointExtension>
            <ns3:hr>160</ns3:hr>
            <ns3:cad>0</ns3:cad>
          </ns3:TrackPointExtension>
        </extensions>
      </trkpt>
      <trkpt lat="47.54894907586276531219482421875" lon="11.0518771223723888397216796875">
        <ele>1716.4000244140625</ele>
        <time>2026-09-01T09:03:07.000Z</time>
        <extensions>
          <ns3:TrackPointExtension>
            <ns3:hr>160</ns3:hr>
            <ns3:cad>0</ns3:cad>
          </ns3:TrackPointExtension>
        </extensions>
      </trkpt>
      <trkpt lat="47.5489577092230319976806640625" lon="11.05187955312430858612060546875">
        <ele>1716.4000244140625</ele>
        <time>2026-09-01T09:03:08.000Z</time>
        <extensions>
          <ns3:TrackPointExtension>
            <ns3:hr>160</ns3:hr>
            <ns3:cad>0</ns3:cad>
          </ns3:TrackPointExtension>
        </extensions>
      </trkpt>
      <trkpt lat="47.54896818660199642181396484375" lon="11.05188592337071895599365234375">
        <ele>1716</ele>
        <time>2026-09-01T09:03:09.000Z</time>
        <extensions>
          <ns3:TrackPointExtension>
            <ns3:hr>160</ns3:hr>
            <ns3:cad>0</ns3:cad>
          </ns3:TrackPointExtension>
        </extensions>
      </trkpt>
      <trkpt lat="47.54897925071418285369873046875" lon="11.05189162306487560272216796875">
        <ele>1715.800048828125</ele>
        <time>2026-09-01T09:03:10.000Z</time>
        <extensions>
          <ns3:TrackPointExtension>
            <ns3:hr>161</ns3:hr>
            <ns3:cad>0</ns3:cad>
          </ns3:TrackPointExtension>
        </extensions>
      </trkpt>
      <trkpt lat="47.54898763261735439300537109375" lon="11.0519109852612018585205078125">
        <ele>1715.5999755859375</ele>
        <time>2026-09-01T09:03:11.000Z</time>
        <extensions>
          <ns3:TrackPointExtension>
            <ns3:hr>161</ns3:hr>
            <ns3:cad>0</ns3:cad>
          </ns3:TrackPointExtension>
        </extensions>
      </trkpt>
      <trkpt lat="47.5489996187388896942138671875" lon="11.05192448012530803680419921875">
        <ele>1715.4000244140625</ele>
        <time>2026-09-01T09:03:12.000Z</time>
        <extensions>
          <ns3:TrackPointExtension>
            <ns3:hr>161</ns3:hr>
            <ns3:cad>56</ns3:cad>
          </ns3:TrackPointExtension>
        </extensions>
      </trkpt>
      <trkpt lat="47.54900674335658550262451171875" lon="11.05192582122981548309326171875">
        <ele>1715.5999755859375</ele>
        <time>2026-09-01T09:03:13.000Z</time>
        <extensions>
          <ns3:TrackPointExtension>
            <ns3:hr>161</ns3:hr>
            <ns3:cad>56</ns3:cad>
          </ns3:TrackPointExtension>
        </extensions>
      </trkpt>
      <trkpt lat="47.5490147061645984649658203125" lon="11.05192984454333782196044921875">
        <ele>1715.5999755859375</ele>
        <time>2026-09-01T09:03:14.000Z</time>
        <extensions>
          <ns3:TrackPointExtension>
            <ns3:hr>160</ns3:hr>
            <ns3:cad>56</ns3:cad>
          </ns3:TrackPointExtension>
        </extensions>
      </trkpt>
      <trkpt lat="47.5490230880677700042724609375" lon="11.0519349575042724609375">
        <ele>1715.800048828125</ele>
        <time>2026-09-01T09:03:15.000Z</time>
        <extensions>
          <ns3:TrackPointExtension>
            <ns3:hr>159</ns3:hr>
            <ns3:cad>56</ns3:cad>
          </ns3:TrackPointExtension>
        </extensions>
      </trkpt>
      <trkpt lat="47.54903356544673442840576171875" lon="11.05194308795034885406494140625">
        <ele>1716</ele>
        <time>2026-09-01T09:03:16.000Z</time>
        <extensions>
          <ns3:TrackPointExtension>
            <ns3:hr>159</ns3:hr>
            <ns3:cad>53</ns3:cad>
          </ns3:TrackPointExtension>
        </extensions>
      </trkpt>
      <trkpt lat="47.54904203116893768310546875" lon="11.05195113457739353179931640625">
        <ele>1716.199951171875</ele>
        <time>2026-09-01T09:03:17.000Z</time>
        <extensions>
          <ns3:TrackPointExtension>
            <ns3:hr>159</ns3:hr>
            <ns3:cad>52</ns3:cad>
          </ns3:TrackPointExtension>
        </extensions>
      </trkpt>
      <trkpt lat="47.54905150271952152252197265625" lon="11.051956079900264739990234375">
        <ele>1716.199951171875</ele>
        <time>2026-09-01T09:03:18.000Z</time>
        <extensions>
          <ns3:TrackPointExtension>
            <ns3:hr>158</ns3:hr>
            <ns3:cad>51</ns3:cad>
          </ns3:TrackPointExtension>
        </extensions>
      </trkpt>
      <trkpt lat="47.5490643270313739776611328125" lon="11.0519631206989288330078125">
        <ele>1716.4000244140625</ele>
        <time>2026-09-01T09:03:19.000Z</time>
        <extensions>
          <ns3:TrackPointExtension>
            <ns3:hr>158</ns3:hr>
            <ns3:cad>50</ns3:cad>
          </ns3:TrackPointExtension>
        </extensions>
      </trkpt>
      <trkpt lat="47.54907346330583095550537109375" lon="11.0519676469266414642333984375">
        <ele>1716.4000244140625</ele>
        <time>2026-09-01T09:03:20.000Z</time>
        <extensions>
          <ns3:TrackPointExtension>
            <ns3:hr>158</ns3:hr>
            <ns3:cad>50</ns3:cad>
          </ns3:TrackPointExtension>
        </extensions>
      </trkpt>
      <trkpt lat="47.54908318631350994110107421875" lon="11.05197208933532238006591796875">
        <ele>1716.5999755859375</ele>
        <time>2026-09-01T09:03:21.000Z</time>
        <extensions>
          <ns3:TrackPointExtension>
            <ns3:hr>159</ns3:hr>
            <ns3:cad>50</ns3:cad>
          </ns3:TrackPointExtension>
        </extensions>
      </trkpt>
      <trkpt lat="47.549093328416347503662109375" lon="11.05197560973465442657470703125">
        <ele>1716.800048828125</ele>
        <time>2026-09-01T09:03:22.000Z</time>
        <extensions>
          <ns3:TrackPointExtension>
            <ns3:hr>159</ns3:hr>
            <ns3:cad>50</ns3:cad>
          </ns3:TrackPointExtension>
        </extensions>
      </trkpt>
      <trkpt lat="47.549106739461421966552734375" lon="11.0519803874194622039794921875">
        <ele>1717</ele>
        <time>2026-09-01T09:03:23.000Z</time>
        <extensions>
          <ns3:TrackPointExtension>
            <ns3:hr>159</ns3:hr>
            <ns3:cad>50</ns3:cad>
          </ns3:TrackPointExtension>
        </extensions>
      </trkpt>
      <trkpt lat="47.5491129420697689056396484375" lon="11.051980219781398773193359375">
        <ele>1717.199951171875</ele>
        <time>2026-09-01T09:03:24.000Z</time>
        <extensions>
          <ns3:TrackPointExtension>
            <ns3:hr>160</ns3:hr>
            <ns3:cad>50</ns3:cad>
          </ns3:TrackPointExtension>
        </extensions>
      </trkpt>
      <trkpt lat="47.5491173006594181060791015625" lon="11.05197963304817676544189453125">
        <ele>1717.4000244140625</ele>
        <time>2026-09-01T09:03:25.000Z</time>
        <extensions>
          <ns3:TrackPointExtension>
            <ns3:hr>160</ns3:hr>
            <ns3:cad>50</ns3:cad>
          </ns3:TrackPointExtension>
        </extensions>
      </trkpt>
      <trkpt lat="47.54911989904940128326416015625" lon="11.05196068994700908660888671875">
        <ele>1717.5999755859375</ele>
        <time>2026-09-01T09:03:26.000Z</time>
        <extensions>
          <ns3:TrackPointExtension>
            <ns3:hr>160</ns3:hr>
            <ns3:cad>50</ns3:cad>
          </ns3:TrackPointExtension>
        </extensions>
      </trkpt>
      <trkpt lat="47.54911989904940128326416015625" lon="11.051958091557025909423828125">
        <ele>1717.800048828125</ele>
        <time>2026-09-01T09:03:27.000Z</time>
        <extensions>
          <ns3:TrackPointExtension>
            <ns3:hr>160</ns3:hr>
            <ns3:cad>50</ns3:cad>
          </ns3:TrackPointExtension>
        </extensions>
      </trkpt>
      <trkpt lat="47.54912107251584529876708984375" lon="11.0519418306648731231689453125">
        <ele>1717.800048828125</ele>
        <time>2026-09-01T09:03:28.000Z</time>
        <extensions>
          <ns3:TrackPointExtension>
            <ns3:hr>160</ns3:hr>
            <ns3:cad>50</ns3:cad>
          </ns3:TrackPointExtension>
        </extensions>
      </trkpt>
      <trkpt lat="47.54913297481834888458251953125" lon="11.05193336494266986846923828125">
        <ele>1718</ele>
        <time>2026-09-01T09:03:29.000Z</time>
        <extensions>
          <ns3:TrackPointExtension>
            <ns3:hr>159</ns3:hr>
            <ns3:cad>50</ns3:cad>
          </ns3:TrackPointExtension>
        </extensions>
      </trkpt>
      <trkpt lat="47.54914554767310619354248046875" lon="11.0519334487617015838623046875">
        <ele>1718.199951171875</ele>
        <time>2026-09-01T09:03:30.000Z</time>
        <extensions>
          <ns3:TrackPointExtension>
            <ns3:hr>159</ns3:hr>
            <ns3:cad>0</ns3:cad>
          </ns3:TrackPointExtension>
        </extensions>
      </trkpt>
      <trkpt lat="47.54915577359497547149658203125" lon="11.05193026363849639892578125">
        <ele>1718.4000244140625</ele>
        <time>2026-09-01T09:03:31.000Z</time>
        <extensions>
          <ns3:TrackPointExtension>
            <ns3:hr>159</ns3:hr>
            <ns3:cad>0</ns3:cad>
          </ns3:TrackPointExtension>
        </extensions>
      </trkpt>
      <trkpt lat="47.54916231147944927215576171875" lon="11.0519317723810672760009765625">
        <ele>1718.5999755859375</ele>
        <time>2026-09-01T09:03:32.000Z</time>
        <extensions>
          <ns3:TrackPointExtension>
            <ns3:hr>158</ns3:hr>
            <ns3:cad>0</ns3:cad>
          </ns3:TrackPointExtension>
        </extensions>
      </trkpt>
      <trkpt lat="47.5491739623248577117919921875" lon="11.05193319730460643768310546875">
        <ele>1719</ele>
        <time>2026-09-01T09:03:33.000Z</time>
        <extensions>
          <ns3:TrackPointExtension>
            <ns3:hr>157</ns3:hr>
            <ns3:cad>0</ns3:cad>
          </ns3:TrackPointExtension>
        </extensions>
      </trkpt>
      <trkpt lat="47.54918360151350498199462890625" lon="11.0519364662468433380126953125">
        <ele>1719.199951171875</ele>
        <time>2026-09-01T09:03:34.000Z</time>
        <extensions>
          <ns3:TrackPointExtension>
            <ns3:hr>157</ns3:hr>
            <ns3:cad>0</ns3:cad>
          </ns3:TrackPointExtension>
        </extensions>
      </trkpt>
      <trkpt lat="47.54919114522635936737060546875" lon="11.05194794945418834686279296875">
        <ele>1719.4000244140625</ele>
        <time>2026-09-01T09:03:35.000Z</time>
        <extensions>
          <ns3:TrackPointExtension>
            <ns3:hr>157</ns3:hr>
            <ns3:cad>0</ns3:cad>
          </ns3:TrackPointExtension>
        </extensions>
      </trkpt>
      <trkpt lat="47.549206651747226715087890625" lon="11.0519622825086116790771484375">
        <ele>1719.4000244140625</ele>
        <time>2026-09-01T09:03:36.000Z</time>
        <extensions>
          <ns3:TrackPointExtension>
            <ns3:hr>157</ns3:hr>
            <ns3:cad>0</ns3:cad>
          </ns3:TrackPointExtension>
        </extensions>
      </trkpt>
      <trkpt lat="47.54921779967844486236572265625" lon="11.051968820393085479736328125">
        <ele>1719.5999755859375</ele>
        <time>2026-09-01T09:03:37.000Z</time>
        <extensions>
          <ns3:TrackPointExtension>
            <ns3:hr>156</ns3:hr>
            <ns3:cad>0</ns3:cad>
          </ns3:TrackPointExtension>
        </extensions>
      </trkpt>
      <trkpt lat="47.54923020489513874053955078125" lon="11.0519780404865741729736328125">
        <ele>1719.800048828125</ele>
        <time>2026-09-01T09:03:38.000Z</time>
        <extensions>
          <ns3:TrackPointExtension>
            <ns3:hr>156</ns3:hr>
            <ns3:cad>0</ns3:cad>
          </ns3:TrackPointExtension>
        </extensions>
      </trkpt>
      <trkpt lat="47.54924914799630641937255859375" lon="11.05198214761912822723388671875">
        <ele>1719.800048828125</ele>
        <time>2026-09-01T09:03:39.000Z</time>
        <extensions>
          <ns3:TrackPointExtension>
            <ns3:hr>156</ns3:hr>
            <ns3:cad>0</ns3:cad>
          </ns3:TrackPointExtension>
        </extensions>
      </trkpt>
      <trkpt lat="47.54925685934722423553466796875" lon="11.051983572542667388916015625">
        <ele>1720</ele>
        <time>2026-09-01T09:03:40.000Z</time>
        <extensions>
          <ns3:TrackPointExtension>
            <ns3:hr>156</ns3:hr>
            <ns3:cad>0</ns3:cad>
          </ns3:TrackPointExtension>
        </extensions>
      </trkpt>
      <trkpt lat="47.5492680072784423828125" lon="11.05198466219007968902587890625">
        <ele>1720</ele>
        <time>2026-09-01T09:03:41.000Z</time>
        <extensions>
          <ns3:TrackPointExtension>
            <ns3:hr>156</ns3:hr>
            <ns3:cad>0</ns3:cad>
          </ns3:TrackPointExtension>
        </extensions>
      </trkpt>
      <trkpt lat="47.5492802448570728302001953125" lon="11.05198499746620655059814453125">
        <ele>1720</ele>
        <time>2026-09-01T09:03:42.000Z</time>
        <extensions>
          <ns3:TrackPointExtension>
            <ns3:hr>157</ns3:hr>
            <ns3:cad>0</ns3:cad>
          </ns3:TrackPointExtension>
        </extensions>
      </trkpt>
      <trkpt lat="47.54928745329380035400390625" lon="11.05198700912296772003173828125">
        <ele>1719.800048828125</ele>
        <time>2026-09-01T09:03:43.000Z</time>
        <extensions>
          <ns3:TrackPointExtension>
            <ns3:hr>158</ns3:hr>
            <ns3:cad>0</ns3:cad>
          </ns3:TrackPointExtension>
        </extensions>
      </trkpt>
      <trkpt lat="47.54929457791149616241455078125" lon="11.05198323726654052734375">
        <ele>1720</ele>
        <time>2026-09-01T09:03:44.000Z</time>
        <extensions>
          <ns3:TrackPointExtension>
            <ns3:hr>159</ns3:hr>
            <ns3:cad>0</ns3:cad>
          </ns3:TrackPointExtension>
        </extensions>
      </trkpt>
      <trkpt lat="47.54930648021399974822998046875" lon="11.0519783757627010345458984375">
        <ele>1720.199951171875</ele>
        <time>2026-09-01T09:03:45.000Z</time>
        <extensions>
          <ns3:TrackPointExtension>
            <ns3:hr>159</ns3:hr>
            <ns3:cad>0</ns3:cad>
          </ns3:TrackPointExtension>
        </extensions>
      </trkpt>
      <trkpt lat="47.54931536503136157989501953125" lon="11.05197678320109844207763671875">
        <ele>1720.5999755859375</ele>
        <time>2026-09-01T09:03:46.000Z</time>
        <extensions>
          <ns3:TrackPointExtension>
            <ns3:hr>159</ns3:hr>
            <ns3:cad>0</ns3:cad>
          </ns3:TrackPointExtension>
        </extensions>
      </trkpt>
      <trkpt lat="47.54932542331516742706298828125" lon="11.051974184811115264892578125">
        <ele>1721</ele>
        <time>2026-09-01T09:03:47.000Z</time>
        <extensions>
          <ns3:TrackPointExtension>
            <ns3:hr>159</ns3:hr>
            <ns3:cad>0</ns3:cad>
          </ns3:TrackPointExtension>
        </extensions>
      </trkpt>
      <trkpt lat="47.54933078773319721221923828125" lon="11.0519711673259735107421875">
        <ele>1721.4000244140625</ele>
        <time>2026-09-01T09:03:48.000Z</time>
        <extensions>
          <ns3:TrackPointExtension>
            <ns3:hr>159</ns3:hr>
            <ns3:cad>0</ns3:cad>
          </ns3:TrackPointExtension>
        </extensions>
      </trkpt>
      <trkpt lat="47.5493422709405422210693359375" lon="11.05197250843048095703125">
        <ele>1721.800048828125</ele>
        <time>2026-09-01T09:03:49.000Z</time>
        <extensions>
          <ns3:TrackPointExtension>
            <ns3:hr>159</ns3:hr>
            <ns3:cad>0</ns3:cad>
          </ns3:TrackPointExtension>
        </extensions>
      </trkpt>
      <trkpt lat="47.5493506528437137603759765625" lon="11.05197644792497158050537109375">
        <ele>1722</ele>
        <time>2026-09-01T09:03:50.000Z</time>
        <extensions>
          <ns3:TrackPointExtension>
            <ns3:hr>159</ns3:hr>
            <ns3:cad>45</ns3:cad>
          </ns3:TrackPointExtension>
        </extensions>
      </trkpt>
      <trkpt lat="47.54934855736792087554931640625" lon="11.05197988450527191162109375">
        <ele>1722</ele>
        <time>2026-09-01T09:03:51.000Z</time>
        <extensions>
          <ns3:TrackPointExtension>
            <ns3:hr>159</ns3:hr>
            <ns3:cad>45</ns3:cad>
          </ns3:TrackPointExtension>
        </extensions>
      </trkpt>
      <trkpt lat="47.5493442825973033905029296875" lon="11.05198793113231658935546875">
        <ele>1722</ele>
        <time>2026-09-01T09:03:52.000Z</time>
        <extensions>
          <ns3:TrackPointExtension>
            <ns3:hr>159</ns3:hr>
            <ns3:cad>45</ns3:cad>
          </ns3:TrackPointExtension>
        </extensions>
      </trkpt>
      <trkpt lat="47.54934185184538364410400390625" lon="11.05199170298874378204345703125">
        <ele>1722</ele>
        <time>2026-09-01T09:03:53.000Z</time>
        <extensions>
          <ns3:TrackPointExtension>
            <ns3:hr>159</ns3:hr>
            <ns3:cad>0</ns3:cad>
          </ns3:TrackPointExtension>
        </extensions>
      </trkpt>
      <trkpt lat="47.54934000782668590545654296875" lon="11.05200008489191532135009765625">
        <ele>1722</ele>
        <time>2026-09-01T09:03:54.000Z</time>
        <extensions>
          <ns3:TrackPointExtension>
            <ns3:hr>160</ns3:hr>
            <ns3:cad>0</ns3:cad>
          </ns3:TrackPointExtension>
        </extensions>
      </trkpt>
      <trkpt lat="47.54934755153954029083251953125" lon="11.052007712423801422119140625">
        <ele>1722.199951171875</ele>
        <time>2026-09-01T09:03:55.000Z</time>
        <extensions>
          <ns3:TrackPointExtension>
            <ns3:hr>160</ns3:hr>
            <ns3:cad>0</ns3:cad>
          </ns3:TrackPointExtension>
        </extensions>
      </trkpt>
      <trkpt lat="47.54935509525239467620849609375" lon="11.05201743543148040771484375">
        <ele>1722.199951171875</ele>
        <time>2026-09-01T09:03:56.000Z</time>
        <extensions>
          <ns3:TrackPointExtension>
            <ns3:hr>160</ns3:hr>
            <ns3:cad>0</ns3:cad>
          </ns3:TrackPointExtension>
        </extensions>
      </trkpt>
      <trkpt lat="47.54935291595757007598876953125" lon="11.0520263202488422393798828125">
        <ele>1722.4000244140625</ele>
        <time>2026-09-01T09:03:57.000Z</time>
        <extensions>
          <ns3:TrackPointExtension>
            <ns3:hr>159</ns3:hr>
            <ns3:cad>0</ns3:cad>
          </ns3:TrackPointExtension>
        </extensions>
      </trkpt>
      <trkpt lat="47.5493590347468852996826171875" lon="11.052038557827472686767578125">
        <ele>1722.800048828125</ele>
        <time>2026-09-01T09:03:58.000Z</time>
        <extensions>
          <ns3:TrackPointExtension>
            <ns3:hr>159</ns3:hr>
            <ns3:cad>0</ns3:cad>
          </ns3:TrackPointExtension>
        </extensions>
      </trkpt>
      <trkpt lat="47.5493654049932956695556640625" lon="11.0520454309880733489990234375">
        <ele>1723.4000244140625</ele>
        <time>2026-09-01T09:03:59.000Z</time>
        <extensions>
          <ns3:TrackPointExtension>
            <ns3:hr>159</ns3:hr>
            <ns3:cad>0</ns3:cad>
          </ns3:TrackPointExtension>
        </extensions>
      </trkpt>
      <trkpt lat="47.54936900921165943145751953125" lon="11.052052974700927734375">
        <ele>1723.800048828125</ele>
        <time>2026-09-01T09:04:00.000Z</time>
        <extensions>
          <ns3:TrackPointExtension>
            <ns3:hr>159</ns3:hr>
            <ns3:cad>0</ns3:cad>
          </ns3:TrackPointExtension>
        </extensions>
      </trkpt>
      <trkpt lat="47.54938309080898761749267578125" lon="11.05205121450126171112060546875">
        <ele>1724.199951171875</ele>
        <time>2026-09-01T09:04:01.000Z</time>
        <extensions>
          <ns3:TrackPointExtension>
            <ns3:hr>159</ns3:hr>
            <ns3:cad>0</ns3:cad>
          </ns3:TrackPointExtension>
        </extensions>
      </trkpt>
      <trkpt lat="47.54938292317092418670654296875" lon="11.05205708183348178863525390625">
        <ele>1724.5999755859375</ele>
        <time>2026-09-01T09:04:02.000Z</time>
        <extensions>
          <ns3:TrackPointExtension>
            <ns3:hr>159</ns3:hr>
            <ns3:cad>0</ns3:cad>
          </ns3:TrackPointExtension>
        </extensions>
      </trkpt>
      <trkpt lat="47.549385018646717071533203125" lon="11.05206127278506755828857421875">
        <ele>1725</ele>
        <time>2026-09-01T09:04:03.000Z</time>
        <extensions>
          <ns3:TrackPointExtension>
            <ns3:hr>159</ns3:hr>
            <ns3:cad>0</ns3:cad>
          </ns3:TrackPointExtension>
        </extensions>
      </trkpt>
      <trkpt lat="47.549387700855731964111328125" lon="11.052069403231143951416015625">
        <ele>1725.199951171875</ele>
        <time>2026-09-01T09:04:04.000Z</time>
        <extensions>
          <ns3:TrackPointExtension>
            <ns3:hr>159</ns3:hr>
            <ns3:cad>0</ns3:cad>
          </ns3:TrackPointExtension>
        </extensions>
      </trkpt>
      <trkpt lat="47.54938677884638309478759765625" lon="11.05207107961177825927734375">
        <ele>1725.5999755859375</ele>
        <time>2026-09-01T09:04:05.000Z</time>
        <extensions>
          <ns3:TrackPointExtension>
            <ns3:hr>159</ns3:hr>
            <ns3:cad>0</ns3:cad>
          </ns3:TrackPointExtension>
        </extensions>
      </trkpt>
      <trkpt lat="47.549394071102142333984375" lon="11.05207979679107666015625">
        <ele>1726.199951171875</ele>
        <time>2026-09-01T09:04:06.000Z</time>
        <extensions>
          <ns3:TrackPointExtension>
            <ns3:hr>159</ns3:hr>
            <ns3:cad>69</ns3:cad>
          </ns3:TrackPointExtension>
        </extensions>
      </trkpt>
      <trkpt lat="47.5493922270834445953369140625" lon="11.0520772822201251983642578125">
        <ele>1726.4000244140625</ele>
        <time>2026-09-01T09:04:07.000Z</time>
        <extensions>
          <ns3:TrackPointExtension>
            <ns3:hr>159</ns3:hr>
            <ns3:cad>69</ns3:cad>
          </ns3:TrackPointExtension>
        </extensions>
      </trkpt>
      <trkpt lat="47.5493967533111572265625" lon="11.05208273045718669891357421875">
        <ele>1726.800048828125</ele>
        <time>2026-09-01T09:04:08.000Z</time>
        <extensions>
          <ns3:TrackPointExtension>
            <ns3:hr>159</ns3:hr>
            <ns3:cad>0</ns3:cad>
          </ns3:TrackPointExtension>
        </extensions>
      </trkpt>
      <trkpt lat="47.5494016148149967193603515625" lon="11.05208977125585079193115234375">
        <ele>1727.4000244140625</ele>
        <time>2026-09-01T09:04:09.000Z</time>
        <extensions>
          <ns3:TrackPointExtension>
            <ns3:hr>159</ns3:hr>
            <ns3:cad>0</ns3:cad>
          </ns3:TrackPointExtension>
        </extensions>
      </trkpt>
      <trkpt lat="47.549407146871089935302734375" lon="11.05209714733064174652099609375">
        <ele>1727.800048828125</ele>
        <time>2026-09-01T09:04:10.000Z</time>
        <extensions>
          <ns3:TrackPointExtension>
            <ns3:hr>157</ns3:hr>
            <ns3:cad>0</ns3:cad>
          </ns3:TrackPointExtension>
        </extensions>
      </trkpt>
      <trkpt lat="47.5494123436510562896728515625" lon="11.0521054454147815704345703125">
        <ele>1728</ele>
        <time>2026-09-01T09:04:11.000Z</time>
        <extensions>
          <ns3:TrackPointExtension>
            <ns3:hr>151</ns3:hr>
            <ns3:cad>0</ns3:cad>
          </ns3:TrackPointExtension>
        </extensions>
      </trkpt>
      <trkpt lat="47.54941695369780063629150390625" lon="11.05211692862212657928466796875">
        <ele>1728.199951171875</ele>
        <time>2026-09-01T09:04:12.000Z</time>
        <extensions>
          <ns3:TrackPointExtension>
            <ns3:hr>150</ns3:hr>
            <ns3:cad>0</ns3:cad>
          </ns3:TrackPointExtension>
        </extensions>
      </trkpt>
      <trkpt lat="47.54942282103002071380615234375" lon="11.05213101021945476531982421875">
        <ele>1728.4000244140625</ele>
        <time>2026-09-01T09:04:13.000Z</time>
        <extensions>
          <ns3:TrackPointExtension>
            <ns3:hr>149</ns3:hr>
            <ns3:cad>0</ns3:cad>
          </ns3:TrackPointExtension>
        </extensions>
      </trkpt>
      <trkpt lat="47.5494294427335262298583984375" lon="11.05214349925518035888671875">
        <ele>1728.4000244140625</ele>
        <time>2026-09-01T09:04:14.000Z</time>
        <extensions>
          <ns3:TrackPointExtension>
            <ns3:hr>149</ns3:hr>
            <ns3:cad>0</ns3:cad>
          </ns3:TrackPointExtension>
        </extensions>
      </trkpt>
      <trkpt lat="47.549430616199970245361328125" lon="11.052156575024127960205078125">
        <ele>1728.4000244140625</ele>
        <time>2026-09-01T09:04:15.000Z</time>
        <extensions>
          <ns3:TrackPointExtension>
            <ns3:hr>148</ns3:hr>
            <ns3:cad>79</ns3:cad>
          </ns3:TrackPointExtension>
        </extensions>
      </trkpt>
      <trkpt lat="47.54943489097058773040771484375" lon="11.05216688476502895355224609375">
        <ele>1728.4000244140625</ele>
        <time>2026-09-01T09:04:16.000Z</time>
        <extensions>
          <ns3:TrackPointExtension>
            <ns3:hr>148</ns3:hr>
            <ns3:cad>79</ns3:cad>
          </ns3:TrackPointExtension>
        </extensions>
      </trkpt>
      <trkpt lat="47.5494401715695858001708984375" lon="11.052178032696247100830078125">
        <ele>1728.5999755859375</ele>
        <time>2026-09-01T09:04:17.000Z</time>
        <extensions>
          <ns3:TrackPointExtension>
            <ns3:hr>148</ns3:hr>
            <ns3:cad>42</ns3:cad>
          </ns3:TrackPointExtension>
        </extensions>
      </trkpt>
      <trkpt lat="47.5494465418159961700439453125" lon="11.05218566022813320159912109375">
        <ele>1728.800048828125</ele>
        <time>2026-09-01T09:04:18.000Z</time>
        <extensions>
          <ns3:TrackPointExtension>
            <ns3:hr>148</ns3:hr>
            <ns3:cad>42</ns3:cad>
          </ns3:TrackPointExtension>
        </extensions>
      </trkpt>
      <trkpt lat="47.54945199005305767059326171875" lon="11.0521892644464969635009765625">
        <ele>1729</ele>
        <time>2026-09-01T09:04:19.000Z</time>
        <extensions>
          <ns3:TrackPointExtension>
            <ns3:hr>148</ns3:hr>
            <ns3:cad>42</ns3:cad>
          </ns3:TrackPointExtension>
        </extensions>
      </trkpt>
      <trkpt lat="47.5494690053164958953857421875" lon="11.0521869175136089324951171875">
        <ele>1729</ele>
        <time>2026-09-01T09:04:20.000Z</time>
        <extensions>
          <ns3:TrackPointExtension>
            <ns3:hr>148</ns3:hr>
            <ns3:cad>42</ns3:cad>
          </ns3:TrackPointExtension>
        </extensions>
      </trkpt>
      <trkpt lat="47.5494800694286823272705078125" lon="11.05218934826552867889404296875">
        <ele>1729.199951171875</ele>
        <time>2026-09-01T09:04:21.000Z</time>
        <extensions>
          <ns3:TrackPointExtension>
            <ns3:hr>148</ns3:hr>
            <ns3:cad>42</ns3:cad>
          </ns3:TrackPointExtension>
        </extensions>
      </trkpt>
      <trkpt lat="47.5494946539402008056640625" lon="11.0521949641406536102294921875">
        <ele>1729.4000244140625</ele>
        <time>2026-09-01T09:04:22.000Z</time>
        <extensions>
          <ns3:TrackPointExtension>
            <ns3:hr>148</ns3:hr>
            <ns3:cad>44</ns3:cad>
          </ns3:TrackPointExtension>
        </extensions>
      </trkpt>
      <trkpt lat="47.54950605332851409912109375" lon="11.052202172577381134033203125">
        <ele>1729.4000244140625</ele>
        <time>2026-09-01T09:04:23.000Z</time>
        <extensions>
          <ns3:TrackPointExtension>
            <ns3:hr>149</ns3:hr>
            <ns3:cad>47</ns3:cad>
          </ns3:TrackPointExtension>
        </extensions>
      </trkpt>
      <trkpt lat="47.549516446888446807861328125" lon="11.0522123984992504119873046875">
        <ele>1729.5999755859375</ele>
        <time>2026-09-01T09:04:24.000Z</time>
        <extensions>
          <ns3:TrackPointExtension>
            <ns3:hr>149</ns3:hr>
            <ns3:cad>47</ns3:cad>
          </ns3:TrackPointExtension>
        </extensions>
      </trkpt>
      <trkpt lat="47.549520470201969146728515625" lon="11.0522254742681980133056640625">
        <ele>1729.5999755859375</ele>
        <time>2026-09-01T09:04:25.000Z</time>
        <extensions>
          <ns3:TrackPointExtension>
            <ns3:hr>151</ns3:hr>
            <ns3:cad>47</ns3:cad>
          </ns3:TrackPointExtension>
        </extensions>
      </trkpt>
      <trkpt lat="47.5495256669819355010986328125" lon="11.05223863385617733001708984375">
        <ele>1729.800048828125</ele>
        <time>2026-09-01T09:04:26.000Z</time>
        <extensions>
          <ns3:TrackPointExtension>
            <ns3:hr>157</ns3:hr>
            <ns3:cad>47</ns3:cad>
          </ns3:TrackPointExtension>
        </extensions>
      </trkpt>
      <trkpt lat="47.54952994175255298614501953125" lon="11.05224810540676116943359375">
        <ele>1730.199951171875</ele>
        <time>2026-09-01T09:04:27.000Z</time>
        <extensions>
          <ns3:TrackPointExtension>
            <ns3:hr>164</ns3:hr>
            <ns3:cad>46</ns3:cad>
          </ns3:TrackPointExtension>
        </extensions>
      </trkpt>
      <trkpt lat="47.54953882656991481781005859375" lon="11.05226151645183563232421875">
        <ele>1730.5999755859375</ele>
        <time>2026-09-01T09:04:28.000Z</time>
        <extensions>
          <ns3:TrackPointExtension>
            <ns3:hr>165</ns3:hr>
            <ns3:cad>45</ns3:cad>
          </ns3:TrackPointExtension>
        </extensions>
      </trkpt>
      <trkpt lat="47.54954938776791095733642578125" lon="11.0522633604705333709716796875">
        <ele>1731.199951171875</ele>
        <time>2026-09-01T09:04:29.000Z</time>
        <extensions>
          <ns3:TrackPointExtension>
            <ns3:hr>166</ns3:hr>
            <ns3:cad>45</ns3:cad>
          </ns3:TrackPointExtension>
        </extensions>
      </trkpt>
      <trkpt lat="47.54955056123435497283935546875" lon="11.05227065272629261016845703125">
        <ele>1731.800048828125</ele>
        <time>2026-09-01T09:04:30.000Z</time>
        <extensions>
          <ns3:TrackPointExtension>
            <ns3:hr>166</ns3:hr>
            <ns3:cad>45</ns3:cad>
          </ns3:TrackPointExtension>
        </extensions>
      </trkpt>
      <trkpt lat="47.54955173470079898834228515625" lon="11.052277274429798126220703125">
        <ele>1732.199951171875</ele>
        <time>2026-09-01T09:04:31.000Z</time>
        <extensions>
          <ns3:TrackPointExtension>
            <ns3:hr>166</ns3:hr>
            <ns3:cad>46</ns3:cad>
          </ns3:TrackPointExtension>
        </extensions>
      </trkpt>
      <trkpt lat="47.54954888485372066497802734375" lon="11.05227601714432239532470703125">
        <ele>1732.800048828125</ele>
        <time>2026-09-01T09:04:32.000Z</time>
        <extensions>
          <ns3:TrackPointExtension>
            <ns3:hr>167</ns3:hr>
            <ns3:cad>46</ns3:cad>
          </ns3:TrackPointExtension>
        </extensions>
      </trkpt>
      <trkpt lat="47.54954888485372066497802734375" lon="11.05227735824882984161376953125">
        <ele>1732.800048828125</ele>
        <time>2026-09-01T09:04:33.000Z</time>
        <extensions>
          <ns3:TrackPointExtension>
            <ns3:hr>167</ns3:hr>
            <ns3:cad>46</ns3:cad>
          </ns3:TrackPointExtension>
        </extensions>
      </trkpt>
      <trkpt lat="47.5495558418333530426025390625" lon="11.05228439904749393463134765625">
        <ele>1733</ele>
        <time>2026-09-01T09:04:34.000Z</time>
        <extensions>
          <ns3:TrackPointExtension>
            <ns3:hr>167</ns3:hr>
            <ns3:cad>46</ns3:cad>
          </ns3:TrackPointExtension>
        </extensions>
      </trkpt>
      <trkpt lat="47.54956145770847797393798828125" lon="11.0522831417620182037353515625">
        <ele>1733</ele>
        <time>2026-09-01T09:04:35.000Z</time>
        <extensions>
          <ns3:TrackPointExtension>
            <ns3:hr>167</ns3:hr>
            <ns3:cad>0</ns3:cad>
          </ns3:TrackPointExtension>
        </extensions>
      </trkpt>
      <trkpt lat="47.54955642856657505035400390625" lon="11.052272580564022064208984375">
        <ele>1733.199951171875</ele>
        <time>2026-09-01T09:04:36.000Z</time>
        <extensions>
          <ns3:TrackPointExtension>
            <ns3:hr>168</ns3:hr>
            <ns3:cad>0</ns3:cad>
          </ns3:TrackPointExtension>
        </extensions>
      </trkpt>
      <trkpt lat="47.5495571829378604888916015625" lon="11.05226646177470684051513671875">
        <ele>1733.199951171875</ele>
        <time>2026-09-01T09:04:37.000Z</time>
        <extensions>
          <ns3:TrackPointExtension>
            <ns3:hr>168</ns3:hr>
            <ns3:cad>0</ns3:cad>
          </ns3:TrackPointExtension>
        </extensions>
      </trkpt>
      <trkpt lat="47.54956548102200031280517578125" lon="11.0522754304111003875732421875">
        <ele>1733.4000244140625</ele>
        <time>2026-09-01T09:04:38.000Z</time>
        <extensions>
          <ns3:TrackPointExtension>
            <ns3:hr>168</ns3:hr>
            <ns3:cad>0</ns3:cad>
          </ns3:TrackPointExtension>
        </extensions>
      </trkpt>
      <trkpt lat="47.54957352764904499053955078125" lon="11.052282638847827911376953125">
        <ele>1733.4000244140625</ele>
        <time>2026-09-01T09:04:39.000Z</time>
        <extensions>
          <ns3:TrackPointExtension>
            <ns3:hr>168</ns3:hr>
            <ns3:cad>0</ns3:cad>
          </ns3:TrackPointExtension>
        </extensions>
      </trkpt>
      <trkpt lat="47.54958526231348514556884765625" lon="11.05229278095066547393798828125">
        <ele>1733.199951171875</ele>
        <time>2026-09-01T09:04:40.000Z</time>
        <extensions>
          <ns3:TrackPointExtension>
            <ns3:hr>169</ns3:hr>
            <ns3:cad>0</ns3:cad>
          </ns3:TrackPointExtension>
        </extensions>
      </trkpt>
      <trkpt lat="47.5495947338640689849853515625" lon="11.0522988997399806976318359375">
        <ele>1733.199951171875</ele>
        <time>2026-09-01T09:04:41.000Z</time>
        <extensions>
          <ns3:TrackPointExtension>
            <ns3:hr>168</ns3:hr>
            <ns3:cad>0</ns3:cad>
          </ns3:TrackPointExtension>
        </extensions>
      </trkpt>
      <trkpt lat="47.54960537888109683990478515625" lon="11.0523082874715328216552734375">
        <ele>1733.199951171875</ele>
        <time>2026-09-01T09:04:42.000Z</time>
        <extensions>
          <ns3:TrackPointExtension>
            <ns3:hr>166</ns3:hr>
            <ns3:cad>0</ns3:cad>
          </ns3:TrackPointExtension>
        </extensions>
      </trkpt>
      <trkpt lat="47.54961694590747356414794921875" lon="11.052319519221782684326171875">
        <ele>1733.199951171875</ele>
        <time>2026-09-01T09:04:43.000Z</time>
        <extensions>
          <ns3:TrackPointExtension>
            <ns3:hr>163</ns3:hr>
            <ns3:cad>0</ns3:cad>
          </ns3:TrackPointExtension>
        </extensions>
      </trkpt>
      <trkpt lat="47.54962901584804058074951171875" lon="11.05232681147754192352294921875">
        <ele>1733.4000244140625</ele>
        <time>2026-09-01T09:04:44.000Z</time>
        <extensions>
          <ns3:TrackPointExtension>
            <ns3:hr>162</ns3:hr>
            <ns3:cad>0</ns3:cad>
          </ns3:TrackPointExtension>
        </extensions>
      </trkpt>
      <trkpt lat="47.54964611493051052093505859375" lon="11.052345000207424163818359375">
        <ele>1733.4000244140625</ele>
        <time>2026-09-01T09:04:45.000Z</time>
        <extensions>
          <ns3:TrackPointExtension>
            <ns3:hr>162</ns3:hr>
            <ns3:cad>56</ns3:cad>
          </ns3:TrackPointExtension>
        </extensions>
      </trkpt>
      <trkpt lat="47.54966841079294681549072265625" lon="11.05236947536468505859375">
        <ele>1733.4000244140625</ele>
        <time>2026-09-01T09:04:46.000Z</time>
        <extensions>
          <ns3:TrackPointExtension>
            <ns3:hr>163</ns3:hr>
            <ns3:cad>59</ns3:cad>
          </ns3:TrackPointExtension>
        </extensions>
      </trkpt>
      <trkpt lat="47.54968651570379734039306640625" lon="11.05238883756101131439208984375">
        <ele>1733.4000244140625</ele>
        <time>2026-09-01T09:04:47.000Z</time>
        <extensions>
          <ns3:TrackPointExtension>
            <ns3:hr>163</ns3:hr>
            <ns3:cad>59</ns3:cad>
          </ns3:TrackPointExtension>
        </extensions>
      </trkpt>
      <trkpt lat="47.5497070513665676116943359375" lon="11.05241172015666961669921875">
        <ele>1733.4000244140625</ele>
        <time>2026-09-01T09:04:48.000Z</time>
        <extensions>
          <ns3:TrackPointExtension>
            <ns3:hr>163</ns3:hr>
            <ns3:cad>59</ns3:cad>
          </ns3:TrackPointExtension>
        </extensions>
      </trkpt>
      <trkpt lat="47.54972691647708415985107421875" lon="11.05243510566651821136474609375">
        <ele>1733.5999755859375</ele>
        <time>2026-09-01T09:04:49.000Z</time>
        <extensions>
          <ns3:TrackPointExtension>
            <ns3:hr>163</ns3:hr>
            <ns3:cad>59</ns3:cad>
          </ns3:TrackPointExtension>
        </extensions>
      </trkpt>
      <trkpt lat="47.54974317736923694610595703125" lon="11.052453629672527313232421875">
        <ele>1733.800048828125</ele>
        <time>2026-09-01T09:04:50.000Z</time>
        <extensions>
          <ns3:TrackPointExtension>
            <ns3:hr>162</ns3:hr>
            <ns3:cad>78</ns3:cad>
          </ns3:TrackPointExtension>
        </extensions>
      </trkpt>
      <trkpt lat="47.54975927062332630157470703125" lon="11.052469722926616668701171875">
        <ele>1734.4000244140625</ele>
        <time>2026-09-01T09:04:51.000Z</time>
        <extensions>
          <ns3:TrackPointExtension>
            <ns3:hr>163</ns3:hr>
            <ns3:cad>78</ns3:cad>
          </ns3:TrackPointExtension>
        </extensions>
      </trkpt>
      <trkpt lat="47.54977067001163959503173828125" lon="11.0524779371917247772216796875">
        <ele>1734.800048828125</ele>
        <time>2026-09-01T09:04:52.000Z</time>
        <extensions>
          <ns3:TrackPointExtension>
            <ns3:hr>164</ns3:hr>
            <ns3:cad>78</ns3:cad>
          </ns3:TrackPointExtension>
        </extensions>
      </trkpt>
      <trkpt lat="47.54978089593350887298583984375" lon="11.05248187668621540069580078125">
        <ele>1735.4000244140625</ele>
        <time>2026-09-01T09:04:53.000Z</time>
        <extensions>
          <ns3:TrackPointExtension>
            <ns3:hr>164</ns3:hr>
            <ns3:cad>0</ns3:cad>
          </ns3:TrackPointExtension>
        </extensions>
      </trkpt>
      <trkpt lat="47.54978726617991924285888671875" lon="11.05248506180942058563232421875">
        <ele>1736</ele>
        <time>2026-09-01T09:04:54.000Z</time>
        <extensions>
          <ns3:TrackPointExtension>
            <ns3:hr>165</ns3:hr>
            <ns3:cad>0</ns3:cad>
          </ns3:TrackPointExtension>
        </extensions>
      </trkpt>
      <trkpt lat="47.54979665391147136688232421875" lon="11.05249310843646526336669921875">
        <ele>1736.199951171875</ele>
        <time>2026-09-01T09:04:55.000Z</time>
        <extensions>
          <ns3:TrackPointExtension>
            <ns3:hr>166</ns3:hr>
            <ns3:cad>80</ns3:cad>
          </ns3:TrackPointExtension>
        </extensions>
      </trkpt>
      <trkpt lat="47.54980520345270633697509765625" lon="11.052501909434795379638671875">
        <ele>1736.4000244140625</ele>
        <time>2026-09-01T09:04:56.000Z</time>
        <extensions>
          <ns3:TrackPointExtension>
            <ns3:hr>166</ns3:hr>
            <ns3:cad>80</ns3:cad>
          </ns3:TrackPointExtension>
        </extensions>
      </trkpt>
      <trkpt lat="47.5498019345104694366455078125" lon="11.05252529494464397430419921875">
        <ele>1736.5999755859375</ele>
        <time>2026-09-01T09:04:57.000Z</time>
        <extensions>
          <ns3:TrackPointExtension>
            <ns3:hr>166</ns3:hr>
            <ns3:cad>0</ns3:cad>
          </ns3:TrackPointExtension>
        </extensions>
      </trkpt>
      <trkpt lat="47.54980017431080341339111328125" lon="11.0525317490100860595703125">
        <ele>1736.5999755859375</ele>
        <time>2026-09-01T09:04:58.000Z</time>
        <extensions>
          <ns3:TrackPointExtension>
            <ns3:hr>166</ns3:hr>
            <ns3:cad>0</ns3:cad>
          </ns3:TrackPointExtension>
        </extensions>
      </trkpt>
      <trkpt lat="47.549796402454376220703125" lon="11.05253954418003559112548828125">
        <ele>1736.800048828125</ele>
        <time>2026-09-01T09:04:59.000Z</time>
        <extensions>
          <ns3:TrackPointExtension>
            <ns3:hr>165</ns3:hr>
            <ns3:cad>47</ns3:cad>
          </ns3:TrackPointExtension>
        </extensions>
      </trkpt>
      <trkpt lat="47.54979916848242282867431640625" lon="11.0525490157306194305419921875">
        <ele>1737.199951171875</ele>
        <time>2026-09-01T09:05:00.000Z</time>
        <extensions>
          <ns3:TrackPointExtension>
            <ns3:hr>163</ns3:hr>
            <ns3:cad>47</ns3:cad>
          </ns3:TrackPointExtension>
        </extensions>
      </trkpt>
      <trkpt lat="47.54980402998626232147216796875" lon="11.0525624267756938934326171875">
        <ele>1737.5999755859375</ele>
        <time>2026-09-01T09:05:01.000Z</time>
        <extensions>
          <ns3:TrackPointExtension>
            <ns3:hr>161</ns3:hr>
            <ns3:cad>50</ns3:cad>
          </ns3:TrackPointExtension>
        </extensions>
      </trkpt>
      <trkpt lat="47.54980922676622867584228515625" lon="11.052565611898899078369140625">
        <ele>1738</ele>
        <time>2026-09-01T09:05:02.000Z</time>
        <extensions>
          <ns3:TrackPointExtension>
            <ns3:hr>161</ns3:hr>
            <ns3:cad>50</ns3:cad>
          </ns3:TrackPointExtension>
        </extensions>
      </trkpt>
      <trkpt lat="47.54981811158359050750732421875" lon="11.0525711439549922943115234375">
        <ele>1738.5999755859375</ele>
        <time>2026-09-01T09:05:03.000Z</time>
        <extensions>
          <ns3:TrackPointExtension>
            <ns3:hr>161</ns3:hr>
            <ns3:cad>50</ns3:cad>
          </ns3:TrackPointExtension>
        </extensions>
      </trkpt>
      <trkpt lat="47.54982247017323970794677734375" lon="11.05257726274430751800537109375">
        <ele>1739</ele>
        <time>2026-09-01T09:05:04.000Z</time>
        <extensions>
          <ns3:TrackPointExtension>
            <ns3:hr>161</ns3:hr>
            <ns3:cad>48</ns3:cad>
          </ns3:TrackPointExtension>
        </extensions>
      </trkpt>
      <trkpt lat="47.54983789287507534027099609375" lon="11.05257022194564342498779296875">
        <ele>1739.4000244140625</ele>
        <time>2026-09-01T09:05:05.000Z</time>
        <extensions>
          <ns3:TrackPointExtension>
            <ns3:hr>161</ns3:hr>
            <ns3:cad>48</ns3:cad>
          </ns3:TrackPointExtension>
        </extensions>
      </trkpt>
      <trkpt lat="47.5498488731682300567626953125" lon="11.05256728827953338623046875">
        <ele>1739.800048828125</ele>
        <time>2026-09-01T09:05:06.000Z</time>
        <extensions>
          <ns3:TrackPointExtension>
            <ns3:hr>160</ns3:hr>
            <ns3:cad>48</ns3:cad>
          </ns3:TrackPointExtension>
        </extensions>
      </trkpt>
      <trkpt lat="47.54986203275620937347412109375" lon="11.0525597445666790008544921875">
        <ele>1740</ele>
        <time>2026-09-01T09:05:07.000Z</time>
        <extensions>
          <ns3:TrackPointExtension>
            <ns3:hr>160</ns3:hr>
            <ns3:cad>49</ns3:cad>
          </ns3:TrackPointExtension>
        </extensions>
      </trkpt>
      <trkpt lat="47.549873851239681243896484375" lon="11.05256326496601104736328125">
        <ele>1740.199951171875</ele>
        <time>2026-09-01T09:05:08.000Z</time>
        <extensions>
          <ns3:TrackPointExtension>
            <ns3:hr>160</ns3:hr>
            <ns3:cad>49</ns3:cad>
          </ns3:TrackPointExtension>
        </extensions>
      </trkpt>
      <trkpt lat="47.5498850829899311065673828125" lon="11.05256753973662853240966796875">
        <ele>1740.5999755859375</ele>
        <time>2026-09-01T09:05:09.000Z</time>
        <extensions>
          <ns3:TrackPointExtension>
            <ns3:hr>160</ns3:hr>
            <ns3:cad>47</ns3:cad>
          </ns3:TrackPointExtension>
        </extensions>
      </trkpt>
      <trkpt lat="47.54989572800695896148681640625" lon="11.0525691322982311248779296875">
        <ele>1741</ele>
        <time>2026-09-01T09:05:10.000Z</time>
        <extensions>
          <ns3:TrackPointExtension>
            <ns3:hr>161</ns3:hr>
            <ns3:cad>47</ns3:cad>
          </ns3:TrackPointExtension>
        </extensions>
      </trkpt>
      <trkpt lat="47.54991685040295124053955078125" lon="11.0525758378207683563232421875">
        <ele>1741.199951171875</ele>
        <time>2026-09-01T09:05:11.000Z</time>
        <extensions>
          <ns3:TrackPointExtension>
            <ns3:hr>160</ns3:hr>
            <ns3:cad>47</ns3:cad>
          </ns3:TrackPointExtension>
        </extensions>
      </trkpt>
      <trkpt lat="47.5499266572296619415283203125" lon="11.05257893912494182586669921875">
        <ele>1741.5999755859375</ele>
        <time>2026-09-01T09:05:12.000Z</time>
        <extensions>
          <ns3:TrackPointExtension>
            <ns3:hr>160</ns3:hr>
            <ns3:cad>0</ns3:cad>
          </ns3:TrackPointExtension>
        </extensions>
      </trkpt>
      <trkpt lat="47.54993394948542118072509765625" lon="11.05258480645716190338134765625">
        <ele>1742</ele>
        <time>2026-09-01T09:05:13.000Z</time>
        <extensions>
          <ns3:TrackPointExtension>
            <ns3:hr>161</ns3:hr>
            <ns3:cad>0</ns3:cad>
          </ns3:TrackPointExtension>
        </extensions>
      </trkpt>
      <trkpt lat="47.5499471090734004974365234375" lon="11.0525993071496486663818359375">
        <ele>1742.199951171875</ele>
        <time>2026-09-01T09:05:14.000Z</time>
        <extensions>
          <ns3:TrackPointExtension>
            <ns3:hr>161</ns3:hr>
            <ns3:cad>77</ns3:cad>
          </ns3:TrackPointExtension>
        </extensions>
      </trkpt>
      <trkpt lat="47.54995540715754032135009765625" lon="11.05260978452861309051513671875">
        <ele>1742.5999755859375</ele>
        <time>2026-09-01T09:05:15.000Z</time>
        <extensions>
          <ns3:TrackPointExtension>
            <ns3:hr>161</ns3:hr>
            <ns3:cad>77</ns3:cad>
          </ns3:TrackPointExtension>
        </extensions>
      </trkpt>
      <trkpt lat="47.5499685667455196380615234375" lon="11.05261213146150112152099609375">
        <ele>1743</ele>
        <time>2026-09-01T09:05:16.000Z</time>
        <extensions>
          <ns3:TrackPointExtension>
            <ns3:hr>161</ns3:hr>
            <ns3:cad>0</ns3:cad>
          </ns3:TrackPointExtension>
        </extensions>
      </trkpt>
      <trkpt lat="47.54997820593416690826416015625" lon="11.052615232765674591064453125">
        <ele>1743.4000244140625</ele>
        <time>2026-09-01T09:05:17.000Z</time>
        <extensions>
          <ns3:TrackPointExtension>
            <ns3:hr>162</ns3:hr>
            <ns3:cad>0</ns3:cad>
          </ns3:TrackPointExtension>
        </extensions>
      </trkpt>
      <trkpt lat="47.54998725838959217071533203125" lon="11.0526211000978946685791015625">
        <ele>1744</ele>
        <time>2026-09-01T09:05:18.000Z</time>
        <extensions>
          <ns3:TrackPointExtension>
            <ns3:hr>162</ns3:hr>
            <ns3:cad>0</ns3:cad>
          </ns3:TrackPointExtension>
        </extensions>
      </trkpt>
      <trkpt lat="47.54999849013984203338623046875" lon="11.0526256263256072998046875">
        <ele>1744.4000244140625</ele>
        <time>2026-09-01T09:05:19.000Z</time>
        <extensions>
          <ns3:TrackPointExtension>
            <ns3:hr>162</ns3:hr>
            <ns3:cad>0</ns3:cad>
          </ns3:TrackPointExtension>
        </extensions>
      </trkpt>
      <trkpt lat="47.550004608929157257080078125" lon="11.0526278056204319000244140625">
        <ele>1744.800048828125</ele>
        <time>2026-09-01T09:05:20.000Z</time>
        <extensions>
          <ns3:TrackPointExtension>
            <ns3:hr>162</ns3:hr>
            <ns3:cad>0</ns3:cad>
          </ns3:TrackPointExtension>
        </extensions>
      </trkpt>
      <trkpt lat="47.55001525394618511199951171875" lon="11.05263057164847850799560546875">
        <ele>1745.199951171875</ele>
        <time>2026-09-01T09:05:21.000Z</time>
        <extensions>
          <ns3:TrackPointExtension>
            <ns3:hr>162</ns3:hr>
            <ns3:cad>0</ns3:cad>
          </ns3:TrackPointExtension>
        </extensions>
      </trkpt>
      <trkpt lat="47.55002397112548351287841796875" lon="11.05263660661876201629638671875">
        <ele>1745.5999755859375</ele>
        <time>2026-09-01T09:05:22.000Z</time>
        <extensions>
          <ns3:TrackPointExtension>
            <ns3:hr>163</ns3:hr>
            <ns3:cad>0</ns3:cad>
          </ns3:TrackPointExtension>
        </extensions>
      </trkpt>
      <trkpt lat="47.55002631805837154388427734375" lon="11.05264347977936267852783203125">
        <ele>1746</ele>
        <time>2026-09-01T09:05:23.000Z</time>
        <extensions>
          <ns3:TrackPointExtension>
            <ns3:hr>163</ns3:hr>
            <ns3:cad>0</ns3:cad>
          </ns3:TrackPointExtension>
        </extensions>
      </trkpt>
      <trkpt lat="47.55002900026738643646240234375" lon="11.05265085585415363311767578125">
        <ele>1746.199951171875</ele>
        <time>2026-09-01T09:05:24.000Z</time>
        <extensions>
          <ns3:TrackPointExtension>
            <ns3:hr>163</ns3:hr>
            <ns3:cad>0</ns3:cad>
          </ns3:TrackPointExtension>
        </extensions>
      </trkpt>
      <trkpt lat="47.55003469996154308319091796875" lon="11.0526519455015659332275390625">
        <ele>1746.5999755859375</ele>
        <time>2026-09-01T09:05:25.000Z</time>
        <extensions>
          <ns3:TrackPointExtension>
            <ns3:hr>163</ns3:hr>
            <ns3:cad>0</ns3:cad>
          </ns3:TrackPointExtension>
        </extensions>
      </trkpt>
      <trkpt lat="47.550040148198604583740234375" lon="11.05265311896800994873046875">
        <ele>1747</ele>
        <time>2026-09-01T09:05:26.000Z</time>
        <extensions>
          <ns3:TrackPointExtension>
            <ns3:hr>163</ns3:hr>
            <ns3:cad>0</ns3:cad>
          </ns3:TrackPointExtension>
        </extensions>
      </trkpt>
      <trkpt lat="47.5500436685979366302490234375" lon="11.05265655554831027984619140625">
        <ele>1747.4000244140625</ele>
        <time>2026-09-01T09:05:27.000Z</time>
        <extensions>
          <ns3:TrackPointExtension>
            <ns3:hr>163</ns3:hr>
            <ns3:cad>0</ns3:cad>
          </ns3:TrackPointExtension>
        </extensions>
      </trkpt>
      <trkpt lat="47.550050877034664154052734375" lon="11.0526603274047374725341796875">
        <ele>1748</ele>
        <time>2026-09-01T09:05:28.000Z</time>
        <extensions>
          <ns3:TrackPointExtension>
            <ns3:hr>163</ns3:hr>
            <ns3:cad>0</ns3:cad>
          </ns3:TrackPointExtension>
        </extensions>
      </trkpt>
      <trkpt lat="47.5500527210533618927001953125" lon="11.05265638791024684906005859375">
        <ele>1748.199951171875</ele>
        <time>2026-09-01T09:05:29.000Z</time>
        <extensions>
          <ns3:TrackPointExtension>
            <ns3:hr>163</ns3:hr>
            <ns3:cad>0</ns3:cad>
          </ns3:TrackPointExtension>
        </extensions>
      </trkpt>
      <trkpt lat="47.55006185732781887054443359375" lon="11.05266191996634006500244140625">
        <ele>1748.4000244140625</ele>
        <time>2026-09-01T09:05:30.000Z</time>
        <extensions>
          <ns3:TrackPointExtension>
            <ns3:hr>163</ns3:hr>
            <ns3:cad>0</ns3:cad>
          </ns3:TrackPointExtension>
        </extensions>
      </trkpt>
      <trkpt lat="47.55006839521229267120361328125" lon="11.05266493745148181915283203125">
        <ele>1748.5999755859375</ele>
        <time>2026-09-01T09:05:31.000Z</time>
        <extensions>
          <ns3:TrackPointExtension>
            <ns3:hr>164</ns3:hr>
            <ns3:cad>0</ns3:cad>
          </ns3:TrackPointExtension>
        </extensions>
      </trkpt>
      <trkpt lat="47.550070323050022125244140625" lon="11.0526660270988941192626953125">
        <ele>1749</ele>
        <time>2026-09-01T09:05:32.000Z</time>
        <extensions>
          <ns3:TrackPointExtension>
            <ns3:hr>167</ns3:hr>
            <ns3:cad>0</ns3:cad>
          </ns3:TrackPointExtension>
        </extensions>
      </trkpt>
      <trkpt lat="47.55008616484701633453369140625" lon="11.0526710562407970428466796875">
        <ele>1749.199951171875</ele>
        <time>2026-09-01T09:05:33.000Z</time>
        <extensions>
          <ns3:TrackPointExtension>
            <ns3:hr>168</ns3:hr>
            <ns3:cad>0</ns3:cad>
          </ns3:TrackPointExtension>
        </extensions>
      </trkpt>
      <trkpt lat="47.55009320564568042755126953125" lon="11.052672900259494781494140625">
        <ele>1749.5999755859375</ele>
        <time>2026-09-01T09:05:34.000Z</time>
        <extensions>
          <ns3:TrackPointExtension>
            <ns3:hr>168</ns3:hr>
            <ns3:cad>0</ns3:cad>
          </ns3:TrackPointExtension>
        </extensions>
      </trkpt>
      <trkpt lat="47.55009739659726619720458984375" lon="11.052670218050479888916015625">
        <ele>1749.800048828125</ele>
        <time>2026-09-01T09:05:35.000Z</time>
        <extensions>
          <ns3:TrackPointExtension>
            <ns3:hr>169</ns3:hr>
            <ns3:cad>0</ns3:cad>
          </ns3:TrackPointExtension>
        </extensions>
      </trkpt>
      <trkpt lat="47.5501083768904209136962890625" lon="11.05267457664012908935546875">
        <ele>1750</ele>
        <time>2026-09-01T09:05:36.000Z</time>
        <extensions>
          <ns3:TrackPointExtension>
            <ns3:hr>169</ns3:hr>
            <ns3:cad>0</ns3:cad>
          </ns3:TrackPointExtension>
        </extensions>
      </trkpt>
      <trkpt lat="47.55011768080294132232666015625" lon="11.05267767794430255889892578125">
        <ele>1750.199951171875</ele>
        <time>2026-09-01T09:05:37.000Z</time>
        <extensions>
          <ns3:TrackPointExtension>
            <ns3:hr>169</ns3:hr>
            <ns3:cad>0</ns3:cad>
          </ns3:TrackPointExtension>
        </extensions>
      </trkpt>
      <trkpt lat="47.5501234643161296844482421875" lon="11.05266979895532131195068359375">
        <ele>1750.4000244140625</ele>
        <time>2026-09-01T09:05:38.000Z</time>
        <extensions>
          <ns3:TrackPointExtension>
            <ns3:hr>169</ns3:hr>
            <ns3:cad>0</ns3:cad>
          </ns3:TrackPointExtension>
        </extensions>
      </trkpt>
      <trkpt lat="47.55013109184801578521728515625" lon="11.0526633448898792266845703125">
        <ele>1750.4000244140625</ele>
        <time>2026-09-01T09:05:39.000Z</time>
        <extensions>
          <ns3:TrackPointExtension>
            <ns3:hr>169</ns3:hr>
            <ns3:cad>0</ns3:cad>
          </ns3:TrackPointExtension>
        </extensions>
      </trkpt>
      <trkpt lat="47.55013679154217243194580078125" lon="11.05265848338603973388671875">
        <ele>1750.5999755859375</ele>
        <time>2026-09-01T09:05:40.000Z</time>
        <extensions>
          <ns3:TrackPointExtension>
            <ns3:hr>169</ns3:hr>
            <ns3:cad>0</ns3:cad>
          </ns3:TrackPointExtension>
        </extensions>
      </trkpt>
      <trkpt lat="47.55014483816921710968017578125" lon="11.05266041122376918792724609375">
        <ele>1750.800048828125</ele>
        <time>2026-09-01T09:05:41.000Z</time>
        <extensions>
          <ns3:TrackPointExtension>
            <ns3:hr>169</ns3:hr>
            <ns3:cad>0</ns3:cad>
          </ns3:TrackPointExtension>
        </extensions>
      </trkpt>
      <trkpt lat="47.5501499511301517486572265625" lon="11.052660830318927764892578125">
        <ele>1750.800048828125</ele>
        <time>2026-09-01T09:05:42.000Z</time>
        <extensions>
          <ns3:TrackPointExtension>
            <ns3:hr>169</ns3:hr>
            <ns3:cad>50</ns3:cad>
          </ns3:TrackPointExtension>
        </extensions>
      </trkpt>
      <trkpt lat="47.55015640519559383392333984375" lon="11.05266326107084751129150390625">
        <ele>1751</ele>
        <time>2026-09-01T09:05:43.000Z</time>
        <extensions>
          <ns3:TrackPointExtension>
            <ns3:hr>168</ns3:hr>
            <ns3:cad>50</ns3:cad>
          </ns3:TrackPointExtension>
        </extensions>
      </trkpt>
      <trkpt lat="47.5501613505184650421142578125" lon="11.0526666976511478424072265625">
        <ele>1751.199951171875</ele>
        <time>2026-09-01T09:05:44.000Z</time>
        <extensions>
          <ns3:TrackPointExtension>
            <ns3:hr>168</ns3:hr>
            <ns3:cad>47</ns3:cad>
          </ns3:TrackPointExtension>
        </extensions>
      </trkpt>
      <trkpt lat="47.5501704029738903045654296875" lon="11.052668206393718719482421875">
        <ele>1751.4000244140625</ele>
        <time>2026-09-01T09:05:45.000Z</time>
        <extensions>
          <ns3:TrackPointExtension>
            <ns3:hr>169</ns3:hr>
            <ns3:cad>47</ns3:cad>
          </ns3:TrackPointExtension>
        </extensions>
      </trkpt>
      <trkpt lat="47.55017467774450778961181640625" lon="11.0526703856885433197021484375">
        <ele>1752</ele>
        <time>2026-09-01T09:05:46.000Z</time>
        <extensions>
          <ns3:TrackPointExtension>
            <ns3:hr>169</ns3:hr>
            <ns3:cad>47</ns3:cad>
          </ns3:TrackPointExtension>
        </extensions>
      </trkpt>
      <trkpt lat="47.55017928779125213623046875" lon="11.05267432518303394317626953125">
        <ele>1752.4000244140625</ele>
        <time>2026-09-01T09:05:47.000Z</time>
        <extensions>
          <ns3:TrackPointExtension>
            <ns3:hr>169</ns3:hr>
            <ns3:cad>0</ns3:cad>
          </ns3:TrackPointExtension>
        </extensions>
      </trkpt>
      <trkpt lat="47.55018255673348903656005859375" lon="11.05267725884914398193359375">
        <ele>1752.5999755859375</ele>
        <time>2026-09-01T09:05:48.000Z</time>
        <extensions>
          <ns3:TrackPointExtension>
            <ns3:hr>169</ns3:hr>
            <ns3:cad>0</ns3:cad>
          </ns3:TrackPointExtension>
        </extensions>
      </trkpt>
      <trkpt lat="47.55018825642764568328857421875" lon="11.0526811145246028900146484375">
        <ele>1752.800048828125</ele>
        <time>2026-09-01T09:05:49.000Z</time>
        <extensions>
          <ns3:TrackPointExtension>
            <ns3:hr>170</ns3:hr>
            <ns3:cad>0</ns3:cad>
          </ns3:TrackPointExtension>
        </extensions>
      </trkpt>
      <trkpt lat="47.5501895137131214141845703125" lon="11.05268036015331745147705078125">
        <ele>1752.800048828125</ele>
        <time>2026-09-01T09:05:50.000Z</time>
        <extensions>
          <ns3:TrackPointExtension>
            <ns3:hr>170</ns3:hr>
            <ns3:cad>0</ns3:cad>
          </ns3:TrackPointExtension>
        </extensions>
      </trkpt>
      <trkpt lat="47.55019445903599262237548828125" lon="11.05268270708620548248291015625">
        <ele>1753</ele>
        <time>2026-09-01T09:05:51.000Z</time>
        <extensions>
          <ns3:TrackPointExtension>
            <ns3:hr>170</ns3:hr>
            <ns3:cad>0</ns3:cad>
          </ns3:TrackPointExtension>
        </extensions>
      </trkpt>
      <trkpt lat="47.55020200274884700775146484375" lon="11.05268438346683979034423828125">
        <ele>1753.199951171875</ele>
        <time>2026-09-01T09:05:52.000Z</time>
        <extensions>
          <ns3:TrackPointExtension>
            <ns3:hr>168</ns3:hr>
            <ns3:cad>43</ns3:cad>
          </ns3:TrackPointExtension>
        </extensions>
      </trkpt>
      <trkpt lat="47.5502059422433376312255859375" lon="11.05268723331391811370849609375">
        <ele>1753.4000244140625</ele>
        <time>2026-09-01T09:05:53.000Z</time>
        <extensions>
          <ns3:TrackPointExtension>
            <ns3:hr>168</ns3:hr>
            <ns3:cad>43</ns3:cad>
          </ns3:TrackPointExtension>
        </extensions>
      </trkpt>
      <trkpt lat="47.55021390505135059356689453125" lon="11.0526881553232669830322265625">
        <ele>1754</ele>
        <time>2026-09-01T09:05:54.000Z</time>
        <extensions>
          <ns3:TrackPointExtension>
            <ns3:hr>168</ns3:hr>
            <ns3:cad>0</ns3:cad>
          </ns3:TrackPointExtension>
        </extensions>
      </trkpt>
      <trkpt lat="47.55021558143198490142822265625" lon="11.0526864789426326751708984375">
        <ele>1754.5999755859375</ele>
        <time>2026-09-01T09:05:55.000Z</time>
        <extensions>
          <ns3:TrackPointExtension>
            <ns3:hr>168</ns3:hr>
            <ns3:cad>0</ns3:cad>
          </ns3:TrackPointExtension>
        </extensions>
      </trkpt>
      <trkpt lat="47.5502223707735538482666015625" lon="11.0526901669800281524658203125">
        <ele>1755</ele>
        <time>2026-09-01T09:05:56.000Z</time>
        <extensions>
          <ns3:TrackPointExtension>
            <ns3:hr>168</ns3:hr>
            <ns3:cad>0</ns3:cad>
          </ns3:TrackPointExtension>
        </extensions>
      </trkpt>
      <trkpt lat="47.55022848956286907196044921875" lon="11.05269880034029483795166015625">
        <ele>1755.199951171875</ele>
        <time>2026-09-01T09:05:57.000Z</time>
        <extensions>
          <ns3:TrackPointExtension>
            <ns3:hr>168</ns3:hr>
            <ns3:cad>0</ns3:cad>
          </ns3:TrackPointExtension>
        </extensions>
      </trkpt>
      <trkpt lat="47.550229243934154510498046875" lon="11.05270165018737316131591796875">
        <ele>1755.4000244140625</ele>
        <time>2026-09-01T09:05:58.000Z</time>
        <extensions>
          <ns3:TrackPointExtension>
            <ns3:hr>168</ns3:hr>
            <ns3:cad>0</ns3:cad>
          </ns3:TrackPointExtension>
        </extensions>
      </trkpt>
      <trkpt lat="47.550236620008945465087890625" lon="11.05270944535732269287109375">
        <ele>1755.5999755859375</ele>
        <time>2026-09-01T09:05:59.000Z</time>
        <extensions>
          <ns3:TrackPointExtension>
            <ns3:hr>169</ns3:hr>
            <ns3:cad>0</ns3:cad>
          </ns3:TrackPointExtension>
        </extensions>
      </trkpt>
      <trkpt lat="47.55024106241762638092041015625" lon="11.0527166537940502166748046875">
        <ele>1755.800048828125</ele>
        <time>2026-09-01T09:06:00.000Z</time>
        <extensions>
          <ns3:TrackPointExtension>
            <ns3:hr>168</ns3:hr>
            <ns3:cad>0</ns3:cad>
          </ns3:TrackPointExtension>
        </extensions>
      </trkpt>
      <trkpt lat="47.5502505339682102203369140625" lon="11.05271656997501850128173828125">
        <ele>1756.4000244140625</ele>
        <time>2026-09-01T09:06:01.000Z</time>
        <extensions>
          <ns3:TrackPointExtension>
            <ns3:hr>167</ns3:hr>
            <ns3:cad>0</ns3:cad>
          </ns3:TrackPointExtension>
        </extensions>
      </trkpt>
      <trkpt lat="47.55025028251111507415771484375" lon="11.05271338485181331634521484375">
        <ele>1756.5999755859375</ele>
        <time>2026-09-01T09:06:02.000Z</time>
        <extensions>
          <ns3:TrackPointExtension>
            <ns3:hr>166</ns3:hr>
            <ns3:cad>0</ns3:cad>
          </ns3:TrackPointExtension>
        </extensions>
      </trkpt>
      <trkpt lat="47.55025614984333515167236328125" lon="11.05270282365381717681884765625">
        <ele>1757</ele>
        <time>2026-09-01T09:06:03.000Z</time>
        <extensions>
          <ns3:TrackPointExtension>
            <ns3:hr>166</ns3:hr>
            <ns3:cad>0</ns3:cad>
          </ns3:TrackPointExtension>
        </extensions>
      </trkpt>
      <trkpt lat="47.550258077681064605712890625" lon="11.0526926815509796142578125">
        <ele>1757.4000244140625</ele>
        <time>2026-09-01T09:06:04.000Z</time>
        <extensions>
          <ns3:TrackPointExtension>
            <ns3:hr>165</ns3:hr>
            <ns3:cad>0</ns3:cad>
          </ns3:TrackPointExtension>
        </extensions>
      </trkpt>
      <trkpt lat="47.55026101134717464447021484375" lon="11.05269066989421844482421875">
        <ele>1757.5999755859375</ele>
        <time>2026-09-01T09:06:05.000Z</time>
        <extensions>
          <ns3:TrackPointExtension>
            <ns3:hr>165</ns3:hr>
            <ns3:cad>0</ns3:cad>
          </ns3:TrackPointExtension>
        </extensions>
      </trkpt>
      <trkpt lat="47.55027106963098049163818359375" lon="11.05268270708620548248291015625">
        <ele>1757.800048828125</ele>
        <time>2026-09-01T09:06:06.000Z</time>
        <extensions>
          <ns3:TrackPointExtension>
            <ns3:hr>165</ns3:hr>
            <ns3:cad>0</ns3:cad>
          </ns3:TrackPointExtension>
        </extensions>
      </trkpt>
      <trkpt lat="47.55027643404901027679443359375" lon="11.05268840678036212921142578125">
        <ele>1758</ele>
        <time>2026-09-01T09:06:07.000Z</time>
        <extensions>
          <ns3:TrackPointExtension>
            <ns3:hr>165</ns3:hr>
            <ns3:cad>0</ns3:cad>
          </ns3:TrackPointExtension>
        </extensions>
      </trkpt>
      <trkpt lat="47.55027626641094684600830078125" lon="11.05270114727318286895751953125">
        <ele>1758.199951171875</ele>
        <time>2026-09-01T09:06:08.000Z</time>
        <extensions>
          <ns3:TrackPointExtension>
            <ns3:hr>165</ns3:hr>
            <ns3:cad>0</ns3:cad>
          </ns3:TrackPointExtension>
        </extensions>
      </trkpt>
      <trkpt lat="47.55028313957154750823974609375" lon="11.05271816253662109375">
        <ele>1758.4000244140625</ele>
        <time>2026-09-01T09:06:09.000Z</time>
        <extensions>
          <ns3:TrackPointExtension>
            <ns3:hr>164</ns3:hr>
            <ns3:cad>0</ns3:cad>
          </ns3:TrackPointExtension>
        </extensions>
      </trkpt>
      <trkpt lat="47.550285570323467254638671875" lon="11.052720509469509124755859375">
        <ele>1758.5999755859375</ele>
        <time>2026-09-01T09:06:10.000Z</time>
        <extensions>
          <ns3:TrackPointExtension>
            <ns3:hr>165</ns3:hr>
            <ns3:cad>0</ns3:cad>
          </ns3:TrackPointExtension>
        </extensions>
      </trkpt>
      <trkpt lat="47.5502921082079410552978515625" lon="11.0527329146862030029296875">
        <ele>1758.5999755859375</ele>
        <time>2026-09-01T09:06:11.000Z</time>
        <extensions>
          <ns3:TrackPointExtension>
            <ns3:hr>165</ns3:hr>
            <ns3:cad>0</ns3:cad>
          </ns3:TrackPointExtension>
        </extensions>
      </trkpt>
      <trkpt lat="47.55029328167438507080078125" lon="11.0527485050261020660400390625">
        <ele>1759</ele>
        <time>2026-09-01T09:06:12.000Z</time>
        <extensions>
          <ns3:TrackPointExtension>
            <ns3:hr>165</ns3:hr>
            <ns3:cad>0</ns3:cad>
          </ns3:TrackPointExtension>
        </extensions>
      </trkpt>
      <trkpt lat="47.550299651920795440673828125" lon="11.05275697074830532073974609375">
        <ele>1759.4000244140625</ele>
        <time>2026-09-01T09:06:13.000Z</time>
        <extensions>
          <ns3:TrackPointExtension>
            <ns3:hr>165</ns3:hr>
            <ns3:cad>0</ns3:cad>
          </ns3:TrackPointExtension>
        </extensions>
      </trkpt>
      <trkpt lat="47.550300993025302886962890625" lon="11.0527612455189228057861328125">
        <ele>1759.5999755859375</ele>
        <time>2026-09-01T09:06:14.000Z</time>
        <extensions>
          <ns3:TrackPointExtension>
            <ns3:hr>165</ns3:hr>
            <ns3:cad>0</ns3:cad>
          </ns3:TrackPointExtension>
        </extensions>
      </trkpt>
      <trkpt lat="47.5503068603575229644775390625" lon="11.05276568792760372161865234375">
        <ele>1760</ele>
        <time>2026-09-01T09:06:15.000Z</time>
        <extensions>
          <ns3:TrackPointExtension>
            <ns3:hr>165</ns3:hr>
            <ns3:cad>0</ns3:cad>
          </ns3:TrackPointExtension>
        </extensions>
      </trkpt>
      <trkpt lat="47.55031599663197994232177734375" lon="11.0527706332504749298095703125">
        <ele>1760.5999755859375</ele>
        <time>2026-09-01T09:06:16.000Z</time>
        <extensions>
          <ns3:TrackPointExtension>
            <ns3:hr>165</ns3:hr>
            <ns3:cad>0</ns3:cad>
          </ns3:TrackPointExtension>
        </extensions>
      </trkpt>
      <trkpt lat="47.550315074622631072998046875" lon="11.0527718067169189453125">
        <ele>1761</ele>
        <time>2026-09-01T09:06:17.000Z</time>
        <extensions>
          <ns3:TrackPointExtension>
            <ns3:hr>165</ns3:hr>
            <ns3:cad>0</ns3:cad>
          </ns3:TrackPointExtension>
        </extensions>
      </trkpt>
      <trkpt lat="47.55031364969909191131591796875" lon="11.0527718067169189453125">
        <ele>1761.4000244140625</ele>
        <time>2026-09-01T09:06:18.000Z</time>
        <extensions>
          <ns3:TrackPointExtension>
            <ns3:hr>165</ns3:hr>
            <ns3:cad>0</ns3:cad>
          </ns3:TrackPointExtension>
        </extensions>
      </trkpt>
      <trkpt lat="47.55032354034483432769775390625" lon="11.0527758300304412841796875">
        <ele>1762</ele>
        <time>2026-09-01T09:06:19.000Z</time>
        <extensions>
          <ns3:TrackPointExtension>
            <ns3:hr>166</ns3:hr>
            <ns3:cad>0</ns3:cad>
          </ns3:TrackPointExtension>
        </extensions>
      </trkpt>
      <trkpt lat="47.5503276474773883819580078125" lon="11.05277759023010730743408203125">
        <ele>1762.5999755859375</ele>
        <time>2026-09-01T09:06:20.000Z</time>
        <extensions>
          <ns3:TrackPointExtension>
            <ns3:hr>166</ns3:hr>
            <ns3:cad>0</ns3:cad>
          </ns3:TrackPointExtension>
        </extensions>
      </trkpt>
      <trkpt lat="47.55032840184867382049560546875" lon="11.052785217761993408203125">
        <ele>1763</ele>
        <time>2026-09-01T09:06:21.000Z</time>
        <extensions>
          <ns3:TrackPointExtension>
            <ns3:hr>166</ns3:hr>
            <ns3:cad>0</ns3:cad>
          </ns3:TrackPointExtension>
        </extensions>
      </trkpt>
      <trkpt lat="47.55033980123698711395263671875" lon="11.05279116891324520111083984375">
        <ele>1763.4000244140625</ele>
        <time>2026-09-01T09:06:22.000Z</time>
        <extensions>
          <ns3:TrackPointExtension>
            <ns3:hr>166</ns3:hr>
            <ns3:cad>0</ns3:cad>
          </ns3:TrackPointExtension>
        </extensions>
      </trkpt>
      <trkpt lat="47.55034214816987514495849609375" lon="11.05279418639838695526123046875">
        <ele>1763.5999755859375</ele>
        <time>2026-09-01T09:06:23.000Z</time>
        <extensions>
          <ns3:TrackPointExtension>
            <ns3:hr>166</ns3:hr>
            <ns3:cad>0</ns3:cad>
          </ns3:TrackPointExtension>
        </extensions>
      </trkpt>
      <trkpt lat="47.5503548048436641693115234375" lon="11.05280759744346141815185546875">
        <ele>1764</ele>
        <time>2026-09-01T09:06:24.000Z</time>
        <extensions>
          <ns3:TrackPointExtension>
            <ns3:hr>166</ns3:hr>
            <ns3:cad>0</ns3:cad>
          </ns3:TrackPointExtension>
        </extensions>
      </trkpt>
      <trkpt lat="47.5503638572990894317626953125" lon="11.05279795825481414794921875">
        <ele>1764.199951171875</ele>
        <time>2026-09-01T09:06:25.000Z</time>
        <extensions>
          <ns3:TrackPointExtension>
            <ns3:hr>165</ns3:hr>
            <ns3:cad>0</ns3:cad>
          </ns3:TrackPointExtension>
        </extensions>
      </trkpt>
      <trkpt lat="47.5503786094486713409423828125" lon="11.0527880676090717315673828125">
        <ele>1764.4000244140625</ele>
        <time>2026-09-01T09:06:26.000Z</time>
        <extensions>
          <ns3:TrackPointExtension>
            <ns3:hr>165</ns3:hr>
            <ns3:cad>0</ns3:cad>
          </ns3:TrackPointExtension>
        </extensions>
      </trkpt>
      <trkpt lat="47.55038154311478137969970703125" lon="11.05277792550623416900634765625">
        <ele>1764.800048828125</ele>
        <time>2026-09-01T09:06:27.000Z</time>
        <extensions>
          <ns3:TrackPointExtension>
            <ns3:hr>165</ns3:hr>
            <ns3:cad>0</ns3:cad>
          </ns3:TrackPointExtension>
        </extensions>
      </trkpt>
      <trkpt lat="47.55037819035351276397705078125" lon="11.052775494754314422607421875">
        <ele>1765</ele>
        <time>2026-09-01T09:06:28.000Z</time>
        <extensions>
          <ns3:TrackPointExtension>
            <ns3:hr>164</ns3:hr>
            <ns3:cad>0</ns3:cad>
          </ns3:TrackPointExtension>
        </extensions>
      </trkpt>
      <trkpt lat="47.55038573406636714935302734375" lon="11.0527704656124114990234375">
        <ele>1765.4000244140625</ele>
        <time>2026-09-01T09:06:29.000Z</time>
        <extensions>
          <ns3:TrackPointExtension>
            <ns3:hr>164</ns3:hr>
            <ns3:cad>0</ns3:cad>
          </ns3:TrackPointExtension>
        </extensions>
      </trkpt>
      <trkpt lat="47.55039394833147525787353515625" lon="11.05276535265147686004638671875">
        <ele>1765.5999755859375</ele>
        <time>2026-09-01T09:06:30.000Z</time>
        <extensions>
          <ns3:TrackPointExtension>
            <ns3:hr>163</ns3:hr>
            <ns3:cad>0</ns3:cad>
          </ns3:TrackPointExtension>
        </extensions>
      </trkpt>
      <trkpt lat="47.5504012405872344970703125" lon="11.05277943424880504608154296875">
        <ele>1765.800048828125</ele>
        <time>2026-09-01T09:06:31.000Z</time>
        <extensions>
          <ns3:TrackPointExtension>
            <ns3:hr>163</ns3:hr>
            <ns3:cad>0</ns3:cad>
          </ns3:TrackPointExtension>
        </extensions>
      </trkpt>
      <trkpt lat="47.550402246415615081787109375" lon="11.05278186500072479248046875">
        <ele>1766</ele>
        <time>2026-09-01T09:06:32.000Z</time>
        <extensions>
          <ns3:TrackPointExtension>
            <ns3:hr>163</ns3:hr>
            <ns3:cad>0</ns3:cad>
          </ns3:TrackPointExtension>
        </extensions>
      </trkpt>
      <trkpt lat="47.55040886811912059783935546875" lon="11.05280541814863681793212890625">
        <ele>1766.199951171875</ele>
        <time>2026-09-01T09:06:33.000Z</time>
        <extensions>
          <ns3:TrackPointExtension>
            <ns3:hr>163</ns3:hr>
            <ns3:cad>0</ns3:cad>
          </ns3:TrackPointExtension>
        </extensions>
      </trkpt>
      <trkpt lat="47.55041557364165782928466796875" lon="11.05281614698469638824462890625">
        <ele>1766.5999755859375</ele>
        <time>2026-09-01T09:06:34.000Z</time>
        <extensions>
          <ns3:TrackPointExtension>
            <ns3:hr>163</ns3:hr>
            <ns3:cad>0</ns3:cad>
          </ns3:TrackPointExtension>
        </extensions>
      </trkpt>
      <trkpt lat="47.55042227916419506072998046875" lon="11.0528340004384517669677734375">
        <ele>1766.800048828125</ele>
        <time>2026-09-01T09:06:35.000Z</time>
        <extensions>
          <ns3:TrackPointExtension>
            <ns3:hr>162</ns3:hr>
            <ns3:cad>0</ns3:cad>
          </ns3:TrackPointExtension>
        </extensions>
      </trkpt>
      <trkpt lat="47.55043015815317630767822265625" lon="11.052839197218418121337890625">
        <ele>1767.199951171875</ele>
        <time>2026-09-01T09:06:36.000Z</time>
        <extensions>
          <ns3:TrackPointExtension>
            <ns3:hr>162</ns3:hr>
            <ns3:cad>0</ns3:cad>
          </ns3:TrackPointExtension>
        </extensions>
      </trkpt>
      <trkpt lat="47.55043543875217437744140625" lon="11.052839197218418121337890625">
        <ele>1767.4000244140625</ele>
        <time>2026-09-01T09:06:37.000Z</time>
        <extensions>
          <ns3:TrackPointExtension>
            <ns3:hr>162</ns3:hr>
            <ns3:cad>0</ns3:cad>
          </ns3:TrackPointExtension>
        </extensions>
      </trkpt>
      <trkpt lat="47.5504513643682003021240234375" lon="11.0528433881700038909912109375">
        <ele>1767.800048828125</ele>
        <time>2026-09-01T09:06:38.000Z</time>
        <extensions>
          <ns3:TrackPointExtension>
            <ns3:hr>162</ns3:hr>
            <ns3:cad>0</ns3:cad>
          </ns3:TrackPointExtension>
        </extensions>
      </trkpt>
      <trkpt lat="47.55045597441494464874267578125" lon="11.052844226360321044921875">
        <ele>1768.199951171875</ele>
        <time>2026-09-01T09:06:39.000Z</time>
        <extensions>
          <ns3:TrackPointExtension>
            <ns3:hr>160</ns3:hr>
            <ns3:cad>0</ns3:cad>
          </ns3:TrackPointExtension>
        </extensions>
      </trkpt>
      <trkpt lat="47.55046586506068706512451171875" lon="11.05284632183611392974853515625">
        <ele>1768.5999755859375</ele>
        <time>2026-09-01T09:06:40.000Z</time>
        <extensions>
          <ns3:TrackPointExtension>
            <ns3:hr>156</ns3:hr>
            <ns3:cad>0</ns3:cad>
          </ns3:TrackPointExtension>
        </extensions>
      </trkpt>
      <trkpt lat="47.55047164857387542724609375" lon="11.05284263379871845245361328125">
        <ele>1768.800048828125</ele>
        <time>2026-09-01T09:06:41.000Z</time>
        <extensions>
          <ns3:TrackPointExtension>
            <ns3:hr>153</ns3:hr>
            <ns3:cad>0</ns3:cad>
          </ns3:TrackPointExtension>
        </extensions>
      </trkpt>
      <trkpt lat="47.55048112012445926666259765625" lon="11.0528427176177501678466796875">
        <ele>1769.199951171875</ele>
        <time>2026-09-01T09:06:42.000Z</time>
        <extensions>
          <ns3:TrackPointExtension>
            <ns3:hr>151</ns3:hr>
            <ns3:cad>0</ns3:cad>
          </ns3:TrackPointExtension>
        </extensions>
      </trkpt>
      <trkpt lat="47.5504932738840579986572265625" lon="11.05285101570188999176025390625">
        <ele>1769.5999755859375</ele>
        <time>2026-09-01T09:06:43.000Z</time>
        <extensions>
          <ns3:TrackPointExtension>
            <ns3:hr>151</ns3:hr>
            <ns3:cad>0</ns3:cad>
          </ns3:TrackPointExtension>
        </extensions>
      </trkpt>
      <trkpt lat="47.55050115287303924560546875" lon="11.0528564639389514923095703125">
        <ele>1770</ele>
        <time>2026-09-01T09:06:44.000Z</time>
        <extensions>
          <ns3:TrackPointExtension>
            <ns3:hr>151</ns3:hr>
            <ns3:cad>0</ns3:cad>
          </ns3:TrackPointExtension>
        </extensions>
      </trkpt>
      <trkpt lat="47.550506852567195892333984375" lon="11.05286367237567901611328125">
        <ele>1770.4000244140625</ele>
        <time>2026-09-01T09:06:45.000Z</time>
        <extensions>
          <ns3:TrackPointExtension>
            <ns3:hr>152</ns3:hr>
            <ns3:cad>43</ns3:cad>
          </ns3:TrackPointExtension>
        </extensions>
      </trkpt>
      <trkpt lat="47.550518251955509185791015625" lon="11.05286509729921817779541015625">
        <ele>1770.800048828125</ele>
        <time>2026-09-01T09:06:46.000Z</time>
        <extensions>
          <ns3:TrackPointExtension>
            <ns3:hr>152</ns3:hr>
            <ns3:cad>43</ns3:cad>
          </ns3:TrackPointExtension>
        </extensions>
      </trkpt>
      <trkpt lat="47.55052386783063411712646484375" lon="11.05286425910890102386474609375">
        <ele>1771</ele>
        <time>2026-09-01T09:06:47.000Z</time>
        <extensions>
          <ns3:TrackPointExtension>
            <ns3:hr>152</ns3:hr>
            <ns3:cad>42</ns3:cad>
          </ns3:TrackPointExtension>
        </extensions>
      </trkpt>
      <trkpt lat="47.55053065717220306396484375" lon="11.05286476202309131622314453125">
        <ele>1771.4000244140625</ele>
        <time>2026-09-01T09:06:48.000Z</time>
        <extensions>
          <ns3:TrackPointExtension>
            <ns3:hr>152</ns3:hr>
            <ns3:cad>42</ns3:cad>
          </ns3:TrackPointExtension>
        </extensions>
      </trkpt>
      <trkpt lat="47.55053778178989887237548828125" lon="11.05286660604178905487060546875">
        <ele>1771.5999755859375</ele>
        <time>2026-09-01T09:06:49.000Z</time>
        <extensions>
          <ns3:TrackPointExtension>
            <ns3:hr>151</ns3:hr>
            <ns3:cad>42</ns3:cad>
          </ns3:TrackPointExtension>
        </extensions>
      </trkpt>
      <trkpt lat="47.55054733715951442718505859375" lon="11.0528723895549774169921875">
        <ele>1771.800048828125</ele>
        <time>2026-09-01T09:06:50.000Z</time>
        <extensions>
          <ns3:TrackPointExtension>
            <ns3:hr>152</ns3:hr>
            <ns3:cad>0</ns3:cad>
          </ns3:TrackPointExtension>
        </extensions>
      </trkpt>
      <trkpt lat="47.55055722780525684356689453125" lon="11.0528671927750110626220703125">
        <ele>1772</ele>
        <time>2026-09-01T09:06:51.000Z</time>
        <extensions>
          <ns3:TrackPointExtension>
            <ns3:hr>153</ns3:hr>
            <ns3:cad>0</ns3:cad>
          </ns3:TrackPointExtension>
        </extensions>
      </trkpt>
      <trkpt lat="47.550559155642986297607421875" lon="11.05286895297467708587646484375">
        <ele>1772.4000244140625</ele>
        <time>2026-09-01T09:06:52.000Z</time>
        <extensions>
          <ns3:TrackPointExtension>
            <ns3:hr>153</ns3:hr>
            <ns3:cad>0</ns3:cad>
          </ns3:TrackPointExtension>
        </extensions>
      </trkpt>
      <trkpt lat="47.55056510679423809051513671875" lon="11.052872054278850555419921875">
        <ele>1772.5999755859375</ele>
        <time>2026-09-01T09:06:53.000Z</time>
        <extensions>
          <ns3:TrackPointExtension>
            <ns3:hr>153</ns3:hr>
            <ns3:cad>0</ns3:cad>
          </ns3:TrackPointExtension>
        </extensions>
      </trkpt>
      <trkpt lat="47.5505774281919002532958984375" lon="11.05287062935531139373779296875">
        <ele>1773.199951171875</ele>
        <time>2026-09-01T09:06:54.000Z</time>
        <extensions>
          <ns3:TrackPointExtension>
            <ns3:hr>152</ns3:hr>
            <ns3:cad>0</ns3:cad>
          </ns3:TrackPointExtension>
        </extensions>
      </trkpt>
      <trkpt lat="47.55058069713413715362548828125" lon="11.05286845006048679351806640625">
        <ele>1773.5999755859375</ele>
        <time>2026-09-01T09:06:55.000Z</time>
        <extensions>
          <ns3:TrackPointExtension>
            <ns3:hr>152</ns3:hr>
            <ns3:cad>0</ns3:cad>
          </ns3:TrackPointExtension>
        </extensions>
      </trkpt>
      <trkpt lat="47.5505871511995792388916015625" lon="11.05286861769855022430419921875">
        <ele>1774</ele>
        <time>2026-09-01T09:06:56.000Z</time>
        <extensions>
          <ns3:TrackPointExtension>
            <ns3:hr>151</ns3:hr>
            <ns3:cad>0</ns3:cad>
          </ns3:TrackPointExtension>
        </extensions>
      </trkpt>
      <trkpt lat="47.55059326998889446258544921875" lon="11.05286610312759876251220703125">
        <ele>1774.5999755859375</ele>
        <time>2026-09-01T09:06:57.000Z</time>
        <extensions>
          <ns3:TrackPointExtension>
            <ns3:hr>150</ns3:hr>
            <ns3:cad>0</ns3:cad>
          </ns3:TrackPointExtension>
        </extensions>
      </trkpt>
      <trkpt lat="47.5506019033491611480712890625" lon="11.0528641752898693084716796875">
        <ele>1775</ele>
        <time>2026-09-01T09:06:58.000Z</time>
        <extensions>
          <ns3:TrackPointExtension>
            <ns3:hr>150</ns3:hr>
            <ns3:cad>0</ns3:cad>
          </ns3:TrackPointExtension>
        </extensions>
      </trkpt>
      <trkpt lat="47.55061036907136440277099609375" lon="11.05285654775798320770263671875">
        <ele>1775.4000244140625</ele>
        <time>2026-09-01T09:06:59.000Z</time>
        <extensions>
          <ns3:TrackPointExtension>
            <ns3:hr>149</ns3:hr>
            <ns3:cad>0</ns3:cad>
          </ns3:TrackPointExtension>
        </extensions>
      </trkpt>
      <trkpt lat="47.55061472766101360321044921875" lon="11.05285788886249065399169921875">
        <ele>1775.800048828125</ele>
        <time>2026-09-01T09:07:00.000Z</time>
        <extensions>
          <ns3:TrackPointExtension>
            <ns3:hr>149</ns3:hr>
            <ns3:cad>0</ns3:cad>
          </ns3:TrackPointExtension>
        </extensions>
      </trkpt>
      <trkpt lat="47.550628222525119781494140625" lon="11.05285830795764923095703125">
        <ele>1776.199951171875</ele>
        <time>2026-09-01T09:07:01.000Z</time>
        <extensions>
          <ns3:TrackPointExtension>
            <ns3:hr>148</ns3:hr>
            <ns3:cad>0</ns3:cad>
          </ns3:TrackPointExtension>
        </extensions>
      </trkpt>
      <trkpt lat="47.5506399571895599365234375" lon="11.0528628341853618621826171875">
        <ele>1776.5999755859375</ele>
        <time>2026-09-01T09:07:02.000Z</time>
        <extensions>
          <ns3:TrackPointExtension>
            <ns3:hr>148</ns3:hr>
            <ns3:cad>0</ns3:cad>
          </ns3:TrackPointExtension>
        </extensions>
      </trkpt>
      <trkpt lat="47.55064859054982662200927734375" lon="11.052862666547298431396484375">
        <ele>1777.199951171875</ele>
        <time>2026-09-01T09:07:03.000Z</time>
        <extensions>
          <ns3:TrackPointExtension>
            <ns3:hr>148</ns3:hr>
            <ns3:cad>0</ns3:cad>
          </ns3:TrackPointExtension>
        </extensions>
      </trkpt>
      <trkpt lat="47.55065227858722209930419921875" lon="11.052860319614410400390625">
        <ele>1777.5999755859375</ele>
        <time>2026-09-01T09:07:04.000Z</time>
        <extensions>
          <ns3:TrackPointExtension>
            <ns3:hr>148</ns3:hr>
            <ns3:cad>0</ns3:cad>
          </ns3:TrackPointExtension>
        </extensions>
      </trkpt>
      <trkpt lat="47.5506575591862201690673828125" lon="11.05287699960172176361083984375">
        <ele>1778</ele>
        <time>2026-09-01T09:07:05.000Z</time>
        <extensions>
          <ns3:TrackPointExtension>
            <ns3:hr>148</ns3:hr>
            <ns3:cad>0</ns3:cad>
          </ns3:TrackPointExtension>
        </extensions>
      </trkpt>
      <trkpt lat="47.550662420690059661865234375" lon="11.05288454331457614898681640625">
        <ele>1778.4000244140625</ele>
        <time>2026-09-01T09:07:06.000Z</time>
        <extensions>
          <ns3:TrackPointExtension>
            <ns3:hr>147</ns3:hr>
            <ns3:cad>46</ns3:cad>
          </ns3:TrackPointExtension>
        </extensions>
      </trkpt>
      <trkpt lat="47.5506649352610111236572265625" lon="11.0528866387903690338134765625">
        <ele>1778.5999755859375</ele>
        <time>2026-09-01T09:07:07.000Z</time>
        <extensions>
          <ns3:TrackPointExtension>
            <ns3:hr>148</ns3:hr>
            <ns3:cad>46</ns3:cad>
          </ns3:TrackPointExtension>
        </extensions>
      </trkpt>
      <trkpt lat="47.55066879093647003173828125" lon="11.05289678089320659637451171875">
        <ele>1778.800048828125</ele>
        <time>2026-09-01T09:07:08.000Z</time>
        <extensions>
          <ns3:TrackPointExtension>
            <ns3:hr>148</ns3:hr>
            <ns3:cad>0</ns3:cad>
          </ns3:TrackPointExtension>
        </extensions>
      </trkpt>
      <trkpt lat="47.55067155696451663970947265625" lon="11.05290181003510951995849609375">
        <ele>1779</ele>
        <time>2026-09-01T09:07:09.000Z</time>
        <extensions>
          <ns3:TrackPointExtension>
            <ns3:hr>148</ns3:hr>
            <ns3:cad>0</ns3:cad>
          </ns3:TrackPointExtension>
        </extensions>
      </trkpt>
      <trkpt lat="47.5506820343434810638427734375" lon="11.0529161430895328521728515625">
        <ele>1779.199951171875</ele>
        <time>2026-09-01T09:07:10.000Z</time>
        <extensions>
          <ns3:TrackPointExtension>
            <ns3:hr>148</ns3:hr>
            <ns3:cad>0</ns3:cad>
          </ns3:TrackPointExtension>
        </extensions>
      </trkpt>
      <trkpt lat="47.55068882368505001068115234375" lon="11.0529198311269283294677734375">
        <ele>1779.4000244140625</ele>
        <time>2026-09-01T09:07:11.000Z</time>
        <extensions>
          <ns3:TrackPointExtension>
            <ns3:hr>148</ns3:hr>
            <ns3:cad>0</ns3:cad>
          </ns3:TrackPointExtension>
        </extensions>
      </trkpt>
      <trkpt lat="47.55070257000625133514404296875" lon="11.05291488580405712127685546875">
        <ele>1780</ele>
        <time>2026-09-01T09:07:12.000Z</time>
        <extensions>
          <ns3:TrackPointExtension>
            <ns3:hr>147</ns3:hr>
            <ns3:cad>0</ns3:cad>
          </ns3:TrackPointExtension>
        </extensions>
      </trkpt>
      <trkpt lat="47.55070776678621768951416015625" lon="11.05291136540472507476806640625">
        <ele>1780.5999755859375</ele>
        <time>2026-09-01T09:07:13.000Z</time>
        <extensions>
          <ns3:TrackPointExtension>
            <ns3:hr>147</ns3:hr>
            <ns3:cad>0</ns3:cad>
          </ns3:TrackPointExtension>
        </extensions>
      </trkpt>
      <trkpt lat="47.5507096946239471435546875" lon="11.0529080964624881744384765625">
        <ele>1781</ele>
        <time>2026-09-01T09:07:14.000Z</time>
        <extensions>
          <ns3:TrackPointExtension>
            <ns3:hr>147</ns3:hr>
            <ns3:cad>0</ns3:cad>
          </ns3:TrackPointExtension>
        </extensions>
      </trkpt>
      <trkpt lat="47.550721429288387298583984375" lon="11.05290298350155353546142578125">
        <ele>1781.5999755859375</ele>
        <time>2026-09-01T09:07:15.000Z</time>
        <extensions>
          <ns3:TrackPointExtension>
            <ns3:hr>147</ns3:hr>
            <ns3:cad>0</ns3:cad>
          </ns3:TrackPointExtension>
        </extensions>
      </trkpt>
      <trkpt lat="47.55072704516351222991943359375" lon="11.052897870540618896484375">
        <ele>1781.800048828125</ele>
        <time>2026-09-01T09:07:16.000Z</time>
        <extensions>
          <ns3:TrackPointExtension>
            <ns3:hr>147</ns3:hr>
            <ns3:cad>0</ns3:cad>
          </ns3:TrackPointExtension>
        </extensions>
      </trkpt>
      <trkpt lat="47.5507296435534954071044921875" lon="11.0528966970741748809814453125">
        <ele>1782</ele>
        <time>2026-09-01T09:07:17.000Z</time>
        <extensions>
          <ns3:TrackPointExtension>
            <ns3:hr>147</ns3:hr>
            <ns3:cad>0</ns3:cad>
          </ns3:TrackPointExtension>
        </extensions>
      </trkpt>
      <trkpt lat="47.55074129439890384674072265625" lon="11.05289124883711338043212890625">
        <ele>1782</ele>
        <time>2026-09-01T09:07:18.000Z</time>
        <extensions>
          <ns3:TrackPointExtension>
            <ns3:hr>148</ns3:hr>
            <ns3:cad>0</ns3:cad>
          </ns3:TrackPointExtension>
        </extensions>
      </trkpt>
      <trkpt lat="47.55074816755950450897216796875" lon="11.05288772843778133392333984375">
        <ele>1782.4000244140625</ele>
        <time>2026-09-01T09:07:19.000Z</time>
        <extensions>
          <ns3:TrackPointExtension>
            <ns3:hr>153</ns3:hr>
            <ns3:cad>0</ns3:cad>
          </ns3:TrackPointExtension>
        </extensions>
      </trkpt>
      <trkpt lat="47.550761662423610687255859375" lon="11.05288513004779815673828125">
        <ele>1782.5999755859375</ele>
        <time>2026-09-01T09:07:20.000Z</time>
        <extensions>
          <ns3:TrackPointExtension>
            <ns3:hr>153</ns3:hr>
            <ns3:cad>0</ns3:cad>
          </ns3:TrackPointExtension>
        </extensions>
      </trkpt>
      <trkpt lat="47.55076400935649871826171875" lon="11.052888147532939910888671875">
        <ele>1782.800048828125</ele>
        <time>2026-09-01T09:07:21.000Z</time>
        <extensions>
          <ns3:TrackPointExtension>
            <ns3:hr>153</ns3:hr>
            <ns3:cad>0</ns3:cad>
          </ns3:TrackPointExtension>
        </extensions>
      </trkpt>
      <trkpt lat="47.55077096633613109588623046875" lon="11.0528913326561450958251953125">
        <ele>1783</ele>
        <time>2026-09-01T09:07:22.000Z</time>
        <extensions>
          <ns3:TrackPointExtension>
            <ns3:hr>155</ns3:hr>
            <ns3:cad>0</ns3:cad>
          </ns3:TrackPointExtension>
        </extensions>
      </trkpt>
      <trkpt lat="47.5507765822112560272216796875" lon="11.05289476923644542694091796875">
        <ele>1783.199951171875</ele>
        <time>2026-09-01T09:07:23.000Z</time>
        <extensions>
          <ns3:TrackPointExtension>
            <ns3:hr>157</ns3:hr>
            <ns3:cad>0</ns3:cad>
          </ns3:TrackPointExtension>
        </extensions>
      </trkpt>
      <trkpt lat="47.55078270100057125091552734375" lon="11.05289963074028491973876953125">
        <ele>1783.5999755859375</ele>
        <time>2026-09-01T09:07:24.000Z</time>
        <extensions>
          <ns3:TrackPointExtension>
            <ns3:hr>157</ns3:hr>
            <ns3:cad>0</ns3:cad>
          </ns3:TrackPointExtension>
        </extensions>
      </trkpt>
      <trkpt lat="47.550783790647983551025390625" lon="11.05290256440639495849609375">
        <ele>1783.800048828125</ele>
        <time>2026-09-01T09:07:25.000Z</time>
        <extensions>
          <ns3:TrackPointExtension>
            <ns3:hr>157</ns3:hr>
            <ns3:cad>0</ns3:cad>
          </ns3:TrackPointExtension>
        </extensions>
      </trkpt>
      <trkpt lat="47.55079493857920169830322265625" lon="11.05291572399437427520751953125">
        <ele>1784.199951171875</ele>
        <time>2026-09-01T09:07:26.000Z</time>
        <extensions>
          <ns3:TrackPointExtension>
            <ns3:hr>158</ns3:hr>
            <ns3:cad>0</ns3:cad>
          </ns3:TrackPointExtension>
        </extensions>
      </trkpt>
      <trkpt lat="47.55080164410173892974853515625" lon="11.0529188252985477447509765625">
        <ele>1784.5999755859375</ele>
        <time>2026-09-01T09:07:27.000Z</time>
        <extensions>
          <ns3:TrackPointExtension>
            <ns3:hr>158</ns3:hr>
            <ns3:cad>0</ns3:cad>
          </ns3:TrackPointExtension>
        </extensions>
      </trkpt>
      <trkpt lat="47.55080717615783214569091796875" lon="11.05292008258402347564697265625">
        <ele>1784.800048828125</ele>
        <time>2026-09-01T09:07:28.000Z</time>
        <extensions>
          <ns3:TrackPointExtension>
            <ns3:hr>157</ns3:hr>
            <ns3:cad>0</ns3:cad>
          </ns3:TrackPointExtension>
        </extensions>
      </trkpt>
      <trkpt lat="47.55081471987068653106689453125" lon="11.05291773565113544464111328125">
        <ele>1785</ele>
        <time>2026-09-01T09:07:29.000Z</time>
        <extensions>
          <ns3:TrackPointExtension>
            <ns3:hr>157</ns3:hr>
            <ns3:cad>0</ns3:cad>
          </ns3:TrackPointExtension>
        </extensions>
      </trkpt>
      <trkpt lat="47.550817318260669708251953125" lon="11.05291538871824741363525390625">
        <ele>1785.199951171875</ele>
        <time>2026-09-01T09:07:30.000Z</time>
        <extensions>
          <ns3:TrackPointExtension>
            <ns3:hr>157</ns3:hr>
            <ns3:cad>0</ns3:cad>
          </ns3:TrackPointExtension>
        </extensions>
      </trkpt>
      <trkpt lat="47.5508174858987331390380859375" lon="11.0529228486120700836181640625">
        <ele>1785.4000244140625</ele>
        <time>2026-09-01T09:07:31.000Z</time>
        <extensions>
          <ns3:TrackPointExtension>
            <ns3:hr>157</ns3:hr>
            <ns3:cad>0</ns3:cad>
          </ns3:TrackPointExtension>
        </extensions>
      </trkpt>
      <trkpt lat="47.5508215092122554779052734375" lon="11.05292846448719501495361328125">
        <ele>1785.5999755859375</ele>
        <time>2026-09-01T09:07:32.000Z</time>
        <extensions>
          <ns3:TrackPointExtension>
            <ns3:hr>158</ns3:hr>
            <ns3:cad>0</ns3:cad>
          </ns3:TrackPointExtension>
        </extensions>
      </trkpt>
      <trkpt lat="47.55081874318420886993408203125" lon="11.05292913503944873809814453125">
        <ele>1785.5999755859375</ele>
        <time>2026-09-01T09:07:33.000Z</time>
        <extensions>
          <ns3:TrackPointExtension>
            <ns3:hr>159</ns3:hr>
            <ns3:cad>0</ns3:cad>
          </ns3:TrackPointExtension>
        </extensions>
      </trkpt>
      <trkpt lat="47.55082628689706325531005859375" lon="11.05293684639036655426025390625">
        <ele>1785.800048828125</ele>
        <time>2026-09-01T09:07:34.000Z</time>
        <extensions>
          <ns3:TrackPointExtension>
            <ns3:hr>160</ns3:hr>
            <ns3:cad>0</ns3:cad>
          </ns3:TrackPointExtension>
        </extensions>
      </trkpt>
      <trkpt lat="47.5508319027721881866455078125" lon="11.05293517000973224639892578125">
        <ele>1786.199951171875</ele>
        <time>2026-09-01T09:07:35.000Z</time>
        <extensions>
          <ns3:TrackPointExtension>
            <ns3:hr>160</ns3:hr>
            <ns3:cad>0</ns3:cad>
          </ns3:TrackPointExtension>
        </extensions>
      </trkpt>
      <trkpt lat="47.55084020085632801055908203125" lon="11.05292980559170246124267578125">
        <ele>1786.800048828125</ele>
        <time>2026-09-01T09:07:36.000Z</time>
        <extensions>
          <ns3:TrackPointExtension>
            <ns3:hr>160</ns3:hr>
            <ns3:cad>0</ns3:cad>
          </ns3:TrackPointExtension>
        </extensions>
      </trkpt>
      <trkpt lat="47.5508411228656768798828125" lon="11.05292804539203643798828125">
        <ele>1787</ele>
        <time>2026-09-01T09:07:37.000Z</time>
        <extensions>
          <ns3:TrackPointExtension>
            <ns3:hr>160</ns3:hr>
            <ns3:cad>0</ns3:cad>
          </ns3:TrackPointExtension>
        </extensions>
      </trkpt>
      <trkpt lat="47.5508510135114192962646484375" lon="11.05292670428752899169921875">
        <ele>1787.4000244140625</ele>
        <time>2026-09-01T09:07:38.000Z</time>
        <extensions>
          <ns3:TrackPointExtension>
            <ns3:hr>160</ns3:hr>
            <ns3:cad>0</ns3:cad>
          </ns3:TrackPointExtension>
        </extensions>
      </trkpt>
      <trkpt lat="47.5508550368249416351318359375" lon="11.05292544700205326080322265625">
        <ele>1787.800048828125</ele>
        <time>2026-09-01T09:07:39.000Z</time>
        <extensions>
          <ns3:TrackPointExtension>
            <ns3:hr>159</ns3:hr>
            <ns3:cad>0</ns3:cad>
          </ns3:TrackPointExtension>
        </extensions>
      </trkpt>
      <trkpt lat="47.55085461772978305816650390625" lon="11.05292863212525844573974609375">
        <ele>1787.800048828125</ele>
        <time>2026-09-01T09:07:40.000Z</time>
        <extensions>
          <ns3:TrackPointExtension>
            <ns3:hr>159</ns3:hr>
            <ns3:cad>54</ns3:cad>
          </ns3:TrackPointExtension>
        </extensions>
      </trkpt>
      <trkpt lat="47.5508598983287811279296875" lon="11.052935086190700531005859375">
        <ele>1788</ele>
        <time>2026-09-01T09:07:41.000Z</time>
        <extensions>
          <ns3:TrackPointExtension>
            <ns3:hr>159</ns3:hr>
            <ns3:cad>54</ns3:cad>
          </ns3:TrackPointExtension>
        </extensions>
      </trkpt>
      <trkpt lat="47.55086383782327175140380859375" lon="11.05294011533260345458984375">
        <ele>1788.199951171875</ele>
        <time>2026-09-01T09:07:42.000Z</time>
        <extensions>
          <ns3:TrackPointExtension>
            <ns3:hr>159</ns3:hr>
            <ns3:cad>54</ns3:cad>
          </ns3:TrackPointExtension>
        </extensions>
      </trkpt>
      <trkpt lat="47.55086668767035007476806640625" lon="11.0529416240751743316650390625">
        <ele>1788.5999755859375</ele>
        <time>2026-09-01T09:07:43.000Z</time>
        <extensions>
          <ns3:TrackPointExtension>
            <ns3:hr>158</ns3:hr>
            <ns3:cad>54</ns3:cad>
          </ns3:TrackPointExtension>
        </extensions>
      </trkpt>
      <trkpt lat="47.550867609679698944091796875" lon="11.05294003151357173919677734375">
        <ele>1788.800048828125</ele>
        <time>2026-09-01T09:07:44.000Z</time>
        <extensions>
          <ns3:TrackPointExtension>
            <ns3:hr>158</ns3:hr>
            <ns3:cad>0</ns3:cad>
          </ns3:TrackPointExtension>
        </extensions>
      </trkpt>
      <trkpt lat="47.550869621336460113525390625" lon="11.05293500237166881561279296875">
        <ele>1789</ele>
        <time>2026-09-01T09:07:45.000Z</time>
        <extensions>
          <ns3:TrackPointExtension>
            <ns3:hr>158</ns3:hr>
            <ns3:cad>0</ns3:cad>
          </ns3:TrackPointExtension>
        </extensions>
      </trkpt>
      <trkpt lat="47.55087540484964847564697265625" lon="11.05293416418135166168212890625">
        <ele>1789.4000244140625</ele>
        <time>2026-09-01T09:07:46.000Z</time>
        <extensions>
          <ns3:TrackPointExtension>
            <ns3:hr>158</ns3:hr>
            <ns3:cad>0</ns3:cad>
          </ns3:TrackPointExtension>
        </extensions>
      </trkpt>
      <trkpt lat="47.55088076926767826080322265625" lon="11.05293533764779567718505859375">
        <ele>1789.4000244140625</ele>
        <time>2026-09-01T09:07:47.000Z</time>
        <extensions>
          <ns3:TrackPointExtension>
            <ns3:hr>158</ns3:hr>
            <ns3:cad>0</ns3:cad>
          </ns3:TrackPointExtension>
        </extensions>
      </trkpt>
      <trkpt lat="47.55088797770440578460693359375" lon="11.052939109504222869873046875">
        <ele>1789.4000244140625</ele>
        <time>2026-09-01T09:07:48.000Z</time>
        <extensions>
          <ns3:TrackPointExtension>
            <ns3:hr>158</ns3:hr>
            <ns3:cad>0</ns3:cad>
          </ns3:TrackPointExtension>
        </extensions>
      </trkpt>
      <trkpt lat="47.5508949346840381622314453125" lon="11.05294271372258663177490234375">
        <ele>1789.5999755859375</ele>
        <time>2026-09-01T09:07:49.000Z</time>
        <extensions>
          <ns3:TrackPointExtension>
            <ns3:hr>159</ns3:hr>
            <ns3:cad>0</ns3:cad>
          </ns3:TrackPointExtension>
        </extensions>
      </trkpt>
      <trkpt lat="47.55089971236884593963623046875" lon="11.0529419593513011932373046875">
        <ele>1790</ele>
        <time>2026-09-01T09:07:50.000Z</time>
        <extensions>
          <ns3:TrackPointExtension>
            <ns3:hr>159</ns3:hr>
            <ns3:cad>0</ns3:cad>
          </ns3:TrackPointExtension>
        </extensions>
      </trkpt>
      <trkpt lat="47.55090214312076568603515625" lon="11.05294388718903064727783203125">
        <ele>1790.199951171875</ele>
        <time>2026-09-01T09:07:51.000Z</time>
        <extensions>
          <ns3:TrackPointExtension>
            <ns3:hr>159</ns3:hr>
            <ns3:cad>0</ns3:cad>
          </ns3:TrackPointExtension>
        </extensions>
      </trkpt>
      <trkpt lat="47.55090943537652492523193359375" lon="11.052946485579013824462890625">
        <ele>1790.5999755859375</ele>
        <time>2026-09-01T09:07:52.000Z</time>
        <extensions>
          <ns3:TrackPointExtension>
            <ns3:hr>159</ns3:hr>
            <ns3:cad>0</ns3:cad>
          </ns3:TrackPointExtension>
        </extensions>
      </trkpt>
      <trkpt lat="47.55091999657452106475830078125" lon="11.05294690467417240142822265625">
        <ele>1791</ele>
        <time>2026-09-01T09:07:53.000Z</time>
        <extensions>
          <ns3:TrackPointExtension>
            <ns3:hr>158</ns3:hr>
            <ns3:cad>0</ns3:cad>
          </ns3:TrackPointExtension>
        </extensions>
      </trkpt>
      <trkpt lat="47.55091865547001361846923828125" lon="11.05295076034963130950927734375">
        <ele>1791.4000244140625</ele>
        <time>2026-09-01T09:07:54.000Z</time>
        <extensions>
          <ns3:TrackPointExtension>
            <ns3:hr>158</ns3:hr>
            <ns3:cad>0</ns3:cad>
          </ns3:TrackPointExtension>
        </extensions>
      </trkpt>
      <trkpt lat="47.55092955194413661956787109375" lon="11.052952520549297332763671875">
        <ele>1791.5999755859375</ele>
        <time>2026-09-01T09:07:55.000Z</time>
        <extensions>
          <ns3:TrackPointExtension>
            <ns3:hr>157</ns3:hr>
            <ns3:cad>0</ns3:cad>
          </ns3:TrackPointExtension>
        </extensions>
      </trkpt>
      <trkpt lat="47.5509361736476421356201171875" lon="11.05294623412191867828369140625">
        <ele>1792.199951171875</ele>
        <time>2026-09-01T09:07:56.000Z</time>
        <extensions>
          <ns3:TrackPointExtension>
            <ns3:hr>157</ns3:hr>
            <ns3:cad>0</ns3:cad>
          </ns3:TrackPointExtension>
        </extensions>
      </trkpt>
      <trkpt lat="47.5509351678192615509033203125" lon="11.05294279754161834716796875">
        <ele>1792.5999755859375</ele>
        <time>2026-09-01T09:07:57.000Z</time>
        <extensions>
          <ns3:TrackPointExtension>
            <ns3:hr>157</ns3:hr>
            <ns3:cad>0</ns3:cad>
          </ns3:TrackPointExtension>
        </extensions>
      </trkpt>
      <trkpt lat="47.5509381853044033050537109375" lon="11.0529355891048908233642578125">
        <ele>1793</ele>
        <time>2026-09-01T09:07:58.000Z</time>
        <extensions>
          <ns3:TrackPointExtension>
            <ns3:hr>157</ns3:hr>
            <ns3:cad>77</ns3:cad>
          </ns3:TrackPointExtension>
        </extensions>
      </trkpt>
      <trkpt lat="47.550942711532115936279296875" lon="11.0529251955449581146240234375">
        <ele>1793.4000244140625</ele>
        <time>2026-09-01T09:07:59.000Z</time>
        <extensions>
          <ns3:TrackPointExtension>
            <ns3:hr>157</ns3:hr>
            <ns3:cad>77</ns3:cad>
          </ns3:TrackPointExtension>
        </extensions>
      </trkpt>
      <trkpt lat="47.55094916559755802154541015625" lon="11.05291731655597686767578125">
        <ele>1793.5999755859375</ele>
        <time>2026-09-01T09:08:00.000Z</time>
        <extensions>
          <ns3:TrackPointExtension>
            <ns3:hr>157</ns3:hr>
            <ns3:cad>77</ns3:cad>
          </ns3:TrackPointExtension>
        </extensions>
      </trkpt>
      <trkpt lat="47.55095821805298328399658203125" lon="11.05291329324245452880859375">
        <ele>1794</ele>
        <time>2026-09-01T09:08:01.000Z</time>
        <extensions>
          <ns3:TrackPointExtension>
            <ns3:hr>157</ns3:hr>
            <ns3:cad>77</ns3:cad>
          </ns3:TrackPointExtension>
        </extensions>
      </trkpt>
      <trkpt lat="47.5509643368422985076904296875" lon="11.05291103012859821319580078125">
        <ele>1794.199951171875</ele>
        <time>2026-09-01T09:08:02.000Z</time>
        <extensions>
          <ns3:TrackPointExtension>
            <ns3:hr>158</ns3:hr>
            <ns3:cad>77</ns3:cad>
          </ns3:TrackPointExtension>
        </extensions>
      </trkpt>
      <trkpt lat="47.55096894688904285430908203125" lon="11.05290985666215419769287109375">
        <ele>1794.4000244140625</ele>
        <time>2026-09-01T09:08:03.000Z</time>
        <extensions>
          <ns3:TrackPointExtension>
            <ns3:hr>158</ns3:hr>
            <ns3:cad>77</ns3:cad>
          </ns3:TrackPointExtension>
        </extensions>
      </trkpt>
      <trkpt lat="47.55097456276416778564453125" lon="11.05293399654328823089599609375">
        <ele>1794.5999755859375</ele>
        <time>2026-09-01T09:08:04.000Z</time>
        <extensions>
          <ns3:TrackPointExtension>
            <ns3:hr>158</ns3:hr>
            <ns3:cad>0</ns3:cad>
          </ns3:TrackPointExtension>
        </extensions>
      </trkpt>
      <trkpt lat="47.55097347311675548553466796875" lon="11.0529379360377788543701171875">
        <ele>1795</ele>
        <time>2026-09-01T09:08:05.000Z</time>
        <extensions>
          <ns3:TrackPointExtension>
            <ns3:hr>158</ns3:hr>
            <ns3:cad>0</ns3:cad>
          </ns3:TrackPointExtension>
        </extensions>
      </trkpt>
      <trkpt lat="47.550976239144802093505859375" lon="11.0529523529112339019775390625">
        <ele>1795.4000244140625</ele>
        <time>2026-09-01T09:08:06.000Z</time>
        <extensions>
          <ns3:TrackPointExtension>
            <ns3:hr>158</ns3:hr>
            <ns3:cad>0</ns3:cad>
          </ns3:TrackPointExtension>
        </extensions>
      </trkpt>
      <trkpt lat="47.55097766406834125518798828125" lon="11.05295746587216854095458984375">
        <ele>1795.800048828125</ele>
        <time>2026-09-01T09:08:07.000Z</time>
        <extensions>
          <ns3:TrackPointExtension>
            <ns3:hr>159</ns3:hr>
            <ns3:cad>0</ns3:cad>
          </ns3:TrackPointExtension>
        </extensions>
      </trkpt>
      <trkpt lat="47.55097565241158008575439453125" lon="11.05297104455530643463134765625">
        <ele>1796.199951171875</ele>
        <time>2026-09-01T09:08:08.000Z</time>
        <extensions>
          <ns3:TrackPointExtension>
            <ns3:hr>159</ns3:hr>
            <ns3:cad>0</ns3:cad>
          </ns3:TrackPointExtension>
        </extensions>
      </trkpt>
      <trkpt lat="47.55097816698253154754638671875" lon="11.0529805161058902740478515625">
        <ele>1796.5999755859375</ele>
        <time>2026-09-01T09:08:09.000Z</time>
        <extensions>
          <ns3:TrackPointExtension>
            <ns3:hr>159</ns3:hr>
            <ns3:cad>0</ns3:cad>
          </ns3:TrackPointExtension>
        </extensions>
      </trkpt>
      <trkpt lat="47.550980262458324432373046875" lon="11.052987389266490936279296875">
        <ele>1797</ele>
        <time>2026-09-01T09:08:10.000Z</time>
        <extensions>
          <ns3:TrackPointExtension>
            <ns3:hr>159</ns3:hr>
            <ns3:cad>0</ns3:cad>
          </ns3:TrackPointExtension>
        </extensions>
      </trkpt>
      <trkpt lat="47.5509846210479736328125" lon="11.05299971066415309906005859375">
        <ele>1797.199951171875</ele>
        <time>2026-09-01T09:08:11.000Z</time>
        <extensions>
          <ns3:TrackPointExtension>
            <ns3:hr>159</ns3:hr>
            <ns3:cad>0</ns3:cad>
          </ns3:TrackPointExtension>
        </extensions>
      </trkpt>
      <trkpt lat="47.55098931491374969482421875" lon="11.05300691910088062286376953125">
        <ele>1797.5999755859375</ele>
        <time>2026-09-01T09:08:12.000Z</time>
        <extensions>
          <ns3:TrackPointExtension>
            <ns3:hr>159</ns3:hr>
            <ns3:cad>0</ns3:cad>
          </ns3:TrackPointExtension>
        </extensions>
      </trkpt>
      <trkpt lat="47.5510102696716785430908203125" lon="11.0529909096658229827880859375">
        <ele>1798</ele>
        <time>2026-09-01T09:08:13.000Z</time>
        <extensions>
          <ns3:TrackPointExtension>
            <ns3:hr>159</ns3:hr>
            <ns3:cad>0</ns3:cad>
          </ns3:TrackPointExtension>
        </extensions>
      </trkpt>
      <trkpt lat="47.55101052112877368927001953125" lon="11.0529945977032184600830078125">
        <ele>1798</ele>
        <time>2026-09-01T09:08:14.000Z</time>
        <extensions>
          <ns3:TrackPointExtension>
            <ns3:hr>158</ns3:hr>
            <ns3:cad>0</ns3:cad>
          </ns3:TrackPointExtension>
        </extensions>
      </trkpt>
      <trkpt lat="47.5510122813284397125244140625" lon="11.05299518443644046783447265625">
        <ele>1798.199951171875</ele>
        <time>2026-09-01T09:08:15.000Z</time>
        <extensions>
          <ns3:TrackPointExtension>
            <ns3:hr>157</ns3:hr>
            <ns3:cad>0</ns3:cad>
          </ns3:TrackPointExtension>
        </extensions>
      </trkpt>
      <trkpt lat="47.55101353861391544342041015625" lon="11.05300155468285083770751953125">
        <ele>1798.4000244140625</ele>
        <time>2026-09-01T09:08:16.000Z</time>
        <extensions>
          <ns3:TrackPointExtension>
            <ns3:hr>156</ns3:hr>
            <ns3:cad>0</ns3:cad>
          </ns3:TrackPointExtension>
        </extensions>
      </trkpt>
      <trkpt lat="47.551017813384532928466796875" lon="11.05301060713827610015869140625">
        <ele>1798.5999755859375</ele>
        <time>2026-09-01T09:08:17.000Z</time>
        <extensions>
          <ns3:TrackPointExtension>
            <ns3:hr>155</ns3:hr>
            <ns3:cad>0</ns3:cad>
          </ns3:TrackPointExtension>
        </extensions>
      </trkpt>
      <trkpt lat="47.55102418363094329833984375" lon="11.05301312170922756195068359375">
        <ele>1798.800048828125</ele>
        <time>2026-09-01T09:08:18.000Z</time>
        <extensions>
          <ns3:TrackPointExtension>
            <ns3:hr>155</ns3:hr>
            <ns3:cad>0</ns3:cad>
          </ns3:TrackPointExtension>
        </extensions>
      </trkpt>
      <trkpt lat="47.551023177802562713623046875" lon="11.0530019737780094146728515625">
        <ele>1799</ele>
        <time>2026-09-01T09:08:19.000Z</time>
        <extensions>
          <ns3:TrackPointExtension>
            <ns3:hr>154</ns3:hr>
            <ns3:cad>0</ns3:cad>
          </ns3:TrackPointExtension>
        </extensions>
      </trkpt>
      <trkpt lat="47.5510283745825290679931640625" lon="11.05298680253326892852783203125">
        <ele>1799.4000244140625</ele>
        <time>2026-09-01T09:08:20.000Z</time>
        <extensions>
          <ns3:TrackPointExtension>
            <ns3:hr>154</ns3:hr>
            <ns3:cad>0</ns3:cad>
          </ns3:TrackPointExtension>
        </extensions>
      </trkpt>
      <trkpt lat="47.55102812312543392181396484375" lon="11.05297925882041454315185546875">
        <ele>1799.5999755859375</ele>
        <time>2026-09-01T09:08:21.000Z</time>
        <extensions>
          <ns3:TrackPointExtension>
            <ns3:hr>153</ns3:hr>
            <ns3:cad>0</ns3:cad>
          </ns3:TrackPointExtension>
        </extensions>
      </trkpt>
      <trkpt lat="47.55103047005832195281982421875" lon="11.0529744811356067657470703125">
        <ele>1800</ele>
        <time>2026-09-01T09:08:22.000Z</time>
        <extensions>
          <ns3:TrackPointExtension>
            <ns3:hr>153</ns3:hr>
            <ns3:cad>0</ns3:cad>
          </ns3:TrackPointExtension>
        </extensions>
      </trkpt>
      <trkpt lat="47.5510320626199245452880859375" lon="11.05297154746949672698974609375">
        <ele>1800</ele>
        <time>2026-09-01T09:08:23.000Z</time>
        <extensions>
          <ns3:TrackPointExtension>
            <ns3:hr>152</ns3:hr>
            <ns3:cad>0</ns3:cad>
          </ns3:TrackPointExtension>
        </extensions>
      </trkpt>
      <trkpt lat="47.55104203708469867706298828125" lon="11.05298395268619060516357421875">
        <ele>1800.199951171875</ele>
        <time>2026-09-01T09:08:24.000Z</time>
        <extensions>
          <ns3:TrackPointExtension>
            <ns3:hr>152</ns3:hr>
            <ns3:cad>0</ns3:cad>
          </ns3:TrackPointExtension>
        </extensions>
      </trkpt>
      <trkpt lat="47.55104321055114269256591796875" lon="11.052989400923252105712890625">
        <ele>1800.4000244140625</ele>
        <time>2026-09-01T09:08:25.000Z</time>
        <extensions>
          <ns3:TrackPointExtension>
            <ns3:hr>151</ns3:hr>
            <ns3:cad>0</ns3:cad>
          </ns3:TrackPointExtension>
        </extensions>
      </trkpt>
      <trkpt lat="47.5510414503514766693115234375" lon="11.0529962740838527679443359375">
        <ele>1800.800048828125</ele>
        <time>2026-09-01T09:08:26.000Z</time>
        <extensions>
          <ns3:TrackPointExtension>
            <ns3:hr>151</ns3:hr>
            <ns3:cad>0</ns3:cad>
          </ns3:TrackPointExtension>
        </extensions>
      </trkpt>
      <trkpt lat="47.5510441325604915618896484375" lon="11.05300180613994598388671875">
        <ele>1801</ele>
        <time>2026-09-01T09:08:27.000Z</time>
        <extensions>
          <ns3:TrackPointExtension>
            <ns3:hr>151</ns3:hr>
            <ns3:cad>0</ns3:cad>
          </ns3:TrackPointExtension>
        </extensions>
      </trkpt>
      <trkpt lat="47.5510511733591556549072265625" lon="11.05300792492926120758056640625">
        <ele>1801.199951171875</ele>
        <time>2026-09-01T09:08:28.000Z</time>
        <extensions>
          <ns3:TrackPointExtension>
            <ns3:hr>151</ns3:hr>
            <ns3:cad>0</ns3:cad>
          </ns3:TrackPointExtension>
        </extensions>
      </trkpt>
      <trkpt lat="47.55105511285364627838134765625" lon="11.053004153072834014892578125">
        <ele>1801.5999755859375</ele>
        <time>2026-09-01T09:08:29.000Z</time>
        <extensions>
          <ns3:TrackPointExtension>
            <ns3:hr>150</ns3:hr>
            <ns3:cad>0</ns3:cad>
          </ns3:TrackPointExtension>
        </extensions>
      </trkpt>
      <trkpt lat="47.5510565377771854400634765625" lon="11.053001470863819122314453125">
        <ele>1801.800048828125</ele>
        <time>2026-09-01T09:08:30.000Z</time>
        <extensions>
          <ns3:TrackPointExtension>
            <ns3:hr>151</ns3:hr>
            <ns3:cad>0</ns3:cad>
          </ns3:TrackPointExtension>
        </extensions>
      </trkpt>
      <trkpt lat="47.5510592199862003326416015625" lon="11.0530065000057220458984375">
        <ele>1801.800048828125</ele>
        <time>2026-09-01T09:08:31.000Z</time>
        <extensions>
          <ns3:TrackPointExtension>
            <ns3:hr>151</ns3:hr>
            <ns3:cad>0</ns3:cad>
          </ns3:TrackPointExtension>
        </extensions>
      </trkpt>
      <trkpt lat="47.55106533877551555633544921875" lon="11.05301178060472011566162109375">
        <ele>1802.199951171875</ele>
        <time>2026-09-01T09:08:32.000Z</time>
        <extensions>
          <ns3:TrackPointExtension>
            <ns3:hr>150</ns3:hr>
            <ns3:cad>0</ns3:cad>
          </ns3:TrackPointExtension>
        </extensions>
      </trkpt>
      <trkpt lat="47.55106844007968902587890625" lon="11.05301697738468647003173828125">
        <ele>1802.4000244140625</ele>
        <time>2026-09-01T09:08:33.000Z</time>
        <extensions>
          <ns3:TrackPointExtension>
            <ns3:hr>149</ns3:hr>
            <ns3:cad>0</ns3:cad>
          </ns3:TrackPointExtension>
        </extensions>
      </trkpt>
      <trkpt lat="47.551071457564830780029296875" lon="11.05301898904144763946533203125">
        <ele>1802.800048828125</ele>
        <time>2026-09-01T09:08:34.000Z</time>
        <extensions>
          <ns3:TrackPointExtension>
            <ns3:hr>149</ns3:hr>
            <ns3:cad>0</ns3:cad>
          </ns3:TrackPointExtension>
        </extensions>
      </trkpt>
      <trkpt lat="47.55107221193611621856689453125" lon="11.0530145466327667236328125">
        <ele>1803</ele>
        <time>2026-09-01T09:08:35.000Z</time>
        <extensions>
          <ns3:TrackPointExtension>
            <ns3:hr>149</ns3:hr>
            <ns3:cad>0</ns3:cad>
          </ns3:TrackPointExtension>
        </extensions>
      </trkpt>
      <trkpt lat="47.5510796718299388885498046875" lon="11.05301446281373500823974609375">
        <ele>1803.199951171875</ele>
        <time>2026-09-01T09:08:36.000Z</time>
        <extensions>
          <ns3:TrackPointExtension>
            <ns3:hr>148</ns3:hr>
            <ns3:cad>0</ns3:cad>
          </ns3:TrackPointExtension>
        </extensions>
      </trkpt>
      <trkpt lat="47.5510816834867000579833984375" lon="11.0530130378901958465576171875">
        <ele>1803.5999755859375</ele>
        <time>2026-09-01T09:08:37.000Z</time>
        <extensions>
          <ns3:TrackPointExtension>
            <ns3:hr>148</ns3:hr>
            <ns3:cad>0</ns3:cad>
          </ns3:TrackPointExtension>
        </extensions>
      </trkpt>
      <trkpt lat="47.55108746699988842010498046875" lon="11.0530185699462890625">
        <ele>1803.800048828125</ele>
        <time>2026-09-01T09:08:38.000Z</time>
        <extensions>
          <ns3:TrackPointExtension>
            <ns3:hr>148</ns3:hr>
            <ns3:cad>0</ns3:cad>
          </ns3:TrackPointExtension>
        </extensions>
      </trkpt>
      <trkpt lat="47.55109936930239200592041015625" lon="11.05302167125046253204345703125">
        <ele>1804</ele>
        <time>2026-09-01T09:08:39.000Z</time>
        <extensions>
          <ns3:TrackPointExtension>
            <ns3:hr>147</ns3:hr>
            <ns3:cad>0</ns3:cad>
          </ns3:TrackPointExtension>
        </extensions>
      </trkpt>
      <trkpt lat="47.55110171623528003692626953125" lon="11.053021252155303955078125">
        <ele>1804.4000244140625</ele>
        <time>2026-09-01T09:08:40.000Z</time>
        <extensions>
          <ns3:TrackPointExtension>
            <ns3:hr>147</ns3:hr>
            <ns3:cad>0</ns3:cad>
          </ns3:TrackPointExtension>
        </extensions>
      </trkpt>
      <trkpt lat="47.551103644073009490966796875" lon="11.05302452109754085540771484375">
        <ele>1804.5999755859375</ele>
        <time>2026-09-01T09:08:41.000Z</time>
        <extensions>
          <ns3:TrackPointExtension>
            <ns3:hr>147</ns3:hr>
            <ns3:cad>0</ns3:cad>
          </ns3:TrackPointExtension>
        </extensions>
      </trkpt>
      <trkpt lat="47.55111412145197391510009765625" lon="11.0530298016965389251708984375">
        <ele>1804.5999755859375</ele>
        <time>2026-09-01T09:08:42.000Z</time>
        <extensions>
          <ns3:TrackPointExtension>
            <ns3:hr>147</ns3:hr>
            <ns3:cad>0</ns3:cad>
          </ns3:TrackPointExtension>
        </extensions>
      </trkpt>
      <trkpt lat="47.5511192344129085540771484375" lon="11.0530355013906955718994140625">
        <ele>1805</ele>
        <time>2026-09-01T09:08:43.000Z</time>
        <extensions>
          <ns3:TrackPointExtension>
            <ns3:hr>148</ns3:hr>
            <ns3:cad>0</ns3:cad>
          </ns3:TrackPointExtension>
        </extensions>
      </trkpt>
      <trkpt lat="47.5511370040476322174072265625" lon="11.053043715655803680419921875">
        <ele>1805.199951171875</ele>
        <time>2026-09-01T09:08:44.000Z</time>
        <extensions>
          <ns3:TrackPointExtension>
            <ns3:hr>148</ns3:hr>
            <ns3:cad>0</ns3:cad>
          </ns3:TrackPointExtension>
        </extensions>
      </trkpt>
      <trkpt lat="47.55114161409437656402587890625" lon="11.05304514057934284210205078125">
        <ele>1805.4000244140625</ele>
        <time>2026-09-01T09:08:45.000Z</time>
        <extensions>
          <ns3:TrackPointExtension>
            <ns3:hr>150</ns3:hr>
            <ns3:cad>0</ns3:cad>
          </ns3:TrackPointExtension>
        </extensions>
      </trkpt>
      <trkpt lat="47.55115804262459278106689453125" lon="11.0530428774654865264892578125">
        <ele>1805.5999755859375</ele>
        <time>2026-09-01T09:08:46.000Z</time>
        <extensions>
          <ns3:TrackPointExtension>
            <ns3:hr>152</ns3:hr>
            <ns3:cad>0</ns3:cad>
          </ns3:TrackPointExtension>
        </extensions>
      </trkpt>
      <trkpt lat="47.5511671788990497589111328125" lon="11.05304245837032794952392578125">
        <ele>1806.199951171875</ele>
        <time>2026-09-01T09:08:47.000Z</time>
        <extensions>
          <ns3:TrackPointExtension>
            <ns3:hr>154</ns3:hr>
            <ns3:cad>0</ns3:cad>
          </ns3:TrackPointExtension>
        </extensions>
      </trkpt>
      <trkpt lat="47.55116927437484264373779296875" lon="11.05303935706615447998046875">
        <ele>1806.4000244140625</ele>
        <time>2026-09-01T09:08:48.000Z</time>
        <extensions>
          <ns3:TrackPointExtension>
            <ns3:hr>155</ns3:hr>
            <ns3:cad>0</ns3:cad>
          </ns3:TrackPointExtension>
        </extensions>
      </trkpt>
      <trkpt lat="47.55117212422192096710205078125" lon="11.0530405305325984954833984375">
        <ele>1806.4000244140625</ele>
        <time>2026-09-01T09:08:49.000Z</time>
        <extensions>
          <ns3:TrackPointExtension>
            <ns3:hr>157</ns3:hr>
            <ns3:cad>0</ns3:cad>
          </ns3:TrackPointExtension>
        </extensions>
      </trkpt>
      <trkpt lat="47.55117782391607761383056640625" lon="11.05304379947483539581298828125">
        <ele>1806.5999755859375</ele>
        <time>2026-09-01T09:08:50.000Z</time>
        <extensions>
          <ns3:TrackPointExtension>
            <ns3:hr>158</ns3:hr>
            <ns3:cad>0</ns3:cad>
          </ns3:TrackPointExtension>
        </extensions>
      </trkpt>
      <trkpt lat="47.55118503235280513763427734375" lon="11.05304497294127941131591796875">
        <ele>1806.5999755859375</ele>
        <time>2026-09-01T09:08:51.000Z</time>
        <extensions>
          <ns3:TrackPointExtension>
            <ns3:hr>160</ns3:hr>
            <ns3:cad>73</ns3:cad>
          </ns3:TrackPointExtension>
        </extensions>
      </trkpt>
      <trkpt lat="47.55119182169437408447265625" lon="11.0530388541519641876220703125">
        <ele>1806.5999755859375</ele>
        <time>2026-09-01T09:08:52.000Z</time>
        <extensions>
          <ns3:TrackPointExtension>
            <ns3:hr>160</ns3:hr>
            <ns3:cad>73</ns3:cad>
          </ns3:TrackPointExtension>
        </extensions>
      </trkpt>
      <trkpt lat="47.55119928158819675445556640625" lon="11.0530391894280910491943359375">
        <ele>1806.5999755859375</ele>
        <time>2026-09-01T09:08:53.000Z</time>
        <extensions>
          <ns3:TrackPointExtension>
            <ns3:hr>162</ns3:hr>
            <ns3:cad>73</ns3:cad>
          </ns3:TrackPointExtension>
        </extensions>
      </trkpt>
      <trkpt lat="47.55120531655848026275634765625" lon="11.05303843505680561065673828125">
        <ele>1806.800048828125</ele>
        <time>2026-09-01T09:08:54.000Z</time>
        <extensions>
          <ns3:TrackPointExtension>
            <ns3:hr>162</ns3:hr>
            <ns3:cad>73</ns3:cad>
          </ns3:TrackPointExtension>
        </extensions>
      </trkpt>
      <trkpt lat="47.55121084861457347869873046875" lon="11.053036339581012725830078125">
        <ele>1807.199951171875</ele>
        <time>2026-09-01T09:08:55.000Z</time>
        <extensions>
          <ns3:TrackPointExtension>
            <ns3:hr>163</ns3:hr>
            <ns3:cad>73</ns3:cad>
          </ns3:TrackPointExtension>
        </extensions>
      </trkpt>
      <trkpt lat="47.5512151233851909637451171875" lon="11.05303139425814151763916015625">
        <ele>1807.5999755859375</ele>
        <time>2026-09-01T09:08:56.000Z</time>
        <extensions>
          <ns3:TrackPointExtension>
            <ns3:hr>164</ns3:hr>
            <ns3:cad>73</ns3:cad>
          </ns3:TrackPointExtension>
        </extensions>
      </trkpt>
      <trkpt lat="47.55122090689837932586669921875" lon="11.053026951849460601806640625">
        <ele>1808.199951171875</ele>
        <time>2026-09-01T09:08:57.000Z</time>
        <extensions>
          <ns3:TrackPointExtension>
            <ns3:hr>165</ns3:hr>
            <ns3:cad>0</ns3:cad>
          </ns3:TrackPointExtension>
        </extensions>
      </trkpt>
      <trkpt lat="47.5512258522212505340576171875" lon="11.053021587431430816650390625">
        <ele>1808.5999755859375</ele>
        <time>2026-09-01T09:08:58.000Z</time>
        <extensions>
          <ns3:TrackPointExtension>
            <ns3:hr>165</ns3:hr>
            <ns3:cad>0</ns3:cad>
          </ns3:TrackPointExtension>
        </extensions>
      </trkpt>
      <trkpt lat="47.55122694186866283416748046875" lon="11.05301320552825927734375">
        <ele>1808.800048828125</ele>
        <time>2026-09-01T09:08:59.000Z</time>
        <extensions>
          <ns3:TrackPointExtension>
            <ns3:hr>164</ns3:hr>
            <ns3:cad>0</ns3:cad>
          </ns3:TrackPointExtension>
        </extensions>
      </trkpt>
      <trkpt lat="47.5512318871915340423583984375" lon="11.0530070029199123382568359375">
        <ele>1809</ele>
        <time>2026-09-01T09:09:00.000Z</time>
        <extensions>
          <ns3:TrackPointExtension>
            <ns3:hr>160</ns3:hr>
            <ns3:cad>0</ns3:cad>
          </ns3:TrackPointExtension>
        </extensions>
      </trkpt>
      <trkpt lat="47.55123741924762725830078125" lon="11.0530023090541362762451171875">
        <ele>1809.199951171875</ele>
        <time>2026-09-01T09:09:01.000Z</time>
        <extensions>
          <ns3:TrackPointExtension>
            <ns3:hr>160</ns3:hr>
            <ns3:cad>0</ns3:cad>
          </ns3:TrackPointExtension>
        </extensions>
      </trkpt>
      <trkpt lat="47.55124001763761043548583984375" lon="11.052999459207057952880859375">
        <ele>1809.4000244140625</ele>
        <time>2026-09-01T09:09:02.000Z</time>
        <extensions>
          <ns3:TrackPointExtension>
            <ns3:hr>160</ns3:hr>
            <ns3:cad>0</ns3:cad>
          </ns3:TrackPointExtension>
        </extensions>
      </trkpt>
      <trkpt lat="47.55124571733176708221435546875" lon="11.0529952682554721832275390625">
        <ele>1809.5999755859375</ele>
        <time>2026-09-01T09:09:03.000Z</time>
        <extensions>
          <ns3:TrackPointExtension>
            <ns3:hr>160</ns3:hr>
            <ns3:cad>0</ns3:cad>
          </ns3:TrackPointExtension>
        </extensions>
      </trkpt>
      <trkpt lat="47.55124923773109912872314453125" lon="11.052994094789028167724609375">
        <ele>1810</ele>
        <time>2026-09-01T09:09:04.000Z</time>
        <extensions>
          <ns3:TrackPointExtension>
            <ns3:hr>160</ns3:hr>
            <ns3:cad>0</ns3:cad>
          </ns3:TrackPointExtension>
        </extensions>
      </trkpt>
      <trkpt lat="47.55125485360622406005859375" lon="11.052992753684520721435546875">
        <ele>1810.199951171875</ele>
        <time>2026-09-01T09:09:05.000Z</time>
        <extensions>
          <ns3:TrackPointExtension>
            <ns3:hr>161</ns3:hr>
            <ns3:cad>0</ns3:cad>
          </ns3:TrackPointExtension>
        </extensions>
      </trkpt>
      <trkpt lat="47.55126046948134899139404296875" lon="11.05300792492926120758056640625">
        <ele>1810.4000244140625</ele>
        <time>2026-09-01T09:09:06.000Z</time>
        <extensions>
          <ns3:TrackPointExtension>
            <ns3:hr>161</ns3:hr>
            <ns3:cad>0</ns3:cad>
          </ns3:TrackPointExtension>
        </extensions>
      </trkpt>
      <trkpt lat="47.55126290023326873779296875" lon="11.05300859548151493072509765625">
        <ele>1810.5999755859375</ele>
        <time>2026-09-01T09:09:07.000Z</time>
        <extensions>
          <ns3:TrackPointExtension>
            <ns3:hr>161</ns3:hr>
            <ns3:cad>0</ns3:cad>
          </ns3:TrackPointExtension>
        </extensions>
      </trkpt>
      <trkpt lat="47.5512691028416156768798828125" lon="11.053018905222415924072265625">
        <ele>1811</ele>
        <time>2026-09-01T09:09:08.000Z</time>
        <extensions>
          <ns3:TrackPointExtension>
            <ns3:hr>161</ns3:hr>
            <ns3:cad>0</ns3:cad>
          </ns3:TrackPointExtension>
        </extensions>
      </trkpt>
      <trkpt lat="47.55127639509737491607666015625" lon="11.05302569456398487091064453125">
        <ele>1811.4000244140625</ele>
        <time>2026-09-01T09:09:09.000Z</time>
        <extensions>
          <ns3:TrackPointExtension>
            <ns3:hr>161</ns3:hr>
            <ns3:cad>0</ns3:cad>
          </ns3:TrackPointExtension>
        </extensions>
      </trkpt>
      <trkpt lat="47.55128033459186553955078125" lon="11.05303466320037841796875">
        <ele>1811.5999755859375</ele>
        <time>2026-09-01T09:09:10.000Z</time>
        <extensions>
          <ns3:TrackPointExtension>
            <ns3:hr>162</ns3:hr>
            <ns3:cad>0</ns3:cad>
          </ns3:TrackPointExtension>
        </extensions>
      </trkpt>
      <trkpt lat="47.55128678865730762481689453125" lon="11.05304229073226451873779296875">
        <ele>1812</ele>
        <time>2026-09-01T09:09:11.000Z</time>
        <extensions>
          <ns3:TrackPointExtension>
            <ns3:hr>162</ns3:hr>
            <ns3:cad>0</ns3:cad>
          </ns3:TrackPointExtension>
        </extensions>
      </trkpt>
      <trkpt lat="47.5512949191033840179443359375" lon="11.05304514057934284210205078125">
        <ele>1812.5999755859375</ele>
        <time>2026-09-01T09:09:12.000Z</time>
        <extensions>
          <ns3:TrackPointExtension>
            <ns3:hr>162</ns3:hr>
            <ns3:cad>0</ns3:cad>
          </ns3:TrackPointExtension>
        </extensions>
      </trkpt>
      <trkpt lat="47.5513012893497943878173828125" lon="11.05304715223610401153564453125">
        <ele>1813</ele>
        <time>2026-09-01T09:09:13.000Z</time>
        <extensions>
          <ns3:TrackPointExtension>
            <ns3:hr>163</ns3:hr>
            <ns3:cad>0</ns3:cad>
          </ns3:TrackPointExtension>
        </extensions>
      </trkpt>
      <trkpt lat="47.55130656994879245758056640625" lon="11.05304799042642116546630859375">
        <ele>1813.4000244140625</ele>
        <time>2026-09-01T09:09:14.000Z</time>
        <extensions>
          <ns3:TrackPointExtension>
            <ns3:hr>163</ns3:hr>
            <ns3:cad>0</ns3:cad>
          </ns3:TrackPointExtension>
        </extensions>
      </trkpt>
      <trkpt lat="47.55131361074745655059814453125" lon="11.05305167846381664276123046875">
        <ele>1814</ele>
        <time>2026-09-01T09:09:15.000Z</time>
        <extensions>
          <ns3:TrackPointExtension>
            <ns3:hr>163</ns3:hr>
            <ns3:cad>0</ns3:cad>
          </ns3:TrackPointExtension>
        </extensions>
      </trkpt>
      <trkpt lat="47.5513157062232494354248046875" lon="11.0530606471002101898193359375">
        <ele>1814.5999755859375</ele>
        <time>2026-09-01T09:09:16.000Z</time>
        <extensions>
          <ns3:TrackPointExtension>
            <ns3:hr>164</ns3:hr>
            <ns3:cad>0</ns3:cad>
          </ns3:TrackPointExtension>
        </extensions>
      </trkpt>
      <trkpt lat="47.55131763406097888946533203125" lon="11.0530660115182399749755859375">
        <ele>1815</ele>
        <time>2026-09-01T09:09:17.000Z</time>
        <extensions>
          <ns3:TrackPointExtension>
            <ns3:hr>164</ns3:hr>
            <ns3:cad>0</ns3:cad>
          </ns3:TrackPointExtension>
        </extensions>
      </trkpt>
      <trkpt lat="47.5513239204883575439453125" lon="11.05307565070688724517822265625">
        <ele>1815.4000244140625</ele>
        <time>2026-09-01T09:09:18.000Z</time>
        <extensions>
          <ns3:TrackPointExtension>
            <ns3:hr>164</ns3:hr>
            <ns3:cad>0</ns3:cad>
          </ns3:TrackPointExtension>
        </extensions>
      </trkpt>
      <trkpt lat="47.551325596868991851806640625" lon="11.053077913820743560791015625">
        <ele>1816</ele>
        <time>2026-09-01T09:09:19.000Z</time>
        <extensions>
          <ns3:TrackPointExtension>
            <ns3:hr>164</ns3:hr>
            <ns3:cad>0</ns3:cad>
          </ns3:TrackPointExtension>
        </extensions>
      </trkpt>
      <trkpt lat="47.5513334758579730987548828125" lon="11.053080260753631591796875">
        <ele>1816.5999755859375</ele>
        <time>2026-09-01T09:09:20.000Z</time>
        <extensions>
          <ns3:TrackPointExtension>
            <ns3:hr>165</ns3:hr>
            <ns3:cad>0</ns3:cad>
          </ns3:TrackPointExtension>
        </extensions>
      </trkpt>
      <trkpt lat="47.55133339203894138336181640625" lon="11.0530787520110607147216796875">
        <ele>1817.199951171875</ele>
        <time>2026-09-01T09:09:21.000Z</time>
        <extensions>
          <ns3:TrackPointExtension>
            <ns3:hr>166</ns3:hr>
            <ns3:cad>0</ns3:cad>
          </ns3:TrackPointExtension>
        </extensions>
      </trkpt>
      <trkpt lat="47.5513361580669879913330078125" lon="11.05307950638234615325927734375">
        <ele>1817.800048828125</ele>
        <time>2026-09-01T09:09:22.000Z</time>
        <extensions>
          <ns3:TrackPointExtension>
            <ns3:hr>165</ns3:hr>
            <ns3:cad>0</ns3:cad>
          </ns3:TrackPointExtension>
        </extensions>
      </trkpt>
      <trkpt lat="47.5513472221791744232177734375" lon="11.053074896335601806640625">
        <ele>1818.199951171875</ele>
        <time>2026-09-01T09:09:23.000Z</time>
        <extensions>
          <ns3:TrackPointExtension>
            <ns3:hr>163</ns3:hr>
            <ns3:cad>0</ns3:cad>
          </ns3:TrackPointExtension>
        </extensions>
      </trkpt>
      <trkpt lat="47.55135518498718738555908203125" lon="11.05306617915630340576171875">
        <ele>1818.800048828125</ele>
        <time>2026-09-01T09:09:24.000Z</time>
        <extensions>
          <ns3:TrackPointExtension>
            <ns3:hr>158</ns3:hr>
            <ns3:cad>0</ns3:cad>
          </ns3:TrackPointExtension>
        </extensions>
      </trkpt>
      <trkpt lat="47.55135920830070972442626953125" lon="11.05306274257600307464599609375">
        <ele>1819.199951171875</ele>
        <time>2026-09-01T09:09:25.000Z</time>
        <extensions>
          <ns3:TrackPointExtension>
            <ns3:hr>155</ns3:hr>
            <ns3:cad>0</ns3:cad>
          </ns3:TrackPointExtension>
        </extensions>
      </trkpt>
      <trkpt lat="47.55136205814778804779052734375" lon="11.0530639998614788055419921875">
        <ele>1819.4000244140625</ele>
        <time>2026-09-01T09:09:26.000Z</time>
        <extensions>
          <ns3:TrackPointExtension>
            <ns3:hr>155</ns3:hr>
            <ns3:cad>0</ns3:cad>
          </ns3:TrackPointExtension>
        </extensions>
      </trkpt>
      <trkpt lat="47.55137178115546703338623046875" lon="11.0530660115182399749755859375">
        <ele>1819.800048828125</ele>
        <time>2026-09-01T09:09:27.000Z</time>
        <extensions>
          <ns3:TrackPointExtension>
            <ns3:hr>154</ns3:hr>
            <ns3:cad>0</ns3:cad>
          </ns3:TrackPointExtension>
        </extensions>
      </trkpt>
      <trkpt lat="47.551378570497035980224609375" lon="11.0530629940330982208251953125">
        <ele>1820.4000244140625</ele>
        <time>2026-09-01T09:09:28.000Z</time>
        <extensions>
          <ns3:TrackPointExtension>
            <ns3:hr>154</ns3:hr>
            <ns3:cad>0</ns3:cad>
          </ns3:TrackPointExtension>
        </extensions>
      </trkpt>
      <trkpt lat="47.5513844378292560577392578125" lon="11.05306525714695453643798828125">
        <ele>1820.800048828125</ele>
        <time>2026-09-01T09:09:29.000Z</time>
        <extensions>
          <ns3:TrackPointExtension>
            <ns3:hr>154</ns3:hr>
            <ns3:cad>0</ns3:cad>
          </ns3:TrackPointExtension>
        </extensions>
      </trkpt>
      <trkpt lat="47.551391310989856719970703125" lon="11.05306425131857395172119140625">
        <ele>1821.199951171875</ele>
        <time>2026-09-01T09:09:30.000Z</time>
        <extensions>
          <ns3:TrackPointExtension>
            <ns3:hr>153</ns3:hr>
            <ns3:cad>0</ns3:cad>
          </ns3:TrackPointExtension>
        </extensions>
      </trkpt>
      <trkpt lat="47.551396004855632781982421875" lon="11.05306039564311504364013671875">
        <ele>1821.800048828125</ele>
        <time>2026-09-01T09:09:31.000Z</time>
        <extensions>
          <ns3:TrackPointExtension>
            <ns3:hr>153</ns3:hr>
            <ns3:cad>0</ns3:cad>
          </ns3:TrackPointExtension>
        </extensions>
      </trkpt>
      <trkpt lat="47.55140011198818683624267578125" lon="11.05305637232959270477294921875">
        <ele>1822</ele>
        <time>2026-09-01T09:09:32.000Z</time>
        <extensions>
          <ns3:TrackPointExtension>
            <ns3:hr>153</ns3:hr>
            <ns3:cad>0</ns3:cad>
          </ns3:TrackPointExtension>
        </extensions>
      </trkpt>
      <trkpt lat="47.55140530876815319061279296875" lon="11.05305888690054416656494140625">
        <ele>1822.199951171875</ele>
        <time>2026-09-01T09:09:33.000Z</time>
        <extensions>
          <ns3:TrackPointExtension>
            <ns3:hr>153</ns3:hr>
            <ns3:cad>0</ns3:cad>
          </ns3:TrackPointExtension>
        </extensions>
      </trkpt>
      <trkpt lat="47.55141184665262699127197265625" lon="11.0530556179583072662353515625">
        <ele>1822.4000244140625</ele>
        <time>2026-09-01T09:09:34.000Z</time>
        <extensions>
          <ns3:TrackPointExtension>
            <ns3:hr>153</ns3:hr>
            <ns3:cad>0</ns3:cad>
          </ns3:TrackPointExtension>
        </extensions>
      </trkpt>
      <trkpt lat="47.551420144736766815185546875" lon="11.0530572943389415740966796875">
        <ele>1822.5999755859375</ele>
        <time>2026-09-01T09:09:35.000Z</time>
        <extensions>
          <ns3:TrackPointExtension>
            <ns3:hr>154</ns3:hr>
            <ns3:cad>0</ns3:cad>
          </ns3:TrackPointExtension>
        </extensions>
      </trkpt>
      <trkpt lat="47.55142928101122379302978515625" lon="11.053060479462146759033203125">
        <ele>1823</ele>
        <time>2026-09-01T09:09:36.000Z</time>
        <extensions>
          <ns3:TrackPointExtension>
            <ns3:hr>155</ns3:hr>
            <ns3:cad>0</ns3:cad>
          </ns3:TrackPointExtension>
        </extensions>
      </trkpt>
      <trkpt lat="47.55143229849636554718017578125" lon="11.0530583001673221588134765625">
        <ele>1823.4000244140625</ele>
        <time>2026-09-01T09:09:37.000Z</time>
        <extensions>
          <ns3:TrackPointExtension>
            <ns3:hr>155</ns3:hr>
            <ns3:cad>0</ns3:cad>
          </ns3:TrackPointExtension>
        </extensions>
      </trkpt>
      <trkpt lat="47.55144084803760051727294921875" lon="11.05306441895663738250732421875">
        <ele>1823.800048828125</ele>
        <time>2026-09-01T09:09:38.000Z</time>
        <extensions>
          <ns3:TrackPointExtension>
            <ns3:hr>155</ns3:hr>
            <ns3:cad>0</ns3:cad>
          </ns3:TrackPointExtension>
        </extensions>
      </trkpt>
      <trkpt lat="47.55144956521689891815185546875" lon="11.053069196641445159912109375">
        <ele>1824.199951171875</ele>
        <time>2026-09-01T09:09:39.000Z</time>
        <extensions>
          <ns3:TrackPointExtension>
            <ns3:hr>155</ns3:hr>
            <ns3:cad>0</ns3:cad>
          </ns3:TrackPointExtension>
        </extensions>
      </trkpt>
      <trkpt lat="47.55145409144461154937744140625" lon="11.053064502775669097900390625">
        <ele>1824.4000244140625</ele>
        <time>2026-09-01T09:09:40.000Z</time>
        <extensions>
          <ns3:TrackPointExtension>
            <ns3:hr>154</ns3:hr>
            <ns3:cad>0</ns3:cad>
          </ns3:TrackPointExtension>
        </extensions>
      </trkpt>
      <trkpt lat="47.55145425908267498016357421875" lon="11.05306693352758884429931640625">
        <ele>1824.5999755859375</ele>
        <time>2026-09-01T09:09:41.000Z</time>
        <extensions>
          <ns3:TrackPointExtension>
            <ns3:hr>154</ns3:hr>
            <ns3:cad>0</ns3:cad>
          </ns3:TrackPointExtension>
        </extensions>
      </trkpt>
      <trkpt lat="47.55146540701389312744140625" lon="11.05306073091924190521240234375">
        <ele>1824.800048828125</ele>
        <time>2026-09-01T09:09:42.000Z</time>
        <extensions>
          <ns3:TrackPointExtension>
            <ns3:hr>154</ns3:hr>
            <ns3:cad>0</ns3:cad>
          </ns3:TrackPointExtension>
        </extensions>
      </trkpt>
      <trkpt lat="47.5514638982713222503662109375" lon="11.0530494153499603271484375">
        <ele>1825</ele>
        <time>2026-09-01T09:09:43.000Z</time>
        <extensions>
          <ns3:TrackPointExtension>
            <ns3:hr>153</ns3:hr>
            <ns3:cad>0</ns3:cad>
          </ns3:TrackPointExtension>
        </extensions>
      </trkpt>
      <trkpt lat="47.5514689274132251739501953125" lon="11.05304296128451824188232421875">
        <ele>1825.199951171875</ele>
        <time>2026-09-01T09:09:44.000Z</time>
        <extensions>
          <ns3:TrackPointExtension>
            <ns3:hr>153</ns3:hr>
            <ns3:cad>0</ns3:cad>
          </ns3:TrackPointExtension>
        </extensions>
      </trkpt>
      <trkpt lat="47.55147504620254039764404296875" lon="11.053037680685520172119140625">
        <ele>1825.4000244140625</ele>
        <time>2026-09-01T09:09:45.000Z</time>
        <extensions>
          <ns3:TrackPointExtension>
            <ns3:hr>153</ns3:hr>
            <ns3:cad>0</ns3:cad>
          </ns3:TrackPointExtension>
        </extensions>
      </trkpt>
      <trkpt lat="47.551479823887348175048828125" lon="11.0530324839055538177490234375">
        <ele>1825.5999755859375</ele>
        <time>2026-09-01T09:09:46.000Z</time>
        <extensions>
          <ns3:TrackPointExtension>
            <ns3:hr>152</ns3:hr>
            <ns3:cad>0</ns3:cad>
          </ns3:TrackPointExtension>
        </extensions>
      </trkpt>
      <trkpt lat="47.55148284137248992919921875" lon="11.053026616573333740234375">
        <ele>1825.800048828125</ele>
        <time>2026-09-01T09:09:47.000Z</time>
        <extensions>
          <ns3:TrackPointExtension>
            <ns3:hr>153</ns3:hr>
            <ns3:cad>0</ns3:cad>
          </ns3:TrackPointExtension>
        </extensions>
      </trkpt>
      <trkpt lat="47.55148552358150482177734375" lon="11.05301748029887676239013671875">
        <ele>1826</ele>
        <time>2026-09-01T09:09:48.000Z</time>
        <extensions>
          <ns3:TrackPointExtension>
            <ns3:hr>154</ns3:hr>
            <ns3:cad>0</ns3:cad>
          </ns3:TrackPointExtension>
        </extensions>
      </trkpt>
      <trkpt lat="47.55149424076080322265625" lon="11.05301194824278354644775390625">
        <ele>1826</ele>
        <time>2026-09-01T09:09:49.000Z</time>
        <extensions>
          <ns3:TrackPointExtension>
            <ns3:hr>156</ns3:hr>
            <ns3:cad>0</ns3:cad>
          </ns3:TrackPointExtension>
        </extensions>
      </trkpt>
      <trkpt lat="47.55149650387465953826904296875" lon="11.053012199699878692626953125">
        <ele>1826.199951171875</ele>
        <time>2026-09-01T09:09:50.000Z</time>
        <extensions>
          <ns3:TrackPointExtension>
            <ns3:hr>155</ns3:hr>
            <ns3:cad>0</ns3:cad>
          </ns3:TrackPointExtension>
        </extensions>
      </trkpt>
      <trkpt lat="47.55149616859853267669677734375" lon="11.0530140437185764312744140625">
        <ele>1826.4000244140625</ele>
        <time>2026-09-01T09:09:51.000Z</time>
        <extensions>
          <ns3:TrackPointExtension>
            <ns3:hr>156</ns3:hr>
            <ns3:cad>0</ns3:cad>
          </ns3:TrackPointExtension>
        </extensions>
      </trkpt>
      <trkpt lat="47.55150086246430873870849609375" lon="11.05302183888852596282958984375">
        <ele>1826.800048828125</ele>
        <time>2026-09-01T09:09:52.000Z</time>
        <extensions>
          <ns3:TrackPointExtension>
            <ns3:hr>156</ns3:hr>
            <ns3:cad>0</ns3:cad>
          </ns3:TrackPointExtension>
        </extensions>
      </trkpt>
      <trkpt lat="47.5515037961304187774658203125" lon="11.05302619747817516326904296875">
        <ele>1827</ele>
        <time>2026-09-01T09:09:53.000Z</time>
        <extensions>
          <ns3:TrackPointExtension>
            <ns3:hr>157</ns3:hr>
            <ns3:cad>0</ns3:cad>
          </ns3:TrackPointExtension>
        </extensions>
      </trkpt>
      <trkpt lat="47.551508657634258270263671875" lon="11.053039021790027618408203125">
        <ele>1827.199951171875</ele>
        <time>2026-09-01T09:09:54.000Z</time>
        <extensions>
          <ns3:TrackPointExtension>
            <ns3:hr>158</ns3:hr>
            <ns3:cad>0</ns3:cad>
          </ns3:TrackPointExtension>
        </extensions>
      </trkpt>
      <trkpt lat="47.55151846446096897125244140625" lon="11.05304815806448459625244140625">
        <ele>1827.4000244140625</ele>
        <time>2026-09-01T09:09:55.000Z</time>
        <extensions>
          <ns3:TrackPointExtension>
            <ns3:hr>159</ns3:hr>
            <ns3:cad>0</ns3:cad>
          </ns3:TrackPointExtension>
        </extensions>
      </trkpt>
      <trkpt lat="47.55152282305061817169189453125" lon="11.05305637232959270477294921875">
        <ele>1827.800048828125</ele>
        <time>2026-09-01T09:09:56.000Z</time>
        <extensions>
          <ns3:TrackPointExtension>
            <ns3:hr>158</ns3:hr>
            <ns3:cad>0</ns3:cad>
          </ns3:TrackPointExtension>
        </extensions>
      </trkpt>
      <trkpt lat="47.5515319593250751495361328125" lon="11.0530676878988742828369140625">
        <ele>1828</ele>
        <time>2026-09-01T09:09:57.000Z</time>
        <extensions>
          <ns3:TrackPointExtension>
            <ns3:hr>158</ns3:hr>
            <ns3:cad>0</ns3:cad>
          </ns3:TrackPointExtension>
        </extensions>
      </trkpt>
      <trkpt lat="47.55153237842023372650146484375" lon="11.0530797578394412994384765625">
        <ele>1828.4000244140625</ele>
        <time>2026-09-01T09:09:58.000Z</time>
        <extensions>
          <ns3:TrackPointExtension>
            <ns3:hr>157</ns3:hr>
            <ns3:cad>0</ns3:cad>
          </ns3:TrackPointExtension>
        </extensions>
      </trkpt>
      <trkpt lat="47.55153891630470752716064453125" lon="11.05309023521840572357177734375">
        <ele>1828.800048828125</ele>
        <time>2026-09-01T09:09:59.000Z</time>
        <extensions>
          <ns3:TrackPointExtension>
            <ns3:hr>157</ns3:hr>
            <ns3:cad>0</ns3:cad>
          </ns3:TrackPointExtension>
        </extensions>
      </trkpt>
      <trkpt lat="47.55154126323759555816650390625" lon="11.05309744365513324737548828125">
        <ele>1829</ele>
        <time>2026-09-01T09:10:00.000Z</time>
        <extensions>
          <ns3:TrackPointExtension>
            <ns3:hr>157</ns3:hr>
            <ns3:cad>0</ns3:cad>
          </ns3:TrackPointExtension>
        </extensions>
      </trkpt>
      <trkpt lat="47.55154277198016643524169921875" lon="11.05310498736798763275146484375">
        <ele>1829.199951171875</ele>
        <time>2026-09-01T09:10:01.000Z</time>
        <extensions>
          <ns3:TrackPointExtension>
            <ns3:hr>156</ns3:hr>
            <ns3:cad>0</ns3:cad>
          </ns3:TrackPointExtension>
        </extensions>
      </trkpt>
      <trkpt lat="47.55154377780854701995849609375" lon="11.0531137883663177490234375">
        <ele>1829.4000244140625</ele>
        <time>2026-09-01T09:10:02.000Z</time>
        <extensions>
          <ns3:TrackPointExtension>
            <ns3:hr>156</ns3:hr>
            <ns3:cad>0</ns3:cad>
          </ns3:TrackPointExtension>
        </extensions>
      </trkpt>
      <trkpt lat="47.55153941921889781951904296875" lon="11.053139269351959228515625">
        <ele>1829.5999755859375</ele>
        <time>2026-09-01T09:10:03.000Z</time>
        <extensions>
          <ns3:TrackPointExtension>
            <ns3:hr>156</ns3:hr>
            <ns3:cad>0</ns3:cad>
          </ns3:TrackPointExtension>
        </extensions>
      </trkpt>
      <trkpt lat="47.551547549664974212646484375" lon="11.05317153967916965484619140625">
        <ele>1829.800048828125</ele>
        <time>2026-09-01T09:10:04.000Z</time>
        <extensions>
          <ns3:TrackPointExtension>
            <ns3:hr>156</ns3:hr>
            <ns3:cad>0</ns3:cad>
          </ns3:TrackPointExtension>
        </extensions>
      </trkpt>
      <trkpt lat="47.55155861377716064453125" lon="11.05320624075829982757568359375">
        <ele>1830.199951171875</ele>
        <time>2026-09-01T09:10:05.000Z</time>
        <extensions>
          <ns3:TrackPointExtension>
            <ns3:hr>156</ns3:hr>
            <ns3:cad>0</ns3:cad>
          </ns3:TrackPointExtension>
        </extensions>
      </trkpt>
      <trkpt lat="47.55157001316547393798828125" lon="11.05322233401238918304443359375">
        <ele>1830.199951171875</ele>
        <time>2026-09-01T09:10:06.000Z</time>
        <extensions>
          <ns3:TrackPointExtension>
            <ns3:hr>155</ns3:hr>
            <ns3:cad>0</ns3:cad>
          </ns3:TrackPointExtension>
        </extensions>
      </trkpt>
      <trkpt lat="47.55159071646630764007568359375" lon="11.05324546806514263153076171875">
        <ele>1830.4000244140625</ele>
        <time>2026-09-01T09:10:07.000Z</time>
        <extensions>
          <ns3:TrackPointExtension>
            <ns3:hr>155</ns3:hr>
            <ns3:cad>0</ns3:cad>
          </ns3:TrackPointExtension>
        </extensions>
      </trkpt>
      <trkpt lat="47.5516033731400966644287109375" lon="11.0532532632350921630859375">
        <ele>1830.5999755859375</ele>
        <time>2026-09-01T09:10:08.000Z</time>
        <extensions>
          <ns3:TrackPointExtension>
            <ns3:hr>156</ns3:hr>
            <ns3:cad>0</ns3:cad>
          </ns3:TrackPointExtension>
        </extensions>
      </trkpt>
      <trkpt lat="47.55161016248166561126708984375" lon="11.053257621824741363525390625">
        <ele>1830.800048828125</ele>
        <time>2026-09-01T09:10:09.000Z</time>
        <extensions>
          <ns3:TrackPointExtension>
            <ns3:hr>157</ns3:hr>
            <ns3:cad>79</ns3:cad>
          </ns3:TrackPointExtension>
        </extensions>
      </trkpt>
      <trkpt lat="47.5516187958419322967529296875" lon="11.0532581247389316558837890625">
        <ele>1831.199951171875</ele>
        <time>2026-09-01T09:10:10.000Z</time>
        <extensions>
          <ns3:TrackPointExtension>
            <ns3:hr>158</ns3:hr>
            <ns3:cad>81</ns3:cad>
          </ns3:TrackPointExtension>
        </extensions>
      </trkpt>
      <trkpt lat="47.55163011141121387481689453125" lon="11.053260974586009979248046875">
        <ele>1831.4000244140625</ele>
        <time>2026-09-01T09:10:11.000Z</time>
        <extensions>
          <ns3:TrackPointExtension>
            <ns3:hr>158</ns3:hr>
            <ns3:cad>81</ns3:cad>
          </ns3:TrackPointExtension>
        </extensions>
      </trkpt>
      <trkpt lat="47.5516431033611297607421875" lon="11.05326608754694461822509765625">
        <ele>1831.5999755859375</ele>
        <time>2026-09-01T09:10:12.000Z</time>
        <extensions>
          <ns3:TrackPointExtension>
            <ns3:hr>158</ns3:hr>
            <ns3:cad>81</ns3:cad>
          </ns3:TrackPointExtension>
        </extensions>
      </trkpt>
      <trkpt lat="47.55165584385395050048828125" lon="11.05327463708817958831787109375">
        <ele>1832</ele>
        <time>2026-09-01T09:10:13.000Z</time>
        <extensions>
          <ns3:TrackPointExtension>
            <ns3:hr>159</ns3:hr>
            <ns3:cad>81</ns3:cad>
          </ns3:TrackPointExtension>
        </extensions>
      </trkpt>
      <trkpt lat="47.551656849682331085205078125" lon="11.0532899759709835052490234375">
        <ele>1832.199951171875</ele>
        <time>2026-09-01T09:10:14.000Z</time>
        <extensions>
          <ns3:TrackPointExtension>
            <ns3:hr>159</ns3:hr>
            <ns3:cad>81</ns3:cad>
          </ns3:TrackPointExtension>
        </extensions>
      </trkpt>
      <trkpt lat="47.551662214100360870361328125" lon="11.05329760350286960601806640625">
        <ele>1832.4000244140625</ele>
        <time>2026-09-01T09:10:15.000Z</time>
        <extensions>
          <ns3:TrackPointExtension>
            <ns3:hr>159</ns3:hr>
            <ns3:cad>81</ns3:cad>
          </ns3:TrackPointExtension>
        </extensions>
      </trkpt>
      <trkpt lat="47.55167185328900814056396484375" lon="11.05332157574594020843505859375">
        <ele>1832.800048828125</ele>
        <time>2026-09-01T09:10:16.000Z</time>
        <extensions>
          <ns3:TrackPointExtension>
            <ns3:hr>159</ns3:hr>
            <ns3:cad>81</ns3:cad>
          </ns3:TrackPointExtension>
        </extensions>
      </trkpt>
      <trkpt lat="47.55167973227798938751220703125" lon="11.05332861654460430145263671875">
        <ele>1833.199951171875</ele>
        <time>2026-09-01T09:10:17.000Z</time>
        <extensions>
          <ns3:TrackPointExtension>
            <ns3:hr>159</ns3:hr>
            <ns3:cad>81</ns3:cad>
          </ns3:TrackPointExtension>
        </extensions>
      </trkpt>
      <trkpt lat="47.55168861709535121917724609375" lon="11.0533332265913486480712890625">
        <ele>1833.5999755859375</ele>
        <time>2026-09-01T09:10:18.000Z</time>
        <extensions>
          <ns3:TrackPointExtension>
            <ns3:hr>159</ns3:hr>
            <ns3:cad>81</ns3:cad>
          </ns3:TrackPointExtension>
        </extensions>
      </trkpt>
      <trkpt lat="47.55169113166630268096923828125" lon="11.053337752819061279296875">
        <ele>1833.800048828125</ele>
        <time>2026-09-01T09:10:19.000Z</time>
        <extensions>
          <ns3:TrackPointExtension>
            <ns3:hr>160</ns3:hr>
            <ns3:cad>54</ns3:cad>
          </ns3:TrackPointExtension>
        </extensions>
      </trkpt>
      <trkpt lat="47.55169146694242954254150390625" lon="11.05333976447582244873046875">
        <ele>1834.199951171875</ele>
        <time>2026-09-01T09:10:20.000Z</time>
        <extensions>
          <ns3:TrackPointExtension>
            <ns3:hr>160</ns3:hr>
            <ns3:cad>0</ns3:cad>
          </ns3:TrackPointExtension>
        </extensions>
      </trkpt>
      <trkpt lat="47.55169448442757129669189453125" lon="11.05333934538066387176513671875">
        <ele>1834.5999755859375</ele>
        <time>2026-09-01T09:10:21.000Z</time>
        <extensions>
          <ns3:TrackPointExtension>
            <ns3:hr>162</ns3:hr>
            <ns3:cad>0</ns3:cad>
          </ns3:TrackPointExtension>
        </extensions>
      </trkpt>
      <trkpt lat="47.55169364623725414276123046875" lon="11.0533385910093784332275390625">
        <ele>1834.800048828125</ele>
        <time>2026-09-01T09:10:22.000Z</time>
        <extensions>
          <ns3:TrackPointExtension>
            <ns3:hr>162</ns3:hr>
            <ns3:cad>0</ns3:cad>
          </ns3:TrackPointExtension>
        </extensions>
      </trkpt>
      <trkpt lat="47.55170102231204509735107421875" lon="11.05334646999835968017578125">
        <ele>1835</ele>
        <time>2026-09-01T09:10:23.000Z</time>
        <extensions>
          <ns3:TrackPointExtension>
            <ns3:hr>162</ns3:hr>
            <ns3:cad>0</ns3:cad>
          </ns3:TrackPointExtension>
        </extensions>
      </trkpt>
      <trkpt lat="47.55171124823391437530517578125" lon="11.05334688909351825714111328125">
        <ele>1835.4000244140625</ele>
        <time>2026-09-01T09:10:24.000Z</time>
        <extensions>
          <ns3:TrackPointExtension>
            <ns3:hr>161</ns3:hr>
            <ns3:cad>0</ns3:cad>
          </ns3:TrackPointExtension>
        </extensions>
      </trkpt>
      <trkpt lat="47.55171443335711956024169921875" lon="11.05334621854126453399658203125">
        <ele>1835.5999755859375</ele>
        <time>2026-09-01T09:10:25.000Z</time>
        <extensions>
          <ns3:TrackPointExtension>
            <ns3:hr>160</ns3:hr>
            <ns3:cad>0</ns3:cad>
          </ns3:TrackPointExtension>
        </extensions>
      </trkpt>
      <trkpt lat="47.551712505519390106201171875" lon="11.0533392615616321563720703125">
        <ele>1835.800048828125</ele>
        <time>2026-09-01T09:10:26.000Z</time>
        <extensions>
          <ns3:TrackPointExtension>
            <ns3:hr>160</ns3:hr>
            <ns3:cad>0</ns3:cad>
          </ns3:TrackPointExtension>
        </extensions>
      </trkpt>
      <trkpt lat="47.55171694792807102203369140625" lon="11.05333548970520496368408203125">
        <ele>1836.199951171875</ele>
        <time>2026-09-01T09:10:27.000Z</time>
        <extensions>
          <ns3:TrackPointExtension>
            <ns3:hr>159</ns3:hr>
            <ns3:cad>0</ns3:cad>
          </ns3:TrackPointExtension>
        </extensions>
      </trkpt>
      <trkpt lat="47.551714517176151275634765625" lon="11.05333046056330204010009765625">
        <ele>1836.5999755859375</ele>
        <time>2026-09-01T09:10:28.000Z</time>
        <extensions>
          <ns3:TrackPointExtension>
            <ns3:hr>158</ns3:hr>
            <ns3:cad>0</ns3:cad>
          </ns3:TrackPointExtension>
        </extensions>
      </trkpt>
      <trkpt lat="47.55173505283892154693603515625" lon="11.05336851440370082855224609375">
        <ele>1836.800048828125</ele>
        <time>2026-09-01T09:10:29.000Z</time>
        <extensions>
          <ns3:TrackPointExtension>
            <ns3:hr>157</ns3:hr>
            <ns3:cad>0</ns3:cad>
          </ns3:TrackPointExtension>
        </extensions>
      </trkpt>
      <trkpt lat="47.55174435675144195556640625" lon="11.05337521992623805999755859375">
        <ele>1837.199951171875</ele>
        <time>2026-09-01T09:10:30.000Z</time>
        <extensions>
          <ns3:TrackPointExtension>
            <ns3:hr>158</ns3:hr>
            <ns3:cad>0</ns3:cad>
          </ns3:TrackPointExtension>
        </extensions>
      </trkpt>
      <trkpt lat="47.55175734870135784149169921875" lon="11.05338527821004390716552734375">
        <ele>1837.5999755859375</ele>
        <time>2026-09-01T09:10:31.000Z</time>
        <extensions>
          <ns3:TrackPointExtension>
            <ns3:hr>159</ns3:hr>
            <ns3:cad>0</ns3:cad>
          </ns3:TrackPointExtension>
        </extensions>
      </trkpt>
      <trkpt lat="47.55176522769033908843994140625" lon="11.053395755589008331298828125">
        <ele>1837.800048828125</ele>
        <time>2026-09-01T09:10:32.000Z</time>
        <extensions>
          <ns3:TrackPointExtension>
            <ns3:hr>159</ns3:hr>
            <ns3:cad>0</ns3:cad>
          </ns3:TrackPointExtension>
        </extensions>
      </trkpt>
      <trkpt lat="47.5517689995467662811279296875" lon="11.0534153692424297332763671875">
        <ele>1838</ele>
        <time>2026-09-01T09:10:33.000Z</time>
        <extensions>
          <ns3:TrackPointExtension>
            <ns3:hr>160</ns3:hr>
            <ns3:cad>0</ns3:cad>
          </ns3:TrackPointExtension>
        </extensions>
      </trkpt>
      <trkpt lat="47.55177847109735012054443359375" lon="11.053435318171977996826171875">
        <ele>1838</ele>
        <time>2026-09-01T09:10:34.000Z</time>
        <extensions>
          <ns3:TrackPointExtension>
            <ns3:hr>160</ns3:hr>
            <ns3:cad>0</ns3:cad>
          </ns3:TrackPointExtension>
        </extensions>
      </trkpt>
      <trkpt lat="47.55179590545594692230224609375" lon="11.053455434739589691162109375">
        <ele>1837.800048828125</ele>
        <time>2026-09-01T09:10:35.000Z</time>
        <extensions>
          <ns3:TrackPointExtension>
            <ns3:hr>161</ns3:hr>
            <ns3:cad>0</ns3:cad>
          </ns3:TrackPointExtension>
        </extensions>
      </trkpt>
      <trkpt lat="47.5518156029284000396728515625" lon="11.05348116718232631683349609375">
        <ele>1837.5999755859375</ele>
        <time>2026-09-01T09:10:36.000Z</time>
        <extensions>
          <ns3:TrackPointExtension>
            <ns3:hr>161</ns3:hr>
            <ns3:cad>0</ns3:cad>
          </ns3:TrackPointExtension>
        </extensions>
      </trkpt>
      <trkpt lat="47.5518290139734745025634765625" lon="11.05349742807447910308837890625">
        <ele>1837.5999755859375</ele>
        <time>2026-09-01T09:10:37.000Z</time>
        <extensions>
          <ns3:TrackPointExtension>
            <ns3:hr>162</ns3:hr>
            <ns3:cad>0</ns3:cad>
          </ns3:TrackPointExtension>
        </extensions>
      </trkpt>
      <trkpt lat="47.5518457777798175811767578125" lon="11.05351637117564678192138671875">
        <ele>1837.4000244140625</ele>
        <time>2026-09-01T09:10:38.000Z</time>
        <extensions>
          <ns3:TrackPointExtension>
            <ns3:hr>163</ns3:hr>
            <ns3:cad>0</ns3:cad>
          </ns3:TrackPointExtension>
        </extensions>
      </trkpt>
      <trkpt lat="47.55186245776712894439697265625" lon="11.053537242114543914794921875">
        <ele>1837.5999755859375</ele>
        <time>2026-09-01T09:10:39.000Z</time>
        <extensions>
          <ns3:TrackPointExtension>
            <ns3:hr>164</ns3:hr>
            <ns3:cad>77</ns3:cad>
          </ns3:TrackPointExtension>
        </extensions>
      </trkpt>
      <trkpt lat="47.5518772937357425689697265625" lon="11.05356196872889995574951171875">
        <ele>1837.5999755859375</ele>
        <time>2026-09-01T09:10:40.000Z</time>
        <extensions>
          <ns3:TrackPointExtension>
            <ns3:hr>164</ns3:hr>
            <ns3:cad>77</ns3:cad>
          </ns3:TrackPointExtension>
        </extensions>
      </trkpt>
      <trkpt lat="47.551888860762119293212890625" lon="11.05358107946813106536865234375">
        <ele>1838</ele>
        <time>2026-09-01T09:10:41.000Z</time>
        <extensions>
          <ns3:TrackPointExtension>
            <ns3:hr>165</ns3:hr>
            <ns3:cad>77</ns3:cad>
          </ns3:TrackPointExtension>
        </extensions>
      </trkpt>
      <trkpt lat="47.55189967341721057891845703125" lon="11.053596250712871551513671875">
        <ele>1838.199951171875</ele>
        <time>2026-09-01T09:10:42.000Z</time>
        <extensions>
          <ns3:TrackPointExtension>
            <ns3:hr>166</ns3:hr>
            <ns3:cad>76</ns3:cad>
          </ns3:TrackPointExtension>
        </extensions>
      </trkpt>
      <trkpt lat="47.5519121624529361724853515625" lon="11.05361460708081722259521484375">
        <ele>1838.4000244140625</ele>
        <time>2026-09-01T09:10:43.000Z</time>
        <extensions>
          <ns3:TrackPointExtension>
            <ns3:hr>166</ns3:hr>
            <ns3:cad>76</ns3:cad>
          </ns3:TrackPointExtension>
        </extensions>
      </trkpt>
      <trkpt lat="47.55192414857447147369384765625" lon="11.0536339692771434783935546875">
        <ele>1838.5999755859375</ele>
        <time>2026-09-01T09:10:44.000Z</time>
        <extensions>
          <ns3:TrackPointExtension>
            <ns3:hr>167</ns3:hr>
            <ns3:cad>76</ns3:cad>
          </ns3:TrackPointExtension>
        </extensions>
      </trkpt>
      <trkpt lat="47.55194644443690776824951171875" lon="11.05363908223807811737060546875">
        <ele>1838.800048828125</ele>
        <time>2026-09-01T09:10:45.000Z</time>
        <extensions>
          <ns3:TrackPointExtension>
            <ns3:hr>167</ns3:hr>
            <ns3:cad>76</ns3:cad>
          </ns3:TrackPointExtension>
        </extensions>
      </trkpt>
      <trkpt lat="47.55196957848966121673583984375" lon="11.05365819297730922698974609375">
        <ele>1838.800048828125</ele>
        <time>2026-09-01T09:10:46.000Z</time>
        <extensions>
          <ns3:TrackPointExtension>
            <ns3:hr>168</ns3:hr>
            <ns3:cad>76</ns3:cad>
          </ns3:TrackPointExtension>
        </extensions>
      </trkpt>
      <trkpt lat="47.55198952741920948028564453125" lon="11.0536765493452548980712890625">
        <ele>1838.5999755859375</ele>
        <time>2026-09-01T09:10:47.000Z</time>
        <extensions>
          <ns3:TrackPointExtension>
            <ns3:hr>168</ns3:hr>
            <ns3:cad>78</ns3:cad>
          </ns3:TrackPointExtension>
        </extensions>
      </trkpt>
      <trkpt lat="47.55200444720685482025146484375" lon="11.05369892902672290802001953125">
        <ele>1838.4000244140625</ele>
        <time>2026-09-01T09:10:48.000Z</time>
        <extensions>
          <ns3:TrackPointExtension>
            <ns3:hr>169</ns3:hr>
            <ns3:cad>78</ns3:cad>
          </ns3:TrackPointExtension>
        </extensions>
      </trkpt>
      <trkpt lat="47.55202062427997589111328125" lon="11.0537211410701274871826171875">
        <ele>1838</ele>
        <time>2026-09-01T09:10:49.000Z</time>
        <extensions>
          <ns3:TrackPointExtension>
            <ns3:hr>169</ns3:hr>
            <ns3:cad>78</ns3:cad>
          </ns3:TrackPointExtension>
        </extensions>
      </trkpt>
      <trkpt lat="47.55204451270401477813720703125" lon="11.0537563450634479522705078125">
        <ele>1837.800048828125</ele>
        <time>2026-09-01T09:10:50.000Z</time>
        <extensions>
          <ns3:TrackPointExtension>
            <ns3:hr>170</ns3:hr>
            <ns3:cad>78</ns3:cad>
          </ns3:TrackPointExtension>
        </extensions>
      </trkpt>
      <trkpt lat="47.552058510482311248779296875" lon="11.0537727735936641693115234375">
        <ele>1837.4000244140625</ele>
        <time>2026-09-01T09:10:51.000Z</time>
        <extensions>
          <ns3:TrackPointExtension>
            <ns3:hr>170</ns3:hr>
            <ns3:cad>78</ns3:cad>
          </ns3:TrackPointExtension>
        </extensions>
      </trkpt>
      <trkpt lat="47.552077285945415496826171875" lon="11.0538042895495891571044921875">
        <ele>1837.4000244140625</ele>
        <time>2026-09-01T09:10:52.000Z</time>
        <extensions>
          <ns3:TrackPointExtension>
            <ns3:hr>171</ns3:hr>
            <ns3:cad>78</ns3:cad>
          </ns3:TrackPointExtension>
        </extensions>
      </trkpt>
      <trkpt lat="47.5520955584943294525146484375" lon="11.05382700450718402862548828125">
        <ele>1837.4000244140625</ele>
        <time>2026-09-01T09:10:53.000Z</time>
        <extensions>
          <ns3:TrackPointExtension>
            <ns3:hr>171</ns3:hr>
            <ns3:cad>78</ns3:cad>
          </ns3:TrackPointExtension>
        </extensions>
      </trkpt>
      <trkpt lat="47.55210519768297672271728515625" lon="11.05384544469416141510009765625">
        <ele>1837.4000244140625</ele>
        <time>2026-09-01T09:10:54.000Z</time>
        <extensions>
          <ns3:TrackPointExtension>
            <ns3:hr>172</ns3:hr>
            <ns3:cad>78</ns3:cad>
          </ns3:TrackPointExtension>
        </extensions>
      </trkpt>
      <trkpt lat="47.5521205365657806396484375" lon="11.0538706742227077484130859375">
        <ele>1837.5999755859375</ele>
        <time>2026-09-01T09:10:55.000Z</time>
        <extensions>
          <ns3:TrackPointExtension>
            <ns3:hr>173</ns3:hr>
            <ns3:cad>79</ns3:cad>
          </ns3:TrackPointExtension>
        </extensions>
      </trkpt>
      <trkpt lat="47.55213604308664798736572265625" lon="11.0538916289806365966796875">
        <ele>1837.800048828125</ele>
        <time>2026-09-01T09:10:56.000Z</time>
        <extensions>
          <ns3:TrackPointExtension>
            <ns3:hr>174</ns3:hr>
            <ns3:cad>81</ns3:cad>
          </ns3:TrackPointExtension>
        </extensions>
      </trkpt>
      <trkpt lat="47.5521445088088512420654296875" lon="11.0539045371115207672119140625">
        <ele>1838</ele>
        <time>2026-09-01T09:10:57.000Z</time>
        <extensions>
          <ns3:TrackPointExtension>
            <ns3:hr>175</ns3:hr>
            <ns3:cad>81</ns3:cad>
          </ns3:TrackPointExtension>
        </extensions>
      </trkpt>
      <trkpt lat="47.5521585904061794281005859375" lon="11.05391853488981723785400390625">
        <ele>1838.199951171875</ele>
        <time>2026-09-01T09:10:58.000Z</time>
        <extensions>
          <ns3:TrackPointExtension>
            <ns3:hr>176</ns3:hr>
            <ns3:cad>81</ns3:cad>
          </ns3:TrackPointExtension>
        </extensions>
      </trkpt>
      <trkpt lat="47.55217828787863254547119140625" lon="11.0539291799068450927734375">
        <ele>1838.5999755859375</ele>
        <time>2026-09-01T09:10:59.000Z</time>
        <extensions>
          <ns3:TrackPointExtension>
            <ns3:hr>176</ns3:hr>
            <ns3:cad>80</ns3:cad>
          </ns3:TrackPointExtension>
        </extensions>
      </trkpt>
      <trkpt lat="47.5521951355040073394775390625" lon="11.0539400763809680938720703125">
        <ele>1838.800048828125</ele>
        <time>2026-09-01T09:11:00.000Z</time>
        <extensions>
          <ns3:TrackPointExtension>
            <ns3:hr>176</ns3:hr>
            <ns3:cad>79</ns3:cad>
          </ns3:TrackPointExtension>
        </extensions>
      </trkpt>
      <trkpt lat="47.5522075407207012176513671875" lon="11.05394217185676097869873046875">
        <ele>1839.199951171875</ele>
        <time>2026-09-01T09:11:01.000Z</time>
        <extensions>
          <ns3:TrackPointExtension>
            <ns3:hr>177</ns3:hr>
            <ns3:cad>79</ns3:cad>
          </ns3:TrackPointExtension>
        </extensions>
      </trkpt>
      <trkpt lat="47.55222841165959835052490234375" lon="11.0539474524557590484619140625">
        <ele>1839.4000244140625</ele>
        <time>2026-09-01T09:11:02.000Z</time>
        <extensions>
          <ns3:TrackPointExtension>
            <ns3:hr>177</ns3:hr>
            <ns3:cad>79</ns3:cad>
          </ns3:TrackPointExtension>
        </extensions>
      </trkpt>
      <trkpt lat="47.552240230143070220947265625" lon="11.053946949541568756103515625">
        <ele>1839.800048828125</ele>
        <time>2026-09-01T09:11:03.000Z</time>
        <extensions>
          <ns3:TrackPointExtension>
            <ns3:hr>177</ns3:hr>
            <ns3:cad>79</ns3:cad>
          </ns3:TrackPointExtension>
        </extensions>
      </trkpt>
      <trkpt lat="47.55225841887295246124267578125" lon="11.0539551638066768646240234375">
        <ele>1840</ele>
        <time>2026-09-01T09:11:04.000Z</time>
        <extensions>
          <ns3:TrackPointExtension>
            <ns3:hr>176</ns3:hr>
            <ns3:cad>79</ns3:cad>
          </ns3:TrackPointExtension>
        </extensions>
      </trkpt>
      <trkpt lat="47.552267052233219146728515625" lon="11.05396044440567493438720703125">
        <ele>1840</ele>
        <time>2026-09-01T09:11:05.000Z</time>
        <extensions>
          <ns3:TrackPointExtension>
            <ns3:hr>176</ns3:hr>
            <ns3:cad>79</ns3:cad>
          </ns3:TrackPointExtension>
        </extensions>
      </trkpt>
      <trkpt lat="47.55228071473538875579833984375" lon="11.053976453840732574462890625">
        <ele>1840.199951171875</ele>
        <time>2026-09-01T09:11:06.000Z</time>
        <extensions>
          <ns3:TrackPointExtension>
            <ns3:hr>176</ns3:hr>
            <ns3:cad>0</ns3:cad>
          </ns3:TrackPointExtension>
        </extensions>
      </trkpt>
      <trkpt lat="47.55228507332503795623779296875" lon="11.05398491956293582916259765625">
        <ele>1840.4000244140625</ele>
        <time>2026-09-01T09:11:07.000Z</time>
        <extensions>
          <ns3:TrackPointExtension>
            <ns3:hr>176</ns3:hr>
            <ns3:cad>0</ns3:cad>
          </ns3:TrackPointExtension>
        </extensions>
      </trkpt>
      <trkpt lat="47.5522927008569240570068359375" lon="11.05399866588413715362548828125">
        <ele>1840.4000244140625</ele>
        <time>2026-09-01T09:11:08.000Z</time>
        <extensions>
          <ns3:TrackPointExtension>
            <ns3:hr>176</ns3:hr>
            <ns3:cad>0</ns3:cad>
          </ns3:TrackPointExtension>
        </extensions>
      </trkpt>
      <trkpt lat="47.55230493843555450439453125" lon="11.054029427468776702880859375">
        <ele>1840.5999755859375</ele>
        <time>2026-09-01T09:11:09.000Z</time>
        <extensions>
          <ns3:TrackPointExtension>
            <ns3:hr>175</ns3:hr>
            <ns3:cad>0</ns3:cad>
          </ns3:TrackPointExtension>
        </extensions>
      </trkpt>
      <trkpt lat="47.552318684756755828857421875" lon="11.05405197478830814361572265625">
        <ele>1840.5999755859375</ele>
        <time>2026-09-01T09:11:10.000Z</time>
        <extensions>
          <ns3:TrackPointExtension>
            <ns3:hr>174</ns3:hr>
            <ns3:cad>0</ns3:cad>
          </ns3:TrackPointExtension>
        </extensions>
      </trkpt>
      <trkpt lat="47.552325725555419921875" lon="11.05406622402369976043701171875">
        <ele>1840.800048828125</ele>
        <time>2026-09-01T09:11:11.000Z</time>
        <extensions>
          <ns3:TrackPointExtension>
            <ns3:hr>173</ns3:hr>
            <ns3:cad>0</ns3:cad>
          </ns3:TrackPointExtension>
        </extensions>
      </trkpt>
      <trkpt lat="47.55233385600149631500244140625" lon="11.05407980270683765411376953125">
        <ele>1841</ele>
        <time>2026-09-01T09:11:12.000Z</time>
        <extensions>
          <ns3:TrackPointExtension>
            <ns3:hr>172</ns3:hr>
            <ns3:cad>0</ns3:cad>
          </ns3:TrackPointExtension>
        </extensions>
      </trkpt>
      <trkpt lat="47.5523364543914794921875" lon="11.0540845803916454315185546875">
        <ele>1841.199951171875</ele>
        <time>2026-09-01T09:11:13.000Z</time>
        <extensions>
          <ns3:TrackPointExtension>
            <ns3:hr>171</ns3:hr>
            <ns3:cad>0</ns3:cad>
          </ns3:TrackPointExtension>
        </extensions>
      </trkpt>
      <trkpt lat="47.55234274081885814666748046875" lon="11.0540969856083393096923828125">
        <ele>1841.4000244140625</ele>
        <time>2026-09-01T09:11:14.000Z</time>
        <extensions>
          <ns3:TrackPointExtension>
            <ns3:hr>171</ns3:hr>
            <ns3:cad>80</ns3:cad>
          </ns3:TrackPointExtension>
        </extensions>
      </trkpt>
      <trkpt lat="47.552345506846904754638671875" lon="11.0541053675115108489990234375">
        <ele>1841.800048828125</ele>
        <time>2026-09-01T09:11:15.000Z</time>
        <extensions>
          <ns3:TrackPointExtension>
            <ns3:hr>170</ns3:hr>
            <ns3:cad>80</ns3:cad>
          </ns3:TrackPointExtension>
        </extensions>
      </trkpt>
      <trkpt lat="47.55235313437879085540771484375" lon="11.05412020348012447357177734375">
        <ele>1842.199951171875</ele>
        <time>2026-09-01T09:11:16.000Z</time>
        <extensions>
          <ns3:TrackPointExtension>
            <ns3:hr>170</ns3:hr>
            <ns3:cad>80</ns3:cad>
          </ns3:TrackPointExtension>
        </extensions>
      </trkpt>
      <trkpt lat="47.55235715769231319427490234375" lon="11.05412791483104228973388671875">
        <ele>1842.5999755859375</ele>
        <time>2026-09-01T09:11:17.000Z</time>
        <extensions>
          <ns3:TrackPointExtension>
            <ns3:hr>170</ns3:hr>
            <ns3:cad>80</ns3:cad>
          </ns3:TrackPointExtension>
        </extensions>
      </trkpt>
      <trkpt lat="47.5523657910525798797607421875" lon="11.05414518155157566070556640625">
        <ele>1843</ele>
        <time>2026-09-01T09:11:18.000Z</time>
        <extensions>
          <ns3:TrackPointExtension>
            <ns3:hr>170</ns3:hr>
            <ns3:cad>80</ns3:cad>
          </ns3:TrackPointExtension>
        </extensions>
      </trkpt>
      <trkpt lat="47.552375011146068572998046875" lon="11.05414769612252712249755859375">
        <ele>1843.199951171875</ele>
        <time>2026-09-01T09:11:19.000Z</time>
        <extensions>
          <ns3:TrackPointExtension>
            <ns3:hr>169</ns3:hr>
            <ns3:cad>80</ns3:cad>
          </ns3:TrackPointExtension>
        </extensions>
      </trkpt>
      <trkpt lat="47.55237660370767116546630859375" lon="11.05415255762636661529541015625">
        <ele>1843.4000244140625</ele>
        <time>2026-09-01T09:11:20.000Z</time>
        <extensions>
          <ns3:TrackPointExtension>
            <ns3:hr>170</ns3:hr>
            <ns3:cad>80</ns3:cad>
          </ns3:TrackPointExtension>
        </extensions>
      </trkpt>
      <trkpt lat="47.55238196812570095062255859375" lon="11.05415247380733489990234375">
        <ele>1843.5999755859375</ele>
        <time>2026-09-01T09:11:21.000Z</time>
        <extensions>
          <ns3:TrackPointExtension>
            <ns3:hr>169</ns3:hr>
            <ns3:cad>50</ns3:cad>
          </ns3:TrackPointExtension>
        </extensions>
      </trkpt>
      <trkpt lat="47.55239319987595081329345703125" lon="11.0541506297886371612548828125">
        <ele>1843.800048828125</ele>
        <time>2026-09-01T09:11:22.000Z</time>
        <extensions>
          <ns3:TrackPointExtension>
            <ns3:hr>169</ns3:hr>
            <ns3:cad>50</ns3:cad>
          </ns3:TrackPointExtension>
        </extensions>
      </trkpt>
      <trkpt lat="47.5523994863033294677734375" lon="11.05415071360766887664794921875">
        <ele>1844.199951171875</ele>
        <time>2026-09-01T09:11:23.000Z</time>
        <extensions>
          <ns3:TrackPointExtension>
            <ns3:hr>168</ns3:hr>
            <ns3:cad>50</ns3:cad>
          </ns3:TrackPointExtension>
        </extensions>
      </trkpt>
      <trkpt lat="47.5524102151393890380859375" lon="11.05414819903671741485595703125">
        <ele>1844.5999755859375</ele>
        <time>2026-09-01T09:11:24.000Z</time>
        <extensions>
          <ns3:TrackPointExtension>
            <ns3:hr>167</ns3:hr>
            <ns3:cad>50</ns3:cad>
          </ns3:TrackPointExtension>
        </extensions>
      </trkpt>
      <trkpt lat="47.55242027342319488525390625" lon="11.0541482828557491302490234375">
        <ele>1845</ele>
        <time>2026-09-01T09:11:25.000Z</time>
        <extensions>
          <ns3:TrackPointExtension>
            <ns3:hr>167</ns3:hr>
            <ns3:cad>51</ns3:cad>
          </ns3:TrackPointExtension>
        </extensions>
      </trkpt>
      <trkpt lat="47.55243443883955478668212890625" lon="11.0541518032550811767578125">
        <ele>1845.199951171875</ele>
        <time>2026-09-01T09:11:26.000Z</time>
        <extensions>
          <ns3:TrackPointExtension>
            <ns3:hr>166</ns3:hr>
            <ns3:cad>52</ns3:cad>
          </ns3:TrackPointExtension>
        </extensions>
      </trkpt>
      <trkpt lat="47.5524549745023250579833984375" lon="11.05416311882436275482177734375">
        <ele>1845.199951171875</ele>
        <time>2026-09-01T09:11:27.000Z</time>
        <extensions>
          <ns3:TrackPointExtension>
            <ns3:hr>165</ns3:hr>
            <ns3:cad>52</ns3:cad>
          </ns3:TrackPointExtension>
        </extensions>
      </trkpt>
      <trkpt lat="47.55246411077678203582763671875" lon="11.0541737638413906097412109375">
        <ele>1844.800048828125</ele>
        <time>2026-09-01T09:11:28.000Z</time>
        <extensions>
          <ns3:TrackPointExtension>
            <ns3:hr>164</ns3:hr>
            <ns3:cad>52</ns3:cad>
          </ns3:TrackPointExtension>
        </extensions>
      </trkpt>
      <trkpt lat="47.5524757616221904754638671875" lon="11.05418005026876926422119140625">
        <ele>1844.5999755859375</ele>
        <time>2026-09-01T09:11:29.000Z</time>
        <extensions>
          <ns3:TrackPointExtension>
            <ns3:hr>163</ns3:hr>
            <ns3:cad>52</ns3:cad>
          </ns3:TrackPointExtension>
        </extensions>
      </trkpt>
      <trkpt lat="47.55248657427728176116943359375" lon="11.054187007248401641845703125">
        <ele>1844.4000244140625</ele>
        <time>2026-09-01T09:11:30.000Z</time>
        <extensions>
          <ns3:TrackPointExtension>
            <ns3:hr>162</ns3:hr>
            <ns3:cad>55</ns3:cad>
          </ns3:TrackPointExtension>
        </extensions>
      </trkpt>
      <trkpt lat="47.55249680019915103912353515625" lon="11.054195724427700042724609375">
        <ele>1844.4000244140625</ele>
        <time>2026-09-01T09:11:31.000Z</time>
        <extensions>
          <ns3:TrackPointExtension>
            <ns3:hr>162</ns3:hr>
            <ns3:cad>55</ns3:cad>
          </ns3:TrackPointExtension>
        </extensions>
      </trkpt>
      <trkpt lat="47.5525076128542423248291015625" lon="11.054205782711505889892578125">
        <ele>1844.5999755859375</ele>
        <time>2026-09-01T09:11:32.000Z</time>
        <extensions>
          <ns3:TrackPointExtension>
            <ns3:hr>162</ns3:hr>
            <ns3:cad>56</ns3:cad>
          </ns3:TrackPointExtension>
        </extensions>
      </trkpt>
      <trkpt lat="47.55251674912869930267333984375" lon="11.0542156733572483062744140625">
        <ele>1845.199951171875</ele>
        <time>2026-09-01T09:11:33.000Z</time>
        <extensions>
          <ns3:TrackPointExtension>
            <ns3:hr>161</ns3:hr>
            <ns3:cad>56</ns3:cad>
          </ns3:TrackPointExtension>
        </extensions>
      </trkpt>
      <trkpt lat="47.5525253824889659881591796875" lon="11.05422162450850009918212890625">
        <ele>1845.4000244140625</ele>
        <time>2026-09-01T09:11:34.000Z</time>
        <extensions>
          <ns3:TrackPointExtension>
            <ns3:hr>161</ns3:hr>
            <ns3:cad>55</ns3:cad>
          </ns3:TrackPointExtension>
        </extensions>
      </trkpt>
      <trkpt lat="47.5525314174592494964599609375" lon="11.05422816239297389984130859375">
        <ele>1845.5999755859375</ele>
        <time>2026-09-01T09:11:35.000Z</time>
        <extensions>
          <ns3:TrackPointExtension>
            <ns3:hr>161</ns3:hr>
            <ns3:cad>53</ns3:cad>
          </ns3:TrackPointExtension>
        </extensions>
      </trkpt>
      <trkpt lat="47.5525354407727718353271484375" lon="11.05423419736325740814208984375">
        <ele>1845.800048828125</ele>
        <time>2026-09-01T09:11:36.000Z</time>
        <extensions>
          <ns3:TrackPointExtension>
            <ns3:hr>161</ns3:hr>
            <ns3:cad>53</ns3:cad>
          </ns3:TrackPointExtension>
        </extensions>
      </trkpt>
      <trkpt lat="47.55253787152469158172607421875" lon="11.05424056760966777801513671875">
        <ele>1846</ele>
        <time>2026-09-01T09:11:37.000Z</time>
        <extensions>
          <ns3:TrackPointExtension>
            <ns3:hr>160</ns3:hr>
            <ns3:cad>53</ns3:cad>
          </ns3:TrackPointExtension>
        </extensions>
      </trkpt>
      <trkpt lat="47.552541978657245635986328125" lon="11.0542465187609195709228515625">
        <ele>1846</ele>
        <time>2026-09-01T09:11:38.000Z</time>
        <extensions>
          <ns3:TrackPointExtension>
            <ns3:hr>160</ns3:hr>
            <ns3:cad>53</ns3:cad>
          </ns3:TrackPointExtension>
        </extensions>
      </trkpt>
      <trkpt lat="47.55255161784589290618896484375" lon="11.0542579181492328643798828125">
        <ele>1846.199951171875</ele>
        <time>2026-09-01T09:11:39.000Z</time>
        <extensions>
          <ns3:TrackPointExtension>
            <ns3:hr>160</ns3:hr>
            <ns3:cad>53</ns3:cad>
          </ns3:TrackPointExtension>
        </extensions>
      </trkpt>
      <trkpt lat="47.55256268195807933807373046875" lon="11.05427359230816364288330078125">
        <ele>1846.4000244140625</ele>
        <time>2026-09-01T09:11:40.000Z</time>
        <extensions>
          <ns3:TrackPointExtension>
            <ns3:hr>159</ns3:hr>
            <ns3:cad>53</ns3:cad>
          </ns3:TrackPointExtension>
        </extensions>
      </trkpt>
      <trkpt lat="47.5525750033557415008544921875" lon="11.05428935028612613677978515625">
        <ele>1846.5999755859375</ele>
        <time>2026-09-01T09:11:41.000Z</time>
        <extensions>
          <ns3:TrackPointExtension>
            <ns3:hr>159</ns3:hr>
            <ns3:cad>49</ns3:cad>
          </ns3:TrackPointExtension>
        </extensions>
      </trkpt>
      <trkpt lat="47.55258598364889621734619140625" lon="11.054303012788295745849609375">
        <ele>1846.800048828125</ele>
        <time>2026-09-01T09:11:42.000Z</time>
        <extensions>
          <ns3:TrackPointExtension>
            <ns3:hr>159</ns3:hr>
            <ns3:cad>49</ns3:cad>
          </ns3:TrackPointExtension>
        </extensions>
      </trkpt>
      <trkpt lat="47.55259436555206775665283203125" lon="11.05431231670081615447998046875">
        <ele>1847.199951171875</ele>
        <time>2026-09-01T09:11:43.000Z</time>
        <extensions>
          <ns3:TrackPointExtension>
            <ns3:hr>158</ns3:hr>
            <ns3:cad>53</ns3:cad>
          </ns3:TrackPointExtension>
        </extensions>
      </trkpt>
      <trkpt lat="47.5526058487594127655029296875" lon="11.05432153679430484771728515625">
        <ele>1847.4000244140625</ele>
        <time>2026-09-01T09:11:44.000Z</time>
        <extensions>
          <ns3:TrackPointExtension>
            <ns3:hr>158</ns3:hr>
            <ns3:cad>53</ns3:cad>
          </ns3:TrackPointExtension>
        </extensions>
      </trkpt>
      <trkpt lat="47.55261716432869434356689453125" lon="11.054331175982952117919921875">
        <ele>1847.800048828125</ele>
        <time>2026-09-01T09:11:45.000Z</time>
        <extensions>
          <ns3:TrackPointExtension>
            <ns3:hr>157</ns3:hr>
            <ns3:cad>53</ns3:cad>
          </ns3:TrackPointExtension>
        </extensions>
      </trkpt>
      <trkpt lat="47.55262638442218303680419921875" lon="11.0543373785912990570068359375">
        <ele>1848</ele>
        <time>2026-09-01T09:11:46.000Z</time>
        <extensions>
          <ns3:TrackPointExtension>
            <ns3:hr>157</ns3:hr>
            <ns3:cad>53</ns3:cad>
          </ns3:TrackPointExtension>
        </extensions>
      </trkpt>
      <trkpt lat="47.5526346825063228607177734375" lon="11.0543454252183437347412109375">
        <ele>1848.199951171875</ele>
        <time>2026-09-01T09:11:47.000Z</time>
        <extensions>
          <ns3:TrackPointExtension>
            <ns3:hr>157</ns3:hr>
            <ns3:cad>53</ns3:cad>
          </ns3:TrackPointExtension>
        </extensions>
      </trkpt>
      <trkpt lat="47.55264264531433582305908203125" lon="11.05435037054121494293212890625">
        <ele>1848.4000244140625</ele>
        <time>2026-09-01T09:11:48.000Z</time>
        <extensions>
          <ns3:TrackPointExtension>
            <ns3:hr>157</ns3:hr>
            <ns3:cad>53</ns3:cad>
          </ns3:TrackPointExtension>
        </extensions>
      </trkpt>
      <trkpt lat="47.552653290331363677978515625" lon="11.05436361394822597503662109375">
        <ele>1848.5999755859375</ele>
        <time>2026-09-01T09:11:49.000Z</time>
        <extensions>
          <ns3:TrackPointExtension>
            <ns3:hr>157</ns3:hr>
            <ns3:cad>52</ns3:cad>
          </ns3:TrackPointExtension>
        </extensions>
      </trkpt>
      <trkpt lat="47.55266360007226467132568359375" lon="11.05437702499330043792724609375">
        <ele>1848.800048828125</ele>
        <time>2026-09-01T09:11:50.000Z</time>
        <extensions>
          <ns3:TrackPointExtension>
            <ns3:hr>157</ns3:hr>
            <ns3:cad>52</ns3:cad>
          </ns3:TrackPointExtension>
        </extensions>
      </trkpt>
      <trkpt lat="47.55267214961349964141845703125" lon="11.0543883405625820159912109375">
        <ele>1849</ele>
        <time>2026-09-01T09:11:51.000Z</time>
        <extensions>
          <ns3:TrackPointExtension>
            <ns3:hr>158</ns3:hr>
            <ns3:cad>52</ns3:cad>
          </ns3:TrackPointExtension>
        </extensions>
      </trkpt>
      <trkpt lat="47.55268220789730548858642578125" lon="11.0544020868837833404541015625">
        <ele>1849.199951171875</ele>
        <time>2026-09-01T09:11:52.000Z</time>
        <extensions>
          <ns3:TrackPointExtension>
            <ns3:hr>158</ns3:hr>
            <ns3:cad>51</ns3:cad>
          </ns3:TrackPointExtension>
        </extensions>
      </trkpt>
      <trkpt lat="47.5526923500001430511474609375" lon="11.05441130697727203369140625">
        <ele>1849.199951171875</ele>
        <time>2026-09-01T09:11:53.000Z</time>
        <extensions>
          <ns3:TrackPointExtension>
            <ns3:hr>158</ns3:hr>
            <ns3:cad>51</ns3:cad>
          </ns3:TrackPointExtension>
        </extensions>
      </trkpt>
      <trkpt lat="47.5527040846645832061767578125" lon="11.05442128144204616546630859375">
        <ele>1849.4000244140625</ele>
        <time>2026-09-01T09:11:54.000Z</time>
        <extensions>
          <ns3:TrackPointExtension>
            <ns3:hr>159</ns3:hr>
            <ns3:cad>51</ns3:cad>
          </ns3:TrackPointExtension>
        </extensions>
      </trkpt>
      <trkpt lat="47.55271405912935733795166015625" lon="11.054427064955234527587890625">
        <ele>1849.4000244140625</ele>
        <time>2026-09-01T09:11:55.000Z</time>
        <extensions>
          <ns3:TrackPointExtension>
            <ns3:hr>158</ns3:hr>
            <ns3:cad>51</ns3:cad>
          </ns3:TrackPointExtension>
        </extensions>
      </trkpt>
      <trkpt lat="47.55272394977509975433349609375" lon="11.0544334352016448974609375">
        <ele>1849.5999755859375</ele>
        <time>2026-09-01T09:11:56.000Z</time>
        <extensions>
          <ns3:TrackPointExtension>
            <ns3:hr>158</ns3:hr>
            <ns3:cad>51</ns3:cad>
          </ns3:TrackPointExtension>
        </extensions>
      </trkpt>
      <trkpt lat="47.5527302362024784088134765625" lon="11.054437793791294097900390625">
        <ele>1849.800048828125</ele>
        <time>2026-09-01T09:11:57.000Z</time>
        <extensions>
          <ns3:TrackPointExtension>
            <ns3:hr>158</ns3:hr>
            <ns3:cad>51</ns3:cad>
          </ns3:TrackPointExtension>
        </extensions>
      </trkpt>
      <trkpt lat="47.5527332536876201629638671875" lon="11.05443955399096012115478515625">
        <ele>1849.800048828125</ele>
        <time>2026-09-01T09:11:58.000Z</time>
        <extensions>
          <ns3:TrackPointExtension>
            <ns3:hr>158</ns3:hr>
            <ns3:cad>50</ns3:cad>
          </ns3:TrackPointExtension>
        </extensions>
      </trkpt>
      <trkpt lat="47.55273635499179363250732421875" lon="11.05444123037159442901611328125">
        <ele>1850</ele>
        <time>2026-09-01T09:11:59.000Z</time>
        <extensions>
          <ns3:TrackPointExtension>
            <ns3:hr>157</ns3:hr>
            <ns3:cad>50</ns3:cad>
          </ns3:TrackPointExtension>
        </extensions>
      </trkpt>
      <trkpt lat="47.5527453236281871795654296875" lon="11.054442822933197021484375">
        <ele>1850.199951171875</ele>
        <time>2026-09-01T09:12:00.000Z</time>
        <extensions>
          <ns3:TrackPointExtension>
            <ns3:hr>157</ns3:hr>
            <ns3:cad>50</ns3:cad>
          </ns3:TrackPointExtension>
        </extensions>
      </trkpt>
      <trkpt lat="47.55275630392134189605712890625" lon="11.05444391258060932159423828125">
        <ele>1850.199951171875</ele>
        <time>2026-09-01T09:12:01.000Z</time>
        <extensions>
          <ns3:TrackPointExtension>
            <ns3:hr>156</ns3:hr>
            <ns3:cad>50</ns3:cad>
          </ns3:TrackPointExtension>
        </extensions>
      </trkpt>
      <trkpt lat="47.552764602005481719970703125" lon="11.0544441640377044677734375">
        <ele>1850.4000244140625</ele>
        <time>2026-09-01T09:12:02.000Z</time>
        <extensions>
          <ns3:TrackPointExtension>
            <ns3:hr>156</ns3:hr>
            <ns3:cad>50</ns3:cad>
          </ns3:TrackPointExtension>
        </extensions>
      </trkpt>
      <trkpt lat="47.55277306772768497467041015625" lon="11.05444307439029216766357421875">
        <ele>1850.4000244140625</ele>
        <time>2026-09-01T09:12:03.000Z</time>
        <extensions>
          <ns3:TrackPointExtension>
            <ns3:hr>156</ns3:hr>
            <ns3:cad>50</ns3:cad>
          </ns3:TrackPointExtension>
        </extensions>
      </trkpt>
      <trkpt lat="47.5527803599834442138671875" lon="11.05444139800965785980224609375">
        <ele>1850.4000244140625</ele>
        <time>2026-09-01T09:12:04.000Z</time>
        <extensions>
          <ns3:TrackPointExtension>
            <ns3:hr>156</ns3:hr>
            <ns3:cad>50</ns3:cad>
          </ns3:TrackPointExtension>
        </extensions>
      </trkpt>
      <trkpt lat="47.55278932861983776092529296875" lon="11.05444357730448246002197265625">
        <ele>1850.4000244140625</ele>
        <time>2026-09-01T09:12:05.000Z</time>
        <extensions>
          <ns3:TrackPointExtension>
            <ns3:hr>156</ns3:hr>
            <ns3:cad>50</ns3:cad>
          </ns3:TrackPointExtension>
        </extensions>
      </trkpt>
      <trkpt lat="47.55279905162751674652099609375" lon="11.0544443316757678985595703125">
        <ele>1850.5999755859375</ele>
        <time>2026-09-01T09:12:06.000Z</time>
        <extensions>
          <ns3:TrackPointExtension>
            <ns3:hr>155</ns3:hr>
            <ns3:cad>49</ns3:cad>
          </ns3:TrackPointExtension>
        </extensions>
      </trkpt>
      <trkpt lat="47.5528056733310222625732421875" lon="11.05444173328578472137451171875">
        <ele>1850.5999755859375</ele>
        <time>2026-09-01T09:12:07.000Z</time>
        <extensions>
          <ns3:TrackPointExtension>
            <ns3:hr>155</ns3:hr>
            <ns3:cad>47</ns3:cad>
          </ns3:TrackPointExtension>
        </extensions>
      </trkpt>
      <trkpt lat="47.55281263031065464019775390625" lon="11.05443938635289669036865234375">
        <ele>1850.800048828125</ele>
        <time>2026-09-01T09:12:08.000Z</time>
        <extensions>
          <ns3:TrackPointExtension>
            <ns3:hr>155</ns3:hr>
            <ns3:cad>47</ns3:cad>
          </ns3:TrackPointExtension>
        </extensions>
      </trkpt>
      <trkpt lat="47.5528231076896190643310546875" lon="11.0544379614293575286865234375">
        <ele>1851</ele>
        <time>2026-09-01T09:12:09.000Z</time>
        <extensions>
          <ns3:TrackPointExtension>
            <ns3:hr>155</ns3:hr>
            <ns3:cad>47</ns3:cad>
          </ns3:TrackPointExtension>
        </extensions>
      </trkpt>
      <trkpt lat="47.55283157341182231903076171875" lon="11.05443938635289669036865234375">
        <ele>1851.199951171875</ele>
        <time>2026-09-01T09:12:10.000Z</time>
        <extensions>
          <ns3:TrackPointExtension>
            <ns3:hr>155</ns3:hr>
            <ns3:cad>47</ns3:cad>
          </ns3:TrackPointExtension>
        </extensions>
      </trkpt>
      <trkpt lat="47.5528393685817718505859375" lon="11.05444139800965785980224609375">
        <ele>1851.4000244140625</ele>
        <time>2026-09-01T09:12:11.000Z</time>
        <extensions>
          <ns3:TrackPointExtension>
            <ns3:hr>156</ns3:hr>
            <ns3:cad>47</ns3:cad>
          </ns3:TrackPointExtension>
        </extensions>
      </trkpt>
      <trkpt lat="47.55284414626657962799072265625" lon="11.05444340966641902923583984375">
        <ele>1851.5999755859375</ele>
        <time>2026-09-01T09:12:12.000Z</time>
        <extensions>
          <ns3:TrackPointExtension>
            <ns3:hr>155</ns3:hr>
            <ns3:cad>47</ns3:cad>
          </ns3:TrackPointExtension>
        </extensions>
      </trkpt>
      <trkpt lat="47.552849762141704559326171875" lon="11.0544466786086559295654296875">
        <ele>1851.800048828125</ele>
        <time>2026-09-01T09:12:13.000Z</time>
        <extensions>
          <ns3:TrackPointExtension>
            <ns3:hr>154</ns3:hr>
            <ns3:cad>47</ns3:cad>
          </ns3:TrackPointExtension>
        </extensions>
      </trkpt>
      <trkpt lat="47.55285101942718029022216796875" lon="11.05444910936057567596435546875">
        <ele>1852</ele>
        <time>2026-09-01T09:12:14.000Z</time>
        <extensions>
          <ns3:TrackPointExtension>
            <ns3:hr>154</ns3:hr>
            <ns3:cad>47</ns3:cad>
          </ns3:TrackPointExtension>
        </extensions>
      </trkpt>
      <trkpt lat="47.55285168997943401336669921875" lon="11.0544564016163349151611328125">
        <ele>1852.199951171875</ele>
        <time>2026-09-01T09:12:15.000Z</time>
        <extensions>
          <ns3:TrackPointExtension>
            <ns3:hr>154</ns3:hr>
            <ns3:cad>47</ns3:cad>
          </ns3:TrackPointExtension>
        </extensions>
      </trkpt>
      <trkpt lat="47.5528516061604022979736328125" lon="11.0544600896537303924560546875">
        <ele>1852.4000244140625</ele>
        <time>2026-09-01T09:12:16.000Z</time>
        <extensions>
          <ns3:TrackPointExtension>
            <ns3:hr>153</ns3:hr>
            <ns3:cad>47</ns3:cad>
          </ns3:TrackPointExtension>
        </extensions>
      </trkpt>
      <trkpt lat="47.5528506003320217132568359375" lon="11.054469309747219085693359375">
        <ele>1852.4000244140625</ele>
        <time>2026-09-01T09:12:17.000Z</time>
        <extensions>
          <ns3:TrackPointExtension>
            <ns3:hr>153</ns3:hr>
            <ns3:cad>47</ns3:cad>
          </ns3:TrackPointExtension>
        </extensions>
      </trkpt>
      <trkpt lat="47.5528546236455440521240234375" lon="11.0544771887362003326416015625">
        <ele>1852.5999755859375</ele>
        <time>2026-09-01T09:12:18.000Z</time>
        <extensions>
          <ns3:TrackPointExtension>
            <ns3:hr>152</ns3:hr>
            <ns3:cad>47</ns3:cad>
          </ns3:TrackPointExtension>
        </extensions>
      </trkpt>
      <trkpt lat="47.552859485149383544921875" lon="11.05448774993419647216796875">
        <ele>1852.800048828125</ele>
        <time>2026-09-01T09:12:19.000Z</time>
        <extensions>
          <ns3:TrackPointExtension>
            <ns3:hr>152</ns3:hr>
            <ns3:cad>47</ns3:cad>
          </ns3:TrackPointExtension>
        </extensions>
      </trkpt>
      <trkpt lat="47.55286443047225475311279296875" lon="11.0545009933412075042724609375">
        <ele>1853</ele>
        <time>2026-09-01T09:12:20.000Z</time>
        <extensions>
          <ns3:TrackPointExtension>
            <ns3:hr>152</ns3:hr>
            <ns3:cad>47</ns3:cad>
          </ns3:TrackPointExtension>
        </extensions>
      </trkpt>
      <trkpt lat="47.552869878709316253662109375" lon="11.05451063252985477447509765625">
        <ele>1853.199951171875</ele>
        <time>2026-09-01T09:12:21.000Z</time>
        <extensions>
          <ns3:TrackPointExtension>
            <ns3:hr>152</ns3:hr>
            <ns3:cad>47</ns3:cad>
          </ns3:TrackPointExtension>
        </extensions>
      </trkpt>
      <trkpt lat="47.55287650041282176971435546875" lon="11.05452085845172405242919921875">
        <ele>1853.4000244140625</ele>
        <time>2026-09-01T09:12:22.000Z</time>
        <extensions>
          <ns3:TrackPointExtension>
            <ns3:hr>152</ns3:hr>
            <ns3:cad>46</ns3:cad>
          </ns3:TrackPointExtension>
        </extensions>
      </trkpt>
      <trkpt lat="47.5528849661350250244140625" lon="11.05453644879162311553955078125">
        <ele>1853.5999755859375</ele>
        <time>2026-09-01T09:12:23.000Z</time>
        <extensions>
          <ns3:TrackPointExtension>
            <ns3:hr>152</ns3:hr>
            <ns3:cad>47</ns3:cad>
          </ns3:TrackPointExtension>
        </extensions>
      </trkpt>
      <trkpt lat="47.55289234220981597900390625" lon="11.05454768054187297821044921875">
        <ele>1854</ele>
        <time>2026-09-01T09:12:24.000Z</time>
        <extensions>
          <ns3:TrackPointExtension>
            <ns3:hr>152</ns3:hr>
            <ns3:cad>47</ns3:cad>
          </ns3:TrackPointExtension>
        </extensions>
      </trkpt>
      <trkpt lat="47.55289527587592601776123046875" lon="11.05456075631082057952880859375">
        <ele>1854.5999755859375</ele>
        <time>2026-09-01T09:12:25.000Z</time>
        <extensions>
          <ns3:TrackPointExtension>
            <ns3:hr>152</ns3:hr>
            <ns3:cad>47</ns3:cad>
          </ns3:TrackPointExtension>
        </extensions>
      </trkpt>
      <trkpt lat="47.55289745517075061798095703125" lon="11.0545734129846096038818359375">
        <ele>1855</ele>
        <time>2026-09-01T09:12:26.000Z</time>
        <extensions>
          <ns3:TrackPointExtension>
            <ns3:hr>153</ns3:hr>
            <ns3:cad>47</ns3:cad>
          </ns3:TrackPointExtension>
        </extensions>
      </trkpt>
      <trkpt lat="47.552902400493621826171875" lon="11.05459143407642841339111328125">
        <ele>1855.5999755859375</ele>
        <time>2026-09-01T09:12:27.000Z</time>
        <extensions>
          <ns3:TrackPointExtension>
            <ns3:hr>153</ns3:hr>
            <ns3:cad>47</ns3:cad>
          </ns3:TrackPointExtension>
        </extensions>
      </trkpt>
      <trkpt lat="47.55291203968226909637451171875" lon="11.05460769496858119964599609375">
        <ele>1856</ele>
        <time>2026-09-01T09:12:28.000Z</time>
        <extensions>
          <ns3:TrackPointExtension>
            <ns3:hr>153</ns3:hr>
            <ns3:cad>47</ns3:cad>
          </ns3:TrackPointExtension>
        </extensions>
      </trkpt>
      <trkpt lat="47.552922852337360382080078125" lon="11.054624207317829132080078125">
        <ele>1856.199951171875</ele>
        <time>2026-09-01T09:12:29.000Z</time>
        <extensions>
          <ns3:TrackPointExtension>
            <ns3:hr>153</ns3:hr>
            <ns3:cad>47</ns3:cad>
          </ns3:TrackPointExtension>
        </extensions>
      </trkpt>
      <trkpt lat="47.55292444489896297454833984375" lon="11.05463049374520778656005859375">
        <ele>1856.5999755859375</ele>
        <time>2026-09-01T09:12:30.000Z</time>
        <extensions>
          <ns3:TrackPointExtension>
            <ns3:hr>153</ns3:hr>
            <ns3:cad>47</ns3:cad>
          </ns3:TrackPointExtension>
        </extensions>
      </trkpt>
      <trkpt lat="47.55293768830597400665283203125" lon="11.05464021675288677215576171875">
        <ele>1857</ele>
        <time>2026-09-01T09:12:31.000Z</time>
        <extensions>
          <ns3:TrackPointExtension>
            <ns3:hr>153</ns3:hr>
            <ns3:cad>47</ns3:cad>
          </ns3:TrackPointExtension>
        </extensions>
      </trkpt>
      <trkpt lat="47.55294824950397014617919921875" lon="11.0546381212770938873291015625">
        <ele>1857.4000244140625</ele>
        <time>2026-09-01T09:12:32.000Z</time>
        <extensions>
          <ns3:TrackPointExtension>
            <ns3:hr>153</ns3:hr>
            <ns3:cad>47</ns3:cad>
          </ns3:TrackPointExtension>
        </extensions>
      </trkpt>
      <trkpt lat="47.55295277573168277740478515625" lon="11.05464273132383823394775390625">
        <ele>1858</ele>
        <time>2026-09-01T09:12:33.000Z</time>
        <extensions>
          <ns3:TrackPointExtension>
            <ns3:hr>153</ns3:hr>
            <ns3:cad>44</ns3:cad>
          </ns3:TrackPointExtension>
        </extensions>
      </trkpt>
      <trkpt lat="47.5529642589390277862548828125" lon="11.054657064378261566162109375">
        <ele>1858.4000244140625</ele>
        <time>2026-09-01T09:12:34.000Z</time>
        <extensions>
          <ns3:TrackPointExtension>
            <ns3:hr>153</ns3:hr>
            <ns3:cad>44</ns3:cad>
          </ns3:TrackPointExtension>
        </extensions>
      </trkpt>
      <trkpt lat="47.5529746524989604949951171875" lon="11.0546595789492130279541015625">
        <ele>1859</ele>
        <time>2026-09-01T09:12:35.000Z</time>
        <extensions>
          <ns3:TrackPointExtension>
            <ns3:hr>152</ns3:hr>
            <ns3:cad>44</ns3:cad>
          </ns3:TrackPointExtension>
        </extensions>
      </trkpt>
      <trkpt lat="47.55298580043017864227294921875" lon="11.05467257089912891387939453125">
        <ele>1859.4000244140625</ele>
        <time>2026-09-01T09:12:36.000Z</time>
        <extensions>
          <ns3:TrackPointExtension>
            <ns3:hr>152</ns3:hr>
            <ns3:cad>0</ns3:cad>
          </ns3:TrackPointExtension>
        </extensions>
      </trkpt>
      <trkpt lat="47.552990578114986419677734375" lon="11.05467491783201694488525390625">
        <ele>1859.800048828125</ele>
        <time>2026-09-01T09:12:37.000Z</time>
        <extensions>
          <ns3:TrackPointExtension>
            <ns3:hr>152</ns3:hr>
            <ns3:cad>0</ns3:cad>
          </ns3:TrackPointExtension>
        </extensions>
      </trkpt>
      <trkpt lat="47.5529957748949527740478515625" lon="11.0546699725091457366943359375">
        <ele>1860.199951171875</ele>
        <time>2026-09-01T09:12:38.000Z</time>
        <extensions>
          <ns3:TrackPointExtension>
            <ns3:hr>153</ns3:hr>
            <ns3:cad>0</ns3:cad>
          </ns3:TrackPointExtension>
        </extensions>
      </trkpt>
      <trkpt lat="47.55300591699779033660888671875" lon="11.05467122979462146759033203125">
        <ele>1860.5999755859375</ele>
        <time>2026-09-01T09:12:39.000Z</time>
        <extensions>
          <ns3:TrackPointExtension>
            <ns3:hr>153</ns3:hr>
            <ns3:cad>0</ns3:cad>
          </ns3:TrackPointExtension>
        </extensions>
      </trkpt>
      <trkpt lat="47.55301614291965961456298828125" lon="11.05467282235622406005859375">
        <ele>1860.800048828125</ele>
        <time>2026-09-01T09:12:40.000Z</time>
        <extensions>
          <ns3:TrackPointExtension>
            <ns3:hr>153</ns3:hr>
            <ns3:cad>0</ns3:cad>
          </ns3:TrackPointExtension>
        </extensions>
      </trkpt>
      <trkpt lat="47.55302553065121173858642578125" lon="11.05467424727976322174072265625">
        <ele>1861.4000244140625</ele>
        <time>2026-09-01T09:12:41.000Z</time>
        <extensions>
          <ns3:TrackPointExtension>
            <ns3:hr>153</ns3:hr>
            <ns3:cad>0</ns3:cad>
          </ns3:TrackPointExtension>
        </extensions>
      </trkpt>
      <trkpt lat="47.55303592421114444732666015625" lon="11.054678522050380706787109375">
        <ele>1862.199951171875</ele>
        <time>2026-09-01T09:12:42.000Z</time>
        <extensions>
          <ns3:TrackPointExtension>
            <ns3:hr>154</ns3:hr>
            <ns3:cad>0</ns3:cad>
          </ns3:TrackPointExtension>
        </extensions>
      </trkpt>
      <trkpt lat="47.5530427135527133941650390625" lon="11.0546827130019664764404296875">
        <ele>1862.800048828125</ele>
        <time>2026-09-01T09:12:43.000Z</time>
        <extensions>
          <ns3:TrackPointExtension>
            <ns3:hr>153</ns3:hr>
            <ns3:cad>52</ns3:cad>
          </ns3:TrackPointExtension>
        </extensions>
      </trkpt>
      <trkpt lat="47.553058303892612457275390625" lon="11.0546954534947872161865234375">
        <ele>1863.199951171875</ele>
        <time>2026-09-01T09:12:44.000Z</time>
        <extensions>
          <ns3:TrackPointExtension>
            <ns3:hr>154</ns3:hr>
            <ns3:cad>52</ns3:cad>
          </ns3:TrackPointExtension>
        </extensions>
      </trkpt>
      <trkpt lat="47.5530715472996234893798828125" lon="11.0547085292637348175048828125">
        <ele>1863.4000244140625</ele>
        <time>2026-09-01T09:12:45.000Z</time>
        <extensions>
          <ns3:TrackPointExtension>
            <ns3:hr>154</ns3:hr>
            <ns3:cad>52</ns3:cad>
          </ns3:TrackPointExtension>
        </extensions>
      </trkpt>
      <trkpt lat="47.553081773221492767333984375" lon="11.0547172464430332183837890625">
        <ele>1863.5999755859375</ele>
        <time>2026-09-01T09:12:46.000Z</time>
        <extensions>
          <ns3:TrackPointExtension>
            <ns3:hr>155</ns3:hr>
            <ns3:cad>52</ns3:cad>
          </ns3:TrackPointExtension>
        </extensions>
      </trkpt>
      <trkpt lat="47.553092502057552337646484375" lon="11.0547236166894435882568359375">
        <ele>1863.800048828125</ele>
        <time>2026-09-01T09:12:47.000Z</time>
        <extensions>
          <ns3:TrackPointExtension>
            <ns3:hr>156</ns3:hr>
            <ns3:cad>52</ns3:cad>
          </ns3:TrackPointExtension>
        </extensions>
      </trkpt>
      <trkpt lat="47.553102560341358184814453125" lon="11.05472906492650508880615234375">
        <ele>1864.199951171875</ele>
        <time>2026-09-01T09:12:48.000Z</time>
        <extensions>
          <ns3:TrackPointExtension>
            <ns3:hr>157</ns3:hr>
            <ns3:cad>52</ns3:cad>
          </ns3:TrackPointExtension>
        </extensions>
      </trkpt>
      <trkpt lat="47.5531102716922760009765625" lon="11.05473275296390056610107421875">
        <ele>1864.800048828125</ele>
        <time>2026-09-01T09:12:49.000Z</time>
        <extensions>
          <ns3:TrackPointExtension>
            <ns3:hr>158</ns3:hr>
            <ns3:cad>52</ns3:cad>
          </ns3:TrackPointExtension>
        </extensions>
      </trkpt>
      <trkpt lat="47.553115971386432647705078125" lon="11.0547338426113128662109375">
        <ele>1865.4000244140625</ele>
        <time>2026-09-01T09:12:50.000Z</time>
        <extensions>
          <ns3:TrackPointExtension>
            <ns3:hr>159</ns3:hr>
            <ns3:cad>52</ns3:cad>
          </ns3:TrackPointExtension>
        </extensions>
      </trkpt>
      <trkpt lat="47.55312141962349414825439453125" lon="11.05473074130713939666748046875">
        <ele>1866</ele>
        <time>2026-09-01T09:12:51.000Z</time>
        <extensions>
          <ns3:TrackPointExtension>
            <ns3:hr>160</ns3:hr>
            <ns3:cad>51</ns3:cad>
          </ns3:TrackPointExtension>
        </extensions>
      </trkpt>
      <trkpt lat="47.55313248373568058013916015625" lon="11.0547289811074733734130859375">
        <ele>1866.5999755859375</ele>
        <time>2026-09-01T09:12:52.000Z</time>
        <extensions>
          <ns3:TrackPointExtension>
            <ns3:hr>160</ns3:hr>
            <ns3:cad>51</ns3:cad>
          </ns3:TrackPointExtension>
        </extensions>
      </trkpt>
      <trkpt lat="47.5531478226184844970703125" lon="11.05473191477358341217041015625">
        <ele>1867.199951171875</ele>
        <time>2026-09-01T09:12:53.000Z</time>
        <extensions>
          <ns3:TrackPointExtension>
            <ns3:hr>160</ns3:hr>
            <ns3:cad>51</ns3:cad>
          </ns3:TrackPointExtension>
        </extensions>
      </trkpt>
      <trkpt lat="47.5531560368835926055908203125" lon="11.05473090894520282745361328125">
        <ele>1867.800048828125</ele>
        <time>2026-09-01T09:12:54.000Z</time>
        <extensions>
          <ns3:TrackPointExtension>
            <ns3:hr>159</ns3:hr>
            <ns3:cad>50</ns3:cad>
          </ns3:TrackPointExtension>
        </extensions>
      </trkpt>
      <trkpt lat="47.553164921700954437255859375" lon="11.0547306574881076812744140625">
        <ele>1868.4000244140625</ele>
        <time>2026-09-01T09:12:55.000Z</time>
        <extensions>
          <ns3:TrackPointExtension>
            <ns3:hr>159</ns3:hr>
            <ns3:cad>0</ns3:cad>
          </ns3:TrackPointExtension>
        </extensions>
      </trkpt>
      <trkpt lat="47.55317271687090396881103515625" lon="11.05473183095455169677734375">
        <ele>1868.5999755859375</ele>
        <time>2026-09-01T09:12:56.000Z</time>
        <extensions>
          <ns3:TrackPointExtension>
            <ns3:hr>159</ns3:hr>
            <ns3:cad>0</ns3:cad>
          </ns3:TrackPointExtension>
        </extensions>
      </trkpt>
      <trkpt lat="47.55317824892699718475341796875" lon="11.05473191477358341217041015625">
        <ele>1869</ele>
        <time>2026-09-01T09:12:57.000Z</time>
        <extensions>
          <ns3:TrackPointExtension>
            <ns3:hr>159</ns3:hr>
            <ns3:cad>0</ns3:cad>
          </ns3:TrackPointExtension>
        </extensions>
      </trkpt>
      <trkpt lat="47.5531929172575473785400390625" lon="11.05473929084837436676025390625">
        <ele>1869.4000244140625</ele>
        <time>2026-09-01T09:12:58.000Z</time>
        <extensions>
          <ns3:TrackPointExtension>
            <ns3:hr>159</ns3:hr>
            <ns3:cad>0</ns3:cad>
          </ns3:TrackPointExtension>
        </extensions>
      </trkpt>
      <trkpt lat="47.5532012991607189178466796875" lon="11.054746247828006744384765625">
        <ele>1869.800048828125</ele>
        <time>2026-09-01T09:12:59.000Z</time>
        <extensions>
          <ns3:TrackPointExtension>
            <ns3:hr>159</ns3:hr>
            <ns3:cad>0</ns3:cad>
          </ns3:TrackPointExtension>
        </extensions>
      </trkpt>
      <trkpt lat="47.55322116427123546600341796875" lon="11.054764688014984130859375">
        <ele>1870</ele>
        <time>2026-09-01T09:13:00.000Z</time>
        <extensions>
          <ns3:TrackPointExtension>
            <ns3:hr>158</ns3:hr>
            <ns3:cad>0</ns3:cad>
          </ns3:TrackPointExtension>
        </extensions>
      </trkpt>
      <trkpt lat="47.55324346013367176055908203125" lon="11.0547873191535472869873046875">
        <ele>1870.199951171875</ele>
        <time>2026-09-01T09:13:01.000Z</time>
        <extensions>
          <ns3:TrackPointExtension>
            <ns3:hr>158</ns3:hr>
            <ns3:cad>61</ns3:cad>
          </ns3:TrackPointExtension>
        </extensions>
      </trkpt>
      <trkpt lat="47.5532559491693973541259765625" lon="11.054807268083095550537109375">
        <ele>1870.4000244140625</ele>
        <time>2026-09-01T09:13:02.000Z</time>
        <extensions>
          <ns3:TrackPointExtension>
            <ns3:hr>157</ns3:hr>
            <ns3:cad>61</ns3:cad>
          </ns3:TrackPointExtension>
        </extensions>
      </trkpt>
      <trkpt lat="47.55326592363417148590087890625" lon="11.0548282228410243988037109375">
        <ele>1870.800048828125</ele>
        <time>2026-09-01T09:13:03.000Z</time>
        <extensions>
          <ns3:TrackPointExtension>
            <ns3:hr>157</ns3:hr>
            <ns3:cad>61</ns3:cad>
          </ns3:TrackPointExtension>
        </extensions>
      </trkpt>
      <trkpt lat="47.5532814301550388336181640625" lon="11.05485999025404453277587890625">
        <ele>1871</ele>
        <time>2026-09-01T09:13:04.000Z</time>
        <extensions>
          <ns3:TrackPointExtension>
            <ns3:hr>157</ns3:hr>
            <ns3:cad>65</ns3:cad>
          </ns3:TrackPointExtension>
        </extensions>
      </trkpt>
      <trkpt lat="47.5532899796962738037109375" lon="11.054885387420654296875">
        <ele>1871.4000244140625</ele>
        <time>2026-09-01T09:13:05.000Z</time>
        <extensions>
          <ns3:TrackPointExtension>
            <ns3:hr>157</ns3:hr>
            <ns3:cad>70</ns3:cad>
          </ns3:TrackPointExtension>
        </extensions>
      </trkpt>
      <trkpt lat="47.5532980263233184814453125" lon="11.0549066774547100067138671875">
        <ele>1872</ele>
        <time>2026-09-01T09:13:06.000Z</time>
        <extensions>
          <ns3:TrackPointExtension>
            <ns3:hr>158</ns3:hr>
            <ns3:cad>71</ns3:cad>
          </ns3:TrackPointExtension>
        </extensions>
      </trkpt>
      <trkpt lat="47.55329777486622333526611328125" lon="11.05492453090846538543701171875">
        <ele>1872.4000244140625</ele>
        <time>2026-09-01T09:13:07.000Z</time>
        <extensions>
          <ns3:TrackPointExtension>
            <ns3:hr>158</ns3:hr>
            <ns3:cad>71</ns3:cad>
          </ns3:TrackPointExtension>
        </extensions>
      </trkpt>
      <trkpt lat="47.55329995416104793548583984375" lon="11.054940707981586456298828125">
        <ele>1873</ele>
        <time>2026-09-01T09:13:08.000Z</time>
        <extensions>
          <ns3:TrackPointExtension>
            <ns3:hr>158</ns3:hr>
            <ns3:cad>71</ns3:cad>
          </ns3:TrackPointExtension>
        </extensions>
      </trkpt>
      <trkpt lat="47.5533042289316654205322265625" lon="11.05495805852115154266357421875">
        <ele>1873.5999755859375</ele>
        <time>2026-09-01T09:13:09.000Z</time>
        <extensions>
          <ns3:TrackPointExtension>
            <ns3:hr>158</ns3:hr>
            <ns3:cad>65</ns3:cad>
          </ns3:TrackPointExtension>
        </extensions>
      </trkpt>
      <trkpt lat="47.55330632440745830535888671875" lon="11.054970212280750274658203125">
        <ele>1874</ele>
        <time>2026-09-01T09:13:10.000Z</time>
        <extensions>
          <ns3:TrackPointExtension>
            <ns3:hr>159</ns3:hr>
            <ns3:cad>63</ns3:cad>
          </ns3:TrackPointExtension>
        </extensions>
      </trkpt>
      <trkpt lat="47.55331420339643955230712890625" lon="11.0549878142774105072021484375">
        <ele>1874.4000244140625</ele>
        <time>2026-09-01T09:13:11.000Z</time>
        <extensions>
          <ns3:TrackPointExtension>
            <ns3:hr>159</ns3:hr>
            <ns3:cad>0</ns3:cad>
          </ns3:TrackPointExtension>
        </extensions>
      </trkpt>
      <trkpt lat="47.55332241766154766082763671875" lon="11.0550022311508655548095703125">
        <ele>1874.800048828125</ele>
        <time>2026-09-01T09:13:12.000Z</time>
        <extensions>
          <ns3:TrackPointExtension>
            <ns3:hr>159</ns3:hr>
            <ns3:cad>0</ns3:cad>
          </ns3:TrackPointExtension>
        </extensions>
      </trkpt>
      <trkpt lat="47.5533328950405120849609375" lon="11.055019833147525787353515625">
        <ele>1875.199951171875</ele>
        <time>2026-09-01T09:13:13.000Z</time>
        <extensions>
          <ns3:TrackPointExtension>
            <ns3:hr>159</ns3:hr>
            <ns3:cad>52</ns3:cad>
          </ns3:TrackPointExtension>
        </extensions>
      </trkpt>
      <trkpt lat="47.55335007794201374053955078125" lon="11.0550427995622158050537109375">
        <ele>1875.5999755859375</ele>
        <time>2026-09-01T09:13:14.000Z</time>
        <extensions>
          <ns3:TrackPointExtension>
            <ns3:hr>159</ns3:hr>
            <ns3:cad>52</ns3:cad>
          </ns3:TrackPointExtension>
        </extensions>
      </trkpt>
      <trkpt lat="47.5533649139106273651123046875" lon="11.05506551451981067657470703125">
        <ele>1876.199951171875</ele>
        <time>2026-09-01T09:13:15.000Z</time>
        <extensions>
          <ns3:TrackPointExtension>
            <ns3:hr>160</ns3:hr>
            <ns3:cad>0</ns3:cad>
          </ns3:TrackPointExtension>
        </extensions>
      </trkpt>
      <trkpt lat="47.55338544957339763641357421875" lon="11.055100299417972564697265625">
        <ele>1876.800048828125</ele>
        <time>2026-09-01T09:13:16.000Z</time>
        <extensions>
          <ns3:TrackPointExtension>
            <ns3:hr>160</ns3:hr>
            <ns3:cad>0</ns3:cad>
          </ns3:TrackPointExtension>
        </extensions>
      </trkpt>
      <trkpt lat="47.553406320512294769287109375" lon="11.05512334965169429779052734375">
        <ele>1877.5999755859375</ele>
        <time>2026-09-01T09:13:17.000Z</time>
        <extensions>
          <ns3:TrackPointExtension>
            <ns3:hr>160</ns3:hr>
            <ns3:cad>0</ns3:cad>
          </ns3:TrackPointExtension>
        </extensions>
      </trkpt>
      <trkpt lat="47.55342073738574981689453125" lon="11.0551336593925952911376953125">
        <ele>1878.5999755859375</ele>
        <time>2026-09-01T09:13:18.000Z</time>
        <extensions>
          <ns3:TrackPointExtension>
            <ns3:hr>160</ns3:hr>
            <ns3:cad>79</ns3:cad>
          </ns3:TrackPointExtension>
        </extensions>
      </trkpt>
      <trkpt lat="47.55343205295503139495849609375" lon="11.05515100993216037750244140625">
        <ele>1879.199951171875</ele>
        <time>2026-09-01T09:13:19.000Z</time>
        <extensions>
          <ns3:TrackPointExtension>
            <ns3:hr>161</ns3:hr>
            <ns3:cad>79</ns3:cad>
          </ns3:TrackPointExtension>
        </extensions>
      </trkpt>
      <trkpt lat="47.55343322642147541046142578125" lon="11.0551527701318264007568359375">
        <ele>1879.4000244140625</ele>
        <time>2026-09-01T09:13:20.000Z</time>
        <extensions>
          <ns3:TrackPointExtension>
            <ns3:hr>162</ns3:hr>
            <ns3:cad>79</ns3:cad>
          </ns3:TrackPointExtension>
        </extensions>
      </trkpt>
      <trkpt lat="47.5534239225089550018310546875" lon="11.05514212511479854583740234375">
        <ele>1879.800048828125</ele>
        <time>2026-09-01T09:13:21.000Z</time>
        <extensions>
          <ns3:TrackPointExtension>
            <ns3:hr>162</ns3:hr>
            <ns3:cad>79</ns3:cad>
          </ns3:TrackPointExtension>
        </extensions>
      </trkpt>
      <trkpt lat="47.5533830188214778900146484375" lon="11.0551048256456851959228515625">
        <ele>1880</ele>
        <time>2026-09-01T09:13:22.000Z</time>
        <extensions>
          <ns3:TrackPointExtension>
            <ns3:hr>163</ns3:hr>
            <ns3:cad>80</ns3:cad>
          </ns3:TrackPointExtension>
        </extensions>
      </trkpt>
      <trkpt lat="47.553363740444183349609375" lon="11.05505771934986114501953125">
        <ele>1879.800048828125</ele>
        <time>2026-09-01T09:13:23.000Z</time>
        <extensions>
          <ns3:TrackPointExtension>
            <ns3:hr>163</ns3:hr>
            <ns3:cad>80</ns3:cad>
          </ns3:TrackPointExtension>
        </extensions>
      </trkpt>
      <trkpt lat="47.553345300257205963134765625" lon="11.05501622892916202545166015625">
        <ele>1879.5999755859375</ele>
        <time>2026-09-01T09:13:24.000Z</time>
        <extensions>
          <ns3:TrackPointExtension>
            <ns3:hr>163</ns3:hr>
            <ns3:cad>68</ns3:cad>
          </ns3:TrackPointExtension>
        </extensions>
      </trkpt>
      <trkpt lat="47.55332459695637226104736328125" lon="11.05495168827474117279052734375">
        <ele>1877</ele>
        <time>2026-09-01T09:13:25.000Z</time>
        <extensions>
          <ns3:TrackPointExtension>
            <ns3:hr>164</ns3:hr>
            <ns3:cad>0</ns3:cad>
          </ns3:TrackPointExtension>
        </extensions>
      </trkpt>
      <trkpt lat="47.5533102639019489288330078125" lon="11.05491028167307376861572265625">
        <ele>1876.5999755859375</ele>
        <time>2026-09-01T09:13:26.000Z</time>
        <extensions>
          <ns3:TrackPointExtension>
            <ns3:hr>164</ns3:hr>
            <ns3:cad>0</ns3:cad>
          </ns3:TrackPointExtension>
        </extensions>
      </trkpt>
      <trkpt lat="47.55328872241079807281494140625" lon="11.0548438131809234619140625">
        <ele>1875.800048828125</ele>
        <time>2026-09-01T09:13:27.000Z</time>
        <extensions>
          <ns3:TrackPointExtension>
            <ns3:hr>164</ns3:hr>
            <ns3:cad>0</ns3:cad>
          </ns3:TrackPointExtension>
        </extensions>
      </trkpt>
      <trkpt lat="47.55326609127223491668701171875" lon="11.05481020174920558929443359375">
        <ele>1875.5999755859375</ele>
        <time>2026-09-01T09:13:28.000Z</time>
        <extensions>
          <ns3:TrackPointExtension>
            <ns3:hr>166</ns3:hr>
            <ns3:cad>0</ns3:cad>
          </ns3:TrackPointExtension>
        </extensions>
      </trkpt>
      <trkpt lat="47.55322921089828014373779296875" lon="11.05477902106940746307373046875">
        <ele>1875.4000244140625</ele>
        <time>2026-09-01T09:13:29.000Z</time>
        <extensions>
          <ns3:TrackPointExtension>
            <ns3:hr>167</ns3:hr>
            <ns3:cad>0</ns3:cad>
          </ns3:TrackPointExtension>
        </extensions>
      </trkpt>
      <trkpt lat="47.553189732134342193603515625" lon="11.05476929806172847747802734375">
        <ele>1875.199951171875</ele>
        <time>2026-09-01T09:13:30.000Z</time>
        <extensions>
          <ns3:TrackPointExtension>
            <ns3:hr>169</ns3:hr>
            <ns3:cad>0</ns3:cad>
          </ns3:TrackPointExtension>
        </extensions>
      </trkpt>
      <trkpt lat="47.553158886730670928955078125" lon="11.054756306111812591552734375">
        <ele>1875.199951171875</ele>
        <time>2026-09-01T09:13:31.000Z</time>
        <extensions>
          <ns3:TrackPointExtension>
            <ns3:hr>170</ns3:hr>
            <ns3:cad>0</ns3:cad>
          </ns3:TrackPointExtension>
        </extensions>
      </trkpt>
      <trkpt lat="47.55312502384185791015625" lon="11.05474314652383327484130859375">
        <ele>1874.800048828125</ele>
        <time>2026-09-01T09:13:32.000Z</time>
        <extensions>
          <ns3:TrackPointExtension>
            <ns3:hr>170</ns3:hr>
            <ns3:cad>0</ns3:cad>
          </ns3:TrackPointExtension>
        </extensions>
      </trkpt>
      <trkpt lat="47.55308889783918857574462890625" lon="11.05472772382199764251708984375">
        <ele>1874.4000244140625</ele>
        <time>2026-09-01T09:13:33.000Z</time>
        <extensions>
          <ns3:TrackPointExtension>
            <ns3:hr>171</ns3:hr>
            <ns3:cad>0</ns3:cad>
          </ns3:TrackPointExtension>
        </extensions>
      </trkpt>
      <trkpt lat="47.5530725531280040740966796875" lon="11.0547098703682422637939453125">
        <ele>1874.199951171875</ele>
        <time>2026-09-01T09:13:34.000Z</time>
        <extensions>
          <ns3:TrackPointExtension>
            <ns3:hr>171</ns3:hr>
            <ns3:cad>0</ns3:cad>
          </ns3:TrackPointExtension>
        </extensions>
      </trkpt>
      <trkpt lat="47.5530440546572208404541015625" lon="11.05467760004103183746337890625">
        <ele>1873.199951171875</ele>
        <time>2026-09-01T09:13:35.000Z</time>
        <extensions>
          <ns3:TrackPointExtension>
            <ns3:hr>171</ns3:hr>
            <ns3:cad>90</ns3:cad>
          </ns3:TrackPointExtension>
        </extensions>
      </trkpt>
      <trkpt lat="47.553017400205135345458984375" lon="11.0546605847775936126708984375">
        <ele>1872.199951171875</ele>
        <time>2026-09-01T09:13:36.000Z</time>
        <extensions>
          <ns3:TrackPointExtension>
            <ns3:hr>171</ns3:hr>
            <ns3:cad>90</ns3:cad>
          </ns3:TrackPointExtension>
        </extensions>
      </trkpt>
      <trkpt lat="47.55298814736306667327880859375" lon="11.05463929474353790283203125">
        <ele>1871.4000244140625</ele>
        <time>2026-09-01T09:13:37.000Z</time>
        <extensions>
          <ns3:TrackPointExtension>
            <ns3:hr>170</ns3:hr>
            <ns3:cad>90</ns3:cad>
          </ns3:TrackPointExtension>
        </extensions>
      </trkpt>
      <trkpt lat="47.55296870134770870208740234375" lon="11.054619848728179931640625">
        <ele>1871</ele>
        <time>2026-09-01T09:13:38.000Z</time>
        <extensions>
          <ns3:TrackPointExtension>
            <ns3:hr>170</ns3:hr>
            <ns3:cad>90</ns3:cad>
          </ns3:TrackPointExtension>
        </extensions>
      </trkpt>
      <trkpt lat="47.55294866859912872314453125" lon="11.05459964834153652191162109375">
        <ele>1870.5999755859375</ele>
        <time>2026-09-01T09:13:39.000Z</time>
        <extensions>
          <ns3:TrackPointExtension>
            <ns3:hr>169</ns3:hr>
            <ns3:cad>90</ns3:cad>
          </ns3:TrackPointExtension>
        </extensions>
      </trkpt>
      <trkpt lat="47.55292360670864582061767578125" lon="11.05457383207976818084716796875">
        <ele>1870.199951171875</ele>
        <time>2026-09-01T09:13:40.000Z</time>
        <extensions>
          <ns3:TrackPointExtension>
            <ns3:hr>169</ns3:hr>
            <ns3:cad>90</ns3:cad>
          </ns3:TrackPointExtension>
        </extensions>
      </trkpt>
      <trkpt lat="47.55290575325489044189453125" lon="11.05455991812050342559814453125">
        <ele>1869.800048828125</ele>
        <time>2026-09-01T09:13:41.000Z</time>
        <extensions>
          <ns3:TrackPointExtension>
            <ns3:hr>168</ns3:hr>
            <ns3:cad>90</ns3:cad>
          </ns3:TrackPointExtension>
        </extensions>
      </trkpt>
      <trkpt lat="47.5528851337730884552001953125" lon="11.05453460477292537689208984375">
        <ele>1868.800048828125</ele>
        <time>2026-09-01T09:13:42.000Z</time>
        <extensions>
          <ns3:TrackPointExtension>
            <ns3:hr>167</ns3:hr>
            <ns3:cad>97</ns3:cad>
          </ns3:TrackPointExtension>
        </extensions>
      </trkpt>
      <trkpt lat="47.552861832082271575927734375" lon="11.0545058548450469970703125">
        <ele>1867.5999755859375</ele>
        <time>2026-09-01T09:13:43.000Z</time>
        <extensions>
          <ns3:TrackPointExtension>
            <ns3:hr>167</ns3:hr>
            <ns3:cad>97</ns3:cad>
          </ns3:TrackPointExtension>
        </extensions>
      </trkpt>
      <trkpt lat="47.55284448154270648956298828125" lon="11.05448774993419647216796875">
        <ele>1866.4000244140625</ele>
        <time>2026-09-01T09:13:44.000Z</time>
        <extensions>
          <ns3:TrackPointExtension>
            <ns3:hr>166</ns3:hr>
            <ns3:cad>97</ns3:cad>
          </ns3:TrackPointExtension>
        </extensions>
      </trkpt>
      <trkpt lat="47.5528140552341938018798828125" lon="11.05447760783135890960693359375">
        <ele>1865.5999755859375</ele>
        <time>2026-09-01T09:13:45.000Z</time>
        <extensions>
          <ns3:TrackPointExtension>
            <ns3:hr>167</ns3:hr>
            <ns3:cad>97</ns3:cad>
          </ns3:TrackPointExtension>
        </extensions>
      </trkpt>
      <trkpt lat="47.55279050208628177642822265625" lon="11.05447174049913883209228515625">
        <ele>1865.199951171875</ele>
        <time>2026-09-01T09:13:46.000Z</time>
        <extensions>
          <ns3:TrackPointExtension>
            <ns3:hr>167</ns3:hr>
            <ns3:cad>97</ns3:cad>
          </ns3:TrackPointExtension>
        </extensions>
      </trkpt>
      <trkpt lat="47.552761249244213104248046875" lon="11.05447232723236083984375">
        <ele>1864.4000244140625</ele>
        <time>2026-09-01T09:13:47.000Z</time>
        <extensions>
          <ns3:TrackPointExtension>
            <ns3:hr>167</ns3:hr>
            <ns3:cad>97</ns3:cad>
          </ns3:TrackPointExtension>
        </extensions>
      </trkpt>
      <trkpt lat="47.55273417569696903228759765625" lon="11.05446738190948963165283203125">
        <ele>1864</ele>
        <time>2026-09-01T09:13:48.000Z</time>
        <extensions>
          <ns3:TrackPointExtension>
            <ns3:hr>167</ns3:hr>
            <ns3:cad>97</ns3:cad>
          </ns3:TrackPointExtension>
        </extensions>
      </trkpt>
      <trkpt lat="47.5527111254632472991943359375" lon="11.05444491840898990631103515625">
        <ele>1862.800048828125</ele>
        <time>2026-09-01T09:13:49.000Z</time>
        <extensions>
          <ns3:TrackPointExtension>
            <ns3:hr>167</ns3:hr>
            <ns3:cad>97</ns3:cad>
          </ns3:TrackPointExtension>
        </extensions>
      </trkpt>
      <trkpt lat="47.5526846386492252349853515625" lon="11.0544215328991413116455078125">
        <ele>1862</ele>
        <time>2026-09-01T09:13:50.000Z</time>
        <extensions>
          <ns3:TrackPointExtension>
            <ns3:hr>167</ns3:hr>
            <ns3:cad>97</ns3:cad>
          </ns3:TrackPointExtension>
        </extensions>
      </trkpt>
      <trkpt lat="47.55266510881483554840087890625" lon="11.0543878376483917236328125">
        <ele>1861.5999755859375</ele>
        <time>2026-09-01T09:13:51.000Z</time>
        <extensions>
          <ns3:TrackPointExtension>
            <ns3:hr>166</ns3:hr>
            <ns3:cad>97</ns3:cad>
          </ns3:TrackPointExtension>
        </extensions>
      </trkpt>
      <trkpt lat="47.55263778381049633026123046875" lon="11.05436193756759166717529296875">
        <ele>1860.800048828125</ele>
        <time>2026-09-01T09:13:52.000Z</time>
        <extensions>
          <ns3:TrackPointExtension>
            <ns3:hr>166</ns3:hr>
            <ns3:cad>97</ns3:cad>
          </ns3:TrackPointExtension>
        </extensions>
      </trkpt>
      <trkpt lat="47.55260610021650791168212890625" lon="11.054332517087459564208984375">
        <ele>1860.4000244140625</ele>
        <time>2026-09-01T09:13:53.000Z</time>
        <extensions>
          <ns3:TrackPointExtension>
            <ns3:hr>165</ns3:hr>
            <ns3:cad>85</ns3:cad>
          </ns3:TrackPointExtension>
        </extensions>
      </trkpt>
      <trkpt lat="47.55258045159280300140380859375" lon="11.0543105565011501312255859375">
        <ele>1860</ele>
        <time>2026-09-01T09:13:54.000Z</time>
        <extensions>
          <ns3:TrackPointExtension>
            <ns3:hr>165</ns3:hr>
            <ns3:cad>84</ns3:cad>
          </ns3:TrackPointExtension>
        </extensions>
      </trkpt>
      <trkpt lat="47.55255899392068386077880859375" lon="11.05427174828946590423583984375">
        <ele>1859.5999755859375</ele>
        <time>2026-09-01T09:13:55.000Z</time>
        <extensions>
          <ns3:TrackPointExtension>
            <ns3:hr>165</ns3:hr>
            <ns3:cad>84</ns3:cad>
          </ns3:TrackPointExtension>
        </extensions>
      </trkpt>
      <trkpt lat="47.55253963172435760498046875" lon="11.05423838831484317779541015625">
        <ele>1859.4000244140625</ele>
        <time>2026-09-01T09:13:56.000Z</time>
        <extensions>
          <ns3:TrackPointExtension>
            <ns3:hr>165</ns3:hr>
            <ns3:cad>84</ns3:cad>
          </ns3:TrackPointExtension>
        </extensions>
      </trkpt>
      <trkpt lat="47.55251624621450901031494140625" lon="11.0542081296443939208984375">
        <ele>1859.199951171875</ele>
        <time>2026-09-01T09:13:57.000Z</time>
        <extensions>
          <ns3:TrackPointExtension>
            <ns3:hr>164</ns3:hr>
            <ns3:cad>84</ns3:cad>
          </ns3:TrackPointExtension>
        </extensions>
      </trkpt>
      <trkpt lat="47.55250551737844944000244140625" lon="11.05417770333588123321533203125">
        <ele>1859.199951171875</ele>
        <time>2026-09-01T09:13:58.000Z</time>
        <extensions>
          <ns3:TrackPointExtension>
            <ns3:hr>164</ns3:hr>
            <ns3:cad>81</ns3:cad>
          </ns3:TrackPointExtension>
        </extensions>
      </trkpt>
      <trkpt lat="47.55248053930699825286865234375" lon="11.054152809083461761474609375">
        <ele>1858.800048828125</ele>
        <time>2026-09-01T09:13:59.000Z</time>
        <extensions>
          <ns3:TrackPointExtension>
            <ns3:hr>164</ns3:hr>
            <ns3:cad>81</ns3:cad>
          </ns3:TrackPointExtension>
        </extensions>
      </trkpt>
      <trkpt lat="47.55245321430265903472900390625" lon="11.05413009412586688995361328125">
        <ele>1858.800048828125</ele>
        <time>2026-09-01T09:14:00.000Z</time>
        <extensions>
          <ns3:TrackPointExtension>
            <ns3:hr>164</ns3:hr>
            <ns3:cad>81</ns3:cad>
          </ns3:TrackPointExtension>
        </extensions>
      </trkpt>
      <trkpt lat="47.5524254702031612396240234375" lon="11.054130680859088897705078125">
        <ele>1858.5999755859375</ele>
        <time>2026-09-01T09:14:01.000Z</time>
        <extensions>
          <ns3:TrackPointExtension>
            <ns3:hr>164</ns3:hr>
            <ns3:cad>81</ns3:cad>
          </ns3:TrackPointExtension>
        </extensions>
      </trkpt>
      <trkpt lat="47.55240543745458126068115234375" lon="11.05413009412586688995361328125">
        <ele>1858.4000244140625</ele>
        <time>2026-09-01T09:14:02.000Z</time>
        <extensions>
          <ns3:TrackPointExtension>
            <ns3:hr>163</ns3:hr>
            <ns3:cad>81</ns3:cad>
          </ns3:TrackPointExtension>
        </extensions>
      </trkpt>
      <trkpt lat="47.55237869918346405029296875" lon="11.05411735363304615020751953125">
        <ele>1858.4000244140625</ele>
        <time>2026-09-01T09:14:03.000Z</time>
        <extensions>
          <ns3:TrackPointExtension>
            <ns3:hr>163</ns3:hr>
            <ns3:cad>81</ns3:cad>
          </ns3:TrackPointExtension>
        </extensions>
      </trkpt>
      <trkpt lat="47.5523577444255352020263671875" lon="11.054097153246402740478515625">
        <ele>1858.199951171875</ele>
        <time>2026-09-01T09:14:04.000Z</time>
        <extensions>
          <ns3:TrackPointExtension>
            <ns3:hr>163</ns3:hr>
            <ns3:cad>81</ns3:cad>
          </ns3:TrackPointExtension>
        </extensions>
      </trkpt>
      <trkpt lat="47.55233368836343288421630859375" lon="11.0540793836116790771484375">
        <ele>1858</ele>
        <time>2026-09-01T09:14:05.000Z</time>
        <extensions>
          <ns3:TrackPointExtension>
            <ns3:hr>163</ns3:hr>
            <ns3:cad>81</ns3:cad>
          </ns3:TrackPointExtension>
        </extensions>
      </trkpt>
      <trkpt lat="47.552305944263935089111328125" lon="11.05404778383672237396240234375">
        <ele>1857.4000244140625</ele>
        <time>2026-09-01T09:14:06.000Z</time>
        <extensions>
          <ns3:TrackPointExtension>
            <ns3:hr>163</ns3:hr>
            <ns3:cad>78</ns3:cad>
          </ns3:TrackPointExtension>
        </extensions>
      </trkpt>
      <trkpt lat="47.55228750407695770263671875" lon="11.05401995591819286346435546875">
        <ele>1856.5999755859375</ele>
        <time>2026-09-01T09:14:07.000Z</time>
        <extensions>
          <ns3:TrackPointExtension>
            <ns3:hr>163</ns3:hr>
            <ns3:cad>77</ns3:cad>
          </ns3:TrackPointExtension>
        </extensions>
      </trkpt>
      <trkpt lat="47.55226881243288516998291015625" lon="11.05398357845842838287353515625">
        <ele>1855.5999755859375</ele>
        <time>2026-09-01T09:14:08.000Z</time>
        <extensions>
          <ns3:TrackPointExtension>
            <ns3:hr>162</ns3:hr>
            <ns3:cad>77</ns3:cad>
          </ns3:TrackPointExtension>
        </extensions>
      </trkpt>
      <trkpt lat="47.5522350333631038665771484375" lon="11.0539692454040050506591796875">
        <ele>1855.199951171875</ele>
        <time>2026-09-01T09:14:09.000Z</time>
        <extensions>
          <ns3:TrackPointExtension>
            <ns3:hr>162</ns3:hr>
            <ns3:cad>77</ns3:cad>
          </ns3:TrackPointExtension>
        </extensions>
      </trkpt>
      <trkpt lat="47.55220946855843067169189453125" lon="11.05395759455859661102294921875">
        <ele>1854.800048828125</ele>
        <time>2026-09-01T09:14:10.000Z</time>
        <extensions>
          <ns3:TrackPointExtension>
            <ns3:hr>162</ns3:hr>
            <ns3:cad>81</ns3:cad>
          </ns3:TrackPointExtension>
        </extensions>
      </trkpt>
      <trkpt lat="47.5521790422499179840087890625" lon="11.0539437644183635711669921875">
        <ele>1854.5999755859375</ele>
        <time>2026-09-01T09:14:11.000Z</time>
        <extensions>
          <ns3:TrackPointExtension>
            <ns3:hr>162</ns3:hr>
            <ns3:cad>82</ns3:cad>
          </ns3:TrackPointExtension>
        </extensions>
      </trkpt>
      <trkpt lat="47.552154064178466796875" lon="11.053933538496494293212890625">
        <ele>1854</ele>
        <time>2026-09-01T09:14:12.000Z</time>
        <extensions>
          <ns3:TrackPointExtension>
            <ns3:hr>162</ns3:hr>
            <ns3:cad>82</ns3:cad>
          </ns3:TrackPointExtension>
        </extensions>
      </trkpt>
      <trkpt lat="47.55213101394474506378173828125" lon="11.05390378274023532867431640625">
        <ele>1853.800048828125</ele>
        <time>2026-09-01T09:14:13.000Z</time>
        <extensions>
          <ns3:TrackPointExtension>
            <ns3:hr>162</ns3:hr>
            <ns3:cad>82</ns3:cad>
          </ns3:TrackPointExtension>
        </extensions>
      </trkpt>
      <trkpt lat="47.55210511386394500732421875" lon="11.0538626275956630706787109375">
        <ele>1853.4000244140625</ele>
        <time>2026-09-01T09:14:14.000Z</time>
        <extensions>
          <ns3:TrackPointExtension>
            <ns3:hr>162</ns3:hr>
            <ns3:cad>82</ns3:cad>
          </ns3:TrackPointExtension>
        </extensions>
      </trkpt>
      <trkpt lat="47.55208122543990612030029296875" lon="11.05383790098130702972412109375">
        <ele>1853</ele>
        <time>2026-09-01T09:14:15.000Z</time>
        <extensions>
          <ns3:TrackPointExtension>
            <ns3:hr>162</ns3:hr>
            <ns3:cad>82</ns3:cad>
          </ns3:TrackPointExtension>
        </extensions>
      </trkpt>
      <trkpt lat="47.55205390043556690216064453125" lon="11.053802110254764556884765625">
        <ele>1852.800048828125</ele>
        <time>2026-09-01T09:14:16.000Z</time>
        <extensions>
          <ns3:TrackPointExtension>
            <ns3:hr>161</ns3:hr>
            <ns3:cad>82</ns3:cad>
          </ns3:TrackPointExtension>
        </extensions>
      </trkpt>
      <trkpt lat="47.5520238094031810760498046875" lon="11.05376732535660266876220703125">
        <ele>1852.4000244140625</ele>
        <time>2026-09-01T09:14:17.000Z</time>
        <extensions>
          <ns3:TrackPointExtension>
            <ns3:hr>161</ns3:hr>
            <ns3:cad>82</ns3:cad>
          </ns3:TrackPointExtension>
        </extensions>
      </trkpt>
      <trkpt lat="47.55199958570301532745361328125" lon="11.05374251492321491241455078125">
        <ele>1852.4000244140625</ele>
        <time>2026-09-01T09:14:18.000Z</time>
        <extensions>
          <ns3:TrackPointExtension>
            <ns3:hr>161</ns3:hr>
            <ns3:cad>82</ns3:cad>
          </ns3:TrackPointExtension>
        </extensions>
      </trkpt>
      <trkpt lat="47.55197728984057903289794921875" lon="11.05370722711086273193359375">
        <ele>1852.199951171875</ele>
        <time>2026-09-01T09:14:19.000Z</time>
        <extensions>
          <ns3:TrackPointExtension>
            <ns3:hr>161</ns3:hr>
            <ns3:cad>81</ns3:cad>
          </ns3:TrackPointExtension>
        </extensions>
      </trkpt>
      <trkpt lat="47.5519557483494281768798828125" lon="11.0536762140691280364990234375">
        <ele>1852.199951171875</ele>
        <time>2026-09-01T09:14:20.000Z</time>
        <extensions>
          <ns3:TrackPointExtension>
            <ns3:hr>161</ns3:hr>
            <ns3:cad>81</ns3:cad>
          </ns3:TrackPointExtension>
        </extensions>
      </trkpt>
      <trkpt lat="47.55194091238081455230712890625" lon="11.05366506613790988922119140625">
        <ele>1852.4000244140625</ele>
        <time>2026-09-01T09:14:21.000Z</time>
        <extensions>
          <ns3:TrackPointExtension>
            <ns3:hr>161</ns3:hr>
            <ns3:cad>80</ns3:cad>
          </ns3:TrackPointExtension>
        </extensions>
      </trkpt>
      <trkpt lat="47.55192029289901256561279296875" lon="11.05364679358899593353271484375">
        <ele>1853</ele>
        <time>2026-09-01T09:14:22.000Z</time>
        <extensions>
          <ns3:TrackPointExtension>
            <ns3:hr>161</ns3:hr>
            <ns3:cad>80</ns3:cad>
          </ns3:TrackPointExtension>
        </extensions>
      </trkpt>
      <trkpt lat="47.551898248493671417236328125" lon="11.05362064205110073089599609375">
        <ele>1853.4000244140625</ele>
        <time>2026-09-01T09:14:23.000Z</time>
        <extensions>
          <ns3:TrackPointExtension>
            <ns3:hr>161</ns3:hr>
            <ns3:cad>80</ns3:cad>
          </ns3:TrackPointExtension>
        </extensions>
      </trkpt>
      <trkpt lat="47.551881484687328338623046875" lon="11.05359901674091815948486328125">
        <ele>1853.800048828125</ele>
        <time>2026-09-01T09:14:24.000Z</time>
        <extensions>
          <ns3:TrackPointExtension>
            <ns3:hr>161</ns3:hr>
            <ns3:cad>80</ns3:cad>
          </ns3:TrackPointExtension>
        </extensions>
      </trkpt>
      <trkpt lat="47.5518657267093658447265625" lon="11.05357537977397441864013671875">
        <ele>1854.199951171875</ele>
        <time>2026-09-01T09:14:25.000Z</time>
        <extensions>
          <ns3:TrackPointExtension>
            <ns3:hr>161</ns3:hr>
            <ns3:cad>80</ns3:cad>
          </ns3:TrackPointExtension>
        </extensions>
      </trkpt>
      <trkpt lat="47.5518389046192169189453125" lon="11.05354604311287403106689453125">
        <ele>1854.4000244140625</ele>
        <time>2026-09-01T09:14:26.000Z</time>
        <extensions>
          <ns3:TrackPointExtension>
            <ns3:hr>161</ns3:hr>
            <ns3:cad>80</ns3:cad>
          </ns3:TrackPointExtension>
        </extensions>
      </trkpt>
      <trkpt lat="47.5518199615180492401123046875" lon="11.0535161197185516357421875">
        <ele>1854.4000244140625</ele>
        <time>2026-09-01T09:14:27.000Z</time>
        <extensions>
          <ns3:TrackPointExtension>
            <ns3:hr>161</ns3:hr>
            <ns3:cad>76</ns3:cad>
          </ns3:TrackPointExtension>
        </extensions>
      </trkpt>
      <trkpt lat="47.551802694797515869140625" lon="11.05349658988416194915771484375">
        <ele>1854.4000244140625</ele>
        <time>2026-09-01T09:14:28.000Z</time>
        <extensions>
          <ns3:TrackPointExtension>
            <ns3:hr>161</ns3:hr>
            <ns3:cad>76</ns3:cad>
          </ns3:TrackPointExtension>
        </extensions>
      </trkpt>
      <trkpt lat="47.55177997983992099761962890625" lon="11.05346557684242725372314453125">
        <ele>1854.199951171875</ele>
        <time>2026-09-01T09:14:29.000Z</time>
        <extensions>
          <ns3:TrackPointExtension>
            <ns3:hr>161</ns3:hr>
            <ns3:cad>79</ns3:cad>
          </ns3:TrackPointExtension>
        </extensions>
      </trkpt>
      <trkpt lat="47.55175801925361156463623046875" lon="11.05343163013458251953125">
        <ele>1853.800048828125</ele>
        <time>2026-09-01T09:14:30.000Z</time>
        <extensions>
          <ns3:TrackPointExtension>
            <ns3:hr>160</ns3:hr>
            <ns3:cad>79</ns3:cad>
          </ns3:TrackPointExtension>
        </extensions>
      </trkpt>
      <trkpt lat="47.55174175836145877838134765625" lon="11.05340589769184589385986328125">
        <ele>1853.800048828125</ele>
        <time>2026-09-01T09:14:31.000Z</time>
        <extensions>
          <ns3:TrackPointExtension>
            <ns3:hr>160</ns3:hr>
            <ns3:cad>78</ns3:cad>
          </ns3:TrackPointExtension>
        </extensions>
      </trkpt>
      <trkpt lat="47.5517237372696399688720703125" lon="11.05337622575461864471435546875">
        <ele>1853.800048828125</ele>
        <time>2026-09-01T09:14:32.000Z</time>
        <extensions>
          <ns3:TrackPointExtension>
            <ns3:hr>160</ns3:hr>
            <ns3:cad>78</ns3:cad>
          </ns3:TrackPointExtension>
        </extensions>
      </trkpt>
      <trkpt lat="47.55170286633074283599853515625" lon="11.05335929431021213531494140625">
        <ele>1854</ele>
        <time>2026-09-01T09:14:33.000Z</time>
        <extensions>
          <ns3:TrackPointExtension>
            <ns3:hr>159</ns3:hr>
            <ns3:cad>78</ns3:cad>
          </ns3:TrackPointExtension>
        </extensions>
      </trkpt>
      <trkpt lat="47.55168735980987548828125" lon="11.0533439554274082183837890625">
        <ele>1854.199951171875</ele>
        <time>2026-09-01T09:14:34.000Z</time>
        <extensions>
          <ns3:TrackPointExtension>
            <ns3:hr>159</ns3:hr>
            <ns3:cad>78</ns3:cad>
          </ns3:TrackPointExtension>
        </extensions>
      </trkpt>
      <trkpt lat="47.55166590213775634765625" lon="11.053344793617725372314453125">
        <ele>1854.199951171875</ele>
        <time>2026-09-01T09:14:35.000Z</time>
        <extensions>
          <ns3:TrackPointExtension>
            <ns3:hr>159</ns3:hr>
            <ns3:cad>78</ns3:cad>
          </ns3:TrackPointExtension>
        </extensions>
      </trkpt>
      <trkpt lat="47.55165156908333301544189453125" lon="11.05334705673158168792724609375">
        <ele>1853.800048828125</ele>
        <time>2026-09-01T09:14:36.000Z</time>
        <extensions>
          <ns3:TrackPointExtension>
            <ns3:hr>159</ns3:hr>
            <ns3:cad>78</ns3:cad>
          </ns3:TrackPointExtension>
        </extensions>
      </trkpt>
      <trkpt lat="47.5516382418572902679443359375" lon="11.05333532206714153289794921875">
        <ele>1853.4000244140625</ele>
        <time>2026-09-01T09:14:37.000Z</time>
        <extensions>
          <ns3:TrackPointExtension>
            <ns3:hr>159</ns3:hr>
            <ns3:cad>78</ns3:cad>
          </ns3:TrackPointExtension>
        </extensions>
      </trkpt>
      <trkpt lat="47.55162541754543781280517578125" lon="11.05332325212657451629638671875">
        <ele>1852.5999755859375</ele>
        <time>2026-09-01T09:14:38.000Z</time>
        <extensions>
          <ns3:TrackPointExtension>
            <ns3:hr>159</ns3:hr>
            <ns3:cad>78</ns3:cad>
          </ns3:TrackPointExtension>
        </extensions>
      </trkpt>
      <trkpt lat="47.55160563625395298004150390625" lon="11.0533053986728191375732421875">
        <ele>1852</ele>
        <time>2026-09-01T09:14:39.000Z</time>
        <extensions>
          <ns3:TrackPointExtension>
            <ns3:hr>158</ns3:hr>
            <ns3:cad>78</ns3:cad>
          </ns3:TrackPointExtension>
        </extensions>
      </trkpt>
      <trkpt lat="47.551579065620899200439453125" lon="11.053271703422069549560546875">
        <ele>1851.4000244140625</ele>
        <time>2026-09-01T09:14:40.000Z</time>
        <extensions>
          <ns3:TrackPointExtension>
            <ns3:hr>158</ns3:hr>
            <ns3:cad>78</ns3:cad>
          </ns3:TrackPointExtension>
        </extensions>
      </trkpt>
      <trkpt lat="47.5515621341764926910400390625" lon="11.0532641597092151641845703125">
        <ele>1850.800048828125</ele>
        <time>2026-09-01T09:14:41.000Z</time>
        <extensions>
          <ns3:TrackPointExtension>
            <ns3:hr>157</ns3:hr>
            <ns3:cad>78</ns3:cad>
          </ns3:TrackPointExtension>
        </extensions>
      </trkpt>
      <trkpt lat="47.55153925158083438873291015625" lon="11.05323373340070247650146484375">
        <ele>1850</ele>
        <time>2026-09-01T09:14:42.000Z</time>
        <extensions>
          <ns3:TrackPointExtension>
            <ns3:hr>157</ns3:hr>
            <ns3:cad>78</ns3:cad>
          </ns3:TrackPointExtension>
        </extensions>
      </trkpt>
      <trkpt lat="47.55151812918484210968017578125" lon="11.05320037342607975006103515625">
        <ele>1848.800048828125</ele>
        <time>2026-09-01T09:14:43.000Z</time>
        <extensions>
          <ns3:TrackPointExtension>
            <ns3:hr>156</ns3:hr>
            <ns3:cad>84</ns3:cad>
          </ns3:TrackPointExtension>
        </extensions>
      </trkpt>
      <trkpt lat="47.55150387994945049285888671875" lon="11.05316449888050556182861328125">
        <ele>1848.199951171875</ele>
        <time>2026-09-01T09:14:44.000Z</time>
        <extensions>
          <ns3:TrackPointExtension>
            <ns3:hr>156</ns3:hr>
            <ns3:cad>84</ns3:cad>
          </ns3:TrackPointExtension>
        </extensions>
      </trkpt>
      <trkpt lat="47.5514980964362621307373046875" lon="11.0531203262507915496826171875">
        <ele>1848</ele>
        <time>2026-09-01T09:14:45.000Z</time>
        <extensions>
          <ns3:TrackPointExtension>
            <ns3:hr>155</ns3:hr>
            <ns3:cad>82</ns3:cad>
          </ns3:TrackPointExtension>
        </extensions>
      </trkpt>
      <trkpt lat="47.5514923967421054840087890625" lon="11.0530842840671539306640625">
        <ele>1847.800048828125</ele>
        <time>2026-09-01T09:14:46.000Z</time>
        <extensions>
          <ns3:TrackPointExtension>
            <ns3:hr>155</ns3:hr>
            <ns3:cad>82</ns3:cad>
          </ns3:TrackPointExtension>
        </extensions>
      </trkpt>
      <trkpt lat="47.55148493684828281402587890625" lon="11.053056456148624420166015625">
        <ele>1847.5999755859375</ele>
        <time>2026-09-01T09:14:47.000Z</time>
        <extensions>
          <ns3:TrackPointExtension>
            <ns3:hr>155</ns3:hr>
            <ns3:cad>82</ns3:cad>
          </ns3:TrackPointExtension>
        </extensions>
      </trkpt>
      <trkpt lat="47.55147521384060382843017578125" lon="11.05303390882909297943115234375">
        <ele>1847.199951171875</ele>
        <time>2026-09-01T09:14:48.000Z</time>
        <extensions>
          <ns3:TrackPointExtension>
            <ns3:hr>155</ns3:hr>
            <ns3:cad>82</ns3:cad>
          </ns3:TrackPointExtension>
        </extensions>
      </trkpt>
      <trkpt lat="47.55145945586264133453369140625" lon="11.05300658382475376129150390625">
        <ele>1846.800048828125</ele>
        <time>2026-09-01T09:14:49.000Z</time>
        <extensions>
          <ns3:TrackPointExtension>
            <ns3:hr>154</ns3:hr>
            <ns3:cad>82</ns3:cad>
          </ns3:TrackPointExtension>
        </extensions>
      </trkpt>
      <trkpt lat="47.55144068039953708648681640625" lon="11.052994094789028167724609375">
        <ele>1846</ele>
        <time>2026-09-01T09:14:50.000Z</time>
        <extensions>
          <ns3:TrackPointExtension>
            <ns3:hr>154</ns3:hr>
            <ns3:cad>82</ns3:cad>
          </ns3:TrackPointExtension>
        </extensions>
      </trkpt>
      <trkpt lat="47.5514177978038787841796875" lon="11.0530006326735019683837890625">
        <ele>1845.4000244140625</ele>
        <time>2026-09-01T09:14:51.000Z</time>
        <extensions>
          <ns3:TrackPointExtension>
            <ns3:hr>153</ns3:hr>
            <ns3:cad>82</ns3:cad>
          </ns3:TrackPointExtension>
        </extensions>
      </trkpt>
      <trkpt lat="47.5513978488743305206298828125" lon="11.05301412753760814666748046875">
        <ele>1844.4000244140625</ele>
        <time>2026-09-01T09:14:52.000Z</time>
        <extensions>
          <ns3:TrackPointExtension>
            <ns3:hr>152</ns3:hr>
            <ns3:cad>0</ns3:cad>
          </ns3:TrackPointExtension>
        </extensions>
      </trkpt>
      <trkpt lat="47.55138670094311237335205078125" lon="11.0530227608978748321533203125">
        <ele>1843.800048828125</ele>
        <time>2026-09-01T09:14:53.000Z</time>
        <extensions>
          <ns3:TrackPointExtension>
            <ns3:hr>152</ns3:hr>
            <ns3:cad>0</ns3:cad>
          </ns3:TrackPointExtension>
        </extensions>
      </trkpt>
      <trkpt lat="47.55137295462191104888916015625" lon="11.05303893797099590301513671875">
        <ele>1843</ele>
        <time>2026-09-01T09:14:54.000Z</time>
        <extensions>
          <ns3:TrackPointExtension>
            <ns3:hr>152</ns3:hr>
            <ns3:cad>0</ns3:cad>
          </ns3:TrackPointExtension>
        </extensions>
      </trkpt>
      <trkpt lat="47.55136624909937381744384765625" lon="11.05304203927516937255859375">
        <ele>1842.4000244140625</ele>
        <time>2026-09-01T09:14:55.000Z</time>
        <extensions>
          <ns3:TrackPointExtension>
            <ns3:hr>151</ns3:hr>
            <ns3:cad>0</ns3:cad>
          </ns3:TrackPointExtension>
        </extensions>
      </trkpt>
      <trkpt lat="47.55135535262525081634521484375" lon="11.05303474701941013336181640625">
        <ele>1841.800048828125</ele>
        <time>2026-09-01T09:14:56.000Z</time>
        <extensions>
          <ns3:TrackPointExtension>
            <ns3:hr>151</ns3:hr>
            <ns3:cad>0</ns3:cad>
          </ns3:TrackPointExtension>
        </extensions>
      </trkpt>
      <trkpt lat="47.55134738981723785400390625" lon="11.05302703566849231719970703125">
        <ele>1841.199951171875</ele>
        <time>2026-09-01T09:14:57.000Z</time>
        <extensions>
          <ns3:TrackPointExtension>
            <ns3:hr>151</ns3:hr>
            <ns3:cad>71</ns3:cad>
          </ns3:TrackPointExtension>
        </extensions>
      </trkpt>
      <trkpt lat="47.55133070982992649078369140625" lon="11.05302033014595508575439453125">
        <ele>1840.4000244140625</ele>
        <time>2026-09-01T09:14:58.000Z</time>
        <extensions>
          <ns3:TrackPointExtension>
            <ns3:hr>150</ns3:hr>
            <ns3:cad>71</ns3:cad>
          </ns3:TrackPointExtension>
        </extensions>
      </trkpt>
      <trkpt lat="47.5513167120516300201416015625" lon="11.05302837677299976348876953125">
        <ele>1839.800048828125</ele>
        <time>2026-09-01T09:14:59.000Z</time>
        <extensions>
          <ns3:TrackPointExtension>
            <ns3:hr>150</ns3:hr>
            <ns3:cad>71</ns3:cad>
          </ns3:TrackPointExtension>
        </extensions>
      </trkpt>
      <trkpt lat="47.55130455829203128814697265625" lon="11.05303139425814151763916015625">
        <ele>1839</ele>
        <time>2026-09-01T09:15:00.000Z</time>
        <extensions>
          <ns3:TrackPointExtension>
            <ns3:hr>149</ns3:hr>
            <ns3:cad>71</ns3:cad>
          </ns3:TrackPointExtension>
        </extensions>
      </trkpt>
      <trkpt lat="47.551288716495037078857421875" lon="11.05303240008652210235595703125">
        <ele>1838.199951171875</ele>
        <time>2026-09-01T09:15:01.000Z</time>
        <extensions>
          <ns3:TrackPointExtension>
            <ns3:hr>148</ns3:hr>
            <ns3:cad>71</ns3:cad>
          </ns3:TrackPointExtension>
        </extensions>
      </trkpt>
      <trkpt lat="47.5512751378118991851806640625" lon="11.053033657371997833251953125">
        <ele>1837.4000244140625</ele>
        <time>2026-09-01T09:15:02.000Z</time>
        <extensions>
          <ns3:TrackPointExtension>
            <ns3:hr>147</ns3:hr>
            <ns3:cad>71</ns3:cad>
          </ns3:TrackPointExtension>
        </extensions>
      </trkpt>
      <trkpt lat="47.55126214586198329925537109375" lon="11.0530341602861881256103515625">
        <ele>1836.4000244140625</ele>
        <time>2026-09-01T09:15:03.000Z</time>
        <extensions>
          <ns3:TrackPointExtension>
            <ns3:hr>146</ns3:hr>
            <ns3:cad>71</ns3:cad>
          </ns3:TrackPointExtension>
        </extensions>
      </trkpt>
      <trkpt lat="47.55124739371240139007568359375" lon="11.0530294664204120635986328125">
        <ele>1835.800048828125</ele>
        <time>2026-09-01T09:15:04.000Z</time>
        <extensions>
          <ns3:TrackPointExtension>
            <ns3:hr>145</ns3:hr>
            <ns3:cad>71</ns3:cad>
          </ns3:TrackPointExtension>
        </extensions>
      </trkpt>
      <trkpt lat="47.55123741924762725830078125" lon="11.053017564117908477783203125">
        <ele>1835</ele>
        <time>2026-09-01T09:15:05.000Z</time>
        <extensions>
          <ns3:TrackPointExtension>
            <ns3:hr>144</ns3:hr>
            <ns3:cad>71</ns3:cad>
          </ns3:TrackPointExtension>
        </extensions>
      </trkpt>
      <trkpt lat="47.551220320165157318115234375" lon="11.05301898904144763946533203125">
        <ele>1834.4000244140625</ele>
        <time>2026-09-01T09:15:06.000Z</time>
        <extensions>
          <ns3:TrackPointExtension>
            <ns3:hr>144</ns3:hr>
            <ns3:cad>46</ns3:cad>
          </ns3:TrackPointExtension>
        </extensions>
      </trkpt>
      <trkpt lat="47.55121571011841297149658203125" lon="11.05301412753760814666748046875">
        <ele>1833.800048828125</ele>
        <time>2026-09-01T09:15:07.000Z</time>
        <extensions>
          <ns3:TrackPointExtension>
            <ns3:hr>143</ns3:hr>
            <ns3:cad>46</ns3:cad>
          </ns3:TrackPointExtension>
        </extensions>
      </trkpt>
      <trkpt lat="47.55120112560689449310302734375" lon="11.05300155468285083770751953125">
        <ele>1833.4000244140625</ele>
        <time>2026-09-01T09:15:08.000Z</time>
        <extensions>
          <ns3:TrackPointExtension>
            <ns3:hr>143</ns3:hr>
            <ns3:cad>46</ns3:cad>
          </ns3:TrackPointExtension>
        </extensions>
      </trkpt>
      <trkpt lat="47.5511919893324375152587890625" lon="11.05299736373126506805419921875">
        <ele>1832.800048828125</ele>
        <time>2026-09-01T09:15:09.000Z</time>
        <extensions>
          <ns3:TrackPointExtension>
            <ns3:hr>142</ns3:hr>
            <ns3:cad>46</ns3:cad>
          </ns3:TrackPointExtension>
        </extensions>
      </trkpt>
      <trkpt lat="47.5511745549738407135009765625" lon="11.05299652554094791412353515625">
        <ele>1832.4000244140625</ele>
        <time>2026-09-01T09:15:10.000Z</time>
        <extensions>
          <ns3:TrackPointExtension>
            <ns3:hr>142</ns3:hr>
            <ns3:cad>46</ns3:cad>
          </ns3:TrackPointExtension>
        </extensions>
      </trkpt>
      <trkpt lat="47.5511571206152439117431640625" lon="11.05300582945346832275390625">
        <ele>1831.800048828125</ele>
        <time>2026-09-01T09:15:11.000Z</time>
        <extensions>
          <ns3:TrackPointExtension>
            <ns3:hr>141</ns3:hr>
            <ns3:cad>46</ns3:cad>
          </ns3:TrackPointExtension>
        </extensions>
      </trkpt>
      <trkpt lat="47.55114161409437656402587890625" lon="11.053020246326923370361328125">
        <ele>1831</ele>
        <time>2026-09-01T09:15:12.000Z</time>
        <extensions>
          <ns3:TrackPointExtension>
            <ns3:hr>141</ns3:hr>
            <ns3:cad>46</ns3:cad>
          </ns3:TrackPointExtension>
        </extensions>
      </trkpt>
      <trkpt lat="47.55113155581057071685791015625" lon="11.05302049778401851654052734375">
        <ele>1830.199951171875</ele>
        <time>2026-09-01T09:15:13.000Z</time>
        <extensions>
          <ns3:TrackPointExtension>
            <ns3:hr>140</ns3:hr>
            <ns3:cad>46</ns3:cad>
          </ns3:TrackPointExtension>
        </extensions>
      </trkpt>
      <trkpt lat="47.5511148758232593536376953125" lon="11.05302250944077968597412109375">
        <ele>1829.4000244140625</ele>
        <time>2026-09-01T09:15:14.000Z</time>
        <extensions>
          <ns3:TrackPointExtension>
            <ns3:hr>140</ns3:hr>
            <ns3:cad>88</ns3:cad>
          </ns3:TrackPointExtension>
        </extensions>
      </trkpt>
      <trkpt lat="47.5510964356362819671630859375" lon="11.05302167125046253204345703125">
        <ele>1828.800048828125</ele>
        <time>2026-09-01T09:15:15.000Z</time>
        <extensions>
          <ns3:TrackPointExtension>
            <ns3:hr>140</ns3:hr>
            <ns3:cad>88</ns3:cad>
          </ns3:TrackPointExtension>
        </extensions>
      </trkpt>
      <trkpt lat="47.55108059383928775787353515625" lon="11.05302200652658939361572265625">
        <ele>1828</ele>
        <time>2026-09-01T09:15:16.000Z</time>
        <extensions>
          <ns3:TrackPointExtension>
            <ns3:hr>139</ns3:hr>
            <ns3:cad>88</ns3:cad>
          </ns3:TrackPointExtension>
        </extensions>
      </trkpt>
      <trkpt lat="47.55106575787067413330078125" lon="11.05302820913493633270263671875">
        <ele>1827.4000244140625</ele>
        <time>2026-09-01T09:15:17.000Z</time>
        <extensions>
          <ns3:TrackPointExtension>
            <ns3:hr>139</ns3:hr>
            <ns3:cad>0</ns3:cad>
          </ns3:TrackPointExtension>
        </extensions>
      </trkpt>
      <trkpt lat="47.55105310119688510894775390625" lon="11.05301924049854278564453125">
        <ele>1826.800048828125</ele>
        <time>2026-09-01T09:15:18.000Z</time>
        <extensions>
          <ns3:TrackPointExtension>
            <ns3:hr>139</ns3:hr>
            <ns3:cad>0</ns3:cad>
          </ns3:TrackPointExtension>
        </extensions>
      </trkpt>
      <trkpt lat="47.55103952251374721527099609375" lon="11.05300582945346832275390625">
        <ele>1826.4000244140625</ele>
        <time>2026-09-01T09:15:19.000Z</time>
        <extensions>
          <ns3:TrackPointExtension>
            <ns3:hr>139</ns3:hr>
            <ns3:cad>0</ns3:cad>
          </ns3:TrackPointExtension>
        </extensions>
      </trkpt>
      <trkpt lat="47.55102242343127727508544921875" lon="11.052997112274169921875">
        <ele>1825.800048828125</ele>
        <time>2026-09-01T09:15:20.000Z</time>
        <extensions>
          <ns3:TrackPointExtension>
            <ns3:hr>139</ns3:hr>
            <ns3:cad>0</ns3:cad>
          </ns3:TrackPointExtension>
        </extensions>
      </trkpt>
      <trkpt lat="47.55100674927234649658203125" lon="11.05298705399036407470703125">
        <ele>1825</ele>
        <time>2026-09-01T09:15:21.000Z</time>
        <extensions>
          <ns3:TrackPointExtension>
            <ns3:hr>138</ns3:hr>
            <ns3:cad>0</ns3:cad>
          </ns3:TrackPointExtension>
        </extensions>
      </trkpt>
      <trkpt lat="47.5509914942085742950439453125" lon="11.05297900736331939697265625">
        <ele>1824.199951171875</ele>
        <time>2026-09-01T09:15:22.000Z</time>
        <extensions>
          <ns3:TrackPointExtension>
            <ns3:hr>138</ns3:hr>
            <ns3:cad>0</ns3:cad>
          </ns3:TrackPointExtension>
        </extensions>
      </trkpt>
      <trkpt lat="47.5509780831634998321533203125" lon="11.05297355912625789642333984375">
        <ele>1823.4000244140625</ele>
        <time>2026-09-01T09:15:23.000Z</time>
        <extensions>
          <ns3:TrackPointExtension>
            <ns3:hr>137</ns3:hr>
            <ns3:cad>0</ns3:cad>
          </ns3:TrackPointExtension>
        </extensions>
      </trkpt>
      <trkpt lat="47.550963498651981353759765625" lon="11.05296517722308635711669921875">
        <ele>1823</ele>
        <time>2026-09-01T09:15:24.000Z</time>
        <extensions>
          <ns3:TrackPointExtension>
            <ns3:hr>136</ns3:hr>
            <ns3:cad>0</ns3:cad>
          </ns3:TrackPointExtension>
        </extensions>
      </trkpt>
      <trkpt lat="47.5509485788643360137939453125" lon="11.05295930989086627960205078125">
        <ele>1822.4000244140625</ele>
        <time>2026-09-01T09:15:25.000Z</time>
        <extensions>
          <ns3:TrackPointExtension>
            <ns3:hr>135</ns3:hr>
            <ns3:cad>0</ns3:cad>
          </ns3:TrackPointExtension>
        </extensions>
      </trkpt>
      <trkpt lat="47.550927288830280303955078125" lon="11.05295461602509021759033203125">
        <ele>1821.5999755859375</ele>
        <time>2026-09-01T09:15:26.000Z</time>
        <extensions>
          <ns3:TrackPointExtension>
            <ns3:hr>134</ns3:hr>
            <ns3:cad>0</ns3:cad>
          </ns3:TrackPointExtension>
        </extensions>
      </trkpt>
      <trkpt lat="47.55090457387268543243408203125" lon="11.05295914225280284881591796875">
        <ele>1821</ele>
        <time>2026-09-01T09:15:27.000Z</time>
        <extensions>
          <ns3:TrackPointExtension>
            <ns3:hr>133</ns3:hr>
            <ns3:cad>0</ns3:cad>
          </ns3:TrackPointExtension>
        </extensions>
      </trkpt>
      <trkpt lat="47.55089367739856243133544921875" lon="11.0529838688671588897705078125">
        <ele>1820.199951171875</ele>
        <time>2026-09-01T09:15:28.000Z</time>
        <extensions>
          <ns3:TrackPointExtension>
            <ns3:hr>132</ns3:hr>
            <ns3:cad>0</ns3:cad>
          </ns3:TrackPointExtension>
        </extensions>
      </trkpt>
      <trkpt lat="47.55090256221592426300048828125" lon="11.05298412032425403594970703125">
        <ele>1819.5999755859375</ele>
        <time>2026-09-01T09:15:29.000Z</time>
        <extensions>
          <ns3:TrackPointExtension>
            <ns3:hr>131</ns3:hr>
            <ns3:cad>0</ns3:cad>
          </ns3:TrackPointExtension>
        </extensions>
      </trkpt>
      <trkpt lat="47.55090348422527313232421875" lon="11.0529798455536365509033203125">
        <ele>1818.800048828125</ele>
        <time>2026-09-01T09:15:30.000Z</time>
        <extensions>
          <ns3:TrackPointExtension>
            <ns3:hr>131</ns3:hr>
            <ns3:cad>40</ns3:cad>
          </ns3:TrackPointExtension>
        </extensions>
      </trkpt>
      <trkpt lat="47.55088915117084980010986328125" lon="11.0529815219342708587646484375">
        <ele>1818</ele>
        <time>2026-09-01T09:15:31.000Z</time>
        <extensions>
          <ns3:TrackPointExtension>
            <ns3:hr>131</ns3:hr>
            <ns3:cad>40</ns3:cad>
          </ns3:TrackPointExtension>
        </extensions>
      </trkpt>
      <trkpt lat="47.55088244564831256866455078125" lon="11.0529778338968753814697265625">
        <ele>1817.199951171875</ele>
        <time>2026-09-01T09:15:32.000Z</time>
        <extensions>
          <ns3:TrackPointExtension>
            <ns3:hr>129</ns3:hr>
            <ns3:cad>40</ns3:cad>
          </ns3:TrackPointExtension>
        </extensions>
      </trkpt>
      <trkpt lat="47.5508768297731876373291015625" lon="11.05297657661139965057373046875">
        <ele>1816.800048828125</ele>
        <time>2026-09-01T09:15:33.000Z</time>
        <extensions>
          <ns3:TrackPointExtension>
            <ns3:hr>128</ns3:hr>
            <ns3:cad>40</ns3:cad>
          </ns3:TrackPointExtension>
        </extensions>
      </trkpt>
      <trkpt lat="47.5508687831461429595947265625" lon="11.0529721342027187347412109375">
        <ele>1816.4000244140625</ele>
        <time>2026-09-01T09:15:34.000Z</time>
        <extensions>
          <ns3:TrackPointExtension>
            <ns3:hr>127</ns3:hr>
            <ns3:cad>40</ns3:cad>
          </ns3:TrackPointExtension>
        </extensions>
      </trkpt>
      <trkpt lat="47.55086383782327175140380859375" lon="11.0529453121125698089599609375">
        <ele>1815.800048828125</ele>
        <time>2026-09-01T09:15:35.000Z</time>
        <extensions>
          <ns3:TrackPointExtension>
            <ns3:hr>126</ns3:hr>
            <ns3:cad>40</ns3:cad>
          </ns3:TrackPointExtension>
        </extensions>
      </trkpt>
      <trkpt lat="47.550860233604907989501953125" lon="11.052932403981685638427734375">
        <ele>1815.4000244140625</ele>
        <time>2026-09-01T09:15:36.000Z</time>
        <extensions>
          <ns3:TrackPointExtension>
            <ns3:hr>125</ns3:hr>
            <ns3:cad>0</ns3:cad>
          </ns3:TrackPointExtension>
        </extensions>
      </trkpt>
      <trkpt lat="47.55084984004497528076171875" lon="11.0529188252985477447509765625">
        <ele>1814.800048828125</ele>
        <time>2026-09-01T09:15:37.000Z</time>
        <extensions>
          <ns3:TrackPointExtension>
            <ns3:hr>124</ns3:hr>
            <ns3:cad>0</ns3:cad>
          </ns3:TrackPointExtension>
        </extensions>
      </trkpt>
      <trkpt lat="47.5508349202573299407958984375" lon="11.0529188252985477447509765625">
        <ele>1814.199951171875</ele>
        <time>2026-09-01T09:15:38.000Z</time>
        <extensions>
          <ns3:TrackPointExtension>
            <ns3:hr>124</ns3:hr>
            <ns3:cad>0</ns3:cad>
          </ns3:TrackPointExtension>
        </extensions>
      </trkpt>
      <trkpt lat="47.55082712508738040924072265625" lon="11.0529233515262603759765625">
        <ele>1813.5999755859375</ele>
        <time>2026-09-01T09:15:39.000Z</time>
        <extensions>
          <ns3:TrackPointExtension>
            <ns3:hr>123</ns3:hr>
            <ns3:cad>0</ns3:cad>
          </ns3:TrackPointExtension>
        </extensions>
      </trkpt>
      <trkpt lat="47.55082829855382442474365234375" lon="11.05292829684913158416748046875">
        <ele>1813</ele>
        <time>2026-09-01T09:15:40.000Z</time>
        <extensions>
          <ns3:TrackPointExtension>
            <ns3:hr>123</ns3:hr>
            <ns3:cad>0</ns3:cad>
          </ns3:TrackPointExtension>
        </extensions>
      </trkpt>
      <trkpt lat="47.5508228503167629241943359375" lon="11.052933745086193084716796875">
        <ele>1812.4000244140625</ele>
        <time>2026-09-01T09:15:41.000Z</time>
        <extensions>
          <ns3:TrackPointExtension>
            <ns3:hr>123</ns3:hr>
            <ns3:cad>0</ns3:cad>
          </ns3:TrackPointExtension>
        </extensions>
      </trkpt>
      <trkpt lat="47.55082008428871631622314453125" lon="11.05293936096131801605224609375">
        <ele>1812</ele>
        <time>2026-09-01T09:15:42.000Z</time>
        <extensions>
          <ns3:TrackPointExtension>
            <ns3:hr>123</ns3:hr>
            <ns3:cad>0</ns3:cad>
          </ns3:TrackPointExtension>
        </extensions>
      </trkpt>
      <trkpt lat="47.55081237293779850006103515625" lon="11.05294086970388889312744140625">
        <ele>1811.199951171875</ele>
        <time>2026-09-01T09:15:43.000Z</time>
        <extensions>
          <ns3:TrackPointExtension>
            <ns3:hr>123</ns3:hr>
            <ns3:cad>0</ns3:cad>
          </ns3:TrackPointExtension>
        </extensions>
      </trkpt>
      <trkpt lat="47.55079259164631366729736328125" lon="11.05293617583811283111572265625">
        <ele>1810.800048828125</ele>
        <time>2026-09-01T09:15:44.000Z</time>
        <extensions>
          <ns3:TrackPointExtension>
            <ns3:hr>123</ns3:hr>
            <ns3:cad>0</ns3:cad>
          </ns3:TrackPointExtension>
        </extensions>
      </trkpt>
      <trkpt lat="47.55078253336250782012939453125" lon="11.0529436357319355010986328125">
        <ele>1810</ele>
        <time>2026-09-01T09:15:45.000Z</time>
        <extensions>
          <ns3:TrackPointExtension>
            <ns3:hr>122</ns3:hr>
            <ns3:cad>0</ns3:cad>
          </ns3:TrackPointExtension>
        </extensions>
      </trkpt>
      <trkpt lat="47.550780437886714935302734375" lon="11.05294405482709407806396484375">
        <ele>1809</ele>
        <time>2026-09-01T09:15:46.000Z</time>
        <extensions>
          <ns3:TrackPointExtension>
            <ns3:hr>122</ns3:hr>
            <ns3:cad>0</ns3:cad>
          </ns3:TrackPointExtension>
        </extensions>
      </trkpt>
      <trkpt lat="47.550778090953826904296875" lon="11.05293617583811283111572265625">
        <ele>1808.4000244140625</ele>
        <time>2026-09-01T09:15:47.000Z</time>
        <extensions>
          <ns3:TrackPointExtension>
            <ns3:hr>121</ns3:hr>
            <ns3:cad>75</ns3:cad>
          </ns3:TrackPointExtension>
        </extensions>
      </trkpt>
      <trkpt lat="47.55077012814581394195556640625" lon="11.052929051220417022705078125">
        <ele>1807.800048828125</ele>
        <time>2026-09-01T09:15:48.000Z</time>
        <extensions>
          <ns3:TrackPointExtension>
            <ns3:hr>121</ns3:hr>
            <ns3:cad>75</ns3:cad>
          </ns3:TrackPointExtension>
        </extensions>
      </trkpt>
      <trkpt lat="47.55076593719422817230224609375" lon="11.05292268097400665283203125">
        <ele>1807</ele>
        <time>2026-09-01T09:15:49.000Z</time>
        <extensions>
          <ns3:TrackPointExtension>
            <ns3:hr>120</ns3:hr>
            <ns3:cad>75</ns3:cad>
          </ns3:TrackPointExtension>
        </extensions>
      </trkpt>
      <trkpt lat="47.5507594831287860870361328125" lon="11.052917651832103729248046875">
        <ele>1806.4000244140625</ele>
        <time>2026-09-01T09:15:50.000Z</time>
        <extensions>
          <ns3:TrackPointExtension>
            <ns3:hr>120</ns3:hr>
            <ns3:cad>75</ns3:cad>
          </ns3:TrackPointExtension>
        </extensions>
      </trkpt>
      <trkpt lat="47.55074749700725078582763671875" lon="11.0529174841940402984619140625">
        <ele>1805.800048828125</ele>
        <time>2026-09-01T09:15:51.000Z</time>
        <extensions>
          <ns3:TrackPointExtension>
            <ns3:hr>120</ns3:hr>
            <ns3:cad>75</ns3:cad>
          </ns3:TrackPointExtension>
        </extensions>
      </trkpt>
      <trkpt lat="47.5507338345050811767578125" lon="11.052912287414073944091796875">
        <ele>1805.4000244140625</ele>
        <time>2026-09-01T09:15:52.000Z</time>
        <extensions>
          <ns3:TrackPointExtension>
            <ns3:hr>119</ns3:hr>
            <ns3:cad>75</ns3:cad>
          </ns3:TrackPointExtension>
        </extensions>
      </trkpt>
      <trkpt lat="47.550720088183879852294921875" lon="11.05287767015397548675537109375">
        <ele>1804.5999755859375</ele>
        <time>2026-09-01T09:15:53.000Z</time>
        <extensions>
          <ns3:TrackPointExtension>
            <ns3:hr>119</ns3:hr>
            <ns3:cad>75</ns3:cad>
          </ns3:TrackPointExtension>
        </extensions>
      </trkpt>
      <trkpt lat="47.55070625804364681243896484375" lon="11.052874736487865447998046875">
        <ele>1804.199951171875</ele>
        <time>2026-09-01T09:15:54.000Z</time>
        <extensions>
          <ns3:TrackPointExtension>
            <ns3:hr>119</ns3:hr>
            <ns3:cad>75</ns3:cad>
          </ns3:TrackPointExtension>
        </extensions>
      </trkpt>
      <trkpt lat="47.5506989657878875732421875" lon="11.05286593548953533172607421875">
        <ele>1803.4000244140625</ele>
        <time>2026-09-01T09:15:55.000Z</time>
        <extensions>
          <ns3:TrackPointExtension>
            <ns3:hr>118</ns3:hr>
            <ns3:cad>75</ns3:cad>
          </ns3:TrackPointExtension>
        </extensions>
      </trkpt>
      <trkpt lat="47.55068563856184482574462890625" lon="11.0528467409312725067138671875">
        <ele>1802.5999755859375</ele>
        <time>2026-09-01T09:15:56.000Z</time>
        <extensions>
          <ns3:TrackPointExtension>
            <ns3:hr>118</ns3:hr>
            <ns3:cad>75</ns3:cad>
          </ns3:TrackPointExtension>
        </extensions>
      </trkpt>
      <trkpt lat="47.55067658610641956329345703125" lon="11.0528360120952129364013671875">
        <ele>1802</ele>
        <time>2026-09-01T09:15:57.000Z</time>
        <extensions>
          <ns3:TrackPointExtension>
            <ns3:hr>117</ns3:hr>
            <ns3:cad>75</ns3:cad>
          </ns3:TrackPointExtension>
        </extensions>
      </trkpt>
      <trkpt lat="47.55066049285233020782470703125" lon="11.0528373531997203826904296875">
        <ele>1801.199951171875</ele>
        <time>2026-09-01T09:15:58.000Z</time>
        <extensions>
          <ns3:TrackPointExtension>
            <ns3:hr>117</ns3:hr>
            <ns3:cad>75</ns3:cad>
          </ns3:TrackPointExtension>
        </extensions>
      </trkpt>
      <trkpt lat="47.5506454892456531524658203125" lon="11.05284330435097217559814453125">
        <ele>1800.5999755859375</ele>
        <time>2026-09-01T09:15:59.000Z</time>
        <extensions>
          <ns3:TrackPointExtension>
            <ns3:hr>117</ns3:hr>
            <ns3:cad>75</ns3:cad>
          </ns3:TrackPointExtension>
        </extensions>
      </trkpt>
      <trkpt lat="47.5506290607154369354248046875" lon="11.05286124162375926971435546875">
        <ele>1799.800048828125</ele>
        <time>2026-09-01T09:16:00.000Z</time>
        <extensions>
          <ns3:TrackPointExtension>
            <ns3:hr>116</ns3:hr>
            <ns3:cad>75</ns3:cad>
          </ns3:TrackPointExtension>
        </extensions>
      </trkpt>
      <trkpt lat="47.550617493689060211181640625" lon="11.0528755746781826019287109375">
        <ele>1799</ele>
        <time>2026-09-01T09:16:01.000Z</time>
        <extensions>
          <ns3:TrackPointExtension>
            <ns3:hr>116</ns3:hr>
            <ns3:cad>75</ns3:cad>
          </ns3:TrackPointExtension>
        </extensions>
      </trkpt>
      <trkpt lat="47.55061338655650615692138671875" lon="11.05287373065948486328125">
        <ele>1798.4000244140625</ele>
        <time>2026-09-01T09:16:02.000Z</time>
        <extensions>
          <ns3:TrackPointExtension>
            <ns3:hr>116</ns3:hr>
            <ns3:cad>75</ns3:cad>
          </ns3:TrackPointExtension>
        </extensions>
      </trkpt>
      <trkpt lat="47.55060232244431972503662109375" lon="11.0528681986033916473388671875">
        <ele>1797.800048828125</ele>
        <time>2026-09-01T09:16:03.000Z</time>
        <extensions>
          <ns3:TrackPointExtension>
            <ns3:hr>116</ns3:hr>
            <ns3:cad>75</ns3:cad>
          </ns3:TrackPointExtension>
        </extensions>
      </trkpt>
      <trkpt lat="47.55059125833213329315185546875" lon="11.0528521053493022918701171875">
        <ele>1797.4000244140625</ele>
        <time>2026-09-01T09:16:04.000Z</time>
        <extensions>
          <ns3:TrackPointExtension>
            <ns3:hr>115</ns3:hr>
            <ns3:cad>75</ns3:cad>
          </ns3:TrackPointExtension>
        </extensions>
      </trkpt>
      <trkpt lat="47.55058304406702518463134765625" lon="11.05283844284713268280029296875">
        <ele>1796.800048828125</ele>
        <time>2026-09-01T09:16:05.000Z</time>
        <extensions>
          <ns3:TrackPointExtension>
            <ns3:hr>115</ns3:hr>
            <ns3:cad>75</ns3:cad>
          </ns3:TrackPointExtension>
        </extensions>
      </trkpt>
      <trkpt lat="47.5505744107067584991455078125" lon="11.05282343924045562744140625">
        <ele>1796.5999755859375</ele>
        <time>2026-09-01T09:16:06.000Z</time>
        <extensions>
          <ns3:TrackPointExtension>
            <ns3:hr>115</ns3:hr>
            <ns3:cad>75</ns3:cad>
          </ns3:TrackPointExtension>
        </extensions>
      </trkpt>
      <trkpt lat="47.5505713932216167449951171875" lon="11.052817068994045257568359375">
        <ele>1796</ele>
        <time>2026-09-01T09:16:07.000Z</time>
        <extensions>
          <ns3:TrackPointExtension>
            <ns3:hr>115</ns3:hr>
            <ns3:cad>80</ns3:cad>
          </ns3:TrackPointExtension>
        </extensions>
      </trkpt>
      <trkpt lat="47.55055689252912998199462890625" lon="11.0528175719082355499267578125">
        <ele>1795.199951171875</ele>
        <time>2026-09-01T09:16:08.000Z</time>
        <extensions>
          <ns3:TrackPointExtension>
            <ns3:hr>115</ns3:hr>
            <ns3:cad>80</ns3:cad>
          </ns3:TrackPointExtension>
        </extensions>
      </trkpt>
      <trkpt lat="47.5505496002733707427978515625" lon="11.05282167904078960418701171875">
        <ele>1794.199951171875</ele>
        <time>2026-09-01T09:16:09.000Z</time>
        <extensions>
          <ns3:TrackPointExtension>
            <ns3:hr>114</ns3:hr>
            <ns3:cad>80</ns3:cad>
          </ns3:TrackPointExtension>
        </extensions>
      </trkpt>
      <trkpt lat="47.55053023807704448699951171875" lon="11.0528336651623249053955078125">
        <ele>1793.4000244140625</ele>
        <time>2026-09-01T09:16:10.000Z</time>
        <extensions>
          <ns3:TrackPointExtension>
            <ns3:hr>114</ns3:hr>
            <ns3:cad>83</ns3:cad>
          </ns3:TrackPointExtension>
        </extensions>
      </trkpt>
      <trkpt lat="47.550517581403255462646484375" lon="11.05283643119037151336669921875">
        <ele>1793</ele>
        <time>2026-09-01T09:16:11.000Z</time>
        <extensions>
          <ns3:TrackPointExtension>
            <ns3:hr>113</ns3:hr>
            <ns3:cad>83</ns3:cad>
          </ns3:TrackPointExtension>
        </extensions>
      </trkpt>
      <trkpt lat="47.5504999794065952301025390625" lon="11.0528370179235935211181640625">
        <ele>1792.4000244140625</ele>
        <time>2026-09-01T09:16:12.000Z</time>
        <extensions>
          <ns3:TrackPointExtension>
            <ns3:hr>113</ns3:hr>
            <ns3:cad>41</ns3:cad>
          </ns3:TrackPointExtension>
        </extensions>
      </trkpt>
      <trkpt lat="47.55048681981861591339111328125" lon="11.05283240787684917449951171875">
        <ele>1791.800048828125</ele>
        <time>2026-09-01T09:16:13.000Z</time>
        <extensions>
          <ns3:TrackPointExtension>
            <ns3:hr>113</ns3:hr>
            <ns3:cad>41</ns3:cad>
          </ns3:TrackPointExtension>
        </extensions>
      </trkpt>
      <trkpt lat="47.5504724867641925811767578125" lon="11.0528259538114070892333984375">
        <ele>1791</ele>
        <time>2026-09-01T09:16:14.000Z</time>
        <extensions>
          <ns3:TrackPointExtension>
            <ns3:hr>112</ns3:hr>
            <ns3:cad>79</ns3:cad>
          </ns3:TrackPointExtension>
        </extensions>
      </trkpt>
      <trkpt lat="47.55045019090175628662109375" lon="11.05283324606716632843017578125">
        <ele>1790.4000244140625</ele>
        <time>2026-09-01T09:16:15.000Z</time>
        <extensions>
          <ns3:TrackPointExtension>
            <ns3:hr>112</ns3:hr>
            <ns3:cad>79</ns3:cad>
          </ns3:TrackPointExtension>
        </extensions>
      </trkpt>
      <trkpt lat="47.55043652839958667755126953125" lon="11.05283760465681552886962890625">
        <ele>1789.5999755859375</ele>
        <time>2026-09-01T09:16:16.000Z</time>
        <extensions>
          <ns3:TrackPointExtension>
            <ns3:hr>112</ns3:hr>
            <ns3:cad>79</ns3:cad>
          </ns3:TrackPointExtension>
        </extensions>
      </trkpt>
      <trkpt lat="47.5504178367555141448974609375" lon="11.0528366826474666595458984375">
        <ele>1789</ele>
        <time>2026-09-01T09:16:17.000Z</time>
        <extensions>
          <ns3:TrackPointExtension>
            <ns3:hr>111</ns3:hr>
            <ns3:cad>79</ns3:cad>
          </ns3:TrackPointExtension>
        </extensions>
      </trkpt>
      <trkpt lat="47.55039964802563190460205078125" lon="11.05282880365848541259765625">
        <ele>1788.4000244140625</ele>
        <time>2026-09-01T09:16:18.000Z</time>
        <extensions>
          <ns3:TrackPointExtension>
            <ns3:hr>111</ns3:hr>
            <ns3:cad>79</ns3:cad>
          </ns3:TrackPointExtension>
        </extensions>
      </trkpt>
      <trkpt lat="47.55038707517087459564208984375" lon="11.05282008647918701171875">
        <ele>1787.800048828125</ele>
        <time>2026-09-01T09:16:19.000Z</time>
        <extensions>
          <ns3:TrackPointExtension>
            <ns3:hr>111</ns3:hr>
            <ns3:cad>79</ns3:cad>
          </ns3:TrackPointExtension>
        </extensions>
      </trkpt>
      <trkpt lat="47.5503797829151153564453125" lon="11.0527991317212581634521484375">
        <ele>1787.199951171875</ele>
        <time>2026-09-01T09:16:20.000Z</time>
        <extensions>
          <ns3:TrackPointExtension>
            <ns3:hr>111</ns3:hr>
            <ns3:cad>79</ns3:cad>
          </ns3:TrackPointExtension>
        </extensions>
      </trkpt>
      <trkpt lat="47.5503695569932460784912109375" lon="11.052778176963329315185546875">
        <ele>1786.800048828125</ele>
        <time>2026-09-01T09:16:21.000Z</time>
        <extensions>
          <ns3:TrackPointExtension>
            <ns3:hr>110</ns3:hr>
            <ns3:cad>79</ns3:cad>
          </ns3:TrackPointExtension>
        </extensions>
      </trkpt>
      <trkpt lat="47.55035120062530040740966796875" lon="11.05275931768119335174560546875">
        <ele>1786</ele>
        <time>2026-09-01T09:16:22.000Z</time>
        <extensions>
          <ns3:TrackPointExtension>
            <ns3:hr>110</ns3:hr>
            <ns3:cad>79</ns3:cad>
          </ns3:TrackPointExtension>
        </extensions>
      </trkpt>
      <trkpt lat="47.5503377057611942291259765625" lon="11.05276401154696941375732421875">
        <ele>1785.4000244140625</ele>
        <time>2026-09-01T09:16:23.000Z</time>
        <extensions>
          <ns3:TrackPointExtension>
            <ns3:hr>109</ns3:hr>
            <ns3:cad>79</ns3:cad>
          </ns3:TrackPointExtension>
        </extensions>
      </trkpt>
      <trkpt lat="47.5503212772309780120849609375" lon="11.0527743212878704071044921875">
        <ele>1785</ele>
        <time>2026-09-01T09:16:24.000Z</time>
        <extensions>
          <ns3:TrackPointExtension>
            <ns3:hr>108</ns3:hr>
            <ns3:cad>0</ns3:cad>
          </ns3:TrackPointExtension>
        </extensions>
      </trkpt>
      <trkpt lat="47.55031767301261425018310546875" lon="11.0527756623923778533935546875">
        <ele>1784.4000244140625</ele>
        <time>2026-09-01T09:16:25.000Z</time>
        <extensions>
          <ns3:TrackPointExtension>
            <ns3:hr>108</ns3:hr>
            <ns3:cad>0</ns3:cad>
          </ns3:TrackPointExtension>
        </extensions>
      </trkpt>
      <trkpt lat="47.55030744709074497222900390625" lon="11.05276317335665225982666015625">
        <ele>1783.5999755859375</ele>
        <time>2026-09-01T09:16:26.000Z</time>
        <extensions>
          <ns3:TrackPointExtension>
            <ns3:hr>108</ns3:hr>
            <ns3:cad>0</ns3:cad>
          </ns3:TrackPointExtension>
        </extensions>
      </trkpt>
      <trkpt lat="47.5502964667975902557373046875" lon="11.0527501814067363739013671875">
        <ele>1783</ele>
        <time>2026-09-01T09:16:27.000Z</time>
        <extensions>
          <ns3:TrackPointExtension>
            <ns3:hr>108</ns3:hr>
            <ns3:cad>0</ns3:cad>
          </ns3:TrackPointExtension>
        </extensions>
      </trkpt>
      <trkpt lat="47.5502877496182918548583984375" lon="11.05274540372192859649658203125">
        <ele>1782.4000244140625</ele>
        <time>2026-09-01T09:16:28.000Z</time>
        <extensions>
          <ns3:TrackPointExtension>
            <ns3:hr>107</ns3:hr>
            <ns3:cad>0</ns3:cad>
          </ns3:TrackPointExtension>
        </extensions>
      </trkpt>
      <trkpt lat="47.55027827806770801544189453125" lon="11.052735261619091033935546875">
        <ele>1782</ele>
        <time>2026-09-01T09:16:29.000Z</time>
        <extensions>
          <ns3:TrackPointExtension>
            <ns3:hr>108</ns3:hr>
            <ns3:cad>0</ns3:cad>
          </ns3:TrackPointExtension>
        </extensions>
      </trkpt>
      <trkpt lat="47.55027106963098049163818359375" lon="11.05272880755364894866943359375">
        <ele>1781.4000244140625</ele>
        <time>2026-09-01T09:16:30.000Z</time>
        <extensions>
          <ns3:TrackPointExtension>
            <ns3:hr>108</ns3:hr>
            <ns3:cad>0</ns3:cad>
          </ns3:TrackPointExtension>
        </extensions>
      </trkpt>
      <trkpt lat="47.550260089337825775146484375" lon="11.05271816253662109375">
        <ele>1780.800048828125</ele>
        <time>2026-09-01T09:16:31.000Z</time>
        <extensions>
          <ns3:TrackPointExtension>
            <ns3:hr>107</ns3:hr>
            <ns3:cad>0</ns3:cad>
          </ns3:TrackPointExtension>
        </extensions>
      </trkpt>
      <trkpt lat="47.5502485223114490509033203125" lon="11.05270542204380035400390625">
        <ele>1780.4000244140625</ele>
        <time>2026-09-01T09:16:32.000Z</time>
        <extensions>
          <ns3:TrackPointExtension>
            <ns3:hr>107</ns3:hr>
            <ns3:cad>67</ns3:cad>
          </ns3:TrackPointExtension>
        </extensions>
      </trkpt>
      <trkpt lat="47.55023695528507232666015625" lon="11.05269025079905986785888671875">
        <ele>1779.800048828125</ele>
        <time>2026-09-01T09:16:33.000Z</time>
        <extensions>
          <ns3:TrackPointExtension>
            <ns3:hr>107</ns3:hr>
            <ns3:cad>67</ns3:cad>
          </ns3:TrackPointExtension>
        </extensions>
      </trkpt>
      <trkpt lat="47.55022379569709300994873046875" lon="11.05267398990690708160400390625">
        <ele>1779.4000244140625</ele>
        <time>2026-09-01T09:16:34.000Z</time>
        <extensions>
          <ns3:TrackPointExtension>
            <ns3:hr>106</ns3:hr>
            <ns3:cad>67</ns3:cad>
          </ns3:TrackPointExtension>
        </extensions>
      </trkpt>
      <trkpt lat="47.5502092950046062469482421875" lon="11.05266208760440349578857421875">
        <ele>1778.800048828125</ele>
        <time>2026-09-01T09:16:35.000Z</time>
        <extensions>
          <ns3:TrackPointExtension>
            <ns3:hr>106</ns3:hr>
            <ns3:cad>67</ns3:cad>
          </ns3:TrackPointExtension>
        </extensions>
      </trkpt>
      <trkpt lat="47.5501978956162929534912109375" lon="11.0526604950428009033203125">
        <ele>1778.199951171875</ele>
        <time>2026-09-01T09:16:36.000Z</time>
        <extensions>
          <ns3:TrackPointExtension>
            <ns3:hr>105</ns3:hr>
            <ns3:cad>67</ns3:cad>
          </ns3:TrackPointExtension>
        </extensions>
      </trkpt>
      <trkpt lat="47.55018875934183597564697265625" lon="11.0526633448898792266845703125">
        <ele>1777.5999755859375</ele>
        <time>2026-09-01T09:16:37.000Z</time>
        <extensions>
          <ns3:TrackPointExtension>
            <ns3:hr>105</ns3:hr>
            <ns3:cad>67</ns3:cad>
          </ns3:TrackPointExtension>
        </extensions>
      </trkpt>
      <trkpt lat="47.5501807965338230133056640625" lon="11.05265957303345203399658203125">
        <ele>1777</ele>
        <time>2026-09-01T09:16:38.000Z</time>
        <extensions>
          <ns3:TrackPointExtension>
            <ns3:hr>105</ns3:hr>
            <ns3:cad>67</ns3:cad>
          </ns3:TrackPointExtension>
        </extensions>
      </trkpt>
      <trkpt lat="47.5501700676977634429931640625" lon="11.05264901183545589447021484375">
        <ele>1776.199951171875</ele>
        <time>2026-09-01T09:16:39.000Z</time>
        <extensions>
          <ns3:TrackPointExtension>
            <ns3:hr>105</ns3:hr>
            <ns3:cad>67</ns3:cad>
          </ns3:TrackPointExtension>
        </extensions>
      </trkpt>
      <trkpt lat="47.55015640519559383392333984375" lon="11.05264415033161640167236328125">
        <ele>1775.800048828125</ele>
        <time>2026-09-01T09:16:40.000Z</time>
        <extensions>
          <ns3:TrackPointExtension>
            <ns3:hr>105</ns3:hr>
            <ns3:cad>67</ns3:cad>
          </ns3:TrackPointExtension>
        </extensions>
      </trkpt>
      <trkpt lat="47.55014785565435886383056640625" lon="11.052642054855823516845703125">
        <ele>1775</ele>
        <time>2026-09-01T09:16:41.000Z</time>
        <extensions>
          <ns3:TrackPointExtension>
            <ns3:hr>104</ns3:hr>
            <ns3:cad>67</ns3:cad>
          </ns3:TrackPointExtension>
        </extensions>
      </trkpt>
      <trkpt lat="47.5501392222940921783447265625" lon="11.052640043199062347412109375">
        <ele>1774.4000244140625</ele>
        <time>2026-09-01T09:16:42.000Z</time>
        <extensions>
          <ns3:TrackPointExtension>
            <ns3:hr>105</ns3:hr>
            <ns3:cad>67</ns3:cad>
          </ns3:TrackPointExtension>
        </extensions>
      </trkpt>
      <trkpt lat="47.5501303374767303466796875" lon="11.05263928882777690887451171875">
        <ele>1773.800048828125</ele>
        <time>2026-09-01T09:16:43.000Z</time>
        <extensions>
          <ns3:TrackPointExtension>
            <ns3:hr>104</ns3:hr>
            <ns3:cad>67</ns3:cad>
          </ns3:TrackPointExtension>
        </extensions>
      </trkpt>
      <trkpt lat="47.55012187175452709197998046875" lon="11.05263778008520603179931640625">
        <ele>1773.199951171875</ele>
        <time>2026-09-01T09:16:44.000Z</time>
        <extensions>
          <ns3:TrackPointExtension>
            <ns3:hr>104</ns3:hr>
            <ns3:cad>67</ns3:cad>
          </ns3:TrackPointExtension>
        </extensions>
      </trkpt>
      <trkpt lat="47.55011030472815036773681640625" lon="11.0526341758668422698974609375">
        <ele>1772.5999755859375</ele>
        <time>2026-09-01T09:16:45.000Z</time>
        <extensions>
          <ns3:TrackPointExtension>
            <ns3:hr>103</ns3:hr>
            <ns3:cad>67</ns3:cad>
          </ns3:TrackPointExtension>
        </extensions>
      </trkpt>
      <trkpt lat="47.55009555257856845855712890625" lon="11.0526318289339542388916015625">
        <ele>1772</ele>
        <time>2026-09-01T09:16:46.000Z</time>
        <extensions>
          <ns3:TrackPointExtension>
            <ns3:hr>103</ns3:hr>
            <ns3:cad>67</ns3:cad>
          </ns3:TrackPointExtension>
        </extensions>
      </trkpt>
      <trkpt lat="47.5500805489718914031982421875" lon="11.05262906290590763092041015625">
        <ele>1771.4000244140625</ele>
        <time>2026-09-01T09:16:47.000Z</time>
        <extensions>
          <ns3:TrackPointExtension>
            <ns3:hr>103</ns3:hr>
            <ns3:cad>0</ns3:cad>
          </ns3:TrackPointExtension>
        </extensions>
      </trkpt>
      <trkpt lat="47.550064288079738616943359375" lon="11.05262889526784420013427734375">
        <ele>1771</ele>
        <time>2026-09-01T09:16:48.000Z</time>
        <extensions>
          <ns3:TrackPointExtension>
            <ns3:hr>103</ns3:hr>
            <ns3:cad>0</ns3:cad>
          </ns3:TrackPointExtension>
        </extensions>
      </trkpt>
      <trkpt lat="47.55004945211112499237060546875" lon="11.052632667124271392822265625">
        <ele>1770.4000244140625</ele>
        <time>2026-09-01T09:16:49.000Z</time>
        <extensions>
          <ns3:TrackPointExtension>
            <ns3:hr>103</ns3:hr>
            <ns3:cad>0</ns3:cad>
          </ns3:TrackPointExtension>
        </extensions>
      </trkpt>
      <trkpt lat="47.55003889091312885284423828125" lon="11.05263342149555683135986328125">
        <ele>1769.800048828125</ele>
        <time>2026-09-01T09:16:50.000Z</time>
        <extensions>
          <ns3:TrackPointExtension>
            <ns3:hr>104</ns3:hr>
            <ns3:cad>0</ns3:cad>
          </ns3:TrackPointExtension>
        </extensions>
      </trkpt>
      <trkpt lat="47.55003310739994049072265625" lon="11.05262906290590763092041015625">
        <ele>1769</ele>
        <time>2026-09-01T09:16:51.000Z</time>
        <extensions>
          <ns3:TrackPointExtension>
            <ns3:hr>104</ns3:hr>
            <ns3:cad>0</ns3:cad>
          </ns3:TrackPointExtension>
        </extensions>
      </trkpt>
      <trkpt lat="47.55001877434551715850830078125" lon="11.052632667124271392822265625">
        <ele>1768.4000244140625</ele>
        <time>2026-09-01T09:16:52.000Z</time>
        <extensions>
          <ns3:TrackPointExtension>
            <ns3:hr>104</ns3:hr>
            <ns3:cad>0</ns3:cad>
          </ns3:TrackPointExtension>
        </extensions>
      </trkpt>
      <trkpt lat="47.5500069558620452880859375" lon="11.05263476260006427764892578125">
        <ele>1767.5999755859375</ele>
        <time>2026-09-01T09:16:53.000Z</time>
        <extensions>
          <ns3:TrackPointExtension>
            <ns3:hr>104</ns3:hr>
            <ns3:cad>0</ns3:cad>
          </ns3:TrackPointExtension>
        </extensions>
      </trkpt>
      <trkpt lat="47.549994885921478271484375" lon="11.05263308621942996978759765625">
        <ele>1767</ele>
        <time>2026-09-01T09:16:54.000Z</time>
        <extensions>
          <ns3:TrackPointExtension>
            <ns3:hr>103</ns3:hr>
            <ns3:cad>75</ns3:cad>
          </ns3:TrackPointExtension>
        </extensions>
      </trkpt>
      <trkpt lat="47.54998792894184589385986328125" lon="11.05263124220073223114013671875">
        <ele>1766.4000244140625</ele>
        <time>2026-09-01T09:16:55.000Z</time>
        <extensions>
          <ns3:TrackPointExtension>
            <ns3:hr>104</ns3:hr>
            <ns3:cad>75</ns3:cad>
          </ns3:TrackPointExtension>
        </extensions>
      </trkpt>
      <trkpt lat="47.54997812211513519287109375" lon="11.052627973258495330810546875">
        <ele>1765.800048828125</ele>
        <time>2026-09-01T09:16:56.000Z</time>
        <extensions>
          <ns3:TrackPointExtension>
            <ns3:hr>104</ns3:hr>
            <ns3:cad>75</ns3:cad>
          </ns3:TrackPointExtension>
        </extensions>
      </trkpt>
      <trkpt lat="47.54997133277356624603271484375" lon="11.0526224412024021148681640625">
        <ele>1765.199951171875</ele>
        <time>2026-09-01T09:16:57.000Z</time>
        <extensions>
          <ns3:TrackPointExtension>
            <ns3:hr>103</ns3:hr>
            <ns3:cad>75</ns3:cad>
          </ns3:TrackPointExtension>
        </extensions>
      </trkpt>
      <trkpt lat="47.54996546544134616851806640625" lon="11.052618920803070068359375">
        <ele>1764.5999755859375</ele>
        <time>2026-09-01T09:16:58.000Z</time>
        <extensions>
          <ns3:TrackPointExtension>
            <ns3:hr>104</ns3:hr>
            <ns3:cad>75</ns3:cad>
          </ns3:TrackPointExtension>
        </extensions>
      </trkpt>
      <trkpt lat="47.5499538145959377288818359375" lon="11.0526147298514842987060546875">
        <ele>1764.199951171875</ele>
        <time>2026-09-01T09:16:59.000Z</time>
        <extensions>
          <ns3:TrackPointExtension>
            <ns3:hr>104</ns3:hr>
            <ns3:cad>75</ns3:cad>
          </ns3:TrackPointExtension>
        </extensions>
      </trkpt>
      <trkpt lat="47.54993143491446971893310546875" lon="11.05258950032293796539306640625">
        <ele>1763.5999755859375</ele>
        <time>2026-09-01T09:17:00.000Z</time>
        <extensions>
          <ns3:TrackPointExtension>
            <ns3:hr>105</ns3:hr>
            <ns3:cad>75</ns3:cad>
          </ns3:TrackPointExtension>
        </extensions>
      </trkpt>
      <trkpt lat="47.54992288537323474884033203125" lon="11.05257541872560977935791015625">
        <ele>1763</ele>
        <time>2026-09-01T09:17:01.000Z</time>
        <extensions>
          <ns3:TrackPointExtension>
            <ns3:hr>105</ns3:hr>
            <ns3:cad>75</ns3:cad>
          </ns3:TrackPointExtension>
        </extensions>
      </trkpt>
      <trkpt lat="47.549909055233001708984375" lon="11.05256058275699615478515625">
        <ele>1762</ele>
        <time>2026-09-01T09:17:02.000Z</time>
        <extensions>
          <ns3:TrackPointExtension>
            <ns3:hr>105</ns3:hr>
            <ns3:cad>54</ns3:cad>
          </ns3:TrackPointExtension>
        </extensions>
      </trkpt>
      <trkpt lat="47.54989002831280231475830078125" lon="11.0525530390441417694091796875">
        <ele>1761.199951171875</ele>
        <time>2026-09-01T09:17:03.000Z</time>
        <extensions>
          <ns3:TrackPointExtension>
            <ns3:hr>104</ns3:hr>
            <ns3:cad>54</ns3:cad>
          </ns3:TrackPointExtension>
        </extensions>
      </trkpt>
      <trkpt lat="47.5498713366687297821044921875" lon="11.05254055000841617584228515625">
        <ele>1760.4000244140625</ele>
        <time>2026-09-01T09:17:04.000Z</time>
        <extensions>
          <ns3:TrackPointExtension>
            <ns3:hr>105</ns3:hr>
            <ns3:cad>54</ns3:cad>
          </ns3:TrackPointExtension>
        </extensions>
      </trkpt>
      <trkpt lat="47.54984325729310512542724609375" lon="11.05255295522511005401611328125">
        <ele>1759.5999755859375</ele>
        <time>2026-09-01T09:17:05.000Z</time>
        <extensions>
          <ns3:TrackPointExtension>
            <ns3:hr>105</ns3:hr>
            <ns3:cad>54</ns3:cad>
          </ns3:TrackPointExtension>
        </extensions>
      </trkpt>
      <trkpt lat="47.54982448183000087738037109375" lon="11.05255697853863239288330078125">
        <ele>1759</ele>
        <time>2026-09-01T09:17:06.000Z</time>
        <extensions>
          <ns3:TrackPointExtension>
            <ns3:hr>105</ns3:hr>
            <ns3:cad>54</ns3:cad>
          </ns3:TrackPointExtension>
        </extensions>
      </trkpt>
      <trkpt lat="47.54981174133718013763427734375" lon="11.05255924165248870849609375">
        <ele>1758.4000244140625</ele>
        <time>2026-09-01T09:17:07.000Z</time>
        <extensions>
          <ns3:TrackPointExtension>
            <ns3:hr>105</ns3:hr>
            <ns3:cad>40</ns3:cad>
          </ns3:TrackPointExtension>
        </extensions>
      </trkpt>
      <trkpt lat="47.54980511963367462158203125" lon="11.0525322519242763519287109375">
        <ele>1757.800048828125</ele>
        <time>2026-09-01T09:17:08.000Z</time>
        <extensions>
          <ns3:TrackPointExtension>
            <ns3:hr>105</ns3:hr>
            <ns3:cad>40</ns3:cad>
          </ns3:TrackPointExtension>
        </extensions>
      </trkpt>
      <trkpt lat="47.54979363642632961273193359375" lon="11.05250333435833454132080078125">
        <ele>1757.199951171875</ele>
        <time>2026-09-01T09:17:09.000Z</time>
        <extensions>
          <ns3:TrackPointExtension>
            <ns3:hr>105</ns3:hr>
            <ns3:cad>70</ns3:cad>
          </ns3:TrackPointExtension>
        </extensions>
      </trkpt>
      <trkpt lat="47.54978768527507781982421875" lon="11.052495874464511871337890625">
        <ele>1756.5999755859375</ele>
        <time>2026-09-01T09:17:10.000Z</time>
        <extensions>
          <ns3:TrackPointExtension>
            <ns3:hr>105</ns3:hr>
            <ns3:cad>75</ns3:cad>
          </ns3:TrackPointExtension>
        </extensions>
      </trkpt>
      <trkpt lat="47.54976899363100528717041015625" lon="11.052479445934295654296875">
        <ele>1756</ele>
        <time>2026-09-01T09:17:11.000Z</time>
        <extensions>
          <ns3:TrackPointExtension>
            <ns3:hr>105</ns3:hr>
            <ns3:cad>77</ns3:cad>
          </ns3:TrackPointExtension>
        </extensions>
      </trkpt>
      <trkpt lat="47.54974770359694957733154296875" lon="11.05247919447720050811767578125">
        <ele>1755.4000244140625</ele>
        <time>2026-09-01T09:17:12.000Z</time>
        <extensions>
          <ns3:TrackPointExtension>
            <ns3:hr>105</ns3:hr>
            <ns3:cad>77</ns3:cad>
          </ns3:TrackPointExtension>
        </extensions>
      </trkpt>
      <trkpt lat="47.54973596893250942230224609375" lon="11.05247030965983867645263671875">
        <ele>1754.5999755859375</ele>
        <time>2026-09-01T09:17:13.000Z</time>
        <extensions>
          <ns3:TrackPointExtension>
            <ns3:hr>105</ns3:hr>
            <ns3:cad>77</ns3:cad>
          </ns3:TrackPointExtension>
        </extensions>
      </trkpt>
      <trkpt lat="47.54972255788743495941162109375" lon="11.05245321057736873626708984375">
        <ele>1754</ele>
        <time>2026-09-01T09:17:14.000Z</time>
        <extensions>
          <ns3:TrackPointExtension>
            <ns3:hr>105</ns3:hr>
            <ns3:cad>77</ns3:cad>
          </ns3:TrackPointExtension>
        </extensions>
      </trkpt>
      <trkpt lat="47.54969942383468151092529296875" lon="11.05241901241242885589599609375">
        <ele>1753.5999755859375</ele>
        <time>2026-09-01T09:17:15.000Z</time>
        <extensions>
          <ns3:TrackPointExtension>
            <ns3:hr>106</ns3:hr>
            <ns3:cad>77</ns3:cad>
          </ns3:TrackPointExtension>
        </extensions>
      </trkpt>
      <trkpt lat="47.54967235028743743896484375" lon="11.05239772237837314605712890625">
        <ele>1753.199951171875</ele>
        <time>2026-09-01T09:17:16.000Z</time>
        <extensions>
          <ns3:TrackPointExtension>
            <ns3:hr>105</ns3:hr>
            <ns3:cad>77</ns3:cad>
          </ns3:TrackPointExtension>
        </extensions>
      </trkpt>
      <trkpt lat="47.54965214990079402923583984375" lon="11.05237006209790706634521484375">
        <ele>1752.5999755859375</ele>
        <time>2026-09-01T09:17:17.000Z</time>
        <extensions>
          <ns3:TrackPointExtension>
            <ns3:hr>106</ns3:hr>
            <ns3:cad>77</ns3:cad>
          </ns3:TrackPointExtension>
        </extensions>
      </trkpt>
      <trkpt lat="47.5496309436857700347900390625" lon="11.0523357801139354705810546875">
        <ele>1752.199951171875</ele>
        <time>2026-09-01T09:17:18.000Z</time>
        <extensions>
          <ns3:TrackPointExtension>
            <ns3:hr>106</ns3:hr>
            <ns3:cad>77</ns3:cad>
          </ns3:TrackPointExtension>
        </extensions>
      </trkpt>
      <trkpt lat="47.5496118329465389251708984375" lon="11.0523136518895626068115234375">
        <ele>1751.800048828125</ele>
        <time>2026-09-01T09:17:19.000Z</time>
        <extensions>
          <ns3:TrackPointExtension>
            <ns3:hr>106</ns3:hr>
            <ns3:cad>77</ns3:cad>
          </ns3:TrackPointExtension>
        </extensions>
      </trkpt>
      <trkpt lat="47.54959280602633953094482421875" lon="11.05230082757771015167236328125">
        <ele>1751.800048828125</ele>
        <time>2026-09-01T09:17:20.000Z</time>
        <extensions>
          <ns3:TrackPointExtension>
            <ns3:hr>106</ns3:hr>
            <ns3:cad>81</ns3:cad>
          </ns3:TrackPointExtension>
        </extensions>
      </trkpt>
      <trkpt lat="47.54956908524036407470703125" lon="11.052297055721282958984375">
        <ele>1751.800048828125</ele>
        <time>2026-09-01T09:17:21.000Z</time>
        <extensions>
          <ns3:TrackPointExtension>
            <ns3:hr>107</ns3:hr>
            <ns3:cad>81</ns3:cad>
          </ns3:TrackPointExtension>
        </extensions>
      </trkpt>
      <trkpt lat="47.54955039359629154205322265625" lon="11.0522831417620182037353515625">
        <ele>1751.800048828125</ele>
        <time>2026-09-01T09:17:22.000Z</time>
        <extensions>
          <ns3:TrackPointExtension>
            <ns3:hr>107</ns3:hr>
            <ns3:cad>81</ns3:cad>
          </ns3:TrackPointExtension>
        </extensions>
      </trkpt>
      <trkpt lat="47.549543268978595733642578125" lon="11.05227216146886348724365234375">
        <ele>1751.800048828125</ele>
        <time>2026-09-01T09:17:23.000Z</time>
        <extensions>
          <ns3:TrackPointExtension>
            <ns3:hr>108</ns3:hr>
            <ns3:cad>81</ns3:cad>
          </ns3:TrackPointExtension>
        </extensions>
      </trkpt>
      <trkpt lat="47.549535892903804779052734375" lon="11.05227014981210231781005859375">
        <ele>1751.5999755859375</ele>
        <time>2026-09-01T09:17:24.000Z</time>
        <extensions>
          <ns3:TrackPointExtension>
            <ns3:hr>108</ns3:hr>
            <ns3:cad>81</ns3:cad>
          </ns3:TrackPointExtension>
        </extensions>
      </trkpt>
      <trkpt lat="47.54952021874487400054931640625" lon="11.05227316729724407196044921875">
        <ele>1751.4000244140625</ele>
        <time>2026-09-01T09:17:25.000Z</time>
        <extensions>
          <ns3:TrackPointExtension>
            <ns3:hr>108</ns3:hr>
            <ns3:cad>81</ns3:cad>
          </ns3:TrackPointExtension>
        </extensions>
      </trkpt>
      <trkpt lat="47.54950596950948238372802734375" lon="11.0522667132318019866943359375">
        <ele>1751</ele>
        <time>2026-09-01T09:17:26.000Z</time>
        <extensions>
          <ns3:TrackPointExtension>
            <ns3:hr>107</ns3:hr>
            <ns3:cad>81</ns3:cad>
          </ns3:TrackPointExtension>
        </extensions>
      </trkpt>
      <trkpt lat="47.54950144328176975250244140625" lon="11.0522554814815521240234375">
        <ele>1750.4000244140625</ele>
        <time>2026-09-01T09:17:27.000Z</time>
        <extensions>
          <ns3:TrackPointExtension>
            <ns3:hr>106</ns3:hr>
            <ns3:cad>73</ns3:cad>
          </ns3:TrackPointExtension>
        </extensions>
      </trkpt>
      <trkpt lat="47.54949021153151988983154296875" lon="11.052243076264858245849609375">
        <ele>1749.800048828125</ele>
        <time>2026-09-01T09:17:28.000Z</time>
        <extensions>
          <ns3:TrackPointExtension>
            <ns3:hr>105</ns3:hr>
            <ns3:cad>73</ns3:cad>
          </ns3:TrackPointExtension>
        </extensions>
      </trkpt>
      <trkpt lat="47.5494850985705852508544921875" lon="11.05222840793430805206298828125">
        <ele>1749.199951171875</ele>
        <time>2026-09-01T09:17:29.000Z</time>
        <extensions>
          <ns3:TrackPointExtension>
            <ns3:hr>105</ns3:hr>
            <ns3:cad>73</ns3:cad>
          </ns3:TrackPointExtension>
        </extensions>
      </trkpt>
      <trkpt lat="47.54947721958160400390625" lon="11.05220653116703033447265625">
        <ele>1748.800048828125</ele>
        <time>2026-09-01T09:17:30.000Z</time>
        <extensions>
          <ns3:TrackPointExtension>
            <ns3:hr>104</ns3:hr>
            <ns3:cad>73</ns3:cad>
          </ns3:TrackPointExtension>
        </extensions>
      </trkpt>
      <trkpt lat="47.549454085528850555419921875" lon="11.0521924495697021484375">
        <ele>1747.800048828125</ele>
        <time>2026-09-01T09:17:31.000Z</time>
        <extensions>
          <ns3:TrackPointExtension>
            <ns3:hr>104</ns3:hr>
            <ns3:cad>73</ns3:cad>
          </ns3:TrackPointExtension>
        </extensions>
      </trkpt>
      <trkpt lat="47.54943430423736572265625" lon="11.05218180455267429351806640625">
        <ele>1747.199951171875</ele>
        <time>2026-09-01T09:17:32.000Z</time>
        <extensions>
          <ns3:TrackPointExtension>
            <ns3:hr>104</ns3:hr>
            <ns3:cad>73</ns3:cad>
          </ns3:TrackPointExtension>
        </extensions>
      </trkpt>
      <trkpt lat="47.5494187138974666595458984375" lon="11.0521600954234600067138671875">
        <ele>1746.4000244140625</ele>
        <time>2026-09-01T09:17:33.000Z</time>
        <extensions>
          <ns3:TrackPointExtension>
            <ns3:hr>104</ns3:hr>
            <ns3:cad>73</ns3:cad>
          </ns3:TrackPointExtension>
        </extensions>
      </trkpt>
      <trkpt lat="47.54941443912684917449951171875" lon="11.0521292500197887420654296875">
        <ele>1745.800048828125</ele>
        <time>2026-09-01T09:17:34.000Z</time>
        <extensions>
          <ns3:TrackPointExtension>
            <ns3:hr>104</ns3:hr>
            <ns3:cad>77</ns3:cad>
          </ns3:TrackPointExtension>
        </extensions>
      </trkpt>
      <trkpt lat="47.5494046323001384735107421875" lon="11.052110306918621063232421875">
        <ele>1745.4000244140625</ele>
        <time>2026-09-01T09:17:35.000Z</time>
        <extensions>
          <ns3:TrackPointExtension>
            <ns3:hr>104</ns3:hr>
            <ns3:cad>77</ns3:cad>
          </ns3:TrackPointExtension>
        </extensions>
      </trkpt>
      <trkpt lat="47.54939231090247631072998046875" lon="11.0520957224071025848388671875">
        <ele>1745</ele>
        <time>2026-09-01T09:17:36.000Z</time>
        <extensions>
          <ns3:TrackPointExtension>
            <ns3:hr>105</ns3:hr>
            <ns3:cad>75</ns3:cad>
          </ns3:TrackPointExtension>
        </extensions>
      </trkpt>
      <trkpt lat="47.54938107915222644805908203125" lon="11.05207803659141063690185546875">
        <ele>1744.800048828125</ele>
        <time>2026-09-01T09:17:37.000Z</time>
        <extensions>
          <ns3:TrackPointExtension>
            <ns3:hr>105</ns3:hr>
            <ns3:cad>75</ns3:cad>
          </ns3:TrackPointExtension>
        </extensions>
      </trkpt>
      <trkpt lat="47.549372613430023193359375" lon="11.05206294916570186614990234375">
        <ele>1744.4000244140625</ele>
        <time>2026-09-01T09:17:38.000Z</time>
        <extensions>
          <ns3:TrackPointExtension>
            <ns3:hr>106</ns3:hr>
            <ns3:cad>75</ns3:cad>
          </ns3:TrackPointExtension>
        </extensions>
      </trkpt>
      <trkpt lat="47.54936230368912220001220703125" lon="11.05205121450126171112060546875">
        <ele>1744</ele>
        <time>2026-09-01T09:17:39.000Z</time>
        <extensions>
          <ns3:TrackPointExtension>
            <ns3:hr>107</ns3:hr>
            <ns3:cad>75</ns3:cad>
          </ns3:TrackPointExtension>
        </extensions>
      </trkpt>
      <trkpt lat="47.54935593344271183013916015625" lon="11.052040569484233856201171875">
        <ele>1743.4000244140625</ele>
        <time>2026-09-01T09:17:40.000Z</time>
        <extensions>
          <ns3:TrackPointExtension>
            <ns3:hr>106</ns3:hr>
            <ns3:cad>75</ns3:cad>
          </ns3:TrackPointExtension>
        </extensions>
      </trkpt>
      <trkpt lat="47.5493496470153331756591796875" lon="11.05203445069491863250732421875">
        <ele>1742.800048828125</ele>
        <time>2026-09-01T09:17:41.000Z</time>
        <extensions>
          <ns3:TrackPointExtension>
            <ns3:hr>106</ns3:hr>
            <ns3:cad>66</ns3:cad>
          </ns3:TrackPointExtension>
        </extensions>
      </trkpt>
      <trkpt lat="47.549333386123180389404296875" lon="11.0520219616591930389404296875">
        <ele>1742</ele>
        <time>2026-09-01T09:17:42.000Z</time>
        <extensions>
          <ns3:TrackPointExtension>
            <ns3:hr>105</ns3:hr>
            <ns3:cad>66</ns3:cad>
          </ns3:TrackPointExtension>
        </extensions>
      </trkpt>
      <trkpt lat="47.5493214838206768035888671875" lon="11.05201215483248233795166015625">
        <ele>1741</ele>
        <time>2026-09-01T09:17:43.000Z</time>
        <extensions>
          <ns3:TrackPointExtension>
            <ns3:hr>105</ns3:hr>
            <ns3:cad>66</ns3:cad>
          </ns3:TrackPointExtension>
        </extensions>
      </trkpt>
      <trkpt lat="47.54931285046041011810302734375" lon="11.0519961453974246978759765625">
        <ele>1740.199951171875</ele>
        <time>2026-09-01T09:17:44.000Z</time>
        <extensions>
          <ns3:TrackPointExtension>
            <ns3:hr>105</ns3:hr>
            <ns3:cad>66</ns3:cad>
          </ns3:TrackPointExtension>
        </extensions>
      </trkpt>
      <trkpt lat="47.54930580966174602508544921875" lon="11.05197913013398647308349609375">
        <ele>1739.5999755859375</ele>
        <time>2026-09-01T09:17:45.000Z</time>
        <extensions>
          <ns3:TrackPointExtension>
            <ns3:hr>105</ns3:hr>
            <ns3:cad>76</ns3:cad>
          </ns3:TrackPointExtension>
        </extensions>
      </trkpt>
      <trkpt lat="47.5493013672530651092529296875" lon="11.05196513235569000244140625">
        <ele>1739.199951171875</ele>
        <time>2026-09-01T09:17:46.000Z</time>
        <extensions>
          <ns3:TrackPointExtension>
            <ns3:hr>105</ns3:hr>
            <ns3:cad>76</ns3:cad>
          </ns3:TrackPointExtension>
        </extensions>
      </trkpt>
      <trkpt lat="47.54929457791149616241455078125" lon="11.0519585944712162017822265625">
        <ele>1738.800048828125</ele>
        <time>2026-09-01T09:17:47.000Z</time>
        <extensions>
          <ns3:TrackPointExtension>
            <ns3:hr>105</ns3:hr>
            <ns3:cad>76</ns3:cad>
          </ns3:TrackPointExtension>
        </extensions>
      </trkpt>
      <trkpt lat="47.5492909736931324005126953125" lon="11.0519582591950893402099609375">
        <ele>1738.5999755859375</ele>
        <time>2026-09-01T09:17:48.000Z</time>
        <extensions>
          <ns3:TrackPointExtension>
            <ns3:hr>105</ns3:hr>
            <ns3:cad>76</ns3:cad>
          </ns3:TrackPointExtension>
        </extensions>
      </trkpt>
      <trkpt lat="47.54928234033286571502685546875" lon="11.05196102522313594818115234375">
        <ele>1738.4000244140625</ele>
        <time>2026-09-01T09:17:49.000Z</time>
        <extensions>
          <ns3:TrackPointExtension>
            <ns3:hr>105</ns3:hr>
            <ns3:cad>76</ns3:cad>
          </ns3:TrackPointExtension>
        </extensions>
      </trkpt>
      <trkpt lat="47.5492658279836177825927734375" lon="11.0519632883369922637939453125">
        <ele>1738</ele>
        <time>2026-09-01T09:17:50.000Z</time>
        <extensions>
          <ns3:TrackPointExtension>
            <ns3:hr>105</ns3:hr>
            <ns3:cad>71</ns3:cad>
          </ns3:TrackPointExtension>
        </extensions>
      </trkpt>
      <trkpt lat="47.54925618879497051239013671875" lon="11.05196622200310230255126953125">
        <ele>1737.4000244140625</ele>
        <time>2026-09-01T09:17:51.000Z</time>
        <extensions>
          <ns3:TrackPointExtension>
            <ns3:hr>104</ns3:hr>
            <ns3:cad>71</ns3:cad>
          </ns3:TrackPointExtension>
        </extensions>
      </trkpt>
      <trkpt lat="47.54923154599964618682861328125" lon="11.05196471326053142547607421875">
        <ele>1737</ele>
        <time>2026-09-01T09:17:52.000Z</time>
        <extensions>
          <ns3:TrackPointExtension>
            <ns3:hr>104</ns3:hr>
            <ns3:cad>71</ns3:cad>
          </ns3:TrackPointExtension>
        </extensions>
      </trkpt>
      <trkpt lat="47.5492108426988124847412109375" lon="11.051958091557025909423828125">
        <ele>1736.4000244140625</ele>
        <time>2026-09-01T09:17:53.000Z</time>
        <extensions>
          <ns3:TrackPointExtension>
            <ns3:hr>104</ns3:hr>
            <ns3:cad>71</ns3:cad>
          </ns3:TrackPointExtension>
        </extensions>
      </trkpt>
      <trkpt lat="47.54919751547276973724365234375" lon="11.0519465245306491851806640625">
        <ele>1735.800048828125</ele>
        <time>2026-09-01T09:17:54.000Z</time>
        <extensions>
          <ns3:TrackPointExtension>
            <ns3:hr>104</ns3:hr>
            <ns3:cad>71</ns3:cad>
          </ns3:TrackPointExtension>
        </extensions>
      </trkpt>
      <trkpt lat="47.5491836853325366973876953125" lon="11.05193562805652618408203125">
        <ele>1735.199951171875</ele>
        <time>2026-09-01T09:17:55.000Z</time>
        <extensions>
          <ns3:TrackPointExtension>
            <ns3:hr>105</ns3:hr>
            <ns3:cad>71</ns3:cad>
          </ns3:TrackPointExtension>
        </extensions>
      </trkpt>
      <trkpt lat="47.54916734062135219573974609375" lon="11.05194509960711002349853515625">
        <ele>1734.5999755859375</ele>
        <time>2026-09-01T09:17:56.000Z</time>
        <extensions>
          <ns3:TrackPointExtension>
            <ns3:hr>105</ns3:hr>
            <ns3:cad>71</ns3:cad>
          </ns3:TrackPointExtension>
        </extensions>
      </trkpt>
      <trkpt lat="47.549153678119182586669921875" lon="11.0519562475383281707763671875">
        <ele>1734.199951171875</ele>
        <time>2026-09-01T09:17:57.000Z</time>
        <extensions>
          <ns3:TrackPointExtension>
            <ns3:hr>105</ns3:hr>
            <ns3:cad>41</ns3:cad>
          </ns3:TrackPointExtension>
        </extensions>
      </trkpt>
      <trkpt lat="47.54913398064672946929931640625" lon="11.05197317898273468017578125">
        <ele>1733.5999755859375</ele>
        <time>2026-09-01T09:17:58.000Z</time>
        <extensions>
          <ns3:TrackPointExtension>
            <ns3:hr>105</ns3:hr>
            <ns3:cad>41</ns3:cad>
          </ns3:TrackPointExtension>
        </extensions>
      </trkpt>
      <trkpt lat="47.5491196475923061370849609375" lon="11.05198256671428680419921875">
        <ele>1732.800048828125</ele>
        <time>2026-09-01T09:17:59.000Z</time>
        <extensions>
          <ns3:TrackPointExtension>
            <ns3:hr>105</ns3:hr>
            <ns3:cad>41</ns3:cad>
          </ns3:TrackPointExtension>
        </extensions>
      </trkpt>
      <trkpt lat="47.549096010625362396240234375" lon="11.051994301378726959228515625">
        <ele>1732.4000244140625</ele>
        <time>2026-09-01T09:18:00.000Z</time>
        <extensions>
          <ns3:TrackPointExtension>
            <ns3:hr>106</ns3:hr>
            <ns3:cad>41</ns3:cad>
          </ns3:TrackPointExtension>
        </extensions>
      </trkpt>
      <trkpt lat="47.54906977526843547821044921875" lon="11.051985919475555419921875">
        <ele>1731.5999755859375</ele>
        <time>2026-09-01T09:18:01.000Z</time>
        <extensions>
          <ns3:TrackPointExtension>
            <ns3:hr>106</ns3:hr>
            <ns3:cad>41</ns3:cad>
          </ns3:TrackPointExtension>
        </extensions>
      </trkpt>
      <trkpt lat="47.54905217327177524566650390625" lon="11.05196823365986347198486328125">
        <ele>1731</ele>
        <time>2026-09-01T09:18:02.000Z</time>
        <extensions>
          <ns3:TrackPointExtension>
            <ns3:hr>106</ns3:hr>
            <ns3:cad>41</ns3:cad>
          </ns3:TrackPointExtension>
        </extensions>
      </trkpt>
      <trkpt lat="47.54903138615190982818603515625" lon="11.05194677598774433135986328125">
        <ele>1730.4000244140625</ele>
        <time>2026-09-01T09:18:03.000Z</time>
        <extensions>
          <ns3:TrackPointExtension>
            <ns3:hr>106</ns3:hr>
            <ns3:cad>41</ns3:cad>
          </ns3:TrackPointExtension>
        </extensions>
      </trkpt>
      <trkpt lat="47.54901646636426448822021484375" lon="11.05192632414400577545166015625">
        <ele>1729.5999755859375</ele>
        <time>2026-09-01T09:18:04.000Z</time>
        <extensions>
          <ns3:TrackPointExtension>
            <ns3:hr>106</ns3:hr>
            <ns3:cad>41</ns3:cad>
          </ns3:TrackPointExtension>
        </extensions>
      </trkpt>
      <trkpt lat="47.5490043126046657562255859375" lon="11.05191257782280445098876953125">
        <ele>1729</ele>
        <time>2026-09-01T09:18:05.000Z</time>
        <extensions>
          <ns3:TrackPointExtension>
            <ns3:hr>107</ns3:hr>
            <ns3:cad>41</ns3:cad>
          </ns3:TrackPointExtension>
        </extensions>
      </trkpt>
      <trkpt lat="47.54897137172520160675048828125" lon="11.05187552981078624725341796875">
        <ele>1728.5999755859375</ele>
        <time>2026-09-01T09:18:06.000Z</time>
        <extensions>
          <ns3:TrackPointExtension>
            <ns3:hr>107</ns3:hr>
            <ns3:cad>41</ns3:cad>
          </ns3:TrackPointExtension>
        </extensions>
      </trkpt>
      <trkpt lat="47.548946477472782135009765625" lon="11.0518638789653778076171875">
        <ele>1728</ele>
        <time>2026-09-01T09:18:07.000Z</time>
        <extensions>
          <ns3:TrackPointExtension>
            <ns3:hr>108</ns3:hr>
            <ns3:cad>79</ns3:cad>
          </ns3:TrackPointExtension>
        </extensions>
      </trkpt>
      <trkpt lat="47.5489231757819652557373046875" lon="11.0518506355583667755126953125">
        <ele>1727.5999755859375</ele>
        <time>2026-09-01T09:18:08.000Z</time>
        <extensions>
          <ns3:TrackPointExtension>
            <ns3:hr>109</ns3:hr>
            <ns3:cad>79</ns3:cad>
          </ns3:TrackPointExtension>
        </extensions>
      </trkpt>
      <trkpt lat="47.5489018857479095458984375" lon="11.05183579958975315093994140625">
        <ele>1727.4000244140625</ele>
        <time>2026-09-01T09:18:09.000Z</time>
        <extensions>
          <ns3:TrackPointExtension>
            <ns3:hr>109</ns3:hr>
            <ns3:cad>79</ns3:cad>
          </ns3:TrackPointExtension>
        </extensions>
      </trkpt>
      <trkpt lat="47.54888285882771015167236328125" lon="11.0518214665353298187255859375">
        <ele>1726.800048828125</ele>
        <time>2026-09-01T09:18:10.000Z</time>
        <extensions>
          <ns3:TrackPointExtension>
            <ns3:hr>110</ns3:hr>
            <ns3:cad>79</ns3:cad>
          </ns3:TrackPointExtension>
        </extensions>
      </trkpt>
      <trkpt lat="47.54887497983872890472412109375" lon="11.05181970633566379547119140625">
        <ele>1726.199951171875</ele>
        <time>2026-09-01T09:18:11.000Z</time>
        <extensions>
          <ns3:TrackPointExtension>
            <ns3:hr>110</ns3:hr>
            <ns3:cad>79</ns3:cad>
          </ns3:TrackPointExtension>
        </extensions>
      </trkpt>
      <trkpt lat="47.5488594733178615570068359375" lon="11.051820628345012664794921875">
        <ele>1725.800048828125</ele>
        <time>2026-09-01T09:18:12.000Z</time>
        <extensions>
          <ns3:TrackPointExtension>
            <ns3:hr>111</ns3:hr>
            <ns3:cad>79</ns3:cad>
          </ns3:TrackPointExtension>
        </extensions>
      </trkpt>
      <trkpt lat="47.5488406978547573089599609375" lon="11.05181065388023853302001953125">
        <ele>1725.199951171875</ele>
        <time>2026-09-01T09:18:13.000Z</time>
        <extensions>
          <ns3:TrackPointExtension>
            <ns3:hr>112</ns3:hr>
            <ns3:cad>41</ns3:cad>
          </ns3:TrackPointExtension>
        </extensions>
      </trkpt>
      <trkpt lat="47.5488242693245410919189453125" lon="11.05179891921579837799072265625">
        <ele>1724.4000244140625</ele>
        <time>2026-09-01T09:18:14.000Z</time>
        <extensions>
          <ns3:TrackPointExtension>
            <ns3:hr>112</ns3:hr>
            <ns3:cad>41</ns3:cad>
          </ns3:TrackPointExtension>
        </extensions>
      </trkpt>
      <trkpt lat="47.5488125346601009368896484375" lon="11.051785759627819061279296875">
        <ele>1723.800048828125</ele>
        <time>2026-09-01T09:18:15.000Z</time>
        <extensions>
          <ns3:TrackPointExtension>
            <ns3:hr>113</ns3:hr>
            <ns3:cad>79</ns3:cad>
          </ns3:TrackPointExtension>
        </extensions>
      </trkpt>
      <trkpt lat="47.54879049025475978851318359375" lon="11.05176941491663455963134765625">
        <ele>1722.5999755859375</ele>
        <time>2026-09-01T09:18:16.000Z</time>
        <extensions>
          <ns3:TrackPointExtension>
            <ns3:hr>113</ns3:hr>
            <ns3:cad>79</ns3:cad>
          </ns3:TrackPointExtension>
        </extensions>
      </trkpt>
      <trkpt lat="47.54876308143138885498046875" lon="11.05175415985286235809326171875">
        <ele>1722</ele>
        <time>2026-09-01T09:18:17.000Z</time>
        <extensions>
          <ns3:TrackPointExtension>
            <ns3:hr>113</ns3:hr>
            <ns3:cad>79</ns3:cad>
          </ns3:TrackPointExtension>
        </extensions>
      </trkpt>
      <trkpt lat="47.5487394444644451141357421875" lon="11.0517433471977710723876953125">
        <ele>1721.5999755859375</ele>
        <time>2026-09-01T09:18:18.000Z</time>
        <extensions>
          <ns3:TrackPointExtension>
            <ns3:hr>113</ns3:hr>
            <ns3:cad>80</ns3:cad>
          </ns3:TrackPointExtension>
        </extensions>
      </trkpt>
      <trkpt lat="47.5487122870981693267822265625" lon="11.05173722840845584869384765625">
        <ele>1721.199951171875</ele>
        <time>2026-09-01T09:18:19.000Z</time>
        <extensions>
          <ns3:TrackPointExtension>
            <ns3:hr>113</ns3:hr>
            <ns3:cad>80</ns3:cad>
          </ns3:TrackPointExtension>
        </extensions>
      </trkpt>
      <trkpt lat="47.54869191907346248626708984375" lon="11.05172817595303058624267578125">
        <ele>1721.199951171875</ele>
        <time>2026-09-01T09:18:20.000Z</time>
        <extensions>
          <ns3:TrackPointExtension>
            <ns3:hr>114</ns3:hr>
            <ns3:cad>80</ns3:cad>
          </ns3:TrackPointExtension>
        </extensions>
      </trkpt>
      <trkpt lat="47.54866593517363071441650390625" lon="11.05171660892665386199951171875">
        <ele>1720.800048828125</ele>
        <time>2026-09-01T09:18:21.000Z</time>
        <extensions>
          <ns3:TrackPointExtension>
            <ns3:hr>114</ns3:hr>
            <ns3:cad>82</ns3:cad>
          </ns3:TrackPointExtension>
        </extensions>
      </trkpt>
      <trkpt lat="47.54863643087446689605712890625" lon="11.05171166360378265380859375">
        <ele>1720.5999755859375</ele>
        <time>2026-09-01T09:18:22.000Z</time>
        <extensions>
          <ns3:TrackPointExtension>
            <ns3:hr>114</ns3:hr>
            <ns3:cad>82</ns3:cad>
          </ns3:TrackPointExtension>
        </extensions>
      </trkpt>
      <trkpt lat="47.5486140511929988861083984375" lon="11.051703952252864837646484375">
        <ele>1720</ele>
        <time>2026-09-01T09:18:23.000Z</time>
        <extensions>
          <ns3:TrackPointExtension>
            <ns3:hr>115</ns3:hr>
            <ns3:cad>82</ns3:cad>
          </ns3:TrackPointExtension>
        </extensions>
      </trkpt>
      <trkpt lat="47.5485878996551036834716796875" lon="11.0516846738755702972412109375">
        <ele>1719.199951171875</ele>
        <time>2026-09-01T09:18:24.000Z</time>
        <extensions>
          <ns3:TrackPointExtension>
            <ns3:hr>115</ns3:hr>
            <ns3:cad>82</ns3:cad>
          </ns3:TrackPointExtension>
        </extensions>
      </trkpt>
      <trkpt lat="47.5485617481172084808349609375" lon="11.0516627132892608642578125">
        <ele>1718.4000244140625</ele>
        <time>2026-09-01T09:18:25.000Z</time>
        <extensions>
          <ns3:TrackPointExtension>
            <ns3:hr>116</ns3:hr>
            <ns3:cad>83</ns3:cad>
          </ns3:TrackPointExtension>
        </extensions>
      </trkpt>
      <trkpt lat="47.54853283055126667022705078125" lon="11.0516439378261566162109375">
        <ele>1717.4000244140625</ele>
        <time>2026-09-01T09:18:26.000Z</time>
        <extensions>
          <ns3:TrackPointExtension>
            <ns3:hr>116</ns3:hr>
            <ns3:cad>83</ns3:cad>
          </ns3:TrackPointExtension>
        </extensions>
      </trkpt>
      <trkpt lat="47.54850064404308795928955078125" lon="11.051624156534671783447265625">
        <ele>1717</ele>
        <time>2026-09-01T09:18:27.000Z</time>
        <extensions>
          <ns3:TrackPointExtension>
            <ns3:hr>117</ns3:hr>
            <ns3:cad>83</ns3:cad>
          </ns3:TrackPointExtension>
        </extensions>
      </trkpt>
      <trkpt lat="47.5484702177345752716064453125" lon="11.05161636136472225189208984375">
        <ele>1716.4000244140625</ele>
        <time>2026-09-01T09:18:28.000Z</time>
        <extensions>
          <ns3:TrackPointExtension>
            <ns3:hr>117</ns3:hr>
            <ns3:cad>83</ns3:cad>
          </ns3:TrackPointExtension>
        </extensions>
      </trkpt>
      <trkpt lat="47.54843375645577907562255859375" lon="11.05160060338675975799560546875">
        <ele>1715.800048828125</ele>
        <time>2026-09-01T09:18:29.000Z</time>
        <extensions>
          <ns3:TrackPointExtension>
            <ns3:hr>118</ns3:hr>
            <ns3:cad>83</ns3:cad>
          </ns3:TrackPointExtension>
        </extensions>
      </trkpt>
      <trkpt lat="47.5484034977853298187255859375" lon="11.05159356258809566497802734375">
        <ele>1715.5999755859375</ele>
        <time>2026-09-01T09:18:30.000Z</time>
        <extensions>
          <ns3:TrackPointExtension>
            <ns3:hr>119</ns3:hr>
            <ns3:cad>83</ns3:cad>
          </ns3:TrackPointExtension>
        </extensions>
      </trkpt>
      <trkpt lat="47.54837147891521453857421875" lon="11.05158836580812931060791015625">
        <ele>1715</ele>
        <time>2026-09-01T09:18:31.000Z</time>
        <extensions>
          <ns3:TrackPointExtension>
            <ns3:hr>120</ns3:hr>
            <ns3:cad>82</ns3:cad>
          </ns3:TrackPointExtension>
        </extensions>
      </trkpt>
      <trkpt lat="47.54834675230085849761962890625" lon="11.05157730169594287872314453125">
        <ele>1714.5999755859375</ele>
        <time>2026-09-01T09:18:32.000Z</time>
        <extensions>
          <ns3:TrackPointExtension>
            <ns3:hr>121</ns3:hr>
            <ns3:cad>82</ns3:cad>
          </ns3:TrackPointExtension>
        </extensions>
      </trkpt>
      <trkpt lat="47.54832898266613483428955078125" lon="11.05156145989894866943359375">
        <ele>1714.4000244140625</ele>
        <time>2026-09-01T09:18:33.000Z</time>
        <extensions>
          <ns3:TrackPointExtension>
            <ns3:hr>122</ns3:hr>
            <ns3:cad>83</ns3:cad>
          </ns3:TrackPointExtension>
        </extensions>
      </trkpt>
      <trkpt lat="47.54830777645111083984375" lon="11.0515465401113033294677734375">
        <ele>1714.199951171875</ele>
        <time>2026-09-01T09:18:34.000Z</time>
        <extensions>
          <ns3:TrackPointExtension>
            <ns3:hr>123</ns3:hr>
            <ns3:cad>84</ns3:cad>
          </ns3:TrackPointExtension>
        </extensions>
      </trkpt>
      <trkpt lat="47.54828992299735546112060546875" lon="11.05153195559978485107421875">
        <ele>1714.199951171875</ele>
        <time>2026-09-01T09:18:35.000Z</time>
        <extensions>
          <ns3:TrackPointExtension>
            <ns3:hr>123</ns3:hr>
            <ns3:cad>84</ns3:cad>
          </ns3:TrackPointExtension>
        </extensions>
      </trkpt>
      <trkpt lat="47.548271231353282928466796875" lon="11.05152684263885021209716796875">
        <ele>1714.199951171875</ele>
        <time>2026-09-01T09:18:36.000Z</time>
        <extensions>
          <ns3:TrackPointExtension>
            <ns3:hr>124</ns3:hr>
            <ns3:cad>84</ns3:cad>
          </ns3:TrackPointExtension>
        </extensions>
      </trkpt>
      <trkpt lat="47.54826293326914310455322265625" lon="11.0515207238495349884033203125">
        <ele>1714.4000244140625</ele>
        <time>2026-09-01T09:18:37.000Z</time>
        <extensions>
          <ns3:TrackPointExtension>
            <ns3:hr>124</ns3:hr>
            <ns3:cad>84</ns3:cad>
          </ns3:TrackPointExtension>
        </extensions>
      </trkpt>
      <trkpt lat="47.54825119860470294952392578125" lon="11.051520220935344696044921875">
        <ele>1714.5999755859375</ele>
        <time>2026-09-01T09:18:38.000Z</time>
        <extensions>
          <ns3:TrackPointExtension>
            <ns3:hr>124</ns3:hr>
            <ns3:cad>84</ns3:cad>
          </ns3:TrackPointExtension>
        </extensions>
      </trkpt>
      <trkpt lat="47.5482388772070407867431640625" lon="11.05151996947824954986572265625">
        <ele>1715</ele>
        <time>2026-09-01T09:18:39.000Z</time>
        <extensions>
          <ns3:TrackPointExtension>
            <ns3:hr>124</ns3:hr>
            <ns3:cad>79</ns3:cad>
          </ns3:TrackPointExtension>
        </extensions>
      </trkpt>
      <trkpt lat="47.54822521470487117767333984375" lon="11.05150857008993625640869140625">
        <ele>1715</ele>
        <time>2026-09-01T09:18:40.000Z</time>
        <extensions>
          <ns3:TrackPointExtension>
            <ns3:hr>124</ns3:hr>
            <ns3:cad>79</ns3:cad>
          </ns3:TrackPointExtension>
        </extensions>
      </trkpt>
      <trkpt lat="47.54820962436497211456298828125" lon="11.051496081054210662841796875">
        <ele>1715</ele>
        <time>2026-09-01T09:18:41.000Z</time>
        <extensions>
          <ns3:TrackPointExtension>
            <ns3:hr>124</ns3:hr>
            <ns3:cad>79</ns3:cad>
          </ns3:TrackPointExtension>
        </extensions>
      </trkpt>
      <trkpt lat="47.54819386638700962066650390625" lon="11.05149012990295886993408203125">
        <ele>1715</ele>
        <time>2026-09-01T09:18:42.000Z</time>
        <extensions>
          <ns3:TrackPointExtension>
            <ns3:hr>125</ns3:hr>
            <ns3:cad>79</ns3:cad>
          </ns3:TrackPointExtension>
        </extensions>
      </trkpt>
      <trkpt lat="47.5481728278100490570068359375" lon="11.05148099362850189208984375">
        <ele>1714.5999755859375</ele>
        <time>2026-09-01T09:18:43.000Z</time>
        <extensions>
          <ns3:TrackPointExtension>
            <ns3:hr>124</ns3:hr>
            <ns3:cad>0</ns3:cad>
          </ns3:TrackPointExtension>
        </extensions>
      </trkpt>
      <trkpt lat="47.54815078340470790863037109375" lon="11.0514734499156475067138671875">
        <ele>1714.199951171875</ele>
        <time>2026-09-01T09:18:44.000Z</time>
        <extensions>
          <ns3:TrackPointExtension>
            <ns3:hr>124</ns3:hr>
            <ns3:cad>0</ns3:cad>
          </ns3:TrackPointExtension>
        </extensions>
      </trkpt>
      <trkpt lat="47.54813049919903278350830078125" lon="11.0514613799750804901123046875">
        <ele>1713.5999755859375</ele>
        <time>2026-09-01T09:18:45.000Z</time>
        <extensions>
          <ns3:TrackPointExtension>
            <ns3:hr>124</ns3:hr>
            <ns3:cad>81</ns3:cad>
          </ns3:TrackPointExtension>
        </extensions>
      </trkpt>
      <trkpt lat="47.54811490885913372039794921875" lon="11.05142726562917232513427734375">
        <ele>1713</ele>
        <time>2026-09-01T09:18:46.000Z</time>
        <extensions>
          <ns3:TrackPointExtension>
            <ns3:hr>124</ns3:hr>
            <ns3:cad>81</ns3:cad>
          </ns3:TrackPointExtension>
        </extensions>
      </trkpt>
      <trkpt lat="47.54809529520571231842041015625" lon="11.05141620151698589324951171875">
        <ele>1712.5999755859375</ele>
        <time>2026-09-01T09:18:47.000Z</time>
        <extensions>
          <ns3:TrackPointExtension>
            <ns3:hr>125</ns3:hr>
            <ns3:cad>81</ns3:cad>
          </ns3:TrackPointExtension>
        </extensions>
      </trkpt>
      <trkpt lat="47.54808305762708187103271484375" lon="11.05141083709895610809326171875">
        <ele>1712.199951171875</ele>
        <time>2026-09-01T09:18:48.000Z</time>
        <extensions>
          <ns3:TrackPointExtension>
            <ns3:hr>125</ns3:hr>
            <ns3:cad>81</ns3:cad>
          </ns3:TrackPointExtension>
        </extensions>
      </trkpt>
      <trkpt lat="47.54806914366781711578369140625" lon="11.05140396393835544586181640625">
        <ele>1712</ele>
        <time>2026-09-01T09:18:49.000Z</time>
        <extensions>
          <ns3:TrackPointExtension>
            <ns3:hr>125</ns3:hr>
            <ns3:cad>81</ns3:cad>
          </ns3:TrackPointExtension>
        </extensions>
      </trkpt>
      <trkpt lat="47.5480601750314235687255859375" lon="11.05138720013201236724853515625">
        <ele>1711.800048828125</ele>
        <time>2026-09-01T09:18:50.000Z</time>
        <extensions>
          <ns3:TrackPointExtension>
            <ns3:hr>125</ns3:hr>
            <ns3:cad>80</ns3:cad>
          </ns3:TrackPointExtension>
        </extensions>
      </trkpt>
      <trkpt lat="47.548055313527584075927734375" lon="11.051374040544033050537109375">
        <ele>1711.5999755859375</ele>
        <time>2026-09-01T09:18:51.000Z</time>
        <extensions>
          <ns3:TrackPointExtension>
            <ns3:hr>126</ns3:hr>
            <ns3:cad>80</ns3:cad>
          </ns3:TrackPointExtension>
        </extensions>
      </trkpt>
      <trkpt lat="47.54804165102541446685791015625" lon="11.05136021040380001068115234375">
        <ele>1711.4000244140625</ele>
        <time>2026-09-01T09:18:52.000Z</time>
        <extensions>
          <ns3:TrackPointExtension>
            <ns3:hr>125</ns3:hr>
            <ns3:cad>80</ns3:cad>
          </ns3:TrackPointExtension>
        </extensions>
      </trkpt>
      <trkpt lat="47.548027150332927703857421875" lon="11.0513420216739177703857421875">
        <ele>1710.800048828125</ele>
        <time>2026-09-01T09:18:53.000Z</time>
        <extensions>
          <ns3:TrackPointExtension>
            <ns3:hr>125</ns3:hr>
            <ns3:cad>80</ns3:cad>
          </ns3:TrackPointExtension>
        </extensions>
      </trkpt>
      <trkpt lat="47.5480159185826778411865234375" lon="11.0513247549533843994140625">
        <ele>1709.800048828125</ele>
        <time>2026-09-01T09:18:54.000Z</time>
        <extensions>
          <ns3:TrackPointExtension>
            <ns3:hr>125</ns3:hr>
            <ns3:cad>80</ns3:cad>
          </ns3:TrackPointExtension>
        </extensions>
      </trkpt>
      <trkpt lat="47.548000328242778778076171875" lon="11.051288545131683349609375">
        <ele>1708.800048828125</ele>
        <time>2026-09-01T09:18:55.000Z</time>
        <extensions>
          <ns3:TrackPointExtension>
            <ns3:hr>125</ns3:hr>
            <ns3:cad>80</ns3:cad>
          </ns3:TrackPointExtension>
        </extensions>
      </trkpt>
      <trkpt lat="47.54797878675162792205810546875" lon="11.05126415379345417022705078125">
        <ele>1707.5999755859375</ele>
        <time>2026-09-01T09:18:56.000Z</time>
        <extensions>
          <ns3:TrackPointExtension>
            <ns3:hr>125</ns3:hr>
            <ns3:cad>80</ns3:cad>
          </ns3:TrackPointExtension>
        </extensions>
      </trkpt>
      <trkpt lat="47.547950707376003265380859375" lon="11.051235236227512359619140625">
        <ele>1707.4000244140625</ele>
        <time>2026-09-01T09:18:57.000Z</time>
        <extensions>
          <ns3:TrackPointExtension>
            <ns3:hr>125</ns3:hr>
            <ns3:cad>80</ns3:cad>
          </ns3:TrackPointExtension>
        </extensions>
      </trkpt>
      <trkpt lat="47.547918856143951416015625" lon="11.0512001998722553253173828125">
        <ele>1706.5999755859375</ele>
        <time>2026-09-01T09:18:58.000Z</time>
        <extensions>
          <ns3:TrackPointExtension>
            <ns3:hr>125</ns3:hr>
            <ns3:cad>81</ns3:cad>
          </ns3:TrackPointExtension>
        </extensions>
      </trkpt>
      <trkpt lat="47.54789748229086399078369140625" lon="11.05117748491466045379638671875">
        <ele>1705.800048828125</ele>
        <time>2026-09-01T09:18:59.000Z</time>
        <extensions>
          <ns3:TrackPointExtension>
            <ns3:hr>125</ns3:hr>
            <ns3:cad>82</ns3:cad>
          </ns3:TrackPointExtension>
        </extensions>
      </trkpt>
      <trkpt lat="47.5478700734674930572509765625" lon="11.051152758300304412841796875">
        <ele>1705</ele>
        <time>2026-09-01T09:19:00.000Z</time>
        <extensions>
          <ns3:TrackPointExtension>
            <ns3:hr>125</ns3:hr>
            <ns3:cad>82</ns3:cad>
          </ns3:TrackPointExtension>
        </extensions>
      </trkpt>
      <trkpt lat="47.547848112881183624267578125" lon="11.051128618419170379638671875">
        <ele>1704.4000244140625</ele>
        <time>2026-09-01T09:19:01.000Z</time>
        <extensions>
          <ns3:TrackPointExtension>
            <ns3:hr>126</ns3:hr>
            <ns3:cad>82</ns3:cad>
          </ns3:TrackPointExtension>
        </extensions>
      </trkpt>
      <trkpt lat="47.54783495329320430755615234375" lon="11.0511021316051483154296875">
        <ele>1704</ele>
        <time>2026-09-01T09:19:02.000Z</time>
        <extensions>
          <ns3:TrackPointExtension>
            <ns3:hr>126</ns3:hr>
            <ns3:cad>82</ns3:cad>
          </ns3:TrackPointExtension>
        </extensions>
      </trkpt>
      <trkpt lat="47.54781886003911495208740234375" lon="11.05106399394571781158447265625">
        <ele>1703.800048828125</ele>
        <time>2026-09-01T09:19:03.000Z</time>
        <extensions>
          <ns3:TrackPointExtension>
            <ns3:hr>126</ns3:hr>
            <ns3:cad>83</ns3:cad>
          </ns3:TrackPointExtension>
        </extensions>
      </trkpt>
      <trkpt lat="47.547805197536945343017578125" lon="11.0510312207043170928955078125">
        <ele>1703.4000244140625</ele>
        <time>2026-09-01T09:19:04.000Z</time>
        <extensions>
          <ns3:TrackPointExtension>
            <ns3:hr>125</ns3:hr>
            <ns3:cad>84</ns3:cad>
          </ns3:TrackPointExtension>
        </extensions>
      </trkpt>
      <trkpt lat="47.54779304377734661102294921875" lon="11.050999201834201812744140625">
        <ele>1703.199951171875</ele>
        <time>2026-09-01T09:19:05.000Z</time>
        <extensions>
          <ns3:TrackPointExtension>
            <ns3:hr>126</ns3:hr>
            <ns3:cad>84</ns3:cad>
          </ns3:TrackPointExtension>
        </extensions>
      </trkpt>
      <trkpt lat="47.54777611233294010162353515625" lon="11.05097397230565547943115234375">
        <ele>1703</ele>
        <time>2026-09-01T09:19:06.000Z</time>
        <extensions>
          <ns3:TrackPointExtension>
            <ns3:hr>126</ns3:hr>
            <ns3:cad>84</ns3:cad>
          </ns3:TrackPointExtension>
        </extensions>
      </trkpt>
      <trkpt lat="47.5477621145546436309814453125" lon="11.050956286489963531494140625">
        <ele>1702.800048828125</ele>
        <time>2026-09-01T09:19:07.000Z</time>
        <extensions>
          <ns3:TrackPointExtension>
            <ns3:hr>126</ns3:hr>
            <ns3:cad>84</ns3:cad>
          </ns3:TrackPointExtension>
        </extensions>
      </trkpt>
      <trkpt lat="47.54775197245180606842041015625" lon="11.05091848410665988922119140625">
        <ele>1702.800048828125</ele>
        <time>2026-09-01T09:19:08.000Z</time>
        <extensions>
          <ns3:TrackPointExtension>
            <ns3:hr>127</ns3:hr>
            <ns3:cad>84</ns3:cad>
          </ns3:TrackPointExtension>
        </extensions>
      </trkpt>
      <trkpt lat="47.5477445125579833984375" lon="11.05088948272168636322021484375">
        <ele>1702.5999755859375</ele>
        <time>2026-09-01T09:19:09.000Z</time>
        <extensions>
          <ns3:TrackPointExtension>
            <ns3:hr>127</ns3:hr>
            <ns3:cad>84</ns3:cad>
          </ns3:TrackPointExtension>
        </extensions>
      </trkpt>
      <trkpt lat="47.54774023778736591339111328125" lon="11.05087188072502613067626953125">
        <ele>1702.4000244140625</ele>
        <time>2026-09-01T09:19:10.000Z</time>
        <extensions>
          <ns3:TrackPointExtension>
            <ns3:hr>127</ns3:hr>
            <ns3:cad>84</ns3:cad>
          </ns3:TrackPointExtension>
        </extensions>
      </trkpt>
      <trkpt lat="47.547734118998050689697265625" lon="11.05086148716509342193603515625">
        <ele>1702.199951171875</ele>
        <time>2026-09-01T09:19:11.000Z</time>
        <extensions>
          <ns3:TrackPointExtension>
            <ns3:hr>127</ns3:hr>
            <ns3:cad>79</ns3:cad>
          </ns3:TrackPointExtension>
        </extensions>
      </trkpt>
      <trkpt lat="47.5477245636284351348876953125" lon="11.05085578747093677520751953125">
        <ele>1701.800048828125</ele>
        <time>2026-09-01T09:19:12.000Z</time>
        <extensions>
          <ns3:TrackPointExtension>
            <ns3:hr>127</ns3:hr>
            <ns3:cad>79</ns3:cad>
          </ns3:TrackPointExtension>
        </extensions>
      </trkpt>
      <trkpt lat="47.5477138347923755645751953125" lon="11.0508392751216888427734375">
        <ele>1701.4000244140625</ele>
        <time>2026-09-01T09:19:13.000Z</time>
        <extensions>
          <ns3:TrackPointExtension>
            <ns3:hr>127</ns3:hr>
            <ns3:cad>81</ns3:cad>
          </ns3:TrackPointExtension>
        </extensions>
      </trkpt>
      <trkpt lat="47.5477017648518085479736328125" lon="11.0508223436772823333740234375">
        <ele>1700.800048828125</ele>
        <time>2026-09-01T09:19:14.000Z</time>
        <extensions>
          <ns3:TrackPointExtension>
            <ns3:hr>128</ns3:hr>
            <ns3:cad>81</ns3:cad>
          </ns3:TrackPointExtension>
        </extensions>
      </trkpt>
      <trkpt lat="47.5476876832544803619384765625" lon="11.0507958568632602691650390625">
        <ele>1700</ele>
        <time>2026-09-01T09:19:15.000Z</time>
        <extensions>
          <ns3:TrackPointExtension>
            <ns3:hr>128</ns3:hr>
            <ns3:cad>81</ns3:cad>
          </ns3:TrackPointExtension>
        </extensions>
      </trkpt>
      <trkpt lat="47.54766379483044147491455078125" lon="11.05077884159982204437255859375">
        <ele>1699.199951171875</ele>
        <time>2026-09-01T09:19:16.000Z</time>
        <extensions>
          <ns3:TrackPointExtension>
            <ns3:hr>128</ns3:hr>
            <ns3:cad>81</ns3:cad>
          </ns3:TrackPointExtension>
        </extensions>
      </trkpt>
      <trkpt lat="47.54764300771057605743408203125" lon="11.050767190754413604736328125">
        <ele>1698.4000244140625</ele>
        <time>2026-09-01T09:19:17.000Z</time>
        <extensions>
          <ns3:TrackPointExtension>
            <ns3:hr>128</ns3:hr>
            <ns3:cad>81</ns3:cad>
          </ns3:TrackPointExtension>
        </extensions>
      </trkpt>
      <trkpt lat="47.5476219691336154937744140625" lon="11.05074665509164333343505859375">
        <ele>1697.800048828125</ele>
        <time>2026-09-01T09:19:18.000Z</time>
        <extensions>
          <ns3:TrackPointExtension>
            <ns3:hr>128</ns3:hr>
            <ns3:cad>83</ns3:cad>
          </ns3:TrackPointExtension>
        </extensions>
      </trkpt>
      <trkpt lat="47.54760210402309894561767578125" lon="11.0507096908986568450927734375">
        <ele>1696.5999755859375</ele>
        <time>2026-09-01T09:19:19.000Z</time>
        <extensions>
          <ns3:TrackPointExtension>
            <ns3:hr>128</ns3:hr>
            <ns3:cad>83</ns3:cad>
          </ns3:TrackPointExtension>
        </extensions>
      </trkpt>
      <trkpt lat="47.54758869297802448272705078125" lon="11.050683371722698211669921875">
        <ele>1696</ele>
        <time>2026-09-01T09:19:20.000Z</time>
        <extensions>
          <ns3:TrackPointExtension>
            <ns3:hr>129</ns3:hr>
            <ns3:cad>83</ns3:cad>
          </ns3:TrackPointExtension>
        </extensions>
      </trkpt>
      <trkpt lat="47.5475743599236011505126953125" lon="11.05063852854073047637939453125">
        <ele>1695.5999755859375</ele>
        <time>2026-09-01T09:19:21.000Z</time>
        <extensions>
          <ns3:TrackPointExtension>
            <ns3:hr>129</ns3:hr>
            <ns3:cad>83</ns3:cad>
          </ns3:TrackPointExtension>
        </extensions>
      </trkpt>
      <trkpt lat="47.5475636310875415802001953125" lon="11.050601564347743988037109375">
        <ele>1695.4000244140625</ele>
        <time>2026-09-01T09:19:22.000Z</time>
        <extensions>
          <ns3:TrackPointExtension>
            <ns3:hr>129</ns3:hr>
            <ns3:cad>81</ns3:cad>
          </ns3:TrackPointExtension>
        </extensions>
      </trkpt>
      <trkpt lat="47.54755340516567230224609375" lon="11.05057566426694393157958984375">
        <ele>1695.199951171875</ele>
        <time>2026-09-01T09:19:23.000Z</time>
        <extensions>
          <ns3:TrackPointExtension>
            <ns3:hr>130</ns3:hr>
            <ns3:cad>80</ns3:cad>
          </ns3:TrackPointExtension>
        </extensions>
      </trkpt>
      <trkpt lat="47.547534964978694915771484375" lon="11.05054984800517559051513671875">
        <ele>1695.4000244140625</ele>
        <time>2026-09-01T09:19:24.000Z</time>
        <extensions>
          <ns3:TrackPointExtension>
            <ns3:hr>130</ns3:hr>
            <ns3:cad>80</ns3:cad>
          </ns3:TrackPointExtension>
        </extensions>
      </trkpt>
      <trkpt lat="47.547516524791717529296875" lon="11.0505293123424053192138671875">
        <ele>1695.4000244140625</ele>
        <time>2026-09-01T09:19:25.000Z</time>
        <extensions>
          <ns3:TrackPointExtension>
            <ns3:hr>130</ns3:hr>
            <ns3:cad>80</ns3:cad>
          </ns3:TrackPointExtension>
        </extensions>
      </trkpt>
      <trkpt lat="47.5475026108324527740478515625" lon="11.05050374753773212432861328125">
        <ele>1695.4000244140625</ele>
        <time>2026-09-01T09:19:26.000Z</time>
        <extensions>
          <ns3:TrackPointExtension>
            <ns3:hr>130</ns3:hr>
            <ns3:cad>80</ns3:cad>
          </ns3:TrackPointExtension>
        </extensions>
      </trkpt>
      <trkpt lat="47.54749062471091747283935546875" lon="11.05047826655209064483642578125">
        <ele>1695.4000244140625</ele>
        <time>2026-09-01T09:19:27.000Z</time>
        <extensions>
          <ns3:TrackPointExtension>
            <ns3:hr>131</ns3:hr>
            <ns3:cad>80</ns3:cad>
          </ns3:TrackPointExtension>
        </extensions>
      </trkpt>
      <trkpt lat="47.54747134633362293243408203125" lon="11.05045362375676631927490234375">
        <ele>1695.5999755859375</ele>
        <time>2026-09-01T09:19:28.000Z</time>
        <extensions>
          <ns3:TrackPointExtension>
            <ns3:hr>131</ns3:hr>
            <ns3:cad>80</ns3:cad>
          </ns3:TrackPointExtension>
        </extensions>
      </trkpt>
      <trkpt lat="47.5474561750888824462890625" lon="11.050425209105014801025390625">
        <ele>1696</ele>
        <time>2026-09-01T09:19:29.000Z</time>
        <extensions>
          <ns3:TrackPointExtension>
            <ns3:hr>131</ns3:hr>
            <ns3:cad>79</ns3:cad>
          </ns3:TrackPointExtension>
        </extensions>
      </trkpt>
      <trkpt lat="47.54744452424347400665283203125" lon="11.050400398671627044677734375">
        <ele>1696.4000244140625</ele>
        <time>2026-09-01T09:19:30.000Z</time>
        <extensions>
          <ns3:TrackPointExtension>
            <ns3:hr>131</ns3:hr>
            <ns3:cad>79</ns3:cad>
          </ns3:TrackPointExtension>
        </extensions>
      </trkpt>
      <trkpt lat="47.5474422611296176910400390625" lon="11.05039645917713642120361328125">
        <ele>1696.800048828125</ele>
        <time>2026-09-01T09:19:31.000Z</time>
        <extensions>
          <ns3:TrackPointExtension>
            <ns3:hr>131</ns3:hr>
            <ns3:cad>79</ns3:cad>
          </ns3:TrackPointExtension>
        </extensions>
      </trkpt>
      <trkpt lat="47.547431699931621551513671875" lon="11.05036695487797260284423828125">
        <ele>1697.199951171875</ele>
        <time>2026-09-01T09:19:32.000Z</time>
        <extensions>
          <ns3:TrackPointExtension>
            <ns3:hr>131</ns3:hr>
            <ns3:cad>79</ns3:cad>
          </ns3:TrackPointExtension>
        </extensions>
      </trkpt>
      <trkpt lat="47.54742608405649662017822265625" lon="11.05035270564258098602294921875">
        <ele>1697.5999755859375</ele>
        <time>2026-09-01T09:19:33.000Z</time>
        <extensions>
          <ns3:TrackPointExtension>
            <ns3:hr>131</ns3:hr>
            <ns3:cad>79</ns3:cad>
          </ns3:TrackPointExtension>
        </extensions>
      </trkpt>
      <trkpt lat="47.54741569049656391143798828125" lon="11.050320602953433990478515625">
        <ele>1698</ele>
        <time>2026-09-01T09:19:34.000Z</time>
        <extensions>
          <ns3:TrackPointExtension>
            <ns3:hr>131</ns3:hr>
            <ns3:cad>79</ns3:cad>
          </ns3:TrackPointExtension>
        </extensions>
      </trkpt>
      <trkpt lat="47.547409571707248687744140625" lon="11.05030274949967861175537109375">
        <ele>1698.4000244140625</ele>
        <time>2026-09-01T09:19:35.000Z</time>
        <extensions>
          <ns3:TrackPointExtension>
            <ns3:hr>131</ns3:hr>
            <ns3:cad>79</ns3:cad>
          </ns3:TrackPointExtension>
        </extensions>
      </trkpt>
      <trkpt lat="47.54740647040307521820068359375" lon="11.0502848960459232330322265625">
        <ele>1698.800048828125</ele>
        <time>2026-09-01T09:19:36.000Z</time>
        <extensions>
          <ns3:TrackPointExtension>
            <ns3:hr>131</ns3:hr>
            <ns3:cad>79</ns3:cad>
          </ns3:TrackPointExtension>
        </extensions>
      </trkpt>
      <trkpt lat="47.5473946519196033477783203125" lon="11.05026737786829471588134765625">
        <ele>1699.199951171875</ele>
        <time>2026-09-01T09:19:37.000Z</time>
        <extensions>
          <ns3:TrackPointExtension>
            <ns3:hr>131</ns3:hr>
            <ns3:cad>79</ns3:cad>
          </ns3:TrackPointExtension>
        </extensions>
      </trkpt>
      <trkpt lat="47.547387778759002685546875" lon="11.05025413446128368377685546875">
        <ele>1699.5999755859375</ele>
        <time>2026-09-01T09:19:38.000Z</time>
        <extensions>
          <ns3:TrackPointExtension>
            <ns3:hr>131</ns3:hr>
            <ns3:cad>79</ns3:cad>
          </ns3:TrackPointExtension>
        </extensions>
      </trkpt>
      <trkpt lat="47.54738383926451206207275390625" lon="11.050250194966793060302734375">
        <ele>1700</ele>
        <time>2026-09-01T09:19:39.000Z</time>
        <extensions>
          <ns3:TrackPointExtension>
            <ns3:hr>131</ns3:hr>
            <ns3:cad>79</ns3:cad>
          </ns3:TrackPointExtension>
        </extensions>
      </trkpt>
      <trkpt lat="47.54737344570457935333251953125" lon="11.05023720301687717437744140625">
        <ele>1700.199951171875</ele>
        <time>2026-09-01T09:19:40.000Z</time>
        <extensions>
          <ns3:TrackPointExtension>
            <ns3:hr>131</ns3:hr>
            <ns3:cad>79</ns3:cad>
          </ns3:TrackPointExtension>
        </extensions>
      </trkpt>
      <trkpt lat="47.54736959002912044525146484375" lon="11.05023502372205257415771484375">
        <ele>1700.4000244140625</ele>
        <time>2026-09-01T09:19:41.000Z</time>
        <extensions>
          <ns3:TrackPointExtension>
            <ns3:hr>130</ns3:hr>
            <ns3:cad>79</ns3:cad>
          </ns3:TrackPointExtension>
        </extensions>
      </trkpt>
      <trkpt lat="47.5473544187843799591064453125" lon="11.05021256022155284881591796875">
        <ele>1700.5999755859375</ele>
        <time>2026-09-01T09:19:42.000Z</time>
        <extensions>
          <ns3:TrackPointExtension>
            <ns3:hr>131</ns3:hr>
            <ns3:cad>0</ns3:cad>
          </ns3:TrackPointExtension>
        </extensions>
      </trkpt>
      <trkpt lat="47.54733773879706859588623046875" lon="11.0501859895884990692138671875">
        <ele>1701</ele>
        <time>2026-09-01T09:19:43.000Z</time>
        <extensions>
          <ns3:TrackPointExtension>
            <ns3:hr>131</ns3:hr>
            <ns3:cad>0</ns3:cad>
          </ns3:TrackPointExtension>
        </extensions>
      </trkpt>
      <trkpt lat="47.547327093780040740966796875" lon="11.05016629211604595184326171875">
        <ele>1701.5999755859375</ele>
        <time>2026-09-01T09:19:44.000Z</time>
        <extensions>
          <ns3:TrackPointExtension>
            <ns3:hr>131</ns3:hr>
            <ns3:cad>39</ns3:cad>
          </ns3:TrackPointExtension>
        </extensions>
      </trkpt>
      <trkpt lat="47.5473167002201080322265625" lon="11.05015506036579608917236328125">
        <ele>1701.800048828125</ele>
        <time>2026-09-01T09:19:45.000Z</time>
        <extensions>
          <ns3:TrackPointExtension>
            <ns3:hr>131</ns3:hr>
            <ns3:cad>39</ns3:cad>
          </ns3:TrackPointExtension>
        </extensions>
      </trkpt>
      <trkpt lat="47.54730395972728729248046875" lon="11.050140894949436187744140625">
        <ele>1702</ele>
        <time>2026-09-01T09:19:46.000Z</time>
        <extensions>
          <ns3:TrackPointExtension>
            <ns3:hr>130</ns3:hr>
            <ns3:cad>39</ns3:cad>
          </ns3:TrackPointExtension>
        </extensions>
      </trkpt>
      <trkpt lat="47.54729532636702060699462890625" lon="11.050137542188167572021484375">
        <ele>1702</ele>
        <time>2026-09-01T09:19:47.000Z</time>
        <extensions>
          <ns3:TrackPointExtension>
            <ns3:hr>130</ns3:hr>
            <ns3:cad>0</ns3:cad>
          </ns3:TrackPointExtension>
        </extensions>
      </trkpt>
      <trkpt lat="47.547288201749324798583984375" lon="11.05012111365795135498046875">
        <ele>1701.5999755859375</ele>
        <time>2026-09-01T09:19:48.000Z</time>
        <extensions>
          <ns3:TrackPointExtension>
            <ns3:hr>130</ns3:hr>
            <ns3:cad>0</ns3:cad>
          </ns3:TrackPointExtension>
        </extensions>
      </trkpt>
      <trkpt lat="47.547274790704250335693359375" lon="11.0501115582883358001708984375">
        <ele>1701</ele>
        <time>2026-09-01T09:19:49.000Z</time>
        <extensions>
          <ns3:TrackPointExtension>
            <ns3:hr>129</ns3:hr>
            <ns3:cad>79</ns3:cad>
          </ns3:TrackPointExtension>
        </extensions>
      </trkpt>
      <trkpt lat="47.5472608767449855804443359375" lon="11.05009387247264385223388671875">
        <ele>1700</ele>
        <time>2026-09-01T09:19:50.000Z</time>
        <extensions>
          <ns3:TrackPointExtension>
            <ns3:hr>129</ns3:hr>
            <ns3:cad>79</ns3:cad>
          </ns3:TrackPointExtension>
        </extensions>
      </trkpt>
      <trkpt lat="47.54725073464214801788330078125" lon="11.05007962323725223541259765625">
        <ele>1699.199951171875</ele>
        <time>2026-09-01T09:19:51.000Z</time>
        <extensions>
          <ns3:TrackPointExtension>
            <ns3:hr>129</ns3:hr>
            <ns3:cad>79</ns3:cad>
          </ns3:TrackPointExtension>
        </extensions>
      </trkpt>
      <trkpt lat="47.547232545912265777587890625" lon="11.05006520636379718780517578125">
        <ele>1698.5999755859375</ele>
        <time>2026-09-01T09:19:52.000Z</time>
        <extensions>
          <ns3:TrackPointExtension>
            <ns3:hr>130</ns3:hr>
            <ns3:cad>79</ns3:cad>
          </ns3:TrackPointExtension>
        </extensions>
      </trkpt>
      <trkpt lat="47.54722307436168193817138671875" lon="11.0500565730035305023193359375">
        <ele>1697.800048828125</ele>
        <time>2026-09-01T09:19:53.000Z</time>
        <extensions>
          <ns3:TrackPointExtension>
            <ns3:hr>130</ns3:hr>
            <ns3:cad>79</ns3:cad>
          </ns3:TrackPointExtension>
        </extensions>
      </trkpt>
      <trkpt lat="47.547205053269863128662109375" lon="11.05003955774009227752685546875">
        <ele>1697.199951171875</ele>
        <time>2026-09-01T09:19:54.000Z</time>
        <extensions>
          <ns3:TrackPointExtension>
            <ns3:hr>131</ns3:hr>
            <ns3:cad>79</ns3:cad>
          </ns3:TrackPointExtension>
        </extensions>
      </trkpt>
      <trkpt lat="47.54719088785350322723388671875" lon="11.05002447031438350677490234375">
        <ele>1696.4000244140625</ele>
        <time>2026-09-01T09:19:55.000Z</time>
        <extensions>
          <ns3:TrackPointExtension>
            <ns3:hr>131</ns3:hr>
            <ns3:cad>79</ns3:cad>
          </ns3:TrackPointExtension>
        </extensions>
      </trkpt>
      <trkpt lat="47.547182254493236541748046875" lon="11.05000837706029415130615234375">
        <ele>1695.5999755859375</ele>
        <time>2026-09-01T09:19:56.000Z</time>
        <extensions>
          <ns3:TrackPointExtension>
            <ns3:hr>131</ns3:hr>
            <ns3:cad>79</ns3:cad>
          </ns3:TrackPointExtension>
        </extensions>
      </trkpt>
      <trkpt lat="47.54718049429357051849365234375" lon="11.0499955527484416961669921875">
        <ele>1695</ele>
        <time>2026-09-01T09:19:57.000Z</time>
        <extensions>
          <ns3:TrackPointExtension>
            <ns3:hr>132</ns3:hr>
            <ns3:cad>79</ns3:cad>
          </ns3:TrackPointExtension>
        </extensions>
      </trkpt>
      <trkpt lat="47.54717730917036533355712890625" lon="11.04998239316046237945556640625">
        <ele>1694.199951171875</ele>
        <time>2026-09-01T09:19:58.000Z</time>
        <extensions>
          <ns3:TrackPointExtension>
            <ns3:hr>131</ns3:hr>
            <ns3:cad>79</ns3:cad>
          </ns3:TrackPointExtension>
        </extensions>
      </trkpt>
      <trkpt lat="47.5471787340939044952392578125" lon="11.0499809682369232177734375">
        <ele>1693.5999755859375</ele>
        <time>2026-09-01T09:19:59.000Z</time>
        <extensions>
          <ns3:TrackPointExtension>
            <ns3:hr>131</ns3:hr>
            <ns3:cad>79</ns3:cad>
          </ns3:TrackPointExtension>
        </extensions>
      </trkpt>
      <trkpt lat="47.5471825897693634033203125" lon="11.0499680601060390472412109375">
        <ele>1692.800048828125</ele>
        <time>2026-09-01T09:20:00.000Z</time>
        <extensions>
          <ns3:TrackPointExtension>
            <ns3:hr>131</ns3:hr>
            <ns3:cad>79</ns3:cad>
          </ns3:TrackPointExtension>
        </extensions>
      </trkpt>
      <trkpt lat="47.54717680625617504119873046875" lon="11.04995305649936199188232421875">
        <ele>1692</ele>
        <time>2026-09-01T09:20:01.000Z</time>
        <extensions>
          <ns3:TrackPointExtension>
            <ns3:hr>131</ns3:hr>
            <ns3:cad>79</ns3:cad>
          </ns3:TrackPointExtension>
        </extensions>
      </trkpt>
      <trkpt lat="47.54717462696135044097900390625" lon="11.04994417168200016021728515625">
        <ele>1691.5999755859375</ele>
        <time>2026-09-01T09:20:02.000Z</time>
        <extensions>
          <ns3:TrackPointExtension>
            <ns3:hr>131</ns3:hr>
            <ns3:cad>79</ns3:cad>
          </ns3:TrackPointExtension>
        </extensions>
      </trkpt>
      <trkpt lat="47.54717445932328701019287109375" lon="11.04992388747632503509521484375">
        <ele>1691</ele>
        <time>2026-09-01T09:20:03.000Z</time>
        <extensions>
          <ns3:TrackPointExtension>
            <ns3:hr>130</ns3:hr>
            <ns3:cad>79</ns3:cad>
          </ns3:TrackPointExtension>
        </extensions>
      </trkpt>
      <trkpt lat="47.547194994986057281494140625" lon="11.049906201660633087158203125">
        <ele>1690.5999755859375</ele>
        <time>2026-09-01T09:20:04.000Z</time>
        <extensions>
          <ns3:TrackPointExtension>
            <ns3:hr>130</ns3:hr>
            <ns3:cad>41</ns3:cad>
          </ns3:TrackPointExtension>
        </extensions>
      </trkpt>
      <trkpt lat="47.54720077849924564361572265625" lon="11.04990008287131786346435546875">
        <ele>1690</ele>
        <time>2026-09-01T09:20:05.000Z</time>
        <extensions>
          <ns3:TrackPointExtension>
            <ns3:hr>130</ns3:hr>
            <ns3:cad>0</ns3:cad>
          </ns3:TrackPointExtension>
        </extensions>
      </trkpt>
      <trkpt lat="47.5472179614007472991943359375" lon="11.04989404790103435516357421875">
        <ele>1689.5999755859375</ele>
        <time>2026-09-01T09:20:06.000Z</time>
        <extensions>
          <ns3:TrackPointExtension>
            <ns3:hr>129</ns3:hr>
            <ns3:cad>0</ns3:cad>
          </ns3:TrackPointExtension>
        </extensions>
      </trkpt>
      <trkpt lat="47.54722961224615573883056640625" lon="11.04987175203859806060791015625">
        <ele>1689.199951171875</ele>
        <time>2026-09-01T09:20:07.000Z</time>
        <extensions>
          <ns3:TrackPointExtension>
            <ns3:hr>129</ns3:hr>
            <ns3:cad>0</ns3:cad>
          </ns3:TrackPointExtension>
        </extensions>
      </trkpt>
      <trkpt lat="47.54723128862679004669189453125" lon="11.04985448531806468963623046875">
        <ele>1688.5999755859375</ele>
        <time>2026-09-01T09:20:08.000Z</time>
        <extensions>
          <ns3:TrackPointExtension>
            <ns3:hr>129</ns3:hr>
            <ns3:cad>0</ns3:cad>
          </ns3:TrackPointExtension>
        </extensions>
      </trkpt>
      <trkpt lat="47.54722642712295055389404296875" lon="11.04983705095946788787841796875">
        <ele>1688.199951171875</ele>
        <time>2026-09-01T09:20:09.000Z</time>
        <extensions>
          <ns3:TrackPointExtension>
            <ns3:hr>128</ns3:hr>
            <ns3:cad>0</ns3:cad>
          </ns3:TrackPointExtension>
        </extensions>
      </trkpt>
      <trkpt lat="47.54721737466752529144287109375" lon="11.04981509037315845489501953125">
        <ele>1687.5999755859375</ele>
        <time>2026-09-01T09:20:10.000Z</time>
        <extensions>
          <ns3:TrackPointExtension>
            <ns3:hr>127</ns3:hr>
            <ns3:cad>0</ns3:cad>
          </ns3:TrackPointExtension>
        </extensions>
      </trkpt>
      <trkpt lat="47.5472120940685272216796875" lon="11.04980184696614742279052734375">
        <ele>1687.199951171875</ele>
        <time>2026-09-01T09:20:11.000Z</time>
        <extensions>
          <ns3:TrackPointExtension>
            <ns3:hr>126</ns3:hr>
            <ns3:cad>0</ns3:cad>
          </ns3:TrackPointExtension>
        </extensions>
      </trkpt>
      <trkpt lat="47.5472065620124340057373046875" lon="11.0497870109975337982177734375">
        <ele>1686.5999755859375</ele>
        <time>2026-09-01T09:20:12.000Z</time>
        <extensions>
          <ns3:TrackPointExtension>
            <ns3:hr>125</ns3:hr>
            <ns3:cad>0</ns3:cad>
          </ns3:TrackPointExtension>
        </extensions>
      </trkpt>
      <trkpt lat="47.54719935357570648193359375" lon="11.049770079553127288818359375">
        <ele>1685.800048828125</ele>
        <time>2026-09-01T09:20:13.000Z</time>
        <extensions>
          <ns3:TrackPointExtension>
            <ns3:hr>123</ns3:hr>
            <ns3:cad>0</ns3:cad>
          </ns3:TrackPointExtension>
        </extensions>
      </trkpt>
      <trkpt lat="47.54717311821877956390380859375" lon="11.0497873462736606597900390625">
        <ele>1685.199951171875</ele>
        <time>2026-09-01T09:20:14.000Z</time>
        <extensions>
          <ns3:TrackPointExtension>
            <ns3:hr>122</ns3:hr>
            <ns3:cad>0</ns3:cad>
          </ns3:TrackPointExtension>
        </extensions>
      </trkpt>
      <trkpt lat="47.54715350456535816192626953125" lon="11.04979463852941989898681640625">
        <ele>1684.4000244140625</ele>
        <time>2026-09-01T09:20:15.000Z</time>
        <extensions>
          <ns3:TrackPointExtension>
            <ns3:hr>122</ns3:hr>
            <ns3:cad>0</ns3:cad>
          </ns3:TrackPointExtension>
        </extensions>
      </trkpt>
      <trkpt lat="47.5471341423690319061279296875" lon="11.04979413561522960662841796875">
        <ele>1683.800048828125</ele>
        <time>2026-09-01T09:20:16.000Z</time>
        <extensions>
          <ns3:TrackPointExtension>
            <ns3:hr>121</ns3:hr>
            <ns3:cad>0</ns3:cad>
          </ns3:TrackPointExtension>
        </extensions>
      </trkpt>
      <trkpt lat="47.54712022840976715087890625" lon="11.0497943870723247528076171875">
        <ele>1683.4000244140625</ele>
        <time>2026-09-01T09:20:17.000Z</time>
        <extensions>
          <ns3:TrackPointExtension>
            <ns3:hr>121</ns3:hr>
            <ns3:cad>0</ns3:cad>
          </ns3:TrackPointExtension>
        </extensions>
      </trkpt>
      <trkpt lat="47.5471006147563457489013671875" lon="11.049797572195529937744140625">
        <ele>1682.800048828125</ele>
        <time>2026-09-01T09:20:18.000Z</time>
        <extensions>
          <ns3:TrackPointExtension>
            <ns3:hr>120</ns3:hr>
            <ns3:cad>0</ns3:cad>
          </ns3:TrackPointExtension>
        </extensions>
      </trkpt>
      <trkpt lat="47.54707999527454376220703125" lon="11.04980704374611377716064453125">
        <ele>1682.199951171875</ele>
        <time>2026-09-01T09:20:19.000Z</time>
        <extensions>
          <ns3:TrackPointExtension>
            <ns3:hr>120</ns3:hr>
            <ns3:cad>0</ns3:cad>
          </ns3:TrackPointExtension>
        </extensions>
      </trkpt>
      <trkpt lat="47.547064907848834991455078125" lon="11.04980997741222381591796875">
        <ele>1681.4000244140625</ele>
        <time>2026-09-01T09:20:20.000Z</time>
        <extensions>
          <ns3:TrackPointExtension>
            <ns3:hr>119</ns3:hr>
            <ns3:cad>0</ns3:cad>
          </ns3:TrackPointExtension>
        </extensions>
      </trkpt>
      <trkpt lat="47.54704889841377735137939453125" lon="11.04980553500354290008544921875">
        <ele>1680.800048828125</ele>
        <time>2026-09-01T09:20:21.000Z</time>
        <extensions>
          <ns3:TrackPointExtension>
            <ns3:hr>119</ns3:hr>
            <ns3:cad>79</ns3:cad>
          </ns3:TrackPointExtension>
        </extensions>
      </trkpt>
      <trkpt lat="47.54703062586486339569091796875" lon="11.04981089942157268524169921875">
        <ele>1680.199951171875</ele>
        <time>2026-09-01T09:20:22.000Z</time>
        <extensions>
          <ns3:TrackPointExtension>
            <ns3:hr>119</ns3:hr>
            <ns3:cad>79</ns3:cad>
          </ns3:TrackPointExtension>
        </extensions>
      </trkpt>
      <trkpt lat="47.5470136106014251708984375" lon="11.0498161800205707550048828125">
        <ele>1679.4000244140625</ele>
        <time>2026-09-01T09:20:23.000Z</time>
        <extensions>
          <ns3:TrackPointExtension>
            <ns3:hr>120</ns3:hr>
            <ns3:cad>79</ns3:cad>
          </ns3:TrackPointExtension>
        </extensions>
      </trkpt>
      <trkpt lat="47.5469960086047649383544921875" lon="11.0498188622295856475830078125">
        <ele>1678.800048828125</ele>
        <time>2026-09-01T09:20:24.000Z</time>
        <extensions>
          <ns3:TrackPointExtension>
            <ns3:hr>120</ns3:hr>
            <ns3:cad>79</ns3:cad>
          </ns3:TrackPointExtension>
        </extensions>
      </trkpt>
      <trkpt lat="47.5469775684177875518798828125" lon="11.04982011951506137847900390625">
        <ele>1678.4000244140625</ele>
        <time>2026-09-01T09:20:25.000Z</time>
        <extensions>
          <ns3:TrackPointExtension>
            <ns3:hr>120</ns3:hr>
            <ns3:cad>83</ns3:cad>
          </ns3:TrackPointExtension>
        </extensions>
      </trkpt>
      <trkpt lat="47.54696600139141082763671875" lon="11.04981265962123870849609375">
        <ele>1677.800048828125</ele>
        <time>2026-09-01T09:20:26.000Z</time>
        <extensions>
          <ns3:TrackPointExtension>
            <ns3:hr>119</ns3:hr>
            <ns3:cad>83</ns3:cad>
          </ns3:TrackPointExtension>
        </extensions>
      </trkpt>
      <trkpt lat="47.546969018876552581787109375" lon="11.04980335570871829986572265625">
        <ele>1677.199951171875</ele>
        <time>2026-09-01T09:20:27.000Z</time>
        <extensions>
          <ns3:TrackPointExtension>
            <ns3:hr>119</ns3:hr>
            <ns3:cad>83</ns3:cad>
          </ns3:TrackPointExtension>
        </extensions>
      </trkpt>
      <trkpt lat="47.54697362892329692840576171875" lon="11.04979614727199077606201171875">
        <ele>1676.800048828125</ele>
        <time>2026-09-01T09:20:28.000Z</time>
        <extensions>
          <ns3:TrackPointExtension>
            <ns3:hr>119</ns3:hr>
            <ns3:cad>83</ns3:cad>
          </ns3:TrackPointExtension>
        </extensions>
      </trkpt>
      <trkpt lat="47.546976394951343536376953125" lon="11.0497890226542949676513671875">
        <ele>1676.4000244140625</ele>
        <time>2026-09-01T09:20:29.000Z</time>
        <extensions>
          <ns3:TrackPointExtension>
            <ns3:hr>119</ns3:hr>
            <ns3:cad>83</ns3:cad>
          </ns3:TrackPointExtension>
        </extensions>
      </trkpt>
      <trkpt lat="47.546973712742328643798828125" lon="11.04977854527533054351806640625">
        <ele>1676.199951171875</ele>
        <time>2026-09-01T09:20:30.000Z</time>
        <extensions>
          <ns3:TrackPointExtension>
            <ns3:hr>119</ns3:hr>
            <ns3:cad>83</ns3:cad>
          </ns3:TrackPointExtension>
        </extensions>
      </trkpt>
      <trkpt lat="47.54697346128523349761962890625" lon="11.04976949281990528106689453125">
        <ele>1675.800048828125</ele>
        <time>2026-09-01T09:20:31.000Z</time>
        <extensions>
          <ns3:TrackPointExtension>
            <ns3:hr>120</ns3:hr>
            <ns3:cad>83</ns3:cad>
          </ns3:TrackPointExtension>
        </extensions>
      </trkpt>
      <trkpt lat="47.54697094671428203582763671875" lon="11.049762032926082611083984375">
        <ele>1675.199951171875</ele>
        <time>2026-09-01T09:20:32.000Z</time>
        <extensions>
          <ns3:TrackPointExtension>
            <ns3:hr>119</ns3:hr>
            <ns3:cad>83</ns3:cad>
          </ns3:TrackPointExtension>
        </extensions>
      </trkpt>
      <trkpt lat="47.54697161726653575897216796875" lon="11.04975323192775249481201171875">
        <ele>1674.5999755859375</ele>
        <time>2026-09-01T09:20:33.000Z</time>
        <extensions>
          <ns3:TrackPointExtension>
            <ns3:hr>118</ns3:hr>
            <ns3:cad>83</ns3:cad>
          </ns3:TrackPointExtension>
        </extensions>
      </trkpt>
      <trkpt lat="47.5469738803803920745849609375" lon="11.04974870570003986358642578125">
        <ele>1674</ele>
        <time>2026-09-01T09:20:34.000Z</time>
        <extensions>
          <ns3:TrackPointExtension>
            <ns3:hr>117</ns3:hr>
            <ns3:cad>83</ns3:cad>
          </ns3:TrackPointExtension>
        </extensions>
      </trkpt>
      <trkpt lat="47.54696876741945743560791015625" lon="11.0497306846082210540771484375">
        <ele>1673.5999755859375</ele>
        <time>2026-09-01T09:20:35.000Z</time>
        <extensions>
          <ns3:TrackPointExtension>
            <ns3:hr>116</ns3:hr>
            <ns3:cad>83</ns3:cad>
          </ns3:TrackPointExtension>
        </extensions>
      </trkpt>
      <trkpt lat="47.54697094671428203582763671875" lon="11.049711070954799652099609375">
        <ele>1673</ele>
        <time>2026-09-01T09:20:36.000Z</time>
        <extensions>
          <ns3:TrackPointExtension>
            <ns3:hr>115</ns3:hr>
            <ns3:cad>83</ns3:cad>
          </ns3:TrackPointExtension>
        </extensions>
      </trkpt>
      <trkpt lat="47.54695988260209560394287109375" lon="11.04969539679586887359619140625">
        <ele>1672.4000244140625</ele>
        <time>2026-09-01T09:20:37.000Z</time>
        <extensions>
          <ns3:TrackPointExtension>
            <ns3:hr>113</ns3:hr>
            <ns3:cad>83</ns3:cad>
          </ns3:TrackPointExtension>
        </extensions>
      </trkpt>
      <trkpt lat="47.54694186151027679443359375" lon="11.04970805346965789794921875">
        <ele>1671.800048828125</ele>
        <time>2026-09-01T09:20:38.000Z</time>
        <extensions>
          <ns3:TrackPointExtension>
            <ns3:hr>113</ns3:hr>
            <ns3:cad>83</ns3:cad>
          </ns3:TrackPointExtension>
        </extensions>
      </trkpt>
      <trkpt lat="47.546927444636821746826171875" lon="11.04971350170671939849853515625">
        <ele>1671.199951171875</ele>
        <time>2026-09-01T09:20:39.000Z</time>
        <extensions>
          <ns3:TrackPointExtension>
            <ns3:hr>112</ns3:hr>
            <ns3:cad>83</ns3:cad>
          </ns3:TrackPointExtension>
        </extensions>
      </trkpt>
      <trkpt lat="47.5469115190207958221435546875" lon="11.04972523637115955352783203125">
        <ele>1670.5999755859375</ele>
        <time>2026-09-01T09:20:40.000Z</time>
        <extensions>
          <ns3:TrackPointExtension>
            <ns3:hr>112</ns3:hr>
            <ns3:cad>0</ns3:cad>
          </ns3:TrackPointExtension>
        </extensions>
      </trkpt>
      <trkpt lat="47.54690556786954402923583984375" lon="11.04972087778151035308837890625">
        <ele>1670.199951171875</ele>
        <time>2026-09-01T09:20:41.000Z</time>
        <extensions>
          <ns3:TrackPointExtension>
            <ns3:hr>112</ns3:hr>
            <ns3:cad>0</ns3:cad>
          </ns3:TrackPointExtension>
        </extensions>
      </trkpt>
      <trkpt lat="47.5468955934047698974609375" lon="11.0497179441154003143310546875">
        <ele>1669.5999755859375</ele>
        <time>2026-09-01T09:20:42.000Z</time>
        <extensions>
          <ns3:TrackPointExtension>
            <ns3:hr>113</ns3:hr>
            <ns3:cad>41</ns3:cad>
          </ns3:TrackPointExtension>
        </extensions>
      </trkpt>
      <trkpt lat="47.54688930697739124298095703125" lon="11.0497142560780048370361328125">
        <ele>1669</ele>
        <time>2026-09-01T09:20:43.000Z</time>
        <extensions>
          <ns3:TrackPointExtension>
            <ns3:hr>113</ns3:hr>
            <ns3:cad>41</ns3:cad>
          </ns3:TrackPointExtension>
        </extensions>
      </trkpt>
      <trkpt lat="47.546878159046173095703125" lon="11.04971316643059253692626953125">
        <ele>1668.5999755859375</ele>
        <time>2026-09-01T09:20:44.000Z</time>
        <extensions>
          <ns3:TrackPointExtension>
            <ns3:hr>113</ns3:hr>
            <ns3:cad>41</ns3:cad>
          </ns3:TrackPointExtension>
        </extensions>
      </trkpt>
      <trkpt lat="47.546875141561031341552734375" lon="11.04969891719520092010498046875">
        <ele>1668</ele>
        <time>2026-09-01T09:20:45.000Z</time>
        <extensions>
          <ns3:TrackPointExtension>
            <ns3:hr>113</ns3:hr>
            <ns3:cad>41</ns3:cad>
          </ns3:TrackPointExtension>
        </extensions>
      </trkpt>
      <trkpt lat="47.54685644991695880889892578125" lon="11.04969330132007598876953125">
        <ele>1667.5999755859375</ele>
        <time>2026-09-01T09:20:46.000Z</time>
        <extensions>
          <ns3:TrackPointExtension>
            <ns3:hr>113</ns3:hr>
            <ns3:cad>41</ns3:cad>
          </ns3:TrackPointExtension>
        </extensions>
      </trkpt>
      <trkpt lat="47.54684689454734325408935546875" lon="11.04970009066164493560791015625">
        <ele>1667.199951171875</ele>
        <time>2026-09-01T09:20:47.000Z</time>
        <extensions>
          <ns3:TrackPointExtension>
            <ns3:hr>112</ns3:hr>
            <ns3:cad>69</ns3:cad>
          </ns3:TrackPointExtension>
        </extensions>
      </trkpt>
      <trkpt lat="47.54683583043515682220458984375" lon="11.0497058741748332977294921875">
        <ele>1666.4000244140625</ele>
        <time>2026-09-01T09:20:48.000Z</time>
        <extensions>
          <ns3:TrackPointExtension>
            <ns3:hr>112</ns3:hr>
            <ns3:cad>69</ns3:cad>
          </ns3:TrackPointExtension>
        </extensions>
      </trkpt>
      <trkpt lat="47.54682652652263641357421875" lon="11.0497189499437808990478515625">
        <ele>1666</ele>
        <time>2026-09-01T09:20:49.000Z</time>
        <extensions>
          <ns3:TrackPointExtension>
            <ns3:hr>112</ns3:hr>
            <ns3:cad>69</ns3:cad>
          </ns3:TrackPointExtension>
        </extensions>
      </trkpt>
      <trkpt lat="47.54681386984884738922119140625" lon="11.04972020722925662994384765625">
        <ele>1665.199951171875</ele>
        <time>2026-09-01T09:20:50.000Z</time>
        <extensions>
          <ns3:TrackPointExtension>
            <ns3:hr>111</ns3:hr>
            <ns3:cad>69</ns3:cad>
          </ns3:TrackPointExtension>
        </extensions>
      </trkpt>
      <trkpt lat="47.54680330865085124969482421875" lon="11.04971819557249546051025390625">
        <ele>1664.5999755859375</ele>
        <time>2026-09-01T09:20:51.000Z</time>
        <extensions>
          <ns3:TrackPointExtension>
            <ns3:hr>111</ns3:hr>
            <ns3:cad>69</ns3:cad>
          </ns3:TrackPointExtension>
        </extensions>
      </trkpt>
      <trkpt lat="47.546789981424808502197265625" lon="11.0497041977941989898681640625">
        <ele>1664</ele>
        <time>2026-09-01T09:20:52.000Z</time>
        <extensions>
          <ns3:TrackPointExtension>
            <ns3:hr>111</ns3:hr>
            <ns3:cad>69</ns3:cad>
          </ns3:TrackPointExtension>
        </extensions>
      </trkpt>
      <trkpt lat="47.54678168334066867828369140625" lon="11.04968366213142871856689453125">
        <ele>1663.5999755859375</ele>
        <time>2026-09-01T09:20:53.000Z</time>
        <extensions>
          <ns3:TrackPointExtension>
            <ns3:hr>110</ns3:hr>
            <ns3:cad>69</ns3:cad>
          </ns3:TrackPointExtension>
        </extensions>
      </trkpt>
      <trkpt lat="47.54677212797105312347412109375" lon="11.04966782033443450927734375">
        <ele>1662.800048828125</ele>
        <time>2026-09-01T09:20:54.000Z</time>
        <extensions>
          <ns3:TrackPointExtension>
            <ns3:hr>110</ns3:hr>
            <ns3:cad>69</ns3:cad>
          </ns3:TrackPointExtension>
        </extensions>
      </trkpt>
      <trkpt lat="47.5467656739056110382080078125" lon="11.04967511259019374847412109375">
        <ele>1662.199951171875</ele>
        <time>2026-09-01T09:20:55.000Z</time>
        <extensions>
          <ns3:TrackPointExtension>
            <ns3:hr>110</ns3:hr>
            <ns3:cad>69</ns3:cad>
          </ns3:TrackPointExtension>
        </extensions>
      </trkpt>
      <trkpt lat="47.5467505864799022674560546875" lon="11.049685589969158172607421875">
        <ele>1661.800048828125</ele>
        <time>2026-09-01T09:20:56.000Z</time>
        <extensions>
          <ns3:TrackPointExtension>
            <ns3:hr>110</ns3:hr>
            <ns3:cad>69</ns3:cad>
          </ns3:TrackPointExtension>
        </extensions>
      </trkpt>
      <trkpt lat="47.5467371754348278045654296875" lon="11.04971786029636859893798828125">
        <ele>1661</ele>
        <time>2026-09-01T09:20:57.000Z</time>
        <extensions>
          <ns3:TrackPointExtension>
            <ns3:hr>109</ns3:hr>
            <ns3:cad>69</ns3:cad>
          </ns3:TrackPointExtension>
        </extensions>
      </trkpt>
      <trkpt lat="47.54672720097005367279052734375" lon="11.0497350431978702545166015625">
        <ele>1660.4000244140625</ele>
        <time>2026-09-01T09:20:58.000Z</time>
        <extensions>
          <ns3:TrackPointExtension>
            <ns3:hr>109</ns3:hr>
            <ns3:cad>69</ns3:cad>
          </ns3:TrackPointExtension>
        </extensions>
      </trkpt>
      <trkpt lat="47.54671948961913585662841796875" lon="11.0497581772506237030029296875">
        <ele>1660</ele>
        <time>2026-09-01T09:20:59.000Z</time>
        <extensions>
          <ns3:TrackPointExtension>
            <ns3:hr>109</ns3:hr>
            <ns3:cad>69</ns3:cad>
          </ns3:TrackPointExtension>
        </extensions>
      </trkpt>
      <trkpt lat="47.54671663977205753326416015625" lon="11.04976840317249298095703125">
        <ele>1659.5999755859375</ele>
        <time>2026-09-01T09:21:00.000Z</time>
        <extensions>
          <ns3:TrackPointExtension>
            <ns3:hr>109</ns3:hr>
            <ns3:cad>69</ns3:cad>
          </ns3:TrackPointExtension>
        </extensions>
      </trkpt>
      <trkpt lat="47.54670524038374423980712890625" lon="11.04977217502892017364501953125">
        <ele>1659.199951171875</ele>
        <time>2026-09-01T09:21:01.000Z</time>
        <extensions>
          <ns3:TrackPointExtension>
            <ns3:hr>108</ns3:hr>
            <ns3:cad>69</ns3:cad>
          </ns3:TrackPointExtension>
        </extensions>
      </trkpt>
      <trkpt lat="47.5467023067176342010498046875" lon="11.04976714588701725006103515625">
        <ele>1658.800048828125</ele>
        <time>2026-09-01T09:21:02.000Z</time>
        <extensions>
          <ns3:TrackPointExtension>
            <ns3:hr>108</ns3:hr>
            <ns3:cad>0</ns3:cad>
          </ns3:TrackPointExtension>
        </extensions>
      </trkpt>
      <trkpt lat="47.5466971099376678466796875" lon="11.0497665591537952423095703125">
        <ele>1658.4000244140625</ele>
        <time>2026-09-01T09:21:03.000Z</time>
        <extensions>
          <ns3:TrackPointExtension>
            <ns3:hr>108</ns3:hr>
            <ns3:cad>0</ns3:cad>
          </ns3:TrackPointExtension>
        </extensions>
      </trkpt>
      <trkpt lat="47.5466878898441791534423828125" lon="11.04976664297282695770263671875">
        <ele>1657.800048828125</ele>
        <time>2026-09-01T09:21:04.000Z</time>
        <extensions>
          <ns3:TrackPointExtension>
            <ns3:hr>108</ns3:hr>
            <ns3:cad>0</ns3:cad>
          </ns3:TrackPointExtension>
        </extensions>
      </trkpt>
      <trkpt lat="47.54668110050261020660400390625" lon="11.049764715135097503662109375">
        <ele>1657.4000244140625</ele>
        <time>2026-09-01T09:21:05.000Z</time>
        <extensions>
          <ns3:TrackPointExtension>
            <ns3:hr>108</ns3:hr>
            <ns3:cad>0</ns3:cad>
          </ns3:TrackPointExtension>
        </extensions>
      </trkpt>
      <trkpt lat="47.54666953347623348236083984375" lon="11.049765050411224365234375">
        <ele>1656.800048828125</ele>
        <time>2026-09-01T09:21:06.000Z</time>
        <extensions>
          <ns3:TrackPointExtension>
            <ns3:hr>109</ns3:hr>
            <ns3:cad>0</ns3:cad>
          </ns3:TrackPointExtension>
        </extensions>
      </trkpt>
      <trkpt lat="47.5466622412204742431640625" lon="11.04975909925997257232666015625">
        <ele>1656.199951171875</ele>
        <time>2026-09-01T09:21:07.000Z</time>
        <extensions>
          <ns3:TrackPointExtension>
            <ns3:hr>112</ns3:hr>
            <ns3:cad>0</ns3:cad>
          </ns3:TrackPointExtension>
        </extensions>
      </trkpt>
      <trkpt lat="47.54665662534534931182861328125" lon="11.04975541122257709503173828125">
        <ele>1655.5999755859375</ele>
        <time>2026-09-01T09:21:08.000Z</time>
        <extensions>
          <ns3:TrackPointExtension>
            <ns3:hr>114</ns3:hr>
            <ns3:cad>0</ns3:cad>
          </ns3:TrackPointExtension>
        </extensions>
      </trkpt>
      <trkpt lat="47.54664958454668521881103515625" lon="11.04974954389035701751708984375">
        <ele>1655</ele>
        <time>2026-09-01T09:21:09.000Z</time>
        <extensions>
          <ns3:TrackPointExtension>
            <ns3:hr>115</ns3:hr>
            <ns3:cad>0</ns3:cad>
          </ns3:TrackPointExtension>
        </extensions>
      </trkpt>
      <trkpt lat="47.5466389395296573638916015625" lon="11.04974602349102497100830078125">
        <ele>1654.5999755859375</ele>
        <time>2026-09-01T09:21:10.000Z</time>
        <extensions>
          <ns3:TrackPointExtension>
            <ns3:hr>115</ns3:hr>
            <ns3:cad>0</ns3:cad>
          </ns3:TrackPointExtension>
        </extensions>
      </trkpt>
      <trkpt lat="47.546625696122646331787109375" lon="11.04975826106965541839599609375">
        <ele>1654</ele>
        <time>2026-09-01T09:21:11.000Z</time>
        <extensions>
          <ns3:TrackPointExtension>
            <ns3:hr>115</ns3:hr>
            <ns3:cad>0</ns3:cad>
          </ns3:TrackPointExtension>
        </extensions>
      </trkpt>
      <trkpt lat="47.54660717211663722991943359375" lon="11.049747951328754425048828125">
        <ele>1653.4000244140625</ele>
        <time>2026-09-01T09:21:12.000Z</time>
        <extensions>
          <ns3:TrackPointExtension>
            <ns3:hr>116</ns3:hr>
            <ns3:cad>0</ns3:cad>
          </ns3:TrackPointExtension>
        </extensions>
      </trkpt>
      <trkpt lat="47.546597532927989959716796875" lon="11.04973948560655117034912109375">
        <ele>1652.5999755859375</ele>
        <time>2026-09-01T09:21:13.000Z</time>
        <extensions>
          <ns3:TrackPointExtension>
            <ns3:hr>116</ns3:hr>
            <ns3:cad>0</ns3:cad>
          </ns3:TrackPointExtension>
        </extensions>
      </trkpt>
      <trkpt lat="47.5465871393680572509765625" lon="11.04975205846130847930908203125">
        <ele>1652</ele>
        <time>2026-09-01T09:21:14.000Z</time>
        <extensions>
          <ns3:TrackPointExtension>
            <ns3:hr>116</ns3:hr>
            <ns3:cad>0</ns3:cad>
          </ns3:TrackPointExtension>
        </extensions>
      </trkpt>
      <trkpt lat="47.54657733254134654998779296875" lon="11.04975926689803600311279296875">
        <ele>1651.5999755859375</ele>
        <time>2026-09-01T09:21:15.000Z</time>
        <extensions>
          <ns3:TrackPointExtension>
            <ns3:hr>116</ns3:hr>
            <ns3:cad>0</ns3:cad>
          </ns3:TrackPointExtension>
        </extensions>
      </trkpt>
      <trkpt lat="47.5465678609907627105712890625" lon="11.04976345784962177276611328125">
        <ele>1651</ele>
        <time>2026-09-01T09:21:16.000Z</time>
        <extensions>
          <ns3:TrackPointExtension>
            <ns3:hr>115</ns3:hr>
            <ns3:cad>0</ns3:cad>
          </ns3:TrackPointExtension>
        </extensions>
      </trkpt>
      <trkpt lat="47.54655989818274974822998046875" lon="11.0497642122209072113037109375">
        <ele>1650.5999755859375</ele>
        <time>2026-09-01T09:21:17.000Z</time>
        <extensions>
          <ns3:TrackPointExtension>
            <ns3:hr>115</ns3:hr>
            <ns3:cad>0</ns3:cad>
          </ns3:TrackPointExtension>
        </extensions>
      </trkpt>
      <trkpt lat="47.54655470140278339385986328125" lon="11.04976178146898746490478515625">
        <ele>1650.199951171875</ele>
        <time>2026-09-01T09:21:18.000Z</time>
        <extensions>
          <ns3:TrackPointExtension>
            <ns3:hr>115</ns3:hr>
            <ns3:cad>0</ns3:cad>
          </ns3:TrackPointExtension>
        </extensions>
      </trkpt>
      <trkpt lat="47.546553276479244232177734375" lon="11.04975691996514797210693359375">
        <ele>1649.5999755859375</ele>
        <time>2026-09-01T09:21:19.000Z</time>
        <extensions>
          <ns3:TrackPointExtension>
            <ns3:hr>116</ns3:hr>
            <ns3:cad>0</ns3:cad>
          </ns3:TrackPointExtension>
        </extensions>
      </trkpt>
      <trkpt lat="47.5465467385947704315185546875" lon="11.04977234266698360443115234375">
        <ele>1649.199951171875</ele>
        <time>2026-09-01T09:21:20.000Z</time>
        <extensions>
          <ns3:TrackPointExtension>
            <ns3:hr>115</ns3:hr>
            <ns3:cad>0</ns3:cad>
          </ns3:TrackPointExtension>
        </extensions>
      </trkpt>
      <trkpt lat="47.54654296673834323883056640625" lon="11.0497744381427764892578125">
        <ele>1648.800048828125</ele>
        <time>2026-09-01T09:21:21.000Z</time>
        <extensions>
          <ns3:TrackPointExtension>
            <ns3:hr>115</ns3:hr>
            <ns3:cad>0</ns3:cad>
          </ns3:TrackPointExtension>
        </extensions>
      </trkpt>
      <trkpt lat="47.54653542302548885345458984375" lon="11.049775443971157073974609375">
        <ele>1648.4000244140625</ele>
        <time>2026-09-01T09:21:22.000Z</time>
        <extensions>
          <ns3:TrackPointExtension>
            <ns3:hr>115</ns3:hr>
            <ns3:cad>0</ns3:cad>
          </ns3:TrackPointExtension>
        </extensions>
      </trkpt>
      <trkpt lat="47.546537183225154876708984375" lon="11.0497709177434444427490234375">
        <ele>1648.199951171875</ele>
        <time>2026-09-01T09:21:23.000Z</time>
        <extensions>
          <ns3:TrackPointExtension>
            <ns3:hr>116</ns3:hr>
            <ns3:cad>0</ns3:cad>
          </ns3:TrackPointExtension>
        </extensions>
      </trkpt>
      <trkpt lat="47.54653089679777622222900390625" lon="11.04975138790905475616455078125">
        <ele>1647.800048828125</ele>
        <time>2026-09-01T09:21:24.000Z</time>
        <extensions>
          <ns3:TrackPointExtension>
            <ns3:hr>115</ns3:hr>
            <ns3:cad>0</ns3:cad>
          </ns3:TrackPointExtension>
        </extensions>
      </trkpt>
      <trkpt lat="47.54652167670428752899169921875" lon="11.04973353445529937744140625">
        <ele>1647.5999755859375</ele>
        <time>2026-09-01T09:21:25.000Z</time>
        <extensions>
          <ns3:TrackPointExtension>
            <ns3:hr>115</ns3:hr>
            <ns3:cad>0</ns3:cad>
          </ns3:TrackPointExtension>
        </extensions>
      </trkpt>
      <trkpt lat="47.54650793038308620452880859375" lon="11.04974585585296154022216796875">
        <ele>1647</ele>
        <time>2026-09-01T09:21:26.000Z</time>
        <extensions>
          <ns3:TrackPointExtension>
            <ns3:hr>114</ns3:hr>
            <ns3:cad>47</ns3:cad>
          </ns3:TrackPointExtension>
        </extensions>
      </trkpt>
      <trkpt lat="47.54649938084185123443603515625" lon="11.04974870570003986358642578125">
        <ele>1646.4000244140625</ele>
        <time>2026-09-01T09:21:27.000Z</time>
        <extensions>
          <ns3:TrackPointExtension>
            <ns3:hr>114</ns3:hr>
            <ns3:cad>47</ns3:cad>
          </ns3:TrackPointExtension>
        </extensions>
      </trkpt>
      <trkpt lat="47.54648714326322078704833984375" lon="11.04972951114177703857421875">
        <ele>1646</ele>
        <time>2026-09-01T09:21:28.000Z</time>
        <extensions>
          <ns3:TrackPointExtension>
            <ns3:hr>113</ns3:hr>
            <ns3:cad>47</ns3:cad>
          </ns3:TrackPointExtension>
        </extensions>
      </trkpt>
      <trkpt lat="47.5464780069887638092041015625" lon="11.0497202910482883453369140625">
        <ele>1645.4000244140625</ele>
        <time>2026-09-01T09:21:29.000Z</time>
        <extensions>
          <ns3:TrackPointExtension>
            <ns3:hr>113</ns3:hr>
            <ns3:cad>47</ns3:cad>
          </ns3:TrackPointExtension>
        </extensions>
      </trkpt>
      <trkpt lat="47.54646954126656055450439453125" lon="11.0497119091451168060302734375">
        <ele>1645</ele>
        <time>2026-09-01T09:21:30.000Z</time>
        <extensions>
          <ns3:TrackPointExtension>
            <ns3:hr>113</ns3:hr>
            <ns3:cad>47</ns3:cad>
          </ns3:TrackPointExtension>
        </extensions>
      </trkpt>
      <trkpt lat="47.54645830951631069183349609375" lon="11.0497011803090572357177734375">
        <ele>1644.5999755859375</ele>
        <time>2026-09-01T09:21:31.000Z</time>
        <extensions>
          <ns3:TrackPointExtension>
            <ns3:hr>113</ns3:hr>
            <ns3:cad>47</ns3:cad>
          </ns3:TrackPointExtension>
        </extensions>
      </trkpt>
      <trkpt lat="47.54644565284252166748046875" lon="11.04969355277717113494873046875">
        <ele>1644.199951171875</ele>
        <time>2026-09-01T09:21:32.000Z</time>
        <extensions>
          <ns3:TrackPointExtension>
            <ns3:hr>112</ns3:hr>
            <ns3:cad>47</ns3:cad>
          </ns3:TrackPointExtension>
        </extensions>
      </trkpt>
      <trkpt lat="47.54643500782549381256103515625" lon="11.0497189499437808990478515625">
        <ele>1643.5999755859375</ele>
        <time>2026-09-01T09:21:33.000Z</time>
        <extensions>
          <ns3:TrackPointExtension>
            <ns3:hr>112</ns3:hr>
            <ns3:cad>47</ns3:cad>
          </ns3:TrackPointExtension>
        </extensions>
      </trkpt>
      <trkpt lat="47.54644372500479221343994140625" lon="11.049718447029590606689453125">
        <ele>1643.199951171875</ele>
        <time>2026-09-01T09:21:34.000Z</time>
        <extensions>
          <ns3:TrackPointExtension>
            <ns3:hr>112</ns3:hr>
            <ns3:cad>47</ns3:cad>
          </ns3:TrackPointExtension>
        </extensions>
      </trkpt>
      <trkpt lat="47.5464471615850925445556640625" lon="11.0497041977941989898681640625">
        <ele>1642.800048828125</ele>
        <time>2026-09-01T09:21:35.000Z</time>
        <extensions>
          <ns3:TrackPointExtension>
            <ns3:hr>112</ns3:hr>
            <ns3:cad>47</ns3:cad>
          </ns3:TrackPointExtension>
        </extensions>
      </trkpt>
      <trkpt lat="47.54643919877707958221435546875" lon="11.049692295491695404052734375">
        <ele>1642.4000244140625</ele>
        <time>2026-09-01T09:21:36.000Z</time>
        <extensions>
          <ns3:TrackPointExtension>
            <ns3:hr>111</ns3:hr>
            <ns3:cad>47</ns3:cad>
          </ns3:TrackPointExtension>
        </extensions>
      </trkpt>
      <trkpt lat="47.54641975276172161102294921875" lon="11.04968081228435039520263671875">
        <ele>1641.800048828125</ele>
        <time>2026-09-01T09:21:37.000Z</time>
        <extensions>
          <ns3:TrackPointExtension>
            <ns3:hr>111</ns3:hr>
            <ns3:cad>47</ns3:cad>
          </ns3:TrackPointExtension>
        </extensions>
      </trkpt>
      <trkpt lat="47.54639871418476104736328125" lon="11.04967226274311542510986328125">
        <ele>1641.199951171875</ele>
        <time>2026-09-01T09:21:38.000Z</time>
        <extensions>
          <ns3:TrackPointExtension>
            <ns3:hr>111</ns3:hr>
            <ns3:cad>47</ns3:cad>
          </ns3:TrackPointExtension>
        </extensions>
      </trkpt>
      <trkpt lat="47.54638102836906909942626953125" lon="11.04968248866498470306396484375">
        <ele>1640.5999755859375</ele>
        <time>2026-09-01T09:21:39.000Z</time>
        <extensions>
          <ns3:TrackPointExtension>
            <ns3:hr>110</ns3:hr>
            <ns3:cad>0</ns3:cad>
          </ns3:TrackPointExtension>
        </extensions>
      </trkpt>
      <trkpt lat="47.546368204057216644287109375" lon="11.04968366213142871856689453125">
        <ele>1639.800048828125</ele>
        <time>2026-09-01T09:21:40.000Z</time>
        <extensions>
          <ns3:TrackPointExtension>
            <ns3:hr>110</ns3:hr>
            <ns3:cad>0</ns3:cad>
          </ns3:TrackPointExtension>
        </extensions>
      </trkpt>
      <trkpt lat="47.54636250436305999755859375" lon="11.049674861133098602294921875">
        <ele>1639.199951171875</ele>
        <time>2026-09-01T09:21:41.000Z</time>
        <extensions>
          <ns3:TrackPointExtension>
            <ns3:hr>110</ns3:hr>
            <ns3:cad>0</ns3:cad>
          </ns3:TrackPointExtension>
        </extensions>
      </trkpt>
      <trkpt lat="47.546357475221157073974609375" lon="11.04965449310839176177978515625">
        <ele>1638.5999755859375</ele>
        <time>2026-09-01T09:21:42.000Z</time>
        <extensions>
          <ns3:TrackPointExtension>
            <ns3:hr>110</ns3:hr>
            <ns3:cad>0</ns3:cad>
          </ns3:TrackPointExtension>
        </extensions>
      </trkpt>
      <trkpt lat="47.54635219462215900421142578125" lon="11.04964175261557102203369140625">
        <ele>1638.199951171875</ele>
        <time>2026-09-01T09:21:43.000Z</time>
        <extensions>
          <ns3:TrackPointExtension>
            <ns3:hr>110</ns3:hr>
            <ns3:cad>0</ns3:cad>
          </ns3:TrackPointExtension>
        </extensions>
      </trkpt>
      <trkpt lat="47.54634716548025608062744140625" lon="11.049633957445621490478515625">
        <ele>1637.5999755859375</ele>
        <time>2026-09-01T09:21:44.000Z</time>
        <extensions>
          <ns3:TrackPointExtension>
            <ns3:hr>110</ns3:hr>
            <ns3:cad>42</ns3:cad>
          </ns3:TrackPointExtension>
        </extensions>
      </trkpt>
      <trkpt lat="47.54634515382349491119384765625" lon="11.049633957445621490478515625">
        <ele>1637.199951171875</ele>
        <time>2026-09-01T09:21:45.000Z</time>
        <extensions>
          <ns3:TrackPointExtension>
            <ns3:hr>110</ns3:hr>
            <ns3:cad>83</ns3:cad>
          </ns3:TrackPointExtension>
        </extensions>
      </trkpt>
      <trkpt lat="47.54633710719645023345947265625" lon="11.0496295988559722900390625">
        <ele>1636.4000244140625</ele>
        <time>2026-09-01T09:21:46.000Z</time>
        <extensions>
          <ns3:TrackPointExtension>
            <ns3:hr>111</ns3:hr>
            <ns3:cad>83</ns3:cad>
          </ns3:TrackPointExtension>
        </extensions>
      </trkpt>
      <trkpt lat="47.54631556570529937744140625" lon="11.0496435128152370452880859375">
        <ele>1635.800048828125</ele>
        <time>2026-09-01T09:21:47.000Z</time>
        <extensions>
          <ns3:TrackPointExtension>
            <ns3:hr>111</ns3:hr>
            <ns3:cad>83</ns3:cad>
          </ns3:TrackPointExtension>
        </extensions>
      </trkpt>
      <trkpt lat="47.54630307666957378387451171875" lon="11.0496461950242519378662109375">
        <ele>1635</ele>
        <time>2026-09-01T09:21:48.000Z</time>
        <extensions>
          <ns3:TrackPointExtension>
            <ns3:hr>110</ns3:hr>
            <ns3:cad>83</ns3:cad>
          </ns3:TrackPointExtension>
        </extensions>
      </trkpt>
      <trkpt lat="47.5462902523577213287353515625" lon="11.04964175261557102203369140625">
        <ele>1634.4000244140625</ele>
        <time>2026-09-01T09:21:49.000Z</time>
        <extensions>
          <ns3:TrackPointExtension>
            <ns3:hr>110</ns3:hr>
            <ns3:cad>83</ns3:cad>
          </ns3:TrackPointExtension>
        </extensions>
      </trkpt>
      <trkpt lat="47.546278350055217742919921875" lon="11.0496378131210803985595703125">
        <ele>1633.5999755859375</ele>
        <time>2026-09-01T09:21:50.000Z</time>
        <extensions>
          <ns3:TrackPointExtension>
            <ns3:hr>110</ns3:hr>
            <ns3:cad>83</ns3:cad>
          </ns3:TrackPointExtension>
        </extensions>
      </trkpt>
      <trkpt lat="47.546266280114650726318359375" lon="11.04963638819754123687744140625">
        <ele>1633</ele>
        <time>2026-09-01T09:21:51.000Z</time>
        <extensions>
          <ns3:TrackPointExtension>
            <ns3:hr>110</ns3:hr>
            <ns3:cad>83</ns3:cad>
          </ns3:TrackPointExtension>
        </extensions>
      </trkpt>
      <trkpt lat="47.546252869069576263427734375" lon="11.04963487945497035980224609375">
        <ele>1632.4000244140625</ele>
        <time>2026-09-01T09:21:52.000Z</time>
        <extensions>
          <ns3:TrackPointExtension>
            <ns3:hr>111</ns3:hr>
            <ns3:cad>83</ns3:cad>
          </ns3:TrackPointExtension>
        </extensions>
      </trkpt>
      <trkpt lat="47.54623987711966037750244140625" lon="11.04963169433176517486572265625">
        <ele>1631.800048828125</ele>
        <time>2026-09-01T09:21:53.000Z</time>
        <extensions>
          <ns3:TrackPointExtension>
            <ns3:hr>111</ns3:hr>
            <ns3:cad>83</ns3:cad>
          </ns3:TrackPointExtension>
        </extensions>
      </trkpt>
      <trkpt lat="47.54622763954102993011474609375" lon="11.04962415061891078948974609375">
        <ele>1631.4000244140625</ele>
        <time>2026-09-01T09:21:54.000Z</time>
        <extensions>
          <ns3:TrackPointExtension>
            <ns3:hr>110</ns3:hr>
            <ns3:cad>83</ns3:cad>
          </ns3:TrackPointExtension>
        </extensions>
      </trkpt>
      <trkpt lat="47.54621255211532115936279296875" lon="11.04961710982024669647216796875">
        <ele>1631</ele>
        <time>2026-09-01T09:21:55.000Z</time>
        <extensions>
          <ns3:TrackPointExtension>
            <ns3:hr>109</ns3:hr>
            <ns3:cad>83</ns3:cad>
          </ns3:TrackPointExtension>
        </extensions>
      </trkpt>
      <trkpt lat="47.5461983866989612579345703125" lon="11.0496056266129016876220703125">
        <ele>1630.4000244140625</ele>
        <time>2026-09-01T09:21:56.000Z</time>
        <extensions>
          <ns3:TrackPointExtension>
            <ns3:hr>109</ns3:hr>
            <ns3:cad>83</ns3:cad>
          </ns3:TrackPointExtension>
        </extensions>
      </trkpt>
      <trkpt lat="47.546182461082935333251953125" lon="11.049603112041950225830078125">
        <ele>1629.800048828125</ele>
        <time>2026-09-01T09:21:57.000Z</time>
        <extensions>
          <ns3:TrackPointExtension>
            <ns3:hr>108</ns3:hr>
            <ns3:cad>83</ns3:cad>
          </ns3:TrackPointExtension>
        </extensions>
      </trkpt>
      <trkpt lat="47.54617114551365375518798828125" lon="11.049601770937442779541015625">
        <ele>1629.199951171875</ele>
        <time>2026-09-01T09:21:58.000Z</time>
        <extensions>
          <ns3:TrackPointExtension>
            <ns3:hr>108</ns3:hr>
            <ns3:cad>83</ns3:cad>
          </ns3:TrackPointExtension>
        </extensions>
      </trkpt>
      <trkpt lat="47.546155638992786407470703125" lon="11.0495972447097301483154296875">
        <ele>1628.5999755859375</ele>
        <time>2026-09-01T09:21:59.000Z</time>
        <extensions>
          <ns3:TrackPointExtension>
            <ns3:hr>107</ns3:hr>
            <ns3:cad>83</ns3:cad>
          </ns3:TrackPointExtension>
        </extensions>
      </trkpt>
      <trkpt lat="47.546142227947711944580078125" lon="11.049582324922084808349609375">
        <ele>1628</ele>
        <time>2026-09-01T09:22:00.000Z</time>
        <extensions>
          <ns3:TrackPointExtension>
            <ns3:hr>107</ns3:hr>
            <ns3:cad>83</ns3:cad>
          </ns3:TrackPointExtension>
        </extensions>
      </trkpt>
      <trkpt lat="47.5461279787123203277587890625" lon="11.04957570321857929229736328125">
        <ele>1627.4000244140625</ele>
        <time>2026-09-01T09:22:01.000Z</time>
        <extensions>
          <ns3:TrackPointExtension>
            <ns3:hr>106</ns3:hr>
            <ns3:cad>83</ns3:cad>
          </ns3:TrackPointExtension>
        </extensions>
      </trkpt>
      <trkpt lat="47.546115405857563018798828125" lon="11.04956564493477344512939453125">
        <ele>1627</ele>
        <time>2026-09-01T09:22:02.000Z</time>
        <extensions>
          <ns3:TrackPointExtension>
            <ns3:hr>105</ns3:hr>
            <ns3:cad>71</ns3:cad>
          </ns3:TrackPointExtension>
        </extensions>
      </trkpt>
      <trkpt lat="47.54610056988894939422607421875" lon="11.04955944232642650604248046875">
        <ele>1626.4000244140625</ele>
        <time>2026-09-01T09:22:03.000Z</time>
        <extensions>
          <ns3:TrackPointExtension>
            <ns3:hr>105</ns3:hr>
            <ns3:cad>71</ns3:cad>
          </ns3:TrackPointExtension>
        </extensions>
      </trkpt>
      <trkpt lat="47.5460874103009700775146484375" lon="11.04955290444195270538330078125">
        <ele>1625.5999755859375</ele>
        <time>2026-09-01T09:22:04.000Z</time>
        <extensions>
          <ns3:TrackPointExtension>
            <ns3:hr>104</ns3:hr>
            <ns3:cad>71</ns3:cad>
          </ns3:TrackPointExtension>
        </extensions>
      </trkpt>
      <trkpt lat="47.54607793875038623809814453125" lon="11.049540080130100250244140625">
        <ele>1625</ele>
        <time>2026-09-01T09:22:05.000Z</time>
        <extensions>
          <ns3:TrackPointExtension>
            <ns3:hr>103</ns3:hr>
            <ns3:cad>71</ns3:cad>
          </ns3:TrackPointExtension>
        </extensions>
      </trkpt>
      <trkpt lat="47.54607358016073703765869140625" lon="11.04953479953110218048095703125">
        <ele>1624.4000244140625</ele>
        <time>2026-09-01T09:22:06.000Z</time>
        <extensions>
          <ns3:TrackPointExtension>
            <ns3:hr>103</ns3:hr>
            <ns3:cad>77</ns3:cad>
          </ns3:TrackPointExtension>
        </extensions>
      </trkpt>
      <trkpt lat="47.5460672937333583831787109375" lon="11.049520969390869140625">
        <ele>1623.800048828125</ele>
        <time>2026-09-01T09:22:07.000Z</time>
        <extensions>
          <ns3:TrackPointExtension>
            <ns3:hr>102</ns3:hr>
            <ns3:cad>77</ns3:cad>
          </ns3:TrackPointExtension>
        </extensions>
      </trkpt>
      <trkpt lat="47.54606318660080432891845703125" lon="11.04950982145965099334716796875">
        <ele>1623.199951171875</ele>
        <time>2026-09-01T09:22:08.000Z</time>
        <extensions>
          <ns3:TrackPointExtension>
            <ns3:hr>102</ns3:hr>
            <ns3:cad>77</ns3:cad>
          </ns3:TrackPointExtension>
        </extensions>
      </trkpt>
      <trkpt lat="47.54605698399245738983154296875" lon="11.049486100673675537109375">
        <ele>1622.5999755859375</ele>
        <time>2026-09-01T09:22:09.000Z</time>
        <extensions>
          <ns3:TrackPointExtension>
            <ns3:hr>102</ns3:hr>
            <ns3:cad>77</ns3:cad>
          </ns3:TrackPointExtension>
        </extensions>
      </trkpt>
      <trkpt lat="47.54604759626090526580810546875" lon="11.0494741983711719512939453125">
        <ele>1622</ele>
        <time>2026-09-01T09:22:10.000Z</time>
        <extensions>
          <ns3:TrackPointExtension>
            <ns3:hr>102</ns3:hr>
            <ns3:cad>77</ns3:cad>
          </ns3:TrackPointExtension>
        </extensions>
      </trkpt>
      <trkpt lat="47.5460364483296871185302734375" lon="11.0494802333414554595947265625">
        <ele>1621.5999755859375</ele>
        <time>2026-09-01T09:22:11.000Z</time>
        <extensions>
          <ns3:TrackPointExtension>
            <ns3:hr>101</ns3:hr>
            <ns3:cad>80</ns3:cad>
          </ns3:TrackPointExtension>
        </extensions>
      </trkpt>
      <trkpt lat="47.5460220314562320709228515625" lon="11.049483753740787506103515625">
        <ele>1621.199951171875</ele>
        <time>2026-09-01T09:22:12.000Z</time>
        <extensions>
          <ns3:TrackPointExtension>
            <ns3:hr>102</ns3:hr>
            <ns3:cad>80</ns3:cad>
          </ns3:TrackPointExtension>
        </extensions>
      </trkpt>
      <trkpt lat="47.54600652493536472320556640625" lon="11.04949414730072021484375">
        <ele>1620.5999755859375</ele>
        <time>2026-09-01T09:22:13.000Z</time>
        <extensions>
          <ns3:TrackPointExtension>
            <ns3:hr>102</ns3:hr>
            <ns3:cad>80</ns3:cad>
          </ns3:TrackPointExtension>
        </extensions>
      </trkpt>
      <trkpt lat="47.54598909057676792144775390625" lon="11.04949339292943477630615234375">
        <ele>1620.199951171875</ele>
        <time>2026-09-01T09:22:14.000Z</time>
        <extensions>
          <ns3:TrackPointExtension>
            <ns3:hr>101</ns3:hr>
            <ns3:cad>80</ns3:cad>
          </ns3:TrackPointExtension>
        </extensions>
      </trkpt>
      <trkpt lat="47.54597282968461513519287109375" lon="11.04949037544429302215576171875">
        <ele>1619.800048828125</ele>
        <time>2026-09-01T09:22:15.000Z</time>
        <extensions>
          <ns3:TrackPointExtension>
            <ns3:hr>102</ns3:hr>
            <ns3:cad>80</ns3:cad>
          </ns3:TrackPointExtension>
        </extensions>
      </trkpt>
      <trkpt lat="47.54595438949763774871826171875" lon="11.0494798980653285980224609375">
        <ele>1619.199951171875</ele>
        <time>2026-09-01T09:22:16.000Z</time>
        <extensions>
          <ns3:TrackPointExtension>
            <ns3:hr>102</ns3:hr>
            <ns3:cad>80</ns3:cad>
          </ns3:TrackPointExtension>
        </extensions>
      </trkpt>
      <trkpt lat="47.54594282247126102447509765625" lon="11.04946992360055446624755859375">
        <ele>1618.5999755859375</ele>
        <time>2026-09-01T09:22:17.000Z</time>
        <extensions>
          <ns3:TrackPointExtension>
            <ns3:hr>102</ns3:hr>
            <ns3:cad>80</ns3:cad>
          </ns3:TrackPointExtension>
        </extensions>
      </trkpt>
      <trkpt lat="47.54592605866491794586181640625" lon="11.04945651255548000335693359375">
        <ele>1618</ele>
        <time>2026-09-01T09:22:18.000Z</time>
        <extensions>
          <ns3:TrackPointExtension>
            <ns3:hr>102</ns3:hr>
            <ns3:cad>80</ns3:cad>
          </ns3:TrackPointExtension>
        </extensions>
      </trkpt>
      <trkpt lat="47.54590786993503570556640625" lon="11.04946472682058811187744140625">
        <ele>1617.4000244140625</ele>
        <time>2026-09-01T09:22:19.000Z</time>
        <extensions>
          <ns3:TrackPointExtension>
            <ns3:hr>102</ns3:hr>
            <ns3:cad>80</ns3:cad>
          </ns3:TrackPointExtension>
        </extensions>
      </trkpt>
      <trkpt lat="47.54589311778545379638671875" lon="11.04945592582225799560546875">
        <ele>1616.800048828125</ele>
        <time>2026-09-01T09:22:20.000Z</time>
        <extensions>
          <ns3:TrackPointExtension>
            <ns3:hr>102</ns3:hr>
            <ns3:cad>80</ns3:cad>
          </ns3:TrackPointExtension>
        </extensions>
      </trkpt>
      <trkpt lat="47.5458815507590770721435546875" lon="11.0494473762810230255126953125">
        <ele>1616.4000244140625</ele>
        <time>2026-09-01T09:22:21.000Z</time>
        <extensions>
          <ns3:TrackPointExtension>
            <ns3:hr>102</ns3:hr>
            <ns3:cad>80</ns3:cad>
          </ns3:TrackPointExtension>
        </extensions>
      </trkpt>
      <trkpt lat="47.54586705006659030914306640625" lon="11.04943706654012203216552734375">
        <ele>1615.800048828125</ele>
        <time>2026-09-01T09:22:22.000Z</time>
        <extensions>
          <ns3:TrackPointExtension>
            <ns3:hr>102</ns3:hr>
            <ns3:cad>80</ns3:cad>
          </ns3:TrackPointExtension>
        </extensions>
      </trkpt>
      <trkpt lat="47.54584810696542263031005859375" lon="11.04942533187568187713623046875">
        <ele>1615</ele>
        <time>2026-09-01T09:22:23.000Z</time>
        <extensions>
          <ns3:TrackPointExtension>
            <ns3:hr>102</ns3:hr>
            <ns3:cad>80</ns3:cad>
          </ns3:TrackPointExtension>
        </extensions>
      </trkpt>
      <trkpt lat="47.5458322651684284210205078125" lon="11.04942432604730129241943359375">
        <ele>1614.4000244140625</ele>
        <time>2026-09-01T09:22:24.000Z</time>
        <extensions>
          <ns3:TrackPointExtension>
            <ns3:hr>102</ns3:hr>
            <ns3:cad>80</ns3:cad>
          </ns3:TrackPointExtension>
        </extensions>
      </trkpt>
      <trkpt lat="47.54581457935273647308349609375" lon="11.049443520605564117431640625">
        <ele>1613.5999755859375</ele>
        <time>2026-09-01T09:22:25.000Z</time>
        <extensions>
          <ns3:TrackPointExtension>
            <ns3:hr>102</ns3:hr>
            <ns3:cad>80</ns3:cad>
          </ns3:TrackPointExtension>
        </extensions>
      </trkpt>
      <trkpt lat="47.54579655826091766357421875" lon="11.04944930411875247955322265625">
        <ele>1613</ele>
        <time>2026-09-01T09:22:26.000Z</time>
        <extensions>
          <ns3:TrackPointExtension>
            <ns3:hr>102</ns3:hr>
            <ns3:cad>80</ns3:cad>
          </ns3:TrackPointExtension>
        </extensions>
      </trkpt>
      <trkpt lat="47.54577568732202053070068359375" lon="11.04944561608135700225830078125">
        <ele>1612.800048828125</ele>
        <time>2026-09-01T09:22:27.000Z</time>
        <extensions>
          <ns3:TrackPointExtension>
            <ns3:hr>102</ns3:hr>
            <ns3:cad>80</ns3:cad>
          </ns3:TrackPointExtension>
        </extensions>
      </trkpt>
      <trkpt lat="47.54575230181217193603515625" lon="11.0494279302656650543212890625">
        <ele>1612</ele>
        <time>2026-09-01T09:22:28.000Z</time>
        <extensions>
          <ns3:TrackPointExtension>
            <ns3:hr>102</ns3:hr>
            <ns3:cad>80</ns3:cad>
          </ns3:TrackPointExtension>
        </extensions>
      </trkpt>
      <trkpt lat="47.54573176614940166473388671875" lon="11.0494094900786876678466796875">
        <ele>1611.4000244140625</ele>
        <time>2026-09-01T09:22:29.000Z</time>
        <extensions>
          <ns3:TrackPointExtension>
            <ns3:hr>102</ns3:hr>
            <ns3:cad>80</ns3:cad>
          </ns3:TrackPointExtension>
        </extensions>
      </trkpt>
      <trkpt lat="47.54571349360048770904541015625" lon="11.04939968325197696685791015625">
        <ele>1611</ele>
        <time>2026-09-01T09:22:30.000Z</time>
        <extensions>
          <ns3:TrackPointExtension>
            <ns3:hr>102</ns3:hr>
            <ns3:cad>79</ns3:cad>
          </ns3:TrackPointExtension>
        </extensions>
      </trkpt>
      <trkpt lat="47.54569874145090579986572265625" lon="11.04937118478119373321533203125">
        <ele>1610.5999755859375</ele>
        <time>2026-09-01T09:22:31.000Z</time>
        <extensions>
          <ns3:TrackPointExtension>
            <ns3:hr>102</ns3:hr>
            <ns3:cad>77</ns3:cad>
          </ns3:TrackPointExtension>
        </extensions>
      </trkpt>
      <trkpt lat="47.5456864200532436370849609375" lon="11.049348972737789154052734375">
        <ele>1610.199951171875</ele>
        <time>2026-09-01T09:22:32.000Z</time>
        <extensions>
          <ns3:TrackPointExtension>
            <ns3:hr>103</ns3:hr>
            <ns3:cad>76</ns3:cad>
          </ns3:TrackPointExtension>
        </extensions>
      </trkpt>
      <trkpt lat="47.5456750206649303436279296875" lon="11.0493399202823638916015625">
        <ele>1609.800048828125</ele>
        <time>2026-09-01T09:22:33.000Z</time>
        <extensions>
          <ns3:TrackPointExtension>
            <ns3:hr>103</ns3:hr>
            <ns3:cad>76</ns3:cad>
          </ns3:TrackPointExtension>
        </extensions>
      </trkpt>
      <trkpt lat="47.54565783776342868804931640625" lon="11.04932340793311595916748046875">
        <ele>1609.199951171875</ele>
        <time>2026-09-01T09:22:34.000Z</time>
        <extensions>
          <ns3:TrackPointExtension>
            <ns3:hr>104</ns3:hr>
            <ns3:cad>76</ns3:cad>
          </ns3:TrackPointExtension>
        </extensions>
      </trkpt>
      <trkpt lat="47.54564702510833740234375" lon="11.0493112541735172271728515625">
        <ele>1608.5999755859375</ele>
        <time>2026-09-01T09:22:35.000Z</time>
        <extensions>
          <ns3:TrackPointExtension>
            <ns3:hr>105</ns3:hr>
            <ns3:cad>76</ns3:cad>
          </ns3:TrackPointExtension>
        </extensions>
      </trkpt>
      <trkpt lat="47.545648030936717987060546875" lon="11.04928451590240001678466796875">
        <ele>1608</ele>
        <time>2026-09-01T09:22:36.000Z</time>
        <extensions>
          <ns3:TrackPointExtension>
            <ns3:hr>105</ns3:hr>
            <ns3:cad>0</ns3:cad>
          </ns3:TrackPointExtension>
        </extensions>
      </trkpt>
      <trkpt lat="47.54564174450933933258056640625" lon="11.04924445040524005889892578125">
        <ele>1607.4000244140625</ele>
        <time>2026-09-01T09:22:37.000Z</time>
        <extensions>
          <ns3:TrackPointExtension>
            <ns3:hr>106</ns3:hr>
            <ns3:cad>0</ns3:cad>
          </ns3:TrackPointExtension>
        </extensions>
      </trkpt>
      <trkpt lat="47.54564509727060794830322265625" lon="11.04921159334480762481689453125">
        <ele>1607</ele>
        <time>2026-09-01T09:22:38.000Z</time>
        <extensions>
          <ns3:TrackPointExtension>
            <ns3:hr>106</ns3:hr>
            <ns3:cad>0</ns3:cad>
          </ns3:TrackPointExtension>
        </extensions>
      </trkpt>
      <trkpt lat="47.5456404872238636016845703125" lon="11.049173288047313690185546875">
        <ele>1606.4000244140625</ele>
        <time>2026-09-01T09:22:39.000Z</time>
        <extensions>
          <ns3:TrackPointExtension>
            <ns3:hr>107</ns3:hr>
            <ns3:cad>0</ns3:cad>
          </ns3:TrackPointExtension>
        </extensions>
      </trkpt>
      <trkpt lat="47.5456287525594234466552734375" lon="11.04912777431309223175048828125">
        <ele>1606</ele>
        <time>2026-09-01T09:22:40.000Z</time>
        <extensions>
          <ns3:TrackPointExtension>
            <ns3:hr>107</ns3:hr>
            <ns3:cad>0</ns3:cad>
          </ns3:TrackPointExtension>
        </extensions>
      </trkpt>
      <trkpt lat="47.54562112502753734588623046875" lon="11.0490851104259490966796875">
        <ele>1605.4000244140625</ele>
        <time>2026-09-01T09:22:41.000Z</time>
        <extensions>
          <ns3:TrackPointExtension>
            <ns3:hr>108</ns3:hr>
            <ns3:cad>0</ns3:cad>
          </ns3:TrackPointExtension>
        </extensions>
      </trkpt>
      <trkpt lat="47.545612491667270660400390625" lon="11.04903909377753734588623046875">
        <ele>1605</ele>
        <time>2026-09-01T09:22:42.000Z</time>
        <extensions>
          <ns3:TrackPointExtension>
            <ns3:hr>108</ns3:hr>
            <ns3:cad>0</ns3:cad>
          </ns3:TrackPointExtension>
        </extensions>
      </trkpt>
      <trkpt lat="47.54560117609798908233642578125" lon="11.04899282567203044891357421875">
        <ele>1604.4000244140625</ele>
        <time>2026-09-01T09:22:43.000Z</time>
        <extensions>
          <ns3:TrackPointExtension>
            <ns3:hr>109</ns3:hr>
            <ns3:cad>0</ns3:cad>
          </ns3:TrackPointExtension>
        </extensions>
      </trkpt>
      <trkpt lat="47.54559178836643695831298828125" lon="11.0489464737474918365478515625">
        <ele>1603.5999755859375</ele>
        <time>2026-09-01T09:22:44.000Z</time>
        <extensions>
          <ns3:TrackPointExtension>
            <ns3:hr>110</ns3:hr>
            <ns3:cad>0</ns3:cad>
          </ns3:TrackPointExtension>
        </extensions>
      </trkpt>
      <trkpt lat="47.54557753913104534149169921875" lon="11.04887179099023342132568359375">
        <ele>1602.800048828125</ele>
        <time>2026-09-01T09:22:45.000Z</time>
        <extensions>
          <ns3:TrackPointExtension>
            <ns3:hr>111</ns3:hr>
            <ns3:cad>0</ns3:cad>
          </ns3:TrackPointExtension>
        </extensions>
      </trkpt>
      <trkpt lat="47.5455637089908123016357421875" lon="11.0488267801702022552490234375">
        <ele>1602.800048828125</ele>
        <time>2026-09-01T09:22:46.000Z</time>
        <extensions>
          <ns3:TrackPointExtension>
            <ns3:hr>112</ns3:hr>
            <ns3:cad>89</ns3:cad>
          </ns3:TrackPointExtension>
        </extensions>
      </trkpt>
      <trkpt lat="47.54553965292870998382568359375" lon="11.0487873852252960205078125">
        <ele>1602.4000244140625</ele>
        <time>2026-09-01T09:22:47.000Z</time>
        <extensions>
          <ns3:TrackPointExtension>
            <ns3:hr>113</ns3:hr>
            <ns3:cad>90</ns3:cad>
          </ns3:TrackPointExtension>
        </extensions>
      </trkpt>
      <trkpt lat="47.5455234758555889129638671875" lon="11.0487471520900726318359375">
        <ele>1602.199951171875</ele>
        <time>2026-09-01T09:22:48.000Z</time>
        <extensions>
          <ns3:TrackPointExtension>
            <ns3:hr>114</ns3:hr>
            <ns3:cad>90</ns3:cad>
          </ns3:TrackPointExtension>
        </extensions>
      </trkpt>
      <trkpt lat="47.54550109617412090301513671875" lon="11.048719994723796844482421875">
        <ele>1601.800048828125</ele>
        <time>2026-09-01T09:22:49.000Z</time>
        <extensions>
          <ns3:TrackPointExtension>
            <ns3:hr>115</ns3:hr>
            <ns3:cad>90</ns3:cad>
          </ns3:TrackPointExtension>
        </extensions>
      </trkpt>
      <trkpt lat="47.5454721786081790924072265625" lon="11.048686802387237548828125">
        <ele>1601.5999755859375</ele>
        <time>2026-09-01T09:22:50.000Z</time>
        <extensions>
          <ns3:TrackPointExtension>
            <ns3:hr>117</ns3:hr>
            <ns3:cad>88</ns3:cad>
          </ns3:TrackPointExtension>
        </extensions>
      </trkpt>
      <trkpt lat="47.54544745199382305145263671875" lon="11.04866291396319866180419921875">
        <ele>1601.4000244140625</ele>
        <time>2026-09-01T09:22:51.000Z</time>
        <extensions>
          <ns3:TrackPointExtension>
            <ns3:hr>119</ns3:hr>
            <ns3:cad>88</ns3:cad>
          </ns3:TrackPointExtension>
        </extensions>
      </trkpt>
      <trkpt lat="47.54542465321719646453857421875" lon="11.0486608184874057769775390625">
        <ele>1601.4000244140625</ele>
        <time>2026-09-01T09:22:52.000Z</time>
        <extensions>
          <ns3:TrackPointExtension>
            <ns3:hr>120</ns3:hr>
            <ns3:cad>88</ns3:cad>
          </ns3:TrackPointExtension>
        </extensions>
      </trkpt>
      <trkpt lat="47.5453970767557621002197265625" lon="11.04863491840660572052001953125">
        <ele>1601.5999755859375</ele>
        <time>2026-09-01T09:22:53.000Z</time>
        <extensions>
          <ns3:TrackPointExtension>
            <ns3:hr>120</ns3:hr>
            <ns3:cad>88</ns3:cad>
          </ns3:TrackPointExtension>
        </extensions>
      </trkpt>
      <trkpt lat="47.5453769601881504058837890625" lon="11.04861496947705745697021484375">
        <ele>1601.5999755859375</ele>
        <time>2026-09-01T09:22:54.000Z</time>
        <extensions>
          <ns3:TrackPointExtension>
            <ns3:hr>121</ns3:hr>
            <ns3:cad>88</ns3:cad>
          </ns3:TrackPointExtension>
        </extensions>
      </trkpt>
      <trkpt lat="47.54535240121185779571533203125" lon="11.04863357730209827423095703125">
        <ele>1601.800048828125</ele>
        <time>2026-09-01T09:22:55.000Z</time>
        <extensions>
          <ns3:TrackPointExtension>
            <ns3:hr>122</ns3:hr>
            <ns3:cad>84</ns3:cad>
          </ns3:TrackPointExtension>
        </extensions>
      </trkpt>
      <trkpt lat="47.54532893188297748565673828125" lon="11.04862838052213191986083984375">
        <ele>1602.199951171875</ele>
        <time>2026-09-01T09:22:56.000Z</time>
        <extensions>
          <ns3:TrackPointExtension>
            <ns3:hr>122</ns3:hr>
            <ns3:cad>84</ns3:cad>
          </ns3:TrackPointExtension>
        </extensions>
      </trkpt>
      <trkpt lat="47.54530864767730236053466796875" lon="11.0486269555985927581787109375">
        <ele>1602.4000244140625</ele>
        <time>2026-09-01T09:22:57.000Z</time>
        <extensions>
          <ns3:TrackPointExtension>
            <ns3:hr>123</ns3:hr>
            <ns3:cad>84</ns3:cad>
          </ns3:TrackPointExtension>
        </extensions>
      </trkpt>
      <trkpt lat="47.5452948175370693206787109375" lon="11.04862368665635585784912109375">
        <ele>1602.800048828125</ele>
        <time>2026-09-01T09:22:58.000Z</time>
        <extensions>
          <ns3:TrackPointExtension>
            <ns3:hr>123</ns3:hr>
            <ns3:cad>84</ns3:cad>
          </ns3:TrackPointExtension>
        </extensions>
      </trkpt>
      <trkpt lat="47.54527964629232883453369140625" lon="11.0486182384192943572998046875">
        <ele>1603</ele>
        <time>2026-09-01T09:22:59.000Z</time>
        <extensions>
          <ns3:TrackPointExtension>
            <ns3:hr>123</ns3:hr>
            <ns3:cad>84</ns3:cad>
          </ns3:TrackPointExtension>
        </extensions>
      </trkpt>
      <trkpt lat="47.54526657052338123321533203125" lon="11.048615388572216033935546875">
        <ele>1603.4000244140625</ele>
        <time>2026-09-01T09:23:00.000Z</time>
        <extensions>
          <ns3:TrackPointExtension>
            <ns3:hr>124</ns3:hr>
            <ns3:cad>84</ns3:cad>
          </ns3:TrackPointExtension>
        </extensions>
      </trkpt>
      <trkpt lat="47.54525475203990936279296875" lon="11.04859988205134868621826171875">
        <ele>1603.800048828125</ele>
        <time>2026-09-01T09:23:01.000Z</time>
        <extensions>
          <ns3:TrackPointExtension>
            <ns3:hr>124</ns3:hr>
            <ns3:cad>84</ns3:cad>
          </ns3:TrackPointExtension>
        </extensions>
      </trkpt>
      <trkpt lat="47.5452384911477565765380859375" lon="11.048575825989246368408203125">
        <ele>1604.199951171875</ele>
        <time>2026-09-01T09:23:02.000Z</time>
        <extensions>
          <ns3:TrackPointExtension>
            <ns3:hr>124</ns3:hr>
            <ns3:cad>0</ns3:cad>
          </ns3:TrackPointExtension>
        </extensions>
      </trkpt>
      <trkpt lat="47.54522784613072872161865234375" lon="11.04855964891612529754638671875">
        <ele>1604.5999755859375</ele>
        <time>2026-09-01T09:23:03.000Z</time>
        <extensions>
          <ns3:TrackPointExtension>
            <ns3:hr>123</ns3:hr>
            <ns3:cad>0</ns3:cad>
          </ns3:TrackPointExtension>
        </extensions>
      </trkpt>
      <trkpt lat="47.54521661438047885894775390625" lon="11.0485433042049407958984375">
        <ele>1604.800048828125</ele>
        <time>2026-09-01T09:23:04.000Z</time>
        <extensions>
          <ns3:TrackPointExtension>
            <ns3:hr>124</ns3:hr>
            <ns3:cad>0</ns3:cad>
          </ns3:TrackPointExtension>
        </extensions>
      </trkpt>
      <trkpt lat="47.5451992638409137725830078125" lon="11.04851254262030124664306640625">
        <ele>1605</ele>
        <time>2026-09-01T09:23:05.000Z</time>
        <extensions>
          <ns3:TrackPointExtension>
            <ns3:hr>124</ns3:hr>
            <ns3:cad>51</ns3:cad>
          </ns3:TrackPointExtension>
        </extensions>
      </trkpt>
      <trkpt lat="47.54518828354775905609130859375" lon="11.04849024675786495208740234375">
        <ele>1605.4000244140625</ele>
        <time>2026-09-01T09:23:06.000Z</time>
        <extensions>
          <ns3:TrackPointExtension>
            <ns3:hr>124</ns3:hr>
            <ns3:cad>75</ns3:cad>
          </ns3:TrackPointExtension>
        </extensions>
      </trkpt>
      <trkpt lat="47.54517587833106517791748046875" lon="11.04846476577222347259521484375">
        <ele>1605.4000244140625</ele>
        <time>2026-09-01T09:23:07.000Z</time>
        <extensions>
          <ns3:TrackPointExtension>
            <ns3:hr>124</ns3:hr>
            <ns3:cad>78</ns3:cad>
          </ns3:TrackPointExtension>
        </extensions>
      </trkpt>
      <trkpt lat="47.54515458829700946807861328125" lon="11.04845001362264156341552734375">
        <ele>1605.4000244140625</ele>
        <time>2026-09-01T09:23:08.000Z</time>
        <extensions>
          <ns3:TrackPointExtension>
            <ns3:hr>125</ns3:hr>
            <ns3:cad>78</ns3:cad>
          </ns3:TrackPointExtension>
        </extensions>
      </trkpt>
      <trkpt lat="47.545137740671634674072265625" lon="11.04843794368207454681396484375">
        <ele>1605.4000244140625</ele>
        <time>2026-09-01T09:23:09.000Z</time>
        <extensions>
          <ns3:TrackPointExtension>
            <ns3:hr>125</ns3:hr>
            <ns3:cad>78</ns3:cad>
          </ns3:TrackPointExtension>
        </extensions>
      </trkpt>
      <trkpt lat="47.54512323997914791107177734375" lon="11.04842268861830234527587890625">
        <ele>1605.4000244140625</ele>
        <time>2026-09-01T09:23:10.000Z</time>
        <extensions>
          <ns3:TrackPointExtension>
            <ns3:hr>126</ns3:hr>
            <ns3:cad>77</ns3:cad>
          </ns3:TrackPointExtension>
        </extensions>
      </trkpt>
      <trkpt lat="47.54511670209467411041259765625" lon="11.04839419014751911163330078125">
        <ele>1605.199951171875</ele>
        <time>2026-09-01T09:23:11.000Z</time>
        <extensions>
          <ns3:TrackPointExtension>
            <ns3:hr>126</ns3:hr>
            <ns3:cad>77</ns3:cad>
          </ns3:TrackPointExtension>
        </extensions>
      </trkpt>
      <trkpt lat="47.54510446451604366302490234375" lon="11.0483729839324951171875">
        <ele>1605</ele>
        <time>2026-09-01T09:23:12.000Z</time>
        <extensions>
          <ns3:TrackPointExtension>
            <ns3:hr>126</ns3:hr>
            <ns3:cad>76</ns3:cad>
          </ns3:TrackPointExtension>
        </extensions>
      </trkpt>
      <trkpt lat="47.54508552141487598419189453125" lon="11.0483624227344989776611328125">
        <ele>1604.5999755859375</ele>
        <time>2026-09-01T09:23:13.000Z</time>
        <extensions>
          <ns3:TrackPointExtension>
            <ns3:hr>127</ns3:hr>
            <ns3:cad>76</ns3:cad>
          </ns3:TrackPointExtension>
        </extensions>
      </trkpt>
      <trkpt lat="47.5450691767036914825439453125" lon="11.0483528673648834228515625">
        <ele>1604.199951171875</ele>
        <time>2026-09-01T09:23:14.000Z</time>
        <extensions>
          <ns3:TrackPointExtension>
            <ns3:hr>127</ns3:hr>
            <ns3:cad>76</ns3:cad>
          </ns3:TrackPointExtension>
        </extensions>
      </trkpt>
      <trkpt lat="47.54505224525928497314453125" lon="11.04834373109042644500732421875">
        <ele>1603.5999755859375</ele>
        <time>2026-09-01T09:23:15.000Z</time>
        <extensions>
          <ns3:TrackPointExtension>
            <ns3:hr>128</ns3:hr>
            <ns3:cad>76</ns3:cad>
          </ns3:TrackPointExtension>
        </extensions>
      </trkpt>
      <trkpt lat="47.54503556527197360992431640625" lon="11.0483282245695590972900390625">
        <ele>1603.199951171875</ele>
        <time>2026-09-01T09:23:16.000Z</time>
        <extensions>
          <ns3:TrackPointExtension>
            <ns3:hr>128</ns3:hr>
            <ns3:cad>75</ns3:cad>
          </ns3:TrackPointExtension>
        </extensions>
      </trkpt>
      <trkpt lat="47.54502349533140659332275390625" lon="11.04831070639193058013916015625">
        <ele>1603</ele>
        <time>2026-09-01T09:23:17.000Z</time>
        <extensions>
          <ns3:TrackPointExtension>
            <ns3:hr>129</ns3:hr>
            <ns3:cad>75</ns3:cad>
          </ns3:TrackPointExtension>
        </extensions>
      </trkpt>
      <trkpt lat="47.54499784670770168304443359375" lon="11.0482816211879253387451171875">
        <ele>1602.199951171875</ele>
        <time>2026-09-01T09:23:18.000Z</time>
        <extensions>
          <ns3:TrackPointExtension>
            <ns3:hr>129</ns3:hr>
            <ns3:cad>75</ns3:cad>
          </ns3:TrackPointExtension>
        </extensions>
      </trkpt>
      <trkpt lat="47.54497773014008998870849609375" lon="11.0482517816126346588134765625">
        <ele>1601.4000244140625</ele>
        <time>2026-09-01T09:23:19.000Z</time>
        <extensions>
          <ns3:TrackPointExtension>
            <ns3:hr>129</ns3:hr>
            <ns3:cad>75</ns3:cad>
          </ns3:TrackPointExtension>
        </extensions>
      </trkpt>
      <trkpt lat="47.544960044324398040771484375" lon="11.04822722263634204864501953125">
        <ele>1600.5999755859375</ele>
        <time>2026-09-01T09:23:20.000Z</time>
        <extensions>
          <ns3:TrackPointExtension>
            <ns3:hr>129</ns3:hr>
            <ns3:cad>75</ns3:cad>
          </ns3:TrackPointExtension>
        </extensions>
      </trkpt>
      <trkpt lat="47.54492509178817272186279296875" lon="11.04820308275520801544189453125">
        <ele>1600</ele>
        <time>2026-09-01T09:23:21.000Z</time>
        <extensions>
          <ns3:TrackPointExtension>
            <ns3:hr>129</ns3:hr>
            <ns3:cad>0</ns3:cad>
          </ns3:TrackPointExtension>
        </extensions>
      </trkpt>
      <trkpt lat="47.54489533603191375732421875" lon="11.04818430729210376739501953125">
        <ele>1599.800048828125</ele>
        <time>2026-09-01T09:23:22.000Z</time>
        <extensions>
          <ns3:TrackPointExtension>
            <ns3:hr>128</ns3:hr>
            <ns3:cad>0</ns3:cad>
          </ns3:TrackPointExtension>
        </extensions>
      </trkpt>
      <trkpt lat="47.5448653288185596466064453125" lon="11.04816821403801441192626953125">
        <ele>1599.4000244140625</ele>
        <time>2026-09-01T09:23:23.000Z</time>
        <extensions>
          <ns3:TrackPointExtension>
            <ns3:hr>127</ns3:hr>
            <ns3:cad>0</ns3:cad>
          </ns3:TrackPointExtension>
        </extensions>
      </trkpt>
      <trkpt lat="47.54482685588300228118896484375" lon="11.0481344349682331085205078125">
        <ele>1599.199951171875</ele>
        <time>2026-09-01T09:23:24.000Z</time>
        <extensions>
          <ns3:TrackPointExtension>
            <ns3:hr>126</ns3:hr>
            <ns3:cad>0</ns3:cad>
          </ns3:TrackPointExtension>
        </extensions>
      </trkpt>
      <trkpt lat="47.54479751922190189361572265625" lon="11.04811121709644794464111328125">
        <ele>1599</ele>
        <time>2026-09-01T09:23:25.000Z</time>
        <extensions>
          <ns3:TrackPointExtension>
            <ns3:hr>124</ns3:hr>
            <ns3:cad>0</ns3:cad>
          </ns3:TrackPointExtension>
        </extensions>
      </trkpt>
      <trkpt lat="47.5447667576372623443603515625" lon="11.04808556847274303436279296875">
        <ele>1598.800048828125</ele>
        <time>2026-09-01T09:23:26.000Z</time>
        <extensions>
          <ns3:TrackPointExtension>
            <ns3:hr>124</ns3:hr>
            <ns3:cad>0</ns3:cad>
          </ns3:TrackPointExtension>
        </extensions>
      </trkpt>
      <trkpt lat="47.544740103185176849365234375" lon="11.0480553098022937774658203125">
        <ele>1598.199951171875</ele>
        <time>2026-09-01T09:23:27.000Z</time>
        <extensions>
          <ns3:TrackPointExtension>
            <ns3:hr>124</ns3:hr>
            <ns3:cad>80</ns3:cad>
          </ns3:TrackPointExtension>
        </extensions>
      </trkpt>
      <trkpt lat="47.54471889697015285491943359375" lon="11.04802086018025875091552734375">
        <ele>1597.5999755859375</ele>
        <time>2026-09-01T09:23:28.000Z</time>
        <extensions>
          <ns3:TrackPointExtension>
            <ns3:hr>125</ns3:hr>
            <ns3:cad>80</ns3:cad>
          </ns3:TrackPointExtension>
        </extensions>
      </trkpt>
      <trkpt lat="47.54469911567866802215576171875" lon="11.0479751788079738616943359375">
        <ele>1597.199951171875</ele>
        <time>2026-09-01T09:23:29.000Z</time>
        <extensions>
          <ns3:TrackPointExtension>
            <ns3:hr>125</ns3:hr>
            <ns3:cad>81</ns3:cad>
          </ns3:TrackPointExtension>
        </extensions>
      </trkpt>
      <trkpt lat="47.54468184895813465118408203125" lon="11.04792379774153232574462890625">
        <ele>1596.800048828125</ele>
        <time>2026-09-01T09:23:30.000Z</time>
        <extensions>
          <ns3:TrackPointExtension>
            <ns3:hr>125</ns3:hr>
            <ns3:cad>81</ns3:cad>
          </ns3:TrackPointExtension>
        </extensions>
      </trkpt>
      <trkpt lat="47.54467162303626537322998046875" lon="11.047877110540866851806640625">
        <ele>1596.800048828125</ele>
        <time>2026-09-01T09:23:31.000Z</time>
        <extensions>
          <ns3:TrackPointExtension>
            <ns3:hr>125</ns3:hr>
            <ns3:cad>81</ns3:cad>
          </ns3:TrackPointExtension>
        </extensions>
      </trkpt>
      <trkpt lat="47.54467941820621490478515625" lon="11.04781064204871654510498046875">
        <ele>1596.5999755859375</ele>
        <time>2026-09-01T09:23:32.000Z</time>
        <extensions>
          <ns3:TrackPointExtension>
            <ns3:hr>126</ns3:hr>
            <ns3:cad>81</ns3:cad>
          </ns3:TrackPointExtension>
        </extensions>
      </trkpt>
      <trkpt lat="47.54467673599720001220703125" lon="11.04775674641132354736328125">
        <ele>1596.4000244140625</ele>
        <time>2026-09-01T09:23:33.000Z</time>
        <extensions>
          <ns3:TrackPointExtension>
            <ns3:hr>126</ns3:hr>
            <ns3:cad>81</ns3:cad>
          </ns3:TrackPointExtension>
        </extensions>
      </trkpt>
      <trkpt lat="47.5446779094636440277099609375" lon="11.04770117439329624176025390625">
        <ele>1596</ele>
        <time>2026-09-01T09:23:34.000Z</time>
        <extensions>
          <ns3:TrackPointExtension>
            <ns3:hr>127</ns3:hr>
            <ns3:cad>81</ns3:cad>
          </ns3:TrackPointExtension>
        </extensions>
      </trkpt>
      <trkpt lat="47.54468402825295925140380859375" lon="11.04765624739229679107666015625">
        <ele>1595.800048828125</ele>
        <time>2026-09-01T09:23:35.000Z</time>
        <extensions>
          <ns3:TrackPointExtension>
            <ns3:hr>127</ns3:hr>
            <ns3:cad>81</ns3:cad>
          </ns3:TrackPointExtension>
        </extensions>
      </trkpt>
      <trkpt lat="47.544686459004878997802734375" lon="11.04761618189513683319091796875">
        <ele>1595.5999755859375</ele>
        <time>2026-09-01T09:23:36.000Z</time>
        <extensions>
          <ns3:TrackPointExtension>
            <ns3:hr>128</ns3:hr>
            <ns3:cad>83</ns3:cad>
          </ns3:TrackPointExtension>
        </extensions>
      </trkpt>
      <trkpt lat="47.54468972794711589813232421875" lon="11.0475723445415496826171875">
        <ele>1595.199951171875</ele>
        <time>2026-09-01T09:23:37.000Z</time>
        <extensions>
          <ns3:TrackPointExtension>
            <ns3:hr>129</ns3:hr>
            <ns3:cad>83</ns3:cad>
          </ns3:TrackPointExtension>
        </extensions>
      </trkpt>
      <trkpt lat="47.54469341598451137542724609375" lon="11.04754158295691013336181640625">
        <ele>1595</ele>
        <time>2026-09-01T09:23:38.000Z</time>
        <extensions>
          <ns3:TrackPointExtension>
            <ns3:hr>130</ns3:hr>
            <ns3:cad>81</ns3:cad>
          </ns3:TrackPointExtension>
        </extensions>
      </trkpt>
      <trkpt lat="47.5446980260312557220458984375" lon="11.047511659562587738037109375">
        <ele>1594.800048828125</ele>
        <time>2026-09-01T09:23:39.000Z</time>
        <extensions>
          <ns3:TrackPointExtension>
            <ns3:hr>130</ns3:hr>
            <ns3:cad>81</ns3:cad>
          </ns3:TrackPointExtension>
        </extensions>
      </trkpt>
      <trkpt lat="47.54470313899219036102294921875" lon="11.0474742762744426727294921875">
        <ele>1594.199951171875</ele>
        <time>2026-09-01T09:23:40.000Z</time>
        <extensions>
          <ns3:TrackPointExtension>
            <ns3:hr>131</ns3:hr>
            <ns3:cad>81</ns3:cad>
          </ns3:TrackPointExtension>
        </extensions>
      </trkpt>
      <trkpt lat="47.54470800049602985382080078125" lon="11.0474290139973163604736328125">
        <ele>1593.800048828125</ele>
        <time>2026-09-01T09:23:41.000Z</time>
        <extensions>
          <ns3:TrackPointExtension>
            <ns3:hr>131</ns3:hr>
            <ns3:cad>81</ns3:cad>
          </ns3:TrackPointExtension>
        </extensions>
      </trkpt>
      <trkpt lat="47.5447090901434421539306640625" lon="11.04738266207277774810791015625">
        <ele>1593.199951171875</ele>
        <time>2026-09-01T09:23:42.000Z</time>
        <extensions>
          <ns3:TrackPointExtension>
            <ns3:hr>131</ns3:hr>
            <ns3:cad>81</ns3:cad>
          </ns3:TrackPointExtension>
        </extensions>
      </trkpt>
      <trkpt lat="47.544693164527416229248046875" lon="11.047333292663097381591796875">
        <ele>1592.5999755859375</ele>
        <time>2026-09-01T09:23:43.000Z</time>
        <extensions>
          <ns3:TrackPointExtension>
            <ns3:hr>132</ns3:hr>
            <ns3:cad>81</ns3:cad>
          </ns3:TrackPointExtension>
        </extensions>
      </trkpt>
      <trkpt lat="47.54469576291739940643310546875" lon="11.0472724400460720062255859375">
        <ele>1592.199951171875</ele>
        <time>2026-09-01T09:23:44.000Z</time>
        <extensions>
          <ns3:TrackPointExtension>
            <ns3:hr>132</ns3:hr>
            <ns3:cad>81</ns3:cad>
          </ns3:TrackPointExtension>
        </extensions>
      </trkpt>
      <trkpt lat="47.54468956030905246734619140625" lon="11.04721904732286930084228515625">
        <ele>1591.4000244140625</ele>
        <time>2026-09-01T09:23:45.000Z</time>
        <extensions>
          <ns3:TrackPointExtension>
            <ns3:hr>132</ns3:hr>
            <ns3:cad>81</ns3:cad>
          </ns3:TrackPointExtension>
        </extensions>
      </trkpt>
      <trkpt lat="47.54468754865229129791259765625" lon="11.047170348465442657470703125">
        <ele>1591.5999755859375</ele>
        <time>2026-09-01T09:23:46.000Z</time>
        <extensions>
          <ns3:TrackPointExtension>
            <ns3:hr>132</ns3:hr>
            <ns3:cad>81</ns3:cad>
          </ns3:TrackPointExtension>
        </extensions>
      </trkpt>
      <trkpt lat="47.54468369297683238983154296875" lon="11.0471111722290515899658203125">
        <ele>1592.4000244140625</ele>
        <time>2026-09-01T09:23:47.000Z</time>
        <extensions>
          <ns3:TrackPointExtension>
            <ns3:hr>132</ns3:hr>
            <ns3:cad>81</ns3:cad>
          </ns3:TrackPointExtension>
        </extensions>
      </trkpt>
      <trkpt lat="47.54467849619686603546142578125" lon="11.0470843501389026641845703125">
        <ele>1592.5999755859375</ele>
        <time>2026-09-01T09:23:48.000Z</time>
        <extensions>
          <ns3:TrackPointExtension>
            <ns3:hr>133</ns3:hr>
            <ns3:cad>82</ns3:cad>
          </ns3:TrackPointExtension>
        </extensions>
      </trkpt>
      <trkpt lat="47.54467648454010486602783203125" lon="11.047049649059772491455078125">
        <ele>1592.5999755859375</ele>
        <time>2026-09-01T09:23:49.000Z</time>
        <extensions>
          <ns3:TrackPointExtension>
            <ns3:hr>132</ns3:hr>
            <ns3:cad>82</ns3:cad>
          </ns3:TrackPointExtension>
        </extensions>
      </trkpt>
      <trkpt lat="47.54467380233108997344970703125" lon="11.04702106676995754241943359375">
        <ele>1592.5999755859375</ele>
        <time>2026-09-01T09:23:50.000Z</time>
        <extensions>
          <ns3:TrackPointExtension>
            <ns3:hr>131</ns3:hr>
            <ns3:cad>82</ns3:cad>
          </ns3:TrackPointExtension>
        </extensions>
      </trkpt>
      <trkpt lat="47.54467195831239223480224609375" lon="11.04698502458631992340087890625">
        <ele>1592.4000244140625</ele>
        <time>2026-09-01T09:23:51.000Z</time>
        <extensions>
          <ns3:TrackPointExtension>
            <ns3:hr>131</ns3:hr>
            <ns3:cad>82</ns3:cad>
          </ns3:TrackPointExtension>
        </extensions>
      </trkpt>
      <trkpt lat="47.5446765683591365814208984375" lon="11.0469787381589412689208984375">
        <ele>1591.5999755859375</ele>
        <time>2026-09-01T09:23:52.000Z</time>
        <extensions>
          <ns3:TrackPointExtension>
            <ns3:hr>131</ns3:hr>
            <ns3:cad>82</ns3:cad>
          </ns3:TrackPointExtension>
        </extensions>
      </trkpt>
      <trkpt lat="47.544677741825580596923828125" lon="11.046967841684818267822265625">
        <ele>1590.800048828125</ele>
        <time>2026-09-01T09:23:53.000Z</time>
        <extensions>
          <ns3:TrackPointExtension>
            <ns3:hr>131</ns3:hr>
            <ns3:cad>82</ns3:cad>
          </ns3:TrackPointExtension>
        </extensions>
      </trkpt>
      <trkpt lat="47.544673718512058258056640625" lon="11.04696574620902538299560546875">
        <ele>1590</ele>
        <time>2026-09-01T09:23:54.000Z</time>
        <extensions>
          <ns3:TrackPointExtension>
            <ns3:hr>130</ns3:hr>
            <ns3:cad>82</ns3:cad>
          </ns3:TrackPointExtension>
        </extensions>
      </trkpt>
      <trkpt lat="47.5446693599224090576171875" lon="11.04697479866445064544677734375">
        <ele>1589.5999755859375</ele>
        <time>2026-09-01T09:23:55.000Z</time>
        <extensions>
          <ns3:TrackPointExtension>
            <ns3:hr>130</ns3:hr>
            <ns3:cad>82</ns3:cad>
          </ns3:TrackPointExtension>
        </extensions>
      </trkpt>
      <trkpt lat="47.5446584634482860565185546875" lon="11.0469844378530979156494140625">
        <ele>1589.4000244140625</ele>
        <time>2026-09-01T09:23:56.000Z</time>
        <extensions>
          <ns3:TrackPointExtension>
            <ns3:hr>130</ns3:hr>
            <ns3:cad>82</ns3:cad>
          </ns3:TrackPointExtension>
        </extensions>
      </trkpt>
      <trkpt lat="47.54464547149837017059326171875" lon="11.0469715297222137451171875">
        <ele>1589.4000244140625</ele>
        <time>2026-09-01T09:23:57.000Z</time>
        <extensions>
          <ns3:TrackPointExtension>
            <ns3:hr>129</ns3:hr>
            <ns3:cad>47</ns3:cad>
          </ns3:TrackPointExtension>
        </extensions>
      </trkpt>
      <trkpt lat="47.544621415436267852783203125" lon="11.046953760087490081787109375">
        <ele>1589.4000244140625</ele>
        <time>2026-09-01T09:23:58.000Z</time>
        <extensions>
          <ns3:TrackPointExtension>
            <ns3:hr>129</ns3:hr>
            <ns3:cad>47</ns3:cad>
          </ns3:TrackPointExtension>
        </extensions>
      </trkpt>
      <trkpt lat="47.54460029304027557373046875" lon="11.04693238623440265655517578125">
        <ele>1589.4000244140625</ele>
        <time>2026-09-01T09:23:59.000Z</time>
        <extensions>
          <ns3:TrackPointExtension>
            <ns3:hr>128</ns3:hr>
            <ns3:cad>0</ns3:cad>
          </ns3:TrackPointExtension>
        </extensions>
      </trkpt>
      <trkpt lat="47.5445808470249176025390625" lon="11.04689869098365306854248046875">
        <ele>1589.199951171875</ele>
        <time>2026-09-01T09:24:00.000Z</time>
        <extensions>
          <ns3:TrackPointExtension>
            <ns3:hr>127</ns3:hr>
            <ns3:cad>0</ns3:cad>
          </ns3:TrackPointExtension>
        </extensions>
      </trkpt>
      <trkpt lat="47.54456542432308197021484375" lon="11.04686566628515720367431640625">
        <ele>1589</ele>
        <time>2026-09-01T09:24:01.000Z</time>
        <extensions>
          <ns3:TrackPointExtension>
            <ns3:hr>126</ns3:hr>
            <ns3:cad>0</ns3:cad>
          </ns3:TrackPointExtension>
        </extensions>
      </trkpt>
      <trkpt lat="47.54456114955246448516845703125" lon="11.04683138430118560791015625">
        <ele>1588.800048828125</ele>
        <time>2026-09-01T09:24:02.000Z</time>
        <extensions>
          <ns3:TrackPointExtension>
            <ns3:hr>127</ns3:hr>
            <ns3:cad>83</ns3:cad>
          </ns3:TrackPointExtension>
        </extensions>
      </trkpt>
      <trkpt lat="47.54454371519386768341064453125" lon="11.04678587056696414947509765625">
        <ele>1588.4000244140625</ele>
        <time>2026-09-01T09:24:03.000Z</time>
        <extensions>
          <ns3:TrackPointExtension>
            <ns3:hr>128</ns3:hr>
            <ns3:cad>83</ns3:cad>
          </ns3:TrackPointExtension>
        </extensions>
      </trkpt>
      <trkpt lat="47.54453055560588836669921875" lon="11.0467383451759815216064453125">
        <ele>1587.5999755859375</ele>
        <time>2026-09-01T09:24:04.000Z</time>
        <extensions>
          <ns3:TrackPointExtension>
            <ns3:hr>129</ns3:hr>
            <ns3:cad>83</ns3:cad>
          </ns3:TrackPointExtension>
        </extensions>
      </trkpt>
      <trkpt lat="47.54450934939086437225341796875" lon="11.04670708067715167999267578125">
        <ele>1586.800048828125</ele>
        <time>2026-09-01T09:24:05.000Z</time>
        <extensions>
          <ns3:TrackPointExtension>
            <ns3:hr>130</ns3:hr>
            <ns3:cad>83</ns3:cad>
          </ns3:TrackPointExtension>
        </extensions>
      </trkpt>
      <trkpt lat="47.544494681060314178466796875" lon="11.04668042622506618499755859375">
        <ele>1586.199951171875</ele>
        <time>2026-09-01T09:24:06.000Z</time>
        <extensions>
          <ns3:TrackPointExtension>
            <ns3:hr>130</ns3:hr>
            <ns3:cad>83</ns3:cad>
          </ns3:TrackPointExtension>
        </extensions>
      </trkpt>
      <trkpt lat="47.5444857962429523468017578125" lon="11.046653687953948974609375">
        <ele>1585.5999755859375</ele>
        <time>2026-09-01T09:24:07.000Z</time>
        <extensions>
          <ns3:TrackPointExtension>
            <ns3:hr>131</ns3:hr>
            <ns3:cad>83</ns3:cad>
          </ns3:TrackPointExtension>
        </extensions>
      </trkpt>
      <trkpt lat="47.54447615705430507659912109375" lon="11.046621166169643402099609375">
        <ele>1584.800048828125</ele>
        <time>2026-09-01T09:24:08.000Z</time>
        <extensions>
          <ns3:TrackPointExtension>
            <ns3:hr>131</ns3:hr>
            <ns3:cad>83</ns3:cad>
          </ns3:TrackPointExtension>
        </extensions>
      </trkpt>
      <trkpt lat="47.54447288811206817626953125" lon="11.046581268310546875">
        <ele>1584</ele>
        <time>2026-09-01T09:24:09.000Z</time>
        <extensions>
          <ns3:TrackPointExtension>
            <ns3:hr>132</ns3:hr>
            <ns3:cad>83</ns3:cad>
          </ns3:TrackPointExtension>
        </extensions>
      </trkpt>
      <trkpt lat="47.5444613210856914520263671875" lon="11.0465375147759914398193359375">
        <ele>1583.4000244140625</ele>
        <time>2026-09-01T09:24:10.000Z</time>
        <extensions>
          <ns3:TrackPointExtension>
            <ns3:hr>132</ns3:hr>
            <ns3:cad>83</ns3:cad>
          </ns3:TrackPointExtension>
        </extensions>
      </trkpt>
      <trkpt lat="47.54444983787834644317626953125" lon="11.0464935936033725738525390625">
        <ele>1583</ele>
        <time>2026-09-01T09:24:11.000Z</time>
        <extensions>
          <ns3:TrackPointExtension>
            <ns3:hr>132</ns3:hr>
            <ns3:cad>83</ns3:cad>
          </ns3:TrackPointExtension>
        </extensions>
      </trkpt>
      <trkpt lat="47.54443533718585968017578125" lon="11.04646123945713043212890625">
        <ele>1581.800048828125</ele>
        <time>2026-09-01T09:24:12.000Z</time>
        <extensions>
          <ns3:TrackPointExtension>
            <ns3:hr>133</ns3:hr>
            <ns3:cad>83</ns3:cad>
          </ns3:TrackPointExtension>
        </extensions>
      </trkpt>
      <trkpt lat="47.54442670382559299468994140625" lon="11.0464188270270824432373046875">
        <ele>1580.800048828125</ele>
        <time>2026-09-01T09:24:13.000Z</time>
        <extensions>
          <ns3:TrackPointExtension>
            <ns3:hr>133</ns3:hr>
            <ns3:cad>83</ns3:cad>
          </ns3:TrackPointExtension>
        </extensions>
      </trkpt>
      <trkpt lat="47.544410526752471923828125" lon="11.04637851007282733917236328125">
        <ele>1580.199951171875</ele>
        <time>2026-09-01T09:24:14.000Z</time>
        <extensions>
          <ns3:TrackPointExtension>
            <ns3:hr>134</ns3:hr>
            <ns3:cad>83</ns3:cad>
          </ns3:TrackPointExtension>
        </extensions>
      </trkpt>
      <trkpt lat="47.54439912736415863037109375" lon="11.04633978568017482757568359375">
        <ele>1579.4000244140625</ele>
        <time>2026-09-01T09:24:15.000Z</time>
        <extensions>
          <ns3:TrackPointExtension>
            <ns3:hr>135</ns3:hr>
            <ns3:cad>83</ns3:cad>
          </ns3:TrackPointExtension>
        </extensions>
      </trkpt>
      <trkpt lat="47.54439468495547771453857421875" lon="11.04629368521273136138916015625">
        <ele>1578.800048828125</ele>
        <time>2026-09-01T09:24:16.000Z</time>
        <extensions>
          <ns3:TrackPointExtension>
            <ns3:hr>136</ns3:hr>
            <ns3:cad>83</ns3:cad>
          </ns3:TrackPointExtension>
        </extensions>
      </trkpt>
      <trkpt lat="47.54439049400389194488525390625" lon="11.0462553799152374267578125">
        <ele>1578.199951171875</ele>
        <time>2026-09-01T09:24:17.000Z</time>
        <extensions>
          <ns3:TrackPointExtension>
            <ns3:hr>136</ns3:hr>
            <ns3:cad>83</ns3:cad>
          </ns3:TrackPointExtension>
        </extensions>
      </trkpt>
      <trkpt lat="47.54438580013811588287353515625" lon="11.0462169907987117767333984375">
        <ele>1577.800048828125</ele>
        <time>2026-09-01T09:24:18.000Z</time>
        <extensions>
          <ns3:TrackPointExtension>
            <ns3:hr>137</ns3:hr>
            <ns3:cad>83</ns3:cad>
          </ns3:TrackPointExtension>
        </extensions>
      </trkpt>
      <trkpt lat="47.54438345320522785186767578125" lon="11.046190671622753143310546875">
        <ele>1577.4000244140625</ele>
        <time>2026-09-01T09:24:19.000Z</time>
        <extensions>
          <ns3:TrackPointExtension>
            <ns3:hr>136</ns3:hr>
            <ns3:cad>43</ns3:cad>
          </ns3:TrackPointExtension>
        </extensions>
      </trkpt>
      <trkpt lat="47.54437607713043689727783203125" lon="11.04615169577300548553466796875">
        <ele>1577</ele>
        <time>2026-09-01T09:24:20.000Z</time>
        <extensions>
          <ns3:TrackPointExtension>
            <ns3:hr>135</ns3:hr>
            <ns3:cad>43</ns3:cad>
          </ns3:TrackPointExtension>
        </extensions>
      </trkpt>
      <trkpt lat="47.5443593971431255340576171875" lon="11.0461239516735076904296875">
        <ele>1576.5999755859375</ele>
        <time>2026-09-01T09:24:21.000Z</time>
        <extensions>
          <ns3:TrackPointExtension>
            <ns3:hr>134</ns3:hr>
            <ns3:cad>43</ns3:cad>
          </ns3:TrackPointExtension>
        </extensions>
      </trkpt>
      <trkpt lat="47.544348500669002532958984375" lon="11.04609117843210697174072265625">
        <ele>1576.199951171875</ele>
        <time>2026-09-01T09:24:22.000Z</time>
        <extensions>
          <ns3:TrackPointExtension>
            <ns3:hr>132</ns3:hr>
            <ns3:cad>43</ns3:cad>
          </ns3:TrackPointExtension>
        </extensions>
      </trkpt>
      <trkpt lat="47.54434087313711643218994140625" lon="11.04606963694095611572265625">
        <ele>1575.4000244140625</ele>
        <time>2026-09-01T09:24:23.000Z</time>
        <extensions>
          <ns3:TrackPointExtension>
            <ns3:hr>131</ns3:hr>
            <ns3:cad>43</ns3:cad>
          </ns3:TrackPointExtension>
        </extensions>
      </trkpt>
      <trkpt lat="47.54433450289070606231689453125" lon="11.0460449941456317901611328125">
        <ele>1574.800048828125</ele>
        <time>2026-09-01T09:24:24.000Z</time>
        <extensions>
          <ns3:TrackPointExtension>
            <ns3:hr>130</ns3:hr>
            <ns3:cad>43</ns3:cad>
          </ns3:TrackPointExtension>
        </extensions>
      </trkpt>
      <trkpt lat="47.54432511515915393829345703125" lon="11.04600098915398120880126953125">
        <ele>1574.800048828125</ele>
        <time>2026-09-01T09:24:25.000Z</time>
        <extensions>
          <ns3:TrackPointExtension>
            <ns3:hr>130</ns3:hr>
            <ns3:cad>43</ns3:cad>
          </ns3:TrackPointExtension>
        </extensions>
      </trkpt>
      <trkpt lat="47.54432159475982189178466796875" lon="11.04597014375030994415283203125">
        <ele>1575.199951171875</ele>
        <time>2026-09-01T09:24:26.000Z</time>
        <extensions>
          <ns3:TrackPointExtension>
            <ns3:hr>130</ns3:hr>
            <ns3:cad>83</ns3:cad>
          </ns3:TrackPointExtension>
        </extensions>
      </trkpt>
      <trkpt lat="47.54431924782693386077880859375" lon="11.0459377057850360870361328125">
        <ele>1575.800048828125</ele>
        <time>2026-09-01T09:24:27.000Z</time>
        <extensions>
          <ns3:TrackPointExtension>
            <ns3:hr>130</ns3:hr>
            <ns3:cad>83</ns3:cad>
          </ns3:TrackPointExtension>
        </extensions>
      </trkpt>
      <trkpt lat="47.544335089623928070068359375" lon="11.04589797556400299072265625">
        <ele>1576</ele>
        <time>2026-09-01T09:24:28.000Z</time>
        <extensions>
          <ns3:TrackPointExtension>
            <ns3:hr>130</ns3:hr>
            <ns3:cad>81</ns3:cad>
          </ns3:TrackPointExtension>
        </extensions>
      </trkpt>
      <trkpt lat="47.54434070549905300140380859375" lon="11.04585262946784496307373046875">
        <ele>1576.199951171875</ele>
        <time>2026-09-01T09:24:29.000Z</time>
        <extensions>
          <ns3:TrackPointExtension>
            <ns3:hr>130</ns3:hr>
            <ns3:cad>81</ns3:cad>
          </ns3:TrackPointExtension>
        </extensions>
      </trkpt>
      <trkpt lat="47.544338442385196685791015625" lon="11.04582111351191997528076171875">
        <ele>1576</ele>
        <time>2026-09-01T09:24:30.000Z</time>
        <extensions>
          <ns3:TrackPointExtension>
            <ns3:hr>130</ns3:hr>
            <ns3:cad>81</ns3:cad>
          </ns3:TrackPointExtension>
        </extensions>
      </trkpt>
      <trkpt lat="47.5443449802696704864501953125" lon="11.04578322730958461761474609375">
        <ele>1575.5999755859375</ele>
        <time>2026-09-01T09:24:31.000Z</time>
        <extensions>
          <ns3:TrackPointExtension>
            <ns3:hr>130</ns3:hr>
            <ns3:cad>81</ns3:cad>
          </ns3:TrackPointExtension>
        </extensions>
      </trkpt>
      <trkpt lat="47.54433534108102321624755859375" lon="11.0457482747733592987060546875">
        <ele>1575.199951171875</ele>
        <time>2026-09-01T09:24:32.000Z</time>
        <extensions>
          <ns3:TrackPointExtension>
            <ns3:hr>130</ns3:hr>
            <ns3:cad>81</ns3:cad>
          </ns3:TrackPointExtension>
        </extensions>
      </trkpt>
      <trkpt lat="47.54433014430105686187744140625" lon="11.0457063652575016021728515625">
        <ele>1574.5999755859375</ele>
        <time>2026-09-01T09:24:33.000Z</time>
        <extensions>
          <ns3:TrackPointExtension>
            <ns3:hr>130</ns3:hr>
            <ns3:cad>81</ns3:cad>
          </ns3:TrackPointExtension>
        </extensions>
      </trkpt>
      <trkpt lat="47.54433182068169116973876953125" lon="11.045668981969356536865234375">
        <ele>1574</ele>
        <time>2026-09-01T09:24:34.000Z</time>
        <extensions>
          <ns3:TrackPointExtension>
            <ns3:hr>129</ns3:hr>
            <ns3:cad>80</ns3:cad>
          </ns3:TrackPointExtension>
        </extensions>
      </trkpt>
      <trkpt lat="47.5443258695304393768310546875" lon="11.045634113252162933349609375">
        <ele>1573.4000244140625</ele>
        <time>2026-09-01T09:24:35.000Z</time>
        <extensions>
          <ns3:TrackPointExtension>
            <ns3:hr>130</ns3:hr>
            <ns3:cad>80</ns3:cad>
          </ns3:TrackPointExtension>
        </extensions>
      </trkpt>
      <trkpt lat="47.54432737827301025390625" lon="11.04559413157403469085693359375">
        <ele>1573</ele>
        <time>2026-09-01T09:24:36.000Z</time>
        <extensions>
          <ns3:TrackPointExtension>
            <ns3:hr>130</ns3:hr>
            <ns3:cad>80</ns3:cad>
          </ns3:TrackPointExtension>
        </extensions>
      </trkpt>
      <trkpt lat="47.54432427696883678436279296875" lon="11.04556194506585597991943359375">
        <ele>1572.4000244140625</ele>
        <time>2026-09-01T09:24:37.000Z</time>
        <extensions>
          <ns3:TrackPointExtension>
            <ns3:hr>131</ns3:hr>
            <ns3:cad>80</ns3:cad>
          </ns3:TrackPointExtension>
        </extensions>
      </trkpt>
      <trkpt lat="47.5443161465227603912353515625" lon="11.0455212928354740142822265625">
        <ele>1571.800048828125</ele>
        <time>2026-09-01T09:24:38.000Z</time>
        <extensions>
          <ns3:TrackPointExtension>
            <ns3:hr>129</ns3:hr>
            <ns3:cad>80</ns3:cad>
          </ns3:TrackPointExtension>
        </extensions>
      </trkpt>
      <trkpt lat="47.5443097762763500213623046875" lon="11.04547544382512569427490234375">
        <ele>1571.4000244140625</ele>
        <time>2026-09-01T09:24:39.000Z</time>
        <extensions>
          <ns3:TrackPointExtension>
            <ns3:hr>129</ns3:hr>
            <ns3:cad>80</ns3:cad>
          </ns3:TrackPointExtension>
        </extensions>
      </trkpt>
      <trkpt lat="47.5443040765821933746337890625" lon="11.04544376023113727569580078125">
        <ele>1571</ele>
        <time>2026-09-01T09:24:40.000Z</time>
        <extensions>
          <ns3:TrackPointExtension>
            <ns3:hr>128</ns3:hr>
            <ns3:cad>80</ns3:cad>
          </ns3:TrackPointExtension>
        </extensions>
      </trkpt>
      <trkpt lat="47.5443070940673351287841796875" lon="11.04540805332362651824951171875">
        <ele>1570.4000244140625</ele>
        <time>2026-09-01T09:24:41.000Z</time>
        <extensions>
          <ns3:TrackPointExtension>
            <ns3:hr>127</ns3:hr>
            <ns3:cad>81</ns3:cad>
          </ns3:TrackPointExtension>
        </extensions>
      </trkpt>
      <trkpt lat="47.54430231638252735137939453125" lon="11.0453704185783863067626953125">
        <ele>1569.800048828125</ele>
        <time>2026-09-01T09:24:42.000Z</time>
        <extensions>
          <ns3:TrackPointExtension>
            <ns3:hr>127</ns3:hr>
            <ns3:cad>81</ns3:cad>
          </ns3:TrackPointExtension>
        </extensions>
      </trkpt>
      <trkpt lat="47.54429192282259464263916015625" lon="11.04532800614833831787109375">
        <ele>1569</ele>
        <time>2026-09-01T09:24:43.000Z</time>
        <extensions>
          <ns3:TrackPointExtension>
            <ns3:hr>127</ns3:hr>
            <ns3:cad>81</ns3:cad>
          </ns3:TrackPointExtension>
        </extensions>
      </trkpt>
      <trkpt lat="47.54429058171808719635009765625" lon="11.04530914686620235443115234375">
        <ele>1568.199951171875</ele>
        <time>2026-09-01T09:24:44.000Z</time>
        <extensions>
          <ns3:TrackPointExtension>
            <ns3:hr>128</ns3:hr>
            <ns3:cad>85</ns3:cad>
          </ns3:TrackPointExtension>
        </extensions>
      </trkpt>
      <trkpt lat="47.544290162622928619384765625" lon="11.04528618045151233673095703125">
        <ele>1567.800048828125</ele>
        <time>2026-09-01T09:24:45.000Z</time>
        <extensions>
          <ns3:TrackPointExtension>
            <ns3:hr>128</ns3:hr>
            <ns3:cad>86</ns3:cad>
          </ns3:TrackPointExtension>
        </extensions>
      </trkpt>
      <trkpt lat="47.544298879802227020263671875" lon="11.0452420078217983245849609375">
        <ele>1567.5999755859375</ele>
        <time>2026-09-01T09:24:46.000Z</time>
        <extensions>
          <ns3:TrackPointExtension>
            <ns3:hr>128</ns3:hr>
            <ns3:cad>86</ns3:cad>
          </ns3:TrackPointExtension>
        </extensions>
      </trkpt>
      <trkpt lat="47.54430516622960567474365234375" lon="11.04520219378173351287841796875">
        <ele>1567.4000244140625</ele>
        <time>2026-09-01T09:24:47.000Z</time>
        <extensions>
          <ns3:TrackPointExtension>
            <ns3:hr>129</ns3:hr>
            <ns3:cad>86</ns3:cad>
          </ns3:TrackPointExtension>
        </extensions>
      </trkpt>
      <trkpt lat="47.54432176239788532257080078125" lon="11.0451635532081127166748046875">
        <ele>1567.199951171875</ele>
        <time>2026-09-01T09:24:48.000Z</time>
        <extensions>
          <ns3:TrackPointExtension>
            <ns3:hr>129</ns3:hr>
            <ns3:cad>86</ns3:cad>
          </ns3:TrackPointExtension>
        </extensions>
      </trkpt>
      <trkpt lat="47.54432712681591510772705078125" lon="11.045125164091587066650390625">
        <ele>1567</ele>
        <time>2026-09-01T09:24:49.000Z</time>
        <extensions>
          <ns3:TrackPointExtension>
            <ns3:hr>129</ns3:hr>
            <ns3:cad>86</ns3:cad>
          </ns3:TrackPointExtension>
        </extensions>
      </trkpt>
      <trkpt lat="47.54432863555848598480224609375" lon="11.0450740344822406768798828125">
        <ele>1566.800048828125</ele>
        <time>2026-09-01T09:24:50.000Z</time>
        <extensions>
          <ns3:TrackPointExtension>
            <ns3:hr>129</ns3:hr>
            <ns3:cad>86</ns3:cad>
          </ns3:TrackPointExtension>
        </extensions>
      </trkpt>
      <trkpt lat="47.54433634690940380096435546875" lon="11.04504310525953769683837890625">
        <ele>1566.800048828125</ele>
        <time>2026-09-01T09:24:51.000Z</time>
        <extensions>
          <ns3:TrackPointExtension>
            <ns3:hr>130</ns3:hr>
            <ns3:cad>86</ns3:cad>
          </ns3:TrackPointExtension>
        </extensions>
      </trkpt>
      <trkpt lat="47.54435344599187374114990234375" lon="11.04500454850494861602783203125">
        <ele>1566.800048828125</ele>
        <time>2026-09-01T09:24:52.000Z</time>
        <extensions>
          <ns3:TrackPointExtension>
            <ns3:hr>131</ns3:hr>
            <ns3:cad>86</ns3:cad>
          </ns3:TrackPointExtension>
        </extensions>
      </trkpt>
      <trkpt lat="47.54437523894011974334716796875" lon="11.04497051797807216644287109375">
        <ele>1567</ele>
        <time>2026-09-01T09:24:53.000Z</time>
        <extensions>
          <ns3:TrackPointExtension>
            <ns3:hr>131</ns3:hr>
            <ns3:cad>86</ns3:cad>
          </ns3:TrackPointExtension>
        </extensions>
      </trkpt>
      <trkpt lat="47.5443957746028900146484375" lon="11.04494336061179637908935546875">
        <ele>1567.199951171875</ele>
        <time>2026-09-01T09:24:54.000Z</time>
        <extensions>
          <ns3:TrackPointExtension>
            <ns3:hr>132</ns3:hr>
            <ns3:cad>86</ns3:cad>
          </ns3:TrackPointExtension>
        </extensions>
      </trkpt>
      <trkpt lat="47.54441111348569393157958984375" lon="11.0449090786278247833251953125">
        <ele>1567.4000244140625</ele>
        <time>2026-09-01T09:24:55.000Z</time>
        <extensions>
          <ns3:TrackPointExtension>
            <ns3:hr>133</ns3:hr>
            <ns3:cad>84</ns3:cad>
          </ns3:TrackPointExtension>
        </extensions>
      </trkpt>
      <trkpt lat="47.54442888312041759490966796875" lon="11.0448809154331684112548828125">
        <ele>1567.5999755859375</ele>
        <time>2026-09-01T09:24:56.000Z</time>
        <extensions>
          <ns3:TrackPointExtension>
            <ns3:hr>134</ns3:hr>
            <ns3:cad>82</ns3:cad>
          </ns3:TrackPointExtension>
        </extensions>
      </trkpt>
      <trkpt lat="47.54445008933544158935546875" lon="11.04485082440078258514404296875">
        <ele>1567.5999755859375</ele>
        <time>2026-09-01T09:24:57.000Z</time>
        <extensions>
          <ns3:TrackPointExtension>
            <ns3:hr>134</ns3:hr>
            <ns3:cad>82</ns3:cad>
          </ns3:TrackPointExtension>
        </extensions>
      </trkpt>
      <trkpt lat="47.54444933496415615081787109375" lon="11.04481478221714496612548828125">
        <ele>1567.800048828125</ele>
        <time>2026-09-01T09:24:58.000Z</time>
        <extensions>
          <ns3:TrackPointExtension>
            <ns3:hr>134</ns3:hr>
            <ns3:cad>82</ns3:cad>
          </ns3:TrackPointExtension>
        </extensions>
      </trkpt>
      <trkpt lat="47.54445218481123447418212890625" lon="11.04478879831731319427490234375">
        <ele>1567.800048828125</ele>
        <time>2026-09-01T09:24:59.000Z</time>
        <extensions>
          <ns3:TrackPointExtension>
            <ns3:hr>134</ns3:hr>
            <ns3:cad>82</ns3:cad>
          </ns3:TrackPointExtension>
        </extensions>
      </trkpt>
      <trkpt lat="47.544459141790866851806640625" lon="11.04475208558142185211181640625">
        <ele>1568</ele>
        <time>2026-09-01T09:25:00.000Z</time>
        <extensions>
          <ns3:TrackPointExtension>
            <ns3:hr>134</ns3:hr>
            <ns3:cad>84</ns3:cad>
          </ns3:TrackPointExtension>
        </extensions>
      </trkpt>
      <trkpt lat="47.54446660168468952178955078125" lon="11.04471369646489620208740234375">
        <ele>1568</ele>
        <time>2026-09-01T09:25:01.000Z</time>
        <extensions>
          <ns3:TrackPointExtension>
            <ns3:hr>134</ns3:hr>
            <ns3:cad>84</ns3:cad>
          </ns3:TrackPointExtension>
        </extensions>
      </trkpt>
      <trkpt lat="47.54446827806532382965087890625" lon="11.04468419216573238372802734375">
        <ele>1568.199951171875</ele>
        <time>2026-09-01T09:25:02.000Z</time>
        <extensions>
          <ns3:TrackPointExtension>
            <ns3:hr>134</ns3:hr>
            <ns3:cad>83</ns3:cad>
          </ns3:TrackPointExtension>
        </extensions>
      </trkpt>
      <trkpt lat="47.54447699524462223052978515625" lon="11.044647730886936187744140625">
        <ele>1568.4000244140625</ele>
        <time>2026-09-01T09:25:03.000Z</time>
        <extensions>
          <ns3:TrackPointExtension>
            <ns3:hr>134</ns3:hr>
            <ns3:cad>82</ns3:cad>
          </ns3:TrackPointExtension>
        </extensions>
      </trkpt>
      <trkpt lat="47.544478587806224822998046875" lon="11.0446083359420299530029296875">
        <ele>1568.4000244140625</ele>
        <time>2026-09-01T09:25:04.000Z</time>
        <extensions>
          <ns3:TrackPointExtension>
            <ns3:hr>135</ns3:hr>
            <ns3:cad>81</ns3:cad>
          </ns3:TrackPointExtension>
        </extensions>
      </trkpt>
      <trkpt lat="47.54447766579687595367431640625" lon="11.044572629034519195556640625">
        <ele>1568.5999755859375</ele>
        <time>2026-09-01T09:25:05.000Z</time>
        <extensions>
          <ns3:TrackPointExtension>
            <ns3:hr>135</ns3:hr>
            <ns3:cad>80</ns3:cad>
          </ns3:TrackPointExtension>
        </extensions>
      </trkpt>
      <trkpt lat="47.544480599462985992431640625" lon="11.04453851468861103057861328125">
        <ele>1568.800048828125</ele>
        <time>2026-09-01T09:25:06.000Z</time>
        <extensions>
          <ns3:TrackPointExtension>
            <ns3:hr>135</ns3:hr>
            <ns3:cad>80</ns3:cad>
          </ns3:TrackPointExtension>
        </extensions>
      </trkpt>
      <trkpt lat="47.544474899768829345703125" lon="11.04449652135372161865234375">
        <ele>1568.800048828125</ele>
        <time>2026-09-01T09:25:07.000Z</time>
        <extensions>
          <ns3:TrackPointExtension>
            <ns3:hr>135</ns3:hr>
            <ns3:cad>79</ns3:cad>
          </ns3:TrackPointExtension>
        </extensions>
      </trkpt>
      <trkpt lat="47.54447381012141704559326171875" lon="11.0444681905210018157958984375">
        <ele>1569</ele>
        <time>2026-09-01T09:25:08.000Z</time>
        <extensions>
          <ns3:TrackPointExtension>
            <ns3:hr>135</ns3:hr>
            <ns3:cad>79</ns3:cad>
          </ns3:TrackPointExtension>
        </extensions>
      </trkpt>
      <trkpt lat="47.54446777515113353729248046875" lon="11.04444396682083606719970703125">
        <ele>1569.199951171875</ele>
        <time>2026-09-01T09:25:09.000Z</time>
        <extensions>
          <ns3:TrackPointExtension>
            <ns3:hr>136</ns3:hr>
            <ns3:cad>78</ns3:cad>
          </ns3:TrackPointExtension>
        </extensions>
      </trkpt>
      <trkpt lat="47.54446257837116718292236328125" lon="11.0444287955760955810546875">
        <ele>1569.4000244140625</ele>
        <time>2026-09-01T09:25:10.000Z</time>
        <extensions>
          <ns3:TrackPointExtension>
            <ns3:hr>136</ns3:hr>
            <ns3:cad>78</ns3:cad>
          </ns3:TrackPointExtension>
        </extensions>
      </trkpt>
      <trkpt lat="47.54445855505764484405517578125" lon="11.0444182343780994415283203125">
        <ele>1569.5999755859375</ele>
        <time>2026-09-01T09:25:11.000Z</time>
        <extensions>
          <ns3:TrackPointExtension>
            <ns3:hr>136</ns3:hr>
            <ns3:cad>78</ns3:cad>
          </ns3:TrackPointExtension>
        </extensions>
      </trkpt>
      <trkpt lat="47.5444603152573108673095703125" lon="11.0444101877510547637939453125">
        <ele>1569.800048828125</ele>
        <time>2026-09-01T09:25:12.000Z</time>
        <extensions>
          <ns3:TrackPointExtension>
            <ns3:hr>136</ns3:hr>
            <ns3:cad>78</ns3:cad>
          </ns3:TrackPointExtension>
        </extensions>
      </trkpt>
      <trkpt lat="47.54446861334145069122314453125" lon="11.04436333291232585906982421875">
        <ele>1570</ele>
        <time>2026-09-01T09:25:13.000Z</time>
        <extensions>
          <ns3:TrackPointExtension>
            <ns3:hr>137</ns3:hr>
            <ns3:cad>0</ns3:cad>
          </ns3:TrackPointExtension>
        </extensions>
      </trkpt>
      <trkpt lat="47.544469535350799560546875" lon="11.04432427324354648590087890625">
        <ele>1570</ele>
        <time>2026-09-01T09:25:14.000Z</time>
        <extensions>
          <ns3:TrackPointExtension>
            <ns3:hr>137</ns3:hr>
            <ns3:cad>0</ns3:cad>
          </ns3:TrackPointExtension>
        </extensions>
      </trkpt>
      <trkpt lat="47.54447154700756072998046875" lon="11.04428169317543506622314453125">
        <ele>1570</ele>
        <time>2026-09-01T09:25:15.000Z</time>
        <extensions>
          <ns3:TrackPointExtension>
            <ns3:hr>138</ns3:hr>
            <ns3:cad>0</ns3:cad>
          </ns3:TrackPointExtension>
        </extensions>
      </trkpt>
      <trkpt lat="47.54447582177817821502685546875" lon="11.04422620497643947601318359375">
        <ele>1570</ele>
        <time>2026-09-01T09:25:16.000Z</time>
        <extensions>
          <ns3:TrackPointExtension>
            <ns3:hr>138</ns3:hr>
            <ns3:cad>0</ns3:cad>
          </ns3:TrackPointExtension>
        </extensions>
      </trkpt>
      <trkpt lat="47.54447179846465587615966796875" lon="11.044194437563419342041015625">
        <ele>1569.800048828125</ele>
        <time>2026-09-01T09:25:17.000Z</time>
        <extensions>
          <ns3:TrackPointExtension>
            <ns3:hr>139</ns3:hr>
            <ns3:cad>0</ns3:cad>
          </ns3:TrackPointExtension>
        </extensions>
      </trkpt>
      <trkpt lat="47.54447967745363712310791015625" lon="11.044154874980449676513671875">
        <ele>1569.5999755859375</ele>
        <time>2026-09-01T09:25:18.000Z</time>
        <extensions>
          <ns3:TrackPointExtension>
            <ns3:hr>139</ns3:hr>
            <ns3:cad>79</ns3:cad>
          </ns3:TrackPointExtension>
        </extensions>
      </trkpt>
      <trkpt lat="47.54449568688869476318359375" lon="11.04411925189197063446044921875">
        <ele>1569.4000244140625</ele>
        <time>2026-09-01T09:25:19.000Z</time>
        <extensions>
          <ns3:TrackPointExtension>
            <ns3:hr>141</ns3:hr>
            <ns3:cad>79</ns3:cad>
          </ns3:TrackPointExtension>
        </extensions>
      </trkpt>
      <trkpt lat="47.54450398497283458709716796875" lon="11.04407851584255695343017578125">
        <ele>1569.199951171875</ele>
        <time>2026-09-01T09:25:20.000Z</time>
        <extensions>
          <ns3:TrackPointExtension>
            <ns3:hr>142</ns3:hr>
            <ns3:cad>79</ns3:cad>
          </ns3:TrackPointExtension>
        </extensions>
      </trkpt>
      <trkpt lat="47.54450515843927860260009765625" lon="11.044046245515346527099609375">
        <ele>1568.5999755859375</ele>
        <time>2026-09-01T09:25:21.000Z</time>
        <extensions>
          <ns3:TrackPointExtension>
            <ns3:hr>143</ns3:hr>
            <ns3:cad>78</ns3:cad>
          </ns3:TrackPointExtension>
        </extensions>
      </trkpt>
      <trkpt lat="47.54448956809937953948974609375" lon="11.04400156997144222259521484375">
        <ele>1568</ele>
        <time>2026-09-01T09:25:22.000Z</time>
        <extensions>
          <ns3:TrackPointExtension>
            <ns3:hr>143</ns3:hr>
            <ns3:cad>78</ns3:cad>
          </ns3:TrackPointExtension>
        </extensions>
      </trkpt>
      <trkpt lat="47.5444869697093963623046875" lon="11.04395446367561817169189453125">
        <ele>1567.4000244140625</ele>
        <time>2026-09-01T09:25:23.000Z</time>
        <extensions>
          <ns3:TrackPointExtension>
            <ns3:hr>144</ns3:hr>
            <ns3:cad>78</ns3:cad>
          </ns3:TrackPointExtension>
        </extensions>
      </trkpt>
      <trkpt lat="47.54448202438652515411376953125" lon="11.04391372762620449066162109375">
        <ele>1567.199951171875</ele>
        <time>2026-09-01T09:25:24.000Z</time>
        <extensions>
          <ns3:TrackPointExtension>
            <ns3:hr>144</ns3:hr>
            <ns3:cad>80</ns3:cad>
          </ns3:TrackPointExtension>
        </extensions>
      </trkpt>
      <trkpt lat="47.54449074156582355499267578125" lon="11.04387349449098110198974609375">
        <ele>1567.199951171875</ele>
        <time>2026-09-01T09:25:25.000Z</time>
        <extensions>
          <ns3:TrackPointExtension>
            <ns3:hr>144</ns3:hr>
            <ns3:cad>81</ns3:cad>
          </ns3:TrackPointExtension>
        </extensions>
      </trkpt>
      <trkpt lat="47.5445005483925342559814453125" lon="11.04383074678480625152587890625">
        <ele>1567.199951171875</ele>
        <time>2026-09-01T09:25:26.000Z</time>
        <extensions>
          <ns3:TrackPointExtension>
            <ns3:hr>144</ns3:hr>
            <ns3:cad>83</ns3:cad>
          </ns3:TrackPointExtension>
        </extensions>
      </trkpt>
      <trkpt lat="47.54450851120054721832275390625" lon="11.0437835566699504852294921875">
        <ele>1567.199951171875</ele>
        <time>2026-09-01T09:25:27.000Z</time>
        <extensions>
          <ns3:TrackPointExtension>
            <ns3:hr>145</ns3:hr>
            <ns3:cad>83</ns3:cad>
          </ns3:TrackPointExtension>
        </extensions>
      </trkpt>
      <trkpt lat="47.544516138732433319091796875" lon="11.04372630827128887176513671875">
        <ele>1567</ele>
        <time>2026-09-01T09:25:28.000Z</time>
        <extensions>
          <ns3:TrackPointExtension>
            <ns3:hr>145</ns3:hr>
            <ns3:cad>81</ns3:cad>
          </ns3:TrackPointExtension>
        </extensions>
      </trkpt>
      <trkpt lat="47.544517815113067626953125" lon="11.04368389584124088287353515625">
        <ele>1566.5999755859375</ele>
        <time>2026-09-01T09:25:29.000Z</time>
        <extensions>
          <ns3:TrackPointExtension>
            <ns3:hr>145</ns3:hr>
            <ns3:cad>80</ns3:cad>
          </ns3:TrackPointExtension>
        </extensions>
      </trkpt>
      <trkpt lat="47.54452250897884368896484375" lon="11.0436346940696239471435546875">
        <ele>1566.199951171875</ele>
        <time>2026-09-01T09:25:30.000Z</time>
        <extensions>
          <ns3:TrackPointExtension>
            <ns3:hr>145</ns3:hr>
            <ns3:cad>80</ns3:cad>
          </ns3:TrackPointExtension>
        </extensions>
      </trkpt>
      <trkpt lat="47.54452963359653949737548828125" lon="11.0435907728970050811767578125">
        <ele>1566</ele>
        <time>2026-09-01T09:25:31.000Z</time>
        <extensions>
          <ns3:TrackPointExtension>
            <ns3:hr>146</ns3:hr>
            <ns3:cad>80</ns3:cad>
          </ns3:TrackPointExtension>
        </extensions>
      </trkpt>
      <trkpt lat="47.544535584747791290283203125" lon="11.04355313815176486968994140625">
        <ele>1565.800048828125</ele>
        <time>2026-09-01T09:25:32.000Z</time>
        <extensions>
          <ns3:TrackPointExtension>
            <ns3:hr>147</ns3:hr>
            <ns3:cad>81</ns3:cad>
          </ns3:TrackPointExtension>
        </extensions>
      </trkpt>
      <trkpt lat="47.54454740323126316070556640625" lon="11.043504774570465087890625">
        <ele>1565.4000244140625</ele>
        <time>2026-09-01T09:25:33.000Z</time>
        <extensions>
          <ns3:TrackPointExtension>
            <ns3:hr>147</ns3:hr>
            <ns3:cad>81</ns3:cad>
          </ns3:TrackPointExtension>
        </extensions>
      </trkpt>
      <trkpt lat="47.54455310292541980743408203125" lon="11.0434824787080287933349609375">
        <ele>1565.199951171875</ele>
        <time>2026-09-01T09:25:34.000Z</time>
        <extensions>
          <ns3:TrackPointExtension>
            <ns3:hr>147</ns3:hr>
            <ns3:cad>81</ns3:cad>
          </ns3:TrackPointExtension>
        </extensions>
      </trkpt>
      <trkpt lat="47.54456265829503536224365234375" lon="11.04344618506729602813720703125">
        <ele>1564.800048828125</ele>
        <time>2026-09-01T09:25:35.000Z</time>
        <extensions>
          <ns3:TrackPointExtension>
            <ns3:hr>148</ns3:hr>
            <ns3:cad>81</ns3:cad>
          </ns3:TrackPointExtension>
        </extensions>
      </trkpt>
      <trkpt lat="47.54456953145563602447509765625" lon="11.04339371435344219207763671875">
        <ele>1564.4000244140625</ele>
        <time>2026-09-01T09:25:36.000Z</time>
        <extensions>
          <ns3:TrackPointExtension>
            <ns3:hr>148</ns3:hr>
            <ns3:cad>80</ns3:cad>
          </ns3:TrackPointExtension>
        </extensions>
      </trkpt>
      <trkpt lat="47.5445769913494586944580078125" lon="11.0433487035334110260009765625">
        <ele>1563.800048828125</ele>
        <time>2026-09-01T09:25:37.000Z</time>
        <extensions>
          <ns3:TrackPointExtension>
            <ns3:hr>149</ns3:hr>
            <ns3:cad>80</ns3:cad>
          </ns3:TrackPointExtension>
        </extensions>
      </trkpt>
      <trkpt lat="47.54458730109035968780517578125" lon="11.04330620728433132171630859375">
        <ele>1563.199951171875</ele>
        <time>2026-09-01T09:25:38.000Z</time>
        <extensions>
          <ns3:TrackPointExtension>
            <ns3:hr>149</ns3:hr>
            <ns3:cad>80</ns3:cad>
          </ns3:TrackPointExtension>
        </extensions>
      </trkpt>
      <trkpt lat="47.54458822309970855712890625" lon="11.0432700812816619873046875">
        <ele>1562.5999755859375</ele>
        <time>2026-09-01T09:25:39.000Z</time>
        <extensions>
          <ns3:TrackPointExtension>
            <ns3:hr>149</ns3:hr>
            <ns3:cad>80</ns3:cad>
          </ns3:TrackPointExtension>
        </extensions>
      </trkpt>
      <trkpt lat="47.54459434188902378082275390625" lon="11.04323362000286579132080078125">
        <ele>1562</ele>
        <time>2026-09-01T09:25:40.000Z</time>
        <extensions>
          <ns3:TrackPointExtension>
            <ns3:hr>149</ns3:hr>
            <ns3:cad>80</ns3:cad>
          </ns3:TrackPointExtension>
        </extensions>
      </trkpt>
      <trkpt lat="47.5445947609841823577880859375" lon="11.04319296777248382568359375">
        <ele>1561.800048828125</ele>
        <time>2026-09-01T09:25:41.000Z</time>
        <extensions>
          <ns3:TrackPointExtension>
            <ns3:hr>150</ns3:hr>
            <ns3:cad>80</ns3:cad>
          </ns3:TrackPointExtension>
        </extensions>
      </trkpt>
      <trkpt lat="47.54459836520254611968994140625" lon="11.0431455262005329132080078125">
        <ele>1561.5999755859375</ele>
        <time>2026-09-01T09:25:42.000Z</time>
        <extensions>
          <ns3:TrackPointExtension>
            <ns3:hr>150</ns3:hr>
            <ns3:cad>80</ns3:cad>
          </ns3:TrackPointExtension>
        </extensions>
      </trkpt>
      <trkpt lat="47.54460590891540050506591796875" lon="11.04312063194811344146728515625">
        <ele>1561.5999755859375</ele>
        <time>2026-09-01T09:25:43.000Z</time>
        <extensions>
          <ns3:TrackPointExtension>
            <ns3:hr>150</ns3:hr>
            <ns3:cad>80</ns3:cad>
          </ns3:TrackPointExtension>
        </extensions>
      </trkpt>
      <trkpt lat="47.544603645801544189453125" lon="11.04310386814177036285400390625">
        <ele>1561.4000244140625</ele>
        <time>2026-09-01T09:25:44.000Z</time>
        <extensions>
          <ns3:TrackPointExtension>
            <ns3:hr>150</ns3:hr>
            <ns3:cad>80</ns3:cad>
          </ns3:TrackPointExtension>
        </extensions>
      </trkpt>
      <trkpt lat="47.5446098484098911285400390625" lon="11.04306757450103759765625">
        <ele>1561.4000244140625</ele>
        <time>2026-09-01T09:25:45.000Z</time>
        <extensions>
          <ns3:TrackPointExtension>
            <ns3:hr>150</ns3:hr>
            <ns3:cad>80</ns3:cad>
          </ns3:TrackPointExtension>
        </extensions>
      </trkpt>
      <trkpt lat="47.54461512900888919830322265625" lon="11.043030358850955963134765625">
        <ele>1561</ele>
        <time>2026-09-01T09:25:46.000Z</time>
        <extensions>
          <ns3:TrackPointExtension>
            <ns3:hr>150</ns3:hr>
            <ns3:cad>78</ns3:cad>
          </ns3:TrackPointExtension>
        </extensions>
      </trkpt>
      <trkpt lat="47.544619403779506683349609375" lon="11.0429919697344303131103515625">
        <ele>1560.800048828125</ele>
        <time>2026-09-01T09:25:47.000Z</time>
        <extensions>
          <ns3:TrackPointExtension>
            <ns3:hr>150</ns3:hr>
            <ns3:cad>77</ns3:cad>
          </ns3:TrackPointExtension>
        </extensions>
      </trkpt>
      <trkpt lat="47.5446264445781707763671875" lon="11.0429594479501247406005859375">
        <ele>1560.4000244140625</ele>
        <time>2026-09-01T09:25:48.000Z</time>
        <extensions>
          <ns3:TrackPointExtension>
            <ns3:hr>149</ns3:hr>
            <ns3:cad>77</ns3:cad>
          </ns3:TrackPointExtension>
        </extensions>
      </trkpt>
      <trkpt lat="47.544638849794864654541015625" lon="11.04291963391005992889404296875">
        <ele>1560</ele>
        <time>2026-09-01T09:25:49.000Z</time>
        <extensions>
          <ns3:TrackPointExtension>
            <ns3:hr>150</ns3:hr>
            <ns3:cad>77</ns3:cad>
          </ns3:TrackPointExtension>
        </extensions>
      </trkpt>
      <trkpt lat="47.5446413643658161163330078125" lon="11.042886860668659210205078125">
        <ele>1559.5999755859375</ele>
        <time>2026-09-01T09:25:50.000Z</time>
        <extensions>
          <ns3:TrackPointExtension>
            <ns3:hr>149</ns3:hr>
            <ns3:cad>77</ns3:cad>
          </ns3:TrackPointExtension>
        </extensions>
      </trkpt>
      <trkpt lat="47.5446318089962005615234375" lon="11.04283279739320278167724609375">
        <ele>1559.199951171875</ele>
        <time>2026-09-01T09:25:51.000Z</time>
        <extensions>
          <ns3:TrackPointExtension>
            <ns3:hr>149</ns3:hr>
            <ns3:cad>77</ns3:cad>
          </ns3:TrackPointExtension>
        </extensions>
      </trkpt>
      <trkpt lat="47.54463071934878826141357421875" lon="11.0427897982299327850341796875">
        <ele>1559</ele>
        <time>2026-09-01T09:25:52.000Z</time>
        <extensions>
          <ns3:TrackPointExtension>
            <ns3:hr>149</ns3:hr>
            <ns3:cad>77</ns3:cad>
          </ns3:TrackPointExtension>
        </extensions>
      </trkpt>
      <trkpt lat="47.54462854005396366119384765625" lon="11.0427512414753437042236328125">
        <ele>1559</ele>
        <time>2026-09-01T09:25:53.000Z</time>
        <extensions>
          <ns3:TrackPointExtension>
            <ns3:hr>149</ns3:hr>
            <ns3:cad>77</ns3:cad>
          </ns3:TrackPointExtension>
        </extensions>
      </trkpt>
      <trkpt lat="47.544628120958805084228515625" lon="11.04271528311073780059814453125">
        <ele>1559</ele>
        <time>2026-09-01T09:25:54.000Z</time>
        <extensions>
          <ns3:TrackPointExtension>
            <ns3:hr>148</ns3:hr>
            <ns3:cad>82</ns3:cad>
          </ns3:TrackPointExtension>
        </extensions>
      </trkpt>
      <trkpt lat="47.54462711513042449951171875" lon="11.042672954499721527099609375">
        <ele>1559.199951171875</ele>
        <time>2026-09-01T09:25:55.000Z</time>
        <extensions>
          <ns3:TrackPointExtension>
            <ns3:hr>148</ns3:hr>
            <ns3:cad>82</ns3:cad>
          </ns3:TrackPointExtension>
        </extensions>
      </trkpt>
      <trkpt lat="47.5446309708058834075927734375" lon="11.04264470748603343963623046875">
        <ele>1559.199951171875</ele>
        <time>2026-09-01T09:25:56.000Z</time>
        <extensions>
          <ns3:TrackPointExtension>
            <ns3:hr>147</ns3:hr>
            <ns3:cad>82</ns3:cad>
          </ns3:TrackPointExtension>
        </extensions>
      </trkpt>
      <trkpt lat="47.5446329824626445770263671875" lon="11.04260900057852268218994140625">
        <ele>1559.4000244140625</ele>
        <time>2026-09-01T09:25:57.000Z</time>
        <extensions>
          <ns3:TrackPointExtension>
            <ns3:hr>147</ns3:hr>
            <ns3:cad>82</ns3:cad>
          </ns3:TrackPointExtension>
        </extensions>
      </trkpt>
      <trkpt lat="47.5446371734142303466796875" lon="11.04256709106266498565673828125">
        <ele>1559.5999755859375</ele>
        <time>2026-09-01T09:25:58.000Z</time>
        <extensions>
          <ns3:TrackPointExtension>
            <ns3:hr>147</ns3:hr>
            <ns3:cad>82</ns3:cad>
          </ns3:TrackPointExtension>
        </extensions>
      </trkpt>
      <trkpt lat="47.54463373683393001556396484375" lon="11.0425432026386260986328125">
        <ele>1559.5999755859375</ele>
        <time>2026-09-01T09:25:59.000Z</time>
        <extensions>
          <ns3:TrackPointExtension>
            <ns3:hr>147</ns3:hr>
            <ns3:cad>80</ns3:cad>
          </ns3:TrackPointExtension>
        </extensions>
      </trkpt>
      <trkpt lat="47.5446292944252490997314453125" lon="11.04250942356884479522705078125">
        <ele>1559.5999755859375</ele>
        <time>2026-09-01T09:26:00.000Z</time>
        <extensions>
          <ns3:TrackPointExtension>
            <ns3:hr>147</ns3:hr>
            <ns3:cad>80</ns3:cad>
          </ns3:TrackPointExtension>
        </extensions>
      </trkpt>
      <trkpt lat="47.54463558085262775421142578125" lon="11.042469441890716552734375">
        <ele>1559.4000244140625</ele>
        <time>2026-09-01T09:26:01.000Z</time>
        <extensions>
          <ns3:TrackPointExtension>
            <ns3:hr>147</ns3:hr>
            <ns3:cad>80</ns3:cad>
          </ns3:TrackPointExtension>
        </extensions>
      </trkpt>
      <trkpt lat="47.544635832309722900390625" lon="11.04243926703929901123046875">
        <ele>1559.199951171875</ele>
        <time>2026-09-01T09:26:02.000Z</time>
        <extensions>
          <ns3:TrackPointExtension>
            <ns3:hr>146</ns3:hr>
            <ns3:cad>80</ns3:cad>
          </ns3:TrackPointExtension>
        </extensions>
      </trkpt>
      <trkpt lat="47.5446359999477863311767578125" lon="11.0424028895795345306396484375">
        <ele>1559.199951171875</ele>
        <time>2026-09-01T09:26:03.000Z</time>
        <extensions>
          <ns3:TrackPointExtension>
            <ns3:hr>145</ns3:hr>
            <ns3:cad>80</ns3:cad>
          </ns3:TrackPointExtension>
        </extensions>
      </trkpt>
      <trkpt lat="47.5446396879851818084716796875" lon="11.04236139915883541107177734375">
        <ele>1559</ele>
        <time>2026-09-01T09:26:04.000Z</time>
        <extensions>
          <ns3:TrackPointExtension>
            <ns3:hr>145</ns3:hr>
            <ns3:cad>80</ns3:cad>
          </ns3:TrackPointExtension>
        </extensions>
      </trkpt>
      <trkpt lat="47.54463784396648406982421875" lon="11.04231814853847026824951171875">
        <ele>1558.800048828125</ele>
        <time>2026-09-01T09:26:05.000Z</time>
        <extensions>
          <ns3:TrackPointExtension>
            <ns3:hr>145</ns3:hr>
            <ns3:cad>80</ns3:cad>
          </ns3:TrackPointExtension>
        </extensions>
      </trkpt>
      <trkpt lat="47.5446440465748310089111328125" lon="11.0422821901738643646240234375">
        <ele>1558.5999755859375</ele>
        <time>2026-09-01T09:26:06.000Z</time>
        <extensions>
          <ns3:TrackPointExtension>
            <ns3:hr>145</ns3:hr>
            <ns3:cad>80</ns3:cad>
          </ns3:TrackPointExtension>
        </extensions>
      </trkpt>
      <trkpt lat="47.54464186728000640869140625" lon="11.04223416186869144439697265625">
        <ele>1558.199951171875</ele>
        <time>2026-09-01T09:26:07.000Z</time>
        <extensions>
          <ns3:TrackPointExtension>
            <ns3:hr>145</ns3:hr>
            <ns3:cad>80</ns3:cad>
          </ns3:TrackPointExtension>
        </extensions>
      </trkpt>
      <trkpt lat="47.54464186728000640869140625" lon="11.04219409637153148651123046875">
        <ele>1558</ele>
        <time>2026-09-01T09:26:08.000Z</time>
        <extensions>
          <ns3:TrackPointExtension>
            <ns3:hr>145</ns3:hr>
            <ns3:cad>80</ns3:cad>
          </ns3:TrackPointExtension>
        </extensions>
      </trkpt>
      <trkpt lat="47.544636838138103485107421875" lon="11.04214581660926342010498046875">
        <ele>1557.4000244140625</ele>
        <time>2026-09-01T09:26:09.000Z</time>
        <extensions>
          <ns3:TrackPointExtension>
            <ns3:hr>145</ns3:hr>
            <ns3:cad>80</ns3:cad>
          </ns3:TrackPointExtension>
        </extensions>
      </trkpt>
      <trkpt lat="47.5446303002536296844482421875" lon="11.04209803976118564605712890625">
        <ele>1557.199951171875</ele>
        <time>2026-09-01T09:26:10.000Z</time>
        <extensions>
          <ns3:TrackPointExtension>
            <ns3:hr>145</ns3:hr>
            <ns3:cad>82</ns3:cad>
          </ns3:TrackPointExtension>
        </extensions>
      </trkpt>
      <trkpt lat="47.54461261443793773651123046875" lon="11.0420575551688671112060546875">
        <ele>1557.4000244140625</ele>
        <time>2026-09-01T09:26:11.000Z</time>
        <extensions>
          <ns3:TrackPointExtension>
            <ns3:hr>145</ns3:hr>
            <ns3:cad>83</ns3:cad>
          </ns3:TrackPointExtension>
        </extensions>
      </trkpt>
      <trkpt lat="47.5445927493274211883544921875" lon="11.04202352464199066162109375">
        <ele>1557.5999755859375</ele>
        <time>2026-09-01T09:26:12.000Z</time>
        <extensions>
          <ns3:TrackPointExtension>
            <ns3:hr>145</ns3:hr>
            <ns3:cad>83</ns3:cad>
          </ns3:TrackPointExtension>
        </extensions>
      </trkpt>
      <trkpt lat="47.54457070492208003997802734375" lon="11.04199460707604885101318359375">
        <ele>1558</ele>
        <time>2026-09-01T09:26:13.000Z</time>
        <extensions>
          <ns3:TrackPointExtension>
            <ns3:hr>146</ns3:hr>
            <ns3:cad>86</ns3:cad>
          </ns3:TrackPointExtension>
        </extensions>
      </trkpt>
      <trkpt lat="47.5445541925728321075439453125" lon="11.04197432287037372589111328125">
        <ele>1558.4000244140625</ele>
        <time>2026-09-01T09:26:14.000Z</time>
        <extensions>
          <ns3:TrackPointExtension>
            <ns3:hr>146</ns3:hr>
            <ns3:cad>86</ns3:cad>
          </ns3:TrackPointExtension>
        </extensions>
      </trkpt>
      <trkpt lat="47.54453348927199840545654296875" lon="11.0419583134353160858154296875">
        <ele>1558.5999755859375</ele>
        <time>2026-09-01T09:26:15.000Z</time>
        <extensions>
          <ns3:TrackPointExtension>
            <ns3:hr>146</ns3:hr>
            <ns3:cad>86</ns3:cad>
          </ns3:TrackPointExtension>
        </extensions>
      </trkpt>
      <trkpt lat="47.544517479836940765380859375" lon="11.04193727485835552215576171875">
        <ele>1559</ele>
        <time>2026-09-01T09:26:16.000Z</time>
        <extensions>
          <ns3:TrackPointExtension>
            <ns3:hr>147</ns3:hr>
            <ns3:cad>86</ns3:cad>
          </ns3:TrackPointExtension>
        </extensions>
      </trkpt>
      <trkpt lat="47.544499374926090240478515625" lon="11.04192101396620273590087890625">
        <ele>1559.4000244140625</ele>
        <time>2026-09-01T09:26:17.000Z</time>
        <extensions>
          <ns3:TrackPointExtension>
            <ns3:hr>146</ns3:hr>
            <ns3:cad>79</ns3:cad>
          </ns3:TrackPointExtension>
        </extensions>
      </trkpt>
      <trkpt lat="47.54447883926331996917724609375" lon="11.041905842721462249755859375">
        <ele>1559.5999755859375</ele>
        <time>2026-09-01T09:26:18.000Z</time>
        <extensions>
          <ns3:TrackPointExtension>
            <ns3:hr>145</ns3:hr>
            <ns3:cad>79</ns3:cad>
          </ns3:TrackPointExtension>
        </extensions>
      </trkpt>
      <trkpt lat="47.5444614887237548828125" lon="11.04188480414450168609619140625">
        <ele>1559.5999755859375</ele>
        <time>2026-09-01T09:26:19.000Z</time>
        <extensions>
          <ns3:TrackPointExtension>
            <ns3:hr>145</ns3:hr>
            <ns3:cad>79</ns3:cad>
          </ns3:TrackPointExtension>
        </extensions>
      </trkpt>
      <trkpt lat="47.5444408692419528961181640625" lon="11.04186150245368480682373046875">
        <ele>1559.800048828125</ele>
        <time>2026-09-01T09:26:20.000Z</time>
        <extensions>
          <ns3:TrackPointExtension>
            <ns3:hr>144</ns3:hr>
            <ns3:cad>79</ns3:cad>
          </ns3:TrackPointExtension>
        </extensions>
      </trkpt>
      <trkpt lat="47.544421590864658355712890625" lon="11.041848175227642059326171875">
        <ele>1559.800048828125</ele>
        <time>2026-09-01T09:26:21.000Z</time>
        <extensions>
          <ns3:TrackPointExtension>
            <ns3:hr>144</ns3:hr>
            <ns3:cad>75</ns3:cad>
          </ns3:TrackPointExtension>
        </extensions>
      </trkpt>
      <trkpt lat="47.54439284093677997589111328125" lon="11.041842140257358551025390625">
        <ele>1559.5999755859375</ele>
        <time>2026-09-01T09:26:22.000Z</time>
        <extensions>
          <ns3:TrackPointExtension>
            <ns3:hr>144</ns3:hr>
            <ns3:cad>75</ns3:cad>
          </ns3:TrackPointExtension>
        </extensions>
      </trkpt>
      <trkpt lat="47.54436635412275791168212890625" lon="11.04183669202029705047607421875">
        <ele>1559.5999755859375</ele>
        <time>2026-09-01T09:26:23.000Z</time>
        <extensions>
          <ns3:TrackPointExtension>
            <ns3:hr>144</ns3:hr>
            <ns3:cad>75</ns3:cad>
          </ns3:TrackPointExtension>
        </extensions>
      </trkpt>
      <trkpt lat="47.54434422589838504791259765625" lon="11.0418242029845714569091796875">
        <ele>1559.4000244140625</ele>
        <time>2026-09-01T09:26:24.000Z</time>
        <extensions>
          <ns3:TrackPointExtension>
            <ns3:hr>143</ns3:hr>
            <ns3:cad>76</ns3:cad>
          </ns3:TrackPointExtension>
        </extensions>
      </trkpt>
      <trkpt lat="47.54431773908436298370361328125" lon="11.04179830290377140045166015625">
        <ele>1559.199951171875</ele>
        <time>2026-09-01T09:26:25.000Z</time>
        <extensions>
          <ns3:TrackPointExtension>
            <ns3:hr>143</ns3:hr>
            <ns3:cad>78</ns3:cad>
          </ns3:TrackPointExtension>
        </extensions>
      </trkpt>
      <trkpt lat="47.54429393447935581207275390625" lon="11.0417856462299823760986328125">
        <ele>1559</ele>
        <time>2026-09-01T09:26:26.000Z</time>
        <extensions>
          <ns3:TrackPointExtension>
            <ns3:hr>144</ns3:hr>
            <ns3:cad>79</ns3:cad>
          </ns3:TrackPointExtension>
        </extensions>
      </trkpt>
      <trkpt lat="47.54427029751241207122802734375" lon="11.0417775996029376983642578125">
        <ele>1558.800048828125</ele>
        <time>2026-09-01T09:26:27.000Z</time>
        <extensions>
          <ns3:TrackPointExtension>
            <ns3:hr>144</ns3:hr>
            <ns3:cad>80</ns3:cad>
          </ns3:TrackPointExtension>
        </extensions>
      </trkpt>
      <trkpt lat="47.544244229793548583984375" lon="11.04177835397422313690185546875">
        <ele>1558.800048828125</ele>
        <time>2026-09-01T09:26:28.000Z</time>
        <extensions>
          <ns3:TrackPointExtension>
            <ns3:hr>144</ns3:hr>
            <ns3:cad>80</ns3:cad>
          </ns3:TrackPointExtension>
        </extensions>
      </trkpt>
      <trkpt lat="47.5442293100059032440185546875" lon="11.0417574830353260040283203125">
        <ele>1558.800048828125</ele>
        <time>2026-09-01T09:26:29.000Z</time>
        <extensions>
          <ns3:TrackPointExtension>
            <ns3:hr>145</ns3:hr>
            <ns3:cad>80</ns3:cad>
          </ns3:TrackPointExtension>
        </extensions>
      </trkpt>
      <trkpt lat="47.5442085228860378265380859375" lon="11.04174113832414150238037109375">
        <ele>1558.800048828125</ele>
        <time>2026-09-01T09:26:30.000Z</time>
        <extensions>
          <ns3:TrackPointExtension>
            <ns3:hr>145</ns3:hr>
            <ns3:cad>80</ns3:cad>
          </ns3:TrackPointExtension>
        </extensions>
      </trkpt>
      <trkpt lat="47.544192261993885040283203125" lon="11.04172169230878353118896484375">
        <ele>1558.5999755859375</ele>
        <time>2026-09-01T09:26:31.000Z</time>
        <extensions>
          <ns3:TrackPointExtension>
            <ns3:hr>145</ns3:hr>
            <ns3:cad>80</ns3:cad>
          </ns3:TrackPointExtension>
        </extensions>
      </trkpt>
      <trkpt lat="47.544164769351482391357421875" lon="11.04169688187539577484130859375">
        <ele>1558.199951171875</ele>
        <time>2026-09-01T09:26:32.000Z</time>
        <extensions>
          <ns3:TrackPointExtension>
            <ns3:hr>145</ns3:hr>
            <ns3:cad>80</ns3:cad>
          </ns3:TrackPointExtension>
        </extensions>
      </trkpt>
      <trkpt lat="47.544135935604572296142578125" lon="11.04168355464935302734375">
        <ele>1557.800048828125</ele>
        <time>2026-09-01T09:26:33.000Z</time>
        <extensions>
          <ns3:TrackPointExtension>
            <ns3:hr>146</ns3:hr>
            <ns3:cad>77</ns3:cad>
          </ns3:TrackPointExtension>
        </extensions>
      </trkpt>
      <trkpt lat="47.5441042520105838775634765625" lon="11.0416884161531925201416015625">
        <ele>1557.199951171875</ele>
        <time>2026-09-01T09:26:34.000Z</time>
        <extensions>
          <ns3:TrackPointExtension>
            <ns3:hr>145</ns3:hr>
            <ns3:cad>77</ns3:cad>
          </ns3:TrackPointExtension>
        </extensions>
      </trkpt>
      <trkpt lat="47.54407399334013462066650390625" lon="11.04169554077088832855224609375">
        <ele>1556.800048828125</ele>
        <time>2026-09-01T09:26:35.000Z</time>
        <extensions>
          <ns3:TrackPointExtension>
            <ns3:hr>145</ns3:hr>
            <ns3:cad>77</ns3:cad>
          </ns3:TrackPointExtension>
        </extensions>
      </trkpt>
      <trkpt lat="47.544045746326446533203125" lon="11.04169629514217376708984375">
        <ele>1556.4000244140625</ele>
        <time>2026-09-01T09:26:36.000Z</time>
        <extensions>
          <ns3:TrackPointExtension>
            <ns3:hr>145</ns3:hr>
            <ns3:cad>78</ns3:cad>
          </ns3:TrackPointExtension>
        </extensions>
      </trkpt>
      <trkpt lat="47.5440214388072490692138671875" lon="11.0417108796536922454833984375">
        <ele>1556.199951171875</ele>
        <time>2026-09-01T09:26:37.000Z</time>
        <extensions>
          <ns3:TrackPointExtension>
            <ns3:hr>145</ns3:hr>
            <ns3:cad>80</ns3:cad>
          </ns3:TrackPointExtension>
        </extensions>
      </trkpt>
      <trkpt lat="47.54399704746901988983154296875" lon="11.0417283140122890472412109375">
        <ele>1556</ele>
        <time>2026-09-01T09:26:38.000Z</time>
        <extensions>
          <ns3:TrackPointExtension>
            <ns3:hr>146</ns3:hr>
            <ns3:cad>81</ns3:cad>
          </ns3:TrackPointExtension>
        </extensions>
      </trkpt>
      <trkpt lat="47.543974332511425018310546875" lon="11.04174382053315639495849609375">
        <ele>1555.800048828125</ele>
        <time>2026-09-01T09:26:39.000Z</time>
        <extensions>
          <ns3:TrackPointExtension>
            <ns3:hr>145</ns3:hr>
            <ns3:cad>81</ns3:cad>
          </ns3:TrackPointExtension>
        </extensions>
      </trkpt>
      <trkpt lat="47.54393971525132656097412109375" lon="11.04176829569041728973388671875">
        <ele>1555.4000244140625</ele>
        <time>2026-09-01T09:26:40.000Z</time>
        <extensions>
          <ns3:TrackPointExtension>
            <ns3:hr>145</ns3:hr>
            <ns3:cad>80</ns3:cad>
          </ns3:TrackPointExtension>
        </extensions>
      </trkpt>
      <trkpt lat="47.5439118035137653350830078125" lon="11.0417841374874114990234375">
        <ele>1555.199951171875</ele>
        <time>2026-09-01T09:26:41.000Z</time>
        <extensions>
          <ns3:TrackPointExtension>
            <ns3:hr>145</ns3:hr>
            <ns3:cad>80</ns3:cad>
          </ns3:TrackPointExtension>
        </extensions>
      </trkpt>
      <trkpt lat="47.54388816654682159423828125" lon="11.04179075919091701507568359375">
        <ele>1554.800048828125</ele>
        <time>2026-09-01T09:26:42.000Z</time>
        <extensions>
          <ns3:TrackPointExtension>
            <ns3:hr>145</ns3:hr>
            <ns3:cad>80</ns3:cad>
          </ns3:TrackPointExtension>
        </extensions>
      </trkpt>
      <trkpt lat="47.543859668076038360595703125" lon="11.04179947637021541595458984375">
        <ele>1554.4000244140625</ele>
        <time>2026-09-01T09:26:43.000Z</time>
        <extensions>
          <ns3:TrackPointExtension>
            <ns3:hr>145</ns3:hr>
            <ns3:cad>81</ns3:cad>
          </ns3:TrackPointExtension>
        </extensions>
      </trkpt>
      <trkpt lat="47.54382806830108165740966796875" lon="11.041810624301433563232421875">
        <ele>1554.199951171875</ele>
        <time>2026-09-01T09:26:44.000Z</time>
        <extensions>
          <ns3:TrackPointExtension>
            <ns3:hr>145</ns3:hr>
            <ns3:cad>81</ns3:cad>
          </ns3:TrackPointExtension>
        </extensions>
      </trkpt>
      <trkpt lat="47.543785572052001953125" lon="11.04182462207973003387451171875">
        <ele>1553.800048828125</ele>
        <time>2026-09-01T09:26:45.000Z</time>
        <extensions>
          <ns3:TrackPointExtension>
            <ns3:hr>145</ns3:hr>
            <ns3:cad>84</ns3:cad>
          </ns3:TrackPointExtension>
        </extensions>
      </trkpt>
      <trkpt lat="47.54375279881060123443603515625" lon="11.04184205643832683563232421875">
        <ele>1553.5999755859375</ele>
        <time>2026-09-01T09:26:46.000Z</time>
        <extensions>
          <ns3:TrackPointExtension>
            <ns3:hr>145</ns3:hr>
            <ns3:cad>84</ns3:cad>
          </ns3:TrackPointExtension>
        </extensions>
      </trkpt>
      <trkpt lat="47.54372647963464260101318359375" lon="11.04186250828206539154052734375">
        <ele>1553.4000244140625</ele>
        <time>2026-09-01T09:26:47.000Z</time>
        <extensions>
          <ns3:TrackPointExtension>
            <ns3:hr>145</ns3:hr>
            <ns3:cad>85</ns3:cad>
          </ns3:TrackPointExtension>
        </extensions>
      </trkpt>
      <trkpt lat="47.5437104701995849609375" lon="11.0418999753892421722412109375">
        <ele>1553.4000244140625</ele>
        <time>2026-09-01T09:26:48.000Z</time>
        <extensions>
          <ns3:TrackPointExtension>
            <ns3:hr>145</ns3:hr>
            <ns3:cad>85</ns3:cad>
          </ns3:TrackPointExtension>
        </extensions>
      </trkpt>
      <trkpt lat="47.54369429312646389007568359375" lon="11.0419284738600254058837890625">
        <ele>1553.4000244140625</ele>
        <time>2026-09-01T09:26:49.000Z</time>
        <extensions>
          <ns3:TrackPointExtension>
            <ns3:hr>144</ns3:hr>
            <ns3:cad>85</ns3:cad>
          </ns3:TrackPointExtension>
        </extensions>
      </trkpt>
      <trkpt lat="47.5436797924339771270751953125" lon="11.04195940308272838592529296875">
        <ele>1553.5999755859375</ele>
        <time>2026-09-01T09:26:50.000Z</time>
        <extensions>
          <ns3:TrackPointExtension>
            <ns3:hr>145</ns3:hr>
            <ns3:cad>85</ns3:cad>
          </ns3:TrackPointExtension>
        </extensions>
      </trkpt>
      <trkpt lat="47.54366260953247547149658203125" lon="11.041986644268035888671875">
        <ele>1553.5999755859375</ele>
        <time>2026-09-01T09:26:51.000Z</time>
        <extensions>
          <ns3:TrackPointExtension>
            <ns3:hr>145</ns3:hr>
            <ns3:cad>82</ns3:cad>
          </ns3:TrackPointExtension>
        </extensions>
      </trkpt>
      <trkpt lat="47.54364634864032268524169921875" lon="11.04200365953147411346435546875">
        <ele>1553.800048828125</ele>
        <time>2026-09-01T09:26:52.000Z</time>
        <extensions>
          <ns3:TrackPointExtension>
            <ns3:hr>144</ns3:hr>
            <ns3:cad>82</ns3:cad>
          </ns3:TrackPointExtension>
        </extensions>
      </trkpt>
      <trkpt lat="47.54362707026302814483642578125" lon="11.04201547801494598388671875">
        <ele>1553.5999755859375</ele>
        <time>2026-09-01T09:26:53.000Z</time>
        <extensions>
          <ns3:TrackPointExtension>
            <ns3:hr>144</ns3:hr>
            <ns3:cad>82</ns3:cad>
          </ns3:TrackPointExtension>
        </extensions>
      </trkpt>
      <trkpt lat="47.54360343329608440399169921875" lon="11.04203023016452789306640625">
        <ele>1553.4000244140625</ele>
        <time>2026-09-01T09:26:54.000Z</time>
        <extensions>
          <ns3:TrackPointExtension>
            <ns3:hr>144</ns3:hr>
            <ns3:cad>79</ns3:cad>
          </ns3:TrackPointExtension>
        </extensions>
      </trkpt>
      <trkpt lat="47.54358281381428241729736328125" lon="11.0420523583889007568359375">
        <ele>1552.800048828125</ele>
        <time>2026-09-01T09:26:55.000Z</time>
        <extensions>
          <ns3:TrackPointExtension>
            <ns3:hr>143</ns3:hr>
            <ns3:cad>79</ns3:cad>
          </ns3:TrackPointExtension>
        </extensions>
      </trkpt>
      <trkpt lat="47.54356655292212963104248046875" lon="11.04206769727170467376708984375">
        <ele>1552.4000244140625</ele>
        <time>2026-09-01T09:26:56.000Z</time>
        <extensions>
          <ns3:TrackPointExtension>
            <ns3:hr>143</ns3:hr>
            <ns3:cad>79</ns3:cad>
          </ns3:TrackPointExtension>
        </extensions>
      </trkpt>
      <trkpt lat="47.54355289041996002197265625" lon="11.04207959957420825958251953125">
        <ele>1551.800048828125</ele>
        <time>2026-09-01T09:26:57.000Z</time>
        <extensions>
          <ns3:TrackPointExtension>
            <ns3:hr>143</ns3:hr>
            <ns3:cad>79</ns3:cad>
          </ns3:TrackPointExtension>
        </extensions>
      </trkpt>
      <trkpt lat="47.54353352822363376617431640625" lon="11.042087562382221221923828125">
        <ele>1551.199951171875</ele>
        <time>2026-09-01T09:26:58.000Z</time>
        <extensions>
          <ns3:TrackPointExtension>
            <ns3:hr>143</ns3:hr>
            <ns3:cad>79</ns3:cad>
          </ns3:TrackPointExtension>
        </extensions>
      </trkpt>
      <trkpt lat="47.54351709969341754913330078125" lon="11.0421024821698665618896484375">
        <ele>1550.4000244140625</ele>
        <time>2026-09-01T09:26:59.000Z</time>
        <extensions>
          <ns3:TrackPointExtension>
            <ns3:hr>143</ns3:hr>
            <ns3:cad>79</ns3:cad>
          </ns3:TrackPointExtension>
        </extensions>
      </trkpt>
      <trkpt lat="47.5434999167919158935546875" lon="11.04212201200425624847412109375">
        <ele>1549.800048828125</ele>
        <time>2026-09-01T09:27:00.000Z</time>
        <extensions>
          <ns3:TrackPointExtension>
            <ns3:hr>143</ns3:hr>
            <ns3:cad>81</ns3:cad>
          </ns3:TrackPointExtension>
        </extensions>
      </trkpt>
      <trkpt lat="47.54348223097622394561767578125" lon="11.042143218219280242919921875">
        <ele>1549.4000244140625</ele>
        <time>2026-09-01T09:27:01.000Z</time>
        <extensions>
          <ns3:TrackPointExtension>
            <ns3:hr>142</ns3:hr>
            <ns3:cad>81</ns3:cad>
          </ns3:TrackPointExtension>
        </extensions>
      </trkpt>
      <trkpt lat="47.54346840083599090576171875" lon="11.042169369757175445556640625">
        <ele>1549</ele>
        <time>2026-09-01T09:27:02.000Z</time>
        <extensions>
          <ns3:TrackPointExtension>
            <ns3:hr>142</ns3:hr>
            <ns3:cad>81</ns3:cad>
          </ns3:TrackPointExtension>
        </extensions>
      </trkpt>
      <trkpt lat="47.5434424169361591339111328125" lon="11.042186133563518524169921875">
        <ele>1548.5999755859375</ele>
        <time>2026-09-01T09:27:03.000Z</time>
        <extensions>
          <ns3:TrackPointExtension>
            <ns3:hr>142</ns3:hr>
            <ns3:cad>81</ns3:cad>
          </ns3:TrackPointExtension>
        </extensions>
      </trkpt>
      <trkpt lat="47.5434149242937564849853515625" lon="11.04220381937921047210693359375">
        <ele>1548.199951171875</ele>
        <time>2026-09-01T09:27:04.000Z</time>
        <extensions>
          <ns3:TrackPointExtension>
            <ns3:hr>142</ns3:hr>
            <ns3:cad>81</ns3:cad>
          </ns3:TrackPointExtension>
        </extensions>
      </trkpt>
      <trkpt lat="47.54339598119258880615234375" lon="11.0422292165458202362060546875">
        <ele>1547.800048828125</ele>
        <time>2026-09-01T09:27:05.000Z</time>
        <extensions>
          <ns3:TrackPointExtension>
            <ns3:hr>142</ns3:hr>
            <ns3:cad>81</ns3:cad>
          </ns3:TrackPointExtension>
        </extensions>
      </trkpt>
      <trkpt lat="47.54336857236921787261962890625" lon="11.042268276214599609375">
        <ele>1547.199951171875</ele>
        <time>2026-09-01T09:27:06.000Z</time>
        <extensions>
          <ns3:TrackPointExtension>
            <ns3:hr>141</ns3:hr>
            <ns3:cad>81</ns3:cad>
          </ns3:TrackPointExtension>
        </extensions>
      </trkpt>
      <trkpt lat="47.5433465279638767242431640625" lon="11.0423004627227783203125">
        <ele>1547</ele>
        <time>2026-09-01T09:27:07.000Z</time>
        <extensions>
          <ns3:TrackPointExtension>
            <ns3:hr>140</ns3:hr>
            <ns3:cad>80</ns3:cad>
          </ns3:TrackPointExtension>
        </extensions>
      </trkpt>
      <trkpt lat="47.54332196898758411407470703125" lon="11.0423200763761997222900390625">
        <ele>1546.4000244140625</ele>
        <time>2026-09-01T09:27:08.000Z</time>
        <extensions>
          <ns3:TrackPointExtension>
            <ns3:hr>140</ns3:hr>
            <ns3:cad>80</ns3:cad>
          </ns3:TrackPointExtension>
        </extensions>
      </trkpt>
      <trkpt lat="47.5432992540299892425537109375" lon="11.0423499159514904022216796875">
        <ele>1545.5999755859375</ele>
        <time>2026-09-01T09:27:09.000Z</time>
        <extensions>
          <ns3:TrackPointExtension>
            <ns3:hr>140</ns3:hr>
            <ns3:cad>80</ns3:cad>
          </ns3:TrackPointExtension>
        </extensions>
      </trkpt>
      <trkpt lat="47.54328106530010700225830078125" lon="11.04237698949873447418212890625">
        <ele>1545.199951171875</ele>
        <time>2026-09-01T09:27:10.000Z</time>
        <extensions>
          <ns3:TrackPointExtension>
            <ns3:hr>140</ns3:hr>
            <ns3:cad>80</ns3:cad>
          </ns3:TrackPointExtension>
        </extensions>
      </trkpt>
      <trkpt lat="47.54325424320995807647705078125" lon="11.04239643551409244537353515625">
        <ele>1544.800048828125</ele>
        <time>2026-09-01T09:27:11.000Z</time>
        <extensions>
          <ns3:TrackPointExtension>
            <ns3:hr>141</ns3:hr>
            <ns3:cad>80</ns3:cad>
          </ns3:TrackPointExtension>
        </extensions>
      </trkpt>
      <trkpt lat="47.54323261789977550506591796875" lon="11.04241286404430866241455078125">
        <ele>1544.5999755859375</ele>
        <time>2026-09-01T09:27:12.000Z</time>
        <extensions>
          <ns3:TrackPointExtension>
            <ns3:hr>140</ns3:hr>
            <ns3:cad>81</ns3:cad>
          </ns3:TrackPointExtension>
        </extensions>
      </trkpt>
      <trkpt lat="47.54322155378758907318115234375" lon="11.04241822846233844757080078125">
        <ele>1544.800048828125</ele>
        <time>2026-09-01T09:27:13.000Z</time>
        <extensions>
          <ns3:TrackPointExtension>
            <ns3:hr>140</ns3:hr>
            <ns3:cad>81</ns3:cad>
          </ns3:TrackPointExtension>
        </extensions>
      </trkpt>
      <trkpt lat="47.54321090877056121826171875" lon="11.04242996312677860260009765625">
        <ele>1545</ele>
        <time>2026-09-01T09:27:14.000Z</time>
        <extensions>
          <ns3:TrackPointExtension>
            <ns3:hr>141</ns3:hr>
            <ns3:cad>81</ns3:cad>
          </ns3:TrackPointExtension>
        </extensions>
      </trkpt>
      <trkpt lat="47.543196491897106170654296875" lon="11.04244521819055080413818359375">
        <ele>1545</ele>
        <time>2026-09-01T09:27:15.000Z</time>
        <extensions>
          <ns3:TrackPointExtension>
            <ns3:hr>140</ns3:hr>
            <ns3:cad>81</ns3:cad>
          </ns3:TrackPointExtension>
        </extensions>
      </trkpt>
      <trkpt lat="47.54317126236855983734130859375" lon="11.04244588874280452728271484375">
        <ele>1544.800048828125</ele>
        <time>2026-09-01T09:27:16.000Z</time>
        <extensions>
          <ns3:TrackPointExtension>
            <ns3:hr>140</ns3:hr>
            <ns3:cad>81</ns3:cad>
          </ns3:TrackPointExtension>
        </extensions>
      </trkpt>
      <trkpt lat="47.5431431829929351806640625" lon="11.0424600541591644287109375">
        <ele>1544.800048828125</ele>
        <time>2026-09-01T09:27:17.000Z</time>
        <extensions>
          <ns3:TrackPointExtension>
            <ns3:hr>140</ns3:hr>
            <ns3:cad>81</ns3:cad>
          </ns3:TrackPointExtension>
        </extensions>
      </trkpt>
      <trkpt lat="47.54312750883400440216064453125" lon="11.04248025454580783843994140625">
        <ele>1544.4000244140625</ele>
        <time>2026-09-01T09:27:18.000Z</time>
        <extensions>
          <ns3:TrackPointExtension>
            <ns3:hr>140</ns3:hr>
            <ns3:cad>81</ns3:cad>
          </ns3:TrackPointExtension>
        </extensions>
      </trkpt>
      <trkpt lat="47.54310571588575839996337890625" lon="11.04249970056116580963134765625">
        <ele>1544.199951171875</ele>
        <time>2026-09-01T09:27:19.000Z</time>
        <extensions>
          <ns3:TrackPointExtension>
            <ns3:hr>140</ns3:hr>
            <ns3:cad>81</ns3:cad>
          </ns3:TrackPointExtension>
        </extensions>
      </trkpt>
      <trkpt lat="47.54307922907173633575439453125" lon="11.0425135307013988494873046875">
        <ele>1544</ele>
        <time>2026-09-01T09:27:20.000Z</time>
        <extensions>
          <ns3:TrackPointExtension>
            <ns3:hr>140</ns3:hr>
            <ns3:cad>81</ns3:cad>
          </ns3:TrackPointExtension>
        </extensions>
      </trkpt>
      <trkpt lat="47.54306204617023468017578125" lon="11.0425190627574920654296875">
        <ele>1543.800048828125</ele>
        <time>2026-09-01T09:27:21.000Z</time>
        <extensions>
          <ns3:TrackPointExtension>
            <ns3:hr>140</ns3:hr>
            <ns3:cad>81</ns3:cad>
          </ns3:TrackPointExtension>
        </extensions>
      </trkpt>
      <trkpt lat="47.54304000176489353179931640625" lon="11.042536161839962005615234375">
        <ele>1543.800048828125</ele>
        <time>2026-09-01T09:27:22.000Z</time>
        <extensions>
          <ns3:TrackPointExtension>
            <ns3:hr>140</ns3:hr>
            <ns3:cad>80</ns3:cad>
          </ns3:TrackPointExtension>
        </extensions>
      </trkpt>
      <trkpt lat="47.54302122630178928375244140625" lon="11.04254915378987789154052734375">
        <ele>1543.4000244140625</ele>
        <time>2026-09-01T09:27:23.000Z</time>
        <extensions>
          <ns3:TrackPointExtension>
            <ns3:hr>139</ns3:hr>
            <ns3:cad>80</ns3:cad>
          </ns3:TrackPointExtension>
        </extensions>
      </trkpt>
      <trkpt lat="47.5429983437061309814453125" lon="11.04257564060389995574951171875">
        <ele>1543</ele>
        <time>2026-09-01T09:27:24.000Z</time>
        <extensions>
          <ns3:TrackPointExtension>
            <ns3:hr>139</ns3:hr>
            <ns3:cad>80</ns3:cad>
          </ns3:TrackPointExtension>
        </extensions>
      </trkpt>
      <trkpt lat="47.5429820828139781951904296875" lon="11.0426224954426288604736328125">
        <ele>1542.5999755859375</ele>
        <time>2026-09-01T09:27:25.000Z</time>
        <extensions>
          <ns3:TrackPointExtension>
            <ns3:hr>139</ns3:hr>
            <ns3:cad>80</ns3:cad>
          </ns3:TrackPointExtension>
        </extensions>
      </trkpt>
      <trkpt lat="47.5429659895598888397216796875" lon="11.0426546819508075714111328125">
        <ele>1541.800048828125</ele>
        <time>2026-09-01T09:27:26.000Z</time>
        <extensions>
          <ns3:TrackPointExtension>
            <ns3:hr>139</ns3:hr>
            <ns3:cad>80</ns3:cad>
          </ns3:TrackPointExtension>
        </extensions>
      </trkpt>
      <trkpt lat="47.54294428043067455291748046875" lon="11.0426818393170833587646484375">
        <ele>1541</ele>
        <time>2026-09-01T09:27:27.000Z</time>
        <extensions>
          <ns3:TrackPointExtension>
            <ns3:hr>139</ns3:hr>
            <ns3:cad>80</ns3:cad>
          </ns3:TrackPointExtension>
        </extensions>
      </trkpt>
      <trkpt lat="47.54292282275855541229248046875" lon="11.042723916471004486083984375">
        <ele>1540.4000244140625</ele>
        <time>2026-09-01T09:27:28.000Z</time>
        <extensions>
          <ns3:TrackPointExtension>
            <ns3:hr>139</ns3:hr>
            <ns3:cad>80</ns3:cad>
          </ns3:TrackPointExtension>
        </extensions>
      </trkpt>
      <trkpt lat="47.54290371201932430267333984375" lon="11.04276725091040134429931640625">
        <ele>1539.199951171875</ele>
        <time>2026-09-01T09:27:29.000Z</time>
        <extensions>
          <ns3:TrackPointExtension>
            <ns3:hr>139</ns3:hr>
            <ns3:cad>80</ns3:cad>
          </ns3:TrackPointExtension>
        </extensions>
      </trkpt>
      <trkpt lat="47.5428818352520465850830078125" lon="11.042812764644622802734375">
        <ele>1538.5999755859375</ele>
        <time>2026-09-01T09:27:30.000Z</time>
        <extensions>
          <ns3:TrackPointExtension>
            <ns3:hr>139</ns3:hr>
            <ns3:cad>80</ns3:cad>
          </ns3:TrackPointExtension>
        </extensions>
      </trkpt>
      <trkpt lat="47.5428664125502109527587890625" lon="11.042839251458644866943359375">
        <ele>1537.800048828125</ele>
        <time>2026-09-01T09:27:31.000Z</time>
        <extensions>
          <ns3:TrackPointExtension>
            <ns3:hr>140</ns3:hr>
            <ns3:cad>80</ns3:cad>
          </ns3:TrackPointExtension>
        </extensions>
      </trkpt>
      <trkpt lat="47.54284503869712352752685546875" lon="11.0428823344409465789794921875">
        <ele>1537.4000244140625</ele>
        <time>2026-09-01T09:27:32.000Z</time>
        <extensions>
          <ns3:TrackPointExtension>
            <ns3:hr>140</ns3:hr>
            <ns3:cad>85</ns3:cad>
          </ns3:TrackPointExtension>
        </extensions>
      </trkpt>
      <trkpt lat="47.54282609559595584869384765625" lon="11.04293203912675380706787109375">
        <ele>1537.199951171875</ele>
        <time>2026-09-01T09:27:33.000Z</time>
        <extensions>
          <ns3:TrackPointExtension>
            <ns3:hr>140</ns3:hr>
            <ns3:cad>85</ns3:cad>
          </ns3:TrackPointExtension>
        </extensions>
      </trkpt>
      <trkpt lat="47.5428090803325176239013671875" lon="11.04297663085162639617919921875">
        <ele>1536.800048828125</ele>
        <time>2026-09-01T09:27:34.000Z</time>
        <extensions>
          <ns3:TrackPointExtension>
            <ns3:hr>140</ns3:hr>
            <ns3:cad>85</ns3:cad>
          </ns3:TrackPointExtension>
        </extensions>
      </trkpt>
      <trkpt lat="47.5427889637649059295654296875" lon="11.04301971383392810821533203125">
        <ele>1536.4000244140625</ele>
        <time>2026-09-01T09:27:35.000Z</time>
        <extensions>
          <ns3:TrackPointExtension>
            <ns3:hr>141</ns3:hr>
            <ns3:cad>85</ns3:cad>
          </ns3:TrackPointExtension>
        </extensions>
      </trkpt>
      <trkpt lat="47.54276624880731105804443359375" lon="11.0430516488850116729736328125">
        <ele>1536</ele>
        <time>2026-09-01T09:27:36.000Z</time>
        <extensions>
          <ns3:TrackPointExtension>
            <ns3:hr>141</ns3:hr>
            <ns3:cad>85</ns3:cad>
          </ns3:TrackPointExtension>
        </extensions>
      </trkpt>
      <trkpt lat="47.54273657687008380889892578125" lon="11.04306246154010295867919921875">
        <ele>1535.4000244140625</ele>
        <time>2026-09-01T09:27:37.000Z</time>
        <extensions>
          <ns3:TrackPointExtension>
            <ns3:hr>141</ns3:hr>
            <ns3:cad>85</ns3:cad>
          </ns3:TrackPointExtension>
        </extensions>
      </trkpt>
      <trkpt lat="47.54272098653018474578857421875" lon="11.0430581867694854736328125">
        <ele>1535</ele>
        <time>2026-09-01T09:27:38.000Z</time>
        <extensions>
          <ns3:TrackPointExtension>
            <ns3:hr>142</ns3:hr>
            <ns3:cad>85</ns3:cad>
          </ns3:TrackPointExtension>
        </extensions>
      </trkpt>
      <trkpt lat="47.54269248805940151214599609375" lon="11.0430382378399372100830078125">
        <ele>1534.5999755859375</ele>
        <time>2026-09-01T09:27:39.000Z</time>
        <extensions>
          <ns3:TrackPointExtension>
            <ns3:hr>141</ns3:hr>
            <ns3:cad>85</ns3:cad>
          </ns3:TrackPointExtension>
        </extensions>
      </trkpt>
      <trkpt lat="47.54267421551048755645751953125" lon="11.04300915263593196868896484375">
        <ele>1534.4000244140625</ele>
        <time>2026-09-01T09:27:40.000Z</time>
        <extensions>
          <ns3:TrackPointExtension>
            <ns3:hr>141</ns3:hr>
            <ns3:cad>85</ns3:cad>
          </ns3:TrackPointExtension>
        </extensions>
      </trkpt>
      <trkpt lat="47.5426608882844448089599609375" lon="11.04299155063927173614501953125">
        <ele>1534</ele>
        <time>2026-09-01T09:27:41.000Z</time>
        <extensions>
          <ns3:TrackPointExtension>
            <ns3:hr>141</ns3:hr>
            <ns3:cad>85</ns3:cad>
          </ns3:TrackPointExtension>
        </extensions>
      </trkpt>
      <trkpt lat="47.5426461361348628997802734375" lon="11.0429695062339305877685546875">
        <ele>1534</ele>
        <time>2026-09-01T09:27:42.000Z</time>
        <extensions>
          <ns3:TrackPointExtension>
            <ns3:hr>141</ns3:hr>
            <ns3:cad>82</ns3:cad>
          </ns3:TrackPointExtension>
        </extensions>
      </trkpt>
      <trkpt lat="47.542629875242710113525390625" lon="11.0429383255541324615478515625">
        <ele>1534</ele>
        <time>2026-09-01T09:27:43.000Z</time>
        <extensions>
          <ns3:TrackPointExtension>
            <ns3:hr>141</ns3:hr>
            <ns3:cad>79</ns3:cad>
          </ns3:TrackPointExtension>
        </extensions>
      </trkpt>
      <trkpt lat="47.5426199845969676971435546875" lon="11.04291938245296478271484375">
        <ele>1534.199951171875</ele>
        <time>2026-09-01T09:27:44.000Z</time>
        <extensions>
          <ns3:TrackPointExtension>
            <ns3:hr>142</ns3:hr>
            <ns3:cad>79</ns3:cad>
          </ns3:TrackPointExtension>
        </extensions>
      </trkpt>
      <trkpt lat="47.5426072441041469573974609375" lon="11.04290035553276538848876953125">
        <ele>1534.5999755859375</ele>
        <time>2026-09-01T09:27:45.000Z</time>
        <extensions>
          <ns3:TrackPointExtension>
            <ns3:hr>142</ns3:hr>
            <ns3:cad>79</ns3:cad>
          </ns3:TrackPointExtension>
        </extensions>
      </trkpt>
      <trkpt lat="47.54260875284671783447265625" lon="11.04288325645029544830322265625">
        <ele>1535.199951171875</ele>
        <time>2026-09-01T09:27:46.000Z</time>
        <extensions>
          <ns3:TrackPointExtension>
            <ns3:hr>142</ns3:hr>
            <ns3:cad>79</ns3:cad>
          </ns3:TrackPointExtension>
        </extensions>
      </trkpt>
      <trkpt lat="47.5425968505442142486572265625" lon="11.0428689233958721160888671875">
        <ele>1535.5999755859375</ele>
        <time>2026-09-01T09:27:47.000Z</time>
        <extensions>
          <ns3:TrackPointExtension>
            <ns3:hr>141</ns3:hr>
            <ns3:cad>79</ns3:cad>
          </ns3:TrackPointExtension>
        </extensions>
      </trkpt>
      <trkpt lat="47.542587630450725555419921875" lon="11.0428541712462902069091796875">
        <ele>1536</ele>
        <time>2026-09-01T09:27:48.000Z</time>
        <extensions>
          <ns3:TrackPointExtension>
            <ns3:hr>141</ns3:hr>
            <ns3:cad>79</ns3:cad>
          </ns3:TrackPointExtension>
        </extensions>
      </trkpt>
      <trkpt lat="47.54257614724338054656982421875" lon="11.04284637607634067535400390625">
        <ele>1536.199951171875</ele>
        <time>2026-09-01T09:27:49.000Z</time>
        <extensions>
          <ns3:TrackPointExtension>
            <ns3:hr>141</ns3:hr>
            <ns3:cad>79</ns3:cad>
          </ns3:TrackPointExtension>
        </extensions>
      </trkpt>
      <trkpt lat="47.54256642423570156097412109375" lon="11.04284159839153289794921875">
        <ele>1536.4000244140625</ele>
        <time>2026-09-01T09:27:50.000Z</time>
        <extensions>
          <ns3:TrackPointExtension>
            <ns3:hr>141</ns3:hr>
            <ns3:cad>79</ns3:cad>
          </ns3:TrackPointExtension>
        </extensions>
      </trkpt>
      <trkpt lat="47.54255485720932483673095703125" lon="11.04284352622926235198974609375">
        <ele>1536.4000244140625</ele>
        <time>2026-09-01T09:27:51.000Z</time>
        <extensions>
          <ns3:TrackPointExtension>
            <ns3:hr>140</ns3:hr>
            <ns3:cad>79</ns3:cad>
          </ns3:TrackPointExtension>
        </extensions>
      </trkpt>
      <trkpt lat="47.542534656822681427001953125" lon="11.04284000582993030548095703125">
        <ele>1536.4000244140625</ele>
        <time>2026-09-01T09:27:52.000Z</time>
        <extensions>
          <ns3:TrackPointExtension>
            <ns3:hr>140</ns3:hr>
            <ns3:cad>79</ns3:cad>
          </ns3:TrackPointExtension>
        </extensions>
      </trkpt>
      <trkpt lat="47.5425140373408794403076171875" lon="11.0428409278392791748046875">
        <ele>1536.5999755859375</ele>
        <time>2026-09-01T09:27:53.000Z</time>
        <extensions>
          <ns3:TrackPointExtension>
            <ns3:hr>140</ns3:hr>
            <ns3:cad>79</ns3:cad>
          </ns3:TrackPointExtension>
        </extensions>
      </trkpt>
      <trkpt lat="47.5424994528293609619140625" lon="11.0428275167942047119140625">
        <ele>1536.4000244140625</ele>
        <time>2026-09-01T09:27:54.000Z</time>
        <extensions>
          <ns3:TrackPointExtension>
            <ns3:hr>139</ns3:hr>
            <ns3:cad>79</ns3:cad>
          </ns3:TrackPointExtension>
        </extensions>
      </trkpt>
      <trkpt lat="47.54248193465173244476318359375" lon="11.04281636886298656463623046875">
        <ele>1536.4000244140625</ele>
        <time>2026-09-01T09:27:55.000Z</time>
        <extensions>
          <ns3:TrackPointExtension>
            <ns3:hr>139</ns3:hr>
            <ns3:cad>75</ns3:cad>
          </ns3:TrackPointExtension>
        </extensions>
      </trkpt>
      <trkpt lat="47.542464919388294219970703125" lon="11.04279373772442340850830078125">
        <ele>1536</ele>
        <time>2026-09-01T09:27:56.000Z</time>
        <extensions>
          <ns3:TrackPointExtension>
            <ns3:hr>138</ns3:hr>
            <ns3:cad>75</ns3:cad>
          </ns3:TrackPointExtension>
        </extensions>
      </trkpt>
      <trkpt lat="47.54245460964739322662353515625" lon="11.04277060367166996002197265625">
        <ele>1535.5999755859375</ele>
        <time>2026-09-01T09:27:57.000Z</time>
        <extensions>
          <ns3:TrackPointExtension>
            <ns3:hr>138</ns3:hr>
            <ns3:cad>75</ns3:cad>
          </ns3:TrackPointExtension>
        </extensions>
      </trkpt>
      <trkpt lat="47.54244890995323657989501953125" lon="11.04274369776248931884765625">
        <ele>1534.800048828125</ele>
        <time>2026-09-01T09:27:58.000Z</time>
        <extensions>
          <ns3:TrackPointExtension>
            <ns3:hr>137</ns3:hr>
            <ns3:cad>75</ns3:cad>
          </ns3:TrackPointExtension>
        </extensions>
      </trkpt>
      <trkpt lat="47.54243197850883007049560546875" lon="11.0427291132509708404541015625">
        <ele>1534.199951171875</ele>
        <time>2026-09-01T09:27:59.000Z</time>
        <extensions>
          <ns3:TrackPointExtension>
            <ns3:hr>137</ns3:hr>
            <ns3:cad>75</ns3:cad>
          </ns3:TrackPointExtension>
        </extensions>
      </trkpt>
      <trkpt lat="47.54241521470248699188232421875" lon="11.0427136905491352081298828125">
        <ele>1533.4000244140625</ele>
        <time>2026-09-01T09:28:00.000Z</time>
        <extensions>
          <ns3:TrackPointExtension>
            <ns3:hr>137</ns3:hr>
            <ns3:cad>75</ns3:cad>
          </ns3:TrackPointExtension>
        </extensions>
      </trkpt>
      <trkpt lat="47.54240549169480800628662109375" lon="11.042701788246631622314453125">
        <ele>1532.5999755859375</ele>
        <time>2026-09-01T09:28:01.000Z</time>
        <extensions>
          <ns3:TrackPointExtension>
            <ns3:hr>137</ns3:hr>
            <ns3:cad>75</ns3:cad>
          </ns3:TrackPointExtension>
        </extensions>
      </trkpt>
      <trkpt lat="47.54238856025040149688720703125" lon="11.04269281961023807525634765625">
        <ele>1532.4000244140625</ele>
        <time>2026-09-01T09:28:02.000Z</time>
        <extensions>
          <ns3:TrackPointExtension>
            <ns3:hr>136</ns3:hr>
            <ns3:cad>0</ns3:cad>
          </ns3:TrackPointExtension>
        </extensions>
      </trkpt>
      <trkpt lat="47.54237397573888301849365234375" lon="11.0426912270486354827880859375">
        <ele>1531.5999755859375</ele>
        <time>2026-09-01T09:28:03.000Z</time>
        <extensions>
          <ns3:TrackPointExtension>
            <ns3:hr>136</ns3:hr>
            <ns3:cad>0</ns3:cad>
          </ns3:TrackPointExtension>
        </extensions>
      </trkpt>
      <trkpt lat="47.54236307926476001739501953125" lon="11.04269550181925296783447265625">
        <ele>1531</ele>
        <time>2026-09-01T09:28:04.000Z</time>
        <extensions>
          <ns3:TrackPointExtension>
            <ns3:hr>136</ns3:hr>
            <ns3:cad>0</ns3:cad>
          </ns3:TrackPointExtension>
        </extensions>
      </trkpt>
      <trkpt lat="47.54233659245073795318603515625" lon="11.04270279407501220703125">
        <ele>1530.4000244140625</ele>
        <time>2026-09-01T09:28:05.000Z</time>
        <extensions>
          <ns3:TrackPointExtension>
            <ns3:hr>137</ns3:hr>
            <ns3:cad>0</ns3:cad>
          </ns3:TrackPointExtension>
        </extensions>
      </trkpt>
      <trkpt lat="47.5423212535679340362548828125" lon="11.04270673356950283050537109375">
        <ele>1529.5999755859375</ele>
        <time>2026-09-01T09:28:06.000Z</time>
        <extensions>
          <ns3:TrackPointExtension>
            <ns3:hr>136</ns3:hr>
            <ns3:cad>0</ns3:cad>
          </ns3:TrackPointExtension>
        </extensions>
      </trkpt>
      <trkpt lat="47.54230507649481296539306640625" lon="11.0427086614072322845458984375">
        <ele>1529.4000244140625</ele>
        <time>2026-09-01T09:28:07.000Z</time>
        <extensions>
          <ns3:TrackPointExtension>
            <ns3:hr>136</ns3:hr>
            <ns3:cad>0</ns3:cad>
          </ns3:TrackPointExtension>
        </extensions>
      </trkpt>
      <trkpt lat="47.5422877259552478790283203125" lon="11.0427041351795196533203125">
        <ele>1529</ele>
        <time>2026-09-01T09:28:08.000Z</time>
        <extensions>
          <ns3:TrackPointExtension>
            <ns3:hr>136</ns3:hr>
            <ns3:cad>75</ns3:cad>
          </ns3:TrackPointExtension>
        </extensions>
      </trkpt>
      <trkpt lat="47.54227138124406337738037109375" lon="11.042699106037616729736328125">
        <ele>1528.800048828125</ele>
        <time>2026-09-01T09:28:09.000Z</time>
        <extensions>
          <ns3:TrackPointExtension>
            <ns3:hr>135</ns3:hr>
            <ns3:cad>77</ns3:cad>
          </ns3:TrackPointExtension>
        </extensions>
      </trkpt>
      <trkpt lat="47.5422582216560840606689453125" lon="11.042699776589870452880859375">
        <ele>1528.5999755859375</ele>
        <time>2026-09-01T09:28:10.000Z</time>
        <extensions>
          <ns3:TrackPointExtension>
            <ns3:hr>135</ns3:hr>
            <ns3:cad>79</ns3:cad>
          </ns3:TrackPointExtension>
        </extensions>
      </trkpt>
      <trkpt lat="47.5422471575438976287841796875" lon="11.0426821745932102203369140625">
        <ele>1528.4000244140625</ele>
        <time>2026-09-01T09:28:11.000Z</time>
        <extensions>
          <ns3:TrackPointExtension>
            <ns3:hr>135</ns3:hr>
            <ns3:cad>79</ns3:cad>
          </ns3:TrackPointExtension>
        </extensions>
      </trkpt>
      <trkpt lat="47.5422360934317111968994140625" lon="11.04266214184463024139404296875">
        <ele>1528.199951171875</ele>
        <time>2026-09-01T09:28:12.000Z</time>
        <extensions>
          <ns3:TrackPointExtension>
            <ns3:hr>135</ns3:hr>
            <ns3:cad>79</ns3:cad>
          </ns3:TrackPointExtension>
        </extensions>
      </trkpt>
      <trkpt lat="47.5422263704240322113037109375" lon="11.04262341745197772979736328125">
        <ele>1527.5999755859375</ele>
        <time>2026-09-01T09:28:13.000Z</time>
        <extensions>
          <ns3:TrackPointExtension>
            <ns3:hr>136</ns3:hr>
            <ns3:cad>79</ns3:cad>
          </ns3:TrackPointExtension>
        </extensions>
      </trkpt>
      <trkpt lat="47.54221421666443347930908203125" lon="11.04260195977985858917236328125">
        <ele>1527.199951171875</ele>
        <time>2026-09-01T09:28:14.000Z</time>
        <extensions>
          <ns3:TrackPointExtension>
            <ns3:hr>136</ns3:hr>
            <ns3:cad>79</ns3:cad>
          </ns3:TrackPointExtension>
        </extensions>
      </trkpt>
      <trkpt lat="47.5422285497188568115234375" lon="11.04256440885365009307861328125">
        <ele>1526.800048828125</ele>
        <time>2026-09-01T09:28:15.000Z</time>
        <extensions>
          <ns3:TrackPointExtension>
            <ns3:hr>137</ns3:hr>
            <ns3:cad>79</ns3:cad>
          </ns3:TrackPointExtension>
        </extensions>
      </trkpt>
      <trkpt lat="47.5422250293195247650146484375" lon="11.0425319708883762359619140625">
        <ele>1526.199951171875</ele>
        <time>2026-09-01T09:28:16.000Z</time>
        <extensions>
          <ns3:TrackPointExtension>
            <ns3:hr>137</ns3:hr>
            <ns3:cad>81</ns3:cad>
          </ns3:TrackPointExtension>
        </extensions>
      </trkpt>
      <trkpt lat="47.54222595132887363433837890625" lon="11.04249517433345317840576171875">
        <ele>1525.5999755859375</ele>
        <time>2026-09-01T09:28:17.000Z</time>
        <extensions>
          <ns3:TrackPointExtension>
            <ns3:hr>138</ns3:hr>
            <ns3:cad>81</ns3:cad>
          </ns3:TrackPointExtension>
        </extensions>
      </trkpt>
      <trkpt lat="47.54223324358463287353515625" lon="11.04247354902327060699462890625">
        <ele>1525.4000244140625</ele>
        <time>2026-09-01T09:28:18.000Z</time>
        <extensions>
          <ns3:TrackPointExtension>
            <ns3:hr>138</ns3:hr>
            <ns3:cad>81</ns3:cad>
          </ns3:TrackPointExtension>
        </extensions>
      </trkpt>
      <trkpt lat="47.54224489443004131317138671875" lon="11.0424357466399669647216796875">
        <ele>1525</ele>
        <time>2026-09-01T09:28:19.000Z</time>
        <extensions>
          <ns3:TrackPointExtension>
            <ns3:hr>138</ns3:hr>
            <ns3:cad>81</ns3:cad>
          </ns3:TrackPointExtension>
        </extensions>
      </trkpt>
      <trkpt lat="47.54224489443004131317138671875" lon="11.0423935018479824066162109375">
        <ele>1525</ele>
        <time>2026-09-01T09:28:20.000Z</time>
        <extensions>
          <ns3:TrackPointExtension>
            <ns3:hr>137</ns3:hr>
            <ns3:cad>81</ns3:cad>
          </ns3:TrackPointExtension>
        </extensions>
      </trkpt>
      <trkpt lat="47.54224489443004131317138671875" lon="11.042357794940471649169921875">
        <ele>1525</ele>
        <time>2026-09-01T09:28:21.000Z</time>
        <extensions>
          <ns3:TrackPointExtension>
            <ns3:hr>137</ns3:hr>
            <ns3:cad>81</ns3:cad>
          </ns3:TrackPointExtension>
        </extensions>
      </trkpt>
      <trkpt lat="47.5422417931258678436279296875" lon="11.0423096828162670135498046875">
        <ele>1525</ele>
        <time>2026-09-01T09:28:22.000Z</time>
        <extensions>
          <ns3:TrackPointExtension>
            <ns3:hr>137</ns3:hr>
            <ns3:cad>80</ns3:cad>
          </ns3:TrackPointExtension>
        </extensions>
      </trkpt>
      <trkpt lat="47.5422337464988231658935546875" lon="11.042265258729457855224609375">
        <ele>1525</ele>
        <time>2026-09-01T09:28:23.000Z</time>
        <extensions>
          <ns3:TrackPointExtension>
            <ns3:hr>137</ns3:hr>
            <ns3:cad>80</ns3:cad>
          </ns3:TrackPointExtension>
        </extensions>
      </trkpt>
      <trkpt lat="47.542216144502162933349609375" lon="11.04223483242094516754150390625">
        <ele>1525</ele>
        <time>2026-09-01T09:28:24.000Z</time>
        <extensions>
          <ns3:TrackPointExtension>
            <ns3:hr>137</ns3:hr>
            <ns3:cad>80</ns3:cad>
          </ns3:TrackPointExtension>
        </extensions>
      </trkpt>
      <trkpt lat="47.542195357382297515869140625" lon="11.0422127880156040191650390625">
        <ele>1525</ele>
        <time>2026-09-01T09:28:25.000Z</time>
        <extensions>
          <ns3:TrackPointExtension>
            <ns3:hr>137</ns3:hr>
            <ns3:cad>81</ns3:cad>
          </ns3:TrackPointExtension>
        </extensions>
      </trkpt>
      <trkpt lat="47.5421747379004955291748046875" lon="11.04218035005033016204833984375">
        <ele>1525</ele>
        <time>2026-09-01T09:28:26.000Z</time>
        <extensions>
          <ns3:TrackPointExtension>
            <ns3:hr>137</ns3:hr>
            <ns3:cad>81</ns3:cad>
          </ns3:TrackPointExtension>
        </extensions>
      </trkpt>
      <trkpt lat="47.54216057248413562774658203125" lon="11.0421531088650226593017578125">
        <ele>1525</ele>
        <time>2026-09-01T09:28:27.000Z</time>
        <extensions>
          <ns3:TrackPointExtension>
            <ns3:hr>137</ns3:hr>
            <ns3:cad>81</ns3:cad>
          </ns3:TrackPointExtension>
        </extensions>
      </trkpt>
      <trkpt lat="47.54214498214423656463623046875" lon="11.04212720878422260284423828125">
        <ele>1525</ele>
        <time>2026-09-01T09:28:28.000Z</time>
        <extensions>
          <ns3:TrackPointExtension>
            <ns3:hr>137</ns3:hr>
            <ns3:cad>81</ns3:cad>
          </ns3:TrackPointExtension>
        </extensions>
      </trkpt>
      <trkpt lat="47.5421266257762908935546875" lon="11.04211094789206981658935546875">
        <ele>1524.5999755859375</ele>
        <time>2026-09-01T09:28:29.000Z</time>
        <extensions>
          <ns3:TrackPointExtension>
            <ns3:hr>137</ns3:hr>
            <ns3:cad>82</ns3:cad>
          </ns3:TrackPointExtension>
        </extensions>
      </trkpt>
      <trkpt lat="47.54211162216961383819580078125" lon="11.0420726425945758819580078125">
        <ele>1524.4000244140625</ele>
        <time>2026-09-01T09:28:30.000Z</time>
        <extensions>
          <ns3:TrackPointExtension>
            <ns3:hr>136</ns3:hr>
            <ns3:cad>82</ns3:cad>
          </ns3:TrackPointExtension>
        </extensions>
      </trkpt>
      <trkpt lat="47.54209117032587528228759765625" lon="11.04204137809574604034423828125">
        <ele>1523.800048828125</ele>
        <time>2026-09-01T09:28:31.000Z</time>
        <extensions>
          <ns3:TrackPointExtension>
            <ns3:hr>137</ns3:hr>
            <ns3:cad>82</ns3:cad>
          </ns3:TrackPointExtension>
        </extensions>
      </trkpt>
      <trkpt lat="47.54207901656627655029296875" lon="11.0420092754065990447998046875">
        <ele>1523.4000244140625</ele>
        <time>2026-09-01T09:28:32.000Z</time>
        <extensions>
          <ns3:TrackPointExtension>
            <ns3:hr>137</ns3:hr>
            <ns3:cad>82</ns3:cad>
          </ns3:TrackPointExtension>
        </extensions>
      </trkpt>
      <trkpt lat="47.542057223618030548095703125" lon="11.04197868146002292633056640625">
        <ele>1522.800048828125</ele>
        <time>2026-09-01T09:28:33.000Z</time>
        <extensions>
          <ns3:TrackPointExtension>
            <ns3:hr>136</ns3:hr>
            <ns3:cad>82</ns3:cad>
          </ns3:TrackPointExtension>
        </extensions>
      </trkpt>
      <trkpt lat="47.54203685559332370758056640625" lon="11.04194699786603450775146484375">
        <ele>1522.4000244140625</ele>
        <time>2026-09-01T09:28:34.000Z</time>
        <extensions>
          <ns3:TrackPointExtension>
            <ns3:hr>136</ns3:hr>
            <ns3:cad>82</ns3:cad>
          </ns3:TrackPointExtension>
        </extensions>
      </trkpt>
      <trkpt lat="47.54201858304440975189208984375" lon="11.0419075191020965576171875">
        <ele>1522</ele>
        <time>2026-09-01T09:28:35.000Z</time>
        <extensions>
          <ns3:TrackPointExtension>
            <ns3:hr>136</ns3:hr>
            <ns3:cad>82</ns3:cad>
          </ns3:TrackPointExtension>
        </extensions>
      </trkpt>
      <trkpt lat="47.5420005619525909423828125" lon="11.041879355907440185546875">
        <ele>1521.5999755859375</ele>
        <time>2026-09-01T09:28:36.000Z</time>
        <extensions>
          <ns3:TrackPointExtension>
            <ns3:hr>136</ns3:hr>
            <ns3:cad>82</ns3:cad>
          </ns3:TrackPointExtension>
        </extensions>
      </trkpt>
      <trkpt lat="47.5419786013662815093994140625" lon="11.04185613803565502166748046875">
        <ele>1521.199951171875</ele>
        <time>2026-09-01T09:28:37.000Z</time>
        <extensions>
          <ns3:TrackPointExtension>
            <ns3:hr>136</ns3:hr>
            <ns3:cad>85</ns3:cad>
          </ns3:TrackPointExtension>
        </extensions>
      </trkpt>
      <trkpt lat="47.5419537909328937530517578125" lon="11.04182831011712551116943359375">
        <ele>1521</ele>
        <time>2026-09-01T09:28:38.000Z</time>
        <extensions>
          <ns3:TrackPointExtension>
            <ns3:hr>136</ns3:hr>
            <ns3:cad>85</ns3:cad>
          </ns3:TrackPointExtension>
        </extensions>
      </trkpt>
      <trkpt lat="47.54193157888948917388916015625" lon="11.0418069362640380859375">
        <ele>1520.5999755859375</ele>
        <time>2026-09-01T09:28:39.000Z</time>
        <extensions>
          <ns3:TrackPointExtension>
            <ns3:hr>136</ns3:hr>
            <ns3:cad>85</ns3:cad>
          </ns3:TrackPointExtension>
        </extensions>
      </trkpt>
      <trkpt lat="47.54191297106444835662841796875" lon="11.04178480803966522216796875">
        <ele>1520.199951171875</ele>
        <time>2026-09-01T09:28:40.000Z</time>
        <extensions>
          <ns3:TrackPointExtension>
            <ns3:hr>136</ns3:hr>
            <ns3:cad>82</ns3:cad>
          </ns3:TrackPointExtension>
        </extensions>
      </trkpt>
      <trkpt lat="47.541895620524883270263671875" lon="11.04176058433949947357177734375">
        <ele>1519.800048828125</ele>
        <time>2026-09-01T09:28:41.000Z</time>
        <extensions>
          <ns3:TrackPointExtension>
            <ns3:hr>136</ns3:hr>
            <ns3:cad>82</ns3:cad>
          </ns3:TrackPointExtension>
        </extensions>
      </trkpt>
      <trkpt lat="47.5418733246624469757080078125" lon="11.04173652827739715576171875">
        <ele>1519.5999755859375</ele>
        <time>2026-09-01T09:28:42.000Z</time>
        <extensions>
          <ns3:TrackPointExtension>
            <ns3:hr>135</ns3:hr>
            <ns3:cad>82</ns3:cad>
          </ns3:TrackPointExtension>
        </extensions>
      </trkpt>
      <trkpt lat="47.54184960387647151947021484375" lon="11.0417068563401699066162109375">
        <ele>1518.800048828125</ele>
        <time>2026-09-01T09:28:43.000Z</time>
        <extensions>
          <ns3:TrackPointExtension>
            <ns3:hr>136</ns3:hr>
            <ns3:cad>82</ns3:cad>
          </ns3:TrackPointExtension>
        </extensions>
      </trkpt>
      <trkpt lat="47.54182294942438602447509765625" lon="11.041691266000270843505859375">
        <ele>1518.5999755859375</ele>
        <time>2026-09-01T09:28:44.000Z</time>
        <extensions>
          <ns3:TrackPointExtension>
            <ns3:hr>136</ns3:hr>
            <ns3:cad>82</ns3:cad>
          </ns3:TrackPointExtension>
        </extensions>
      </trkpt>
      <trkpt lat="47.54182211123406887054443359375" lon="11.04165296070277690887451171875">
        <ele>1518.4000244140625</ele>
        <time>2026-09-01T09:28:45.000Z</time>
        <extensions>
          <ns3:TrackPointExtension>
            <ns3:hr>136</ns3:hr>
            <ns3:cad>82</ns3:cad>
          </ns3:TrackPointExtension>
        </extensions>
      </trkpt>
      <trkpt lat="47.5418086163699626922607421875" lon="11.0416260547935962677001953125">
        <ele>1518</ele>
        <time>2026-09-01T09:28:46.000Z</time>
        <extensions>
          <ns3:TrackPointExtension>
            <ns3:hr>136</ns3:hr>
            <ns3:cad>82</ns3:cad>
          </ns3:TrackPointExtension>
        </extensions>
      </trkpt>
      <trkpt lat="47.5417978875339031219482421875" lon="11.0415918566286563873291015625">
        <ele>1517.800048828125</ele>
        <time>2026-09-01T09:28:47.000Z</time>
        <extensions>
          <ns3:TrackPointExtension>
            <ns3:hr>137</ns3:hr>
            <ns3:cad>82</ns3:cad>
          </ns3:TrackPointExtension>
        </extensions>
      </trkpt>
      <trkpt lat="47.54178154282271862030029296875" lon="11.04155640117824077606201171875">
        <ele>1517.800048828125</ele>
        <time>2026-09-01T09:28:48.000Z</time>
        <extensions>
          <ns3:TrackPointExtension>
            <ns3:hr>138</ns3:hr>
            <ns3:cad>82</ns3:cad>
          </ns3:TrackPointExtension>
        </extensions>
      </trkpt>
      <trkpt lat="47.541767545044422149658203125" lon="11.041528992354869842529296875">
        <ele>1518</ele>
        <time>2026-09-01T09:28:49.000Z</time>
        <extensions>
          <ns3:TrackPointExtension>
            <ns3:hr>138</ns3:hr>
            <ns3:cad>82</ns3:cad>
          </ns3:TrackPointExtension>
        </extensions>
      </trkpt>
      <trkpt lat="47.54175522364675998687744140625" lon="11.04150694794952869415283203125">
        <ele>1518.199951171875</ele>
        <time>2026-09-01T09:28:50.000Z</time>
        <extensions>
          <ns3:TrackPointExtension>
            <ns3:hr>138</ns3:hr>
            <ns3:cad>82</ns3:cad>
          </ns3:TrackPointExtension>
        </extensions>
      </trkpt>
      <trkpt lat="47.54174348898231983184814453125" lon="11.0414810478687286376953125">
        <ele>1518.5999755859375</ele>
        <time>2026-09-01T09:28:51.000Z</time>
        <extensions>
          <ns3:TrackPointExtension>
            <ns3:hr>138</ns3:hr>
            <ns3:cad>79</ns3:cad>
          </ns3:TrackPointExtension>
        </extensions>
      </trkpt>
      <trkpt lat="47.54173032939434051513671875" lon="11.04145498014986515045166015625">
        <ele>1518.800048828125</ele>
        <time>2026-09-01T09:28:52.000Z</time>
        <extensions>
          <ns3:TrackPointExtension>
            <ns3:hr>139</ns3:hr>
            <ns3:cad>79</ns3:cad>
          </ns3:TrackPointExtension>
        </extensions>
      </trkpt>
      <trkpt lat="47.5417160801589488983154296875" lon="11.0414252243936061859130859375">
        <ele>1519</ele>
        <time>2026-09-01T09:28:53.000Z</time>
        <extensions>
          <ns3:TrackPointExtension>
            <ns3:hr>139</ns3:hr>
            <ns3:cad>79</ns3:cad>
          </ns3:TrackPointExtension>
        </extensions>
      </trkpt>
      <trkpt lat="47.54169411957263946533203125" lon="11.04140234179794788360595703125">
        <ele>1518.800048828125</ele>
        <time>2026-09-01T09:28:54.000Z</time>
        <extensions>
          <ns3:TrackPointExtension>
            <ns3:hr>139</ns3:hr>
            <ns3:cad>78</ns3:cad>
          </ns3:TrackPointExtension>
        </extensions>
      </trkpt>
      <trkpt lat="47.541664950549602508544921875" lon="11.0413898527622222900390625">
        <ele>1518.5999755859375</ele>
        <time>2026-09-01T09:28:55.000Z</time>
        <extensions>
          <ns3:TrackPointExtension>
            <ns3:hr>139</ns3:hr>
            <ns3:cad>78</ns3:cad>
          </ns3:TrackPointExtension>
        </extensions>
      </trkpt>
      <trkpt lat="47.54165120422840118408203125" lon="11.0413710772991180419921875">
        <ele>1518.4000244140625</ele>
        <time>2026-09-01T09:28:56.000Z</time>
        <extensions>
          <ns3:TrackPointExtension>
            <ns3:hr>138</ns3:hr>
            <ns3:cad>80</ns3:cad>
          </ns3:TrackPointExtension>
        </extensions>
      </trkpt>
      <trkpt lat="47.54163083620369434356689453125" lon="11.0413393937051296234130859375">
        <ele>1518.199951171875</ele>
        <time>2026-09-01T09:28:57.000Z</time>
        <extensions>
          <ns3:TrackPointExtension>
            <ns3:hr>139</ns3:hr>
            <ns3:cad>81</ns3:cad>
          </ns3:TrackPointExtension>
        </extensions>
      </trkpt>
      <trkpt lat="47.541611976921558380126953125" lon="11.04130645282566547393798828125">
        <ele>1518</ele>
        <time>2026-09-01T09:28:58.000Z</time>
        <extensions>
          <ns3:TrackPointExtension>
            <ns3:hr>139</ns3:hr>
            <ns3:cad>81</ns3:cad>
          </ns3:TrackPointExtension>
        </extensions>
      </trkpt>
      <trkpt lat="47.5415906868875026702880859375" lon="11.04127443395555019378662109375">
        <ele>1517.5999755859375</ele>
        <time>2026-09-01T09:28:59.000Z</time>
        <extensions>
          <ns3:TrackPointExtension>
            <ns3:hr>139</ns3:hr>
            <ns3:cad>83</ns3:cad>
          </ns3:TrackPointExtension>
        </extensions>
      </trkpt>
      <trkpt lat="47.5415638647973537445068359375" lon="11.0412438400089740753173828125">
        <ele>1517.199951171875</ele>
        <time>2026-09-01T09:29:00.000Z</time>
        <extensions>
          <ns3:TrackPointExtension>
            <ns3:hr>139</ns3:hr>
            <ns3:cad>83</ns3:cad>
          </ns3:TrackPointExtension>
        </extensions>
      </trkpt>
      <trkpt lat="47.54153989255428314208984375" lon="11.0412160120904445648193359375">
        <ele>1516.800048828125</ele>
        <time>2026-09-01T09:29:01.000Z</time>
        <extensions>
          <ns3:TrackPointExtension>
            <ns3:hr>139</ns3:hr>
            <ns3:cad>83</ns3:cad>
          </ns3:TrackPointExtension>
        </extensions>
      </trkpt>
      <trkpt lat="47.54152254201471805572509765625" lon="11.04118173010647296905517578125">
        <ele>1516</ele>
        <time>2026-09-01T09:29:02.000Z</time>
        <extensions>
          <ns3:TrackPointExtension>
            <ns3:hr>139</ns3:hr>
            <ns3:cad>83</ns3:cad>
          </ns3:TrackPointExtension>
        </extensions>
      </trkpt>
      <trkpt lat="47.54150292836129665374755859375" lon="11.04114350862801074981689453125">
        <ele>1515.4000244140625</ele>
        <time>2026-09-01T09:29:03.000Z</time>
        <extensions>
          <ns3:TrackPointExtension>
            <ns3:hr>140</ns3:hr>
            <ns3:cad>78</ns3:cad>
          </ns3:TrackPointExtension>
        </extensions>
      </trkpt>
      <trkpt lat="47.54148758947849273681640625" lon="11.0411013476550579071044921875">
        <ele>1515</ele>
        <time>2026-09-01T09:29:04.000Z</time>
        <extensions>
          <ns3:TrackPointExtension>
            <ns3:hr>138</ns3:hr>
            <ns3:cad>78</ns3:cad>
          </ns3:TrackPointExtension>
        </extensions>
      </trkpt>
      <trkpt lat="47.5414753518998622894287109375" lon="11.0410617850720882415771484375">
        <ele>1514.199951171875</ele>
        <time>2026-09-01T09:29:05.000Z</time>
        <extensions>
          <ns3:TrackPointExtension>
            <ns3:hr>139</ns3:hr>
            <ns3:cad>78</ns3:cad>
          </ns3:TrackPointExtension>
        </extensions>
      </trkpt>
      <trkpt lat="47.54146168939769268035888671875" lon="11.04102616198360919952392578125">
        <ele>1514</ele>
        <time>2026-09-01T09:29:06.000Z</time>
        <extensions>
          <ns3:TrackPointExtension>
            <ns3:hr>139</ns3:hr>
            <ns3:cad>81</ns3:cad>
          </ns3:TrackPointExtension>
        </extensions>
      </trkpt>
      <trkpt lat="47.541447021067142486572265625" lon="11.04099431075155735015869140625">
        <ele>1514</ele>
        <time>2026-09-01T09:29:07.000Z</time>
        <extensions>
          <ns3:TrackPointExtension>
            <ns3:hr>140</ns3:hr>
            <ns3:cad>81</ns3:cad>
          </ns3:TrackPointExtension>
        </extensions>
      </trkpt>
      <trkpt lat="47.5414314307272434234619140625" lon="11.04095893912017345428466796875">
        <ele>1513.800048828125</ele>
        <time>2026-09-01T09:29:08.000Z</time>
        <extensions>
          <ns3:TrackPointExtension>
            <ns3:hr>140</ns3:hr>
            <ns3:cad>81</ns3:cad>
          </ns3:TrackPointExtension>
        </extensions>
      </trkpt>
      <trkpt lat="47.541412152349948883056640625" lon="11.04092390276491641998291015625">
        <ele>1513.5999755859375</ele>
        <time>2026-09-01T09:29:09.000Z</time>
        <extensions>
          <ns3:TrackPointExtension>
            <ns3:hr>140</ns3:hr>
            <ns3:cad>82</ns3:cad>
          </ns3:TrackPointExtension>
        </extensions>
      </trkpt>
      <trkpt lat="47.54138692282140254974365234375" lon="11.04089842177927494049072265625">
        <ele>1513.4000244140625</ele>
        <time>2026-09-01T09:29:10.000Z</time>
        <extensions>
          <ns3:TrackPointExtension>
            <ns3:hr>140</ns3:hr>
            <ns3:cad>82</ns3:cad>
          </ns3:TrackPointExtension>
        </extensions>
      </trkpt>
      <trkpt lat="47.54136714152991771697998046875" lon="11.0408716835081577301025390625">
        <ele>1513</ele>
        <time>2026-09-01T09:29:11.000Z</time>
        <extensions>
          <ns3:TrackPointExtension>
            <ns3:hr>140</ns3:hr>
            <ns3:cad>82</ns3:cad>
          </ns3:TrackPointExtension>
        </extensions>
      </trkpt>
      <trkpt lat="47.54134182818233966827392578125" lon="11.04085165075957775115966796875">
        <ele>1512.800048828125</ele>
        <time>2026-09-01T09:29:12.000Z</time>
        <extensions>
          <ns3:TrackPointExtension>
            <ns3:hr>140</ns3:hr>
            <ns3:cad>84</ns3:cad>
          </ns3:TrackPointExtension>
        </extensions>
      </trkpt>
      <trkpt lat="47.5413244776427745819091796875" lon="11.04082885198295116424560546875">
        <ele>1512.800048828125</ele>
        <time>2026-09-01T09:29:13.000Z</time>
        <extensions>
          <ns3:TrackPointExtension>
            <ns3:hr>140</ns3:hr>
            <ns3:cad>84</ns3:cad>
          </ns3:TrackPointExtension>
        </extensions>
      </trkpt>
      <trkpt lat="47.54131098277866840362548828125" lon="11.0408032871782779693603515625">
        <ele>1512.800048828125</ele>
        <time>2026-09-01T09:29:14.000Z</time>
        <extensions>
          <ns3:TrackPointExtension>
            <ns3:hr>139</ns3:hr>
            <ns3:cad>84</ns3:cad>
          </ns3:TrackPointExtension>
        </extensions>
      </trkpt>
      <trkpt lat="47.54129690118134021759033203125" lon="11.04077135212719440460205078125">
        <ele>1512.800048828125</ele>
        <time>2026-09-01T09:29:15.000Z</time>
        <extensions>
          <ns3:TrackPointExtension>
            <ns3:hr>138</ns3:hr>
            <ns3:cad>84</ns3:cad>
          </ns3:TrackPointExtension>
        </extensions>
      </trkpt>
      <trkpt lat="47.54128164611756801605224609375" lon="11.04074905626475811004638671875">
        <ele>1512.5999755859375</ele>
        <time>2026-09-01T09:29:16.000Z</time>
        <extensions>
          <ns3:TrackPointExtension>
            <ns3:hr>138</ns3:hr>
            <ns3:cad>84</ns3:cad>
          </ns3:TrackPointExtension>
        </extensions>
      </trkpt>
      <trkpt lat="47.54126722924411296844482421875" lon="11.04071720503270626068115234375">
        <ele>1512.4000244140625</ele>
        <time>2026-09-01T09:29:17.000Z</time>
        <extensions>
          <ns3:TrackPointExtension>
            <ns3:hr>138</ns3:hr>
            <ns3:cad>84</ns3:cad>
          </ns3:TrackPointExtension>
        </extensions>
      </trkpt>
      <trkpt lat="47.5412547402083873748779296875" lon="11.04068552143871784210205078125">
        <ele>1512.199951171875</ele>
        <time>2026-09-01T09:29:18.000Z</time>
        <extensions>
          <ns3:TrackPointExtension>
            <ns3:hr>138</ns3:hr>
            <ns3:cad>84</ns3:cad>
          </ns3:TrackPointExtension>
        </extensions>
      </trkpt>
      <trkpt lat="47.541239149868488311767578125" lon="11.04065769352018833160400390625">
        <ele>1512</ele>
        <time>2026-09-01T09:29:19.000Z</time>
        <extensions>
          <ns3:TrackPointExtension>
            <ns3:hr>138</ns3:hr>
            <ns3:cad>84</ns3:cad>
          </ns3:TrackPointExtension>
        </extensions>
      </trkpt>
      <trkpt lat="47.54122339189052581787109375" lon="11.0406299494206905364990234375">
        <ele>1511.800048828125</ele>
        <time>2026-09-01T09:29:20.000Z</time>
        <extensions>
          <ns3:TrackPointExtension>
            <ns3:hr>138</ns3:hr>
            <ns3:cad>84</ns3:cad>
          </ns3:TrackPointExtension>
        </extensions>
      </trkpt>
      <trkpt lat="47.54121257923543453216552734375" lon="11.04060597717761993408203125">
        <ele>1511.800048828125</ele>
        <time>2026-09-01T09:29:21.000Z</time>
        <extensions>
          <ns3:TrackPointExtension>
            <ns3:hr>138</ns3:hr>
            <ns3:cad>82</ns3:cad>
          </ns3:TrackPointExtension>
        </extensions>
      </trkpt>
      <trkpt lat="47.5412081368267536163330078125" lon="11.04058007709681987762451171875">
        <ele>1512</ele>
        <time>2026-09-01T09:29:22.000Z</time>
        <extensions>
          <ns3:TrackPointExtension>
            <ns3:hr>138</ns3:hr>
            <ns3:cad>82</ns3:cad>
          </ns3:TrackPointExtension>
        </extensions>
      </trkpt>
      <trkpt lat="47.54121157340705394744873046875" lon="11.04053699411451816558837890625">
        <ele>1512.199951171875</ele>
        <time>2026-09-01T09:29:23.000Z</time>
        <extensions>
          <ns3:TrackPointExtension>
            <ns3:hr>138</ns3:hr>
            <ns3:cad>84</ns3:cad>
          </ns3:TrackPointExtension>
        </extensions>
      </trkpt>
      <trkpt lat="47.54121492616832256317138671875" lon="11.040506064891815185546875">
        <ele>1512.199951171875</ele>
        <time>2026-09-01T09:29:24.000Z</time>
        <extensions>
          <ns3:TrackPointExtension>
            <ns3:hr>138</ns3:hr>
            <ns3:cad>84</ns3:cad>
          </ns3:TrackPointExtension>
        </extensions>
      </trkpt>
      <trkpt lat="47.54120889119803905487060546875" lon="11.0404787398874759674072265625">
        <ele>1512.4000244140625</ele>
        <time>2026-09-01T09:29:25.000Z</time>
        <extensions>
          <ns3:TrackPointExtension>
            <ns3:hr>138</ns3:hr>
            <ns3:cad>81</ns3:cad>
          </ns3:TrackPointExtension>
        </extensions>
      </trkpt>
      <trkpt lat="47.54121090285480022430419921875" lon="11.04044462554156780242919921875">
        <ele>1512.5999755859375</ele>
        <time>2026-09-01T09:29:26.000Z</time>
        <extensions>
          <ns3:TrackPointExtension>
            <ns3:hr>137</ns3:hr>
            <ns3:cad>81</ns3:cad>
          </ns3:TrackPointExtension>
        </extensions>
      </trkpt>
      <trkpt lat="47.54121626727283000946044921875" lon="11.04041076265275478363037109375">
        <ele>1512.800048828125</ele>
        <time>2026-09-01T09:29:27.000Z</time>
        <extensions>
          <ns3:TrackPointExtension>
            <ns3:hr>136</ns3:hr>
            <ns3:cad>77</ns3:cad>
          </ns3:TrackPointExtension>
        </extensions>
      </trkpt>
      <trkpt lat="47.5412161834537982940673828125" lon="11.04038469493389129638671875">
        <ele>1513</ele>
        <time>2026-09-01T09:29:28.000Z</time>
        <extensions>
          <ns3:TrackPointExtension>
            <ns3:hr>135</ns3:hr>
            <ns3:cad>77</ns3:cad>
          </ns3:TrackPointExtension>
        </extensions>
      </trkpt>
      <trkpt lat="47.5412235595285892486572265625" lon="11.04035250842571258544921875">
        <ele>1513.199951171875</ele>
        <time>2026-09-01T09:29:29.000Z</time>
        <extensions>
          <ns3:TrackPointExtension>
            <ns3:hr>134</ns3:hr>
            <ns3:cad>77</ns3:cad>
          </ns3:TrackPointExtension>
        </extensions>
      </trkpt>
      <trkpt lat="47.5412215478718280792236328125" lon="11.0403171367943286895751953125">
        <ele>1513.5999755859375</ele>
        <time>2026-09-01T09:29:30.000Z</time>
        <extensions>
          <ns3:TrackPointExtension>
            <ns3:hr>132</ns3:hr>
            <ns3:cad>78</ns3:cad>
          </ns3:TrackPointExtension>
        </extensions>
      </trkpt>
      <trkpt lat="47.54121978767216205596923828125" lon="11.04028352536261081695556640625">
        <ele>1514</ele>
        <time>2026-09-01T09:29:31.000Z</time>
        <extensions>
          <ns3:TrackPointExtension>
            <ns3:hr>132</ns3:hr>
            <ns3:cad>79</ns3:cad>
          </ns3:TrackPointExtension>
        </extensions>
      </trkpt>
      <trkpt lat="47.541215009987354278564453125" lon="11.040250919759273529052734375">
        <ele>1514.199951171875</ele>
        <time>2026-09-01T09:29:32.000Z</time>
        <extensions>
          <ns3:TrackPointExtension>
            <ns3:hr>132</ns3:hr>
            <ns3:cad>79</ns3:cad>
          </ns3:TrackPointExtension>
        </extensions>
      </trkpt>
      <trkpt lat="47.54121392033994197845458984375" lon="11.0402152128517627716064453125">
        <ele>1514.4000244140625</ele>
        <time>2026-09-01T09:29:33.000Z</time>
        <extensions>
          <ns3:TrackPointExtension>
            <ns3:hr>133</ns3:hr>
            <ns3:cad>79</ns3:cad>
          </ns3:TrackPointExtension>
        </extensions>
      </trkpt>
      <trkpt lat="47.5412074662744998931884765625" lon="11.040183864533901214599609375">
        <ele>1514.5999755859375</ele>
        <time>2026-09-01T09:29:34.000Z</time>
        <extensions>
          <ns3:TrackPointExtension>
            <ns3:hr>133</ns3:hr>
            <ns3:cad>80</ns3:cad>
          </ns3:TrackPointExtension>
        </extensions>
      </trkpt>
      <trkpt lat="47.5411920435726642608642578125" lon="11.0401431284844875335693359375">
        <ele>1514.5999755859375</ele>
        <time>2026-09-01T09:29:35.000Z</time>
        <extensions>
          <ns3:TrackPointExtension>
            <ns3:hr>134</ns3:hr>
            <ns3:cad>81</ns3:cad>
          </ns3:TrackPointExtension>
        </extensions>
      </trkpt>
      <trkpt lat="47.54117335192859172821044921875" lon="11.04011504910886287689208984375">
        <ele>1514.4000244140625</ele>
        <time>2026-09-01T09:29:36.000Z</time>
        <extensions>
          <ns3:TrackPointExtension>
            <ns3:hr>134</ns3:hr>
            <ns3:cad>81</ns3:cad>
          </ns3:TrackPointExtension>
        </extensions>
      </trkpt>
      <trkpt lat="47.541159354150295257568359375" lon="11.040087640285491943359375">
        <ele>1514.4000244140625</ele>
        <time>2026-09-01T09:29:37.000Z</time>
        <extensions>
          <ns3:TrackPointExtension>
            <ns3:hr>134</ns3:hr>
            <ns3:cad>81</ns3:cad>
          </ns3:TrackPointExtension>
        </extensions>
      </trkpt>
      <trkpt lat="47.5411417521536350250244140625" lon="11.0400613211095333099365234375">
        <ele>1514.4000244140625</ele>
        <time>2026-09-01T09:29:38.000Z</time>
        <extensions>
          <ns3:TrackPointExtension>
            <ns3:hr>135</ns3:hr>
            <ns3:cad>82</ns3:cad>
          </ns3:TrackPointExtension>
        </extensions>
      </trkpt>
      <trkpt lat="47.54113622009754180908203125" lon="11.04002368636429309844970703125">
        <ele>1514.199951171875</ele>
        <time>2026-09-01T09:29:39.000Z</time>
        <extensions>
          <ns3:TrackPointExtension>
            <ns3:hr>135</ns3:hr>
            <ns3:cad>83</ns3:cad>
          </ns3:TrackPointExtension>
        </extensions>
      </trkpt>
      <trkpt lat="47.54112104885280132293701171875" lon="11.03999602608382701873779296875">
        <ele>1514.4000244140625</ele>
        <time>2026-09-01T09:29:40.000Z</time>
        <extensions>
          <ns3:TrackPointExtension>
            <ns3:hr>136</ns3:hr>
            <ns3:cad>83</ns3:cad>
          </ns3:TrackPointExtension>
        </extensions>
      </trkpt>
      <trkpt lat="47.5411021895706653594970703125" lon="11.039973981678485870361328125">
        <ele>1514.4000244140625</ele>
        <time>2026-09-01T09:29:41.000Z</time>
        <extensions>
          <ns3:TrackPointExtension>
            <ns3:hr>137</ns3:hr>
            <ns3:cad>82</ns3:cad>
          </ns3:TrackPointExtension>
        </extensions>
      </trkpt>
      <trkpt lat="47.54108383320271968841552734375" lon="11.03995629586279392242431640625">
        <ele>1514.4000244140625</ele>
        <time>2026-09-01T09:29:42.000Z</time>
        <extensions>
          <ns3:TrackPointExtension>
            <ns3:hr>137</ns3:hr>
            <ns3:cad>80</ns3:cad>
          </ns3:TrackPointExtension>
        </extensions>
      </trkpt>
      <trkpt lat="47.54106204025447368621826171875" lon="11.0399379394948482513427734375">
        <ele>1514.4000244140625</ele>
        <time>2026-09-01T09:29:43.000Z</time>
        <extensions>
          <ns3:TrackPointExtension>
            <ns3:hr>138</ns3:hr>
            <ns3:cad>78</ns3:cad>
          </ns3:TrackPointExtension>
        </extensions>
      </trkpt>
      <trkpt lat="47.54104779101908206939697265625" lon="11.03990768082439899444580078125">
        <ele>1514.4000244140625</ele>
        <time>2026-09-01T09:29:44.000Z</time>
        <extensions>
          <ns3:TrackPointExtension>
            <ns3:hr>138</ns3:hr>
            <ns3:cad>78</ns3:cad>
          </ns3:TrackPointExtension>
        </extensions>
      </trkpt>
      <trkpt lat="47.54104276187717914581298828125" lon="11.03987507522106170654296875">
        <ele>1514.4000244140625</ele>
        <time>2026-09-01T09:29:45.000Z</time>
        <extensions>
          <ns3:TrackPointExtension>
            <ns3:hr>139</ns3:hr>
            <ns3:cad>79</ns3:cad>
          </ns3:TrackPointExtension>
        </extensions>
      </trkpt>
      <trkpt lat="47.54102918319404125213623046875" lon="11.03984951041638851165771484375">
        <ele>1514.5999755859375</ele>
        <time>2026-09-01T09:29:46.000Z</time>
        <extensions>
          <ns3:TrackPointExtension>
            <ns3:hr>139</ns3:hr>
            <ns3:cad>80</ns3:cad>
          </ns3:TrackPointExtension>
        </extensions>
      </trkpt>
      <trkpt lat="47.541017197072505950927734375" lon="11.039823777973651885986328125">
        <ele>1514.5999755859375</ele>
        <time>2026-09-01T09:29:47.000Z</time>
        <extensions>
          <ns3:TrackPointExtension>
            <ns3:hr>139</ns3:hr>
            <ns3:cad>80</ns3:cad>
          </ns3:TrackPointExtension>
        </extensions>
      </trkpt>
      <trkpt lat="47.54100688733160495758056640625" lon="11.03979586623609066009521484375">
        <ele>1515</ele>
        <time>2026-09-01T09:29:48.000Z</time>
        <extensions>
          <ns3:TrackPointExtension>
            <ns3:hr>140</ns3:hr>
            <ns3:cad>80</ns3:cad>
          </ns3:TrackPointExtension>
        </extensions>
      </trkpt>
      <trkpt lat="47.54100101999938488006591796875" lon="11.03976837359368801116943359375">
        <ele>1515.199951171875</ele>
        <time>2026-09-01T09:29:49.000Z</time>
        <extensions>
          <ns3:TrackPointExtension>
            <ns3:hr>141</ns3:hr>
            <ns3:cad>81</ns3:cad>
          </ns3:TrackPointExtension>
        </extensions>
      </trkpt>
      <trkpt lat="47.54099347628653049468994140625" lon="11.039739958941936492919921875">
        <ele>1515.5999755859375</ele>
        <time>2026-09-01T09:29:50.000Z</time>
        <extensions>
          <ns3:TrackPointExtension>
            <ns3:hr>141</ns3:hr>
            <ns3:cad>81</ns3:cad>
          </ns3:TrackPointExtension>
        </extensions>
      </trkpt>
      <trkpt lat="47.5409855134785175323486328125" lon="11.039711795747280120849609375">
        <ele>1515.800048828125</ele>
        <time>2026-09-01T09:29:51.000Z</time>
        <extensions>
          <ns3:TrackPointExtension>
            <ns3:hr>142</ns3:hr>
            <ns3:cad>81</ns3:cad>
          </ns3:TrackPointExtension>
        </extensions>
      </trkpt>
      <trkpt lat="47.54097931087017059326171875" lon="11.0396891646087169647216796875">
        <ele>1516.199951171875</ele>
        <time>2026-09-01T09:29:52.000Z</time>
        <extensions>
          <ns3:TrackPointExtension>
            <ns3:hr>143</ns3:hr>
            <ns3:cad>81</ns3:cad>
          </ns3:TrackPointExtension>
        </extensions>
      </trkpt>
      <trkpt lat="47.54096883349120616912841796875" lon="11.03966460563242435455322265625">
        <ele>1516.5999755859375</ele>
        <time>2026-09-01T09:29:53.000Z</time>
        <extensions>
          <ns3:TrackPointExtension>
            <ns3:hr>143</ns3:hr>
            <ns3:cad>0</ns3:cad>
          </ns3:TrackPointExtension>
        </extensions>
      </trkpt>
      <trkpt lat="47.540956176817417144775390625" lon="11.03965245187282562255859375">
        <ele>1516.800048828125</ele>
        <time>2026-09-01T09:29:54.000Z</time>
        <extensions>
          <ns3:TrackPointExtension>
            <ns3:hr>144</ns3:hr>
            <ns3:cad>0</ns3:cad>
          </ns3:TrackPointExtension>
        </extensions>
      </trkpt>
      <trkpt lat="47.54094469361007213592529296875" lon="11.03964448906481266021728515625">
        <ele>1517</ele>
        <time>2026-09-01T09:29:55.000Z</time>
        <extensions>
          <ns3:TrackPointExtension>
            <ns3:hr>145</ns3:hr>
            <ns3:cad>0</ns3:cad>
          </ns3:TrackPointExtension>
        </extensions>
      </trkpt>
      <trkpt lat="47.54094033502042293548583984375" lon="11.0396318323910236358642578125">
        <ele>1517.4000244140625</ele>
        <time>2026-09-01T09:29:56.000Z</time>
        <extensions>
          <ns3:TrackPointExtension>
            <ns3:hr>146</ns3:hr>
            <ns3:cad>0</ns3:cad>
          </ns3:TrackPointExtension>
        </extensions>
      </trkpt>
      <trkpt lat="47.54092700779438018798828125" lon="11.03961816988885402679443359375">
        <ele>1517.4000244140625</ele>
        <time>2026-09-01T09:29:57.000Z</time>
        <extensions>
          <ns3:TrackPointExtension>
            <ns3:hr>147</ns3:hr>
            <ns3:cad>0</ns3:cad>
          </ns3:TrackPointExtension>
        </extensions>
      </trkpt>
      <trkpt lat="47.54091351293027400970458984375" lon="11.03960660286247730255126953125">
        <ele>1517.5999755859375</ele>
        <time>2026-09-01T09:29:58.000Z</time>
        <extensions>
          <ns3:TrackPointExtension>
            <ns3:hr>147</ns3:hr>
            <ns3:cad>0</ns3:cad>
          </ns3:TrackPointExtension>
        </extensions>
      </trkpt>
      <trkpt lat="47.5409020297229290008544921875" lon="11.03959570638835430145263671875">
        <ele>1517.800048828125</ele>
        <time>2026-09-01T09:29:59.000Z</time>
        <extensions>
          <ns3:TrackPointExtension>
            <ns3:hr>148</ns3:hr>
            <ns3:cad>77</ns3:cad>
          </ns3:TrackPointExtension>
        </extensions>
      </trkpt>
      <trkpt lat="47.5408886186778545379638671875" lon="11.0395832173526287078857421875">
        <ele>1518</ele>
        <time>2026-09-01T09:30:00.000Z</time>
        <extensions>
          <ns3:TrackPointExtension>
            <ns3:hr>148</ns3:hr>
            <ns3:cad>79</ns3:cad>
          </ns3:TrackPointExtension>
        </extensions>
      </trkpt>
      <trkpt lat="47.5408731959760189056396484375" lon="11.03956938721239566802978515625">
        <ele>1518.4000244140625</ele>
        <time>2026-09-01T09:30:01.000Z</time>
        <extensions>
          <ns3:TrackPointExtension>
            <ns3:hr>149</ns3:hr>
            <ns3:cad>79</ns3:cad>
          </ns3:TrackPointExtension>
        </extensions>
      </trkpt>
      <trkpt lat="47.54085467197000980377197265625" lon="11.0395517013967037200927734375">
        <ele>1518.800048828125</ele>
        <time>2026-09-01T09:30:02.000Z</time>
        <extensions>
          <ns3:TrackPointExtension>
            <ns3:hr>149</ns3:hr>
            <ns3:cad>79</ns3:cad>
          </ns3:TrackPointExtension>
        </extensions>
      </trkpt>
      <trkpt lat="47.54083505831658840179443359375" lon="11.0395359434187412261962890625">
        <ele>1519</ele>
        <time>2026-09-01T09:30:03.000Z</time>
        <extensions>
          <ns3:TrackPointExtension>
            <ns3:hr>150</ns3:hr>
            <ns3:cad>78</ns3:cad>
          </ns3:TrackPointExtension>
        </extensions>
      </trkpt>
      <trkpt lat="47.540811337530612945556640625" lon="11.03952060453593730926513671875">
        <ele>1519.199951171875</ele>
        <time>2026-09-01T09:30:04.000Z</time>
        <extensions>
          <ns3:TrackPointExtension>
            <ns3:hr>150</ns3:hr>
            <ns3:cad>78</ns3:cad>
          </ns3:TrackPointExtension>
        </extensions>
      </trkpt>
      <trkpt lat="47.54078778438270092010498046875" lon="11.03949529118835926055908203125">
        <ele>1519.4000244140625</ele>
        <time>2026-09-01T09:30:05.000Z</time>
        <extensions>
          <ns3:TrackPointExtension>
            <ns3:hr>150</ns3:hr>
            <ns3:cad>78</ns3:cad>
          </ns3:TrackPointExtension>
        </extensions>
      </trkpt>
      <trkpt lat="47.54075945354998111724853515625" lon="11.03947274386882781982421875">
        <ele>1519.5999755859375</ele>
        <time>2026-09-01T09:30:06.000Z</time>
        <extensions>
          <ns3:TrackPointExtension>
            <ns3:hr>151</ns3:hr>
            <ns3:cad>79</ns3:cad>
          </ns3:TrackPointExtension>
        </extensions>
      </trkpt>
      <trkpt lat="47.5407364033162593841552734375" lon="11.03943997062742710113525390625">
        <ele>1519.5999755859375</ele>
        <time>2026-09-01T09:30:07.000Z</time>
        <extensions>
          <ns3:TrackPointExtension>
            <ns3:hr>151</ns3:hr>
            <ns3:cad>79</ns3:cad>
          </ns3:TrackPointExtension>
        </extensions>
      </trkpt>
      <trkpt lat="47.54070932976901531219482421875" lon="11.03939521126449108123779296875">
        <ele>1519.5999755859375</ele>
        <time>2026-09-01T09:30:08.000Z</time>
        <extensions>
          <ns3:TrackPointExtension>
            <ns3:hr>152</ns3:hr>
            <ns3:cad>79</ns3:cad>
          </ns3:TrackPointExtension>
        </extensions>
      </trkpt>
      <trkpt lat="47.54069239832460880279541015625" lon="11.0393636114895343780517578125">
        <ele>1519.5999755859375</ele>
        <time>2026-09-01T09:30:09.000Z</time>
        <extensions>
          <ns3:TrackPointExtension>
            <ns3:hr>153</ns3:hr>
            <ns3:cad>79</ns3:cad>
          </ns3:TrackPointExtension>
        </extensions>
      </trkpt>
      <trkpt lat="47.54067429341375827789306640625" lon="11.039334274828433990478515625">
        <ele>1519.5999755859375</ele>
        <time>2026-09-01T09:30:10.000Z</time>
        <extensions>
          <ns3:TrackPointExtension>
            <ns3:hr>154</ns3:hr>
            <ns3:cad>79</ns3:cad>
          </ns3:TrackPointExtension>
        </extensions>
      </trkpt>
      <trkpt lat="47.5406545959413051605224609375" lon="11.0393022559583187103271484375">
        <ele>1519.800048828125</ele>
        <time>2026-09-01T09:30:11.000Z</time>
        <extensions>
          <ns3:TrackPointExtension>
            <ns3:hr>154</ns3:hr>
            <ns3:cad>79</ns3:cad>
          </ns3:TrackPointExtension>
        </extensions>
      </trkpt>
      <trkpt lat="47.54062165506184101104736328125" lon="11.03925305418670177459716796875">
        <ele>1520</ele>
        <time>2026-09-01T09:30:12.000Z</time>
        <extensions>
          <ns3:TrackPointExtension>
            <ns3:hr>155</ns3:hr>
            <ns3:cad>80</ns3:cad>
          </ns3:TrackPointExtension>
        </extensions>
      </trkpt>
      <trkpt lat="47.54060036502778530120849609375" lon="11.03922656737267971038818359375">
        <ele>1520.199951171875</ele>
        <time>2026-09-01T09:30:13.000Z</time>
        <extensions>
          <ns3:TrackPointExtension>
            <ns3:hr>155</ns3:hr>
            <ns3:cad>80</ns3:cad>
          </ns3:TrackPointExtension>
        </extensions>
      </trkpt>
      <trkpt lat="47.5405778177082538604736328125" lon="11.03918935172259807586669921875">
        <ele>1520.5999755859375</ele>
        <time>2026-09-01T09:30:14.000Z</time>
        <extensions>
          <ns3:TrackPointExtension>
            <ns3:hr>156</ns3:hr>
            <ns3:cad>81</ns3:cad>
          </ns3:TrackPointExtension>
        </extensions>
      </trkpt>
      <trkpt lat="47.5405580364167690277099609375" lon="11.03914844803512096405029296875">
        <ele>1520.800048828125</ele>
        <time>2026-09-01T09:30:15.000Z</time>
        <extensions>
          <ns3:TrackPointExtension>
            <ns3:hr>157</ns3:hr>
            <ns3:cad>81</ns3:cad>
          </ns3:TrackPointExtension>
        </extensions>
      </trkpt>
      <trkpt lat="47.54054521210491657257080078125" lon="11.0391218774020671844482421875">
        <ele>1521</ele>
        <time>2026-09-01T09:30:16.000Z</time>
        <extensions>
          <ns3:TrackPointExtension>
            <ns3:hr>157</ns3:hr>
            <ns3:cad>79</ns3:cad>
          </ns3:TrackPointExtension>
        </extensions>
      </trkpt>
      <trkpt lat="47.54052710719406604766845703125" lon="11.03908491320908069610595703125">
        <ele>1521</ele>
        <time>2026-09-01T09:30:17.000Z</time>
        <extensions>
          <ns3:TrackPointExtension>
            <ns3:hr>158</ns3:hr>
            <ns3:cad>79</ns3:cad>
          </ns3:TrackPointExtension>
        </extensions>
      </trkpt>
      <trkpt lat="47.5405097566545009613037109375" lon="11.03905373252928256988525390625">
        <ele>1521.199951171875</ele>
        <time>2026-09-01T09:30:18.000Z</time>
        <extensions>
          <ns3:TrackPointExtension>
            <ns3:hr>159</ns3:hr>
            <ns3:cad>80</ns3:cad>
          </ns3:TrackPointExtension>
        </extensions>
      </trkpt>
      <trkpt lat="47.54048821516335010528564453125" lon="11.039030849933624267578125">
        <ele>1521.4000244140625</ele>
        <time>2026-09-01T09:30:19.000Z</time>
        <extensions>
          <ns3:TrackPointExtension>
            <ns3:hr>160</ns3:hr>
            <ns3:cad>82</ns3:cad>
          </ns3:TrackPointExtension>
        </extensions>
      </trkpt>
      <trkpt lat="47.5404671765863895416259765625" lon="11.0390080511569976806640625">
        <ele>1521.4000244140625</ele>
        <time>2026-09-01T09:30:20.000Z</time>
        <extensions>
          <ns3:TrackPointExtension>
            <ns3:hr>160</ns3:hr>
            <ns3:cad>82</ns3:cad>
          </ns3:TrackPointExtension>
        </extensions>
      </trkpt>
      <trkpt lat="47.5404473952949047088623046875" lon="11.03897511027753353118896484375">
        <ele>1521.5999755859375</ele>
        <time>2026-09-01T09:30:21.000Z</time>
        <extensions>
          <ns3:TrackPointExtension>
            <ns3:hr>161</ns3:hr>
            <ns3:cad>82</ns3:cad>
          </ns3:TrackPointExtension>
        </extensions>
      </trkpt>
      <trkpt lat="47.54042468033730983734130859375" lon="11.03894057683646678924560546875">
        <ele>1521.800048828125</ele>
        <time>2026-09-01T09:30:22.000Z</time>
        <extensions>
          <ns3:TrackPointExtension>
            <ns3:hr>161</ns3:hr>
            <ns3:cad>80</ns3:cad>
          </ns3:TrackPointExtension>
        </extensions>
      </trkpt>
      <trkpt lat="47.54040263593196868896484375" lon="11.03891258127987384796142578125">
        <ele>1522</ele>
        <time>2026-09-01T09:30:23.000Z</time>
        <extensions>
          <ns3:TrackPointExtension>
            <ns3:hr>162</ns3:hr>
            <ns3:cad>80</ns3:cad>
          </ns3:TrackPointExtension>
        </extensions>
      </trkpt>
      <trkpt lat="47.54037522710859775543212890625" lon="11.03888265788555145263671875">
        <ele>1522</ele>
        <time>2026-09-01T09:30:24.000Z</time>
        <extensions>
          <ns3:TrackPointExtension>
            <ns3:hr>162</ns3:hr>
            <ns3:cad>79</ns3:cad>
          </ns3:TrackPointExtension>
        </extensions>
      </trkpt>
      <trkpt lat="47.540356032550334930419921875" lon="11.0388583503663539886474609375">
        <ele>1522.199951171875</ele>
        <time>2026-09-01T09:30:25.000Z</time>
        <extensions>
          <ns3:TrackPointExtension>
            <ns3:hr>163</ns3:hr>
            <ns3:cad>79</ns3:cad>
          </ns3:TrackPointExtension>
        </extensions>
      </trkpt>
      <trkpt lat="47.54033298231661319732666015625" lon="11.0388378985226154327392578125">
        <ele>1522.199951171875</ele>
        <time>2026-09-01T09:30:26.000Z</time>
        <extensions>
          <ns3:TrackPointExtension>
            <ns3:hr>163</ns3:hr>
            <ns3:cad>79</ns3:cad>
          </ns3:TrackPointExtension>
        </extensions>
      </trkpt>
      <trkpt lat="47.54031470976769924163818359375" lon="11.03881736285984516143798828125">
        <ele>1522.4000244140625</ele>
        <time>2026-09-01T09:30:27.000Z</time>
        <extensions>
          <ns3:TrackPointExtension>
            <ns3:hr>164</ns3:hr>
            <ns3:cad>79</ns3:cad>
          </ns3:TrackPointExtension>
        </extensions>
      </trkpt>
      <trkpt lat="47.54029878415167331695556640625" lon="11.038801185786724090576171875">
        <ele>1522.4000244140625</ele>
        <time>2026-09-01T09:30:28.000Z</time>
        <extensions>
          <ns3:TrackPointExtension>
            <ns3:hr>164</ns3:hr>
            <ns3:cad>79</ns3:cad>
          </ns3:TrackPointExtension>
        </extensions>
      </trkpt>
      <trkpt lat="47.5402894802391529083251953125" lon="11.0387882776558399200439453125">
        <ele>1522.5999755859375</ele>
        <time>2026-09-01T09:30:29.000Z</time>
        <extensions>
          <ns3:TrackPointExtension>
            <ns3:hr>165</ns3:hr>
            <ns3:cad>79</ns3:cad>
          </ns3:TrackPointExtension>
        </extensions>
      </trkpt>
      <trkpt lat="47.54027162678539752960205078125" lon="11.03877495042979717254638671875">
        <ele>1522.5999755859375</ele>
        <time>2026-09-01T09:30:30.000Z</time>
        <extensions>
          <ns3:TrackPointExtension>
            <ns3:hr>165</ns3:hr>
            <ns3:cad>79</ns3:cad>
          </ns3:TrackPointExtension>
        </extensions>
      </trkpt>
      <trkpt lat="47.54025704227387905120849609375" lon="11.0387559235095977783203125">
        <ele>1522.800048828125</ele>
        <time>2026-09-01T09:30:31.000Z</time>
        <extensions>
          <ns3:TrackPointExtension>
            <ns3:hr>165</ns3:hr>
            <ns3:cad>74</ns3:cad>
          </ns3:TrackPointExtension>
        </extensions>
      </trkpt>
      <trkpt lat="47.5402596406638622283935546875" lon="11.038722060620784759521484375">
        <ele>1522.800048828125</ele>
        <time>2026-09-01T09:30:32.000Z</time>
        <extensions>
          <ns3:TrackPointExtension>
            <ns3:hr>165</ns3:hr>
            <ns3:cad>74</ns3:cad>
          </ns3:TrackPointExtension>
        </extensions>
      </trkpt>
      <trkpt lat="47.5402549467980861663818359375" lon="11.03869565762579441070556640625">
        <ele>1522.800048828125</ele>
        <time>2026-09-01T09:30:33.000Z</time>
        <extensions>
          <ns3:TrackPointExtension>
            <ns3:hr>166</ns3:hr>
            <ns3:cad>74</ns3:cad>
          </ns3:TrackPointExtension>
        </extensions>
      </trkpt>
      <trkpt lat="47.5402505882084369659423828125" lon="11.038638912141323089599609375">
        <ele>1522.5999755859375</ele>
        <time>2026-09-01T09:30:34.000Z</time>
        <extensions>
          <ns3:TrackPointExtension>
            <ns3:hr>165</ns3:hr>
            <ns3:cad>74</ns3:cad>
          </ns3:TrackPointExtension>
        </extensions>
      </trkpt>
      <trkpt lat="47.540247738361358642578125" lon="11.0386003553867340087890625">
        <ele>1522.4000244140625</ele>
        <time>2026-09-01T09:30:35.000Z</time>
        <extensions>
          <ns3:TrackPointExtension>
            <ns3:hr>165</ns3:hr>
            <ns3:cad>74</ns3:cad>
          </ns3:TrackPointExtension>
        </extensions>
      </trkpt>
      <trkpt lat="47.54024446941912174224853515625" lon="11.038565151393413543701171875">
        <ele>1522.4000244140625</ele>
        <time>2026-09-01T09:30:36.000Z</time>
        <extensions>
          <ns3:TrackPointExtension>
            <ns3:hr>165</ns3:hr>
            <ns3:cad>76</ns3:cad>
          </ns3:TrackPointExtension>
        </extensions>
      </trkpt>
      <trkpt lat="47.540241368114948272705078125" lon="11.03852265514433383941650390625">
        <ele>1522</ele>
        <time>2026-09-01T09:30:37.000Z</time>
        <extensions>
          <ns3:TrackPointExtension>
            <ns3:hr>165</ns3:hr>
            <ns3:cad>77</ns3:cad>
          </ns3:TrackPointExtension>
        </extensions>
      </trkpt>
      <trkpt lat="47.54023776389658451080322265625" lon="11.03848393075168132781982421875">
        <ele>1522.199951171875</ele>
        <time>2026-09-01T09:30:38.000Z</time>
        <extensions>
          <ns3:TrackPointExtension>
            <ns3:hr>165</ns3:hr>
            <ns3:cad>79</ns3:cad>
          </ns3:TrackPointExtension>
        </extensions>
      </trkpt>
      <trkpt lat="47.54022938199341297149658203125" lon="11.038453839719295501708984375">
        <ele>1522.4000244140625</ele>
        <time>2026-09-01T09:30:39.000Z</time>
        <extensions>
          <ns3:TrackPointExtension>
            <ns3:hr>165</ns3:hr>
            <ns3:cad>81</ns3:cad>
          </ns3:TrackPointExtension>
        </extensions>
      </trkpt>
      <trkpt lat="47.540241368114948272705078125" lon="11.03841721080243587493896484375">
        <ele>1522.5999755859375</ele>
        <time>2026-09-01T09:30:40.000Z</time>
        <extensions>
          <ns3:TrackPointExtension>
            <ns3:hr>164</ns3:hr>
            <ns3:cad>81</ns3:cad>
          </ns3:TrackPointExtension>
        </extensions>
      </trkpt>
      <trkpt lat="47.54024949856102466583251953125" lon="11.03837278671562671661376953125">
        <ele>1522.800048828125</ele>
        <time>2026-09-01T09:30:41.000Z</time>
        <extensions>
          <ns3:TrackPointExtension>
            <ns3:hr>164</ns3:hr>
            <ns3:cad>80</ns3:cad>
          </ns3:TrackPointExtension>
        </extensions>
      </trkpt>
      <trkpt lat="47.54025251604616641998291015625" lon="11.03833422996103763580322265625">
        <ele>1523</ele>
        <time>2026-09-01T09:30:42.000Z</time>
        <extensions>
          <ns3:TrackPointExtension>
            <ns3:hr>164</ns3:hr>
            <ns3:cad>79</ns3:cad>
          </ns3:TrackPointExtension>
        </extensions>
      </trkpt>
      <trkpt lat="47.5402462296187877655029296875" lon="11.038303636014461517333984375">
        <ele>1523</ele>
        <time>2026-09-01T09:30:43.000Z</time>
        <extensions>
          <ns3:TrackPointExtension>
            <ns3:hr>164</ns3:hr>
            <ns3:cad>79</ns3:cad>
          </ns3:TrackPointExtension>
        </extensions>
      </trkpt>
      <trkpt lat="47.540244720876216888427734375" lon="11.03827086277306079864501953125">
        <ele>1523.199951171875</ele>
        <time>2026-09-01T09:30:44.000Z</time>
        <extensions>
          <ns3:TrackPointExtension>
            <ns3:hr>164</ns3:hr>
            <ns3:cad>80</ns3:cad>
          </ns3:TrackPointExtension>
        </extensions>
      </trkpt>
      <trkpt lat="47.54024715162813663482666015625" lon="11.0382283665239810943603515625">
        <ele>1523.4000244140625</ele>
        <time>2026-09-01T09:30:45.000Z</time>
        <extensions>
          <ns3:TrackPointExtension>
            <ns3:hr>164</ns3:hr>
            <ns3:cad>80</ns3:cad>
          </ns3:TrackPointExtension>
        </extensions>
      </trkpt>
      <trkpt lat="47.5402445532381534576416015625" lon="11.03819089941680431365966796875">
        <ele>1523.5999755859375</ele>
        <time>2026-09-01T09:30:46.000Z</time>
        <extensions>
          <ns3:TrackPointExtension>
            <ns3:hr>164</ns3:hr>
            <ns3:cad>81</ns3:cad>
          </ns3:TrackPointExtension>
        </extensions>
      </trkpt>
      <trkpt lat="47.54023659043014049530029296875" lon="11.03815368376672267913818359375">
        <ele>1523.800048828125</ele>
        <time>2026-09-01T09:30:47.000Z</time>
        <extensions>
          <ns3:TrackPointExtension>
            <ns3:hr>163</ns3:hr>
            <ns3:cad>81</ns3:cad>
          </ns3:TrackPointExtension>
        </extensions>
      </trkpt>
      <trkpt lat="47.5402383506298065185546875" lon="11.03811898268759250640869140625">
        <ele>1524</ele>
        <time>2026-09-01T09:30:48.000Z</time>
        <extensions>
          <ns3:TrackPointExtension>
            <ns3:hr>164</ns3:hr>
            <ns3:cad>81</ns3:cad>
          </ns3:TrackPointExtension>
        </extensions>
      </trkpt>
      <trkpt lat="47.54024983383715152740478515625" lon="11.03806885890662670135498046875">
        <ele>1524.199951171875</ele>
        <time>2026-09-01T09:30:49.000Z</time>
        <extensions>
          <ns3:TrackPointExtension>
            <ns3:hr>164</ns3:hr>
            <ns3:cad>80</ns3:cad>
          </ns3:TrackPointExtension>
        </extensions>
      </trkpt>
      <trkpt lat="47.54024614579975605010986328125" lon="11.038033403456211090087890625">
        <ele>1524.199951171875</ele>
        <time>2026-09-01T09:30:50.000Z</time>
        <extensions>
          <ns3:TrackPointExtension>
            <ns3:hr>164</ns3:hr>
            <ns3:cad>80</ns3:cad>
          </ns3:TrackPointExtension>
        </extensions>
      </trkpt>
      <trkpt lat="47.54024296067655086517333984375" lon="11.03799560107290744781494140625">
        <ele>1524.199951171875</ele>
        <time>2026-09-01T09:30:51.000Z</time>
        <extensions>
          <ns3:TrackPointExtension>
            <ns3:hr>164</ns3:hr>
            <ns3:cad>80</ns3:cad>
          </ns3:TrackPointExtension>
        </extensions>
      </trkpt>
      <trkpt lat="47.540239356458187103271484375" lon="11.03796073235571384429931640625">
        <ele>1524</ele>
        <time>2026-09-01T09:30:52.000Z</time>
        <extensions>
          <ns3:TrackPointExtension>
            <ns3:hr>164</ns3:hr>
            <ns3:cad>80</ns3:cad>
          </ns3:TrackPointExtension>
        </extensions>
      </trkpt>
      <trkpt lat="47.54023390822112560272216796875" lon="11.03792452253401279449462890625">
        <ele>1523.800048828125</ele>
        <time>2026-09-01T09:30:53.000Z</time>
        <extensions>
          <ns3:TrackPointExtension>
            <ns3:hr>165</ns3:hr>
            <ns3:cad>79</ns3:cad>
          </ns3:TrackPointExtension>
        </extensions>
      </trkpt>
      <trkpt lat="47.5402303040027618408203125" lon="11.03789401240646839141845703125">
        <ele>1523.800048828125</ele>
        <time>2026-09-01T09:30:54.000Z</time>
        <extensions>
          <ns3:TrackPointExtension>
            <ns3:hr>165</ns3:hr>
            <ns3:cad>79</ns3:cad>
          </ns3:TrackPointExtension>
        </extensions>
      </trkpt>
      <trkpt lat="47.54021680913865566253662109375" lon="11.037857048213481903076171875">
        <ele>1523.800048828125</ele>
        <time>2026-09-01T09:30:55.000Z</time>
        <extensions>
          <ns3:TrackPointExtension>
            <ns3:hr>165</ns3:hr>
            <ns3:cad>80</ns3:cad>
          </ns3:TrackPointExtension>
        </extensions>
      </trkpt>
      <trkpt lat="47.54020926542580127716064453125" lon="11.03782595135271549224853515625">
        <ele>1523.800048828125</ele>
        <time>2026-09-01T09:30:56.000Z</time>
        <extensions>
          <ns3:TrackPointExtension>
            <ns3:hr>165</ns3:hr>
            <ns3:cad>80</ns3:cad>
          </ns3:TrackPointExtension>
        </extensions>
      </trkpt>
      <trkpt lat="47.54021345637738704681396484375" lon="11.03779393248260021209716796875">
        <ele>1523.800048828125</ele>
        <time>2026-09-01T09:30:57.000Z</time>
        <extensions>
          <ns3:TrackPointExtension>
            <ns3:hr>165</ns3:hr>
            <ns3:cad>81</ns3:cad>
          </ns3:TrackPointExtension>
        </extensions>
      </trkpt>
      <trkpt lat="47.54021781496703624725341796875" lon="11.03775856085121631622314453125">
        <ele>1524</ele>
        <time>2026-09-01T09:30:58.000Z</time>
        <extensions>
          <ns3:TrackPointExtension>
            <ns3:hr>165</ns3:hr>
            <ns3:cad>81</ns3:cad>
          </ns3:TrackPointExtension>
        </extensions>
      </trkpt>
      <trkpt lat="47.54022167064249515533447265625" lon="11.0377313196659088134765625">
        <ele>1524.199951171875</ele>
        <time>2026-09-01T09:30:59.000Z</time>
        <extensions>
          <ns3:TrackPointExtension>
            <ns3:hr>164</ns3:hr>
            <ns3:cad>81</ns3:cad>
          </ns3:TrackPointExtension>
        </extensions>
      </trkpt>
      <trkpt lat="47.5402222573757171630859375" lon="11.0376979596912860870361328125">
        <ele>1524.5999755859375</ele>
        <time>2026-09-01T09:31:00.000Z</time>
        <extensions>
          <ns3:TrackPointExtension>
            <ns3:hr>165</ns3:hr>
            <ns3:cad>80</ns3:cad>
          </ns3:TrackPointExtension>
        </extensions>
      </trkpt>
      <trkpt lat="47.54022452048957347869873046875" lon="11.037653200328350067138671875">
        <ele>1524.800048828125</ele>
        <time>2026-09-01T09:31:01.000Z</time>
        <extensions>
          <ns3:TrackPointExtension>
            <ns3:hr>165</ns3:hr>
            <ns3:cad>80</ns3:cad>
          </ns3:TrackPointExtension>
        </extensions>
      </trkpt>
      <trkpt lat="47.5402287952601909637451171875" lon="11.0376268811523914337158203125">
        <ele>1524.800048828125</ele>
        <time>2026-09-01T09:31:02.000Z</time>
        <extensions>
          <ns3:TrackPointExtension>
            <ns3:hr>165</ns3:hr>
            <ns3:cad>80</ns3:cad>
          </ns3:TrackPointExtension>
        </extensions>
      </trkpt>
      <trkpt lat="47.540223933756351470947265625" lon="11.0375864803791046142578125">
        <ele>1525</ele>
        <time>2026-09-01T09:31:03.000Z</time>
        <extensions>
          <ns3:TrackPointExtension>
            <ns3:hr>165</ns3:hr>
            <ns3:cad>80</ns3:cad>
          </ns3:TrackPointExtension>
        </extensions>
      </trkpt>
      <trkpt lat="47.54022695124149322509765625" lon="11.03755370713770389556884765625">
        <ele>1525.199951171875</ele>
        <time>2026-09-01T09:31:04.000Z</time>
        <extensions>
          <ns3:TrackPointExtension>
            <ns3:hr>165</ns3:hr>
            <ns3:cad>80</ns3:cad>
          </ns3:TrackPointExtension>
        </extensions>
      </trkpt>
      <trkpt lat="47.5402311421930789947509765625" lon="11.0375266335904598236083984375">
        <ele>1525.199951171875</ele>
        <time>2026-09-01T09:31:05.000Z</time>
        <extensions>
          <ns3:TrackPointExtension>
            <ns3:hr>165</ns3:hr>
            <ns3:cad>81</ns3:cad>
          </ns3:TrackPointExtension>
        </extensions>
      </trkpt>
      <trkpt lat="47.5402343273162841796875" lon="11.03751112706959247589111328125">
        <ele>1525.4000244140625</ele>
        <time>2026-09-01T09:31:06.000Z</time>
        <extensions>
          <ns3:TrackPointExtension>
            <ns3:hr>165</ns3:hr>
            <ns3:cad>81</ns3:cad>
          </ns3:TrackPointExtension>
        </extensions>
      </trkpt>
      <trkpt lat="47.54024296067655086517333984375" lon="11.03748564608395099639892578125">
        <ele>1525.4000244140625</ele>
        <time>2026-09-01T09:31:07.000Z</time>
        <extensions>
          <ns3:TrackPointExtension>
            <ns3:hr>165</ns3:hr>
            <ns3:cad>81</ns3:cad>
          </ns3:TrackPointExtension>
        </extensions>
      </trkpt>
      <trkpt lat="47.54024866037070751190185546875" lon="11.03744155727326869964599609375">
        <ele>1525.5999755859375</ele>
        <time>2026-09-01T09:31:08.000Z</time>
        <extensions>
          <ns3:TrackPointExtension>
            <ns3:hr>165</ns3:hr>
            <ns3:cad>80</ns3:cad>
          </ns3:TrackPointExtension>
        </extensions>
      </trkpt>
      <trkpt lat="47.540262825787067413330078125" lon="11.03741683065891265869140625">
        <ele>1526</ele>
        <time>2026-09-01T09:31:09.000Z</time>
        <extensions>
          <ns3:TrackPointExtension>
            <ns3:hr>165</ns3:hr>
            <ns3:cad>80</ns3:cad>
          </ns3:TrackPointExtension>
        </extensions>
      </trkpt>
      <trkpt lat="47.540280930697917938232421875" lon="11.03738137520849704742431640625">
        <ele>1526</ele>
        <time>2026-09-01T09:31:10.000Z</time>
        <extensions>
          <ns3:TrackPointExtension>
            <ns3:hr>165</ns3:hr>
            <ns3:cad>78</ns3:cad>
          </ns3:TrackPointExtension>
        </extensions>
      </trkpt>
      <trkpt lat="47.54030062817037105560302734375" lon="11.03734365664422512054443359375">
        <ele>1526.199951171875</ele>
        <time>2026-09-01T09:31:11.000Z</time>
        <extensions>
          <ns3:TrackPointExtension>
            <ns3:hr>165</ns3:hr>
            <ns3:cad>77</ns3:cad>
          </ns3:TrackPointExtension>
        </extensions>
      </trkpt>
      <trkpt lat="47.54031018353998661041259765625" lon="11.03731490671634674072265625">
        <ele>1526.4000244140625</ele>
        <time>2026-09-01T09:31:12.000Z</time>
        <extensions>
          <ns3:TrackPointExtension>
            <ns3:hr>165</ns3:hr>
            <ns3:cad>77</ns3:cad>
          </ns3:TrackPointExtension>
        </extensions>
      </trkpt>
      <trkpt lat="47.54032443277537822723388671875" lon="11.03727559559047222137451171875">
        <ele>1526.4000244140625</ele>
        <time>2026-09-01T09:31:13.000Z</time>
        <extensions>
          <ns3:TrackPointExtension>
            <ns3:hr>165</ns3:hr>
            <ns3:cad>77</ns3:cad>
          </ns3:TrackPointExtension>
        </extensions>
      </trkpt>
      <trkpt lat="47.540343292057514190673828125" lon="11.03724475018680095672607421875">
        <ele>1526.5999755859375</ele>
        <time>2026-09-01T09:31:14.000Z</time>
        <extensions>
          <ns3:TrackPointExtension>
            <ns3:hr>165</ns3:hr>
            <ns3:cad>77</ns3:cad>
          </ns3:TrackPointExtension>
        </extensions>
      </trkpt>
      <trkpt lat="47.5403511710464954376220703125" lon="11.037223376333713531494140625">
        <ele>1526.800048828125</ele>
        <time>2026-09-01T09:31:15.000Z</time>
        <extensions>
          <ns3:TrackPointExtension>
            <ns3:hr>166</ns3:hr>
            <ns3:cad>78</ns3:cad>
          </ns3:TrackPointExtension>
        </extensions>
      </trkpt>
      <trkpt lat="47.5403572060167789459228515625" lon="11.0371886752545833587646484375">
        <ele>1527.199951171875</ele>
        <time>2026-09-01T09:31:16.000Z</time>
        <extensions>
          <ns3:TrackPointExtension>
            <ns3:hr>166</ns3:hr>
            <ns3:cad>80</ns3:cad>
          </ns3:TrackPointExtension>
        </extensions>
      </trkpt>
      <trkpt lat="47.5403686054050922393798828125" lon="11.03716948069632053375244140625">
        <ele>1527.4000244140625</ele>
        <time>2026-09-01T09:31:17.000Z</time>
        <extensions>
          <ns3:TrackPointExtension>
            <ns3:hr>166</ns3:hr>
            <ns3:cad>80</ns3:cad>
          </ns3:TrackPointExtension>
        </extensions>
      </trkpt>
      <trkpt lat="47.54037237726151943206787109375" lon="11.0371554829180240631103515625">
        <ele>1527.800048828125</ele>
        <time>2026-09-01T09:31:18.000Z</time>
        <extensions>
          <ns3:TrackPointExtension>
            <ns3:hr>167</ns3:hr>
            <ns3:cad>80</ns3:cad>
          </ns3:TrackPointExtension>
        </extensions>
      </trkpt>
      <trkpt lat="47.54037925042212009429931640625" lon="11.0371390543878078460693359375">
        <ele>1528</ele>
        <time>2026-09-01T09:31:19.000Z</time>
        <extensions>
          <ns3:TrackPointExtension>
            <ns3:hr>168</ns3:hr>
            <ns3:cad>80</ns3:cad>
          </ns3:TrackPointExtension>
        </extensions>
      </trkpt>
      <trkpt lat="47.5403778254985809326171875" lon="11.03712136857211589813232421875">
        <ele>1528.4000244140625</ele>
        <time>2026-09-01T09:31:20.000Z</time>
        <extensions>
          <ns3:TrackPointExtension>
            <ns3:hr>168</ns3:hr>
            <ns3:cad>80</ns3:cad>
          </ns3:TrackPointExtension>
        </extensions>
      </trkpt>
      <trkpt lat="47.54037841223180294036865234375" lon="11.037112735211849212646484375">
        <ele>1528.5999755859375</ele>
        <time>2026-09-01T09:31:21.000Z</time>
        <extensions>
          <ns3:TrackPointExtension>
            <ns3:hr>169</ns3:hr>
            <ns3:cad>80</ns3:cad>
          </ns3:TrackPointExtension>
        </extensions>
      </trkpt>
      <trkpt lat="47.5403786636888980865478515625" lon="11.03709253482520580291748046875">
        <ele>1529</ele>
        <time>2026-09-01T09:31:22.000Z</time>
        <extensions>
          <ns3:TrackPointExtension>
            <ns3:hr>170</ns3:hr>
            <ns3:cad>80</ns3:cad>
          </ns3:TrackPointExtension>
        </extensions>
      </trkpt>
      <trkpt lat="47.5403803400695323944091796875" lon="11.03708557784557342529296875">
        <ele>1529.199951171875</ele>
        <time>2026-09-01T09:31:23.000Z</time>
        <extensions>
          <ns3:TrackPointExtension>
            <ns3:hr>171</ns3:hr>
            <ns3:cad>0</ns3:cad>
          </ns3:TrackPointExtension>
        </extensions>
      </trkpt>
      <trkpt lat="47.540384195744991302490234375" lon="11.0370616056025028228759765625">
        <ele>1529.4000244140625</ele>
        <time>2026-09-01T09:31:24.000Z</time>
        <extensions>
          <ns3:TrackPointExtension>
            <ns3:hr>171</ns3:hr>
            <ns3:cad>0</ns3:cad>
          </ns3:TrackPointExtension>
        </extensions>
      </trkpt>
      <trkpt lat="47.5403877161443233489990234375" lon="11.03704802691936492919921875">
        <ele>1529.800048828125</ele>
        <time>2026-09-01T09:31:25.000Z</time>
        <extensions>
          <ns3:TrackPointExtension>
            <ns3:hr>171</ns3:hr>
            <ns3:cad>0</ns3:cad>
          </ns3:TrackPointExtension>
        </extensions>
      </trkpt>
      <trkpt lat="47.5403907336294651031494140625" lon="11.0370267368853092193603515625">
        <ele>1530</ele>
        <time>2026-09-01T09:31:26.000Z</time>
        <extensions>
          <ns3:TrackPointExtension>
            <ns3:hr>172</ns3:hr>
            <ns3:cad>0</ns3:cad>
          </ns3:TrackPointExtension>
        </extensions>
      </trkpt>
      <trkpt lat="47.54039836116135120391845703125" lon="11.0370056144893169403076171875">
        <ele>1530.199951171875</ele>
        <time>2026-09-01T09:31:27.000Z</time>
        <extensions>
          <ns3:TrackPointExtension>
            <ns3:hr>172</ns3:hr>
            <ns3:cad>0</ns3:cad>
          </ns3:TrackPointExtension>
        </extensions>
      </trkpt>
      <trkpt lat="47.54040389321744441986083984375" lon="11.0369720868766307830810546875">
        <ele>1530.4000244140625</ele>
        <time>2026-09-01T09:31:28.000Z</time>
        <extensions>
          <ns3:TrackPointExtension>
            <ns3:hr>172</ns3:hr>
            <ns3:cad>0</ns3:cad>
          </ns3:TrackPointExtension>
        </extensions>
      </trkpt>
      <trkpt lat="47.54040992818772792816162109375" lon="11.03695054538547992706298828125">
        <ele>1530.5999755859375</ele>
        <time>2026-09-01T09:31:29.000Z</time>
        <extensions>
          <ns3:TrackPointExtension>
            <ns3:hr>172</ns3:hr>
            <ns3:cad>0</ns3:cad>
          </ns3:TrackPointExtension>
        </extensions>
      </trkpt>
      <trkpt lat="47.54042166285216808319091796875" lon="11.03691685013473033905029296875">
        <ele>1530.800048828125</ele>
        <time>2026-09-01T09:31:30.000Z</time>
        <extensions>
          <ns3:TrackPointExtension>
            <ns3:hr>172</ns3:hr>
            <ns3:cad>0</ns3:cad>
          </ns3:TrackPointExtension>
        </extensions>
      </trkpt>
      <trkpt lat="47.54042669199407100677490234375" lon="11.0368872620165348052978515625">
        <ele>1530.800048828125</ele>
        <time>2026-09-01T09:31:31.000Z</time>
        <extensions>
          <ns3:TrackPointExtension>
            <ns3:hr>172</ns3:hr>
            <ns3:cad>75</ns3:cad>
          </ns3:TrackPointExtension>
        </extensions>
      </trkpt>
      <trkpt lat="47.54043708555400371551513671875" lon="11.0368622839450836181640625">
        <ele>1531</ele>
        <time>2026-09-01T09:31:32.000Z</time>
        <extensions>
          <ns3:TrackPointExtension>
            <ns3:hr>172</ns3:hr>
            <ns3:cad>76</ns3:cad>
          </ns3:TrackPointExtension>
        </extensions>
      </trkpt>
      <trkpt lat="47.54044613800942897796630859375" lon="11.03683747351169586181640625">
        <ele>1531.199951171875</ele>
        <time>2026-09-01T09:31:33.000Z</time>
        <extensions>
          <ns3:TrackPointExtension>
            <ns3:hr>172</ns3:hr>
            <ns3:cad>76</ns3:cad>
          </ns3:TrackPointExtension>
        </extensions>
      </trkpt>
      <trkpt lat="47.54045167006552219390869140625" lon="11.03682196699082851409912109375">
        <ele>1531.199951171875</ele>
        <time>2026-09-01T09:31:34.000Z</time>
        <extensions>
          <ns3:TrackPointExtension>
            <ns3:hr>171</ns3:hr>
            <ns3:cad>74</ns3:cad>
          </ns3:TrackPointExtension>
        </extensions>
      </trkpt>
      <trkpt lat="47.54046105779707431793212890625" lon="11.03679564781486988067626953125">
        <ele>1531.4000244140625</ele>
        <time>2026-09-01T09:31:35.000Z</time>
        <extensions>
          <ns3:TrackPointExtension>
            <ns3:hr>172</ns3:hr>
            <ns3:cad>74</ns3:cad>
          </ns3:TrackPointExtension>
        </extensions>
      </trkpt>
      <trkpt lat="47.54047027789056301116943359375" lon="11.0367789678275585174560546875">
        <ele>1531.5999755859375</ele>
        <time>2026-09-01T09:31:36.000Z</time>
        <extensions>
          <ns3:TrackPointExtension>
            <ns3:hr>172</ns3:hr>
            <ns3:cad>74</ns3:cad>
          </ns3:TrackPointExtension>
        </extensions>
      </trkpt>
      <trkpt lat="47.540482766926288604736328125" lon="11.0367534868419170379638671875">
        <ele>1531.5999755859375</ele>
        <time>2026-09-01T09:31:37.000Z</time>
        <extensions>
          <ns3:TrackPointExtension>
            <ns3:hr>172</ns3:hr>
            <ns3:cad>74</ns3:cad>
          </ns3:TrackPointExtension>
        </extensions>
      </trkpt>
      <trkpt lat="47.5404906459152698516845703125" lon="11.036735214293003082275390625">
        <ele>1531.800048828125</ele>
        <time>2026-09-01T09:31:38.000Z</time>
        <extensions>
          <ns3:TrackPointExtension>
            <ns3:hr>172</ns3:hr>
            <ns3:cad>74</ns3:cad>
          </ns3:TrackPointExtension>
        </extensions>
      </trkpt>
      <trkpt lat="47.54050229676067829132080078125" lon="11.03672213852405548095703125">
        <ele>1532</ele>
        <time>2026-09-01T09:31:39.000Z</time>
        <extensions>
          <ns3:TrackPointExtension>
            <ns3:hr>172</ns3:hr>
            <ns3:cad>74</ns3:cad>
          </ns3:TrackPointExtension>
        </extensions>
      </trkpt>
      <trkpt lat="47.5405131094157695770263671875" lon="11.03671140968799591064453125">
        <ele>1532.199951171875</ele>
        <time>2026-09-01T09:31:40.000Z</time>
        <extensions>
          <ns3:TrackPointExtension>
            <ns3:hr>172</ns3:hr>
            <ns3:cad>74</ns3:cad>
          </ns3:TrackPointExtension>
        </extensions>
      </trkpt>
      <trkpt lat="47.540525011718273162841796875" lon="11.0367005132138729095458984375">
        <ele>1532.4000244140625</ele>
        <time>2026-09-01T09:31:41.000Z</time>
        <extensions>
          <ns3:TrackPointExtension>
            <ns3:hr>172</ns3:hr>
            <ns3:cad>70</ns3:cad>
          </ns3:TrackPointExtension>
        </extensions>
      </trkpt>
      <trkpt lat="47.54053900949656963348388671875" lon="11.036684922873973846435546875">
        <ele>1532.5999755859375</ele>
        <time>2026-09-01T09:31:42.000Z</time>
        <extensions>
          <ns3:TrackPointExtension>
            <ns3:hr>172</ns3:hr>
            <ns3:cad>70</ns3:cad>
          </ns3:TrackPointExtension>
        </extensions>
      </trkpt>
      <trkpt lat="47.5405540131032466888427734375" lon="11.0366757027804851531982421875">
        <ele>1532.800048828125</ele>
        <time>2026-09-01T09:31:43.000Z</time>
        <extensions>
          <ns3:TrackPointExtension>
            <ns3:hr>171</ns3:hr>
            <ns3:cad>70</ns3:cad>
          </ns3:TrackPointExtension>
        </extensions>
      </trkpt>
      <trkpt lat="47.540577985346317291259765625" lon="11.036650724709033966064453125">
        <ele>1533</ele>
        <time>2026-09-01T09:31:44.000Z</time>
        <extensions>
          <ns3:TrackPointExtension>
            <ns3:hr>170</ns3:hr>
            <ns3:cad>70</ns3:cad>
          </ns3:TrackPointExtension>
        </extensions>
      </trkpt>
      <trkpt lat="47.5406029634177684783935546875" lon="11.03662532754242420196533203125">
        <ele>1533</ele>
        <time>2026-09-01T09:31:45.000Z</time>
        <extensions>
          <ns3:TrackPointExtension>
            <ns3:hr>169</ns3:hr>
            <ns3:cad>70</ns3:cad>
          </ns3:TrackPointExtension>
        </extensions>
      </trkpt>
      <trkpt lat="47.5406224094331264495849609375" lon="11.03660470806062221527099609375">
        <ele>1533</ele>
        <time>2026-09-01T09:31:46.000Z</time>
        <extensions>
          <ns3:TrackPointExtension>
            <ns3:hr>168</ns3:hr>
            <ns3:cad>0</ns3:cad>
          </ns3:TrackPointExtension>
        </extensions>
      </trkpt>
      <trkpt lat="47.54063908942043781280517578125" lon="11.0365989245474338531494140625">
        <ele>1533.199951171875</ele>
        <time>2026-09-01T09:31:47.000Z</time>
        <extensions>
          <ns3:TrackPointExtension>
            <ns3:hr>167</ns3:hr>
            <ns3:cad>0</ns3:cad>
          </ns3:TrackPointExtension>
        </extensions>
      </trkpt>
      <trkpt lat="47.54066255874931812286376953125" lon="11.0365778021514415740966796875">
        <ele>1533.199951171875</ele>
        <time>2026-09-01T09:31:48.000Z</time>
        <extensions>
          <ns3:TrackPointExtension>
            <ns3:hr>167</ns3:hr>
            <ns3:cad>77</ns3:cad>
          </ns3:TrackPointExtension>
        </extensions>
      </trkpt>
      <trkpt lat="47.5406794063746929168701171875" lon="11.03655911050736904144287109375">
        <ele>1533.4000244140625</ele>
        <time>2026-09-01T09:31:49.000Z</time>
        <extensions>
          <ns3:TrackPointExtension>
            <ns3:hr>167</ns3:hr>
            <ns3:cad>78</ns3:cad>
          </ns3:TrackPointExtension>
        </extensions>
      </trkpt>
      <trkpt lat="47.54070245660841464996337890625" lon="11.0365509800612926483154296875">
        <ele>1533.5999755859375</ele>
        <time>2026-09-01T09:31:50.000Z</time>
        <extensions>
          <ns3:TrackPointExtension>
            <ns3:hr>168</ns3:hr>
            <ns3:cad>78</ns3:cad>
          </ns3:TrackPointExtension>
        </extensions>
      </trkpt>
      <trkpt lat="47.54072072915732860565185546875" lon="11.03654184378683567047119140625">
        <ele>1533.800048828125</ele>
        <time>2026-09-01T09:31:51.000Z</time>
        <extensions>
          <ns3:TrackPointExtension>
            <ns3:hr>168</ns3:hr>
            <ns3:cad>78</ns3:cad>
          </ns3:TrackPointExtension>
        </extensions>
      </trkpt>
      <trkpt lat="47.5407506525516510009765625" lon="11.03653044439852237701416015625">
        <ele>1533.800048828125</ele>
        <time>2026-09-01T09:31:52.000Z</time>
        <extensions>
          <ns3:TrackPointExtension>
            <ns3:hr>168</ns3:hr>
            <ns3:cad>78</ns3:cad>
          </ns3:TrackPointExtension>
        </extensions>
      </trkpt>
      <trkpt lat="47.54077169112861156463623046875" lon="11.0365110822021961212158203125">
        <ele>1534</ele>
        <time>2026-09-01T09:31:53.000Z</time>
        <extensions>
          <ns3:TrackPointExtension>
            <ns3:hr>168</ns3:hr>
            <ns3:cad>76</ns3:cad>
          </ns3:TrackPointExtension>
        </extensions>
      </trkpt>
      <trkpt lat="47.5407910533249378204345703125" lon="11.0364976711571216583251953125">
        <ele>1534</ele>
        <time>2026-09-01T09:31:54.000Z</time>
        <extensions>
          <ns3:TrackPointExtension>
            <ns3:hr>168</ns3:hr>
            <ns3:cad>76</ns3:cad>
          </ns3:TrackPointExtension>
        </extensions>
      </trkpt>
      <trkpt lat="47.5408111698925495147705078125" lon="11.03648166172206401824951171875">
        <ele>1534</ele>
        <time>2026-09-01T09:31:55.000Z</time>
        <extensions>
          <ns3:TrackPointExtension>
            <ns3:hr>169</ns3:hr>
            <ns3:cad>76</ns3:cad>
          </ns3:TrackPointExtension>
        </extensions>
      </trkpt>
      <trkpt lat="47.54082374274730682373046875" lon="11.0364591144025325775146484375">
        <ele>1534</ele>
        <time>2026-09-01T09:31:56.000Z</time>
        <extensions>
          <ns3:TrackPointExtension>
            <ns3:hr>169</ns3:hr>
            <ns3:cad>77</ns3:cad>
          </ns3:TrackPointExtension>
        </extensions>
      </trkpt>
      <trkpt lat="47.54083941690623760223388671875" lon="11.036445200443267822265625">
        <ele>1534</ele>
        <time>2026-09-01T09:31:57.000Z</time>
        <extensions>
          <ns3:TrackPointExtension>
            <ns3:hr>169</ns3:hr>
            <ns3:cad>79</ns3:cad>
          </ns3:TrackPointExtension>
        </extensions>
      </trkpt>
      <trkpt lat="47.54085081629455089569091796875" lon="11.0364339686930179595947265625">
        <ele>1534</ele>
        <time>2026-09-01T09:31:58.000Z</time>
        <extensions>
          <ns3:TrackPointExtension>
            <ns3:hr>168</ns3:hr>
            <ns3:cad>79</ns3:cad>
          </ns3:TrackPointExtension>
        </extensions>
      </trkpt>
      <trkpt lat="47.540864646434783935546875" lon="11.0364192165434360504150390625">
        <ele>1534.199951171875</ele>
        <time>2026-09-01T09:31:59.000Z</time>
        <extensions>
          <ns3:TrackPointExtension>
            <ns3:hr>169</ns3:hr>
            <ns3:cad>83</ns3:cad>
          </ns3:TrackPointExtension>
        </extensions>
      </trkpt>
      <trkpt lat="47.54087562672793865203857421875" lon="11.03640102781355381011962890625">
        <ele>1534.199951171875</ele>
        <time>2026-09-01T09:32:00.000Z</time>
        <extensions>
          <ns3:TrackPointExtension>
            <ns3:hr>168</ns3:hr>
            <ns3:cad>83</ns3:cad>
          </ns3:TrackPointExtension>
        </extensions>
      </trkpt>
      <trkpt lat="47.5408909656107425689697265625" lon="11.03638526983559131622314453125">
        <ele>1534.4000244140625</ele>
        <time>2026-09-01T09:32:01.000Z</time>
        <extensions>
          <ns3:TrackPointExtension>
            <ns3:hr>167</ns3:hr>
            <ns3:cad>83</ns3:cad>
          </ns3:TrackPointExtension>
        </extensions>
      </trkpt>
      <trkpt lat="47.5409035384654998779296875" lon="11.03636699728667736053466796875">
        <ele>1534.5999755859375</ele>
        <time>2026-09-01T09:32:02.000Z</time>
        <extensions>
          <ns3:TrackPointExtension>
            <ns3:hr>166</ns3:hr>
            <ns3:cad>83</ns3:cad>
          </ns3:TrackPointExtension>
        </extensions>
      </trkpt>
      <trkpt lat="47.54091653041541576385498046875" lon="11.0363464616239070892333984375">
        <ele>1534.800048828125</ele>
        <time>2026-09-01T09:32:03.000Z</time>
        <extensions>
          <ns3:TrackPointExtension>
            <ns3:hr>165</ns3:hr>
            <ns3:cad>83</ns3:cad>
          </ns3:TrackPointExtension>
        </extensions>
      </trkpt>
      <trkpt lat="47.540929019451141357421875" lon="11.03632106445729732513427734375">
        <ele>1535</ele>
        <time>2026-09-01T09:32:04.000Z</time>
        <extensions>
          <ns3:TrackPointExtension>
            <ns3:hr>164</ns3:hr>
            <ns3:cad>83</ns3:cad>
          </ns3:TrackPointExtension>
        </extensions>
      </trkpt>
      <trkpt lat="47.54093949683010578155517578125" lon="11.03629776276648044586181640625">
        <ele>1535.199951171875</ele>
        <time>2026-09-01T09:32:05.000Z</time>
        <extensions>
          <ns3:TrackPointExtension>
            <ns3:hr>163</ns3:hr>
            <ns3:cad>83</ns3:cad>
          </ns3:TrackPointExtension>
        </extensions>
      </trkpt>
      <trkpt lat="47.540956176817417144775390625" lon="11.03627546690404415130615234375">
        <ele>1535.4000244140625</ele>
        <time>2026-09-01T09:32:06.000Z</time>
        <extensions>
          <ns3:TrackPointExtension>
            <ns3:hr>162</ns3:hr>
            <ns3:cad>79</ns3:cad>
          </ns3:TrackPointExtension>
        </extensions>
      </trkpt>
      <trkpt lat="47.5409705936908721923828125" lon="11.0362613014876842498779296875">
        <ele>1535.5999755859375</ele>
        <time>2026-09-01T09:32:07.000Z</time>
        <extensions>
          <ns3:TrackPointExtension>
            <ns3:hr>162</ns3:hr>
            <ns3:cad>79</ns3:cad>
          </ns3:TrackPointExtension>
        </extensions>
      </trkpt>
      <trkpt lat="47.5409831665456295013427734375" lon="11.0362505726516246795654296875">
        <ele>1535.800048828125</ele>
        <time>2026-09-01T09:32:08.000Z</time>
        <extensions>
          <ns3:TrackPointExtension>
            <ns3:hr>162</ns3:hr>
            <ns3:cad>79</ns3:cad>
          </ns3:TrackPointExtension>
        </extensions>
      </trkpt>
      <trkpt lat="47.54099984653294086456298828125" lon="11.036241687834262847900390625">
        <ele>1536</ele>
        <time>2026-09-01T09:32:09.000Z</time>
        <extensions>
          <ns3:TrackPointExtension>
            <ns3:hr>162</ns3:hr>
            <ns3:cad>79</ns3:cad>
          </ns3:TrackPointExtension>
        </extensions>
      </trkpt>
      <trkpt lat="47.54101392813026905059814453125" lon="11.03623959235846996307373046875">
        <ele>1536</ele>
        <time>2026-09-01T09:32:10.000Z</time>
        <extensions>
          <ns3:TrackPointExtension>
            <ns3:hr>162</ns3:hr>
            <ns3:cad>80</ns3:cad>
          </ns3:TrackPointExtension>
        </extensions>
      </trkpt>
      <trkpt lat="47.541029937565326690673828125" lon="11.0362358205020427703857421875">
        <ele>1536.199951171875</ele>
        <time>2026-09-01T09:32:11.000Z</time>
        <extensions>
          <ns3:TrackPointExtension>
            <ns3:hr>162</ns3:hr>
            <ns3:cad>80</ns3:cad>
          </ns3:TrackPointExtension>
        </extensions>
      </trkpt>
      <trkpt lat="47.5410468690097332000732421875" lon="11.0362314619123935699462890625">
        <ele>1536.4000244140625</ele>
        <time>2026-09-01T09:32:12.000Z</time>
        <extensions>
          <ns3:TrackPointExtension>
            <ns3:hr>163</ns3:hr>
            <ns3:cad>76</ns3:cad>
          </ns3:TrackPointExtension>
        </extensions>
      </trkpt>
      <trkpt lat="47.54106271080672740936279296875" lon="11.03622919879853725433349609375">
        <ele>1536.5999755859375</ele>
        <time>2026-09-01T09:32:13.000Z</time>
        <extensions>
          <ns3:TrackPointExtension>
            <ns3:hr>163</ns3:hr>
            <ns3:cad>76</ns3:cad>
          </ns3:TrackPointExtension>
        </extensions>
      </trkpt>
      <trkpt lat="47.54108316265046596527099609375" lon="11.036226935684680938720703125">
        <ele>1536.800048828125</ele>
        <time>2026-09-01T09:32:14.000Z</time>
        <extensions>
          <ns3:TrackPointExtension>
            <ns3:hr>163</ns3:hr>
            <ns3:cad>76</ns3:cad>
          </ns3:TrackPointExtension>
        </extensions>
      </trkpt>
      <trkpt lat="47.54109774716198444366455078125" lon="11.0362153686583042144775390625">
        <ele>1537</ele>
        <time>2026-09-01T09:32:15.000Z</time>
        <extensions>
          <ns3:TrackPointExtension>
            <ns3:hr>162</ns3:hr>
            <ns3:cad>76</ns3:cad>
          </ns3:TrackPointExtension>
        </extensions>
      </trkpt>
      <trkpt lat="47.54111249931156635284423828125" lon="11.03621126152575016021728515625">
        <ele>1537</ele>
        <time>2026-09-01T09:32:16.000Z</time>
        <extensions>
          <ns3:TrackPointExtension>
            <ns3:hr>163</ns3:hr>
            <ns3:cad>76</ns3:cad>
          </ns3:TrackPointExtension>
        </extensions>
      </trkpt>
      <trkpt lat="47.541127167642116546630859375" lon="11.03621025569736957550048828125">
        <ele>1537.4000244140625</ele>
        <time>2026-09-01T09:32:17.000Z</time>
        <extensions>
          <ns3:TrackPointExtension>
            <ns3:hr>162</ns3:hr>
            <ns3:cad>76</ns3:cad>
          </ns3:TrackPointExtension>
        </extensions>
      </trkpt>
      <trkpt lat="47.54113848321139812469482421875" lon="11.0362064838409423828125">
        <ele>1537.5999755859375</ele>
        <time>2026-09-01T09:32:18.000Z</time>
        <extensions>
          <ns3:TrackPointExtension>
            <ns3:hr>162</ns3:hr>
            <ns3:cad>0</ns3:cad>
          </ns3:TrackPointExtension>
        </extensions>
      </trkpt>
      <trkpt lat="47.5411467812955379486083984375" lon="11.03621075861155986785888671875">
        <ele>1538</ele>
        <time>2026-09-01T09:32:19.000Z</time>
        <extensions>
          <ns3:TrackPointExtension>
            <ns3:hr>161</ns3:hr>
            <ns3:cad>0</ns3:cad>
          </ns3:TrackPointExtension>
        </extensions>
      </trkpt>
      <trkpt lat="47.5411556661128997802734375" lon="11.03621444664895534515380859375">
        <ele>1538.4000244140625</ele>
        <time>2026-09-01T09:32:20.000Z</time>
        <extensions>
          <ns3:TrackPointExtension>
            <ns3:hr>160</ns3:hr>
            <ns3:cad>0</ns3:cad>
          </ns3:TrackPointExtension>
        </extensions>
      </trkpt>
      <trkpt lat="47.54116614349186420440673828125" lon="11.0362157039344310760498046875">
        <ele>1538.800048828125</ele>
        <time>2026-09-01T09:32:21.000Z</time>
        <extensions>
          <ns3:TrackPointExtension>
            <ns3:hr>160</ns3:hr>
            <ns3:cad>0</ns3:cad>
          </ns3:TrackPointExtension>
        </extensions>
      </trkpt>
      <trkpt lat="47.541175447404384613037109375" lon="11.03621444664895534515380859375">
        <ele>1539</ele>
        <time>2026-09-01T09:32:22.000Z</time>
        <extensions>
          <ns3:TrackPointExtension>
            <ns3:hr>159</ns3:hr>
            <ns3:cad>0</ns3:cad>
          </ns3:TrackPointExtension>
        </extensions>
      </trkpt>
      <trkpt lat="47.54118843935430049896240234375" lon="11.03621813468635082244873046875">
        <ele>1539.4000244140625</ele>
        <time>2026-09-01T09:32:23.000Z</time>
        <extensions>
          <ns3:TrackPointExtension>
            <ns3:hr>158</ns3:hr>
            <ns3:cad>0</ns3:cad>
          </ns3:TrackPointExtension>
        </extensions>
      </trkpt>
      <trkpt lat="47.54121073521673679351806640625" lon="11.03621796704828739166259765625">
        <ele>1539.5999755859375</ele>
        <time>2026-09-01T09:32:24.000Z</time>
        <extensions>
          <ns3:TrackPointExtension>
            <ns3:hr>158</ns3:hr>
            <ns3:cad>0</ns3:cad>
          </ns3:TrackPointExtension>
        </extensions>
      </trkpt>
      <trkpt lat="47.5412225537002086639404296875" lon="11.03621914051473140716552734375">
        <ele>1539.5999755859375</ele>
        <time>2026-09-01T09:32:25.000Z</time>
        <extensions>
          <ns3:TrackPointExtension>
            <ns3:hr>157</ns3:hr>
            <ns3:cad>0</ns3:cad>
          </ns3:TrackPointExtension>
        </extensions>
      </trkpt>
      <trkpt lat="47.5412306003272533416748046875" lon="11.03621863760054111480712890625">
        <ele>1539.800048828125</ele>
        <time>2026-09-01T09:32:26.000Z</time>
        <extensions>
          <ns3:TrackPointExtension>
            <ns3:hr>158</ns3:hr>
            <ns3:cad>0</ns3:cad>
          </ns3:TrackPointExtension>
        </extensions>
      </trkpt>
      <trkpt lat="47.541235797107219696044921875" lon="11.03622316382825374603271484375">
        <ele>1539.800048828125</ele>
        <time>2026-09-01T09:32:27.000Z</time>
        <extensions>
          <ns3:TrackPointExtension>
            <ns3:hr>158</ns3:hr>
            <ns3:cad>0</ns3:cad>
          </ns3:TrackPointExtension>
        </extensions>
      </trkpt>
      <trkpt lat="47.5412513874471187591552734375" lon="11.03622366674244403839111328125">
        <ele>1540</ele>
        <time>2026-09-01T09:32:28.000Z</time>
        <extensions>
          <ns3:TrackPointExtension>
            <ns3:hr>158</ns3:hr>
            <ns3:cad>0</ns3:cad>
          </ns3:TrackPointExtension>
        </extensions>
      </trkpt>
      <trkpt lat="47.54127167165279388427734375" lon="11.03622400201857089996337890625">
        <ele>1540</ele>
        <time>2026-09-01T09:32:29.000Z</time>
        <extensions>
          <ns3:TrackPointExtension>
            <ns3:hr>158</ns3:hr>
            <ns3:cad>0</ns3:cad>
          </ns3:TrackPointExtension>
        </extensions>
      </trkpt>
      <trkpt lat="47.54129656590521335601806640625" lon="11.03621293790638446807861328125">
        <ele>1540</ele>
        <time>2026-09-01T09:32:30.000Z</time>
        <extensions>
          <ns3:TrackPointExtension>
            <ns3:hr>158</ns3:hr>
            <ns3:cad>53</ns3:cad>
          </ns3:TrackPointExtension>
        </extensions>
      </trkpt>
      <trkpt lat="47.54131584428250789642333984375" lon="11.0362103395164012908935546875">
        <ele>1540.199951171875</ele>
        <time>2026-09-01T09:32:31.000Z</time>
        <extensions>
          <ns3:TrackPointExtension>
            <ns3:hr>158</ns3:hr>
            <ns3:cad>53</ns3:cad>
          </ns3:TrackPointExtension>
        </extensions>
      </trkpt>
      <trkpt lat="47.5413315184414386749267578125" lon="11.03620455600321292877197265625">
        <ele>1540.199951171875</ele>
        <time>2026-09-01T09:32:32.000Z</time>
        <extensions>
          <ns3:TrackPointExtension>
            <ns3:hr>158</ns3:hr>
            <ns3:cad>53</ns3:cad>
          </ns3:TrackPointExtension>
        </extensions>
      </trkpt>
      <trkpt lat="47.54135079681873321533203125" lon="11.03619114495813846588134765625">
        <ele>1540.199951171875</ele>
        <time>2026-09-01T09:32:33.000Z</time>
        <extensions>
          <ns3:TrackPointExtension>
            <ns3:hr>158</ns3:hr>
            <ns3:cad>53</ns3:cad>
          </ns3:TrackPointExtension>
        </extensions>
      </trkpt>
      <trkpt lat="47.54136781208217144012451171875" lon="11.03617622517049312591552734375">
        <ele>1540.4000244140625</ele>
        <time>2026-09-01T09:32:34.000Z</time>
        <extensions>
          <ns3:TrackPointExtension>
            <ns3:hr>158</ns3:hr>
            <ns3:cad>0</ns3:cad>
          </ns3:TrackPointExtension>
        </extensions>
      </trkpt>
      <trkpt lat="47.5413844920694828033447265625" lon="11.03615485131740570068359375">
        <ele>1540.5999755859375</ele>
        <time>2026-09-01T09:32:35.000Z</time>
        <extensions>
          <ns3:TrackPointExtension>
            <ns3:hr>158</ns3:hr>
            <ns3:cad>0</ns3:cad>
          </ns3:TrackPointExtension>
        </extensions>
      </trkpt>
      <trkpt lat="47.54139144904911518096923828125" lon="11.03612727485597133636474609375">
        <ele>1540.800048828125</ele>
        <time>2026-09-01T09:32:36.000Z</time>
        <extensions>
          <ns3:TrackPointExtension>
            <ns3:hr>158</ns3:hr>
            <ns3:cad>0</ns3:cad>
          </ns3:TrackPointExtension>
        </extensions>
      </trkpt>
      <trkpt lat="47.54140033386647701263427734375" lon="11.0360933281481266021728515625">
        <ele>1541</ele>
        <time>2026-09-01T09:32:37.000Z</time>
        <extensions>
          <ns3:TrackPointExtension>
            <ns3:hr>159</ns3:hr>
            <ns3:cad>71</ns3:cad>
          </ns3:TrackPointExtension>
        </extensions>
      </trkpt>
      <trkpt lat="47.541402764618396759033203125" lon="11.0360577888786792755126953125">
        <ele>1541</ele>
        <time>2026-09-01T09:32:38.000Z</time>
        <extensions>
          <ns3:TrackPointExtension>
            <ns3:hr>159</ns3:hr>
            <ns3:cad>74</ns3:cad>
          </ns3:TrackPointExtension>
        </extensions>
      </trkpt>
      <trkpt lat="47.54140821285545825958251953125" lon="11.0360245965421199798583984375">
        <ele>1540.800048828125</ele>
        <time>2026-09-01T09:32:39.000Z</time>
        <extensions>
          <ns3:TrackPointExtension>
            <ns3:hr>160</ns3:hr>
            <ns3:cad>74</ns3:cad>
          </ns3:TrackPointExtension>
        </extensions>
      </trkpt>
      <trkpt lat="47.5414103083312511444091796875" lon="11.03599266149103641510009765625">
        <ele>1540.199951171875</ele>
        <time>2026-09-01T09:32:40.000Z</time>
        <extensions>
          <ns3:TrackPointExtension>
            <ns3:hr>161</ns3:hr>
            <ns3:cad>75</ns3:cad>
          </ns3:TrackPointExtension>
        </extensions>
      </trkpt>
      <trkpt lat="47.5414180196821689605712890625" lon="11.035960055887699127197265625">
        <ele>1539.800048828125</ele>
        <time>2026-09-01T09:32:41.000Z</time>
        <extensions>
          <ns3:TrackPointExtension>
            <ns3:hr>161</ns3:hr>
            <ns3:cad>75</ns3:cad>
          </ns3:TrackPointExtension>
        </extensions>
      </trkpt>
      <trkpt lat="47.541427575051784515380859375" lon="11.035935916006565093994140625">
        <ele>1538.5999755859375</ele>
        <time>2026-09-01T09:32:42.000Z</time>
        <extensions>
          <ns3:TrackPointExtension>
            <ns3:hr>161</ns3:hr>
            <ns3:cad>83</ns3:cad>
          </ns3:TrackPointExtension>
        </extensions>
      </trkpt>
      <trkpt lat="47.54145297221839427947998046875" lon="11.0358992032706737518310546875">
        <ele>1537.800048828125</ele>
        <time>2026-09-01T09:32:43.000Z</time>
        <extensions>
          <ns3:TrackPointExtension>
            <ns3:hr>161</ns3:hr>
            <ns3:cad>83</ns3:cad>
          </ns3:TrackPointExtension>
        </extensions>
      </trkpt>
      <trkpt lat="47.541459761559963226318359375" lon="11.03586844168603420257568359375">
        <ele>1537</ele>
        <time>2026-09-01T09:32:44.000Z</time>
        <extensions>
          <ns3:TrackPointExtension>
            <ns3:hr>160</ns3:hr>
            <ns3:cad>83</ns3:cad>
          </ns3:TrackPointExtension>
        </extensions>
      </trkpt>
      <trkpt lat="47.54148029722273349761962890625" lon="11.03583256714046001434326171875">
        <ele>1536.4000244140625</ele>
        <time>2026-09-01T09:32:45.000Z</time>
        <extensions>
          <ns3:TrackPointExtension>
            <ns3:hr>160</ns3:hr>
            <ns3:cad>83</ns3:cad>
          </ns3:TrackPointExtension>
        </extensions>
      </trkpt>
      <trkpt lat="47.54148750565946102142333984375" lon="11.03580574505031108856201171875">
        <ele>1535.800048828125</ele>
        <time>2026-09-01T09:32:46.000Z</time>
        <extensions>
          <ns3:TrackPointExtension>
            <ns3:hr>159</ns3:hr>
            <ns3:cad>83</ns3:cad>
          </ns3:TrackPointExtension>
        </extensions>
      </trkpt>
      <trkpt lat="47.54149370826780796051025390625" lon="11.035763584077358245849609375">
        <ele>1535.4000244140625</ele>
        <time>2026-09-01T09:32:47.000Z</time>
        <extensions>
          <ns3:TrackPointExtension>
            <ns3:hr>159</ns3:hr>
            <ns3:cad>83</ns3:cad>
          </ns3:TrackPointExtension>
        </extensions>
      </trkpt>
      <trkpt lat="47.541491277515888214111328125" lon="11.035728044807910919189453125">
        <ele>1534.800048828125</ele>
        <time>2026-09-01T09:32:48.000Z</time>
        <extensions>
          <ns3:TrackPointExtension>
            <ns3:hr>158</ns3:hr>
            <ns3:cad>83</ns3:cad>
          </ns3:TrackPointExtension>
        </extensions>
      </trkpt>
      <trkpt lat="47.54149622283875942230224609375" lon="11.03568990714848041534423828125">
        <ele>1534.199951171875</ele>
        <time>2026-09-01T09:32:49.000Z</time>
        <extensions>
          <ns3:TrackPointExtension>
            <ns3:hr>158</ns3:hr>
            <ns3:cad>83</ns3:cad>
          </ns3:TrackPointExtension>
        </extensions>
      </trkpt>
      <trkpt lat="47.5414850749075412750244140625" lon="11.035670377314090728759765625">
        <ele>1533.5999755859375</ele>
        <time>2026-09-01T09:32:50.000Z</time>
        <extensions>
          <ns3:TrackPointExtension>
            <ns3:hr>157</ns3:hr>
            <ns3:cad>83</ns3:cad>
          </ns3:TrackPointExtension>
        </extensions>
      </trkpt>
      <trkpt lat="47.5414679758250713348388671875" lon="11.0356365144252777099609375">
        <ele>1533</ele>
        <time>2026-09-01T09:32:51.000Z</time>
        <extensions>
          <ns3:TrackPointExtension>
            <ns3:hr>157</ns3:hr>
            <ns3:cad>83</ns3:cad>
          </ns3:TrackPointExtension>
        </extensions>
      </trkpt>
      <trkpt lat="47.54145280458033084869384765625" lon="11.03559753857553005218505859375">
        <ele>1532.4000244140625</ele>
        <time>2026-09-01T09:32:52.000Z</time>
        <extensions>
          <ns3:TrackPointExtension>
            <ns3:hr>156</ns3:hr>
            <ns3:cad>83</ns3:cad>
          </ns3:TrackPointExtension>
        </extensions>
      </trkpt>
      <trkpt lat="47.54144526086747646331787109375" lon="11.03556635789573192596435546875">
        <ele>1531.5999755859375</ele>
        <time>2026-09-01T09:32:53.000Z</time>
        <extensions>
          <ns3:TrackPointExtension>
            <ns3:hr>156</ns3:hr>
            <ns3:cad>83</ns3:cad>
          </ns3:TrackPointExtension>
        </extensions>
      </trkpt>
      <trkpt lat="47.5414344482123851776123046875" lon="11.03552327491343021392822265625">
        <ele>1530.800048828125</ele>
        <time>2026-09-01T09:32:54.000Z</time>
        <extensions>
          <ns3:TrackPointExtension>
            <ns3:hr>155</ns3:hr>
            <ns3:cad>83</ns3:cad>
          </ns3:TrackPointExtension>
        </extensions>
      </trkpt>
      <trkpt lat="47.54142832942306995391845703125" lon="11.03548538871109485626220703125">
        <ele>1529.800048828125</ele>
        <time>2026-09-01T09:32:55.000Z</time>
        <extensions>
          <ns3:TrackPointExtension>
            <ns3:hr>154</ns3:hr>
            <ns3:cad>83</ns3:cad>
          </ns3:TrackPointExtension>
        </extensions>
      </trkpt>
      <trkpt lat="47.54142212681472301483154296875" lon="11.03545990772545337677001953125">
        <ele>1529.199951171875</ele>
        <time>2026-09-01T09:32:56.000Z</time>
        <extensions>
          <ns3:TrackPointExtension>
            <ns3:hr>153</ns3:hr>
            <ns3:cad>83</ns3:cad>
          </ns3:TrackPointExtension>
        </extensions>
      </trkpt>
      <trkpt lat="47.54141458310186862945556640625" lon="11.03541984222829341888427734375">
        <ele>1528.5999755859375</ele>
        <time>2026-09-01T09:32:57.000Z</time>
        <extensions>
          <ns3:TrackPointExtension>
            <ns3:hr>152</ns3:hr>
            <ns3:cad>85</ns3:cad>
          </ns3:TrackPointExtension>
        </extensions>
      </trkpt>
      <trkpt lat="47.5414193607866764068603515625" lon="11.03537441231310367584228515625">
        <ele>1527.800048828125</ele>
        <time>2026-09-01T09:32:58.000Z</time>
        <extensions>
          <ns3:TrackPointExtension>
            <ns3:hr>151</ns3:hr>
            <ns3:cad>85</ns3:cad>
          </ns3:TrackPointExtension>
        </extensions>
      </trkpt>
      <trkpt lat="47.54139748401939868927001953125" lon="11.0353329218924045562744140625">
        <ele>1527</ele>
        <time>2026-09-01T09:32:59.000Z</time>
        <extensions>
          <ns3:TrackPointExtension>
            <ns3:hr>150</ns3:hr>
            <ns3:cad>85</ns3:cad>
          </ns3:TrackPointExtension>
        </extensions>
      </trkpt>
      <trkpt lat="47.54138709045946598052978515625" lon="11.0353060998022556304931640625">
        <ele>1526.4000244140625</ele>
        <time>2026-09-01T09:33:00.000Z</time>
        <extensions>
          <ns3:TrackPointExtension>
            <ns3:hr>149</ns3:hr>
            <ns3:cad>85</ns3:cad>
          </ns3:TrackPointExtension>
        </extensions>
      </trkpt>
      <trkpt lat="47.54138139076530933380126953125" lon="11.0352645255625247955322265625">
        <ele>1525.800048828125</ele>
        <time>2026-09-01T09:33:01.000Z</time>
        <extensions>
          <ns3:TrackPointExtension>
            <ns3:hr>149</ns3:hr>
            <ns3:cad>83</ns3:cad>
          </ns3:TrackPointExtension>
        </extensions>
      </trkpt>
      <trkpt lat="47.54138004966080188751220703125" lon="11.035209707915782928466796875">
        <ele>1525.5999755859375</ele>
        <time>2026-09-01T09:33:02.000Z</time>
        <extensions>
          <ns3:TrackPointExtension>
            <ns3:hr>149</ns3:hr>
            <ns3:cad>83</ns3:cad>
          </ns3:TrackPointExtension>
        </extensions>
      </trkpt>
      <trkpt lat="47.5413764454424381256103515625" lon="11.03517115116119384765625">
        <ele>1525.4000244140625</ele>
        <time>2026-09-01T09:33:03.000Z</time>
        <extensions>
          <ns3:TrackPointExtension>
            <ns3:hr>149</ns3:hr>
            <ns3:cad>83</ns3:cad>
          </ns3:TrackPointExtension>
        </extensions>
      </trkpt>
      <trkpt lat="47.54137803800404071807861328125" lon="11.03513024747371673583984375">
        <ele>1525.199951171875</ele>
        <time>2026-09-01T09:33:04.000Z</time>
        <extensions>
          <ns3:TrackPointExtension>
            <ns3:hr>148</ns3:hr>
            <ns3:cad>83</ns3:cad>
          </ns3:TrackPointExtension>
        </extensions>
      </trkpt>
      <trkpt lat="47.5413737632334232330322265625" lon="11.0350781120359897613525390625">
        <ele>1524.800048828125</ele>
        <time>2026-09-01T09:33:05.000Z</time>
        <extensions>
          <ns3:TrackPointExtension>
            <ns3:hr>148</ns3:hr>
            <ns3:cad>83</ns3:cad>
          </ns3:TrackPointExtension>
        </extensions>
      </trkpt>
      <trkpt lat="47.5413727574050426483154296875" lon="11.035028994083404541015625">
        <ele>1524.4000244140625</ele>
        <time>2026-09-01T09:33:06.000Z</time>
        <extensions>
          <ns3:TrackPointExtension>
            <ns3:hr>148</ns3:hr>
            <ns3:cad>83</ns3:cad>
          </ns3:TrackPointExtension>
        </extensions>
      </trkpt>
      <trkpt lat="47.5413756072521209716796875" lon="11.03498163633048534393310546875">
        <ele>1524</ele>
        <time>2026-09-01T09:33:07.000Z</time>
        <extensions>
          <ns3:TrackPointExtension>
            <ns3:hr>148</ns3:hr>
            <ns3:cad>83</ns3:cad>
          </ns3:TrackPointExtension>
        </extensions>
      </trkpt>
      <trkpt lat="47.54136831499636173248291015625" lon="11.0349446721374988555908203125">
        <ele>1523.5999755859375</ele>
        <time>2026-09-01T09:33:08.000Z</time>
        <extensions>
          <ns3:TrackPointExtension>
            <ns3:hr>148</ns3:hr>
            <ns3:cad>83</ns3:cad>
          </ns3:TrackPointExtension>
        </extensions>
      </trkpt>
      <trkpt lat="47.5413563288748264312744140625" lon="11.03488884866237640380859375">
        <ele>1523.4000244140625</ele>
        <time>2026-09-01T09:33:09.000Z</time>
        <extensions>
          <ns3:TrackPointExtension>
            <ns3:hr>148</ns3:hr>
            <ns3:cad>83</ns3:cad>
          </ns3:TrackPointExtension>
        </extensions>
      </trkpt>
      <trkpt lat="47.5413456000387668609619140625" lon="11.03484191000461578369140625">
        <ele>1523</ele>
        <time>2026-09-01T09:33:10.000Z</time>
        <extensions>
          <ns3:TrackPointExtension>
            <ns3:hr>147</ns3:hr>
            <ns3:cad>85</ns3:cad>
          </ns3:TrackPointExtension>
        </extensions>
      </trkpt>
      <trkpt lat="47.54133445210754871368408203125" lon="11.03478633798658847808837890625">
        <ele>1522.5999755859375</ele>
        <time>2026-09-01T09:33:11.000Z</time>
        <extensions>
          <ns3:TrackPointExtension>
            <ns3:hr>147</ns3:hr>
            <ns3:cad>85</ns3:cad>
          </ns3:TrackPointExtension>
        </extensions>
      </trkpt>
      <trkpt lat="47.541335038840770721435546875" lon="11.03474040515720844268798828125">
        <ele>1522.199951171875</ele>
        <time>2026-09-01T09:33:12.000Z</time>
        <extensions>
          <ns3:TrackPointExtension>
            <ns3:hr>145</ns3:hr>
            <ns3:cad>85</ns3:cad>
          </ns3:TrackPointExtension>
        </extensions>
      </trkpt>
      <trkpt lat="47.5413295067846775054931640625" lon="11.03469732217490673065185546875">
        <ele>1522</ele>
        <time>2026-09-01T09:33:13.000Z</time>
        <extensions>
          <ns3:TrackPointExtension>
            <ns3:hr>146</ns3:hr>
            <ns3:cad>85</ns3:cad>
          </ns3:TrackPointExtension>
        </extensions>
      </trkpt>
      <trkpt lat="47.54132204689085483551025390625" lon="11.03464636020362377166748046875">
        <ele>1521.800048828125</ele>
        <time>2026-09-01T09:33:14.000Z</time>
        <extensions>
          <ns3:TrackPointExtension>
            <ns3:hr>146</ns3:hr>
            <ns3:cad>85</ns3:cad>
          </ns3:TrackPointExtension>
        </extensions>
      </trkpt>
      <trkpt lat="47.54131383262574672698974609375" lon="11.0346104018390178680419921875">
        <ele>1521.5999755859375</ele>
        <time>2026-09-01T09:33:15.000Z</time>
        <extensions>
          <ns3:TrackPointExtension>
            <ns3:hr>147</ns3:hr>
            <ns3:cad>87</ns3:cad>
          </ns3:TrackPointExtension>
        </extensions>
      </trkpt>
      <trkpt lat="47.54130628891289234161376953125" lon="11.03456974960863590240478515625">
        <ele>1521.199951171875</ele>
        <time>2026-09-01T09:33:16.000Z</time>
        <extensions>
          <ns3:TrackPointExtension>
            <ns3:hr>147</ns3:hr>
            <ns3:cad>87</ns3:cad>
          </ns3:TrackPointExtension>
        </extensions>
      </trkpt>
      <trkpt lat="47.54130058921873569488525390625" lon="11.03453437797725200653076171875">
        <ele>1520.5999755859375</ele>
        <time>2026-09-01T09:33:17.000Z</time>
        <extensions>
          <ns3:TrackPointExtension>
            <ns3:hr>147</ns3:hr>
            <ns3:cad>87</ns3:cad>
          </ns3:TrackPointExtension>
        </extensions>
      </trkpt>
      <trkpt lat="47.54129044711589813232421875" lon="11.03449297137558460235595703125">
        <ele>1520.199951171875</ele>
        <time>2026-09-01T09:33:18.000Z</time>
        <extensions>
          <ns3:TrackPointExtension>
            <ns3:hr>147</ns3:hr>
            <ns3:cad>87</ns3:cad>
          </ns3:TrackPointExtension>
        </extensions>
      </trkpt>
      <trkpt lat="47.5412909500300884246826171875" lon="11.03444083593785762786865234375">
        <ele>1519.199951171875</ele>
        <time>2026-09-01T09:33:19.000Z</time>
        <extensions>
          <ns3:TrackPointExtension>
            <ns3:hr>147</ns3:hr>
            <ns3:cad>87</ns3:cad>
          </ns3:TrackPointExtension>
        </extensions>
      </trkpt>
      <trkpt lat="47.54129237495362758636474609375" lon="11.03440345264971256256103515625">
        <ele>1518.5999755859375</ele>
        <time>2026-09-01T09:33:20.000Z</time>
        <extensions>
          <ns3:TrackPointExtension>
            <ns3:hr>148</ns3:hr>
            <ns3:cad>87</ns3:cad>
          </ns3:TrackPointExtension>
        </extensions>
      </trkpt>
      <trkpt lat="47.54129220731556415557861328125" lon="11.034370847046375274658203125">
        <ele>1518.199951171875</ele>
        <time>2026-09-01T09:33:21.000Z</time>
        <extensions>
          <ns3:TrackPointExtension>
            <ns3:hr>148</ns3:hr>
            <ns3:cad>87</ns3:cad>
          </ns3:TrackPointExtension>
        </extensions>
      </trkpt>
      <trkpt lat="47.54131014458835124969482421875" lon="11.03433522395789623260498046875">
        <ele>1517.800048828125</ele>
        <time>2026-09-01T09:33:22.000Z</time>
        <extensions>
          <ns3:TrackPointExtension>
            <ns3:hr>148</ns3:hr>
            <ns3:cad>87</ns3:cad>
          </ns3:TrackPointExtension>
        </extensions>
      </trkpt>
      <trkpt lat="47.54131324589252471923828125" lon="11.03430924005806446075439453125">
        <ele>1517.5999755859375</ele>
        <time>2026-09-01T09:33:23.000Z</time>
        <extensions>
          <ns3:TrackPointExtension>
            <ns3:hr>148</ns3:hr>
            <ns3:cad>87</ns3:cad>
          </ns3:TrackPointExtension>
        </extensions>
      </trkpt>
      <trkpt lat="47.5413248129189014434814453125" lon="11.034267246723175048828125">
        <ele>1517.5999755859375</ele>
        <time>2026-09-01T09:33:24.000Z</time>
        <extensions>
          <ns3:TrackPointExtension>
            <ns3:hr>148</ns3:hr>
            <ns3:cad>87</ns3:cad>
          </ns3:TrackPointExtension>
        </extensions>
      </trkpt>
      <trkpt lat="47.541338391602039337158203125" lon="11.0342444479465484619140625">
        <ele>1517.4000244140625</ele>
        <time>2026-09-01T09:33:25.000Z</time>
        <extensions>
          <ns3:TrackPointExtension>
            <ns3:hr>148</ns3:hr>
            <ns3:cad>87</ns3:cad>
          </ns3:TrackPointExtension>
        </extensions>
      </trkpt>
      <trkpt lat="47.5413439236581325531005859375" lon="11.03421402163803577423095703125">
        <ele>1517.4000244140625</ele>
        <time>2026-09-01T09:33:26.000Z</time>
        <extensions>
          <ns3:TrackPointExtension>
            <ns3:hr>148</ns3:hr>
            <ns3:cad>87</ns3:cad>
          </ns3:TrackPointExtension>
        </extensions>
      </trkpt>
      <trkpt lat="47.5413546524941921234130859375" lon="11.0341772250831127166748046875">
        <ele>1517.4000244140625</ele>
        <time>2026-09-01T09:33:27.000Z</time>
        <extensions>
          <ns3:TrackPointExtension>
            <ns3:hr>148</ns3:hr>
            <ns3:cad>87</ns3:cad>
          </ns3:TrackPointExtension>
        </extensions>
      </trkpt>
      <trkpt lat="47.5413613580167293548583984375" lon="11.03414378128945827484130859375">
        <ele>1517.199951171875</ele>
        <time>2026-09-01T09:33:28.000Z</time>
        <extensions>
          <ns3:TrackPointExtension>
            <ns3:hr>148</ns3:hr>
            <ns3:cad>87</ns3:cad>
          </ns3:TrackPointExtension>
        </extensions>
      </trkpt>
      <trkpt lat="47.5413677282631397247314453125" lon="11.0341034643352031707763671875">
        <ele>1516.5999755859375</ele>
        <time>2026-09-01T09:33:29.000Z</time>
        <extensions>
          <ns3:TrackPointExtension>
            <ns3:hr>148</ns3:hr>
            <ns3:cad>87</ns3:cad>
          </ns3:TrackPointExtension>
        </extensions>
      </trkpt>
      <trkpt lat="47.54137434996664524078369140625" lon="11.0340674221515655517578125">
        <ele>1516.199951171875</ele>
        <time>2026-09-01T09:33:30.000Z</time>
        <extensions>
          <ns3:TrackPointExtension>
            <ns3:hr>147</ns3:hr>
            <ns3:cad>87</ns3:cad>
          </ns3:TrackPointExtension>
        </extensions>
      </trkpt>
      <trkpt lat="47.54137359559535980224609375" lon="11.03403179906308650970458984375">
        <ele>1515.5999755859375</ele>
        <time>2026-09-01T09:33:31.000Z</time>
        <extensions>
          <ns3:TrackPointExtension>
            <ns3:hr>147</ns3:hr>
            <ns3:cad>87</ns3:cad>
          </ns3:TrackPointExtension>
        </extensions>
      </trkpt>
      <trkpt lat="47.5413729250431060791015625" lon="11.03400765918195247650146484375">
        <ele>1515</ele>
        <time>2026-09-01T09:33:32.000Z</time>
        <extensions>
          <ns3:TrackPointExtension>
            <ns3:hr>146</ns3:hr>
            <ns3:cad>87</ns3:cad>
          </ns3:TrackPointExtension>
        </extensions>
      </trkpt>
      <trkpt lat="47.54137602634727954864501953125" lon="11.03396625258028507232666015625">
        <ele>1514.800048828125</ele>
        <time>2026-09-01T09:33:33.000Z</time>
        <extensions>
          <ns3:TrackPointExtension>
            <ns3:hr>145</ns3:hr>
            <ns3:cad>87</ns3:cad>
          </ns3:TrackPointExtension>
        </extensions>
      </trkpt>
      <trkpt lat="47.5413761101663112640380859375" lon="11.03393859229981899261474609375">
        <ele>1514.199951171875</ele>
        <time>2026-09-01T09:33:34.000Z</time>
        <extensions>
          <ns3:TrackPointExtension>
            <ns3:hr>143</ns3:hr>
            <ns3:cad>87</ns3:cad>
          </ns3:TrackPointExtension>
        </extensions>
      </trkpt>
      <trkpt lat="47.54137518815696239471435546875" lon="11.03391512297093868255615234375">
        <ele>1513.800048828125</ele>
        <time>2026-09-01T09:33:35.000Z</time>
        <extensions>
          <ns3:TrackPointExtension>
            <ns3:hr>142</ns3:hr>
            <ns3:cad>87</ns3:cad>
          </ns3:TrackPointExtension>
        </extensions>
      </trkpt>
      <trkpt lat="47.54136647097766399383544921875" lon="11.03387254290282726287841796875">
        <ele>1513.199951171875</ele>
        <time>2026-09-01T09:33:36.000Z</time>
        <extensions>
          <ns3:TrackPointExtension>
            <ns3:hr>140</ns3:hr>
            <ns3:cad>87</ns3:cad>
          </ns3:TrackPointExtension>
        </extensions>
      </trkpt>
      <trkpt lat="47.54136412404477596282958984375" lon="11.033826358616352081298828125">
        <ele>1512.800048828125</ele>
        <time>2026-09-01T09:33:37.000Z</time>
        <extensions>
          <ns3:TrackPointExtension>
            <ns3:hr>139</ns3:hr>
            <ns3:cad>87</ns3:cad>
          </ns3:TrackPointExtension>
        </extensions>
      </trkpt>
      <trkpt lat="47.5413647107779979705810546875" lon="11.033785454928874969482421875">
        <ele>1511.800048828125</ele>
        <time>2026-09-01T09:33:38.000Z</time>
        <extensions>
          <ns3:TrackPointExtension>
            <ns3:hr>138</ns3:hr>
            <ns3:cad>87</ns3:cad>
          </ns3:TrackPointExtension>
        </extensions>
      </trkpt>
      <trkpt lat="47.541364543139934539794921875" lon="11.03375427424907684326171875">
        <ele>1511</ele>
        <time>2026-09-01T09:33:39.000Z</time>
        <extensions>
          <ns3:TrackPointExtension>
            <ns3:hr>137</ns3:hr>
            <ns3:cad>79</ns3:cad>
          </ns3:TrackPointExtension>
        </extensions>
      </trkpt>
      <trkpt lat="47.541363537311553955078125" lon="11.033719070255756378173828125">
        <ele>1510.5999755859375</ele>
        <time>2026-09-01T09:33:40.000Z</time>
        <extensions>
          <ns3:TrackPointExtension>
            <ns3:hr>137</ns3:hr>
            <ns3:cad>79</ns3:cad>
          </ns3:TrackPointExtension>
        </extensions>
      </trkpt>
      <trkpt lat="47.5413648784160614013671875" lon="11.03368646465241909027099609375">
        <ele>1510.199951171875</ele>
        <time>2026-09-01T09:33:41.000Z</time>
        <extensions>
          <ns3:TrackPointExtension>
            <ns3:hr>136</ns3:hr>
            <ns3:cad>79</ns3:cad>
          </ns3:TrackPointExtension>
        </extensions>
      </trkpt>
      <trkpt lat="47.541369907557964324951171875" lon="11.03364153765141963958740234375">
        <ele>1510</ele>
        <time>2026-09-01T09:33:42.000Z</time>
        <extensions>
          <ns3:TrackPointExtension>
            <ns3:hr>136</ns3:hr>
            <ns3:cad>79</ns3:cad>
          </ns3:TrackPointExtension>
        </extensions>
      </trkpt>
      <trkpt lat="47.5413756072521209716796875" lon="11.03360029868781566619873046875">
        <ele>1509.5999755859375</ele>
        <time>2026-09-01T09:33:43.000Z</time>
        <extensions>
          <ns3:TrackPointExtension>
            <ns3:hr>136</ns3:hr>
            <ns3:cad>79</ns3:cad>
          </ns3:TrackPointExtension>
        </extensions>
      </trkpt>
      <trkpt lat="47.54138407297432422637939453125" lon="11.03355872444808483123779296875">
        <ele>1509.199951171875</ele>
        <time>2026-09-01T09:33:44.000Z</time>
        <extensions>
          <ns3:TrackPointExtension>
            <ns3:hr>137</ns3:hr>
            <ns3:cad>85</ns3:cad>
          </ns3:TrackPointExtension>
        </extensions>
      </trkpt>
      <trkpt lat="47.54140435717999935150146484375" lon="11.033519245684146881103515625">
        <ele>1508.4000244140625</ele>
        <time>2026-09-01T09:33:45.000Z</time>
        <extensions>
          <ns3:TrackPointExtension>
            <ns3:hr>137</ns3:hr>
            <ns3:cad>85</ns3:cad>
          </ns3:TrackPointExtension>
        </extensions>
      </trkpt>
      <trkpt lat="47.54141089506447315216064453125" lon="11.0334919206798076629638671875">
        <ele>1508.199951171875</ele>
        <time>2026-09-01T09:33:46.000Z</time>
        <extensions>
          <ns3:TrackPointExtension>
            <ns3:hr>137</ns3:hr>
            <ns3:cad>86</ns3:cad>
          </ns3:TrackPointExtension>
        </extensions>
      </trkpt>
      <trkpt lat="47.5414183549582958221435546875" lon="11.03344313800334930419921875">
        <ele>1508.199951171875</ele>
        <time>2026-09-01T09:33:47.000Z</time>
        <extensions>
          <ns3:TrackPointExtension>
            <ns3:hr>137</ns3:hr>
            <ns3:cad>86</ns3:cad>
          </ns3:TrackPointExtension>
        </extensions>
      </trkpt>
      <trkpt lat="47.54142296500504016876220703125" lon="11.03340902365744113922119140625">
        <ele>1508.199951171875</ele>
        <time>2026-09-01T09:33:48.000Z</time>
        <extensions>
          <ns3:TrackPointExtension>
            <ns3:hr>137</ns3:hr>
            <ns3:cad>86</ns3:cad>
          </ns3:TrackPointExtension>
        </extensions>
      </trkpt>
      <trkpt lat="47.541417181491851806640625" lon="11.033371724188327789306640625">
        <ele>1508.4000244140625</ele>
        <time>2026-09-01T09:33:49.000Z</time>
        <extensions>
          <ns3:TrackPointExtension>
            <ns3:hr>137</ns3:hr>
            <ns3:cad>84</ns3:cad>
          </ns3:TrackPointExtension>
        </extensions>
      </trkpt>
      <trkpt lat="47.5414022617042064666748046875" lon="11.03332688100636005401611328125">
        <ele>1508.4000244140625</ele>
        <time>2026-09-01T09:33:50.000Z</time>
        <extensions>
          <ns3:TrackPointExtension>
            <ns3:hr>137</ns3:hr>
            <ns3:cad>84</ns3:cad>
          </ns3:TrackPointExtension>
        </extensions>
      </trkpt>
      <trkpt lat="47.54138960503041744232177734375" lon="11.03329469449818134307861328125">
        <ele>1508.4000244140625</ele>
        <time>2026-09-01T09:33:51.000Z</time>
        <extensions>
          <ns3:TrackPointExtension>
            <ns3:hr>138</ns3:hr>
            <ns3:cad>84</ns3:cad>
          </ns3:TrackPointExtension>
        </extensions>
      </trkpt>
      <trkpt lat="47.54137300886213779449462890625" lon="11.0332622565329074859619140625">
        <ele>1508.199951171875</ele>
        <time>2026-09-01T09:33:52.000Z</time>
        <extensions>
          <ns3:TrackPointExtension>
            <ns3:hr>138</ns3:hr>
            <ns3:cad>78</ns3:cad>
          </ns3:TrackPointExtension>
        </extensions>
      </trkpt>
      <trkpt lat="47.541352473199367523193359375" lon="11.03323929011821746826171875">
        <ele>1508.199951171875</ele>
        <time>2026-09-01T09:33:53.000Z</time>
        <extensions>
          <ns3:TrackPointExtension>
            <ns3:hr>138</ns3:hr>
            <ns3:cad>78</ns3:cad>
          </ns3:TrackPointExtension>
        </extensions>
      </trkpt>
      <trkpt lat="47.5413388945162296295166015625" lon="11.03322696872055530548095703125">
        <ele>1508</ele>
        <time>2026-09-01T09:33:54.000Z</time>
        <extensions>
          <ns3:TrackPointExtension>
            <ns3:hr>138</ns3:hr>
            <ns3:cad>78</ns3:cad>
          </ns3:TrackPointExtension>
        </extensions>
      </trkpt>
      <trkpt lat="47.54133143462240695953369140625" lon="11.0332243703305721282958984375">
        <ele>1507.800048828125</ele>
        <time>2026-09-01T09:33:55.000Z</time>
        <extensions>
          <ns3:TrackPointExtension>
            <ns3:hr>137</ns3:hr>
            <ns3:cad>78</ns3:cad>
          </ns3:TrackPointExtension>
        </extensions>
      </trkpt>
      <trkpt lat="47.54133126698434352874755859375" lon="11.03323350660502910614013671875">
        <ele>1507.800048828125</ele>
        <time>2026-09-01T09:33:56.000Z</time>
        <extensions>
          <ns3:TrackPointExtension>
            <ns3:hr>133</ns3:hr>
            <ns3:cad>75</ns3:cad>
          </ns3:TrackPointExtension>
        </extensions>
      </trkpt>
      <trkpt lat="47.541318945586681365966796875" lon="11.03322923183441162109375">
        <ele>1507.800048828125</ele>
        <time>2026-09-01T09:33:57.000Z</time>
        <extensions>
          <ns3:TrackPointExtension>
            <ns3:hr>130</ns3:hr>
            <ns3:cad>75</ns3:cad>
          </ns3:TrackPointExtension>
        </extensions>
      </trkpt>
      <trkpt lat="47.541312910616397857666015625" lon="11.03322730399668216705322265625">
        <ele>1507.5999755859375</ele>
        <time>2026-09-01T09:33:58.000Z</time>
        <extensions>
          <ns3:TrackPointExtension>
            <ns3:hr>129</ns3:hr>
            <ns3:cad>75</ns3:cad>
          </ns3:TrackPointExtension>
        </extensions>
      </trkpt>
      <trkpt lat="47.54131383262574672698974609375" lon="11.03324306197464466094970703125">
        <ele>1507.5999755859375</ele>
        <time>2026-09-01T09:33:59.000Z</time>
        <extensions>
          <ns3:TrackPointExtension>
            <ns3:hr>128</ns3:hr>
            <ns3:cad>57</ns3:cad>
          </ns3:TrackPointExtension>
        </extensions>
      </trkpt>
      <trkpt lat="47.5413107313215732574462890625" lon="11.03322948329150676727294921875">
        <ele>1507.4000244140625</ele>
        <time>2026-09-01T09:34:00.000Z</time>
        <extensions>
          <ns3:TrackPointExtension>
            <ns3:hr>128</ns3:hr>
            <ns3:cad>53</ns3:cad>
          </ns3:TrackPointExtension>
        </extensions>
      </trkpt>
      <trkpt lat="47.541325986385345458984375" lon="11.03323836810886859893798828125">
        <ele>1507.4000244140625</ele>
        <time>2026-09-01T09:34:01.000Z</time>
        <extensions>
          <ns3:TrackPointExtension>
            <ns3:hr>127</ns3:hr>
            <ns3:cad>0</ns3:cad>
          </ns3:TrackPointExtension>
        </extensions>
      </trkpt>
      <trkpt lat="47.54133428446948528289794921875" lon="11.03324239142239093780517578125">
        <ele>1507.5999755859375</ele>
        <time>2026-09-01T09:34:02.000Z</time>
        <extensions>
          <ns3:TrackPointExtension>
            <ns3:hr>126</ns3:hr>
            <ns3:cad>0</ns3:cad>
          </ns3:TrackPointExtension>
        </extensions>
      </trkpt>
      <trkpt lat="47.5413523055613040924072265625" lon="11.0332421399652957916259765625">
        <ele>1507.5999755859375</ele>
        <time>2026-09-01T09:34:03.000Z</time>
        <extensions>
          <ns3:TrackPointExtension>
            <ns3:hr>126</ns3:hr>
            <ns3:cad>0</ns3:cad>
          </ns3:TrackPointExtension>
        </extensions>
      </trkpt>
      <trkpt lat="47.54135775379836559295654296875" lon="11.03322965092957019805908203125">
        <ele>1507.800048828125</ele>
        <time>2026-09-01T09:34:04.000Z</time>
        <extensions>
          <ns3:TrackPointExtension>
            <ns3:hr>126</ns3:hr>
            <ns3:cad>0</ns3:cad>
          </ns3:TrackPointExtension>
        </extensions>
      </trkpt>
      <trkpt lat="47.54136412404477596282958984375" lon="11.03321657516062259674072265625">
        <ele>1507.800048828125</ele>
        <time>2026-09-01T09:34:05.000Z</time>
        <extensions>
          <ns3:TrackPointExtension>
            <ns3:hr>125</ns3:hr>
            <ns3:cad>0</ns3:cad>
          </ns3:TrackPointExtension>
        </extensions>
      </trkpt>
      <trkpt lat="47.54136613570153713226318359375" lon="11.03320132009685039520263671875">
        <ele>1507.800048828125</ele>
        <time>2026-09-01T09:34:06.000Z</time>
        <extensions>
          <ns3:TrackPointExtension>
            <ns3:hr>125</ns3:hr>
            <ns3:cad>0</ns3:cad>
          </ns3:TrackPointExtension>
        </extensions>
      </trkpt>
      <trkpt lat="47.54136613570153713226318359375" lon="11.03318304754793643951416015625">
        <ele>1507.5999755859375</ele>
        <time>2026-09-01T09:34:07.000Z</time>
        <extensions>
          <ns3:TrackPointExtension>
            <ns3:hr>125</ns3:hr>
            <ns3:cad>64</ns3:cad>
          </ns3:TrackPointExtension>
        </extensions>
      </trkpt>
      <trkpt lat="47.5413687340915203094482421875" lon="11.0331630147993564605712890625">
        <ele>1507.5999755859375</ele>
        <time>2026-09-01T09:34:08.000Z</time>
        <extensions>
          <ns3:TrackPointExtension>
            <ns3:hr>125</ns3:hr>
            <ns3:cad>65</ns3:cad>
          </ns3:TrackPointExtension>
        </extensions>
      </trkpt>
      <trkpt lat="47.5413710810244083404541015625" lon="11.0331331752240657806396484375">
        <ele>1507.4000244140625</ele>
        <time>2026-09-01T09:34:09.000Z</time>
        <extensions>
          <ns3:TrackPointExtension>
            <ns3:hr>125</ns3:hr>
            <ns3:cad>64</ns3:cad>
          </ns3:TrackPointExtension>
        </extensions>
      </trkpt>
      <trkpt lat="47.5413714163005352020263671875" lon="11.0331009887158870697021484375">
        <ele>1507.199951171875</ele>
        <time>2026-09-01T09:34:10.000Z</time>
        <extensions>
          <ns3:TrackPointExtension>
            <ns3:hr>124</ns3:hr>
            <ns3:cad>64</ns3:cad>
          </ns3:TrackPointExtension>
        </extensions>
      </trkpt>
      <trkpt lat="47.54137133248150348663330078125" lon="11.0330669581890106201171875">
        <ele>1506.800048828125</ele>
        <time>2026-09-01T09:34:11.000Z</time>
        <extensions>
          <ns3:TrackPointExtension>
            <ns3:hr>124</ns3:hr>
            <ns3:cad>64</ns3:cad>
          </ns3:TrackPointExtension>
        </extensions>
      </trkpt>
      <trkpt lat="47.541374601423740386962890625" lon="11.0330349393188953399658203125">
        <ele>1506.4000244140625</ele>
        <time>2026-09-01T09:34:12.000Z</time>
        <extensions>
          <ns3:TrackPointExtension>
            <ns3:hr>123</ns3:hr>
            <ns3:cad>64</ns3:cad>
          </ns3:TrackPointExtension>
        </extensions>
      </trkpt>
      <trkpt lat="47.541374601423740386962890625" lon="11.0329913534224033355712890625">
        <ele>1506.199951171875</ele>
        <time>2026-09-01T09:34:13.000Z</time>
        <extensions>
          <ns3:TrackPointExtension>
            <ns3:hr>123</ns3:hr>
            <ns3:cad>64</ns3:cad>
          </ns3:TrackPointExtension>
        </extensions>
      </trkpt>
      <trkpt lat="47.541378624737262725830078125" lon="11.0329584963619709014892578125">
        <ele>1505.5999755859375</ele>
        <time>2026-09-01T09:34:14.000Z</time>
        <extensions>
          <ns3:TrackPointExtension>
            <ns3:hr>123</ns3:hr>
            <ns3:cad>86</ns3:cad>
          </ns3:TrackPointExtension>
        </extensions>
      </trkpt>
      <trkpt lat="47.5413865037262439727783203125" lon="11.0329316742718219757080078125">
        <ele>1505.199951171875</ele>
        <time>2026-09-01T09:34:15.000Z</time>
        <extensions>
          <ns3:TrackPointExtension>
            <ns3:hr>122</ns3:hr>
            <ns3:cad>86</ns3:cad>
          </ns3:TrackPointExtension>
        </extensions>
      </trkpt>
      <trkpt lat="47.54139396362006664276123046875" lon="11.03290577419102191925048828125">
        <ele>1504.5999755859375</ele>
        <time>2026-09-01T09:34:16.000Z</time>
        <extensions>
          <ns3:TrackPointExtension>
            <ns3:hr>122</ns3:hr>
            <ns3:cad>86</ns3:cad>
          </ns3:TrackPointExtension>
        </extensions>
      </trkpt>
      <trkpt lat="47.54141760058701038360595703125" lon="11.03287207894027233123779296875">
        <ele>1504.199951171875</ele>
        <time>2026-09-01T09:34:17.000Z</time>
        <extensions>
          <ns3:TrackPointExtension>
            <ns3:hr>121</ns3:hr>
            <ns3:cad>86</ns3:cad>
          </ns3:TrackPointExtension>
        </extensions>
      </trkpt>
      <trkpt lat="47.54142321646213531494140625" lon="11.03283293545246124267578125">
        <ele>1503.5999755859375</ele>
        <time>2026-09-01T09:34:18.000Z</time>
        <extensions>
          <ns3:TrackPointExtension>
            <ns3:hr>120</ns3:hr>
            <ns3:cad>86</ns3:cad>
          </ns3:TrackPointExtension>
        </extensions>
      </trkpt>
      <trkpt lat="47.54143260419368743896484375" lon="11.03279077447950839996337890625">
        <ele>1503.199951171875</ele>
        <time>2026-09-01T09:34:19.000Z</time>
        <extensions>
          <ns3:TrackPointExtension>
            <ns3:hr>119</ns3:hr>
            <ns3:cad>85</ns3:cad>
          </ns3:TrackPointExtension>
        </extensions>
      </trkpt>
      <trkpt lat="47.54143637605011463165283203125" lon="11.03274953551590442657470703125">
        <ele>1502.5999755859375</ele>
        <time>2026-09-01T09:34:20.000Z</time>
        <extensions>
          <ns3:TrackPointExtension>
            <ns3:hr>119</ns3:hr>
            <ns3:cad>85</ns3:cad>
          </ns3:TrackPointExtension>
        </extensions>
      </trkpt>
      <trkpt lat="47.54143134690821170806884765625" lon="11.03270821273326873779296875">
        <ele>1502</ele>
        <time>2026-09-01T09:34:21.000Z</time>
        <extensions>
          <ns3:TrackPointExtension>
            <ns3:hr>118</ns3:hr>
            <ns3:cad>85</ns3:cad>
          </ns3:TrackPointExtension>
        </extensions>
      </trkpt>
      <trkpt lat="47.54141039215028285980224609375" lon="11.032670997083187103271484375">
        <ele>1501.5999755859375</ele>
        <time>2026-09-01T09:34:22.000Z</time>
        <extensions>
          <ns3:TrackPointExtension>
            <ns3:hr>118</ns3:hr>
            <ns3:cad>85</ns3:cad>
          </ns3:TrackPointExtension>
        </extensions>
      </trkpt>
      <trkpt lat="47.54140268079936504364013671875" lon="11.0326366312801837921142578125">
        <ele>1501.199951171875</ele>
        <time>2026-09-01T09:34:23.000Z</time>
        <extensions>
          <ns3:TrackPointExtension>
            <ns3:hr>119</ns3:hr>
            <ns3:cad>85</ns3:cad>
          </ns3:TrackPointExtension>
        </extensions>
      </trkpt>
      <trkpt lat="47.54139279015362262725830078125" lon="11.03260360658168792724609375">
        <ele>1500.5999755859375</ele>
        <time>2026-09-01T09:34:24.000Z</time>
        <extensions>
          <ns3:TrackPointExtension>
            <ns3:hr>119</ns3:hr>
            <ns3:cad>83</ns3:cad>
          </ns3:TrackPointExtension>
        </extensions>
      </trkpt>
      <trkpt lat="47.541388012468814849853515625" lon="11.03258642368018627166748046875">
        <ele>1499.800048828125</ele>
        <time>2026-09-01T09:34:25.000Z</time>
        <extensions>
          <ns3:TrackPointExtension>
            <ns3:hr>119</ns3:hr>
            <ns3:cad>83</ns3:cad>
          </ns3:TrackPointExtension>
        </extensions>
      </trkpt>
      <trkpt lat="47.54138206131756305694580078125" lon="11.03256815113127231597900390625">
        <ele>1499.199951171875</ele>
        <time>2026-09-01T09:34:26.000Z</time>
        <extensions>
          <ns3:TrackPointExtension>
            <ns3:hr>120</ns3:hr>
            <ns3:cad>83</ns3:cad>
          </ns3:TrackPointExtension>
        </extensions>
      </trkpt>
      <trkpt lat="47.5413683988153934478759765625" lon="11.03254803456366062164306640625">
        <ele>1498.5999755859375</ele>
        <time>2026-09-01T09:34:27.000Z</time>
        <extensions>
          <ns3:TrackPointExtension>
            <ns3:hr>120</ns3:hr>
            <ns3:cad>83</ns3:cad>
          </ns3:TrackPointExtension>
        </extensions>
      </trkpt>
      <trkpt lat="47.54136152565479278564453125" lon="11.03252448141574859619140625">
        <ele>1498</ele>
        <time>2026-09-01T09:34:28.000Z</time>
        <extensions>
          <ns3:TrackPointExtension>
            <ns3:hr>120</ns3:hr>
            <ns3:cad>83</ns3:cad>
          </ns3:TrackPointExtension>
        </extensions>
      </trkpt>
      <trkpt lat="47.5413487851619720458984375" lon="11.0325075499713420867919921875">
        <ele>1497.5999755859375</ele>
        <time>2026-09-01T09:34:29.000Z</time>
        <extensions>
          <ns3:TrackPointExtension>
            <ns3:hr>121</ns3:hr>
            <ns3:cad>83</ns3:cad>
          </ns3:TrackPointExtension>
        </extensions>
      </trkpt>
      <trkpt lat="47.54133294336497783660888671875" lon="11.03249724023044109344482421875">
        <ele>1497</ele>
        <time>2026-09-01T09:34:30.000Z</time>
        <extensions>
          <ns3:TrackPointExtension>
            <ns3:hr>121</ns3:hr>
            <ns3:cad>83</ns3:cad>
          </ns3:TrackPointExtension>
        </extensions>
      </trkpt>
      <trkpt lat="47.54131936468183994293212890625" lon="11.032488606870174407958984375">
        <ele>1496.4000244140625</ele>
        <time>2026-09-01T09:34:31.000Z</time>
        <extensions>
          <ns3:TrackPointExtension>
            <ns3:hr>121</ns3:hr>
            <ns3:cad>83</ns3:cad>
          </ns3:TrackPointExtension>
        </extensions>
      </trkpt>
      <trkpt lat="47.5413060374557971954345703125" lon="11.0324834100902080535888671875">
        <ele>1496.199951171875</ele>
        <time>2026-09-01T09:34:32.000Z</time>
        <extensions>
          <ns3:TrackPointExtension>
            <ns3:hr>121</ns3:hr>
            <ns3:cad>83</ns3:cad>
          </ns3:TrackPointExtension>
        </extensions>
      </trkpt>
      <trkpt lat="47.541295476257801055908203125" lon="11.0324585996568202972412109375">
        <ele>1495.4000244140625</ele>
        <time>2026-09-01T09:34:33.000Z</time>
        <extensions>
          <ns3:TrackPointExtension>
            <ns3:hr>121</ns3:hr>
            <ns3:cad>83</ns3:cad>
          </ns3:TrackPointExtension>
        </extensions>
      </trkpt>
      <trkpt lat="47.5412875972688198089599609375" lon="11.0324371419847011566162109375">
        <ele>1494.800048828125</ele>
        <time>2026-09-01T09:34:34.000Z</time>
        <extensions>
          <ns3:TrackPointExtension>
            <ns3:hr>120</ns3:hr>
            <ns3:cad>83</ns3:cad>
          </ns3:TrackPointExtension>
        </extensions>
      </trkpt>
      <trkpt lat="47.54127879627048969268798828125" lon="11.03241425938904285430908203125">
        <ele>1494.4000244140625</ele>
        <time>2026-09-01T09:34:35.000Z</time>
        <extensions>
          <ns3:TrackPointExtension>
            <ns3:hr>119</ns3:hr>
            <ns3:cad>83</ns3:cad>
          </ns3:TrackPointExtension>
        </extensions>
      </trkpt>
      <trkpt lat="47.541274689137935638427734375" lon="11.03239833377301692962646484375">
        <ele>1494</ele>
        <time>2026-09-01T09:34:36.000Z</time>
        <extensions>
          <ns3:TrackPointExtension>
            <ns3:hr>118</ns3:hr>
            <ns3:cad>83</ns3:cad>
          </ns3:TrackPointExtension>
        </extensions>
      </trkpt>
      <trkpt lat="47.5412681512534618377685546875" lon="11.03238928131759166717529296875">
        <ele>1493.5999755859375</ele>
        <time>2026-09-01T09:34:37.000Z</time>
        <extensions>
          <ns3:TrackPointExtension>
            <ns3:hr>118</ns3:hr>
            <ns3:cad>83</ns3:cad>
          </ns3:TrackPointExtension>
        </extensions>
      </trkpt>
      <trkpt lat="47.54126362502574920654296875" lon="11.032382659614086151123046875">
        <ele>1493</ele>
        <time>2026-09-01T09:34:38.000Z</time>
        <extensions>
          <ns3:TrackPointExtension>
            <ns3:hr>117</ns3:hr>
            <ns3:cad>0</ns3:cad>
          </ns3:TrackPointExtension>
        </extensions>
      </trkpt>
      <trkpt lat="47.541259936988353729248046875" lon="11.0323596931993961334228515625">
        <ele>1492.4000244140625</ele>
        <time>2026-09-01T09:34:39.000Z</time>
        <extensions>
          <ns3:TrackPointExtension>
            <ns3:hr>116</ns3:hr>
            <ns3:cad>0</ns3:cad>
          </ns3:TrackPointExtension>
        </extensions>
      </trkpt>
      <trkpt lat="47.54125197418034076690673828125" lon="11.0323519818484783172607421875">
        <ele>1492</ele>
        <time>2026-09-01T09:34:40.000Z</time>
        <extensions>
          <ns3:TrackPointExtension>
            <ns3:hr>117</ns3:hr>
            <ns3:cad>0</ns3:cad>
          </ns3:TrackPointExtension>
        </extensions>
      </trkpt>
      <trkpt lat="47.541245184838771820068359375" lon="11.03233412839472293853759765625">
        <ele>1491.4000244140625</ele>
        <time>2026-09-01T09:34:41.000Z</time>
        <extensions>
          <ns3:TrackPointExtension>
            <ns3:hr>116</ns3:hr>
            <ns3:cad>0</ns3:cad>
          </ns3:TrackPointExtension>
        </extensions>
      </trkpt>
      <trkpt lat="47.54123789258301258087158203125" lon="11.03231987915933132171630859375">
        <ele>1490.5999755859375</ele>
        <time>2026-09-01T09:34:42.000Z</time>
        <extensions>
          <ns3:TrackPointExtension>
            <ns3:hr>116</ns3:hr>
            <ns3:cad>0</ns3:cad>
          </ns3:TrackPointExtension>
        </extensions>
      </trkpt>
      <trkpt lat="47.54123303107917308807373046875" lon="11.03231317363679409027099609375">
        <ele>1490</ele>
        <time>2026-09-01T09:34:43.000Z</time>
        <extensions>
          <ns3:TrackPointExtension>
            <ns3:hr>116</ns3:hr>
            <ns3:cad>0</ns3:cad>
          </ns3:TrackPointExtension>
        </extensions>
      </trkpt>
      <trkpt lat="47.54122582264244556427001953125" lon="11.032298170030117034912109375">
        <ele>1489.4000244140625</ele>
        <time>2026-09-01T09:34:44.000Z</time>
        <extensions>
          <ns3:TrackPointExtension>
            <ns3:hr>116</ns3:hr>
            <ns3:cad>0</ns3:cad>
          </ns3:TrackPointExtension>
        </extensions>
      </trkpt>
      <trkpt lat="47.54121643491089344024658203125" lon="11.032282747328281402587890625">
        <ele>1488.5999755859375</ele>
        <time>2026-09-01T09:34:45.000Z</time>
        <extensions>
          <ns3:TrackPointExtension>
            <ns3:hr>116</ns3:hr>
            <ns3:cad>0</ns3:cad>
          </ns3:TrackPointExtension>
        </extensions>
      </trkpt>
      <trkpt lat="47.54120704717934131622314453125" lon="11.032263971865177154541015625">
        <ele>1488</ele>
        <time>2026-09-01T09:34:46.000Z</time>
        <extensions>
          <ns3:TrackPointExtension>
            <ns3:hr>115</ns3:hr>
            <ns3:cad>0</ns3:cad>
          </ns3:TrackPointExtension>
        </extensions>
      </trkpt>
      <trkpt lat="47.54119061864912509918212890625" lon="11.03224259801208972930908203125">
        <ele>1487</ele>
        <time>2026-09-01T09:34:47.000Z</time>
        <extensions>
          <ns3:TrackPointExtension>
            <ns3:hr>115</ns3:hr>
            <ns3:cad>0</ns3:cad>
          </ns3:TrackPointExtension>
        </extensions>
      </trkpt>
      <trkpt lat="47.54117603413760662078857421875" lon="11.0322249121963977813720703125">
        <ele>1486</ele>
        <time>2026-09-01T09:34:48.000Z</time>
        <extensions>
          <ns3:TrackPointExtension>
            <ns3:hr>115</ns3:hr>
            <ns3:cad>0</ns3:cad>
          </ns3:TrackPointExtension>
        </extensions>
      </trkpt>
      <trkpt lat="47.54117050208151340484619140625" lon="11.03221192024648189544677734375">
        <ele>1485.199951171875</ele>
        <time>2026-09-01T09:34:49.000Z</time>
        <extensions>
          <ns3:TrackPointExtension>
            <ns3:hr>115</ns3:hr>
            <ns3:cad>0</ns3:cad>
          </ns3:TrackPointExtension>
        </extensions>
      </trkpt>
      <trkpt lat="47.54117217846214771270751953125" lon="11.03219297714531421661376953125">
        <ele>1484.4000244140625</ele>
        <time>2026-09-01T09:34:50.000Z</time>
        <extensions>
          <ns3:TrackPointExtension>
            <ns3:hr>114</ns3:hr>
            <ns3:cad>0</ns3:cad>
          </ns3:TrackPointExtension>
        </extensions>
      </trkpt>
      <trkpt lat="47.54117251373827457427978515625" lon="11.03217235766351222991943359375">
        <ele>1483.800048828125</ele>
        <time>2026-09-01T09:34:51.000Z</time>
        <extensions>
          <ns3:TrackPointExtension>
            <ns3:hr>114</ns3:hr>
            <ns3:cad>0</ns3:cad>
          </ns3:TrackPointExtension>
        </extensions>
      </trkpt>
      <trkpt lat="47.54117603413760662078857421875" lon="11.03216732852160930633544921875">
        <ele>1483.199951171875</ele>
        <time>2026-09-01T09:34:52.000Z</time>
        <extensions>
          <ns3:TrackPointExtension>
            <ns3:hr>113</ns3:hr>
            <ns3:cad>0</ns3:cad>
          </ns3:TrackPointExtension>
        </extensions>
      </trkpt>
      <trkpt lat="47.541181482374668121337890625" lon="11.0321509838104248046875">
        <ele>1482.5999755859375</ele>
        <time>2026-09-01T09:34:53.000Z</time>
        <extensions>
          <ns3:TrackPointExtension>
            <ns3:hr>113</ns3:hr>
            <ns3:cad>0</ns3:cad>
          </ns3:TrackPointExtension>
        </extensions>
      </trkpt>
      <trkpt lat="47.54118659533560276031494140625" lon="11.032135225832462310791015625">
        <ele>1482</ele>
        <time>2026-09-01T09:34:54.000Z</time>
        <extensions>
          <ns3:TrackPointExtension>
            <ns3:hr>112</ns3:hr>
            <ns3:cad>0</ns3:cad>
          </ns3:TrackPointExtension>
        </extensions>
      </trkpt>
      <trkpt lat="47.54118726588785648345947265625" lon="11.03212038986384868621826171875">
        <ele>1481.4000244140625</ele>
        <time>2026-09-01T09:34:55.000Z</time>
        <extensions>
          <ns3:TrackPointExtension>
            <ns3:hr>112</ns3:hr>
            <ns3:cad>0</ns3:cad>
          </ns3:TrackPointExtension>
        </extensions>
      </trkpt>
      <trkpt lat="47.54118022508919239044189453125" lon="11.03210882283747196197509765625">
        <ele>1480.5999755859375</ele>
        <time>2026-09-01T09:34:56.000Z</time>
        <extensions>
          <ns3:TrackPointExtension>
            <ns3:hr>111</ns3:hr>
            <ns3:cad>0</ns3:cad>
          </ns3:TrackPointExtension>
        </extensions>
      </trkpt>
      <trkpt lat="47.5411699153482913970947265625" lon="11.0320965014398097991943359375">
        <ele>1479.800048828125</ele>
        <time>2026-09-01T09:34:57.000Z</time>
        <extensions>
          <ns3:TrackPointExtension>
            <ns3:hr>111</ns3:hr>
            <ns3:cad>0</ns3:cad>
          </ns3:TrackPointExtension>
        </extensions>
      </trkpt>
      <trkpt lat="47.5411628745496273040771484375" lon="11.03208401240408420562744140625">
        <ele>1479</ele>
        <time>2026-09-01T09:34:58.000Z</time>
        <extensions>
          <ns3:TrackPointExtension>
            <ns3:hr>110</ns3:hr>
            <ns3:cad>0</ns3:cad>
          </ns3:TrackPointExtension>
        </extensions>
      </trkpt>
      <trkpt lat="47.5411570072174072265625" lon="11.03206054307520389556884765625">
        <ele>1478.199951171875</ele>
        <time>2026-09-01T09:34:59.000Z</time>
        <extensions>
          <ns3:TrackPointExtension>
            <ns3:hr>110</ns3:hr>
            <ns3:cad>0</ns3:cad>
          </ns3:TrackPointExtension>
        </extensions>
      </trkpt>
      <trkpt lat="47.54115189425647258758544921875" lon="11.032046042382717132568359375">
        <ele>1477.5999755859375</ele>
        <time>2026-09-01T09:35:00.000Z</time>
        <extensions>
          <ns3:TrackPointExtension>
            <ns3:hr>110</ns3:hr>
            <ns3:cad>0</ns3:cad>
          </ns3:TrackPointExtension>
        </extensions>
      </trkpt>
      <trkpt lat="47.54113965667784214019775390625" lon="11.0320244170725345611572265625">
        <ele>1477.199951171875</ele>
        <time>2026-09-01T09:35:01.000Z</time>
        <extensions>
          <ns3:TrackPointExtension>
            <ns3:hr>110</ns3:hr>
            <ns3:cad>0</ns3:cad>
          </ns3:TrackPointExtension>
        </extensions>
      </trkpt>
      <trkpt lat="47.5411342084407806396484375" lon="11.03200706653296947479248046875">
        <ele>1476.5999755859375</ele>
        <time>2026-09-01T09:35:02.000Z</time>
        <extensions>
          <ns3:TrackPointExtension>
            <ns3:hr>109</ns3:hr>
            <ns3:cad>0</ns3:cad>
          </ns3:TrackPointExtension>
        </extensions>
      </trkpt>
      <trkpt lat="47.5411330349743366241455078125" lon="11.0319975949823856353759765625">
        <ele>1476</ele>
        <time>2026-09-01T09:35:03.000Z</time>
        <extensions>
          <ns3:TrackPointExtension>
            <ns3:hr>109</ns3:hr>
            <ns3:cad>0</ns3:cad>
          </ns3:TrackPointExtension>
        </extensions>
      </trkpt>
      <trkpt lat="47.54113219678401947021484375" lon="11.0320019535720348358154296875">
        <ele>1475.5999755859375</ele>
        <time>2026-09-01T09:35:04.000Z</time>
        <extensions>
          <ns3:TrackPointExtension>
            <ns3:hr>109</ns3:hr>
            <ns3:cad>0</ns3:cad>
          </ns3:TrackPointExtension>
        </extensions>
      </trkpt>
      <trkpt lat="47.5411434285342693328857421875" lon="11.0319929011166095733642578125">
        <ele>1475.4000244140625</ele>
        <time>2026-09-01T09:35:05.000Z</time>
        <extensions>
          <ns3:TrackPointExtension>
            <ns3:hr>109</ns3:hr>
            <ns3:cad>0</ns3:cad>
          </ns3:TrackPointExtension>
        </extensions>
      </trkpt>
      <trkpt lat="47.541146613657474517822265625" lon="11.0319573618471622467041015625">
        <ele>1475.199951171875</ele>
        <time>2026-09-01T09:35:06.000Z</time>
        <extensions>
          <ns3:TrackPointExtension>
            <ns3:hr>109</ns3:hr>
            <ns3:cad>0</ns3:cad>
          </ns3:TrackPointExtension>
        </extensions>
      </trkpt>
      <trkpt lat="47.54114518873393535614013671875" lon="11.03194336406886577606201171875">
        <ele>1474.800048828125</ele>
        <time>2026-09-01T09:35:07.000Z</time>
        <extensions>
          <ns3:TrackPointExtension>
            <ns3:hr>109</ns3:hr>
            <ns3:cad>0</ns3:cad>
          </ns3:TrackPointExtension>
        </extensions>
      </trkpt>
      <trkpt lat="47.54114502109587192535400390625" lon="11.03193171322345733642578125">
        <ele>1474.4000244140625</ele>
        <time>2026-09-01T09:35:08.000Z</time>
        <extensions>
          <ns3:TrackPointExtension>
            <ns3:hr>109</ns3:hr>
            <ns3:cad>75</ns3:cad>
          </ns3:TrackPointExtension>
        </extensions>
      </trkpt>
      <trkpt lat="47.54113898612558841705322265625" lon="11.031930036842823028564453125">
        <ele>1473.5999755859375</ele>
        <time>2026-09-01T09:35:09.000Z</time>
        <extensions>
          <ns3:TrackPointExtension>
            <ns3:hr>109</ns3:hr>
            <ns3:cad>75</ns3:cad>
          </ns3:TrackPointExtension>
        </extensions>
      </trkpt>
      <trkpt lat="47.54115876741707324981689453125" lon="11.03192240931093692779541015625">
        <ele>1473</ele>
        <time>2026-09-01T09:35:10.000Z</time>
        <extensions>
          <ns3:TrackPointExtension>
            <ns3:hr>109</ns3:hr>
            <ns3:cad>0</ns3:cad>
          </ns3:TrackPointExtension>
        </extensions>
      </trkpt>
      <trkpt lat="47.541159354150295257568359375" lon="11.03191721253097057342529296875">
        <ele>1472.4000244140625</ele>
        <time>2026-09-01T09:35:11.000Z</time>
        <extensions>
          <ns3:TrackPointExtension>
            <ns3:hr>109</ns3:hr>
            <ns3:cad>0</ns3:cad>
          </ns3:TrackPointExtension>
        </extensions>
      </trkpt>
      <trkpt lat="47.54115633666515350341796875" lon="11.031901203095912933349609375">
        <ele>1471.800048828125</ele>
        <time>2026-09-01T09:35:12.000Z</time>
        <extensions>
          <ns3:TrackPointExtension>
            <ns3:hr>108</ns3:hr>
            <ns3:cad>0</ns3:cad>
          </ns3:TrackPointExtension>
        </extensions>
      </trkpt>
      <trkpt lat="47.54115055315196514129638671875" lon="11.03187630884349346160888671875">
        <ele>1471.199951171875</ele>
        <time>2026-09-01T09:35:13.000Z</time>
        <extensions>
          <ns3:TrackPointExtension>
            <ns3:hr>108</ns3:hr>
            <ns3:cad>0</ns3:cad>
          </ns3:TrackPointExtension>
        </extensions>
      </trkpt>
      <trkpt lat="47.54115055315196514129638671875" lon="11.03187630884349346160888671875">
        <ele>1470.4000244140625</ele>
        <time>2026-09-01T09:35:14.000Z</time>
        <extensions>
          <ns3:TrackPointExtension>
            <ns3:hr>108</ns3:hr>
            <ns3:cad>0</ns3:cad>
          </ns3:TrackPointExtension>
        </extensions>
      </trkpt>
      <trkpt lat="47.5411444343626499176025390625" lon="11.03185401298105716705322265625">
        <ele>1469.5999755859375</ele>
        <time>2026-09-01T09:35:15.000Z</time>
        <extensions>
          <ns3:TrackPointExtension>
            <ns3:hr>108</ns3:hr>
            <ns3:cad>0</ns3:cad>
          </ns3:TrackPointExtension>
        </extensions>
      </trkpt>
      <trkpt lat="47.541144602000713348388671875" lon="11.03184009902179241180419921875">
        <ele>1468.800048828125</ele>
        <time>2026-09-01T09:35:16.000Z</time>
        <extensions>
          <ns3:TrackPointExtension>
            <ns3:hr>107</ns3:hr>
            <ns3:cad>0</ns3:cad>
          </ns3:TrackPointExtension>
        </extensions>
      </trkpt>
      <trkpt lat="47.54113865084946155548095703125" lon="11.031826436519622802734375">
        <ele>1468.199951171875</ele>
        <time>2026-09-01T09:35:17.000Z</time>
        <extensions>
          <ns3:TrackPointExtension>
            <ns3:hr>107</ns3:hr>
            <ns3:cad>0</ns3:cad>
          </ns3:TrackPointExtension>
        </extensions>
      </trkpt>
      <trkpt lat="47.5411226414144039154052734375" lon="11.0318098403513431549072265625">
        <ele>1467.5999755859375</ele>
        <time>2026-09-01T09:35:18.000Z</time>
        <extensions>
          <ns3:TrackPointExtension>
            <ns3:hr>107</ns3:hr>
            <ns3:cad>0</ns3:cad>
          </ns3:TrackPointExtension>
        </extensions>
      </trkpt>
      <trkpt lat="47.54109799861907958984375" lon="11.031778156757354736328125">
        <ele>1467</ele>
        <time>2026-09-01T09:35:19.000Z</time>
        <extensions>
          <ns3:TrackPointExtension>
            <ns3:hr>108</ns3:hr>
            <ns3:cad>0</ns3:cad>
          </ns3:TrackPointExtension>
        </extensions>
      </trkpt>
      <trkpt lat="47.541052401065826416015625" lon="11.03175066411495208740234375">
        <ele>1466.4000244140625</ele>
        <time>2026-09-01T09:35:20.000Z</time>
        <extensions>
          <ns3:TrackPointExtension>
            <ns3:hr>108</ns3:hr>
            <ns3:cad>0</ns3:cad>
          </ns3:TrackPointExtension>
        </extensions>
      </trkpt>
      <trkpt lat="47.54103454761207103729248046875" lon="11.03173700161278247833251953125">
        <ele>1465.5999755859375</ele>
        <time>2026-09-01T09:35:21.000Z</time>
        <extensions>
          <ns3:TrackPointExtension>
            <ns3:hr>108</ns3:hr>
            <ns3:cad>0</ns3:cad>
          </ns3:TrackPointExtension>
        </extensions>
      </trkpt>
      <trkpt lat="47.5410153530538082122802734375" lon="11.03173331357538700103759765625">
        <ele>1464.800048828125</ele>
        <time>2026-09-01T09:35:22.000Z</time>
        <extensions>
          <ns3:TrackPointExtension>
            <ns3:hr>107</ns3:hr>
            <ns3:cad>0</ns3:cad>
          </ns3:TrackPointExtension>
        </extensions>
      </trkpt>
      <trkpt lat="47.54100420512259006500244140625" lon="11.03172292001545429229736328125">
        <ele>1464</ele>
        <time>2026-09-01T09:35:23.000Z</time>
        <extensions>
          <ns3:TrackPointExtension>
            <ns3:hr>108</ns3:hr>
            <ns3:cad>0</ns3:cad>
          </ns3:TrackPointExtension>
        </extensions>
      </trkpt>
      <trkpt lat="47.54097805358469486236572265625" lon="11.03170146234333515167236328125">
        <ele>1463.199951171875</ele>
        <time>2026-09-01T09:35:24.000Z</time>
        <extensions>
          <ns3:TrackPointExtension>
            <ns3:hr>108</ns3:hr>
            <ns3:cad>79</ns3:cad>
          </ns3:TrackPointExtension>
        </extensions>
      </trkpt>
      <trkpt lat="47.5409623794257640838623046875" lon="11.03170045651495456695556640625">
        <ele>1463</ele>
        <time>2026-09-01T09:35:25.000Z</time>
        <extensions>
          <ns3:TrackPointExtension>
            <ns3:hr>108</ns3:hr>
            <ns3:cad>79</ns3:cad>
          </ns3:TrackPointExtension>
        </extensions>
      </trkpt>
      <trkpt lat="47.540940754115581512451171875" lon="11.03168285451829433441162109375">
        <ele>1462.199951171875</ele>
        <time>2026-09-01T09:35:26.000Z</time>
        <extensions>
          <ns3:TrackPointExtension>
            <ns3:hr>107</ns3:hr>
            <ns3:cad>79</ns3:cad>
          </ns3:TrackPointExtension>
        </extensions>
      </trkpt>
      <trkpt lat="47.54092759452760219573974609375" lon="11.031672544777393341064453125">
        <ele>1462</ele>
        <time>2026-09-01T09:35:27.000Z</time>
        <extensions>
          <ns3:TrackPointExtension>
            <ns3:hr>108</ns3:hr>
            <ns3:cad>79</ns3:cad>
          </ns3:TrackPointExtension>
        </extensions>
      </trkpt>
      <trkpt lat="47.54090965725481510162353515625" lon="11.03166349232196807861328125">
        <ele>1461.800048828125</ele>
        <time>2026-09-01T09:35:28.000Z</time>
        <extensions>
          <ns3:TrackPointExtension>
            <ns3:hr>108</ns3:hr>
            <ns3:cad>79</ns3:cad>
          </ns3:TrackPointExtension>
        </extensions>
      </trkpt>
      <trkpt lat="47.54089373163878917694091796875" lon="11.03165737353265285491943359375">
        <ele>1461.5999755859375</ele>
        <time>2026-09-01T09:35:29.000Z</time>
        <extensions>
          <ns3:TrackPointExtension>
            <ns3:hr>108</ns3:hr>
            <ns3:cad>79</ns3:cad>
          </ns3:TrackPointExtension>
        </extensions>
      </trkpt>
      <trkpt lat="47.54087093286216259002685546875" lon="11.03164647705852985382080078125">
        <ele>1461.4000244140625</ele>
        <time>2026-09-01T09:35:30.000Z</time>
        <extensions>
          <ns3:TrackPointExtension>
            <ns3:hr>108</ns3:hr>
            <ns3:cad>79</ns3:cad>
          </ns3:TrackPointExtension>
        </extensions>
      </trkpt>
      <trkpt lat="47.5408514030277729034423828125" lon="11.0316304676234722137451171875">
        <ele>1460.800048828125</ele>
        <time>2026-09-01T09:35:31.000Z</time>
        <extensions>
          <ns3:TrackPointExtension>
            <ns3:hr>108</ns3:hr>
            <ns3:cad>85</ns3:cad>
          </ns3:TrackPointExtension>
        </extensions>
      </trkpt>
      <trkpt lat="47.5408366508781909942626953125" lon="11.03160054422914981842041015625">
        <ele>1460.199951171875</ele>
        <time>2026-09-01T09:35:32.000Z</time>
        <extensions>
          <ns3:TrackPointExtension>
            <ns3:hr>109</ns3:hr>
            <ns3:cad>85</ns3:cad>
          </ns3:TrackPointExtension>
        </extensions>
      </trkpt>
      <trkpt lat="47.5408202223479747772216796875" lon="11.03157053701579570770263671875">
        <ele>1459.4000244140625</ele>
        <time>2026-09-01T09:35:33.000Z</time>
        <extensions>
          <ns3:TrackPointExtension>
            <ns3:hr>109</ns3:hr>
            <ns3:cad>85</ns3:cad>
          </ns3:TrackPointExtension>
        </extensions>
      </trkpt>
      <trkpt lat="47.5408096611499786376953125" lon="11.0315302200615406036376953125">
        <ele>1459</ele>
        <time>2026-09-01T09:35:34.000Z</time>
        <extensions>
          <ns3:TrackPointExtension>
            <ns3:hr>109</ns3:hr>
            <ns3:cad>83</ns3:cad>
          </ns3:TrackPointExtension>
        </extensions>
      </trkpt>
      <trkpt lat="47.5408014468848705291748046875" lon="11.03148688562214374542236328125">
        <ele>1458.5999755859375</ele>
        <time>2026-09-01T09:35:35.000Z</time>
        <extensions>
          <ns3:TrackPointExtension>
            <ns3:hr>108</ns3:hr>
            <ns3:cad>83</ns3:cad>
          </ns3:TrackPointExtension>
        </extensions>
      </trkpt>
      <trkpt lat="47.54078929312527179718017578125" lon="11.03144430555403232574462890625">
        <ele>1458.4000244140625</ele>
        <time>2026-09-01T09:35:36.000Z</time>
        <extensions>
          <ns3:TrackPointExtension>
            <ns3:hr>109</ns3:hr>
            <ns3:cad>83</ns3:cad>
          </ns3:TrackPointExtension>
        </extensions>
      </trkpt>
      <trkpt lat="47.54077051766216754913330078125" lon="11.0314128734171390533447265625">
        <ele>1458.199951171875</ele>
        <time>2026-09-01T09:35:37.000Z</time>
        <extensions>
          <ns3:TrackPointExtension>
            <ns3:hr>110</ns3:hr>
            <ns3:cad>82</ns3:cad>
          </ns3:TrackPointExtension>
        </extensions>
      </trkpt>
      <trkpt lat="47.54075266420841217041015625" lon="11.03137649595737457275390625">
        <ele>1458.4000244140625</ele>
        <time>2026-09-01T09:35:38.000Z</time>
        <extensions>
          <ns3:TrackPointExtension>
            <ns3:hr>110</ns3:hr>
            <ns3:cad>82</ns3:cad>
          </ns3:TrackPointExtension>
        </extensions>
      </trkpt>
      <trkpt lat="47.54073950462043285369873046875" lon="11.0313461534678936004638671875">
        <ele>1458.800048828125</ele>
        <time>2026-09-01T09:35:39.000Z</time>
        <extensions>
          <ns3:TrackPointExtension>
            <ns3:hr>112</ns3:hr>
            <ns3:cad>82</ns3:cad>
          </ns3:TrackPointExtension>
        </extensions>
      </trkpt>
      <trkpt lat="47.54073388874530792236328125" lon="11.0313102789223194122314453125">
        <ele>1459.4000244140625</ele>
        <time>2026-09-01T09:35:40.000Z</time>
        <extensions>
          <ns3:TrackPointExtension>
            <ns3:hr>113</ns3:hr>
            <ns3:cad>82</ns3:cad>
          </ns3:TrackPointExtension>
        </extensions>
      </trkpt>
      <trkpt lat="47.54072307609021663665771484375" lon="11.03128530085086822509765625">
        <ele>1459.800048828125</ele>
        <time>2026-09-01T09:35:41.000Z</time>
        <extensions>
          <ns3:TrackPointExtension>
            <ns3:hr>114</ns3:hr>
            <ns3:cad>82</ns3:cad>
          </ns3:TrackPointExtension>
        </extensions>
      </trkpt>
      <trkpt lat="47.54071117378771305084228515625" lon="11.03126577101647853851318359375">
        <ele>1460</ele>
        <time>2026-09-01T09:35:42.000Z</time>
        <extensions>
          <ns3:TrackPointExtension>
            <ns3:hr>114</ns3:hr>
            <ns3:cad>82</ns3:cad>
          </ns3:TrackPointExtension>
        </extensions>
      </trkpt>
      <trkpt lat="47.54070715047419071197509765625" lon="11.03125001303851604461669921875">
        <ele>1459.800048828125</ele>
        <time>2026-09-01T09:35:43.000Z</time>
        <extensions>
          <ns3:TrackPointExtension>
            <ns3:hr>115</ns3:hr>
            <ns3:cad>82</ns3:cad>
          </ns3:TrackPointExtension>
        </extensions>
      </trkpt>
      <trkpt lat="47.54069809801876544952392578125" lon="11.03123542852699756622314453125">
        <ele>1459.5999755859375</ele>
        <time>2026-09-01T09:35:44.000Z</time>
        <extensions>
          <ns3:TrackPointExtension>
            <ns3:hr>115</ns3:hr>
            <ns3:cad>82</ns3:cad>
          </ns3:TrackPointExtension>
        </extensions>
      </trkpt>
      <trkpt lat="47.540699355304241180419921875" lon="11.03120693005621433258056640625">
        <ele>1459</ele>
        <time>2026-09-01T09:35:45.000Z</time>
        <extensions>
          <ns3:TrackPointExtension>
            <ns3:hr>114</ns3:hr>
            <ns3:cad>81</ns3:cad>
          </ns3:TrackPointExtension>
        </extensions>
      </trkpt>
      <trkpt lat="47.5407079048454761505126953125" lon="11.0311842150986194610595703125">
        <ele>1458.5999755859375</ele>
        <time>2026-09-01T09:35:46.000Z</time>
        <extensions>
          <ns3:TrackPointExtension>
            <ns3:hr>114</ns3:hr>
            <ns3:cad>20</ns3:cad>
          </ns3:TrackPointExtension>
        </extensions>
      </trkpt>
      <trkpt lat="47.54071167670190334320068359375" lon="11.03115814737975597381591796875">
        <ele>1458.4000244140625</ele>
        <time>2026-09-01T09:35:47.000Z</time>
        <extensions>
          <ns3:TrackPointExtension>
            <ns3:hr>114</ns3:hr>
            <ns3:cad>20</ns3:cad>
          </ns3:TrackPointExtension>
        </extensions>
      </trkpt>
      <trkpt lat="47.5407099165022373199462890625" lon="11.03114071302115917205810546875">
        <ele>1458</ele>
        <time>2026-09-01T09:35:48.000Z</time>
        <extensions>
          <ns3:TrackPointExtension>
            <ns3:hr>114</ns3:hr>
            <ns3:cad>20</ns3:cad>
          </ns3:TrackPointExtension>
        </extensions>
      </trkpt>
      <trkpt lat="47.54071486182510852813720703125" lon="11.03112696669995784759521484375">
        <ele>1457.5999755859375</ele>
        <time>2026-09-01T09:35:49.000Z</time>
        <extensions>
          <ns3:TrackPointExtension>
            <ns3:hr>114</ns3:hr>
            <ns3:cad>20</ns3:cad>
          </ns3:TrackPointExtension>
        </extensions>
      </trkpt>
      <trkpt lat="47.54072341136634349822998046875" lon="11.03110701777040958404541015625">
        <ele>1457.199951171875</ele>
        <time>2026-09-01T09:35:50.000Z</time>
        <extensions>
          <ns3:TrackPointExtension>
            <ns3:hr>115</ns3:hr>
            <ns3:cad>20</ns3:cad>
          </ns3:TrackPointExtension>
        </extensions>
      </trkpt>
      <trkpt lat="47.54073112271726131439208984375" lon="11.03108002804219722747802734375">
        <ele>1456.800048828125</ele>
        <time>2026-09-01T09:35:51.000Z</time>
        <extensions>
          <ns3:TrackPointExtension>
            <ns3:hr>115</ns3:hr>
            <ns3:cad>20</ns3:cad>
          </ns3:TrackPointExtension>
        </extensions>
      </trkpt>
      <trkpt lat="47.54073095507919788360595703125" lon="11.031056307256221771240234375">
        <ele>1456.199951171875</ele>
        <time>2026-09-01T09:35:52.000Z</time>
        <extensions>
          <ns3:TrackPointExtension>
            <ns3:hr>115</ns3:hr>
            <ns3:cad>20</ns3:cad>
          </ns3:TrackPointExtension>
        </extensions>
      </trkpt>
      <trkpt lat="47.54072776995599269866943359375" lon="11.031023450195789337158203125">
        <ele>1455.5999755859375</ele>
        <time>2026-09-01T09:35:53.000Z</time>
        <extensions>
          <ns3:TrackPointExtension>
            <ns3:hr>115</ns3:hr>
            <ns3:cad>20</ns3:cad>
          </ns3:TrackPointExtension>
        </extensions>
      </trkpt>
      <trkpt lat="47.54072609357535839080810546875" lon="11.0309931077063083648681640625">
        <ele>1455.199951171875</ele>
        <time>2026-09-01T09:35:54.000Z</time>
        <extensions>
          <ns3:TrackPointExtension>
            <ns3:hr>115</ns3:hr>
            <ns3:cad>20</ns3:cad>
          </ns3:TrackPointExtension>
        </extensions>
      </trkpt>
      <trkpt lat="47.54072810523211956024169921875" lon="11.0309585742652416229248046875">
        <ele>1454.800048828125</ele>
        <time>2026-09-01T09:35:55.000Z</time>
        <extensions>
          <ns3:TrackPointExtension>
            <ns3:hr>115</ns3:hr>
            <ns3:cad>20</ns3:cad>
          </ns3:TrackPointExtension>
        </extensions>
      </trkpt>
      <trkpt lat="47.54072307609021663665771484375" lon="11.0309250466525554656982421875">
        <ele>1454.800048828125</ele>
        <time>2026-09-01T09:35:56.000Z</time>
        <extensions>
          <ns3:TrackPointExtension>
            <ns3:hr>114</ns3:hr>
            <ns3:cad>20</ns3:cad>
          </ns3:TrackPointExtension>
        </extensions>
      </trkpt>
      <trkpt lat="47.5407085753977298736572265625" lon="11.03089847601950168609619140625">
        <ele>1454.800048828125</ele>
        <time>2026-09-01T09:35:57.000Z</time>
        <extensions>
          <ns3:TrackPointExtension>
            <ns3:hr>113</ns3:hr>
            <ns3:cad>20</ns3:cad>
          </ns3:TrackPointExtension>
        </extensions>
      </trkpt>
      <trkpt lat="47.540708072483539581298828125" lon="11.030862517654895782470703125">
        <ele>1454.5999755859375</ele>
        <time>2026-09-01T09:35:58.000Z</time>
        <extensions>
          <ns3:TrackPointExtension>
            <ns3:hr>113</ns3:hr>
            <ns3:cad>79</ns3:cad>
          </ns3:TrackPointExtension>
        </extensions>
      </trkpt>
      <trkpt lat="47.5406943261623382568359375" lon="11.0308201052248477935791015625">
        <ele>1454.5999755859375</ele>
        <time>2026-09-01T09:35:59.000Z</time>
        <extensions>
          <ns3:TrackPointExtension>
            <ns3:hr>112</ns3:hr>
            <ns3:cad>79</ns3:cad>
          </ns3:TrackPointExtension>
        </extensions>
      </trkpt>
      <trkpt lat="47.540686614811420440673828125" lon="11.030785404145717620849609375">
        <ele>1454.4000244140625</ele>
        <time>2026-09-01T09:36:00.000Z</time>
        <extensions>
          <ns3:TrackPointExtension>
            <ns3:hr>111</ns3:hr>
            <ns3:cad>82</ns3:cad>
          </ns3:TrackPointExtension>
        </extensions>
      </trkpt>
      <trkpt lat="47.5406737066805362701416015625" lon="11.03075665421783924102783203125">
        <ele>1454.199951171875</ele>
        <time>2026-09-01T09:36:01.000Z</time>
        <extensions>
          <ns3:TrackPointExtension>
            <ns3:hr>112</ns3:hr>
            <ns3:cad>82</ns3:cad>
          </ns3:TrackPointExtension>
        </extensions>
      </trkpt>
      <trkpt lat="47.54066138528287410736083984375" lon="11.03071868419647216796875">
        <ele>1454.199951171875</ele>
        <time>2026-09-01T09:36:02.000Z</time>
        <extensions>
          <ns3:TrackPointExtension>
            <ns3:hr>114</ns3:hr>
            <ns3:cad>82</ns3:cad>
          </ns3:TrackPointExtension>
        </extensions>
      </trkpt>
      <trkpt lat="47.54065048880875110626220703125" lon="11.03069546632468700408935546875">
        <ele>1454.5999755859375</ele>
        <time>2026-09-01T09:36:03.000Z</time>
        <extensions>
          <ns3:TrackPointExtension>
            <ns3:hr>115</ns3:hr>
            <ns3:cad>84</ns3:cad>
          </ns3:TrackPointExtension>
        </extensions>
      </trkpt>
      <trkpt lat="47.5406401790678501129150390625" lon="11.03066436946392059326171875">
        <ele>1455.199951171875</ele>
        <time>2026-09-01T09:36:04.000Z</time>
        <extensions>
          <ns3:TrackPointExtension>
            <ns3:hr>116</ns3:hr>
            <ns3:cad>84</ns3:cad>
          </ns3:TrackPointExtension>
        </extensions>
      </trkpt>
      <trkpt lat="47.54063322208821773529052734375" lon="11.03063486516475677490234375">
        <ele>1455.5999755859375</ele>
        <time>2026-09-01T09:36:05.000Z</time>
        <extensions>
          <ns3:TrackPointExtension>
            <ns3:hr>117</ns3:hr>
            <ns3:cad>81</ns3:cad>
          </ns3:TrackPointExtension>
        </extensions>
      </trkpt>
      <trkpt lat="47.540630288422107696533203125" lon="11.03060678578913211822509765625">
        <ele>1455.5999755859375</ele>
        <time>2026-09-01T09:36:06.000Z</time>
        <extensions>
          <ns3:TrackPointExtension>
            <ns3:hr>118</ns3:hr>
            <ns3:cad>79</ns3:cad>
          </ns3:TrackPointExtension>
        </extensions>
      </trkpt>
      <trkpt lat="47.5406348146498203277587890625" lon="11.03056906722486019134521484375">
        <ele>1455.5999755859375</ele>
        <time>2026-09-01T09:36:07.000Z</time>
        <extensions>
          <ns3:TrackPointExtension>
            <ns3:hr>118</ns3:hr>
            <ns3:cad>79</ns3:cad>
          </ns3:TrackPointExtension>
        </extensions>
      </trkpt>
      <trkpt lat="47.54063271917402744293212890625" lon="11.03053268976509571075439453125">
        <ele>1455.199951171875</ele>
        <time>2026-09-01T09:36:08.000Z</time>
        <extensions>
          <ns3:TrackPointExtension>
            <ns3:hr>118</ns3:hr>
            <ns3:cad>79</ns3:cad>
          </ns3:TrackPointExtension>
        </extensions>
      </trkpt>
      <trkpt lat="47.54062500782310962677001953125" lon="11.0304893553256988525390625">
        <ele>1454.800048828125</ele>
        <time>2026-09-01T09:36:09.000Z</time>
        <extensions>
          <ns3:TrackPointExtension>
            <ns3:hr>118</ns3:hr>
            <ns3:cad>79</ns3:cad>
          </ns3:TrackPointExtension>
        </extensions>
      </trkpt>
      <trkpt lat="47.54061310552060604095458984375" lon="11.030447781085968017578125">
        <ele>1453.5999755859375</ele>
        <time>2026-09-01T09:36:10.000Z</time>
        <extensions>
          <ns3:TrackPointExtension>
            <ns3:hr>118</ns3:hr>
            <ns3:cad>79</ns3:cad>
          </ns3:TrackPointExtension>
        </extensions>
      </trkpt>
      <trkpt lat="47.54061059094965457916259765625" lon="11.03040612302720546722412109375">
        <ele>1452.5999755859375</ele>
        <time>2026-09-01T09:36:11.000Z</time>
        <extensions>
          <ns3:TrackPointExtension>
            <ns3:hr>119</ns3:hr>
            <ns3:cad>79</ns3:cad>
          </ns3:TrackPointExtension>
        </extensions>
      </trkpt>
      <trkpt lat="47.54059441387653350830078125" lon="11.03037326596677303314208984375">
        <ele>1452.199951171875</ele>
        <time>2026-09-01T09:36:12.000Z</time>
        <extensions>
          <ns3:TrackPointExtension>
            <ns3:hr>119</ns3:hr>
            <ns3:cad>79</ns3:cad>
          </ns3:TrackPointExtension>
        </extensions>
      </trkpt>
      <trkpt lat="47.5405895523726940155029296875" lon="11.03035725653171539306640625">
        <ele>1452.199951171875</ele>
        <time>2026-09-01T09:36:13.000Z</time>
        <extensions>
          <ns3:TrackPointExtension>
            <ns3:hr>120</ns3:hr>
            <ns3:cad>79</ns3:cad>
          </ns3:TrackPointExtension>
        </extensions>
      </trkpt>
      <trkpt lat="47.5405825115740299224853515625" lon="11.03034057654440402984619140625">
        <ele>1452.5999755859375</ele>
        <time>2026-09-01T09:36:14.000Z</time>
        <extensions>
          <ns3:TrackPointExtension>
            <ns3:hr>120</ns3:hr>
            <ns3:cad>79</ns3:cad>
          </ns3:TrackPointExtension>
        </extensions>
      </trkpt>
      <trkpt lat="47.540591396391391754150390625" lon="11.030324734747409820556640625">
        <ele>1452.800048828125</ele>
        <time>2026-09-01T09:36:15.000Z</time>
        <extensions>
          <ns3:TrackPointExtension>
            <ns3:hr>121</ns3:hr>
            <ns3:cad>79</ns3:cad>
          </ns3:TrackPointExtension>
        </extensions>
      </trkpt>
      <trkpt lat="47.54059148021042346954345703125" lon="11.03029967285692691802978515625">
        <ele>1453</ele>
        <time>2026-09-01T09:36:16.000Z</time>
        <extensions>
          <ns3:TrackPointExtension>
            <ns3:hr>122</ns3:hr>
            <ns3:cad>79</ns3:cad>
          </ns3:TrackPointExtension>
        </extensions>
      </trkpt>
      <trkpt lat="47.5405872054398059844970703125" lon="11.0302709229290485382080078125">
        <ele>1453</ele>
        <time>2026-09-01T09:36:17.000Z</time>
        <extensions>
          <ns3:TrackPointExtension>
            <ns3:hr>122</ns3:hr>
            <ns3:cad>79</ns3:cad>
          </ns3:TrackPointExtension>
        </extensions>
      </trkpt>
      <trkpt lat="47.54058343358337879180908203125" lon="11.03025424294173717498779296875">
        <ele>1453.199951171875</ele>
        <time>2026-09-01T09:36:18.000Z</time>
        <extensions>
          <ns3:TrackPointExtension>
            <ns3:hr>122</ns3:hr>
            <ns3:cad>79</ns3:cad>
          </ns3:TrackPointExtension>
        </extensions>
      </trkpt>
      <trkpt lat="47.540575303137302398681640625" lon="11.0302397422492504119873046875">
        <ele>1453.199951171875</ele>
        <time>2026-09-01T09:36:19.000Z</time>
        <extensions>
          <ns3:TrackPointExtension>
            <ns3:hr>123</ns3:hr>
            <ns3:cad>71</ns3:cad>
          </ns3:TrackPointExtension>
        </extensions>
      </trkpt>
      <trkpt lat="47.5405741296708583831787109375" lon="11.0302082262933254241943359375">
        <ele>1453.199951171875</ele>
        <time>2026-09-01T09:36:20.000Z</time>
        <extensions>
          <ns3:TrackPointExtension>
            <ns3:hr>123</ns3:hr>
            <ns3:cad>79</ns3:cad>
          </ns3:TrackPointExtension>
        </extensions>
      </trkpt>
      <trkpt lat="47.54056717269122600555419921875" lon="11.0301881097257137298583984375">
        <ele>1453.199951171875</ele>
        <time>2026-09-01T09:36:21.000Z</time>
        <extensions>
          <ns3:TrackPointExtension>
            <ns3:hr>122</ns3:hr>
            <ns3:cad>79</ns3:cad>
          </ns3:TrackPointExtension>
        </extensions>
      </trkpt>
      <trkpt lat="47.54055862314999103546142578125" lon="11.03016120381653308868408203125">
        <ele>1453.199951171875</ele>
        <time>2026-09-01T09:36:22.000Z</time>
        <extensions>
          <ns3:TrackPointExtension>
            <ns3:hr>122</ns3:hr>
            <ns3:cad>79</ns3:cad>
          </ns3:TrackPointExtension>
        </extensions>
      </trkpt>
      <trkpt lat="47.54054973833262920379638671875" lon="11.03012298233807086944580078125">
        <ele>1453.199951171875</ele>
        <time>2026-09-01T09:36:23.000Z</time>
        <extensions>
          <ns3:TrackPointExtension>
            <ns3:hr>122</ns3:hr>
            <ns3:cad>77</ns3:cad>
          </ns3:TrackPointExtension>
        </extensions>
      </trkpt>
      <trkpt lat="47.5405385904014110565185546875" lon="11.0301002673804759979248046875">
        <ele>1453</ele>
        <time>2026-09-01T09:36:24.000Z</time>
        <extensions>
          <ns3:TrackPointExtension>
            <ns3:hr>122</ns3:hr>
            <ns3:cad>77</ns3:cad>
          </ns3:TrackPointExtension>
        </extensions>
      </trkpt>
      <trkpt lat="47.54052693955600261688232421875" lon="11.0300757922232151031494140625">
        <ele>1453</ele>
        <time>2026-09-01T09:36:25.000Z</time>
        <extensions>
          <ns3:TrackPointExtension>
            <ns3:hr>123</ns3:hr>
            <ns3:cad>77</ns3:cad>
          </ns3:TrackPointExtension>
        </extensions>
      </trkpt>
      <trkpt lat="47.54050791263580322265625" lon="11.030046455562114715576171875">
        <ele>1452.800048828125</ele>
        <time>2026-09-01T09:36:26.000Z</time>
        <extensions>
          <ns3:TrackPointExtension>
            <ns3:hr>123</ns3:hr>
            <ns3:cad>81</ns3:cad>
          </ns3:TrackPointExtension>
        </extensions>
      </trkpt>
      <trkpt lat="47.54048603586852550506591796875" lon="11.030024327337741851806640625">
        <ele>1452.800048828125</ele>
        <time>2026-09-01T09:36:27.000Z</time>
        <extensions>
          <ns3:TrackPointExtension>
            <ns3:hr>123</ns3:hr>
            <ns3:cad>81</ns3:cad>
          </ns3:TrackPointExtension>
        </extensions>
      </trkpt>
      <trkpt lat="47.54046508111059665679931640625" lon="11.030003540217876434326171875">
        <ele>1452.800048828125</ele>
        <time>2026-09-01T09:36:28.000Z</time>
        <extensions>
          <ns3:TrackPointExtension>
            <ns3:hr>124</ns3:hr>
            <ns3:cad>81</ns3:cad>
          </ns3:TrackPointExtension>
        </extensions>
      </trkpt>
      <trkpt lat="47.540441192686557769775390625" lon="11.02997411973774433135986328125">
        <ele>1452.5999755859375</ele>
        <time>2026-09-01T09:36:29.000Z</time>
        <extensions>
          <ns3:TrackPointExtension>
            <ns3:hr>125</ns3:hr>
            <ns3:cad>81</ns3:cad>
          </ns3:TrackPointExtension>
        </extensions>
      </trkpt>
      <trkpt lat="47.54042115993797779083251953125" lon="11.029945202171802520751953125">
        <ele>1452.4000244140625</ele>
        <time>2026-09-01T09:36:30.000Z</time>
        <extensions>
          <ns3:TrackPointExtension>
            <ns3:hr>125</ns3:hr>
            <ns3:cad>75</ns3:cad>
          </ns3:TrackPointExtension>
        </extensions>
      </trkpt>
      <trkpt lat="47.5403991155326366424560546875" lon="11.02992751635611057281494140625">
        <ele>1452.199951171875</ele>
        <time>2026-09-01T09:36:31.000Z</time>
        <extensions>
          <ns3:TrackPointExtension>
            <ns3:hr>126</ns3:hr>
            <ns3:cad>75</ns3:cad>
          </ns3:TrackPointExtension>
        </extensions>
      </trkpt>
      <trkpt lat="47.5403858721256256103515625" lon="11.02989801205694675445556640625">
        <ele>1452</ele>
        <time>2026-09-01T09:36:32.000Z</time>
        <extensions>
          <ns3:TrackPointExtension>
            <ns3:hr>127</ns3:hr>
            <ns3:cad>75</ns3:cad>
          </ns3:TrackPointExtension>
        </extensions>
      </trkpt>
      <trkpt lat="47.54036642611026763916015625" lon="11.02986968122422695159912109375">
        <ele>1451.4000244140625</ele>
        <time>2026-09-01T09:36:33.000Z</time>
        <extensions>
          <ns3:TrackPointExtension>
            <ns3:hr>126</ns3:hr>
            <ns3:cad>75</ns3:cad>
          </ns3:TrackPointExtension>
        </extensions>
      </trkpt>
      <trkpt lat="47.54034639336168766021728515625" lon="11.02984503842890262603759765625">
        <ele>1450.5999755859375</ele>
        <time>2026-09-01T09:36:34.000Z</time>
        <extensions>
          <ns3:TrackPointExtension>
            <ns3:hr>126</ns3:hr>
            <ns3:cad>75</ns3:cad>
          </ns3:TrackPointExtension>
        </extensions>
      </trkpt>
      <trkpt lat="47.5403277017176151275634765625" lon="11.02981704287230968475341796875">
        <ele>1449.800048828125</ele>
        <time>2026-09-01T09:36:35.000Z</time>
        <extensions>
          <ns3:TrackPointExtension>
            <ns3:hr>127</ns3:hr>
            <ns3:cad>75</ns3:cad>
          </ns3:TrackPointExtension>
        </extensions>
      </trkpt>
      <trkpt lat="47.5403082557022571563720703125" lon="11.02979022078216075897216796875">
        <ele>1449</ele>
        <time>2026-09-01T09:36:36.000Z</time>
        <extensions>
          <ns3:TrackPointExtension>
            <ns3:hr>127</ns3:hr>
            <ns3:cad>75</ns3:cad>
          </ns3:TrackPointExtension>
        </extensions>
      </trkpt>
      <trkpt lat="47.54028487019240856170654296875" lon="11.0297760553658008575439453125">
        <ele>1448.4000244140625</ele>
        <time>2026-09-01T09:36:37.000Z</time>
        <extensions>
          <ns3:TrackPointExtension>
            <ns3:hr>128</ns3:hr>
            <ns3:cad>85</ns3:cad>
          </ns3:TrackPointExtension>
        </extensions>
      </trkpt>
      <trkpt lat="47.54025922156870365142822265625" lon="11.0297569446265697479248046875">
        <ele>1447.800048828125</ele>
        <time>2026-09-01T09:36:38.000Z</time>
        <extensions>
          <ns3:TrackPointExtension>
            <ns3:hr>128</ns3:hr>
            <ns3:cad>90</ns3:cad>
          </ns3:TrackPointExtension>
        </extensions>
      </trkpt>
      <trkpt lat="47.54022669978439807891845703125" lon="11.0297522507607936859130859375">
        <ele>1447.199951171875</ele>
        <time>2026-09-01T09:36:39.000Z</time>
        <extensions>
          <ns3:TrackPointExtension>
            <ns3:hr>130</ns3:hr>
            <ns3:cad>90</ns3:cad>
          </ns3:TrackPointExtension>
        </extensions>
      </trkpt>
      <trkpt lat="47.54019987769424915313720703125" lon="11.02974344976246356964111328125">
        <ele>1447</ele>
        <time>2026-09-01T09:36:40.000Z</time>
        <extensions>
          <ns3:TrackPointExtension>
            <ns3:hr>130</ns3:hr>
            <ns3:cad>90</ns3:cad>
          </ns3:TrackPointExtension>
        </extensions>
      </trkpt>
      <trkpt lat="47.54017221741378307342529296875" lon="11.0297230817377567291259765625">
        <ele>1446.5999755859375</ele>
        <time>2026-09-01T09:36:41.000Z</time>
        <extensions>
          <ns3:TrackPointExtension>
            <ns3:hr>131</ns3:hr>
            <ns3:cad>90</ns3:cad>
          </ns3:TrackPointExtension>
        </extensions>
      </trkpt>
      <trkpt lat="47.5401503406465053558349609375" lon="11.02971008978784084320068359375">
        <ele>1446.199951171875</ele>
        <time>2026-09-01T09:36:42.000Z</time>
        <extensions>
          <ns3:TrackPointExtension>
            <ns3:hr>133</ns3:hr>
            <ns3:cad>90</ns3:cad>
          </ns3:TrackPointExtension>
        </extensions>
      </trkpt>
      <trkpt lat="47.540135085582733154296875" lon="11.0296821780502796173095703125">
        <ele>1445.800048828125</ele>
        <time>2026-09-01T09:36:43.000Z</time>
        <extensions>
          <ns3:TrackPointExtension>
            <ns3:hr>132</ns3:hr>
            <ns3:cad>90</ns3:cad>
          </ns3:TrackPointExtension>
        </extensions>
      </trkpt>
      <trkpt lat="47.54011555574834346771240234375" lon="11.02966600097715854644775390625">
        <ele>1445</ele>
        <time>2026-09-01T09:36:44.000Z</time>
        <extensions>
          <ns3:TrackPointExtension>
            <ns3:hr>131</ns3:hr>
            <ns3:cad>90</ns3:cad>
          </ns3:TrackPointExtension>
        </extensions>
      </trkpt>
      <trkpt lat="47.5400913320481777191162109375" lon="11.0296463035047054290771484375">
        <ele>1444.199951171875</ele>
        <time>2026-09-01T09:36:45.000Z</time>
        <extensions>
          <ns3:TrackPointExtension>
            <ns3:hr>130</ns3:hr>
            <ns3:cad>81</ns3:cad>
          </ns3:TrackPointExtension>
        </extensions>
      </trkpt>
      <trkpt lat="47.54006777890026569366455078125" lon="11.02963934652507305145263671875">
        <ele>1443.5999755859375</ele>
        <time>2026-09-01T09:36:46.000Z</time>
        <extensions>
          <ns3:TrackPointExtension>
            <ns3:hr>130</ns3:hr>
            <ns3:cad>81</ns3:cad>
          </ns3:TrackPointExtension>
        </extensions>
      </trkpt>
      <trkpt lat="47.54004590213298797607421875" lon="11.029628701508045196533203125">
        <ele>1443</ele>
        <time>2026-09-01T09:36:47.000Z</time>
        <extensions>
          <ns3:TrackPointExtension>
            <ns3:hr>130</ns3:hr>
            <ns3:cad>81</ns3:cad>
          </ns3:TrackPointExtension>
        </extensions>
      </trkpt>
      <trkpt lat="47.54002218134701251983642578125" lon="11.02961805649101734161376953125">
        <ele>1442.4000244140625</ele>
        <time>2026-09-01T09:36:48.000Z</time>
        <extensions>
          <ns3:TrackPointExtension>
            <ns3:hr>131</ns3:hr>
            <ns3:cad>81</ns3:cad>
          </ns3:TrackPointExtension>
        </extensions>
      </trkpt>
      <trkpt lat="47.5399944372475147247314453125" lon="11.02961964905261993408203125">
        <ele>1441.800048828125</ele>
        <time>2026-09-01T09:36:49.000Z</time>
        <extensions>
          <ns3:TrackPointExtension>
            <ns3:hr>131</ns3:hr>
            <ns3:cad>61</ns3:cad>
          </ns3:TrackPointExtension>
        </extensions>
      </trkpt>
      <trkpt lat="47.539959065616130828857421875" lon="11.0296064056456089019775390625">
        <ele>1441.199951171875</ele>
        <time>2026-09-01T09:36:50.000Z</time>
        <extensions>
          <ns3:TrackPointExtension>
            <ns3:hr>132</ns3:hr>
            <ns3:cad>61</ns3:cad>
          </ns3:TrackPointExtension>
        </extensions>
      </trkpt>
      <trkpt lat="47.5399448163807392120361328125" lon="11.02960062213242053985595703125">
        <ele>1440.5999755859375</ele>
        <time>2026-09-01T09:36:51.000Z</time>
        <extensions>
          <ns3:TrackPointExtension>
            <ns3:hr>133</ns3:hr>
            <ns3:cad>61</ns3:cad>
          </ns3:TrackPointExtension>
        </extensions>
      </trkpt>
      <trkpt lat="47.53992914222180843353271484375" lon="11.0295906476676464080810546875">
        <ele>1440.199951171875</ele>
        <time>2026-09-01T09:36:52.000Z</time>
        <extensions>
          <ns3:TrackPointExtension>
            <ns3:hr>133</ns3:hr>
            <ns3:cad>61</ns3:cad>
          </ns3:TrackPointExtension>
        </extensions>
      </trkpt>
      <trkpt lat="47.539914138615131378173828125" lon="11.029564328491687774658203125">
        <ele>1439.800048828125</ele>
        <time>2026-09-01T09:36:53.000Z</time>
        <extensions>
          <ns3:TrackPointExtension>
            <ns3:hr>134</ns3:hr>
            <ns3:cad>61</ns3:cad>
          </ns3:TrackPointExtension>
        </extensions>
      </trkpt>
      <trkpt lat="47.53989343531429767608642578125" lon="11.02954530157148838043212890625">
        <ele>1439.4000244140625</ele>
        <time>2026-09-01T09:36:54.000Z</time>
        <extensions>
          <ns3:TrackPointExtension>
            <ns3:hr>135</ns3:hr>
            <ns3:cad>61</ns3:cad>
          </ns3:TrackPointExtension>
        </extensions>
      </trkpt>
      <trkpt lat="47.5398646853864192962646484375" lon="11.029544211924076080322265625">
        <ele>1439</ele>
        <time>2026-09-01T09:36:55.000Z</time>
        <extensions>
          <ns3:TrackPointExtension>
            <ns3:hr>134</ns3:hr>
            <ns3:cad>81</ns3:cad>
          </ns3:TrackPointExtension>
        </extensions>
      </trkpt>
      <trkpt lat="47.5398418866097927093505859375" lon="11.02953993715345859527587890625">
        <ele>1438.800048828125</ele>
        <time>2026-09-01T09:36:56.000Z</time>
        <extensions>
          <ns3:TrackPointExtension>
            <ns3:hr>133</ns3:hr>
            <ns3:cad>81</ns3:cad>
          </ns3:TrackPointExtension>
        </extensions>
      </trkpt>
      <trkpt lat="47.539808191359043121337890625" lon="11.02954454720020294189453125">
        <ele>1438.199951171875</ele>
        <time>2026-09-01T09:36:57.000Z</time>
        <extensions>
          <ns3:TrackPointExtension>
            <ns3:hr>133</ns3:hr>
            <ns3:cad>81</ns3:cad>
          </ns3:TrackPointExtension>
        </extensions>
      </trkpt>
      <trkpt lat="47.5397812016308307647705078125" lon="11.02955083362758159637451171875">
        <ele>1437.5999755859375</ele>
        <time>2026-09-01T09:36:58.000Z</time>
        <extensions>
          <ns3:TrackPointExtension>
            <ns3:hr>132</ns3:hr>
            <ns3:cad>81</ns3:cad>
          </ns3:TrackPointExtension>
        </extensions>
      </trkpt>
      <trkpt lat="47.53975546918809413909912109375" lon="11.02954882197082042694091796875">
        <ele>1437.199951171875</ele>
        <time>2026-09-01T09:36:59.000Z</time>
        <extensions>
          <ns3:TrackPointExtension>
            <ns3:hr>133</ns3:hr>
            <ns3:cad>81</ns3:cad>
          </ns3:TrackPointExtension>
        </extensions>
      </trkpt>
      <trkpt lat="47.5397238694131374359130859375" lon="11.0295470617711544036865234375">
        <ele>1437</ele>
        <time>2026-09-01T09:37:00.000Z</time>
        <extensions>
          <ns3:TrackPointExtension>
            <ns3:hr>134</ns3:hr>
            <ns3:cad>81</ns3:cad>
          </ns3:TrackPointExtension>
        </extensions>
      </trkpt>
      <trkpt lat="47.53969478420913219451904296875" lon="11.02954194881021976470947265625">
        <ele>1436.800048828125</ele>
        <time>2026-09-01T09:37:01.000Z</time>
        <extensions>
          <ns3:TrackPointExtension>
            <ns3:hr>135</ns3:hr>
            <ns3:cad>81</ns3:cad>
          </ns3:TrackPointExtension>
        </extensions>
      </trkpt>
      <trkpt lat="47.53965756855905055999755859375" lon="11.0295370034873485565185546875">
        <ele>1436.5999755859375</ele>
        <time>2026-09-01T09:37:02.000Z</time>
        <extensions>
          <ns3:TrackPointExtension>
            <ns3:hr>135</ns3:hr>
            <ns3:cad>83</ns3:cad>
          </ns3:TrackPointExtension>
        </extensions>
      </trkpt>
      <trkpt lat="47.53963242284953594207763671875" lon="11.029538847506046295166015625">
        <ele>1436.199951171875</ele>
        <time>2026-09-01T09:37:03.000Z</time>
        <extensions>
          <ns3:TrackPointExtension>
            <ns3:hr>136</ns3:hr>
            <ns3:cad>84</ns3:cad>
          </ns3:TrackPointExtension>
        </extensions>
      </trkpt>
      <trkpt lat="47.53959931433200836181640625" lon="11.0295478999614715576171875">
        <ele>1435.800048828125</ele>
        <time>2026-09-01T09:37:04.000Z</time>
        <extensions>
          <ns3:TrackPointExtension>
            <ns3:hr>137</ns3:hr>
            <ns3:cad>84</ns3:cad>
          </ns3:TrackPointExtension>
        </extensions>
      </trkpt>
      <trkpt lat="47.5395693071186542510986328125" lon="11.029562987387180328369140625">
        <ele>1435.4000244140625</ele>
        <time>2026-09-01T09:37:05.000Z</time>
        <extensions>
          <ns3:TrackPointExtension>
            <ns3:hr>138</ns3:hr>
            <ns3:cad>84</ns3:cad>
          </ns3:TrackPointExtension>
        </extensions>
      </trkpt>
      <trkpt lat="47.53955212421715259552001953125" lon="11.02958134375512599945068359375">
        <ele>1435.5999755859375</ele>
        <time>2026-09-01T09:37:06.000Z</time>
        <extensions>
          <ns3:TrackPointExtension>
            <ns3:hr>138</ns3:hr>
            <ns3:cad>84</ns3:cad>
          </ns3:TrackPointExtension>
        </extensions>
      </trkpt>
      <trkpt lat="47.53953552804887294769287109375" lon="11.0295859538018703460693359375">
        <ele>1435.800048828125</ele>
        <time>2026-09-01T09:37:07.000Z</time>
        <extensions>
          <ns3:TrackPointExtension>
            <ns3:hr>139</ns3:hr>
            <ns3:cad>84</ns3:cad>
          </ns3:TrackPointExtension>
        </extensions>
      </trkpt>
      <trkpt lat="47.53952178172767162322998046875" lon="11.02957581169903278350830078125">
        <ele>1436</ele>
        <time>2026-09-01T09:37:08.000Z</time>
        <extensions>
          <ns3:TrackPointExtension>
            <ns3:hr>140</ns3:hr>
            <ns3:cad>84</ns3:cad>
          </ns3:TrackPointExtension>
        </extensions>
      </trkpt>
      <trkpt lat="47.53952412866055965423583984375" lon="11.02953339926898479461669921875">
        <ele>1436.199951171875</ele>
        <time>2026-09-01T09:37:09.000Z</time>
        <extensions>
          <ns3:TrackPointExtension>
            <ns3:hr>141</ns3:hr>
            <ns3:cad>78</ns3:cad>
          </ns3:TrackPointExtension>
        </extensions>
      </trkpt>
      <trkpt lat="47.539523877203464508056640625" lon="11.0295031405985355377197265625">
        <ele>1436.4000244140625</ele>
        <time>2026-09-01T09:37:10.000Z</time>
        <extensions>
          <ns3:TrackPointExtension>
            <ns3:hr>141</ns3:hr>
            <ns3:cad>77</ns3:cad>
          </ns3:TrackPointExtension>
        </extensions>
      </trkpt>
      <trkpt lat="47.5395237095654010772705078125" lon="11.02949366904795169830322265625">
        <ele>1436.800048828125</ele>
        <time>2026-09-01T09:37:11.000Z</time>
        <extensions>
          <ns3:TrackPointExtension>
            <ns3:hr>142</ns3:hr>
            <ns3:cad>76</ns3:cad>
          </ns3:TrackPointExtension>
        </extensions>
      </trkpt>
      <trkpt lat="47.539511807262897491455078125" lon="11.02948243729770183563232421875">
        <ele>1437</ele>
        <time>2026-09-01T09:37:12.000Z</time>
        <extensions>
          <ns3:TrackPointExtension>
            <ns3:hr>141</ns3:hr>
            <ns3:cad>75</ns3:cad>
          </ns3:TrackPointExtension>
        </extensions>
      </trkpt>
      <trkpt lat="47.5394985638558864593505859375" lon="11.029471121728420257568359375">
        <ele>1437.199951171875</ele>
        <time>2026-09-01T09:37:13.000Z</time>
        <extensions>
          <ns3:TrackPointExtension>
            <ns3:hr>141</ns3:hr>
            <ns3:cad>75</ns3:cad>
          </ns3:TrackPointExtension>
        </extensions>
      </trkpt>
      <trkpt lat="47.5394846498966217041015625" lon="11.029466427862644195556640625">
        <ele>1437.5999755859375</ele>
        <time>2026-09-01T09:37:14.000Z</time>
        <extensions>
          <ns3:TrackPointExtension>
            <ns3:hr>141</ns3:hr>
            <ns3:cad>73</ns3:cad>
          </ns3:TrackPointExtension>
        </extensions>
      </trkpt>
      <trkpt lat="47.539471574127674102783203125" lon="11.02946198545396327972412109375">
        <ele>1438</ele>
        <time>2026-09-01T09:37:15.000Z</time>
        <extensions>
          <ns3:TrackPointExtension>
            <ns3:hr>140</ns3:hr>
            <ns3:cad>73</ns3:cad>
          </ns3:TrackPointExtension>
        </extensions>
      </trkpt>
      <trkpt lat="47.53946176730096340179443359375" lon="11.029464416205883026123046875">
        <ele>1438.199951171875</ele>
        <time>2026-09-01T09:37:16.000Z</time>
        <extensions>
          <ns3:TrackPointExtension>
            <ns3:hr>140</ns3:hr>
            <ns3:cad>73</ns3:cad>
          </ns3:TrackPointExtension>
        </extensions>
      </trkpt>
      <trkpt lat="47.53945137374103069305419921875" lon="11.02947539649903774261474609375">
        <ele>1438.5999755859375</ele>
        <time>2026-09-01T09:37:17.000Z</time>
        <extensions>
          <ns3:TrackPointExtension>
            <ns3:hr>140</ns3:hr>
            <ns3:cad>73</ns3:cad>
          </ns3:TrackPointExtension>
        </extensions>
      </trkpt>
      <trkpt lat="47.5394390523433685302734375" lon="11.0294781625270843505859375">
        <ele>1438.800048828125</ele>
        <time>2026-09-01T09:37:18.000Z</time>
        <extensions>
          <ns3:TrackPointExtension>
            <ns3:hr>140</ns3:hr>
            <ns3:cad>73</ns3:cad>
          </ns3:TrackPointExtension>
        </extensions>
      </trkpt>
      <trkpt lat="47.53943494521081447601318359375" lon="11.02947958745062351226806640625">
        <ele>1439</ele>
        <time>2026-09-01T09:37:19.000Z</time>
        <extensions>
          <ns3:TrackPointExtension>
            <ns3:hr>139</ns3:hr>
            <ns3:cad>73</ns3:cad>
          </ns3:TrackPointExtension>
        </extensions>
      </trkpt>
      <trkpt lat="47.53942924551665782928466796875" lon="11.02947170846164226531982421875">
        <ele>1439.199951171875</ele>
        <time>2026-09-01T09:37:20.000Z</time>
        <extensions>
          <ns3:TrackPointExtension>
            <ns3:hr>139</ns3:hr>
            <ns3:cad>55</ns3:cad>
          </ns3:TrackPointExtension>
        </extensions>
      </trkpt>
      <trkpt lat="47.53942253999412059783935546875" lon="11.02946651168167591094970703125">
        <ele>1439.4000244140625</ele>
        <time>2026-09-01T09:37:21.000Z</time>
        <extensions>
          <ns3:TrackPointExtension>
            <ns3:hr>138</ns3:hr>
            <ns3:cad>55</ns3:cad>
          </ns3:TrackPointExtension>
        </extensions>
      </trkpt>
      <trkpt lat="47.5394217856228351593017578125" lon="11.029457040131092071533203125">
        <ele>1439.5999755859375</ele>
        <time>2026-09-01T09:37:22.000Z</time>
        <extensions>
          <ns3:TrackPointExtension>
            <ns3:hr>137</ns3:hr>
            <ns3:cad>55</ns3:cad>
          </ns3:TrackPointExtension>
        </extensions>
      </trkpt>
      <trkpt lat="47.53942103125154972076416015625" lon="11.02944438345730304718017578125">
        <ele>1439.800048828125</ele>
        <time>2026-09-01T09:37:23.000Z</time>
        <extensions>
          <ns3:TrackPointExtension>
            <ns3:hr>136</ns3:hr>
            <ns3:cad>54</ns3:cad>
          </ns3:TrackPointExtension>
        </extensions>
      </trkpt>
      <trkpt lat="47.53941734321415424346923828125" lon="11.0294256918132305145263671875">
        <ele>1440.199951171875</ele>
        <time>2026-09-01T09:37:24.000Z</time>
        <extensions>
          <ns3:TrackPointExtension>
            <ns3:hr>136</ns3:hr>
            <ns3:cad>54</ns3:cad>
          </ns3:TrackPointExtension>
        </extensions>
      </trkpt>
      <trkpt lat="47.53941834904253482818603515625" lon="11.02941202931106090545654296875">
        <ele>1440.5999755859375</ele>
        <time>2026-09-01T09:37:25.000Z</time>
        <extensions>
          <ns3:TrackPointExtension>
            <ns3:hr>136</ns3:hr>
            <ns3:cad>53</ns3:cad>
          </ns3:TrackPointExtension>
        </extensions>
      </trkpt>
      <trkpt lat="47.539413236081600189208984375" lon="11.0293955169618129730224609375">
        <ele>1440.800048828125</ele>
        <time>2026-09-01T09:37:26.000Z</time>
        <extensions>
          <ns3:TrackPointExtension>
            <ns3:hr>135</ns3:hr>
            <ns3:cad>53</ns3:cad>
          </ns3:TrackPointExtension>
        </extensions>
      </trkpt>
      <trkpt lat="47.53940829075872898101806640625" lon="11.0293804295361042022705078125">
        <ele>1441</ele>
        <time>2026-09-01T09:37:27.000Z</time>
        <extensions>
          <ns3:TrackPointExtension>
            <ns3:hr>135</ns3:hr>
            <ns3:cad>54</ns3:cad>
          </ns3:TrackPointExtension>
        </extensions>
      </trkpt>
      <trkpt lat="47.5394050218164920806884765625" lon="11.02936618030071258544921875">
        <ele>1441.4000244140625</ele>
        <time>2026-09-01T09:37:28.000Z</time>
        <extensions>
          <ns3:TrackPointExtension>
            <ns3:hr>134</ns3:hr>
            <ns3:cad>55</ns3:cad>
          </ns3:TrackPointExtension>
        </extensions>
      </trkpt>
      <trkpt lat="47.53940091468393802642822265625" lon="11.029353439807891845703125">
        <ele>1441.4000244140625</ele>
        <time>2026-09-01T09:37:29.000Z</time>
        <extensions>
          <ns3:TrackPointExtension>
            <ns3:hr>135</ns3:hr>
            <ns3:cad>55</ns3:cad>
          </ns3:TrackPointExtension>
        </extensions>
      </trkpt>
      <trkpt lat="47.5393963046371936798095703125" lon="11.0293400287628173828125">
        <ele>1441.4000244140625</ele>
        <time>2026-09-01T09:37:30.000Z</time>
        <extensions>
          <ns3:TrackPointExtension>
            <ns3:hr>136</ns3:hr>
            <ns3:cad>55</ns3:cad>
          </ns3:TrackPointExtension>
        </extensions>
      </trkpt>
      <trkpt lat="47.5393899343907833099365234375" lon="11.0293252766132354736328125">
        <ele>1441.4000244140625</ele>
        <time>2026-09-01T09:37:31.000Z</time>
        <extensions>
          <ns3:TrackPointExtension>
            <ns3:hr>137</ns3:hr>
            <ns3:cad>55</ns3:cad>
          </ns3:TrackPointExtension>
        </extensions>
      </trkpt>
      <trkpt lat="47.53938381560146808624267578125" lon="11.029317565262317657470703125">
        <ele>1441.4000244140625</ele>
        <time>2026-09-01T09:37:32.000Z</time>
        <extensions>
          <ns3:TrackPointExtension>
            <ns3:hr>138</ns3:hr>
            <ns3:cad>52</ns3:cad>
          </ns3:TrackPointExtension>
        </extensions>
      </trkpt>
      <trkpt lat="47.5393746793270111083984375" lon="11.02929920889437198638916015625">
        <ele>1441.199951171875</ele>
        <time>2026-09-01T09:37:33.000Z</time>
        <extensions>
          <ns3:TrackPointExtension>
            <ns3:hr>138</ns3:hr>
            <ns3:cad>52</ns3:cad>
          </ns3:TrackPointExtension>
        </extensions>
      </trkpt>
      <trkpt lat="47.5393647886812686920166015625" lon="11.029285378754138946533203125">
        <ele>1441.4000244140625</ele>
        <time>2026-09-01T09:37:34.000Z</time>
        <extensions>
          <ns3:TrackPointExtension>
            <ns3:hr>139</ns3:hr>
            <ns3:cad>52</ns3:cad>
          </ns3:TrackPointExtension>
        </extensions>
      </trkpt>
      <trkpt lat="47.53935531713068485260009765625" lon="11.02927624247968196868896484375">
        <ele>1441.5999755859375</ele>
        <time>2026-09-01T09:37:35.000Z</time>
        <extensions>
          <ns3:TrackPointExtension>
            <ns3:hr>139</ns3:hr>
            <ns3:cad>51</ns3:cad>
          </ns3:TrackPointExtension>
        </extensions>
      </trkpt>
      <trkpt lat="47.5393413193523883819580078125" lon="11.029263921082019805908203125">
        <ele>1441.800048828125</ele>
        <time>2026-09-01T09:37:36.000Z</time>
        <extensions>
          <ns3:TrackPointExtension>
            <ns3:hr>139</ns3:hr>
            <ns3:cad>51</ns3:cad>
          </ns3:TrackPointExtension>
        </extensions>
      </trkpt>
      <trkpt lat="47.539322376251220703125" lon="11.02922477759420871734619140625">
        <ele>1442</ele>
        <time>2026-09-01T09:37:37.000Z</time>
        <extensions>
          <ns3:TrackPointExtension>
            <ns3:hr>138</ns3:hr>
            <ns3:cad>51</ns3:cad>
          </ns3:TrackPointExtension>
        </extensions>
      </trkpt>
      <trkpt lat="47.539322376251220703125" lon="11.02922477759420871734619140625">
        <ele>1442.199951171875</ele>
        <time>2026-09-01T09:37:38.000Z</time>
        <extensions>
          <ns3:TrackPointExtension>
            <ns3:hr>137</ns3:hr>
            <ns3:cad>71</ns3:cad>
          </ns3:TrackPointExtension>
        </extensions>
      </trkpt>
      <trkpt lat="47.5393081270158290863037109375" lon="11.029192171990871429443359375">
        <ele>1442</ele>
        <time>2026-09-01T09:37:39.000Z</time>
        <extensions>
          <ns3:TrackPointExtension>
            <ns3:hr>135</ns3:hr>
            <ns3:cad>71</ns3:cad>
          </ns3:TrackPointExtension>
        </extensions>
      </trkpt>
      <trkpt lat="47.53930318169295787811279296875" lon="11.02916476316750049591064453125">
        <ele>1441.4000244140625</ele>
        <time>2026-09-01T09:37:40.000Z</time>
        <extensions>
          <ns3:TrackPointExtension>
            <ns3:hr>135</ns3:hr>
            <ns3:cad>71</ns3:cad>
          </ns3:TrackPointExtension>
        </extensions>
      </trkpt>
      <trkpt lat="47.5392937101423740386962890625" lon="11.0291098617017269134521484375">
        <ele>1440.5999755859375</ele>
        <time>2026-09-01T09:37:41.000Z</time>
        <extensions>
          <ns3:TrackPointExtension>
            <ns3:hr>134</ns3:hr>
            <ns3:cad>83</ns3:cad>
          </ns3:TrackPointExtension>
        </extensions>
      </trkpt>
      <trkpt lat="47.53927736543118953704833984375" lon="11.02908396162092685699462890625">
        <ele>1439.5999755859375</ele>
        <time>2026-09-01T09:37:42.000Z</time>
        <extensions>
          <ns3:TrackPointExtension>
            <ns3:hr>134</ns3:hr>
            <ns3:cad>83</ns3:cad>
          </ns3:TrackPointExtension>
        </extensions>
      </trkpt>
      <trkpt lat="47.53926378674805164337158203125" lon="11.02905512787401676177978515625">
        <ele>1439</ele>
        <time>2026-09-01T09:37:43.000Z</time>
        <extensions>
          <ns3:TrackPointExtension>
            <ns3:hr>134</ns3:hr>
            <ns3:cad>82</ns3:cad>
          </ns3:TrackPointExtension>
        </extensions>
      </trkpt>
      <trkpt lat="47.53925976343452930450439453125" lon="11.029033251106739044189453125">
        <ele>1438.4000244140625</ele>
        <time>2026-09-01T09:37:44.000Z</time>
        <extensions>
          <ns3:TrackPointExtension>
            <ns3:hr>134</ns3:hr>
            <ns3:cad>82</ns3:cad>
          </ns3:TrackPointExtension>
        </extensions>
      </trkpt>
      <trkpt lat="47.5392551533877849578857421875" lon="11.02899645455181598663330078125">
        <ele>1437.800048828125</ele>
        <time>2026-09-01T09:37:45.000Z</time>
        <extensions>
          <ns3:TrackPointExtension>
            <ns3:hr>135</ns3:hr>
            <ns3:cad>83</ns3:cad>
          </ns3:TrackPointExtension>
        </extensions>
      </trkpt>
      <trkpt lat="47.53926931880414485931396484375" lon="11.028967536985874176025390625">
        <ele>1437.4000244140625</ele>
        <time>2026-09-01T09:37:46.000Z</time>
        <extensions>
          <ns3:TrackPointExtension>
            <ns3:hr>136</ns3:hr>
            <ns3:cad>83</ns3:cad>
          </ns3:TrackPointExtension>
        </extensions>
      </trkpt>
      <trkpt lat="47.53927669487893581390380859375" lon="11.0289351828396320343017578125">
        <ele>1437</ele>
        <time>2026-09-01T09:37:47.000Z</time>
        <extensions>
          <ns3:TrackPointExtension>
            <ns3:hr>136</ns3:hr>
            <ns3:cad>83</ns3:cad>
          </ns3:TrackPointExtension>
        </extensions>
      </trkpt>
      <trkpt lat="47.539285160601139068603515625" lon="11.02889654226601123809814453125">
        <ele>1436.4000244140625</ele>
        <time>2026-09-01T09:37:48.000Z</time>
        <extensions>
          <ns3:TrackPointExtension>
            <ns3:hr>136</ns3:hr>
            <ns3:cad>85</ns3:cad>
          </ns3:TrackPointExtension>
        </extensions>
      </trkpt>
      <trkpt lat="47.53929354250431060791015625" lon="11.0288657806813716888427734375">
        <ele>1435.800048828125</ele>
        <time>2026-09-01T09:37:49.000Z</time>
        <extensions>
          <ns3:TrackPointExtension>
            <ns3:hr>136</ns3:hr>
            <ns3:cad>85</ns3:cad>
          </ns3:TrackPointExtension>
        </extensions>
      </trkpt>
      <trkpt lat="47.53931173123419284820556640625" lon="11.02882864885032176971435546875">
        <ele>1435.199951171875</ele>
        <time>2026-09-01T09:37:50.000Z</time>
        <extensions>
          <ns3:TrackPointExtension>
            <ns3:hr>137</ns3:hr>
            <ns3:cad>85</ns3:cad>
          </ns3:TrackPointExtension>
        </extensions>
      </trkpt>
      <trkpt lat="47.5393275730311870574951171875" lon="11.02879746817052364349365234375">
        <ele>1434.800048828125</ele>
        <time>2026-09-01T09:37:51.000Z</time>
        <extensions>
          <ns3:TrackPointExtension>
            <ns3:hr>137</ns3:hr>
            <ns3:cad>86</ns3:cad>
          </ns3:TrackPointExtension>
        </extensions>
      </trkpt>
      <trkpt lat="47.53934659995138645172119140625" lon="11.02876377291977405548095703125">
        <ele>1434.199951171875</ele>
        <time>2026-09-01T09:37:52.000Z</time>
        <extensions>
          <ns3:TrackPointExtension>
            <ns3:hr>137</ns3:hr>
            <ns3:cad>86</ns3:cad>
          </ns3:TrackPointExtension>
        </extensions>
      </trkpt>
      <trkpt lat="47.53936470486223697662353515625" lon="11.02872337214648723602294921875">
        <ele>1433.800048828125</ele>
        <time>2026-09-01T09:37:53.000Z</time>
        <extensions>
          <ns3:TrackPointExtension>
            <ns3:hr>137</ns3:hr>
            <ns3:cad>89</ns3:cad>
          </ns3:TrackPointExtension>
        </extensions>
      </trkpt>
      <trkpt lat="47.53937275148928165435791015625" lon="11.0287041775882244110107421875">
        <ele>1433.4000244140625</ele>
        <time>2026-09-01T09:37:54.000Z</time>
        <extensions>
          <ns3:TrackPointExtension>
            <ns3:hr>137</ns3:hr>
            <ns3:cad>89</ns3:cad>
          </ns3:TrackPointExtension>
        </extensions>
      </trkpt>
      <trkpt lat="47.5393827259540557861328125" lon="11.0286575742065906524658203125">
        <ele>1432.800048828125</ele>
        <time>2026-09-01T09:37:55.000Z</time>
        <extensions>
          <ns3:TrackPointExtension>
            <ns3:hr>138</ns3:hr>
            <ns3:cad>89</ns3:cad>
          </ns3:TrackPointExtension>
        </extensions>
      </trkpt>
      <trkpt lat="47.5393865816295146942138671875" lon="11.028618514537811279296875">
        <ele>1432.199951171875</ele>
        <time>2026-09-01T09:37:56.000Z</time>
        <extensions>
          <ns3:TrackPointExtension>
            <ns3:hr>137</ns3:hr>
            <ns3:cad>88</ns3:cad>
          </ns3:TrackPointExtension>
        </extensions>
      </trkpt>
      <trkpt lat="47.53938348032534122467041015625" lon="11.02858641184866428375244140625">
        <ele>1431.800048828125</ele>
        <time>2026-09-01T09:37:57.000Z</time>
        <extensions>
          <ns3:TrackPointExtension>
            <ns3:hr>136</ns3:hr>
            <ns3:cad>86</ns3:cad>
          </ns3:TrackPointExtension>
        </extensions>
      </trkpt>
      <trkpt lat="47.5393835641443729400634765625" lon="11.0285412333905696868896484375">
        <ele>1431.800048828125</ele>
        <time>2026-09-01T09:37:58.000Z</time>
        <extensions>
          <ns3:TrackPointExtension>
            <ns3:hr>135</ns3:hr>
            <ns3:cad>86</ns3:cad>
          </ns3:TrackPointExtension>
        </extensions>
      </trkpt>
      <trkpt lat="47.53936973400413990020751953125" lon="11.02851734496653079986572265625">
        <ele>1432</ele>
        <time>2026-09-01T09:37:59.000Z</time>
        <extensions>
          <ns3:TrackPointExtension>
            <ns3:hr>134</ns3:hr>
            <ns3:cad>83</ns3:cad>
          </ns3:TrackPointExtension>
        </extensions>
      </trkpt>
      <trkpt lat="47.53935917280614376068115234375" lon="11.0284929536283016204833984375">
        <ele>1432.4000244140625</ele>
        <time>2026-09-01T09:38:00.000Z</time>
        <extensions>
          <ns3:TrackPointExtension>
            <ns3:hr>135</ns3:hr>
            <ns3:cad>83</ns3:cad>
          </ns3:TrackPointExtension>
        </extensions>
      </trkpt>
      <trkpt lat="47.53935598768293857574462890625" lon="11.02846152149140834808349609375">
        <ele>1432.800048828125</ele>
        <time>2026-09-01T09:38:01.000Z</time>
        <extensions>
          <ns3:TrackPointExtension>
            <ns3:hr>135</ns3:hr>
            <ns3:cad>83</ns3:cad>
          </ns3:TrackPointExtension>
        </extensions>
      </trkpt>
      <trkpt lat="47.53934777341783046722412109375" lon="11.0284312628209590911865234375">
        <ele>1433.199951171875</ele>
        <time>2026-09-01T09:38:02.000Z</time>
        <extensions>
          <ns3:TrackPointExtension>
            <ns3:hr>136</ns3:hr>
            <ns3:cad>83</ns3:cad>
          </ns3:TrackPointExtension>
        </extensions>
      </trkpt>
      <trkpt lat="47.539340816438198089599609375" lon="11.02839563973248004913330078125">
        <ele>1433.5999755859375</ele>
        <time>2026-09-01T09:38:03.000Z</time>
        <extensions>
          <ns3:TrackPointExtension>
            <ns3:hr>136</ns3:hr>
            <ns3:cad>82</ns3:cad>
          </ns3:TrackPointExtension>
        </extensions>
      </trkpt>
      <trkpt lat="47.5393198616802692413330078125" lon="11.028374768793582916259765625">
        <ele>1434</ele>
        <time>2026-09-01T09:38:04.000Z</time>
        <extensions>
          <ns3:TrackPointExtension>
            <ns3:hr>136</ns3:hr>
            <ns3:cad>80</ns3:cad>
          </ns3:TrackPointExtension>
        </extensions>
      </trkpt>
      <trkpt lat="47.5393118150532245635986328125" lon="11.02834551595151424407958984375">
        <ele>1434.199951171875</ele>
        <time>2026-09-01T09:38:05.000Z</time>
        <extensions>
          <ns3:TrackPointExtension>
            <ns3:hr>136</ns3:hr>
            <ns3:cad>80</ns3:cad>
          </ns3:TrackPointExtension>
        </extensions>
      </trkpt>
      <trkpt lat="47.5392953865230083465576171875" lon="11.02832875214517116546630859375">
        <ele>1434.199951171875</ele>
        <time>2026-09-01T09:38:06.000Z</time>
        <extensions>
          <ns3:TrackPointExtension>
            <ns3:hr>137</ns3:hr>
            <ns3:cad>78</ns3:cad>
          </ns3:TrackPointExtension>
        </extensions>
      </trkpt>
      <trkpt lat="47.5392729230225086212158203125" lon="11.02828717790544033050537109375">
        <ele>1434</ele>
        <time>2026-09-01T09:38:07.000Z</time>
        <extensions>
          <ns3:TrackPointExtension>
            <ns3:hr>137</ns3:hr>
            <ns3:cad>78</ns3:cad>
          </ns3:TrackPointExtension>
        </extensions>
      </trkpt>
      <trkpt lat="47.5392531417310237884521484375" lon="11.02825934998691082000732421875">
        <ele>1433.5999755859375</ele>
        <time>2026-09-01T09:38:08.000Z</time>
        <extensions>
          <ns3:TrackPointExtension>
            <ns3:hr>137</ns3:hr>
            <ns3:cad>78</ns3:cad>
          </ns3:TrackPointExtension>
        </extensions>
      </trkpt>
      <trkpt lat="47.5392155908048152923583984375" lon="11.02822632528841495513916015625">
        <ele>1433.199951171875</ele>
        <time>2026-09-01T09:38:09.000Z</time>
        <extensions>
          <ns3:TrackPointExtension>
            <ns3:hr>137</ns3:hr>
            <ns3:cad>78</ns3:cad>
          </ns3:TrackPointExtension>
        </extensions>
      </trkpt>
      <trkpt lat="47.5391887687146663665771484375" lon="11.02819615043699741363525390625">
        <ele>1433</ele>
        <time>2026-09-01T09:38:10.000Z</time>
        <extensions>
          <ns3:TrackPointExtension>
            <ns3:hr>138</ns3:hr>
            <ns3:cad>79</ns3:cad>
          </ns3:TrackPointExtension>
        </extensions>
      </trkpt>
      <trkpt lat="47.539166472852230072021484375" lon="11.02815725840628147125244140625">
        <ele>1432.5999755859375</ele>
        <time>2026-09-01T09:38:11.000Z</time>
        <extensions>
          <ns3:TrackPointExtension>
            <ns3:hr>138</ns3:hr>
            <ns3:cad>83</ns3:cad>
          </ns3:TrackPointExtension>
        </extensions>
      </trkpt>
      <trkpt lat="47.5391466915607452392578125" lon="11.02812155149877071380615234375">
        <ele>1432.4000244140625</ele>
        <time>2026-09-01T09:38:12.000Z</time>
        <extensions>
          <ns3:TrackPointExtension>
            <ns3:hr>138</ns3:hr>
            <ns3:cad>84</ns3:cad>
          </ns3:TrackPointExtension>
        </extensions>
      </trkpt>
      <trkpt lat="47.53912456333637237548828125" lon="11.028079725801944732666015625">
        <ele>1432.4000244140625</ele>
        <time>2026-09-01T09:38:13.000Z</time>
        <extensions>
          <ns3:TrackPointExtension>
            <ns3:hr>139</ns3:hr>
            <ns3:cad>85</ns3:cad>
          </ns3:TrackPointExtension>
        </extensions>
      </trkpt>
      <trkpt lat="47.5391123257577419281005859375" lon="11.0280232317745685577392578125">
        <ele>1432.4000244140625</ele>
        <time>2026-09-01T09:38:14.000Z</time>
        <extensions>
          <ns3:TrackPointExtension>
            <ns3:hr>138</ns3:hr>
            <ns3:cad>85</ns3:cad>
          </ns3:TrackPointExtension>
        </extensions>
      </trkpt>
      <trkpt lat="47.5390975736081600189208984375" lon="11.02798107080161571502685546875">
        <ele>1432.4000244140625</ele>
        <time>2026-09-01T09:38:15.000Z</time>
        <extensions>
          <ns3:TrackPointExtension>
            <ns3:hr>138</ns3:hr>
            <ns3:cad>86</ns3:cad>
          </ns3:TrackPointExtension>
        </extensions>
      </trkpt>
      <trkpt lat="47.53908709622919559478759765625" lon="11.02792541496455669403076171875">
        <ele>1432.4000244140625</ele>
        <time>2026-09-01T09:38:16.000Z</time>
        <extensions>
          <ns3:TrackPointExtension>
            <ns3:hr>137</ns3:hr>
            <ns3:cad>86</ns3:cad>
          </ns3:TrackPointExtension>
        </extensions>
      </trkpt>
      <trkpt lat="47.5390781275928020477294921875" lon="11.02786825038492679595947265625">
        <ele>1432.199951171875</ele>
        <time>2026-09-01T09:38:17.000Z</time>
        <extensions>
          <ns3:TrackPointExtension>
            <ns3:hr>137</ns3:hr>
            <ns3:cad>85</ns3:cad>
          </ns3:TrackPointExtension>
        </extensions>
      </trkpt>
      <trkpt lat="47.53906932659447193145751953125" lon="11.027829609811305999755859375">
        <ele>1432</ele>
        <time>2026-09-01T09:38:18.000Z</time>
        <extensions>
          <ns3:TrackPointExtension>
            <ns3:hr>138</ns3:hr>
            <ns3:cad>83</ns3:cad>
          </ns3:TrackPointExtension>
        </extensions>
      </trkpt>
      <trkpt lat="47.5390462763607501983642578125" lon="11.02780119515955448150634765625">
        <ele>1431.5999755859375</ele>
        <time>2026-09-01T09:38:19.000Z</time>
        <extensions>
          <ns3:TrackPointExtension>
            <ns3:hr>139</ns3:hr>
            <ns3:cad>82</ns3:cad>
          </ns3:TrackPointExtension>
        </extensions>
      </trkpt>
      <trkpt lat="47.5390367209911346435546875" lon="11.0277637280523777008056640625">
        <ele>1431.4000244140625</ele>
        <time>2026-09-01T09:38:20.000Z</time>
        <extensions>
          <ns3:TrackPointExtension>
            <ns3:hr>140</ns3:hr>
            <ns3:cad>82</ns3:cad>
          </ns3:TrackPointExtension>
        </extensions>
      </trkpt>
      <trkpt lat="47.5390261597931385040283203125" lon="11.0277385823428630828857421875">
        <ele>1431.4000244140625</ele>
        <time>2026-09-01T09:38:21.000Z</time>
        <extensions>
          <ns3:TrackPointExtension>
            <ns3:hr>141</ns3:hr>
            <ns3:cad>83</ns3:cad>
          </ns3:TrackPointExtension>
        </extensions>
      </trkpt>
      <trkpt lat="47.53901685588061809539794921875" lon="11.02769558317959308624267578125">
        <ele>1431.800048828125</ele>
        <time>2026-09-01T09:38:22.000Z</time>
        <extensions>
          <ns3:TrackPointExtension>
            <ns3:hr>142</ns3:hr>
            <ns3:cad>83</ns3:cad>
          </ns3:TrackPointExtension>
        </extensions>
      </trkpt>
      <trkpt lat="47.5390072166919708251953125" lon="11.027661301195621490478515625">
        <ele>1432</ele>
        <time>2026-09-01T09:38:23.000Z</time>
        <extensions>
          <ns3:TrackPointExtension>
            <ns3:hr>143</ns3:hr>
            <ns3:cad>82</ns3:cad>
          </ns3:TrackPointExtension>
        </extensions>
      </trkpt>
      <trkpt lat="47.53899774514138698577880859375" lon="11.02763087488710880279541015625">
        <ele>1432.199951171875</ele>
        <time>2026-09-01T09:38:24.000Z</time>
        <extensions>
          <ns3:TrackPointExtension>
            <ns3:hr>143</ns3:hr>
            <ns3:cad>81</ns3:cad>
          </ns3:TrackPointExtension>
        </extensions>
      </trkpt>
      <trkpt lat="47.53898911178112030029296875" lon="11.027594916522502899169921875">
        <ele>1432.199951171875</ele>
        <time>2026-09-01T09:38:25.000Z</time>
        <extensions>
          <ns3:TrackPointExtension>
            <ns3:hr>144</ns3:hr>
            <ns3:cad>81</ns3:cad>
          </ns3:TrackPointExtension>
        </extensions>
      </trkpt>
      <trkpt lat="47.53898265771567821502685546875" lon="11.02756029926240444183349609375">
        <ele>1432</ele>
        <time>2026-09-01T09:38:26.000Z</time>
        <extensions>
          <ns3:TrackPointExtension>
            <ns3:hr>144</ns3:hr>
            <ns3:cad>81</ns3:cad>
          </ns3:TrackPointExtension>
        </extensions>
      </trkpt>
      <trkpt lat="47.538988105952739715576171875" lon="11.027508415281772613525390625">
        <ele>1431.800048828125</ele>
        <time>2026-09-01T09:38:27.000Z</time>
        <extensions>
          <ns3:TrackPointExtension>
            <ns3:hr>144</ns3:hr>
            <ns3:cad>81</ns3:cad>
          </ns3:TrackPointExtension>
        </extensions>
      </trkpt>
      <trkpt lat="47.53899556584656238555908203125" lon="11.02745921351015567779541015625">
        <ele>1431.5999755859375</ele>
        <time>2026-09-01T09:38:28.000Z</time>
        <extensions>
          <ns3:TrackPointExtension>
            <ns3:hr>145</ns3:hr>
            <ns3:cad>81</ns3:cad>
          </ns3:TrackPointExtension>
        </extensions>
      </trkpt>
      <trkpt lat="47.538998834788799285888671875" lon="11.02741160430014133453369140625">
        <ele>1431.4000244140625</ele>
        <time>2026-09-01T09:38:29.000Z</time>
        <extensions>
          <ns3:TrackPointExtension>
            <ns3:hr>145</ns3:hr>
            <ns3:cad>80</ns3:cad>
          </ns3:TrackPointExtension>
        </extensions>
      </trkpt>
      <trkpt lat="47.53900193609297275543212890625" lon="11.02737019769847393035888671875">
        <ele>1431.199951171875</ele>
        <time>2026-09-01T09:38:30.000Z</time>
        <extensions>
          <ns3:TrackPointExtension>
            <ns3:hr>145</ns3:hr>
            <ns3:cad>80</ns3:cad>
          </ns3:TrackPointExtension>
        </extensions>
      </trkpt>
      <trkpt lat="47.539014257490634918212890625" lon="11.02732225321233272552490234375">
        <ele>1431</ele>
        <time>2026-09-01T09:38:31.000Z</time>
        <extensions>
          <ns3:TrackPointExtension>
            <ns3:hr>146</ns3:hr>
            <ns3:cad>80</ns3:cad>
          </ns3:TrackPointExtension>
        </extensions>
      </trkpt>
      <trkpt lat="47.53901937045156955718994140625" lon="11.02729224599897861480712890625">
        <ele>1431</ele>
        <time>2026-09-01T09:38:32.000Z</time>
        <extensions>
          <ns3:TrackPointExtension>
            <ns3:hr>146</ns3:hr>
            <ns3:cad>80</ns3:cad>
          </ns3:TrackPointExtension>
        </extensions>
      </trkpt>
      <trkpt lat="47.5390342064201831817626953125" lon="11.02724857628345489501953125">
        <ele>1431</ele>
        <time>2026-09-01T09:38:33.000Z</time>
        <extensions>
          <ns3:TrackPointExtension>
            <ns3:hr>146</ns3:hr>
            <ns3:cad>80</ns3:cad>
          </ns3:TrackPointExtension>
        </extensions>
      </trkpt>
      <trkpt lat="47.53904485143721103668212890625" lon="11.0272048227488994598388671875">
        <ele>1431.199951171875</ele>
        <time>2026-09-01T09:38:34.000Z</time>
        <extensions>
          <ns3:TrackPointExtension>
            <ns3:hr>147</ns3:hr>
            <ns3:cad>80</ns3:cad>
          </ns3:TrackPointExtension>
        </extensions>
      </trkpt>
      <trkpt lat="47.5390372239053249359130859375" lon="11.02716601453721523284912109375">
        <ele>1431</ele>
        <time>2026-09-01T09:38:35.000Z</time>
        <extensions>
          <ns3:TrackPointExtension>
            <ns3:hr>147</ns3:hr>
            <ns3:cad>82</ns3:cad>
          </ns3:TrackPointExtension>
        </extensions>
      </trkpt>
      <trkpt lat="47.5390352122485637664794921875" lon="11.0271233506500720977783203125">
        <ele>1430.800048828125</ele>
        <time>2026-09-01T09:38:36.000Z</time>
        <extensions>
          <ns3:TrackPointExtension>
            <ns3:hr>147</ns3:hr>
            <ns3:cad>82</ns3:cad>
          </ns3:TrackPointExtension>
        </extensions>
      </trkpt>
      <trkpt lat="47.5390368886291980743408203125" lon="11.02708571590483188629150390625">
        <ele>1430.4000244140625</ele>
        <time>2026-09-01T09:38:37.000Z</time>
        <extensions>
          <ns3:TrackPointExtension>
            <ns3:hr>148</ns3:hr>
            <ns3:cad>80</ns3:cad>
          </ns3:TrackPointExtension>
        </extensions>
      </trkpt>
      <trkpt lat="47.53903261385858058929443359375" lon="11.0270561277866363525390625">
        <ele>1429.800048828125</ele>
        <time>2026-09-01T09:38:38.000Z</time>
        <extensions>
          <ns3:TrackPointExtension>
            <ns3:hr>148</ns3:hr>
            <ns3:cad>80</ns3:cad>
          </ns3:TrackPointExtension>
        </extensions>
      </trkpt>
      <trkpt lat="47.53903470933437347412109375" lon="11.0270204208791255950927734375">
        <ele>1429.4000244140625</ele>
        <time>2026-09-01T09:38:39.000Z</time>
        <extensions>
          <ns3:TrackPointExtension>
            <ns3:hr>149</ns3:hr>
            <ns3:cad>80</ns3:cad>
          </ns3:TrackPointExtension>
        </extensions>
      </trkpt>
      <trkpt lat="47.53903429023921489715576171875" lon="11.02700072340667247772216796875">
        <ele>1429</ele>
        <time>2026-09-01T09:38:40.000Z</time>
        <extensions>
          <ns3:TrackPointExtension>
            <ns3:hr>149</ns3:hr>
            <ns3:cad>80</ns3:cad>
          </ns3:TrackPointExtension>
        </extensions>
      </trkpt>
      <trkpt lat="47.53903764300048351287841796875" lon="11.0269828699529170989990234375">
        <ele>1428.5999755859375</ele>
        <time>2026-09-01T09:38:41.000Z</time>
        <extensions>
          <ns3:TrackPointExtension>
            <ns3:hr>149</ns3:hr>
            <ns3:cad>82</ns3:cad>
          </ns3:TrackPointExtension>
        </extensions>
      </trkpt>
      <trkpt lat="47.5390439294278621673583984375" lon="11.0269649326801300048828125">
        <ele>1428.4000244140625</ele>
        <time>2026-09-01T09:38:42.000Z</time>
        <extensions>
          <ns3:TrackPointExtension>
            <ns3:hr>149</ns3:hr>
            <ns3:cad>82</ns3:cad>
          </ns3:TrackPointExtension>
        </extensions>
      </trkpt>
      <trkpt lat="47.539052478969097137451171875" lon="11.02693702094256877899169921875">
        <ele>1428</ele>
        <time>2026-09-01T09:38:43.000Z</time>
        <extensions>
          <ns3:TrackPointExtension>
            <ns3:hr>149</ns3:hr>
            <ns3:cad>82</ns3:cad>
          </ns3:TrackPointExtension>
        </extensions>
      </trkpt>
      <trkpt lat="47.53905775956809520721435546875" lon="11.0269114561378955841064453125">
        <ele>1427.800048828125</ele>
        <time>2026-09-01T09:38:44.000Z</time>
        <extensions>
          <ns3:TrackPointExtension>
            <ns3:hr>149</ns3:hr>
            <ns3:cad>82</ns3:cad>
          </ns3:TrackPointExtension>
        </extensions>
      </trkpt>
      <trkpt lat="47.5390541553497314453125" lon="11.026872731745243072509765625">
        <ele>1427.4000244140625</ele>
        <time>2026-09-01T09:38:45.000Z</time>
        <extensions>
          <ns3:TrackPointExtension>
            <ns3:hr>149</ns3:hr>
            <ns3:cad>79</ns3:cad>
          </ns3:TrackPointExtension>
        </extensions>
      </trkpt>
      <trkpt lat="47.5390543229877948760986328125" lon="11.02685102261602878570556640625">
        <ele>1427.199951171875</ele>
        <time>2026-09-01T09:38:46.000Z</time>
        <extensions>
          <ns3:TrackPointExtension>
            <ns3:hr>149</ns3:hr>
            <ns3:cad>78</ns3:cad>
          </ns3:TrackPointExtension>
        </extensions>
      </trkpt>
      <trkpt lat="47.53905910067260265350341796875" lon="11.026823110878467559814453125">
        <ele>1427</ele>
        <time>2026-09-01T09:38:47.000Z</time>
        <extensions>
          <ns3:TrackPointExtension>
            <ns3:hr>149</ns3:hr>
            <ns3:cad>78</ns3:cad>
          </ns3:TrackPointExtension>
        </extensions>
      </trkpt>
      <trkpt lat="47.53906689584255218505859375" lon="11.0267879068851470947265625">
        <ele>1426.800048828125</ele>
        <time>2026-09-01T09:38:48.000Z</time>
        <extensions>
          <ns3:TrackPointExtension>
            <ns3:hr>149</ns3:hr>
            <ns3:cad>80</ns3:cad>
          </ns3:TrackPointExtension>
        </extensions>
      </trkpt>
      <trkpt lat="47.539065219461917877197265625" lon="11.026753373444080352783203125">
        <ele>1426.800048828125</ele>
        <time>2026-09-01T09:38:49.000Z</time>
        <extensions>
          <ns3:TrackPointExtension>
            <ns3:hr>148</ns3:hr>
            <ns3:cad>81</ns3:cad>
          </ns3:TrackPointExtension>
        </extensions>
      </trkpt>
      <trkpt lat="47.53907016478478908538818359375" lon="11.02670886553823947906494140625">
        <ele>1426.5999755859375</ele>
        <time>2026-09-01T09:38:50.000Z</time>
        <extensions>
          <ns3:TrackPointExtension>
            <ns3:hr>148</ns3:hr>
            <ns3:cad>82</ns3:cad>
          </ns3:TrackPointExtension>
        </extensions>
      </trkpt>
      <trkpt lat="47.5390771217644214630126953125" lon="11.02668036706745624542236328125">
        <ele>1426.4000244140625</ele>
        <time>2026-09-01T09:38:51.000Z</time>
        <extensions>
          <ns3:TrackPointExtension>
            <ns3:hr>148</ns3:hr>
            <ns3:cad>82</ns3:cad>
          </ns3:TrackPointExtension>
        </extensions>
      </trkpt>
      <trkpt lat="47.5390918739140033721923828125" lon="11.026641391217708587646484375">
        <ele>1426</ele>
        <time>2026-09-01T09:38:52.000Z</time>
        <extensions>
          <ns3:TrackPointExtension>
            <ns3:hr>148</ns3:hr>
            <ns3:cad>82</ns3:cad>
          </ns3:TrackPointExtension>
        </extensions>
      </trkpt>
      <trkpt lat="47.5391032733023166656494140625" lon="11.02660107426345348358154296875">
        <ele>1425.5999755859375</ele>
        <time>2026-09-01T09:38:53.000Z</time>
        <extensions>
          <ns3:TrackPointExtension>
            <ns3:hr>148</ns3:hr>
            <ns3:cad>82</ns3:cad>
          </ns3:TrackPointExtension>
        </extensions>
      </trkpt>
      <trkpt lat="47.539116181433200836181640625" lon="11.02654709480702877044677734375">
        <ele>1425.199951171875</ele>
        <time>2026-09-01T09:38:54.000Z</time>
        <extensions>
          <ns3:TrackPointExtension>
            <ns3:hr>148</ns3:hr>
            <ns3:cad>80</ns3:cad>
          </ns3:TrackPointExtension>
        </extensions>
      </trkpt>
      <trkpt lat="47.53911919891834259033203125" lon="11.02650216780602931976318359375">
        <ele>1424.5999755859375</ele>
        <time>2026-09-01T09:38:55.000Z</time>
        <extensions>
          <ns3:TrackPointExtension>
            <ns3:hr>148</ns3:hr>
            <ns3:cad>80</ns3:cad>
          </ns3:TrackPointExtension>
        </extensions>
      </trkpt>
      <trkpt lat="47.53912548534572124481201171875" lon="11.02645891718566417694091796875">
        <ele>1424.199951171875</ele>
        <time>2026-09-01T09:38:56.000Z</time>
        <extensions>
          <ns3:TrackPointExtension>
            <ns3:hr>148</ns3:hr>
            <ns3:cad>80</ns3:cad>
          </ns3:TrackPointExtension>
        </extensions>
      </trkpt>
      <trkpt lat="47.5391354598104953765869140625" lon="11.02642036043107509613037109375">
        <ele>1423.800048828125</ele>
        <time>2026-09-01T09:38:57.000Z</time>
        <extensions>
          <ns3:TrackPointExtension>
            <ns3:hr>148</ns3:hr>
            <ns3:cad>81</ns3:cad>
          </ns3:TrackPointExtension>
        </extensions>
      </trkpt>
      <trkpt lat="47.5391421653330326080322265625" lon="11.02638482116162776947021484375">
        <ele>1423.4000244140625</ele>
        <time>2026-09-01T09:38:58.000Z</time>
        <extensions>
          <ns3:TrackPointExtension>
            <ns3:hr>148</ns3:hr>
            <ns3:cad>81</ns3:cad>
          </ns3:TrackPointExtension>
        </extensions>
      </trkpt>
      <trkpt lat="47.53915230743587017059326171875" lon="11.02633771486580371856689453125">
        <ele>1423</ele>
        <time>2026-09-01T09:38:59.000Z</time>
        <extensions>
          <ns3:TrackPointExtension>
            <ns3:hr>148</ns3:hr>
            <ns3:cad>81</ns3:cad>
          </ns3:TrackPointExtension>
        </extensions>
      </trkpt>
      <trkpt lat="47.53916077315807342529296875" lon="11.0262930393218994140625">
        <ele>1422.4000244140625</ele>
        <time>2026-09-01T09:39:00.000Z</time>
        <extensions>
          <ns3:TrackPointExtension>
            <ns3:hr>148</ns3:hr>
            <ns3:cad>81</ns3:cad>
          </ns3:TrackPointExtension>
        </extensions>
      </trkpt>
      <trkpt lat="47.539169825613498687744140625" lon="11.02624802850186824798583984375">
        <ele>1422</ele>
        <time>2026-09-01T09:39:01.000Z</time>
        <extensions>
          <ns3:TrackPointExtension>
            <ns3:hr>148</ns3:hr>
            <ns3:cad>81</ns3:cad>
          </ns3:TrackPointExtension>
        </extensions>
      </trkpt>
      <trkpt lat="47.53918482922017574310302734375" lon="11.02618901990354061126708984375">
        <ele>1421.5999755859375</ele>
        <time>2026-09-01T09:39:02.000Z</time>
        <extensions>
          <ns3:TrackPointExtension>
            <ns3:hr>148</ns3:hr>
            <ns3:cad>81</ns3:cad>
          </ns3:TrackPointExtension>
        </extensions>
      </trkpt>
      <trkpt lat="47.5391961447894573211669921875" lon="11.02613990195095539093017578125">
        <ele>1421.199951171875</ele>
        <time>2026-09-01T09:39:03.000Z</time>
        <extensions>
          <ns3:TrackPointExtension>
            <ns3:hr>148</ns3:hr>
            <ns3:cad>81</ns3:cad>
          </ns3:TrackPointExtension>
        </extensions>
      </trkpt>
      <trkpt lat="47.5391984917223453521728515625" lon="11.026096902787685394287109375">
        <ele>1421</ele>
        <time>2026-09-01T09:39:04.000Z</time>
        <extensions>
          <ns3:TrackPointExtension>
            <ns3:hr>149</ns3:hr>
            <ns3:cad>81</ns3:cad>
          </ns3:TrackPointExtension>
        </extensions>
      </trkpt>
      <trkpt lat="47.5391897745430469512939453125" lon="11.02602289058268070220947265625">
        <ele>1420.5999755859375</ele>
        <time>2026-09-01T09:39:05.000Z</time>
        <extensions>
          <ns3:TrackPointExtension>
            <ns3:hr>148</ns3:hr>
            <ns3:cad>81</ns3:cad>
          </ns3:TrackPointExtension>
        </extensions>
      </trkpt>
      <trkpt lat="47.5391706638038158416748046875" lon="11.02595650590956211090087890625">
        <ele>1420.4000244140625</ele>
        <time>2026-09-01T09:39:06.000Z</time>
        <extensions>
          <ns3:TrackPointExtension>
            <ns3:hr>149</ns3:hr>
            <ns3:cad>81</ns3:cad>
          </ns3:TrackPointExtension>
        </extensions>
      </trkpt>
      <trkpt lat="47.5391696579754352569580078125" lon="11.0258979164063930511474609375">
        <ele>1419.5999755859375</ele>
        <time>2026-09-01T09:39:07.000Z</time>
        <extensions>
          <ns3:TrackPointExtension>
            <ns3:hr>149</ns3:hr>
            <ns3:cad>81</ns3:cad>
          </ns3:TrackPointExtension>
        </extensions>
      </trkpt>
      <trkpt lat="47.5391659699380397796630859375" lon="11.025860197842121124267578125">
        <ele>1419.4000244140625</ele>
        <time>2026-09-01T09:39:08.000Z</time>
        <extensions>
          <ns3:TrackPointExtension>
            <ns3:hr>149</ns3:hr>
            <ns3:cad>82</ns3:cad>
          </ns3:TrackPointExtension>
        </extensions>
      </trkpt>
      <trkpt lat="47.53916613757610321044921875" lon="11.02580814622342586517333984375">
        <ele>1419.800048828125</ele>
        <time>2026-09-01T09:39:09.000Z</time>
        <extensions>
          <ns3:TrackPointExtension>
            <ns3:hr>150</ns3:hr>
            <ns3:cad>84</ns3:cad>
          </ns3:TrackPointExtension>
        </extensions>
      </trkpt>
      <trkpt lat="47.53916680812835693359375" lon="11.02577813901007175445556640625">
        <ele>1420.199951171875</ele>
        <time>2026-09-01T09:39:10.000Z</time>
        <extensions>
          <ns3:TrackPointExtension>
            <ns3:hr>151</ns3:hr>
            <ns3:cad>84</ns3:cad>
          </ns3:TrackPointExtension>
        </extensions>
      </trkpt>
      <trkpt lat="47.53917376510798931121826171875" lon="11.025743521749973297119140625">
        <ele>1420.5999755859375</ele>
        <time>2026-09-01T09:39:11.000Z</time>
        <extensions>
          <ns3:TrackPointExtension>
            <ns3:hr>152</ns3:hr>
            <ns3:cad>87</ns3:cad>
          </ns3:TrackPointExtension>
        </extensions>
      </trkpt>
      <trkpt lat="47.53917410038411617279052734375" lon="11.02569214068353176116943359375">
        <ele>1421</ele>
        <time>2026-09-01T09:39:12.000Z</time>
        <extensions>
          <ns3:TrackPointExtension>
            <ns3:hr>152</ns3:hr>
            <ns3:cad>87</ns3:cad>
          </ns3:TrackPointExtension>
        </extensions>
      </trkpt>
      <trkpt lat="47.53917820751667022705078125" lon="11.0256467945873737335205078125">
        <ele>1421.5999755859375</ele>
        <time>2026-09-01T09:39:13.000Z</time>
        <extensions>
          <ns3:TrackPointExtension>
            <ns3:hr>152</ns3:hr>
            <ns3:cad>85</ns3:cad>
          </ns3:TrackPointExtension>
        </extensions>
      </trkpt>
      <trkpt lat="47.53918700851500034332275390625" lon="11.02561167441308498382568359375">
        <ele>1422.199951171875</ele>
        <time>2026-09-01T09:39:14.000Z</time>
        <extensions>
          <ns3:TrackPointExtension>
            <ns3:hr>152</ns3:hr>
            <ns3:cad>84</ns3:cad>
          </ns3:TrackPointExtension>
        </extensions>
      </trkpt>
      <trkpt lat="47.539193294942378997802734375" lon="11.02558434940874576568603515625">
        <ele>1422.5999755859375</ele>
        <time>2026-09-01T09:39:15.000Z</time>
        <extensions>
          <ns3:TrackPointExtension>
            <ns3:hr>152</ns3:hr>
            <ns3:cad>84</ns3:cad>
          </ns3:TrackPointExtension>
        </extensions>
      </trkpt>
      <trkpt lat="47.539197988808155059814453125" lon="11.02555744349956512451171875">
        <ele>1423</ele>
        <time>2026-09-01T09:39:16.000Z</time>
        <extensions>
          <ns3:TrackPointExtension>
            <ns3:hr>153</ns3:hr>
            <ns3:cad>83</ns3:cad>
          </ns3:TrackPointExtension>
        </extensions>
      </trkpt>
      <trkpt lat="47.53920511342585086822509765625" lon="11.025520898401737213134765625">
        <ele>1423.4000244140625</ele>
        <time>2026-09-01T09:39:17.000Z</time>
        <extensions>
          <ns3:TrackPointExtension>
            <ns3:hr>153</ns3:hr>
            <ns3:cad>82</ns3:cad>
          </ns3:TrackPointExtension>
        </extensions>
      </trkpt>
      <trkpt lat="47.5392078794538974761962890625" lon="11.02549583651125431060791015625">
        <ele>1423.5999755859375</ele>
        <time>2026-09-01T09:39:18.000Z</time>
        <extensions>
          <ns3:TrackPointExtension>
            <ns3:hr>153</ns3:hr>
            <ns3:cad>82</ns3:cad>
          </ns3:TrackPointExtension>
        </extensions>
      </trkpt>
      <trkpt lat="47.53922154195606708526611328125" lon="11.02545149624347686767578125">
        <ele>1423.800048828125</ele>
        <time>2026-09-01T09:39:19.000Z</time>
        <extensions>
          <ns3:TrackPointExtension>
            <ns3:hr>153</ns3:hr>
            <ns3:cad>82</ns3:cad>
          </ns3:TrackPointExtension>
        </extensions>
      </trkpt>
      <trkpt lat="47.53922791220247745513916015625" lon="11.02541838772594928741455078125">
        <ele>1423.800048828125</ele>
        <time>2026-09-01T09:39:20.000Z</time>
        <extensions>
          <ns3:TrackPointExtension>
            <ns3:hr>153</ns3:hr>
            <ns3:cad>82</ns3:cad>
          </ns3:TrackPointExtension>
        </extensions>
      </trkpt>
      <trkpt lat="47.53923185169696807861328125" lon="11.02538418956100940704345703125">
        <ele>1423.800048828125</ele>
        <time>2026-09-01T09:39:21.000Z</time>
        <extensions>
          <ns3:TrackPointExtension>
            <ns3:hr>153</ns3:hr>
            <ns3:cad>83</ns3:cad>
          </ns3:TrackPointExtension>
        </extensions>
      </trkpt>
      <trkpt lat="47.5392352044582366943359375" lon="11.025347225368022918701171875">
        <ele>1423.800048828125</ele>
        <time>2026-09-01T09:39:22.000Z</time>
        <extensions>
          <ns3:TrackPointExtension>
            <ns3:hr>154</ns3:hr>
            <ns3:cad>83</ns3:cad>
          </ns3:TrackPointExtension>
        </extensions>
      </trkpt>
      <trkpt lat="47.53923579119145870208740234375" lon="11.02529819123446941375732421875">
        <ele>1424</ele>
        <time>2026-09-01T09:39:23.000Z</time>
        <extensions>
          <ns3:TrackPointExtension>
            <ns3:hr>155</ns3:hr>
            <ns3:cad>83</ns3:cad>
          </ns3:TrackPointExtension>
        </extensions>
      </trkpt>
      <trkpt lat="47.53923612646758556365966796875" lon="11.02526214905083179473876953125">
        <ele>1424.199951171875</ele>
        <time>2026-09-01T09:39:24.000Z</time>
        <extensions>
          <ns3:TrackPointExtension>
            <ns3:hr>156</ns3:hr>
            <ns3:cad>83</ns3:cad>
          </ns3:TrackPointExtension>
        </extensions>
      </trkpt>
      <trkpt lat="47.5392217934131622314453125" lon="11.025206409394741058349609375">
        <ele>1424.5999755859375</ele>
        <time>2026-09-01T09:39:25.000Z</time>
        <extensions>
          <ns3:TrackPointExtension>
            <ns3:hr>157</ns3:hr>
            <ns3:cad>83</ns3:cad>
          </ns3:TrackPointExtension>
        </extensions>
      </trkpt>
      <trkpt lat="47.53922137431800365447998046875" lon="11.0251633264124393463134765625">
        <ele>1424.5999755859375</ele>
        <time>2026-09-01T09:39:26.000Z</time>
        <extensions>
          <ns3:TrackPointExtension>
            <ns3:hr>158</ns3:hr>
            <ns3:cad>83</ns3:cad>
          </ns3:TrackPointExtension>
        </extensions>
      </trkpt>
      <trkpt lat="47.5392179377377033233642578125" lon="11.0251183994114398956298828125">
        <ele>1424.800048828125</ele>
        <time>2026-09-01T09:39:27.000Z</time>
        <extensions>
          <ns3:TrackPointExtension>
            <ns3:hr>159</ns3:hr>
            <ns3:cad>82</ns3:cad>
          </ns3:TrackPointExtension>
        </extensions>
      </trkpt>
      <trkpt lat="47.5392192788422107696533203125" lon="11.02507908828556537628173828125">
        <ele>1425</ele>
        <time>2026-09-01T09:39:28.000Z</time>
        <extensions>
          <ns3:TrackPointExtension>
            <ns3:hr>160</ns3:hr>
            <ns3:cad>82</ns3:cad>
          </ns3:TrackPointExtension>
        </extensions>
      </trkpt>
      <trkpt lat="47.53922003321349620819091796875" lon="11.02504782378673553466796875">
        <ele>1425.199951171875</ele>
        <time>2026-09-01T09:39:29.000Z</time>
        <extensions>
          <ns3:TrackPointExtension>
            <ns3:hr>161</ns3:hr>
            <ns3:cad>83</ns3:cad>
          </ns3:TrackPointExtension>
        </extensions>
      </trkpt>
      <trkpt lat="47.5392239727079868316650390625" lon="11.024995855987071990966796875">
        <ele>1425.4000244140625</ele>
        <time>2026-09-01T09:39:30.000Z</time>
        <extensions>
          <ns3:TrackPointExtension>
            <ns3:hr>163</ns3:hr>
            <ns3:cad>84</ns3:cad>
          </ns3:TrackPointExtension>
        </extensions>
      </trkpt>
      <trkpt lat="47.53922673873603343963623046875" lon="11.02495989762246608734130859375">
        <ele>1425.4000244140625</ele>
        <time>2026-09-01T09:39:31.000Z</time>
        <extensions>
          <ns3:TrackPointExtension>
            <ns3:hr>164</ns3:hr>
            <ns3:cad>84</ns3:cad>
          </ns3:TrackPointExtension>
        </extensions>
      </trkpt>
      <trkpt lat="47.53923453390598297119140625" lon="11.02492352016270160675048828125">
        <ele>1425.5999755859375</ele>
        <time>2026-09-01T09:39:32.000Z</time>
        <extensions>
          <ns3:TrackPointExtension>
            <ns3:hr>165</ns3:hr>
            <ns3:cad>84</ns3:cad>
          </ns3:TrackPointExtension>
        </extensions>
      </trkpt>
      <trkpt lat="47.5392387248575687408447265625" lon="11.02488043718039989471435546875">
        <ele>1425.800048828125</ele>
        <time>2026-09-01T09:39:33.000Z</time>
        <extensions>
          <ns3:TrackPointExtension>
            <ns3:hr>167</ns3:hr>
            <ns3:cad>84</ns3:cad>
          </ns3:TrackPointExtension>
        </extensions>
      </trkpt>
      <trkpt lat="47.53923662938177585601806640625" lon="11.02485277689993381500244140625">
        <ele>1426</ele>
        <time>2026-09-01T09:39:34.000Z</time>
        <extensions>
          <ns3:TrackPointExtension>
            <ns3:hr>168</ns3:hr>
            <ns3:cad>84</ns3:cad>
          </ns3:TrackPointExtension>
        </extensions>
      </trkpt>
      <trkpt lat="47.53923947922885417938232421875" lon="11.02481522597372531890869140625">
        <ele>1426.199951171875</ele>
        <time>2026-09-01T09:39:35.000Z</time>
        <extensions>
          <ns3:TrackPointExtension>
            <ns3:hr>169</ns3:hr>
            <ns3:cad>84</ns3:cad>
          </ns3:TrackPointExtension>
        </extensions>
      </trkpt>
      <trkpt lat="47.5392407365143299102783203125" lon="11.02478094398975372314453125">
        <ele>1426.4000244140625</ele>
        <time>2026-09-01T09:39:36.000Z</time>
        <extensions>
          <ns3:TrackPointExtension>
            <ns3:hr>170</ns3:hr>
            <ns3:cad>84</ns3:cad>
          </ns3:TrackPointExtension>
        </extensions>
      </trkpt>
      <trkpt lat="47.5392432510852813720703125" lon="11.024737022817134857177734375">
        <ele>1426.5999755859375</ele>
        <time>2026-09-01T09:39:37.000Z</time>
        <extensions>
          <ns3:TrackPointExtension>
            <ns3:hr>171</ns3:hr>
            <ns3:cad>84</ns3:cad>
          </ns3:TrackPointExtension>
        </extensions>
      </trkpt>
      <trkpt lat="47.53924794495105743408203125" lon="11.02468245662748813629150390625">
        <ele>1427</ele>
        <time>2026-09-01T09:39:38.000Z</time>
        <extensions>
          <ns3:TrackPointExtension>
            <ns3:hr>173</ns3:hr>
            <ns3:cad>84</ns3:cad>
          </ns3:TrackPointExtension>
        </extensions>
      </trkpt>
      <trkpt lat="47.53924551419913768768310546875" lon="11.0246475040912628173828125">
        <ele>1427.4000244140625</ele>
        <time>2026-09-01T09:39:39.000Z</time>
        <extensions>
          <ns3:TrackPointExtension>
            <ns3:hr>174</ns3:hr>
            <ns3:cad>84</ns3:cad>
          </ns3:TrackPointExtension>
        </extensions>
      </trkpt>
      <trkpt lat="47.539255321025848388671875" lon="11.02460668422281742095947265625">
        <ele>1427.5999755859375</ele>
        <time>2026-09-01T09:39:40.000Z</time>
        <extensions>
          <ns3:TrackPointExtension>
            <ns3:hr>175</ns3:hr>
            <ns3:cad>84</ns3:cad>
          </ns3:TrackPointExtension>
        </extensions>
      </trkpt>
      <trkpt lat="47.53925607539713382720947265625" lon="11.02457575500011444091796875">
        <ele>1428</ele>
        <time>2026-09-01T09:39:41.000Z</time>
        <extensions>
          <ns3:TrackPointExtension>
            <ns3:hr>176</ns3:hr>
            <ns3:cad>84</ns3:cad>
          </ns3:TrackPointExtension>
        </extensions>
      </trkpt>
      <trkpt lat="47.53925741650164127349853515625" lon="11.02453912608325481414794921875">
        <ele>1428.199951171875</ele>
        <time>2026-09-01T09:39:42.000Z</time>
        <extensions>
          <ns3:TrackPointExtension>
            <ns3:hr>177</ns3:hr>
            <ns3:cad>84</ns3:cad>
          </ns3:TrackPointExtension>
        </extensions>
      </trkpt>
      <trkpt lat="47.5392571650445461273193359375" lon="11.024496294558048248291015625">
        <ele>1428.4000244140625</ele>
        <time>2026-09-01T09:39:43.000Z</time>
        <extensions>
          <ns3:TrackPointExtension>
            <ns3:hr>178</ns3:hr>
            <ns3:cad>84</ns3:cad>
          </ns3:TrackPointExtension>
        </extensions>
      </trkpt>
      <trkpt lat="47.5392605178058147430419921875" lon="11.024466790258884429931640625">
        <ele>1428.800048828125</ele>
        <time>2026-09-01T09:39:44.000Z</time>
        <extensions>
          <ns3:TrackPointExtension>
            <ns3:hr>179</ns3:hr>
            <ns3:cad>84</ns3:cad>
          </ns3:TrackPointExtension>
        </extensions>
      </trkpt>
      <trkpt lat="47.53926026634871959686279296875" lon="11.02443619631230831146240234375">
        <ele>1429.199951171875</ele>
        <time>2026-09-01T09:39:45.000Z</time>
        <extensions>
          <ns3:TrackPointExtension>
            <ns3:hr>180</ns3:hr>
            <ns3:cad>84</ns3:cad>
          </ns3:TrackPointExtension>
        </extensions>
      </trkpt>
      <trkpt lat="47.5392618589103221893310546875" lon="11.0244025848805904388427734375">
        <ele>1429.5999755859375</ele>
        <time>2026-09-01T09:39:46.000Z</time>
        <extensions>
          <ns3:TrackPointExtension>
            <ns3:hr>180</ns3:hr>
            <ns3:cad>84</ns3:cad>
          </ns3:TrackPointExtension>
        </extensions>
      </trkpt>
      <trkpt lat="47.53926613368093967437744140625" lon="11.024372912943363189697265625">
        <ele>1430</ele>
        <time>2026-09-01T09:39:47.000Z</time>
        <extensions>
          <ns3:TrackPointExtension>
            <ns3:hr>181</ns3:hr>
            <ns3:cad>83</ns3:cad>
          </ns3:TrackPointExtension>
        </extensions>
      </trkpt>
      <trkpt lat="47.53926931880414485931396484375" lon="11.02434550411999225616455078125">
        <ele>1430.4000244140625</ele>
        <time>2026-09-01T09:39:48.000Z</time>
        <extensions>
          <ns3:TrackPointExtension>
            <ns3:hr>182</ns3:hr>
            <ns3:cad>82</ns3:cad>
          </ns3:TrackPointExtension>
        </extensions>
      </trkpt>
      <trkpt lat="47.5392719171941280364990234375" lon="11.02431834675371646881103515625">
        <ele>1430.800048828125</ele>
        <time>2026-09-01T09:39:49.000Z</time>
        <extensions>
          <ns3:TrackPointExtension>
            <ns3:hr>183</ns3:hr>
            <ns3:cad>81</ns3:cad>
          </ns3:TrackPointExtension>
        </extensions>
      </trkpt>
      <trkpt lat="47.53927409648895263671875" lon="11.02429085411131381988525390625">
        <ele>1431</ele>
        <time>2026-09-01T09:39:50.000Z</time>
        <extensions>
          <ns3:TrackPointExtension>
            <ns3:hr>183</ns3:hr>
            <ns3:cad>80</ns3:cad>
          </ns3:TrackPointExtension>
        </extensions>
      </trkpt>
      <trkpt lat="47.5392799638211727142333984375" lon="11.02426168508827686309814453125">
        <ele>1431.4000244140625</ele>
        <time>2026-09-01T09:39:51.000Z</time>
        <extensions>
          <ns3:TrackPointExtension>
            <ns3:hr>184</ns3:hr>
            <ns3:cad>79</ns3:cad>
          </ns3:TrackPointExtension>
        </extensions>
      </trkpt>
      <trkpt lat="47.5392849929630756378173828125" lon="11.02423511445522308349609375">
        <ele>1431.5999755859375</ele>
        <time>2026-09-01T09:39:52.000Z</time>
        <extensions>
          <ns3:TrackPointExtension>
            <ns3:hr>184</ns3:hr>
            <ns3:cad>79</ns3:cad>
          </ns3:TrackPointExtension>
        </extensions>
      </trkpt>
      <trkpt lat="47.5392950512468814849853515625" lon="11.02420016191899776458740234375">
        <ele>1431.800048828125</ele>
        <time>2026-09-01T09:39:53.000Z</time>
        <extensions>
          <ns3:TrackPointExtension>
            <ns3:hr>184</ns3:hr>
            <ns3:cad>79</ns3:cad>
          </ns3:TrackPointExtension>
        </extensions>
      </trkpt>
      <trkpt lat="47.53930016420781612396240234375" lon="11.02416126988828182220458984375">
        <ele>1432</ele>
        <time>2026-09-01T09:39:54.000Z</time>
        <extensions>
          <ns3:TrackPointExtension>
            <ns3:hr>184</ns3:hr>
            <ns3:cad>80</ns3:cad>
          </ns3:TrackPointExtension>
        </extensions>
      </trkpt>
      <trkpt lat="47.53930770792067050933837890625" lon="11.02412137202918529510498046875">
        <ele>1432.199951171875</ele>
        <time>2026-09-01T09:39:55.000Z</time>
        <extensions>
          <ns3:TrackPointExtension>
            <ns3:hr>184</ns3:hr>
            <ns3:cad>80</ns3:cad>
          </ns3:TrackPointExtension>
        </extensions>
      </trkpt>
      <trkpt lat="47.539321370422840118408203125" lon="11.02408365346491336822509765625">
        <ele>1432</ele>
        <time>2026-09-01T09:39:56.000Z</time>
        <extensions>
          <ns3:TrackPointExtension>
            <ns3:hr>184</ns3:hr>
            <ns3:cad>80</ns3:cad>
          </ns3:TrackPointExtension>
        </extensions>
      </trkpt>
      <trkpt lat="47.53933503292500972747802734375" lon="11.02404174394905567169189453125">
        <ele>1432</ele>
        <time>2026-09-01T09:39:57.000Z</time>
        <extensions>
          <ns3:TrackPointExtension>
            <ns3:hr>183</ns3:hr>
            <ns3:cad>80</ns3:cad>
          </ns3:TrackPointExtension>
        </extensions>
      </trkpt>
      <trkpt lat="47.5393451750278472900390625" lon="11.02400167845189571380615234375">
        <ele>1431.800048828125</ele>
        <time>2026-09-01T09:39:58.000Z</time>
        <extensions>
          <ns3:TrackPointExtension>
            <ns3:hr>182</ns3:hr>
            <ns3:cad>81</ns3:cad>
          </ns3:TrackPointExtension>
        </extensions>
      </trkpt>
      <trkpt lat="47.53936252556741237640380859375" lon="11.02394987829029560089111328125">
        <ele>1431.800048828125</ele>
        <time>2026-09-01T09:39:59.000Z</time>
        <extensions>
          <ns3:TrackPointExtension>
            <ns3:hr>182</ns3:hr>
            <ns3:cad>81</ns3:cad>
          </ns3:TrackPointExtension>
        </extensions>
      </trkpt>
      <trkpt lat="47.53938029520213603973388671875" lon="11.023908890783786773681640625">
        <ele>1431.5999755859375</ele>
        <time>2026-09-01T09:40:00.000Z</time>
        <extensions>
          <ns3:TrackPointExtension>
            <ns3:hr>182</ns3:hr>
            <ns3:cad>82</ns3:cad>
          </ns3:TrackPointExtension>
        </extensions>
      </trkpt>
      <trkpt lat="47.53939370624721050262451171875" lon="11.02387033402919769287109375">
        <ele>1431.4000244140625</ele>
        <time>2026-09-01T09:40:01.000Z</time>
        <extensions>
          <ns3:TrackPointExtension>
            <ns3:hr>182</ns3:hr>
            <ns3:cad>83</ns3:cad>
          </ns3:TrackPointExtension>
        </extensions>
      </trkpt>
      <trkpt lat="47.53941063769161701202392578125" lon="11.02382632903754711151123046875">
        <ele>1431.4000244140625</ele>
        <time>2026-09-01T09:40:02.000Z</time>
        <extensions>
          <ns3:TrackPointExtension>
            <ns3:hr>183</ns3:hr>
            <ns3:cad>83</ns3:cad>
          </ns3:TrackPointExtension>
        </extensions>
      </trkpt>
      <trkpt lat="47.53942421637475490570068359375" lon="11.0237893648445606231689453125">
        <ele>1431.199951171875</ele>
        <time>2026-09-01T09:40:03.000Z</time>
        <extensions>
          <ns3:TrackPointExtension>
            <ns3:hr>183</ns3:hr>
            <ns3:cad>83</ns3:cad>
          </ns3:TrackPointExtension>
        </extensions>
      </trkpt>
      <trkpt lat="47.53944885917007923126220703125" lon="11.023730523884296417236328125">
        <ele>1431</ele>
        <time>2026-09-01T09:40:04.000Z</time>
        <extensions>
          <ns3:TrackPointExtension>
            <ns3:hr>183</ns3:hr>
            <ns3:cad>83</ns3:cad>
          </ns3:TrackPointExtension>
        </extensions>
      </trkpt>
      <trkpt lat="47.5394620187580585479736328125" lon="11.02368232794106006622314453125">
        <ele>1431</ele>
        <time>2026-09-01T09:40:05.000Z</time>
        <extensions>
          <ns3:TrackPointExtension>
            <ns3:hr>182</ns3:hr>
            <ns3:cad>85</ns3:cad>
          </ns3:TrackPointExtension>
        </extensions>
      </trkpt>
      <trkpt lat="47.53947651945054531097412109375" lon="11.02363564074039459228515625">
        <ele>1431</ele>
        <time>2026-09-01T09:40:06.000Z</time>
        <extensions>
          <ns3:TrackPointExtension>
            <ns3:hr>182</ns3:hr>
            <ns3:cad>85</ns3:cad>
          </ns3:TrackPointExtension>
        </extensions>
      </trkpt>
      <trkpt lat="47.53949495963752269744873046875" lon="11.023580990731716156005859375">
        <ele>1431</ele>
        <time>2026-09-01T09:40:07.000Z</time>
        <extensions>
          <ns3:TrackPointExtension>
            <ns3:hr>182</ns3:hr>
            <ns3:cad>85</ns3:cad>
          </ns3:TrackPointExtension>
        </extensions>
      </trkpt>
      <trkpt lat="47.5395086221396923065185546875" lon="11.0235385783016681671142578125">
        <ele>1431</ele>
        <time>2026-09-01T09:40:08.000Z</time>
        <extensions>
          <ns3:TrackPointExtension>
            <ns3:hr>182</ns3:hr>
            <ns3:cad>84</ns3:cad>
          </ns3:TrackPointExtension>
        </extensions>
      </trkpt>
      <trkpt lat="47.53952362574636936187744140625" lon="11.02349356748163700103759765625">
        <ele>1431</ele>
        <time>2026-09-01T09:40:09.000Z</time>
        <extensions>
          <ns3:TrackPointExtension>
            <ns3:hr>182</ns3:hr>
            <ns3:cad>83</ns3:cad>
          </ns3:TrackPointExtension>
        </extensions>
      </trkpt>
      <trkpt lat="47.5395277328789234161376953125" lon="11.02344579063355922698974609375">
        <ele>1431</ele>
        <time>2026-09-01T09:40:10.000Z</time>
        <extensions>
          <ns3:TrackPointExtension>
            <ns3:hr>183</ns3:hr>
            <ns3:cad>83</ns3:cad>
          </ns3:TrackPointExtension>
        </extensions>
      </trkpt>
      <trkpt lat="47.53953385166823863983154296875" lon="11.02339466102421283721923828125">
        <ele>1430.800048828125</ele>
        <time>2026-09-01T09:40:11.000Z</time>
        <extensions>
          <ns3:TrackPointExtension>
            <ns3:hr>183</ns3:hr>
            <ns3:cad>83</ns3:cad>
          </ns3:TrackPointExtension>
        </extensions>
      </trkpt>
      <trkpt lat="47.53954005427658557891845703125" lon="11.0233320482075214385986328125">
        <ele>1430.5999755859375</ele>
        <time>2026-09-01T09:40:12.000Z</time>
        <extensions>
          <ns3:TrackPointExtension>
            <ns3:hr>183</ns3:hr>
            <ns3:cad>83</ns3:cad>
          </ns3:TrackPointExtension>
        </extensions>
      </trkpt>
      <trkpt lat="47.53954793326556682586669921875" lon="11.0232884623110294342041015625">
        <ele>1430.4000244140625</ele>
        <time>2026-09-01T09:40:13.000Z</time>
        <extensions>
          <ns3:TrackPointExtension>
            <ns3:hr>183</ns3:hr>
            <ns3:cad>83</ns3:cad>
          </ns3:TrackPointExtension>
        </extensions>
      </trkpt>
      <trkpt lat="47.53956100903451442718505859375" lon="11.02323004044592380523681640625">
        <ele>1430.4000244140625</ele>
        <time>2026-09-01T09:40:14.000Z</time>
        <extensions>
          <ns3:TrackPointExtension>
            <ns3:hr>183</ns3:hr>
            <ns3:cad>83</ns3:cad>
          </ns3:TrackPointExtension>
        </extensions>
      </trkpt>
      <trkpt lat="47.539571486413478851318359375" lon="11.0231737978756427764892578125">
        <ele>1430.4000244140625</ele>
        <time>2026-09-01T09:40:15.000Z</time>
        <extensions>
          <ns3:TrackPointExtension>
            <ns3:hr>182</ns3:hr>
            <ns3:cad>83</ns3:cad>
          </ns3:TrackPointExtension>
        </extensions>
      </trkpt>
      <trkpt lat="47.53957844339311122894287109375" lon="11.0231258533895015716552734375">
        <ele>1430.199951171875</ele>
        <time>2026-09-01T09:40:16.000Z</time>
        <extensions>
          <ns3:TrackPointExtension>
            <ns3:hr>183</ns3:hr>
            <ns3:cad>83</ns3:cad>
          </ns3:TrackPointExtension>
        </extensions>
      </trkpt>
      <trkpt lat="47.539590261876583099365234375" lon="11.02305854670703411102294921875">
        <ele>1430</ele>
        <time>2026-09-01T09:40:17.000Z</time>
        <extensions>
          <ns3:TrackPointExtension>
            <ns3:hr>183</ns3:hr>
            <ns3:cad>83</ns3:cad>
          </ns3:TrackPointExtension>
        </extensions>
      </trkpt>
      <trkpt lat="47.53960023634135723114013671875" lon="11.023011691868305206298828125">
        <ele>1429.800048828125</ele>
        <time>2026-09-01T09:40:18.000Z</time>
        <extensions>
          <ns3:TrackPointExtension>
            <ns3:hr>182</ns3:hr>
            <ns3:cad>83</ns3:cad>
          </ns3:TrackPointExtension>
        </extensions>
      </trkpt>
      <trkpt lat="47.53962169401347637176513671875" lon="11.02295276708900928497314453125">
        <ele>1429.5999755859375</ele>
        <time>2026-09-01T09:40:19.000Z</time>
        <extensions>
          <ns3:TrackPointExtension>
            <ns3:hr>183</ns3:hr>
            <ns3:cad>84</ns3:cad>
          </ns3:TrackPointExtension>
        </extensions>
      </trkpt>
      <trkpt lat="47.5396353565156459808349609375" lon="11.02290398441255092620849609375">
        <ele>1429.4000244140625</ele>
        <time>2026-09-01T09:40:20.000Z</time>
        <extensions>
          <ns3:TrackPointExtension>
            <ns3:hr>183</ns3:hr>
            <ns3:cad>84</ns3:cad>
          </ns3:TrackPointExtension>
        </extensions>
      </trkpt>
      <trkpt lat="47.5396484322845935821533203125" lon="11.02286123670637607574462890625">
        <ele>1429.4000244140625</ele>
        <time>2026-09-01T09:40:21.000Z</time>
        <extensions>
          <ns3:TrackPointExtension>
            <ns3:hr>182</ns3:hr>
            <ns3:cad>84</ns3:cad>
          </ns3:TrackPointExtension>
        </extensions>
      </trkpt>
      <trkpt lat="47.53966544754803180694580078125" lon="11.02281220257282257080078125">
        <ele>1429.4000244140625</ele>
        <time>2026-09-01T09:40:22.000Z</time>
        <extensions>
          <ns3:TrackPointExtension>
            <ns3:hr>183</ns3:hr>
            <ns3:cad>84</ns3:cad>
          </ns3:TrackPointExtension>
        </extensions>
      </trkpt>
      <trkpt lat="47.53968019969761371612548828125" lon="11.02277607657015323638916015625">
        <ele>1429.5999755859375</ele>
        <time>2026-09-01T09:40:23.000Z</time>
        <extensions>
          <ns3:TrackPointExtension>
            <ns3:hr>183</ns3:hr>
            <ns3:cad>84</ns3:cad>
          </ns3:TrackPointExtension>
        </extensions>
      </trkpt>
      <trkpt lat="47.5397034175693988800048828125" lon="11.02273483760654926300048828125">
        <ele>1429.5999755859375</ele>
        <time>2026-09-01T09:40:24.000Z</time>
        <extensions>
          <ns3:TrackPointExtension>
            <ns3:hr>183</ns3:hr>
            <ns3:cad>84</ns3:cad>
          </ns3:TrackPointExtension>
        </extensions>
      </trkpt>
      <trkpt lat="47.53972093574702739715576171875" lon="11.0226910002529621124267578125">
        <ele>1429.5999755859375</ele>
        <time>2026-09-01T09:40:25.000Z</time>
        <extensions>
          <ns3:TrackPointExtension>
            <ns3:hr>182</ns3:hr>
            <ns3:cad>83</ns3:cad>
          </ns3:TrackPointExtension>
        </extensions>
      </trkpt>
      <trkpt lat="47.53973484970629215240478515625" lon="11.02264749817550182342529296875">
        <ele>1429.4000244140625</ele>
        <time>2026-09-01T09:40:26.000Z</time>
        <extensions>
          <ns3:TrackPointExtension>
            <ns3:hr>183</ns3:hr>
            <ns3:cad>83</ns3:cad>
          </ns3:TrackPointExtension>
        </extensions>
      </trkpt>
      <trkpt lat="47.5397459976375102996826171875" lon="11.02259762585163116455078125">
        <ele>1429.199951171875</ele>
        <time>2026-09-01T09:40:27.000Z</time>
        <extensions>
          <ns3:TrackPointExtension>
            <ns3:hr>183</ns3:hr>
            <ns3:cad>82</ns3:cad>
          </ns3:TrackPointExtension>
        </extensions>
      </trkpt>
      <trkpt lat="47.53975429572165012359619140625" lon="11.0225431434810161590576171875">
        <ele>1429</ele>
        <time>2026-09-01T09:40:28.000Z</time>
        <extensions>
          <ns3:TrackPointExtension>
            <ns3:hr>182</ns3:hr>
            <ns3:cad>82</ns3:cad>
          </ns3:TrackPointExtension>
        </extensions>
      </trkpt>
      <trkpt lat="47.53976418636739253997802734375" lon="11.0224968753755092620849609375">
        <ele>1428.800048828125</ele>
        <time>2026-09-01T09:40:29.000Z</time>
        <extensions>
          <ns3:TrackPointExtension>
            <ns3:hr>183</ns3:hr>
            <ns3:cad>82</ns3:cad>
          </ns3:TrackPointExtension>
        </extensions>
      </trkpt>
      <trkpt lat="47.539764940738677978515625" lon="11.02243644185364246368408203125">
        <ele>1428.800048828125</ele>
        <time>2026-09-01T09:40:30.000Z</time>
        <extensions>
          <ns3:TrackPointExtension>
            <ns3:hr>183</ns3:hr>
            <ns3:cad>82</ns3:cad>
          </ns3:TrackPointExtension>
        </extensions>
      </trkpt>
      <trkpt lat="47.53977575339376926422119140625" lon="11.0223862342536449432373046875">
        <ele>1428.5999755859375</ele>
        <time>2026-09-01T09:40:31.000Z</time>
        <extensions>
          <ns3:TrackPointExtension>
            <ns3:hr>182</ns3:hr>
            <ns3:cad>82</ns3:cad>
          </ns3:TrackPointExtension>
        </extensions>
      </trkpt>
      <trkpt lat="47.5397848896682262420654296875" lon="11.02233585901558399200439453125">
        <ele>1428.5999755859375</ele>
        <time>2026-09-01T09:40:32.000Z</time>
        <extensions>
          <ns3:TrackPointExtension>
            <ns3:hr>183</ns3:hr>
            <ns3:cad>82</ns3:cad>
          </ns3:TrackPointExtension>
        </extensions>
      </trkpt>
      <trkpt lat="47.5397855602204799652099609375" lon="11.0222833044826984405517578125">
        <ele>1428.199951171875</ele>
        <time>2026-09-01T09:40:33.000Z</time>
        <extensions>
          <ns3:TrackPointExtension>
            <ns3:hr>185</ns3:hr>
            <ns3:cad>82</ns3:cad>
          </ns3:TrackPointExtension>
        </extensions>
      </trkpt>
      <trkpt lat="47.539797127246856689453125" lon="11.0222390480339527130126953125">
        <ele>1427.5999755859375</ele>
        <time>2026-09-01T09:40:34.000Z</time>
        <extensions>
          <ns3:TrackPointExtension>
            <ns3:hr>188</ns3:hr>
            <ns3:cad>82</ns3:cad>
          </ns3:TrackPointExtension>
        </extensions>
      </trkpt>
      <trkpt lat="47.53980827517807483673095703125" lon="11.02217744104564189910888671875">
        <ele>1427.199951171875</ele>
        <time>2026-09-01T09:40:35.000Z</time>
        <extensions>
          <ns3:TrackPointExtension>
            <ns3:hr>190</ns3:hr>
            <ns3:cad>82</ns3:cad>
          </ns3:TrackPointExtension>
        </extensions>
      </trkpt>
      <trkpt lat="47.5398187525570392608642578125" lon="11.02212999947369098663330078125">
        <ele>1427</ele>
        <time>2026-09-01T09:40:36.000Z</time>
        <extensions>
          <ns3:TrackPointExtension>
            <ns3:hr>190</ns3:hr>
            <ns3:cad>83</ns3:cad>
          </ns3:TrackPointExtension>
        </extensions>
      </trkpt>
      <trkpt lat="47.53983593545854091644287109375" lon="11.022075600922107696533203125">
        <ele>1426.5999755859375</ele>
        <time>2026-09-01T09:40:37.000Z</time>
        <extensions>
          <ns3:TrackPointExtension>
            <ns3:hr>189</ns3:hr>
            <ns3:cad>83</ns3:cad>
          </ns3:TrackPointExtension>
        </extensions>
      </trkpt>
      <trkpt lat="47.53984741866588592529296875" lon="11.02201667614281177520751953125">
        <ele>1426.4000244140625</ele>
        <time>2026-09-01T09:40:38.000Z</time>
        <extensions>
          <ns3:TrackPointExtension>
            <ns3:hr>189</ns3:hr>
            <ns3:cad>83</ns3:cad>
          </ns3:TrackPointExtension>
        </extensions>
      </trkpt>
      <trkpt lat="47.53986418247222900390625" lon="11.02197577245533466339111328125">
        <ele>1426.4000244140625</ele>
        <time>2026-09-01T09:40:39.000Z</time>
        <extensions>
          <ns3:TrackPointExtension>
            <ns3:hr>189</ns3:hr>
            <ns3:cad>84</ns3:cad>
          </ns3:TrackPointExtension>
        </extensions>
      </trkpt>
      <trkpt lat="47.5398791022598743438720703125" lon="11.0219185240566730499267578125">
        <ele>1426.199951171875</ele>
        <time>2026-09-01T09:40:40.000Z</time>
        <extensions>
          <ns3:TrackPointExtension>
            <ns3:hr>189</ns3:hr>
            <ns3:cad>84</ns3:cad>
          </ns3:TrackPointExtension>
        </extensions>
      </trkpt>
      <trkpt lat="47.53989703953266143798828125" lon="11.02187435142695903778076171875">
        <ele>1425.800048828125</ele>
        <time>2026-09-01T09:40:41.000Z</time>
        <extensions>
          <ns3:TrackPointExtension>
            <ns3:hr>190</ns3:hr>
            <ns3:cad>84</ns3:cad>
          </ns3:TrackPointExtension>
        </extensions>
      </trkpt>
      <trkpt lat="47.53992226906120777130126953125" lon="11.02183177135884761810302734375">
        <ele>1425.800048828125</ele>
        <time>2026-09-01T09:40:42.000Z</time>
        <extensions>
          <ns3:TrackPointExtension>
            <ns3:hr>189</ns3:hr>
            <ns3:cad>84</ns3:cad>
          </ns3:TrackPointExtension>
        </extensions>
      </trkpt>
      <trkpt lat="47.53993702121078968048095703125" lon="11.0217934660613536834716796875">
        <ele>1425.800048828125</ele>
        <time>2026-09-01T09:40:43.000Z</time>
        <extensions>
          <ns3:TrackPointExtension>
            <ns3:hr>189</ns3:hr>
            <ns3:cad>84</ns3:cad>
          </ns3:TrackPointExtension>
        </extensions>
      </trkpt>
      <trkpt lat="47.53995529375970363616943359375" lon="11.021747700870037078857421875">
        <ele>1425.5999755859375</ele>
        <time>2026-09-01T09:40:44.000Z</time>
        <extensions>
          <ns3:TrackPointExtension>
            <ns3:hr>189</ns3:hr>
            <ns3:cad>84</ns3:cad>
          </ns3:TrackPointExtension>
        </extensions>
      </trkpt>
      <trkpt lat="47.53996853716671466827392578125" lon="11.02169631980359554290771484375">
        <ele>1425.199951171875</ele>
        <time>2026-09-01T09:40:45.000Z</time>
        <extensions>
          <ns3:TrackPointExtension>
            <ns3:hr>189</ns3:hr>
            <ns3:cad>84</ns3:cad>
          </ns3:TrackPointExtension>
        </extensions>
      </trkpt>
      <trkpt lat="47.53998429514467716217041015625" lon="11.0216486267745494842529296875">
        <ele>1425</ele>
        <time>2026-09-01T09:40:46.000Z</time>
        <extensions>
          <ns3:TrackPointExtension>
            <ns3:hr>189</ns3:hr>
            <ns3:cad>83</ns3:cad>
          </ns3:TrackPointExtension>
        </extensions>
      </trkpt>
      <trkpt lat="47.54000759683549404144287109375" lon="11.0215866006910800933837890625">
        <ele>1424.5999755859375</ele>
        <time>2026-09-01T09:40:47.000Z</time>
        <extensions>
          <ns3:TrackPointExtension>
            <ns3:hr>189</ns3:hr>
            <ns3:cad>83</ns3:cad>
          </ns3:TrackPointExtension>
        </extensions>
      </trkpt>
      <trkpt lat="47.54001614637672901153564453125" lon="11.021527759730815887451171875">
        <ele>1424.199951171875</ele>
        <time>2026-09-01T09:40:48.000Z</time>
        <extensions>
          <ns3:TrackPointExtension>
            <ns3:hr>190</ns3:hr>
            <ns3:cad>83</ns3:cad>
          </ns3:TrackPointExtension>
        </extensions>
      </trkpt>
      <trkpt lat="47.5400313176214694976806640625" lon="11.0214756242930889129638671875">
        <ele>1424</ele>
        <time>2026-09-01T09:40:49.000Z</time>
        <extensions>
          <ns3:TrackPointExtension>
            <ns3:hr>189</ns3:hr>
            <ns3:cad>83</ns3:cad>
          </ns3:TrackPointExtension>
        </extensions>
      </trkpt>
      <trkpt lat="47.540051601827144622802734375" lon="11.021413095295429229736328125">
        <ele>1423.4000244140625</ele>
        <time>2026-09-01T09:40:50.000Z</time>
        <extensions>
          <ns3:TrackPointExtension>
            <ns3:hr>189</ns3:hr>
            <ns3:cad>83</ns3:cad>
          </ns3:TrackPointExtension>
        </extensions>
      </trkpt>
      <trkpt lat="47.5400635041296482086181640625" lon="11.02136556990444660186767578125">
        <ele>1422.800048828125</ele>
        <time>2026-09-01T09:40:51.000Z</time>
        <extensions>
          <ns3:TrackPointExtension>
            <ns3:hr>189</ns3:hr>
            <ns3:cad>85</ns3:cad>
          </ns3:TrackPointExtension>
        </extensions>
      </trkpt>
      <trkpt lat="47.54007733426988124847412109375" lon="11.0213086567819118499755859375">
        <ele>1422.4000244140625</ele>
        <time>2026-09-01T09:40:52.000Z</time>
        <extensions>
          <ns3:TrackPointExtension>
            <ns3:hr>189</ns3:hr>
            <ns3:cad>86</ns3:cad>
          </ns3:TrackPointExtension>
        </extensions>
      </trkpt>
      <trkpt lat="47.5400866381824016571044921875" lon="11.02125509642064571380615234375">
        <ele>1422</ele>
        <time>2026-09-01T09:40:53.000Z</time>
        <extensions>
          <ns3:TrackPointExtension>
            <ns3:hr>189</ns3:hr>
            <ns3:cad>86</ns3:cad>
          </ns3:TrackPointExtension>
        </extensions>
      </trkpt>
      <trkpt lat="47.54009418189525604248046875" lon="11.0212020389735698699951171875">
        <ele>1421.4000244140625</ele>
        <time>2026-09-01T09:40:54.000Z</time>
        <extensions>
          <ns3:TrackPointExtension>
            <ns3:hr>189</ns3:hr>
            <ns3:cad>86</ns3:cad>
          </ns3:TrackPointExtension>
        </extensions>
      </trkpt>
      <trkpt lat="47.54008655436336994171142578125" lon="11.021135151386260986328125">
        <ele>1420.800048828125</ele>
        <time>2026-09-01T09:40:55.000Z</time>
        <extensions>
          <ns3:TrackPointExtension>
            <ns3:hr>189</ns3:hr>
            <ns3:cad>86</ns3:cad>
          </ns3:TrackPointExtension>
        </extensions>
      </trkpt>
      <trkpt lat="47.5400799326598644256591796875" lon="11.021079830825328826904296875">
        <ele>1420.4000244140625</ele>
        <time>2026-09-01T09:40:56.000Z</time>
        <extensions>
          <ns3:TrackPointExtension>
            <ns3:hr>189</ns3:hr>
            <ns3:cad>86</ns3:cad>
          </ns3:TrackPointExtension>
        </extensions>
      </trkpt>
      <trkpt lat="47.540075741708278656005859375" lon="11.02101570926606655120849609375">
        <ele>1420</ele>
        <time>2026-09-01T09:40:57.000Z</time>
        <extensions>
          <ns3:TrackPointExtension>
            <ns3:hr>189</ns3:hr>
            <ns3:cad>86</ns3:cad>
          </ns3:TrackPointExtension>
        </extensions>
      </trkpt>
      <trkpt lat="47.54006593488156795501708984375" lon="11.0209710337221622467041015625">
        <ele>1419.4000244140625</ele>
        <time>2026-09-01T09:40:58.000Z</time>
        <extensions>
          <ns3:TrackPointExtension>
            <ns3:hr>189</ns3:hr>
            <ns3:cad>86</ns3:cad>
          </ns3:TrackPointExtension>
        </extensions>
      </trkpt>
      <trkpt lat="47.5400524400174617767333984375" lon="11.020905487239360809326171875">
        <ele>1419</ele>
        <time>2026-09-01T09:40:59.000Z</time>
        <extensions>
          <ns3:TrackPointExtension>
            <ns3:hr>189</ns3:hr>
            <ns3:cad>86</ns3:cad>
          </ns3:TrackPointExtension>
        </extensions>
      </trkpt>
      <trkpt lat="47.5400450639426708221435546875" lon="11.02085896767675876617431640625">
        <ele>1418.4000244140625</ele>
        <time>2026-09-01T09:41:00.000Z</time>
        <extensions>
          <ns3:TrackPointExtension>
            <ns3:hr>189</ns3:hr>
            <ns3:cad>86</ns3:cad>
          </ns3:TrackPointExtension>
        </extensions>
      </trkpt>
      <trkpt lat="47.540038526058197021484375" lon="11.0207956843078136444091796875">
        <ele>1418</ele>
        <time>2026-09-01T09:41:01.000Z</time>
        <extensions>
          <ns3:TrackPointExtension>
            <ns3:hr>190</ns3:hr>
            <ns3:cad>86</ns3:cad>
          </ns3:TrackPointExtension>
        </extensions>
      </trkpt>
      <trkpt lat="47.54003592766821384429931640625" lon="11.0207420401275157928466796875">
        <ele>1417</ele>
        <time>2026-09-01T09:41:02.000Z</time>
        <extensions>
          <ns3:TrackPointExtension>
            <ns3:hr>190</ns3:hr>
            <ns3:cad>85</ns3:cad>
          </ns3:TrackPointExtension>
        </extensions>
      </trkpt>
      <trkpt lat="47.540033496916294097900390625" lon="11.020678840577602386474609375">
        <ele>1416.800048828125</ele>
        <time>2026-09-01T09:41:03.000Z</time>
        <extensions>
          <ns3:TrackPointExtension>
            <ns3:hr>190</ns3:hr>
            <ns3:cad>85</ns3:cad>
          </ns3:TrackPointExtension>
        </extensions>
      </trkpt>
      <trkpt lat="47.54003140144050121307373046875" lon="11.0206106118857860565185546875">
        <ele>1416.4000244140625</ele>
        <time>2026-09-01T09:41:04.000Z</time>
        <extensions>
          <ns3:TrackPointExtension>
            <ns3:hr>190</ns3:hr>
            <ns3:cad>86</ns3:cad>
          </ns3:TrackPointExtension>
        </extensions>
      </trkpt>
      <trkpt lat="47.5400210916996002197265625" lon="11.02055780589580535888671875">
        <ele>1415.800048828125</ele>
        <time>2026-09-01T09:41:05.000Z</time>
        <extensions>
          <ns3:TrackPointExtension>
            <ns3:hr>190</ns3:hr>
            <ns3:cad>86</ns3:cad>
          </ns3:TrackPointExtension>
        </extensions>
      </trkpt>
      <trkpt lat="47.54002385772764682769775390625" lon="11.02048781700432300567626953125">
        <ele>1415.199951171875</ele>
        <time>2026-09-01T09:41:06.000Z</time>
        <extensions>
          <ns3:TrackPointExtension>
            <ns3:hr>190</ns3:hr>
            <ns3:cad>87</ns3:cad>
          </ns3:TrackPointExtension>
        </extensions>
      </trkpt>
      <trkpt lat="47.5400252826511859893798828125" lon="11.02042981423437595367431640625">
        <ele>1414.800048828125</ele>
        <time>2026-09-01T09:41:07.000Z</time>
        <extensions>
          <ns3:TrackPointExtension>
            <ns3:hr>190</ns3:hr>
            <ns3:cad>87</ns3:cad>
          </ns3:TrackPointExtension>
        </extensions>
      </trkpt>
      <trkpt lat="47.54002285189926624298095703125" lon="11.02036091499030590057373046875">
        <ele>1414.4000244140625</ele>
        <time>2026-09-01T09:41:08.000Z</time>
        <extensions>
          <ns3:TrackPointExtension>
            <ns3:hr>190</ns3:hr>
            <ns3:cad>85</ns3:cad>
          </ns3:TrackPointExtension>
        </extensions>
      </trkpt>
      <trkpt lat="47.540025450289249420166015625" lon="11.020296625792980194091796875">
        <ele>1413.199951171875</ele>
        <time>2026-09-01T09:41:09.000Z</time>
        <extensions>
          <ns3:TrackPointExtension>
            <ns3:hr>191</ns3:hr>
            <ns3:cad>85</ns3:cad>
          </ns3:TrackPointExtension>
        </extensions>
      </trkpt>
      <trkpt lat="47.54002419300377368927001953125" lon="11.0202352702617645263671875">
        <ele>1412.800048828125</ele>
        <time>2026-09-01T09:41:10.000Z</time>
        <extensions>
          <ns3:TrackPointExtension>
            <ns3:hr>190</ns3:hr>
            <ns3:cad>86</ns3:cad>
          </ns3:TrackPointExtension>
        </extensions>
      </trkpt>
      <trkpt lat="47.540010027587413787841796875" lon="11.02016293443739414215087890625">
        <ele>1412.199951171875</ele>
        <time>2026-09-01T09:41:11.000Z</time>
        <extensions>
          <ns3:TrackPointExtension>
            <ns3:hr>190</ns3:hr>
            <ns3:cad>86</ns3:cad>
          </ns3:TrackPointExtension>
        </extensions>
      </trkpt>
      <trkpt lat="47.5399974547326564788818359375" lon="11.0201127268373966217041015625">
        <ele>1412</ele>
        <time>2026-09-01T09:41:12.000Z</time>
        <extensions>
          <ns3:TrackPointExtension>
            <ns3:hr>191</ns3:hr>
            <ns3:cad>86</ns3:cad>
          </ns3:TrackPointExtension>
        </extensions>
      </trkpt>
      <trkpt lat="47.53998362459242343902587890625" lon="11.02004156447947025299072265625">
        <ele>1411.800048828125</ele>
        <time>2026-09-01T09:41:13.000Z</time>
        <extensions>
          <ns3:TrackPointExtension>
            <ns3:hr>191</ns3:hr>
            <ns3:cad>86</ns3:cad>
          </ns3:TrackPointExtension>
        </extensions>
      </trkpt>
      <trkpt lat="47.53996702842414379119873046875" lon="11.0200024209916591644287109375">
        <ele>1411.4000244140625</ele>
        <time>2026-09-01T09:41:14.000Z</time>
        <extensions>
          <ns3:TrackPointExtension>
            <ns3:hr>191</ns3:hr>
            <ns3:cad>86</ns3:cad>
          </ns3:TrackPointExtension>
        </extensions>
      </trkpt>
      <trkpt lat="47.539945654571056365966796875" lon="11.0199430771172046661376953125">
        <ele>1411</ele>
        <time>2026-09-01T09:41:15.000Z</time>
        <extensions>
          <ns3:TrackPointExtension>
            <ns3:hr>191</ns3:hr>
            <ns3:cad>86</ns3:cad>
          </ns3:TrackPointExtension>
        </extensions>
      </trkpt>
      <trkpt lat="47.53993165679275989532470703125" lon="11.01989102549850940704345703125">
        <ele>1410.199951171875</ele>
        <time>2026-09-01T09:41:16.000Z</time>
        <extensions>
          <ns3:TrackPointExtension>
            <ns3:hr>190</ns3:hr>
            <ns3:cad>86</ns3:cad>
          </ns3:TrackPointExtension>
        </extensions>
      </trkpt>
      <trkpt lat="47.53990986384451389312744140625" lon="11.01983503438532352447509765625">
        <ele>1410</ele>
        <time>2026-09-01T09:41:17.000Z</time>
        <extensions>
          <ns3:TrackPointExtension>
            <ns3:hr>191</ns3:hr>
            <ns3:cad>86</ns3:cad>
          </ns3:TrackPointExtension>
        </extensions>
      </trkpt>
      <trkpt lat="47.5398908369243144989013671875" lon="11.01977904327213764190673828125">
        <ele>1408.5999755859375</ele>
        <time>2026-09-01T09:41:18.000Z</time>
        <extensions>
          <ns3:TrackPointExtension>
            <ns3:hr>191</ns3:hr>
            <ns3:cad>86</ns3:cad>
          </ns3:TrackPointExtension>
        </extensions>
      </trkpt>
      <trkpt lat="47.53988069482147693634033203125" lon="11.01972858421504497528076171875">
        <ele>1407.800048828125</ele>
        <time>2026-09-01T09:41:19.000Z</time>
        <extensions>
          <ns3:TrackPointExtension>
            <ns3:hr>190</ns3:hr>
            <ns3:cad>86</ns3:cad>
          </ns3:TrackPointExtension>
        </extensions>
      </trkpt>
      <trkpt lat="47.53985772840678691864013671875" lon="11.019665300846099853515625">
        <ele>1407.4000244140625</ele>
        <time>2026-09-01T09:41:20.000Z</time>
        <extensions>
          <ns3:TrackPointExtension>
            <ns3:hr>191</ns3:hr>
            <ns3:cad>86</ns3:cad>
          </ns3:TrackPointExtension>
        </extensions>
      </trkpt>
      <trkpt lat="47.539830319583415985107421875" lon="11.019611991941928863525390625">
        <ele>1406.4000244140625</ele>
        <time>2026-09-01T09:41:21.000Z</time>
        <extensions>
          <ns3:TrackPointExtension>
            <ns3:hr>191</ns3:hr>
            <ns3:cad>86</ns3:cad>
          </ns3:TrackPointExtension>
        </extensions>
      </trkpt>
      <trkpt lat="47.53980643115937709808349609375" lon="11.01954988203942775726318359375">
        <ele>1406</ele>
        <time>2026-09-01T09:41:22.000Z</time>
        <extensions>
          <ns3:TrackPointExtension>
            <ns3:hr>190</ns3:hr>
            <ns3:cad>86</ns3:cad>
          </ns3:TrackPointExtension>
        </extensions>
      </trkpt>
      <trkpt lat="47.5397899188101291656494140625" lon="11.01950730197131633758544921875">
        <ele>1405.5999755859375</ele>
        <time>2026-09-01T09:41:23.000Z</time>
        <extensions>
          <ns3:TrackPointExtension>
            <ns3:hr>190</ns3:hr>
            <ns3:cad>87</ns3:cad>
          </ns3:TrackPointExtension>
        </extensions>
      </trkpt>
      <trkpt lat="47.5397590734064579010009765625" lon="11.01944871246814727783203125">
        <ele>1405</ele>
        <time>2026-09-01T09:41:24.000Z</time>
        <extensions>
          <ns3:TrackPointExtension>
            <ns3:hr>191</ns3:hr>
            <ns3:cad>87</ns3:cad>
          </ns3:TrackPointExtension>
        </extensions>
      </trkpt>
      <trkpt lat="47.53974373452365398406982421875" lon="11.01940018124878406524658203125">
        <ele>1404.5999755859375</ele>
        <time>2026-09-01T09:41:25.000Z</time>
        <extensions>
          <ns3:TrackPointExtension>
            <ns3:hr>191</ns3:hr>
            <ns3:cad>87</ns3:cad>
          </ns3:TrackPointExtension>
        </extensions>
      </trkpt>
      <trkpt lat="47.53972345031797885894775390625" lon="11.01934670470654964447021484375">
        <ele>1404</ele>
        <time>2026-09-01T09:41:26.000Z</time>
        <extensions>
          <ns3:TrackPointExtension>
            <ns3:hr>191</ns3:hr>
            <ns3:cad>87</ns3:cad>
          </ns3:TrackPointExtension>
        </extensions>
      </trkpt>
      <trkpt lat="47.53970769234001636505126953125" lon="11.01929758675396442413330078125">
        <ele>1403.4000244140625</ele>
        <time>2026-09-01T09:41:27.000Z</time>
        <extensions>
          <ns3:TrackPointExtension>
            <ns3:hr>190</ns3:hr>
            <ns3:cad>87</ns3:cad>
          </ns3:TrackPointExtension>
        </extensions>
      </trkpt>
      <trkpt lat="47.5396913476288318634033203125" lon="11.01925550960004329681396484375">
        <ele>1403</ele>
        <time>2026-09-01T09:41:28.000Z</time>
        <extensions>
          <ns3:TrackPointExtension>
            <ns3:hr>190</ns3:hr>
            <ns3:cad>86</ns3:cad>
          </ns3:TrackPointExtension>
        </extensions>
      </trkpt>
      <trkpt lat="47.539670728147029876708984375" lon="11.01919868029654026031494140625">
        <ele>1402.5999755859375</ele>
        <time>2026-09-01T09:41:29.000Z</time>
        <extensions>
          <ns3:TrackPointExtension>
            <ns3:hr>190</ns3:hr>
            <ns3:cad>86</ns3:cad>
          </ns3:TrackPointExtension>
        </extensions>
      </trkpt>
      <trkpt lat="47.53965253941714763641357421875" lon="11.0191602073609828948974609375">
        <ele>1402.199951171875</ele>
        <time>2026-09-01T09:41:30.000Z</time>
        <extensions>
          <ns3:TrackPointExtension>
            <ns3:hr>190</ns3:hr>
            <ns3:cad>86</ns3:cad>
          </ns3:TrackPointExtension>
        </extensions>
      </trkpt>
      <trkpt lat="47.53962974064052104949951171875" lon="11.0191052220761775970458984375">
        <ele>1401.5999755859375</ele>
        <time>2026-09-01T09:41:31.000Z</time>
        <extensions>
          <ns3:TrackPointExtension>
            <ns3:hr>190</ns3:hr>
            <ns3:cad>86</ns3:cad>
          </ns3:TrackPointExtension>
        </extensions>
      </trkpt>
      <trkpt lat="47.5396024994552135467529296875" lon="11.01906004361808300018310546875">
        <ele>1400.800048828125</ele>
        <time>2026-09-01T09:41:32.000Z</time>
        <extensions>
          <ns3:TrackPointExtension>
            <ns3:hr>190</ns3:hr>
            <ns3:cad>85</ns3:cad>
          </ns3:TrackPointExtension>
        </extensions>
      </trkpt>
      <trkpt lat="47.539582885801792144775390625" lon="11.0190229117870330810546875">
        <ele>1400.5999755859375</ele>
        <time>2026-09-01T09:41:33.000Z</time>
        <extensions>
          <ns3:TrackPointExtension>
            <ns3:hr>190</ns3:hr>
            <ns3:cad>85</ns3:cad>
          </ns3:TrackPointExtension>
        </extensions>
      </trkpt>
      <trkpt lat="47.5395629368722438812255859375" lon="11.0189781524240970611572265625">
        <ele>1399.800048828125</ele>
        <time>2026-09-01T09:41:34.000Z</time>
        <extensions>
          <ns3:TrackPointExtension>
            <ns3:hr>190</ns3:hr>
            <ns3:cad>85</ns3:cad>
          </ns3:TrackPointExtension>
        </extensions>
      </trkpt>
      <trkpt lat="47.53953703679144382476806640625" lon="11.01893448270857334136962890625">
        <ele>1399.4000244140625</ele>
        <time>2026-09-01T09:41:35.000Z</time>
        <extensions>
          <ns3:TrackPointExtension>
            <ns3:hr>189</ns3:hr>
            <ns3:cad>85</ns3:cad>
          </ns3:TrackPointExtension>
        </extensions>
      </trkpt>
      <trkpt lat="47.53950719721615314483642578125" lon="11.0189077444374561309814453125">
        <ele>1399</ele>
        <time>2026-09-01T09:41:36.000Z</time>
        <extensions>
          <ns3:TrackPointExtension>
            <ns3:hr>189</ns3:hr>
            <ns3:cad>85</ns3:cad>
          </ns3:TrackPointExtension>
        </extensions>
      </trkpt>
      <trkpt lat="47.539468891918659210205078125" lon="11.018867678940296173095703125">
        <ele>1398.4000244140625</ele>
        <time>2026-09-01T09:41:37.000Z</time>
        <extensions>
          <ns3:TrackPointExtension>
            <ns3:hr>189</ns3:hr>
            <ns3:cad>85</ns3:cad>
          </ns3:TrackPointExtension>
        </extensions>
      </trkpt>
      <trkpt lat="47.5394422374665737152099609375" lon="11.0188316367566585540771484375">
        <ele>1397.800048828125</ele>
        <time>2026-09-01T09:41:38.000Z</time>
        <extensions>
          <ns3:TrackPointExtension>
            <ns3:hr>189</ns3:hr>
            <ns3:cad>85</ns3:cad>
          </ns3:TrackPointExtension>
        </extensions>
      </trkpt>
      <trkpt lat="47.5394077040255069732666015625" lon="11.0187984444200992584228515625">
        <ele>1396.800048828125</ele>
        <time>2026-09-01T09:41:39.000Z</time>
        <extensions>
          <ns3:TrackPointExtension>
            <ns3:hr>190</ns3:hr>
            <ns3:cad>85</ns3:cad>
          </ns3:TrackPointExtension>
        </extensions>
      </trkpt>
      <trkpt lat="47.53937534987926483154296875" lon="11.01875913329422473907470703125">
        <ele>1396.5999755859375</ele>
        <time>2026-09-01T09:41:40.000Z</time>
        <extensions>
          <ns3:TrackPointExtension>
            <ns3:hr>189</ns3:hr>
            <ns3:cad>85</ns3:cad>
          </ns3:TrackPointExtension>
        </extensions>
      </trkpt>
      <trkpt lat="47.53934810869395732879638671875" lon="11.01870968006551265716552734375">
        <ele>1396</ele>
        <time>2026-09-01T09:41:41.000Z</time>
        <extensions>
          <ns3:TrackPointExtension>
            <ns3:hr>190</ns3:hr>
            <ns3:cad>85</ns3:cad>
          </ns3:TrackPointExtension>
        </extensions>
      </trkpt>
      <trkpt lat="47.539314329624176025390625" lon="11.01864681579172611236572265625">
        <ele>1395</ele>
        <time>2026-09-01T09:41:42.000Z</time>
        <extensions>
          <ns3:TrackPointExtension>
            <ns3:hr>190</ns3:hr>
            <ns3:cad>85</ns3:cad>
          </ns3:TrackPointExtension>
        </extensions>
      </trkpt>
      <trkpt lat="47.53930016420781612396240234375" lon="11.0185892321169376373291015625">
        <ele>1394.4000244140625</ele>
        <time>2026-09-01T09:41:43.000Z</time>
        <extensions>
          <ns3:TrackPointExtension>
            <ns3:hr>190</ns3:hr>
            <ns3:cad>85</ns3:cad>
          </ns3:TrackPointExtension>
        </extensions>
      </trkpt>
      <trkpt lat="47.53928239457309246063232421875" lon="11.01852728985249996185302734375">
        <ele>1393.800048828125</ele>
        <time>2026-09-01T09:41:44.000Z</time>
        <extensions>
          <ns3:TrackPointExtension>
            <ns3:hr>190</ns3:hr>
            <ns3:cad>85</ns3:cad>
          </ns3:TrackPointExtension>
        </extensions>
      </trkpt>
      <trkpt lat="47.5392849929630756378173828125" lon="11.01846056990325450897216796875">
        <ele>1392.5999755859375</ele>
        <time>2026-09-01T09:41:45.000Z</time>
        <extensions>
          <ns3:TrackPointExtension>
            <ns3:hr>190</ns3:hr>
            <ns3:cad>88</ns3:cad>
          </ns3:TrackPointExtension>
        </extensions>
      </trkpt>
      <trkpt lat="47.5392754375934600830078125" lon="11.01840726099908351898193359375">
        <ele>1392</ele>
        <time>2026-09-01T09:41:46.000Z</time>
        <extensions>
          <ns3:TrackPointExtension>
            <ns3:hr>190</ns3:hr>
            <ns3:cad>88</ns3:cad>
          </ns3:TrackPointExtension>
        </extensions>
      </trkpt>
      <trkpt lat="47.5392823107540607452392578125" lon="11.01834607310593128204345703125">
        <ele>1391.4000244140625</ele>
        <time>2026-09-01T09:41:47.000Z</time>
        <extensions>
          <ns3:TrackPointExtension>
            <ns3:hr>190</ns3:hr>
            <ns3:cad>88</ns3:cad>
          </ns3:TrackPointExtension>
        </extensions>
      </trkpt>
      <trkpt lat="47.53928943537175655364990234375" lon="11.01830005645751953125">
        <ele>1391</ele>
        <time>2026-09-01T09:41:48.000Z</time>
        <extensions>
          <ns3:TrackPointExtension>
            <ns3:hr>191</ns3:hr>
            <ns3:cad>89</ns3:cad>
          </ns3:TrackPointExtension>
        </extensions>
      </trkpt>
      <trkpt lat="47.5393067859113216400146484375" lon="11.01824884302914142608642578125">
        <ele>1390.199951171875</ele>
        <time>2026-09-01T09:41:49.000Z</time>
        <extensions>
          <ns3:TrackPointExtension>
            <ns3:hr>190</ns3:hr>
            <ns3:cad>89</ns3:cad>
          </ns3:TrackPointExtension>
        </extensions>
      </trkpt>
      <trkpt lat="47.53933419473469257354736328125" lon="11.018213219940662384033203125">
        <ele>1390</ele>
        <time>2026-09-01T09:41:50.000Z</time>
        <extensions>
          <ns3:TrackPointExtension>
            <ns3:hr>190</ns3:hr>
            <ns3:cad>89</ns3:cad>
          </ns3:TrackPointExtension>
        </extensions>
      </trkpt>
      <trkpt lat="47.5393594242632389068603515625" lon="11.01817172951996326446533203125">
        <ele>1388.800048828125</ele>
        <time>2026-09-01T09:41:51.000Z</time>
        <extensions>
          <ns3:TrackPointExtension>
            <ns3:hr>191</ns3:hr>
            <ns3:cad>89</ns3:cad>
          </ns3:TrackPointExtension>
        </extensions>
      </trkpt>
      <trkpt lat="47.53938280977308750152587890625" lon="11.01815194822847843170166015625">
        <ele>1388</ele>
        <time>2026-09-01T09:41:52.000Z</time>
        <extensions>
          <ns3:TrackPointExtension>
            <ns3:hr>190</ns3:hr>
            <ns3:cad>89</ns3:cad>
          </ns3:TrackPointExtension>
        </extensions>
      </trkpt>
      <trkpt lat="47.53942362964153289794921875" lon="11.018131412565708160400390625">
        <ele>1387.199951171875</ele>
        <time>2026-09-01T09:41:53.000Z</time>
        <extensions>
          <ns3:TrackPointExtension>
            <ns3:hr>190</ns3:hr>
            <ns3:cad>89</ns3:cad>
          </ns3:TrackPointExtension>
        </extensions>
      </trkpt>
      <trkpt lat="47.53946629352867603302001953125" lon="11.0181235335767269134521484375">
        <ele>1387</ele>
        <time>2026-09-01T09:41:54.000Z</time>
        <extensions>
          <ns3:TrackPointExtension>
            <ns3:hr>191</ns3:hr>
            <ns3:cad>89</ns3:cad>
          </ns3:TrackPointExtension>
        </extensions>
      </trkpt>
      <trkpt lat="47.5395042635500431060791015625" lon="11.01811724714934825897216796875">
        <ele>1386.199951171875</ele>
        <time>2026-09-01T09:41:55.000Z</time>
        <extensions>
          <ns3:TrackPointExtension>
            <ns3:hr>190</ns3:hr>
            <ns3:cad>89</ns3:cad>
          </ns3:TrackPointExtension>
        </extensions>
      </trkpt>
      <trkpt lat="47.53953753970563411712646484375" lon="11.018116660416126251220703125">
        <ele>1386.199951171875</ele>
        <time>2026-09-01T09:41:56.000Z</time>
        <extensions>
          <ns3:TrackPointExtension>
            <ns3:hr>190</ns3:hr>
            <ns3:cad>88</ns3:cad>
          </ns3:TrackPointExtension>
        </extensions>
      </trkpt>
      <trkpt lat="47.5395780242979526519775390625" lon="11.0181392915546894073486328125">
        <ele>1386</ele>
        <time>2026-09-01T09:41:57.000Z</time>
        <extensions>
          <ns3:TrackPointExtension>
            <ns3:hr>190</ns3:hr>
            <ns3:cad>88</ns3:cad>
          </ns3:TrackPointExtension>
        </extensions>
      </trkpt>
      <trkpt lat="47.5396133959293365478515625" lon="11.0181584022939205169677734375">
        <ele>1385.5999755859375</ele>
        <time>2026-09-01T09:41:58.000Z</time>
        <extensions>
          <ns3:TrackPointExtension>
            <ns3:hr>190</ns3:hr>
            <ns3:cad>87</ns3:cad>
          </ns3:TrackPointExtension>
        </extensions>
      </trkpt>
      <trkpt lat="47.53964985720813274383544921875" lon="11.01817742921411991119384765625">
        <ele>1385.4000244140625</ele>
        <time>2026-09-01T09:41:59.000Z</time>
        <extensions>
          <ns3:TrackPointExtension>
            <ns3:hr>190</ns3:hr>
            <ns3:cad>87</ns3:cad>
          </ns3:TrackPointExtension>
        </extensions>
      </trkpt>
      <trkpt lat="47.5397019088268280029296875" lon="11.01820240728557109832763671875">
        <ele>1385</ele>
        <time>2026-09-01T09:42:00.000Z</time>
        <extensions>
          <ns3:TrackPointExtension>
            <ns3:hr>190</ns3:hr>
            <ns3:cad>87</ns3:cad>
          </ns3:TrackPointExtension>
        </extensions>
      </trkpt>
      <trkpt lat="47.539731748402118682861328125" lon="11.018217243254184722900390625">
        <ele>1384.5999755859375</ele>
        <time>2026-09-01T09:42:01.000Z</time>
        <extensions>
          <ns3:TrackPointExtension>
            <ns3:hr>189</ns3:hr>
            <ns3:cad>86</ns3:cad>
          </ns3:TrackPointExtension>
        </extensions>
      </trkpt>
      <trkpt lat="47.539776675403118133544921875" lon="11.01823828183114528656005859375">
        <ele>1384</ele>
        <time>2026-09-01T09:42:02.000Z</time>
        <extensions>
          <ns3:TrackPointExtension>
            <ns3:hr>189</ns3:hr>
            <ns3:cad>86</ns3:cad>
          </ns3:TrackPointExtension>
        </extensions>
      </trkpt>
      <trkpt lat="47.5398103706538677215576171875" lon="11.01825714111328125">
        <ele>1383.5999755859375</ele>
        <time>2026-09-01T09:42:03.000Z</time>
        <extensions>
          <ns3:TrackPointExtension>
            <ns3:hr>189</ns3:hr>
            <ns3:cad>85</ns3:cad>
          </ns3:TrackPointExtension>
        </extensions>
      </trkpt>
      <trkpt lat="47.53984666429460048675537109375" lon="11.018277592957019805908203125">
        <ele>1383.4000244140625</ele>
        <time>2026-09-01T09:42:04.000Z</time>
        <extensions>
          <ns3:TrackPointExtension>
            <ns3:hr>190</ns3:hr>
            <ns3:cad>85</ns3:cad>
          </ns3:TrackPointExtension>
        </extensions>
      </trkpt>
      <trkpt lat="47.5398744083940982818603515625" lon="11.018295027315616607666015625">
        <ele>1382.4000244140625</ele>
        <time>2026-09-01T09:42:05.000Z</time>
        <extensions>
          <ns3:TrackPointExtension>
            <ns3:hr>190</ns3:hr>
            <ns3:cad>85</ns3:cad>
          </ns3:TrackPointExtension>
        </extensions>
      </trkpt>
      <trkpt lat="47.5399069301784038543701171875" lon="11.01831070147454738616943359375">
        <ele>1382</ele>
        <time>2026-09-01T09:42:06.000Z</time>
        <extensions>
          <ns3:TrackPointExtension>
            <ns3:hr>190</ns3:hr>
            <ns3:cad>86</ns3:cad>
          </ns3:TrackPointExtension>
        </extensions>
      </trkpt>
      <trkpt lat="47.53994255326688289642333984375" lon="11.0183282196521759033203125">
        <ele>1381.4000244140625</ele>
        <time>2026-09-01T09:42:07.000Z</time>
        <extensions>
          <ns3:TrackPointExtension>
            <ns3:hr>190</ns3:hr>
            <ns3:cad>86</ns3:cad>
          </ns3:TrackPointExtension>
        </extensions>
      </trkpt>
      <trkpt lat="47.53997323103249073028564453125" lon="11.018343977630138397216796875">
        <ele>1380.5999755859375</ele>
        <time>2026-09-01T09:42:08.000Z</time>
        <extensions>
          <ns3:TrackPointExtension>
            <ns3:hr>191</ns3:hr>
            <ns3:cad>86</ns3:cad>
          </ns3:TrackPointExtension>
        </extensions>
      </trkpt>
      <trkpt lat="47.5400179065763950347900390625" lon="11.01835210807621479034423828125">
        <ele>1380.4000244140625</ele>
        <time>2026-09-01T09:42:09.000Z</time>
        <extensions>
          <ns3:TrackPointExtension>
            <ns3:hr>190</ns3:hr>
            <ns3:cad>86</ns3:cad>
          </ns3:TrackPointExtension>
        </extensions>
      </trkpt>
      <trkpt lat="47.54004715941846370697021484375" lon="11.01836350746452808380126953125">
        <ele>1379.800048828125</ele>
        <time>2026-09-01T09:42:10.000Z</time>
        <extensions>
          <ns3:TrackPointExtension>
            <ns3:hr>190</ns3:hr>
            <ns3:cad>86</ns3:cad>
          </ns3:TrackPointExtension>
        </extensions>
      </trkpt>
      <trkpt lat="47.54008169285953044891357421875" lon="11.018374823033809661865234375">
        <ele>1378.4000244140625</ele>
        <time>2026-09-01T09:42:11.000Z</time>
        <extensions>
          <ns3:TrackPointExtension>
            <ns3:hr>191</ns3:hr>
            <ns3:cad>87</ns3:cad>
          </ns3:TrackPointExtension>
        </extensions>
      </trkpt>
      <trkpt lat="47.540112622082233428955078125" lon="11.01838496513664722442626953125">
        <ele>1377.800048828125</ele>
        <time>2026-09-01T09:42:12.000Z</time>
        <extensions>
          <ns3:TrackPointExtension>
            <ns3:hr>190</ns3:hr>
            <ns3:cad>87</ns3:cad>
          </ns3:TrackPointExtension>
        </extensions>
      </trkpt>
      <trkpt lat="47.54015319049358367919921875" lon="11.0183961130678653717041015625">
        <ele>1377.199951171875</ele>
        <time>2026-09-01T09:42:13.000Z</time>
        <extensions>
          <ns3:TrackPointExtension>
            <ns3:hr>190</ns3:hr>
            <ns3:cad>87</ns3:cad>
          </ns3:TrackPointExtension>
        </extensions>
      </trkpt>
      <trkpt lat="47.54018093459308147430419921875" lon="11.0184098593890666961669921875">
        <ele>1376.800048828125</ele>
        <time>2026-09-01T09:42:14.000Z</time>
        <extensions>
          <ns3:TrackPointExtension>
            <ns3:hr>190</ns3:hr>
            <ns3:cad>87</ns3:cad>
          </ns3:TrackPointExtension>
        </extensions>
      </trkpt>
      <trkpt lat="47.5402056612074375152587890625" lon="11.01842067204415798187255859375">
        <ele>1376.4000244140625</ele>
        <time>2026-09-01T09:42:15.000Z</time>
        <extensions>
          <ns3:TrackPointExtension>
            <ns3:hr>191</ns3:hr>
            <ns3:cad>87</ns3:cad>
          </ns3:TrackPointExtension>
        </extensions>
      </trkpt>
      <trkpt lat="47.5402249395847320556640625" lon="11.01843374781310558319091796875">
        <ele>1376</ele>
        <time>2026-09-01T09:42:16.000Z</time>
        <extensions>
          <ns3:TrackPointExtension>
            <ns3:hr>190</ns3:hr>
            <ns3:cad>87</ns3:cad>
          </ns3:TrackPointExtension>
        </extensions>
      </trkpt>
      <trkpt lat="47.54024438560009002685546875" lon="11.01844196207821369171142578125">
        <ele>1375.800048828125</ele>
        <time>2026-09-01T09:42:17.000Z</time>
        <extensions>
          <ns3:TrackPointExtension>
            <ns3:hr>190</ns3:hr>
            <ns3:cad>87</ns3:cad>
          </ns3:TrackPointExtension>
        </extensions>
      </trkpt>
      <trkpt lat="47.54026542417705059051513671875" lon="11.01845520548522472381591796875">
        <ele>1375.5999755859375</ele>
        <time>2026-09-01T09:42:18.000Z</time>
        <extensions>
          <ns3:TrackPointExtension>
            <ns3:hr>190</ns3:hr>
            <ns3:cad>87</ns3:cad>
          </ns3:TrackPointExtension>
        </extensions>
      </trkpt>
      <trkpt lat="47.5402914918959140777587890625" lon="11.018480770289897918701171875">
        <ele>1375</ele>
        <time>2026-09-01T09:42:19.000Z</time>
        <extensions>
          <ns3:TrackPointExtension>
            <ns3:hr>190</ns3:hr>
            <ns3:cad>87</ns3:cad>
          </ns3:TrackPointExtension>
        </extensions>
      </trkpt>
      <trkpt lat="47.5403163023293018341064453125" lon="11.0185064189136028289794921875">
        <ele>1374.800048828125</ele>
        <time>2026-09-01T09:42:20.000Z</time>
        <extensions>
          <ns3:TrackPointExtension>
            <ns3:hr>190</ns3:hr>
            <ns3:cad>87</ns3:cad>
          </ns3:TrackPointExtension>
        </extensions>
      </trkpt>
      <trkpt lat="47.5403421185910701751708984375" lon="11.01852544583380222320556640625">
        <ele>1374</ele>
        <time>2026-09-01T09:42:21.000Z</time>
        <extensions>
          <ns3:TrackPointExtension>
            <ns3:hr>190</ns3:hr>
            <ns3:cad>87</ns3:cad>
          </ns3:TrackPointExtension>
        </extensions>
      </trkpt>
      <trkpt lat="47.5403645820915699005126953125" lon="11.01854589767754077911376953125">
        <ele>1374</ele>
        <time>2026-09-01T09:42:22.000Z</time>
        <extensions>
          <ns3:TrackPointExtension>
            <ns3:hr>190</ns3:hr>
            <ns3:cad>84</ns3:cad>
          </ns3:TrackPointExtension>
        </extensions>
      </trkpt>
      <trkpt lat="47.5403917394578456878662109375" lon="11.01856031455099582672119140625">
        <ele>1374.199951171875</ele>
        <time>2026-09-01T09:42:23.000Z</time>
        <extensions>
          <ns3:TrackPointExtension>
            <ns3:hr>189</ns3:hr>
            <ns3:cad>84</ns3:cad>
          </ns3:TrackPointExtension>
        </extensions>
      </trkpt>
      <trkpt lat="47.54041881300508975982666015625" lon="11.01857422851026058197021484375">
        <ele>1374</ele>
        <time>2026-09-01T09:42:24.000Z</time>
        <extensions>
          <ns3:TrackPointExtension>
            <ns3:hr>189</ns3:hr>
            <ns3:cad>84</ns3:cad>
          </ns3:TrackPointExtension>
        </extensions>
      </trkpt>
      <trkpt lat="47.54044664092361927032470703125" lon="11.0185852088034152984619140625">
        <ele>1373.5999755859375</ele>
        <time>2026-09-01T09:42:25.000Z</time>
        <extensions>
          <ns3:TrackPointExtension>
            <ns3:hr>189</ns3:hr>
            <ns3:cad>84</ns3:cad>
          </ns3:TrackPointExtension>
        </extensions>
      </trkpt>
      <trkpt lat="47.54048536531627178192138671875" lon="11.0185949318110942840576171875">
        <ele>1372.800048828125</ele>
        <time>2026-09-01T09:42:26.000Z</time>
        <extensions>
          <ns3:TrackPointExtension>
            <ns3:hr>188</ns3:hr>
            <ns3:cad>85</ns3:cad>
          </ns3:TrackPointExtension>
        </extensions>
      </trkpt>
      <trkpt lat="47.54052090458571910858154296875" lon="11.01860540919005870819091796875">
        <ele>1372.4000244140625</ele>
        <time>2026-09-01T09:42:27.000Z</time>
        <extensions>
          <ns3:TrackPointExtension>
            <ns3:hr>188</ns3:hr>
            <ns3:cad>85</ns3:cad>
          </ns3:TrackPointExtension>
        </extensions>
      </trkpt>
      <trkpt lat="47.54057689569890499114990234375" lon="11.01860138587653636932373046875">
        <ele>1371.800048828125</ele>
        <time>2026-09-01T09:42:28.000Z</time>
        <extensions>
          <ns3:TrackPointExtension>
            <ns3:hr>188</ns3:hr>
            <ns3:cad>85</ns3:cad>
          </ns3:TrackPointExtension>
        </extensions>
      </trkpt>
      <trkpt lat="47.54061629064381122589111328125" lon="11.01860524155199527740478515625">
        <ele>1371</ele>
        <time>2026-09-01T09:42:29.000Z</time>
        <extensions>
          <ns3:TrackPointExtension>
            <ns3:hr>188</ns3:hr>
            <ns3:cad>85</ns3:cad>
          </ns3:TrackPointExtension>
        </extensions>
      </trkpt>
      <trkpt lat="47.54065870307385921478271484375" lon="11.01859015412628650665283203125">
        <ele>1370.4000244140625</ele>
        <time>2026-09-01T09:42:30.000Z</time>
        <extensions>
          <ns3:TrackPointExtension>
            <ns3:hr>187</ns3:hr>
            <ns3:cad>85</ns3:cad>
          </ns3:TrackPointExtension>
        </extensions>
      </trkpt>
      <trkpt lat="47.5407025404274463653564453125" lon="11.0185795091092586517333984375">
        <ele>1370</ele>
        <time>2026-09-01T09:42:31.000Z</time>
        <extensions>
          <ns3:TrackPointExtension>
            <ns3:hr>187</ns3:hr>
            <ns3:cad>85</ns3:cad>
          </ns3:TrackPointExtension>
        </extensions>
      </trkpt>
      <trkpt lat="47.540735565125942230224609375" lon="11.01856551133096218109130859375">
        <ele>1369.5999755859375</ele>
        <time>2026-09-01T09:42:32.000Z</time>
        <extensions>
          <ns3:TrackPointExtension>
            <ns3:hr>187</ns3:hr>
            <ns3:cad>85</ns3:cad>
          </ns3:TrackPointExtension>
        </extensions>
      </trkpt>
      <trkpt lat="47.5407883711159229278564453125" lon="11.01853667758405208587646484375">
        <ele>1368.800048828125</ele>
        <time>2026-09-01T09:42:33.000Z</time>
        <extensions>
          <ns3:TrackPointExtension>
            <ns3:hr>187</ns3:hr>
            <ns3:cad>85</ns3:cad>
          </ns3:TrackPointExtension>
        </extensions>
      </trkpt>
      <trkpt lat="47.540833465754985809326171875" lon="11.01851656101644039154052734375">
        <ele>1368.199951171875</ele>
        <time>2026-09-01T09:42:34.000Z</time>
        <extensions>
          <ns3:TrackPointExtension>
            <ns3:hr>187</ns3:hr>
            <ns3:cad>85</ns3:cad>
          </ns3:TrackPointExtension>
        </extensions>
      </trkpt>
      <trkpt lat="47.54087629728019237518310546875" lon="11.0184993781149387359619140625">
        <ele>1368</ele>
        <time>2026-09-01T09:42:35.000Z</time>
        <extensions>
          <ns3:TrackPointExtension>
            <ns3:hr>187</ns3:hr>
            <ns3:cad>85</ns3:cad>
          </ns3:TrackPointExtension>
        </extensions>
      </trkpt>
      <trkpt lat="47.54091502167284488677978515625" lon="11.018474064767360687255859375">
        <ele>1367.5999755859375</ele>
        <time>2026-09-01T09:42:36.000Z</time>
        <extensions>
          <ns3:TrackPointExtension>
            <ns3:hr>186</ns3:hr>
            <ns3:cad>85</ns3:cad>
          </ns3:TrackPointExtension>
        </extensions>
      </trkpt>
      <trkpt lat="47.54096598364412784576416015625" lon="11.018457971513271331787109375">
        <ele>1367.199951171875</ele>
        <time>2026-09-01T09:42:37.000Z</time>
        <extensions>
          <ns3:TrackPointExtension>
            <ns3:hr>186</ns3:hr>
            <ns3:cad>85</ns3:cad>
          </ns3:TrackPointExtension>
        </extensions>
      </trkpt>
      <trkpt lat="47.54100479185581207275390625" lon="11.01844799704849720001220703125">
        <ele>1366.5999755859375</ele>
        <time>2026-09-01T09:42:38.000Z</time>
        <extensions>
          <ns3:TrackPointExtension>
            <ns3:hr>186</ns3:hr>
            <ns3:cad>85</ns3:cad>
          </ns3:TrackPointExtension>
        </extensions>
      </trkpt>
      <trkpt lat="47.54103739745914936065673828125" lon="11.01843483746051788330078125">
        <ele>1365.800048828125</ele>
        <time>2026-09-01T09:42:39.000Z</time>
        <extensions>
          <ns3:TrackPointExtension>
            <ns3:hr>186</ns3:hr>
            <ns3:cad>85</ns3:cad>
          </ns3:TrackPointExtension>
        </extensions>
      </trkpt>
      <trkpt lat="47.541090287268161773681640625" lon="11.01842343807220458984375">
        <ele>1364.5999755859375</ele>
        <time>2026-09-01T09:42:40.000Z</time>
        <extensions>
          <ns3:TrackPointExtension>
            <ns3:hr>187</ns3:hr>
            <ns3:cad>86</ns3:cad>
          </ns3:TrackPointExtension>
        </extensions>
      </trkpt>
      <trkpt lat="47.5411276705563068389892578125" lon="11.01842218078672885894775390625">
        <ele>1364</ele>
        <time>2026-09-01T09:42:41.000Z</time>
        <extensions>
          <ns3:TrackPointExtension>
            <ns3:hr>186</ns3:hr>
            <ns3:cad>86</ns3:cad>
          </ns3:TrackPointExtension>
        </extensions>
      </trkpt>
      <trkpt lat="47.5411717593669891357421875" lon="11.01843223907053470611572265625">
        <ele>1363.5999755859375</ele>
        <time>2026-09-01T09:42:42.000Z</time>
        <extensions>
          <ns3:TrackPointExtension>
            <ns3:hr>186</ns3:hr>
            <ns3:cad>85</ns3:cad>
          </ns3:TrackPointExtension>
        </extensions>
      </trkpt>
      <trkpt lat="47.5412057898938655853271484375" lon="11.01844464428722858428955078125">
        <ele>1363.199951171875</ele>
        <time>2026-09-01T09:42:43.000Z</time>
        <extensions>
          <ns3:TrackPointExtension>
            <ns3:hr>186</ns3:hr>
            <ns3:cad>85</ns3:cad>
          </ns3:TrackPointExtension>
        </extensions>
      </trkpt>
      <trkpt lat="47.5412460230290889739990234375" lon="11.01846442557871341705322265625">
        <ele>1362.4000244140625</ele>
        <time>2026-09-01T09:42:44.000Z</time>
        <extensions>
          <ns3:TrackPointExtension>
            <ns3:hr>186</ns3:hr>
            <ns3:cad>85</ns3:cad>
          </ns3:TrackPointExtension>
        </extensions>
      </trkpt>
      <trkpt lat="47.54128751344978809356689453125" lon="11.0184998810291290283203125">
        <ele>1362</ele>
        <time>2026-09-01T09:42:45.000Z</time>
        <extensions>
          <ns3:TrackPointExtension>
            <ns3:hr>187</ns3:hr>
            <ns3:cad>85</ns3:cad>
          </ns3:TrackPointExtension>
        </extensions>
      </trkpt>
      <trkpt lat="47.5413171015679836273193359375" lon="11.01853583939373493194580078125">
        <ele>1361.5999755859375</ele>
        <time>2026-09-01T09:42:46.000Z</time>
        <extensions>
          <ns3:TrackPointExtension>
            <ns3:hr>186</ns3:hr>
            <ns3:cad>85</ns3:cad>
          </ns3:TrackPointExtension>
        </extensions>
      </trkpt>
      <trkpt lat="47.5413435883820056915283203125" lon="11.0185758210718631744384765625">
        <ele>1360.800048828125</ele>
        <time>2026-09-01T09:42:47.000Z</time>
        <extensions>
          <ns3:TrackPointExtension>
            <ns3:hr>186</ns3:hr>
            <ns3:cad>85</ns3:cad>
          </ns3:TrackPointExtension>
        </extensions>
      </trkpt>
      <trkpt lat="47.54136345349252223968505859375" lon="11.01862368173897266387939453125">
        <ele>1359.800048828125</ele>
        <time>2026-09-01T09:42:48.000Z</time>
        <extensions>
          <ns3:TrackPointExtension>
            <ns3:hr>185</ns3:hr>
            <ns3:cad>85</ns3:cad>
          </ns3:TrackPointExtension>
        </extensions>
      </trkpt>
      <trkpt lat="47.54138072021305561065673828125" lon="11.01868419907987117767333984375">
        <ele>1358.4000244140625</ele>
        <time>2026-09-01T09:42:49.000Z</time>
        <extensions>
          <ns3:TrackPointExtension>
            <ns3:hr>185</ns3:hr>
            <ns3:cad>85</ns3:cad>
          </ns3:TrackPointExtension>
        </extensions>
      </trkpt>
      <trkpt lat="47.54139580763876438140869140625" lon="11.018718145787715911865234375">
        <ele>1357.4000244140625</ele>
        <time>2026-09-01T09:42:50.000Z</time>
        <extensions>
          <ns3:TrackPointExtension>
            <ns3:hr>185</ns3:hr>
            <ns3:cad>88</ns3:cad>
          </ns3:TrackPointExtension>
        </extensions>
      </trkpt>
      <trkpt lat="47.54141877405345439910888671875" lon="11.0187769867479801177978515625">
        <ele>1356.800048828125</ele>
        <time>2026-09-01T09:42:51.000Z</time>
        <extensions>
          <ns3:TrackPointExtension>
            <ns3:hr>185</ns3:hr>
            <ns3:cad>88</ns3:cad>
          </ns3:TrackPointExtension>
        </extensions>
      </trkpt>
      <trkpt lat="47.54142967052757740020751953125" lon="11.01882107555866241455078125">
        <ele>1356.4000244140625</ele>
        <time>2026-09-01T09:42:52.000Z</time>
        <extensions>
          <ns3:TrackPointExtension>
            <ns3:hr>185</ns3:hr>
            <ns3:cad>88</ns3:cad>
          </ns3:TrackPointExtension>
        </extensions>
      </trkpt>
      <trkpt lat="47.54144408740103244781494140625" lon="11.01888452656567096710205078125">
        <ele>1355.5999755859375</ele>
        <time>2026-09-01T09:42:53.000Z</time>
        <extensions>
          <ns3:TrackPointExtension>
            <ns3:hr>185</ns3:hr>
            <ns3:cad>88</ns3:cad>
          </ns3:TrackPointExtension>
        </extensions>
      </trkpt>
      <trkpt lat="47.54146152175962924957275390625" lon="11.01893515326082706451416015625">
        <ele>1355.199951171875</ele>
        <time>2026-09-01T09:42:54.000Z</time>
        <extensions>
          <ns3:TrackPointExtension>
            <ns3:hr>185</ns3:hr>
            <ns3:cad>88</ns3:cad>
          </ns3:TrackPointExtension>
        </extensions>
      </trkpt>
      <trkpt lat="47.541468478739261627197265625" lon="11.01899784989655017852783203125">
        <ele>1354</ele>
        <time>2026-09-01T09:42:55.000Z</time>
        <extensions>
          <ns3:TrackPointExtension>
            <ns3:hr>185</ns3:hr>
            <ns3:cad>88</ns3:cad>
          </ns3:TrackPointExtension>
        </extensions>
      </trkpt>
      <trkpt lat="47.541489936411380767822265625" lon="11.01905736140906810760498046875">
        <ele>1353.5999755859375</ele>
        <time>2026-09-01T09:42:56.000Z</time>
        <extensions>
          <ns3:TrackPointExtension>
            <ns3:hr>186</ns3:hr>
            <ns3:cad>88</ns3:cad>
          </ns3:TrackPointExtension>
        </extensions>
      </trkpt>
      <trkpt lat="47.5415041856467723846435546875" lon="11.01911888457834720611572265625">
        <ele>1353.4000244140625</ele>
        <time>2026-09-01T09:42:57.000Z</time>
        <extensions>
          <ns3:TrackPointExtension>
            <ns3:hr>186</ns3:hr>
            <ns3:cad>88</ns3:cad>
          </ns3:TrackPointExtension>
        </extensions>
      </trkpt>
      <trkpt lat="47.5415172614157199859619140625" lon="11.01917202584445476531982421875">
        <ele>1352.5999755859375</ele>
        <time>2026-09-01T09:42:58.000Z</time>
        <extensions>
          <ns3:TrackPointExtension>
            <ns3:hr>186</ns3:hr>
            <ns3:cad>87</ns3:cad>
          </ns3:TrackPointExtension>
        </extensions>
      </trkpt>
      <trkpt lat="47.54153628833591938018798828125" lon="11.01922600530087947845458984375">
        <ele>1352</ele>
        <time>2026-09-01T09:42:59.000Z</time>
        <extensions>
          <ns3:TrackPointExtension>
            <ns3:hr>187</ns3:hr>
            <ns3:cad>87</ns3:cad>
          </ns3:TrackPointExtension>
        </extensions>
      </trkpt>
      <trkpt lat="47.54155036993324756622314453125" lon="11.01928467862308025360107421875">
        <ele>1351</ele>
        <time>2026-09-01T09:43:00.000Z</time>
        <extensions>
          <ns3:TrackPointExtension>
            <ns3:hr>187</ns3:hr>
            <ns3:cad>87</ns3:cad>
          </ns3:TrackPointExtension>
        </extensions>
      </trkpt>
      <trkpt lat="47.5415792874991893768310546875" lon="11.019330359995365142822265625">
        <ele>1350.199951171875</ele>
        <time>2026-09-01T09:43:01.000Z</time>
        <extensions>
          <ns3:TrackPointExtension>
            <ns3:hr>187</ns3:hr>
            <ns3:cad>87</ns3:cad>
          </ns3:TrackPointExtension>
        </extensions>
      </trkpt>
      <trkpt lat="47.5416128151118755340576171875" lon="11.0193784721195697784423828125">
        <ele>1350</ele>
        <time>2026-09-01T09:43:02.000Z</time>
        <extensions>
          <ns3:TrackPointExtension>
            <ns3:hr>187</ns3:hr>
            <ns3:cad>88</ns3:cad>
          </ns3:TrackPointExtension>
        </extensions>
      </trkpt>
      <trkpt lat="47.54165514372289180755615234375" lon="11.0194160230457782745361328125">
        <ele>1349</ele>
        <time>2026-09-01T09:43:03.000Z</time>
        <extensions>
          <ns3:TrackPointExtension>
            <ns3:hr>187</ns3:hr>
            <ns3:cad>88</ns3:cad>
          </ns3:TrackPointExtension>
        </extensions>
      </trkpt>
      <trkpt lat="47.54170191474258899688720703125" lon="11.01942650042474269866943359375">
        <ele>1348.199951171875</ele>
        <time>2026-09-01T09:43:04.000Z</time>
        <extensions>
          <ns3:TrackPointExtension>
            <ns3:hr>188</ns3:hr>
            <ns3:cad>88</ns3:cad>
          </ns3:TrackPointExtension>
        </extensions>
      </trkpt>
      <trkpt lat="47.5417368672788143157958984375" lon="11.01942130364477634429931640625">
        <ele>1347.4000244140625</ele>
        <time>2026-09-01T09:43:05.000Z</time>
        <extensions>
          <ns3:TrackPointExtension>
            <ns3:hr>188</ns3:hr>
            <ns3:cad>88</ns3:cad>
          </ns3:TrackPointExtension>
        </extensions>
      </trkpt>
      <trkpt lat="47.541778273880481719970703125" lon="11.01942054927349090576171875">
        <ele>1346.5999755859375</ele>
        <time>2026-09-01T09:43:06.000Z</time>
        <extensions>
          <ns3:TrackPointExtension>
            <ns3:hr>188</ns3:hr>
            <ns3:cad>88</ns3:cad>
          </ns3:TrackPointExtension>
        </extensions>
      </trkpt>
      <trkpt lat="47.54181976430118083953857421875" lon="11.0193828307092189788818359375">
        <ele>1346</ele>
        <time>2026-09-01T09:43:07.000Z</time>
        <extensions>
          <ns3:TrackPointExtension>
            <ns3:hr>188</ns3:hr>
            <ns3:cad>88</ns3:cad>
          </ns3:TrackPointExtension>
        </extensions>
      </trkpt>
      <trkpt lat="47.54184591583907604217529296875" lon="11.01934486068785190582275390625">
        <ele>1345.4000244140625</ele>
        <time>2026-09-01T09:43:08.000Z</time>
        <extensions>
          <ns3:TrackPointExtension>
            <ns3:hr>188</ns3:hr>
            <ns3:cad>88</ns3:cad>
          </ns3:TrackPointExtension>
        </extensions>
      </trkpt>
      <trkpt lat="47.54187642596662044525146484375" lon="11.01928451098501682281494140625">
        <ele>1345</ele>
        <time>2026-09-01T09:43:09.000Z</time>
        <extensions>
          <ns3:TrackPointExtension>
            <ns3:hr>189</ns3:hr>
            <ns3:cad>89</ns3:cad>
          </ns3:TrackPointExtension>
        </extensions>
      </trkpt>
      <trkpt lat="47.5419066846370697021484375" lon="11.0192235745489597320556640625">
        <ele>1344.4000244140625</ele>
        <time>2026-09-01T09:43:10.000Z</time>
        <extensions>
          <ns3:TrackPointExtension>
            <ns3:hr>189</ns3:hr>
            <ns3:cad>89</ns3:cad>
          </ns3:TrackPointExtension>
        </extensions>
      </trkpt>
      <trkpt lat="47.5419319979846477508544921875" lon="11.01917135529220104217529296875">
        <ele>1344</ele>
        <time>2026-09-01T09:43:11.000Z</time>
        <extensions>
          <ns3:TrackPointExtension>
            <ns3:hr>189</ns3:hr>
            <ns3:cad>88</ns3:cad>
          </ns3:TrackPointExtension>
        </extensions>
      </trkpt>
      <trkpt lat="47.54195806570351123809814453125" lon="11.01911720819771289825439453125">
        <ele>1343.5999755859375</ele>
        <time>2026-09-01T09:43:12.000Z</time>
        <extensions>
          <ns3:TrackPointExtension>
            <ns3:hr>189</ns3:hr>
            <ns3:cad>88</ns3:cad>
          </ns3:TrackPointExtension>
        </extensions>
      </trkpt>
      <trkpt lat="47.541984803974628448486328125" lon="11.0190606303513050079345703125">
        <ele>1342.5999755859375</ele>
        <time>2026-09-01T09:43:13.000Z</time>
        <extensions>
          <ns3:TrackPointExtension>
            <ns3:hr>189</ns3:hr>
            <ns3:cad>87</ns3:cad>
          </ns3:TrackPointExtension>
        </extensions>
      </trkpt>
      <trkpt lat="47.54200567491352558135986328125" lon="11.019021235406398773193359375">
        <ele>1342.199951171875</ele>
        <time>2026-09-01T09:43:14.000Z</time>
        <extensions>
          <ns3:TrackPointExtension>
            <ns3:hr>190</ns3:hr>
            <ns3:cad>86</ns3:cad>
          </ns3:TrackPointExtension>
        </extensions>
      </trkpt>
      <trkpt lat="47.54203802905976772308349609375" lon="11.01898795925080776214599609375">
        <ele>1342</ele>
        <time>2026-09-01T09:43:15.000Z</time>
        <extensions>
          <ns3:TrackPointExtension>
            <ns3:hr>190</ns3:hr>
            <ns3:cad>86</ns3:cad>
          </ns3:TrackPointExtension>
        </extensions>
      </trkpt>
      <trkpt lat="47.542073316872119903564453125" lon="11.0189630649983882904052734375">
        <ele>1341.800048828125</ele>
        <time>2026-09-01T09:43:16.000Z</time>
        <extensions>
          <ns3:TrackPointExtension>
            <ns3:hr>190</ns3:hr>
            <ns3:cad>86</ns3:cad>
          </ns3:TrackPointExtension>
        </extensions>
      </trkpt>
      <trkpt lat="47.54210290499031543731689453125" lon="11.0189583711326122283935546875">
        <ele>1341.5999755859375</ele>
        <time>2026-09-01T09:43:17.000Z</time>
        <extensions>
          <ns3:TrackPointExtension>
            <ns3:hr>190</ns3:hr>
            <ns3:cad>84</ns3:cad>
          </ns3:TrackPointExtension>
        </extensions>
      </trkpt>
      <trkpt lat="47.5421405397355556488037109375" lon="11.01896750740706920623779296875">
        <ele>1342</ele>
        <time>2026-09-01T09:43:18.000Z</time>
        <extensions>
          <ns3:TrackPointExtension>
            <ns3:hr>190</ns3:hr>
            <ns3:cad>84</ns3:cad>
          </ns3:TrackPointExtension>
        </extensions>
      </trkpt>
      <trkpt lat="47.54217096604406833648681640625" lon="11.01897773332893848419189453125">
        <ele>1342</ele>
        <time>2026-09-01T09:43:19.000Z</time>
        <extensions>
          <ns3:TrackPointExtension>
            <ns3:hr>190</ns3:hr>
            <ns3:cad>83</ns3:cad>
          </ns3:TrackPointExtension>
        </extensions>
      </trkpt>
      <trkpt lat="47.54220013506710529327392578125" lon="11.0189868696033954620361328125">
        <ele>1342</ele>
        <time>2026-09-01T09:43:20.000Z</time>
        <extensions>
          <ns3:TrackPointExtension>
            <ns3:hr>190</ns3:hr>
            <ns3:cad>83</ns3:cad>
          </ns3:TrackPointExtension>
        </extensions>
      </trkpt>
      <trkpt lat="47.54224372096359729766845703125" lon="11.01899768225848674774169921875">
        <ele>1341.800048828125</ele>
        <time>2026-09-01T09:43:21.000Z</time>
        <extensions>
          <ns3:TrackPointExtension>
            <ns3:hr>190</ns3:hr>
            <ns3:cad>83</ns3:cad>
          </ns3:TrackPointExtension>
        </extensions>
      </trkpt>
      <trkpt lat="47.5422743149101734161376953125" lon="11.01901394315063953399658203125">
        <ele>1341.4000244140625</ele>
        <time>2026-09-01T09:43:22.000Z</time>
        <extensions>
          <ns3:TrackPointExtension>
            <ns3:hr>190</ns3:hr>
            <ns3:cad>83</ns3:cad>
          </ns3:TrackPointExtension>
        </extensions>
      </trkpt>
      <trkpt lat="47.54230440594255924224853515625" lon="11.0190331377089023590087890625">
        <ele>1341.199951171875</ele>
        <time>2026-09-01T09:43:23.000Z</time>
        <extensions>
          <ns3:TrackPointExtension>
            <ns3:hr>190</ns3:hr>
            <ns3:cad>83</ns3:cad>
          </ns3:TrackPointExtension>
        </extensions>
      </trkpt>
      <trkpt lat="47.5423272885382175445556640625" lon="11.01901830174028873443603515625">
        <ele>1341.199951171875</ele>
        <time>2026-09-01T09:43:24.000Z</time>
        <extensions>
          <ns3:TrackPointExtension>
            <ns3:hr>189</ns3:hr>
            <ns3:cad>82</ns3:cad>
          </ns3:TrackPointExtension>
        </extensions>
      </trkpt>
      <trkpt lat="47.54233642481267452239990234375" lon="11.01900924928486347198486328125">
        <ele>1341</ele>
        <time>2026-09-01T09:43:25.000Z</time>
        <extensions>
          <ns3:TrackPointExtension>
            <ns3:hr>190</ns3:hr>
            <ns3:cad>81</ns3:cad>
          </ns3:TrackPointExtension>
        </extensions>
      </trkpt>
      <trkpt lat="47.54233893938362598419189453125" lon="11.01901394315063953399658203125">
        <ele>1341</ele>
        <time>2026-09-01T09:43:26.000Z</time>
        <extensions>
          <ns3:TrackPointExtension>
            <ns3:hr>189</ns3:hr>
            <ns3:cad>81</ns3:cad>
          </ns3:TrackPointExtension>
        </extensions>
      </trkpt>
      <trkpt lat="47.54235570318996906280517578125" lon="11.01903087459504604339599609375">
        <ele>1341</ele>
        <time>2026-09-01T09:43:27.000Z</time>
        <extensions>
          <ns3:TrackPointExtension>
            <ns3:hr>189</ns3:hr>
            <ns3:cad>81</ns3:cad>
          </ns3:TrackPointExtension>
        </extensions>
      </trkpt>
      <trkpt lat="47.54237665794789791107177734375" lon="11.01903892122209072113037109375">
        <ele>1340.5999755859375</ele>
        <time>2026-09-01T09:43:28.000Z</time>
        <extensions>
          <ns3:TrackPointExtension>
            <ns3:hr>189</ns3:hr>
            <ns3:cad>81</ns3:cad>
          </ns3:TrackPointExtension>
        </extensions>
      </trkpt>
      <trkpt lat="47.5423919968307018280029296875" lon="11.01904814131557941436767578125">
        <ele>1340.199951171875</ele>
        <time>2026-09-01T09:43:29.000Z</time>
        <extensions>
          <ns3:TrackPointExtension>
            <ns3:hr>188</ns3:hr>
            <ns3:cad>81</ns3:cad>
          </ns3:TrackPointExtension>
        </extensions>
      </trkpt>
      <trkpt lat="47.542414627969264984130859375" lon="11.01904579438269138336181640625">
        <ele>1339.800048828125</ele>
        <time>2026-09-01T09:43:30.000Z</time>
        <extensions>
          <ns3:TrackPointExtension>
            <ns3:hr>187</ns3:hr>
            <ns3:cad>81</ns3:cad>
          </ns3:TrackPointExtension>
        </extensions>
      </trkpt>
      <trkpt lat="47.5424332357943058013916015625" lon="11.01904126815497875213623046875">
        <ele>1339</ele>
        <time>2026-09-01T09:43:31.000Z</time>
        <extensions>
          <ns3:TrackPointExtension>
            <ns3:hr>186</ns3:hr>
            <ns3:cad>81</ns3:cad>
          </ns3:TrackPointExtension>
        </extensions>
      </trkpt>
      <trkpt lat="47.54245477728545665740966796875" lon="11.01903607137501239776611328125">
        <ele>1338.4000244140625</ele>
        <time>2026-09-01T09:43:32.000Z</time>
        <extensions>
          <ns3:TrackPointExtension>
            <ns3:hr>185</ns3:hr>
            <ns3:cad>81</ns3:cad>
          </ns3:TrackPointExtension>
        </extensions>
      </trkpt>
      <trkpt lat="47.54246525466442108154296875" lon="11.01901679299771785736083984375">
        <ele>1337.5999755859375</ele>
        <time>2026-09-01T09:43:33.000Z</time>
        <extensions>
          <ns3:TrackPointExtension>
            <ns3:hr>185</ns3:hr>
            <ns3:cad>81</ns3:cad>
          </ns3:TrackPointExtension>
        </extensions>
      </trkpt>
      <trkpt lat="47.54247019998729228973388671875" lon="11.0190220735967159271240234375">
        <ele>1337</ele>
        <time>2026-09-01T09:43:34.000Z</time>
        <extensions>
          <ns3:TrackPointExtension>
            <ns3:hr>185</ns3:hr>
            <ns3:cad>81</ns3:cad>
          </ns3:TrackPointExtension>
        </extensions>
      </trkpt>
      <trkpt lat="47.542476989328861236572265625" lon="11.01902500726282596588134765625">
        <ele>1336.5999755859375</ele>
        <time>2026-09-01T09:43:35.000Z</time>
        <extensions>
          <ns3:TrackPointExtension>
            <ns3:hr>185</ns3:hr>
            <ns3:cad>81</ns3:cad>
          </ns3:TrackPointExtension>
        </extensions>
      </trkpt>
      <trkpt lat="47.5424865446984767913818359375" lon="11.0190470516681671142578125">
        <ele>1336</ele>
        <time>2026-09-01T09:43:36.000Z</time>
        <extensions>
          <ns3:TrackPointExtension>
            <ns3:hr>184</ns3:hr>
            <ns3:cad>81</ns3:cad>
          </ns3:TrackPointExtension>
        </extensions>
      </trkpt>
      <trkpt lat="47.5424966029822826385498046875" lon="11.01907010190188884735107421875">
        <ele>1335.4000244140625</ele>
        <time>2026-09-01T09:43:37.000Z</time>
        <extensions>
          <ns3:TrackPointExtension>
            <ns3:hr>184</ns3:hr>
            <ns3:cad>0</ns3:cad>
          </ns3:TrackPointExtension>
        </extensions>
      </trkpt>
      <trkpt lat="47.5425110198557376861572265625" lon="11.0190941579639911651611328125">
        <ele>1334.5999755859375</ele>
        <time>2026-09-01T09:43:38.000Z</time>
        <extensions>
          <ns3:TrackPointExtension>
            <ns3:hr>183</ns3:hr>
            <ns3:cad>0</ns3:cad>
          </ns3:TrackPointExtension>
        </extensions>
      </trkpt>
      <trkpt lat="47.54252493381500244140625" lon="11.0191209800541400909423828125">
        <ele>1334</ele>
        <time>2026-09-01T09:43:39.000Z</time>
        <extensions>
          <ns3:TrackPointExtension>
            <ns3:hr>182</ns3:hr>
            <ns3:cad>0</ns3:cad>
          </ns3:TrackPointExtension>
        </extensions>
      </trkpt>
      <trkpt lat="47.54253541119396686553955078125" lon="11.01916917599737644195556640625">
        <ele>1333.199951171875</ele>
        <time>2026-09-01T09:43:40.000Z</time>
        <extensions>
          <ns3:TrackPointExtension>
            <ns3:hr>181</ns3:hr>
            <ns3:cad>82</ns3:cad>
          </ns3:TrackPointExtension>
        </extensions>
      </trkpt>
      <trkpt lat="47.5425411947071552276611328125" lon="11.0191987641155719757080078125">
        <ele>1332</ele>
        <time>2026-09-01T09:43:41.000Z</time>
        <extensions>
          <ns3:TrackPointExtension>
            <ns3:hr>180</ns3:hr>
            <ns3:cad>83</ns3:cad>
          </ns3:TrackPointExtension>
        </extensions>
      </trkpt>
      <trkpt lat="47.54255779087543487548828125" lon="11.019241176545619964599609375">
        <ele>1331</ele>
        <time>2026-09-01T09:43:42.000Z</time>
        <extensions>
          <ns3:TrackPointExtension>
            <ns3:hr>180</ns3:hr>
            <ns3:cad>85</ns3:cad>
          </ns3:TrackPointExtension>
        </extensions>
      </trkpt>
      <trkpt lat="47.54259190522134304046630859375" lon="11.019236482679843902587890625">
        <ele>1330.199951171875</ele>
        <time>2026-09-01T09:43:43.000Z</time>
        <extensions>
          <ns3:TrackPointExtension>
            <ns3:hr>179</ns3:hr>
            <ns3:cad>85</ns3:cad>
          </ns3:TrackPointExtension>
        </extensions>
      </trkpt>
      <trkpt lat="47.54261353053152561187744140625" lon="11.0192252509295940399169921875">
        <ele>1329.4000244140625</ele>
        <time>2026-09-01T09:43:44.000Z</time>
        <extensions>
          <ns3:TrackPointExtension>
            <ns3:hr>178</ns3:hr>
            <ns3:cad>84</ns3:cad>
          </ns3:TrackPointExtension>
        </extensions>
      </trkpt>
      <trkpt lat="47.54262543283402919769287109375" lon="11.01919214241206645965576171875">
        <ele>1328.5999755859375</ele>
        <time>2026-09-01T09:43:45.000Z</time>
        <extensions>
          <ns3:TrackPointExtension>
            <ns3:hr>178</ns3:hr>
            <ns3:cad>84</ns3:cad>
          </ns3:TrackPointExtension>
        </extensions>
      </trkpt>
      <trkpt lat="47.54263415001332759857177734375" lon="11.019160710275173187255859375">
        <ele>1327.800048828125</ele>
        <time>2026-09-01T09:43:46.000Z</time>
        <extensions>
          <ns3:TrackPointExtension>
            <ns3:hr>177</ns3:hr>
            <ns3:cad>84</ns3:cad>
          </ns3:TrackPointExtension>
        </extensions>
      </trkpt>
      <trkpt lat="47.54264135845005512237548828125" lon="11.01914671249687671661376953125">
        <ele>1326.800048828125</ele>
        <time>2026-09-01T09:43:47.000Z</time>
        <extensions>
          <ns3:TrackPointExtension>
            <ns3:hr>176</ns3:hr>
            <ns3:cad>84</ns3:cad>
          </ns3:TrackPointExtension>
        </extensions>
      </trkpt>
      <trkpt lat="47.542643286287784576416015625" lon="11.01914956234395503997802734375">
        <ele>1326</ele>
        <time>2026-09-01T09:43:48.000Z</time>
        <extensions>
          <ns3:TrackPointExtension>
            <ns3:hr>176</ns3:hr>
            <ns3:cad>84</ns3:cad>
          </ns3:TrackPointExtension>
        </extensions>
      </trkpt>
      <trkpt lat="47.542658708989620208740234375" lon="11.01915677078068256378173828125">
        <ele>1325.199951171875</ele>
        <time>2026-09-01T09:43:49.000Z</time>
        <extensions>
          <ns3:TrackPointExtension>
            <ns3:hr>175</ns3:hr>
            <ns3:cad>84</ns3:cad>
          </ns3:TrackPointExtension>
        </extensions>
      </trkpt>
      <trkpt lat="47.5426675938069820404052734375" lon="11.0191347263753414154052734375">
        <ele>1324.4000244140625</ele>
        <time>2026-09-01T09:43:50.000Z</time>
        <extensions>
          <ns3:TrackPointExtension>
            <ns3:hr>174</ns3:hr>
            <ns3:cad>84</ns3:cad>
          </ns3:TrackPointExtension>
        </extensions>
      </trkpt>
      <trkpt lat="47.54267178475856781005859375" lon="11.019127853214740753173828125">
        <ele>1323.800048828125</ele>
        <time>2026-09-01T09:43:51.000Z</time>
        <extensions>
          <ns3:TrackPointExtension>
            <ns3:hr>174</ns3:hr>
            <ns3:cad>84</ns3:cad>
          </ns3:TrackPointExtension>
        </extensions>
      </trkpt>
      <trkpt lat="47.54267371259629726409912109375" lon="11.01914386264979839324951171875">
        <ele>1323.199951171875</ele>
        <time>2026-09-01T09:43:52.000Z</time>
        <extensions>
          <ns3:TrackPointExtension>
            <ns3:hr>173</ns3:hr>
            <ns3:cad>84</ns3:cad>
          </ns3:TrackPointExtension>
        </extensions>
      </trkpt>
      <trkpt lat="47.54268125630915164947509765625" lon="11.01915073581039905548095703125">
        <ele>1322.5999755859375</ele>
        <time>2026-09-01T09:43:53.000Z</time>
        <extensions>
          <ns3:TrackPointExtension>
            <ns3:hr>172</ns3:hr>
            <ns3:cad>84</ns3:cad>
          </ns3:TrackPointExtension>
        </extensions>
      </trkpt>
      <trkpt lat="47.54268645308911800384521484375" lon="11.01912726648151874542236328125">
        <ele>1322</ele>
        <time>2026-09-01T09:43:54.000Z</time>
        <extensions>
          <ns3:TrackPointExtension>
            <ns3:hr>172</ns3:hr>
            <ns3:cad>84</ns3:cad>
          </ns3:TrackPointExtension>
        </extensions>
      </trkpt>
      <trkpt lat="47.542690895497798919677734375" lon="11.01911486126482486724853515625">
        <ele>1321.199951171875</ele>
        <time>2026-09-01T09:43:55.000Z</time>
        <extensions>
          <ns3:TrackPointExtension>
            <ns3:hr>171</ns3:hr>
            <ns3:cad>84</ns3:cad>
          </ns3:TrackPointExtension>
        </extensions>
      </trkpt>
      <trkpt lat="47.5427007861435413360595703125" lon="11.01911268197000026702880859375">
        <ele>1320.4000244140625</ele>
        <time>2026-09-01T09:43:56.000Z</time>
        <extensions>
          <ns3:TrackPointExtension>
            <ns3:hr>170</ns3:hr>
            <ns3:cad>84</ns3:cad>
          </ns3:TrackPointExtension>
        </extensions>
      </trkpt>
      <trkpt lat="47.5426970981061458587646484375" lon="11.01912911050021648406982421875">
        <ele>1319.800048828125</ele>
        <time>2026-09-01T09:43:57.000Z</time>
        <extensions>
          <ns3:TrackPointExtension>
            <ns3:hr>170</ns3:hr>
            <ns3:cad>84</ns3:cad>
          </ns3:TrackPointExtension>
        </extensions>
      </trkpt>
      <trkpt lat="47.54270086996257305145263671875" lon="11.019145958125591278076171875">
        <ele>1319.199951171875</ele>
        <time>2026-09-01T09:43:58.000Z</time>
        <extensions>
          <ns3:TrackPointExtension>
            <ns3:hr>169</ns3:hr>
            <ns3:cad>84</ns3:cad>
          </ns3:TrackPointExtension>
        </extensions>
      </trkpt>
      <trkpt lat="47.54270170815289020538330078125" lon="11.01917202584445476531982421875">
        <ele>1318.4000244140625</ele>
        <time>2026-09-01T09:43:59.000Z</time>
        <extensions>
          <ns3:TrackPointExtension>
            <ns3:hr>169</ns3:hr>
            <ns3:cad>84</ns3:cad>
          </ns3:TrackPointExtension>
        </extensions>
      </trkpt>
      <trkpt lat="47.5427058152854442596435546875" lon="11.01919524371623992919921875">
        <ele>1317.5999755859375</ele>
        <time>2026-09-01T09:44:00.000Z</time>
        <extensions>
          <ns3:TrackPointExtension>
            <ns3:hr>168</ns3:hr>
            <ns3:cad>84</ns3:cad>
          </ns3:TrackPointExtension>
        </extensions>
      </trkpt>
      <trkpt lat="47.5427172146737575531005859375" lon="11.019217036664485931396484375">
        <ele>1317</ele>
        <time>2026-09-01T09:44:01.000Z</time>
        <extensions>
          <ns3:TrackPointExtension>
            <ns3:hr>167</ns3:hr>
            <ns3:cad>84</ns3:cad>
          </ns3:TrackPointExtension>
        </extensions>
      </trkpt>
      <trkpt lat="47.5427259318530559539794921875" lon="11.01924696005880832672119140625">
        <ele>1316.199951171875</ele>
        <time>2026-09-01T09:44:02.000Z</time>
        <extensions>
          <ns3:TrackPointExtension>
            <ns3:hr>167</ns3:hr>
            <ns3:cad>84</ns3:cad>
          </ns3:TrackPointExtension>
        </extensions>
      </trkpt>
      <trkpt lat="47.54273272119462490081787109375" lon="11.01927244104444980621337890625">
        <ele>1315.199951171875</ele>
        <time>2026-09-01T09:44:03.000Z</time>
        <extensions>
          <ns3:TrackPointExtension>
            <ns3:hr>166</ns3:hr>
            <ns3:cad>84</ns3:cad>
          </ns3:TrackPointExtension>
        </extensions>
      </trkpt>
      <trkpt lat="47.542747221887111663818359375" lon="11.01929523982107639312744140625">
        <ele>1314.4000244140625</ele>
        <time>2026-09-01T09:44:04.000Z</time>
        <extensions>
          <ns3:TrackPointExtension>
            <ns3:hr>165</ns3:hr>
            <ns3:cad>84</ns3:cad>
          </ns3:TrackPointExtension>
        </extensions>
      </trkpt>
      <trkpt lat="47.542760632932186126708984375" lon="11.0193151049315929412841796875">
        <ele>1313.800048828125</ele>
        <time>2026-09-01T09:44:05.000Z</time>
        <extensions>
          <ns3:TrackPointExtension>
            <ns3:hr>163</ns3:hr>
            <ns3:cad>84</ns3:cad>
          </ns3:TrackPointExtension>
        </extensions>
      </trkpt>
      <trkpt lat="47.54277731291949748992919921875" lon="11.01933916099369525909423828125">
        <ele>1312.800048828125</ele>
        <time>2026-09-01T09:44:06.000Z</time>
        <extensions>
          <ns3:TrackPointExtension>
            <ns3:hr>162</ns3:hr>
            <ns3:cad>84</ns3:cad>
          </ns3:TrackPointExtension>
        </extensions>
      </trkpt>
      <trkpt lat="47.54279189743101596832275390625" lon="11.01937704719603061676025390625">
        <ele>1312</ele>
        <time>2026-09-01T09:44:07.000Z</time>
        <extensions>
          <ns3:TrackPointExtension>
            <ns3:hr>161</ns3:hr>
            <ns3:cad>84</ns3:cad>
          </ns3:TrackPointExtension>
        </extensions>
      </trkpt>
      <trkpt lat="47.54281000234186649322509765625" lon="11.01940336637198925018310546875">
        <ele>1311.199951171875</ele>
        <time>2026-09-01T09:44:08.000Z</time>
        <extensions>
          <ns3:TrackPointExtension>
            <ns3:hr>161</ns3:hr>
            <ns3:cad>84</ns3:cad>
          </ns3:TrackPointExtension>
        </extensions>
      </trkpt>
      <trkpt lat="47.54283146001398563385009765625" lon="11.01943454705178737640380859375">
        <ele>1310.4000244140625</ele>
        <time>2026-09-01T09:44:09.000Z</time>
        <extensions>
          <ns3:TrackPointExtension>
            <ns3:hr>160</ns3:hr>
            <ns3:cad>84</ns3:cad>
          </ns3:TrackPointExtension>
        </extensions>
      </trkpt>
      <trkpt lat="47.54284520633518695831298828125" lon="11.01945885457098484039306640625">
        <ele>1309.5999755859375</ele>
        <time>2026-09-01T09:44:10.000Z</time>
        <extensions>
          <ns3:TrackPointExtension>
            <ns3:hr>159</ns3:hr>
            <ns3:cad>84</ns3:cad>
          </ns3:TrackPointExtension>
        </extensions>
      </trkpt>
      <trkpt lat="47.542857192456722259521484375" lon="11.01948550902307033538818359375">
        <ele>1308.800048828125</ele>
        <time>2026-09-01T09:44:11.000Z</time>
        <extensions>
          <ns3:TrackPointExtension>
            <ns3:hr>158</ns3:hr>
            <ns3:cad>84</ns3:cad>
          </ns3:TrackPointExtension>
        </extensions>
      </trkpt>
      <trkpt lat="47.54287269897758960723876953125" lon="11.0195078887045383453369140625">
        <ele>1308</ele>
        <time>2026-09-01T09:44:12.000Z</time>
        <extensions>
          <ns3:TrackPointExtension>
            <ns3:hr>158</ns3:hr>
            <ns3:cad>84</ns3:cad>
          </ns3:TrackPointExtension>
        </extensions>
      </trkpt>
      <trkpt lat="47.5428892113268375396728515625" lon="11.0195192880928516387939453125">
        <ele>1307</ele>
        <time>2026-09-01T09:44:13.000Z</time>
        <extensions>
          <ns3:TrackPointExtension>
            <ns3:hr>158</ns3:hr>
            <ns3:cad>84</ns3:cad>
          </ns3:TrackPointExtension>
        </extensions>
      </trkpt>
      <trkpt lat="47.54290287382900714874267578125" lon="11.01953429169952869415283203125">
        <ele>1306.4000244140625</ele>
        <time>2026-09-01T09:44:14.000Z</time>
        <extensions>
          <ns3:TrackPointExtension>
            <ns3:hr>157</ns3:hr>
            <ns3:cad>84</ns3:cad>
          </ns3:TrackPointExtension>
        </extensions>
      </trkpt>
      <trkpt lat="47.5429083220660686492919921875" lon="11.0195544920861721038818359375">
        <ele>1305.5999755859375</ele>
        <time>2026-09-01T09:44:15.000Z</time>
        <extensions>
          <ns3:TrackPointExtension>
            <ns3:hr>157</ns3:hr>
            <ns3:cad>84</ns3:cad>
          </ns3:TrackPointExtension>
        </extensions>
      </trkpt>
      <trkpt lat="47.54292081110179424285888671875" lon="11.0195722617208957672119140625">
        <ele>1305.199951171875</ele>
        <time>2026-09-01T09:44:16.000Z</time>
        <extensions>
          <ns3:TrackPointExtension>
            <ns3:hr>156</ns3:hr>
            <ns3:cad>84</ns3:cad>
          </ns3:TrackPointExtension>
        </extensions>
      </trkpt>
      <trkpt lat="47.5429331324994564056396484375" lon="11.019574441015720367431640625">
        <ele>1304.800048828125</ele>
        <time>2026-09-01T09:44:17.000Z</time>
        <extensions>
          <ns3:TrackPointExtension>
            <ns3:hr>155</ns3:hr>
            <ns3:cad>84</ns3:cad>
          </ns3:TrackPointExtension>
        </extensions>
      </trkpt>
      <trkpt lat="47.54295048303902149200439453125" lon="11.019573099911212921142578125">
        <ele>1304.199951171875</ele>
        <time>2026-09-01T09:44:18.000Z</time>
        <extensions>
          <ns3:TrackPointExtension>
            <ns3:hr>154</ns3:hr>
            <ns3:cad>84</ns3:cad>
          </ns3:TrackPointExtension>
        </extensions>
      </trkpt>
      <trkpt lat="47.5429693423211574554443359375" lon="11.01956279017031192779541015625">
        <ele>1303.800048828125</ele>
        <time>2026-09-01T09:44:19.000Z</time>
        <extensions>
          <ns3:TrackPointExtension>
            <ns3:hr>152</ns3:hr>
            <ns3:cad>84</ns3:cad>
          </ns3:TrackPointExtension>
        </extensions>
      </trkpt>
      <trkpt lat="47.542987950146198272705078125" lon="11.0195534862577915191650390625">
        <ele>1302.800048828125</ele>
        <time>2026-09-01T09:44:20.000Z</time>
        <extensions>
          <ns3:TrackPointExtension>
            <ns3:hr>151</ns3:hr>
            <ns3:cad>84</ns3:cad>
          </ns3:TrackPointExtension>
        </extensions>
      </trkpt>
      <trkpt lat="47.54299499094486236572265625" lon="11.0195263288915157318115234375">
        <ele>1302</ele>
        <time>2026-09-01T09:44:21.000Z</time>
        <extensions>
          <ns3:TrackPointExtension>
            <ns3:hr>150</ns3:hr>
            <ns3:cad>84</ns3:cad>
          </ns3:TrackPointExtension>
        </extensions>
      </trkpt>
      <trkpt lat="47.543002702295780181884765625" lon="11.01950378157198429107666015625">
        <ele>1301.199951171875</ele>
        <time>2026-09-01T09:44:22.000Z</time>
        <extensions>
          <ns3:TrackPointExtension>
            <ns3:hr>150</ns3:hr>
            <ns3:cad>86</ns3:cad>
          </ns3:TrackPointExtension>
        </extensions>
      </trkpt>
      <trkpt lat="47.54301686771214008331298828125" lon="11.0194807313382625579833984375">
        <ele>1300.4000244140625</ele>
        <time>2026-09-01T09:44:23.000Z</time>
        <extensions>
          <ns3:TrackPointExtension>
            <ns3:hr>150</ns3:hr>
            <ns3:cad>86</ns3:cad>
          </ns3:TrackPointExtension>
        </extensions>
      </trkpt>
      <trkpt lat="47.5430159457027912139892578125" lon="11.0194391570985317230224609375">
        <ele>1299.5999755859375</ele>
        <time>2026-09-01T09:44:24.000Z</time>
        <extensions>
          <ns3:TrackPointExtension>
            <ns3:hr>149</ns3:hr>
            <ns3:cad>85</ns3:cad>
          </ns3:TrackPointExtension>
        </extensions>
      </trkpt>
      <trkpt lat="47.54302826710045337677001953125" lon="11.01940789259970188140869140625">
        <ele>1298.800048828125</ele>
        <time>2026-09-01T09:44:25.000Z</time>
        <extensions>
          <ns3:TrackPointExtension>
            <ns3:hr>149</ns3:hr>
            <ns3:cad>85</ns3:cad>
          </ns3:TrackPointExtension>
        </extensions>
      </trkpt>
      <trkpt lat="47.5430400855839252471923828125" lon="11.01937939412891864776611328125">
        <ele>1298.199951171875</ele>
        <time>2026-09-01T09:44:26.000Z</time>
        <extensions>
          <ns3:TrackPointExtension>
            <ns3:hr>149</ns3:hr>
            <ns3:cad>85</ns3:cad>
          </ns3:TrackPointExtension>
        </extensions>
      </trkpt>
      <trkpt lat="47.54305022768676280975341796875" lon="11.01934921927750110626220703125">
        <ele>1297.5999755859375</ele>
        <time>2026-09-01T09:44:27.000Z</time>
        <extensions>
          <ns3:TrackPointExtension>
            <ns3:hr>148</ns3:hr>
            <ns3:cad>85</ns3:cad>
          </ns3:TrackPointExtension>
        </extensions>
      </trkpt>
      <trkpt lat="47.54306011833250522613525390625" lon="11.01931887678802013397216796875">
        <ele>1297.199951171875</ele>
        <time>2026-09-01T09:44:28.000Z</time>
        <extensions>
          <ns3:TrackPointExtension>
            <ns3:hr>148</ns3:hr>
            <ns3:cad>83</ns3:cad>
          </ns3:TrackPointExtension>
        </extensions>
      </trkpt>
      <trkpt lat="47.543067075312137603759765625" lon="11.019287109375">
        <ele>1297</ele>
        <time>2026-09-01T09:44:29.000Z</time>
        <extensions>
          <ns3:TrackPointExtension>
            <ns3:hr>148</ns3:hr>
            <ns3:cad>83</ns3:cad>
          </ns3:TrackPointExtension>
        </extensions>
      </trkpt>
      <trkpt lat="47.54307419992983341217041015625" lon="11.01926707662642002105712890625">
        <ele>1296.4000244140625</ele>
        <time>2026-09-01T09:44:30.000Z</time>
        <extensions>
          <ns3:TrackPointExtension>
            <ns3:hr>148</ns3:hr>
            <ns3:cad>83</ns3:cad>
          </ns3:TrackPointExtension>
        </extensions>
      </trkpt>
      <trkpt lat="47.54308107309043407440185546875" lon="11.019249223172664642333984375">
        <ele>1296</ele>
        <time>2026-09-01T09:44:31.000Z</time>
        <extensions>
          <ns3:TrackPointExtension>
            <ns3:hr>148</ns3:hr>
            <ns3:cad>83</ns3:cad>
          </ns3:TrackPointExtension>
        </extensions>
      </trkpt>
      <trkpt lat="47.5430873595178127288818359375" lon="11.01922382600605487823486328125">
        <ele>1295.4000244140625</ele>
        <time>2026-09-01T09:44:32.000Z</time>
        <extensions>
          <ns3:TrackPointExtension>
            <ns3:hr>148</ns3:hr>
            <ns3:cad>71</ns3:cad>
          </ns3:TrackPointExtension>
        </extensions>
      </trkpt>
      <trkpt lat="47.54309096373617649078369140625" lon="11.01920169778168201446533203125">
        <ele>1294.5999755859375</ele>
        <time>2026-09-01T09:44:33.000Z</time>
        <extensions>
          <ns3:TrackPointExtension>
            <ns3:hr>147</ns3:hr>
            <ns3:cad>71</ns3:cad>
          </ns3:TrackPointExtension>
        </extensions>
      </trkpt>
      <trkpt lat="47.54308828152716159820556640625" lon="11.01913212798535823822021484375">
        <ele>1293.800048828125</ele>
        <time>2026-09-01T09:44:34.000Z</time>
        <extensions>
          <ns3:TrackPointExtension>
            <ns3:hr>146</ns3:hr>
            <ns3:cad>71</ns3:cad>
          </ns3:TrackPointExtension>
        </extensions>
      </trkpt>
      <trkpt lat="47.5430895388126373291015625" lon="11.01910329423844814300537109375">
        <ele>1293.199951171875</ele>
        <time>2026-09-01T09:44:35.000Z</time>
        <extensions>
          <ns3:TrackPointExtension>
            <ns3:hr>145</ns3:hr>
            <ns3:cad>71</ns3:cad>
          </ns3:TrackPointExtension>
        </extensions>
      </trkpt>
      <trkpt lat="47.54309398122131824493408203125" lon="11.01906825788319110870361328125">
        <ele>1292.4000244140625</ele>
        <time>2026-09-01T09:44:36.000Z</time>
        <extensions>
          <ns3:TrackPointExtension>
            <ns3:hr>144</ns3:hr>
            <ns3:cad>71</ns3:cad>
          </ns3:TrackPointExtension>
        </extensions>
      </trkpt>
      <trkpt lat="47.54307336173951625823974609375" lon="11.019011847674846649169921875">
        <ele>1291.5999755859375</ele>
        <time>2026-09-01T09:44:37.000Z</time>
        <extensions>
          <ns3:TrackPointExtension>
            <ns3:hr>143</ns3:hr>
            <ns3:cad>83</ns3:cad>
          </ns3:TrackPointExtension>
        </extensions>
      </trkpt>
      <trkpt lat="47.54306464456021785736083984375" lon="11.018967591226100921630859375">
        <ele>1291</ele>
        <time>2026-09-01T09:44:38.000Z</time>
        <extensions>
          <ns3:TrackPointExtension>
            <ns3:hr>142</ns3:hr>
            <ns3:cad>83</ns3:cad>
          </ns3:TrackPointExtension>
        </extensions>
      </trkpt>
      <trkpt lat="47.543068416416645050048828125" lon="11.01893599145114421844482421875">
        <ele>1290.4000244140625</ele>
        <time>2026-09-01T09:44:39.000Z</time>
        <extensions>
          <ns3:TrackPointExtension>
            <ns3:hr>142</ns3:hr>
            <ns3:cad>83</ns3:cad>
          </ns3:TrackPointExtension>
        </extensions>
      </trkpt>
      <trkpt lat="47.54307671450078487396240234375" lon="11.018873713910579681396484375">
        <ele>1289.5999755859375</ele>
        <time>2026-09-01T09:44:40.000Z</time>
        <extensions>
          <ns3:TrackPointExtension>
            <ns3:hr>142</ns3:hr>
            <ns3:cad>83</ns3:cad>
          </ns3:TrackPointExtension>
        </extensions>
      </trkpt>
      <trkpt lat="47.54307671450078487396240234375" lon="11.018873713910579681396484375">
        <ele>1289</ele>
        <time>2026-09-01T09:44:41.000Z</time>
        <extensions>
          <ns3:TrackPointExtension>
            <ns3:hr>142</ns3:hr>
            <ns3:cad>83</ns3:cad>
          </ns3:TrackPointExtension>
        </extensions>
      </trkpt>
      <trkpt lat="47.5430830009281635284423828125" lon="11.01885016076266765594482421875">
        <ele>1288.4000244140625</ele>
        <time>2026-09-01T09:44:42.000Z</time>
        <extensions>
          <ns3:TrackPointExtension>
            <ns3:hr>142</ns3:hr>
            <ns3:cad>83</ns3:cad>
          </ns3:TrackPointExtension>
        </extensions>
      </trkpt>
      <trkpt lat="47.543087191879749298095703125" lon="11.0188135318458080291748046875">
        <ele>1287.5999755859375</ele>
        <time>2026-09-01T09:44:43.000Z</time>
        <extensions>
          <ns3:TrackPointExtension>
            <ns3:hr>142</ns3:hr>
            <ns3:cad>83</ns3:cad>
          </ns3:TrackPointExtension>
        </extensions>
      </trkpt>
      <trkpt lat="47.543092556297779083251953125" lon="11.0187841951847076416015625">
        <ele>1287</ele>
        <time>2026-09-01T09:44:44.000Z</time>
        <extensions>
          <ns3:TrackPointExtension>
            <ns3:hr>142</ns3:hr>
            <ns3:cad>83</ns3:cad>
          </ns3:TrackPointExtension>
        </extensions>
      </trkpt>
      <trkpt lat="47.5430947355926036834716796875" lon="11.01875695399940013885498046875">
        <ele>1286.199951171875</ele>
        <time>2026-09-01T09:44:45.000Z</time>
        <extensions>
          <ns3:TrackPointExtension>
            <ns3:hr>142</ns3:hr>
            <ns3:cad>0</ns3:cad>
          </ns3:TrackPointExtension>
        </extensions>
      </trkpt>
      <trkpt lat="47.5430997647345066070556640625" lon="11.01873331703245639801025390625">
        <ele>1285.4000244140625</ele>
        <time>2026-09-01T09:44:46.000Z</time>
        <extensions>
          <ns3:TrackPointExtension>
            <ns3:hr>142</ns3:hr>
            <ns3:cad>0</ns3:cad>
          </ns3:TrackPointExtension>
        </extensions>
      </trkpt>
      <trkpt lat="47.54310973919928073883056640625" lon="11.01868604309856891632080078125">
        <ele>1285</ele>
        <time>2026-09-01T09:44:47.000Z</time>
        <extensions>
          <ns3:TrackPointExtension>
            <ns3:hr>141</ns3:hr>
            <ns3:cad>0</ns3:cad>
          </ns3:TrackPointExtension>
        </extensions>
      </trkpt>
      <trkpt lat="47.54311879165470600128173828125" lon="11.01864178664982318878173828125">
        <ele>1284.4000244140625</ele>
        <time>2026-09-01T09:44:48.000Z</time>
        <extensions>
          <ns3:TrackPointExtension>
            <ns3:hr>142</ns3:hr>
            <ns3:cad>57</ns3:cad>
          </ns3:TrackPointExtension>
        </extensions>
      </trkpt>
      <trkpt lat="47.54311929456889629364013671875" lon="11.01860339753329753875732421875">
        <ele>1284</ele>
        <time>2026-09-01T09:44:49.000Z</time>
        <extensions>
          <ns3:TrackPointExtension>
            <ns3:hr>142</ns3:hr>
            <ns3:cad>57</ns3:cad>
          </ns3:TrackPointExtension>
        </extensions>
      </trkpt>
      <trkpt lat="47.5431228987872600555419921875" lon="11.01856769062578678131103515625">
        <ele>1283.5999755859375</ele>
        <time>2026-09-01T09:44:50.000Z</time>
        <extensions>
          <ns3:TrackPointExtension>
            <ns3:hr>143</ns3:hr>
            <ns3:cad>87</ns3:cad>
          </ns3:TrackPointExtension>
        </extensions>
      </trkpt>
      <trkpt lat="47.543141506612300872802734375" lon="11.0185426287353038787841796875">
        <ele>1283</ele>
        <time>2026-09-01T09:44:51.000Z</time>
        <extensions>
          <ns3:TrackPointExtension>
            <ns3:hr>143</ns3:hr>
            <ns3:cad>87</ns3:cad>
          </ns3:TrackPointExtension>
        </extensions>
      </trkpt>
      <trkpt lat="47.54314963705837726593017578125" lon="11.01852125488221645355224609375">
        <ele>1282.4000244140625</ele>
        <time>2026-09-01T09:44:52.000Z</time>
        <extensions>
          <ns3:TrackPointExtension>
            <ns3:hr>144</ns3:hr>
            <ns3:cad>87</ns3:cad>
          </ns3:TrackPointExtension>
        </extensions>
      </trkpt>
      <trkpt lat="47.5632196851074695587158203125" lon="11.036421395838260650634765625">
        <ele>879.20001220703125</ele>
        <time>2026-09-01T10:05:06.000Z</time>
        <extensions>
          <ns3:TrackPointExtension>
            <ns3:hr>169</ns3:hr>
            <ns3:cad>84</ns3:cad>
          </ns3:TrackPointExtension>
        </extensions>
      </trkpt>
      <trkpt lat="47.56324860267341136932373046875" lon="11.036369092762470245361328125">
        <ele>878.79998779296875</ele>
        <time>2026-09-01T10:05:07.000Z</time>
        <extensions>
          <ns3:TrackPointExtension>
            <ns3:hr>169</ns3:hr>
            <ns3:cad>84</ns3:cad>
          </ns3:TrackPointExtension>
        </extensions>
      </trkpt>
      <trkpt lat="47.56328648887574672698974609375" lon="11.036349646747112274169921875">
        <ele>878.5999755859375</ele>
        <time>2026-09-01T10:05:08.000Z</time>
        <extensions>
          <ns3:TrackPointExtension>
            <ns3:hr>170</ns3:hr>
            <ns3:cad>84</ns3:cad>
          </ns3:TrackPointExtension>
        </extensions>
      </trkpt>
      <trkpt lat="47.56330174393951892852783203125" lon="11.03636766783893108367919921875">
        <ele>878.20001220703125</ele>
        <time>2026-09-01T10:05:09.000Z</time>
        <extensions>
          <ns3:TrackPointExtension>
            <ns3:hr>170</ns3:hr>
            <ns3:cad>84</ns3:cad>
          </ns3:TrackPointExtension>
        </extensions>
      </trkpt>
      <trkpt lat="47.56335287354886531829833984375" lon="11.03635643608868122100830078125">
        <ele>877.79998779296875</ele>
        <time>2026-09-01T10:05:10.000Z</time>
        <extensions>
          <ns3:TrackPointExtension>
            <ns3:hr>171</ns3:hr>
            <ns3:cad>84</ns3:cad>
          </ns3:TrackPointExtension>
        </extensions>
      </trkpt>
      <trkpt lat="47.56340391933917999267578125" lon="11.03633061982691287994384765625">
        <ele>877.20001220703125</ele>
        <time>2026-09-01T10:05:11.000Z</time>
        <extensions>
          <ns3:TrackPointExtension>
            <ns3:hr>171</ns3:hr>
            <ns3:cad>84</ns3:cad>
          </ns3:TrackPointExtension>
        </extensions>
      </trkpt>
      <trkpt lat="47.5634396262466907501220703125" lon="11.03632592596113681793212890625">
        <ele>876.5999755859375</ele>
        <time>2026-09-01T10:05:12.000Z</time>
        <extensions>
          <ns3:TrackPointExtension>
            <ns3:hr>171</ns3:hr>
            <ns3:cad>84</ns3:cad>
          </ns3:TrackPointExtension>
        </extensions>
      </trkpt>
      <trkpt lat="47.5634734891355037689208984375" lon="11.03632114827632904052734375">
        <ele>876.5999755859375</ele>
        <time>2026-09-01T10:05:13.000Z</time>
        <extensions>
          <ns3:TrackPointExtension>
            <ns3:hr>170</ns3:hr>
            <ns3:cad>85</ns3:cad>
          </ns3:TrackPointExtension>
        </extensions>
      </trkpt>
      <trkpt lat="47.5635137222707271575927734375" lon="11.03631578385829925537109375">
        <ele>876.5999755859375</ele>
        <time>2026-09-01T10:05:14.000Z</time>
        <extensions>
          <ns3:TrackPointExtension>
            <ns3:hr>171</ns3:hr>
            <ns3:cad>86</ns3:cad>
          </ns3:TrackPointExtension>
        </extensions>
      </trkpt>
      <trkpt lat="47.56355345249176025390625" lon="11.03630815632641315460205078125">
        <ele>876.4000244140625</ele>
        <time>2026-09-01T10:05:15.000Z</time>
        <extensions>
          <ns3:TrackPointExtension>
            <ns3:hr>171</ns3:hr>
            <ns3:cad>86</ns3:cad>
          </ns3:TrackPointExtension>
        </extensions>
      </trkpt>
      <trkpt lat="47.5635941885411739349365234375" lon="11.0363008640706539154052734375">
        <ele>876.20001220703125</ele>
        <time>2026-09-01T10:05:16.000Z</time>
        <extensions>
          <ns3:TrackPointExtension>
            <ns3:hr>171</ns3:hr>
            <ns3:cad>86</ns3:cad>
          </ns3:TrackPointExtension>
        </extensions>
      </trkpt>
      <trkpt lat="47.56363182328641414642333984375" lon="11.0362830944359302520751953125">
        <ele>876.4000244140625</ele>
        <time>2026-09-01T10:05:17.000Z</time>
        <extensions>
          <ns3:TrackPointExtension>
            <ns3:hr>171</ns3:hr>
            <ns3:cad>85</ns3:cad>
          </ns3:TrackPointExtension>
        </extensions>
      </trkpt>
      <trkpt lat="47.5636803545057773590087890625" lon="11.0362867824733257293701171875">
        <ele>876.5999755859375</ele>
        <time>2026-09-01T10:05:18.000Z</time>
        <extensions>
          <ns3:TrackPointExtension>
            <ns3:hr>171</ns3:hr>
            <ns3:cad>85</ns3:cad>
          </ns3:TrackPointExtension>
        </extensions>
      </trkpt>
      <trkpt lat="47.56372804753482341766357421875" lon="11.03628032840788364410400390625">
        <ele>876</ele>
        <time>2026-09-01T10:05:19.000Z</time>
        <extensions>
          <ns3:TrackPointExtension>
            <ns3:hr>172</ns3:hr>
            <ns3:cad>85</ns3:cad>
          </ns3:TrackPointExtension>
        </extensions>
      </trkpt>
      <trkpt lat="47.56377532146871089935302734375" lon="11.03627395816147327423095703125">
        <ele>875.79998779296875</ele>
        <time>2026-09-01T10:05:20.000Z</time>
        <extensions>
          <ns3:TrackPointExtension>
            <ns3:hr>172</ns3:hr>
            <ns3:cad>85</ns3:cad>
          </ns3:TrackPointExtension>
        </extensions>
      </trkpt>
      <trkpt lat="47.5638248585164546966552734375" lon="11.0362733714282512664794921875">
        <ele>876</ele>
        <time>2026-09-01T10:05:21.000Z</time>
        <extensions>
          <ns3:TrackPointExtension>
            <ns3:hr>173</ns3:hr>
            <ns3:cad>85</ns3:cad>
          </ns3:TrackPointExtension>
        </extensions>
      </trkpt>
      <trkpt lat="47.56386400200426578521728515625" lon="11.03626792319118976593017578125">
        <ele>875.79998779296875</ele>
        <time>2026-09-01T10:05:22.000Z</time>
        <extensions>
          <ns3:TrackPointExtension>
            <ns3:hr>174</ns3:hr>
            <ns3:cad>85</ns3:cad>
          </ns3:TrackPointExtension>
        </extensions>
      </trkpt>
      <trkpt lat="47.56391077302396297454833984375" lon="11.0362614691257476806640625">
        <ele>875.5999755859375</ele>
        <time>2026-09-01T10:05:23.000Z</time>
        <extensions>
          <ns3:TrackPointExtension>
            <ns3:hr>175</ns3:hr>
            <ns3:cad>85</ns3:cad>
          </ns3:TrackPointExtension>
        </extensions>
      </trkpt>
      <trkpt lat="47.56395352073013782501220703125" lon="11.0362561047077178955078125">
        <ele>876</ele>
        <time>2026-09-01T10:05:24.000Z</time>
        <extensions>
          <ns3:TrackPointExtension>
            <ns3:hr>177</ns3:hr>
            <ns3:cad>86</ns3:cad>
          </ns3:TrackPointExtension>
        </extensions>
      </trkpt>
      <trkpt lat="47.56398486904799938201904296875" lon="11.03625182993710041046142578125">
        <ele>876.20001220703125</ele>
        <time>2026-09-01T10:05:25.000Z</time>
        <extensions>
          <ns3:TrackPointExtension>
            <ns3:hr>178</ns3:hr>
            <ns3:cad>86</ns3:cad>
          </ns3:TrackPointExtension>
        </extensions>
      </trkpt>
      <trkpt lat="47.56402443163096904754638671875" lon="11.0362438671290874481201171875">
        <ele>876</ele>
        <time>2026-09-01T10:05:26.000Z</time>
        <extensions>
          <ns3:TrackPointExtension>
            <ns3:hr>179</ns3:hr>
            <ns3:cad>85</ns3:cad>
          </ns3:TrackPointExtension>
        </extensions>
      </trkpt>
      <trkpt lat="47.5640578754246234893798828125" lon="11.036239005625247955322265625">
        <ele>876</ele>
        <time>2026-09-01T10:05:27.000Z</time>
        <extensions>
          <ns3:TrackPointExtension>
            <ns3:hr>180</ns3:hr>
            <ns3:cad>85</ns3:cad>
          </ns3:TrackPointExtension>
        </extensions>
      </trkpt>
      <trkpt lat="47.564096264541149139404296875" lon="11.03623355738818645477294921875">
        <ele>875.79998779296875</ele>
        <time>2026-09-01T10:05:28.000Z</time>
        <extensions>
          <ns3:TrackPointExtension>
            <ns3:hr>180</ns3:hr>
            <ns3:cad>84</ns3:cad>
          </ns3:TrackPointExtension>
        </extensions>
      </trkpt>
      <trkpt lat="47.56413725204765796661376953125" lon="11.03622953407466411590576171875">
        <ele>876</ele>
        <time>2026-09-01T10:05:29.000Z</time>
        <extensions>
          <ns3:TrackPointExtension>
            <ns3:hr>181</ns3:hr>
            <ns3:cad>84</ns3:cad>
          </ns3:TrackPointExtension>
        </extensions>
      </trkpt>
      <trkpt lat="47.5641698576509952545166015625" lon="11.03622266091406345367431640625">
        <ele>876</ele>
        <time>2026-09-01T10:05:30.000Z</time>
        <extensions>
          <ns3:TrackPointExtension>
            <ns3:hr>181</ns3:hr>
            <ns3:cad>84</ns3:cad>
          </ns3:TrackPointExtension>
        </extensions>
      </trkpt>
      <trkpt lat="47.56421528756618499755859375" lon="11.03622299619019031524658203125">
        <ele>876</ele>
        <time>2026-09-01T10:05:31.000Z</time>
        <extensions>
          <ns3:TrackPointExtension>
            <ns3:hr>182</ns3:hr>
            <ns3:cad>84</ns3:cad>
          </ns3:TrackPointExtension>
        </extensions>
      </trkpt>
      <trkpt lat="47.564245127141475677490234375" lon="11.03621209971606731414794921875">
        <ele>875.79998779296875</ele>
        <time>2026-09-01T10:05:32.000Z</time>
        <extensions>
          <ns3:TrackPointExtension>
            <ns3:hr>182</ns3:hr>
            <ns3:cad>85</ns3:cad>
          </ns3:TrackPointExtension>
        </extensions>
      </trkpt>
      <trkpt lat="47.564284019172191619873046875" lon="11.0362120158970355987548828125">
        <ele>875.79998779296875</ele>
        <time>2026-09-01T10:05:33.000Z</time>
        <extensions>
          <ns3:TrackPointExtension>
            <ns3:hr>183</ns3:hr>
            <ns3:cad>85</ns3:cad>
          </ns3:TrackPointExtension>
        </extensions>
      </trkpt>
      <trkpt lat="47.56432123482227325439453125" lon="11.036216206848621368408203125">
        <ele>875.79998779296875</ele>
        <time>2026-09-01T10:05:34.000Z</time>
        <extensions>
          <ns3:TrackPointExtension>
            <ns3:hr>183</ns3:hr>
            <ns3:cad>85</ns3:cad>
          </ns3:TrackPointExtension>
        </extensions>
      </trkpt>
      <trkpt lat="47.56435987539589405059814453125" lon="11.036219894886016845703125">
        <ele>875.79998779296875</ele>
        <time>2026-09-01T10:05:35.000Z</time>
        <extensions>
          <ns3:TrackPointExtension>
            <ns3:hr>183</ns3:hr>
            <ns3:cad>85</ns3:cad>
          </ns3:TrackPointExtension>
        </extensions>
      </trkpt>
      <trkpt lat="47.5643981806933879852294921875" lon="11.0362304560840129852294921875">
        <ele>875.5999755859375</ele>
        <time>2026-09-01T10:05:36.000Z</time>
        <extensions>
          <ns3:TrackPointExtension>
            <ns3:hr>184</ns3:hr>
            <ns3:cad>84</ns3:cad>
          </ns3:TrackPointExtension>
        </extensions>
      </trkpt>
      <trkpt lat="47.5644347257912158966064453125" lon="11.03623892180621623992919921875">
        <ele>875.4000244140625</ele>
        <time>2026-09-01T10:05:37.000Z</time>
        <extensions>
          <ns3:TrackPointExtension>
            <ns3:hr>184</ns3:hr>
            <ns3:cad>84</ns3:cad>
          </ns3:TrackPointExtension>
        </extensions>
      </trkpt>
      <trkpt lat="47.56446565501391887664794921875" lon="11.0362448729574680328369140625">
        <ele>875.4000244140625</ele>
        <time>2026-09-01T10:05:38.000Z</time>
        <extensions>
          <ns3:TrackPointExtension>
            <ns3:hr>185</ns3:hr>
            <ns3:cad>84</ns3:cad>
          </ns3:TrackPointExtension>
        </extensions>
      </trkpt>
      <trkpt lat="47.56449918262660503387451171875" lon="11.03625048883259296417236328125">
        <ele>875.4000244140625</ele>
        <time>2026-09-01T10:05:39.000Z</time>
        <extensions>
          <ns3:TrackPointExtension>
            <ns3:hr>185</ns3:hr>
            <ns3:cad>84</ns3:cad>
          </ns3:TrackPointExtension>
        </extensions>
      </trkpt>
      <trkpt lat="47.56453220732510089874267578125" lon="11.036255098879337310791015625">
        <ele>875.20001220703125</ele>
        <time>2026-09-01T10:05:40.000Z</time>
        <extensions>
          <ns3:TrackPointExtension>
            <ns3:hr>186</ns3:hr>
            <ns3:cad>84</ns3:cad>
          </ns3:TrackPointExtension>
        </extensions>
      </trkpt>
      <trkpt lat="47.5645685009658336639404296875" lon="11.036252081394195556640625">
        <ele>875.5999755859375</ele>
        <time>2026-09-01T10:05:41.000Z</time>
        <extensions>
          <ns3:TrackPointExtension>
            <ns3:hr>186</ns3:hr>
            <ns3:cad>84</ns3:cad>
          </ns3:TrackPointExtension>
        </extensions>
      </trkpt>
      <trkpt lat="47.5646016933023929595947265625" lon="11.03625568561255931854248046875">
        <ele>875.5999755859375</ele>
        <time>2026-09-01T10:05:42.000Z</time>
        <extensions>
          <ns3:TrackPointExtension>
            <ns3:hr>187</ns3:hr>
            <ns3:cad>84</ns3:cad>
          </ns3:TrackPointExtension>
        </extensions>
      </trkpt>
      <trkpt lat="47.56464712321758270263671875" lon="11.0362556017935276031494140625">
        <ele>875.4000244140625</ele>
        <time>2026-09-01T10:05:43.000Z</time>
        <extensions>
          <ns3:TrackPointExtension>
            <ns3:hr>187</ns3:hr>
            <ns3:cad>83</ns3:cad>
          </ns3:TrackPointExtension>
        </extensions>
      </trkpt>
      <trkpt lat="47.564680315554141998291015625" lon="11.03625920601189136505126953125">
        <ele>875.4000244140625</ele>
        <time>2026-09-01T10:05:44.000Z</time>
        <extensions>
          <ns3:TrackPointExtension>
            <ns3:hr>188</ns3:hr>
            <ns3:cad>83</ns3:cad>
          </ns3:TrackPointExtension>
        </extensions>
      </trkpt>
      <trkpt lat="47.56471744738519191741943359375" lon="11.03627127595245838165283203125">
        <ele>875.4000244140625</ele>
        <time>2026-09-01T10:05:45.000Z</time>
        <extensions>
          <ns3:TrackPointExtension>
            <ns3:hr>188</ns3:hr>
            <ns3:cad>84</ns3:cad>
          </ns3:TrackPointExtension>
        </extensions>
      </trkpt>
      <trkpt lat="47.56475499831140041351318359375" lon="11.036281585693359375">
        <ele>875.4000244140625</ele>
        <time>2026-09-01T10:05:46.000Z</time>
        <extensions>
          <ns3:TrackPointExtension>
            <ns3:hr>188</ns3:hr>
            <ns3:cad>84</ns3:cad>
          </ns3:TrackPointExtension>
        </extensions>
      </trkpt>
      <trkpt lat="47.5647803954780101776123046875" lon="11.03628837503492832183837890625">
        <ele>875.4000244140625</ele>
        <time>2026-09-01T10:05:47.000Z</time>
        <extensions>
          <ns3:TrackPointExtension>
            <ns3:hr>188</ns3:hr>
            <ns3:cad>84</ns3:cad>
          </ns3:TrackPointExtension>
        </extensions>
      </trkpt>
      <trkpt lat="47.56481970660388469696044921875" lon="11.0362965054810047149658203125">
        <ele>875.4000244140625</ele>
        <time>2026-09-01T10:05:48.000Z</time>
        <extensions>
          <ns3:TrackPointExtension>
            <ns3:hr>189</ns3:hr>
            <ns3:cad>84</ns3:cad>
          </ns3:TrackPointExtension>
        </extensions>
      </trkpt>
      <trkpt lat="47.56485055200755596160888671875" lon="11.0363045521080493927001953125">
        <ele>875.20001220703125</ele>
        <time>2026-09-01T10:05:49.000Z</time>
        <extensions>
          <ns3:TrackPointExtension>
            <ns3:hr>189</ns3:hr>
            <ns3:cad>83</ns3:cad>
          </ns3:TrackPointExtension>
        </extensions>
      </trkpt>
      <trkpt lat="47.56488558836281299591064453125" lon="11.03630463592708110809326171875">
        <ele>875</ele>
        <time>2026-09-01T10:05:50.000Z</time>
        <extensions>
          <ns3:TrackPointExtension>
            <ns3:hr>189</ns3:hr>
            <ns3:cad>84</ns3:cad>
          </ns3:TrackPointExtension>
        </extensions>
      </trkpt>
      <trkpt lat="47.5649185292422771453857421875" lon="11.03629658930003643035888671875">
        <ele>874</ele>
        <time>2026-09-01T10:05:51.000Z</time>
        <extensions>
          <ns3:TrackPointExtension>
            <ns3:hr>189</ns3:hr>
            <ns3:cad>84</ns3:cad>
          </ns3:TrackPointExtension>
        </extensions>
      </trkpt>
      <trkpt lat="47.56494778208434581756591796875" lon="11.03629474528133869171142578125">
        <ele>873.79998779296875</ele>
        <time>2026-09-01T10:05:52.000Z</time>
        <extensions>
          <ns3:TrackPointExtension>
            <ns3:hr>189</ns3:hr>
            <ns3:cad>84</ns3:cad>
          </ns3:TrackPointExtension>
        </extensions>
      </trkpt>
      <trkpt lat="47.56498013623058795928955078125" lon="11.0362918116152286529541015625">
        <ele>873.79998779296875</ele>
        <time>2026-09-01T10:05:53.000Z</time>
        <extensions>
          <ns3:TrackPointExtension>
            <ns3:hr>189</ns3:hr>
            <ns3:cad>85</ns3:cad>
          </ns3:TrackPointExtension>
        </extensions>
      </trkpt>
      <trkpt lat="47.56500829942524433135986328125" lon="11.0362874530255794525146484375">
        <ele>873.5999755859375</ele>
        <time>2026-09-01T10:05:54.000Z</time>
        <extensions>
          <ns3:TrackPointExtension>
            <ns3:hr>189</ns3:hr>
            <ns3:cad>85</ns3:cad>
          </ns3:TrackPointExtension>
        </extensions>
      </trkpt>
      <trkpt lat="47.5650412403047084808349609375" lon="11.03628837503492832183837890625">
        <ele>873.5999755859375</ele>
        <time>2026-09-01T10:05:55.000Z</time>
        <extensions>
          <ns3:TrackPointExtension>
            <ns3:hr>189</ns3:hr>
            <ns3:cad>85</ns3:cad>
          </ns3:TrackPointExtension>
        </extensions>
      </trkpt>
      <trkpt lat="47.56507468409836292266845703125" lon="11.0362857766449451446533203125">
        <ele>873</ele>
        <time>2026-09-01T10:05:56.000Z</time>
        <extensions>
          <ns3:TrackPointExtension>
            <ns3:hr>189</ns3:hr>
            <ns3:cad>85</ns3:cad>
          </ns3:TrackPointExtension>
        </extensions>
      </trkpt>
      <trkpt lat="47.56511474959552288055419921875" lon="11.03627831675112247467041015625">
        <ele>872.79998779296875</ele>
        <time>2026-09-01T10:05:57.000Z</time>
        <extensions>
          <ns3:TrackPointExtension>
            <ns3:hr>189</ns3:hr>
            <ns3:cad>85</ns3:cad>
          </ns3:TrackPointExtension>
        </extensions>
      </trkpt>
      <trkpt lat="47.56515783257782459259033203125" lon="11.03627563454210758209228515625">
        <ele>872.20001220703125</ele>
        <time>2026-09-01T10:05:58.000Z</time>
        <extensions>
          <ns3:TrackPointExtension>
            <ns3:hr>189</ns3:hr>
            <ns3:cad>84</ns3:cad>
          </ns3:TrackPointExtension>
        </extensions>
      </trkpt>
      <trkpt lat="47.56518348120152950286865234375" lon="11.0362646542489528656005859375">
        <ele>872.20001220703125</ele>
        <time>2026-09-01T10:05:59.000Z</time>
        <extensions>
          <ns3:TrackPointExtension>
            <ns3:hr>190</ns3:hr>
            <ns3:cad>84</ns3:cad>
          </ns3:TrackPointExtension>
        </extensions>
      </trkpt>
      <trkpt lat="47.56522606126964092254638671875" lon="11.03625836782157421112060546875">
        <ele>872</ele>
        <time>2026-09-01T10:06:00.000Z</time>
        <extensions>
          <ns3:TrackPointExtension>
            <ns3:hr>190</ns3:hr>
            <ns3:cad>84</ns3:cad>
          </ns3:TrackPointExtension>
        </extensions>
      </trkpt>
      <trkpt lat="47.56525975652039051055908203125" lon="11.03624965064227581024169921875">
        <ele>871.79998779296875</ele>
        <time>2026-09-01T10:06:01.000Z</time>
        <extensions>
          <ns3:TrackPointExtension>
            <ns3:hr>190</ns3:hr>
            <ns3:cad>84</ns3:cad>
          </ns3:TrackPointExtension>
        </extensions>
      </trkpt>
      <trkpt lat="47.5652957148849964141845703125" lon="11.03624244220554828643798828125">
        <ele>871.5999755859375</ele>
        <time>2026-09-01T10:06:02.000Z</time>
        <extensions>
          <ns3:TrackPointExtension>
            <ns3:hr>189</ns3:hr>
            <ns3:cad>84</ns3:cad>
          </ns3:TrackPointExtension>
        </extensions>
      </trkpt>
      <trkpt lat="47.56533469073474407196044921875" lon="11.0362346470355987548828125">
        <ele>871.5999755859375</ele>
        <time>2026-09-01T10:06:03.000Z</time>
        <extensions>
          <ns3:TrackPointExtension>
            <ns3:hr>189</ns3:hr>
            <ns3:cad>84</ns3:cad>
          </ns3:TrackPointExtension>
        </extensions>
      </trkpt>
      <trkpt lat="47.5653706490993499755859375" lon="11.03622819297015666961669921875">
        <ele>871.5999755859375</ele>
        <time>2026-09-01T10:06:04.000Z</time>
        <extensions>
          <ns3:TrackPointExtension>
            <ns3:hr>189</ns3:hr>
            <ns3:cad>84</ns3:cad>
          </ns3:TrackPointExtension>
        </extensions>
      </trkpt>
      <trkpt lat="47.5654157437384128570556640625" lon="11.036216877400875091552734375">
        <ele>871.4000244140625</ele>
        <time>2026-09-01T10:06:05.000Z</time>
        <extensions>
          <ns3:TrackPointExtension>
            <ns3:hr>189</ns3:hr>
            <ns3:cad>84</ns3:cad>
          </ns3:TrackPointExtension>
        </extensions>
      </trkpt>
      <trkpt lat="47.5654522888362407684326171875" lon="11.0362078249454498291015625">
        <ele>871.4000244140625</ele>
        <time>2026-09-01T10:06:06.000Z</time>
        <extensions>
          <ns3:TrackPointExtension>
            <ns3:hr>189</ns3:hr>
            <ns3:cad>84</ns3:cad>
          </ns3:TrackPointExtension>
        </extensions>
      </trkpt>
      <trkpt lat="47.56549143232405185699462890625" lon="11.03619374334812164306640625">
        <ele>871.20001220703125</ele>
        <time>2026-09-01T10:06:07.000Z</time>
        <extensions>
          <ns3:TrackPointExtension>
            <ns3:hr>189</ns3:hr>
            <ns3:cad>84</ns3:cad>
          </ns3:TrackPointExtension>
        </extensions>
      </trkpt>
      <trkpt lat="47.5655263848602771759033203125" lon="11.0361711122095584869384765625">
        <ele>871</ele>
        <time>2026-09-01T10:06:08.000Z</time>
        <extensions>
          <ns3:TrackPointExtension>
            <ns3:hr>189</ns3:hr>
            <ns3:cad>83</ns3:cad>
          </ns3:TrackPointExtension>
        </extensions>
      </trkpt>
      <trkpt lat="47.5655622594058513641357421875" lon="11.036153174936771392822265625">
        <ele>870.79998779296875</ele>
        <time>2026-09-01T10:06:09.000Z</time>
        <extensions>
          <ns3:TrackPointExtension>
            <ns3:hr>189</ns3:hr>
            <ns3:cad>83</ns3:cad>
          </ns3:TrackPointExtension>
        </extensions>
      </trkpt>
      <trkpt lat="47.56559788249433040618896484375" lon="11.0361198149621486663818359375">
        <ele>870.5999755859375</ele>
        <time>2026-09-01T10:06:10.000Z</time>
        <extensions>
          <ns3:TrackPointExtension>
            <ns3:hr>189</ns3:hr>
            <ns3:cad>83</ns3:cad>
          </ns3:TrackPointExtension>
        </extensions>
      </trkpt>
      <trkpt lat="47.56563962437212467193603515625" lon="11.0360711999237537384033203125">
        <ele>870.20001220703125</ele>
        <time>2026-09-01T10:06:11.000Z</time>
        <extensions>
          <ns3:TrackPointExtension>
            <ns3:hr>188</ns3:hr>
            <ns3:cad>83</ns3:cad>
          </ns3:TrackPointExtension>
        </extensions>
      </trkpt>
      <trkpt lat="47.56567331962287425994873046875" lon="11.03604194708168506622314453125">
        <ele>870.20001220703125</ele>
        <time>2026-09-01T10:06:12.000Z</time>
        <extensions>
          <ns3:TrackPointExtension>
            <ns3:hr>189</ns3:hr>
            <ns3:cad>83</ns3:cad>
          </ns3:TrackPointExtension>
        </extensions>
      </trkpt>
      <trkpt lat="47.5657315738499164581298828125" lon="11.03598654270172119140625">
        <ele>870</ele>
        <time>2026-09-01T10:06:13.000Z</time>
        <extensions>
          <ns3:TrackPointExtension>
            <ns3:hr>189</ns3:hr>
            <ns3:cad>83</ns3:cad>
          </ns3:TrackPointExtension>
        </extensions>
      </trkpt>
      <trkpt lat="47.56576568819582462310791015625" lon="11.035960726439952850341796875">
        <ele>870</ele>
        <time>2026-09-01T10:06:14.000Z</time>
        <extensions>
          <ns3:TrackPointExtension>
            <ns3:hr>189</ns3:hr>
            <ns3:cad>83</ns3:cad>
          </ns3:TrackPointExtension>
        </extensions>
      </trkpt>
      <trkpt lat="47.5658023171126842498779296875" lon="11.03592577390372753143310546875">
        <ele>869.4000244140625</ele>
        <time>2026-09-01T10:06:15.000Z</time>
        <extensions>
          <ns3:TrackPointExtension>
            <ns3:hr>190</ns3:hr>
            <ns3:cad>84</ns3:cad>
          </ns3:TrackPointExtension>
        </extensions>
      </trkpt>
      <trkpt lat="47.56583827547729015350341796875" lon="11.03588403202593326568603515625">
        <ele>869.5999755859375</ele>
        <time>2026-09-01T10:06:16.000Z</time>
        <extensions>
          <ns3:TrackPointExtension>
            <ns3:hr>190</ns3:hr>
            <ns3:cad>85</ns3:cad>
          </ns3:TrackPointExtension>
        </extensions>
      </trkpt>
      <trkpt lat="47.56587599404156208038330078125" lon="11.03585033677518367767333984375">
        <ele>869.4000244140625</ele>
        <time>2026-09-01T10:06:17.000Z</time>
        <extensions>
          <ns3:TrackPointExtension>
            <ns3:hr>190</ns3:hr>
            <ns3:cad>85</ns3:cad>
          </ns3:TrackPointExtension>
        </extensions>
      </trkpt>
      <trkpt lat="47.5659149698913097381591796875" lon="11.035816557705402374267578125">
        <ele>868.5999755859375</ele>
        <time>2026-09-01T10:06:18.000Z</time>
        <extensions>
          <ns3:TrackPointExtension>
            <ns3:hr>191</ns3:hr>
            <ns3:cad>85</ns3:cad>
          </ns3:TrackPointExtension>
        </extensions>
      </trkpt>
      <trkpt lat="47.56596383638679981231689453125" lon="11.0357828624546527862548828125">
        <ele>868.4000244140625</ele>
        <time>2026-09-01T10:06:19.000Z</time>
        <extensions>
          <ns3:TrackPointExtension>
            <ns3:hr>191</ns3:hr>
            <ns3:cad>85</ns3:cad>
          </ns3:TrackPointExtension>
        </extensions>
      </trkpt>
      <trkpt lat="47.56601496599614620208740234375" lon="11.03573366068303585052490234375">
        <ele>868.20001220703125</ele>
        <time>2026-09-01T10:06:20.000Z</time>
        <extensions>
          <ns3:TrackPointExtension>
            <ns3:hr>191</ns3:hr>
            <ns3:cad>85</ns3:cad>
          </ns3:TrackPointExtension>
        </extensions>
      </trkpt>
      <trkpt lat="47.56604966707527637481689453125" lon="11.0357035696506500244140625">
        <ele>868</ele>
        <time>2026-09-01T10:06:21.000Z</time>
        <extensions>
          <ns3:TrackPointExtension>
            <ns3:hr>191</ns3:hr>
            <ns3:cad>86</ns3:cad>
          </ns3:TrackPointExtension>
        </extensions>
      </trkpt>
      <trkpt lat="47.5660993717610836029052734375" lon="11.035674400627613067626953125">
        <ele>867.79998779296875</ele>
        <time>2026-09-01T10:06:22.000Z</time>
        <extensions>
          <ns3:TrackPointExtension>
            <ns3:hr>191</ns3:hr>
            <ns3:cad>86</ns3:cad>
          </ns3:TrackPointExtension>
        </extensions>
      </trkpt>
      <trkpt lat="47.566136419773101806640625" lon="11.0356480814516544342041015625">
        <ele>867.79998779296875</ele>
        <time>2026-09-01T10:06:23.000Z</time>
        <extensions>
          <ns3:TrackPointExtension>
            <ns3:hr>191</ns3:hr>
            <ns3:cad>86</ns3:cad>
          </ns3:TrackPointExtension>
        </extensions>
      </trkpt>
      <trkpt lat="47.56618394516408443450927734375" lon="11.03562871925532817840576171875">
        <ele>867.79998779296875</ele>
        <time>2026-09-01T10:06:24.000Z</time>
        <extensions>
          <ns3:TrackPointExtension>
            <ns3:hr>191</ns3:hr>
            <ns3:cad>86</ns3:cad>
          </ns3:TrackPointExtension>
        </extensions>
      </trkpt>
      <trkpt lat="47.56622551940381526947021484375" lon="11.03559686802327632904052734375">
        <ele>867.5999755859375</ele>
        <time>2026-09-01T10:06:25.000Z</time>
        <extensions>
          <ns3:TrackPointExtension>
            <ns3:hr>191</ns3:hr>
            <ns3:cad>85</ns3:cad>
          </ns3:TrackPointExtension>
        </extensions>
      </trkpt>
      <trkpt lat="47.566260807216167449951171875" lon="11.0355766676366329193115234375">
        <ele>867.5999755859375</ele>
        <time>2026-09-01T10:06:26.000Z</time>
        <extensions>
          <ns3:TrackPointExtension>
            <ns3:hr>191</ns3:hr>
            <ns3:cad>85</ns3:cad>
          </ns3:TrackPointExtension>
        </extensions>
      </trkpt>
      <trkpt lat="47.5663035549223423004150390625" lon="11.03554858826100826263427734375">
        <ele>867.79998779296875</ele>
        <time>2026-09-01T10:06:27.000Z</time>
        <extensions>
          <ns3:TrackPointExtension>
            <ns3:hr>191</ns3:hr>
            <ns3:cad>86</ns3:cad>
          </ns3:TrackPointExtension>
        </extensions>
      </trkpt>
      <trkpt lat="47.56634630262851715087890625" lon="11.03551807813346385955810546875">
        <ele>867.5999755859375</ele>
        <time>2026-09-01T10:06:28.000Z</time>
        <extensions>
          <ns3:TrackPointExtension>
            <ns3:hr>191</ns3:hr>
            <ns3:cad>86</ns3:cad>
          </ns3:TrackPointExtension>
        </extensions>
      </trkpt>
      <trkpt lat="47.5663796626031398773193359375" lon="11.03549444116652011871337890625">
        <ele>867</ele>
        <time>2026-09-01T10:06:29.000Z</time>
        <extensions>
          <ns3:TrackPointExtension>
            <ns3:hr>191</ns3:hr>
            <ns3:cad>86</ns3:cad>
          </ns3:TrackPointExtension>
        </extensions>
      </trkpt>
      <trkpt lat="47.5664155371487140655517578125" lon="11.03546812199056148529052734375">
        <ele>866.5999755859375</ele>
        <time>2026-09-01T10:06:30.000Z</time>
        <extensions>
          <ns3:TrackPointExtension>
            <ns3:hr>191</ns3:hr>
            <ns3:cad>86</ns3:cad>
          </ns3:TrackPointExtension>
        </extensions>
      </trkpt>
      <trkpt lat="47.56644797511398792266845703125" lon="11.03544565849006175994873046875">
        <ele>866.4000244140625</ele>
        <time>2026-09-01T10:06:31.000Z</time>
        <extensions>
          <ns3:TrackPointExtension>
            <ns3:hr>192</ns3:hr>
            <ns3:cad>86</ns3:cad>
          </ns3:TrackPointExtension>
        </extensions>
      </trkpt>
      <trkpt lat="47.56647697649896144866943359375" lon="11.035424284636974334716796875">
        <ele>866.20001220703125</ele>
        <time>2026-09-01T10:06:32.000Z</time>
        <extensions>
          <ns3:TrackPointExtension>
            <ns3:hr>191</ns3:hr>
            <ns3:cad>85</ns3:cad>
          </ns3:TrackPointExtension>
        </extensions>
      </trkpt>
      <trkpt lat="47.566508240997791290283203125" lon="11.035413555800914764404296875">
        <ele>866.20001220703125</ele>
        <time>2026-09-01T10:06:33.000Z</time>
        <extensions>
          <ns3:TrackPointExtension>
            <ns3:hr>191</ns3:hr>
            <ns3:cad>84</ns3:cad>
          </ns3:TrackPointExtension>
        </extensions>
      </trkpt>
      <trkpt lat="47.56655308417975902557373046875" lon="11.03540492244064807891845703125">
        <ele>866.20001220703125</ele>
        <time>2026-09-01T10:06:34.000Z</time>
        <extensions>
          <ns3:TrackPointExtension>
            <ns3:hr>191</ns3:hr>
            <ns3:cad>84</ns3:cad>
          </ns3:TrackPointExtension>
        </extensions>
      </trkpt>
      <trkpt lat="47.5665868632495403289794921875" lon="11.0353922657668590545654296875">
        <ele>866</ele>
        <time>2026-09-01T10:06:35.000Z</time>
        <extensions>
          <ns3:TrackPointExtension>
            <ns3:hr>192</ns3:hr>
            <ns3:cad>83</ns3:cad>
          </ns3:TrackPointExtension>
        </extensions>
      </trkpt>
      <trkpt lat="47.5666213966906070709228515625" lon="11.03537608869373798370361328125">
        <ele>865.79998779296875</ele>
        <time>2026-09-01T10:06:36.000Z</time>
        <extensions>
          <ns3:TrackPointExtension>
            <ns3:hr>191</ns3:hr>
            <ns3:cad>83</ns3:cad>
          </ns3:TrackPointExtension>
        </extensions>
      </trkpt>
      <trkpt lat="47.56665970198810100555419921875" lon="11.03535815142095088958740234375">
        <ele>865.79998779296875</ele>
        <time>2026-09-01T10:06:37.000Z</time>
        <extensions>
          <ns3:TrackPointExtension>
            <ns3:hr>191</ns3:hr>
            <ns3:cad>84</ns3:cad>
          </ns3:TrackPointExtension>
        </extensions>
      </trkpt>
      <trkpt lat="47.56669239141047000885009765625" lon="11.03534591384232044219970703125">
        <ele>865.5999755859375</ele>
        <time>2026-09-01T10:06:38.000Z</time>
        <extensions>
          <ns3:TrackPointExtension>
            <ns3:hr>192</ns3:hr>
            <ns3:cad>84</ns3:cad>
          </ns3:TrackPointExtension>
        </extensions>
      </trkpt>
      <trkpt lat="47.56673254072666168212890625" lon="11.03533267043530941009521484375">
        <ele>865.4000244140625</ele>
        <time>2026-09-01T10:06:39.000Z</time>
        <extensions>
          <ns3:TrackPointExtension>
            <ns3:hr>191</ns3:hr>
            <ns3:cad>84</ns3:cad>
          </ns3:TrackPointExtension>
        </extensions>
      </trkpt>
      <trkpt lat="47.56677252240478992462158203125" lon="11.03531070984899997711181640625">
        <ele>865.4000244140625</ele>
        <time>2026-09-01T10:06:40.000Z</time>
        <extensions>
          <ns3:TrackPointExtension>
            <ns3:hr>191</ns3:hr>
            <ns3:cad>84</ns3:cad>
          </ns3:TrackPointExtension>
        </extensions>
      </trkpt>
      <trkpt lat="47.56680856458842754364013671875" lon="11.03530148975551128387451171875">
        <ele>865</ele>
        <time>2026-09-01T10:06:41.000Z</time>
        <extensions>
          <ns3:TrackPointExtension>
            <ns3:hr>192</ns3:hr>
            <ns3:cad>84</ns3:cad>
          </ns3:TrackPointExtension>
        </extensions>
      </trkpt>
      <trkpt lat="47.56684695370495319366455078125" lon="11.03528841398656368255615234375">
        <ele>865</ele>
        <time>2026-09-01T10:06:42.000Z</time>
        <extensions>
          <ns3:TrackPointExtension>
            <ns3:hr>191</ns3:hr>
            <ns3:cad>84</ns3:cad>
          </ns3:TrackPointExtension>
        </extensions>
      </trkpt>
      <trkpt lat="47.56687846966087818145751953125" lon="11.03527047671377658843994140625">
        <ele>864.79998779296875</ele>
        <time>2026-09-01T10:06:43.000Z</time>
        <extensions>
          <ns3:TrackPointExtension>
            <ns3:hr>191</ns3:hr>
            <ns3:cad>83</ns3:cad>
          </ns3:TrackPointExtension>
        </extensions>
      </trkpt>
      <trkpt lat="47.56691752932965755462646484375" lon="11.035260669887065887451171875">
        <ele>864.79998779296875</ele>
        <time>2026-09-01T10:06:44.000Z</time>
        <extensions>
          <ns3:TrackPointExtension>
            <ns3:hr>192</ns3:hr>
            <ns3:cad>83</ns3:cad>
          </ns3:TrackPointExtension>
        </extensions>
      </trkpt>
      <trkpt lat="47.5669566728174686431884765625" lon="11.035243906080722808837890625">
        <ele>864.79998779296875</ele>
        <time>2026-09-01T10:06:45.000Z</time>
        <extensions>
          <ns3:TrackPointExtension>
            <ns3:hr>191</ns3:hr>
            <ns3:cad>83</ns3:cad>
          </ns3:TrackPointExtension>
        </extensions>
      </trkpt>
      <trkpt lat="47.56698274053633213043212890625" lon="11.03522772900760173797607421875">
        <ele>864.4000244140625</ele>
        <time>2026-09-01T10:06:46.000Z</time>
        <extensions>
          <ns3:TrackPointExtension>
            <ns3:hr>192</ns3:hr>
            <ns3:cad>83</ns3:cad>
          </ns3:TrackPointExtension>
        </extensions>
      </trkpt>
      <trkpt lat="47.56701576523482799530029296875" lon="11.03520476259291172027587890625">
        <ele>864</ele>
        <time>2026-09-01T10:06:47.000Z</time>
        <extensions>
          <ns3:TrackPointExtension>
            <ns3:hr>192</ns3:hr>
            <ns3:cad>83</ns3:cad>
          </ns3:TrackPointExtension>
        </extensions>
      </trkpt>
      <trkpt lat="47.5670475326478481292724609375" lon="11.03519135154783725738525390625">
        <ele>863.79998779296875</ele>
        <time>2026-09-01T10:06:48.000Z</time>
        <extensions>
          <ns3:TrackPointExtension>
            <ns3:hr>192</ns3:hr>
            <ns3:cad>83</ns3:cad>
          </ns3:TrackPointExtension>
        </extensions>
      </trkpt>
      <trkpt lat="47.5670907832682132720947265625" lon="11.03518028743565082550048828125">
        <ele>863.4000244140625</ele>
        <time>2026-09-01T10:06:49.000Z</time>
        <extensions>
          <ns3:TrackPointExtension>
            <ns3:hr>191</ns3:hr>
            <ns3:cad>83</ns3:cad>
          </ns3:TrackPointExtension>
        </extensions>
      </trkpt>
      <trkpt lat="47.56712556816637516021728515625" lon="11.03516939096152782440185546875">
        <ele>862.79998779296875</ele>
        <time>2026-09-01T10:06:50.000Z</time>
        <extensions>
          <ns3:TrackPointExtension>
            <ns3:hr>191</ns3:hr>
            <ns3:cad>83</ns3:cad>
          </ns3:TrackPointExtension>
        </extensions>
      </trkpt>
      <trkpt lat="47.5671601854264736175537109375" lon="11.035162098705768585205078125">
        <ele>862.5999755859375</ele>
        <time>2026-09-01T10:06:51.000Z</time>
        <extensions>
          <ns3:TrackPointExtension>
            <ns3:hr>191</ns3:hr>
            <ns3:cad>84</ns3:cad>
          </ns3:TrackPointExtension>
        </extensions>
      </trkpt>
      <trkpt lat="47.56719656288623809814453125" lon="11.03514709509909152984619140625">
        <ele>862.4000244140625</ele>
        <time>2026-09-01T10:06:52.000Z</time>
        <extensions>
          <ns3:TrackPointExtension>
            <ns3:hr>191</ns3:hr>
            <ns3:cad>84</ns3:cad>
          </ns3:TrackPointExtension>
        </extensions>
      </trkpt>
      <trkpt lat="47.567232437431812286376953125" lon="11.0351314209401607513427734375">
        <ele>862.20001220703125</ele>
        <time>2026-09-01T10:06:53.000Z</time>
        <extensions>
          <ns3:TrackPointExtension>
            <ns3:hr>192</ns3:hr>
            <ns3:cad>84</ns3:cad>
          </ns3:TrackPointExtension>
        </extensions>
      </trkpt>
      <trkpt lat="47.5672714971005916595458984375" lon="11.035120189189910888671875">
        <ele>862</ele>
        <time>2026-09-01T10:06:54.000Z</time>
        <extensions>
          <ns3:TrackPointExtension>
            <ns3:hr>191</ns3:hr>
            <ns3:cad>84</ns3:cad>
          </ns3:TrackPointExtension>
        </extensions>
      </trkpt>
      <trkpt lat="47.5673098862171173095703125" lon="11.03511541150510311126708984375">
        <ele>861.79998779296875</ele>
        <time>2026-09-01T10:06:55.000Z</time>
        <extensions>
          <ns3:TrackPointExtension>
            <ns3:hr>191</ns3:hr>
            <ns3:cad>84</ns3:cad>
          </ns3:TrackPointExtension>
        </extensions>
      </trkpt>
      <trkpt lat="47.5673606805503368377685546875" lon="11.03510065935552120208740234375">
        <ele>861.79998779296875</ele>
        <time>2026-09-01T10:06:56.000Z</time>
        <extensions>
          <ns3:TrackPointExtension>
            <ns3:hr>191</ns3:hr>
            <ns3:cad>85</ns3:cad>
          </ns3:TrackPointExtension>
        </extensions>
      </trkpt>
      <trkpt lat="47.5674064457416534423828125" lon="11.03509135544300079345703125">
        <ele>861.5999755859375</ele>
        <time>2026-09-01T10:06:57.000Z</time>
        <extensions>
          <ns3:TrackPointExtension>
            <ns3:hr>192</ns3:hr>
            <ns3:cad>85</ns3:cad>
          </ns3:TrackPointExtension>
        </extensions>
      </trkpt>
      <trkpt lat="47.5674441643059253692626953125" lon="11.03507257997989654541015625">
        <ele>861.4000244140625</ele>
        <time>2026-09-01T10:06:58.000Z</time>
        <extensions>
          <ns3:TrackPointExtension>
            <ns3:hr>191</ns3:hr>
            <ns3:cad>84</ns3:cad>
          </ns3:TrackPointExtension>
        </extensions>
      </trkpt>
      <trkpt lat="47.5674760155379772186279296875" lon="11.03505187667906284332275390625">
        <ele>861.4000244140625</ele>
        <time>2026-09-01T10:06:59.000Z</time>
        <extensions>
          <ns3:TrackPointExtension>
            <ns3:hr>191</ns3:hr>
            <ns3:cad>84</ns3:cad>
          </ns3:TrackPointExtension>
        </extensions>
      </trkpt>
      <trkpt lat="47.56751599721610546112060546875" lon="11.0350196063518524169921875">
        <ele>861.20001220703125</ele>
        <time>2026-09-01T10:07:00.000Z</time>
        <extensions>
          <ns3:TrackPointExtension>
            <ns3:hr>192</ns3:hr>
            <ns3:cad>84</ns3:cad>
          </ns3:TrackPointExtension>
        </extensions>
      </trkpt>
      <trkpt lat="47.56755438633263111114501953125" lon="11.034999154508113861083984375">
        <ele>861.20001220703125</ele>
        <time>2026-09-01T10:07:01.000Z</time>
        <extensions>
          <ns3:TrackPointExtension>
            <ns3:hr>191</ns3:hr>
            <ns3:cad>84</ns3:cad>
          </ns3:TrackPointExtension>
        </extensions>
      </trkpt>
      <trkpt lat="47.5675943680107593536376953125" lon="11.03495657444000244140625">
        <ele>861</ele>
        <time>2026-09-01T10:07:02.000Z</time>
        <extensions>
          <ns3:TrackPointExtension>
            <ns3:hr>191</ns3:hr>
            <ns3:cad>83</ns3:cad>
          </ns3:TrackPointExtension>
        </extensions>
      </trkpt>
      <trkpt lat="47.5676250457763671875" lon="11.0349096357822418212890625">
        <ele>861</ele>
        <time>2026-09-01T10:07:03.000Z</time>
        <extensions>
          <ns3:TrackPointExtension>
            <ns3:hr>192</ns3:hr>
            <ns3:cad>84</ns3:cad>
          </ns3:TrackPointExtension>
        </extensions>
      </trkpt>
      <trkpt lat="47.5676567293703556060791015625" lon="11.03487233631312847137451171875">
        <ele>861</ele>
        <time>2026-09-01T10:07:04.000Z</time>
        <extensions>
          <ns3:TrackPointExtension>
            <ns3:hr>191</ns3:hr>
            <ns3:cad>84</ns3:cad>
          </ns3:TrackPointExtension>
        </extensions>
      </trkpt>
      <trkpt lat="47.56768614985048770904541015625" lon="11.03482305072247982025146484375">
        <ele>860.79998779296875</ele>
        <time>2026-09-01T10:07:05.000Z</time>
        <extensions>
          <ns3:TrackPointExtension>
            <ns3:hr>192</ns3:hr>
            <ns3:cad>84</ns3:cad>
          </ns3:TrackPointExtension>
        </extensions>
      </trkpt>
      <trkpt lat="47.56771414540708065032958984375" lon="11.03477644734084606170654296875">
        <ele>860.79998779296875</ele>
        <time>2026-09-01T10:07:06.000Z</time>
        <extensions>
          <ns3:TrackPointExtension>
            <ns3:hr>192</ns3:hr>
            <ns3:cad>84</ns3:cad>
          </ns3:TrackPointExtension>
        </extensions>
      </trkpt>
      <trkpt lat="47.5677449069917201995849609375" lon="11.034712493419647216796875">
        <ele>860.79998779296875</ele>
        <time>2026-09-01T10:07:07.000Z</time>
        <extensions>
          <ns3:TrackPointExtension>
            <ns3:hr>192</ns3:hr>
            <ns3:cad>84</ns3:cad>
          </ns3:TrackPointExtension>
        </extensions>
      </trkpt>
      <trkpt lat="47.567766867578029632568359375" lon="11.03466077707707881927490234375">
        <ele>860.5999755859375</ele>
        <time>2026-09-01T10:07:08.000Z</time>
        <extensions>
          <ns3:TrackPointExtension>
            <ns3:hr>191</ns3:hr>
            <ns3:cad>84</ns3:cad>
          </ns3:TrackPointExtension>
        </extensions>
      </trkpt>
      <trkpt lat="47.56779260002076625823974609375" lon="11.03459891863167285919189453125">
        <ele>860.5999755859375</ele>
        <time>2026-09-01T10:07:09.000Z</time>
        <extensions>
          <ns3:TrackPointExtension>
            <ns3:hr>192</ns3:hr>
            <ns3:cad>84</ns3:cad>
          </ns3:TrackPointExtension>
        </extensions>
      </trkpt>
      <trkpt lat="47.56781657226383686065673828125" lon="11.03454745374619960784912109375">
        <ele>860.5999755859375</ele>
        <time>2026-09-01T10:07:10.000Z</time>
        <extensions>
          <ns3:TrackPointExtension>
            <ns3:hr>192</ns3:hr>
            <ns3:cad>84</ns3:cad>
          </ns3:TrackPointExtension>
        </extensions>
      </trkpt>
      <trkpt lat="47.56784942932426929473876953125" lon="11.034481823444366455078125">
        <ele>860.4000244140625</ele>
        <time>2026-09-01T10:07:11.000Z</time>
        <extensions>
          <ns3:TrackPointExtension>
            <ns3:hr>192</ns3:hr>
            <ns3:cad>84</ns3:cad>
          </ns3:TrackPointExtension>
        </extensions>
      </trkpt>
      <trkpt lat="47.56787574850022792816162109375" lon="11.034431867301464080810546875">
        <ele>860</ele>
        <time>2026-09-01T10:07:12.000Z</time>
        <extensions>
          <ns3:TrackPointExtension>
            <ns3:hr>192</ns3:hr>
            <ns3:cad>84</ns3:cad>
          </ns3:TrackPointExtension>
        </extensions>
      </trkpt>
      <trkpt lat="47.56790575571358203887939453125" lon="11.03439020924270153045654296875">
        <ele>859.5999755859375</ele>
        <time>2026-09-01T10:07:13.000Z</time>
        <extensions>
          <ns3:TrackPointExtension>
            <ns3:hr>192</ns3:hr>
            <ns3:cad>86</ns3:cad>
          </ns3:TrackPointExtension>
        </extensions>
      </trkpt>
      <trkpt lat="47.56793190725147724151611328125" lon="11.03434058837592601776123046875">
        <ele>859.4000244140625</ele>
        <time>2026-09-01T10:07:14.000Z</time>
        <extensions>
          <ns3:TrackPointExtension>
            <ns3:hr>192</ns3:hr>
            <ns3:cad>86</ns3:cad>
          </ns3:TrackPointExtension>
        </extensions>
      </trkpt>
      <trkpt lat="47.567965686321258544921875" lon="11.0342955775558948516845703125">
        <ele>859.20001220703125</ele>
        <time>2026-09-01T10:07:15.000Z</time>
        <extensions>
          <ns3:TrackPointExtension>
            <ns3:hr>192</ns3:hr>
            <ns3:cad>86</ns3:cad>
          </ns3:TrackPointExtension>
        </extensions>
      </trkpt>
      <trkpt lat="47.56799326278269290924072265625" lon="11.0342426039278507232666015625">
        <ele>859</ele>
        <time>2026-09-01T10:07:16.000Z</time>
        <extensions>
          <ns3:TrackPointExtension>
            <ns3:hr>193</ns3:hr>
            <ns3:cad>86</ns3:cad>
          </ns3:TrackPointExtension>
        </extensions>
      </trkpt>
      <trkpt lat="47.568022347986698150634765625" lon="11.034191809594631195068359375">
        <ele>858.79998779296875</ele>
        <time>2026-09-01T10:07:17.000Z</time>
        <extensions>
          <ns3:TrackPointExtension>
            <ns3:hr>193</ns3:hr>
            <ns3:cad>86</ns3:cad>
          </ns3:TrackPointExtension>
        </extensions>
      </trkpt>
      <trkpt lat="47.5680583901703357696533203125" lon="11.034133471548557281494140625">
        <ele>858.4000244140625</ele>
        <time>2026-09-01T10:07:18.000Z</time>
        <extensions>
          <ns3:TrackPointExtension>
            <ns3:hr>194</ns3:hr>
            <ns3:cad>86</ns3:cad>
          </ns3:TrackPointExtension>
        </extensions>
      </trkpt>
      <trkpt lat="47.5680835358798503875732421875" lon="11.03409416042268276214599609375">
        <ele>858.4000244140625</ele>
        <time>2026-09-01T10:07:19.000Z</time>
        <extensions>
          <ns3:TrackPointExtension>
            <ns3:hr>194</ns3:hr>
            <ns3:cad>85</ns3:cad>
          </ns3:TrackPointExtension>
        </extensions>
      </trkpt>
      <trkpt lat="47.56811245344579219818115234375" lon="11.0340468026697635650634765625">
        <ele>858.20001220703125</ele>
        <time>2026-09-01T10:07:20.000Z</time>
        <extensions>
          <ns3:TrackPointExtension>
            <ns3:hr>194</ns3:hr>
            <ns3:cad>85</ns3:cad>
          </ns3:TrackPointExtension>
        </extensions>
      </trkpt>
      <trkpt lat="47.5681415386497974395751953125" lon="11.03399424813687801361083984375">
        <ele>858</ele>
        <time>2026-09-01T10:07:21.000Z</time>
        <extensions>
          <ns3:TrackPointExtension>
            <ns3:hr>194</ns3:hr>
            <ns3:cad>86</ns3:cad>
          </ns3:TrackPointExtension>
        </extensions>
      </trkpt>
      <trkpt lat="47.56816710345447063446044921875" lon="11.033954434096813201904296875">
        <ele>858</ele>
        <time>2026-09-01T10:07:22.000Z</time>
        <extensions>
          <ns3:TrackPointExtension>
            <ns3:hr>195</ns3:hr>
            <ns3:cad>86</ns3:cad>
          </ns3:TrackPointExtension>
        </extensions>
      </trkpt>
      <trkpt lat="47.56819761358201503753662109375" lon="11.0338992811739444732666015625">
        <ele>858</ele>
        <time>2026-09-01T10:07:23.000Z</time>
        <extensions>
          <ns3:TrackPointExtension>
            <ns3:hr>194</ns3:hr>
            <ns3:cad>86</ns3:cad>
          </ns3:TrackPointExtension>
        </extensions>
      </trkpt>
      <trkpt lat="47.568218819797039031982421875" lon="11.03386466391384601593017578125">
        <ele>857.79998779296875</ele>
        <time>2026-09-01T10:07:24.000Z</time>
        <extensions>
          <ns3:TrackPointExtension>
            <ns3:hr>194</ns3:hr>
            <ns3:cad>86</ns3:cad>
          </ns3:TrackPointExtension>
        </extensions>
      </trkpt>
      <trkpt lat="47.56824857555329799652099609375" lon="11.03381864726543426513671875">
        <ele>857.4000244140625</ele>
        <time>2026-09-01T10:07:25.000Z</time>
        <extensions>
          <ns3:TrackPointExtension>
            <ns3:hr>194</ns3:hr>
            <ns3:cad>86</ns3:cad>
          </ns3:TrackPointExtension>
        </extensions>
      </trkpt>
      <trkpt lat="47.5682766549289226531982421875" lon="11.03377665393054485321044921875">
        <ele>857.4000244140625</ele>
        <time>2026-09-01T10:07:26.000Z</time>
        <extensions>
          <ns3:TrackPointExtension>
            <ns3:hr>194</ns3:hr>
            <ns3:cad>85</ns3:cad>
          </ns3:TrackPointExtension>
        </extensions>
      </trkpt>
      <trkpt lat="47.56829786114394664764404296875" lon="11.03373407386243343353271484375">
        <ele>857.4000244140625</ele>
        <time>2026-09-01T10:07:27.000Z</time>
        <extensions>
          <ns3:TrackPointExtension>
            <ns3:hr>195</ns3:hr>
            <ns3:cad>85</ns3:cad>
          </ns3:TrackPointExtension>
        </extensions>
      </trkpt>
      <trkpt lat="47.5683215819299221038818359375" lon="11.03368663229048252105712890625">
        <ele>857.20001220703125</ele>
        <time>2026-09-01T10:07:28.000Z</time>
        <extensions>
          <ns3:TrackPointExtension>
            <ns3:hr>195</ns3:hr>
            <ns3:cad>85</ns3:cad>
          </ns3:TrackPointExtension>
        </extensions>
      </trkpt>
      <trkpt lat="47.56834815256297588348388671875" lon="11.03364832699298858642578125">
        <ele>857.20001220703125</ele>
        <time>2026-09-01T10:07:29.000Z</time>
        <extensions>
          <ns3:TrackPointExtension>
            <ns3:hr>195</ns3:hr>
            <ns3:cad>85</ns3:cad>
          </ns3:TrackPointExtension>
        </extensions>
      </trkpt>
      <trkpt lat="47.56837162189185619354248046875" lon="11.03360448963940143585205078125">
        <ele>857.20001220703125</ele>
        <time>2026-09-01T10:07:30.000Z</time>
        <extensions>
          <ns3:TrackPointExtension>
            <ns3:hr>195</ns3:hr>
            <ns3:cad>85</ns3:cad>
          </ns3:TrackPointExtension>
        </extensions>
      </trkpt>
      <trkpt lat="47.56839685142040252685546875" lon="11.03356308303773403167724609375">
        <ele>857.20001220703125</ele>
        <time>2026-09-01T10:07:31.000Z</time>
        <extensions>
          <ns3:TrackPointExtension>
            <ns3:hr>195</ns3:hr>
            <ns3:cad>85</ns3:cad>
          </ns3:TrackPointExtension>
        </extensions>
      </trkpt>
      <trkpt lat="47.56841956637799739837646484375" lon="11.0335214249789714813232421875">
        <ele>857.20001220703125</ele>
        <time>2026-09-01T10:07:32.000Z</time>
        <extensions>
          <ns3:TrackPointExtension>
            <ns3:hr>195</ns3:hr>
            <ns3:cad>85</ns3:cad>
          </ns3:TrackPointExtension>
        </extensions>
      </trkpt>
      <trkpt lat="47.5684436224400997161865234375" lon="11.03346987627446651458740234375">
        <ele>857.20001220703125</ele>
        <time>2026-09-01T10:07:33.000Z</time>
        <extensions>
          <ns3:TrackPointExtension>
            <ns3:hr>195</ns3:hr>
            <ns3:cad>85</ns3:cad>
          </ns3:TrackPointExtension>
        </extensions>
      </trkpt>
      <trkpt lat="47.5684654153883457183837890625" lon="11.03343064896762371063232421875">
        <ele>857.20001220703125</ele>
        <time>2026-09-01T10:07:34.000Z</time>
        <extensions>
          <ns3:TrackPointExtension>
            <ns3:hr>195</ns3:hr>
            <ns3:cad>85</ns3:cad>
          </ns3:TrackPointExtension>
        </extensions>
      </trkpt>
      <trkpt lat="47.5684873759746551513671875" lon="11.03338681161403656005859375">
        <ele>857.4000244140625</ele>
        <time>2026-09-01T10:07:35.000Z</time>
        <extensions>
          <ns3:TrackPointExtension>
            <ns3:hr>195</ns3:hr>
            <ns3:cad>85</ns3:cad>
          </ns3:TrackPointExtension>
        </extensions>
      </trkpt>
      <trkpt lat="47.56850791163742542266845703125" lon="11.0333480872213840484619140625">
        <ele>857.4000244140625</ele>
        <time>2026-09-01T10:07:36.000Z</time>
        <extensions>
          <ns3:TrackPointExtension>
            <ns3:hr>196</ns3:hr>
            <ns3:cad>85</ns3:cad>
          </ns3:TrackPointExtension>
        </extensions>
      </trkpt>
      <trkpt lat="47.56852920167148113250732421875" lon="11.03329972364008426666259765625">
        <ele>857.4000244140625</ele>
        <time>2026-09-01T10:07:37.000Z</time>
        <extensions>
          <ns3:TrackPointExtension>
            <ns3:hr>195</ns3:hr>
            <ns3:cad>85</ns3:cad>
          </ns3:TrackPointExtension>
        </extensions>
      </trkpt>
      <trkpt lat="47.5685482285916805267333984375" lon="11.03325479663908481597900390625">
        <ele>857.4000244140625</ele>
        <time>2026-09-01T10:07:38.000Z</time>
        <extensions>
          <ns3:TrackPointExtension>
            <ns3:hr>195</ns3:hr>
            <ns3:cad>85</ns3:cad>
          </ns3:TrackPointExtension>
        </extensions>
      </trkpt>
      <trkpt lat="47.5685693509876728057861328125" lon="11.0332072712481021881103515625">
        <ele>857.4000244140625</ele>
        <time>2026-09-01T10:07:39.000Z</time>
        <extensions>
          <ns3:TrackPointExtension>
            <ns3:hr>195</ns3:hr>
            <ns3:cad>85</ns3:cad>
          </ns3:TrackPointExtension>
        </extensions>
      </trkpt>
      <trkpt lat="47.56859290413558483123779296875" lon="11.03316175751388072967529296875">
        <ele>857.4000244140625</ele>
        <time>2026-09-01T10:07:40.000Z</time>
        <extensions>
          <ns3:TrackPointExtension>
            <ns3:hr>195</ns3:hr>
            <ns3:cad>86</ns3:cad>
          </ns3:TrackPointExtension>
        </extensions>
      </trkpt>
      <trkpt lat="47.56861276924610137939453125" lon="11.03312571533024311065673828125">
        <ele>857.20001220703125</ele>
        <time>2026-09-01T10:07:41.000Z</time>
        <extensions>
          <ns3:TrackPointExtension>
            <ns3:hr>195</ns3:hr>
            <ns3:cad>86</ns3:cad>
          </ns3:TrackPointExtension>
        </extensions>
      </trkpt>
      <trkpt lat="47.56863464601337909698486328125" lon="11.03307877667248249053955078125">
        <ele>857.20001220703125</ele>
        <time>2026-09-01T10:07:42.000Z</time>
        <extensions>
          <ns3:TrackPointExtension>
            <ns3:hr>195</ns3:hr>
            <ns3:cad>85</ns3:cad>
          </ns3:TrackPointExtension>
        </extensions>
      </trkpt>
      <trkpt lat="47.5686545111238956451416015625" lon="11.0330319218337535858154296875">
        <ele>857.4000244140625</ele>
        <time>2026-09-01T10:07:43.000Z</time>
        <extensions>
          <ns3:TrackPointExtension>
            <ns3:hr>195</ns3:hr>
            <ns3:cad>85</ns3:cad>
          </ns3:TrackPointExtension>
        </extensions>
      </trkpt>
      <trkpt lat="47.568675465881824493408203125" lon="11.0329890064895153045654296875">
        <ele>857.20001220703125</ele>
        <time>2026-09-01T10:07:44.000Z</time>
        <extensions>
          <ns3:TrackPointExtension>
            <ns3:hr>195</ns3:hr>
            <ns3:cad>85</ns3:cad>
          </ns3:TrackPointExtension>
        </extensions>
      </trkpt>
      <trkpt lat="47.56870438344776630401611328125" lon="11.032940559089183807373046875">
        <ele>857.4000244140625</ele>
        <time>2026-09-01T10:07:45.000Z</time>
        <extensions>
          <ns3:TrackPointExtension>
            <ns3:hr>195</ns3:hr>
            <ns3:cad>85</ns3:cad>
          </ns3:TrackPointExtension>
        </extensions>
      </trkpt>
      <trkpt lat="47.5687212310731410980224609375" lon="11.0329011641442775726318359375">
        <ele>857.5999755859375</ele>
        <time>2026-09-01T10:07:46.000Z</time>
        <extensions>
          <ns3:TrackPointExtension>
            <ns3:hr>195</ns3:hr>
            <ns3:cad>85</ns3:cad>
          </ns3:TrackPointExtension>
        </extensions>
      </trkpt>
      <trkpt lat="47.56874344311654567718505859375" lon="11.03285565041005611419677734375">
        <ele>857.5999755859375</ele>
        <time>2026-09-01T10:07:47.000Z</time>
        <extensions>
          <ns3:TrackPointExtension>
            <ns3:hr>195</ns3:hr>
            <ns3:cad>85</ns3:cad>
          </ns3:TrackPointExtension>
        </extensions>
      </trkpt>
      <trkpt lat="47.56876766681671142578125" lon="11.0328203625977039337158203125">
        <ele>857.79998779296875</ele>
        <time>2026-09-01T10:07:48.000Z</time>
        <extensions>
          <ns3:TrackPointExtension>
            <ns3:hr>195</ns3:hr>
            <ns3:cad>85</ns3:cad>
          </ns3:TrackPointExtension>
        </extensions>
      </trkpt>
      <trkpt lat="47.56879893131554126739501953125" lon="11.03277652524411678314208984375">
        <ele>857.79998779296875</ele>
        <time>2026-09-01T10:07:49.000Z</time>
        <extensions>
          <ns3:TrackPointExtension>
            <ns3:hr>195</ns3:hr>
            <ns3:cad>85</ns3:cad>
          </ns3:TrackPointExtension>
        </extensions>
      </trkpt>
      <trkpt lat="47.56882466375827789306640625" lon="11.03274232707917690277099609375">
        <ele>857.79998779296875</ele>
        <time>2026-09-01T10:07:50.000Z</time>
        <extensions>
          <ns3:TrackPointExtension>
            <ns3:hr>195</ns3:hr>
            <ns3:cad>85</ns3:cad>
          </ns3:TrackPointExtension>
        </extensions>
      </trkpt>
      <trkpt lat="47.56884989328682422637939453125" lon="11.03271600790321826934814453125">
        <ele>858</ele>
        <time>2026-09-01T10:07:51.000Z</time>
        <extensions>
          <ns3:TrackPointExtension>
            <ns3:hr>195</ns3:hr>
            <ns3:cad>85</ns3:cad>
          </ns3:TrackPointExtension>
        </extensions>
      </trkpt>
      <trkpt lat="47.5688762962818145751953125" lon="11.03268248029053211212158203125">
        <ele>858</ele>
        <time>2026-09-01T10:07:52.000Z</time>
        <extensions>
          <ns3:TrackPointExtension>
            <ns3:hr>195</ns3:hr>
            <ns3:cad>85</ns3:cad>
          </ns3:TrackPointExtension>
        </extensions>
      </trkpt>
      <trkpt lat="47.5689004361629486083984375" lon="11.03265549056231975555419921875">
        <ele>858</ele>
        <time>2026-09-01T10:07:53.000Z</time>
        <extensions>
          <ns3:TrackPointExtension>
            <ns3:hr>195</ns3:hr>
            <ns3:cad>85</ns3:cad>
          </ns3:TrackPointExtension>
        </extensions>
      </trkpt>
      <trkpt lat="47.568927593529224395751953125" lon="11.032619364559650421142578125">
        <ele>858</ele>
        <time>2026-09-01T10:07:54.000Z</time>
        <extensions>
          <ns3:TrackPointExtension>
            <ns3:hr>195</ns3:hr>
            <ns3:cad>85</ns3:cad>
          </ns3:TrackPointExtension>
        </extensions>
      </trkpt>
      <trkpt lat="47.56895483471453189849853515625" lon="11.03258575312793254852294921875">
        <ele>858.20001220703125</ele>
        <time>2026-09-01T10:07:55.000Z</time>
        <extensions>
          <ns3:TrackPointExtension>
            <ns3:hr>195</ns3:hr>
            <ns3:cad>84</ns3:cad>
          </ns3:TrackPointExtension>
        </extensions>
      </trkpt>
      <trkpt lat="47.568977884948253631591796875" lon="11.03255524300038814544677734375">
        <ele>858.20001220703125</ele>
        <time>2026-09-01T10:07:56.000Z</time>
        <extensions>
          <ns3:TrackPointExtension>
            <ns3:hr>195</ns3:hr>
            <ns3:cad>84</ns3:cad>
          </ns3:TrackPointExtension>
        </extensions>
      </trkpt>
      <trkpt lat="47.569007389247417449951171875" lon="11.03251517750322818756103515625">
        <ele>858.20001220703125</ele>
        <time>2026-09-01T10:07:57.000Z</time>
        <extensions>
          <ns3:TrackPointExtension>
            <ns3:hr>195</ns3:hr>
            <ns3:cad>84</ns3:cad>
          </ns3:TrackPointExtension>
        </extensions>
      </trkpt>
      <trkpt lat="47.56903127767145633697509765625" lon="11.032488606870174407958984375">
        <ele>858.20001220703125</ele>
        <time>2026-09-01T10:07:58.000Z</time>
        <extensions>
          <ns3:TrackPointExtension>
            <ns3:hr>195</ns3:hr>
            <ns3:cad>84</ns3:cad>
          </ns3:TrackPointExtension>
        </extensions>
      </trkpt>
      <trkpt lat="47.56905742920935153961181640625" lon="11.03244828991591930389404296875">
        <ele>858.4000244140625</ele>
        <time>2026-09-01T10:07:59.000Z</time>
        <extensions>
          <ns3:TrackPointExtension>
            <ns3:hr>196</ns3:hr>
            <ns3:cad>84</ns3:cad>
          </ns3:TrackPointExtension>
        </extensions>
      </trkpt>
      <trkpt lat="47.569081485271453857421875" lon="11.03241526521742343902587890625">
        <ele>858.4000244140625</ele>
        <time>2026-09-01T10:08:00.000Z</time>
        <extensions>
          <ns3:TrackPointExtension>
            <ns3:hr>195</ns3:hr>
            <ns3:cad>84</ns3:cad>
          </ns3:TrackPointExtension>
        </extensions>
      </trkpt>
      <trkpt lat="47.56911023519933223724365234375" lon="11.03237519972026348114013671875">
        <ele>858.5999755859375</ele>
        <time>2026-09-01T10:08:01.000Z</time>
        <extensions>
          <ns3:TrackPointExtension>
            <ns3:hr>195</ns3:hr>
            <ns3:cad>84</ns3:cad>
          </ns3:TrackPointExtension>
        </extensions>
      </trkpt>
      <trkpt lat="47.5691389851272106170654296875" lon="11.03233672678470611572265625">
        <ele>858.5999755859375</ele>
        <time>2026-09-01T10:08:02.000Z</time>
        <extensions>
          <ns3:TrackPointExtension>
            <ns3:hr>195</ns3:hr>
            <ns3:cad>84</ns3:cad>
          </ns3:TrackPointExtension>
        </extensions>
      </trkpt>
      <trkpt lat="47.569160275161266326904296875" lon="11.0323063842952251434326171875">
        <ele>858.79998779296875</ele>
        <time>2026-09-01T10:08:03.000Z</time>
        <extensions>
          <ns3:TrackPointExtension>
            <ns3:hr>195</ns3:hr>
            <ns3:cad>85</ns3:cad>
          </ns3:TrackPointExtension>
        </extensions>
      </trkpt>
      <trkpt lat="47.5691909529268741607666015625" lon="11.0322622954845428466796875">
        <ele>859</ele>
        <time>2026-09-01T10:08:04.000Z</time>
        <extensions>
          <ns3:TrackPointExtension>
            <ns3:hr>196</ns3:hr>
            <ns3:cad>85</ns3:cad>
          </ns3:TrackPointExtension>
        </extensions>
      </trkpt>
      <trkpt lat="47.5692124105989933013916015625" lon="11.03222952224314212799072265625">
        <ele>859</ele>
        <time>2026-09-01T10:08:05.000Z</time>
        <extensions>
          <ns3:TrackPointExtension>
            <ns3:hr>195</ns3:hr>
            <ns3:cad>85</ns3:cad>
          </ns3:TrackPointExtension>
        </extensions>
      </trkpt>
      <trkpt lat="47.56923981942236423492431640625" lon="11.0321873612701892852783203125">
        <ele>859</ele>
        <time>2026-09-01T10:08:06.000Z</time>
        <extensions>
          <ns3:TrackPointExtension>
            <ns3:hr>195</ns3:hr>
            <ns3:cad>84</ns3:cad>
          </ns3:TrackPointExtension>
        </extensions>
      </trkpt>
      <trkpt lat="47.56926345638930797576904296875" lon="11.0321491397917270660400390625">
        <ele>859.20001220703125</ele>
        <time>2026-09-01T10:08:07.000Z</time>
        <extensions>
          <ns3:TrackPointExtension>
            <ns3:hr>196</ns3:hr>
            <ns3:cad>84</ns3:cad>
          </ns3:TrackPointExtension>
        </extensions>
      </trkpt>
      <trkpt lat="47.56928374059498310089111328125" lon="11.0321105830371379852294921875">
        <ele>859.20001220703125</ele>
        <time>2026-09-01T10:08:08.000Z</time>
        <extensions>
          <ns3:TrackPointExtension>
            <ns3:hr>195</ns3:hr>
            <ns3:cad>84</ns3:cad>
          </ns3:TrackPointExtension>
        </extensions>
      </trkpt>
      <trkpt lat="47.5693082995712757110595703125" lon="11.03206775151193141937255859375">
        <ele>859.20001220703125</ele>
        <time>2026-09-01T10:08:09.000Z</time>
        <extensions>
          <ns3:TrackPointExtension>
            <ns3:hr>195</ns3:hr>
            <ns3:cad>84</ns3:cad>
          </ns3:TrackPointExtension>
        </extensions>
      </trkpt>
      <trkpt lat="47.56934107281267642974853515625" lon="11.03203958831727504730224609375">
        <ele>859.4000244140625</ele>
        <time>2026-09-01T10:08:10.000Z</time>
        <extensions>
          <ns3:TrackPointExtension>
            <ns3:hr>196</ns3:hr>
            <ns3:cad>84</ns3:cad>
          </ns3:TrackPointExtension>
        </extensions>
      </trkpt>
      <trkpt lat="47.56936605088412761688232421875" lon="11.031997092068195343017578125">
        <ele>859.79998779296875</ele>
        <time>2026-09-01T10:08:11.000Z</time>
        <extensions>
          <ns3:TrackPointExtension>
            <ns3:hr>195</ns3:hr>
            <ns3:cad>84</ns3:cad>
          </ns3:TrackPointExtension>
        </extensions>
      </trkpt>
      <trkpt lat="47.56938884966075420379638671875" lon="11.0319580323994159698486328125">
        <ele>860</ele>
        <time>2026-09-01T10:08:12.000Z</time>
        <extensions>
          <ns3:TrackPointExtension>
            <ns3:hr>195</ns3:hr>
            <ns3:cad>84</ns3:cad>
          </ns3:TrackPointExtension>
        </extensions>
      </trkpt>
      <trkpt lat="47.56941583938896656036376953125" lon="11.0319228284060955047607421875">
        <ele>860.20001220703125</ele>
        <time>2026-09-01T10:08:13.000Z</time>
        <extensions>
          <ns3:TrackPointExtension>
            <ns3:hr>195</ns3:hr>
            <ns3:cad>84</ns3:cad>
          </ns3:TrackPointExtension>
        </extensions>
      </trkpt>
      <trkpt lat="47.5694457627832889556884765625" lon="11.031896173954010009765625">
        <ele>860.4000244140625</ele>
        <time>2026-09-01T10:08:14.000Z</time>
        <extensions>
          <ns3:TrackPointExtension>
            <ns3:hr>195</ns3:hr>
            <ns3:cad>84</ns3:cad>
          </ns3:TrackPointExtension>
        </extensions>
      </trkpt>
      <trkpt lat="47.56946864537894725799560546875" lon="11.03186943568289279937744140625">
        <ele>860.5999755859375</ele>
        <time>2026-09-01T10:08:15.000Z</time>
        <extensions>
          <ns3:TrackPointExtension>
            <ns3:hr>195</ns3:hr>
            <ns3:cad>84</ns3:cad>
          </ns3:TrackPointExtension>
        </extensions>
      </trkpt>
      <trkpt lat="47.56949328817427158355712890625" lon="11.03182987309992313385009765625">
        <ele>860.79998779296875</ele>
        <time>2026-09-01T10:08:16.000Z</time>
        <extensions>
          <ns3:TrackPointExtension>
            <ns3:hr>194</ns3:hr>
            <ns3:cad>84</ns3:cad>
          </ns3:TrackPointExtension>
        </extensions>
      </trkpt>
      <trkpt lat="47.5695158354938030242919921875" lon="11.03178662247955799102783203125">
        <ele>860.79998779296875</ele>
        <time>2026-09-01T10:08:17.000Z</time>
        <extensions>
          <ns3:TrackPointExtension>
            <ns3:hr>194</ns3:hr>
            <ns3:cad>84</ns3:cad>
          </ns3:TrackPointExtension>
        </extensions>
      </trkpt>
      <trkpt lat="47.5695389695465564727783203125" lon="11.03173733688890933990478515625">
        <ele>860.79998779296875</ele>
        <time>2026-09-01T10:08:18.000Z</time>
        <extensions>
          <ns3:TrackPointExtension>
            <ns3:hr>194</ns3:hr>
            <ns3:cad>85</ns3:cad>
          </ns3:TrackPointExtension>
        </extensions>
      </trkpt>
      <trkpt lat="47.56956269033253192901611328125" lon="11.03169308044016361236572265625">
        <ele>861</ele>
        <time>2026-09-01T10:08:19.000Z</time>
        <extensions>
          <ns3:TrackPointExtension>
            <ns3:hr>194</ns3:hr>
            <ns3:cad>85</ns3:cad>
          </ns3:TrackPointExtension>
        </extensions>
      </trkpt>
      <trkpt lat="47.569588758051395416259765625" lon="11.0316499136388301849365234375">
        <ele>861.20001220703125</ele>
        <time>2026-09-01T10:08:20.000Z</time>
        <extensions>
          <ns3:TrackPointExtension>
            <ns3:hr>194</ns3:hr>
            <ns3:cad>85</ns3:cad>
          </ns3:TrackPointExtension>
        </extensions>
      </trkpt>
      <trkpt lat="47.56961046718060970306396484375" lon="11.031601466238498687744140625">
        <ele>861.20001220703125</ele>
        <time>2026-09-01T10:08:21.000Z</time>
        <extensions>
          <ns3:TrackPointExtension>
            <ns3:hr>193</ns3:hr>
            <ns3:cad>86</ns3:cad>
          </ns3:TrackPointExtension>
        </extensions>
      </trkpt>
      <trkpt lat="47.56963276304304599761962890625" lon="11.03156265802681446075439453125">
        <ele>861.20001220703125</ele>
        <time>2026-09-01T10:08:22.000Z</time>
        <extensions>
          <ns3:TrackPointExtension>
            <ns3:hr>194</ns3:hr>
            <ns3:cad>86</ns3:cad>
          </ns3:TrackPointExtension>
        </extensions>
      </trkpt>
      <trkpt lat="47.56965346634387969970703125" lon="11.0315137915313243865966796875">
        <ele>861.20001220703125</ele>
        <time>2026-09-01T10:08:23.000Z</time>
        <extensions>
          <ns3:TrackPointExtension>
            <ns3:hr>194</ns3:hr>
            <ns3:cad>86</ns3:cad>
          </ns3:TrackPointExtension>
        </extensions>
      </trkpt>
      <trkpt lat="47.5696729123592376708984375" lon="11.03147263638675212860107421875">
        <ele>861.4000244140625</ele>
        <time>2026-09-01T10:08:24.000Z</time>
        <extensions>
          <ns3:TrackPointExtension>
            <ns3:hr>194</ns3:hr>
            <ns3:cad>85</ns3:cad>
          </ns3:TrackPointExtension>
        </extensions>
      </trkpt>
      <trkpt lat="47.56969638168811798095703125" lon="11.03142184205353260040283203125">
        <ele>861.4000244140625</ele>
        <time>2026-09-01T10:08:25.000Z</time>
        <extensions>
          <ns3:TrackPointExtension>
            <ns3:hr>193</ns3:hr>
            <ns3:cad>85</ns3:cad>
          </ns3:TrackPointExtension>
        </extensions>
      </trkpt>
      <trkpt lat="47.56972094066441059112548828125" lon="11.03138077072799205780029296875">
        <ele>861.4000244140625</ele>
        <time>2026-09-01T10:08:26.000Z</time>
        <extensions>
          <ns3:TrackPointExtension>
            <ns3:hr>194</ns3:hr>
            <ns3:cad>85</ns3:cad>
          </ns3:TrackPointExtension>
        </extensions>
      </trkpt>
      <trkpt lat="47.56973602809011936187744140625" lon="11.03133492171764373779296875">
        <ele>861.4000244140625</ele>
        <time>2026-09-01T10:08:27.000Z</time>
        <extensions>
          <ns3:TrackPointExtension>
            <ns3:hr>194</ns3:hr>
            <ns3:cad>85</ns3:cad>
          </ns3:TrackPointExtension>
        </extensions>
      </trkpt>
      <trkpt lat="47.56975899450480937957763671875" lon="11.03129108436405658721923828125">
        <ele>861.5999755859375</ele>
        <time>2026-09-01T10:08:28.000Z</time>
        <extensions>
          <ns3:TrackPointExtension>
            <ns3:hr>194</ns3:hr>
            <ns3:cad>85</ns3:cad>
          </ns3:TrackPointExtension>
        </extensions>
      </trkpt>
      <trkpt lat="47.56978363730013370513916015625" lon="11.0312516056001186370849609375">
        <ele>861.5999755859375</ele>
        <time>2026-09-01T10:08:29.000Z</time>
        <extensions>
          <ns3:TrackPointExtension>
            <ns3:hr>193</ns3:hr>
            <ns3:cad>85</ns3:cad>
          </ns3:TrackPointExtension>
        </extensions>
      </trkpt>
      <trkpt lat="47.5698098726570606231689453125" lon="11.03121179156005382537841796875">
        <ele>861.5999755859375</ele>
        <time>2026-09-01T10:08:30.000Z</time>
        <extensions>
          <ns3:TrackPointExtension>
            <ns3:hr>194</ns3:hr>
            <ns3:cad>85</ns3:cad>
          </ns3:TrackPointExtension>
        </extensions>
      </trkpt>
      <trkpt lat="47.56983091123402118682861328125" lon="11.0311733186244964599609375">
        <ele>861.5999755859375</ele>
        <time>2026-09-01T10:08:31.000Z</time>
        <extensions>
          <ns3:TrackPointExtension>
            <ns3:hr>194</ns3:hr>
            <ns3:cad>84</ns3:cad>
          </ns3:TrackPointExtension>
        </extensions>
      </trkpt>
      <trkpt lat="47.56985194981098175048828125" lon="11.03113702498376369476318359375">
        <ele>861.79998779296875</ele>
        <time>2026-09-01T10:08:32.000Z</time>
        <extensions>
          <ns3:TrackPointExtension>
            <ns3:hr>194</ns3:hr>
            <ns3:cad>84</ns3:cad>
          </ns3:TrackPointExtension>
        </extensions>
      </trkpt>
      <trkpt lat="47.5698735751211643218994140625" lon="11.03109125979244709014892578125">
        <ele>861.79998779296875</ele>
        <time>2026-09-01T10:08:33.000Z</time>
        <extensions>
          <ns3:TrackPointExtension>
            <ns3:hr>193</ns3:hr>
            <ns3:cad>84</ns3:cad>
          </ns3:TrackPointExtension>
        </extensions>
      </trkpt>
      <trkpt lat="47.5698933564126491546630859375" lon="11.03105203248560428619384765625">
        <ele>861.79998779296875</ele>
        <time>2026-09-01T10:08:34.000Z</time>
        <extensions>
          <ns3:TrackPointExtension>
            <ns3:hr>194</ns3:hr>
            <ns3:cad>84</ns3:cad>
          </ns3:TrackPointExtension>
        </extensions>
      </trkpt>
      <trkpt lat="47.56991389207541942596435546875" lon="11.03100098669528961181640625">
        <ele>861.79998779296875</ele>
        <time>2026-09-01T10:08:35.000Z</time>
        <extensions>
          <ns3:TrackPointExtension>
            <ns3:hr>194</ns3:hr>
            <ns3:cad>84</ns3:cad>
          </ns3:TrackPointExtension>
        </extensions>
      </trkpt>
      <trkpt lat="47.56993333809077739715576171875" lon="11.03095446713268756866455078125">
        <ele>862</ele>
        <time>2026-09-01T10:08:36.000Z</time>
        <extensions>
          <ns3:TrackPointExtension>
            <ns3:hr>194</ns3:hr>
            <ns3:cad>84</ns3:cad>
          </ns3:TrackPointExtension>
        </extensions>
      </trkpt>
      <trkpt lat="47.56995362229645252227783203125" lon="11.0309106297791004180908203125">
        <ele>862</ele>
        <time>2026-09-01T10:08:37.000Z</time>
        <extensions>
          <ns3:TrackPointExtension>
            <ns3:hr>193</ns3:hr>
            <ns3:cad>84</ns3:cad>
          </ns3:TrackPointExtension>
        </extensions>
      </trkpt>
      <trkpt lat="47.569972984492778778076171875" lon="11.03085472248494625091552734375">
        <ele>862</ele>
        <time>2026-09-01T10:08:38.000Z</time>
        <extensions>
          <ns3:TrackPointExtension>
            <ns3:hr>194</ns3:hr>
            <ns3:cad>85</ns3:cad>
          </ns3:TrackPointExtension>
        </extensions>
      </trkpt>
      <trkpt lat="47.569990418851375579833984375" lon="11.03081063367426395416259765625">
        <ele>862.20001220703125</ele>
        <time>2026-09-01T10:08:39.000Z</time>
        <extensions>
          <ns3:TrackPointExtension>
            <ns3:hr>194</ns3:hr>
            <ns3:cad>85</ns3:cad>
          </ns3:TrackPointExtension>
        </extensions>
      </trkpt>
      <trkpt lat="47.57001296617090702056884765625" lon="11.0307664610445499420166015625">
        <ele>862.20001220703125</ele>
        <time>2026-09-01T10:08:40.000Z</time>
        <extensions>
          <ns3:TrackPointExtension>
            <ns3:hr>193</ns3:hr>
            <ns3:cad>85</ns3:cad>
          </ns3:TrackPointExtension>
        </extensions>
      </trkpt>
      <trkpt lat="47.57003492675721645355224609375" lon="11.03072731755673885345458984375">
        <ele>862.20001220703125</ele>
        <time>2026-09-01T10:08:41.000Z</time>
        <extensions>
          <ns3:TrackPointExtension>
            <ns3:hr>193</ns3:hr>
            <ns3:cad>85</ns3:cad>
          </ns3:TrackPointExtension>
        </extensions>
      </trkpt>
      <trkpt lat="47.57006116211414337158203125" lon="11.0306806303560733795166015625">
        <ele>862.20001220703125</ele>
        <time>2026-09-01T10:08:42.000Z</time>
        <extensions>
          <ns3:TrackPointExtension>
            <ns3:hr>193</ns3:hr>
            <ns3:cad>86</ns3:cad>
          </ns3:TrackPointExtension>
        </extensions>
      </trkpt>
      <trkpt lat="47.57008002139627933502197265625" lon="11.0306357033550739288330078125">
        <ele>862.20001220703125</ele>
        <time>2026-09-01T10:08:43.000Z</time>
        <extensions>
          <ns3:TrackPointExtension>
            <ns3:hr>193</ns3:hr>
            <ns3:cad>86</ns3:cad>
          </ns3:TrackPointExtension>
        </extensions>
      </trkpt>
      <trkpt lat="47.57009963504970073699951171875" lon="11.03059655986726284027099609375">
        <ele>862.20001220703125</ele>
        <time>2026-09-01T10:08:44.000Z</time>
        <extensions>
          <ns3:TrackPointExtension>
            <ns3:hr>193</ns3:hr>
            <ns3:cad>86</ns3:cad>
          </ns3:TrackPointExtension>
        </extensions>
      </trkpt>
      <trkpt lat="47.5701246969401836395263671875" lon="11.03055213578045368194580078125">
        <ele>862.20001220703125</ele>
        <time>2026-09-01T10:08:45.000Z</time>
        <extensions>
          <ns3:TrackPointExtension>
            <ns3:hr>193</ns3:hr>
            <ns3:cad>85</ns3:cad>
          </ns3:TrackPointExtension>
        </extensions>
      </trkpt>
      <trkpt lat="47.5701428018510341644287109375" lon="11.030515842139720916748046875">
        <ele>862.20001220703125</ele>
        <time>2026-09-01T10:08:46.000Z</time>
        <extensions>
          <ns3:TrackPointExtension>
            <ns3:hr>193</ns3:hr>
            <ns3:cad>86</ns3:cad>
          </ns3:TrackPointExtension>
        </extensions>
      </trkpt>
      <trkpt lat="47.57016954012215137481689453125" lon="11.03046429343521595001220703125">
        <ele>862.20001220703125</ele>
        <time>2026-09-01T10:08:47.000Z</time>
        <extensions>
          <ns3:TrackPointExtension>
            <ns3:hr>193</ns3:hr>
            <ns3:cad>86</ns3:cad>
          </ns3:TrackPointExtension>
        </extensions>
      </trkpt>
      <trkpt lat="47.5701878964900970458984375" lon="11.03042288683354854583740234375">
        <ele>862.20001220703125</ele>
        <time>2026-09-01T10:08:48.000Z</time>
        <extensions>
          <ns3:TrackPointExtension>
            <ns3:hr>193</ns3:hr>
            <ns3:cad>86</ns3:cad>
          </ns3:TrackPointExtension>
        </extensions>
      </trkpt>
      <trkpt lat="47.5702081806957721710205078125" lon="11.0303735174238681793212890625">
        <ele>862.20001220703125</ele>
        <time>2026-09-01T10:08:49.000Z</time>
        <extensions>
          <ns3:TrackPointExtension>
            <ns3:hr>193</ns3:hr>
            <ns3:cad>85</ns3:cad>
          </ns3:TrackPointExtension>
        </extensions>
      </trkpt>
      <trkpt lat="47.5702279619872570037841796875" lon="11.0303235612809658050537109375">
        <ele>862.20001220703125</ele>
        <time>2026-09-01T10:08:50.000Z</time>
        <extensions>
          <ns3:TrackPointExtension>
            <ns3:hr>193</ns3:hr>
            <ns3:cad>85</ns3:cad>
          </ns3:TrackPointExtension>
        </extensions>
      </trkpt>
      <trkpt lat="47.5702464021742343902587890625" lon="11.0302853398025035858154296875">
        <ele>862.4000244140625</ele>
        <time>2026-09-01T10:08:51.000Z</time>
        <extensions>
          <ns3:TrackPointExtension>
            <ns3:hr>192</ns3:hr>
            <ns3:cad>85</ns3:cad>
          </ns3:TrackPointExtension>
        </extensions>
      </trkpt>
      <trkpt lat="47.570266686379909515380859375" lon="11.03023781441152095794677734375">
        <ele>862.5999755859375</ele>
        <time>2026-09-01T10:08:52.000Z</time>
        <extensions>
          <ns3:TrackPointExtension>
            <ns3:hr>192</ns3:hr>
            <ns3:cad>85</ns3:cad>
          </ns3:TrackPointExtension>
        </extensions>
      </trkpt>
      <trkpt lat="47.57028822787106037139892578125" lon="11.0302001796662807464599609375">
        <ele>862.5999755859375</ele>
        <time>2026-09-01T10:08:53.000Z</time>
        <extensions>
          <ns3:TrackPointExtension>
            <ns3:hr>192</ns3:hr>
            <ns3:cad>85</ns3:cad>
          </ns3:TrackPointExtension>
        </extensions>
      </trkpt>
      <trkpt lat="47.570306919515132904052734375" lon="11.03014879859983921051025390625">
        <ele>862.5999755859375</ele>
        <time>2026-09-01T10:08:54.000Z</time>
        <extensions>
          <ns3:TrackPointExtension>
            <ns3:hr>192</ns3:hr>
            <ns3:cad>85</ns3:cad>
          </ns3:TrackPointExtension>
        </extensions>
      </trkpt>
      <trkpt lat="47.570327036082744598388671875" lon="11.0301006026566028594970703125">
        <ele>862.5999755859375</ele>
        <time>2026-09-01T10:08:55.000Z</time>
        <extensions>
          <ns3:TrackPointExtension>
            <ns3:hr>192</ns3:hr>
            <ns3:cad>85</ns3:cad>
          </ns3:TrackPointExtension>
        </extensions>
      </trkpt>
      <trkpt lat="47.57034522481262683868408203125" lon="11.03005525656044483184814453125">
        <ele>862.5999755859375</ele>
        <time>2026-09-01T10:08:56.000Z</time>
        <extensions>
          <ns3:TrackPointExtension>
            <ns3:hr>192</ns3:hr>
            <ns3:cad>85</ns3:cad>
          </ns3:TrackPointExtension>
        </extensions>
      </trkpt>
      <trkpt lat="47.57037498056888580322265625" lon="11.03000747971236705780029296875">
        <ele>862.5999755859375</ele>
        <time>2026-09-01T10:08:57.000Z</time>
        <extensions>
          <ns3:TrackPointExtension>
            <ns3:hr>192</ns3:hr>
            <ns3:cad>85</ns3:cad>
          </ns3:TrackPointExtension>
        </extensions>
      </trkpt>
      <trkpt lat="47.57039777934551239013671875" lon="11.02997378446161746978759765625">
        <ele>862.5999755859375</ele>
        <time>2026-09-01T10:08:58.000Z</time>
        <extensions>
          <ns3:TrackPointExtension>
            <ns3:hr>192</ns3:hr>
            <ns3:cad>85</ns3:cad>
          </ns3:TrackPointExtension>
        </extensions>
      </trkpt>
      <trkpt lat="47.570426277816295623779296875" lon="11.02993271313607692718505859375">
        <ele>862.79998779296875</ele>
        <time>2026-09-01T10:08:59.000Z</time>
        <extensions>
          <ns3:TrackPointExtension>
            <ns3:hr>192</ns3:hr>
            <ns3:cad>85</ns3:cad>
          </ns3:TrackPointExtension>
        </extensions>
      </trkpt>
      <trkpt lat="47.57044798694550991058349609375" lon="11.02989583276212215423583984375">
        <ele>862.79998779296875</ele>
        <time>2026-09-01T10:09:00.000Z</time>
        <extensions>
          <ns3:TrackPointExtension>
            <ns3:hr>192</ns3:hr>
            <ns3:cad>85</ns3:cad>
          </ns3:TrackPointExtension>
        </extensions>
      </trkpt>
      <trkpt lat="47.57047556340694427490234375" lon="11.0298524983227252960205078125">
        <ele>862.5999755859375</ele>
        <time>2026-09-01T10:09:01.000Z</time>
        <extensions>
          <ns3:TrackPointExtension>
            <ns3:hr>191</ns3:hr>
            <ns3:cad>86</ns3:cad>
          </ns3:TrackPointExtension>
        </extensions>
      </trkpt>
      <trkpt lat="47.5704971887171268463134765625" lon="11.02981402538716793060302734375">
        <ele>862.79998779296875</ele>
        <time>2026-09-01T10:09:02.000Z</time>
        <extensions>
          <ns3:TrackPointExtension>
            <ns3:hr>191</ns3:hr>
            <ns3:cad>86</ns3:cad>
          </ns3:TrackPointExtension>
        </extensions>
      </trkpt>
      <trkpt lat="47.57052191533148288726806640625" lon="11.02978284470736980438232421875">
        <ele>862.79998779296875</ele>
        <time>2026-09-01T10:09:03.000Z</time>
        <extensions>
          <ns3:TrackPointExtension>
            <ns3:hr>191</ns3:hr>
            <ns3:cad>87</ns3:cad>
          </ns3:TrackPointExtension>
        </extensions>
      </trkpt>
      <trkpt lat="47.5705474801361560821533203125" lon="11.02974747307598590850830078125">
        <ele>862.79998779296875</ele>
        <time>2026-09-01T10:09:04.000Z</time>
        <extensions>
          <ns3:TrackPointExtension>
            <ns3:hr>191</ns3:hr>
            <ns3:cad>87</ns3:cad>
          </ns3:TrackPointExtension>
        </extensions>
      </trkpt>
      <trkpt lat="47.570569775998592376708984375" lon="11.029721237719058990478515625">
        <ele>862.79998779296875</ele>
        <time>2026-09-01T10:09:05.000Z</time>
        <extensions>
          <ns3:TrackPointExtension>
            <ns3:hr>192</ns3:hr>
            <ns3:cad>87</ns3:cad>
          </ns3:TrackPointExtension>
        </extensions>
      </trkpt>
      <trkpt lat="47.5706001184880733489990234375" lon="11.029685027897357940673828125">
        <ele>863</ele>
        <time>2026-09-01T10:09:06.000Z</time>
        <extensions>
          <ns3:TrackPointExtension>
            <ns3:hr>191</ns3:hr>
            <ns3:cad>86</ns3:cad>
          </ns3:TrackPointExtension>
        </extensions>
      </trkpt>
      <trkpt lat="47.5706242583692073822021484375" lon="11.0296553559601306915283203125">
        <ele>863</ele>
        <time>2026-09-01T10:09:07.000Z</time>
        <extensions>
          <ns3:TrackPointExtension>
            <ns3:hr>191</ns3:hr>
            <ns3:cad>85</ns3:cad>
          </ns3:TrackPointExtension>
        </extensions>
      </trkpt>
      <trkpt lat="47.57065217010676860809326171875" lon="11.0296198166906833648681640625">
        <ele>863</ele>
        <time>2026-09-01T10:09:08.000Z</time>
        <extensions>
          <ns3:TrackPointExtension>
            <ns3:hr>191</ns3:hr>
            <ns3:cad>85</ns3:cad>
          </ns3:TrackPointExtension>
        </extensions>
      </trkpt>
      <trkpt lat="47.5706802494823932647705078125" lon="11.02958721108734607696533203125">
        <ele>863</ele>
        <time>2026-09-01T10:09:09.000Z</time>
        <extensions>
          <ns3:TrackPointExtension>
            <ns3:hr>192</ns3:hr>
            <ns3:cad>85</ns3:cad>
          </ns3:TrackPointExtension>
        </extensions>
      </trkpt>
      <trkpt lat="47.5707057304680347442626953125" lon="11.0295631550252437591552734375">
        <ele>863.20001220703125</ele>
        <time>2026-09-01T10:09:10.000Z</time>
        <extensions>
          <ns3:TrackPointExtension>
            <ns3:hr>191</ns3:hr>
            <ns3:cad>84</ns3:cad>
          </ns3:TrackPointExtension>
        </extensions>
      </trkpt>
      <trkpt lat="47.5707352347671985626220703125" lon="11.02953054942190647125244140625">
        <ele>863.20001220703125</ele>
        <time>2026-09-01T10:09:11.000Z</time>
        <extensions>
          <ns3:TrackPointExtension>
            <ns3:hr>191</ns3:hr>
            <ns3:cad>84</ns3:cad>
          </ns3:TrackPointExtension>
        </extensions>
      </trkpt>
      <trkpt lat="47.5707633979618549346923828125" lon="11.02950858883559703826904296875">
        <ele>863.20001220703125</ele>
        <time>2026-09-01T10:09:12.000Z</time>
        <extensions>
          <ns3:TrackPointExtension>
            <ns3:hr>191</ns3:hr>
            <ns3:cad>84</ns3:cad>
          </ns3:TrackPointExtension>
        </extensions>
      </trkpt>
      <trkpt lat="47.57079902105033397674560546875" lon="11.029483862221240997314453125">
        <ele>863.20001220703125</ele>
        <time>2026-09-01T10:09:13.000Z</time>
        <extensions>
          <ns3:TrackPointExtension>
            <ns3:hr>191</ns3:hr>
            <ns3:cad>84</ns3:cad>
          </ns3:TrackPointExtension>
        </extensions>
      </trkpt>
      <trkpt lat="47.57083036936819553375244140625" lon="11.02946500293910503387451171875">
        <ele>863.20001220703125</ele>
        <time>2026-09-01T10:09:14.000Z</time>
        <extensions>
          <ns3:TrackPointExtension>
            <ns3:hr>190</ns3:hr>
            <ns3:cad>84</ns3:cad>
          </ns3:TrackPointExtension>
        </extensions>
      </trkpt>
      <trkpt lat="47.57086674682796001434326171875" lon="11.0294491611421108245849609375">
        <ele>863.20001220703125</ele>
        <time>2026-09-01T10:09:15.000Z</time>
        <extensions>
          <ns3:TrackPointExtension>
            <ns3:hr>190</ns3:hr>
            <ns3:cad>84</ns3:cad>
          </ns3:TrackPointExtension>
        </extensions>
      </trkpt>
      <trkpt lat="47.5709018670022487640380859375" lon="11.02942275814712047576904296875">
        <ele>863.4000244140625</ele>
        <time>2026-09-01T10:09:16.000Z</time>
        <extensions>
          <ns3:TrackPointExtension>
            <ns3:hr>190</ns3:hr>
            <ns3:cad>84</ns3:cad>
          </ns3:TrackPointExtension>
        </extensions>
      </trkpt>
      <trkpt lat="47.57093614898622035980224609375" lon="11.02940565906465053558349609375">
        <ele>863.4000244140625</ele>
        <time>2026-09-01T10:09:17.000Z</time>
        <extensions>
          <ns3:TrackPointExtension>
            <ns3:hr>190</ns3:hr>
            <ns3:cad>85</ns3:cad>
          </ns3:TrackPointExtension>
        </extensions>
      </trkpt>
      <trkpt lat="47.57096707820892333984375" lon="11.02938604541122913360595703125">
        <ele>863.4000244140625</ele>
        <time>2026-09-01T10:09:18.000Z</time>
        <extensions>
          <ns3:TrackPointExtension>
            <ns3:hr>190</ns3:hr>
            <ns3:cad>85</ns3:cad>
          </ns3:TrackPointExtension>
        </extensions>
      </trkpt>
      <trkpt lat="47.57100001908838748931884765625" lon="11.0293683595955371856689453125">
        <ele>863.5999755859375</ele>
        <time>2026-09-01T10:09:19.000Z</time>
        <extensions>
          <ns3:TrackPointExtension>
            <ns3:hr>190</ns3:hr>
            <ns3:cad>85</ns3:cad>
          </ns3:TrackPointExtension>
        </extensions>
      </trkpt>
      <trkpt lat="47.57103706710040569305419921875" lon="11.02935972623527050018310546875">
        <ele>863.5999755859375</ele>
        <time>2026-09-01T10:09:20.000Z</time>
        <extensions>
          <ns3:TrackPointExtension>
            <ns3:hr>190</ns3:hr>
            <ns3:cad>84</ns3:cad>
          </ns3:TrackPointExtension>
        </extensions>
      </trkpt>
      <trkpt lat="47.5710703432559967041015625" lon="11.029342710971832275390625">
        <ele>863.5999755859375</ele>
        <time>2026-09-01T10:09:21.000Z</time>
        <extensions>
          <ns3:TrackPointExtension>
            <ns3:hr>190</ns3:hr>
            <ns3:cad>84</ns3:cad>
          </ns3:TrackPointExtension>
        </extensions>
      </trkpt>
      <trkpt lat="47.57109926082193851470947265625" lon="11.02933265268802642822265625">
        <ele>863.5999755859375</ele>
        <time>2026-09-01T10:09:22.000Z</time>
        <extensions>
          <ns3:TrackPointExtension>
            <ns3:hr>190</ns3:hr>
            <ns3:cad>84</ns3:cad>
          </ns3:TrackPointExtension>
        </extensions>
      </trkpt>
      <trkpt lat="47.571140415966510772705078125" lon="11.02931647561490535736083984375">
        <ele>863.79998779296875</ele>
        <time>2026-09-01T10:09:23.000Z</time>
        <extensions>
          <ns3:TrackPointExtension>
            <ns3:hr>190</ns3:hr>
            <ns3:cad>84</ns3:cad>
          </ns3:TrackPointExtension>
        </extensions>
      </trkpt>
      <trkpt lat="47.57117092609405517578125" lon="11.02930222637951374053955078125">
        <ele>863.79998779296875</ele>
        <time>2026-09-01T10:09:24.000Z</time>
        <extensions>
          <ns3:TrackPointExtension>
            <ns3:hr>189</ns3:hr>
            <ns3:cad>84</ns3:cad>
          </ns3:TrackPointExtension>
        </extensions>
      </trkpt>
      <trkpt lat="47.571205459535121917724609375" lon="11.029290072619915008544921875">
        <ele>863.79998779296875</ele>
        <time>2026-09-01T10:09:25.000Z</time>
        <extensions>
          <ns3:TrackPointExtension>
            <ns3:hr>189</ns3:hr>
            <ns3:cad>84</ns3:cad>
          </ns3:TrackPointExtension>
        </extensions>
      </trkpt>
      <trkpt lat="47.571242339909076690673828125" lon="11.0292738117277622222900390625">
        <ele>863.79998779296875</ele>
        <time>2026-09-01T10:09:26.000Z</time>
        <extensions>
          <ns3:TrackPointExtension>
            <ns3:hr>189</ns3:hr>
            <ns3:cad>85</ns3:cad>
          </ns3:TrackPointExtension>
        </extensions>
      </trkpt>
      <trkpt lat="47.5712703354656696319580078125" lon="11.029262579977512359619140625">
        <ele>863.79998779296875</ele>
        <time>2026-09-01T10:09:27.000Z</time>
        <extensions>
          <ns3:TrackPointExtension>
            <ns3:hr>189</ns3:hr>
            <ns3:cad>85</ns3:cad>
          </ns3:TrackPointExtension>
        </extensions>
      </trkpt>
      <trkpt lat="47.5713068805634975433349609375" lon="11.0292459838092327117919921875">
        <ele>863.79998779296875</ele>
        <time>2026-09-01T10:09:28.000Z</time>
        <extensions>
          <ns3:TrackPointExtension>
            <ns3:hr>189</ns3:hr>
            <ns3:cad>85</ns3:cad>
          </ns3:TrackPointExtension>
        </extensions>
      </trkpt>
      <trkpt lat="47.5713390670716762542724609375" lon="11.0292295552790164947509765625">
        <ele>864</ele>
        <time>2026-09-01T10:09:29.000Z</time>
        <extensions>
          <ns3:TrackPointExtension>
            <ns3:hr>189</ns3:hr>
            <ns3:cad>85</ns3:cad>
          </ns3:TrackPointExtension>
        </extensions>
      </trkpt>
      <trkpt lat="47.57137938402593135833740234375" lon="11.029218323528766632080078125">
        <ele>864</ele>
        <time>2026-09-01T10:09:30.000Z</time>
        <extensions>
          <ns3:TrackPointExtension>
            <ns3:hr>189</ns3:hr>
            <ns3:cad>84</ns3:cad>
          </ns3:TrackPointExtension>
        </extensions>
      </trkpt>
      <trkpt lat="47.57141291163861751556396484375" lon="11.02920449338853359222412109375">
        <ele>864.20001220703125</ele>
        <time>2026-09-01T10:09:31.000Z</time>
        <extensions>
          <ns3:TrackPointExtension>
            <ns3:hr>190</ns3:hr>
            <ns3:cad>84</ns3:cad>
          </ns3:TrackPointExtension>
        </extensions>
      </trkpt>
      <trkpt lat="47.571442164480686187744140625" lon="11.029197871685028076171875">
        <ele>864.20001220703125</ele>
        <time>2026-09-01T10:09:32.000Z</time>
        <extensions>
          <ns3:TrackPointExtension>
            <ns3:hr>189</ns3:hr>
            <ns3:cad>83</ns3:cad>
          </ns3:TrackPointExtension>
        </extensions>
      </trkpt>
      <trkpt lat="47.57147292606532573699951171875" lon="11.0291749052703380584716796875">
        <ele>864.4000244140625</ele>
        <time>2026-09-01T10:09:33.000Z</time>
        <extensions>
          <ns3:TrackPointExtension>
            <ns3:hr>190</ns3:hr>
            <ns3:cad>83</ns3:cad>
          </ns3:TrackPointExtension>
        </extensions>
      </trkpt>
      <trkpt lat="47.57150092162191867828369140625" lon="11.02915168739855289459228515625">
        <ele>864.4000244140625</ele>
        <time>2026-09-01T10:09:34.000Z</time>
        <extensions>
          <ns3:TrackPointExtension>
            <ns3:hr>190</ns3:hr>
            <ns3:cad>83</ns3:cad>
          </ns3:TrackPointExtension>
        </extensions>
      </trkpt>
      <trkpt lat="47.57152564823627471923828125" lon="11.0291376896202564239501953125">
        <ele>864.5999755859375</ele>
        <time>2026-09-01T10:09:35.000Z</time>
        <extensions>
          <ns3:TrackPointExtension>
            <ns3:hr>189</ns3:hr>
            <ns3:cad>84</ns3:cad>
          </ns3:TrackPointExtension>
        </extensions>
      </trkpt>
      <trkpt lat="47.57155381143093109130859375" lon="11.0291068442165851593017578125">
        <ele>864.79998779296875</ele>
        <time>2026-09-01T10:09:36.000Z</time>
        <extensions>
          <ns3:TrackPointExtension>
            <ns3:hr>189</ns3:hr>
            <ns3:cad>84</ns3:cad>
          </ns3:TrackPointExtension>
        </extensions>
      </trkpt>
      <trkpt lat="47.57158591412007808685302734375" lon="11.02909401990473270416259765625">
        <ele>864.79998779296875</ele>
        <time>2026-09-01T10:09:37.000Z</time>
        <extensions>
          <ns3:TrackPointExtension>
            <ns3:hr>189</ns3:hr>
            <ns3:cad>84</ns3:cad>
          </ns3:TrackPointExtension>
        </extensions>
      </trkpt>
      <trkpt lat="47.57161659188568592071533203125" lon="11.029074825346469879150390625">
        <ele>865</ele>
        <time>2026-09-01T10:09:38.000Z</time>
        <extensions>
          <ns3:TrackPointExtension>
            <ns3:hr>190</ns3:hr>
            <ns3:cad>84</ns3:cad>
          </ns3:TrackPointExtension>
        </extensions>
      </trkpt>
      <trkpt lat="47.5716416537761688232421875" lon="11.02905009873211383819580078125">
        <ele>865.20001220703125</ele>
        <time>2026-09-01T10:09:39.000Z</time>
        <extensions>
          <ns3:TrackPointExtension>
            <ns3:hr>189</ns3:hr>
            <ns3:cad>84</ns3:cad>
          </ns3:TrackPointExtension>
        </extensions>
      </trkpt>
      <trkpt lat="47.57166780531406402587890625" lon="11.02902377955615520477294921875">
        <ele>865.4000244140625</ele>
        <time>2026-09-01T10:09:40.000Z</time>
        <extensions>
          <ns3:TrackPointExtension>
            <ns3:hr>189</ns3:hr>
            <ns3:cad>84</ns3:cad>
          </ns3:TrackPointExtension>
        </extensions>
      </trkpt>
      <trkpt lat="47.571692951023578643798828125" lon="11.02899201214313507080078125">
        <ele>865.5999755859375</ele>
        <time>2026-09-01T10:09:41.000Z</time>
        <extensions>
          <ns3:TrackPointExtension>
            <ns3:hr>190</ns3:hr>
            <ns3:cad>84</ns3:cad>
          </ns3:TrackPointExtension>
        </extensions>
      </trkpt>
      <trkpt lat="47.5717132352292537689208984375" lon="11.0289693810045719146728515625">
        <ele>865.79998779296875</ele>
        <time>2026-09-01T10:09:42.000Z</time>
        <extensions>
          <ns3:TrackPointExtension>
            <ns3:hr>189</ns3:hr>
            <ns3:cad>84</ns3:cad>
          </ns3:TrackPointExtension>
        </extensions>
      </trkpt>
      <trkpt lat="47.57173913531005382537841796875" lon="11.02893409319221973419189453125">
        <ele>866.20001220703125</ele>
        <time>2026-09-01T10:09:43.000Z</time>
        <extensions>
          <ns3:TrackPointExtension>
            <ns3:hr>190</ns3:hr>
            <ns3:cad>84</ns3:cad>
          </ns3:TrackPointExtension>
        </extensions>
      </trkpt>
      <trkpt lat="47.571758329868316650390625" lon="11.02890710346400737762451171875">
        <ele>866.4000244140625</ele>
        <time>2026-09-01T10:09:44.000Z</time>
        <extensions>
          <ns3:TrackPointExtension>
            <ns3:hr>190</ns3:hr>
            <ns3:cad>84</ns3:cad>
          </ns3:TrackPointExtension>
        </extensions>
      </trkpt>
      <trkpt lat="47.5717823021113872528076171875" lon="11.02886687032878398895263671875">
        <ele>866.5999755859375</ele>
        <time>2026-09-01T10:09:45.000Z</time>
        <extensions>
          <ns3:TrackPointExtension>
            <ns3:hr>190</ns3:hr>
            <ns3:cad>85</ns3:cad>
          </ns3:TrackPointExtension>
        </extensions>
      </trkpt>
      <trkpt lat="47.5718024186789989471435546875" lon="11.02883066050708293914794921875">
        <ele>866.79998779296875</ele>
        <time>2026-09-01T10:09:46.000Z</time>
        <extensions>
          <ns3:TrackPointExtension>
            <ns3:hr>190</ns3:hr>
            <ns3:cad>85</ns3:cad>
          </ns3:TrackPointExtension>
        </extensions>
      </trkpt>
      <trkpt lat="47.5718238763511180877685546875" lon="11.02879696525633335113525390625">
        <ele>867.20001220703125</ele>
        <time>2026-09-01T10:09:47.000Z</time>
        <extensions>
          <ns3:TrackPointExtension>
            <ns3:hr>191</ns3:hr>
            <ns3:cad>85</ns3:cad>
          </ns3:TrackPointExtension>
        </extensions>
      </trkpt>
      <trkpt lat="47.5718460045754909515380859375" lon="11.0287591628730297088623046875">
        <ele>867.4000244140625</ele>
        <time>2026-09-01T10:09:48.000Z</time>
        <extensions>
          <ns3:TrackPointExtension>
            <ns3:hr>191</ns3:hr>
            <ns3:cad>85</ns3:cad>
          </ns3:TrackPointExtension>
        </extensions>
      </trkpt>
      <trkpt lat="47.57186721079051494598388671875" lon="11.028722114861011505126953125">
        <ele>867.5999755859375</ele>
        <time>2026-09-01T10:09:49.000Z</time>
        <extensions>
          <ns3:TrackPointExtension>
            <ns3:hr>191</ns3:hr>
            <ns3:cad>85</ns3:cad>
          </ns3:TrackPointExtension>
        </extensions>
      </trkpt>
      <trkpt lat="47.571892440319061279296875" lon="11.028687246143817901611328125">
        <ele>867.79998779296875</ele>
        <time>2026-09-01T10:09:50.000Z</time>
        <extensions>
          <ns3:TrackPointExtension>
            <ns3:hr>191</ns3:hr>
            <ns3:cad>85</ns3:cad>
          </ns3:TrackPointExtension>
        </extensions>
      </trkpt>
      <trkpt lat="47.571913897991180419921875" lon="11.0286548919975757598876953125">
        <ele>868</ele>
        <time>2026-09-01T10:09:51.000Z</time>
        <extensions>
          <ns3:TrackPointExtension>
            <ns3:hr>191</ns3:hr>
            <ns3:cad>85</ns3:cad>
          </ns3:TrackPointExtension>
        </extensions>
      </trkpt>
      <trkpt lat="47.5719341821968555450439453125" lon="11.02862320840358734130859375">
        <ele>868.20001220703125</ele>
        <time>2026-09-01T10:09:52.000Z</time>
        <extensions>
          <ns3:TrackPointExtension>
            <ns3:hr>192</ns3:hr>
            <ns3:cad>85</ns3:cad>
          </ns3:TrackPointExtension>
        </extensions>
      </trkpt>
      <trkpt lat="47.57195882499217987060546875" lon="11.02858423255383968353271484375">
        <ele>868.20001220703125</ele>
        <time>2026-09-01T10:09:53.000Z</time>
        <extensions>
          <ns3:TrackPointExtension>
            <ns3:hr>191</ns3:hr>
            <ns3:cad>84</ns3:cad>
          </ns3:TrackPointExtension>
        </extensions>
      </trkpt>
      <trkpt lat="47.57197768427431583404541015625" lon="11.0285499505698680877685546875">
        <ele>868.20001220703125</ele>
        <time>2026-09-01T10:09:54.000Z</time>
        <extensions>
          <ns3:TrackPointExtension>
            <ns3:hr>191</ns3:hr>
            <ns3:cad>84</ns3:cad>
          </ns3:TrackPointExtension>
        </extensions>
      </trkpt>
      <trkpt lat="47.57200702093541622161865234375" lon="11.0285147465765476226806640625">
        <ele>868</ele>
        <time>2026-09-01T10:09:55.000Z</time>
        <extensions>
          <ns3:TrackPointExtension>
            <ns3:hr>192</ns3:hr>
            <ns3:cad>84</ns3:cad>
          </ns3:TrackPointExtension>
        </extensions>
      </trkpt>
      <trkpt lat="47.57203099317848682403564453125" lon="11.028478033840656280517578125">
        <ele>867.79998779296875</ele>
        <time>2026-09-01T10:09:56.000Z</time>
        <extensions>
          <ns3:TrackPointExtension>
            <ns3:hr>192</ns3:hr>
            <ns3:cad>84</ns3:cad>
          </ns3:TrackPointExtension>
        </extensions>
      </trkpt>
      <trkpt lat="47.57206267677247524261474609375" lon="11.028446517884731292724609375">
        <ele>867.5999755859375</ele>
        <time>2026-09-01T10:09:57.000Z</time>
        <extensions>
          <ns3:TrackPointExtension>
            <ns3:hr>192</ns3:hr>
            <ns3:cad>83</ns3:cad>
          </ns3:TrackPointExtension>
        </extensions>
      </trkpt>
      <trkpt lat="47.57209134288132190704345703125" lon="11.02840418927371501922607421875">
        <ele>867</ele>
        <time>2026-09-01T10:09:58.000Z</time>
        <extensions>
          <ns3:TrackPointExtension>
            <ns3:hr>192</ns3:hr>
            <ns3:cad>83</ns3:cad>
          </ns3:TrackPointExtension>
        </extensions>
      </trkpt>
      <trkpt lat="47.5721175782382488250732421875" lon="11.0283699072897434234619140625">
        <ele>866.79998779296875</ele>
        <time>2026-09-01T10:09:59.000Z</time>
        <extensions>
          <ns3:TrackPointExtension>
            <ns3:hr>191</ns3:hr>
            <ns3:cad>83</ns3:cad>
          </ns3:TrackPointExtension>
        </extensions>
      </trkpt>
      <trkpt lat="47.57215085439383983612060546875" lon="11.02831450290977954864501953125">
        <ele>866.4000244140625</ele>
        <time>2026-09-01T10:10:00.000Z</time>
        <extensions>
          <ns3:TrackPointExtension>
            <ns3:hr>192</ns3:hr>
            <ns3:cad>84</ns3:cad>
          </ns3:TrackPointExtension>
        </extensions>
      </trkpt>
      <trkpt lat="47.57217449136078357696533203125" lon="11.02826806716620922088623046875">
        <ele>866.20001220703125</ele>
        <time>2026-09-01T10:10:01.000Z</time>
        <extensions>
          <ns3:TrackPointExtension>
            <ns3:hr>192</ns3:hr>
            <ns3:cad>84</ns3:cad>
          </ns3:TrackPointExtension>
        </extensions>
      </trkpt>
      <trkpt lat="47.57220114581286907196044921875" lon="11.0282041132450103759765625">
        <ele>865.79998779296875</ele>
        <time>2026-09-01T10:10:02.000Z</time>
        <extensions>
          <ns3:TrackPointExtension>
            <ns3:hr>191</ns3:hr>
            <ns3:cad>84</ns3:cad>
          </ns3:TrackPointExtension>
        </extensions>
      </trkpt>
      <trkpt lat="47.57220827043056488037109375" lon="11.02815491147339344024658203125">
        <ele>865.5999755859375</ele>
        <time>2026-09-01T10:10:03.000Z</time>
        <extensions>
          <ns3:TrackPointExtension>
            <ns3:hr>191</ns3:hr>
            <ns3:cad>85</ns3:cad>
          </ns3:TrackPointExtension>
        </extensions>
      </trkpt>
      <trkpt lat="47.5722074322402477264404296875" lon="11.0280862636864185333251953125">
        <ele>865.4000244140625</ele>
        <time>2026-09-01T10:10:04.000Z</time>
        <extensions>
          <ns3:TrackPointExtension>
            <ns3:hr>191</ns3:hr>
            <ns3:cad>86</ns3:cad>
          </ns3:TrackPointExtension>
        </extensions>
      </trkpt>
      <trkpt lat="47.5722000561654567718505859375" lon="11.02803119458258152008056640625">
        <ele>865.20001220703125</ele>
        <time>2026-09-01T10:10:05.000Z</time>
        <extensions>
          <ns3:TrackPointExtension>
            <ns3:hr>191</ns3:hr>
            <ns3:cad>87</ns3:cad>
          </ns3:TrackPointExtension>
        </extensions>
      </trkpt>
      <trkpt lat="47.57218278944492340087890625" lon="11.02797671221196651458740234375">
        <ele>865.20001220703125</ele>
        <time>2026-09-01T10:10:06.000Z</time>
        <extensions>
          <ns3:TrackPointExtension>
            <ns3:hr>191</ns3:hr>
            <ns3:cad>88</ns3:cad>
          </ns3:TrackPointExtension>
        </extensions>
      </trkpt>
      <trkpt lat="47.5721688754856586456298828125" lon="11.0279172845184803009033203125">
        <ele>865.20001220703125</ele>
        <time>2026-09-01T10:10:07.000Z</time>
        <extensions>
          <ns3:TrackPointExtension>
            <ns3:hr>191</ns3:hr>
            <ns3:cad>88</ns3:cad>
          </ns3:TrackPointExtension>
        </extensions>
      </trkpt>
      <trkpt lat="47.5721566379070281982421875" lon="11.02787344716489315032958984375">
        <ele>865</ele>
        <time>2026-09-01T10:10:08.000Z</time>
        <extensions>
          <ns3:TrackPointExtension>
            <ns3:hr>191</ns3:hr>
            <ns3:cad>88</ns3:cad>
          </ns3:TrackPointExtension>
        </extensions>
      </trkpt>
      <trkpt lat="47.57214389741420745849609375" lon="11.0278153605759143829345703125">
        <ele>865.20001220703125</ele>
        <time>2026-09-01T10:10:09.000Z</time>
        <extensions>
          <ns3:TrackPointExtension>
            <ns3:hr>191</ns3:hr>
            <ns3:cad>88</ns3:cad>
          </ns3:TrackPointExtension>
        </extensions>
      </trkpt>
      <trkpt lat="47.57213459350168704986572265625" lon="11.02777160704135894775390625">
        <ele>865</ele>
        <time>2026-09-01T10:10:10.000Z</time>
        <extensions>
          <ns3:TrackPointExtension>
            <ns3:hr>190</ns3:hr>
            <ns3:cad>87</ns3:cad>
          </ns3:TrackPointExtension>
        </extensions>
      </trkpt>
      <trkpt lat="47.57211984135210514068603515625" lon="11.0277181304991245269775390625">
        <ele>865</ele>
        <time>2026-09-01T10:10:11.000Z</time>
        <extensions>
          <ns3:TrackPointExtension>
            <ns3:hr>190</ns3:hr>
            <ns3:cad>86</ns3:cad>
          </ns3:TrackPointExtension>
        </extensions>
      </trkpt>
      <trkpt lat="47.57211179472506046295166015625" lon="11.02766322903335094451904296875">
        <ele>865</ele>
        <time>2026-09-01T10:10:12.000Z</time>
        <extensions>
          <ns3:TrackPointExtension>
            <ns3:hr>190</ns3:hr>
            <ns3:cad>85</ns3:cad>
          </ns3:TrackPointExtension>
        </extensions>
      </trkpt>
      <trkpt lat="47.57210140116512775421142578125" lon="11.02762299589812755584716796875">
        <ele>865</ele>
        <time>2026-09-01T10:10:13.000Z</time>
        <extensions>
          <ns3:TrackPointExtension>
            <ns3:hr>190</ns3:hr>
            <ns3:cad>85</ns3:cad>
          </ns3:TrackPointExtension>
        </extensions>
      </trkpt>
      <trkpt lat="47.57209050469100475311279296875" lon="11.0275645740330219268798828125">
        <ele>865</ele>
        <time>2026-09-01T10:10:14.000Z</time>
        <extensions>
          <ns3:TrackPointExtension>
            <ns3:hr>190</ns3:hr>
            <ns3:cad>85</ns3:cad>
          </ns3:TrackPointExtension>
        </extensions>
      </trkpt>
      <trkpt lat="47.5720842182636260986328125" lon="11.0275147855281829833984375">
        <ele>865</ele>
        <time>2026-09-01T10:10:15.000Z</time>
        <extensions>
          <ns3:TrackPointExtension>
            <ns3:hr>190</ns3:hr>
            <ns3:cad>84</ns3:cad>
          </ns3:TrackPointExtension>
        </extensions>
      </trkpt>
      <trkpt lat="47.5720763392746448516845703125" lon="11.0274504125118255615234375">
        <ele>865</ele>
        <time>2026-09-01T10:10:16.000Z</time>
        <extensions>
          <ns3:TrackPointExtension>
            <ns3:hr>189</ns3:hr>
            <ns3:cad>84</ns3:cad>
          </ns3:TrackPointExtension>
        </extensions>
      </trkpt>
      <trkpt lat="47.57207089103758335113525390625" lon="11.02739752270281314849853515625">
        <ele>865</ele>
        <time>2026-09-01T10:10:17.000Z</time>
        <extensions>
          <ns3:TrackPointExtension>
            <ns3:hr>189</ns3:hr>
            <ns3:cad>84</ns3:cad>
          </ns3:TrackPointExtension>
        </extensions>
      </trkpt>
      <trkpt lat="47.5720672868192195892333984375" lon="11.0273463092744350433349609375">
        <ele>865</ele>
        <time>2026-09-01T10:10:18.000Z</time>
        <extensions>
          <ns3:TrackPointExtension>
            <ns3:hr>189</ns3:hr>
            <ns3:cad>84</ns3:cad>
          </ns3:TrackPointExtension>
        </extensions>
      </trkpt>
      <trkpt lat="47.57206636480987071990966796875" lon="11.02729006670415401458740234375">
        <ele>865</ele>
        <time>2026-09-01T10:10:19.000Z</time>
        <extensions>
          <ns3:TrackPointExtension>
            <ns3:hr>189</ns3:hr>
            <ns3:cad>84</ns3:cad>
          </ns3:TrackPointExtension>
        </extensions>
      </trkpt>
      <trkpt lat="47.5720619224011898040771484375" lon="11.027244888246059417724609375">
        <ele>865</ele>
        <time>2026-09-01T10:10:20.000Z</time>
        <extensions>
          <ns3:TrackPointExtension>
            <ns3:hr>189</ns3:hr>
            <ns3:cad>84</ns3:cad>
          </ns3:TrackPointExtension>
        </extensions>
      </trkpt>
      <trkpt lat="47.5720575638115406036376953125" lon="11.02718277834355831146240234375">
        <ele>865</ele>
        <time>2026-09-01T10:10:21.000Z</time>
        <extensions>
          <ns3:TrackPointExtension>
            <ns3:hr>189</ns3:hr>
            <ns3:cad>85</ns3:cad>
          </ns3:TrackPointExtension>
        </extensions>
      </trkpt>
      <trkpt lat="47.5720589049160480499267578125" lon="11.027130223810672760009765625">
        <ele>865</ele>
        <time>2026-09-01T10:10:22.000Z</time>
        <extensions>
          <ns3:TrackPointExtension>
            <ns3:hr>188</ns3:hr>
            <ns3:cad>85</ns3:cad>
          </ns3:TrackPointExtension>
        </extensions>
      </trkpt>
      <trkpt lat="47.5720572285354137420654296875" lon="11.02707532234489917755126953125">
        <ele>865</ele>
        <time>2026-09-01T10:10:23.000Z</time>
        <extensions>
          <ns3:TrackPointExtension>
            <ns3:hr>188</ns3:hr>
            <ns3:cad>85</ns3:cad>
          </ns3:TrackPointExtension>
        </extensions>
      </trkpt>
      <trkpt lat="47.5720548816025257110595703125" lon="11.0270147211849689483642578125">
        <ele>865</ele>
        <time>2026-09-01T10:10:24.000Z</time>
        <extensions>
          <ns3:TrackPointExtension>
            <ns3:hr>188</ns3:hr>
            <ns3:cad>85</ns3:cad>
          </ns3:TrackPointExtension>
        </extensions>
      </trkpt>
      <trkpt lat="47.5720542110502719879150390625" lon="11.02696216665208339691162109375">
        <ele>865.20001220703125</ele>
        <time>2026-09-01T10:10:25.000Z</time>
        <extensions>
          <ns3:TrackPointExtension>
            <ns3:hr>188</ns3:hr>
            <ns3:cad>85</ns3:cad>
          </ns3:TrackPointExtension>
        </extensions>
      </trkpt>
      <trkpt lat="47.57205379195511341094970703125" lon="11.02690793573856353759765625">
        <ele>865.4000244140625</ele>
        <time>2026-09-01T10:10:26.000Z</time>
        <extensions>
          <ns3:TrackPointExtension>
            <ns3:hr>188</ns3:hr>
            <ns3:cad>85</ns3:cad>
          </ns3:TrackPointExtension>
        </extensions>
      </trkpt>
      <trkpt lat="47.57205731235444545745849609375" lon="11.02686057798564434051513671875">
        <ele>865.4000244140625</ele>
        <time>2026-09-01T10:10:27.000Z</time>
        <extensions>
          <ns3:TrackPointExtension>
            <ns3:hr>188</ns3:hr>
            <ns3:cad>85</ns3:cad>
          </ns3:TrackPointExtension>
        </extensions>
      </trkpt>
      <trkpt lat="47.5720538757741451263427734375" lon="11.0267994739115238189697265625">
        <ele>865.4000244140625</ele>
        <time>2026-09-01T10:10:28.000Z</time>
        <extensions>
          <ns3:TrackPointExtension>
            <ns3:hr>188</ns3:hr>
            <ns3:cad>85</ns3:cad>
          </ns3:TrackPointExtension>
        </extensions>
      </trkpt>
      <trkpt lat="47.57205597124993801116943359375" lon="11.0267471708357334136962890625">
        <ele>865.4000244140625</ele>
        <time>2026-09-01T10:10:29.000Z</time>
        <extensions>
          <ns3:TrackPointExtension>
            <ns3:hr>188</ns3:hr>
            <ns3:cad>86</ns3:cad>
          </ns3:TrackPointExtension>
        </extensions>
      </trkpt>
      <trkpt lat="47.572050355374813079833984375" lon="11.026692353188991546630859375">
        <ele>865.4000244140625</ele>
        <time>2026-09-01T10:10:30.000Z</time>
        <extensions>
          <ns3:TrackPointExtension>
            <ns3:hr>187</ns3:hr>
            <ns3:cad>86</ns3:cad>
          </ns3:TrackPointExtension>
        </extensions>
      </trkpt>
      <trkpt lat="47.57205043919384479522705078125" lon="11.0266318358480930328369140625">
        <ele>865.4000244140625</ele>
        <time>2026-09-01T10:10:31.000Z</time>
        <extensions>
          <ns3:TrackPointExtension>
            <ns3:hr>188</ns3:hr>
            <ns3:cad>86</ns3:cad>
          </ns3:TrackPointExtension>
        </extensions>
      </trkpt>
      <trkpt lat="47.57204926572740077972412109375" lon="11.026588417589664459228515625">
        <ele>865.5999755859375</ele>
        <time>2026-09-01T10:10:32.000Z</time>
        <extensions>
          <ns3:TrackPointExtension>
            <ns3:hr>188</ns3:hr>
            <ns3:cad>86</ns3:cad>
          </ns3:TrackPointExtension>
        </extensions>
      </trkpt>
      <trkpt lat="47.5720505230128765106201171875" lon="11.02652144618332386016845703125">
        <ele>865.79998779296875</ele>
        <time>2026-09-01T10:10:33.000Z</time>
        <extensions>
          <ns3:TrackPointExtension>
            <ns3:hr>187</ns3:hr>
            <ns3:cad>86</ns3:cad>
          </ns3:TrackPointExtension>
        </extensions>
      </trkpt>
      <trkpt lat="47.572049684822559356689453125" lon="11.02648037485778331756591796875">
        <ele>865.79998779296875</ele>
        <time>2026-09-01T10:10:34.000Z</time>
        <extensions>
          <ns3:TrackPointExtension>
            <ns3:hr>187</ns3:hr>
            <ns3:cad>86</ns3:cad>
          </ns3:TrackPointExtension>
        </extensions>
      </trkpt>
      <trkpt lat="47.57204624824225902557373046875" lon="11.026420779526233673095703125">
        <ele>865.79998779296875</ele>
        <time>2026-09-01T10:10:35.000Z</time>
        <extensions>
          <ns3:TrackPointExtension>
            <ns3:hr>187</ns3:hr>
            <ns3:cad>85</ns3:cad>
          </ns3:TrackPointExtension>
        </extensions>
      </trkpt>
      <trkpt lat="47.57204859517514705657958984375" lon="11.02636403404176235198974609375">
        <ele>866</ele>
        <time>2026-09-01T10:10:36.000Z</time>
        <extensions>
          <ns3:TrackPointExtension>
            <ns3:hr>186</ns3:hr>
            <ns3:cad>85</ns3:cad>
          </ns3:TrackPointExtension>
        </extensions>
      </trkpt>
      <trkpt lat="47.5720528699457645416259765625" lon="11.0263066180050373077392578125">
        <ele>866</ele>
        <time>2026-09-01T10:10:37.000Z</time>
        <extensions>
          <ns3:TrackPointExtension>
            <ns3:hr>186</ns3:hr>
            <ns3:cad>85</ns3:cad>
          </ns3:TrackPointExtension>
        </extensions>
      </trkpt>
      <trkpt lat="47.57204943336546421051025390625" lon="11.0262472741305828094482421875">
        <ele>866</ele>
        <time>2026-09-01T10:10:38.000Z</time>
        <extensions>
          <ns3:TrackPointExtension>
            <ns3:hr>186</ns3:hr>
            <ns3:cad>85</ns3:cad>
          </ns3:TrackPointExtension>
        </extensions>
      </trkpt>
      <trkpt lat="47.57205278612673282623291015625" lon="11.02619723416864871978759765625">
        <ele>866</ele>
        <time>2026-09-01T10:10:39.000Z</time>
        <extensions>
          <ns3:TrackPointExtension>
            <ns3:hr>186</ns3:hr>
            <ns3:cad>85</ns3:cad>
          </ns3:TrackPointExtension>
        </extensions>
      </trkpt>
      <trkpt lat="47.57205664180219173431396484375" lon="11.02614141069352626800537109375">
        <ele>866.20001220703125</ele>
        <time>2026-09-01T10:10:40.000Z</time>
        <extensions>
          <ns3:TrackPointExtension>
            <ns3:hr>186</ns3:hr>
            <ns3:cad>85</ns3:cad>
          </ns3:TrackPointExtension>
        </extensions>
      </trkpt>
      <trkpt lat="47.57205680944025516510009765625" lon="11.02609598077833652496337890625">
        <ele>866.20001220703125</ele>
        <time>2026-09-01T10:10:41.000Z</time>
        <extensions>
          <ns3:TrackPointExtension>
            <ns3:hr>186</ns3:hr>
            <ns3:cad>85</ns3:cad>
          </ns3:TrackPointExtension>
        </extensions>
      </trkpt>
      <trkpt lat="47.57206032983958721160888671875" lon="11.02605423890054225921630859375">
        <ele>866.20001220703125</ele>
        <time>2026-09-01T10:10:42.000Z</time>
        <extensions>
          <ns3:TrackPointExtension>
            <ns3:hr>186</ns3:hr>
            <ns3:cad>85</ns3:cad>
          </ns3:TrackPointExtension>
        </extensions>
      </trkpt>
      <trkpt lat="47.57205806672573089599609375" lon="11.02599724195897579193115234375">
        <ele>866.20001220703125</ele>
        <time>2026-09-01T10:10:43.000Z</time>
        <extensions>
          <ns3:TrackPointExtension>
            <ns3:hr>186</ns3:hr>
            <ns3:cad>85</ns3:cad>
          </ns3:TrackPointExtension>
        </extensions>
      </trkpt>
      <trkpt lat="47.57207172922790050506591796875" lon="11.0259632952511310577392578125">
        <ele>866.20001220703125</ele>
        <time>2026-09-01T10:10:44.000Z</time>
        <extensions>
          <ns3:TrackPointExtension>
            <ns3:hr>186</ns3:hr>
            <ns3:cad>85</ns3:cad>
          </ns3:TrackPointExtension>
        </extensions>
      </trkpt>
      <trkpt lat="47.572077848017215728759765625" lon="11.025909818708896636962890625">
        <ele>866.20001220703125</ele>
        <time>2026-09-01T10:10:45.000Z</time>
        <extensions>
          <ns3:TrackPointExtension>
            <ns3:hr>185</ns3:hr>
            <ns3:cad>84</ns3:cad>
          </ns3:TrackPointExtension>
        </extensions>
      </trkpt>
      <trkpt lat="47.57208379916846752166748046875" lon="11.02586732245981693267822265625">
        <ele>866.4000244140625</ele>
        <time>2026-09-01T10:10:46.000Z</time>
        <extensions>
          <ns3:TrackPointExtension>
            <ns3:hr>185</ns3:hr>
            <ns3:cad>84</ns3:cad>
          </ns3:TrackPointExtension>
        </extensions>
      </trkpt>
      <trkpt lat="47.57209050469100475311279296875" lon="11.025809906423091888427734375">
        <ele>866.4000244140625</ele>
        <time>2026-09-01T10:10:47.000Z</time>
        <extensions>
          <ns3:TrackPointExtension>
            <ns3:hr>185</ns3:hr>
            <ns3:cad>84</ns3:cad>
          </ns3:TrackPointExtension>
        </extensions>
      </trkpt>
      <trkpt lat="47.57209871895611286163330078125" lon="11.02575718425214290618896484375">
        <ele>866.4000244140625</ele>
        <time>2026-09-01T10:10:48.000Z</time>
        <extensions>
          <ns3:TrackPointExtension>
            <ns3:hr>185</ns3:hr>
            <ns3:cad>84</ns3:cad>
          </ns3:TrackPointExtension>
        </extensions>
      </trkpt>
      <trkpt lat="47.572103329002857208251953125" lon="11.02571703493595123291015625">
        <ele>866.5999755859375</ele>
        <time>2026-09-01T10:10:49.000Z</time>
        <extensions>
          <ns3:TrackPointExtension>
            <ns3:hr>185</ns3:hr>
            <ns3:cad>84</ns3:cad>
          </ns3:TrackPointExtension>
        </extensions>
      </trkpt>
      <trkpt lat="47.572102658450603485107421875" lon="11.02566112764179706573486328125">
        <ele>866.79998779296875</ele>
        <time>2026-09-01T10:10:50.000Z</time>
        <extensions>
          <ns3:TrackPointExtension>
            <ns3:hr>184</ns3:hr>
            <ns3:cad>84</ns3:cad>
          </ns3:TrackPointExtension>
        </extensions>
      </trkpt>
      <trkpt lat="47.5721056759357452392578125" lon="11.02561645209789276123046875">
        <ele>866.79998779296875</ele>
        <time>2026-09-01T10:10:51.000Z</time>
        <extensions>
          <ns3:TrackPointExtension>
            <ns3:hr>185</ns3:hr>
            <ns3:cad>84</ns3:cad>
          </ns3:TrackPointExtension>
        </extensions>
      </trkpt>
      <trkpt lat="47.5721098668873310089111328125" lon="11.02556892670691013336181640625">
        <ele>867</ele>
        <time>2026-09-01T10:10:52.000Z</time>
        <extensions>
          <ns3:TrackPointExtension>
            <ns3:hr>184</ns3:hr>
            <ns3:cad>84</ns3:cad>
          </ns3:TrackPointExtension>
        </extensions>
      </trkpt>
      <trkpt lat="47.57211313582956790924072265625" lon="11.02551410906016826629638671875">
        <ele>867.20001220703125</ele>
        <time>2026-09-01T10:10:53.000Z</time>
        <extensions>
          <ns3:TrackPointExtension>
            <ns3:hr>184</ns3:hr>
            <ns3:cad>84</ns3:cad>
          </ns3:TrackPointExtension>
        </extensions>
      </trkpt>
      <trkpt lat="47.5721145607531070709228515625" lon="11.025469936430454254150390625">
        <ele>867.5999755859375</ele>
        <time>2026-09-01T10:10:54.000Z</time>
        <extensions>
          <ns3:TrackPointExtension>
            <ns3:hr>184</ns3:hr>
            <ns3:cad>84</ns3:cad>
          </ns3:TrackPointExtension>
        </extensions>
      </trkpt>
      <trkpt lat="47.5721164047718048095703125" lon="11.02542274631559848785400390625">
        <ele>867.5999755859375</ele>
        <time>2026-09-01T10:10:55.000Z</time>
        <extensions>
          <ns3:TrackPointExtension>
            <ns3:hr>185</ns3:hr>
            <ns3:cad>84</ns3:cad>
          </ns3:TrackPointExtension>
        </extensions>
      </trkpt>
      <trkpt lat="47.57211707532405853271484375" lon="11.02538150735199451446533203125">
        <ele>867.79998779296875</ele>
        <time>2026-09-01T10:10:56.000Z</time>
        <extensions>
          <ns3:TrackPointExtension>
            <ns3:hr>184</ns3:hr>
            <ns3:cad>84</ns3:cad>
          </ns3:TrackPointExtension>
        </extensions>
      </trkpt>
      <trkpt lat="47.57212436757981777191162109375" lon="11.0253423638641834259033203125">
        <ele>868</ele>
        <time>2026-09-01T10:10:57.000Z</time>
        <extensions>
          <ns3:TrackPointExtension>
            <ns3:hr>184</ns3:hr>
            <ns3:cad>84</ns3:cad>
          </ns3:TrackPointExtension>
        </extensions>
      </trkpt>
      <trkpt lat="47.57211313582956790924072265625" lon="11.025296263396739959716796875">
        <ele>868</ele>
        <time>2026-09-01T10:10:58.000Z</time>
        <extensions>
          <ns3:TrackPointExtension>
            <ns3:hr>183</ns3:hr>
            <ns3:cad>85</ns3:cad>
          </ns3:TrackPointExtension>
        </extensions>
      </trkpt>
      <trkpt lat="47.572109699249267578125" lon="11.0252548567950725555419921875">
        <ele>868</ele>
        <time>2026-09-01T10:10:59.000Z</time>
        <extensions>
          <ns3:TrackPointExtension>
            <ns3:hr>183</ns3:hr>
            <ns3:cad>85</ns3:cad>
          </ns3:TrackPointExtension>
        </extensions>
      </trkpt>
      <trkpt lat="47.57210274226963520050048828125" lon="11.02521923370659351348876953125">
        <ele>868</ele>
        <time>2026-09-01T10:11:00.000Z</time>
        <extensions>
          <ns3:TrackPointExtension>
            <ns3:hr>183</ns3:hr>
            <ns3:cad>85</ns3:cad>
          </ns3:TrackPointExtension>
        </extensions>
      </trkpt>
      <trkpt lat="47.57209955714643001556396484375" lon="11.02518327534198760986328125">
        <ele>868</ele>
        <time>2026-09-01T10:11:01.000Z</time>
        <extensions>
          <ns3:TrackPointExtension>
            <ns3:hr>182</ns3:hr>
            <ns3:cad>85</ns3:cad>
          </ns3:TrackPointExtension>
        </extensions>
      </trkpt>
      <trkpt lat="47.57209083996713161468505859375" lon="11.02513574995100498199462890625">
        <ele>868</ele>
        <time>2026-09-01T10:11:02.000Z</time>
        <extensions>
          <ns3:TrackPointExtension>
            <ns3:hr>182</ns3:hr>
            <ns3:cad>85</ns3:cad>
          </ns3:TrackPointExtension>
        </extensions>
      </trkpt>
      <trkpt lat="47.5720910914242267608642578125" lon="11.025101132690906524658203125">
        <ele>868.20001220703125</ele>
        <time>2026-09-01T10:11:03.000Z</time>
        <extensions>
          <ns3:TrackPointExtension>
            <ns3:hr>182</ns3:hr>
            <ns3:cad>85</ns3:cad>
          </ns3:TrackPointExtension>
        </extensions>
      </trkpt>
      <trkpt lat="47.5720944441854953765869140625" lon="11.02505679242312908172607421875">
        <ele>868</ele>
        <time>2026-09-01T10:11:04.000Z</time>
        <extensions>
          <ns3:TrackPointExtension>
            <ns3:hr>181</ns3:hr>
            <ns3:cad>85</ns3:cad>
          </ns3:TrackPointExtension>
        </extensions>
      </trkpt>
      <trkpt lat="47.57210433483123779296875" lon="11.02501605637371540069580078125">
        <ele>868</ele>
        <time>2026-09-01T10:11:05.000Z</time>
        <extensions>
          <ns3:TrackPointExtension>
            <ns3:hr>181</ns3:hr>
            <ns3:cad>85</ns3:cad>
          </ns3:TrackPointExtension>
        </extensions>
      </trkpt>
      <trkpt lat="47.572118751704692840576171875" lon="11.02497515268623828887939453125">
        <ele>868.20001220703125</ele>
        <time>2026-09-01T10:11:06.000Z</time>
        <extensions>
          <ns3:TrackPointExtension>
            <ns3:hr>181</ns3:hr>
            <ns3:cad>85</ns3:cad>
          </ns3:TrackPointExtension>
        </extensions>
      </trkpt>
      <trkpt lat="47.57213182747364044189453125" lon="11.0249232687056064605712890625">
        <ele>868.20001220703125</ele>
        <time>2026-09-01T10:11:07.000Z</time>
        <extensions>
          <ns3:TrackPointExtension>
            <ns3:hr>181</ns3:hr>
            <ns3:cad>84</ns3:cad>
          </ns3:TrackPointExtension>
        </extensions>
      </trkpt>
      <trkpt lat="47.57214029319584369659423828125" lon="11.02488429285585880279541015625">
        <ele>868</ele>
        <time>2026-09-01T10:11:08.000Z</time>
        <extensions>
          <ns3:TrackPointExtension>
            <ns3:hr>181</ns3:hr>
            <ns3:cad>84</ns3:cad>
          </ns3:TrackPointExtension>
        </extensions>
      </trkpt>
      <trkpt lat="47.57215454243123531341552734375" lon="11.0248384438455104827880859375">
        <ele>868</ele>
        <time>2026-09-01T10:11:09.000Z</time>
        <extensions>
          <ns3:TrackPointExtension>
            <ns3:hr>180</ns3:hr>
            <ns3:cad>84</ns3:cad>
          </ns3:TrackPointExtension>
        </extensions>
      </trkpt>
      <trkpt lat="47.5721658580005168914794921875" lon="11.02478790096938610076904296875">
        <ele>868</ele>
        <time>2026-09-01T10:11:10.000Z</time>
        <extensions>
          <ns3:TrackPointExtension>
            <ns3:hr>180</ns3:hr>
            <ns3:cad>85</ns3:cad>
          </ns3:TrackPointExtension>
        </extensions>
      </trkpt>
      <trkpt lat="47.57217742502689361572265625" lon="11.02473543025553226470947265625">
        <ele>868</ele>
        <time>2026-09-01T10:11:11.000Z</time>
        <extensions>
          <ns3:TrackPointExtension>
            <ns3:hr>180</ns3:hr>
            <ns3:cad>85</ns3:cad>
          </ns3:TrackPointExtension>
        </extensions>
      </trkpt>
      <trkpt lat="47.5721913389861583709716796875" lon="11.0246815346181392669677734375">
        <ele>868</ele>
        <time>2026-09-01T10:11:12.000Z</time>
        <extensions>
          <ns3:TrackPointExtension>
            <ns3:hr>181</ns3:hr>
            <ns3:cad>85</ns3:cad>
          </ns3:TrackPointExtension>
        </extensions>
      </trkpt>
      <trkpt lat="47.57220483385026454925537109375" lon="11.02463132701814174652099609375">
        <ele>867.79998779296875</ele>
        <time>2026-09-01T10:11:13.000Z</time>
        <extensions>
          <ns3:TrackPointExtension>
            <ns3:hr>180</ns3:hr>
            <ns3:cad>85</ns3:cad>
          </ns3:TrackPointExtension>
        </extensions>
      </trkpt>
      <trkpt lat="47.57222176529467105865478515625" lon="11.024570725858211517333984375">
        <ele>867.79998779296875</ele>
        <time>2026-09-01T10:11:14.000Z</time>
        <extensions>
          <ns3:TrackPointExtension>
            <ns3:hr>180</ns3:hr>
            <ns3:cad>85</ns3:cad>
          </ns3:TrackPointExtension>
        </extensions>
      </trkpt>
      <trkpt lat="47.57223115302622318267822265625" lon="11.02452454157173633575439453125">
        <ele>868</ele>
        <time>2026-09-01T10:11:15.000Z</time>
        <extensions>
          <ns3:TrackPointExtension>
            <ns3:hr>181</ns3:hr>
            <ns3:cad>85</ns3:cad>
          </ns3:TrackPointExtension>
        </extensions>
      </trkpt>
      <trkpt lat="47.5722426362335681915283203125" lon="11.02447441779077053070068359375">
        <ele>868</ele>
        <time>2026-09-01T10:11:16.000Z</time>
        <extensions>
          <ns3:TrackPointExtension>
            <ns3:hr>181</ns3:hr>
            <ns3:cad>85</ns3:cad>
          </ns3:TrackPointExtension>
        </extensions>
      </trkpt>
      <trkpt lat="47.5722537003457546234130859375" lon="11.02441121824085712432861328125">
        <ele>867.79998779296875</ele>
        <time>2026-09-01T10:11:17.000Z</time>
        <extensions>
          <ns3:TrackPointExtension>
            <ns3:hr>181</ns3:hr>
            <ns3:cad>85</ns3:cad>
          </ns3:TrackPointExtension>
        </extensions>
      </trkpt>
      <trkpt lat="47.57226325571537017822265625" lon="11.024363525211811065673828125">
        <ele>867.79998779296875</ele>
        <time>2026-09-01T10:11:18.000Z</time>
        <extensions>
          <ns3:TrackPointExtension>
            <ns3:hr>181</ns3:hr>
            <ns3:cad>85</ns3:cad>
          </ns3:TrackPointExtension>
        </extensions>
      </trkpt>
      <trkpt lat="47.57227976806461811065673828125" lon="11.0243030078709125518798828125">
        <ele>868</ele>
        <time>2026-09-01T10:11:19.000Z</time>
        <extensions>
          <ns3:TrackPointExtension>
            <ns3:hr>181</ns3:hr>
            <ns3:cad>85</ns3:cad>
          </ns3:TrackPointExtension>
        </extensions>
      </trkpt>
      <trkpt lat="47.5722892396152019500732421875" lon="11.02425313554704189300537109375">
        <ele>867.79998779296875</ele>
        <time>2026-09-01T10:11:20.000Z</time>
        <extensions>
          <ns3:TrackPointExtension>
            <ns3:hr>180</ns3:hr>
            <ns3:cad>85</ns3:cad>
          </ns3:TrackPointExtension>
        </extensions>
      </trkpt>
      <trkpt lat="47.572301141917705535888671875" lon="11.02419882081449031829833984375">
        <ele>867.79998779296875</ele>
        <time>2026-09-01T10:11:21.000Z</time>
        <extensions>
          <ns3:TrackPointExtension>
            <ns3:hr>181</ns3:hr>
            <ns3:cad>85</ns3:cad>
          </ns3:TrackPointExtension>
        </extensions>
      </trkpt>
      <trkpt lat="47.572310864925384521484375" lon="11.0241457633674144744873046875">
        <ele>868</ele>
        <time>2026-09-01T10:11:22.000Z</time>
        <extensions>
          <ns3:TrackPointExtension>
            <ns3:hr>181</ns3:hr>
            <ns3:cad>85</ns3:cad>
          </ns3:TrackPointExtension>
        </extensions>
      </trkpt>
      <trkpt lat="47.5723135471343994140625" lon="11.0241005010902881622314453125">
        <ele>868.20001220703125</ele>
        <time>2026-09-01T10:11:23.000Z</time>
        <extensions>
          <ns3:TrackPointExtension>
            <ns3:hr>182</ns3:hr>
            <ns3:cad>85</ns3:cad>
          </ns3:TrackPointExtension>
        </extensions>
      </trkpt>
      <trkpt lat="47.5723174028098583221435546875" lon="11.0240351222455501556396484375">
        <ele>868.20001220703125</ele>
        <time>2026-09-01T10:11:24.000Z</time>
        <extensions>
          <ns3:TrackPointExtension>
            <ns3:hr>182</ns3:hr>
            <ns3:cad>85</ns3:cad>
          </ns3:TrackPointExtension>
        </extensions>
      </trkpt>
      <trkpt lat="47.57232201285660266876220703125" lon="11.023995392024517059326171875">
        <ele>868.20001220703125</ele>
        <time>2026-09-01T10:11:25.000Z</time>
        <extensions>
          <ns3:TrackPointExtension>
            <ns3:hr>183</ns3:hr>
            <ns3:cad>85</ns3:cad>
          </ns3:TrackPointExtension>
        </extensions>
      </trkpt>
      <trkpt lat="47.5723251141607761383056640625" lon="11.0239326953887939453125">
        <ele>868.4000244140625</ele>
        <time>2026-09-01T10:11:26.000Z</time>
        <extensions>
          <ns3:TrackPointExtension>
            <ns3:hr>183</ns3:hr>
            <ns3:cad>85</ns3:cad>
          </ns3:TrackPointExtension>
        </extensions>
      </trkpt>
      <trkpt lat="47.57232486270368099212646484375" lon="11.02388466708362102508544921875">
        <ele>868.4000244140625</ele>
        <time>2026-09-01T10:11:27.000Z</time>
        <extensions>
          <ns3:TrackPointExtension>
            <ns3:hr>184</ns3:hr>
            <ns3:cad>85</ns3:cad>
          </ns3:TrackPointExtension>
        </extensions>
      </trkpt>
      <trkpt lat="47.57232972420752048492431640625" lon="11.02383454330265522003173828125">
        <ele>868.4000244140625</ele>
        <time>2026-09-01T10:11:28.000Z</time>
        <extensions>
          <ns3:TrackPointExtension>
            <ns3:hr>184</ns3:hr>
            <ns3:cad>84</ns3:cad>
          </ns3:TrackPointExtension>
        </extensions>
      </trkpt>
      <trkpt lat="47.5723328255116939544677734375" lon="11.0237699188292026519775390625">
        <ele>868.20001220703125</ele>
        <time>2026-09-01T10:11:29.000Z</time>
        <extensions>
          <ns3:TrackPointExtension>
            <ns3:hr>184</ns3:hr>
            <ns3:cad>84</ns3:cad>
          </ns3:TrackPointExtension>
        </extensions>
      </trkpt>
      <trkpt lat="47.57233676500618457794189453125" lon="11.02372088469564914703369140625">
        <ele>868.20001220703125</ele>
        <time>2026-09-01T10:11:30.000Z</time>
        <extensions>
          <ns3:TrackPointExtension>
            <ns3:hr>184</ns3:hr>
            <ns3:cad>85</ns3:cad>
          </ns3:TrackPointExtension>
        </extensions>
      </trkpt>
      <trkpt lat="47.572341375052928924560546875" lon="11.023648716509342193603515625">
        <ele>868.20001220703125</ele>
        <time>2026-09-01T10:11:31.000Z</time>
        <extensions>
          <ns3:TrackPointExtension>
            <ns3:hr>184</ns3:hr>
            <ns3:cad>85</ns3:cad>
          </ns3:TrackPointExtension>
        </extensions>
      </trkpt>
      <trkpt lat="47.5723442249000072479248046875" lon="11.0235987603664398193359375">
        <ele>868.20001220703125</ele>
        <time>2026-09-01T10:11:32.000Z</time>
        <extensions>
          <ns3:TrackPointExtension>
            <ns3:hr>184</ns3:hr>
            <ns3:cad>85</ns3:cad>
          </ns3:TrackPointExtension>
        </extensions>
      </trkpt>
      <trkpt lat="47.5723479129374027252197265625" lon="11.023538410663604736328125">
        <ele>868</ele>
        <time>2026-09-01T10:11:33.000Z</time>
        <extensions>
          <ns3:TrackPointExtension>
            <ns3:hr>183</ns3:hr>
            <ns3:cad>85</ns3:cad>
          </ns3:TrackPointExtension>
        </extensions>
      </trkpt>
      <trkpt lat="47.5723492540419101715087890625" lon="11.0234795697033405303955078125">
        <ele>868.20001220703125</ele>
        <time>2026-09-01T10:11:34.000Z</time>
        <extensions>
          <ns3:TrackPointExtension>
            <ns3:hr>184</ns3:hr>
            <ns3:cad>85</ns3:cad>
          </ns3:TrackPointExtension>
        </extensions>
      </trkpt>
      <trkpt lat="47.57234632037580013275146484375" lon="11.0234239138662815093994140625">
        <ele>868.4000244140625</ele>
        <time>2026-09-01T10:11:35.000Z</time>
        <extensions>
          <ns3:TrackPointExtension>
            <ns3:hr>184</ns3:hr>
            <ns3:cad>86</ns3:cad>
          </ns3:TrackPointExtension>
        </extensions>
      </trkpt>
      <trkpt lat="47.57234238088130950927734375" lon="11.02336079813539981842041015625">
        <ele>868.20001220703125</ele>
        <time>2026-09-01T10:11:36.000Z</time>
        <extensions>
          <ns3:TrackPointExtension>
            <ns3:hr>184</ns3:hr>
            <ns3:cad>86</ns3:cad>
          </ns3:TrackPointExtension>
        </extensions>
      </trkpt>
      <trkpt lat="47.57234036922454833984375" lon="11.02331033907830715179443359375">
        <ele>868.5999755859375</ele>
        <time>2026-09-01T10:11:37.000Z</time>
        <extensions>
          <ns3:TrackPointExtension>
            <ns3:hr>184</ns3:hr>
            <ns3:cad>86</ns3:cad>
          </ns3:TrackPointExtension>
        </extensions>
      </trkpt>
      <trkpt lat="47.572338692843914031982421875" lon="11.02324646897614002227783203125">
        <ele>868.79998779296875</ele>
        <time>2026-09-01T10:11:38.000Z</time>
        <extensions>
          <ns3:TrackPointExtension>
            <ns3:hr>185</ns3:hr>
            <ns3:cad>86</ns3:cad>
          </ns3:TrackPointExtension>
        </extensions>
      </trkpt>
      <trkpt lat="47.5723301433026790618896484375" lon="11.02319902740418910980224609375">
        <ele>868.79998779296875</ele>
        <time>2026-09-01T10:11:39.000Z</time>
        <extensions>
          <ns3:TrackPointExtension>
            <ns3:hr>185</ns3:hr>
            <ns3:cad>86</ns3:cad>
          </ns3:TrackPointExtension>
        </extensions>
      </trkpt>
      <trkpt lat="47.57232536561787128448486328125" lon="11.02313733659684658050537109375">
        <ele>868.79998779296875</ele>
        <time>2026-09-01T10:11:40.000Z</time>
        <extensions>
          <ns3:TrackPointExtension>
            <ns3:hr>185</ns3:hr>
            <ns3:cad>86</ns3:cad>
          </ns3:TrackPointExtension>
        </extensions>
      </trkpt>
      <trkpt lat="47.57232134230434894561767578125" lon="11.0230829380452632904052734375">
        <ele>869</ele>
        <time>2026-09-01T10:11:41.000Z</time>
        <extensions>
          <ns3:TrackPointExtension>
            <ns3:hr>185</ns3:hr>
            <ns3:cad>85</ns3:cad>
          </ns3:TrackPointExtension>
        </extensions>
      </trkpt>
      <trkpt lat="47.57231430150568485260009765625" lon="11.0230292938649654388427734375">
        <ele>869</ele>
        <time>2026-09-01T10:11:42.000Z</time>
        <extensions>
          <ns3:TrackPointExtension>
            <ns3:hr>186</ns3:hr>
            <ns3:cad>85</ns3:cad>
          </ns3:TrackPointExtension>
        </extensions>
      </trkpt>
      <trkpt lat="47.57230214774608612060546875" lon="11.02295997552573680877685546875">
        <ele>869.20001220703125</ele>
        <time>2026-09-01T10:11:43.000Z</time>
        <extensions>
          <ns3:TrackPointExtension>
            <ns3:hr>187</ns3:hr>
            <ns3:cad>84</ns3:cad>
          </ns3:TrackPointExtension>
        </extensions>
      </trkpt>
      <trkpt lat="47.57229133509099483489990234375" lon="11.02291152812540531158447265625">
        <ele>869.20001220703125</ele>
        <time>2026-09-01T10:11:44.000Z</time>
        <extensions>
          <ns3:TrackPointExtension>
            <ns3:hr>187</ns3:hr>
            <ns3:cad>84</ns3:cad>
          </ns3:TrackPointExtension>
        </extensions>
      </trkpt>
      <trkpt lat="47.572274990379810333251953125" lon="11.022857464849948883056640625">
        <ele>869.20001220703125</ele>
        <time>2026-09-01T10:11:45.000Z</time>
        <extensions>
          <ns3:TrackPointExtension>
            <ns3:hr>187</ns3:hr>
            <ns3:cad>84</ns3:cad>
          </ns3:TrackPointExtension>
        </extensions>
      </trkpt>
      <trkpt lat="47.57224909029901027679443359375" lon="11.0228150524199008941650390625">
        <ele>869.4000244140625</ele>
        <time>2026-09-01T10:11:46.000Z</time>
        <extensions>
          <ns3:TrackPointExtension>
            <ns3:hr>187</ns3:hr>
            <ns3:cad>84</ns3:cad>
          </ns3:TrackPointExtension>
        </extensions>
      </trkpt>
      <trkpt lat="47.572217993438243865966796875" lon="11.022790409624576568603515625">
        <ele>869.5999755859375</ele>
        <time>2026-09-01T10:11:47.000Z</time>
        <extensions>
          <ns3:TrackPointExtension>
            <ns3:hr>187</ns3:hr>
            <ns3:cad>84</ns3:cad>
          </ns3:TrackPointExtension>
        </extensions>
      </trkpt>
      <trkpt lat="47.57218371145427227020263671875" lon="11.02276333607733249664306640625">
        <ele>869.20001220703125</ele>
        <time>2026-09-01T10:11:48.000Z</time>
        <extensions>
          <ns3:TrackPointExtension>
            <ns3:hr>187</ns3:hr>
            <ns3:cad>84</ns3:cad>
          </ns3:TrackPointExtension>
        </extensions>
      </trkpt>
      <trkpt lat="47.5721507705748081207275390625" lon="11.0227540321648120880126953125">
        <ele>869.20001220703125</ele>
        <time>2026-09-01T10:11:49.000Z</time>
        <extensions>
          <ns3:TrackPointExtension>
            <ns3:hr>187</ns3:hr>
            <ns3:cad>84</ns3:cad>
          </ns3:TrackPointExtension>
        </extensions>
      </trkpt>
      <trkpt lat="47.5721138902008533477783203125" lon="11.02273517288267612457275390625">
        <ele>869.4000244140625</ele>
        <time>2026-09-01T10:11:50.000Z</time>
        <extensions>
          <ns3:TrackPointExtension>
            <ns3:hr>188</ns3:hr>
            <ns3:cad>84</ns3:cad>
          </ns3:TrackPointExtension>
        </extensions>
      </trkpt>
      <trkpt lat="47.5720733217895030975341796875" lon="11.02273936383426189422607421875">
        <ele>869.4000244140625</ele>
        <time>2026-09-01T10:11:51.000Z</time>
        <extensions>
          <ns3:TrackPointExtension>
            <ns3:hr>188</ns3:hr>
            <ns3:cad>84</ns3:cad>
          </ns3:TrackPointExtension>
        </extensions>
      </trkpt>
      <trkpt lat="47.5720294006168842315673828125" lon="11.022740118205547332763671875">
        <ele>869.20001220703125</ele>
        <time>2026-09-01T10:11:52.000Z</time>
        <extensions>
          <ns3:TrackPointExtension>
            <ns3:hr>188</ns3:hr>
            <ns3:cad>85</ns3:cad>
          </ns3:TrackPointExtension>
        </extensions>
      </trkpt>
      <trkpt lat="47.57198791019618511199951171875" lon="11.0227671079337596893310546875">
        <ele>869.20001220703125</ele>
        <time>2026-09-01T10:11:53.000Z</time>
        <extensions>
          <ns3:TrackPointExtension>
            <ns3:hr>188</ns3:hr>
            <ns3:cad>85</ns3:cad>
          </ns3:TrackPointExtension>
        </extensions>
      </trkpt>
      <trkpt lat="47.57195203565061092376708984375" lon="11.02278026752173900604248046875">
        <ele>869.5999755859375</ele>
        <time>2026-09-01T10:11:54.000Z</time>
        <extensions>
          <ns3:TrackPointExtension>
            <ns3:hr>188</ns3:hr>
            <ns3:cad>85</ns3:cad>
          </ns3:TrackPointExtension>
        </extensions>
      </trkpt>
      <trkpt lat="47.57191096432507038116455078125" lon="11.02280474267899990081787109375">
        <ele>869.5999755859375</ele>
        <time>2026-09-01T10:11:55.000Z</time>
        <extensions>
          <ns3:TrackPointExtension>
            <ns3:hr>188</ns3:hr>
            <ns3:cad>85</ns3:cad>
          </ns3:TrackPointExtension>
        </extensions>
      </trkpt>
      <trkpt lat="47.57187676616013050079345703125" lon="11.0228308103978633880615234375">
        <ele>869.5999755859375</ele>
        <time>2026-09-01T10:11:56.000Z</time>
        <extensions>
          <ns3:TrackPointExtension>
            <ns3:hr>189</ns3:hr>
            <ns3:cad>85</ns3:cad>
          </ns3:TrackPointExtension>
        </extensions>
      </trkpt>
      <trkpt lat="47.57183267734944820404052734375" lon="11.02285821922123432159423828125">
        <ele>869.79998779296875</ele>
        <time>2026-09-01T10:11:57.000Z</time>
        <extensions>
          <ns3:TrackPointExtension>
            <ns3:hr>189</ns3:hr>
            <ns3:cad>85</ns3:cad>
          </ns3:TrackPointExtension>
        </extensions>
      </trkpt>
      <trkpt lat="47.571796886622905731201171875" lon="11.02288235910236835479736328125">
        <ele>870</ele>
        <time>2026-09-01T10:11:58.000Z</time>
        <extensions>
          <ns3:TrackPointExtension>
            <ns3:hr>189</ns3:hr>
            <ns3:cad>85</ns3:cad>
          </ns3:TrackPointExtension>
        </extensions>
      </trkpt>
      <trkpt lat="47.5717621855437755584716796875" lon="11.0229025594890117645263671875">
        <ele>870.20001220703125</ele>
        <time>2026-09-01T10:11:59.000Z</time>
        <extensions>
          <ns3:TrackPointExtension>
            <ns3:hr>189</ns3:hr>
            <ns3:cad>85</ns3:cad>
          </ns3:TrackPointExtension>
        </extensions>
      </trkpt>
      <trkpt lat="47.571721784770488739013671875" lon="11.0229226760566234588623046875">
        <ele>870.20001220703125</ele>
        <time>2026-09-01T10:12:00.000Z</time>
        <extensions>
          <ns3:TrackPointExtension>
            <ns3:hr>189</ns3:hr>
            <ns3:cad>85</ns3:cad>
          </ns3:TrackPointExtension>
        </extensions>
      </trkpt>
      <trkpt lat="47.57169018499553203582763671875" lon="11.02293667383491992950439453125">
        <ele>870.4000244140625</ele>
        <time>2026-09-01T10:12:01.000Z</time>
        <extensions>
          <ns3:TrackPointExtension>
            <ns3:hr>190</ns3:hr>
            <ns3:cad>85</ns3:cad>
          </ns3:TrackPointExtension>
        </extensions>
      </trkpt>
      <trkpt lat="47.5716542266309261322021484375" lon="11.02297053672373294830322265625">
        <ele>870.4000244140625</ele>
        <time>2026-09-01T10:12:02.000Z</time>
        <extensions>
          <ns3:TrackPointExtension>
            <ns3:hr>190</ns3:hr>
            <ns3:cad>84</ns3:cad>
          </ns3:TrackPointExtension>
        </extensions>
      </trkpt>
      <trkpt lat="47.57162396796047687530517578125" lon="11.02298931218683719635009765625">
        <ele>870.20001220703125</ele>
        <time>2026-09-01T10:12:03.000Z</time>
        <extensions>
          <ns3:TrackPointExtension>
            <ns3:hr>190</ns3:hr>
            <ns3:cad>84</ns3:cad>
          </ns3:TrackPointExtension>
        </extensions>
      </trkpt>
      <trkpt lat="47.57158792577683925628662109375" lon="11.0230086743831634521484375">
        <ele>870</ele>
        <time>2026-09-01T10:12:04.000Z</time>
        <extensions>
          <ns3:TrackPointExtension>
            <ns3:hr>190</ns3:hr>
            <ns3:cad>84</ns3:cad>
          </ns3:TrackPointExtension>
        </extensions>
      </trkpt>
      <trkpt lat="47.5715549848973751068115234375" lon="11.0230209119617938995361328125">
        <ele>870.4000244140625</ele>
        <time>2026-09-01T10:12:05.000Z</time>
        <extensions>
          <ns3:TrackPointExtension>
            <ns3:hr>190</ns3:hr>
            <ns3:cad>85</ns3:cad>
          </ns3:TrackPointExtension>
        </extensions>
      </trkpt>
      <trkpt lat="47.57151802070438861846923828125" lon="11.02303155697882175445556640625">
        <ele>870.5999755859375</ele>
        <time>2026-09-01T10:12:06.000Z</time>
        <extensions>
          <ns3:TrackPointExtension>
            <ns3:hr>191</ns3:hr>
            <ns3:cad>86</ns3:cad>
          </ns3:TrackPointExtension>
        </extensions>
      </trkpt>
      <trkpt lat="47.571479715406894683837890625" lon="11.02304027415812015533447265625">
        <ele>870.79998779296875</ele>
        <time>2026-09-01T10:12:07.000Z</time>
        <extensions>
          <ns3:TrackPointExtension>
            <ns3:hr>190</ns3:hr>
            <ns3:cad>86</ns3:cad>
          </ns3:TrackPointExtension>
        </extensions>
      </trkpt>
      <trkpt lat="47.5714436732232570648193359375" lon="11.02304765023291110992431640625">
        <ele>870.79998779296875</ele>
        <time>2026-09-01T10:12:08.000Z</time>
        <extensions>
          <ns3:TrackPointExtension>
            <ns3:hr>190</ns3:hr>
            <ns3:cad>86</ns3:cad>
          </ns3:TrackPointExtension>
        </extensions>
      </trkpt>
      <trkpt lat="47.5714074634015560150146484375" lon="11.023051925003528594970703125">
        <ele>871.20001220703125</ele>
        <time>2026-09-01T10:12:09.000Z</time>
        <extensions>
          <ns3:TrackPointExtension>
            <ns3:hr>190</ns3:hr>
            <ns3:cad>85</ns3:cad>
          </ns3:TrackPointExtension>
        </extensions>
      </trkpt>
      <trkpt lat="47.57137116976082324981689453125" lon="11.023042537271976470947265625">
        <ele>871.4000244140625</ele>
        <time>2026-09-01T10:12:10.000Z</time>
        <extensions>
          <ns3:TrackPointExtension>
            <ns3:hr>191</ns3:hr>
            <ns3:cad>85</ns3:cad>
          </ns3:TrackPointExtension>
        </extensions>
      </trkpt>
      <trkpt lat="47.57133328355848789215087890625" lon="11.0230370052158832550048828125">
        <ele>871.4000244140625</ele>
        <time>2026-09-01T10:12:11.000Z</time>
        <extensions>
          <ns3:TrackPointExtension>
            <ns3:hr>190</ns3:hr>
            <ns3:cad>85</ns3:cad>
          </ns3:TrackPointExtension>
        </extensions>
      </trkpt>
      <trkpt lat="47.571296989917755126953125" lon="11.02302786894142627716064453125">
        <ele>871.5999755859375</ele>
        <time>2026-09-01T10:12:12.000Z</time>
        <extensions>
          <ns3:TrackPointExtension>
            <ns3:hr>190</ns3:hr>
            <ns3:cad>85</ns3:cad>
          </ns3:TrackPointExtension>
        </extensions>
      </trkpt>
      <trkpt lat="47.57126823998987674713134765625" lon="11.0230088420212268829345703125">
        <ele>871.79998779296875</ele>
        <time>2026-09-01T10:12:13.000Z</time>
        <extensions>
          <ns3:TrackPointExtension>
            <ns3:hr>191</ns3:hr>
            <ns3:cad>85</ns3:cad>
          </ns3:TrackPointExtension>
        </extensions>
      </trkpt>
      <trkpt lat="47.57123194634914398193359375" lon="11.0229917429387569427490234375">
        <ele>871.79998779296875</ele>
        <time>2026-09-01T10:12:14.000Z</time>
        <extensions>
          <ns3:TrackPointExtension>
            <ns3:hr>190</ns3:hr>
            <ns3:cad>85</ns3:cad>
          </ns3:TrackPointExtension>
        </extensions>
      </trkpt>
      <trkpt lat="47.57119984365999698638916015625" lon="11.0229719616472721099853515625">
        <ele>872</ele>
        <time>2026-09-01T10:12:15.000Z</time>
        <extensions>
          <ns3:TrackPointExtension>
            <ns3:hr>190</ns3:hr>
            <ns3:cad>86</ns3:cad>
          </ns3:TrackPointExtension>
        </extensions>
      </trkpt>
      <trkpt lat="47.57116296328604221343994140625" lon="11.0229511745274066925048828125">
        <ele>872.20001220703125</ele>
        <time>2026-09-01T10:12:16.000Z</time>
        <extensions>
          <ns3:TrackPointExtension>
            <ns3:hr>191</ns3:hr>
            <ns3:cad>86</ns3:cad>
          </ns3:TrackPointExtension>
        </extensions>
      </trkpt>
      <trkpt lat="47.571125663816928863525390625" lon="11.0229287110269069671630859375">
        <ele>872.20001220703125</ele>
        <time>2026-09-01T10:12:17.000Z</time>
        <extensions>
          <ns3:TrackPointExtension>
            <ns3:hr>191</ns3:hr>
            <ns3:cad>86</ns3:cad>
          </ns3:TrackPointExtension>
        </extensions>
      </trkpt>
      <trkpt lat="47.571084760129451751708984375" lon="11.0229022242128849029541015625">
        <ele>872.4000244140625</ele>
        <time>2026-09-01T10:12:18.000Z</time>
        <extensions>
          <ns3:TrackPointExtension>
            <ns3:hr>191</ns3:hr>
            <ns3:cad>86</ns3:cad>
          </ns3:TrackPointExtension>
        </extensions>
      </trkpt>
      <trkpt lat="47.57105114869773387908935546875" lon="11.02287657558917999267578125">
        <ele>872.5999755859375</ele>
        <time>2026-09-01T10:12:19.000Z</time>
        <extensions>
          <ns3:TrackPointExtension>
            <ns3:hr>191</ns3:hr>
            <ns3:cad>87</ns3:cad>
          </ns3:TrackPointExtension>
        </extensions>
      </trkpt>
      <trkpt lat="47.5710101611912250518798828125" lon="11.02284430526196956634521484375">
        <ele>872.5999755859375</ele>
        <time>2026-09-01T10:12:20.000Z</time>
        <extensions>
          <ns3:TrackPointExtension>
            <ns3:hr>191</ns3:hr>
            <ns3:cad>87</ns3:cad>
          </ns3:TrackPointExtension>
        </extensions>
      </trkpt>
      <trkpt lat="47.57097822614014148712158203125" lon="11.02281580679118633270263671875">
        <ele>872.5999755859375</ele>
        <time>2026-09-01T10:12:21.000Z</time>
        <extensions>
          <ns3:TrackPointExtension>
            <ns3:hr>191</ns3:hr>
            <ns3:cad>87</ns3:cad>
          </ns3:TrackPointExtension>
        </extensions>
      </trkpt>
      <trkpt lat="47.57093598134815692901611328125" lon="11.02278362028300762176513671875">
        <ele>872.79998779296875</ele>
        <time>2026-09-01T10:12:22.000Z</time>
        <extensions>
          <ns3:TrackPointExtension>
            <ns3:hr>191</ns3:hr>
            <ns3:cad>89</ns3:cad>
          </ns3:TrackPointExtension>
        </extensions>
      </trkpt>
      <trkpt lat="47.5708941556513309478759765625" lon="11.0227449797093868255615234375">
        <ele>872.79998779296875</ele>
        <time>2026-09-01T10:12:23.000Z</time>
        <extensions>
          <ns3:TrackPointExtension>
            <ns3:hr>191</ns3:hr>
            <ns3:cad>89</ns3:cad>
          </ns3:TrackPointExtension>
        </extensions>
      </trkpt>
    </trkseg>
  </trk>
</gpx>
